<?xml version="1.0" encoding="UTF-8" standalone="no" ?>
<gpx xmlns="http://www.topografix.com/GPX/1/1" xmlns:xsi="http://www.w3.org/2001/XMLSchema-instance" xsi:schemaLocation="http://www.topografix.com/GPX/1/1 http://www.topografix.com/GPX/1/1/gpx.xsd" version="1.1" creator="VisuGPX - https://www.visugpx.com">
  <metadata>
    <name>GR5 - GR52 via Isola</name>
    <desc><![CDATA[GR5 puis GR52 pour (tenter de) joindre St Gingolph à Menton via Isola 2000]]></desc>
  </metadata>
  <trk>
    <name><![CDATA[10365936-GR5 - GR52 via Isola]]></name>
    <trkseg>
      <trkpt lat="46.39192" lon="6.80659">
        <ele>391</ele>
        <time>2019-08-14T10:52:38Z</time>
      </trkpt>
      <trkpt lat="46.39235" lon="6.80604">
        <ele>389</ele>
        <time>2019-08-14T10:53:55Z</time>
      </trkpt>
      <trkpt lat="46.39239" lon="6.80627">
        <ele>386</ele>
        <time>2019-08-14T10:54:16Z</time>
      </trkpt>
      <trkpt lat="46.39311" lon="6.80578">
        <ele>381</ele>
        <time>2019-08-14T10:56:02Z</time>
      </trkpt>
      <trkpt lat="46.39358" lon="6.80576">
        <ele>376</ele>
        <time>2019-08-14T10:57:05Z</time>
      </trkpt>
      <trkpt lat="46.39394" lon="6.8049">
        <ele>377</ele>
        <time>2019-08-14T10:58:38Z</time>
      </trkpt>
      <trkpt lat="46.39419" lon="6.80485">
        <ele>374</ele>
        <time>2019-08-14T10:59:12Z</time>
      </trkpt>
      <trkpt lat="46.39425" lon="6.80405">
        <ele>376</ele>
        <time>2019-08-14T11:00:26Z</time>
      </trkpt>
      <trkpt lat="46.39384" lon="6.80146">
        <ele>381</ele>
        <time>2019-08-14T11:04:30Z</time>
      </trkpt>
      <trkpt lat="46.39369" lon="6.80164">
        <ele>385</ele>
        <time>2019-08-14T11:04:56Z</time>
      </trkpt>
      <trkpt lat="46.39382" lon="6.80246">
        <ele>385</ele>
        <time>2019-08-14T11:06:14Z</time>
      </trkpt>
      <trkpt lat="46.39364" lon="6.80252">
        <ele>389</ele>
        <time>2019-08-14T11:06:38Z</time>
      </trkpt>
      <trkpt lat="46.39313" lon="6.80281">
        <ele>396</ele>
        <time>2019-08-14T11:07:51Z</time>
      </trkpt>
      <trkpt lat="46.3925" lon="6.80258">
        <ele>404</ele>
        <time>2019-08-14T11:09:18Z</time>
      </trkpt>
      <trkpt lat="46.39215" lon="6.80206">
        <ele>410</ele>
        <time>2019-08-14T11:10:25Z</time>
      </trkpt>
      <trkpt lat="46.39143" lon="6.80167">
        <ele>421</ele>
        <time>2019-08-14T11:12:07Z</time>
      </trkpt>
      <trkpt lat="46.39058" lon="6.80114">
        <ele>432</ele>
        <time>2019-08-14T11:14:11Z</time>
      </trkpt>
      <trkpt lat="46.38918" lon="6.80101">
        <ele>452</ele>
        <time>2019-08-14T11:17:18Z</time>
      </trkpt>
      <trkpt lat="46.38854" lon="6.8014">
        <ele>459</ele>
        <time>2019-08-14T11:18:51Z</time>
      </trkpt>
      <trkpt lat="46.38807" lon="6.80124">
        <ele>470</ele>
        <time>2019-08-14T11:19:55Z</time>
      </trkpt>
      <trkpt lat="46.38733" lon="6.80113">
        <ele>488</ele>
        <time>2019-08-14T11:21:34Z</time>
      </trkpt>
      <trkpt lat="46.38728" lon="6.80069">
        <ele>494</ele>
        <time>2019-08-14T11:22:16Z</time>
      </trkpt>
      <trkpt lat="46.38645" lon="6.80119">
        <ele>509</ele>
        <time>2019-08-14T11:24:15Z</time>
      </trkpt>
      <trkpt lat="46.38607" lon="6.80091">
        <ele>525</ele>
        <time>2019-08-14T11:25:12Z</time>
      </trkpt>
      <trkpt lat="46.38596" lon="6.80126">
        <ele>519</ele>
        <time>2019-08-14T11:25:48Z</time>
      </trkpt>
      <trkpt lat="46.38503" lon="6.80157">
        <ele>543</ele>
        <time>2019-08-14T11:27:55Z</time>
      </trkpt>
      <trkpt lat="46.38466" lon="6.80205">
        <ele>550</ele>
        <time>2019-08-14T11:29:01Z</time>
      </trkpt>
      <trkpt lat="46.38459" lon="6.80247">
        <ele>545</ele>
        <time>2019-08-14T11:29:41Z</time>
      </trkpt>
      <trkpt lat="46.38434" lon="6.80285">
        <ele>553</ele>
        <time>2019-08-14T11:30:29Z</time>
      </trkpt>
      <trkpt lat="46.38386" lon="6.80301">
        <ele>578</ele>
        <time>2019-08-14T11:31:35Z</time>
      </trkpt>
      <trkpt lat="46.38326" lon="6.80435">
        <ele>596</ele>
        <time>2019-08-14T11:34:02Z</time>
      </trkpt>
      <trkpt lat="46.38315" lon="6.80497">
        <ele>598</ele>
        <time>2019-08-14T11:35:01Z</time>
      </trkpt>
      <trkpt lat="46.38302" lon="6.80559">
        <ele>604</ele>
        <time>2019-08-14T11:36:01Z</time>
      </trkpt>
      <trkpt lat="46.38299" lon="6.80554">
        <ele>605</ele>
        <time>2019-08-14T11:36:07Z</time>
      </trkpt>
      <trkpt lat="46.38288" lon="6.80509">
        <ele>611</ele>
        <time>2019-08-14T11:36:51Z</time>
      </trkpt>
      <trkpt lat="46.38285" lon="6.805">
        <ele>613</ele>
        <time>2019-08-14T11:37:00Z</time>
      </trkpt>
      <trkpt lat="46.3828" lon="6.80499">
        <ele>615</ele>
        <time>2019-08-14T11:37:07Z</time>
      </trkpt>
      <trkpt lat="46.38277" lon="6.80501">
        <ele>617</ele>
        <time>2019-08-14T11:37:11Z</time>
      </trkpt>
      <trkpt lat="46.38275" lon="6.80507">
        <ele>617</ele>
        <time>2019-08-14T11:37:17Z</time>
      </trkpt>
      <trkpt lat="46.38278" lon="6.80568">
        <ele>611</ele>
        <time>2019-08-14T11:38:14Z</time>
      </trkpt>
      <trkpt lat="46.38277" lon="6.80582">
        <ele>610</ele>
        <time>2019-08-14T11:38:27Z</time>
      </trkpt>
      <trkpt lat="46.38276" lon="6.80594">
        <ele>613</ele>
        <time>2019-08-14T11:38:38Z</time>
      </trkpt>
      <trkpt lat="46.38273" lon="6.80605">
        <ele>617</ele>
        <time>2019-08-14T11:38:49Z</time>
      </trkpt>
      <trkpt lat="46.38269" lon="6.80612">
        <ele>620</ele>
        <time>2019-08-14T11:38:57Z</time>
      </trkpt>
      <trkpt lat="46.38263" lon="6.80617">
        <ele>623</ele>
        <time>2019-08-14T11:39:06Z</time>
      </trkpt>
      <trkpt lat="46.38256" lon="6.80616">
        <ele>624</ele>
        <time>2019-08-14T11:39:16Z</time>
      </trkpt>
      <trkpt lat="46.38202" lon="6.80595">
        <ele>631</ele>
        <time>2019-08-14T11:40:30Z</time>
      </trkpt>
      <trkpt lat="46.38199" lon="6.80591">
        <ele>631</ele>
        <time>2019-08-14T11:40:36Z</time>
      </trkpt>
      <trkpt lat="46.38198" lon="6.80586">
        <ele>630</ele>
        <time>2019-08-14T11:40:40Z</time>
      </trkpt>
      <trkpt lat="46.382" lon="6.8058">
        <ele>629</ele>
        <time>2019-08-14T11:40:47Z</time>
      </trkpt>
      <trkpt lat="46.38204" lon="6.80576">
        <ele>629</ele>
        <time>2019-08-14T11:40:53Z</time>
      </trkpt>
      <trkpt lat="46.38228" lon="6.8057">
        <ele>624</ele>
        <time>2019-08-14T11:41:26Z</time>
      </trkpt>
      <trkpt lat="46.38231" lon="6.80568">
        <ele>624</ele>
        <time>2019-08-14T11:41:30Z</time>
      </trkpt>
      <trkpt lat="46.38233" lon="6.80564">
        <ele>624</ele>
        <time>2019-08-14T11:41:35Z</time>
      </trkpt>
      <trkpt lat="46.38233" lon="6.8056">
        <ele>625</ele>
        <time>2019-08-14T11:41:38Z</time>
      </trkpt>
      <trkpt lat="46.38231" lon="6.80556">
        <ele>626</ele>
        <time>2019-08-14T11:41:43Z</time>
      </trkpt>
      <trkpt lat="46.38228" lon="6.80553">
        <ele>627</ele>
        <time>2019-08-14T11:41:48Z</time>
      </trkpt>
      <trkpt lat="46.38226" lon="6.80552">
        <ele>628</ele>
        <time>2019-08-14T11:41:50Z</time>
      </trkpt>
      <trkpt lat="46.38156" lon="6.80539">
        <ele>650</ele>
        <time>2019-08-14T11:43:25Z</time>
      </trkpt>
      <trkpt lat="46.38121" lon="6.80533">
        <ele>660</ele>
        <time>2019-08-14T11:44:12Z</time>
      </trkpt>
      <trkpt lat="46.38121" lon="6.80568">
        <ele>651</ele>
        <time>2019-08-14T11:44:44Z</time>
      </trkpt>
      <trkpt lat="46.38104" lon="6.80613">
        <ele>659</ele>
        <time>2019-08-14T11:45:31Z</time>
      </trkpt>
      <trkpt lat="46.38085" lon="6.80607">
        <ele>662</ele>
        <time>2019-08-14T11:45:57Z</time>
      </trkpt>
      <trkpt lat="46.38097" lon="6.80648">
        <ele>671</ele>
        <time>2019-08-14T11:46:38Z</time>
      </trkpt>
      <trkpt lat="46.3806" lon="6.80658">
        <ele>681</ele>
        <time>2019-08-14T11:47:28Z</time>
      </trkpt>
      <trkpt lat="46.38039" lon="6.80649">
        <ele>682</ele>
        <time>2019-08-14T11:47:58Z</time>
      </trkpt>
      <trkpt lat="46.37986" lon="6.80631">
        <ele>687</ele>
        <time>2019-08-14T11:49:10Z</time>
      </trkpt>
      <trkpt lat="46.37985" lon="6.80631">
        <ele>687</ele>
        <time>2019-08-14T11:49:11Z</time>
      </trkpt>
      <trkpt lat="46.37963" lon="6.80619">
        <ele>689</ele>
        <time>2019-08-14T11:49:43Z</time>
      </trkpt>
      <trkpt lat="46.37941" lon="6.80607">
        <ele>692</ele>
        <time>2019-08-14T11:50:14Z</time>
      </trkpt>
      <trkpt lat="46.37909" lon="6.80582">
        <ele>694</ele>
        <time>2019-08-14T11:51:03Z</time>
      </trkpt>
      <trkpt lat="46.37877" lon="6.80557">
        <ele>707</ele>
        <time>2019-08-14T11:51:51Z</time>
      </trkpt>
      <trkpt lat="46.3784" lon="6.80515">
        <ele>712</ele>
        <time>2019-08-14T11:52:54Z</time>
      </trkpt>
      <trkpt lat="46.37806" lon="6.80475">
        <ele>723</ele>
        <time>2019-08-14T11:53:52Z</time>
      </trkpt>
      <trkpt lat="46.37786" lon="6.80456">
        <ele>730</ele>
        <time>2019-08-14T11:54:24Z</time>
      </trkpt>
      <trkpt lat="46.37767" lon="6.80437">
        <ele>734</ele>
        <time>2019-08-14T11:54:55Z</time>
      </trkpt>
      <trkpt lat="46.37733" lon="6.8042">
        <ele>739</ele>
        <time>2019-08-14T11:55:43Z</time>
      </trkpt>
      <trkpt lat="46.377" lon="6.80403">
        <ele>747</ele>
        <time>2019-08-14T11:56:30Z</time>
      </trkpt>
      <trkpt lat="46.37679" lon="6.80388">
        <ele>751</ele>
        <time>2019-08-14T11:57:01Z</time>
      </trkpt>
      <trkpt lat="46.37658" lon="6.80373">
        <ele>755</ele>
        <time>2019-08-14T11:57:32Z</time>
      </trkpt>
      <trkpt lat="46.37644" lon="6.80337">
        <ele>758</ele>
        <time>2019-08-14T11:58:10Z</time>
      </trkpt>
      <trkpt lat="46.37656" lon="6.80333">
        <ele>755</ele>
        <time>2019-08-14T11:58:27Z</time>
      </trkpt>
      <trkpt lat="46.37633" lon="6.80319">
        <ele>762</ele>
        <time>2019-08-14T11:59:00Z</time>
      </trkpt>
      <trkpt lat="46.37624" lon="6.80203">
        <ele>778</ele>
        <time>2019-08-14T12:00:48Z</time>
      </trkpt>
      <trkpt lat="46.37653" lon="6.80219">
        <ele>777</ele>
        <time>2019-08-14T12:01:29Z</time>
      </trkpt>
      <trkpt lat="46.37646" lon="6.802">
        <ele>781</ele>
        <time>2019-08-14T12:01:49Z</time>
      </trkpt>
      <trkpt lat="46.37631" lon="6.80168">
        <ele>787</ele>
        <time>2019-08-14T12:02:24Z</time>
      </trkpt>
      <trkpt lat="46.37607" lon="6.80129">
        <ele>793</ele>
        <time>2019-08-14T12:03:13Z</time>
      </trkpt>
      <trkpt lat="46.37576" lon="6.80097">
        <ele>796</ele>
        <time>2019-08-14T12:04:03Z</time>
      </trkpt>
      <trkpt lat="46.37553" lon="6.80063">
        <ele>800</ele>
        <time>2019-08-14T12:04:47Z</time>
      </trkpt>
      <trkpt lat="46.37522" lon="6.80026">
        <ele>801</ele>
        <time>2019-08-14T12:05:41Z</time>
      </trkpt>
      <trkpt lat="46.3751" lon="6.79975">
        <ele>809</ele>
        <time>2019-08-14T12:06:30Z</time>
      </trkpt>
      <trkpt lat="46.37495" lon="6.79926">
        <ele>817</ele>
        <time>2019-08-14T12:07:20Z</time>
      </trkpt>
      <trkpt lat="46.37491" lon="6.79891">
        <ele>827</ele>
        <time>2019-08-14T12:07:52Z</time>
      </trkpt>
      <trkpt lat="46.37487" lon="6.79857">
        <ele>837</ele>
        <time>2019-08-14T12:08:24Z</time>
      </trkpt>
      <trkpt lat="46.37487" lon="6.79857">
        <ele>837</ele>
        <time>2019-08-14T12:08:24Z</time>
      </trkpt>
      <trkpt lat="46.37466" lon="6.79822">
        <ele>840</ele>
        <time>2019-08-14T12:09:07Z</time>
      </trkpt>
      <trkpt lat="46.37446" lon="6.79786">
        <ele>846</ele>
        <time>2019-08-14T12:09:49Z</time>
      </trkpt>
      <trkpt lat="46.37436" lon="6.79773">
        <ele>846</ele>
        <time>2019-08-14T12:10:07Z</time>
      </trkpt>
      <trkpt lat="46.37431" lon="6.79767">
        <ele>846</ele>
        <time>2019-08-14T12:10:16Z</time>
      </trkpt>
      <trkpt lat="46.37427" lon="6.79762">
        <ele>846</ele>
        <time>2019-08-14T12:10:23Z</time>
      </trkpt>
      <trkpt lat="46.37421" lon="6.79758">
        <ele>844</ele>
        <time>2019-08-14T12:10:32Z</time>
      </trkpt>
      <trkpt lat="46.37416" lon="6.79754">
        <ele>843</ele>
        <time>2019-08-14T12:10:39Z</time>
      </trkpt>
      <trkpt lat="46.37402" lon="6.79747">
        <ele>841</ele>
        <time>2019-08-14T12:10:59Z</time>
      </trkpt>
      <trkpt lat="46.37398" lon="6.79744">
        <ele>840</ele>
        <time>2019-08-14T12:11:05Z</time>
      </trkpt>
      <trkpt lat="46.37393" lon="6.7974">
        <ele>840</ele>
        <time>2019-08-14T12:11:13Z</time>
      </trkpt>
      <trkpt lat="46.37385" lon="6.7973">
        <ele>840</ele>
        <time>2019-08-14T12:11:27Z</time>
      </trkpt>
      <trkpt lat="46.37381" lon="6.79724">
        <ele>840</ele>
        <time>2019-08-14T12:11:35Z</time>
      </trkpt>
      <trkpt lat="46.37368" lon="6.79691">
        <ele>844</ele>
        <time>2019-08-14T12:12:10Z</time>
      </trkpt>
      <trkpt lat="46.37365" lon="6.79683">
        <ele>844</ele>
        <time>2019-08-14T12:12:18Z</time>
      </trkpt>
      <trkpt lat="46.37361" lon="6.79677">
        <ele>844</ele>
        <time>2019-08-14T12:12:26Z</time>
      </trkpt>
      <trkpt lat="46.37357" lon="6.79671">
        <ele>844</ele>
        <time>2019-08-14T12:12:33Z</time>
      </trkpt>
      <trkpt lat="46.37334" lon="6.79641">
        <ele>843</ele>
        <time>2019-08-14T12:13:15Z</time>
      </trkpt>
      <trkpt lat="46.3733" lon="6.79636">
        <ele>843</ele>
        <time>2019-08-14T12:13:22Z</time>
      </trkpt>
      <trkpt lat="46.37317" lon="6.79612">
        <ele>849</ele>
        <time>2019-08-14T12:13:50Z</time>
      </trkpt>
      <trkpt lat="46.37315" lon="6.79609">
        <ele>849</ele>
        <time>2019-08-14T12:13:54Z</time>
      </trkpt>
      <trkpt lat="46.37312" lon="6.79597">
        <ele>852</ele>
        <time>2019-08-14T12:14:05Z</time>
      </trkpt>
      <trkpt lat="46.37311" lon="6.79591">
        <ele>853</ele>
        <time>2019-08-14T12:14:11Z</time>
      </trkpt>
      <trkpt lat="46.37308" lon="6.79584">
        <ele>855</ele>
        <time>2019-08-14T12:14:19Z</time>
      </trkpt>
      <trkpt lat="46.37306" lon="6.79578">
        <ele>857</ele>
        <time>2019-08-14T12:14:25Z</time>
      </trkpt>
      <trkpt lat="46.37302" lon="6.79573">
        <ele>858</ele>
        <time>2019-08-14T12:14:32Z</time>
      </trkpt>
      <trkpt lat="46.37298" lon="6.79568">
        <ele>859</ele>
        <time>2019-08-14T12:14:39Z</time>
      </trkpt>
      <trkpt lat="46.37256" lon="6.7953">
        <ele>863</ele>
        <time>2019-08-14T12:15:45Z</time>
      </trkpt>
      <trkpt lat="46.3725" lon="6.79524">
        <ele>864</ele>
        <time>2019-08-14T12:15:55Z</time>
      </trkpt>
      <trkpt lat="46.37231" lon="6.79502">
        <ele>867</ele>
        <time>2019-08-14T12:16:27Z</time>
      </trkpt>
      <trkpt lat="46.37213" lon="6.79479">
        <ele>870</ele>
        <time>2019-08-14T12:16:59Z</time>
      </trkpt>
      <trkpt lat="46.37205" lon="6.7947">
        <ele>871</ele>
        <time>2019-08-14T12:17:13Z</time>
      </trkpt>
      <trkpt lat="46.372" lon="6.79461">
        <ele>872</ele>
        <time>2019-08-14T12:17:23Z</time>
      </trkpt>
      <trkpt lat="46.37194" lon="6.79452">
        <ele>873</ele>
        <time>2019-08-14T12:17:35Z</time>
      </trkpt>
      <trkpt lat="46.37151" lon="6.79373">
        <ele>883</ele>
        <time>2019-08-14T12:19:08Z</time>
      </trkpt>
      <trkpt lat="46.37147" lon="6.79366">
        <ele>884</ele>
        <time>2019-08-14T12:19:16Z</time>
      </trkpt>
      <trkpt lat="46.37142" lon="6.79352">
        <ele>886</ele>
        <time>2019-08-14T12:19:30Z</time>
      </trkpt>
      <trkpt lat="46.37138" lon="6.79338">
        <ele>889</ele>
        <time>2019-08-14T12:19:44Z</time>
      </trkpt>
      <trkpt lat="46.37135" lon="6.79334">
        <ele>889</ele>
        <time>2019-08-14T12:19:50Z</time>
      </trkpt>
      <trkpt lat="46.37132" lon="6.7933">
        <ele>890</ele>
        <time>2019-08-14T12:19:55Z</time>
      </trkpt>
      <trkpt lat="46.37128" lon="6.79327">
        <ele>890</ele>
        <time>2019-08-14T12:20:01Z</time>
      </trkpt>
      <trkpt lat="46.37116" lon="6.79322">
        <ele>889</ele>
        <time>2019-08-14T12:20:18Z</time>
      </trkpt>
      <trkpt lat="46.37111" lon="6.79318">
        <ele>890</ele>
        <time>2019-08-14T12:20:26Z</time>
      </trkpt>
      <trkpt lat="46.37105" lon="6.79314">
        <ele>890</ele>
        <time>2019-08-14T12:20:34Z</time>
      </trkpt>
      <trkpt lat="46.37101" lon="6.79309">
        <ele>891</ele>
        <time>2019-08-14T12:20:41Z</time>
      </trkpt>
      <trkpt lat="46.37096" lon="6.79305">
        <ele>891</ele>
        <time>2019-08-14T12:20:49Z</time>
      </trkpt>
      <trkpt lat="46.37088" lon="6.79297">
        <ele>893</ele>
        <time>2019-08-14T12:21:02Z</time>
      </trkpt>
      <trkpt lat="46.37069" lon="6.79283">
        <ele>894</ele>
        <time>2019-08-14T12:21:30Z</time>
      </trkpt>
      <trkpt lat="46.37066" lon="6.79282">
        <ele>894</ele>
        <time>2019-08-14T12:21:35Z</time>
      </trkpt>
      <trkpt lat="46.37063" lon="6.7928">
        <ele>895</ele>
        <time>2019-08-14T12:21:39Z</time>
      </trkpt>
      <trkpt lat="46.37062" lon="6.79277">
        <ele>895</ele>
        <time>2019-08-14T12:21:42Z</time>
      </trkpt>
      <trkpt lat="46.3706" lon="6.79275">
        <ele>896</ele>
        <time>2019-08-14T12:21:45Z</time>
      </trkpt>
      <trkpt lat="46.37058" lon="6.79273">
        <ele>896</ele>
        <time>2019-08-14T12:21:48Z</time>
      </trkpt>
      <trkpt lat="46.37056" lon="6.79272">
        <ele>896</ele>
        <time>2019-08-14T12:21:51Z</time>
      </trkpt>
      <trkpt lat="46.37054" lon="6.7927">
        <ele>896</ele>
        <time>2019-08-14T12:21:55Z</time>
      </trkpt>
      <trkpt lat="46.37047" lon="6.79257">
        <ele>899</ele>
        <time>2019-08-14T12:22:10Z</time>
      </trkpt>
      <trkpt lat="46.37045" lon="6.79253">
        <ele>900</ele>
        <time>2019-08-14T12:22:14Z</time>
      </trkpt>
      <trkpt lat="46.3704" lon="6.79239">
        <ele>902</ele>
        <time>2019-08-14T12:22:29Z</time>
      </trkpt>
      <trkpt lat="46.37038" lon="6.79231">
        <ele>904</ele>
        <time>2019-08-14T12:22:37Z</time>
      </trkpt>
      <trkpt lat="46.3703" lon="6.79192">
        <ele>912</ele>
        <time>2019-08-14T12:23:14Z</time>
      </trkpt>
      <trkpt lat="46.37021" lon="6.79153">
        <ele>918</ele>
        <time>2019-08-14T12:23:52Z</time>
      </trkpt>
      <trkpt lat="46.37003" lon="6.79029">
        <ele>928</ele>
        <time>2019-08-14T12:25:49Z</time>
      </trkpt>
      <trkpt lat="46.37003" lon="6.79026">
        <ele>929</ele>
        <time>2019-08-14T12:25:51Z</time>
      </trkpt>
      <trkpt lat="46.37002" lon="6.79023">
        <ele>929</ele>
        <time>2019-08-14T12:25:54Z</time>
      </trkpt>
      <trkpt lat="46.37" lon="6.79021">
        <ele>929</ele>
        <time>2019-08-14T12:25:58Z</time>
      </trkpt>
      <trkpt lat="46.36998" lon="6.79019">
        <ele>929</ele>
        <time>2019-08-14T12:26:01Z</time>
      </trkpt>
      <trkpt lat="46.36991" lon="6.79015">
        <ele>931</ele>
        <time>2019-08-14T12:26:11Z</time>
      </trkpt>
      <trkpt lat="46.36989" lon="6.79013">
        <ele>932</ele>
        <time>2019-08-14T12:26:14Z</time>
      </trkpt>
      <trkpt lat="46.36975" lon="6.78985">
        <ele>939</ele>
        <time>2019-08-14T12:26:46Z</time>
      </trkpt>
      <trkpt lat="46.36973" lon="6.78982">
        <ele>940</ele>
        <time>2019-08-14T12:26:50Z</time>
      </trkpt>
      <trkpt lat="46.3697" lon="6.7898">
        <ele>940</ele>
        <time>2019-08-14T12:26:54Z</time>
      </trkpt>
      <trkpt lat="46.36967" lon="6.78978">
        <ele>941</ele>
        <time>2019-08-14T12:26:59Z</time>
      </trkpt>
      <trkpt lat="46.36964" lon="6.78977">
        <ele>942</ele>
        <time>2019-08-14T12:27:03Z</time>
      </trkpt>
      <trkpt lat="46.36956" lon="6.78975">
        <ele>943</ele>
        <time>2019-08-14T12:27:14Z</time>
      </trkpt>
      <trkpt lat="46.36952" lon="6.7897">
        <ele>945</ele>
        <time>2019-08-14T12:27:21Z</time>
      </trkpt>
      <trkpt lat="46.36951" lon="6.78968">
        <ele>945</ele>
        <time>2019-08-14T12:27:23Z</time>
      </trkpt>
      <trkpt lat="46.36951" lon="6.78965">
        <ele>945</ele>
        <time>2019-08-14T12:27:26Z</time>
      </trkpt>
      <trkpt lat="46.36951" lon="6.78962">
        <ele>946</ele>
        <time>2019-08-14T12:27:29Z</time>
      </trkpt>
      <trkpt lat="46.36953" lon="6.78957">
        <ele>946</ele>
        <time>2019-08-14T12:27:34Z</time>
      </trkpt>
      <trkpt lat="46.36955" lon="6.78955">
        <ele>946</ele>
        <time>2019-08-14T12:27:37Z</time>
      </trkpt>
      <trkpt lat="46.36963" lon="6.78955">
        <ele>945</ele>
        <time>2019-08-14T12:27:48Z</time>
      </trkpt>
      <trkpt lat="46.36965" lon="6.78955">
        <ele>945</ele>
        <time>2019-08-14T12:27:50Z</time>
      </trkpt>
      <trkpt lat="46.36972" lon="6.78958">
        <ele>944</ele>
        <time>2019-08-14T12:28:00Z</time>
      </trkpt>
      <trkpt lat="46.36973" lon="6.78959">
        <ele>944</ele>
        <time>2019-08-14T12:28:02Z</time>
      </trkpt>
      <trkpt lat="46.36975" lon="6.78958">
        <ele>944</ele>
        <time>2019-08-14T12:28:05Z</time>
      </trkpt>
      <trkpt lat="46.36976" lon="6.78957">
        <ele>944</ele>
        <time>2019-08-14T12:28:06Z</time>
      </trkpt>
      <trkpt lat="46.36976" lon="6.78955">
        <ele>944</ele>
        <time>2019-08-14T12:28:08Z</time>
      </trkpt>
      <trkpt lat="46.36977" lon="6.78954">
        <ele>944</ele>
        <time>2019-08-14T12:28:10Z</time>
      </trkpt>
      <trkpt lat="46.36977" lon="6.7895">
        <ele>945</ele>
        <time>2019-08-14T12:28:13Z</time>
      </trkpt>
      <trkpt lat="46.36977" lon="6.78948">
        <ele>945</ele>
        <time>2019-08-14T12:28:15Z</time>
      </trkpt>
      <trkpt lat="46.36976" lon="6.78946">
        <ele>946</ele>
        <time>2019-08-14T12:28:18Z</time>
      </trkpt>
      <trkpt lat="46.36976" lon="6.78945">
        <ele>946</ele>
        <time>2019-08-14T12:28:18Z</time>
      </trkpt>
      <trkpt lat="46.36967" lon="6.78936">
        <ele>948</ele>
        <time>2019-08-14T12:28:33Z</time>
      </trkpt>
      <trkpt lat="46.36966" lon="6.78935">
        <ele>948</ele>
        <time>2019-08-14T12:28:35Z</time>
      </trkpt>
      <trkpt lat="46.36966" lon="6.78933">
        <ele>949</ele>
        <time>2019-08-14T12:28:36Z</time>
      </trkpt>
      <trkpt lat="46.36965" lon="6.78932">
        <ele>949</ele>
        <time>2019-08-14T12:28:38Z</time>
      </trkpt>
      <trkpt lat="46.36965" lon="6.78929">
        <ele>950</ele>
        <time>2019-08-14T12:28:41Z</time>
      </trkpt>
      <trkpt lat="46.36965" lon="6.78927">
        <ele>950</ele>
        <time>2019-08-14T12:28:43Z</time>
      </trkpt>
      <trkpt lat="46.36971" lon="6.78921">
        <ele>950</ele>
        <time>2019-08-14T12:28:52Z</time>
      </trkpt>
      <trkpt lat="46.36973" lon="6.78919">
        <ele>951</ele>
        <time>2019-08-14T12:28:56Z</time>
      </trkpt>
      <trkpt lat="46.36973" lon="6.78917">
        <ele>951</ele>
        <time>2019-08-14T12:28:58Z</time>
      </trkpt>
      <trkpt lat="46.3697" lon="6.7891">
        <ele>953</ele>
        <time>2019-08-14T12:29:05Z</time>
      </trkpt>
      <trkpt lat="46.36968" lon="6.78909">
        <ele>953</ele>
        <time>2019-08-14T12:29:08Z</time>
      </trkpt>
      <trkpt lat="46.36968" lon="6.78907">
        <ele>953</ele>
        <time>2019-08-14T12:29:10Z</time>
      </trkpt>
      <trkpt lat="46.36968" lon="6.78904">
        <ele>954</ele>
        <time>2019-08-14T12:29:13Z</time>
      </trkpt>
      <trkpt lat="46.36963" lon="6.78903">
        <ele>955</ele>
        <time>2019-08-14T12:29:19Z</time>
      </trkpt>
      <trkpt lat="46.36959" lon="6.78904">
        <ele>955</ele>
        <time>2019-08-14T12:29:25Z</time>
      </trkpt>
      <trkpt lat="46.36954" lon="6.78905">
        <ele>955</ele>
        <time>2019-08-14T12:29:31Z</time>
      </trkpt>
      <trkpt lat="46.36951" lon="6.78907">
        <ele>954</ele>
        <time>2019-08-14T12:29:36Z</time>
      </trkpt>
      <trkpt lat="46.36943" lon="6.78911">
        <ele>954</ele>
        <time>2019-08-14T12:29:47Z</time>
      </trkpt>
      <trkpt lat="46.36941" lon="6.78908">
        <ele>955</ele>
        <time>2019-08-14T12:29:51Z</time>
      </trkpt>
      <trkpt lat="46.36939" lon="6.78907">
        <ele>955</ele>
        <time>2019-08-14T12:29:54Z</time>
      </trkpt>
      <trkpt lat="46.36937" lon="6.78908">
        <ele>955</ele>
        <time>2019-08-14T12:29:57Z</time>
      </trkpt>
      <trkpt lat="46.36931" lon="6.78914">
        <ele>954</ele>
        <time>2019-08-14T12:30:06Z</time>
      </trkpt>
      <trkpt lat="46.36925" lon="6.78923">
        <ele>954</ele>
        <time>2019-08-14T12:30:18Z</time>
      </trkpt>
      <trkpt lat="46.36923" lon="6.78928">
        <ele>953</ele>
        <time>2019-08-14T12:30:23Z</time>
      </trkpt>
      <trkpt lat="46.36922" lon="6.78933">
        <ele>953</ele>
        <time>2019-08-14T12:30:28Z</time>
      </trkpt>
      <trkpt lat="46.36921" lon="6.78939">
        <ele>952</ele>
        <time>2019-08-14T12:30:34Z</time>
      </trkpt>
      <trkpt lat="46.3692" lon="6.78955">
        <ele>950</ele>
        <time>2019-08-14T12:30:48Z</time>
      </trkpt>
      <trkpt lat="46.36918" lon="6.78967">
        <ele>949</ele>
        <time>2019-08-14T12:31:00Z</time>
      </trkpt>
      <trkpt lat="46.36916" lon="6.78973">
        <ele>949</ele>
        <time>2019-08-14T12:31:06Z</time>
      </trkpt>
      <trkpt lat="46.36913" lon="6.78979">
        <ele>948</ele>
        <time>2019-08-14T12:31:13Z</time>
      </trkpt>
      <trkpt lat="46.3691" lon="6.78983">
        <ele>948</ele>
        <time>2019-08-14T12:31:18Z</time>
      </trkpt>
      <trkpt lat="46.36904" lon="6.78989">
        <ele>947</ele>
        <time>2019-08-14T12:31:28Z</time>
      </trkpt>
      <trkpt lat="46.36899" lon="6.78992">
        <ele>947</ele>
        <time>2019-08-14T12:31:35Z</time>
      </trkpt>
      <trkpt lat="46.36896" lon="6.78993">
        <ele>947</ele>
        <time>2019-08-14T12:31:39Z</time>
      </trkpt>
      <trkpt lat="46.36892" lon="6.78994">
        <ele>947</ele>
        <time>2019-08-14T12:31:45Z</time>
      </trkpt>
      <trkpt lat="46.36888" lon="6.78993">
        <ele>947</ele>
        <time>2019-08-14T12:31:50Z</time>
      </trkpt>
      <trkpt lat="46.36885" lon="6.78991">
        <ele>947</ele>
        <time>2019-08-14T12:31:55Z</time>
      </trkpt>
      <trkpt lat="46.36881" lon="6.78988">
        <ele>947</ele>
        <time>2019-08-14T12:32:01Z</time>
      </trkpt>
      <trkpt lat="46.36851" lon="6.78962">
        <ele>951</ele>
        <time>2019-08-14T12:32:47Z</time>
      </trkpt>
      <trkpt lat="46.36842" lon="6.78949">
        <ele>953</ele>
        <time>2019-08-14T12:33:04Z</time>
      </trkpt>
      <trkpt lat="46.36839" lon="6.78944">
        <ele>953</ele>
        <time>2019-08-14T12:33:10Z</time>
      </trkpt>
      <trkpt lat="46.36827" lon="6.7891">
        <ele>956</ele>
        <time>2019-08-14T12:33:45Z</time>
      </trkpt>
      <trkpt lat="46.36826" lon="6.78906">
        <ele>956</ele>
        <time>2019-08-14T12:33:49Z</time>
      </trkpt>
      <trkpt lat="46.36826" lon="6.78895">
        <ele>957</ele>
        <time>2019-08-14T12:33:59Z</time>
      </trkpt>
      <trkpt lat="46.36826" lon="6.78891">
        <ele>958</ele>
        <time>2019-08-14T12:34:03Z</time>
      </trkpt>
      <trkpt lat="46.36827" lon="6.78888">
        <ele>958</ele>
        <time>2019-08-14T12:34:06Z</time>
      </trkpt>
      <trkpt lat="46.36828" lon="6.78885">
        <ele>959</ele>
        <time>2019-08-14T12:34:09Z</time>
      </trkpt>
      <trkpt lat="46.36831" lon="6.78882">
        <ele>960</ele>
        <time>2019-08-14T12:34:14Z</time>
      </trkpt>
      <trkpt lat="46.36833" lon="6.7888">
        <ele>961</ele>
        <time>2019-08-14T12:34:17Z</time>
      </trkpt>
      <trkpt lat="46.36838" lon="6.78878">
        <ele>962</ele>
        <time>2019-08-14T12:34:24Z</time>
      </trkpt>
      <trkpt lat="46.3684" lon="6.78878">
        <ele>962</ele>
        <time>2019-08-14T12:34:27Z</time>
      </trkpt>
      <trkpt lat="46.36843" lon="6.7888">
        <ele>961</ele>
        <time>2019-08-14T12:34:31Z</time>
      </trkpt>
      <trkpt lat="46.36847" lon="6.78883">
        <ele>961</ele>
        <time>2019-08-14T12:34:37Z</time>
      </trkpt>
      <trkpt lat="46.36849" lon="6.78886">
        <ele>961</ele>
        <time>2019-08-14T12:34:41Z</time>
      </trkpt>
      <trkpt lat="46.36868" lon="6.78904">
        <ele>958</ele>
        <time>2019-08-14T12:35:12Z</time>
      </trkpt>
      <trkpt lat="46.36872" lon="6.78906">
        <ele>958</ele>
        <time>2019-08-14T12:35:17Z</time>
      </trkpt>
      <trkpt lat="46.36876" lon="6.78908">
        <ele>957</ele>
        <time>2019-08-14T12:35:23Z</time>
      </trkpt>
      <trkpt lat="46.3688" lon="6.78908">
        <ele>957</ele>
        <time>2019-08-14T12:35:28Z</time>
      </trkpt>
      <trkpt lat="46.36885" lon="6.78908">
        <ele>957</ele>
        <time>2019-08-14T12:35:35Z</time>
      </trkpt>
      <trkpt lat="46.36889" lon="6.78907">
        <ele>957</ele>
        <time>2019-08-14T12:35:40Z</time>
      </trkpt>
      <trkpt lat="46.36894" lon="6.78905">
        <ele>957</ele>
        <time>2019-08-14T12:35:47Z</time>
      </trkpt>
      <trkpt lat="46.36898" lon="6.78902">
        <ele>958</ele>
        <time>2019-08-14T12:35:53Z</time>
      </trkpt>
      <trkpt lat="46.36902" lon="6.78899">
        <ele>958</ele>
        <time>2019-08-14T12:35:59Z</time>
      </trkpt>
      <trkpt lat="46.36921" lon="6.78877">
        <ele>962</ele>
        <time>2019-08-14T12:36:32Z</time>
      </trkpt>
      <trkpt lat="46.36923" lon="6.78874">
        <ele>962</ele>
        <time>2019-08-14T12:36:35Z</time>
      </trkpt>
      <trkpt lat="46.36934" lon="6.78829">
        <ele>970</ele>
        <time>2019-08-14T12:37:19Z</time>
      </trkpt>
      <trkpt lat="46.36935" lon="6.78825">
        <ele>970</ele>
        <time>2019-08-14T12:37:23Z</time>
      </trkpt>
      <trkpt lat="46.36935" lon="6.78819">
        <ele>971</ele>
        <time>2019-08-14T12:37:29Z</time>
      </trkpt>
      <trkpt lat="46.36935" lon="6.78814">
        <ele>972</ele>
        <time>2019-08-14T12:37:33Z</time>
      </trkpt>
      <trkpt lat="46.36934" lon="6.78809">
        <ele>973</ele>
        <time>2019-08-14T12:37:38Z</time>
      </trkpt>
      <trkpt lat="46.36931" lon="6.78806">
        <ele>973</ele>
        <time>2019-08-14T12:37:43Z</time>
      </trkpt>
      <trkpt lat="46.36928" lon="6.78803">
        <ele>973</ele>
        <time>2019-08-14T12:37:48Z</time>
      </trkpt>
      <trkpt lat="46.36924" lon="6.78803">
        <ele>973</ele>
        <time>2019-08-14T12:37:53Z</time>
      </trkpt>
      <trkpt lat="46.36921" lon="6.78804">
        <ele>973</ele>
        <time>2019-08-14T12:37:57Z</time>
      </trkpt>
      <trkpt lat="46.36917" lon="6.78806">
        <ele>973</ele>
        <time>2019-08-14T12:38:03Z</time>
      </trkpt>
      <trkpt lat="46.36914" lon="6.78809">
        <ele>972</ele>
        <time>2019-08-14T12:38:08Z</time>
      </trkpt>
      <trkpt lat="46.36904" lon="6.78823">
        <ele>970</ele>
        <time>2019-08-14T12:38:27Z</time>
      </trkpt>
      <trkpt lat="46.36901" lon="6.78827">
        <ele>970</ele>
        <time>2019-08-14T12:38:32Z</time>
      </trkpt>
      <trkpt lat="46.36898" lon="6.78829">
        <ele>969</ele>
        <time>2019-08-14T12:38:36Z</time>
      </trkpt>
      <trkpt lat="46.36894" lon="6.7883">
        <ele>969</ele>
        <time>2019-08-14T12:38:42Z</time>
      </trkpt>
      <trkpt lat="46.3689" lon="6.78829">
        <ele>969</ele>
        <time>2019-08-14T12:38:47Z</time>
      </trkpt>
      <trkpt lat="46.36887" lon="6.78828">
        <ele>969</ele>
        <time>2019-08-14T12:38:51Z</time>
      </trkpt>
      <trkpt lat="46.36851" lon="6.78812">
        <ele>971</ele>
        <time>2019-08-14T12:39:42Z</time>
      </trkpt>
      <trkpt lat="46.36846" lon="6.7881">
        <ele>971</ele>
        <time>2019-08-14T12:39:48Z</time>
      </trkpt>
      <trkpt lat="46.3684" lon="6.78807">
        <ele>972</ele>
        <time>2019-08-14T12:39:57Z</time>
      </trkpt>
      <trkpt lat="46.36828" lon="6.78799">
        <ele>971</ele>
        <time>2019-08-14T12:40:15Z</time>
      </trkpt>
      <trkpt lat="46.36823" lon="6.78796">
        <ele>971</ele>
        <time>2019-08-14T12:40:22Z</time>
      </trkpt>
      <trkpt lat="46.36806" lon="6.78782">
        <ele>969</ele>
        <time>2019-08-14T12:40:48Z</time>
      </trkpt>
      <trkpt lat="46.36801" lon="6.78779">
        <ele>968</ele>
        <time>2019-08-14T12:40:55Z</time>
      </trkpt>
      <trkpt lat="46.36794" lon="6.78771">
        <ele>968</ele>
        <time>2019-08-14T12:41:07Z</time>
      </trkpt>
      <trkpt lat="46.36796" lon="6.78778">
        <ele>967</ele>
        <time>2019-08-14T12:41:14Z</time>
      </trkpt>
      <trkpt lat="46.36794" lon="6.78771">
        <ele>968</ele>
        <time>2019-08-14T12:41:21Z</time>
      </trkpt>
      <trkpt lat="46.36791" lon="6.78767">
        <ele>968</ele>
        <time>2019-08-14T12:41:26Z</time>
      </trkpt>
      <trkpt lat="46.36789" lon="6.78762">
        <ele>968</ele>
        <time>2019-08-14T12:41:32Z</time>
      </trkpt>
      <trkpt lat="46.36772" lon="6.78707">
        <ele>979</ele>
        <time>2019-08-14T12:42:27Z</time>
      </trkpt>
      <trkpt lat="46.36754" lon="6.78653">
        <ele>988</ele>
        <time>2019-08-14T12:43:22Z</time>
      </trkpt>
      <trkpt lat="46.36748" lon="6.7863">
        <ele>990</ele>
        <time>2019-08-14T12:43:45Z</time>
      </trkpt>
      <trkpt lat="46.36751" lon="6.78588">
        <ele>997</ele>
        <time>2019-08-14T12:44:24Z</time>
      </trkpt>
      <trkpt lat="46.3677" lon="6.78547">
        <ele>1007</ele>
        <time>2019-08-14T12:45:09Z</time>
      </trkpt>
      <trkpt lat="46.36775" lon="6.78533">
        <ele>1011</ele>
        <time>2019-08-14T12:45:24Z</time>
      </trkpt>
      <trkpt lat="46.36777" lon="6.78517">
        <ele>1014</ele>
        <time>2019-08-14T12:45:39Z</time>
      </trkpt>
      <trkpt lat="46.36778" lon="6.78493">
        <ele>1018</ele>
        <time>2019-08-14T12:46:01Z</time>
      </trkpt>
      <trkpt lat="46.3678" lon="6.78496">
        <ele>1018</ele>
        <time>2019-08-14T12:46:05Z</time>
      </trkpt>
      <trkpt lat="46.36783" lon="6.78497">
        <ele>1019</ele>
        <time>2019-08-14T12:46:09Z</time>
      </trkpt>
      <trkpt lat="46.36785" lon="6.78496">
        <ele>1020</ele>
        <time>2019-08-14T12:46:12Z</time>
      </trkpt>
      <trkpt lat="46.36787" lon="6.78492">
        <ele>1022</ele>
        <time>2019-08-14T12:46:16Z</time>
      </trkpt>
      <trkpt lat="46.36788" lon="6.7849">
        <ele>1023</ele>
        <time>2019-08-14T12:46:19Z</time>
      </trkpt>
      <trkpt lat="46.36788" lon="6.78487">
        <ele>1024</ele>
        <time>2019-08-14T12:46:21Z</time>
      </trkpt>
      <trkpt lat="46.36788" lon="6.78485">
        <ele>1024</ele>
        <time>2019-08-14T12:46:23Z</time>
      </trkpt>
      <trkpt lat="46.36787" lon="6.78482">
        <ele>1024</ele>
        <time>2019-08-14T12:46:26Z</time>
      </trkpt>
      <trkpt lat="46.3678" lon="6.78461">
        <ele>1026</ele>
        <time>2019-08-14T12:46:48Z</time>
      </trkpt>
      <trkpt lat="46.36763" lon="6.7835">
        <ele>1040</ele>
        <time>2019-08-14T12:48:33Z</time>
      </trkpt>
      <trkpt lat="46.36754" lon="6.78314">
        <ele>1042</ele>
        <time>2019-08-14T12:49:08Z</time>
      </trkpt>
      <trkpt lat="46.36759" lon="6.78281">
        <ele>1050</ele>
        <time>2019-08-14T12:49:39Z</time>
      </trkpt>
      <trkpt lat="46.36756" lon="6.78232">
        <ele>1055</ele>
        <time>2019-08-14T12:50:24Z</time>
      </trkpt>
      <trkpt lat="46.36752" lon="6.78211">
        <ele>1055</ele>
        <time>2019-08-14T12:50:44Z</time>
      </trkpt>
      <trkpt lat="46.36745" lon="6.78178">
        <ele>1057</ele>
        <time>2019-08-14T12:51:16Z</time>
      </trkpt>
      <trkpt lat="46.36742" lon="6.78145">
        <ele>1061</ele>
        <time>2019-08-14T12:51:47Z</time>
      </trkpt>
      <trkpt lat="46.36741" lon="6.78135">
        <ele>1062</ele>
        <time>2019-08-14T12:51:56Z</time>
      </trkpt>
      <trkpt lat="46.36736" lon="6.781">
        <ele>1065</ele>
        <time>2019-08-14T12:52:29Z</time>
      </trkpt>
      <trkpt lat="46.36735" lon="6.78092">
        <ele>1066</ele>
        <time>2019-08-14T12:52:36Z</time>
      </trkpt>
      <trkpt lat="46.36734" lon="6.78058">
        <ele>1072</ele>
        <time>2019-08-14T12:53:08Z</time>
      </trkpt>
      <trkpt lat="46.36735" lon="6.78052">
        <ele>1074</ele>
        <time>2019-08-14T12:53:13Z</time>
      </trkpt>
      <trkpt lat="46.36733" lon="6.78042">
        <ele>1075</ele>
        <time>2019-08-14T12:53:23Z</time>
      </trkpt>
      <trkpt lat="46.36731" lon="6.78038">
        <ele>1075</ele>
        <time>2019-08-14T12:53:28Z</time>
      </trkpt>
      <trkpt lat="46.36728" lon="6.78036">
        <ele>1075</ele>
        <time>2019-08-14T12:53:32Z</time>
      </trkpt>
      <trkpt lat="46.36708" lon="6.78028">
        <ele>1071</ele>
        <time>2019-08-14T12:54:00Z</time>
      </trkpt>
      <trkpt lat="46.36704" lon="6.78024">
        <ele>1070</ele>
        <time>2019-08-14T12:54:06Z</time>
      </trkpt>
      <trkpt lat="46.36701" lon="6.78018">
        <ele>1071</ele>
        <time>2019-08-14T12:54:13Z</time>
      </trkpt>
      <trkpt lat="46.36664" lon="6.77895">
        <ele>1078</ele>
        <time>2019-08-14T12:56:17Z</time>
      </trkpt>
      <trkpt lat="46.36662" lon="6.77887">
        <ele>1079</ele>
        <time>2019-08-14T12:56:24Z</time>
      </trkpt>
      <trkpt lat="46.36662" lon="6.77869">
        <ele>1083</ele>
        <time>2019-08-14T12:56:41Z</time>
      </trkpt>
      <trkpt lat="46.36663" lon="6.77865">
        <ele>1084</ele>
        <time>2019-08-14T12:56:45Z</time>
      </trkpt>
      <trkpt lat="46.36664" lon="6.7786">
        <ele>1085</ele>
        <time>2019-08-14T12:56:50Z</time>
      </trkpt>
      <trkpt lat="46.36663" lon="6.77855">
        <ele>1086</ele>
        <time>2019-08-14T12:56:54Z</time>
      </trkpt>
      <trkpt lat="46.36662" lon="6.77851">
        <ele>1086</ele>
        <time>2019-08-14T12:56:58Z</time>
      </trkpt>
      <trkpt lat="46.36658" lon="6.77841">
        <ele>1088</ele>
        <time>2019-08-14T12:57:09Z</time>
      </trkpt>
      <trkpt lat="46.36657" lon="6.77836">
        <ele>1088</ele>
        <time>2019-08-14T12:57:14Z</time>
      </trkpt>
      <trkpt lat="46.36656" lon="6.7783">
        <ele>1089</ele>
        <time>2019-08-14T12:57:19Z</time>
      </trkpt>
      <trkpt lat="46.36652" lon="6.77786">
        <ele>1094</ele>
        <time>2019-08-14T12:58:00Z</time>
      </trkpt>
      <trkpt lat="46.36651" lon="6.77778">
        <ele>1095</ele>
        <time>2019-08-14T12:58:08Z</time>
      </trkpt>
      <trkpt lat="46.36649" lon="6.77771">
        <ele>1096</ele>
        <time>2019-08-14T12:58:15Z</time>
      </trkpt>
      <trkpt lat="46.36647" lon="6.77764">
        <ele>1096</ele>
        <time>2019-08-14T12:58:22Z</time>
      </trkpt>
      <trkpt lat="46.36632" lon="6.77723">
        <ele>1100</ele>
        <time>2019-08-14T12:59:04Z</time>
      </trkpt>
      <trkpt lat="46.36632" lon="6.77722">
        <ele>1101</ele>
        <time>2019-08-14T12:59:05Z</time>
      </trkpt>
      <trkpt lat="46.36629" lon="6.77715">
        <ele>1101</ele>
        <time>2019-08-14T12:59:13Z</time>
      </trkpt>
      <trkpt lat="46.36627" lon="6.7771">
        <ele>1102</ele>
        <time>2019-08-14T12:59:18Z</time>
      </trkpt>
      <trkpt lat="46.36624" lon="6.77706">
        <ele>1102</ele>
        <time>2019-08-14T12:59:24Z</time>
      </trkpt>
      <trkpt lat="46.36612" lon="6.77693">
        <ele>1102</ele>
        <time>2019-08-14T12:59:44Z</time>
      </trkpt>
      <trkpt lat="46.36606" lon="6.77683">
        <ele>1103</ele>
        <time>2019-08-14T12:59:56Z</time>
      </trkpt>
      <trkpt lat="46.36579" lon="6.77638">
        <ele>1106</ele>
        <time>2019-08-14T13:00:51Z</time>
      </trkpt>
      <trkpt lat="46.36568" lon="6.77609">
        <ele>1110</ele>
        <time>2019-08-14T13:01:21Z</time>
      </trkpt>
      <trkpt lat="46.3656" lon="6.77583">
        <ele>1114</ele>
        <time>2019-08-14T13:01:48Z</time>
      </trkpt>
      <trkpt lat="46.36541" lon="6.77484">
        <ele>1130</ele>
        <time>2019-08-14T13:03:22Z</time>
      </trkpt>
      <trkpt lat="46.36539" lon="6.77471">
        <ele>1133</ele>
        <time>2019-08-14T13:03:34Z</time>
      </trkpt>
      <trkpt lat="46.3654" lon="6.77467">
        <ele>1134</ele>
        <time>2019-08-14T13:03:38Z</time>
      </trkpt>
      <trkpt lat="46.3654" lon="6.77461">
        <ele>1135</ele>
        <time>2019-08-14T13:03:44Z</time>
      </trkpt>
      <trkpt lat="46.36536" lon="6.77423">
        <ele>1141</ele>
        <time>2019-08-14T13:04:19Z</time>
      </trkpt>
      <trkpt lat="46.36535" lon="6.77416">
        <ele>1142</ele>
        <time>2019-08-14T13:04:26Z</time>
      </trkpt>
      <trkpt lat="46.3653" lon="6.77403">
        <ele>1144</ele>
        <time>2019-08-14T13:04:40Z</time>
      </trkpt>
      <trkpt lat="46.36512" lon="6.77376">
        <ele>1145</ele>
        <time>2019-08-14T13:05:14Z</time>
      </trkpt>
      <trkpt lat="46.36509" lon="6.77368">
        <ele>1146</ele>
        <time>2019-08-14T13:05:23Z</time>
      </trkpt>
      <trkpt lat="46.36506" lon="6.7736">
        <ele>1147</ele>
        <time>2019-08-14T13:05:31Z</time>
      </trkpt>
      <trkpt lat="46.36496" lon="6.77321">
        <ele>1153</ele>
        <time>2019-08-14T13:06:09Z</time>
      </trkpt>
      <trkpt lat="46.36491" lon="6.77302">
        <ele>1156</ele>
        <time>2019-08-14T13:06:28Z</time>
      </trkpt>
      <trkpt lat="46.36479" lon="6.77271">
        <ele>1161</ele>
        <time>2019-08-14T13:07:01Z</time>
      </trkpt>
      <trkpt lat="46.36477" lon="6.77266">
        <ele>1162</ele>
        <time>2019-08-14T13:07:06Z</time>
      </trkpt>
      <trkpt lat="46.36477" lon="6.77226">
        <ele>1171</ele>
        <time>2019-08-14T13:07:43Z</time>
      </trkpt>
      <trkpt lat="46.36478" lon="6.77219">
        <ele>1173</ele>
        <time>2019-08-14T13:07:49Z</time>
      </trkpt>
      <trkpt lat="46.3648" lon="6.77212">
        <ele>1175</ele>
        <time>2019-08-14T13:07:56Z</time>
      </trkpt>
      <trkpt lat="46.36492" lon="6.7717">
        <ele>1187</ele>
        <time>2019-08-14T13:08:38Z</time>
      </trkpt>
      <trkpt lat="46.36492" lon="6.77164">
        <ele>1188</ele>
        <time>2019-08-14T13:08:44Z</time>
      </trkpt>
      <trkpt lat="46.36491" lon="6.77159">
        <ele>1189</ele>
        <time>2019-08-14T13:08:49Z</time>
      </trkpt>
      <trkpt lat="46.36489" lon="6.77154">
        <ele>1190</ele>
        <time>2019-08-14T13:08:54Z</time>
      </trkpt>
      <trkpt lat="46.36487" lon="6.7715">
        <ele>1190</ele>
        <time>2019-08-14T13:08:58Z</time>
      </trkpt>
      <trkpt lat="46.36451" lon="6.77123">
        <ele>1191</ele>
        <time>2019-08-14T13:09:53Z</time>
      </trkpt>
      <trkpt lat="46.36446" lon="6.77118">
        <ele>1191</ele>
        <time>2019-08-14T13:10:01Z</time>
      </trkpt>
      <trkpt lat="46.36441" lon="6.77111">
        <ele>1192</ele>
        <time>2019-08-14T13:10:10Z</time>
      </trkpt>
      <trkpt lat="46.36422" lon="6.77078">
        <ele>1196</ele>
        <time>2019-08-14T13:10:50Z</time>
      </trkpt>
      <trkpt lat="46.36402" lon="6.77045">
        <ele>1200</ele>
        <time>2019-08-14T13:11:30Z</time>
      </trkpt>
      <trkpt lat="46.36383" lon="6.77029">
        <ele>1202</ele>
        <time>2019-08-14T13:11:59Z</time>
      </trkpt>
      <trkpt lat="46.36368" lon="6.7699">
        <ele>1207</ele>
        <time>2019-08-14T13:12:40Z</time>
      </trkpt>
      <trkpt lat="46.36342" lon="6.76964">
        <ele>1208</ele>
        <time>2019-08-14T13:13:23Z</time>
      </trkpt>
      <trkpt lat="46.36315" lon="6.76939">
        <ele>1210</ele>
        <time>2019-08-14T13:14:05Z</time>
      </trkpt>
      <trkpt lat="46.36295" lon="6.76893">
        <ele>1214</ele>
        <time>2019-08-14T13:14:55Z</time>
      </trkpt>
      <trkpt lat="46.36295" lon="6.76891">
        <ele>1214</ele>
        <time>2019-08-14T13:14:57Z</time>
      </trkpt>
      <trkpt lat="46.36276" lon="6.76847">
        <ele>1218</ele>
        <time>2019-08-14T13:15:45Z</time>
      </trkpt>
      <trkpt lat="46.3627" lon="6.7684">
        <ele>1218</ele>
        <time>2019-08-14T13:15:55Z</time>
      </trkpt>
      <trkpt lat="46.36266" lon="6.76835">
        <ele>1218</ele>
        <time>2019-08-14T13:16:02Z</time>
      </trkpt>
      <trkpt lat="46.36256" lon="6.76819">
        <ele>1220</ele>
        <time>2019-08-14T13:16:22Z</time>
      </trkpt>
      <trkpt lat="46.36246" lon="6.76795">
        <ele>1225</ele>
        <time>2019-08-14T13:16:48Z</time>
      </trkpt>
      <trkpt lat="46.36227" lon="6.7681">
        <ele>1227</ele>
        <time>2019-08-14T13:17:17Z</time>
      </trkpt>
      <trkpt lat="46.36224" lon="6.76813">
        <ele>1227</ele>
        <time>2019-08-14T13:17:22Z</time>
      </trkpt>
      <trkpt lat="46.36222" lon="6.76817">
        <ele>1227</ele>
        <time>2019-08-14T13:17:26Z</time>
      </trkpt>
      <trkpt lat="46.3622" lon="6.76822">
        <ele>1227</ele>
        <time>2019-08-14T13:17:32Z</time>
      </trkpt>
      <trkpt lat="46.36216" lon="6.76844">
        <ele>1225</ele>
        <time>2019-08-14T13:17:53Z</time>
      </trkpt>
      <trkpt lat="46.3621" lon="6.76866">
        <ele>1224</ele>
        <time>2019-08-14T13:18:14Z</time>
      </trkpt>
      <trkpt lat="46.36206" lon="6.76877">
        <ele>1224</ele>
        <time>2019-08-14T13:18:26Z</time>
      </trkpt>
      <trkpt lat="46.362" lon="6.7689">
        <ele>1224</ele>
        <time>2019-08-14T13:18:40Z</time>
      </trkpt>
      <trkpt lat="46.36186" lon="6.76915">
        <ele>1225</ele>
        <time>2019-08-14T13:19:10Z</time>
      </trkpt>
      <trkpt lat="46.36157" lon="6.76955">
        <ele>1223</ele>
        <time>2019-08-14T13:20:03Z</time>
      </trkpt>
      <trkpt lat="46.36154" lon="6.76958">
        <ele>1223</ele>
        <time>2019-08-14T13:20:08Z</time>
      </trkpt>
      <trkpt lat="46.36152" lon="6.7696">
        <ele>1222</ele>
        <time>2019-08-14T13:20:11Z</time>
      </trkpt>
      <trkpt lat="46.36149" lon="6.7696">
        <ele>1222</ele>
        <time>2019-08-14T13:20:15Z</time>
      </trkpt>
      <trkpt lat="46.3614" lon="6.76957">
        <ele>1222</ele>
        <time>2019-08-14T13:20:28Z</time>
      </trkpt>
      <trkpt lat="46.36137" lon="6.76957">
        <ele>1222</ele>
        <time>2019-08-14T13:20:32Z</time>
      </trkpt>
      <trkpt lat="46.36133" lon="6.76957">
        <ele>1222</ele>
        <time>2019-08-14T13:20:37Z</time>
      </trkpt>
      <trkpt lat="46.36121" lon="6.76959">
        <ele>1222</ele>
        <time>2019-08-14T13:20:53Z</time>
      </trkpt>
      <trkpt lat="46.36116" lon="6.76959">
        <ele>1221</ele>
        <time>2019-08-14T13:21:00Z</time>
      </trkpt>
      <trkpt lat="46.36112" lon="6.76958">
        <ele>1221</ele>
        <time>2019-08-14T13:21:05Z</time>
      </trkpt>
      <trkpt lat="46.36097" lon="6.76947">
        <ele>1223</ele>
        <time>2019-08-14T13:21:28Z</time>
      </trkpt>
      <trkpt lat="46.36092" lon="6.76944">
        <ele>1224</ele>
        <time>2019-08-14T13:21:35Z</time>
      </trkpt>
      <trkpt lat="46.36087" lon="6.76942">
        <ele>1224</ele>
        <time>2019-08-14T13:21:42Z</time>
      </trkpt>
      <trkpt lat="46.3608" lon="6.76941">
        <ele>1224</ele>
        <time>2019-08-14T13:21:51Z</time>
      </trkpt>
      <trkpt lat="46.36076" lon="6.76941">
        <ele>1224</ele>
        <time>2019-08-14T13:21:57Z</time>
      </trkpt>
      <trkpt lat="46.36069" lon="6.76947">
        <ele>1224</ele>
        <time>2019-08-14T13:22:07Z</time>
      </trkpt>
      <trkpt lat="46.36067" lon="6.76951">
        <ele>1223</ele>
        <time>2019-08-14T13:22:12Z</time>
      </trkpt>
      <trkpt lat="46.3606" lon="6.76976">
        <ele>1220</ele>
        <time>2019-08-14T13:22:37Z</time>
      </trkpt>
      <trkpt lat="46.36058" lon="6.76982">
        <ele>1219</ele>
        <time>2019-08-14T13:22:43Z</time>
      </trkpt>
      <trkpt lat="46.36058" lon="6.76995">
        <ele>1217</ele>
        <time>2019-08-14T13:22:55Z</time>
      </trkpt>
      <trkpt lat="46.36061" lon="6.77006">
        <ele>1216</ele>
        <time>2019-08-14T13:23:06Z</time>
      </trkpt>
      <trkpt lat="46.36042" lon="6.76979">
        <ele>1222</ele>
        <time>2019-08-14T13:23:41Z</time>
      </trkpt>
      <trkpt lat="46.36038" lon="6.76973">
        <ele>1223</ele>
        <time>2019-08-14T13:23:49Z</time>
      </trkpt>
      <trkpt lat="46.36025" lon="6.76939">
        <ele>1227</ele>
        <time>2019-08-14T13:24:25Z</time>
      </trkpt>
      <trkpt lat="46.3602" lon="6.76929">
        <ele>1228</ele>
        <time>2019-08-14T13:24:36Z</time>
      </trkpt>
      <trkpt lat="46.36013" lon="6.76921">
        <ele>1228</ele>
        <time>2019-08-14T13:24:48Z</time>
      </trkpt>
      <trkpt lat="46.35996" lon="6.76902">
        <ele>1231</ele>
        <time>2019-08-14T13:25:17Z</time>
      </trkpt>
      <trkpt lat="46.35985" lon="6.76887">
        <ele>1235</ele>
        <time>2019-08-14T13:25:37Z</time>
      </trkpt>
      <trkpt lat="46.35973" lon="6.76873">
        <ele>1239</ele>
        <time>2019-08-14T13:25:57Z</time>
      </trkpt>
      <trkpt lat="46.35958" lon="6.76858">
        <ele>1243</ele>
        <time>2019-08-14T13:26:22Z</time>
      </trkpt>
      <trkpt lat="46.35954" lon="6.76853">
        <ele>1244</ele>
        <time>2019-08-14T13:26:29Z</time>
      </trkpt>
      <trkpt lat="46.35947" lon="6.76844">
        <ele>1246</ele>
        <time>2019-08-14T13:26:41Z</time>
      </trkpt>
      <trkpt lat="46.35944" lon="6.7684">
        <ele>1246</ele>
        <time>2019-08-14T13:26:47Z</time>
      </trkpt>
      <trkpt lat="46.3594" lon="6.76828">
        <ele>1249</ele>
        <time>2019-08-14T13:26:59Z</time>
      </trkpt>
      <trkpt lat="46.35938" lon="6.7682">
        <ele>1251</ele>
        <time>2019-08-14T13:27:07Z</time>
      </trkpt>
      <trkpt lat="46.3591" lon="6.76856">
        <ele>1250</ele>
        <time>2019-08-14T13:27:57Z</time>
      </trkpt>
      <trkpt lat="46.35883" lon="6.76886">
        <ele>1254</ele>
        <time>2019-08-14T13:28:42Z</time>
      </trkpt>
      <trkpt lat="46.35878" lon="6.7689">
        <ele>1255</ele>
        <time>2019-08-14T13:28:50Z</time>
      </trkpt>
      <trkpt lat="46.35869" lon="6.76895">
        <ele>1257</ele>
        <time>2019-08-14T13:29:03Z</time>
      </trkpt>
      <trkpt lat="46.35863" lon="6.76897">
        <ele>1258</ele>
        <time>2019-08-14T13:29:11Z</time>
      </trkpt>
      <trkpt lat="46.35847" lon="6.76897">
        <ele>1261</ele>
        <time>2019-08-14T13:29:32Z</time>
      </trkpt>
      <trkpt lat="46.35829" lon="6.76893">
        <ele>1265</ele>
        <time>2019-08-14T13:29:57Z</time>
      </trkpt>
      <trkpt lat="46.35826" lon="6.76891">
        <ele>1266</ele>
        <time>2019-08-14T13:30:01Z</time>
      </trkpt>
      <trkpt lat="46.35819" lon="6.76878">
        <ele>1268</ele>
        <time>2019-08-14T13:30:16Z</time>
      </trkpt>
      <trkpt lat="46.35817" lon="6.76875">
        <ele>1269</ele>
        <time>2019-08-14T13:30:20Z</time>
      </trkpt>
      <trkpt lat="46.35789" lon="6.76847">
        <ele>1275</ele>
        <time>2019-08-14T13:31:05Z</time>
      </trkpt>
      <trkpt lat="46.35776" lon="6.76839">
        <ele>1277</ele>
        <time>2019-08-14T13:31:24Z</time>
      </trkpt>
      <trkpt lat="46.35774" lon="6.76838">
        <ele>1277</ele>
        <time>2019-08-14T13:31:27Z</time>
      </trkpt>
      <trkpt lat="46.35768" lon="6.76839">
        <ele>1278</ele>
        <time>2019-08-14T13:31:35Z</time>
      </trkpt>
      <trkpt lat="46.35764" lon="6.76841">
        <ele>1279</ele>
        <time>2019-08-14T13:31:41Z</time>
      </trkpt>
      <trkpt lat="46.3576" lon="6.7684">
        <ele>1280</ele>
        <time>2019-08-14T13:31:46Z</time>
      </trkpt>
      <trkpt lat="46.35754" lon="6.7684">
        <ele>1281</ele>
        <time>2019-08-14T13:31:54Z</time>
      </trkpt>
      <trkpt lat="46.3575" lon="6.7684">
        <ele>1281</ele>
        <time>2019-08-14T13:32:00Z</time>
      </trkpt>
      <trkpt lat="46.35729" lon="6.76846">
        <ele>1287</ele>
        <time>2019-08-14T13:32:28Z</time>
      </trkpt>
      <trkpt lat="46.35723" lon="6.76849">
        <ele>1289</ele>
        <time>2019-08-14T13:32:37Z</time>
      </trkpt>
      <trkpt lat="46.35718" lon="6.76852">
        <ele>1290</ele>
        <time>2019-08-14T13:32:44Z</time>
      </trkpt>
      <trkpt lat="46.35694" lon="6.7687">
        <ele>1296</ele>
        <time>2019-08-14T13:33:20Z</time>
      </trkpt>
      <trkpt lat="46.3569" lon="6.76874">
        <ele>1297</ele>
        <time>2019-08-14T13:33:26Z</time>
      </trkpt>
      <trkpt lat="46.35686" lon="6.7688">
        <ele>1298</ele>
        <time>2019-08-14T13:33:34Z</time>
      </trkpt>
      <trkpt lat="46.35682" lon="6.76888">
        <ele>1299</ele>
        <time>2019-08-14T13:33:43Z</time>
      </trkpt>
      <trkpt lat="46.35678" lon="6.76893">
        <ele>1300</ele>
        <time>2019-08-14T13:33:50Z</time>
      </trkpt>
      <trkpt lat="46.35675" lon="6.76897">
        <ele>1300</ele>
        <time>2019-08-14T13:33:56Z</time>
      </trkpt>
      <trkpt lat="46.35657" lon="6.76911">
        <ele>1306</ele>
        <time>2019-08-14T13:34:23Z</time>
      </trkpt>
      <trkpt lat="46.35632" lon="6.76928">
        <ele>1317</ele>
        <time>2019-08-14T13:35:00Z</time>
      </trkpt>
      <trkpt lat="46.35625" lon="6.76947">
        <ele>1321</ele>
        <time>2019-08-14T13:35:20Z</time>
      </trkpt>
      <trkpt lat="46.35616" lon="6.76964">
        <ele>1324</ele>
        <time>2019-08-14T13:35:39Z</time>
      </trkpt>
      <trkpt lat="46.35603" lon="6.76988">
        <ele>1330</ele>
        <time>2019-08-14T13:36:07Z</time>
      </trkpt>
      <trkpt lat="46.35577" lon="6.76997">
        <ele>1340</ele>
        <time>2019-08-14T13:36:43Z</time>
      </trkpt>
      <trkpt lat="46.35552" lon="6.76997">
        <ele>1354</ele>
        <time>2019-08-14T13:37:16Z</time>
      </trkpt>
      <trkpt lat="46.35504" lon="6.77043">
        <ele>1372</ele>
        <time>2019-08-14T13:38:33Z</time>
      </trkpt>
      <trkpt lat="46.35499" lon="6.77048">
        <ele>1373</ele>
        <time>2019-08-14T13:38:41Z</time>
      </trkpt>
      <trkpt lat="46.35496" lon="6.7705">
        <ele>1375</ele>
        <time>2019-08-14T13:38:46Z</time>
      </trkpt>
      <trkpt lat="46.35494" lon="6.7705">
        <ele>1376</ele>
        <time>2019-08-14T13:38:48Z</time>
      </trkpt>
      <trkpt lat="46.35493" lon="6.77047">
        <ele>1377</ele>
        <time>2019-08-14T13:38:52Z</time>
      </trkpt>
      <trkpt lat="46.35492" lon="6.7704">
        <ele>1379</ele>
        <time>2019-08-14T13:38:58Z</time>
      </trkpt>
      <trkpt lat="46.35492" lon="6.77021">
        <ele>1383</ele>
        <time>2019-08-14T13:39:16Z</time>
      </trkpt>
      <trkpt lat="46.35492" lon="6.77013">
        <ele>1384</ele>
        <time>2019-08-14T13:39:23Z</time>
      </trkpt>
      <trkpt lat="46.35491" lon="6.77006">
        <ele>1386</ele>
        <time>2019-08-14T13:39:30Z</time>
      </trkpt>
      <trkpt lat="46.35484" lon="6.76972">
        <ele>1397</ele>
        <time>2019-08-14T13:40:02Z</time>
      </trkpt>
      <trkpt lat="46.35477" lon="6.7693">
        <ele>1410</ele>
        <time>2019-08-14T13:40:42Z</time>
      </trkpt>
      <trkpt lat="46.35476" lon="6.76922">
        <ele>1412</ele>
        <time>2019-08-14T13:40:50Z</time>
      </trkpt>
      <trkpt lat="46.35476" lon="6.76914">
        <ele>1414</ele>
        <time>2019-08-14T13:40:57Z</time>
      </trkpt>
      <trkpt lat="46.35477" lon="6.76907">
        <ele>1414</ele>
        <time>2019-08-14T13:41:03Z</time>
      </trkpt>
      <trkpt lat="46.35487" lon="6.76866">
        <ele>1413</ele>
        <time>2019-08-14T13:41:44Z</time>
      </trkpt>
      <trkpt lat="46.35486" lon="6.76831">
        <ele>1417</ele>
        <time>2019-08-14T13:42:16Z</time>
      </trkpt>
      <trkpt lat="46.35469" lon="6.76846">
        <ele>1427</ele>
        <time>2019-08-14T13:42:42Z</time>
      </trkpt>
      <trkpt lat="46.35453" lon="6.76816">
        <ele>1440</ele>
        <time>2019-08-14T13:43:17Z</time>
      </trkpt>
      <trkpt lat="46.35444" lon="6.76793">
        <ele>1448</ele>
        <time>2019-08-14T13:43:42Z</time>
      </trkpt>
      <trkpt lat="46.3544" lon="6.76765">
        <ele>1453</ele>
        <time>2019-08-14T13:44:08Z</time>
      </trkpt>
      <trkpt lat="46.35429" lon="6.76743">
        <ele>1462</ele>
        <time>2019-08-14T13:44:33Z</time>
      </trkpt>
      <trkpt lat="46.35426" lon="6.7669">
        <ele>1470</ele>
        <time>2019-08-14T13:45:22Z</time>
      </trkpt>
      <trkpt lat="46.35422" lon="6.76658">
        <ele>1476</ele>
        <time>2019-08-14T13:45:52Z</time>
      </trkpt>
      <trkpt lat="46.35403" lon="6.76633">
        <ele>1487</ele>
        <time>2019-08-14T13:46:26Z</time>
      </trkpt>
      <trkpt lat="46.35383" lon="6.76608">
        <ele>1497</ele>
        <time>2019-08-14T13:47:01Z</time>
      </trkpt>
      <trkpt lat="46.35386" lon="6.76642">
        <ele>1495</ele>
        <time>2019-08-14T13:47:33Z</time>
      </trkpt>
      <trkpt lat="46.35368" lon="6.76619">
        <ele>1504</ele>
        <time>2019-08-14T13:48:05Z</time>
      </trkpt>
      <trkpt lat="46.35349" lon="6.76595">
        <ele>1514</ele>
        <time>2019-08-14T13:48:39Z</time>
      </trkpt>
      <trkpt lat="46.35346" lon="6.7663">
        <ele>1514</ele>
        <time>2019-08-14T13:49:11Z</time>
      </trkpt>
      <trkpt lat="46.35333" lon="6.76632">
        <ele>1521</ele>
        <time>2019-08-14T13:49:29Z</time>
      </trkpt>
      <trkpt lat="46.35329" lon="6.76664">
        <ele>1522</ele>
        <time>2019-08-14T13:49:59Z</time>
      </trkpt>
      <trkpt lat="46.35312" lon="6.76668">
        <ele>1530</ele>
        <time>2019-08-14T13:50:22Z</time>
      </trkpt>
      <trkpt lat="46.3529" lon="6.7667">
        <ele>1539</ele>
        <time>2019-08-14T13:50:51Z</time>
      </trkpt>
      <trkpt lat="46.35271" lon="6.76623">
        <ele>1551</ele>
        <time>2019-08-14T13:51:41Z</time>
      </trkpt>
      <trkpt lat="46.35252" lon="6.76655">
        <ele>1557</ele>
        <time>2019-08-14T13:52:20Z</time>
      </trkpt>
      <trkpt lat="46.35232" lon="6.76653">
        <ele>1576</ele>
        <time>2019-08-14T13:52:47Z</time>
      </trkpt>
      <trkpt lat="46.35216" lon="6.7667">
        <ele>1589</ele>
        <time>2019-08-14T13:53:13Z</time>
      </trkpt>
      <trkpt lat="46.35207" lon="6.767">
        <ele>1600</ele>
        <time>2019-08-14T13:53:43Z</time>
      </trkpt>
      <trkpt lat="46.35198" lon="6.7673">
        <ele>1610</ele>
        <time>2019-08-14T13:54:13Z</time>
      </trkpt>
      <trkpt lat="46.35182" lon="6.76728">
        <ele>1625</ele>
        <time>2019-08-14T13:54:35Z</time>
      </trkpt>
      <trkpt lat="46.35158" lon="6.76761">
        <ele>1644</ele>
        <time>2019-08-14T13:55:19Z</time>
      </trkpt>
      <trkpt lat="46.35168" lon="6.76785">
        <ele>1639</ele>
        <time>2019-08-14T13:55:45Z</time>
      </trkpt>
      <trkpt lat="46.35173" lon="6.76806">
        <ele>1635</ele>
        <time>2019-08-14T13:56:05Z</time>
      </trkpt>
      <trkpt lat="46.35174" lon="6.76818">
        <ele>1634</ele>
        <time>2019-08-14T13:56:16Z</time>
      </trkpt>
      <trkpt lat="46.35175" lon="6.76823">
        <ele>1633</ele>
        <time>2019-08-14T13:56:21Z</time>
      </trkpt>
      <trkpt lat="46.35174" lon="6.7683">
        <ele>1634</ele>
        <time>2019-08-14T13:56:28Z</time>
      </trkpt>
      <trkpt lat="46.35175" lon="6.76837">
        <ele>1633</ele>
        <time>2019-08-14T13:56:34Z</time>
      </trkpt>
      <trkpt lat="46.35174" lon="6.7684">
        <ele>1633</ele>
        <time>2019-08-14T13:56:38Z</time>
      </trkpt>
      <trkpt lat="46.35169" lon="6.76835">
        <ele>1638</ele>
        <time>2019-08-14T13:56:46Z</time>
      </trkpt>
      <trkpt lat="46.35167" lon="6.76835">
        <ele>1639</ele>
        <time>2019-08-14T13:56:48Z</time>
      </trkpt>
      <trkpt lat="46.35164" lon="6.76838">
        <ele>1639</ele>
        <time>2019-08-14T13:56:53Z</time>
      </trkpt>
      <trkpt lat="46.35162" lon="6.76848">
        <ele>1637</ele>
        <time>2019-08-14T13:57:03Z</time>
      </trkpt>
      <trkpt lat="46.35157" lon="6.76854">
        <ele>1637</ele>
        <time>2019-08-14T13:57:11Z</time>
      </trkpt>
      <trkpt lat="46.35154" lon="6.76853">
        <ele>1638</ele>
        <time>2019-08-14T13:57:16Z</time>
      </trkpt>
      <trkpt lat="46.35152" lon="6.76848">
        <ele>1640</ele>
        <time>2019-08-14T13:57:21Z</time>
      </trkpt>
      <trkpt lat="46.35135" lon="6.76817">
        <ele>1648</ele>
        <time>2019-08-14T13:57:57Z</time>
      </trkpt>
      <trkpt lat="46.3512" lon="6.76785">
        <ele>1654</ele>
        <time>2019-08-14T13:58:33Z</time>
      </trkpt>
      <trkpt lat="46.35111" lon="6.76773">
        <ele>1658</ele>
        <time>2019-08-14T13:58:49Z</time>
      </trkpt>
      <trkpt lat="46.35091" lon="6.76737">
        <ele>1667</ele>
        <time>2019-08-14T13:59:32Z</time>
      </trkpt>
      <trkpt lat="46.35089" lon="6.76732">
        <ele>1668</ele>
        <time>2019-08-14T13:59:37Z</time>
      </trkpt>
      <trkpt lat="46.35083" lon="6.76705">
        <ele>1673</ele>
        <time>2019-08-14T14:00:03Z</time>
      </trkpt>
      <trkpt lat="46.35083" lon="6.767">
        <ele>1673</ele>
        <time>2019-08-14T14:00:08Z</time>
      </trkpt>
      <trkpt lat="46.35087" lon="6.76674">
        <ele>1674</ele>
        <time>2019-08-14T14:00:32Z</time>
      </trkpt>
      <trkpt lat="46.35087" lon="6.76669">
        <ele>1674</ele>
        <time>2019-08-14T14:00:37Z</time>
      </trkpt>
      <trkpt lat="46.3508" lon="6.76635">
        <ele>1678</ele>
        <time>2019-08-14T14:01:10Z</time>
      </trkpt>
      <trkpt lat="46.35079" lon="6.76627">
        <ele>1678</ele>
        <time>2019-08-14T14:01:17Z</time>
      </trkpt>
      <trkpt lat="46.35078" lon="6.76618">
        <ele>1679</ele>
        <time>2019-08-14T14:01:26Z</time>
      </trkpt>
      <trkpt lat="46.35077" lon="6.76607">
        <ele>1679</ele>
        <time>2019-08-14T14:01:36Z</time>
      </trkpt>
      <trkpt lat="46.35079" lon="6.766">
        <ele>1680</ele>
        <time>2019-08-14T14:01:43Z</time>
      </trkpt>
      <trkpt lat="46.35079" lon="6.76596">
        <ele>1680</ele>
        <time>2019-08-14T14:01:46Z</time>
      </trkpt>
      <trkpt lat="46.35078" lon="6.76592">
        <ele>1680</ele>
        <time>2019-08-14T14:01:50Z</time>
      </trkpt>
      <trkpt lat="46.35076" lon="6.76583">
        <ele>1680</ele>
        <time>2019-08-14T14:01:59Z</time>
      </trkpt>
      <trkpt lat="46.35071" lon="6.7657">
        <ele>1683</ele>
        <time>2019-08-14T14:02:13Z</time>
      </trkpt>
      <trkpt lat="46.3507" lon="6.76565">
        <ele>1684</ele>
        <time>2019-08-14T14:02:18Z</time>
      </trkpt>
      <trkpt lat="46.3507" lon="6.76549">
        <ele>1687</ele>
        <time>2019-08-14T14:02:32Z</time>
      </trkpt>
      <trkpt lat="46.35069" lon="6.76539">
        <ele>1689</ele>
        <time>2019-08-14T14:02:42Z</time>
      </trkpt>
      <trkpt lat="46.35066" lon="6.7653">
        <ele>1691</ele>
        <time>2019-08-14T14:02:51Z</time>
      </trkpt>
      <trkpt lat="46.35064" lon="6.7652">
        <ele>1692</ele>
        <time>2019-08-14T14:03:00Z</time>
      </trkpt>
      <trkpt lat="46.35059" lon="6.76513">
        <ele>1694</ele>
        <time>2019-08-14T14:03:10Z</time>
      </trkpt>
      <trkpt lat="46.35055" lon="6.76504">
        <ele>1695</ele>
        <time>2019-08-14T14:03:20Z</time>
      </trkpt>
      <trkpt lat="46.35053" lon="6.76501">
        <ele>1695</ele>
        <time>2019-08-14T14:03:23Z</time>
      </trkpt>
      <trkpt lat="46.35053" lon="6.76483">
        <ele>1699</ele>
        <time>2019-08-14T14:03:40Z</time>
      </trkpt>
      <trkpt lat="46.35051" lon="6.76478">
        <ele>1699</ele>
        <time>2019-08-14T14:03:45Z</time>
      </trkpt>
      <trkpt lat="46.35046" lon="6.76473">
        <ele>1700</ele>
        <time>2019-08-14T14:03:53Z</time>
      </trkpt>
      <trkpt lat="46.35042" lon="6.76467">
        <ele>1701</ele>
        <time>2019-08-14T14:04:01Z</time>
      </trkpt>
      <trkpt lat="46.35039" lon="6.7646">
        <ele>1702</ele>
        <time>2019-08-14T14:04:09Z</time>
      </trkpt>
      <trkpt lat="46.35028" lon="6.76445">
        <ele>1705</ele>
        <time>2019-08-14T14:04:29Z</time>
      </trkpt>
      <trkpt lat="46.35024" lon="6.76434">
        <ele>1707</ele>
        <time>2019-08-14T14:04:40Z</time>
      </trkpt>
      <trkpt lat="46.3502" lon="6.76433">
        <ele>1707</ele>
        <time>2019-08-14T14:04:46Z</time>
      </trkpt>
      <trkpt lat="46.35024" lon="6.76423">
        <ele>1709</ele>
        <time>2019-08-14T14:04:56Z</time>
      </trkpt>
      <trkpt lat="46.35026" lon="6.76416">
        <ele>1711</ele>
        <time>2019-08-14T14:05:03Z</time>
      </trkpt>
      <trkpt lat="46.3503" lon="6.7641">
        <ele>1712</ele>
        <time>2019-08-14T14:05:11Z</time>
      </trkpt>
      <trkpt lat="46.35037" lon="6.76404">
        <ele>1714</ele>
        <time>2019-08-14T14:05:22Z</time>
      </trkpt>
      <trkpt lat="46.35052" lon="6.76406">
        <ele>1714</ele>
        <time>2019-08-14T14:05:42Z</time>
      </trkpt>
      <trkpt lat="46.35036" lon="6.76378">
        <ele>1722</ele>
        <time>2019-08-14T14:06:15Z</time>
      </trkpt>
      <trkpt lat="46.35033" lon="6.76376">
        <ele>1723</ele>
        <time>2019-08-14T14:06:20Z</time>
      </trkpt>
      <trkpt lat="46.35028" lon="6.76376">
        <ele>1723</ele>
        <time>2019-08-14T14:06:27Z</time>
      </trkpt>
      <trkpt lat="46.35022" lon="6.76376">
        <ele>1723</ele>
        <time>2019-08-14T14:06:35Z</time>
      </trkpt>
      <trkpt lat="46.35018" lon="6.7638">
        <ele>1722</ele>
        <time>2019-08-14T14:06:41Z</time>
      </trkpt>
      <trkpt lat="46.35012" lon="6.76378">
        <ele>1722</ele>
        <time>2019-08-14T14:06:49Z</time>
      </trkpt>
      <trkpt lat="46.3501" lon="6.76379">
        <ele>1722</ele>
        <time>2019-08-14T14:06:52Z</time>
      </trkpt>
      <trkpt lat="46.35007" lon="6.76383">
        <ele>1721</ele>
        <time>2019-08-14T14:06:58Z</time>
      </trkpt>
      <trkpt lat="46.35003" lon="6.76385">
        <ele>1720</ele>
        <time>2019-08-14T14:07:03Z</time>
      </trkpt>
      <trkpt lat="46.35002" lon="6.76381">
        <ele>1721</ele>
        <time>2019-08-14T14:07:07Z</time>
      </trkpt>
      <trkpt lat="46.35004" lon="6.76373">
        <ele>1724</ele>
        <time>2019-08-14T14:07:15Z</time>
      </trkpt>
      <trkpt lat="46.35004" lon="6.76367">
        <ele>1726</ele>
        <time>2019-08-14T14:07:20Z</time>
      </trkpt>
      <trkpt lat="46.35002" lon="6.76361">
        <ele>1727</ele>
        <time>2019-08-14T14:07:27Z</time>
      </trkpt>
      <trkpt lat="46.34999" lon="6.76352">
        <ele>1730</ele>
        <time>2019-08-14T14:07:36Z</time>
      </trkpt>
      <trkpt lat="46.35001" lon="6.76345">
        <ele>1732</ele>
        <time>2019-08-14T14:07:43Z</time>
      </trkpt>
      <trkpt lat="46.34999" lon="6.76341">
        <ele>1734</ele>
        <time>2019-08-14T14:07:47Z</time>
      </trkpt>
      <trkpt lat="46.34998" lon="6.76332">
        <ele>1737</ele>
        <time>2019-08-14T14:07:56Z</time>
      </trkpt>
      <trkpt lat="46.34998" lon="6.76316">
        <ele>1742</ele>
        <time>2019-08-14T14:08:10Z</time>
      </trkpt>
      <trkpt lat="46.34998" lon="6.76311">
        <ele>1744</ele>
        <time>2019-08-14T14:08:15Z</time>
      </trkpt>
      <trkpt lat="46.34999" lon="6.76307">
        <ele>1745</ele>
        <time>2019-08-14T14:08:19Z</time>
      </trkpt>
      <trkpt lat="46.35001" lon="6.76304">
        <ele>1746</ele>
        <time>2019-08-14T14:08:23Z</time>
      </trkpt>
      <trkpt lat="46.35005" lon="6.76293">
        <ele>1749</ele>
        <time>2019-08-14T14:08:34Z</time>
      </trkpt>
      <trkpt lat="46.35008" lon="6.76288">
        <ele>1750</ele>
        <time>2019-08-14T14:08:40Z</time>
      </trkpt>
      <trkpt lat="46.35006" lon="6.76285">
        <ele>1751</ele>
        <time>2019-08-14T14:08:44Z</time>
      </trkpt>
      <trkpt lat="46.35009" lon="6.76282">
        <ele>1752</ele>
        <time>2019-08-14T14:08:49Z</time>
      </trkpt>
      <trkpt lat="46.35006" lon="6.76278">
        <ele>1754</ele>
        <time>2019-08-14T14:08:55Z</time>
      </trkpt>
      <trkpt lat="46.35004" lon="6.7627">
        <ele>1757</ele>
        <time>2019-08-14T14:09:02Z</time>
      </trkpt>
      <trkpt lat="46.35002" lon="6.76266">
        <ele>1758</ele>
        <time>2019-08-14T14:09:07Z</time>
      </trkpt>
      <trkpt lat="46.34994" lon="6.76228">
        <ele>1771</ele>
        <time>2019-08-14T14:09:44Z</time>
      </trkpt>
      <trkpt lat="46.34992" lon="6.76222">
        <ele>1772</ele>
        <time>2019-08-14T14:09:50Z</time>
      </trkpt>
      <trkpt lat="46.34992" lon="6.76213">
        <ele>1775</ele>
        <time>2019-08-14T14:09:58Z</time>
      </trkpt>
      <trkpt lat="46.34992" lon="6.76207">
        <ele>1776</ele>
        <time>2019-08-14T14:10:03Z</time>
      </trkpt>
      <trkpt lat="46.3499" lon="6.76201">
        <ele>1778</ele>
        <time>2019-08-14T14:10:10Z</time>
      </trkpt>
      <trkpt lat="46.34988" lon="6.76182">
        <ele>1783</ele>
        <time>2019-08-14T14:10:27Z</time>
      </trkpt>
      <trkpt lat="46.3499" lon="6.76175">
        <ele>1785</ele>
        <time>2019-08-14T14:10:34Z</time>
      </trkpt>
      <trkpt lat="46.34987" lon="6.76172">
        <ele>1785</ele>
        <time>2019-08-14T14:10:39Z</time>
      </trkpt>
      <trkpt lat="46.34985" lon="6.76165">
        <ele>1787</ele>
        <time>2019-08-14T14:10:46Z</time>
      </trkpt>
      <trkpt lat="46.34982" lon="6.76152">
        <ele>1788</ele>
        <time>2019-08-14T14:10:59Z</time>
      </trkpt>
      <trkpt lat="46.34977" lon="6.76095">
        <ele>1796</ele>
        <time>2019-08-14T14:11:52Z</time>
      </trkpt>
      <trkpt lat="46.34976" lon="6.76089">
        <ele>1796</ele>
        <time>2019-08-14T14:11:57Z</time>
      </trkpt>
      <trkpt lat="46.34977" lon="6.76081">
        <ele>1797</ele>
        <time>2019-08-14T14:12:05Z</time>
      </trkpt>
      <trkpt lat="46.34977" lon="6.76076">
        <ele>1798</ele>
        <time>2019-08-14T14:12:09Z</time>
      </trkpt>
      <trkpt lat="46.34976" lon="6.76071">
        <ele>1799</ele>
        <time>2019-08-14T14:12:14Z</time>
      </trkpt>
      <trkpt lat="46.34973" lon="6.76059">
        <ele>1800</ele>
        <time>2019-08-14T14:12:26Z</time>
      </trkpt>
      <trkpt lat="46.34973" lon="6.76052">
        <ele>1801</ele>
        <time>2019-08-14T14:12:32Z</time>
      </trkpt>
      <trkpt lat="46.34972" lon="6.76046">
        <ele>1802</ele>
        <time>2019-08-14T14:12:38Z</time>
      </trkpt>
      <trkpt lat="46.34969" lon="6.76023">
        <ele>1805</ele>
        <time>2019-08-14T14:13:00Z</time>
      </trkpt>
      <trkpt lat="46.34963" lon="6.75991">
        <ele>1810</ele>
        <time>2019-08-14T14:13:30Z</time>
      </trkpt>
      <trkpt lat="46.34963" lon="6.7598">
        <ele>1811</ele>
        <time>2019-08-14T14:13:40Z</time>
      </trkpt>
      <trkpt lat="46.34957" lon="6.75972">
        <ele>1812</ele>
        <time>2019-08-14T14:13:51Z</time>
      </trkpt>
      <trkpt lat="46.34957" lon="6.75964">
        <ele>1813</ele>
        <time>2019-08-14T14:13:59Z</time>
      </trkpt>
      <trkpt lat="46.34954" lon="6.75964">
        <ele>1813</ele>
        <time>2019-08-14T14:14:03Z</time>
      </trkpt>
      <trkpt lat="46.34948" lon="6.75958">
        <ele>1814</ele>
        <time>2019-08-14T14:14:12Z</time>
      </trkpt>
      <trkpt lat="46.34946" lon="6.75952">
        <ele>1815</ele>
        <time>2019-08-14T14:14:18Z</time>
      </trkpt>
      <trkpt lat="46.34937" lon="6.7595">
        <ele>1815</ele>
        <time>2019-08-14T14:14:31Z</time>
      </trkpt>
      <trkpt lat="46.34934" lon="6.75948">
        <ele>1816</ele>
        <time>2019-08-14T14:14:35Z</time>
      </trkpt>
      <trkpt lat="46.34929" lon="6.7594">
        <ele>1817</ele>
        <time>2019-08-14T14:14:45Z</time>
      </trkpt>
      <trkpt lat="46.34921" lon="6.7593">
        <ele>1818</ele>
        <time>2019-08-14T14:14:59Z</time>
      </trkpt>
      <trkpt lat="46.3492" lon="6.7592">
        <ele>1819</ele>
        <time>2019-08-14T14:15:08Z</time>
      </trkpt>
      <trkpt lat="46.34919" lon="6.75914">
        <ele>1819</ele>
        <time>2019-08-14T14:15:14Z</time>
      </trkpt>
      <trkpt lat="46.34914" lon="6.75903">
        <ele>1820</ele>
        <time>2019-08-14T14:15:26Z</time>
      </trkpt>
      <trkpt lat="46.34911" lon="6.75887">
        <ele>1821</ele>
        <time>2019-08-14T14:15:41Z</time>
      </trkpt>
      <trkpt lat="46.34906" lon="6.75878">
        <ele>1822</ele>
        <time>2019-08-14T14:15:52Z</time>
      </trkpt>
      <trkpt lat="46.34903" lon="6.75873">
        <ele>1823</ele>
        <time>2019-08-14T14:15:58Z</time>
      </trkpt>
      <trkpt lat="46.34901" lon="6.75872">
        <ele>1823</ele>
        <time>2019-08-14T14:16:01Z</time>
      </trkpt>
      <trkpt lat="46.34895" lon="6.75873">
        <ele>1825</ele>
        <time>2019-08-14T14:16:09Z</time>
      </trkpt>
      <trkpt lat="46.34891" lon="6.75873">
        <ele>1826</ele>
        <time>2019-08-14T14:16:14Z</time>
      </trkpt>
      <trkpt lat="46.34883" lon="6.75869">
        <ele>1828</ele>
        <time>2019-08-14T14:16:26Z</time>
      </trkpt>
      <trkpt lat="46.34879" lon="6.75869">
        <ele>1829</ele>
        <time>2019-08-14T14:16:31Z</time>
      </trkpt>
      <trkpt lat="46.34876" lon="6.7587">
        <ele>1829</ele>
        <time>2019-08-14T14:16:35Z</time>
      </trkpt>
      <trkpt lat="46.34861" lon="6.75882">
        <ele>1833</ele>
        <time>2019-08-14T14:16:58Z</time>
      </trkpt>
      <trkpt lat="46.34858" lon="6.75886">
        <ele>1833</ele>
        <time>2019-08-14T14:17:04Z</time>
      </trkpt>
      <trkpt lat="46.34856" lon="6.7589">
        <ele>1834</ele>
        <time>2019-08-14T14:17:08Z</time>
      </trkpt>
      <trkpt lat="46.34855" lon="6.75895">
        <ele>1834</ele>
        <time>2019-08-14T14:17:13Z</time>
      </trkpt>
      <trkpt lat="46.34854" lon="6.75899">
        <ele>1834</ele>
        <time>2019-08-14T14:17:17Z</time>
      </trkpt>
      <trkpt lat="46.34852" lon="6.75901">
        <ele>1834</ele>
        <time>2019-08-14T14:17:20Z</time>
      </trkpt>
      <trkpt lat="46.34839" lon="6.75911">
        <ele>1837</ele>
        <time>2019-08-14T14:17:40Z</time>
      </trkpt>
      <trkpt lat="46.34835" lon="6.75912">
        <ele>1838</ele>
        <time>2019-08-14T14:17:45Z</time>
      </trkpt>
      <trkpt lat="46.34831" lon="6.75912">
        <ele>1839</ele>
        <time>2019-08-14T14:17:50Z</time>
      </trkpt>
      <trkpt lat="46.34828" lon="6.7591">
        <ele>1840</ele>
        <time>2019-08-14T14:17:55Z</time>
      </trkpt>
      <trkpt lat="46.34818" lon="6.75899">
        <ele>1843</ele>
        <time>2019-08-14T14:18:12Z</time>
      </trkpt>
      <trkpt lat="46.34814" lon="6.75897">
        <ele>1845</ele>
        <time>2019-08-14T14:18:17Z</time>
      </trkpt>
      <trkpt lat="46.3481" lon="6.75896">
        <ele>1846</ele>
        <time>2019-08-14T14:18:23Z</time>
      </trkpt>
      <trkpt lat="46.34795" lon="6.75897">
        <ele>1850</ele>
        <time>2019-08-14T14:18:43Z</time>
      </trkpt>
      <trkpt lat="46.3479" lon="6.75899">
        <ele>1852</ele>
        <time>2019-08-14T14:18:50Z</time>
      </trkpt>
      <trkpt lat="46.34786" lon="6.75901">
        <ele>1853</ele>
        <time>2019-08-14T14:18:55Z</time>
      </trkpt>
      <trkpt lat="46.34778" lon="6.75911">
        <ele>1853</ele>
        <time>2019-08-14T14:19:09Z</time>
      </trkpt>
      <trkpt lat="46.34774" lon="6.75912">
        <ele>1854</ele>
        <time>2019-08-14T14:19:15Z</time>
      </trkpt>
      <trkpt lat="46.34772" lon="6.75917">
        <ele>1853</ele>
        <time>2019-08-14T14:19:20Z</time>
      </trkpt>
      <trkpt lat="46.34769" lon="6.7592">
        <ele>1854</ele>
        <time>2019-08-14T14:19:25Z</time>
      </trkpt>
      <trkpt lat="46.34764" lon="6.75922">
        <ele>1855</ele>
        <time>2019-08-14T14:19:32Z</time>
      </trkpt>
      <trkpt lat="46.34753" lon="6.75928">
        <ele>1857</ele>
        <time>2019-08-14T14:19:48Z</time>
      </trkpt>
      <trkpt lat="46.34705" lon="6.75971">
        <ele>1872</ele>
        <time>2019-08-14T14:21:03Z</time>
      </trkpt>
      <trkpt lat="46.3469" lon="6.75984">
        <ele>1875</ele>
        <time>2019-08-14T14:21:26Z</time>
      </trkpt>
      <trkpt lat="46.34667" lon="6.75976">
        <ele>1885</ele>
        <time>2019-08-14T14:21:58Z</time>
      </trkpt>
      <trkpt lat="46.34645" lon="6.75977">
        <ele>1892</ele>
        <time>2019-08-14T14:22:27Z</time>
      </trkpt>
      <trkpt lat="46.3462" lon="6.7599">
        <ele>1898</ele>
        <time>2019-08-14T14:23:03Z</time>
      </trkpt>
      <trkpt lat="46.34609" lon="6.75994">
        <ele>1900</ele>
        <time>2019-08-14T14:23:18Z</time>
      </trkpt>
      <trkpt lat="46.34602" lon="6.76006">
        <ele>1900</ele>
        <time>2019-08-14T14:23:32Z</time>
      </trkpt>
      <trkpt lat="46.34578" lon="6.76026">
        <ele>1903</ele>
        <time>2019-08-14T14:24:09Z</time>
      </trkpt>
      <trkpt lat="46.34525" lon="6.76049">
        <ele>1896</ele>
        <time>2019-08-14T14:25:23Z</time>
      </trkpt>
      <trkpt lat="46.34515" lon="6.76059">
        <ele>1896</ele>
        <time>2019-08-14T14:25:39Z</time>
      </trkpt>
      <trkpt lat="46.34507" lon="6.7606">
        <ele>1895</ele>
        <time>2019-08-14T14:25:50Z</time>
      </trkpt>
      <trkpt lat="46.34498" lon="6.76065">
        <ele>1895</ele>
        <time>2019-08-14T14:26:03Z</time>
      </trkpt>
      <trkpt lat="46.34497" lon="6.76046">
        <ele>1892</ele>
        <time>2019-08-14T14:26:20Z</time>
      </trkpt>
      <trkpt lat="46.34492" lon="6.76024">
        <ele>1886</ele>
        <time>2019-08-14T14:26:42Z</time>
      </trkpt>
      <trkpt lat="46.3448" lon="6.76035">
        <ele>1881</ele>
        <time>2019-08-14T14:27:01Z</time>
      </trkpt>
      <trkpt lat="46.34473" lon="6.76038">
        <ele>1878</ele>
        <time>2019-08-14T14:27:10Z</time>
      </trkpt>
      <trkpt lat="46.34469" lon="6.76025">
        <ele>1874</ele>
        <time>2019-08-14T14:27:23Z</time>
      </trkpt>
      <trkpt lat="46.34466" lon="6.76018">
        <ele>1871</ele>
        <time>2019-08-14T14:27:31Z</time>
      </trkpt>
      <trkpt lat="46.34453" lon="6.7599">
        <ele>1859</ele>
        <time>2019-08-14T14:28:02Z</time>
      </trkpt>
      <trkpt lat="46.34444" lon="6.76">
        <ele>1854</ele>
        <time>2019-08-14T14:28:17Z</time>
      </trkpt>
      <trkpt lat="46.34438" lon="6.7601">
        <ele>1853</ele>
        <time>2019-08-14T14:28:29Z</time>
      </trkpt>
      <trkpt lat="46.34435" lon="6.76">
        <ele>1849</ele>
        <time>2019-08-14T14:28:40Z</time>
      </trkpt>
      <trkpt lat="46.34428" lon="6.75986">
        <ele>1843</ele>
        <time>2019-08-14T14:28:55Z</time>
      </trkpt>
      <trkpt lat="46.34418" lon="6.76">
        <ele>1839</ele>
        <time>2019-08-14T14:29:14Z</time>
      </trkpt>
      <trkpt lat="46.34402" lon="6.76012">
        <ele>1835</ele>
        <time>2019-08-14T14:29:38Z</time>
      </trkpt>
      <trkpt lat="46.34385" lon="6.7602">
        <ele>1829</ele>
        <time>2019-08-14T14:30:02Z</time>
      </trkpt>
      <trkpt lat="46.34358" lon="6.76023">
        <ele>1819</ele>
        <time>2019-08-14T14:30:38Z</time>
      </trkpt>
      <trkpt lat="46.34333" lon="6.76027">
        <ele>1810</ele>
        <time>2019-08-14T14:31:12Z</time>
      </trkpt>
      <trkpt lat="46.34324" lon="6.76026">
        <ele>1807</ele>
        <time>2019-08-14T14:31:24Z</time>
      </trkpt>
      <trkpt lat="46.34311" lon="6.76028">
        <ele>1803</ele>
        <time>2019-08-14T14:31:41Z</time>
      </trkpt>
      <trkpt lat="46.34236" lon="6.76036">
        <ele>1781</ele>
        <time>2019-08-14T14:33:21Z</time>
      </trkpt>
      <trkpt lat="46.34232" lon="6.76031">
        <ele>1778</ele>
        <time>2019-08-14T14:33:28Z</time>
      </trkpt>
      <trkpt lat="46.34186" lon="6.7604">
        <ele>1764</ele>
        <time>2019-08-14T14:34:30Z</time>
      </trkpt>
      <trkpt lat="46.34166" lon="6.76045">
        <ele>1757</ele>
        <time>2019-08-14T14:34:58Z</time>
      </trkpt>
      <trkpt lat="46.34162" lon="6.76038">
        <ele>1754</ele>
        <time>2019-08-14T14:35:06Z</time>
      </trkpt>
      <trkpt lat="46.34155" lon="6.76038">
        <ele>1752</ele>
        <time>2019-08-14T14:35:15Z</time>
      </trkpt>
      <trkpt lat="46.34139" lon="6.76044">
        <ele>1746</ele>
        <time>2019-08-14T14:35:37Z</time>
      </trkpt>
      <trkpt lat="46.34127" lon="6.76044">
        <ele>1742</ele>
        <time>2019-08-14T14:35:53Z</time>
      </trkpt>
      <trkpt lat="46.34115" lon="6.76038">
        <ele>1737</ele>
        <time>2019-08-14T14:36:10Z</time>
      </trkpt>
      <trkpt lat="46.34096" lon="6.76027">
        <ele>1730</ele>
        <time>2019-08-14T14:36:38Z</time>
      </trkpt>
      <trkpt lat="46.34083" lon="6.76011">
        <ele>1726</ele>
        <time>2019-08-14T14:37:00Z</time>
      </trkpt>
      <trkpt lat="46.34079" lon="6.76001">
        <ele>1724</ele>
        <time>2019-08-14T14:37:11Z</time>
      </trkpt>
      <trkpt lat="46.34073" lon="6.76002">
        <ele>1721</ele>
        <time>2019-08-14T14:37:19Z</time>
      </trkpt>
      <trkpt lat="46.34072" lon="6.76008">
        <ele>1720</ele>
        <time>2019-08-14T14:37:25Z</time>
      </trkpt>
      <trkpt lat="46.34062" lon="6.7601">
        <ele>1715</ele>
        <time>2019-08-14T14:37:38Z</time>
      </trkpt>
      <trkpt lat="46.34055" lon="6.76001">
        <ele>1712</ele>
        <time>2019-08-14T14:37:51Z</time>
      </trkpt>
      <trkpt lat="46.34032" lon="6.76026">
        <ele>1701</ele>
        <time>2019-08-14T14:38:29Z</time>
      </trkpt>
      <trkpt lat="46.34023" lon="6.76032">
        <ele>1697</ele>
        <time>2019-08-14T14:38:42Z</time>
      </trkpt>
      <trkpt lat="46.3402" lon="6.76013">
        <ele>1695</ele>
        <time>2019-08-14T14:39:00Z</time>
      </trkpt>
      <trkpt lat="46.34015" lon="6.76011">
        <ele>1693</ele>
        <time>2019-08-14T14:39:07Z</time>
      </trkpt>
      <trkpt lat="46.33996" lon="6.76022">
        <ele>1685</ele>
        <time>2019-08-14T14:39:34Z</time>
      </trkpt>
      <trkpt lat="46.33963" lon="6.76052">
        <ele>1673</ele>
        <time>2019-08-14T14:40:26Z</time>
      </trkpt>
      <trkpt lat="46.33948" lon="6.76072">
        <ele>1667</ele>
        <time>2019-08-14T14:40:54Z</time>
      </trkpt>
      <trkpt lat="46.33919" lon="6.7609">
        <ele>1654</ele>
        <time>2019-08-14T14:41:36Z</time>
      </trkpt>
      <trkpt lat="46.3391" lon="6.76086">
        <ele>1652</ele>
        <time>2019-08-14T14:41:48Z</time>
      </trkpt>
      <trkpt lat="46.33889" lon="6.76093">
        <ele>1645</ele>
        <time>2019-08-14T14:42:17Z</time>
      </trkpt>
      <trkpt lat="46.33877" lon="6.76095">
        <ele>1641</ele>
        <time>2019-08-14T14:42:33Z</time>
      </trkpt>
      <trkpt lat="46.33862" lon="6.76102">
        <ele>1636</ele>
        <time>2019-08-14T14:42:54Z</time>
      </trkpt>
      <trkpt lat="46.33847" lon="6.76091">
        <ele>1633</ele>
        <time>2019-08-14T14:43:17Z</time>
      </trkpt>
      <trkpt lat="46.33824" lon="6.76108">
        <ele>1624</ele>
        <time>2019-08-14T14:43:51Z</time>
      </trkpt>
      <trkpt lat="46.33814" lon="6.76117">
        <ele>1621</ele>
        <time>2019-08-14T14:44:07Z</time>
      </trkpt>
      <trkpt lat="46.33808" lon="6.76124">
        <ele>1619</ele>
        <time>2019-08-14T14:44:17Z</time>
      </trkpt>
      <trkpt lat="46.33788" lon="6.76131">
        <ele>1613</ele>
        <time>2019-08-14T14:44:45Z</time>
      </trkpt>
      <trkpt lat="46.33768" lon="6.76154">
        <ele>1607</ele>
        <time>2019-08-14T14:45:19Z</time>
      </trkpt>
      <trkpt lat="46.33748" lon="6.76163">
        <ele>1602</ele>
        <time>2019-08-14T14:45:47Z</time>
      </trkpt>
      <trkpt lat="46.33739" lon="6.76171">
        <ele>1599</ele>
        <time>2019-08-14T14:46:01Z</time>
      </trkpt>
      <trkpt lat="46.33713" lon="6.76208">
        <ele>1587</ele>
        <time>2019-08-14T14:46:49Z</time>
      </trkpt>
      <trkpt lat="46.33686" lon="6.76257">
        <ele>1576</ele>
        <time>2019-08-14T14:47:47Z</time>
      </trkpt>
      <trkpt lat="46.33673" lon="6.76289">
        <ele>1571</ele>
        <time>2019-08-14T14:48:21Z</time>
      </trkpt>
      <trkpt lat="46.3366" lon="6.76308">
        <ele>1567</ele>
        <time>2019-08-14T14:48:46Z</time>
      </trkpt>
      <trkpt lat="46.33651" lon="6.76332">
        <ele>1565</ele>
        <time>2019-08-14T14:49:11Z</time>
      </trkpt>
      <trkpt lat="46.3365" lon="6.76354">
        <ele>1563</ele>
        <time>2019-08-14T14:49:31Z</time>
      </trkpt>
      <trkpt lat="46.33648" lon="6.76364">
        <ele>1562</ele>
        <time>2019-08-14T14:49:41Z</time>
      </trkpt>
      <trkpt lat="46.33641" lon="6.76366">
        <ele>1561</ele>
        <time>2019-08-14T14:49:51Z</time>
      </trkpt>
      <trkpt lat="46.33608" lon="6.76398">
        <ele>1554</ele>
        <time>2019-08-14T14:50:44Z</time>
      </trkpt>
      <trkpt lat="46.33596" lon="6.7641">
        <ele>1551</ele>
        <time>2019-08-14T14:51:03Z</time>
      </trkpt>
      <trkpt lat="46.33546" lon="6.76491">
        <ele>1545</ele>
        <time>2019-08-14T14:52:43Z</time>
      </trkpt>
      <trkpt lat="46.33538" lon="6.765">
        <ele>1545</ele>
        <time>2019-08-14T14:52:57Z</time>
      </trkpt>
      <trkpt lat="46.33533" lon="6.76516">
        <ele>1544</ele>
        <time>2019-08-14T14:53:13Z</time>
      </trkpt>
      <trkpt lat="46.33524" lon="6.76531">
        <ele>1543</ele>
        <time>2019-08-14T14:53:31Z</time>
      </trkpt>
      <trkpt lat="46.33504" lon="6.76549">
        <ele>1541</ele>
        <time>2019-08-14T14:54:03Z</time>
      </trkpt>
      <trkpt lat="46.3347" lon="6.76569">
        <ele>1540</ele>
        <time>2019-08-14T14:54:51Z</time>
      </trkpt>
      <trkpt lat="46.33427" lon="6.76576">
        <ele>1540</ele>
        <time>2019-08-14T14:55:49Z</time>
      </trkpt>
      <trkpt lat="46.33414" lon="6.76569">
        <ele>1542</ele>
        <time>2019-08-14T14:56:08Z</time>
      </trkpt>
      <trkpt lat="46.33391" lon="6.76592">
        <ele>1542</ele>
        <time>2019-08-14T14:56:45Z</time>
      </trkpt>
      <trkpt lat="46.33359" lon="6.76623">
        <ele>1537</ele>
        <time>2019-08-14T14:57:36Z</time>
      </trkpt>
      <trkpt lat="46.33337" lon="6.76625">
        <ele>1537</ele>
        <time>2019-08-14T14:58:06Z</time>
      </trkpt>
      <trkpt lat="46.33325" lon="6.76623">
        <ele>1538</ele>
        <time>2019-08-14T14:58:22Z</time>
      </trkpt>
      <trkpt lat="46.33301" lon="6.7663">
        <ele>1533</ele>
        <time>2019-08-14T14:58:55Z</time>
      </trkpt>
      <trkpt lat="46.33269" lon="6.7664">
        <ele>1528</ele>
        <time>2019-08-14T14:59:38Z</time>
      </trkpt>
      <trkpt lat="46.33265" lon="6.76639">
        <ele>1528</ele>
        <time>2019-08-14T14:59:44Z</time>
      </trkpt>
      <trkpt lat="46.3323" lon="6.76626">
        <ele>1526</ele>
        <time>2019-08-14T15:00:32Z</time>
      </trkpt>
      <trkpt lat="46.33201" lon="6.76602">
        <ele>1524</ele>
        <time>2019-08-14T15:01:17Z</time>
      </trkpt>
      <trkpt lat="46.33164" lon="6.76569">
        <ele>1517</ele>
        <time>2019-08-14T15:02:14Z</time>
      </trkpt>
      <trkpt lat="46.33126" lon="6.76551">
        <ele>1510</ele>
        <time>2019-08-14T15:03:08Z</time>
      </trkpt>
      <trkpt lat="46.33121" lon="6.76551">
        <ele>1508</ele>
        <time>2019-08-14T15:03:15Z</time>
      </trkpt>
      <trkpt lat="46.33117" lon="6.7655">
        <ele>1507</ele>
        <time>2019-08-14T15:03:20Z</time>
      </trkpt>
      <trkpt lat="46.33112" lon="6.76551">
        <ele>1505</ele>
        <time>2019-08-14T15:03:27Z</time>
      </trkpt>
      <trkpt lat="46.33104" lon="6.76549">
        <ele>1503</ele>
        <time>2019-08-14T15:03:38Z</time>
      </trkpt>
      <trkpt lat="46.331" lon="6.7655">
        <ele>1502</ele>
        <time>2019-08-14T15:03:43Z</time>
      </trkpt>
      <trkpt lat="46.33101" lon="6.76556">
        <ele>1502</ele>
        <time>2019-08-14T15:03:49Z</time>
      </trkpt>
      <trkpt lat="46.33099" lon="6.76559">
        <ele>1502</ele>
        <time>2019-08-14T15:03:52Z</time>
      </trkpt>
      <trkpt lat="46.33091" lon="6.76564">
        <ele>1500</ele>
        <time>2019-08-14T15:04:04Z</time>
      </trkpt>
      <trkpt lat="46.33087" lon="6.76564">
        <ele>1499</ele>
        <time>2019-08-14T15:04:09Z</time>
      </trkpt>
      <trkpt lat="46.33083" lon="6.76564">
        <ele>1498</ele>
        <time>2019-08-14T15:04:15Z</time>
      </trkpt>
      <trkpt lat="46.33079" lon="6.76562">
        <ele>1497</ele>
        <time>2019-08-14T15:04:20Z</time>
      </trkpt>
      <trkpt lat="46.33058" lon="6.76557">
        <ele>1491</ele>
        <time>2019-08-14T15:04:49Z</time>
      </trkpt>
      <trkpt lat="46.33053" lon="6.76557">
        <ele>1489</ele>
        <time>2019-08-14T15:04:55Z</time>
      </trkpt>
      <trkpt lat="46.33053" lon="6.7656">
        <ele>1489</ele>
        <time>2019-08-14T15:04:58Z</time>
      </trkpt>
      <trkpt lat="46.33054" lon="6.76567">
        <ele>1490</ele>
        <time>2019-08-14T15:05:05Z</time>
      </trkpt>
      <trkpt lat="46.33056" lon="6.76571">
        <ele>1491</ele>
        <time>2019-08-14T15:05:09Z</time>
      </trkpt>
      <trkpt lat="46.33057" lon="6.76574">
        <ele>1492</ele>
        <time>2019-08-14T15:05:12Z</time>
      </trkpt>
      <trkpt lat="46.33063" lon="6.76579">
        <ele>1494</ele>
        <time>2019-08-14T15:05:22Z</time>
      </trkpt>
      <trkpt lat="46.33065" lon="6.76583">
        <ele>1495</ele>
        <time>2019-08-14T15:05:26Z</time>
      </trkpt>
      <trkpt lat="46.33068" lon="6.76613">
        <ele>1500</ele>
        <time>2019-08-14T15:05:54Z</time>
      </trkpt>
      <trkpt lat="46.33069" lon="6.7662">
        <ele>1501</ele>
        <time>2019-08-14T15:06:01Z</time>
      </trkpt>
      <trkpt lat="46.33072" lon="6.76632">
        <ele>1503</ele>
        <time>2019-08-14T15:06:13Z</time>
      </trkpt>
      <trkpt lat="46.33075" lon="6.76638">
        <ele>1504</ele>
        <time>2019-08-14T15:06:19Z</time>
      </trkpt>
      <trkpt lat="46.33077" lon="6.76643">
        <ele>1505</ele>
        <time>2019-08-14T15:06:25Z</time>
      </trkpt>
      <trkpt lat="46.3308" lon="6.76647">
        <ele>1506</ele>
        <time>2019-08-14T15:06:30Z</time>
      </trkpt>
      <trkpt lat="46.33083" lon="6.76651">
        <ele>1506</ele>
        <time>2019-08-14T15:06:36Z</time>
      </trkpt>
      <trkpt lat="46.33087" lon="6.76654">
        <ele>1507</ele>
        <time>2019-08-14T15:06:42Z</time>
      </trkpt>
      <trkpt lat="46.33103" lon="6.76664">
        <ele>1508</ele>
        <time>2019-08-14T15:07:05Z</time>
      </trkpt>
      <trkpt lat="46.33105" lon="6.76666">
        <ele>1508</ele>
        <time>2019-08-14T15:07:08Z</time>
      </trkpt>
      <trkpt lat="46.33106" lon="6.7667">
        <ele>1508</ele>
        <time>2019-08-14T15:07:12Z</time>
      </trkpt>
      <trkpt lat="46.33106" lon="6.76678">
        <ele>1509</ele>
        <time>2019-08-14T15:07:19Z</time>
      </trkpt>
      <trkpt lat="46.33088" lon="6.76713">
        <ele>1513</ele>
        <time>2019-08-14T15:08:00Z</time>
      </trkpt>
      <trkpt lat="46.3307" lon="6.76748">
        <ele>1516</ele>
        <time>2019-08-14T15:08:40Z</time>
      </trkpt>
      <trkpt lat="46.33041" lon="6.7679">
        <ele>1526</ele>
        <time>2019-08-14T15:09:35Z</time>
      </trkpt>
      <trkpt lat="46.33031" lon="6.76802">
        <ele>1530</ele>
        <time>2019-08-14T15:09:52Z</time>
      </trkpt>
      <trkpt lat="46.33028" lon="6.76811">
        <ele>1532</ele>
        <time>2019-08-14T15:10:01Z</time>
      </trkpt>
      <trkpt lat="46.33011" lon="6.76838">
        <ele>1539</ele>
        <time>2019-08-14T15:10:35Z</time>
      </trkpt>
      <trkpt lat="46.33006" lon="6.76838">
        <ele>1540</ele>
        <time>2019-08-14T15:10:41Z</time>
      </trkpt>
      <trkpt lat="46.33003" lon="6.76836">
        <ele>1539</ele>
        <time>2019-08-14T15:10:46Z</time>
      </trkpt>
      <trkpt lat="46.33" lon="6.7683">
        <ele>1538</ele>
        <time>2019-08-14T15:10:53Z</time>
      </trkpt>
      <trkpt lat="46.32994" lon="6.76824">
        <ele>1537</ele>
        <time>2019-08-14T15:11:02Z</time>
      </trkpt>
      <trkpt lat="46.32991" lon="6.76819">
        <ele>1536</ele>
        <time>2019-08-14T15:11:08Z</time>
      </trkpt>
      <trkpt lat="46.32988" lon="6.76809">
        <ele>1533</ele>
        <time>2019-08-14T15:11:19Z</time>
      </trkpt>
      <trkpt lat="46.32988" lon="6.76855">
        <ele>1544</ele>
        <time>2019-08-14T15:12:01Z</time>
      </trkpt>
      <trkpt lat="46.32987" lon="6.76864">
        <ele>1546</ele>
        <time>2019-08-14T15:12:09Z</time>
      </trkpt>
      <trkpt lat="46.32981" lon="6.76847">
        <ele>1544</ele>
        <time>2019-08-14T15:12:27Z</time>
      </trkpt>
      <trkpt lat="46.32977" lon="6.76868">
        <ele>1548</ele>
        <time>2019-08-14T15:12:47Z</time>
      </trkpt>
      <trkpt lat="46.32978" lon="6.76874">
        <ele>1549</ele>
        <time>2019-08-14T15:12:53Z</time>
      </trkpt>
      <trkpt lat="46.32977" lon="6.76882">
        <ele>1551</ele>
        <time>2019-08-14T15:13:00Z</time>
      </trkpt>
      <trkpt lat="46.32967" lon="6.76904">
        <ele>1557</ele>
        <time>2019-08-14T15:13:24Z</time>
      </trkpt>
      <trkpt lat="46.32966" lon="6.7691">
        <ele>1559</ele>
        <time>2019-08-14T15:13:30Z</time>
      </trkpt>
      <trkpt lat="46.32966" lon="6.76912">
        <ele>1559</ele>
        <time>2019-08-14T15:13:32Z</time>
      </trkpt>
      <trkpt lat="46.32966" lon="6.76916">
        <ele>1560</ele>
        <time>2019-08-14T15:13:36Z</time>
      </trkpt>
      <trkpt lat="46.32974" lon="6.76937">
        <ele>1562</ele>
        <time>2019-08-14T15:13:58Z</time>
      </trkpt>
      <trkpt lat="46.32974" lon="6.76942">
        <ele>1563</ele>
        <time>2019-08-14T15:14:02Z</time>
      </trkpt>
      <trkpt lat="46.32974" lon="6.76946">
        <ele>1564</ele>
        <time>2019-08-14T15:14:06Z</time>
      </trkpt>
      <trkpt lat="46.32971" lon="6.76948">
        <ele>1565</ele>
        <time>2019-08-14T15:14:10Z</time>
      </trkpt>
      <trkpt lat="46.32966" lon="6.76961">
        <ele>1568</ele>
        <time>2019-08-14T15:14:24Z</time>
      </trkpt>
      <trkpt lat="46.32966" lon="6.7697">
        <ele>1570</ele>
        <time>2019-08-14T15:14:32Z</time>
      </trkpt>
      <trkpt lat="46.32952" lon="6.76995">
        <ele>1577</ele>
        <time>2019-08-14T15:15:02Z</time>
      </trkpt>
      <trkpt lat="46.32952" lon="6.77003">
        <ele>1579</ele>
        <time>2019-08-14T15:15:09Z</time>
      </trkpt>
      <trkpt lat="46.32947" lon="6.77003">
        <ele>1580</ele>
        <time>2019-08-14T15:15:16Z</time>
      </trkpt>
      <trkpt lat="46.32944" lon="6.77029">
        <ele>1587</ele>
        <time>2019-08-14T15:15:40Z</time>
      </trkpt>
      <trkpt lat="46.32944" lon="6.77041">
        <ele>1590</ele>
        <time>2019-08-14T15:15:52Z</time>
      </trkpt>
      <trkpt lat="46.32943" lon="6.77043">
        <ele>1591</ele>
        <time>2019-08-14T15:15:54Z</time>
      </trkpt>
      <trkpt lat="46.32937" lon="6.77044">
        <ele>1592</ele>
        <time>2019-08-14T15:16:02Z</time>
      </trkpt>
      <trkpt lat="46.32937" lon="6.77049">
        <ele>1594</ele>
        <time>2019-08-14T15:16:06Z</time>
      </trkpt>
      <trkpt lat="46.32937" lon="6.77055">
        <ele>1595</ele>
        <time>2019-08-14T15:16:12Z</time>
      </trkpt>
      <trkpt lat="46.32933" lon="6.77055">
        <ele>1596</ele>
        <time>2019-08-14T15:16:17Z</time>
      </trkpt>
      <trkpt lat="46.32928" lon="6.77063">
        <ele>1599</ele>
        <time>2019-08-14T15:16:27Z</time>
      </trkpt>
      <trkpt lat="46.32929" lon="6.77068">
        <ele>1600</ele>
        <time>2019-08-14T15:16:32Z</time>
      </trkpt>
      <trkpt lat="46.32925" lon="6.77071">
        <ele>1601</ele>
        <time>2019-08-14T15:16:38Z</time>
      </trkpt>
      <trkpt lat="46.32924" lon="6.77076">
        <ele>1602</ele>
        <time>2019-08-14T15:16:43Z</time>
      </trkpt>
      <trkpt lat="46.32924" lon="6.77081">
        <ele>1603</ele>
        <time>2019-08-14T15:16:47Z</time>
      </trkpt>
      <trkpt lat="46.32909" lon="6.77081">
        <ele>1607</ele>
        <time>2019-08-14T15:17:07Z</time>
      </trkpt>
      <trkpt lat="46.32904" lon="6.77086">
        <ele>1611</ele>
        <time>2019-08-14T15:17:16Z</time>
      </trkpt>
      <trkpt lat="46.32892" lon="6.77094">
        <ele>1618</ele>
        <time>2019-08-14T15:17:33Z</time>
      </trkpt>
      <trkpt lat="46.32874" lon="6.77118">
        <ele>1632</ele>
        <time>2019-08-14T15:18:06Z</time>
      </trkpt>
      <trkpt lat="46.32856" lon="6.77142">
        <ele>1641</ele>
        <time>2019-08-14T15:18:39Z</time>
      </trkpt>
      <trkpt lat="46.32849" lon="6.77148">
        <ele>1644</ele>
        <time>2019-08-14T15:18:49Z</time>
      </trkpt>
      <trkpt lat="46.32818" lon="6.77172">
        <ele>1654</ele>
        <time>2019-08-14T15:19:36Z</time>
      </trkpt>
      <trkpt lat="46.32786" lon="6.7722">
        <ele>1672</ele>
        <time>2019-08-14T15:20:38Z</time>
      </trkpt>
      <trkpt lat="46.3277" lon="6.7724">
        <ele>1678</ele>
        <time>2019-08-14T15:21:06Z</time>
      </trkpt>
      <trkpt lat="46.32758" lon="6.7726">
        <ele>1685</ele>
        <time>2019-08-14T15:21:30Z</time>
      </trkpt>
      <trkpt lat="46.32754" lon="6.77268">
        <ele>1690</ele>
        <time>2019-08-14T15:21:39Z</time>
      </trkpt>
      <trkpt lat="46.32746" lon="6.77298">
        <ele>1706</ele>
        <time>2019-08-14T15:22:09Z</time>
      </trkpt>
      <trkpt lat="46.32746" lon="6.77319">
        <ele>1715</ele>
        <time>2019-08-14T15:22:28Z</time>
      </trkpt>
      <trkpt lat="46.32748" lon="6.77333">
        <ele>1720</ele>
        <time>2019-08-14T15:22:42Z</time>
      </trkpt>
      <trkpt lat="46.32752" lon="6.77334">
        <ele>1719</ele>
        <time>2019-08-14T15:22:47Z</time>
      </trkpt>
      <trkpt lat="46.32756" lon="6.77348">
        <ele>1724</ele>
        <time>2019-08-14T15:23:01Z</time>
      </trkpt>
      <trkpt lat="46.32756" lon="6.77355">
        <ele>1727</ele>
        <time>2019-08-14T15:23:07Z</time>
      </trkpt>
      <trkpt lat="46.32766" lon="6.77371">
        <ele>1734</ele>
        <time>2019-08-14T15:23:27Z</time>
      </trkpt>
      <trkpt lat="46.32767" lon="6.77376">
        <ele>1736</ele>
        <time>2019-08-14T15:23:32Z</time>
      </trkpt>
      <trkpt lat="46.32767" lon="6.77381">
        <ele>1738</ele>
        <time>2019-08-14T15:23:37Z</time>
      </trkpt>
      <trkpt lat="46.32761" lon="6.77401">
        <ele>1745</ele>
        <time>2019-08-14T15:23:57Z</time>
      </trkpt>
      <trkpt lat="46.32762" lon="6.77405">
        <ele>1747</ele>
        <time>2019-08-14T15:24:01Z</time>
      </trkpt>
      <trkpt lat="46.32778" lon="6.7742">
        <ele>1758</ele>
        <time>2019-08-14T15:24:26Z</time>
      </trkpt>
      <trkpt lat="46.32778" lon="6.77425">
        <ele>1760</ele>
        <time>2019-08-14T15:24:31Z</time>
      </trkpt>
      <trkpt lat="46.32773" lon="6.77444">
        <ele>1767</ele>
        <time>2019-08-14T15:24:50Z</time>
      </trkpt>
      <trkpt lat="46.3277" lon="6.77447">
        <ele>1767</ele>
        <time>2019-08-14T15:24:54Z</time>
      </trkpt>
      <trkpt lat="46.32767" lon="6.7745">
        <ele>1768</ele>
        <time>2019-08-14T15:24:59Z</time>
      </trkpt>
      <trkpt lat="46.32763" lon="6.7745">
        <ele>1766</ele>
        <time>2019-08-14T15:25:05Z</time>
      </trkpt>
      <trkpt lat="46.32747" lon="6.77444">
        <ele>1761</ele>
        <time>2019-08-14T15:25:27Z</time>
      </trkpt>
      <trkpt lat="46.32733" lon="6.77447">
        <ele>1766</ele>
        <time>2019-08-14T15:25:46Z</time>
      </trkpt>
      <trkpt lat="46.32724" lon="6.77455">
        <ele>1771</ele>
        <time>2019-08-14T15:26:00Z</time>
      </trkpt>
      <trkpt lat="46.32717" lon="6.77466">
        <ele>1777</ele>
        <time>2019-08-14T15:26:13Z</time>
      </trkpt>
      <trkpt lat="46.32711" lon="6.77468">
        <ele>1779</ele>
        <time>2019-08-14T15:26:22Z</time>
      </trkpt>
      <trkpt lat="46.32706" lon="6.77467">
        <ele>1780</ele>
        <time>2019-08-14T15:26:28Z</time>
      </trkpt>
      <trkpt lat="46.327" lon="6.77467">
        <ele>1782</ele>
        <time>2019-08-14T15:26:36Z</time>
      </trkpt>
      <trkpt lat="46.32697" lon="6.77471">
        <ele>1784</ele>
        <time>2019-08-14T15:26:42Z</time>
      </trkpt>
      <trkpt lat="46.32693" lon="6.77473">
        <ele>1785</ele>
        <time>2019-08-14T15:26:48Z</time>
      </trkpt>
      <trkpt lat="46.3269" lon="6.77472">
        <ele>1786</ele>
        <time>2019-08-14T15:26:52Z</time>
      </trkpt>
      <trkpt lat="46.32684" lon="6.77467">
        <ele>1786</ele>
        <time>2019-08-14T15:27:01Z</time>
      </trkpt>
      <trkpt lat="46.32687" lon="6.77455">
        <ele>1781</ele>
        <time>2019-08-14T15:27:13Z</time>
      </trkpt>
      <trkpt lat="46.32685" lon="6.77446">
        <ele>1779</ele>
        <time>2019-08-14T15:27:21Z</time>
      </trkpt>
      <trkpt lat="46.32681" lon="6.7744">
        <ele>1778</ele>
        <time>2019-08-14T15:27:29Z</time>
      </trkpt>
      <trkpt lat="46.32678" lon="6.77434">
        <ele>1777</ele>
        <time>2019-08-14T15:27:36Z</time>
      </trkpt>
      <trkpt lat="46.32676" lon="6.77432">
        <ele>1777</ele>
        <time>2019-08-14T15:27:39Z</time>
      </trkpt>
      <trkpt lat="46.32674" lon="6.77432">
        <ele>1778</ele>
        <time>2019-08-14T15:27:42Z</time>
      </trkpt>
      <trkpt lat="46.32666" lon="6.77431">
        <ele>1780</ele>
        <time>2019-08-14T15:27:52Z</time>
      </trkpt>
      <trkpt lat="46.3266" lon="6.77428">
        <ele>1781</ele>
        <time>2019-08-14T15:28:01Z</time>
      </trkpt>
      <trkpt lat="46.32653" lon="6.77422">
        <ele>1782</ele>
        <time>2019-08-14T15:28:12Z</time>
      </trkpt>
      <trkpt lat="46.3265" lon="6.77418">
        <ele>1781</ele>
        <time>2019-08-14T15:28:17Z</time>
      </trkpt>
      <trkpt lat="46.32641" lon="6.77407">
        <ele>1783</ele>
        <time>2019-08-14T15:28:33Z</time>
      </trkpt>
      <trkpt lat="46.32634" lon="6.77396">
        <ele>1784</ele>
        <time>2019-08-14T15:28:47Z</time>
      </trkpt>
      <trkpt lat="46.32632" lon="6.77395">
        <ele>1785</ele>
        <time>2019-08-14T15:28:50Z</time>
      </trkpt>
      <trkpt lat="46.32627" lon="6.77384">
        <ele>1787</ele>
        <time>2019-08-14T15:29:02Z</time>
      </trkpt>
      <trkpt lat="46.32626" lon="6.7738">
        <ele>1787</ele>
        <time>2019-08-14T15:29:06Z</time>
      </trkpt>
      <trkpt lat="46.3262" lon="6.7738">
        <ele>1789</ele>
        <time>2019-08-14T15:29:14Z</time>
      </trkpt>
      <trkpt lat="46.3261" lon="6.77388">
        <ele>1793</ele>
        <time>2019-08-14T15:29:29Z</time>
      </trkpt>
      <trkpt lat="46.32605" lon="6.77394">
        <ele>1795</ele>
        <time>2019-08-14T15:29:38Z</time>
      </trkpt>
      <trkpt lat="46.32599" lon="6.77398">
        <ele>1797</ele>
        <time>2019-08-14T15:29:46Z</time>
      </trkpt>
      <trkpt lat="46.32595" lon="6.774">
        <ele>1798</ele>
        <time>2019-08-14T15:29:52Z</time>
      </trkpt>
      <trkpt lat="46.32591" lon="6.77409">
        <ele>1799</ele>
        <time>2019-08-14T15:30:02Z</time>
      </trkpt>
      <trkpt lat="46.32589" lon="6.77414">
        <ele>1800</ele>
        <time>2019-08-14T15:30:07Z</time>
      </trkpt>
      <trkpt lat="46.32581" lon="6.77421">
        <ele>1803</ele>
        <time>2019-08-14T15:30:20Z</time>
      </trkpt>
      <trkpt lat="46.32575" lon="6.77427">
        <ele>1805</ele>
        <time>2019-08-14T15:30:29Z</time>
      </trkpt>
      <trkpt lat="46.32577" lon="6.77431">
        <ele>1806</ele>
        <time>2019-08-14T15:30:34Z</time>
      </trkpt>
      <trkpt lat="46.3258" lon="6.77433">
        <ele>1806</ele>
        <time>2019-08-14T15:30:38Z</time>
      </trkpt>
      <trkpt lat="46.32575" lon="6.77434">
        <ele>1807</ele>
        <time>2019-08-14T15:30:45Z</time>
      </trkpt>
      <trkpt lat="46.32571" lon="6.77435">
        <ele>1807</ele>
        <time>2019-08-14T15:30:50Z</time>
      </trkpt>
      <trkpt lat="46.32567" lon="6.7744">
        <ele>1809</ele>
        <time>2019-08-14T15:30:58Z</time>
      </trkpt>
      <trkpt lat="46.32562" lon="6.77443">
        <ele>1809</ele>
        <time>2019-08-14T15:31:05Z</time>
      </trkpt>
      <trkpt lat="46.32558" lon="6.77448">
        <ele>1810</ele>
        <time>2019-08-14T15:31:12Z</time>
      </trkpt>
      <trkpt lat="46.32556" lon="6.77446">
        <ele>1810</ele>
        <time>2019-08-14T15:31:15Z</time>
      </trkpt>
      <trkpt lat="46.32554" lon="6.77443">
        <ele>1810</ele>
        <time>2019-08-14T15:31:19Z</time>
      </trkpt>
      <trkpt lat="46.3255" lon="6.77443">
        <ele>1810</ele>
        <time>2019-08-14T15:31:24Z</time>
      </trkpt>
      <trkpt lat="46.32548" lon="6.77442">
        <ele>1810</ele>
        <time>2019-08-14T15:31:27Z</time>
      </trkpt>
      <trkpt lat="46.32536" lon="6.77443">
        <ele>1811</ele>
        <time>2019-08-14T15:31:43Z</time>
      </trkpt>
      <trkpt lat="46.32527" lon="6.77442">
        <ele>1811</ele>
        <time>2019-08-14T15:31:55Z</time>
      </trkpt>
      <trkpt lat="46.32524" lon="6.77445">
        <ele>1811</ele>
        <time>2019-08-14T15:32:00Z</time>
      </trkpt>
      <trkpt lat="46.3252" lon="6.77444">
        <ele>1811</ele>
        <time>2019-08-14T15:32:05Z</time>
      </trkpt>
      <trkpt lat="46.3251" lon="6.77452">
        <ele>1811</ele>
        <time>2019-08-14T15:32:21Z</time>
      </trkpt>
      <trkpt lat="46.32504" lon="6.77453">
        <ele>1811</ele>
        <time>2019-08-14T15:32:29Z</time>
      </trkpt>
      <trkpt lat="46.32497" lon="6.77452">
        <ele>1811</ele>
        <time>2019-08-14T15:32:38Z</time>
      </trkpt>
      <trkpt lat="46.32493" lon="6.77455">
        <ele>1810</ele>
        <time>2019-08-14T15:32:44Z</time>
      </trkpt>
      <trkpt lat="46.32486" lon="6.77457">
        <ele>1809</ele>
        <time>2019-08-14T15:32:54Z</time>
      </trkpt>
      <trkpt lat="46.32477" lon="6.77459">
        <ele>1808</ele>
        <time>2019-08-14T15:33:06Z</time>
      </trkpt>
      <trkpt lat="46.32468" lon="6.77464">
        <ele>1806</ele>
        <time>2019-08-14T15:33:19Z</time>
      </trkpt>
      <trkpt lat="46.32464" lon="6.77461">
        <ele>1806</ele>
        <time>2019-08-14T15:33:25Z</time>
      </trkpt>
      <trkpt lat="46.32454" lon="6.77469">
        <ele>1803</ele>
        <time>2019-08-14T15:33:40Z</time>
      </trkpt>
      <trkpt lat="46.32451" lon="6.77467">
        <ele>1803</ele>
        <time>2019-08-14T15:33:44Z</time>
      </trkpt>
      <trkpt lat="46.3244" lon="6.77475">
        <ele>1799</ele>
        <time>2019-08-14T15:34:01Z</time>
      </trkpt>
      <trkpt lat="46.32432" lon="6.77476">
        <ele>1798</ele>
        <time>2019-08-14T15:34:11Z</time>
      </trkpt>
      <trkpt lat="46.32424" lon="6.77483">
        <ele>1794</ele>
        <time>2019-08-14T15:34:24Z</time>
      </trkpt>
      <trkpt lat="46.32415" lon="6.77482">
        <ele>1793</ele>
        <time>2019-08-14T15:34:36Z</time>
      </trkpt>
      <trkpt lat="46.32393" lon="6.7749">
        <ele>1792</ele>
        <time>2019-08-14T15:35:06Z</time>
      </trkpt>
      <trkpt lat="46.32384" lon="6.77494">
        <ele>1791</ele>
        <time>2019-08-14T15:35:19Z</time>
      </trkpt>
      <trkpt lat="46.32379" lon="6.77498">
        <ele>1790</ele>
        <time>2019-08-14T15:35:26Z</time>
      </trkpt>
      <trkpt lat="46.32374" lon="6.77495">
        <ele>1791</ele>
        <time>2019-08-14T15:35:34Z</time>
      </trkpt>
      <trkpt lat="46.3237" lon="6.775">
        <ele>1790</ele>
        <time>2019-08-14T15:35:41Z</time>
      </trkpt>
      <trkpt lat="46.32357" lon="6.77513">
        <ele>1787</ele>
        <time>2019-08-14T15:36:02Z</time>
      </trkpt>
      <trkpt lat="46.32353" lon="6.77514">
        <ele>1786</ele>
        <time>2019-08-14T15:36:07Z</time>
      </trkpt>
      <trkpt lat="46.3235" lon="6.77518">
        <ele>1785</ele>
        <time>2019-08-14T15:36:13Z</time>
      </trkpt>
      <trkpt lat="46.32343" lon="6.77521">
        <ele>1784</ele>
        <time>2019-08-14T15:36:22Z</time>
      </trkpt>
      <trkpt lat="46.32334" lon="6.77527">
        <ele>1782</ele>
        <time>2019-08-14T15:36:36Z</time>
      </trkpt>
      <trkpt lat="46.32326" lon="6.77532">
        <ele>1778</ele>
        <time>2019-08-14T15:36:47Z</time>
      </trkpt>
      <trkpt lat="46.32319" lon="6.77541">
        <ele>1773</ele>
        <time>2019-08-14T15:37:00Z</time>
      </trkpt>
      <trkpt lat="46.3231" lon="6.77548">
        <ele>1769</ele>
        <time>2019-08-14T15:37:13Z</time>
      </trkpt>
      <trkpt lat="46.323" lon="6.77554">
        <ele>1765</ele>
        <time>2019-08-14T15:37:28Z</time>
      </trkpt>
      <trkpt lat="46.32298" lon="6.77558">
        <ele>1763</ele>
        <time>2019-08-14T15:37:32Z</time>
      </trkpt>
      <trkpt lat="46.32301" lon="6.77563">
        <ele>1762</ele>
        <time>2019-08-14T15:37:38Z</time>
      </trkpt>
      <trkpt lat="46.32298" lon="6.77574">
        <ele>1757</ele>
        <time>2019-08-14T15:37:49Z</time>
      </trkpt>
      <trkpt lat="46.32291" lon="6.77583">
        <ele>1753</ele>
        <time>2019-08-14T15:38:02Z</time>
      </trkpt>
      <trkpt lat="46.32266" lon="6.77604">
        <ele>1747</ele>
        <time>2019-08-14T15:38:40Z</time>
      </trkpt>
      <trkpt lat="46.3226" lon="6.77607">
        <ele>1746</ele>
        <time>2019-08-14T15:38:49Z</time>
      </trkpt>
      <trkpt lat="46.32247" lon="6.77604">
        <ele>1744</ele>
        <time>2019-08-14T15:39:06Z</time>
      </trkpt>
      <trkpt lat="46.32242" lon="6.77604">
        <ele>1742</ele>
        <time>2019-08-14T15:39:13Z</time>
      </trkpt>
      <trkpt lat="46.3224" lon="6.77609">
        <ele>1740</ele>
        <time>2019-08-14T15:39:18Z</time>
      </trkpt>
      <trkpt lat="46.32236" lon="6.77608">
        <ele>1739</ele>
        <time>2019-08-14T15:39:24Z</time>
      </trkpt>
      <trkpt lat="46.32232" lon="6.77613">
        <ele>1736</ele>
        <time>2019-08-14T15:39:31Z</time>
      </trkpt>
      <trkpt lat="46.32235" lon="6.77619">
        <ele>1736</ele>
        <time>2019-08-14T15:39:38Z</time>
      </trkpt>
      <trkpt lat="46.32237" lon="6.77627">
        <ele>1736</ele>
        <time>2019-08-14T15:39:46Z</time>
      </trkpt>
      <trkpt lat="46.3224" lon="6.77633">
        <ele>1736</ele>
        <time>2019-08-14T15:39:52Z</time>
      </trkpt>
      <trkpt lat="46.32238" lon="6.77641">
        <ele>1734</ele>
        <time>2019-08-14T15:40:00Z</time>
      </trkpt>
      <trkpt lat="46.32229" lon="6.7765">
        <ele>1729</ele>
        <time>2019-08-14T15:40:15Z</time>
      </trkpt>
      <trkpt lat="46.3221" lon="6.77681">
        <ele>1717</ele>
        <time>2019-08-14T15:40:53Z</time>
      </trkpt>
      <trkpt lat="46.32203" lon="6.77687">
        <ele>1713</ele>
        <time>2019-08-14T15:41:04Z</time>
      </trkpt>
      <trkpt lat="46.32199" lon="6.77686">
        <ele>1711</ele>
        <time>2019-08-14T15:41:09Z</time>
      </trkpt>
      <trkpt lat="46.32193" lon="6.77692">
        <ele>1708</ele>
        <time>2019-08-14T15:41:19Z</time>
      </trkpt>
      <trkpt lat="46.3219" lon="6.77697">
        <ele>1707</ele>
        <time>2019-08-14T15:41:25Z</time>
      </trkpt>
      <trkpt lat="46.32189" lon="6.77703">
        <ele>1706</ele>
        <time>2019-08-14T15:41:31Z</time>
      </trkpt>
      <trkpt lat="46.32189" lon="6.77709">
        <ele>1706</ele>
        <time>2019-08-14T15:41:36Z</time>
      </trkpt>
      <trkpt lat="46.32191" lon="6.77716">
        <ele>1706</ele>
        <time>2019-08-14T15:41:43Z</time>
      </trkpt>
      <trkpt lat="46.32196" lon="6.77727">
        <ele>1708</ele>
        <time>2019-08-14T15:41:56Z</time>
      </trkpt>
      <trkpt lat="46.32192" lon="6.77727">
        <ele>1706</ele>
        <time>2019-08-14T15:42:01Z</time>
      </trkpt>
      <trkpt lat="46.32188" lon="6.7773">
        <ele>1704</ele>
        <time>2019-08-14T15:42:07Z</time>
      </trkpt>
      <trkpt lat="46.32191" lon="6.77733">
        <ele>1705</ele>
        <time>2019-08-14T15:42:12Z</time>
      </trkpt>
      <trkpt lat="46.3219" lon="6.77742">
        <ele>1704</ele>
        <time>2019-08-14T15:42:20Z</time>
      </trkpt>
      <trkpt lat="46.3219" lon="6.77755">
        <ele>1704</ele>
        <time>2019-08-14T15:42:32Z</time>
      </trkpt>
      <trkpt lat="46.32188" lon="6.77758">
        <ele>1703</ele>
        <time>2019-08-14T15:42:36Z</time>
      </trkpt>
      <trkpt lat="46.32187" lon="6.77766">
        <ele>1702</ele>
        <time>2019-08-14T15:42:43Z</time>
      </trkpt>
      <trkpt lat="46.32189" lon="6.77771">
        <ele>1703</ele>
        <time>2019-08-14T15:42:49Z</time>
      </trkpt>
      <trkpt lat="46.32185" lon="6.77773">
        <ele>1701</ele>
        <time>2019-08-14T15:42:54Z</time>
      </trkpt>
      <trkpt lat="46.32183" lon="6.77776">
        <ele>1700</ele>
        <time>2019-08-14T15:42:58Z</time>
      </trkpt>
      <trkpt lat="46.32176" lon="6.77792">
        <ele>1696</ele>
        <time>2019-08-14T15:43:16Z</time>
      </trkpt>
      <trkpt lat="46.32172" lon="6.77795">
        <ele>1693</ele>
        <time>2019-08-14T15:43:22Z</time>
      </trkpt>
      <trkpt lat="46.32169" lon="6.77782">
        <ele>1692</ele>
        <time>2019-08-14T15:43:34Z</time>
      </trkpt>
      <trkpt lat="46.32168" lon="6.77775">
        <ele>1692</ele>
        <time>2019-08-14T15:43:41Z</time>
      </trkpt>
      <trkpt lat="46.32164" lon="6.77771">
        <ele>1690</ele>
        <time>2019-08-14T15:43:47Z</time>
      </trkpt>
      <trkpt lat="46.3216" lon="6.77764">
        <ele>1688</ele>
        <time>2019-08-14T15:43:56Z</time>
      </trkpt>
      <trkpt lat="46.32157" lon="6.77775">
        <ele>1686</ele>
        <time>2019-08-14T15:44:07Z</time>
      </trkpt>
      <trkpt lat="46.32156" lon="6.77782">
        <ele>1685</ele>
        <time>2019-08-14T15:44:13Z</time>
      </trkpt>
      <trkpt lat="46.32154" lon="6.77784">
        <ele>1684</ele>
        <time>2019-08-14T15:44:17Z</time>
      </trkpt>
      <trkpt lat="46.32152" lon="6.7778">
        <ele>1683</ele>
        <time>2019-08-14T15:44:21Z</time>
      </trkpt>
      <trkpt lat="46.32143" lon="6.77793">
        <ele>1678</ele>
        <time>2019-08-14T15:44:38Z</time>
      </trkpt>
      <trkpt lat="46.32142" lon="6.77799">
        <ele>1677</ele>
        <time>2019-08-14T15:44:44Z</time>
      </trkpt>
      <trkpt lat="46.32138" lon="6.77804">
        <ele>1674</ele>
        <time>2019-08-14T15:44:51Z</time>
      </trkpt>
      <trkpt lat="46.32138" lon="6.77809">
        <ele>1674</ele>
        <time>2019-08-14T15:44:55Z</time>
      </trkpt>
      <trkpt lat="46.32138" lon="6.77815">
        <ele>1674</ele>
        <time>2019-08-14T15:45:01Z</time>
      </trkpt>
      <trkpt lat="46.32134" lon="6.77817">
        <ele>1671</ele>
        <time>2019-08-14T15:45:07Z</time>
      </trkpt>
      <trkpt lat="46.32124" lon="6.77833">
        <ele>1664</ele>
        <time>2019-08-14T15:45:26Z</time>
      </trkpt>
      <trkpt lat="46.32123" lon="6.77844">
        <ele>1664</ele>
        <time>2019-08-14T15:45:37Z</time>
      </trkpt>
      <trkpt lat="46.32118" lon="6.77845">
        <ele>1661</ele>
        <time>2019-08-14T15:45:43Z</time>
      </trkpt>
      <trkpt lat="46.3211" lon="6.77858">
        <ele>1657</ele>
        <time>2019-08-14T15:45:59Z</time>
      </trkpt>
      <trkpt lat="46.3211" lon="6.77863">
        <ele>1657</ele>
        <time>2019-08-14T15:46:04Z</time>
      </trkpt>
      <trkpt lat="46.32107" lon="6.7787">
        <ele>1656</ele>
        <time>2019-08-14T15:46:12Z</time>
      </trkpt>
      <trkpt lat="46.32103" lon="6.77871">
        <ele>1654</ele>
        <time>2019-08-14T15:46:17Z</time>
      </trkpt>
      <trkpt lat="46.32092" lon="6.77891">
        <ele>1648</ele>
        <time>2019-08-14T15:46:41Z</time>
      </trkpt>
      <trkpt lat="46.32087" lon="6.77894">
        <ele>1645</ele>
        <time>2019-08-14T15:46:48Z</time>
      </trkpt>
      <trkpt lat="46.32086" lon="6.77902">
        <ele>1645</ele>
        <time>2019-08-14T15:46:55Z</time>
      </trkpt>
      <trkpt lat="46.32075" lon="6.77916">
        <ele>1641</ele>
        <time>2019-08-14T15:47:15Z</time>
      </trkpt>
      <trkpt lat="46.32069" lon="6.77922">
        <ele>1640</ele>
        <time>2019-08-14T15:47:25Z</time>
      </trkpt>
      <trkpt lat="46.32065" lon="6.77923">
        <ele>1639</ele>
        <time>2019-08-14T15:47:30Z</time>
      </trkpt>
      <trkpt lat="46.32056" lon="6.77919">
        <ele>1635</ele>
        <time>2019-08-14T15:47:43Z</time>
      </trkpt>
      <trkpt lat="46.3205" lon="6.77918">
        <ele>1633</ele>
        <time>2019-08-14T15:47:51Z</time>
      </trkpt>
      <trkpt lat="46.32045" lon="6.77922">
        <ele>1632</ele>
        <time>2019-08-14T15:47:58Z</time>
      </trkpt>
      <trkpt lat="46.32038" lon="6.77922">
        <ele>1630</ele>
        <time>2019-08-14T15:48:08Z</time>
      </trkpt>
      <trkpt lat="46.32016" lon="6.77944">
        <ele>1623</ele>
        <time>2019-08-14T15:48:43Z</time>
      </trkpt>
      <trkpt lat="46.32008" lon="6.77947">
        <ele>1620</ele>
        <time>2019-08-14T15:48:54Z</time>
      </trkpt>
      <trkpt lat="46.32001" lon="6.77952">
        <ele>1618</ele>
        <time>2019-08-14T15:49:05Z</time>
      </trkpt>
      <trkpt lat="46.31995" lon="6.77958">
        <ele>1616</ele>
        <time>2019-08-14T15:49:15Z</time>
      </trkpt>
      <trkpt lat="46.31993" lon="6.77955">
        <ele>1616</ele>
        <time>2019-08-14T15:49:18Z</time>
      </trkpt>
      <trkpt lat="46.31989" lon="6.77957">
        <ele>1615</ele>
        <time>2019-08-14T15:49:24Z</time>
      </trkpt>
      <trkpt lat="46.3199" lon="6.77969">
        <ele>1615</ele>
        <time>2019-08-14T15:49:35Z</time>
      </trkpt>
      <trkpt lat="46.31982" lon="6.77965">
        <ele>1613</ele>
        <time>2019-08-14T15:49:46Z</time>
      </trkpt>
      <trkpt lat="46.31974" lon="6.77965">
        <ele>1610</ele>
        <time>2019-08-14T15:49:57Z</time>
      </trkpt>
      <trkpt lat="46.31965" lon="6.77967">
        <ele>1608</ele>
        <time>2019-08-14T15:50:09Z</time>
      </trkpt>
      <trkpt lat="46.31958" lon="6.77971">
        <ele>1606</ele>
        <time>2019-08-14T15:50:19Z</time>
      </trkpt>
      <trkpt lat="46.31959" lon="6.77978">
        <ele>1605</ele>
        <time>2019-08-14T15:50:26Z</time>
      </trkpt>
      <trkpt lat="46.31956" lon="6.77982">
        <ele>1604</ele>
        <time>2019-08-14T15:50:31Z</time>
      </trkpt>
      <trkpt lat="46.31955" lon="6.77987">
        <ele>1603</ele>
        <time>2019-08-14T15:50:36Z</time>
      </trkpt>
      <trkpt lat="46.31954" lon="6.77994">
        <ele>1603</ele>
        <time>2019-08-14T15:50:43Z</time>
      </trkpt>
      <trkpt lat="46.31951" lon="6.78001">
        <ele>1601</ele>
        <time>2019-08-14T15:50:50Z</time>
      </trkpt>
      <trkpt lat="46.31945" lon="6.78022">
        <ele>1598</ele>
        <time>2019-08-14T15:51:11Z</time>
      </trkpt>
      <trkpt lat="46.31935" lon="6.78034">
        <ele>1594</ele>
        <time>2019-08-14T15:51:29Z</time>
      </trkpt>
      <trkpt lat="46.31931" lon="6.78047">
        <ele>1591</ele>
        <time>2019-08-14T15:51:42Z</time>
      </trkpt>
      <trkpt lat="46.31912" lon="6.78063">
        <ele>1582</ele>
        <time>2019-08-14T15:52:11Z</time>
      </trkpt>
      <trkpt lat="46.31905" lon="6.7807">
        <ele>1579</ele>
        <time>2019-08-14T15:52:22Z</time>
      </trkpt>
      <trkpt lat="46.31902" lon="6.78071">
        <ele>1579</ele>
        <time>2019-08-14T15:52:26Z</time>
      </trkpt>
      <trkpt lat="46.31897" lon="6.78075">
        <ele>1577</ele>
        <time>2019-08-14T15:52:34Z</time>
      </trkpt>
      <trkpt lat="46.3189" lon="6.78081">
        <ele>1574</ele>
        <time>2019-08-14T15:52:45Z</time>
      </trkpt>
      <trkpt lat="46.31885" lon="6.78088">
        <ele>1573</ele>
        <time>2019-08-14T15:52:54Z</time>
      </trkpt>
      <trkpt lat="46.3188" lon="6.78091">
        <ele>1572</ele>
        <time>2019-08-14T15:53:01Z</time>
      </trkpt>
      <trkpt lat="46.31875" lon="6.78102">
        <ele>1571</ele>
        <time>2019-08-14T15:53:14Z</time>
      </trkpt>
      <trkpt lat="46.31871" lon="6.78106">
        <ele>1569</ele>
        <time>2019-08-14T15:53:20Z</time>
      </trkpt>
      <trkpt lat="46.31856" lon="6.78117">
        <ele>1564</ele>
        <time>2019-08-14T15:53:43Z</time>
      </trkpt>
      <trkpt lat="46.31851" lon="6.78115">
        <ele>1563</ele>
        <time>2019-08-14T15:53:49Z</time>
      </trkpt>
      <trkpt lat="46.31833" lon="6.78128">
        <ele>1555</ele>
        <time>2019-08-14T15:54:16Z</time>
      </trkpt>
      <trkpt lat="46.31823" lon="6.78131">
        <ele>1551</ele>
        <time>2019-08-14T15:54:30Z</time>
      </trkpt>
      <trkpt lat="46.31809" lon="6.7814">
        <ele>1545</ele>
        <time>2019-08-14T15:54:50Z</time>
      </trkpt>
      <trkpt lat="46.31803" lon="6.78145">
        <ele>1542</ele>
        <time>2019-08-14T15:55:00Z</time>
      </trkpt>
      <trkpt lat="46.31778" lon="6.78177">
        <ele>1524</ele>
        <time>2019-08-14T15:55:44Z</time>
      </trkpt>
      <trkpt lat="46.31754" lon="6.78209">
        <ele>1508</ele>
        <time>2019-08-14T15:56:28Z</time>
      </trkpt>
      <trkpt lat="46.3175" lon="6.78216">
        <ele>1505</ele>
        <time>2019-08-14T15:56:36Z</time>
      </trkpt>
      <trkpt lat="46.31746" lon="6.78226">
        <ele>1502</ele>
        <time>2019-08-14T15:56:47Z</time>
      </trkpt>
      <trkpt lat="46.31735" lon="6.78276">
        <ele>1494</ele>
        <time>2019-08-14T15:57:35Z</time>
      </trkpt>
      <trkpt lat="46.31736" lon="6.78281">
        <ele>1494</ele>
        <time>2019-08-14T15:57:40Z</time>
      </trkpt>
      <trkpt lat="46.31734" lon="6.78286">
        <ele>1493</ele>
        <time>2019-08-14T15:57:45Z</time>
      </trkpt>
      <trkpt lat="46.31731" lon="6.78305">
        <ele>1492</ele>
        <time>2019-08-14T15:58:03Z</time>
      </trkpt>
      <trkpt lat="46.3173" lon="6.78311">
        <ele>1491</ele>
        <time>2019-08-14T15:58:09Z</time>
      </trkpt>
      <trkpt lat="46.31727" lon="6.78318">
        <ele>1490</ele>
        <time>2019-08-14T15:58:16Z</time>
      </trkpt>
      <trkpt lat="46.31724" lon="6.78321">
        <ele>1489</ele>
        <time>2019-08-14T15:58:21Z</time>
      </trkpt>
      <trkpt lat="46.31723" lon="6.78326">
        <ele>1488</ele>
        <time>2019-08-14T15:58:26Z</time>
      </trkpt>
      <trkpt lat="46.31715" lon="6.78331">
        <ele>1484</ele>
        <time>2019-08-14T15:58:38Z</time>
      </trkpt>
      <trkpt lat="46.31707" lon="6.7833">
        <ele>1480</ele>
        <time>2019-08-14T15:58:48Z</time>
      </trkpt>
      <trkpt lat="46.31702" lon="6.78331">
        <ele>1478</ele>
        <time>2019-08-14T15:58:55Z</time>
      </trkpt>
      <trkpt lat="46.31696" lon="6.78334">
        <ele>1475</ele>
        <time>2019-08-14T15:59:04Z</time>
      </trkpt>
      <trkpt lat="46.31686" lon="6.78333">
        <ele>1470</ele>
        <time>2019-08-14T15:59:17Z</time>
      </trkpt>
      <trkpt lat="46.3168" lon="6.78333">
        <ele>1467</ele>
        <time>2019-08-14T15:59:25Z</time>
      </trkpt>
      <trkpt lat="46.31674" lon="6.78339">
        <ele>1464</ele>
        <time>2019-08-14T15:59:35Z</time>
      </trkpt>
      <trkpt lat="46.31664" lon="6.78346">
        <ele>1459</ele>
        <time>2019-08-14T15:59:50Z</time>
      </trkpt>
      <trkpt lat="46.31656" lon="6.7835">
        <ele>1456</ele>
        <time>2019-08-14T16:00:01Z</time>
      </trkpt>
      <trkpt lat="46.31616" lon="6.78363">
        <ele>1439</ele>
        <time>2019-08-14T16:00:56Z</time>
      </trkpt>
      <trkpt lat="46.3161" lon="6.78365">
        <ele>1437</ele>
        <time>2019-08-14T16:01:04Z</time>
      </trkpt>
      <trkpt lat="46.31605" lon="6.78369">
        <ele>1435</ele>
        <time>2019-08-14T16:01:11Z</time>
      </trkpt>
      <trkpt lat="46.31603" lon="6.78373">
        <ele>1435</ele>
        <time>2019-08-14T16:01:16Z</time>
      </trkpt>
      <trkpt lat="46.31601" lon="6.78374">
        <ele>1434</ele>
        <time>2019-08-14T16:01:19Z</time>
      </trkpt>
      <trkpt lat="46.31588" lon="6.78375">
        <ele>1429</ele>
        <time>2019-08-14T16:01:36Z</time>
      </trkpt>
      <trkpt lat="46.3158" lon="6.78379">
        <ele>1426</ele>
        <time>2019-08-14T16:01:47Z</time>
      </trkpt>
      <trkpt lat="46.31575" lon="6.78381">
        <ele>1424</ele>
        <time>2019-08-14T16:01:54Z</time>
      </trkpt>
      <trkpt lat="46.31569" lon="6.7839">
        <ele>1422</ele>
        <time>2019-08-14T16:02:06Z</time>
      </trkpt>
      <trkpt lat="46.31566" lon="6.7839">
        <ele>1420</ele>
        <time>2019-08-14T16:02:10Z</time>
      </trkpt>
      <trkpt lat="46.31562" lon="6.78393">
        <ele>1419</ele>
        <time>2019-08-14T16:02:16Z</time>
      </trkpt>
      <trkpt lat="46.31556" lon="6.78405">
        <ele>1417</ele>
        <time>2019-08-14T16:02:30Z</time>
      </trkpt>
      <trkpt lat="46.31552" lon="6.78417">
        <ele>1416</ele>
        <time>2019-08-14T16:02:42Z</time>
      </trkpt>
      <trkpt lat="46.31548" lon="6.78424">
        <ele>1413</ele>
        <time>2019-08-14T16:02:50Z</time>
      </trkpt>
      <trkpt lat="46.31547" lon="6.78429">
        <ele>1412</ele>
        <time>2019-08-14T16:02:55Z</time>
      </trkpt>
      <trkpt lat="46.31542" lon="6.78438">
        <ele>1409</ele>
        <time>2019-08-14T16:03:06Z</time>
      </trkpt>
      <trkpt lat="46.31541" lon="6.78434">
        <ele>1409</ele>
        <time>2019-08-14T16:03:10Z</time>
      </trkpt>
      <trkpt lat="46.31533" lon="6.78424">
        <ele>1406</ele>
        <time>2019-08-14T16:03:24Z</time>
      </trkpt>
      <trkpt lat="46.3153" lon="6.78419">
        <ele>1405</ele>
        <time>2019-08-14T16:03:30Z</time>
      </trkpt>
      <trkpt lat="46.31527" lon="6.78425">
        <ele>1403</ele>
        <time>2019-08-14T16:03:37Z</time>
      </trkpt>
      <trkpt lat="46.31526" lon="6.78432">
        <ele>1402</ele>
        <time>2019-08-14T16:03:43Z</time>
      </trkpt>
      <trkpt lat="46.3152" lon="6.78456">
        <ele>1398</ele>
        <time>2019-08-14T16:04:07Z</time>
      </trkpt>
      <trkpt lat="46.31507" lon="6.78443">
        <ele>1393</ele>
        <time>2019-08-14T16:04:28Z</time>
      </trkpt>
      <trkpt lat="46.31509" lon="6.78458">
        <ele>1393</ele>
        <time>2019-08-14T16:04:42Z</time>
      </trkpt>
      <trkpt lat="46.31503" lon="6.78461">
        <ele>1391</ele>
        <time>2019-08-14T16:04:50Z</time>
      </trkpt>
      <trkpt lat="46.31482" lon="6.78438">
        <ele>1379</ele>
        <time>2019-08-14T16:05:26Z</time>
      </trkpt>
      <trkpt lat="46.3148" lon="6.78455">
        <ele>1378</ele>
        <time>2019-08-14T16:05:41Z</time>
      </trkpt>
      <trkpt lat="46.31464" lon="6.78442">
        <ele>1369</ele>
        <time>2019-08-14T16:06:06Z</time>
      </trkpt>
      <trkpt lat="46.31459" lon="6.78442">
        <ele>1366</ele>
        <time>2019-08-14T16:06:13Z</time>
      </trkpt>
      <trkpt lat="46.31456" lon="6.78443">
        <ele>1364</ele>
        <time>2019-08-14T16:06:17Z</time>
      </trkpt>
      <trkpt lat="46.31453" lon="6.78449">
        <ele>1362</ele>
        <time>2019-08-14T16:06:24Z</time>
      </trkpt>
      <trkpt lat="46.31451" lon="6.78457">
        <ele>1361</ele>
        <time>2019-08-14T16:06:31Z</time>
      </trkpt>
      <trkpt lat="46.31451" lon="6.78465">
        <ele>1361</ele>
        <time>2019-08-14T16:06:39Z</time>
      </trkpt>
      <trkpt lat="46.31454" lon="6.78481">
        <ele>1362</ele>
        <time>2019-08-14T16:06:54Z</time>
      </trkpt>
      <trkpt lat="46.31455" lon="6.78491">
        <ele>1363</ele>
        <time>2019-08-14T16:07:03Z</time>
      </trkpt>
      <trkpt lat="46.31455" lon="6.78501">
        <ele>1362</ele>
        <time>2019-08-14T16:07:13Z</time>
      </trkpt>
      <trkpt lat="46.31451" lon="6.78508">
        <ele>1358</ele>
        <time>2019-08-14T16:07:21Z</time>
      </trkpt>
      <trkpt lat="46.31452" lon="6.78516">
        <ele>1356</ele>
        <time>2019-08-14T16:07:28Z</time>
      </trkpt>
      <trkpt lat="46.31449" lon="6.78522">
        <ele>1353</ele>
        <time>2019-08-14T16:07:35Z</time>
      </trkpt>
      <trkpt lat="46.31447" lon="6.7853">
        <ele>1350</ele>
        <time>2019-08-14T16:07:43Z</time>
      </trkpt>
      <trkpt lat="46.31448" lon="6.78537">
        <ele>1348</ele>
        <time>2019-08-14T16:07:50Z</time>
      </trkpt>
      <trkpt lat="46.31447" lon="6.78543">
        <ele>1346</ele>
        <time>2019-08-14T16:07:55Z</time>
      </trkpt>
      <trkpt lat="46.31444" lon="6.78541">
        <ele>1345</ele>
        <time>2019-08-14T16:08:00Z</time>
      </trkpt>
      <trkpt lat="46.31439" lon="6.78537">
        <ele>1344</ele>
        <time>2019-08-14T16:08:07Z</time>
      </trkpt>
      <trkpt lat="46.3144" lon="6.78532">
        <ele>1346</ele>
        <time>2019-08-14T16:08:12Z</time>
      </trkpt>
      <trkpt lat="46.31435" lon="6.78524">
        <ele>1345</ele>
        <time>2019-08-14T16:08:22Z</time>
      </trkpt>
      <trkpt lat="46.31433" lon="6.78518">
        <ele>1346</ele>
        <time>2019-08-14T16:08:28Z</time>
      </trkpt>
      <trkpt lat="46.31429" lon="6.78517">
        <ele>1344</ele>
        <time>2019-08-14T16:08:34Z</time>
      </trkpt>
      <trkpt lat="46.31428" lon="6.7852">
        <ele>1342</ele>
        <time>2019-08-14T16:08:37Z</time>
      </trkpt>
      <trkpt lat="46.3143" lon="6.78524">
        <ele>1343</ele>
        <time>2019-08-14T16:08:41Z</time>
      </trkpt>
      <trkpt lat="46.31427" lon="6.78528">
        <ele>1340</ele>
        <time>2019-08-14T16:08:47Z</time>
      </trkpt>
      <trkpt lat="46.31418" lon="6.78522">
        <ele>1337</ele>
        <time>2019-08-14T16:09:00Z</time>
      </trkpt>
      <trkpt lat="46.31415" lon="6.78538">
        <ele>1332</ele>
        <time>2019-08-14T16:09:15Z</time>
      </trkpt>
      <trkpt lat="46.31404" lon="6.78534">
        <ele>1328</ele>
        <time>2019-08-14T16:09:30Z</time>
      </trkpt>
      <trkpt lat="46.31393" lon="6.78543">
        <ele>1321</ele>
        <time>2019-08-14T16:09:47Z</time>
      </trkpt>
      <trkpt lat="46.31379" lon="6.78531">
        <ele>1316</ele>
        <time>2019-08-14T16:10:09Z</time>
      </trkpt>
      <trkpt lat="46.31367" lon="6.78527">
        <ele>1310</ele>
        <time>2019-08-14T16:10:25Z</time>
      </trkpt>
      <trkpt lat="46.31362" lon="6.78528">
        <ele>1307</ele>
        <time>2019-08-14T16:10:32Z</time>
      </trkpt>
      <trkpt lat="46.31358" lon="6.78531">
        <ele>1305</ele>
        <time>2019-08-14T16:10:38Z</time>
      </trkpt>
      <trkpt lat="46.31358" lon="6.78535">
        <ele>1305</ele>
        <time>2019-08-14T16:10:42Z</time>
      </trkpt>
      <trkpt lat="46.3136" lon="6.78544">
        <ele>1306</ele>
        <time>2019-08-14T16:10:51Z</time>
      </trkpt>
      <trkpt lat="46.31364" lon="6.78565">
        <ele>1306</ele>
        <time>2019-08-14T16:11:11Z</time>
      </trkpt>
      <trkpt lat="46.31359" lon="6.78564">
        <ele>1304</ele>
        <time>2019-08-14T16:11:17Z</time>
      </trkpt>
      <trkpt lat="46.31355" lon="6.78576">
        <ele>1302</ele>
        <time>2019-08-14T16:11:30Z</time>
      </trkpt>
      <trkpt lat="46.3134" lon="6.7857">
        <ele>1296</ele>
        <time>2019-08-14T16:11:50Z</time>
      </trkpt>
      <trkpt lat="46.31335" lon="6.78567">
        <ele>1294</ele>
        <time>2019-08-14T16:11:58Z</time>
      </trkpt>
      <trkpt lat="46.3133" lon="6.78562">
        <ele>1292</ele>
        <time>2019-08-14T16:12:06Z</time>
      </trkpt>
      <trkpt lat="46.31325" lon="6.78561">
        <ele>1291</ele>
        <time>2019-08-14T16:12:12Z</time>
      </trkpt>
      <trkpt lat="46.31309" lon="6.78592">
        <ele>1290</ele>
        <time>2019-08-14T16:12:48Z</time>
      </trkpt>
      <trkpt lat="46.31298" lon="6.78592">
        <ele>1288</ele>
        <time>2019-08-14T16:13:03Z</time>
      </trkpt>
      <trkpt lat="46.31293" lon="6.78593">
        <ele>1287</ele>
        <time>2019-08-14T16:13:10Z</time>
      </trkpt>
      <trkpt lat="46.31277" lon="6.78594">
        <ele>1283</ele>
        <time>2019-08-14T16:13:31Z</time>
      </trkpt>
      <trkpt lat="46.31273" lon="6.78594">
        <ele>1282</ele>
        <time>2019-08-14T16:13:36Z</time>
      </trkpt>
      <trkpt lat="46.31269" lon="6.78593">
        <ele>1281</ele>
        <time>2019-08-14T16:13:42Z</time>
      </trkpt>
      <trkpt lat="46.31257" lon="6.78585">
        <ele>1275</ele>
        <time>2019-08-14T16:13:59Z</time>
      </trkpt>
      <trkpt lat="46.31247" lon="6.78581">
        <ele>1272</ele>
        <time>2019-08-14T16:14:13Z</time>
      </trkpt>
      <trkpt lat="46.31242" lon="6.78579">
        <ele>1271</ele>
        <time>2019-08-14T16:14:20Z</time>
      </trkpt>
      <trkpt lat="46.31238" lon="6.78579">
        <ele>1270</ele>
        <time>2019-08-14T16:14:25Z</time>
      </trkpt>
      <trkpt lat="46.31234" lon="6.78578">
        <ele>1269</ele>
        <time>2019-08-14T16:14:31Z</time>
      </trkpt>
      <trkpt lat="46.31225" lon="6.78579">
        <ele>1267</ele>
        <time>2019-08-14T16:14:43Z</time>
      </trkpt>
      <trkpt lat="46.31222" lon="6.78579">
        <ele>1267</ele>
        <time>2019-08-14T16:14:47Z</time>
      </trkpt>
      <trkpt lat="46.31218" lon="6.78578">
        <ele>1266</ele>
        <time>2019-08-14T16:14:52Z</time>
      </trkpt>
      <trkpt lat="46.31206" lon="6.78574">
        <ele>1263</ele>
        <time>2019-08-14T16:15:09Z</time>
      </trkpt>
      <trkpt lat="46.31196" lon="6.78572">
        <ele>1260</ele>
        <time>2019-08-14T16:15:22Z</time>
      </trkpt>
      <trkpt lat="46.31192" lon="6.78571">
        <ele>1259</ele>
        <time>2019-08-14T16:15:28Z</time>
      </trkpt>
      <trkpt lat="46.31167" lon="6.78558">
        <ele>1253</ele>
        <time>2019-08-14T16:16:03Z</time>
      </trkpt>
      <trkpt lat="46.31163" lon="6.78556">
        <ele>1252</ele>
        <time>2019-08-14T16:16:09Z</time>
      </trkpt>
      <trkpt lat="46.31155" lon="6.78556">
        <ele>1251</ele>
        <time>2019-08-14T16:16:19Z</time>
      </trkpt>
      <trkpt lat="46.31151" lon="6.78557">
        <ele>1250</ele>
        <time>2019-08-14T16:16:25Z</time>
      </trkpt>
      <trkpt lat="46.31147" lon="6.7856">
        <ele>1250</ele>
        <time>2019-08-14T16:16:31Z</time>
      </trkpt>
      <trkpt lat="46.31118" lon="6.78575">
        <ele>1246</ele>
        <time>2019-08-14T16:17:12Z</time>
      </trkpt>
      <trkpt lat="46.31114" lon="6.78577">
        <ele>1245</ele>
        <time>2019-08-14T16:17:18Z</time>
      </trkpt>
      <trkpt lat="46.31105" lon="6.78577">
        <ele>1243</ele>
        <time>2019-08-14T16:17:30Z</time>
      </trkpt>
      <trkpt lat="46.31083" lon="6.78575">
        <ele>1239</ele>
        <time>2019-08-14T16:17:59Z</time>
      </trkpt>
      <trkpt lat="46.31068" lon="6.78577">
        <ele>1237</ele>
        <time>2019-08-14T16:18:19Z</time>
      </trkpt>
      <trkpt lat="46.31065" lon="6.78578">
        <ele>1236</ele>
        <time>2019-08-14T16:18:23Z</time>
      </trkpt>
      <trkpt lat="46.31061" lon="6.7858">
        <ele>1236</ele>
        <time>2019-08-14T16:18:29Z</time>
      </trkpt>
      <trkpt lat="46.31055" lon="6.78584">
        <ele>1235</ele>
        <time>2019-08-14T16:18:38Z</time>
      </trkpt>
      <trkpt lat="46.31052" lon="6.78586">
        <ele>1234</ele>
        <time>2019-08-14T16:18:42Z</time>
      </trkpt>
      <trkpt lat="46.31047" lon="6.78586">
        <ele>1233</ele>
        <time>2019-08-14T16:18:49Z</time>
      </trkpt>
      <trkpt lat="46.31043" lon="6.78586">
        <ele>1233</ele>
        <time>2019-08-14T16:18:54Z</time>
      </trkpt>
      <trkpt lat="46.31024" lon="6.78576">
        <ele>1229</ele>
        <time>2019-08-14T16:19:21Z</time>
      </trkpt>
      <trkpt lat="46.31018" lon="6.78574">
        <ele>1228</ele>
        <time>2019-08-14T16:19:29Z</time>
      </trkpt>
      <trkpt lat="46.31013" lon="6.78574">
        <ele>1227</ele>
        <time>2019-08-14T16:19:36Z</time>
      </trkpt>
      <trkpt lat="46.31009" lon="6.78574">
        <ele>1226</ele>
        <time>2019-08-14T16:19:41Z</time>
      </trkpt>
      <trkpt lat="46.30998" lon="6.78579">
        <ele>1224</ele>
        <time>2019-08-14T16:19:57Z</time>
      </trkpt>
      <trkpt lat="46.30995" lon="6.7858">
        <ele>1224</ele>
        <time>2019-08-14T16:20:01Z</time>
      </trkpt>
      <trkpt lat="46.30991" lon="6.78584">
        <ele>1223</ele>
        <time>2019-08-14T16:20:07Z</time>
      </trkpt>
      <trkpt lat="46.30985" lon="6.78592">
        <ele>1223</ele>
        <time>2019-08-14T16:20:18Z</time>
      </trkpt>
      <trkpt lat="46.30981" lon="6.78597">
        <ele>1223</ele>
        <time>2019-08-14T16:20:25Z</time>
      </trkpt>
      <trkpt lat="46.30977" lon="6.78609">
        <ele>1223</ele>
        <time>2019-08-14T16:20:37Z</time>
      </trkpt>
      <trkpt lat="46.30975" lon="6.78616">
        <ele>1222</ele>
        <time>2019-08-14T16:20:44Z</time>
      </trkpt>
      <trkpt lat="46.30969" lon="6.78657">
        <ele>1221</ele>
        <time>2019-08-14T16:21:23Z</time>
      </trkpt>
      <trkpt lat="46.30968" lon="6.78664">
        <ele>1220</ele>
        <time>2019-08-14T16:21:30Z</time>
      </trkpt>
      <trkpt lat="46.30966" lon="6.78669">
        <ele>1220</ele>
        <time>2019-08-14T16:21:35Z</time>
      </trkpt>
      <trkpt lat="46.30964" lon="6.78675">
        <ele>1220</ele>
        <time>2019-08-14T16:21:41Z</time>
      </trkpt>
      <trkpt lat="46.30962" lon="6.78679">
        <ele>1220</ele>
        <time>2019-08-14T16:21:46Z</time>
      </trkpt>
      <trkpt lat="46.30958" lon="6.78684">
        <ele>1220</ele>
        <time>2019-08-14T16:21:53Z</time>
      </trkpt>
      <trkpt lat="46.30955" lon="6.78688">
        <ele>1219</ele>
        <time>2019-08-14T16:21:58Z</time>
      </trkpt>
      <trkpt lat="46.30951" lon="6.78691">
        <ele>1218</ele>
        <time>2019-08-14T16:22:04Z</time>
      </trkpt>
      <trkpt lat="46.30947" lon="6.78693">
        <ele>1217</ele>
        <time>2019-08-14T16:22:10Z</time>
      </trkpt>
      <trkpt lat="46.30921" lon="6.78702">
        <ele>1209</ele>
        <time>2019-08-14T16:22:46Z</time>
      </trkpt>
      <trkpt lat="46.30914" lon="6.78704">
        <ele>1208</ele>
        <time>2019-08-14T16:22:55Z</time>
      </trkpt>
      <trkpt lat="46.30864" lon="6.78742">
        <ele>1200</ele>
        <time>2019-08-14T16:24:10Z</time>
      </trkpt>
      <trkpt lat="46.30856" lon="6.78748">
        <ele>1198</ele>
        <time>2019-08-14T16:24:22Z</time>
      </trkpt>
      <trkpt lat="46.30851" lon="6.78752">
        <ele>1197</ele>
        <time>2019-08-14T16:24:30Z</time>
      </trkpt>
      <trkpt lat="46.30845" lon="6.78757">
        <ele>1196</ele>
        <time>2019-08-14T16:24:39Z</time>
      </trkpt>
      <trkpt lat="46.30818" lon="6.78786">
        <ele>1194</ele>
        <time>2019-08-14T16:25:24Z</time>
      </trkpt>
      <trkpt lat="46.30797" lon="6.78809">
        <ele>1192</ele>
        <time>2019-08-14T16:25:59Z</time>
      </trkpt>
      <trkpt lat="46.30785" lon="6.7882">
        <ele>1190</ele>
        <time>2019-08-14T16:26:18Z</time>
      </trkpt>
      <trkpt lat="46.30779" lon="6.78825">
        <ele>1189</ele>
        <time>2019-08-14T16:26:27Z</time>
      </trkpt>
      <trkpt lat="46.30761" lon="6.78837">
        <ele>1187</ele>
        <time>2019-08-14T16:26:54Z</time>
      </trkpt>
      <trkpt lat="46.30756" lon="6.78841">
        <ele>1188</ele>
        <time>2019-08-14T16:27:02Z</time>
      </trkpt>
      <trkpt lat="46.30742" lon="6.78848">
        <ele>1187</ele>
        <time>2019-08-14T16:27:21Z</time>
      </trkpt>
      <trkpt lat="46.30715" lon="6.78856">
        <ele>1184</ele>
        <time>2019-08-14T16:27:58Z</time>
      </trkpt>
      <trkpt lat="46.30709" lon="6.78858">
        <ele>1183</ele>
        <time>2019-08-14T16:28:06Z</time>
      </trkpt>
      <trkpt lat="46.30699" lon="6.7886">
        <ele>1181</ele>
        <time>2019-08-14T16:28:20Z</time>
      </trkpt>
      <trkpt lat="46.30678" lon="6.78863">
        <ele>1177</ele>
        <time>2019-08-14T16:28:48Z</time>
      </trkpt>
      <trkpt lat="46.30671" lon="6.78865">
        <ele>1176</ele>
        <time>2019-08-14T16:28:57Z</time>
      </trkpt>
      <trkpt lat="46.30664" lon="6.78866">
        <ele>1175</ele>
        <time>2019-08-14T16:29:07Z</time>
      </trkpt>
      <trkpt lat="46.30659" lon="6.78868">
        <ele>1175</ele>
        <time>2019-08-14T16:29:14Z</time>
      </trkpt>
      <trkpt lat="46.30654" lon="6.7887">
        <ele>1174</ele>
        <time>2019-08-14T16:29:21Z</time>
      </trkpt>
      <trkpt lat="46.30634" lon="6.7888">
        <ele>1172</ele>
        <time>2019-08-14T16:29:49Z</time>
      </trkpt>
      <trkpt lat="46.30629" lon="6.78883">
        <ele>1172</ele>
        <time>2019-08-14T16:29:56Z</time>
      </trkpt>
      <trkpt lat="46.30625" lon="6.78886">
        <ele>1171</ele>
        <time>2019-08-14T16:30:02Z</time>
      </trkpt>
      <trkpt lat="46.30622" lon="6.7889">
        <ele>1171</ele>
        <time>2019-08-14T16:30:08Z</time>
      </trkpt>
      <trkpt lat="46.3057" lon="6.78931">
        <ele>1164</ele>
        <time>2019-08-14T16:31:27Z</time>
      </trkpt>
      <trkpt lat="46.30566" lon="6.78934">
        <ele>1164</ele>
        <time>2019-08-14T16:31:33Z</time>
      </trkpt>
      <trkpt lat="46.30561" lon="6.78937">
        <ele>1164</ele>
        <time>2019-08-14T16:31:40Z</time>
      </trkpt>
      <trkpt lat="46.30552" lon="6.7894">
        <ele>1164</ele>
        <time>2019-08-14T16:31:52Z</time>
      </trkpt>
      <trkpt lat="46.30546" lon="6.78941">
        <ele>1163</ele>
        <time>2019-08-14T16:32:00Z</time>
      </trkpt>
      <trkpt lat="46.30542" lon="6.78941">
        <ele>1162</ele>
        <time>2019-08-14T16:32:06Z</time>
      </trkpt>
      <trkpt lat="46.30538" lon="6.7894">
        <ele>1162</ele>
        <time>2019-08-14T16:32:11Z</time>
      </trkpt>
      <trkpt lat="46.30529" lon="6.78935">
        <ele>1160</ele>
        <time>2019-08-14T16:32:24Z</time>
      </trkpt>
      <trkpt lat="46.30524" lon="6.78932">
        <ele>1158</ele>
        <time>2019-08-14T16:32:31Z</time>
      </trkpt>
      <trkpt lat="46.30511" lon="6.78923">
        <ele>1156</ele>
        <time>2019-08-14T16:32:50Z</time>
      </trkpt>
      <trkpt lat="46.30506" lon="6.7892">
        <ele>1155</ele>
        <time>2019-08-14T16:32:58Z</time>
      </trkpt>
      <trkpt lat="46.305" lon="6.78918">
        <ele>1154</ele>
        <time>2019-08-14T16:33:06Z</time>
      </trkpt>
      <trkpt lat="46.30495" lon="6.78916">
        <ele>1154</ele>
        <time>2019-08-14T16:33:13Z</time>
      </trkpt>
      <trkpt lat="46.3049" lon="6.78915">
        <ele>1154</ele>
        <time>2019-08-14T16:33:19Z</time>
      </trkpt>
      <trkpt lat="46.30478" lon="6.78915">
        <ele>1154</ele>
        <time>2019-08-14T16:33:35Z</time>
      </trkpt>
      <trkpt lat="46.30456" lon="6.78915">
        <ele>1152</ele>
        <time>2019-08-14T16:34:05Z</time>
      </trkpt>
      <trkpt lat="46.30444" lon="6.78916">
        <ele>1152</ele>
        <time>2019-08-14T16:34:21Z</time>
      </trkpt>
      <trkpt lat="46.3044" lon="6.78916">
        <ele>1151</ele>
        <time>2019-08-14T16:34:26Z</time>
      </trkpt>
      <trkpt lat="46.30436" lon="6.78915">
        <ele>1152</ele>
        <time>2019-08-14T16:34:32Z</time>
      </trkpt>
      <trkpt lat="46.30423" lon="6.78907">
        <ele>1154</ele>
        <time>2019-08-14T16:34:50Z</time>
      </trkpt>
      <trkpt lat="46.3042" lon="6.78907">
        <ele>1154</ele>
        <time>2019-08-14T16:34:54Z</time>
      </trkpt>
      <trkpt lat="46.30416" lon="6.78908">
        <ele>1153</ele>
        <time>2019-08-14T16:35:00Z</time>
      </trkpt>
      <trkpt lat="46.30381" lon="6.78921">
        <ele>1143</ele>
        <time>2019-08-14T16:35:48Z</time>
      </trkpt>
      <trkpt lat="46.30363" lon="6.78926">
        <ele>1140</ele>
        <time>2019-08-14T16:36:13Z</time>
      </trkpt>
      <trkpt lat="46.30354" lon="6.78927">
        <ele>1138</ele>
        <time>2019-08-14T16:36:25Z</time>
      </trkpt>
      <trkpt lat="46.30341" lon="6.78928">
        <ele>1135</ele>
        <time>2019-08-14T16:36:42Z</time>
      </trkpt>
      <trkpt lat="46.30336" lon="6.78928">
        <ele>1134</ele>
        <time>2019-08-14T16:36:49Z</time>
      </trkpt>
      <trkpt lat="46.3033" lon="6.78927">
        <ele>1134</ele>
        <time>2019-08-14T16:36:57Z</time>
      </trkpt>
      <trkpt lat="46.30325" lon="6.78926">
        <ele>1134</ele>
        <time>2019-08-14T16:37:03Z</time>
      </trkpt>
      <trkpt lat="46.30299" lon="6.78919">
        <ele>1132</ele>
        <time>2019-08-14T16:37:39Z</time>
      </trkpt>
      <trkpt lat="46.30294" lon="6.78917">
        <ele>1132</ele>
        <time>2019-08-14T16:37:46Z</time>
      </trkpt>
      <trkpt lat="46.30281" lon="6.78915">
        <ele>1132</ele>
        <time>2019-08-14T16:38:03Z</time>
      </trkpt>
      <trkpt lat="46.30277" lon="6.78915">
        <ele>1132</ele>
        <time>2019-08-14T16:38:08Z</time>
      </trkpt>
      <trkpt lat="46.30272" lon="6.78916">
        <ele>1132</ele>
        <time>2019-08-14T16:38:15Z</time>
      </trkpt>
      <trkpt lat="46.30268" lon="6.78917">
        <ele>1131</ele>
        <time>2019-08-14T16:38:21Z</time>
      </trkpt>
      <trkpt lat="46.30263" lon="6.78919">
        <ele>1131</ele>
        <time>2019-08-14T16:38:28Z</time>
      </trkpt>
      <trkpt lat="46.30259" lon="6.7892">
        <ele>1131</ele>
        <time>2019-08-14T16:38:33Z</time>
      </trkpt>
      <trkpt lat="46.30235" lon="6.78932">
        <ele>1131</ele>
        <time>2019-08-14T16:39:07Z</time>
      </trkpt>
      <trkpt lat="46.30231" lon="6.78933">
        <ele>1130</ele>
        <time>2019-08-14T16:39:12Z</time>
      </trkpt>
      <trkpt lat="46.30226" lon="6.78933">
        <ele>1130</ele>
        <time>2019-08-14T16:39:19Z</time>
      </trkpt>
      <trkpt lat="46.30221" lon="6.78933">
        <ele>1130</ele>
        <time>2019-08-14T16:39:26Z</time>
      </trkpt>
      <trkpt lat="46.30194" lon="6.78931">
        <ele>1128</ele>
        <time>2019-08-14T16:40:02Z</time>
      </trkpt>
      <trkpt lat="46.30188" lon="6.78932">
        <ele>1127</ele>
        <time>2019-08-14T16:40:10Z</time>
      </trkpt>
      <trkpt lat="46.30183" lon="6.78934">
        <ele>1127</ele>
        <time>2019-08-14T16:40:17Z</time>
      </trkpt>
      <trkpt lat="46.30148" lon="6.78945">
        <ele>1124</ele>
        <time>2019-08-14T16:41:04Z</time>
      </trkpt>
      <trkpt lat="46.30143" lon="6.78948">
        <ele>1123</ele>
        <time>2019-08-14T16:41:12Z</time>
      </trkpt>
      <trkpt lat="46.30139" lon="6.7895">
        <ele>1122</ele>
        <time>2019-08-14T16:41:17Z</time>
      </trkpt>
      <trkpt lat="46.30135" lon="6.78953">
        <ele>1122</ele>
        <time>2019-08-14T16:41:23Z</time>
      </trkpt>
      <trkpt lat="46.30112" lon="6.78971">
        <ele>1117</ele>
        <time>2019-08-14T16:41:58Z</time>
      </trkpt>
      <trkpt lat="46.30105" lon="6.78975">
        <ele>1116</ele>
        <time>2019-08-14T16:42:08Z</time>
      </trkpt>
      <trkpt lat="46.30099" lon="6.78979">
        <ele>1115</ele>
        <time>2019-08-14T16:42:17Z</time>
      </trkpt>
      <trkpt lat="46.30093" lon="6.78981">
        <ele>1114</ele>
        <time>2019-08-14T16:42:25Z</time>
      </trkpt>
      <trkpt lat="46.30088" lon="6.78983">
        <ele>1113</ele>
        <time>2019-08-14T16:42:32Z</time>
      </trkpt>
      <trkpt lat="46.30081" lon="6.78984">
        <ele>1112</ele>
        <time>2019-08-14T16:42:42Z</time>
      </trkpt>
      <trkpt lat="46.30075" lon="6.78985">
        <ele>1112</ele>
        <time>2019-08-14T16:42:50Z</time>
      </trkpt>
      <trkpt lat="46.30069" lon="6.78985">
        <ele>1111</ele>
        <time>2019-08-14T16:42:58Z</time>
      </trkpt>
      <trkpt lat="46.30063" lon="6.78986">
        <ele>1111</ele>
        <time>2019-08-14T16:43:06Z</time>
      </trkpt>
      <trkpt lat="46.30027" lon="6.78986">
        <ele>1108</ele>
        <time>2019-08-14T16:43:54Z</time>
      </trkpt>
      <trkpt lat="46.29987" lon="6.78987">
        <ele>1104</ele>
        <time>2019-08-14T16:44:47Z</time>
      </trkpt>
      <trkpt lat="46.29981" lon="6.78986">
        <ele>1104</ele>
        <time>2019-08-14T16:44:55Z</time>
      </trkpt>
      <trkpt lat="46.29976" lon="6.78986">
        <ele>1103</ele>
        <time>2019-08-14T16:45:02Z</time>
      </trkpt>
      <trkpt lat="46.2997" lon="6.78985">
        <ele>1103</ele>
        <time>2019-08-14T16:45:10Z</time>
      </trkpt>
      <trkpt lat="46.29964" lon="6.78984">
        <ele>1102</ele>
        <time>2019-08-14T16:45:18Z</time>
      </trkpt>
      <trkpt lat="46.29911" lon="6.78966">
        <ele>1094</ele>
        <time>2019-08-14T16:46:31Z</time>
      </trkpt>
      <trkpt lat="46.29879" lon="6.78955">
        <ele>1084</ele>
        <time>2019-08-14T16:47:15Z</time>
      </trkpt>
      <trkpt lat="46.29864" lon="6.78951">
        <ele>1080</ele>
        <time>2019-08-14T16:47:35Z</time>
      </trkpt>
      <trkpt lat="46.29859" lon="6.78949">
        <ele>1078</ele>
        <time>2019-08-14T16:47:42Z</time>
      </trkpt>
      <trkpt lat="46.29853" lon="6.78949">
        <ele>1076</ele>
        <time>2019-08-14T16:47:50Z</time>
      </trkpt>
      <trkpt lat="46.29848" lon="6.78948">
        <ele>1075</ele>
        <time>2019-08-14T16:47:57Z</time>
      </trkpt>
      <trkpt lat="46.29827" lon="6.78945">
        <ele>1069</ele>
        <time>2019-08-14T16:48:25Z</time>
      </trkpt>
      <trkpt lat="46.29822" lon="6.78945">
        <ele>1068</ele>
        <time>2019-08-14T16:48:31Z</time>
      </trkpt>
      <trkpt lat="46.29813" lon="6.78947">
        <ele>1066</ele>
        <time>2019-08-14T16:48:44Z</time>
      </trkpt>
      <trkpt lat="46.298" lon="6.78951">
        <ele>1064</ele>
        <time>2019-08-14T16:49:01Z</time>
      </trkpt>
      <trkpt lat="46.29797" lon="6.78953">
        <ele>1063</ele>
        <time>2019-08-14T16:49:06Z</time>
      </trkpt>
      <trkpt lat="46.29793" lon="6.78955">
        <ele>1062</ele>
        <time>2019-08-14T16:49:11Z</time>
      </trkpt>
      <trkpt lat="46.29779" lon="6.78965">
        <ele>1060</ele>
        <time>2019-08-14T16:49:32Z</time>
      </trkpt>
      <trkpt lat="46.29775" lon="6.78968">
        <ele>1059</ele>
        <time>2019-08-14T16:49:38Z</time>
      </trkpt>
      <trkpt lat="46.29772" lon="6.78969">
        <ele>1059</ele>
        <time>2019-08-14T16:49:42Z</time>
      </trkpt>
      <trkpt lat="46.29768" lon="6.78969">
        <ele>1058</ele>
        <time>2019-08-14T16:49:48Z</time>
      </trkpt>
      <trkpt lat="46.2975" lon="6.78966">
        <ele>1054</ele>
        <time>2019-08-14T16:50:12Z</time>
      </trkpt>
      <trkpt lat="46.29746" lon="6.78964">
        <ele>1054</ele>
        <time>2019-08-14T16:50:17Z</time>
      </trkpt>
      <trkpt lat="46.29742" lon="6.78961">
        <ele>1053</ele>
        <time>2019-08-14T16:50:23Z</time>
      </trkpt>
      <trkpt lat="46.29737" lon="6.78957">
        <ele>1052</ele>
        <time>2019-08-14T16:50:31Z</time>
      </trkpt>
      <trkpt lat="46.29733" lon="6.78952">
        <ele>1051</ele>
        <time>2019-08-14T16:50:38Z</time>
      </trkpt>
      <trkpt lat="46.29724" lon="6.7894">
        <ele>1049</ele>
        <time>2019-08-14T16:50:54Z</time>
      </trkpt>
      <trkpt lat="46.296" lon="6.78873">
        <ele>1029</ele>
        <time>2019-08-14T16:53:51Z</time>
      </trkpt>
      <trkpt lat="46.29562" lon="6.78852">
        <ele>1025</ele>
        <time>2019-08-14T16:54:45Z</time>
      </trkpt>
      <trkpt lat="46.29557" lon="6.78848">
        <ele>1025</ele>
        <time>2019-08-14T16:54:53Z</time>
      </trkpt>
      <trkpt lat="46.29552" lon="6.78844">
        <ele>1025</ele>
        <time>2019-08-14T16:55:01Z</time>
      </trkpt>
      <trkpt lat="46.29543" lon="6.78838">
        <ele>1024</ele>
        <time>2019-08-14T16:55:14Z</time>
      </trkpt>
      <trkpt lat="46.29539" lon="6.78835">
        <ele>1024</ele>
        <time>2019-08-14T16:55:20Z</time>
      </trkpt>
      <trkpt lat="46.29524" lon="6.78901">
        <ele>1025</ele>
        <time>2019-08-14T16:56:24Z</time>
      </trkpt>
      <trkpt lat="46.2952" lon="6.78915">
        <ele>1025</ele>
        <time>2019-08-14T16:56:38Z</time>
      </trkpt>
      <trkpt lat="46.29515" lon="6.78943">
        <ele>1025</ele>
        <time>2019-08-14T16:57:05Z</time>
      </trkpt>
      <trkpt lat="46.29513" lon="6.78951">
        <ele>1025</ele>
        <time>2019-08-14T16:57:12Z</time>
      </trkpt>
      <trkpt lat="46.29511" lon="6.78966">
        <ele>1025</ele>
        <time>2019-08-14T16:57:26Z</time>
      </trkpt>
      <trkpt lat="46.29506" lon="6.78998">
        <ele>1024</ele>
        <time>2019-08-14T16:57:57Z</time>
      </trkpt>
      <trkpt lat="46.29506" lon="6.79004">
        <ele>1024</ele>
        <time>2019-08-14T16:58:02Z</time>
      </trkpt>
      <trkpt lat="46.29504" lon="6.79012">
        <ele>1024</ele>
        <time>2019-08-14T16:58:10Z</time>
      </trkpt>
      <trkpt lat="46.29496" lon="6.79098">
        <ele>1024</ele>
        <time>2019-08-14T16:59:30Z</time>
      </trkpt>
      <trkpt lat="46.29495" lon="6.79108">
        <ele>1025</ele>
        <time>2019-08-14T16:59:39Z</time>
      </trkpt>
      <trkpt lat="46.29492" lon="6.79127">
        <ele>1025</ele>
        <time>2019-08-14T16:59:57Z</time>
      </trkpt>
      <trkpt lat="46.2949" lon="6.79137">
        <ele>1026</ele>
        <time>2019-08-14T17:00:07Z</time>
      </trkpt>
      <trkpt lat="46.29487" lon="6.79146">
        <ele>1026</ele>
        <time>2019-08-14T17:00:16Z</time>
      </trkpt>
      <trkpt lat="46.29485" lon="6.79154">
        <ele>1026</ele>
        <time>2019-08-14T17:00:24Z</time>
      </trkpt>
      <trkpt lat="46.29482" lon="6.79162">
        <ele>1026</ele>
        <time>2019-08-14T17:00:32Z</time>
      </trkpt>
      <trkpt lat="46.29476" lon="6.79176">
        <ele>1026</ele>
        <time>2019-08-14T17:00:48Z</time>
      </trkpt>
      <trkpt lat="46.2946" lon="6.79206">
        <ele>1026</ele>
        <time>2019-08-14T17:01:23Z</time>
      </trkpt>
      <trkpt lat="46.29451" lon="6.79223">
        <ele>1026</ele>
        <time>2019-08-14T17:01:42Z</time>
      </trkpt>
      <trkpt lat="46.29382" lon="6.79347">
        <ele>1025</ele>
        <time>2019-08-14T17:04:09Z</time>
      </trkpt>
      <trkpt lat="46.29376" lon="6.79357">
        <ele>1024</ele>
        <time>2019-08-14T17:04:21Z</time>
      </trkpt>
      <trkpt lat="46.29369" lon="6.79372">
        <ele>1024</ele>
        <time>2019-08-14T17:04:38Z</time>
      </trkpt>
      <trkpt lat="46.29367" lon="6.79377">
        <ele>1024</ele>
        <time>2019-08-14T17:04:43Z</time>
      </trkpt>
      <trkpt lat="46.2935" lon="6.79361">
        <ele>1021</ele>
        <time>2019-08-14T17:05:10Z</time>
      </trkpt>
      <trkpt lat="46.29347" lon="6.79359">
        <ele>1021</ele>
        <time>2019-08-14T17:05:15Z</time>
      </trkpt>
      <trkpt lat="46.29336" lon="6.79356">
        <ele>1019</ele>
        <time>2019-08-14T17:05:30Z</time>
      </trkpt>
      <trkpt lat="46.29294" lon="6.79348">
        <ele>1016</ele>
        <time>2019-08-14T17:06:26Z</time>
      </trkpt>
      <trkpt lat="46.2925" lon="6.79333">
        <ele>1014</ele>
        <time>2019-08-14T17:07:27Z</time>
      </trkpt>
      <trkpt lat="46.29244" lon="6.79331">
        <ele>1014</ele>
        <time>2019-08-14T17:07:35Z</time>
      </trkpt>
      <trkpt lat="46.29183" lon="6.79299">
        <ele>1010</ele>
        <time>2019-08-14T17:09:01Z</time>
      </trkpt>
      <trkpt lat="46.29153" lon="6.79283">
        <ele>1009</ele>
        <time>2019-08-14T17:09:44Z</time>
      </trkpt>
      <trkpt lat="46.29147" lon="6.79281">
        <ele>1009</ele>
        <time>2019-08-14T17:09:52Z</time>
      </trkpt>
      <trkpt lat="46.29141" lon="6.79279">
        <ele>1009</ele>
        <time>2019-08-14T17:10:01Z</time>
      </trkpt>
      <trkpt lat="46.29135" lon="6.79279">
        <ele>1009</ele>
        <time>2019-08-14T17:10:09Z</time>
      </trkpt>
      <trkpt lat="46.2913" lon="6.79279">
        <ele>1009</ele>
        <time>2019-08-14T17:10:15Z</time>
      </trkpt>
      <trkpt lat="46.29125" lon="6.7928">
        <ele>1009</ele>
        <time>2019-08-14T17:10:22Z</time>
      </trkpt>
      <trkpt lat="46.29121" lon="6.79283">
        <ele>1009</ele>
        <time>2019-08-14T17:10:28Z</time>
      </trkpt>
      <trkpt lat="46.29118" lon="6.79289">
        <ele>1010</ele>
        <time>2019-08-14T17:10:35Z</time>
      </trkpt>
      <trkpt lat="46.29114" lon="6.79303">
        <ele>1010</ele>
        <time>2019-08-14T17:10:49Z</time>
      </trkpt>
      <trkpt lat="46.29111" lon="6.79307">
        <ele>1010</ele>
        <time>2019-08-14T17:10:54Z</time>
      </trkpt>
      <trkpt lat="46.29113" lon="6.79317">
        <ele>1010</ele>
        <time>2019-08-14T17:11:04Z</time>
      </trkpt>
      <trkpt lat="46.29115" lon="6.79324">
        <ele>1010</ele>
        <time>2019-08-14T17:11:11Z</time>
      </trkpt>
      <trkpt lat="46.29118" lon="6.79331">
        <ele>1010</ele>
        <time>2019-08-14T17:11:18Z</time>
      </trkpt>
      <trkpt lat="46.29133" lon="6.79359">
        <ele>1009</ele>
        <time>2019-08-14T17:11:51Z</time>
      </trkpt>
      <trkpt lat="46.29139" lon="6.79387">
        <ele>1008</ele>
        <time>2019-08-14T17:12:18Z</time>
      </trkpt>
      <trkpt lat="46.29126" lon="6.7942">
        <ele>1006</ele>
        <time>2019-08-14T17:12:53Z</time>
      </trkpt>
      <trkpt lat="46.29114" lon="6.79453">
        <ele>1006</ele>
        <time>2019-08-14T17:13:27Z</time>
      </trkpt>
      <trkpt lat="46.29081" lon="6.79536">
        <ele>1006</ele>
        <time>2019-08-14T17:14:56Z</time>
      </trkpt>
      <trkpt lat="46.29065" lon="6.79578">
        <ele>1008</ele>
        <time>2019-08-14T17:15:40Z</time>
      </trkpt>
      <trkpt lat="46.29042" lon="6.79622">
        <ele>1008</ele>
        <time>2019-08-14T17:16:31Z</time>
      </trkpt>
      <trkpt lat="46.29038" lon="6.79627">
        <ele>1008</ele>
        <time>2019-08-14T17:16:38Z</time>
      </trkpt>
      <trkpt lat="46.29018" lon="6.79639">
        <ele>1008</ele>
        <time>2019-08-14T17:17:07Z</time>
      </trkpt>
      <trkpt lat="46.29012" lon="6.79641">
        <ele>1008</ele>
        <time>2019-08-14T17:17:15Z</time>
      </trkpt>
      <trkpt lat="46.29" lon="6.79641">
        <ele>1008</ele>
        <time>2019-08-14T17:17:31Z</time>
      </trkpt>
      <trkpt lat="46.28995" lon="6.79641">
        <ele>1009</ele>
        <time>2019-08-14T17:17:38Z</time>
      </trkpt>
      <trkpt lat="46.2899" lon="6.79642">
        <ele>1010</ele>
        <time>2019-08-14T17:17:44Z</time>
      </trkpt>
      <trkpt lat="46.28979" lon="6.79646">
        <ele>1012</ele>
        <time>2019-08-14T17:18:00Z</time>
      </trkpt>
      <trkpt lat="46.28975" lon="6.79649">
        <ele>1013</ele>
        <time>2019-08-14T17:18:06Z</time>
      </trkpt>
      <trkpt lat="46.28972" lon="6.79653">
        <ele>1013</ele>
        <time>2019-08-14T17:18:11Z</time>
      </trkpt>
      <trkpt lat="46.28968" lon="6.79658">
        <ele>1013</ele>
        <time>2019-08-14T17:18:18Z</time>
      </trkpt>
      <trkpt lat="46.28965" lon="6.79664">
        <ele>1013</ele>
        <time>2019-08-14T17:18:25Z</time>
      </trkpt>
      <trkpt lat="46.28961" lon="6.79671">
        <ele>1013</ele>
        <time>2019-08-14T17:18:33Z</time>
      </trkpt>
      <trkpt lat="46.2895" lon="6.79712">
        <ele>1012</ele>
        <time>2019-08-14T17:19:14Z</time>
      </trkpt>
      <trkpt lat="46.28938" lon="6.79752">
        <ele>1011</ele>
        <time>2019-08-14T17:19:54Z</time>
      </trkpt>
      <trkpt lat="46.28933" lon="6.79764">
        <ele>1011</ele>
        <time>2019-08-14T17:20:07Z</time>
      </trkpt>
      <trkpt lat="46.2893" lon="6.79769">
        <ele>1011</ele>
        <time>2019-08-14T17:20:13Z</time>
      </trkpt>
      <trkpt lat="46.28926" lon="6.79774">
        <ele>1011</ele>
        <time>2019-08-14T17:20:20Z</time>
      </trkpt>
      <trkpt lat="46.28894" lon="6.79809">
        <ele>1014</ele>
        <time>2019-08-14T17:21:14Z</time>
      </trkpt>
      <trkpt lat="46.2889" lon="6.79811">
        <ele>1015</ele>
        <time>2019-08-14T17:21:19Z</time>
      </trkpt>
      <trkpt lat="46.28885" lon="6.79813">
        <ele>1016</ele>
        <time>2019-08-14T17:21:26Z</time>
      </trkpt>
      <trkpt lat="46.28861" lon="6.79818">
        <ele>1020</ele>
        <time>2019-08-14T17:21:59Z</time>
      </trkpt>
      <trkpt lat="46.28838" lon="6.79823">
        <ele>1024</ele>
        <time>2019-08-14T17:22:30Z</time>
      </trkpt>
      <trkpt lat="46.28826" lon="6.79859">
        <ele>1025</ele>
        <time>2019-08-14T17:23:07Z</time>
      </trkpt>
      <trkpt lat="46.28837" lon="6.79888">
        <ele>1019</ele>
        <time>2019-08-14T17:23:37Z</time>
      </trkpt>
      <trkpt lat="46.28848" lon="6.79917">
        <ele>1017</ele>
        <time>2019-08-14T17:24:08Z</time>
      </trkpt>
      <trkpt lat="46.28859" lon="6.7997">
        <ele>1015</ele>
        <time>2019-08-14T17:24:59Z</time>
      </trkpt>
      <trkpt lat="46.2887" lon="6.80022">
        <ele>1014</ele>
        <time>2019-08-14T17:25:49Z</time>
      </trkpt>
      <trkpt lat="46.28866" lon="6.80063">
        <ele>1013</ele>
        <time>2019-08-14T17:26:27Z</time>
      </trkpt>
      <trkpt lat="46.28854" lon="6.80116">
        <ele>1014</ele>
        <time>2019-08-14T17:27:18Z</time>
      </trkpt>
      <trkpt lat="46.2885" lon="6.8016">
        <ele>1015</ele>
        <time>2019-08-14T17:27:59Z</time>
      </trkpt>
      <trkpt lat="46.28847" lon="6.80204">
        <ele>1016</ele>
        <time>2019-08-14T17:28:40Z</time>
      </trkpt>
      <trkpt lat="46.28857" lon="6.80389">
        <ele>1019</ele>
        <time>2019-08-14T17:31:31Z</time>
      </trkpt>
      <trkpt lat="46.28852" lon="6.80438">
        <ele>1020</ele>
        <time>2019-08-14T17:32:17Z</time>
      </trkpt>
      <trkpt lat="46.2885" lon="6.80445">
        <ele>1020</ele>
        <time>2019-08-14T17:32:24Z</time>
      </trkpt>
      <trkpt lat="46.28846" lon="6.80449">
        <ele>1020</ele>
        <time>2019-08-14T17:32:30Z</time>
      </trkpt>
      <trkpt lat="46.28841" lon="6.80452">
        <ele>1020</ele>
        <time>2019-08-14T17:32:38Z</time>
      </trkpt>
      <trkpt lat="46.28804" lon="6.80463">
        <ele>1019</ele>
        <time>2019-08-14T17:33:28Z</time>
      </trkpt>
      <trkpt lat="46.28766" lon="6.80475">
        <ele>1019</ele>
        <time>2019-08-14T17:34:20Z</time>
      </trkpt>
      <trkpt lat="46.28762" lon="6.80522">
        <ele>1019</ele>
        <time>2019-08-14T17:35:03Z</time>
      </trkpt>
      <trkpt lat="46.2877" lon="6.80565">
        <ele>1021</ele>
        <time>2019-08-14T17:35:45Z</time>
      </trkpt>
      <trkpt lat="46.28778" lon="6.80615">
        <ele>1023</ele>
        <time>2019-08-14T17:36:32Z</time>
      </trkpt>
      <trkpt lat="46.28779" lon="6.80621">
        <ele>1023</ele>
        <time>2019-08-14T17:36:38Z</time>
      </trkpt>
      <trkpt lat="46.28769" lon="6.80648">
        <ele>1024</ele>
        <time>2019-08-14T17:37:06Z</time>
      </trkpt>
      <trkpt lat="46.28765" lon="6.80656">
        <ele>1024</ele>
        <time>2019-08-14T17:37:15Z</time>
      </trkpt>
      <trkpt lat="46.28748" lon="6.80682">
        <ele>1025</ele>
        <time>2019-08-14T17:37:48Z</time>
      </trkpt>
      <trkpt lat="46.2873" lon="6.80708">
        <ele>1026</ele>
        <time>2019-08-14T17:38:22Z</time>
      </trkpt>
      <trkpt lat="46.28728" lon="6.80708">
        <ele>1026</ele>
        <time>2019-08-14T17:38:25Z</time>
      </trkpt>
      <trkpt lat="46.2872" lon="6.80704">
        <ele>1026</ele>
        <time>2019-08-14T17:38:36Z</time>
      </trkpt>
      <trkpt lat="46.28718" lon="6.80703">
        <ele>1026</ele>
        <time>2019-08-14T17:38:39Z</time>
      </trkpt>
      <trkpt lat="46.28716" lon="6.80701">
        <ele>1025</ele>
        <time>2019-08-14T17:38:42Z</time>
      </trkpt>
      <trkpt lat="46.28707" lon="6.8069">
        <ele>1025</ele>
        <time>2019-08-14T17:38:58Z</time>
      </trkpt>
      <trkpt lat="46.28701" lon="6.80681">
        <ele>1024</ele>
        <time>2019-08-14T17:39:09Z</time>
      </trkpt>
      <trkpt lat="46.28698" lon="6.80676">
        <ele>1024</ele>
        <time>2019-08-14T17:39:15Z</time>
      </trkpt>
      <trkpt lat="46.28696" lon="6.8067">
        <ele>1024</ele>
        <time>2019-08-14T17:39:21Z</time>
      </trkpt>
      <trkpt lat="46.28694" lon="6.80664">
        <ele>1023</ele>
        <time>2019-08-14T17:39:28Z</time>
      </trkpt>
      <trkpt lat="46.28693" lon="6.80657">
        <ele>1023</ele>
        <time>2019-08-14T17:39:34Z</time>
      </trkpt>
      <trkpt lat="46.28692" lon="6.80647">
        <ele>1023</ele>
        <time>2019-08-14T17:39:43Z</time>
      </trkpt>
      <trkpt lat="46.28688" lon="6.80637">
        <ele>1023</ele>
        <time>2019-08-14T17:39:54Z</time>
      </trkpt>
      <trkpt lat="46.28685" lon="6.80633">
        <ele>1023</ele>
        <time>2019-08-14T17:40:00Z</time>
      </trkpt>
      <trkpt lat="46.28658" lon="6.806">
        <ele>1025</ele>
        <time>2019-08-14T17:40:47Z</time>
      </trkpt>
      <trkpt lat="46.28573" lon="6.805">
        <ele>1039</ele>
        <time>2019-08-14T17:43:13Z</time>
      </trkpt>
      <trkpt lat="46.28571" lon="6.80499">
        <ele>1040</ele>
        <time>2019-08-14T17:43:16Z</time>
      </trkpt>
      <trkpt lat="46.28537" lon="6.80497">
        <ele>1051</ele>
        <time>2019-08-14T17:44:01Z</time>
      </trkpt>
      <trkpt lat="46.28525" lon="6.80498">
        <ele>1054</ele>
        <time>2019-08-14T17:44:17Z</time>
      </trkpt>
      <trkpt lat="46.28514" lon="6.80502">
        <ele>1058</ele>
        <time>2019-08-14T17:44:32Z</time>
      </trkpt>
      <trkpt lat="46.28504" lon="6.80508">
        <ele>1060</ele>
        <time>2019-08-14T17:44:47Z</time>
      </trkpt>
      <trkpt lat="46.28501" lon="6.8051">
        <ele>1061</ele>
        <time>2019-08-14T17:44:51Z</time>
      </trkpt>
      <trkpt lat="46.28495" lon="6.80516">
        <ele>1063</ele>
        <time>2019-08-14T17:45:01Z</time>
      </trkpt>
      <trkpt lat="46.28486" lon="6.80526">
        <ele>1065</ele>
        <time>2019-08-14T17:45:16Z</time>
      </trkpt>
      <trkpt lat="46.28481" lon="6.80529">
        <ele>1067</ele>
        <time>2019-08-14T17:45:23Z</time>
      </trkpt>
      <trkpt lat="46.28477" lon="6.80531">
        <ele>1068</ele>
        <time>2019-08-14T17:45:29Z</time>
      </trkpt>
      <trkpt lat="46.28443" lon="6.80545">
        <ele>1077</ele>
        <time>2019-08-14T17:46:16Z</time>
      </trkpt>
      <trkpt lat="46.2841" lon="6.80559">
        <ele>1087</ele>
        <time>2019-08-14T17:47:02Z</time>
      </trkpt>
      <trkpt lat="46.28406" lon="6.8056">
        <ele>1088</ele>
        <time>2019-08-14T17:47:07Z</time>
      </trkpt>
      <trkpt lat="46.28402" lon="6.80559">
        <ele>1090</ele>
        <time>2019-08-14T17:47:13Z</time>
      </trkpt>
      <trkpt lat="46.28398" lon="6.80557">
        <ele>1092</ele>
        <time>2019-08-14T17:47:18Z</time>
      </trkpt>
      <trkpt lat="46.28395" lon="6.80554">
        <ele>1093</ele>
        <time>2019-08-14T17:47:23Z</time>
      </trkpt>
      <trkpt lat="46.28391" lon="6.8055">
        <ele>1096</ele>
        <time>2019-08-14T17:47:30Z</time>
      </trkpt>
      <trkpt lat="46.28389" lon="6.80542">
        <ele>1098</ele>
        <time>2019-08-14T17:47:38Z</time>
      </trkpt>
      <trkpt lat="46.28389" lon="6.80534">
        <ele>1099</ele>
        <time>2019-08-14T17:47:45Z</time>
      </trkpt>
      <trkpt lat="46.28388" lon="6.80527">
        <ele>1100</ele>
        <time>2019-08-14T17:47:52Z</time>
      </trkpt>
      <trkpt lat="46.2839" lon="6.8052">
        <ele>1100</ele>
        <time>2019-08-14T17:47:59Z</time>
      </trkpt>
      <trkpt lat="46.28399" lon="6.80505">
        <ele>1098</ele>
        <time>2019-08-14T17:48:17Z</time>
      </trkpt>
      <trkpt lat="46.28402" lon="6.805">
        <ele>1098</ele>
        <time>2019-08-14T17:48:23Z</time>
      </trkpt>
      <trkpt lat="46.28405" lon="6.80488">
        <ele>1098</ele>
        <time>2019-08-14T17:48:35Z</time>
      </trkpt>
      <trkpt lat="46.28406" lon="6.80482">
        <ele>1098</ele>
        <time>2019-08-14T17:48:40Z</time>
      </trkpt>
      <trkpt lat="46.28406" lon="6.80475">
        <ele>1099</ele>
        <time>2019-08-14T17:48:47Z</time>
      </trkpt>
      <trkpt lat="46.28405" lon="6.80469">
        <ele>1100</ele>
        <time>2019-08-14T17:48:53Z</time>
      </trkpt>
      <trkpt lat="46.28403" lon="6.80463">
        <ele>1102</ele>
        <time>2019-08-14T17:48:59Z</time>
      </trkpt>
      <trkpt lat="46.284" lon="6.80458">
        <ele>1103</ele>
        <time>2019-08-14T17:49:05Z</time>
      </trkpt>
      <trkpt lat="46.28397" lon="6.80453">
        <ele>1105</ele>
        <time>2019-08-14T17:49:11Z</time>
      </trkpt>
      <trkpt lat="46.28371" lon="6.80431">
        <ele>1118</ele>
        <time>2019-08-14T17:49:51Z</time>
      </trkpt>
      <trkpt lat="46.28367" lon="6.80429">
        <ele>1120</ele>
        <time>2019-08-14T17:49:57Z</time>
      </trkpt>
      <trkpt lat="46.28351" lon="6.80429">
        <ele>1126</ele>
        <time>2019-08-14T17:50:18Z</time>
      </trkpt>
      <trkpt lat="46.28346" lon="6.80431">
        <ele>1128</ele>
        <time>2019-08-14T17:50:25Z</time>
      </trkpt>
      <trkpt lat="46.28344" lon="6.80433">
        <ele>1129</ele>
        <time>2019-08-14T17:50:28Z</time>
      </trkpt>
      <trkpt lat="46.28344" lon="6.80438">
        <ele>1128</ele>
        <time>2019-08-14T17:50:33Z</time>
      </trkpt>
      <trkpt lat="46.28355" lon="6.80471">
        <ele>1121</ele>
        <time>2019-08-14T17:51:07Z</time>
      </trkpt>
      <trkpt lat="46.28357" lon="6.80481">
        <ele>1119</ele>
        <time>2019-08-14T17:51:16Z</time>
      </trkpt>
      <trkpt lat="46.28358" lon="6.80491">
        <ele>1118</ele>
        <time>2019-08-14T17:51:26Z</time>
      </trkpt>
      <trkpt lat="46.28359" lon="6.805">
        <ele>1117</ele>
        <time>2019-08-14T17:51:34Z</time>
      </trkpt>
      <trkpt lat="46.28358" lon="6.80509">
        <ele>1116</ele>
        <time>2019-08-14T17:51:42Z</time>
      </trkpt>
      <trkpt lat="46.28357" lon="6.80515">
        <ele>1115</ele>
        <time>2019-08-14T17:51:48Z</time>
      </trkpt>
      <trkpt lat="46.28354" lon="6.80522">
        <ele>1115</ele>
        <time>2019-08-14T17:51:56Z</time>
      </trkpt>
      <trkpt lat="46.28334" lon="6.80558">
        <ele>1118</ele>
        <time>2019-08-14T17:52:38Z</time>
      </trkpt>
      <trkpt lat="46.28329" lon="6.80567">
        <ele>1118</ele>
        <time>2019-08-14T17:52:49Z</time>
      </trkpt>
      <trkpt lat="46.28325" lon="6.80573">
        <ele>1119</ele>
        <time>2019-08-14T17:52:57Z</time>
      </trkpt>
      <trkpt lat="46.28319" lon="6.80577">
        <ele>1120</ele>
        <time>2019-08-14T17:53:06Z</time>
      </trkpt>
      <trkpt lat="46.28316" lon="6.80577">
        <ele>1121</ele>
        <time>2019-08-14T17:53:10Z</time>
      </trkpt>
      <trkpt lat="46.28314" lon="6.80572">
        <ele>1122</ele>
        <time>2019-08-14T17:53:15Z</time>
      </trkpt>
      <trkpt lat="46.28314" lon="6.80567">
        <ele>1123</ele>
        <time>2019-08-14T17:53:19Z</time>
      </trkpt>
      <trkpt lat="46.28317" lon="6.80537">
        <ele>1126</ele>
        <time>2019-08-14T17:53:47Z</time>
      </trkpt>
      <trkpt lat="46.28317" lon="6.80532">
        <ele>1127</ele>
        <time>2019-08-14T17:53:52Z</time>
      </trkpt>
      <trkpt lat="46.28315" lon="6.80526">
        <ele>1128</ele>
        <time>2019-08-14T17:53:58Z</time>
      </trkpt>
      <trkpt lat="46.28312" lon="6.80521">
        <ele>1130</ele>
        <time>2019-08-14T17:54:04Z</time>
      </trkpt>
      <trkpt lat="46.28311" lon="6.80516">
        <ele>1131</ele>
        <time>2019-08-14T17:54:09Z</time>
      </trkpt>
      <trkpt lat="46.28311" lon="6.8051">
        <ele>1132</ele>
        <time>2019-08-14T17:54:15Z</time>
      </trkpt>
      <trkpt lat="46.28312" lon="6.805">
        <ele>1133</ele>
        <time>2019-08-14T17:54:24Z</time>
      </trkpt>
      <trkpt lat="46.28311" lon="6.80491">
        <ele>1134</ele>
        <time>2019-08-14T17:54:32Z</time>
      </trkpt>
      <trkpt lat="46.2831" lon="6.80487">
        <ele>1135</ele>
        <time>2019-08-14T17:54:36Z</time>
      </trkpt>
      <trkpt lat="46.28308" lon="6.80482">
        <ele>1136</ele>
        <time>2019-08-14T17:54:42Z</time>
      </trkpt>
      <trkpt lat="46.28305" lon="6.80478">
        <ele>1137</ele>
        <time>2019-08-14T17:54:47Z</time>
      </trkpt>
      <trkpt lat="46.28301" lon="6.80475">
        <ele>1138</ele>
        <time>2019-08-14T17:54:53Z</time>
      </trkpt>
      <trkpt lat="46.28297" lon="6.80474">
        <ele>1139</ele>
        <time>2019-08-14T17:54:58Z</time>
      </trkpt>
      <trkpt lat="46.28293" lon="6.80475">
        <ele>1140</ele>
        <time>2019-08-14T17:55:04Z</time>
      </trkpt>
      <trkpt lat="46.28289" lon="6.80478">
        <ele>1141</ele>
        <time>2019-08-14T17:55:10Z</time>
      </trkpt>
      <trkpt lat="46.28281" lon="6.80467">
        <ele>1144</ele>
        <time>2019-08-14T17:55:25Z</time>
      </trkpt>
      <trkpt lat="46.28279" lon="6.80443">
        <ele>1148</ele>
        <time>2019-08-14T17:55:47Z</time>
      </trkpt>
      <trkpt lat="46.2828" lon="6.80413">
        <ele>1151</ele>
        <time>2019-08-14T17:56:15Z</time>
      </trkpt>
      <trkpt lat="46.28255" lon="6.80375">
        <ele>1165</ele>
        <time>2019-08-14T17:57:03Z</time>
      </trkpt>
      <trkpt lat="46.28229" lon="6.80338">
        <ele>1177</ele>
        <time>2019-08-14T17:57:52Z</time>
      </trkpt>
      <trkpt lat="46.28203" lon="6.80301">
        <ele>1192</ele>
        <time>2019-08-14T17:58:40Z</time>
      </trkpt>
      <trkpt lat="46.28179" lon="6.80284">
        <ele>1199</ele>
        <time>2019-08-14T17:59:16Z</time>
      </trkpt>
      <trkpt lat="46.28122" lon="6.80235">
        <ele>1220</ele>
        <time>2019-08-14T18:00:44Z</time>
      </trkpt>
      <trkpt lat="46.28095" lon="6.80232">
        <ele>1228</ele>
        <time>2019-08-14T18:01:21Z</time>
      </trkpt>
      <trkpt lat="46.28082" lon="6.80242">
        <ele>1231</ele>
        <time>2019-08-14T18:01:40Z</time>
      </trkpt>
      <trkpt lat="46.2808" lon="6.8025">
        <ele>1231</ele>
        <time>2019-08-14T18:01:48Z</time>
      </trkpt>
      <trkpt lat="46.2808" lon="6.80265">
        <ele>1229</ele>
        <time>2019-08-14T18:02:02Z</time>
      </trkpt>
      <trkpt lat="46.28083" lon="6.80277">
        <ele>1226</ele>
        <time>2019-08-14T18:02:14Z</time>
      </trkpt>
      <trkpt lat="46.28084" lon="6.80295">
        <ele>1224</ele>
        <time>2019-08-14T18:02:30Z</time>
      </trkpt>
      <trkpt lat="46.28084" lon="6.80306">
        <ele>1223</ele>
        <time>2019-08-14T18:02:40Z</time>
      </trkpt>
      <trkpt lat="46.28082" lon="6.80321">
        <ele>1222</ele>
        <time>2019-08-14T18:02:55Z</time>
      </trkpt>
      <trkpt lat="46.28076" lon="6.80346">
        <ele>1221</ele>
        <time>2019-08-14T18:03:19Z</time>
      </trkpt>
      <trkpt lat="46.28073" lon="6.80355">
        <ele>1221</ele>
        <time>2019-08-14T18:03:28Z</time>
      </trkpt>
      <trkpt lat="46.2805" lon="6.80398">
        <ele>1223</ele>
        <time>2019-08-14T18:04:18Z</time>
      </trkpt>
      <trkpt lat="46.28028" lon="6.80441">
        <ele>1225</ele>
        <time>2019-08-14T18:05:08Z</time>
      </trkpt>
      <trkpt lat="46.27997" lon="6.80431">
        <ele>1237</ele>
        <time>2019-08-14T18:05:50Z</time>
      </trkpt>
      <trkpt lat="46.27969" lon="6.80459">
        <ele>1242</ele>
        <time>2019-08-14T18:06:36Z</time>
      </trkpt>
      <trkpt lat="46.27947" lon="6.80449">
        <ele>1251</ele>
        <time>2019-08-14T18:07:06Z</time>
      </trkpt>
      <trkpt lat="46.27925" lon="6.8044">
        <ele>1260</ele>
        <time>2019-08-14T18:07:37Z</time>
      </trkpt>
      <trkpt lat="46.27923" lon="6.80437">
        <ele>1261</ele>
        <time>2019-08-14T18:07:41Z</time>
      </trkpt>
      <trkpt lat="46.27915" lon="6.80411">
        <ele>1270</ele>
        <time>2019-08-14T18:08:07Z</time>
      </trkpt>
      <trkpt lat="46.27906" lon="6.80421">
        <ele>1269</ele>
        <time>2019-08-14T18:08:22Z</time>
      </trkpt>
      <trkpt lat="46.27886" lon="6.80419">
        <ele>1275</ele>
        <time>2019-08-14T18:08:49Z</time>
      </trkpt>
      <trkpt lat="46.27865" lon="6.80398">
        <ele>1289</ele>
        <time>2019-08-14T18:09:23Z</time>
      </trkpt>
      <trkpt lat="46.27862" lon="6.80395">
        <ele>1291</ele>
        <time>2019-08-14T18:09:28Z</time>
      </trkpt>
      <trkpt lat="46.27844" lon="6.80372">
        <ele>1304</ele>
        <time>2019-08-14T18:10:00Z</time>
      </trkpt>
      <trkpt lat="46.27801" lon="6.80363">
        <ele>1319</ele>
        <time>2019-08-14T18:10:58Z</time>
      </trkpt>
      <trkpt lat="46.27785" lon="6.80387">
        <ele>1317</ele>
        <time>2019-08-14T18:11:28Z</time>
      </trkpt>
      <trkpt lat="46.27778" lon="6.80428">
        <ele>1309</ele>
        <time>2019-08-14T18:12:07Z</time>
      </trkpt>
      <trkpt lat="46.2776" lon="6.80453">
        <ele>1312</ele>
        <time>2019-08-14T18:12:41Z</time>
      </trkpt>
      <trkpt lat="46.27751" lon="6.80449">
        <ele>1316</ele>
        <time>2019-08-14T18:12:53Z</time>
      </trkpt>
      <trkpt lat="46.27739" lon="6.80404">
        <ele>1328</ele>
        <time>2019-08-14T18:13:38Z</time>
      </trkpt>
      <trkpt lat="46.27729" lon="6.80393">
        <ele>1334</ele>
        <time>2019-08-14T18:13:55Z</time>
      </trkpt>
      <trkpt lat="46.27706" lon="6.80417">
        <ele>1338</ele>
        <time>2019-08-14T18:14:32Z</time>
      </trkpt>
      <trkpt lat="46.27695" lon="6.80432">
        <ele>1339</ele>
        <time>2019-08-14T18:14:53Z</time>
      </trkpt>
      <trkpt lat="46.27659" lon="6.80428">
        <ele>1353</ele>
        <time>2019-08-14T18:15:41Z</time>
      </trkpt>
      <trkpt lat="46.27616" lon="6.80445">
        <ele>1365</ele>
        <time>2019-08-14T18:16:40Z</time>
      </trkpt>
      <trkpt lat="46.27603" lon="6.80478">
        <ele>1362</ele>
        <time>2019-08-14T18:17:15Z</time>
      </trkpt>
      <trkpt lat="46.27589" lon="6.80511">
        <ele>1359</ele>
        <time>2019-08-14T18:17:51Z</time>
      </trkpt>
      <trkpt lat="46.27551" lon="6.80526">
        <ele>1373</ele>
        <time>2019-08-14T18:18:44Z</time>
      </trkpt>
      <trkpt lat="46.27522" lon="6.80543">
        <ele>1383</ele>
        <time>2019-08-14T18:19:25Z</time>
      </trkpt>
      <trkpt lat="46.27497" lon="6.80583">
        <ele>1385</ele>
        <time>2019-08-14T18:20:15Z</time>
      </trkpt>
      <trkpt lat="46.27472" lon="6.80623">
        <ele>1386</ele>
        <time>2019-08-14T18:21:05Z</time>
      </trkpt>
      <trkpt lat="46.27436" lon="6.80629">
        <ele>1397</ele>
        <time>2019-08-14T18:21:53Z</time>
      </trkpt>
      <trkpt lat="46.27414" lon="6.80629">
        <ele>1405</ele>
        <time>2019-08-14T18:22:23Z</time>
      </trkpt>
      <trkpt lat="46.27396" lon="6.8064">
        <ele>1409</ele>
        <time>2019-08-14T18:22:49Z</time>
      </trkpt>
      <trkpt lat="46.27353" lon="6.80638">
        <ele>1425</ele>
        <time>2019-08-14T18:23:46Z</time>
      </trkpt>
      <trkpt lat="46.27331" lon="6.80651">
        <ele>1429</ele>
        <time>2019-08-14T18:24:18Z</time>
      </trkpt>
      <trkpt lat="46.27288" lon="6.80634">
        <ele>1454</ele>
        <time>2019-08-14T18:25:17Z</time>
      </trkpt>
      <trkpt lat="46.27248" lon="6.80659">
        <ele>1465</ele>
        <time>2019-08-14T18:26:15Z</time>
      </trkpt>
      <trkpt lat="46.2718" lon="6.80734">
        <ele>1478</ele>
        <time>2019-08-14T18:28:09Z</time>
      </trkpt>
      <trkpt lat="46.27171" lon="6.80758">
        <ele>1476</ele>
        <time>2019-08-14T18:28:35Z</time>
      </trkpt>
      <trkpt lat="46.2715" lon="6.80773">
        <ele>1481</ele>
        <time>2019-08-14T18:29:06Z</time>
      </trkpt>
      <trkpt lat="46.27123" lon="6.80777">
        <ele>1491</ele>
        <time>2019-08-14T18:29:42Z</time>
      </trkpt>
      <trkpt lat="46.27091" lon="6.80782">
        <ele>1504</ele>
        <time>2019-08-14T18:30:25Z</time>
      </trkpt>
      <trkpt lat="46.27086" lon="6.80803">
        <ele>1507</ele>
        <time>2019-08-14T18:30:46Z</time>
      </trkpt>
      <trkpt lat="46.27079" lon="6.80837">
        <ele>1509</ele>
        <time>2019-08-14T18:31:18Z</time>
      </trkpt>
      <trkpt lat="46.27067" lon="6.8085">
        <ele>1510</ele>
        <time>2019-08-14T18:31:38Z</time>
      </trkpt>
      <trkpt lat="46.27054" lon="6.80849">
        <ele>1511</ele>
        <time>2019-08-14T18:31:56Z</time>
      </trkpt>
      <trkpt lat="46.27042" lon="6.80848">
        <ele>1513</ele>
        <time>2019-08-14T18:32:12Z</time>
      </trkpt>
      <trkpt lat="46.27023" lon="6.80878">
        <ele>1516</ele>
        <time>2019-08-14T18:32:49Z</time>
      </trkpt>
      <trkpt lat="46.2702" lon="6.80902">
        <ele>1518</ele>
        <time>2019-08-14T18:33:12Z</time>
      </trkpt>
      <trkpt lat="46.26983" lon="6.80925">
        <ele>1528</ele>
        <time>2019-08-14T18:34:05Z</time>
      </trkpt>
      <trkpt lat="46.26966" lon="6.80945">
        <ele>1533</ele>
        <time>2019-08-14T18:34:35Z</time>
      </trkpt>
      <trkpt lat="46.26965" lon="6.80938">
        <ele>1533</ele>
        <time>2019-08-14T18:34:41Z</time>
      </trkpt>
      <trkpt lat="46.26963" lon="6.80934">
        <ele>1533</ele>
        <time>2019-08-14T18:34:46Z</time>
      </trkpt>
      <trkpt lat="46.26961" lon="6.80932">
        <ele>1534</ele>
        <time>2019-08-14T18:34:49Z</time>
      </trkpt>
      <trkpt lat="46.2695" lon="6.80929">
        <ele>1536</ele>
        <time>2019-08-14T18:35:04Z</time>
      </trkpt>
      <trkpt lat="46.26948" lon="6.80928">
        <ele>1537</ele>
        <time>2019-08-14T18:35:07Z</time>
      </trkpt>
      <trkpt lat="46.26946" lon="6.80925">
        <ele>1537</ele>
        <time>2019-08-14T18:35:11Z</time>
      </trkpt>
      <trkpt lat="46.26944" lon="6.80921">
        <ele>1537</ele>
        <time>2019-08-14T18:35:15Z</time>
      </trkpt>
      <trkpt lat="46.26928" lon="6.80855">
        <ele>1536</ele>
        <time>2019-08-14T18:36:20Z</time>
      </trkpt>
      <trkpt lat="46.26927" lon="6.8085">
        <ele>1536</ele>
        <time>2019-08-14T18:36:25Z</time>
      </trkpt>
      <trkpt lat="46.26927" lon="6.80834">
        <ele>1535</ele>
        <time>2019-08-14T18:36:39Z</time>
      </trkpt>
      <trkpt lat="46.26933" lon="6.8079">
        <ele>1536</ele>
        <time>2019-08-14T18:37:21Z</time>
      </trkpt>
      <trkpt lat="46.2694" lon="6.80747">
        <ele>1537</ele>
        <time>2019-08-14T18:38:01Z</time>
      </trkpt>
      <trkpt lat="46.26941" lon="6.80741">
        <ele>1538</ele>
        <time>2019-08-14T18:38:07Z</time>
      </trkpt>
      <trkpt lat="46.26943" lon="6.80736">
        <ele>1538</ele>
        <time>2019-08-14T18:38:12Z</time>
      </trkpt>
      <trkpt lat="46.26944" lon="6.80732">
        <ele>1538</ele>
        <time>2019-08-14T18:38:16Z</time>
      </trkpt>
      <trkpt lat="46.26971" lon="6.80688">
        <ele>1539</ele>
        <time>2019-08-14T18:39:11Z</time>
      </trkpt>
      <trkpt lat="46.26974" lon="6.80683">
        <ele>1539</ele>
        <time>2019-08-14T18:39:17Z</time>
      </trkpt>
      <trkpt lat="46.26981" lon="6.80666">
        <ele>1541</ele>
        <time>2019-08-14T18:39:35Z</time>
      </trkpt>
      <trkpt lat="46.26984" lon="6.8066">
        <ele>1543</ele>
        <time>2019-08-14T18:39:42Z</time>
      </trkpt>
      <trkpt lat="46.27009" lon="6.80629">
        <ele>1552</ele>
        <time>2019-08-14T18:40:26Z</time>
      </trkpt>
      <trkpt lat="46.27013" lon="6.80626">
        <ele>1553</ele>
        <time>2019-08-14T18:40:32Z</time>
      </trkpt>
      <trkpt lat="46.27016" lon="6.80623">
        <ele>1554</ele>
        <time>2019-08-14T18:40:37Z</time>
      </trkpt>
      <trkpt lat="46.27029" lon="6.8062">
        <ele>1553</ele>
        <time>2019-08-14T18:40:54Z</time>
      </trkpt>
      <trkpt lat="46.27033" lon="6.80619">
        <ele>1553</ele>
        <time>2019-08-14T18:41:00Z</time>
      </trkpt>
      <trkpt lat="46.27044" lon="6.80614">
        <ele>1554</ele>
        <time>2019-08-14T18:41:15Z</time>
      </trkpt>
      <trkpt lat="46.27074" lon="6.80605">
        <ele>1553</ele>
        <time>2019-08-14T18:41:56Z</time>
      </trkpt>
      <trkpt lat="46.27083" lon="6.80605">
        <ele>1551</ele>
        <time>2019-08-14T18:42:08Z</time>
      </trkpt>
      <trkpt lat="46.27087" lon="6.80606">
        <ele>1549</ele>
        <time>2019-08-14T18:42:13Z</time>
      </trkpt>
      <trkpt lat="46.27107" lon="6.80617">
        <ele>1539</ele>
        <time>2019-08-14T18:42:42Z</time>
      </trkpt>
      <trkpt lat="46.27111" lon="6.80618">
        <ele>1537</ele>
        <time>2019-08-14T18:42:47Z</time>
      </trkpt>
      <trkpt lat="46.27125" lon="6.80619">
        <ele>1533</ele>
        <time>2019-08-14T18:43:06Z</time>
      </trkpt>
      <trkpt lat="46.27129" lon="6.8062">
        <ele>1532</ele>
        <time>2019-08-14T18:43:11Z</time>
      </trkpt>
      <trkpt lat="46.27137" lon="6.80618">
        <ele>1531</ele>
        <time>2019-08-14T18:43:22Z</time>
      </trkpt>
      <trkpt lat="46.2714" lon="6.80616">
        <ele>1531</ele>
        <time>2019-08-14T18:43:27Z</time>
      </trkpt>
      <trkpt lat="46.27143" lon="6.80612">
        <ele>1531</ele>
        <time>2019-08-14T18:43:32Z</time>
      </trkpt>
      <trkpt lat="46.27171" lon="6.80565">
        <ele>1539</ele>
        <time>2019-08-14T18:44:29Z</time>
      </trkpt>
      <trkpt lat="46.27177" lon="6.8055">
        <ele>1539</ele>
        <time>2019-08-14T18:44:45Z</time>
      </trkpt>
      <trkpt lat="46.27181" lon="6.80541">
        <ele>1539</ele>
        <time>2019-08-14T18:44:55Z</time>
      </trkpt>
      <trkpt lat="46.27192" lon="6.805">
        <ele>1544</ele>
        <time>2019-08-14T18:45:36Z</time>
      </trkpt>
      <trkpt lat="46.27194" lon="6.80491">
        <ele>1543</ele>
        <time>2019-08-14T18:45:45Z</time>
      </trkpt>
      <trkpt lat="46.27196" lon="6.80474">
        <ele>1541</ele>
        <time>2019-08-14T18:46:00Z</time>
      </trkpt>
      <trkpt lat="46.27196" lon="6.80466">
        <ele>1541</ele>
        <time>2019-08-14T18:46:08Z</time>
      </trkpt>
      <trkpt lat="46.27195" lon="6.80459">
        <ele>1541</ele>
        <time>2019-08-14T18:46:14Z</time>
      </trkpt>
      <trkpt lat="46.27194" lon="6.80451">
        <ele>1541</ele>
        <time>2019-08-14T18:46:22Z</time>
      </trkpt>
      <trkpt lat="46.27192" lon="6.80444">
        <ele>1542</ele>
        <time>2019-08-14T18:46:29Z</time>
      </trkpt>
      <trkpt lat="46.2719" lon="6.80437">
        <ele>1542</ele>
        <time>2019-08-14T18:46:36Z</time>
      </trkpt>
      <trkpt lat="46.27187" lon="6.80431">
        <ele>1543</ele>
        <time>2019-08-14T18:46:43Z</time>
      </trkpt>
      <trkpt lat="46.27172" lon="6.80406">
        <ele>1544</ele>
        <time>2019-08-14T18:47:13Z</time>
      </trkpt>
      <trkpt lat="46.27156" lon="6.80382">
        <ele>1542</ele>
        <time>2019-08-14T18:47:44Z</time>
      </trkpt>
      <trkpt lat="46.27153" lon="6.80378">
        <ele>1542</ele>
        <time>2019-08-14T18:47:49Z</time>
      </trkpt>
      <trkpt lat="46.27149" lon="6.80374">
        <ele>1542</ele>
        <time>2019-08-14T18:47:56Z</time>
      </trkpt>
      <trkpt lat="46.27146" lon="6.80372">
        <ele>1543</ele>
        <time>2019-08-14T18:48:00Z</time>
      </trkpt>
      <trkpt lat="46.27129" lon="6.80366">
        <ele>1549</ele>
        <time>2019-08-14T18:48:24Z</time>
      </trkpt>
      <trkpt lat="46.27125" lon="6.80363">
        <ele>1549</ele>
        <time>2019-08-14T18:48:30Z</time>
      </trkpt>
      <trkpt lat="46.27121" lon="6.8036">
        <ele>1550</ele>
        <time>2019-08-14T18:48:36Z</time>
      </trkpt>
      <trkpt lat="46.2709" lon="6.80326">
        <ele>1548</ele>
        <time>2019-08-14T18:49:28Z</time>
      </trkpt>
      <trkpt lat="46.27086" lon="6.80321">
        <ele>1547</ele>
        <time>2019-08-14T18:49:35Z</time>
      </trkpt>
      <trkpt lat="46.27081" lon="6.80317">
        <ele>1546</ele>
        <time>2019-08-14T18:49:42Z</time>
      </trkpt>
      <trkpt lat="46.27077" lon="6.80313">
        <ele>1545</ele>
        <time>2019-08-14T18:49:49Z</time>
      </trkpt>
      <trkpt lat="46.27055" lon="6.80298">
        <ele>1542</ele>
        <time>2019-08-14T18:50:21Z</time>
      </trkpt>
      <trkpt lat="46.27033" lon="6.80283">
        <ele>1540</ele>
        <time>2019-08-14T18:50:54Z</time>
      </trkpt>
      <trkpt lat="46.27021" lon="6.8027">
        <ele>1536</ele>
        <time>2019-08-14T18:51:14Z</time>
      </trkpt>
      <trkpt lat="46.27014" lon="6.80263">
        <ele>1534</ele>
        <time>2019-08-14T18:51:25Z</time>
      </trkpt>
      <trkpt lat="46.26992" lon="6.80238">
        <ele>1529</ele>
        <time>2019-08-14T18:52:02Z</time>
      </trkpt>
      <trkpt lat="46.26987" lon="6.80232">
        <ele>1528</ele>
        <time>2019-08-14T18:52:11Z</time>
      </trkpt>
      <trkpt lat="46.26983" lon="6.80225">
        <ele>1526</ele>
        <time>2019-08-14T18:52:19Z</time>
      </trkpt>
      <trkpt lat="46.26958" lon="6.80189">
        <ele>1520</ele>
        <time>2019-08-14T18:53:07Z</time>
      </trkpt>
      <trkpt lat="46.26939" lon="6.80155">
        <ele>1516</ele>
        <time>2019-08-14T18:53:47Z</time>
      </trkpt>
      <trkpt lat="46.26936" lon="6.80149">
        <ele>1516</ele>
        <time>2019-08-14T18:53:54Z</time>
      </trkpt>
      <trkpt lat="46.26933" lon="6.80142">
        <ele>1515</ele>
        <time>2019-08-14T18:54:01Z</time>
      </trkpt>
      <trkpt lat="46.26931" lon="6.80136">
        <ele>1515</ele>
        <time>2019-08-14T18:54:07Z</time>
      </trkpt>
      <trkpt lat="46.26924" lon="6.80112">
        <ele>1512</ele>
        <time>2019-08-14T18:54:31Z</time>
      </trkpt>
      <trkpt lat="46.26922" lon="6.80107">
        <ele>1512</ele>
        <time>2019-08-14T18:54:37Z</time>
      </trkpt>
      <trkpt lat="46.26921" lon="6.80102">
        <ele>1511</ele>
        <time>2019-08-14T18:54:42Z</time>
      </trkpt>
      <trkpt lat="46.26921" lon="6.80093">
        <ele>1510</ele>
        <time>2019-08-14T18:54:50Z</time>
      </trkpt>
      <trkpt lat="46.26923" lon="6.80088">
        <ele>1508</ele>
        <time>2019-08-14T18:54:55Z</time>
      </trkpt>
      <trkpt lat="46.26918" lon="6.80084">
        <ele>1509</ele>
        <time>2019-08-14T18:55:03Z</time>
      </trkpt>
      <trkpt lat="46.26911" lon="6.80072">
        <ele>1511</ele>
        <time>2019-08-14T18:55:17Z</time>
      </trkpt>
      <trkpt lat="46.26892" lon="6.80042">
        <ele>1518</ele>
        <time>2019-08-14T18:55:55Z</time>
      </trkpt>
      <trkpt lat="46.26871" lon="6.80038">
        <ele>1528</ele>
        <time>2019-08-14T18:56:23Z</time>
      </trkpt>
      <trkpt lat="46.26854" lon="6.80013">
        <ele>1534</ele>
        <time>2019-08-14T18:56:55Z</time>
      </trkpt>
      <trkpt lat="46.26847" lon="6.80057">
        <ele>1543</ele>
        <time>2019-08-14T18:57:37Z</time>
      </trkpt>
      <trkpt lat="46.26837" lon="6.8011">
        <ele>1554</ele>
        <time>2019-08-14T18:58:28Z</time>
      </trkpt>
      <trkpt lat="46.26834" lon="6.80116">
        <ele>1556</ele>
        <time>2019-08-14T18:58:35Z</time>
      </trkpt>
      <trkpt lat="46.26831" lon="6.80118">
        <ele>1558</ele>
        <time>2019-08-14T18:58:39Z</time>
      </trkpt>
      <trkpt lat="46.26827" lon="6.80118">
        <ele>1560</ele>
        <time>2019-08-14T18:58:44Z</time>
      </trkpt>
      <trkpt lat="46.26824" lon="6.80116">
        <ele>1561</ele>
        <time>2019-08-14T18:58:49Z</time>
      </trkpt>
      <trkpt lat="46.26809" lon="6.80102">
        <ele>1566</ele>
        <time>2019-08-14T18:59:13Z</time>
      </trkpt>
      <trkpt lat="46.26796" lon="6.80101">
        <ele>1572</ele>
        <time>2019-08-14T18:59:30Z</time>
      </trkpt>
      <trkpt lat="46.26791" lon="6.80094">
        <ele>1573</ele>
        <time>2019-08-14T18:59:39Z</time>
      </trkpt>
      <trkpt lat="46.26793" lon="6.80081">
        <ele>1571</ele>
        <time>2019-08-14T18:59:52Z</time>
      </trkpt>
      <trkpt lat="46.26792" lon="6.80076">
        <ele>1571</ele>
        <time>2019-08-14T18:59:56Z</time>
      </trkpt>
      <trkpt lat="46.26786" lon="6.80056">
        <ele>1571</ele>
        <time>2019-08-14T19:00:16Z</time>
      </trkpt>
      <trkpt lat="46.26775" lon="6.80055">
        <ele>1576</ele>
        <time>2019-08-14T19:00:31Z</time>
      </trkpt>
      <trkpt lat="46.26771" lon="6.8006">
        <ele>1579</ele>
        <time>2019-08-14T19:00:38Z</time>
      </trkpt>
      <trkpt lat="46.26765" lon="6.8006">
        <ele>1581</ele>
        <time>2019-08-14T19:00:46Z</time>
      </trkpt>
      <trkpt lat="46.26752" lon="6.80057">
        <ele>1587</ele>
        <time>2019-08-14T19:01:04Z</time>
      </trkpt>
      <trkpt lat="46.2675" lon="6.80068">
        <ele>1589</ele>
        <time>2019-08-14T19:01:14Z</time>
      </trkpt>
      <trkpt lat="46.26751" lon="6.80076">
        <ele>1589</ele>
        <time>2019-08-14T19:01:22Z</time>
      </trkpt>
      <trkpt lat="46.26746" lon="6.80106">
        <ele>1595</ele>
        <time>2019-08-14T19:01:50Z</time>
      </trkpt>
      <trkpt lat="46.26747" lon="6.80123">
        <ele>1597</ele>
        <time>2019-08-14T19:02:06Z</time>
      </trkpt>
      <trkpt lat="46.26724" lon="6.80106">
        <ele>1609</ele>
        <time>2019-08-14T19:02:40Z</time>
      </trkpt>
      <trkpt lat="46.26707" lon="6.80079">
        <ele>1614</ele>
        <time>2019-08-14T19:03:14Z</time>
      </trkpt>
      <trkpt lat="46.26705" lon="6.80068">
        <ele>1614</ele>
        <time>2019-08-14T19:03:25Z</time>
      </trkpt>
      <trkpt lat="46.26677" lon="6.80042">
        <ele>1629</ele>
        <time>2019-08-14T19:04:09Z</time>
      </trkpt>
      <trkpt lat="46.26644" lon="6.80003">
        <ele>1650</ele>
        <time>2019-08-14T19:05:06Z</time>
      </trkpt>
      <trkpt lat="46.26641" lon="6.79999">
        <ele>1652</ele>
        <time>2019-08-14T19:05:11Z</time>
      </trkpt>
      <trkpt lat="46.26635" lon="6.79981">
        <ele>1656</ele>
        <time>2019-08-14T19:05:30Z</time>
      </trkpt>
      <trkpt lat="46.26633" lon="6.79976">
        <ele>1657</ele>
        <time>2019-08-14T19:05:35Z</time>
      </trkpt>
      <trkpt lat="46.26626" lon="6.79966">
        <ele>1662</ele>
        <time>2019-08-14T19:05:48Z</time>
      </trkpt>
      <trkpt lat="46.26624" lon="6.79958">
        <ele>1663</ele>
        <time>2019-08-14T19:05:56Z</time>
      </trkpt>
      <trkpt lat="46.26622" lon="6.79957">
        <ele>1665</ele>
        <time>2019-08-14T19:05:59Z</time>
      </trkpt>
      <trkpt lat="46.26619" lon="6.79959">
        <ele>1667</ele>
        <time>2019-08-14T19:06:03Z</time>
      </trkpt>
      <trkpt lat="46.26617" lon="6.79968">
        <ele>1669</ele>
        <time>2019-08-14T19:06:12Z</time>
      </trkpt>
      <trkpt lat="46.26615" lon="6.79971">
        <ele>1671</ele>
        <time>2019-08-14T19:06:16Z</time>
      </trkpt>
      <trkpt lat="46.26612" lon="6.7997">
        <ele>1673</ele>
        <time>2019-08-14T19:06:20Z</time>
      </trkpt>
      <trkpt lat="46.26609" lon="6.79962">
        <ele>1675</ele>
        <time>2019-08-14T19:06:28Z</time>
      </trkpt>
      <trkpt lat="46.26606" lon="6.79963">
        <ele>1677</ele>
        <time>2019-08-14T19:06:33Z</time>
      </trkpt>
      <trkpt lat="46.26602" lon="6.79953">
        <ele>1679</ele>
        <time>2019-08-14T19:06:43Z</time>
      </trkpt>
      <trkpt lat="46.26599" lon="6.79952">
        <ele>1682</ele>
        <time>2019-08-14T19:06:47Z</time>
      </trkpt>
      <trkpt lat="46.26597" lon="6.7995">
        <ele>1683</ele>
        <time>2019-08-14T19:06:51Z</time>
      </trkpt>
      <trkpt lat="46.26567" lon="6.79876">
        <ele>1700</ele>
        <time>2019-08-14T19:08:10Z</time>
      </trkpt>
      <trkpt lat="46.26565" lon="6.79871">
        <ele>1701</ele>
        <time>2019-08-14T19:08:15Z</time>
      </trkpt>
      <trkpt lat="46.26558" lon="6.79841">
        <ele>1702</ele>
        <time>2019-08-14T19:08:44Z</time>
      </trkpt>
      <trkpt lat="46.26556" lon="6.79833">
        <ele>1702</ele>
        <time>2019-08-14T19:08:52Z</time>
      </trkpt>
      <trkpt lat="46.26552" lon="6.79824">
        <ele>1706</ele>
        <time>2019-08-14T19:09:02Z</time>
      </trkpt>
      <trkpt lat="46.26548" lon="6.79812">
        <ele>1710</ele>
        <time>2019-08-14T19:09:14Z</time>
      </trkpt>
      <trkpt lat="46.26547" lon="6.79806">
        <ele>1711</ele>
        <time>2019-08-14T19:09:20Z</time>
      </trkpt>
      <trkpt lat="46.26547" lon="6.79795">
        <ele>1712</ele>
        <time>2019-08-14T19:09:30Z</time>
      </trkpt>
      <trkpt lat="46.26547" lon="6.79788">
        <ele>1713</ele>
        <time>2019-08-14T19:09:37Z</time>
      </trkpt>
      <trkpt lat="46.26549" lon="6.79766">
        <ele>1715</ele>
        <time>2019-08-14T19:09:57Z</time>
      </trkpt>
      <trkpt lat="46.2655" lon="6.7976">
        <ele>1715</ele>
        <time>2019-08-14T19:10:03Z</time>
      </trkpt>
      <trkpt lat="46.26549" lon="6.79715">
        <ele>1724</ele>
        <time>2019-08-14T19:10:44Z</time>
      </trkpt>
      <trkpt lat="46.26549" lon="6.79709">
        <ele>1726</ele>
        <time>2019-08-14T19:10:50Z</time>
      </trkpt>
      <trkpt lat="46.26557" lon="6.79665">
        <ele>1731</ele>
        <time>2019-08-14T19:11:32Z</time>
      </trkpt>
      <trkpt lat="46.26565" lon="6.79621">
        <ele>1733</ele>
        <time>2019-08-14T19:12:14Z</time>
      </trkpt>
      <trkpt lat="46.26574" lon="6.79561">
        <ele>1739</ele>
        <time>2019-08-14T19:13:10Z</time>
      </trkpt>
      <trkpt lat="46.26582" lon="6.79501">
        <ele>1749</ele>
        <time>2019-08-14T19:14:07Z</time>
      </trkpt>
      <trkpt lat="46.26593" lon="6.79464">
        <ele>1758</ele>
        <time>2019-08-14T19:14:44Z</time>
      </trkpt>
      <trkpt lat="46.26593" lon="6.79453">
        <ele>1761</ele>
        <time>2019-08-14T19:14:54Z</time>
      </trkpt>
      <trkpt lat="46.26598" lon="6.79444">
        <ele>1763</ele>
        <time>2019-08-14T19:15:05Z</time>
      </trkpt>
      <trkpt lat="46.26604" lon="6.79439">
        <ele>1764</ele>
        <time>2019-08-14T19:15:14Z</time>
      </trkpt>
      <trkpt lat="46.26608" lon="6.79438">
        <ele>1765</ele>
        <time>2019-08-14T19:15:19Z</time>
      </trkpt>
      <trkpt lat="46.26631" lon="6.79439">
        <ele>1764</ele>
        <time>2019-08-14T19:15:50Z</time>
      </trkpt>
      <trkpt lat="46.26636" lon="6.7944">
        <ele>1764</ele>
        <time>2019-08-14T19:15:57Z</time>
      </trkpt>
      <trkpt lat="46.26643" lon="6.79449">
        <ele>1762</ele>
        <time>2019-08-14T19:16:09Z</time>
      </trkpt>
      <trkpt lat="46.26648" lon="6.79453">
        <ele>1761</ele>
        <time>2019-08-14T19:16:17Z</time>
      </trkpt>
      <trkpt lat="46.26656" lon="6.7945">
        <ele>1762</ele>
        <time>2019-08-14T19:16:28Z</time>
      </trkpt>
      <trkpt lat="46.2667" lon="6.79436">
        <ele>1765</ele>
        <time>2019-08-14T19:16:51Z</time>
      </trkpt>
      <trkpt lat="46.26689" lon="6.79404">
        <ele>1776</ele>
        <time>2019-08-14T19:17:30Z</time>
      </trkpt>
      <trkpt lat="46.26708" lon="6.79373">
        <ele>1789</ele>
        <time>2019-08-14T19:18:08Z</time>
      </trkpt>
      <trkpt lat="46.2671" lon="6.79367">
        <ele>1791</ele>
        <time>2019-08-14T19:18:14Z</time>
      </trkpt>
      <trkpt lat="46.26717" lon="6.79357">
        <ele>1795</ele>
        <time>2019-08-14T19:18:27Z</time>
      </trkpt>
      <trkpt lat="46.26723" lon="6.7936">
        <ele>1795</ele>
        <time>2019-08-14T19:18:36Z</time>
      </trkpt>
      <trkpt lat="46.26725" lon="6.79358">
        <ele>1796</ele>
        <time>2019-08-14T19:18:39Z</time>
      </trkpt>
      <trkpt lat="46.26721" lon="6.79344">
        <ele>1800</ele>
        <time>2019-08-14T19:18:53Z</time>
      </trkpt>
      <trkpt lat="46.2672" lon="6.79339">
        <ele>1801</ele>
        <time>2019-08-14T19:18:58Z</time>
      </trkpt>
      <trkpt lat="46.26722" lon="6.79335">
        <ele>1803</ele>
        <time>2019-08-14T19:19:02Z</time>
      </trkpt>
      <trkpt lat="46.26722" lon="6.79328">
        <ele>1806</ele>
        <time>2019-08-14T19:19:09Z</time>
      </trkpt>
      <trkpt lat="46.26716" lon="6.79308">
        <ele>1813</ele>
        <time>2019-08-14T19:19:29Z</time>
      </trkpt>
      <trkpt lat="46.26707" lon="6.79281">
        <ele>1822</ele>
        <time>2019-08-14T19:19:56Z</time>
      </trkpt>
      <trkpt lat="46.26697" lon="6.79266">
        <ele>1825</ele>
        <time>2019-08-14T19:20:16Z</time>
      </trkpt>
      <trkpt lat="46.26688" lon="6.7925">
        <ele>1829</ele>
        <time>2019-08-14T19:20:35Z</time>
      </trkpt>
      <trkpt lat="46.26673" lon="6.79234">
        <ele>1832</ele>
        <time>2019-08-14T19:20:59Z</time>
      </trkpt>
      <trkpt lat="46.26669" lon="6.79228">
        <ele>1833</ele>
        <time>2019-08-14T19:21:07Z</time>
      </trkpt>
      <trkpt lat="46.26665" lon="6.79221">
        <ele>1835</ele>
        <time>2019-08-14T19:21:16Z</time>
      </trkpt>
      <trkpt lat="46.26665" lon="6.79213">
        <ele>1839</ele>
        <time>2019-08-14T19:21:23Z</time>
      </trkpt>
      <trkpt lat="46.26661" lon="6.79203">
        <ele>1843</ele>
        <time>2019-08-14T19:21:34Z</time>
      </trkpt>
      <trkpt lat="46.26661" lon="6.79199">
        <ele>1844</ele>
        <time>2019-08-14T19:21:37Z</time>
      </trkpt>
      <trkpt lat="46.26668" lon="6.79197">
        <ele>1845</ele>
        <time>2019-08-14T19:21:47Z</time>
      </trkpt>
      <trkpt lat="46.2667" lon="6.79193">
        <ele>1847</ele>
        <time>2019-08-14T19:21:51Z</time>
      </trkpt>
      <trkpt lat="46.26683" lon="6.7919">
        <ele>1851</ele>
        <time>2019-08-14T19:22:09Z</time>
      </trkpt>
      <trkpt lat="46.26686" lon="6.79189">
        <ele>1852</ele>
        <time>2019-08-14T19:22:13Z</time>
      </trkpt>
      <trkpt lat="46.26686" lon="6.79185">
        <ele>1854</ele>
        <time>2019-08-14T19:22:17Z</time>
      </trkpt>
      <trkpt lat="46.26689" lon="6.79178">
        <ele>1857</ele>
        <time>2019-08-14T19:22:24Z</time>
      </trkpt>
      <trkpt lat="46.26694" lon="6.79166">
        <ele>1863</ele>
        <time>2019-08-14T19:22:37Z</time>
      </trkpt>
      <trkpt lat="46.26696" lon="6.79164">
        <ele>1864</ele>
        <time>2019-08-14T19:22:40Z</time>
      </trkpt>
      <trkpt lat="46.26699" lon="6.79163">
        <ele>1865</ele>
        <time>2019-08-14T19:22:45Z</time>
      </trkpt>
      <trkpt lat="46.26701" lon="6.79161">
        <ele>1866</ele>
        <time>2019-08-14T19:22:48Z</time>
      </trkpt>
      <trkpt lat="46.26705" lon="6.79159">
        <ele>1868</ele>
        <time>2019-08-14T19:22:53Z</time>
      </trkpt>
      <trkpt lat="46.26708" lon="6.79156">
        <ele>1870</ele>
        <time>2019-08-14T19:22:58Z</time>
      </trkpt>
      <trkpt lat="46.26711" lon="6.79156">
        <ele>1871</ele>
        <time>2019-08-14T19:23:02Z</time>
      </trkpt>
      <trkpt lat="46.26714" lon="6.79158">
        <ele>1870</ele>
        <time>2019-08-14T19:23:07Z</time>
      </trkpt>
      <trkpt lat="46.26718" lon="6.79163">
        <ele>1869</ele>
        <time>2019-08-14T19:23:14Z</time>
      </trkpt>
      <trkpt lat="46.26722" lon="6.79167">
        <ele>1868</ele>
        <time>2019-08-14T19:23:20Z</time>
      </trkpt>
      <trkpt lat="46.26726" lon="6.79168">
        <ele>1869</ele>
        <time>2019-08-14T19:23:26Z</time>
      </trkpt>
      <trkpt lat="46.26736" lon="6.7917">
        <ele>1870</ele>
        <time>2019-08-14T19:23:39Z</time>
      </trkpt>
      <trkpt lat="46.26739" lon="6.7917">
        <ele>1871</ele>
        <time>2019-08-14T19:23:43Z</time>
      </trkpt>
      <trkpt lat="46.26742" lon="6.79167">
        <ele>1872</ele>
        <time>2019-08-14T19:23:48Z</time>
      </trkpt>
      <trkpt lat="46.26743" lon="6.79163">
        <ele>1874</ele>
        <time>2019-08-14T19:23:52Z</time>
      </trkpt>
      <trkpt lat="46.26742" lon="6.79159">
        <ele>1876</ele>
        <time>2019-08-14T19:23:56Z</time>
      </trkpt>
      <trkpt lat="46.2674" lon="6.79154">
        <ele>1877</ele>
        <time>2019-08-14T19:24:01Z</time>
      </trkpt>
      <trkpt lat="46.26725" lon="6.79131">
        <ele>1884</ele>
        <time>2019-08-14T19:24:30Z</time>
      </trkpt>
      <trkpt lat="46.26723" lon="6.79127">
        <ele>1885</ele>
        <time>2019-08-14T19:24:35Z</time>
      </trkpt>
      <trkpt lat="46.26715" lon="6.79121">
        <ele>1886</ele>
        <time>2019-08-14T19:24:47Z</time>
      </trkpt>
      <trkpt lat="46.26706" lon="6.79117">
        <ele>1886</ele>
        <time>2019-08-14T19:25:00Z</time>
      </trkpt>
      <trkpt lat="46.26678" lon="6.79113">
        <ele>1882</ele>
        <time>2019-08-14T19:25:37Z</time>
      </trkpt>
      <trkpt lat="46.26675" lon="6.79109">
        <ele>1883</ele>
        <time>2019-08-14T19:25:43Z</time>
      </trkpt>
      <trkpt lat="46.26663" lon="6.79108">
        <ele>1881</ele>
        <time>2019-08-14T19:25:59Z</time>
      </trkpt>
      <trkpt lat="46.26659" lon="6.79111">
        <ele>1880</ele>
        <time>2019-08-14T19:26:05Z</time>
      </trkpt>
      <trkpt lat="46.26638" lon="6.79109">
        <ele>1880</ele>
        <time>2019-08-14T19:26:33Z</time>
      </trkpt>
      <trkpt lat="46.26627" lon="6.79106">
        <ele>1880</ele>
        <time>2019-08-14T19:26:48Z</time>
      </trkpt>
      <trkpt lat="46.26619" lon="6.79107">
        <ele>1880</ele>
        <time>2019-08-14T19:26:58Z</time>
      </trkpt>
      <trkpt lat="46.266" lon="6.79109">
        <ele>1878</ele>
        <time>2019-08-14T19:27:24Z</time>
      </trkpt>
      <trkpt lat="46.26595" lon="6.79108">
        <ele>1878</ele>
        <time>2019-08-14T19:27:30Z</time>
      </trkpt>
      <trkpt lat="46.2659" lon="6.79111">
        <ele>1877</ele>
        <time>2019-08-14T19:27:38Z</time>
      </trkpt>
      <trkpt lat="46.26582" lon="6.7911">
        <ele>1877</ele>
        <time>2019-08-14T19:27:48Z</time>
      </trkpt>
      <trkpt lat="46.26578" lon="6.79114">
        <ele>1877</ele>
        <time>2019-08-14T19:27:55Z</time>
      </trkpt>
      <trkpt lat="46.26573" lon="6.79114">
        <ele>1878</ele>
        <time>2019-08-14T19:28:02Z</time>
      </trkpt>
      <trkpt lat="46.26569" lon="6.79109">
        <ele>1881</ele>
        <time>2019-08-14T19:28:09Z</time>
      </trkpt>
      <trkpt lat="46.26559" lon="6.79109">
        <ele>1884</ele>
        <time>2019-08-14T19:28:22Z</time>
      </trkpt>
      <trkpt lat="46.26554" lon="6.79114">
        <ele>1883</ele>
        <time>2019-08-14T19:28:30Z</time>
      </trkpt>
      <trkpt lat="46.26545" lon="6.79129">
        <ele>1880</ele>
        <time>2019-08-14T19:28:48Z</time>
      </trkpt>
      <trkpt lat="46.26541" lon="6.79129">
        <ele>1881</ele>
        <time>2019-08-14T19:28:54Z</time>
      </trkpt>
      <trkpt lat="46.26536" lon="6.79136">
        <ele>1879</ele>
        <time>2019-08-14T19:29:03Z</time>
      </trkpt>
      <trkpt lat="46.2653" lon="6.79138">
        <ele>1880</ele>
        <time>2019-08-14T19:29:11Z</time>
      </trkpt>
      <trkpt lat="46.26527" lon="6.79141">
        <ele>1880</ele>
        <time>2019-08-14T19:29:16Z</time>
      </trkpt>
      <trkpt lat="46.26521" lon="6.7914">
        <ele>1882</ele>
        <time>2019-08-14T19:29:24Z</time>
      </trkpt>
      <trkpt lat="46.26519" lon="6.79146">
        <ele>1880</ele>
        <time>2019-08-14T19:29:30Z</time>
      </trkpt>
      <trkpt lat="46.26516" lon="6.79147">
        <ele>1880</ele>
        <time>2019-08-14T19:29:34Z</time>
      </trkpt>
      <trkpt lat="46.26465" lon="6.79233">
        <ele>1877</ele>
        <time>2019-08-14T19:31:19Z</time>
      </trkpt>
      <trkpt lat="46.26439" lon="6.79276">
        <ele>1879</ele>
        <time>2019-08-14T19:32:12Z</time>
      </trkpt>
      <trkpt lat="46.26418" lon="6.79321">
        <ele>1881</ele>
        <time>2019-08-14T19:33:02Z</time>
      </trkpt>
      <trkpt lat="46.26391" lon="6.79364">
        <ele>1898</ele>
        <time>2019-08-14T19:33:55Z</time>
      </trkpt>
      <trkpt lat="46.26372" lon="6.79411">
        <ele>1913</ele>
        <time>2019-08-14T19:34:46Z</time>
      </trkpt>
      <trkpt lat="46.26356" lon="6.79394">
        <ele>1935</ele>
        <time>2019-08-14T19:35:12Z</time>
      </trkpt>
      <trkpt lat="46.26348" lon="6.79368">
        <ele>1946</ele>
        <time>2019-08-14T19:35:38Z</time>
      </trkpt>
      <trkpt lat="46.26325" lon="6.79362">
        <ele>1962</ele>
        <time>2019-08-14T19:36:09Z</time>
      </trkpt>
      <trkpt lat="46.26324" lon="6.79335">
        <ele>1962</ele>
        <time>2019-08-14T19:36:34Z</time>
      </trkpt>
      <trkpt lat="46.2631" lon="6.79338">
        <ele>1962</ele>
        <time>2019-08-14T19:36:53Z</time>
      </trkpt>
      <trkpt lat="46.26307" lon="6.79319">
        <ele>1961</ele>
        <time>2019-08-14T19:37:11Z</time>
      </trkpt>
      <trkpt lat="46.26294" lon="6.79321">
        <ele>1960</ele>
        <time>2019-08-14T19:37:29Z</time>
      </trkpt>
      <trkpt lat="46.26298" lon="6.79311">
        <ele>1959</ele>
        <time>2019-08-14T19:37:39Z</time>
      </trkpt>
      <trkpt lat="46.2629" lon="6.79312">
        <ele>1959</ele>
        <time>2019-08-14T19:37:50Z</time>
      </trkpt>
      <trkpt lat="46.2629" lon="6.79307">
        <ele>1958</ele>
        <time>2019-08-14T19:37:55Z</time>
      </trkpt>
      <trkpt lat="46.26294" lon="6.79301">
        <ele>1958</ele>
        <time>2019-08-14T19:38:02Z</time>
      </trkpt>
      <trkpt lat="46.26285" lon="6.79301">
        <ele>1957</ele>
        <time>2019-08-14T19:38:14Z</time>
      </trkpt>
      <trkpt lat="46.26253" lon="6.7934">
        <ele>1961</ele>
        <time>2019-08-14T19:39:10Z</time>
      </trkpt>
      <trkpt lat="46.2625" lon="6.79345">
        <ele>1961</ele>
        <time>2019-08-14T19:39:16Z</time>
      </trkpt>
      <trkpt lat="46.26248" lon="6.7936">
        <ele>1961</ele>
        <time>2019-08-14T19:39:30Z</time>
      </trkpt>
      <trkpt lat="46.2625" lon="6.79379">
        <ele>1964</ele>
        <time>2019-08-14T19:39:48Z</time>
      </trkpt>
      <trkpt lat="46.26249" lon="6.79387">
        <ele>1964</ele>
        <time>2019-08-14T19:39:56Z</time>
      </trkpt>
      <trkpt lat="46.26245" lon="6.79421">
        <ele>1965</ele>
        <time>2019-08-14T19:40:28Z</time>
      </trkpt>
      <trkpt lat="46.2624" lon="6.79454">
        <ele>1963</ele>
        <time>2019-08-14T19:40:59Z</time>
      </trkpt>
      <trkpt lat="46.26239" lon="6.79462">
        <ele>1962</ele>
        <time>2019-08-14T19:41:06Z</time>
      </trkpt>
      <trkpt lat="46.26236" lon="6.79469">
        <ele>1961</ele>
        <time>2019-08-14T19:41:14Z</time>
      </trkpt>
      <trkpt lat="46.26225" lon="6.79499">
        <ele>1958</ele>
        <time>2019-08-14T19:41:45Z</time>
      </trkpt>
      <trkpt lat="46.26175" lon="6.79589">
        <ele>1940</ele>
        <time>2019-08-14T19:43:32Z</time>
      </trkpt>
      <trkpt lat="46.2615" lon="6.79635">
        <ele>1932</ele>
        <time>2019-08-14T19:44:26Z</time>
      </trkpt>
      <trkpt lat="46.26136" lon="6.79671">
        <ele>1929</ele>
        <time>2019-08-14T19:45:04Z</time>
      </trkpt>
      <trkpt lat="46.26131" lon="6.79686">
        <ele>1927</ele>
        <time>2019-08-14T19:45:19Z</time>
      </trkpt>
      <trkpt lat="46.26129" lon="6.79693">
        <ele>1926</ele>
        <time>2019-08-14T19:45:26Z</time>
      </trkpt>
      <trkpt lat="46.26122" lon="6.79734">
        <ele>1922</ele>
        <time>2019-08-14T19:46:05Z</time>
      </trkpt>
      <trkpt lat="46.26111" lon="6.79766">
        <ele>1918</ele>
        <time>2019-08-14T19:46:38Z</time>
      </trkpt>
      <trkpt lat="46.26018" lon="6.79715">
        <ele>1905</ele>
        <time>2019-08-14T19:48:51Z</time>
      </trkpt>
      <trkpt lat="46.26005" lon="6.79707">
        <ele>1902</ele>
        <time>2019-08-14T19:49:10Z</time>
      </trkpt>
      <trkpt lat="46.26011" lon="6.79679">
        <ele>1900</ele>
        <time>2019-08-14T19:49:37Z</time>
      </trkpt>
      <trkpt lat="46.26015" lon="6.79653">
        <ele>1898</ele>
        <time>2019-08-14T19:50:01Z</time>
      </trkpt>
      <trkpt lat="46.26023" lon="6.79582">
        <ele>1892</ele>
        <time>2019-08-14T19:51:08Z</time>
      </trkpt>
      <trkpt lat="46.26027" lon="6.79565">
        <ele>1891</ele>
        <time>2019-08-14T19:51:24Z</time>
      </trkpt>
      <trkpt lat="46.26035" lon="6.79544">
        <ele>1891</ele>
        <time>2019-08-14T19:51:46Z</time>
      </trkpt>
      <trkpt lat="46.26038" lon="6.79535">
        <ele>1891</ele>
        <time>2019-08-14T19:51:56Z</time>
      </trkpt>
      <trkpt lat="46.26043" lon="6.79525">
        <ele>1892</ele>
        <time>2019-08-14T19:52:07Z</time>
      </trkpt>
      <trkpt lat="46.26045" lon="6.79515">
        <ele>1892</ele>
        <time>2019-08-14T19:52:16Z</time>
      </trkpt>
      <trkpt lat="46.26051" lon="6.79502">
        <ele>1893</ele>
        <time>2019-08-14T19:52:31Z</time>
      </trkpt>
      <trkpt lat="46.26057" lon="6.79497">
        <ele>1894</ele>
        <time>2019-08-14T19:52:40Z</time>
      </trkpt>
      <trkpt lat="46.2606" lon="6.79493">
        <ele>1895</ele>
        <time>2019-08-14T19:52:46Z</time>
      </trkpt>
      <trkpt lat="46.2606" lon="6.79487">
        <ele>1894</ele>
        <time>2019-08-14T19:52:51Z</time>
      </trkpt>
      <trkpt lat="46.26062" lon="6.79482">
        <ele>1893</ele>
        <time>2019-08-14T19:52:56Z</time>
      </trkpt>
      <trkpt lat="46.26069" lon="6.79472">
        <ele>1894</ele>
        <time>2019-08-14T19:53:10Z</time>
      </trkpt>
      <trkpt lat="46.2607" lon="6.7946">
        <ele>1892</ele>
        <time>2019-08-14T19:53:21Z</time>
      </trkpt>
      <trkpt lat="46.26073" lon="6.79458">
        <ele>1893</ele>
        <time>2019-08-14T19:53:25Z</time>
      </trkpt>
      <trkpt lat="46.26078" lon="6.79443">
        <ele>1893</ele>
        <time>2019-08-14T19:53:41Z</time>
      </trkpt>
      <trkpt lat="46.2608" lon="6.7944">
        <ele>1893</ele>
        <time>2019-08-14T19:53:44Z</time>
      </trkpt>
      <trkpt lat="46.26081" lon="6.7943">
        <ele>1891</ele>
        <time>2019-08-14T19:53:54Z</time>
      </trkpt>
      <trkpt lat="46.26083" lon="6.79424">
        <ele>1891</ele>
        <time>2019-08-14T19:54:00Z</time>
      </trkpt>
      <trkpt lat="46.26085" lon="6.79409">
        <ele>1890</ele>
        <time>2019-08-14T19:54:14Z</time>
      </trkpt>
      <trkpt lat="46.26087" lon="6.79394">
        <ele>1888</ele>
        <time>2019-08-14T19:54:28Z</time>
      </trkpt>
      <trkpt lat="46.26089" lon="6.79388">
        <ele>1888</ele>
        <time>2019-08-14T19:54:34Z</time>
      </trkpt>
      <trkpt lat="46.26088" lon="6.79383">
        <ele>1887</ele>
        <time>2019-08-14T19:54:39Z</time>
      </trkpt>
      <trkpt lat="46.26091" lon="6.79374">
        <ele>1887</ele>
        <time>2019-08-14T19:54:48Z</time>
      </trkpt>
      <trkpt lat="46.26094" lon="6.79361">
        <ele>1887</ele>
        <time>2019-08-14T19:55:01Z</time>
      </trkpt>
      <trkpt lat="46.26093" lon="6.79352">
        <ele>1885</ele>
        <time>2019-08-14T19:55:09Z</time>
      </trkpt>
      <trkpt lat="46.26093" lon="6.79343">
        <ele>1883</ele>
        <time>2019-08-14T19:55:18Z</time>
      </trkpt>
      <trkpt lat="46.26095" lon="6.79341">
        <ele>1884</ele>
        <time>2019-08-14T19:55:21Z</time>
      </trkpt>
      <trkpt lat="46.26095" lon="6.79335">
        <ele>1883</ele>
        <time>2019-08-14T19:55:26Z</time>
      </trkpt>
      <trkpt lat="46.26097" lon="6.79327">
        <ele>1884</ele>
        <time>2019-08-14T19:55:34Z</time>
      </trkpt>
      <trkpt lat="46.261" lon="6.79322">
        <ele>1886</ele>
        <time>2019-08-14T19:55:40Z</time>
      </trkpt>
      <trkpt lat="46.26103" lon="6.7931">
        <ele>1887</ele>
        <time>2019-08-14T19:55:52Z</time>
      </trkpt>
      <trkpt lat="46.26102" lon="6.79295">
        <ele>1887</ele>
        <time>2019-08-14T19:56:06Z</time>
      </trkpt>
      <trkpt lat="46.26101" lon="6.79289">
        <ele>1886</ele>
        <time>2019-08-14T19:56:12Z</time>
      </trkpt>
      <trkpt lat="46.26102" lon="6.79277">
        <ele>1887</ele>
        <time>2019-08-14T19:56:23Z</time>
      </trkpt>
      <trkpt lat="46.26101" lon="6.79264">
        <ele>1886</ele>
        <time>2019-08-14T19:56:35Z</time>
      </trkpt>
      <trkpt lat="46.26095" lon="6.79252">
        <ele>1884</ele>
        <time>2019-08-14T19:56:49Z</time>
      </trkpt>
      <trkpt lat="46.26093" lon="6.7925">
        <ele>1883</ele>
        <time>2019-08-14T19:56:52Z</time>
      </trkpt>
      <trkpt lat="46.2609" lon="6.7925">
        <ele>1882</ele>
        <time>2019-08-14T19:56:56Z</time>
      </trkpt>
      <trkpt lat="46.26084" lon="6.79255">
        <ele>1879</ele>
        <time>2019-08-14T19:57:05Z</time>
      </trkpt>
      <trkpt lat="46.26076" lon="6.79268">
        <ele>1875</ele>
        <time>2019-08-14T19:57:21Z</time>
      </trkpt>
      <trkpt lat="46.2607" lon="6.79273">
        <ele>1872</ele>
        <time>2019-08-14T19:57:30Z</time>
      </trkpt>
      <trkpt lat="46.26066" lon="6.79278">
        <ele>1870</ele>
        <time>2019-08-14T19:57:37Z</time>
      </trkpt>
      <trkpt lat="46.26064" lon="6.79283">
        <ele>1869</ele>
        <time>2019-08-14T19:57:43Z</time>
      </trkpt>
      <trkpt lat="46.26066" lon="6.7929">
        <ele>1869</ele>
        <time>2019-08-14T19:57:50Z</time>
      </trkpt>
      <trkpt lat="46.26065" lon="6.79296">
        <ele>1868</ele>
        <time>2019-08-14T19:57:55Z</time>
      </trkpt>
      <trkpt lat="46.26068" lon="6.79304">
        <ele>1870</ele>
        <time>2019-08-14T19:58:04Z</time>
      </trkpt>
      <trkpt lat="46.2607" lon="6.79313">
        <ele>1870</ele>
        <time>2019-08-14T19:58:13Z</time>
      </trkpt>
      <trkpt lat="46.26066" lon="6.79317">
        <ele>1868</ele>
        <time>2019-08-14T19:58:19Z</time>
      </trkpt>
      <trkpt lat="46.26067" lon="6.79323">
        <ele>1868</ele>
        <time>2019-08-14T19:58:25Z</time>
      </trkpt>
      <trkpt lat="46.26062" lon="6.79332">
        <ele>1865</ele>
        <time>2019-08-14T19:58:35Z</time>
      </trkpt>
      <trkpt lat="46.26055" lon="6.79343">
        <ele>1863</ele>
        <time>2019-08-14T19:58:49Z</time>
      </trkpt>
      <trkpt lat="46.26052" lon="6.79359">
        <ele>1865</ele>
        <time>2019-08-14T19:59:04Z</time>
      </trkpt>
      <trkpt lat="46.26048" lon="6.79365">
        <ele>1864</ele>
        <time>2019-08-14T19:59:12Z</time>
      </trkpt>
      <trkpt lat="46.26046" lon="6.7937">
        <ele>1864</ele>
        <time>2019-08-14T19:59:17Z</time>
      </trkpt>
      <trkpt lat="46.26043" lon="6.79371">
        <ele>1863</ele>
        <time>2019-08-14T19:59:22Z</time>
      </trkpt>
      <trkpt lat="46.26033" lon="6.79378">
        <ele>1859</ele>
        <time>2019-08-14T19:59:36Z</time>
      </trkpt>
      <trkpt lat="46.2603" lon="6.79379">
        <ele>1858</ele>
        <time>2019-08-14T19:59:40Z</time>
      </trkpt>
      <trkpt lat="46.26032" lon="6.79363">
        <ele>1856</ele>
        <time>2019-08-14T19:59:55Z</time>
      </trkpt>
      <trkpt lat="46.26032" lon="6.79355">
        <ele>1854</ele>
        <time>2019-08-14T20:00:03Z</time>
      </trkpt>
      <trkpt lat="46.26029" lon="6.79355">
        <ele>1853</ele>
        <time>2019-08-14T20:00:07Z</time>
      </trkpt>
      <trkpt lat="46.26027" lon="6.79346">
        <ele>1850</ele>
        <time>2019-08-14T20:00:16Z</time>
      </trkpt>
      <trkpt lat="46.26023" lon="6.79338">
        <ele>1846</ele>
        <time>2019-08-14T20:00:25Z</time>
      </trkpt>
      <trkpt lat="46.26016" lon="6.79336">
        <ele>1843</ele>
        <time>2019-08-14T20:00:34Z</time>
      </trkpt>
      <trkpt lat="46.26014" lon="6.79332">
        <ele>1841</ele>
        <time>2019-08-14T20:00:39Z</time>
      </trkpt>
      <trkpt lat="46.26006" lon="6.79325">
        <ele>1838</ele>
        <time>2019-08-14T20:00:51Z</time>
      </trkpt>
      <trkpt lat="46.25998" lon="6.79316">
        <ele>1835</ele>
        <time>2019-08-14T20:01:05Z</time>
      </trkpt>
      <trkpt lat="46.25982" lon="6.79296">
        <ele>1830</ele>
        <time>2019-08-14T20:01:33Z</time>
      </trkpt>
      <trkpt lat="46.25978" lon="6.79292">
        <ele>1829</ele>
        <time>2019-08-14T20:01:40Z</time>
      </trkpt>
      <trkpt lat="46.25972" lon="6.79279">
        <ele>1827</ele>
        <time>2019-08-14T20:01:54Z</time>
      </trkpt>
      <trkpt lat="46.25969" lon="6.79276">
        <ele>1826</ele>
        <time>2019-08-14T20:01:59Z</time>
      </trkpt>
      <trkpt lat="46.25951" lon="6.79275">
        <ele>1819</ele>
        <time>2019-08-14T20:02:23Z</time>
      </trkpt>
      <trkpt lat="46.25942" lon="6.79276">
        <ele>1815</ele>
        <time>2019-08-14T20:02:35Z</time>
      </trkpt>
      <trkpt lat="46.25938" lon="6.79277">
        <ele>1814</ele>
        <time>2019-08-14T20:02:40Z</time>
      </trkpt>
      <trkpt lat="46.25934" lon="6.79276">
        <ele>1812</ele>
        <time>2019-08-14T20:02:46Z</time>
      </trkpt>
      <trkpt lat="46.25928" lon="6.79273">
        <ele>1810</ele>
        <time>2019-08-14T20:02:54Z</time>
      </trkpt>
      <trkpt lat="46.25917" lon="6.79265">
        <ele>1805</ele>
        <time>2019-08-14T20:03:11Z</time>
      </trkpt>
      <trkpt lat="46.25913" lon="6.79264">
        <ele>1803</ele>
        <time>2019-08-14T20:03:16Z</time>
      </trkpt>
      <trkpt lat="46.25909" lon="6.79266">
        <ele>1801</ele>
        <time>2019-08-14T20:03:22Z</time>
      </trkpt>
      <trkpt lat="46.25904" lon="6.79273">
        <ele>1799</ele>
        <time>2019-08-14T20:03:31Z</time>
      </trkpt>
      <trkpt lat="46.25898" lon="6.79276">
        <ele>1797</ele>
        <time>2019-08-14T20:03:39Z</time>
      </trkpt>
      <trkpt lat="46.25893" lon="6.79284">
        <ele>1795</ele>
        <time>2019-08-14T20:03:49Z</time>
      </trkpt>
      <trkpt lat="46.25889" lon="6.79289">
        <ele>1794</ele>
        <time>2019-08-14T20:03:56Z</time>
      </trkpt>
      <trkpt lat="46.25887" lon="6.79295">
        <ele>1793</ele>
        <time>2019-08-14T20:04:03Z</time>
      </trkpt>
      <trkpt lat="46.25886" lon="6.79302">
        <ele>1793</ele>
        <time>2019-08-14T20:04:09Z</time>
      </trkpt>
      <trkpt lat="46.25886" lon="6.7931">
        <ele>1794</ele>
        <time>2019-08-14T20:04:17Z</time>
      </trkpt>
      <trkpt lat="46.25889" lon="6.79322">
        <ele>1796</ele>
        <time>2019-08-14T20:04:28Z</time>
      </trkpt>
      <trkpt lat="46.25889" lon="6.7935">
        <ele>1799</ele>
        <time>2019-08-14T20:04:54Z</time>
      </trkpt>
      <trkpt lat="46.25874" lon="6.79372">
        <ele>1796</ele>
        <time>2019-08-14T20:05:23Z</time>
      </trkpt>
      <trkpt lat="46.25854" lon="6.7938">
        <ele>1788</ele>
        <time>2019-08-14T20:05:50Z</time>
      </trkpt>
      <trkpt lat="46.2584" lon="6.79398">
        <ele>1783</ele>
        <time>2019-08-14T20:06:15Z</time>
      </trkpt>
      <trkpt lat="46.25841" lon="6.79421">
        <ele>1786</ele>
        <time>2019-08-14T20:06:37Z</time>
      </trkpt>
      <trkpt lat="46.2584" lon="6.79429">
        <ele>1786</ele>
        <time>2019-08-14T20:06:44Z</time>
      </trkpt>
      <trkpt lat="46.25842" lon="6.79441">
        <ele>1787</ele>
        <time>2019-08-14T20:06:56Z</time>
      </trkpt>
      <trkpt lat="46.25842" lon="6.79447">
        <ele>1787</ele>
        <time>2019-08-14T20:07:01Z</time>
      </trkpt>
      <trkpt lat="46.2584" lon="6.79453">
        <ele>1786</ele>
        <time>2019-08-14T20:07:07Z</time>
      </trkpt>
      <trkpt lat="46.25837" lon="6.79454">
        <ele>1785</ele>
        <time>2019-08-14T20:07:11Z</time>
      </trkpt>
      <trkpt lat="46.25835" lon="6.79464">
        <ele>1784</ele>
        <time>2019-08-14T20:07:21Z</time>
      </trkpt>
      <trkpt lat="46.25835" lon="6.79464">
        <ele>1784</ele>
        <time>2019-08-14T20:07:21Z</time>
      </trkpt>
      <trkpt lat="46.25832" lon="6.79468">
        <ele>1783</ele>
        <time>2019-08-14T20:07:26Z</time>
      </trkpt>
      <trkpt lat="46.25829" lon="6.79474">
        <ele>1781</ele>
        <time>2019-08-14T20:07:33Z</time>
      </trkpt>
      <trkpt lat="46.25824" lon="6.79479">
        <ele>1779</ele>
        <time>2019-08-14T20:07:41Z</time>
      </trkpt>
      <trkpt lat="46.25822" lon="6.79474">
        <ele>1778</ele>
        <time>2019-08-14T20:07:47Z</time>
      </trkpt>
      <trkpt lat="46.25818" lon="6.7947">
        <ele>1776</ele>
        <time>2019-08-14T20:07:53Z</time>
      </trkpt>
      <trkpt lat="46.25803" lon="6.79432">
        <ele>1768</ele>
        <time>2019-08-14T20:08:33Z</time>
      </trkpt>
      <trkpt lat="46.25798" lon="6.79416">
        <ele>1765</ele>
        <time>2019-08-14T20:08:50Z</time>
      </trkpt>
      <trkpt lat="46.25792" lon="6.79428">
        <ele>1763</ele>
        <time>2019-08-14T20:09:03Z</time>
      </trkpt>
      <trkpt lat="46.25787" lon="6.79459">
        <ele>1762</ele>
        <time>2019-08-14T20:09:33Z</time>
      </trkpt>
      <trkpt lat="46.25785" lon="6.79464">
        <ele>1762</ele>
        <time>2019-08-14T20:09:38Z</time>
      </trkpt>
      <trkpt lat="46.25787" lon="6.79478">
        <ele>1763</ele>
        <time>2019-08-14T20:09:51Z</time>
      </trkpt>
      <trkpt lat="46.25786" lon="6.7949">
        <ele>1763</ele>
        <time>2019-08-14T20:10:02Z</time>
      </trkpt>
      <trkpt lat="46.25788" lon="6.79498">
        <ele>1764</ele>
        <time>2019-08-14T20:10:10Z</time>
      </trkpt>
      <trkpt lat="46.25779" lon="6.79504">
        <ele>1761</ele>
        <time>2019-08-14T20:10:23Z</time>
      </trkpt>
      <trkpt lat="46.25773" lon="6.79509">
        <ele>1759</ele>
        <time>2019-08-14T20:10:33Z</time>
      </trkpt>
      <trkpt lat="46.2576" lon="6.7948">
        <ele>1751</ele>
        <time>2019-08-14T20:11:05Z</time>
      </trkpt>
      <trkpt lat="46.25756" lon="6.79467">
        <ele>1749</ele>
        <time>2019-08-14T20:11:18Z</time>
      </trkpt>
      <trkpt lat="46.25748" lon="6.79413">
        <ele>1741</ele>
        <time>2019-08-14T20:12:09Z</time>
      </trkpt>
      <trkpt lat="46.25746" lon="6.79408">
        <ele>1739</ele>
        <time>2019-08-14T20:12:14Z</time>
      </trkpt>
      <trkpt lat="46.25742" lon="6.79409">
        <ele>1738</ele>
        <time>2019-08-14T20:12:19Z</time>
      </trkpt>
      <trkpt lat="46.25735" lon="6.79425">
        <ele>1737</ele>
        <time>2019-08-14T20:12:37Z</time>
      </trkpt>
      <trkpt lat="46.25732" lon="6.79425">
        <ele>1736</ele>
        <time>2019-08-14T20:12:41Z</time>
      </trkpt>
      <trkpt lat="46.25728" lon="6.79423">
        <ele>1734</ele>
        <time>2019-08-14T20:12:47Z</time>
      </trkpt>
      <trkpt lat="46.25724" lon="6.79424">
        <ele>1732</ele>
        <time>2019-08-14T20:12:52Z</time>
      </trkpt>
      <trkpt lat="46.2571" lon="6.79414">
        <ele>1725</ele>
        <time>2019-08-14T20:13:13Z</time>
      </trkpt>
      <trkpt lat="46.25699" lon="6.79412">
        <ele>1719</ele>
        <time>2019-08-14T20:13:28Z</time>
      </trkpt>
      <trkpt lat="46.25695" lon="6.79416">
        <ele>1718</ele>
        <time>2019-08-14T20:13:34Z</time>
      </trkpt>
      <trkpt lat="46.25692" lon="6.79413">
        <ele>1716</ele>
        <time>2019-08-14T20:13:39Z</time>
      </trkpt>
      <trkpt lat="46.25697" lon="6.79406">
        <ele>1717</ele>
        <time>2019-08-14T20:13:48Z</time>
      </trkpt>
      <trkpt lat="46.25701" lon="6.79392">
        <ele>1716</ele>
        <time>2019-08-14T20:14:02Z</time>
      </trkpt>
      <trkpt lat="46.25701" lon="6.79387">
        <ele>1715</ele>
        <time>2019-08-14T20:14:07Z</time>
      </trkpt>
      <trkpt lat="46.25704" lon="6.79382">
        <ele>1715</ele>
        <time>2019-08-14T20:14:13Z</time>
      </trkpt>
      <trkpt lat="46.25707" lon="6.79378">
        <ele>1716</ele>
        <time>2019-08-14T20:14:18Z</time>
      </trkpt>
      <trkpt lat="46.2571" lon="6.79375">
        <ele>1717</ele>
        <time>2019-08-14T20:14:23Z</time>
      </trkpt>
      <trkpt lat="46.25713" lon="6.79369">
        <ele>1717</ele>
        <time>2019-08-14T20:14:30Z</time>
      </trkpt>
      <trkpt lat="46.25724" lon="6.7933">
        <ele>1714</ele>
        <time>2019-08-14T20:15:09Z</time>
      </trkpt>
      <trkpt lat="46.25724" lon="6.79322">
        <ele>1713</ele>
        <time>2019-08-14T20:15:16Z</time>
      </trkpt>
      <trkpt lat="46.25736" lon="6.79286">
        <ele>1715</ele>
        <time>2019-08-14T20:15:53Z</time>
      </trkpt>
      <trkpt lat="46.25737" lon="6.7928">
        <ele>1715</ele>
        <time>2019-08-14T20:15:59Z</time>
      </trkpt>
      <trkpt lat="46.25734" lon="6.79251">
        <ele>1711</ele>
        <time>2019-08-14T20:16:26Z</time>
      </trkpt>
      <trkpt lat="46.25734" lon="6.79234">
        <ele>1712</ele>
        <time>2019-08-14T20:16:42Z</time>
      </trkpt>
      <trkpt lat="46.25737" lon="6.79225">
        <ele>1714</ele>
        <time>2019-08-14T20:16:51Z</time>
      </trkpt>
      <trkpt lat="46.25745" lon="6.79211">
        <ele>1718</ele>
        <time>2019-08-14T20:17:08Z</time>
      </trkpt>
      <trkpt lat="46.25748" lon="6.79205">
        <ele>1719</ele>
        <time>2019-08-14T20:17:14Z</time>
      </trkpt>
      <trkpt lat="46.25746" lon="6.79192">
        <ele>1719</ele>
        <time>2019-08-14T20:17:27Z</time>
      </trkpt>
      <trkpt lat="46.25741" lon="6.79183">
        <ele>1717</ele>
        <time>2019-08-14T20:17:37Z</time>
      </trkpt>
      <trkpt lat="46.25735" lon="6.79179">
        <ele>1715</ele>
        <time>2019-08-14T20:17:46Z</time>
      </trkpt>
      <trkpt lat="46.25731" lon="6.79179">
        <ele>1713</ele>
        <time>2019-08-14T20:17:52Z</time>
      </trkpt>
      <trkpt lat="46.25729" lon="6.79181">
        <ele>1712</ele>
        <time>2019-08-14T20:17:55Z</time>
      </trkpt>
      <trkpt lat="46.25722" lon="6.79182">
        <ele>1709</ele>
        <time>2019-08-14T20:18:04Z</time>
      </trkpt>
      <trkpt lat="46.25716" lon="6.79186">
        <ele>1707</ele>
        <time>2019-08-14T20:18:13Z</time>
      </trkpt>
      <trkpt lat="46.25712" lon="6.79185">
        <ele>1705</ele>
        <time>2019-08-14T20:18:18Z</time>
      </trkpt>
      <trkpt lat="46.25706" lon="6.79182">
        <ele>1703</ele>
        <time>2019-08-14T20:18:27Z</time>
      </trkpt>
      <trkpt lat="46.25703" lon="6.79182">
        <ele>1702</ele>
        <time>2019-08-14T20:18:31Z</time>
      </trkpt>
      <trkpt lat="46.25699" lon="6.79185">
        <ele>1700</ele>
        <time>2019-08-14T20:18:37Z</time>
      </trkpt>
      <trkpt lat="46.25696" lon="6.792">
        <ele>1697</ele>
        <time>2019-08-14T20:18:51Z</time>
      </trkpt>
      <trkpt lat="46.25692" lon="6.792">
        <ele>1695</ele>
        <time>2019-08-14T20:18:57Z</time>
      </trkpt>
      <trkpt lat="46.25687" lon="6.79204">
        <ele>1693</ele>
        <time>2019-08-14T20:19:04Z</time>
      </trkpt>
      <trkpt lat="46.25685" lon="6.79209">
        <ele>1691</ele>
        <time>2019-08-14T20:19:10Z</time>
      </trkpt>
      <trkpt lat="46.2568" lon="6.79212">
        <ele>1689</ele>
        <time>2019-08-14T20:19:17Z</time>
      </trkpt>
      <trkpt lat="46.25673" lon="6.79215">
        <ele>1685</ele>
        <time>2019-08-14T20:19:27Z</time>
      </trkpt>
      <trkpt lat="46.25667" lon="6.79216">
        <ele>1683</ele>
        <time>2019-08-14T20:19:35Z</time>
      </trkpt>
      <trkpt lat="46.25664" lon="6.79223">
        <ele>1681</ele>
        <time>2019-08-14T20:19:42Z</time>
      </trkpt>
      <trkpt lat="46.25661" lon="6.79223">
        <ele>1680</ele>
        <time>2019-08-14T20:19:46Z</time>
      </trkpt>
      <trkpt lat="46.25659" lon="6.79221">
        <ele>1680</ele>
        <time>2019-08-14T20:19:49Z</time>
      </trkpt>
      <trkpt lat="46.2565" lon="6.79221">
        <ele>1677</ele>
        <time>2019-08-14T20:20:01Z</time>
      </trkpt>
      <trkpt lat="46.25644" lon="6.79225">
        <ele>1675</ele>
        <time>2019-08-14T20:20:10Z</time>
      </trkpt>
      <trkpt lat="46.25639" lon="6.7922">
        <ele>1674</ele>
        <time>2019-08-14T20:20:18Z</time>
      </trkpt>
      <trkpt lat="46.25636" lon="6.79221">
        <ele>1673</ele>
        <time>2019-08-14T20:20:23Z</time>
      </trkpt>
      <trkpt lat="46.25624" lon="6.79223">
        <ele>1670</ele>
        <time>2019-08-14T20:20:39Z</time>
      </trkpt>
      <trkpt lat="46.25621" lon="6.79229">
        <ele>1667</ele>
        <time>2019-08-14T20:20:45Z</time>
      </trkpt>
      <trkpt lat="46.25611" lon="6.79228">
        <ele>1665</ele>
        <time>2019-08-14T20:20:59Z</time>
      </trkpt>
      <trkpt lat="46.25586" lon="6.79193">
        <ele>1667</ele>
        <time>2019-08-14T20:21:45Z</time>
      </trkpt>
      <trkpt lat="46.25561" lon="6.79159">
        <ele>1670</ele>
        <time>2019-08-14T20:22:31Z</time>
      </trkpt>
      <trkpt lat="46.25489" lon="6.79069">
        <ele>1688</ele>
        <time>2019-08-14T20:24:38Z</time>
      </trkpt>
      <trkpt lat="46.25486" lon="6.79065">
        <ele>1690</ele>
        <time>2019-08-14T20:24:44Z</time>
      </trkpt>
      <trkpt lat="46.25482" lon="6.79064">
        <ele>1691</ele>
        <time>2019-08-14T20:24:49Z</time>
      </trkpt>
      <trkpt lat="46.25478" lon="6.79064">
        <ele>1692</ele>
        <time>2019-08-14T20:24:54Z</time>
      </trkpt>
      <trkpt lat="46.25474" lon="6.79066">
        <ele>1692</ele>
        <time>2019-08-14T20:25:00Z</time>
      </trkpt>
      <trkpt lat="46.25446" lon="6.79109">
        <ele>1688</ele>
        <time>2019-08-14T20:25:54Z</time>
      </trkpt>
      <trkpt lat="46.25444" lon="6.79111">
        <ele>1688</ele>
        <time>2019-08-14T20:25:58Z</time>
      </trkpt>
      <trkpt lat="46.25441" lon="6.79113">
        <ele>1688</ele>
        <time>2019-08-14T20:26:02Z</time>
      </trkpt>
      <trkpt lat="46.25439" lon="6.79114">
        <ele>1689</ele>
        <time>2019-08-14T20:26:05Z</time>
      </trkpt>
      <trkpt lat="46.25426" lon="6.79112">
        <ele>1693</ele>
        <time>2019-08-14T20:26:22Z</time>
      </trkpt>
      <trkpt lat="46.25424" lon="6.79114">
        <ele>1693</ele>
        <time>2019-08-14T20:26:26Z</time>
      </trkpt>
      <trkpt lat="46.25423" lon="6.79116">
        <ele>1693</ele>
        <time>2019-08-14T20:26:28Z</time>
      </trkpt>
      <trkpt lat="46.25422" lon="6.79118">
        <ele>1693</ele>
        <time>2019-08-14T20:26:30Z</time>
      </trkpt>
      <trkpt lat="46.25418" lon="6.79133">
        <ele>1690</ele>
        <time>2019-08-14T20:26:45Z</time>
      </trkpt>
      <trkpt lat="46.25417" lon="6.79136">
        <ele>1690</ele>
        <time>2019-08-14T20:26:48Z</time>
      </trkpt>
      <trkpt lat="46.25415" lon="6.79138">
        <ele>1690</ele>
        <time>2019-08-14T20:26:51Z</time>
      </trkpt>
      <trkpt lat="46.25404" lon="6.79152">
        <ele>1690</ele>
        <time>2019-08-14T20:27:11Z</time>
      </trkpt>
      <trkpt lat="46.254" lon="6.79155">
        <ele>1690</ele>
        <time>2019-08-14T20:27:17Z</time>
      </trkpt>
      <trkpt lat="46.25396" lon="6.79158">
        <ele>1690</ele>
        <time>2019-08-14T20:27:23Z</time>
      </trkpt>
      <trkpt lat="46.25384" lon="6.79164">
        <ele>1692</ele>
        <time>2019-08-14T20:27:40Z</time>
      </trkpt>
      <trkpt lat="46.25376" lon="6.79167">
        <ele>1693</ele>
        <time>2019-08-14T20:27:51Z</time>
      </trkpt>
      <trkpt lat="46.25368" lon="6.79172">
        <ele>1694</ele>
        <time>2019-08-14T20:28:02Z</time>
      </trkpt>
      <trkpt lat="46.25361" lon="6.79178">
        <ele>1695</ele>
        <time>2019-08-14T20:28:13Z</time>
      </trkpt>
      <trkpt lat="46.25352" lon="6.79182">
        <ele>1696</ele>
        <time>2019-08-14T20:28:26Z</time>
      </trkpt>
      <trkpt lat="46.25348" lon="6.79184">
        <ele>1697</ele>
        <time>2019-08-14T20:28:32Z</time>
      </trkpt>
      <trkpt lat="46.25343" lon="6.79184">
        <ele>1699</ele>
        <time>2019-08-14T20:28:38Z</time>
      </trkpt>
      <trkpt lat="46.25338" lon="6.79184">
        <ele>1700</ele>
        <time>2019-08-14T20:28:45Z</time>
      </trkpt>
      <trkpt lat="46.25333" lon="6.79183">
        <ele>1702</ele>
        <time>2019-08-14T20:28:52Z</time>
      </trkpt>
      <trkpt lat="46.25328" lon="6.79181">
        <ele>1702</ele>
        <time>2019-08-14T20:28:59Z</time>
      </trkpt>
      <trkpt lat="46.253" lon="6.79166">
        <ele>1706</ele>
        <time>2019-08-14T20:29:38Z</time>
      </trkpt>
      <trkpt lat="46.25295" lon="6.79164">
        <ele>1707</ele>
        <time>2019-08-14T20:29:45Z</time>
      </trkpt>
      <trkpt lat="46.25276" lon="6.79159">
        <ele>1710</ele>
        <time>2019-08-14T20:30:11Z</time>
      </trkpt>
      <trkpt lat="46.25272" lon="6.79158">
        <ele>1711</ele>
        <time>2019-08-14T20:30:17Z</time>
      </trkpt>
      <trkpt lat="46.2526" lon="6.7916">
        <ele>1711</ele>
        <time>2019-08-14T20:30:33Z</time>
      </trkpt>
      <trkpt lat="46.25256" lon="6.7916">
        <ele>1711</ele>
        <time>2019-08-14T20:30:38Z</time>
      </trkpt>
      <trkpt lat="46.25252" lon="6.79159">
        <ele>1712</ele>
        <time>2019-08-14T20:30:43Z</time>
      </trkpt>
      <trkpt lat="46.25225" lon="6.79148">
        <ele>1717</ele>
        <time>2019-08-14T20:31:21Z</time>
      </trkpt>
      <trkpt lat="46.2522" lon="6.79146">
        <ele>1718</ele>
        <time>2019-08-14T20:31:28Z</time>
      </trkpt>
      <trkpt lat="46.25195" lon="6.79142">
        <ele>1720</ele>
        <time>2019-08-14T20:32:01Z</time>
      </trkpt>
      <trkpt lat="46.2519" lon="6.79141">
        <ele>1721</ele>
        <time>2019-08-14T20:32:08Z</time>
      </trkpt>
      <trkpt lat="46.25186" lon="6.79139">
        <ele>1722</ele>
        <time>2019-08-14T20:32:14Z</time>
      </trkpt>
      <trkpt lat="46.25182" lon="6.79137">
        <ele>1722</ele>
        <time>2019-08-14T20:32:19Z</time>
      </trkpt>
      <trkpt lat="46.25172" lon="6.79135">
        <ele>1723</ele>
        <time>2019-08-14T20:32:33Z</time>
      </trkpt>
      <trkpt lat="46.25168" lon="6.79134">
        <ele>1724</ele>
        <time>2019-08-14T20:32:38Z</time>
      </trkpt>
      <trkpt lat="46.25164" lon="6.79131">
        <ele>1725</ele>
        <time>2019-08-14T20:32:44Z</time>
      </trkpt>
      <trkpt lat="46.2516" lon="6.79128">
        <ele>1726</ele>
        <time>2019-08-14T20:32:50Z</time>
      </trkpt>
      <trkpt lat="46.25147" lon="6.79114">
        <ele>1731</ele>
        <time>2019-08-14T20:33:12Z</time>
      </trkpt>
      <trkpt lat="46.25129" lon="6.79101">
        <ele>1737</ele>
        <time>2019-08-14T20:33:39Z</time>
      </trkpt>
      <trkpt lat="46.25125" lon="6.791">
        <ele>1737</ele>
        <time>2019-08-14T20:33:44Z</time>
      </trkpt>
      <trkpt lat="46.2512" lon="6.79099">
        <ele>1738</ele>
        <time>2019-08-14T20:33:51Z</time>
      </trkpt>
      <trkpt lat="46.25116" lon="6.79099">
        <ele>1738</ele>
        <time>2019-08-14T20:33:56Z</time>
      </trkpt>
      <trkpt lat="46.25104" lon="6.79098">
        <ele>1739</ele>
        <time>2019-08-14T20:34:12Z</time>
      </trkpt>
      <trkpt lat="46.251" lon="6.79097">
        <ele>1740</ele>
        <time>2019-08-14T20:34:18Z</time>
      </trkpt>
      <trkpt lat="46.25096" lon="6.79096">
        <ele>1741</ele>
        <time>2019-08-14T20:34:23Z</time>
      </trkpt>
      <trkpt lat="46.25087" lon="6.79092">
        <ele>1743</ele>
        <time>2019-08-14T20:34:36Z</time>
      </trkpt>
      <trkpt lat="46.25082" lon="6.7909">
        <ele>1744</ele>
        <time>2019-08-14T20:34:43Z</time>
      </trkpt>
      <trkpt lat="46.25065" lon="6.7909">
        <ele>1745</ele>
        <time>2019-08-14T20:35:05Z</time>
      </trkpt>
      <trkpt lat="46.25061" lon="6.7909">
        <ele>1745</ele>
        <time>2019-08-14T20:35:11Z</time>
      </trkpt>
      <trkpt lat="46.25046" lon="6.79083">
        <ele>1748</ele>
        <time>2019-08-14T20:35:32Z</time>
      </trkpt>
      <trkpt lat="46.25044" lon="6.79082">
        <ele>1748</ele>
        <time>2019-08-14T20:35:34Z</time>
      </trkpt>
      <trkpt lat="46.25035" lon="6.79082">
        <ele>1749</ele>
        <time>2019-08-14T20:35:46Z</time>
      </trkpt>
      <trkpt lat="46.25032" lon="6.79081">
        <ele>1749</ele>
        <time>2019-08-14T20:35:51Z</time>
      </trkpt>
      <trkpt lat="46.25026" lon="6.79075">
        <ele>1752</ele>
        <time>2019-08-14T20:36:00Z</time>
      </trkpt>
      <trkpt lat="46.25023" lon="6.79074">
        <ele>1753</ele>
        <time>2019-08-14T20:36:04Z</time>
      </trkpt>
      <trkpt lat="46.2502" lon="6.79075">
        <ele>1753</ele>
        <time>2019-08-14T20:36:09Z</time>
      </trkpt>
      <trkpt lat="46.25015" lon="6.79077">
        <ele>1752</ele>
        <time>2019-08-14T20:36:15Z</time>
      </trkpt>
      <trkpt lat="46.25011" lon="6.79077">
        <ele>1752</ele>
        <time>2019-08-14T20:36:21Z</time>
      </trkpt>
      <trkpt lat="46.25006" lon="6.79077">
        <ele>1752</ele>
        <time>2019-08-14T20:36:27Z</time>
      </trkpt>
      <trkpt lat="46.24994" lon="6.79071">
        <ele>1755</ele>
        <time>2019-08-14T20:36:44Z</time>
      </trkpt>
      <trkpt lat="46.24977" lon="6.79059">
        <ele>1760</ele>
        <time>2019-08-14T20:37:10Z</time>
      </trkpt>
      <trkpt lat="46.24966" lon="6.79054">
        <ele>1762</ele>
        <time>2019-08-14T20:37:25Z</time>
      </trkpt>
      <trkpt lat="46.24961" lon="6.79052">
        <ele>1762</ele>
        <time>2019-08-14T20:37:32Z</time>
      </trkpt>
      <trkpt lat="46.24957" lon="6.79051">
        <ele>1763</ele>
        <time>2019-08-14T20:37:37Z</time>
      </trkpt>
      <trkpt lat="46.24953" lon="6.7905">
        <ele>1763</ele>
        <time>2019-08-14T20:37:43Z</time>
      </trkpt>
      <trkpt lat="46.24935" lon="6.7905">
        <ele>1763</ele>
        <time>2019-08-14T20:38:07Z</time>
      </trkpt>
      <trkpt lat="46.24922" lon="6.79048">
        <ele>1764</ele>
        <time>2019-08-14T20:38:24Z</time>
      </trkpt>
      <trkpt lat="46.24918" lon="6.79046">
        <ele>1764</ele>
        <time>2019-08-14T20:38:30Z</time>
      </trkpt>
      <trkpt lat="46.24914" lon="6.79044">
        <ele>1765</ele>
        <time>2019-08-14T20:38:36Z</time>
      </trkpt>
      <trkpt lat="46.24906" lon="6.79035">
        <ele>1770</ele>
        <time>2019-08-14T20:38:49Z</time>
      </trkpt>
      <trkpt lat="46.24903" lon="6.79034">
        <ele>1770</ele>
        <time>2019-08-14T20:38:53Z</time>
      </trkpt>
      <trkpt lat="46.24901" lon="6.79034">
        <ele>1770</ele>
        <time>2019-08-14T20:38:56Z</time>
      </trkpt>
      <trkpt lat="46.24898" lon="6.79035">
        <ele>1770</ele>
        <time>2019-08-14T20:39:00Z</time>
      </trkpt>
      <trkpt lat="46.2489" lon="6.79042">
        <ele>1768</ele>
        <time>2019-08-14T20:39:12Z</time>
      </trkpt>
      <trkpt lat="46.24885" lon="6.79044">
        <ele>1768</ele>
        <time>2019-08-14T20:39:19Z</time>
      </trkpt>
      <trkpt lat="46.24881" lon="6.79046">
        <ele>1767</ele>
        <time>2019-08-14T20:39:25Z</time>
      </trkpt>
      <trkpt lat="46.2486" lon="6.79052">
        <ele>1766</ele>
        <time>2019-08-14T20:39:54Z</time>
      </trkpt>
      <trkpt lat="46.24855" lon="6.79052">
        <ele>1766</ele>
        <time>2019-08-14T20:40:00Z</time>
      </trkpt>
      <trkpt lat="46.24851" lon="6.79051">
        <ele>1767</ele>
        <time>2019-08-14T20:40:06Z</time>
      </trkpt>
      <trkpt lat="46.24847" lon="6.79049">
        <ele>1768</ele>
        <time>2019-08-14T20:40:11Z</time>
      </trkpt>
      <trkpt lat="46.24836" lon="6.79041">
        <ele>1773</ele>
        <time>2019-08-14T20:40:28Z</time>
      </trkpt>
      <trkpt lat="46.24815" lon="6.79019">
        <ele>1777</ele>
        <time>2019-08-14T20:41:02Z</time>
      </trkpt>
      <trkpt lat="46.24805" lon="6.79005">
        <ele>1779</ele>
        <time>2019-08-14T20:41:21Z</time>
      </trkpt>
      <trkpt lat="46.24796" lon="6.78992">
        <ele>1780</ele>
        <time>2019-08-14T20:41:38Z</time>
      </trkpt>
      <trkpt lat="46.24796" lon="6.78987">
        <ele>1782</ele>
        <time>2019-08-14T20:41:43Z</time>
      </trkpt>
      <trkpt lat="46.24796" lon="6.78986">
        <ele>1782</ele>
        <time>2019-08-14T20:41:43Z</time>
      </trkpt>
      <trkpt lat="46.24797" lon="6.78984">
        <ele>1783</ele>
        <time>2019-08-14T20:41:46Z</time>
      </trkpt>
      <trkpt lat="46.24797" lon="6.78983">
        <ele>1784</ele>
        <time>2019-08-14T20:41:47Z</time>
      </trkpt>
      <trkpt lat="46.248" lon="6.78983">
        <ele>1785</ele>
        <time>2019-08-14T20:41:51Z</time>
      </trkpt>
      <trkpt lat="46.24801" lon="6.78983">
        <ele>1785</ele>
        <time>2019-08-14T20:41:52Z</time>
      </trkpt>
      <trkpt lat="46.24802" lon="6.78984">
        <ele>1786</ele>
        <time>2019-08-14T20:41:54Z</time>
      </trkpt>
      <trkpt lat="46.2481" lon="6.78992">
        <ele>1786</ele>
        <time>2019-08-14T20:42:07Z</time>
      </trkpt>
      <trkpt lat="46.24813" lon="6.78994">
        <ele>1787</ele>
        <time>2019-08-14T20:42:11Z</time>
      </trkpt>
      <trkpt lat="46.24816" lon="6.78997">
        <ele>1787</ele>
        <time>2019-08-14T20:42:16Z</time>
      </trkpt>
      <trkpt lat="46.24834" lon="6.79001">
        <ele>1793</ele>
        <time>2019-08-14T20:42:40Z</time>
      </trkpt>
      <trkpt lat="46.24835" lon="6.79002">
        <ele>1793</ele>
        <time>2019-08-14T20:42:42Z</time>
      </trkpt>
      <trkpt lat="46.24837" lon="6.79001">
        <ele>1793</ele>
        <time>2019-08-14T20:42:45Z</time>
      </trkpt>
      <trkpt lat="46.24838" lon="6.78996">
        <ele>1795</ele>
        <time>2019-08-14T20:42:49Z</time>
      </trkpt>
      <trkpt lat="46.24838" lon="6.78994">
        <ele>1796</ele>
        <time>2019-08-14T20:42:51Z</time>
      </trkpt>
      <trkpt lat="46.24837" lon="6.78992">
        <ele>1797</ele>
        <time>2019-08-14T20:42:54Z</time>
      </trkpt>
      <trkpt lat="46.24836" lon="6.78991">
        <ele>1797</ele>
        <time>2019-08-14T20:42:55Z</time>
      </trkpt>
      <trkpt lat="46.24822" lon="6.78979">
        <ele>1797</ele>
        <time>2019-08-14T20:43:17Z</time>
      </trkpt>
      <trkpt lat="46.24819" lon="6.78975">
        <ele>1797</ele>
        <time>2019-08-14T20:43:22Z</time>
      </trkpt>
      <trkpt lat="46.24817" lon="6.7897">
        <ele>1798</ele>
        <time>2019-08-14T20:43:28Z</time>
      </trkpt>
      <trkpt lat="46.24815" lon="6.7896">
        <ele>1800</ele>
        <time>2019-08-14T20:43:37Z</time>
      </trkpt>
      <trkpt lat="46.24814" lon="6.78956">
        <ele>1801</ele>
        <time>2019-08-14T20:43:41Z</time>
      </trkpt>
      <trkpt lat="46.24811" lon="6.78953">
        <ele>1801</ele>
        <time>2019-08-14T20:43:46Z</time>
      </trkpt>
      <trkpt lat="46.24808" lon="6.7895">
        <ele>1801</ele>
        <time>2019-08-14T20:43:51Z</time>
      </trkpt>
      <trkpt lat="46.24792" lon="6.78942">
        <ele>1796</ele>
        <time>2019-08-14T20:44:14Z</time>
      </trkpt>
      <trkpt lat="46.24789" lon="6.78939">
        <ele>1796</ele>
        <time>2019-08-14T20:44:18Z</time>
      </trkpt>
      <trkpt lat="46.24784" lon="6.78927">
        <ele>1798</ele>
        <time>2019-08-14T20:44:31Z</time>
      </trkpt>
      <trkpt lat="46.24783" lon="6.78923">
        <ele>1799</ele>
        <time>2019-08-14T20:44:35Z</time>
      </trkpt>
      <trkpt lat="46.24779" lon="6.78915">
        <ele>1800</ele>
        <time>2019-08-14T20:44:44Z</time>
      </trkpt>
      <trkpt lat="46.24778" lon="6.78913">
        <ele>1800</ele>
        <time>2019-08-14T20:44:47Z</time>
      </trkpt>
      <trkpt lat="46.24778" lon="6.78907">
        <ele>1803</ele>
        <time>2019-08-14T20:44:52Z</time>
      </trkpt>
      <trkpt lat="46.24779" lon="6.78905">
        <ele>1804</ele>
        <time>2019-08-14T20:44:54Z</time>
      </trkpt>
      <trkpt lat="46.24781" lon="6.78904">
        <ele>1806</ele>
        <time>2019-08-14T20:44:57Z</time>
      </trkpt>
      <trkpt lat="46.24783" lon="6.78905">
        <ele>1806</ele>
        <time>2019-08-14T20:45:00Z</time>
      </trkpt>
      <trkpt lat="46.24795" lon="6.78924">
        <ele>1804</ele>
        <time>2019-08-14T20:45:24Z</time>
      </trkpt>
      <trkpt lat="46.24798" lon="6.78926">
        <ele>1805</ele>
        <time>2019-08-14T20:45:28Z</time>
      </trkpt>
      <trkpt lat="46.24802" lon="6.78927">
        <ele>1806</ele>
        <time>2019-08-14T20:45:34Z</time>
      </trkpt>
      <trkpt lat="46.24814" lon="6.78925">
        <ele>1813</ele>
        <time>2019-08-14T20:45:50Z</time>
      </trkpt>
      <trkpt lat="46.24823" lon="6.78928">
        <ele>1816</ele>
        <time>2019-08-14T20:46:02Z</time>
      </trkpt>
      <trkpt lat="46.24834" lon="6.78935">
        <ele>1818</ele>
        <time>2019-08-14T20:46:18Z</time>
      </trkpt>
      <trkpt lat="46.24835" lon="6.78935">
        <ele>1818</ele>
        <time>2019-08-14T20:46:19Z</time>
      </trkpt>
      <trkpt lat="46.24837" lon="6.78934">
        <ele>1819</ele>
        <time>2019-08-14T20:46:22Z</time>
      </trkpt>
      <trkpt lat="46.24838" lon="6.7893">
        <ele>1820</ele>
        <time>2019-08-14T20:46:26Z</time>
      </trkpt>
      <trkpt lat="46.24838" lon="6.78927">
        <ele>1821</ele>
        <time>2019-08-14T20:46:29Z</time>
      </trkpt>
      <trkpt lat="46.24835" lon="6.78922">
        <ele>1823</ele>
        <time>2019-08-14T20:46:35Z</time>
      </trkpt>
      <trkpt lat="46.2483" lon="6.78917">
        <ele>1823</ele>
        <time>2019-08-14T20:46:43Z</time>
      </trkpt>
      <trkpt lat="46.24823" lon="6.78913">
        <ele>1822</ele>
        <time>2019-08-14T20:46:53Z</time>
      </trkpt>
      <trkpt lat="46.24816" lon="6.78909">
        <ele>1821</ele>
        <time>2019-08-14T20:47:03Z</time>
      </trkpt>
      <trkpt lat="46.2481" lon="6.78904">
        <ele>1820</ele>
        <time>2019-08-14T20:47:13Z</time>
      </trkpt>
      <trkpt lat="46.24807" lon="6.789">
        <ele>1821</ele>
        <time>2019-08-14T20:47:18Z</time>
      </trkpt>
      <trkpt lat="46.24804" lon="6.78892">
        <ele>1823</ele>
        <time>2019-08-14T20:47:26Z</time>
      </trkpt>
      <trkpt lat="46.24802" lon="6.78886">
        <ele>1825</ele>
        <time>2019-08-14T20:47:33Z</time>
      </trkpt>
      <trkpt lat="46.24787" lon="6.78862">
        <ele>1828</ele>
        <time>2019-08-14T20:48:02Z</time>
      </trkpt>
      <trkpt lat="46.24785" lon="6.78858">
        <ele>1829</ele>
        <time>2019-08-14T20:48:07Z</time>
      </trkpt>
      <trkpt lat="46.24783" lon="6.78848">
        <ele>1832</ele>
        <time>2019-08-14T20:48:17Z</time>
      </trkpt>
      <trkpt lat="46.24781" lon="6.78844">
        <ele>1833</ele>
        <time>2019-08-14T20:48:21Z</time>
      </trkpt>
      <trkpt lat="46.24777" lon="6.78838">
        <ele>1833</ele>
        <time>2019-08-14T20:48:29Z</time>
      </trkpt>
      <trkpt lat="46.24766" lon="6.78829">
        <ele>1829</ele>
        <time>2019-08-14T20:48:46Z</time>
      </trkpt>
      <trkpt lat="46.24763" lon="6.78824">
        <ele>1829</ele>
        <time>2019-08-14T20:48:52Z</time>
      </trkpt>
      <trkpt lat="46.24761" lon="6.7882">
        <ele>1828</ele>
        <time>2019-08-14T20:48:56Z</time>
      </trkpt>
      <trkpt lat="46.2476" lon="6.78815">
        <ele>1829</ele>
        <time>2019-08-14T20:49:01Z</time>
      </trkpt>
      <trkpt lat="46.24759" lon="6.7881">
        <ele>1830</ele>
        <time>2019-08-14T20:49:06Z</time>
      </trkpt>
      <trkpt lat="46.24748" lon="6.7878">
        <ele>1832</ele>
        <time>2019-08-14T20:49:37Z</time>
      </trkpt>
      <trkpt lat="46.24745" lon="6.78773">
        <ele>1832</ele>
        <time>2019-08-14T20:49:45Z</time>
      </trkpt>
      <trkpt lat="46.24743" lon="6.78759">
        <ele>1835</ele>
        <time>2019-08-14T20:49:58Z</time>
      </trkpt>
      <trkpt lat="46.24742" lon="6.78752">
        <ele>1836</ele>
        <time>2019-08-14T20:50:05Z</time>
      </trkpt>
      <trkpt lat="46.24741" lon="6.78722">
        <ele>1835</ele>
        <time>2019-08-14T20:50:32Z</time>
      </trkpt>
      <trkpt lat="46.2474" lon="6.78713">
        <ele>1834</ele>
        <time>2019-08-14T20:50:41Z</time>
      </trkpt>
      <trkpt lat="46.24739" lon="6.78705">
        <ele>1833</ele>
        <time>2019-08-14T20:50:48Z</time>
      </trkpt>
      <trkpt lat="46.24739" lon="6.78697">
        <ele>1833</ele>
        <time>2019-08-14T20:50:56Z</time>
      </trkpt>
      <trkpt lat="46.24739" lon="6.78691">
        <ele>1832</ele>
        <time>2019-08-14T20:51:01Z</time>
      </trkpt>
      <trkpt lat="46.2474" lon="6.78684">
        <ele>1833</ele>
        <time>2019-08-14T20:51:08Z</time>
      </trkpt>
      <trkpt lat="46.24742" lon="6.78672">
        <ele>1833</ele>
        <time>2019-08-14T20:51:19Z</time>
      </trkpt>
      <trkpt lat="46.24774" lon="6.78547">
        <ele>1831</ele>
        <time>2019-08-14T20:53:22Z</time>
      </trkpt>
      <trkpt lat="46.24776" lon="6.78537">
        <ele>1830</ele>
        <time>2019-08-14T20:53:32Z</time>
      </trkpt>
      <trkpt lat="46.24786" lon="6.78478">
        <ele>1825</ele>
        <time>2019-08-14T20:54:28Z</time>
      </trkpt>
      <trkpt lat="46.24796" lon="6.7842">
        <ele>1819</ele>
        <time>2019-08-14T20:55:23Z</time>
      </trkpt>
      <trkpt lat="46.24806" lon="6.78312">
        <ele>1806</ele>
        <time>2019-08-14T20:57:04Z</time>
      </trkpt>
      <trkpt lat="46.24807" lon="6.78306">
        <ele>1806</ele>
        <time>2019-08-14T20:57:09Z</time>
      </trkpt>
      <trkpt lat="46.24809" lon="6.78301">
        <ele>1805</ele>
        <time>2019-08-14T20:57:15Z</time>
      </trkpt>
      <trkpt lat="46.24812" lon="6.78292">
        <ele>1805</ele>
        <time>2019-08-14T20:57:24Z</time>
      </trkpt>
      <trkpt lat="46.24817" lon="6.78264">
        <ele>1801</ele>
        <time>2019-08-14T20:57:51Z</time>
      </trkpt>
      <trkpt lat="46.24818" lon="6.78258">
        <ele>1800</ele>
        <time>2019-08-14T20:57:56Z</time>
      </trkpt>
      <trkpt lat="46.24824" lon="6.7824">
        <ele>1798</ele>
        <time>2019-08-14T20:58:15Z</time>
      </trkpt>
      <trkpt lat="46.24826" lon="6.78235">
        <ele>1798</ele>
        <time>2019-08-14T20:58:20Z</time>
      </trkpt>
      <trkpt lat="46.24827" lon="6.78228">
        <ele>1798</ele>
        <time>2019-08-14T20:58:27Z</time>
      </trkpt>
      <trkpt lat="46.24829" lon="6.78221">
        <ele>1797</ele>
        <time>2019-08-14T20:58:34Z</time>
      </trkpt>
      <trkpt lat="46.24831" lon="6.78214">
        <ele>1797</ele>
        <time>2019-08-14T20:58:41Z</time>
      </trkpt>
      <trkpt lat="46.24834" lon="6.78199">
        <ele>1796</ele>
        <time>2019-08-14T20:58:55Z</time>
      </trkpt>
      <trkpt lat="46.24836" lon="6.78191">
        <ele>1795</ele>
        <time>2019-08-14T20:59:03Z</time>
      </trkpt>
      <trkpt lat="46.24839" lon="6.78167">
        <ele>1792</ele>
        <time>2019-08-14T20:59:25Z</time>
      </trkpt>
      <trkpt lat="46.2484" lon="6.7816">
        <ele>1792</ele>
        <time>2019-08-14T20:59:32Z</time>
      </trkpt>
      <trkpt lat="46.24842" lon="6.78152">
        <ele>1792</ele>
        <time>2019-08-14T20:59:40Z</time>
      </trkpt>
      <trkpt lat="46.24846" lon="6.78123">
        <ele>1791</ele>
        <time>2019-08-14T21:00:07Z</time>
      </trkpt>
      <trkpt lat="46.24848" lon="6.78116">
        <ele>1792</ele>
        <time>2019-08-14T21:00:14Z</time>
      </trkpt>
      <trkpt lat="46.2485" lon="6.78067">
        <ele>1787</ele>
        <time>2019-08-14T21:00:59Z</time>
      </trkpt>
      <trkpt lat="46.2485" lon="6.78059">
        <ele>1787</ele>
        <time>2019-08-14T21:01:07Z</time>
      </trkpt>
      <trkpt lat="46.24846" lon="6.78024">
        <ele>1781</ele>
        <time>2019-08-14T21:01:39Z</time>
      </trkpt>
      <trkpt lat="46.24846" lon="6.78017">
        <ele>1781</ele>
        <time>2019-08-14T21:01:46Z</time>
      </trkpt>
      <trkpt lat="46.24846" lon="6.78009">
        <ele>1780</ele>
        <time>2019-08-14T21:01:53Z</time>
      </trkpt>
      <trkpt lat="46.24848" lon="6.77995">
        <ele>1780</ele>
        <time>2019-08-14T21:02:07Z</time>
      </trkpt>
      <trkpt lat="46.24852" lon="6.7796">
        <ele>1777</ele>
        <time>2019-08-14T21:02:39Z</time>
      </trkpt>
      <trkpt lat="46.24856" lon="6.77942">
        <ele>1777</ele>
        <time>2019-08-14T21:02:57Z</time>
      </trkpt>
      <trkpt lat="46.24858" lon="6.77935">
        <ele>1778</ele>
        <time>2019-08-14T21:03:04Z</time>
      </trkpt>
      <trkpt lat="46.24858" lon="6.77928">
        <ele>1777</ele>
        <time>2019-08-14T21:03:10Z</time>
      </trkpt>
      <trkpt lat="46.24858" lon="6.77921">
        <ele>1776</ele>
        <time>2019-08-14T21:03:17Z</time>
      </trkpt>
      <trkpt lat="46.24857" lon="6.77915">
        <ele>1774</ele>
        <time>2019-08-14T21:03:22Z</time>
      </trkpt>
      <trkpt lat="46.24853" lon="6.77906">
        <ele>1771</ele>
        <time>2019-08-14T21:03:32Z</time>
      </trkpt>
      <trkpt lat="46.24852" lon="6.77895">
        <ele>1769</ele>
        <time>2019-08-14T21:03:42Z</time>
      </trkpt>
      <trkpt lat="46.24852" lon="6.77884">
        <ele>1768</ele>
        <time>2019-08-14T21:03:53Z</time>
      </trkpt>
      <trkpt lat="46.2485" lon="6.77877">
        <ele>1766</ele>
        <time>2019-08-14T21:04:00Z</time>
      </trkpt>
      <trkpt lat="46.24848" lon="6.77875">
        <ele>1765</ele>
        <time>2019-08-14T21:04:03Z</time>
      </trkpt>
      <trkpt lat="46.24846" lon="6.77875">
        <ele>1764</ele>
        <time>2019-08-14T21:04:05Z</time>
      </trkpt>
      <trkpt lat="46.24844" lon="6.77875">
        <ele>1763</ele>
        <time>2019-08-14T21:04:08Z</time>
      </trkpt>
      <trkpt lat="46.24842" lon="6.77876">
        <ele>1762</ele>
        <time>2019-08-14T21:04:11Z</time>
      </trkpt>
      <trkpt lat="46.24837" lon="6.77882">
        <ele>1760</ele>
        <time>2019-08-14T21:04:20Z</time>
      </trkpt>
      <trkpt lat="46.24836" lon="6.77886">
        <ele>1760</ele>
        <time>2019-08-14T21:04:24Z</time>
      </trkpt>
      <trkpt lat="46.2483" lon="6.77899">
        <ele>1758</ele>
        <time>2019-08-14T21:04:38Z</time>
      </trkpt>
      <trkpt lat="46.24829" lon="6.77902">
        <ele>1758</ele>
        <time>2019-08-14T21:04:41Z</time>
      </trkpt>
      <trkpt lat="46.24827" lon="6.77903">
        <ele>1757</ele>
        <time>2019-08-14T21:04:44Z</time>
      </trkpt>
      <trkpt lat="46.24824" lon="6.77903">
        <ele>1756</ele>
        <time>2019-08-14T21:04:48Z</time>
      </trkpt>
      <trkpt lat="46.24822" lon="6.77902">
        <ele>1755</ele>
        <time>2019-08-14T21:04:51Z</time>
      </trkpt>
      <trkpt lat="46.2482" lon="6.779">
        <ele>1755</ele>
        <time>2019-08-14T21:04:54Z</time>
      </trkpt>
      <trkpt lat="46.24818" lon="6.77891">
        <ele>1754</ele>
        <time>2019-08-14T21:05:03Z</time>
      </trkpt>
      <trkpt lat="46.24817" lon="6.77883">
        <ele>1753</ele>
        <time>2019-08-14T21:05:10Z</time>
      </trkpt>
      <trkpt lat="46.24804" lon="6.77825">
        <ele>1746</ele>
        <time>2019-08-14T21:06:06Z</time>
      </trkpt>
      <trkpt lat="46.24801" lon="6.77817">
        <ele>1745</ele>
        <time>2019-08-14T21:06:15Z</time>
      </trkpt>
      <trkpt lat="46.24794" lon="6.77804">
        <ele>1742</ele>
        <time>2019-08-14T21:06:30Z</time>
      </trkpt>
      <trkpt lat="46.24781" lon="6.77783">
        <ele>1739</ele>
        <time>2019-08-14T21:06:56Z</time>
      </trkpt>
      <trkpt lat="46.24763" lon="6.77757">
        <ele>1736</ele>
        <time>2019-08-14T21:07:30Z</time>
      </trkpt>
      <trkpt lat="46.2476" lon="6.77753">
        <ele>1735</ele>
        <time>2019-08-14T21:07:35Z</time>
      </trkpt>
      <trkpt lat="46.24756" lon="6.7774">
        <ele>1734</ele>
        <time>2019-08-14T21:07:49Z</time>
      </trkpt>
      <trkpt lat="46.24752" lon="6.77728">
        <ele>1733</ele>
        <time>2019-08-14T21:08:01Z</time>
      </trkpt>
      <trkpt lat="46.24745" lon="6.77712">
        <ele>1732</ele>
        <time>2019-08-14T21:08:18Z</time>
      </trkpt>
      <trkpt lat="46.24742" lon="6.77705">
        <ele>1732</ele>
        <time>2019-08-14T21:08:26Z</time>
      </trkpt>
      <trkpt lat="46.24722" lon="6.77673">
        <ele>1731</ele>
        <time>2019-08-14T21:09:06Z</time>
      </trkpt>
      <trkpt lat="46.24718" lon="6.7767">
        <ele>1732</ele>
        <time>2019-08-14T21:09:12Z</time>
      </trkpt>
      <trkpt lat="46.24715" lon="6.77667">
        <ele>1732</ele>
        <time>2019-08-14T21:09:17Z</time>
      </trkpt>
      <trkpt lat="46.24697" lon="6.7766">
        <ele>1732</ele>
        <time>2019-08-14T21:09:42Z</time>
      </trkpt>
      <trkpt lat="46.24692" lon="6.77659">
        <ele>1732</ele>
        <time>2019-08-14T21:09:48Z</time>
      </trkpt>
      <trkpt lat="46.24688" lon="6.77659">
        <ele>1732</ele>
        <time>2019-08-14T21:09:54Z</time>
      </trkpt>
      <trkpt lat="46.24684" lon="6.7766">
        <ele>1732</ele>
        <time>2019-08-14T21:09:59Z</time>
      </trkpt>
      <trkpt lat="46.24672" lon="6.77665">
        <ele>1734</ele>
        <time>2019-08-14T21:10:16Z</time>
      </trkpt>
      <trkpt lat="46.24668" lon="6.77667">
        <ele>1734</ele>
        <time>2019-08-14T21:10:21Z</time>
      </trkpt>
      <trkpt lat="46.24655" lon="6.7768">
        <ele>1733</ele>
        <time>2019-08-14T21:10:42Z</time>
      </trkpt>
      <trkpt lat="46.24651" lon="6.77683">
        <ele>1733</ele>
        <time>2019-08-14T21:10:48Z</time>
      </trkpt>
      <trkpt lat="46.24559" lon="6.7774">
        <ele>1728</ele>
        <time>2019-08-14T21:13:02Z</time>
      </trkpt>
      <trkpt lat="46.24555" lon="6.77742">
        <ele>1728</ele>
        <time>2019-08-14T21:13:08Z</time>
      </trkpt>
      <trkpt lat="46.24552" lon="6.77745">
        <ele>1727</ele>
        <time>2019-08-14T21:13:12Z</time>
      </trkpt>
      <trkpt lat="46.24542" lon="6.77759">
        <ele>1726</ele>
        <time>2019-08-14T21:13:31Z</time>
      </trkpt>
      <trkpt lat="46.24539" lon="6.77762">
        <ele>1725</ele>
        <time>2019-08-14T21:13:36Z</time>
      </trkpt>
      <trkpt lat="46.24534" lon="6.77764">
        <ele>1725</ele>
        <time>2019-08-14T21:13:43Z</time>
      </trkpt>
      <trkpt lat="46.24507" lon="6.77787">
        <ele>1720</ele>
        <time>2019-08-14T21:14:25Z</time>
      </trkpt>
      <trkpt lat="46.24502" lon="6.77791">
        <ele>1720</ele>
        <time>2019-08-14T21:14:32Z</time>
      </trkpt>
      <trkpt lat="46.24481" lon="6.77801">
        <ele>1721</ele>
        <time>2019-08-14T21:15:02Z</time>
      </trkpt>
      <trkpt lat="46.24477" lon="6.77803">
        <ele>1721</ele>
        <time>2019-08-14T21:15:07Z</time>
      </trkpt>
      <trkpt lat="46.24461" lon="6.77813">
        <ele>1722</ele>
        <time>2019-08-14T21:15:31Z</time>
      </trkpt>
      <trkpt lat="46.24457" lon="6.77815">
        <ele>1722</ele>
        <time>2019-08-14T21:15:36Z</time>
      </trkpt>
      <trkpt lat="46.24452" lon="6.77817">
        <ele>1723</ele>
        <time>2019-08-14T21:15:43Z</time>
      </trkpt>
      <trkpt lat="46.24438" lon="6.77822">
        <ele>1724</ele>
        <time>2019-08-14T21:16:03Z</time>
      </trkpt>
      <trkpt lat="46.2443" lon="6.77826">
        <ele>1725</ele>
        <time>2019-08-14T21:16:14Z</time>
      </trkpt>
      <trkpt lat="46.24401" lon="6.77842">
        <ele>1729</ele>
        <time>2019-08-14T21:16:55Z</time>
      </trkpt>
      <trkpt lat="46.24394" lon="6.77847">
        <ele>1730</ele>
        <time>2019-08-14T21:17:06Z</time>
      </trkpt>
      <trkpt lat="46.24391" lon="6.7785">
        <ele>1730</ele>
        <time>2019-08-14T21:17:11Z</time>
      </trkpt>
      <trkpt lat="46.24385" lon="6.7786">
        <ele>1729</ele>
        <time>2019-08-14T21:17:23Z</time>
      </trkpt>
      <trkpt lat="46.24376" lon="6.77869">
        <ele>1729</ele>
        <time>2019-08-14T21:17:37Z</time>
      </trkpt>
      <trkpt lat="46.24372" lon="6.77873">
        <ele>1729</ele>
        <time>2019-08-14T21:17:44Z</time>
      </trkpt>
      <trkpt lat="46.24268" lon="6.77943">
        <ele>1736</ele>
        <time>2019-08-14T21:20:17Z</time>
      </trkpt>
      <trkpt lat="46.24233" lon="6.77966">
        <ele>1732</ele>
        <time>2019-08-14T21:21:08Z</time>
      </trkpt>
      <trkpt lat="46.24202" lon="6.77986">
        <ele>1727</ele>
        <time>2019-08-14T21:21:54Z</time>
      </trkpt>
      <trkpt lat="46.24197" lon="6.77988">
        <ele>1727</ele>
        <time>2019-08-14T21:22:00Z</time>
      </trkpt>
      <trkpt lat="46.24187" lon="6.77994">
        <ele>1726</ele>
        <time>2019-08-14T21:22:15Z</time>
      </trkpt>
      <trkpt lat="46.24182" lon="6.77997">
        <ele>1726</ele>
        <time>2019-08-14T21:22:22Z</time>
      </trkpt>
      <trkpt lat="46.24177" lon="6.78001">
        <ele>1725</ele>
        <time>2019-08-14T21:22:30Z</time>
      </trkpt>
      <trkpt lat="46.24172" lon="6.78005">
        <ele>1725</ele>
        <time>2019-08-14T21:22:37Z</time>
      </trkpt>
      <trkpt lat="46.24154" lon="6.78025">
        <ele>1724</ele>
        <time>2019-08-14T21:23:08Z</time>
      </trkpt>
      <trkpt lat="46.24119" lon="6.78058">
        <ele>1721</ele>
        <time>2019-08-14T21:24:03Z</time>
      </trkpt>
      <trkpt lat="46.24114" lon="6.78062">
        <ele>1720</ele>
        <time>2019-08-14T21:24:11Z</time>
      </trkpt>
      <trkpt lat="46.2408" lon="6.78082">
        <ele>1718</ele>
        <time>2019-08-14T21:25:00Z</time>
      </trkpt>
      <trkpt lat="46.24072" lon="6.78086">
        <ele>1717</ele>
        <time>2019-08-14T21:25:11Z</time>
      </trkpt>
      <trkpt lat="46.24039" lon="6.78098">
        <ele>1714</ele>
        <time>2019-08-14T21:25:57Z</time>
      </trkpt>
      <trkpt lat="46.24034" lon="6.78099">
        <ele>1714</ele>
        <time>2019-08-14T21:26:03Z</time>
      </trkpt>
      <trkpt lat="46.24009" lon="6.78093">
        <ele>1717</ele>
        <time>2019-08-14T21:26:37Z</time>
      </trkpt>
      <trkpt lat="46.24003" lon="6.7809">
        <ele>1718</ele>
        <time>2019-08-14T21:26:46Z</time>
      </trkpt>
      <trkpt lat="46.23976" lon="6.78084">
        <ele>1717</ele>
        <time>2019-08-14T21:27:22Z</time>
      </trkpt>
      <trkpt lat="46.23971" lon="6.78083">
        <ele>1716</ele>
        <time>2019-08-14T21:27:29Z</time>
      </trkpt>
      <trkpt lat="46.23968" lon="6.78081">
        <ele>1716</ele>
        <time>2019-08-14T21:27:33Z</time>
      </trkpt>
      <trkpt lat="46.2394" lon="6.78061">
        <ele>1718</ele>
        <time>2019-08-14T21:28:15Z</time>
      </trkpt>
      <trkpt lat="46.23934" lon="6.78056">
        <ele>1718</ele>
        <time>2019-08-14T21:28:24Z</time>
      </trkpt>
      <trkpt lat="46.23929" lon="6.78053">
        <ele>1718</ele>
        <time>2019-08-14T21:28:32Z</time>
      </trkpt>
      <trkpt lat="46.23924" lon="6.78051">
        <ele>1718</ele>
        <time>2019-08-14T21:28:38Z</time>
      </trkpt>
      <trkpt lat="46.23912" lon="6.78048">
        <ele>1716</ele>
        <time>2019-08-14T21:28:55Z</time>
      </trkpt>
      <trkpt lat="46.23908" lon="6.78048">
        <ele>1716</ele>
        <time>2019-08-14T21:29:00Z</time>
      </trkpt>
      <trkpt lat="46.23904" lon="6.78046">
        <ele>1716</ele>
        <time>2019-08-14T21:29:06Z</time>
      </trkpt>
      <trkpt lat="46.23898" lon="6.78043">
        <ele>1716</ele>
        <time>2019-08-14T21:29:14Z</time>
      </trkpt>
      <trkpt lat="46.23875" lon="6.78029">
        <ele>1716</ele>
        <time>2019-08-14T21:29:47Z</time>
      </trkpt>
      <trkpt lat="46.2387" lon="6.78026">
        <ele>1716</ele>
        <time>2019-08-14T21:29:55Z</time>
      </trkpt>
      <trkpt lat="46.23842" lon="6.78017">
        <ele>1715</ele>
        <time>2019-08-14T21:30:33Z</time>
      </trkpt>
      <trkpt lat="46.23814" lon="6.78008">
        <ele>1713</ele>
        <time>2019-08-14T21:31:11Z</time>
      </trkpt>
      <trkpt lat="46.23801" lon="6.78002">
        <ele>1713</ele>
        <time>2019-08-14T21:31:29Z</time>
      </trkpt>
      <trkpt lat="46.23796" lon="6.78">
        <ele>1713</ele>
        <time>2019-08-14T21:31:36Z</time>
      </trkpt>
      <trkpt lat="46.23773" lon="6.77995">
        <ele>1711</ele>
        <time>2019-08-14T21:32:07Z</time>
      </trkpt>
      <trkpt lat="46.23768" lon="6.77994">
        <ele>1711</ele>
        <time>2019-08-14T21:32:14Z</time>
      </trkpt>
      <trkpt lat="46.23745" lon="6.77984">
        <ele>1711</ele>
        <time>2019-08-14T21:32:46Z</time>
      </trkpt>
      <trkpt lat="46.23721" lon="6.77975">
        <ele>1711</ele>
        <time>2019-08-14T21:33:19Z</time>
      </trkpt>
      <trkpt lat="46.23716" lon="6.77971">
        <ele>1712</ele>
        <time>2019-08-14T21:33:27Z</time>
      </trkpt>
      <trkpt lat="46.23706" lon="6.77964">
        <ele>1713</ele>
        <time>2019-08-14T21:33:42Z</time>
      </trkpt>
      <trkpt lat="46.23701" lon="6.77963">
        <ele>1712</ele>
        <time>2019-08-14T21:33:48Z</time>
      </trkpt>
      <trkpt lat="46.23697" lon="6.77961">
        <ele>1712</ele>
        <time>2019-08-14T21:33:54Z</time>
      </trkpt>
      <trkpt lat="46.23692" lon="6.77961">
        <ele>1711</ele>
        <time>2019-08-14T21:34:01Z</time>
      </trkpt>
      <trkpt lat="46.23682" lon="6.77961">
        <ele>1710</ele>
        <time>2019-08-14T21:34:14Z</time>
      </trkpt>
      <trkpt lat="46.23671" lon="6.77959">
        <ele>1709</ele>
        <time>2019-08-14T21:34:29Z</time>
      </trkpt>
      <trkpt lat="46.23666" lon="6.77958">
        <ele>1708</ele>
        <time>2019-08-14T21:34:36Z</time>
      </trkpt>
      <trkpt lat="46.23661" lon="6.77956">
        <ele>1708</ele>
        <time>2019-08-14T21:34:43Z</time>
      </trkpt>
      <trkpt lat="46.23654" lon="6.77954">
        <ele>1708</ele>
        <time>2019-08-14T21:34:52Z</time>
      </trkpt>
      <trkpt lat="46.23632" lon="6.77945">
        <ele>1707</ele>
        <time>2019-08-14T21:35:23Z</time>
      </trkpt>
      <trkpt lat="46.23627" lon="6.77943">
        <ele>1707</ele>
        <time>2019-08-14T21:35:30Z</time>
      </trkpt>
      <trkpt lat="46.23622" lon="6.7794">
        <ele>1707</ele>
        <time>2019-08-14T21:35:37Z</time>
      </trkpt>
      <trkpt lat="46.23603" lon="6.77923">
        <ele>1710</ele>
        <time>2019-08-14T21:36:07Z</time>
      </trkpt>
      <trkpt lat="46.23599" lon="6.7792">
        <ele>1710</ele>
        <time>2019-08-14T21:36:13Z</time>
      </trkpt>
      <trkpt lat="46.23573" lon="6.77906">
        <ele>1708</ele>
        <time>2019-08-14T21:36:50Z</time>
      </trkpt>
      <trkpt lat="46.23547" lon="6.77892">
        <ele>1703</ele>
        <time>2019-08-14T21:37:27Z</time>
      </trkpt>
      <trkpt lat="46.23534" lon="6.77883">
        <ele>1701</ele>
        <time>2019-08-14T21:37:46Z</time>
      </trkpt>
      <trkpt lat="46.2353" lon="6.77879">
        <ele>1700</ele>
        <time>2019-08-14T21:37:52Z</time>
      </trkpt>
      <trkpt lat="46.23523" lon="6.77869">
        <ele>1700</ele>
        <time>2019-08-14T21:38:05Z</time>
      </trkpt>
      <trkpt lat="46.23519" lon="6.77863">
        <ele>1700</ele>
        <time>2019-08-14T21:38:13Z</time>
      </trkpt>
      <trkpt lat="46.23516" lon="6.77856">
        <ele>1700</ele>
        <time>2019-08-14T21:38:21Z</time>
      </trkpt>
      <trkpt lat="46.23513" lon="6.77848">
        <ele>1701</ele>
        <time>2019-08-14T21:38:29Z</time>
      </trkpt>
      <trkpt lat="46.23508" lon="6.7783">
        <ele>1702</ele>
        <time>2019-08-14T21:38:47Z</time>
      </trkpt>
      <trkpt lat="46.23503" lon="6.77793">
        <ele>1704</ele>
        <time>2019-08-14T21:39:22Z</time>
      </trkpt>
      <trkpt lat="46.23501" lon="6.77765">
        <ele>1706</ele>
        <time>2019-08-14T21:39:48Z</time>
      </trkpt>
      <trkpt lat="46.23499" lon="6.77758">
        <ele>1706</ele>
        <time>2019-08-14T21:39:55Z</time>
      </trkpt>
      <trkpt lat="46.23498" lon="6.77753">
        <ele>1706</ele>
        <time>2019-08-14T21:40:00Z</time>
      </trkpt>
      <trkpt lat="46.23495" lon="6.77748">
        <ele>1707</ele>
        <time>2019-08-14T21:40:06Z</time>
      </trkpt>
      <trkpt lat="46.23491" lon="6.77745">
        <ele>1706</ele>
        <time>2019-08-14T21:40:12Z</time>
      </trkpt>
      <trkpt lat="46.23487" lon="6.77744">
        <ele>1706</ele>
        <time>2019-08-14T21:40:17Z</time>
      </trkpt>
      <trkpt lat="46.23482" lon="6.77745">
        <ele>1705</ele>
        <time>2019-08-14T21:40:24Z</time>
      </trkpt>
      <trkpt lat="46.23471" lon="6.77748">
        <ele>1703</ele>
        <time>2019-08-14T21:40:39Z</time>
      </trkpt>
      <trkpt lat="46.23464" lon="6.77751">
        <ele>1702</ele>
        <time>2019-08-14T21:40:49Z</time>
      </trkpt>
      <trkpt lat="46.23459" lon="6.77754">
        <ele>1701</ele>
        <time>2019-08-14T21:40:56Z</time>
      </trkpt>
      <trkpt lat="46.23444" lon="6.77767">
        <ele>1696</ele>
        <time>2019-08-14T21:41:19Z</time>
      </trkpt>
      <trkpt lat="46.2344" lon="6.77769">
        <ele>1695</ele>
        <time>2019-08-14T21:41:25Z</time>
      </trkpt>
      <trkpt lat="46.23434" lon="6.77771">
        <ele>1694</ele>
        <time>2019-08-14T21:41:33Z</time>
      </trkpt>
      <trkpt lat="46.23416" lon="6.77776">
        <ele>1690</ele>
        <time>2019-08-14T21:41:57Z</time>
      </trkpt>
      <trkpt lat="46.23411" lon="6.77776">
        <ele>1689</ele>
        <time>2019-08-14T21:42:04Z</time>
      </trkpt>
      <trkpt lat="46.23406" lon="6.77775">
        <ele>1688</ele>
        <time>2019-08-14T21:42:11Z</time>
      </trkpt>
      <trkpt lat="46.23401" lon="6.77771">
        <ele>1688</ele>
        <time>2019-08-14T21:42:19Z</time>
      </trkpt>
      <trkpt lat="46.23397" lon="6.77767">
        <ele>1688</ele>
        <time>2019-08-14T21:42:25Z</time>
      </trkpt>
      <trkpt lat="46.23391" lon="6.77755">
        <ele>1689</ele>
        <time>2019-08-14T21:42:39Z</time>
      </trkpt>
      <trkpt lat="46.2338" lon="6.77731">
        <ele>1694</ele>
        <time>2019-08-14T21:43:05Z</time>
      </trkpt>
      <trkpt lat="46.23372" lon="6.77717">
        <ele>1698</ele>
        <time>2019-08-14T21:43:22Z</time>
      </trkpt>
      <trkpt lat="46.23368" lon="6.77711">
        <ele>1699</ele>
        <time>2019-08-14T21:43:30Z</time>
      </trkpt>
      <trkpt lat="46.23362" lon="6.77706">
        <ele>1700</ele>
        <time>2019-08-14T21:43:39Z</time>
      </trkpt>
      <trkpt lat="46.23357" lon="6.77703">
        <ele>1700</ele>
        <time>2019-08-14T21:43:46Z</time>
      </trkpt>
      <trkpt lat="46.23353" lon="6.77701">
        <ele>1701</ele>
        <time>2019-08-14T21:43:52Z</time>
      </trkpt>
      <trkpt lat="46.23339" lon="6.77702">
        <ele>1699</ele>
        <time>2019-08-14T21:44:11Z</time>
      </trkpt>
      <trkpt lat="46.23332" lon="6.77702">
        <ele>1698</ele>
        <time>2019-08-14T21:44:20Z</time>
      </trkpt>
      <trkpt lat="46.23315" lon="6.77708">
        <ele>1695</ele>
        <time>2019-08-14T21:44:43Z</time>
      </trkpt>
      <trkpt lat="46.23309" lon="6.7771">
        <ele>1694</ele>
        <time>2019-08-14T21:44:51Z</time>
      </trkpt>
      <trkpt lat="46.23299" lon="6.77712">
        <ele>1693</ele>
        <time>2019-08-14T21:45:05Z</time>
      </trkpt>
      <trkpt lat="46.23286" lon="6.77714">
        <ele>1691</ele>
        <time>2019-08-14T21:45:22Z</time>
      </trkpt>
      <trkpt lat="46.23274" lon="6.77718">
        <ele>1689</ele>
        <time>2019-08-14T21:45:39Z</time>
      </trkpt>
      <trkpt lat="46.23258" lon="6.77727">
        <ele>1685</ele>
        <time>2019-08-14T21:46:02Z</time>
      </trkpt>
      <trkpt lat="46.23252" lon="6.77728">
        <ele>1685</ele>
        <time>2019-08-14T21:46:10Z</time>
      </trkpt>
      <trkpt lat="46.23247" lon="6.7773">
        <ele>1684</ele>
        <time>2019-08-14T21:46:17Z</time>
      </trkpt>
      <trkpt lat="46.23241" lon="6.77731">
        <ele>1683</ele>
        <time>2019-08-14T21:46:25Z</time>
      </trkpt>
      <trkpt lat="46.23229" lon="6.7773">
        <ele>1683</ele>
        <time>2019-08-14T21:46:41Z</time>
      </trkpt>
      <trkpt lat="46.23204" lon="6.77721">
        <ele>1684</ele>
        <time>2019-08-14T21:47:15Z</time>
      </trkpt>
      <trkpt lat="46.2319" lon="6.77706">
        <ele>1688</ele>
        <time>2019-08-14T21:47:38Z</time>
      </trkpt>
      <trkpt lat="46.23186" lon="6.77703">
        <ele>1689</ele>
        <time>2019-08-14T21:47:44Z</time>
      </trkpt>
      <trkpt lat="46.23181" lon="6.777">
        <ele>1690</ele>
        <time>2019-08-14T21:47:52Z</time>
      </trkpt>
      <trkpt lat="46.23166" lon="6.77693">
        <ele>1691</ele>
        <time>2019-08-14T21:48:13Z</time>
      </trkpt>
      <trkpt lat="46.23162" lon="6.7769">
        <ele>1690</ele>
        <time>2019-08-14T21:48:19Z</time>
      </trkpt>
      <trkpt lat="46.23158" lon="6.77687">
        <ele>1690</ele>
        <time>2019-08-14T21:48:25Z</time>
      </trkpt>
      <trkpt lat="46.23146" lon="6.77675">
        <ele>1690</ele>
        <time>2019-08-14T21:48:44Z</time>
      </trkpt>
      <trkpt lat="46.2313" lon="6.77653">
        <ele>1689</ele>
        <time>2019-08-14T21:49:14Z</time>
      </trkpt>
      <trkpt lat="46.23126" lon="6.77647">
        <ele>1688</ele>
        <time>2019-08-14T21:49:21Z</time>
      </trkpt>
      <trkpt lat="46.23123" lon="6.7764">
        <ele>1688</ele>
        <time>2019-08-14T21:49:29Z</time>
      </trkpt>
      <trkpt lat="46.2312" lon="6.77634">
        <ele>1688</ele>
        <time>2019-08-14T21:49:36Z</time>
      </trkpt>
      <trkpt lat="46.23105" lon="6.77589">
        <ele>1687</ele>
        <time>2019-08-14T21:50:22Z</time>
      </trkpt>
      <trkpt lat="46.23103" lon="6.77582">
        <ele>1687</ele>
        <time>2019-08-14T21:50:29Z</time>
      </trkpt>
      <trkpt lat="46.231" lon="6.77575">
        <ele>1686</ele>
        <time>2019-08-14T21:50:37Z</time>
      </trkpt>
      <trkpt lat="46.23096" lon="6.77569">
        <ele>1684</ele>
        <time>2019-08-14T21:50:44Z</time>
      </trkpt>
      <trkpt lat="46.23083" lon="6.77546">
        <ele>1680</ele>
        <time>2019-08-14T21:51:12Z</time>
      </trkpt>
      <trkpt lat="46.23077" lon="6.77532">
        <ele>1678</ele>
        <time>2019-08-14T21:51:27Z</time>
      </trkpt>
      <trkpt lat="46.23074" lon="6.77524">
        <ele>1678</ele>
        <time>2019-08-14T21:51:35Z</time>
      </trkpt>
      <trkpt lat="46.23073" lon="6.77516">
        <ele>1678</ele>
        <time>2019-08-14T21:51:43Z</time>
      </trkpt>
      <trkpt lat="46.23071" lon="6.77509">
        <ele>1677</ele>
        <time>2019-08-14T21:51:50Z</time>
      </trkpt>
      <trkpt lat="46.23069" lon="6.77493">
        <ele>1677</ele>
        <time>2019-08-14T21:52:05Z</time>
      </trkpt>
      <trkpt lat="46.23068" lon="6.77485">
        <ele>1676</ele>
        <time>2019-08-14T21:52:12Z</time>
      </trkpt>
      <trkpt lat="46.23061" lon="6.77459">
        <ele>1674</ele>
        <time>2019-08-14T21:52:38Z</time>
      </trkpt>
      <trkpt lat="46.23058" lon="6.77454">
        <ele>1674</ele>
        <time>2019-08-14T21:52:44Z</time>
      </trkpt>
      <trkpt lat="46.23055" lon="6.7745">
        <ele>1673</ele>
        <time>2019-08-14T21:52:50Z</time>
      </trkpt>
      <trkpt lat="46.23051" lon="6.77446">
        <ele>1673</ele>
        <time>2019-08-14T21:52:56Z</time>
      </trkpt>
      <trkpt lat="46.23047" lon="6.77445">
        <ele>1672</ele>
        <time>2019-08-14T21:53:01Z</time>
      </trkpt>
      <trkpt lat="46.2304" lon="6.77444">
        <ele>1671</ele>
        <time>2019-08-14T21:53:11Z</time>
      </trkpt>
      <trkpt lat="46.23032" lon="6.77439">
        <ele>1671</ele>
        <time>2019-08-14T21:53:22Z</time>
      </trkpt>
      <trkpt lat="46.23028" lon="6.77436">
        <ele>1670</ele>
        <time>2019-08-14T21:53:28Z</time>
      </trkpt>
      <trkpt lat="46.22993" lon="6.77402">
        <ele>1667</ele>
        <time>2019-08-14T21:54:25Z</time>
      </trkpt>
      <trkpt lat="46.22989" lon="6.77398">
        <ele>1667</ele>
        <time>2019-08-14T21:54:31Z</time>
      </trkpt>
      <trkpt lat="46.22985" lon="6.77392">
        <ele>1666</ele>
        <time>2019-08-14T21:54:39Z</time>
      </trkpt>
      <trkpt lat="46.22976" lon="6.77374">
        <ele>1666</ele>
        <time>2019-08-14T21:54:59Z</time>
      </trkpt>
      <trkpt lat="46.22968" lon="6.77367">
        <ele>1665</ele>
        <time>2019-08-14T21:55:12Z</time>
      </trkpt>
      <trkpt lat="46.22966" lon="6.77365">
        <ele>1665</ele>
        <time>2019-08-14T21:55:15Z</time>
      </trkpt>
      <trkpt lat="46.22955" lon="6.77357">
        <ele>1665</ele>
        <time>2019-08-14T21:55:32Z</time>
      </trkpt>
      <trkpt lat="46.22949" lon="6.77351">
        <ele>1665</ele>
        <time>2019-08-14T21:55:41Z</time>
      </trkpt>
      <trkpt lat="46.22932" lon="6.77328">
        <ele>1667</ele>
        <time>2019-08-14T21:56:12Z</time>
      </trkpt>
      <trkpt lat="46.2293" lon="6.77321">
        <ele>1667</ele>
        <time>2019-08-14T21:56:19Z</time>
      </trkpt>
      <trkpt lat="46.22925" lon="6.77315">
        <ele>1668</ele>
        <time>2019-08-14T21:56:28Z</time>
      </trkpt>
      <trkpt lat="46.22911" lon="6.77302">
        <ele>1670</ele>
        <time>2019-08-14T21:56:50Z</time>
      </trkpt>
      <trkpt lat="46.2291" lon="6.77293">
        <ele>1671</ele>
        <time>2019-08-14T21:56:59Z</time>
      </trkpt>
      <trkpt lat="46.22904" lon="6.77288">
        <ele>1672</ele>
        <time>2019-08-14T21:57:08Z</time>
      </trkpt>
      <trkpt lat="46.229" lon="6.77289">
        <ele>1672</ele>
        <time>2019-08-14T21:57:13Z</time>
      </trkpt>
      <trkpt lat="46.22877" lon="6.77288">
        <ele>1673</ele>
        <time>2019-08-14T21:57:44Z</time>
      </trkpt>
      <trkpt lat="46.2287" lon="6.77289">
        <ele>1673</ele>
        <time>2019-08-14T21:57:53Z</time>
      </trkpt>
      <trkpt lat="46.22864" lon="6.77285">
        <ele>1674</ele>
        <time>2019-08-14T21:58:02Z</time>
      </trkpt>
      <trkpt lat="46.22855" lon="6.77285">
        <ele>1675</ele>
        <time>2019-08-14T21:58:14Z</time>
      </trkpt>
      <trkpt lat="46.2285" lon="6.77282">
        <ele>1676</ele>
        <time>2019-08-14T21:58:21Z</time>
      </trkpt>
      <trkpt lat="46.22844" lon="6.77284">
        <ele>1676</ele>
        <time>2019-08-14T21:58:30Z</time>
      </trkpt>
      <trkpt lat="46.22837" lon="6.77282">
        <ele>1676</ele>
        <time>2019-08-14T21:58:39Z</time>
      </trkpt>
      <trkpt lat="46.22835" lon="6.77283">
        <ele>1676</ele>
        <time>2019-08-14T21:58:42Z</time>
      </trkpt>
      <trkpt lat="46.22831" lon="6.77285">
        <ele>1676</ele>
        <time>2019-08-14T21:58:48Z</time>
      </trkpt>
      <trkpt lat="46.22807" lon="6.77273">
        <ele>1682</ele>
        <time>2019-08-14T21:59:22Z</time>
      </trkpt>
      <trkpt lat="46.22793" lon="6.77272">
        <ele>1684</ele>
        <time>2019-08-14T21:59:40Z</time>
      </trkpt>
      <trkpt lat="46.22786" lon="6.77278">
        <ele>1684</ele>
        <time>2019-08-14T21:59:51Z</time>
      </trkpt>
      <trkpt lat="46.22778" lon="6.77291">
        <ele>1682</ele>
        <time>2019-08-14T22:00:07Z</time>
      </trkpt>
      <trkpt lat="46.22773" lon="6.7729">
        <ele>1682</ele>
        <time>2019-08-14T22:00:14Z</time>
      </trkpt>
      <trkpt lat="46.22767" lon="6.77295">
        <ele>1682</ele>
        <time>2019-08-14T22:00:23Z</time>
      </trkpt>
      <trkpt lat="46.22745" lon="6.77299">
        <ele>1684</ele>
        <time>2019-08-14T22:00:53Z</time>
      </trkpt>
      <trkpt lat="46.22739" lon="6.77303">
        <ele>1684</ele>
        <time>2019-08-14T22:01:02Z</time>
      </trkpt>
      <trkpt lat="46.22731" lon="6.77298">
        <ele>1686</ele>
        <time>2019-08-14T22:01:13Z</time>
      </trkpt>
      <trkpt lat="46.22718" lon="6.77299">
        <ele>1688</ele>
        <time>2019-08-14T22:01:31Z</time>
      </trkpt>
      <trkpt lat="46.22707" lon="6.77311">
        <ele>1687</ele>
        <time>2019-08-14T22:01:49Z</time>
      </trkpt>
      <trkpt lat="46.22699" lon="6.77315">
        <ele>1687</ele>
        <time>2019-08-14T22:02:00Z</time>
      </trkpt>
      <trkpt lat="46.22693" lon="6.77321">
        <ele>1686</ele>
        <time>2019-08-14T22:02:10Z</time>
      </trkpt>
      <trkpt lat="46.22682" lon="6.77323">
        <ele>1687</ele>
        <time>2019-08-14T22:02:25Z</time>
      </trkpt>
      <trkpt lat="46.22675" lon="6.77327">
        <ele>1687</ele>
        <time>2019-08-14T22:02:35Z</time>
      </trkpt>
      <trkpt lat="46.22671" lon="6.77334">
        <ele>1686</ele>
        <time>2019-08-14T22:02:43Z</time>
      </trkpt>
      <trkpt lat="46.22667" lon="6.77337">
        <ele>1687</ele>
        <time>2019-08-14T22:02:49Z</time>
      </trkpt>
      <trkpt lat="46.22653" lon="6.77351">
        <ele>1686</ele>
        <time>2019-08-14T22:03:12Z</time>
      </trkpt>
      <trkpt lat="46.2263" lon="6.77365">
        <ele>1686</ele>
        <time>2019-08-14T22:03:45Z</time>
      </trkpt>
      <trkpt lat="46.2262" lon="6.77367">
        <ele>1687</ele>
        <time>2019-08-14T22:03:59Z</time>
      </trkpt>
      <trkpt lat="46.22605" lon="6.77388">
        <ele>1685</ele>
        <time>2019-08-14T22:04:27Z</time>
      </trkpt>
      <trkpt lat="46.22604" lon="6.77394">
        <ele>1684</ele>
        <time>2019-08-14T22:04:32Z</time>
      </trkpt>
      <trkpt lat="46.22594" lon="6.77398">
        <ele>1684</ele>
        <time>2019-08-14T22:04:46Z</time>
      </trkpt>
      <trkpt lat="46.22586" lon="6.77404">
        <ele>1683</ele>
        <time>2019-08-14T22:04:58Z</time>
      </trkpt>
      <trkpt lat="46.22583" lon="6.77412">
        <ele>1682</ele>
        <time>2019-08-14T22:05:07Z</time>
      </trkpt>
      <trkpt lat="46.22579" lon="6.77413">
        <ele>1682</ele>
        <time>2019-08-14T22:05:12Z</time>
      </trkpt>
      <trkpt lat="46.22565" lon="6.77412">
        <ele>1684</ele>
        <time>2019-08-14T22:05:31Z</time>
      </trkpt>
      <trkpt lat="46.2256" lon="6.77409">
        <ele>1685</ele>
        <time>2019-08-14T22:05:38Z</time>
      </trkpt>
      <trkpt lat="46.22554" lon="6.77413">
        <ele>1686</ele>
        <time>2019-08-14T22:05:47Z</time>
      </trkpt>
      <trkpt lat="46.22548" lon="6.77415">
        <ele>1686</ele>
        <time>2019-08-14T22:05:55Z</time>
      </trkpt>
      <trkpt lat="46.22546" lon="6.77412">
        <ele>1687</ele>
        <time>2019-08-14T22:05:59Z</time>
      </trkpt>
      <trkpt lat="46.22537" lon="6.77413">
        <ele>1688</ele>
        <time>2019-08-14T22:06:11Z</time>
      </trkpt>
      <trkpt lat="46.22534" lon="6.77416">
        <ele>1688</ele>
        <time>2019-08-14T22:06:16Z</time>
      </trkpt>
      <trkpt lat="46.22528" lon="6.77416">
        <ele>1688</ele>
        <time>2019-08-14T22:06:24Z</time>
      </trkpt>
      <trkpt lat="46.22509" lon="6.77414">
        <ele>1691</ele>
        <time>2019-08-14T22:06:49Z</time>
      </trkpt>
      <trkpt lat="46.22498" lon="6.77403">
        <ele>1695</ele>
        <time>2019-08-14T22:07:07Z</time>
      </trkpt>
      <trkpt lat="46.2249" lon="6.774">
        <ele>1698</ele>
        <time>2019-08-14T22:07:18Z</time>
      </trkpt>
      <trkpt lat="46.22484" lon="6.77398">
        <ele>1700</ele>
        <time>2019-08-14T22:07:26Z</time>
      </trkpt>
      <trkpt lat="46.22475" lon="6.77399">
        <ele>1702</ele>
        <time>2019-08-14T22:07:38Z</time>
      </trkpt>
      <trkpt lat="46.22466" lon="6.77398">
        <ele>1704</ele>
        <time>2019-08-14T22:07:50Z</time>
      </trkpt>
      <trkpt lat="46.22416" lon="6.77407">
        <ele>1714</ele>
        <time>2019-08-14T22:08:58Z</time>
      </trkpt>
      <trkpt lat="46.22399" lon="6.77406">
        <ele>1718</ele>
        <time>2019-08-14T22:09:20Z</time>
      </trkpt>
      <trkpt lat="46.22386" lon="6.77413">
        <ele>1720</ele>
        <time>2019-08-14T22:09:39Z</time>
      </trkpt>
      <trkpt lat="46.2238" lon="6.77423">
        <ele>1719</ele>
        <time>2019-08-14T22:09:51Z</time>
      </trkpt>
      <trkpt lat="46.22362" lon="6.77421">
        <ele>1724</ele>
        <time>2019-08-14T22:10:15Z</time>
      </trkpt>
      <trkpt lat="46.22355" lon="6.77424">
        <ele>1725</ele>
        <time>2019-08-14T22:10:25Z</time>
      </trkpt>
      <trkpt lat="46.22329" lon="6.77446">
        <ele>1729</ele>
        <time>2019-08-14T22:11:05Z</time>
      </trkpt>
      <trkpt lat="46.22327" lon="6.77452">
        <ele>1728</ele>
        <time>2019-08-14T22:11:11Z</time>
      </trkpt>
      <trkpt lat="46.2232" lon="6.77457">
        <ele>1730</ele>
        <time>2019-08-14T22:11:22Z</time>
      </trkpt>
      <trkpt lat="46.22317" lon="6.77457">
        <ele>1731</ele>
        <time>2019-08-14T22:11:26Z</time>
      </trkpt>
      <trkpt lat="46.22314" lon="6.77461">
        <ele>1731</ele>
        <time>2019-08-14T22:11:31Z</time>
      </trkpt>
      <trkpt lat="46.22302" lon="6.77464">
        <ele>1734</ele>
        <time>2019-08-14T22:11:47Z</time>
      </trkpt>
      <trkpt lat="46.22298" lon="6.7747">
        <ele>1734</ele>
        <time>2019-08-14T22:11:55Z</time>
      </trkpt>
      <trkpt lat="46.22296" lon="6.77479">
        <ele>1734</ele>
        <time>2019-08-14T22:12:04Z</time>
      </trkpt>
      <trkpt lat="46.22291" lon="6.77484">
        <ele>1735</ele>
        <time>2019-08-14T22:12:12Z</time>
      </trkpt>
      <trkpt lat="46.22284" lon="6.77485">
        <ele>1737</ele>
        <time>2019-08-14T22:12:21Z</time>
      </trkpt>
      <trkpt lat="46.22278" lon="6.77483">
        <ele>1739</ele>
        <time>2019-08-14T22:12:29Z</time>
      </trkpt>
      <trkpt lat="46.22262" lon="6.77471">
        <ele>1744</ele>
        <time>2019-08-14T22:12:54Z</time>
      </trkpt>
      <trkpt lat="46.22257" lon="6.77461">
        <ele>1746</ele>
        <time>2019-08-14T22:13:05Z</time>
      </trkpt>
      <trkpt lat="46.2225" lon="6.77462">
        <ele>1748</ele>
        <time>2019-08-14T22:13:14Z</time>
      </trkpt>
      <trkpt lat="46.22225" lon="6.77457">
        <ele>1755</ele>
        <time>2019-08-14T22:13:48Z</time>
      </trkpt>
      <trkpt lat="46.2222" lon="6.77453">
        <ele>1757</ele>
        <time>2019-08-14T22:13:56Z</time>
      </trkpt>
      <trkpt lat="46.22212" lon="6.77451">
        <ele>1759</ele>
        <time>2019-08-14T22:14:06Z</time>
      </trkpt>
      <trkpt lat="46.22207" lon="6.77444">
        <ele>1761</ele>
        <time>2019-08-14T22:14:16Z</time>
      </trkpt>
      <trkpt lat="46.22199" lon="6.77446">
        <ele>1763</ele>
        <time>2019-08-14T22:14:27Z</time>
      </trkpt>
      <trkpt lat="46.22184" lon="6.77451">
        <ele>1766</ele>
        <time>2019-08-14T22:14:47Z</time>
      </trkpt>
      <trkpt lat="46.22178" lon="6.77449">
        <ele>1768</ele>
        <time>2019-08-14T22:14:55Z</time>
      </trkpt>
      <trkpt lat="46.22164" lon="6.77433">
        <ele>1774</ele>
        <time>2019-08-14T22:15:19Z</time>
      </trkpt>
      <trkpt lat="46.22161" lon="6.77431">
        <ele>1775</ele>
        <time>2019-08-14T22:15:24Z</time>
      </trkpt>
      <trkpt lat="46.22157" lon="6.77431">
        <ele>1777</ele>
        <time>2019-08-14T22:15:29Z</time>
      </trkpt>
      <trkpt lat="46.22147" lon="6.77431">
        <ele>1781</ele>
        <time>2019-08-14T22:15:42Z</time>
      </trkpt>
      <trkpt lat="46.22146" lon="6.77425">
        <ele>1782</ele>
        <time>2019-08-14T22:15:48Z</time>
      </trkpt>
      <trkpt lat="46.22147" lon="6.77419">
        <ele>1782</ele>
        <time>2019-08-14T22:15:54Z</time>
      </trkpt>
      <trkpt lat="46.22146" lon="6.77402">
        <ele>1784</ele>
        <time>2019-08-14T22:16:09Z</time>
      </trkpt>
      <trkpt lat="46.22147" lon="6.77393">
        <ele>1785</ele>
        <time>2019-08-14T22:16:18Z</time>
      </trkpt>
      <trkpt lat="46.22156" lon="6.77367">
        <ele>1786</ele>
        <time>2019-08-14T22:16:45Z</time>
      </trkpt>
      <trkpt lat="46.22159" lon="6.7736">
        <ele>1787</ele>
        <time>2019-08-14T22:16:52Z</time>
      </trkpt>
      <trkpt lat="46.22163" lon="6.77354">
        <ele>1787</ele>
        <time>2019-08-14T22:17:00Z</time>
      </trkpt>
      <trkpt lat="46.22167" lon="6.77349">
        <ele>1787</ele>
        <time>2019-08-14T22:17:07Z</time>
      </trkpt>
      <trkpt lat="46.2219" lon="6.77323">
        <ele>1783</ele>
        <time>2019-08-14T22:17:46Z</time>
      </trkpt>
      <trkpt lat="46.22198" lon="6.77316">
        <ele>1781</ele>
        <time>2019-08-14T22:17:58Z</time>
      </trkpt>
      <trkpt lat="46.22204" lon="6.77308">
        <ele>1780</ele>
        <time>2019-08-14T22:18:09Z</time>
      </trkpt>
      <trkpt lat="46.22208" lon="6.77302">
        <ele>1780</ele>
        <time>2019-08-14T22:18:17Z</time>
      </trkpt>
      <trkpt lat="46.22211" lon="6.77296">
        <ele>1779</ele>
        <time>2019-08-14T22:18:24Z</time>
      </trkpt>
      <trkpt lat="46.22211" lon="6.7729">
        <ele>1779</ele>
        <time>2019-08-14T22:18:29Z</time>
      </trkpt>
      <trkpt lat="46.2221" lon="6.77284">
        <ele>1780</ele>
        <time>2019-08-14T22:18:35Z</time>
      </trkpt>
      <trkpt lat="46.22207" lon="6.7728">
        <ele>1780</ele>
        <time>2019-08-14T22:18:41Z</time>
      </trkpt>
      <trkpt lat="46.22203" lon="6.7728">
        <ele>1781</ele>
        <time>2019-08-14T22:18:46Z</time>
      </trkpt>
      <trkpt lat="46.222" lon="6.7728">
        <ele>1781</ele>
        <time>2019-08-14T22:18:50Z</time>
      </trkpt>
      <trkpt lat="46.22196" lon="6.77283">
        <ele>1782</ele>
        <time>2019-08-14T22:18:56Z</time>
      </trkpt>
      <trkpt lat="46.22191" lon="6.77284">
        <ele>1782</ele>
        <time>2019-08-14T22:19:03Z</time>
      </trkpt>
      <trkpt lat="46.22146" lon="6.77293">
        <ele>1787</ele>
        <time>2019-08-14T22:20:03Z</time>
      </trkpt>
      <trkpt lat="46.22137" lon="6.77291">
        <ele>1787</ele>
        <time>2019-08-14T22:20:15Z</time>
      </trkpt>
      <trkpt lat="46.22123" lon="6.77281">
        <ele>1786</ele>
        <time>2019-08-14T22:20:36Z</time>
      </trkpt>
      <trkpt lat="46.22093" lon="6.77293">
        <ele>1789</ele>
        <time>2019-08-14T22:21:18Z</time>
      </trkpt>
      <trkpt lat="46.22089" lon="6.77295">
        <ele>1790</ele>
        <time>2019-08-14T22:21:23Z</time>
      </trkpt>
      <trkpt lat="46.22084" lon="6.77298">
        <ele>1791</ele>
        <time>2019-08-14T22:21:31Z</time>
      </trkpt>
      <trkpt lat="46.22079" lon="6.77302">
        <ele>1791</ele>
        <time>2019-08-14T22:21:38Z</time>
      </trkpt>
      <trkpt lat="46.22041" lon="6.77335">
        <ele>1793</ele>
        <time>2019-08-14T22:22:37Z</time>
      </trkpt>
      <trkpt lat="46.22015" lon="6.77363">
        <ele>1796</ele>
        <time>2019-08-14T22:23:21Z</time>
      </trkpt>
      <trkpt lat="46.21996" lon="6.77383">
        <ele>1799</ele>
        <time>2019-08-14T22:23:52Z</time>
      </trkpt>
      <trkpt lat="46.21966" lon="6.77416">
        <ele>1801</ele>
        <time>2019-08-14T22:24:42Z</time>
      </trkpt>
      <trkpt lat="46.21949" lon="6.77436">
        <ele>1802</ele>
        <time>2019-08-14T22:25:12Z</time>
      </trkpt>
      <trkpt lat="46.21931" lon="6.77455">
        <ele>1803</ele>
        <time>2019-08-14T22:25:41Z</time>
      </trkpt>
      <trkpt lat="46.21905" lon="6.77495">
        <ele>1806</ele>
        <time>2019-08-14T22:26:32Z</time>
      </trkpt>
      <trkpt lat="46.21898" lon="6.77504">
        <ele>1806</ele>
        <time>2019-08-14T22:26:45Z</time>
      </trkpt>
      <trkpt lat="46.21891" lon="6.77515">
        <ele>1805</ele>
        <time>2019-08-14T22:26:58Z</time>
      </trkpt>
      <trkpt lat="46.21886" lon="6.77526">
        <ele>1806</ele>
        <time>2019-08-14T22:27:11Z</time>
      </trkpt>
      <trkpt lat="46.21863" lon="6.77595">
        <ele>1811</ele>
        <time>2019-08-14T22:28:21Z</time>
      </trkpt>
      <trkpt lat="46.21858" lon="6.77609">
        <ele>1812</ele>
        <time>2019-08-14T22:28:36Z</time>
      </trkpt>
      <trkpt lat="46.21836" lon="6.77658">
        <ele>1815</ele>
        <time>2019-08-14T22:29:30Z</time>
      </trkpt>
      <trkpt lat="46.21813" lon="6.77707">
        <ele>1821</ele>
        <time>2019-08-14T22:30:24Z</time>
      </trkpt>
      <trkpt lat="46.21798" lon="6.77734">
        <ele>1824</ele>
        <time>2019-08-14T22:30:56Z</time>
      </trkpt>
      <trkpt lat="46.21785" lon="6.7775">
        <ele>1823</ele>
        <time>2019-08-14T22:31:19Z</time>
      </trkpt>
      <trkpt lat="46.21772" lon="6.77764">
        <ele>1822</ele>
        <time>2019-08-14T22:31:41Z</time>
      </trkpt>
      <trkpt lat="46.21758" lon="6.77778">
        <ele>1822</ele>
        <time>2019-08-14T22:32:04Z</time>
      </trkpt>
      <trkpt lat="46.21739" lon="6.77794">
        <ele>1822</ele>
        <time>2019-08-14T22:32:33Z</time>
      </trkpt>
      <trkpt lat="46.21718" lon="6.77811">
        <ele>1823</ele>
        <time>2019-08-14T22:33:05Z</time>
      </trkpt>
      <trkpt lat="46.21675" lon="6.77839">
        <ele>1822</ele>
        <time>2019-08-14T22:34:08Z</time>
      </trkpt>
      <trkpt lat="46.21664" lon="6.77847">
        <ele>1822</ele>
        <time>2019-08-14T22:34:24Z</time>
      </trkpt>
      <trkpt lat="46.21655" lon="6.7785">
        <ele>1821</ele>
        <time>2019-08-14T22:34:37Z</time>
      </trkpt>
      <trkpt lat="46.21646" lon="6.77855">
        <ele>1820</ele>
        <time>2019-08-14T22:34:50Z</time>
      </trkpt>
      <trkpt lat="46.21639" lon="6.77858">
        <ele>1819</ele>
        <time>2019-08-14T22:34:59Z</time>
      </trkpt>
      <trkpt lat="46.21632" lon="6.77864">
        <ele>1819</ele>
        <time>2019-08-14T22:35:10Z</time>
      </trkpt>
      <trkpt lat="46.21624" lon="6.77872">
        <ele>1819</ele>
        <time>2019-08-14T22:35:23Z</time>
      </trkpt>
      <trkpt lat="46.21598" lon="6.77906">
        <ele>1820</ele>
        <time>2019-08-14T22:36:10Z</time>
      </trkpt>
      <trkpt lat="46.21573" lon="6.77941">
        <ele>1819</ele>
        <time>2019-08-14T22:36:56Z</time>
      </trkpt>
      <trkpt lat="46.21568" lon="6.7795">
        <ele>1819</ele>
        <time>2019-08-14T22:37:07Z</time>
      </trkpt>
      <trkpt lat="46.21564" lon="6.7796">
        <ele>1820</ele>
        <time>2019-08-14T22:37:18Z</time>
      </trkpt>
      <trkpt lat="46.21559" lon="6.77983">
        <ele>1822</ele>
        <time>2019-08-14T22:37:40Z</time>
      </trkpt>
      <trkpt lat="46.21555" lon="6.77993">
        <ele>1823</ele>
        <time>2019-08-14T22:37:51Z</time>
      </trkpt>
      <trkpt lat="46.2155" lon="6.78006">
        <ele>1823</ele>
        <time>2019-08-14T22:38:04Z</time>
      </trkpt>
      <trkpt lat="46.21544" lon="6.78026">
        <ele>1824</ele>
        <time>2019-08-14T22:38:24Z</time>
      </trkpt>
      <trkpt lat="46.21539" lon="6.7804">
        <ele>1824</ele>
        <time>2019-08-14T22:38:39Z</time>
      </trkpt>
      <trkpt lat="46.21536" lon="6.78053">
        <ele>1825</ele>
        <time>2019-08-14T22:38:52Z</time>
      </trkpt>
      <trkpt lat="46.21533" lon="6.78073">
        <ele>1827</ele>
        <time>2019-08-14T22:39:11Z</time>
      </trkpt>
      <trkpt lat="46.21533" lon="6.78078">
        <ele>1828</ele>
        <time>2019-08-14T22:39:15Z</time>
      </trkpt>
      <trkpt lat="46.2152" lon="6.78121">
        <ele>1827</ele>
        <time>2019-08-14T22:39:59Z</time>
      </trkpt>
      <trkpt lat="46.21517" lon="6.78135">
        <ele>1828</ele>
        <time>2019-08-14T22:40:12Z</time>
      </trkpt>
      <trkpt lat="46.21515" lon="6.78147">
        <ele>1829</ele>
        <time>2019-08-14T22:40:23Z</time>
      </trkpt>
      <trkpt lat="46.21514" lon="6.78161">
        <ele>1830</ele>
        <time>2019-08-14T22:40:36Z</time>
      </trkpt>
      <trkpt lat="46.21514" lon="6.78183">
        <ele>1833</ele>
        <time>2019-08-14T22:40:57Z</time>
      </trkpt>
      <trkpt lat="46.21514" lon="6.78193">
        <ele>1834</ele>
        <time>2019-08-14T22:41:06Z</time>
      </trkpt>
      <trkpt lat="46.21511" lon="6.78202">
        <ele>1833</ele>
        <time>2019-08-14T22:41:15Z</time>
      </trkpt>
      <trkpt lat="46.21506" lon="6.78212">
        <ele>1831</ele>
        <time>2019-08-14T22:41:27Z</time>
      </trkpt>
      <trkpt lat="46.21499" lon="6.78228">
        <ele>1829</ele>
        <time>2019-08-14T22:41:44Z</time>
      </trkpt>
      <trkpt lat="46.21484" lon="6.78264">
        <ele>1829</ele>
        <time>2019-08-14T22:42:23Z</time>
      </trkpt>
      <trkpt lat="46.21479" lon="6.78276">
        <ele>1830</ele>
        <time>2019-08-14T22:42:36Z</time>
      </trkpt>
      <trkpt lat="46.21472" lon="6.78287">
        <ele>1830</ele>
        <time>2019-08-14T22:42:50Z</time>
      </trkpt>
      <trkpt lat="46.21456" lon="6.78311">
        <ele>1829</ele>
        <time>2019-08-14T22:43:20Z</time>
      </trkpt>
      <trkpt lat="46.21436" lon="6.78337">
        <ele>1829</ele>
        <time>2019-08-14T22:43:56Z</time>
      </trkpt>
      <trkpt lat="46.2143" lon="6.78344">
        <ele>1829</ele>
        <time>2019-08-14T22:44:07Z</time>
      </trkpt>
      <trkpt lat="46.21424" lon="6.7835">
        <ele>1828</ele>
        <time>2019-08-14T22:44:16Z</time>
      </trkpt>
      <trkpt lat="46.21418" lon="6.78355">
        <ele>1828</ele>
        <time>2019-08-14T22:44:26Z</time>
      </trkpt>
      <trkpt lat="46.21411" lon="6.7836">
        <ele>1827</ele>
        <time>2019-08-14T22:44:36Z</time>
      </trkpt>
      <trkpt lat="46.21398" lon="6.78369">
        <ele>1826</ele>
        <time>2019-08-14T22:44:55Z</time>
      </trkpt>
      <trkpt lat="46.21394" lon="6.78373">
        <ele>1826</ele>
        <time>2019-08-14T22:45:02Z</time>
      </trkpt>
      <trkpt lat="46.21389" lon="6.78377">
        <ele>1825</ele>
        <time>2019-08-14T22:45:09Z</time>
      </trkpt>
      <trkpt lat="46.21372" lon="6.78399">
        <ele>1826</ele>
        <time>2019-08-14T22:45:40Z</time>
      </trkpt>
      <trkpt lat="46.21354" lon="6.7842">
        <ele>1827</ele>
        <time>2019-08-14T22:46:11Z</time>
      </trkpt>
      <trkpt lat="46.2135" lon="6.78425">
        <ele>1827</ele>
        <time>2019-08-14T22:46:18Z</time>
      </trkpt>
      <trkpt lat="46.21345" lon="6.78429">
        <ele>1827</ele>
        <time>2019-08-14T22:46:25Z</time>
      </trkpt>
      <trkpt lat="46.21328" lon="6.78444">
        <ele>1826</ele>
        <time>2019-08-14T22:46:52Z</time>
      </trkpt>
      <trkpt lat="46.21324" lon="6.78448">
        <ele>1826</ele>
        <time>2019-08-14T22:46:58Z</time>
      </trkpt>
      <trkpt lat="46.2132" lon="6.78452">
        <ele>1826</ele>
        <time>2019-08-14T22:47:05Z</time>
      </trkpt>
      <trkpt lat="46.21313" lon="6.78462">
        <ele>1827</ele>
        <time>2019-08-14T22:47:18Z</time>
      </trkpt>
      <trkpt lat="46.2131" lon="6.78465">
        <ele>1827</ele>
        <time>2019-08-14T22:47:23Z</time>
      </trkpt>
      <trkpt lat="46.21306" lon="6.78469">
        <ele>1828</ele>
        <time>2019-08-14T22:47:29Z</time>
      </trkpt>
      <trkpt lat="46.21302" lon="6.78471">
        <ele>1827</ele>
        <time>2019-08-14T22:47:35Z</time>
      </trkpt>
      <trkpt lat="46.21298" lon="6.78473">
        <ele>1827</ele>
        <time>2019-08-14T22:47:41Z</time>
      </trkpt>
      <trkpt lat="46.21287" lon="6.78475">
        <ele>1826</ele>
        <time>2019-08-14T22:47:56Z</time>
      </trkpt>
      <trkpt lat="46.21282" lon="6.78476">
        <ele>1825</ele>
        <time>2019-08-14T22:48:02Z</time>
      </trkpt>
      <trkpt lat="46.21252" lon="6.78491">
        <ele>1824</ele>
        <time>2019-08-14T22:48:45Z</time>
      </trkpt>
      <trkpt lat="46.21246" lon="6.78494">
        <ele>1824</ele>
        <time>2019-08-14T22:48:53Z</time>
      </trkpt>
      <trkpt lat="46.21236" lon="6.78502">
        <ele>1823</ele>
        <time>2019-08-14T22:49:08Z</time>
      </trkpt>
      <trkpt lat="46.2123" lon="6.78506">
        <ele>1823</ele>
        <time>2019-08-14T22:49:17Z</time>
      </trkpt>
      <trkpt lat="46.21225" lon="6.78512">
        <ele>1823</ele>
        <time>2019-08-14T22:49:26Z</time>
      </trkpt>
      <trkpt lat="46.2122" lon="6.78517">
        <ele>1822</ele>
        <time>2019-08-14T22:49:34Z</time>
      </trkpt>
      <trkpt lat="46.21213" lon="6.78529">
        <ele>1823</ele>
        <time>2019-08-14T22:49:48Z</time>
      </trkpt>
      <trkpt lat="46.2121" lon="6.78534">
        <ele>1823</ele>
        <time>2019-08-14T22:49:55Z</time>
      </trkpt>
      <trkpt lat="46.21208" lon="6.78536">
        <ele>1823</ele>
        <time>2019-08-14T22:49:58Z</time>
      </trkpt>
      <trkpt lat="46.21206" lon="6.78538">
        <ele>1823</ele>
        <time>2019-08-14T22:50:01Z</time>
      </trkpt>
      <trkpt lat="46.21204" lon="6.78539">
        <ele>1822</ele>
        <time>2019-08-14T22:50:04Z</time>
      </trkpt>
      <trkpt lat="46.21199" lon="6.7854">
        <ele>1821</ele>
        <time>2019-08-14T22:50:11Z</time>
      </trkpt>
      <trkpt lat="46.21191" lon="6.7854">
        <ele>1819</ele>
        <time>2019-08-14T22:50:21Z</time>
      </trkpt>
      <trkpt lat="46.21187" lon="6.78541">
        <ele>1818</ele>
        <time>2019-08-14T22:50:27Z</time>
      </trkpt>
      <trkpt lat="46.21179" lon="6.78545">
        <ele>1817</ele>
        <time>2019-08-14T22:50:38Z</time>
      </trkpt>
      <trkpt lat="46.21175" lon="6.78549">
        <ele>1817</ele>
        <time>2019-08-14T22:50:44Z</time>
      </trkpt>
      <trkpt lat="46.21173" lon="6.78554">
        <ele>1817</ele>
        <time>2019-08-14T22:50:50Z</time>
      </trkpt>
      <trkpt lat="46.2117" lon="6.78561">
        <ele>1817</ele>
        <time>2019-08-14T22:50:57Z</time>
      </trkpt>
      <trkpt lat="46.21169" lon="6.78568">
        <ele>1818</ele>
        <time>2019-08-14T22:51:04Z</time>
      </trkpt>
      <trkpt lat="46.21167" lon="6.78574">
        <ele>1818</ele>
        <time>2019-08-14T22:51:10Z</time>
      </trkpt>
      <trkpt lat="46.21167" lon="6.78581">
        <ele>1819</ele>
        <time>2019-08-14T22:51:17Z</time>
      </trkpt>
      <trkpt lat="46.21165" lon="6.78612">
        <ele>1822</ele>
        <time>2019-08-14T22:51:45Z</time>
      </trkpt>
      <trkpt lat="46.21164" lon="6.78621">
        <ele>1823</ele>
        <time>2019-08-14T22:51:54Z</time>
      </trkpt>
      <trkpt lat="46.21162" lon="6.78629">
        <ele>1823</ele>
        <time>2019-08-14T22:52:02Z</time>
      </trkpt>
      <trkpt lat="46.21159" lon="6.78637">
        <ele>1824</ele>
        <time>2019-08-14T22:52:10Z</time>
      </trkpt>
      <trkpt lat="46.21153" lon="6.78648">
        <ele>1823</ele>
        <time>2019-08-14T22:52:23Z</time>
      </trkpt>
      <trkpt lat="46.21138" lon="6.78673">
        <ele>1823</ele>
        <time>2019-08-14T22:52:54Z</time>
      </trkpt>
      <trkpt lat="46.21122" lon="6.78698">
        <ele>1823</ele>
        <time>2019-08-14T22:53:25Z</time>
      </trkpt>
      <trkpt lat="46.21112" lon="6.78711">
        <ele>1823</ele>
        <time>2019-08-14T22:53:43Z</time>
      </trkpt>
      <trkpt lat="46.21108" lon="6.78716">
        <ele>1823</ele>
        <time>2019-08-14T22:53:50Z</time>
      </trkpt>
      <trkpt lat="46.21104" lon="6.7872">
        <ele>1823</ele>
        <time>2019-08-14T22:53:56Z</time>
      </trkpt>
      <trkpt lat="46.21099" lon="6.78724">
        <ele>1822</ele>
        <time>2019-08-14T22:54:04Z</time>
      </trkpt>
      <trkpt lat="46.21068" lon="6.78744">
        <ele>1819</ele>
        <time>2019-08-14T22:54:49Z</time>
      </trkpt>
      <trkpt lat="46.21063" lon="6.78747">
        <ele>1819</ele>
        <time>2019-08-14T22:54:57Z</time>
      </trkpt>
      <trkpt lat="46.2104" lon="6.78768">
        <ele>1819</ele>
        <time>2019-08-14T22:55:33Z</time>
      </trkpt>
      <trkpt lat="46.21035" lon="6.78774">
        <ele>1819</ele>
        <time>2019-08-14T22:55:42Z</time>
      </trkpt>
      <trkpt lat="46.21024" lon="6.78782">
        <ele>1818</ele>
        <time>2019-08-14T22:55:58Z</time>
      </trkpt>
      <trkpt lat="46.21007" lon="6.78794">
        <ele>1817</ele>
        <time>2019-08-14T22:56:23Z</time>
      </trkpt>
      <trkpt lat="46.21003" lon="6.78798">
        <ele>1816</ele>
        <time>2019-08-14T22:56:30Z</time>
      </trkpt>
      <trkpt lat="46.20993" lon="6.78807">
        <ele>1817</ele>
        <time>2019-08-14T22:56:46Z</time>
      </trkpt>
      <trkpt lat="46.20986" lon="6.78816">
        <ele>1819</ele>
        <time>2019-08-14T22:56:58Z</time>
      </trkpt>
      <trkpt lat="46.20975" lon="6.78831">
        <ele>1822</ele>
        <time>2019-08-14T22:57:18Z</time>
      </trkpt>
      <trkpt lat="46.20971" lon="6.78835">
        <ele>1823</ele>
        <time>2019-08-14T22:57:25Z</time>
      </trkpt>
      <trkpt lat="46.20966" lon="6.78838">
        <ele>1823</ele>
        <time>2019-08-14T22:57:32Z</time>
      </trkpt>
      <trkpt lat="46.20958" lon="6.78839">
        <ele>1824</ele>
        <time>2019-08-14T22:57:43Z</time>
      </trkpt>
      <trkpt lat="46.20953" lon="6.78838">
        <ele>1823</ele>
        <time>2019-08-14T22:57:49Z</time>
      </trkpt>
      <trkpt lat="46.20938" lon="6.78825">
        <ele>1819</ele>
        <time>2019-08-14T22:58:13Z</time>
      </trkpt>
      <trkpt lat="46.20933" lon="6.78821">
        <ele>1818</ele>
        <time>2019-08-14T22:58:20Z</time>
      </trkpt>
      <trkpt lat="46.20911" lon="6.78809">
        <ele>1813</ele>
        <time>2019-08-14T22:58:52Z</time>
      </trkpt>
      <trkpt lat="46.20901" lon="6.78806">
        <ele>1812</ele>
        <time>2019-08-14T22:59:05Z</time>
      </trkpt>
      <trkpt lat="46.20896" lon="6.78805">
        <ele>1811</ele>
        <time>2019-08-14T22:59:12Z</time>
      </trkpt>
      <trkpt lat="46.20891" lon="6.78805">
        <ele>1811</ele>
        <time>2019-08-14T22:59:19Z</time>
      </trkpt>
      <trkpt lat="46.20868" lon="6.78807">
        <ele>1811</ele>
        <time>2019-08-14T22:59:49Z</time>
      </trkpt>
      <trkpt lat="46.20863" lon="6.78808">
        <ele>1811</ele>
        <time>2019-08-14T22:59:56Z</time>
      </trkpt>
      <trkpt lat="46.20858" lon="6.78808">
        <ele>1811</ele>
        <time>2019-08-14T23:00:03Z</time>
      </trkpt>
      <trkpt lat="46.20854" lon="6.7881">
        <ele>1811</ele>
        <time>2019-08-14T23:00:09Z</time>
      </trkpt>
      <trkpt lat="46.20849" lon="6.78812">
        <ele>1812</ele>
        <time>2019-08-14T23:00:15Z</time>
      </trkpt>
      <trkpt lat="46.20824" lon="6.78826">
        <ele>1814</ele>
        <time>2019-08-14T23:00:51Z</time>
      </trkpt>
      <trkpt lat="46.2082" lon="6.78827">
        <ele>1813</ele>
        <time>2019-08-14T23:00:57Z</time>
      </trkpt>
      <trkpt lat="46.20816" lon="6.78826">
        <ele>1813</ele>
        <time>2019-08-14T23:01:02Z</time>
      </trkpt>
      <trkpt lat="46.20811" lon="6.78825">
        <ele>1812</ele>
        <time>2019-08-14T23:01:09Z</time>
      </trkpt>
      <trkpt lat="46.20797" lon="6.78819">
        <ele>1810</ele>
        <time>2019-08-14T23:01:28Z</time>
      </trkpt>
      <trkpt lat="46.20782" lon="6.78815">
        <ele>1808</ele>
        <time>2019-08-14T23:01:49Z</time>
      </trkpt>
      <trkpt lat="46.20763" lon="6.78808">
        <ele>1806</ele>
        <time>2019-08-14T23:02:15Z</time>
      </trkpt>
      <trkpt lat="46.20763" lon="6.78808">
        <ele>1806</ele>
        <time>2019-08-14T23:02:15Z</time>
      </trkpt>
      <trkpt lat="46.20757" lon="6.78815">
        <ele>1807</ele>
        <time>2019-08-14T23:02:25Z</time>
      </trkpt>
      <trkpt lat="46.2075" lon="6.78819">
        <ele>1807</ele>
        <time>2019-08-14T23:02:35Z</time>
      </trkpt>
      <trkpt lat="46.20746" lon="6.7882">
        <ele>1807</ele>
        <time>2019-08-14T23:02:41Z</time>
      </trkpt>
      <trkpt lat="46.20743" lon="6.78824">
        <ele>1807</ele>
        <time>2019-08-14T23:02:46Z</time>
      </trkpt>
      <trkpt lat="46.2074" lon="6.78831">
        <ele>1808</ele>
        <time>2019-08-14T23:02:54Z</time>
      </trkpt>
      <trkpt lat="46.2074" lon="6.78835">
        <ele>1808</ele>
        <time>2019-08-14T23:02:57Z</time>
      </trkpt>
      <trkpt lat="46.2074" lon="6.78838">
        <ele>1809</ele>
        <time>2019-08-14T23:03:00Z</time>
      </trkpt>
      <trkpt lat="46.20742" lon="6.78844">
        <ele>1810</ele>
        <time>2019-08-14T23:03:06Z</time>
      </trkpt>
      <trkpt lat="46.20741" lon="6.78848">
        <ele>1810</ele>
        <time>2019-08-14T23:03:10Z</time>
      </trkpt>
      <trkpt lat="46.20736" lon="6.7885">
        <ele>1810</ele>
        <time>2019-08-14T23:03:17Z</time>
      </trkpt>
      <trkpt lat="46.20734" lon="6.78851">
        <ele>1810</ele>
        <time>2019-08-14T23:03:20Z</time>
      </trkpt>
      <trkpt lat="46.20732" lon="6.78854">
        <ele>1810</ele>
        <time>2019-08-14T23:03:24Z</time>
      </trkpt>
      <trkpt lat="46.20711" lon="6.78899">
        <ele>1814</ele>
        <time>2019-08-14T23:04:14Z</time>
      </trkpt>
      <trkpt lat="46.20691" lon="6.78958">
        <ele>1821</ele>
        <time>2019-08-14T23:05:15Z</time>
      </trkpt>
      <trkpt lat="46.20688" lon="6.78965">
        <ele>1822</ele>
        <time>2019-08-14T23:05:22Z</time>
      </trkpt>
      <trkpt lat="46.20684" lon="6.78967">
        <ele>1822</ele>
        <time>2019-08-14T23:05:28Z</time>
      </trkpt>
      <trkpt lat="46.2068" lon="6.78969">
        <ele>1822</ele>
        <time>2019-08-14T23:05:33Z</time>
      </trkpt>
      <trkpt lat="46.20674" lon="6.78976">
        <ele>1823</ele>
        <time>2019-08-14T23:05:44Z</time>
      </trkpt>
      <trkpt lat="46.20672" lon="6.78982">
        <ele>1824</ele>
        <time>2019-08-14T23:05:50Z</time>
      </trkpt>
      <trkpt lat="46.2066" lon="6.78993">
        <ele>1825</ele>
        <time>2019-08-14T23:06:09Z</time>
      </trkpt>
      <trkpt lat="46.20644" lon="6.79014">
        <ele>1828</ele>
        <time>2019-08-14T23:06:38Z</time>
      </trkpt>
      <trkpt lat="46.20634" lon="6.79023">
        <ele>1828</ele>
        <time>2019-08-14T23:06:53Z</time>
      </trkpt>
      <trkpt lat="46.20622" lon="6.7903">
        <ele>1829</ele>
        <time>2019-08-14T23:07:11Z</time>
      </trkpt>
      <trkpt lat="46.20614" lon="6.79037">
        <ele>1829</ele>
        <time>2019-08-14T23:07:23Z</time>
      </trkpt>
      <trkpt lat="46.20595" lon="6.79073">
        <ele>1834</ele>
        <time>2019-08-14T23:08:05Z</time>
      </trkpt>
      <trkpt lat="46.20588" lon="6.79087">
        <ele>1837</ele>
        <time>2019-08-14T23:08:21Z</time>
      </trkpt>
      <trkpt lat="46.20585" lon="6.79096">
        <ele>1838</ele>
        <time>2019-08-14T23:08:30Z</time>
      </trkpt>
      <trkpt lat="46.2058" lon="6.79106">
        <ele>1839</ele>
        <time>2019-08-14T23:08:42Z</time>
      </trkpt>
      <trkpt lat="46.20575" lon="6.79114">
        <ele>1840</ele>
        <time>2019-08-14T23:08:52Z</time>
      </trkpt>
      <trkpt lat="46.20572" lon="6.79121">
        <ele>1841</ele>
        <time>2019-08-14T23:08:59Z</time>
      </trkpt>
      <trkpt lat="46.20568" lon="6.79125">
        <ele>1841</ele>
        <time>2019-08-14T23:09:06Z</time>
      </trkpt>
      <trkpt lat="46.20564" lon="6.79127">
        <ele>1841</ele>
        <time>2019-08-14T23:09:11Z</time>
      </trkpt>
      <trkpt lat="46.20552" lon="6.79136">
        <ele>1842</ele>
        <time>2019-08-14T23:09:29Z</time>
      </trkpt>
      <trkpt lat="46.20534" lon="6.79152">
        <ele>1843</ele>
        <time>2019-08-14T23:09:58Z</time>
      </trkpt>
      <trkpt lat="46.20524" lon="6.79165">
        <ele>1844</ele>
        <time>2019-08-14T23:10:15Z</time>
      </trkpt>
      <trkpt lat="46.20518" lon="6.7917">
        <ele>1845</ele>
        <time>2019-08-14T23:10:25Z</time>
      </trkpt>
      <trkpt lat="46.20498" lon="6.79185">
        <ele>1849</ele>
        <time>2019-08-14T23:10:55Z</time>
      </trkpt>
      <trkpt lat="46.20491" lon="6.79187">
        <ele>1849</ele>
        <time>2019-08-14T23:11:04Z</time>
      </trkpt>
      <trkpt lat="46.20487" lon="6.79191">
        <ele>1850</ele>
        <time>2019-08-14T23:11:11Z</time>
      </trkpt>
      <trkpt lat="46.20468" lon="6.79199">
        <ele>1852</ele>
        <time>2019-08-14T23:11:37Z</time>
      </trkpt>
      <trkpt lat="46.20458" lon="6.79203">
        <ele>1854</ele>
        <time>2019-08-14T23:11:51Z</time>
      </trkpt>
      <trkpt lat="46.20453" lon="6.79213">
        <ele>1856</ele>
        <time>2019-08-14T23:12:02Z</time>
      </trkpt>
      <trkpt lat="46.2045" lon="6.79212">
        <ele>1856</ele>
        <time>2019-08-14T23:12:07Z</time>
      </trkpt>
      <trkpt lat="46.20449" lon="6.79216">
        <ele>1857</ele>
        <time>2019-08-14T23:12:10Z</time>
      </trkpt>
      <trkpt lat="46.20442" lon="6.79219">
        <ele>1858</ele>
        <time>2019-08-14T23:12:20Z</time>
      </trkpt>
      <trkpt lat="46.20438" lon="6.79218">
        <ele>1857</ele>
        <time>2019-08-14T23:12:26Z</time>
      </trkpt>
      <trkpt lat="46.20414" lon="6.79226">
        <ele>1859</ele>
        <time>2019-08-14T23:12:59Z</time>
      </trkpt>
      <trkpt lat="46.20406" lon="6.79233">
        <ele>1859</ele>
        <time>2019-08-14T23:13:11Z</time>
      </trkpt>
      <trkpt lat="46.20399" lon="6.79241">
        <ele>1861</ele>
        <time>2019-08-14T23:13:23Z</time>
      </trkpt>
      <trkpt lat="46.20391" lon="6.79243">
        <ele>1860</ele>
        <time>2019-08-14T23:13:34Z</time>
      </trkpt>
      <trkpt lat="46.20381" lon="6.79242">
        <ele>1859</ele>
        <time>2019-08-14T23:13:47Z</time>
      </trkpt>
      <trkpt lat="46.20377" lon="6.79243">
        <ele>1859</ele>
        <time>2019-08-14T23:13:53Z</time>
      </trkpt>
      <trkpt lat="46.20365" lon="6.79253">
        <ele>1860</ele>
        <time>2019-08-14T23:14:11Z</time>
      </trkpt>
      <trkpt lat="46.20362" lon="6.79254">
        <ele>1860</ele>
        <time>2019-08-14T23:14:15Z</time>
      </trkpt>
      <trkpt lat="46.2036" lon="6.79253">
        <ele>1859</ele>
        <time>2019-08-14T23:14:18Z</time>
      </trkpt>
      <trkpt lat="46.20358" lon="6.7925">
        <ele>1858</ele>
        <time>2019-08-14T23:14:22Z</time>
      </trkpt>
      <trkpt lat="46.20355" lon="6.79249">
        <ele>1857</ele>
        <time>2019-08-14T23:14:26Z</time>
      </trkpt>
      <trkpt lat="46.20349" lon="6.79249">
        <ele>1857</ele>
        <time>2019-08-14T23:14:34Z</time>
      </trkpt>
      <trkpt lat="46.20346" lon="6.7925">
        <ele>1857</ele>
        <time>2019-08-14T23:14:38Z</time>
      </trkpt>
      <trkpt lat="46.20341" lon="6.79253">
        <ele>1857</ele>
        <time>2019-08-14T23:14:45Z</time>
      </trkpt>
      <trkpt lat="46.20333" lon="6.79263">
        <ele>1859</ele>
        <time>2019-08-14T23:14:59Z</time>
      </trkpt>
      <trkpt lat="46.20323" lon="6.7928">
        <ele>1860</ele>
        <time>2019-08-14T23:15:20Z</time>
      </trkpt>
      <trkpt lat="46.20318" lon="6.79284">
        <ele>1859</ele>
        <time>2019-08-14T23:15:28Z</time>
      </trkpt>
      <trkpt lat="46.20314" lon="6.79287">
        <ele>1859</ele>
        <time>2019-08-14T23:15:34Z</time>
      </trkpt>
      <trkpt lat="46.20312" lon="6.79294">
        <ele>1860</ele>
        <time>2019-08-14T23:15:41Z</time>
      </trkpt>
      <trkpt lat="46.20297" lon="6.79311">
        <ele>1859</ele>
        <time>2019-08-14T23:16:06Z</time>
      </trkpt>
      <trkpt lat="46.20277" lon="6.79334">
        <ele>1859</ele>
        <time>2019-08-14T23:16:40Z</time>
      </trkpt>
      <trkpt lat="46.20255" lon="6.79367">
        <ele>1864</ele>
        <time>2019-08-14T23:17:22Z</time>
      </trkpt>
      <trkpt lat="46.20229" lon="6.79413">
        <ele>1874</ele>
        <time>2019-08-14T23:18:17Z</time>
      </trkpt>
      <trkpt lat="46.20224" lon="6.79424">
        <ele>1876</ele>
        <time>2019-08-14T23:18:29Z</time>
      </trkpt>
      <trkpt lat="46.20221" lon="6.7943">
        <ele>1876</ele>
        <time>2019-08-14T23:18:36Z</time>
      </trkpt>
      <trkpt lat="46.20216" lon="6.79437">
        <ele>1877</ele>
        <time>2019-08-14T23:18:46Z</time>
      </trkpt>
      <trkpt lat="46.2021" lon="6.79446">
        <ele>1878</ele>
        <time>2019-08-14T23:18:57Z</time>
      </trkpt>
      <trkpt lat="46.20206" lon="6.79449">
        <ele>1878</ele>
        <time>2019-08-14T23:19:03Z</time>
      </trkpt>
      <trkpt lat="46.20195" lon="6.79461">
        <ele>1878</ele>
        <time>2019-08-14T23:19:22Z</time>
      </trkpt>
      <trkpt lat="46.20192" lon="6.79467">
        <ele>1879</ele>
        <time>2019-08-14T23:19:28Z</time>
      </trkpt>
      <trkpt lat="46.20191" lon="6.79475">
        <ele>1882</ele>
        <time>2019-08-14T23:19:36Z</time>
      </trkpt>
      <trkpt lat="46.20182" lon="6.79491">
        <ele>1884</ele>
        <time>2019-08-14T23:19:55Z</time>
      </trkpt>
      <trkpt lat="46.2018" lon="6.79496">
        <ele>1885</ele>
        <time>2019-08-14T23:20:00Z</time>
      </trkpt>
      <trkpt lat="46.20178" lon="6.79499">
        <ele>1886</ele>
        <time>2019-08-14T23:20:04Z</time>
      </trkpt>
      <trkpt lat="46.20175" lon="6.79503">
        <ele>1886</ele>
        <time>2019-08-14T23:20:10Z</time>
      </trkpt>
      <trkpt lat="46.20172" lon="6.79505">
        <ele>1886</ele>
        <time>2019-08-14T23:20:14Z</time>
      </trkpt>
      <trkpt lat="46.20165" lon="6.79512">
        <ele>1885</ele>
        <time>2019-08-14T23:20:25Z</time>
      </trkpt>
      <trkpt lat="46.20157" lon="6.79529">
        <ele>1887</ele>
        <time>2019-08-14T23:20:44Z</time>
      </trkpt>
      <trkpt lat="46.20153" lon="6.79535">
        <ele>1888</ele>
        <time>2019-08-14T23:20:52Z</time>
      </trkpt>
      <trkpt lat="46.2015" lon="6.79545">
        <ele>1889</ele>
        <time>2019-08-14T23:21:02Z</time>
      </trkpt>
      <trkpt lat="46.20147" lon="6.79562">
        <ele>1893</ele>
        <time>2019-08-14T23:21:18Z</time>
      </trkpt>
      <trkpt lat="46.20145" lon="6.79567">
        <ele>1893</ele>
        <time>2019-08-14T23:21:24Z</time>
      </trkpt>
      <trkpt lat="46.20142" lon="6.7957">
        <ele>1893</ele>
        <time>2019-08-14T23:21:28Z</time>
      </trkpt>
      <trkpt lat="46.2014" lon="6.79573">
        <ele>1893</ele>
        <time>2019-08-14T23:21:32Z</time>
      </trkpt>
      <trkpt lat="46.20138" lon="6.79578">
        <ele>1894</ele>
        <time>2019-08-14T23:21:38Z</time>
      </trkpt>
      <trkpt lat="46.20134" lon="6.7959">
        <ele>1896</ele>
        <time>2019-08-14T23:21:50Z</time>
      </trkpt>
      <trkpt lat="46.20125" lon="6.79601">
        <ele>1898</ele>
        <time>2019-08-14T23:22:06Z</time>
      </trkpt>
      <trkpt lat="46.20115" lon="6.79604">
        <ele>1896</ele>
        <time>2019-08-14T23:22:19Z</time>
      </trkpt>
      <trkpt lat="46.20111" lon="6.79607">
        <ele>1896</ele>
        <time>2019-08-14T23:22:25Z</time>
      </trkpt>
      <trkpt lat="46.20103" lon="6.79616">
        <ele>1898</ele>
        <time>2019-08-14T23:22:39Z</time>
      </trkpt>
      <trkpt lat="46.20098" lon="6.79626">
        <ele>1900</ele>
        <time>2019-08-14T23:22:50Z</time>
      </trkpt>
      <trkpt lat="46.20097" lon="6.79629">
        <ele>1901</ele>
        <time>2019-08-14T23:22:53Z</time>
      </trkpt>
      <trkpt lat="46.20089" lon="6.79627">
        <ele>1899</ele>
        <time>2019-08-14T23:23:04Z</time>
      </trkpt>
      <trkpt lat="46.20086" lon="6.79628">
        <ele>1899</ele>
        <time>2019-08-14T23:23:08Z</time>
      </trkpt>
      <trkpt lat="46.20081" lon="6.79637">
        <ele>1902</ele>
        <time>2019-08-14T23:23:19Z</time>
      </trkpt>
      <trkpt lat="46.20078" lon="6.7964">
        <ele>1903</ele>
        <time>2019-08-14T23:23:24Z</time>
      </trkpt>
      <trkpt lat="46.2006" lon="6.7965">
        <ele>1908</ele>
        <time>2019-08-14T23:23:50Z</time>
      </trkpt>
      <trkpt lat="46.20049" lon="6.79647">
        <ele>1908</ele>
        <time>2019-08-14T23:24:04Z</time>
      </trkpt>
      <trkpt lat="46.20043" lon="6.79644">
        <ele>1907</ele>
        <time>2019-08-14T23:24:13Z</time>
      </trkpt>
      <trkpt lat="46.20032" lon="6.79644">
        <ele>1908</ele>
        <time>2019-08-14T23:24:28Z</time>
      </trkpt>
      <trkpt lat="46.20029" lon="6.79645">
        <ele>1909</ele>
        <time>2019-08-14T23:24:32Z</time>
      </trkpt>
      <trkpt lat="46.20026" lon="6.79649">
        <ele>1910</ele>
        <time>2019-08-14T23:24:37Z</time>
      </trkpt>
      <trkpt lat="46.2002" lon="6.79671">
        <ele>1916</ele>
        <time>2019-08-14T23:24:59Z</time>
      </trkpt>
      <trkpt lat="46.20007" lon="6.79701">
        <ele>1922</ele>
        <time>2019-08-14T23:25:32Z</time>
      </trkpt>
      <trkpt lat="46.20006" lon="6.79709">
        <ele>1924</ele>
        <time>2019-08-14T23:25:39Z</time>
      </trkpt>
      <trkpt lat="46.19996" lon="6.79722">
        <ele>1927</ele>
        <time>2019-08-14T23:25:57Z</time>
      </trkpt>
      <trkpt lat="46.19989" lon="6.79741">
        <ele>1931</ele>
        <time>2019-08-14T23:26:17Z</time>
      </trkpt>
      <trkpt lat="46.19984" lon="6.79746">
        <ele>1933</ele>
        <time>2019-08-14T23:26:25Z</time>
      </trkpt>
      <trkpt lat="46.19965" lon="6.79762">
        <ele>1936</ele>
        <time>2019-08-14T23:26:55Z</time>
      </trkpt>
      <trkpt lat="46.1993" lon="6.79781">
        <ele>1940</ele>
        <time>2019-08-14T23:27:44Z</time>
      </trkpt>
      <trkpt lat="46.1991" lon="6.79795">
        <ele>1941</ele>
        <time>2019-08-14T23:28:14Z</time>
      </trkpt>
      <trkpt lat="46.199" lon="6.79806">
        <ele>1941</ele>
        <time>2019-08-14T23:28:31Z</time>
      </trkpt>
      <trkpt lat="46.19892" lon="6.7982">
        <ele>1941</ele>
        <time>2019-08-14T23:28:48Z</time>
      </trkpt>
      <trkpt lat="46.19833" lon="6.79988">
        <ele>1955</ele>
        <time>2019-08-14T23:31:42Z</time>
      </trkpt>
      <trkpt lat="46.19827" lon="6.80015">
        <ele>1956</ele>
        <time>2019-08-14T23:32:08Z</time>
      </trkpt>
      <trkpt lat="46.19818" lon="6.8004">
        <ele>1956</ele>
        <time>2019-08-14T23:32:34Z</time>
      </trkpt>
      <trkpt lat="46.19812" lon="6.80048">
        <ele>1956</ele>
        <time>2019-08-14T23:32:45Z</time>
      </trkpt>
      <trkpt lat="46.19802" lon="6.8006">
        <ele>1954</ele>
        <time>2019-08-14T23:33:02Z</time>
      </trkpt>
      <trkpt lat="46.198" lon="6.80071">
        <ele>1955</ele>
        <time>2019-08-14T23:33:13Z</time>
      </trkpt>
      <trkpt lat="46.19798" lon="6.80102">
        <ele>1958</ele>
        <time>2019-08-14T23:33:41Z</time>
      </trkpt>
      <trkpt lat="46.19799" lon="6.80112">
        <ele>1960</ele>
        <time>2019-08-14T23:33:51Z</time>
      </trkpt>
      <trkpt lat="46.19802" lon="6.80124">
        <ele>1962</ele>
        <time>2019-08-14T23:34:02Z</time>
      </trkpt>
      <trkpt lat="46.19802" lon="6.80132">
        <ele>1963</ele>
        <time>2019-08-14T23:34:10Z</time>
      </trkpt>
      <trkpt lat="46.198" lon="6.80141">
        <ele>1964</ele>
        <time>2019-08-14T23:34:19Z</time>
      </trkpt>
      <trkpt lat="46.19795" lon="6.80153">
        <ele>1964</ele>
        <time>2019-08-14T23:34:32Z</time>
      </trkpt>
      <trkpt lat="46.19792" lon="6.80165">
        <ele>1964</ele>
        <time>2019-08-14T23:34:43Z</time>
      </trkpt>
      <trkpt lat="46.19793" lon="6.8018">
        <ele>1967</ele>
        <time>2019-08-14T23:34:57Z</time>
      </trkpt>
      <trkpt lat="46.19792" lon="6.80187">
        <ele>1967</ele>
        <time>2019-08-14T23:35:04Z</time>
      </trkpt>
      <trkpt lat="46.19788" lon="6.80192">
        <ele>1967</ele>
        <time>2019-08-14T23:35:11Z</time>
      </trkpt>
      <trkpt lat="46.19788" lon="6.80235">
        <ele>1972</ele>
        <time>2019-08-14T23:35:51Z</time>
      </trkpt>
      <trkpt lat="46.19787" lon="6.80242">
        <ele>1973</ele>
        <time>2019-08-14T23:35:57Z</time>
      </trkpt>
      <trkpt lat="46.19777" lon="6.80264">
        <ele>1974</ele>
        <time>2019-08-14T23:36:22Z</time>
      </trkpt>
      <trkpt lat="46.19773" lon="6.80274">
        <ele>1975</ele>
        <time>2019-08-14T23:36:32Z</time>
      </trkpt>
      <trkpt lat="46.1977" lon="6.80283">
        <ele>1976</ele>
        <time>2019-08-14T23:36:41Z</time>
      </trkpt>
      <trkpt lat="46.1977" lon="6.80293">
        <ele>1978</ele>
        <time>2019-08-14T23:36:51Z</time>
      </trkpt>
      <trkpt lat="46.19749" lon="6.80342">
        <ele>1981</ele>
        <time>2019-08-14T23:37:44Z</time>
      </trkpt>
      <trkpt lat="46.19745" lon="6.80351">
        <ele>1981</ele>
        <time>2019-08-14T23:37:54Z</time>
      </trkpt>
      <trkpt lat="46.19743" lon="6.8036">
        <ele>1982</ele>
        <time>2019-08-14T23:38:03Z</time>
      </trkpt>
      <trkpt lat="46.19739" lon="6.80395">
        <ele>1989</ele>
        <time>2019-08-14T23:38:35Z</time>
      </trkpt>
      <trkpt lat="46.19709" lon="6.80459">
        <ele>1993</ele>
        <time>2019-08-14T23:39:47Z</time>
      </trkpt>
      <trkpt lat="46.19702" lon="6.80477">
        <ele>1994</ele>
        <time>2019-08-14T23:40:06Z</time>
      </trkpt>
      <trkpt lat="46.19696" lon="6.80499">
        <ele>1996</ele>
        <time>2019-08-14T23:40:28Z</time>
      </trkpt>
      <trkpt lat="46.19668" lon="6.80621">
        <ele>1997</ele>
        <time>2019-08-14T23:42:26Z</time>
      </trkpt>
      <trkpt lat="46.19652" lon="6.80675">
        <ele>1999</ele>
        <time>2019-08-14T23:43:21Z</time>
      </trkpt>
      <trkpt lat="46.19662" lon="6.80715">
        <ele>1996</ele>
        <time>2019-08-14T23:44:00Z</time>
      </trkpt>
      <trkpt lat="46.19671" lon="6.80754">
        <ele>1993</ele>
        <time>2019-08-14T23:44:38Z</time>
      </trkpt>
      <trkpt lat="46.19664" lon="6.80784">
        <ele>1992</ele>
        <time>2019-08-14T23:45:07Z</time>
      </trkpt>
      <trkpt lat="46.19646" lon="6.80833">
        <ele>1991</ele>
        <time>2019-08-14T23:45:58Z</time>
      </trkpt>
      <trkpt lat="46.19644" lon="6.80859">
        <ele>1991</ele>
        <time>2019-08-14T23:46:22Z</time>
      </trkpt>
      <trkpt lat="46.19656" lon="6.8091">
        <ele>1987</ele>
        <time>2019-08-14T23:47:12Z</time>
      </trkpt>
      <trkpt lat="46.19653" lon="6.80943">
        <ele>1987</ele>
        <time>2019-08-14T23:47:43Z</time>
      </trkpt>
      <trkpt lat="46.19649" lon="6.80976">
        <ele>1987</ele>
        <time>2019-08-14T23:48:14Z</time>
      </trkpt>
      <trkpt lat="46.19653" lon="6.81011">
        <ele>1986</ele>
        <time>2019-08-14T23:48:47Z</time>
      </trkpt>
      <trkpt lat="46.19656" lon="6.81046">
        <ele>1986</ele>
        <time>2019-08-14T23:49:19Z</time>
      </trkpt>
      <trkpt lat="46.19655" lon="6.81085">
        <ele>1987</ele>
        <time>2019-08-14T23:49:55Z</time>
      </trkpt>
      <trkpt lat="46.19651" lon="6.81112">
        <ele>1984</ele>
        <time>2019-08-14T23:50:21Z</time>
      </trkpt>
      <trkpt lat="46.19638" lon="6.81136">
        <ele>1984</ele>
        <time>2019-08-14T23:50:49Z</time>
      </trkpt>
      <trkpt lat="46.19647" lon="6.81168">
        <ele>1979</ele>
        <time>2019-08-14T23:51:21Z</time>
      </trkpt>
      <trkpt lat="46.19634" lon="6.81215">
        <ele>1984</ele>
        <time>2019-08-14T23:52:08Z</time>
      </trkpt>
      <trkpt lat="46.19635" lon="6.81259">
        <ele>1985</ele>
        <time>2019-08-14T23:52:48Z</time>
      </trkpt>
      <trkpt lat="46.19635" lon="6.81284">
        <ele>1986</ele>
        <time>2019-08-14T23:53:11Z</time>
      </trkpt>
      <trkpt lat="46.19667" lon="6.81382">
        <ele>1981</ele>
        <time>2019-08-14T23:54:51Z</time>
      </trkpt>
      <trkpt lat="46.19679" lon="6.81417">
        <ele>1980</ele>
        <time>2019-08-14T23:55:28Z</time>
      </trkpt>
      <trkpt lat="46.19676" lon="6.81458">
        <ele>1979</ele>
        <time>2019-08-14T23:56:06Z</time>
      </trkpt>
      <trkpt lat="46.1969" lon="6.81494">
        <ele>1978</ele>
        <time>2019-08-14T23:56:44Z</time>
      </trkpt>
      <trkpt lat="46.19697" lon="6.81546">
        <ele>1978</ele>
        <time>2019-08-14T23:57:33Z</time>
      </trkpt>
      <trkpt lat="46.1971" lon="6.81566">
        <ele>1978</ele>
        <time>2019-08-14T23:57:58Z</time>
      </trkpt>
      <trkpt lat="46.19706" lon="6.81677">
        <ele>1986</ele>
        <time>2019-08-14T23:59:41Z</time>
      </trkpt>
      <trkpt lat="46.19704" lon="6.81733">
        <ele>1992</ele>
        <time>2019-08-15T00:00:33Z</time>
      </trkpt>
      <trkpt lat="46.19642" lon="6.81895">
        <ele>2000</ele>
        <time>2019-08-15T00:03:23Z</time>
      </trkpt>
      <trkpt lat="46.19622" lon="6.81949">
        <ele>2009</ele>
        <time>2019-08-15T00:04:20Z</time>
      </trkpt>
      <trkpt lat="46.19509" lon="6.82026">
        <ele>2021</ele>
        <time>2019-08-15T00:07:07Z</time>
      </trkpt>
      <trkpt lat="46.19471" lon="6.82052">
        <ele>2034</ele>
        <time>2019-08-15T00:08:03Z</time>
      </trkpt>
      <trkpt lat="46.19389" lon="6.8208">
        <ele>2050</ele>
        <time>2019-08-15T00:09:55Z</time>
      </trkpt>
      <trkpt lat="46.19347" lon="6.82093">
        <ele>2060</ele>
        <time>2019-08-15T00:10:53Z</time>
      </trkpt>
      <trkpt lat="46.19311" lon="6.82095">
        <ele>2065</ele>
        <time>2019-08-15T00:11:41Z</time>
      </trkpt>
      <trkpt lat="46.19278" lon="6.8211">
        <ele>2073</ele>
        <time>2019-08-15T00:12:27Z</time>
      </trkpt>
      <trkpt lat="46.19248" lon="6.82093">
        <ele>2072</ele>
        <time>2019-08-15T00:13:10Z</time>
      </trkpt>
      <trkpt lat="46.19244" lon="6.82083">
        <ele>2070</ele>
        <time>2019-08-15T00:13:21Z</time>
      </trkpt>
      <trkpt lat="46.19231" lon="6.82064">
        <ele>2075</ele>
        <time>2019-08-15T00:13:45Z</time>
      </trkpt>
      <trkpt lat="46.19219" lon="6.82069">
        <ele>2079</ele>
        <time>2019-08-15T00:14:02Z</time>
      </trkpt>
      <trkpt lat="46.1922" lon="6.8209">
        <ele>2079</ele>
        <time>2019-08-15T00:14:21Z</time>
      </trkpt>
      <trkpt lat="46.19227" lon="6.82121">
        <ele>2082</ele>
        <time>2019-08-15T00:14:51Z</time>
      </trkpt>
      <trkpt lat="46.19202" lon="6.82121">
        <ele>2085</ele>
        <time>2019-08-15T00:15:25Z</time>
      </trkpt>
      <trkpt lat="46.19187" lon="6.82123">
        <ele>2086</ele>
        <time>2019-08-15T00:15:45Z</time>
      </trkpt>
      <trkpt lat="46.19182" lon="6.82132">
        <ele>2086</ele>
        <time>2019-08-15T00:15:56Z</time>
      </trkpt>
      <trkpt lat="46.19187" lon="6.82157">
        <ele>2085</ele>
        <time>2019-08-15T00:16:20Z</time>
      </trkpt>
      <trkpt lat="46.19191" lon="6.82193">
        <ele>2085</ele>
        <time>2019-08-15T00:16:53Z</time>
      </trkpt>
      <trkpt lat="46.19191" lon="6.82209">
        <ele>2086</ele>
        <time>2019-08-15T00:17:08Z</time>
      </trkpt>
      <trkpt lat="46.19179" lon="6.82254">
        <ele>2080</ele>
        <time>2019-08-15T00:17:53Z</time>
      </trkpt>
      <trkpt lat="46.19166" lon="6.82299">
        <ele>2074</ele>
        <time>2019-08-15T00:18:38Z</time>
      </trkpt>
      <trkpt lat="46.19148" lon="6.82388">
        <ele>2065</ele>
        <time>2019-08-15T00:20:03Z</time>
      </trkpt>
      <trkpt lat="46.19134" lon="6.82424">
        <ele>2058</ele>
        <time>2019-08-15T00:20:42Z</time>
      </trkpt>
      <trkpt lat="46.19125" lon="6.82384">
        <ele>2054</ele>
        <time>2019-08-15T00:21:20Z</time>
      </trkpt>
      <trkpt lat="46.19116" lon="6.82344">
        <ele>2051</ele>
        <time>2019-08-15T00:21:59Z</time>
      </trkpt>
      <trkpt lat="46.19097" lon="6.82304">
        <ele>2042</ele>
        <time>2019-08-15T00:22:44Z</time>
      </trkpt>
      <trkpt lat="46.19073" lon="6.82262">
        <ele>2031</ele>
        <time>2019-08-15T00:23:34Z</time>
      </trkpt>
      <trkpt lat="46.1908" lon="6.8222">
        <ele>2036</ele>
        <time>2019-08-15T00:24:14Z</time>
      </trkpt>
      <trkpt lat="46.19054" lon="6.82181">
        <ele>2027</ele>
        <time>2019-08-15T00:25:04Z</time>
      </trkpt>
      <trkpt lat="46.19024" lon="6.82149">
        <ele>2020</ele>
        <time>2019-08-15T00:25:54Z</time>
      </trkpt>
      <trkpt lat="46.18987" lon="6.82131">
        <ele>2012</ele>
        <time>2019-08-15T00:26:46Z</time>
      </trkpt>
      <trkpt lat="46.18951" lon="6.82113">
        <ele>2012</ele>
        <time>2019-08-15T00:27:37Z</time>
      </trkpt>
      <trkpt lat="46.18927" lon="6.82104">
        <ele>2011</ele>
        <time>2019-08-15T00:28:10Z</time>
      </trkpt>
      <trkpt lat="46.18903" lon="6.82094">
        <ele>2010</ele>
        <time>2019-08-15T00:28:43Z</time>
      </trkpt>
      <trkpt lat="46.18871" lon="6.821">
        <ele>2005</ele>
        <time>2019-08-15T00:29:26Z</time>
      </trkpt>
      <trkpt lat="46.18806" lon="6.82102">
        <ele>1995</ele>
        <time>2019-08-15T00:30:53Z</time>
      </trkpt>
      <trkpt lat="46.18777" lon="6.82103">
        <ele>1991</ele>
        <time>2019-08-15T00:31:32Z</time>
      </trkpt>
      <trkpt lat="46.1874" lon="6.82095">
        <ele>1989</ele>
        <time>2019-08-15T00:32:22Z</time>
      </trkpt>
      <trkpt lat="46.18705" lon="6.82092">
        <ele>1990</ele>
        <time>2019-08-15T00:33:09Z</time>
      </trkpt>
      <trkpt lat="46.18678" lon="6.82108">
        <ele>1987</ele>
        <time>2019-08-15T00:33:48Z</time>
      </trkpt>
      <trkpt lat="46.18664" lon="6.82163">
        <ele>1976</ele>
        <time>2019-08-15T00:34:42Z</time>
      </trkpt>
      <trkpt lat="46.18655" lon="6.82216">
        <ele>1960</ele>
        <time>2019-08-15T00:35:32Z</time>
      </trkpt>
      <trkpt lat="46.18633" lon="6.82252">
        <ele>1947</ele>
        <time>2019-08-15T00:36:16Z</time>
      </trkpt>
      <trkpt lat="46.18607" lon="6.82242">
        <ele>1948</ele>
        <time>2019-08-15T00:36:52Z</time>
      </trkpt>
      <trkpt lat="46.18581" lon="6.82232">
        <ele>1947</ele>
        <time>2019-08-15T00:37:28Z</time>
      </trkpt>
      <trkpt lat="46.18554" lon="6.82214">
        <ele>1941</ele>
        <time>2019-08-15T00:38:08Z</time>
      </trkpt>
      <trkpt lat="46.18526" lon="6.82183">
        <ele>1939</ele>
        <time>2019-08-15T00:38:55Z</time>
      </trkpt>
      <trkpt lat="46.18506" lon="6.82174">
        <ele>1934</ele>
        <time>2019-08-15T00:39:23Z</time>
      </trkpt>
      <trkpt lat="46.18479" lon="6.82172">
        <ele>1926</ele>
        <time>2019-08-15T00:39:59Z</time>
      </trkpt>
      <trkpt lat="46.18443" lon="6.82183">
        <ele>1911</ele>
        <time>2019-08-15T00:40:48Z</time>
      </trkpt>
      <trkpt lat="46.18416" lon="6.82187">
        <ele>1902</ele>
        <time>2019-08-15T00:41:24Z</time>
      </trkpt>
      <trkpt lat="46.1839" lon="6.82192">
        <ele>1899</ele>
        <time>2019-08-15T00:41:59Z</time>
      </trkpt>
      <trkpt lat="46.18365" lon="6.82212">
        <ele>1890</ele>
        <time>2019-08-15T00:42:38Z</time>
      </trkpt>
      <trkpt lat="46.18336" lon="6.82218">
        <ele>1886</ele>
        <time>2019-08-15T00:43:17Z</time>
      </trkpt>
      <trkpt lat="46.18306" lon="6.82223">
        <ele>1882</ele>
        <time>2019-08-15T00:43:57Z</time>
      </trkpt>
      <trkpt lat="46.18276" lon="6.82242">
        <ele>1874</ele>
        <time>2019-08-15T00:44:41Z</time>
      </trkpt>
      <trkpt lat="46.18253" lon="6.82262">
        <ele>1868</ele>
        <time>2019-08-15T00:45:16Z</time>
      </trkpt>
      <trkpt lat="46.18256" lon="6.8228">
        <ele>1864</ele>
        <time>2019-08-15T00:45:34Z</time>
      </trkpt>
      <trkpt lat="46.18281" lon="6.82302">
        <ele>1860</ele>
        <time>2019-08-15T00:46:13Z</time>
      </trkpt>
      <trkpt lat="46.18303" lon="6.82334">
        <ele>1854</ele>
        <time>2019-08-15T00:46:54Z</time>
      </trkpt>
      <trkpt lat="46.18308" lon="6.82361">
        <ele>1850</ele>
        <time>2019-08-15T00:47:20Z</time>
      </trkpt>
      <trkpt lat="46.18299" lon="6.82385">
        <ele>1847</ele>
        <time>2019-08-15T00:47:45Z</time>
      </trkpt>
      <trkpt lat="46.18296" lon="6.82393">
        <ele>1846</ele>
        <time>2019-08-15T00:47:54Z</time>
      </trkpt>
      <trkpt lat="46.18296" lon="6.82393">
        <ele>1846</ele>
        <time>2019-08-15T00:47:54Z</time>
      </trkpt>
      <trkpt lat="46.18269" lon="6.82378">
        <ele>1847</ele>
        <time>2019-08-15T00:48:32Z</time>
      </trkpt>
      <trkpt lat="46.18264" lon="6.82377">
        <ele>1847</ele>
        <time>2019-08-15T00:48:39Z</time>
      </trkpt>
      <trkpt lat="46.18259" lon="6.82377">
        <ele>1847</ele>
        <time>2019-08-15T00:48:46Z</time>
      </trkpt>
      <trkpt lat="46.1825" lon="6.82379">
        <ele>1846</ele>
        <time>2019-08-15T00:48:58Z</time>
      </trkpt>
      <trkpt lat="46.18245" lon="6.82378">
        <ele>1846</ele>
        <time>2019-08-15T00:49:05Z</time>
      </trkpt>
      <trkpt lat="46.18241" lon="6.82373">
        <ele>1847</ele>
        <time>2019-08-15T00:49:12Z</time>
      </trkpt>
      <trkpt lat="46.18239" lon="6.8237">
        <ele>1847</ele>
        <time>2019-08-15T00:49:16Z</time>
      </trkpt>
      <trkpt lat="46.18226" lon="6.82341">
        <ele>1851</ele>
        <time>2019-08-15T00:49:48Z</time>
      </trkpt>
      <trkpt lat="46.1822" lon="6.82331">
        <ele>1853</ele>
        <time>2019-08-15T00:50:00Z</time>
      </trkpt>
      <trkpt lat="46.18214" lon="6.82325">
        <ele>1854</ele>
        <time>2019-08-15T00:50:09Z</time>
      </trkpt>
      <trkpt lat="46.18208" lon="6.82322">
        <ele>1854</ele>
        <time>2019-08-15T00:50:18Z</time>
      </trkpt>
      <trkpt lat="46.18202" lon="6.82321">
        <ele>1854</ele>
        <time>2019-08-15T00:50:26Z</time>
      </trkpt>
      <trkpt lat="46.18198" lon="6.82322">
        <ele>1854</ele>
        <time>2019-08-15T00:50:31Z</time>
      </trkpt>
      <trkpt lat="46.18194" lon="6.82329">
        <ele>1852</ele>
        <time>2019-08-15T00:50:40Z</time>
      </trkpt>
      <trkpt lat="46.18192" lon="6.82332">
        <ele>1852</ele>
        <time>2019-08-15T00:50:44Z</time>
      </trkpt>
      <trkpt lat="46.18187" lon="6.82346">
        <ele>1849</ele>
        <time>2019-08-15T00:50:58Z</time>
      </trkpt>
      <trkpt lat="46.18183" lon="6.82354">
        <ele>1848</ele>
        <time>2019-08-15T00:51:07Z</time>
      </trkpt>
      <trkpt lat="46.18176" lon="6.82364">
        <ele>1846</ele>
        <time>2019-08-15T00:51:20Z</time>
      </trkpt>
      <trkpt lat="46.1816" lon="6.82381">
        <ele>1842</ele>
        <time>2019-08-15T00:51:47Z</time>
      </trkpt>
      <trkpt lat="46.18155" lon="6.82389">
        <ele>1841</ele>
        <time>2019-08-15T00:51:57Z</time>
      </trkpt>
      <trkpt lat="46.18152" lon="6.82399">
        <ele>1839</ele>
        <time>2019-08-15T00:52:07Z</time>
      </trkpt>
      <trkpt lat="46.18149" lon="6.82413">
        <ele>1836</ele>
        <time>2019-08-15T00:52:21Z</time>
      </trkpt>
      <trkpt lat="46.18144" lon="6.82423">
        <ele>1835</ele>
        <time>2019-08-15T00:52:32Z</time>
      </trkpt>
      <trkpt lat="46.18139" lon="6.82428">
        <ele>1834</ele>
        <time>2019-08-15T00:52:40Z</time>
      </trkpt>
      <trkpt lat="46.18133" lon="6.82432">
        <ele>1834</ele>
        <time>2019-08-15T00:52:49Z</time>
      </trkpt>
      <trkpt lat="46.1812" lon="6.82435">
        <ele>1833</ele>
        <time>2019-08-15T00:53:06Z</time>
      </trkpt>
      <trkpt lat="46.18103" lon="6.82436">
        <ele>1834</ele>
        <time>2019-08-15T00:53:29Z</time>
      </trkpt>
      <trkpt lat="46.1809" lon="6.82438">
        <ele>1834</ele>
        <time>2019-08-15T00:53:47Z</time>
      </trkpt>
      <trkpt lat="46.18076" lon="6.82447">
        <ele>1833</ele>
        <time>2019-08-15T00:54:07Z</time>
      </trkpt>
      <trkpt lat="46.18067" lon="6.8245">
        <ele>1833</ele>
        <time>2019-08-15T00:54:19Z</time>
      </trkpt>
      <trkpt lat="46.18058" lon="6.82451">
        <ele>1834</ele>
        <time>2019-08-15T00:54:31Z</time>
      </trkpt>
      <trkpt lat="46.1805" lon="6.8245">
        <ele>1835</ele>
        <time>2019-08-15T00:54:42Z</time>
      </trkpt>
      <trkpt lat="46.18041" lon="6.82452">
        <ele>1835</ele>
        <time>2019-08-15T00:54:54Z</time>
      </trkpt>
      <trkpt lat="46.18035" lon="6.82455">
        <ele>1835</ele>
        <time>2019-08-15T00:55:03Z</time>
      </trkpt>
      <trkpt lat="46.18026" lon="6.8246">
        <ele>1835</ele>
        <time>2019-08-15T00:55:16Z</time>
      </trkpt>
      <trkpt lat="46.18003" lon="6.82476">
        <ele>1834</ele>
        <time>2019-08-15T00:55:50Z</time>
      </trkpt>
      <trkpt lat="46.17995" lon="6.82482">
        <ele>1834</ele>
        <time>2019-08-15T00:56:02Z</time>
      </trkpt>
      <trkpt lat="46.17984" lon="6.82488">
        <ele>1833</ele>
        <time>2019-08-15T00:56:17Z</time>
      </trkpt>
      <trkpt lat="46.17975" lon="6.82491">
        <ele>1833</ele>
        <time>2019-08-15T00:56:30Z</time>
      </trkpt>
      <trkpt lat="46.1797" lon="6.82497">
        <ele>1833</ele>
        <time>2019-08-15T00:56:38Z</time>
      </trkpt>
      <trkpt lat="46.17966" lon="6.82505">
        <ele>1832</ele>
        <time>2019-08-15T00:56:48Z</time>
      </trkpt>
      <trkpt lat="46.17963" lon="6.82517">
        <ele>1832</ele>
        <time>2019-08-15T00:56:59Z</time>
      </trkpt>
      <trkpt lat="46.17959" lon="6.82529">
        <ele>1832</ele>
        <time>2019-08-15T00:57:12Z</time>
      </trkpt>
      <trkpt lat="46.17952" lon="6.8254">
        <ele>1832</ele>
        <time>2019-08-15T00:57:25Z</time>
      </trkpt>
      <trkpt lat="46.17943" lon="6.8255">
        <ele>1831</ele>
        <time>2019-08-15T00:57:41Z</time>
      </trkpt>
      <trkpt lat="46.17933" lon="6.82559">
        <ele>1831</ele>
        <time>2019-08-15T00:57:56Z</time>
      </trkpt>
      <trkpt lat="46.17927" lon="6.82563">
        <ele>1831</ele>
        <time>2019-08-15T00:58:05Z</time>
      </trkpt>
      <trkpt lat="46.17923" lon="6.82561">
        <ele>1831</ele>
        <time>2019-08-15T00:58:11Z</time>
      </trkpt>
      <trkpt lat="46.17918" lon="6.82557">
        <ele>1832</ele>
        <time>2019-08-15T00:58:18Z</time>
      </trkpt>
      <trkpt lat="46.17915" lon="6.82551">
        <ele>1832</ele>
        <time>2019-08-15T00:58:25Z</time>
      </trkpt>
      <trkpt lat="46.1791" lon="6.82543">
        <ele>1831</ele>
        <time>2019-08-15T00:58:35Z</time>
      </trkpt>
      <trkpt lat="46.17904" lon="6.82535">
        <ele>1830</ele>
        <time>2019-08-15T00:58:46Z</time>
      </trkpt>
      <trkpt lat="46.17898" lon="6.82527">
        <ele>1829</ele>
        <time>2019-08-15T00:58:57Z</time>
      </trkpt>
      <trkpt lat="46.17895" lon="6.8252">
        <ele>1828</ele>
        <time>2019-08-15T00:59:05Z</time>
      </trkpt>
      <trkpt lat="46.17893" lon="6.82511">
        <ele>1828</ele>
        <time>2019-08-15T00:59:13Z</time>
      </trkpt>
      <trkpt lat="46.17892" lon="6.82503">
        <ele>1828</ele>
        <time>2019-08-15T00:59:21Z</time>
      </trkpt>
      <trkpt lat="46.17892" lon="6.8249">
        <ele>1829</ele>
        <time>2019-08-15T00:59:33Z</time>
      </trkpt>
      <trkpt lat="46.17893" lon="6.82478">
        <ele>1830</ele>
        <time>2019-08-15T00:59:44Z</time>
      </trkpt>
      <trkpt lat="46.17892" lon="6.82467">
        <ele>1831</ele>
        <time>2019-08-15T00:59:54Z</time>
      </trkpt>
      <trkpt lat="46.17887" lon="6.82449">
        <ele>1831</ele>
        <time>2019-08-15T01:00:12Z</time>
      </trkpt>
      <trkpt lat="46.17883" lon="6.82436">
        <ele>1830</ele>
        <time>2019-08-15T01:00:25Z</time>
      </trkpt>
      <trkpt lat="46.17882" lon="6.82426">
        <ele>1831</ele>
        <time>2019-08-15T01:00:35Z</time>
      </trkpt>
      <trkpt lat="46.17881" lon="6.82417">
        <ele>1831</ele>
        <time>2019-08-15T01:00:43Z</time>
      </trkpt>
      <trkpt lat="46.17881" lon="6.82406">
        <ele>1832</ele>
        <time>2019-08-15T01:00:53Z</time>
      </trkpt>
      <trkpt lat="46.1788" lon="6.82396">
        <ele>1833</ele>
        <time>2019-08-15T01:01:03Z</time>
      </trkpt>
      <trkpt lat="46.17878" lon="6.82386">
        <ele>1834</ele>
        <time>2019-08-15T01:01:12Z</time>
      </trkpt>
      <trkpt lat="46.17878" lon="6.82376">
        <ele>1835</ele>
        <time>2019-08-15T01:01:21Z</time>
      </trkpt>
      <trkpt lat="46.17878" lon="6.82364">
        <ele>1836</ele>
        <time>2019-08-15T01:01:33Z</time>
      </trkpt>
      <trkpt lat="46.1788" lon="6.82342">
        <ele>1840</ele>
        <time>2019-08-15T01:01:53Z</time>
      </trkpt>
      <trkpt lat="46.1788" lon="6.82322">
        <ele>1843</ele>
        <time>2019-08-15T01:02:12Z</time>
      </trkpt>
      <trkpt lat="46.17877" lon="6.82309">
        <ele>1844</ele>
        <time>2019-08-15T01:02:24Z</time>
      </trkpt>
      <trkpt lat="46.17872" lon="6.82293">
        <ele>1844</ele>
        <time>2019-08-15T01:02:40Z</time>
      </trkpt>
      <trkpt lat="46.17864" lon="6.82259">
        <ele>1846</ele>
        <time>2019-08-15T01:03:14Z</time>
      </trkpt>
      <trkpt lat="46.17859" lon="6.82241">
        <ele>1847</ele>
        <time>2019-08-15T01:03:32Z</time>
      </trkpt>
      <trkpt lat="46.17856" lon="6.82227">
        <ele>1847</ele>
        <time>2019-08-15T01:03:45Z</time>
      </trkpt>
      <trkpt lat="46.17855" lon="6.82214">
        <ele>1849</ele>
        <time>2019-08-15T01:03:57Z</time>
      </trkpt>
      <trkpt lat="46.17853" lon="6.82203">
        <ele>1849</ele>
        <time>2019-08-15T01:04:08Z</time>
      </trkpt>
      <trkpt lat="46.1785" lon="6.82191">
        <ele>1850</ele>
        <time>2019-08-15T01:04:19Z</time>
      </trkpt>
      <trkpt lat="46.17846" lon="6.82178">
        <ele>1850</ele>
        <time>2019-08-15T01:04:33Z</time>
      </trkpt>
      <trkpt lat="46.17829" lon="6.82135">
        <ele>1848</ele>
        <time>2019-08-15T01:05:18Z</time>
      </trkpt>
      <trkpt lat="46.1782" lon="6.8211">
        <ele>1847</ele>
        <time>2019-08-15T01:05:44Z</time>
      </trkpt>
      <trkpt lat="46.17813" lon="6.82097">
        <ele>1847</ele>
        <time>2019-08-15T01:06:00Z</time>
      </trkpt>
      <trkpt lat="46.17806" lon="6.82086">
        <ele>1846</ele>
        <time>2019-08-15T01:06:13Z</time>
      </trkpt>
      <trkpt lat="46.17801" lon="6.82079">
        <ele>1845</ele>
        <time>2019-08-15T01:06:23Z</time>
      </trkpt>
      <trkpt lat="46.17797" lon="6.82069">
        <ele>1844</ele>
        <time>2019-08-15T01:06:33Z</time>
      </trkpt>
      <trkpt lat="46.17795" lon="6.82059">
        <ele>1844</ele>
        <time>2019-08-15T01:06:43Z</time>
      </trkpt>
      <trkpt lat="46.17795" lon="6.82047">
        <ele>1845</ele>
        <time>2019-08-15T01:06:54Z</time>
      </trkpt>
      <trkpt lat="46.17797" lon="6.82022">
        <ele>1847</ele>
        <time>2019-08-15T01:07:17Z</time>
      </trkpt>
      <trkpt lat="46.17796" lon="6.82003">
        <ele>1848</ele>
        <time>2019-08-15T01:07:35Z</time>
      </trkpt>
      <trkpt lat="46.17792" lon="6.81982">
        <ele>1848</ele>
        <time>2019-08-15T01:07:55Z</time>
      </trkpt>
      <trkpt lat="46.17787" lon="6.81965">
        <ele>1847</ele>
        <time>2019-08-15T01:08:12Z</time>
      </trkpt>
      <trkpt lat="46.17781" lon="6.81949">
        <ele>1845</ele>
        <time>2019-08-15T01:08:29Z</time>
      </trkpt>
      <trkpt lat="46.17779" lon="6.81937">
        <ele>1844</ele>
        <time>2019-08-15T01:08:40Z</time>
      </trkpt>
      <trkpt lat="46.1778" lon="6.81924">
        <ele>1845</ele>
        <time>2019-08-15T01:08:52Z</time>
      </trkpt>
      <trkpt lat="46.17783" lon="6.81906">
        <ele>1848</ele>
        <time>2019-08-15T01:09:10Z</time>
      </trkpt>
      <trkpt lat="46.17788" lon="6.81872">
        <ele>1852</ele>
        <time>2019-08-15T01:09:42Z</time>
      </trkpt>
      <trkpt lat="46.1778" lon="6.8184">
        <ele>1849</ele>
        <time>2019-08-15T01:10:13Z</time>
      </trkpt>
      <trkpt lat="46.1779" lon="6.81785">
        <ele>1860</ele>
        <time>2019-08-15T01:11:06Z</time>
      </trkpt>
      <trkpt lat="46.17751" lon="6.81705">
        <ele>1850</ele>
        <time>2019-08-15T01:12:36Z</time>
      </trkpt>
      <trkpt lat="46.17732" lon="6.81665">
        <ele>1847</ele>
        <time>2019-08-15T01:13:21Z</time>
      </trkpt>
      <trkpt lat="46.1775" lon="6.81514">
        <ele>1848</ele>
        <time>2019-08-15T01:15:42Z</time>
      </trkpt>
      <trkpt lat="46.17756" lon="6.81463">
        <ele>1853</ele>
        <time>2019-08-15T01:16:30Z</time>
      </trkpt>
      <trkpt lat="46.17742" lon="6.8143">
        <ele>1852</ele>
        <time>2019-08-15T01:17:06Z</time>
      </trkpt>
      <trkpt lat="46.17728" lon="6.81397">
        <ele>1854</ele>
        <time>2019-08-15T01:17:42Z</time>
      </trkpt>
      <trkpt lat="46.17633" lon="6.8134">
        <ele>1849</ele>
        <time>2019-08-15T01:19:59Z</time>
      </trkpt>
      <trkpt lat="46.17612" lon="6.81315">
        <ele>1853</ele>
        <time>2019-08-15T01:20:35Z</time>
      </trkpt>
      <trkpt lat="46.17547" lon="6.81284">
        <ele>1855</ele>
        <time>2019-08-15T01:22:07Z</time>
      </trkpt>
      <trkpt lat="46.17507" lon="6.81298">
        <ele>1851</ele>
        <time>2019-08-15T01:23:02Z</time>
      </trkpt>
      <trkpt lat="46.17475" lon="6.81336">
        <ele>1845</ele>
        <time>2019-08-15T01:23:57Z</time>
      </trkpt>
      <trkpt lat="46.17446" lon="6.8138">
        <ele>1840</ele>
        <time>2019-08-15T01:24:53Z</time>
      </trkpt>
      <trkpt lat="46.17418" lon="6.81425">
        <ele>1837</ele>
        <time>2019-08-15T01:25:49Z</time>
      </trkpt>
      <trkpt lat="46.17389" lon="6.8147">
        <ele>1832</ele>
        <time>2019-08-15T01:26:46Z</time>
      </trkpt>
      <trkpt lat="46.17357" lon="6.81496">
        <ele>1831</ele>
        <time>2019-08-15T01:27:35Z</time>
      </trkpt>
      <trkpt lat="46.17329" lon="6.81527">
        <ele>1829</ele>
        <time>2019-08-15T01:28:22Z</time>
      </trkpt>
      <trkpt lat="46.17319" lon="6.81553">
        <ele>1826</ele>
        <time>2019-08-15T01:28:49Z</time>
      </trkpt>
      <trkpt lat="46.17318" lon="6.81563">
        <ele>1825</ele>
        <time>2019-08-15T01:28:59Z</time>
      </trkpt>
      <trkpt lat="46.17315" lon="6.81574">
        <ele>1823</ele>
        <time>2019-08-15T01:29:10Z</time>
      </trkpt>
      <trkpt lat="46.1731" lon="6.81582">
        <ele>1822</ele>
        <time>2019-08-15T01:29:20Z</time>
      </trkpt>
      <trkpt lat="46.17302" lon="6.8159">
        <ele>1822</ele>
        <time>2019-08-15T01:29:33Z</time>
      </trkpt>
      <trkpt lat="46.17296" lon="6.81593">
        <ele>1822</ele>
        <time>2019-08-15T01:29:41Z</time>
      </trkpt>
      <trkpt lat="46.17291" lon="6.81593">
        <ele>1822</ele>
        <time>2019-08-15T01:29:48Z</time>
      </trkpt>
      <trkpt lat="46.17275" lon="6.81585">
        <ele>1824</ele>
        <time>2019-08-15T01:30:10Z</time>
      </trkpt>
      <trkpt lat="46.17266" lon="6.81584">
        <ele>1824</ele>
        <time>2019-08-15T01:30:22Z</time>
      </trkpt>
      <trkpt lat="46.17236" lon="6.81589">
        <ele>1825</ele>
        <time>2019-08-15T01:31:03Z</time>
      </trkpt>
      <trkpt lat="46.1722" lon="6.81588">
        <ele>1826</ele>
        <time>2019-08-15T01:31:24Z</time>
      </trkpt>
      <trkpt lat="46.17194" lon="6.81585">
        <ele>1827</ele>
        <time>2019-08-15T01:31:59Z</time>
      </trkpt>
      <trkpt lat="46.17191" lon="6.81585">
        <ele>1827</ele>
        <time>2019-08-15T01:32:03Z</time>
      </trkpt>
      <trkpt lat="46.17181" lon="6.81582">
        <ele>1828</ele>
        <time>2019-08-15T01:32:16Z</time>
      </trkpt>
      <trkpt lat="46.17173" lon="6.81578">
        <ele>1829</ele>
        <time>2019-08-15T01:32:28Z</time>
      </trkpt>
      <trkpt lat="46.17167" lon="6.81579">
        <ele>1829</ele>
        <time>2019-08-15T01:32:36Z</time>
      </trkpt>
      <trkpt lat="46.17163" lon="6.81583">
        <ele>1828</ele>
        <time>2019-08-15T01:32:42Z</time>
      </trkpt>
      <trkpt lat="46.1716" lon="6.81593">
        <ele>1827</ele>
        <time>2019-08-15T01:32:52Z</time>
      </trkpt>
      <trkpt lat="46.17159" lon="6.81604">
        <ele>1826</ele>
        <time>2019-08-15T01:33:03Z</time>
      </trkpt>
      <trkpt lat="46.17159" lon="6.81616">
        <ele>1825</ele>
        <time>2019-08-15T01:33:14Z</time>
      </trkpt>
      <trkpt lat="46.17157" lon="6.81624">
        <ele>1824</ele>
        <time>2019-08-15T01:33:22Z</time>
      </trkpt>
      <trkpt lat="46.17153" lon="6.81631">
        <ele>1824</ele>
        <time>2019-08-15T01:33:30Z</time>
      </trkpt>
      <trkpt lat="46.17145" lon="6.81637">
        <ele>1824</ele>
        <time>2019-08-15T01:33:42Z</time>
      </trkpt>
      <trkpt lat="46.17122" lon="6.81649">
        <ele>1823</ele>
        <time>2019-08-15T01:34:15Z</time>
      </trkpt>
      <trkpt lat="46.17107" lon="6.81657">
        <ele>1823</ele>
        <time>2019-08-15T01:34:36Z</time>
      </trkpt>
      <trkpt lat="46.1708" lon="6.81669">
        <ele>1822</ele>
        <time>2019-08-15T01:35:14Z</time>
      </trkpt>
      <trkpt lat="46.17067" lon="6.81674">
        <ele>1820</ele>
        <time>2019-08-15T01:35:32Z</time>
      </trkpt>
      <trkpt lat="46.17051" lon="6.81677">
        <ele>1820</ele>
        <time>2019-08-15T01:35:53Z</time>
      </trkpt>
      <trkpt lat="46.17041" lon="6.81679">
        <ele>1819</ele>
        <time>2019-08-15T01:36:07Z</time>
      </trkpt>
      <trkpt lat="46.1703" lon="6.8168">
        <ele>1819</ele>
        <time>2019-08-15T01:36:21Z</time>
      </trkpt>
      <trkpt lat="46.17022" lon="6.81677">
        <ele>1819</ele>
        <time>2019-08-15T01:36:32Z</time>
      </trkpt>
      <trkpt lat="46.17016" lon="6.81672">
        <ele>1820</ele>
        <time>2019-08-15T01:36:42Z</time>
      </trkpt>
      <trkpt lat="46.1701" lon="6.81665">
        <ele>1820</ele>
        <time>2019-08-15T01:36:52Z</time>
      </trkpt>
      <trkpt lat="46.17001" lon="6.81653">
        <ele>1821</ele>
        <time>2019-08-15T01:37:08Z</time>
      </trkpt>
      <trkpt lat="46.16991" lon="6.81639">
        <ele>1820</ele>
        <time>2019-08-15T01:37:27Z</time>
      </trkpt>
      <trkpt lat="46.16981" lon="6.81624">
        <ele>1819</ele>
        <time>2019-08-15T01:37:46Z</time>
      </trkpt>
      <trkpt lat="46.1697" lon="6.81605">
        <ele>1818</ele>
        <time>2019-08-15T01:38:09Z</time>
      </trkpt>
      <trkpt lat="46.16965" lon="6.81595">
        <ele>1818</ele>
        <time>2019-08-15T01:38:20Z</time>
      </trkpt>
      <trkpt lat="46.16962" lon="6.81584">
        <ele>1818</ele>
        <time>2019-08-15T01:38:31Z</time>
      </trkpt>
      <trkpt lat="46.16962" lon="6.81576">
        <ele>1819</ele>
        <time>2019-08-15T01:38:39Z</time>
      </trkpt>
      <trkpt lat="46.16963" lon="6.81565">
        <ele>1820</ele>
        <time>2019-08-15T01:38:49Z</time>
      </trkpt>
      <trkpt lat="46.16966" lon="6.81554">
        <ele>1822</ele>
        <time>2019-08-15T01:39:00Z</time>
      </trkpt>
      <trkpt lat="46.16967" lon="6.81541">
        <ele>1823</ele>
        <time>2019-08-15T01:39:12Z</time>
      </trkpt>
      <trkpt lat="46.16966" lon="6.81529">
        <ele>1824</ele>
        <time>2019-08-15T01:39:23Z</time>
      </trkpt>
      <trkpt lat="46.16962" lon="6.81514">
        <ele>1824</ele>
        <time>2019-08-15T01:39:38Z</time>
      </trkpt>
      <trkpt lat="46.16956" lon="6.81497">
        <ele>1824</ele>
        <time>2019-08-15T01:39:56Z</time>
      </trkpt>
      <trkpt lat="46.16934" lon="6.81453">
        <ele>1823</ele>
        <time>2019-08-15T01:40:46Z</time>
      </trkpt>
      <trkpt lat="46.16921" lon="6.81429">
        <ele>1820</ele>
        <time>2019-08-15T01:41:14Z</time>
      </trkpt>
      <trkpt lat="46.16899" lon="6.814">
        <ele>1817</ele>
        <time>2019-08-15T01:41:54Z</time>
      </trkpt>
      <trkpt lat="46.16894" lon="6.81393">
        <ele>1817</ele>
        <time>2019-08-15T01:42:03Z</time>
      </trkpt>
      <trkpt lat="46.16889" lon="6.81381">
        <ele>1817</ele>
        <time>2019-08-15T01:42:16Z</time>
      </trkpt>
      <trkpt lat="46.16882" lon="6.81356">
        <ele>1817</ele>
        <time>2019-08-15T01:42:41Z</time>
      </trkpt>
      <trkpt lat="46.16878" lon="6.81346">
        <ele>1817</ele>
        <time>2019-08-15T01:42:51Z</time>
      </trkpt>
      <trkpt lat="46.16872" lon="6.81338">
        <ele>1816</ele>
        <time>2019-08-15T01:43:02Z</time>
      </trkpt>
      <trkpt lat="46.16859" lon="6.81325">
        <ele>1813</ele>
        <time>2019-08-15T01:43:23Z</time>
      </trkpt>
      <trkpt lat="46.16853" lon="6.81316">
        <ele>1813</ele>
        <time>2019-08-15T01:43:35Z</time>
      </trkpt>
      <trkpt lat="46.16842" lon="6.81291">
        <ele>1812</ele>
        <time>2019-08-15T01:44:02Z</time>
      </trkpt>
      <trkpt lat="46.16835" lon="6.81276">
        <ele>1811</ele>
        <time>2019-08-15T01:44:19Z</time>
      </trkpt>
      <trkpt lat="46.1683" lon="6.81267">
        <ele>1810</ele>
        <time>2019-08-15T01:44:30Z</time>
      </trkpt>
      <trkpt lat="46.16826" lon="6.81258">
        <ele>1810</ele>
        <time>2019-08-15T01:44:40Z</time>
      </trkpt>
      <trkpt lat="46.16824" lon="6.8125">
        <ele>1811</ele>
        <time>2019-08-15T01:44:47Z</time>
      </trkpt>
      <trkpt lat="46.16821" lon="6.81243">
        <ele>1811</ele>
        <time>2019-08-15T01:44:55Z</time>
      </trkpt>
      <trkpt lat="46.16816" lon="6.81238">
        <ele>1811</ele>
        <time>2019-08-15T01:45:03Z</time>
      </trkpt>
      <trkpt lat="46.16812" lon="6.81236">
        <ele>1810</ele>
        <time>2019-08-15T01:45:09Z</time>
      </trkpt>
      <trkpt lat="46.16806" lon="6.81236">
        <ele>1808</ele>
        <time>2019-08-15T01:45:17Z</time>
      </trkpt>
      <trkpt lat="46.16799" lon="6.81237">
        <ele>1806</ele>
        <time>2019-08-15T01:45:26Z</time>
      </trkpt>
      <trkpt lat="46.16794" lon="6.81234">
        <ele>1806</ele>
        <time>2019-08-15T01:45:33Z</time>
      </trkpt>
      <trkpt lat="46.16788" lon="6.8123">
        <ele>1805</ele>
        <time>2019-08-15T01:45:42Z</time>
      </trkpt>
      <trkpt lat="46.16784" lon="6.81225">
        <ele>1804</ele>
        <time>2019-08-15T01:45:49Z</time>
      </trkpt>
      <trkpt lat="46.16777" lon="6.81209">
        <ele>1805</ele>
        <time>2019-08-15T01:46:07Z</time>
      </trkpt>
      <trkpt lat="46.16774" lon="6.81204">
        <ele>1805</ele>
        <time>2019-08-15T01:46:13Z</time>
      </trkpt>
      <trkpt lat="46.16769" lon="6.81199">
        <ele>1805</ele>
        <time>2019-08-15T01:46:21Z</time>
      </trkpt>
      <trkpt lat="46.1676" lon="6.81195">
        <ele>1803</ele>
        <time>2019-08-15T01:46:34Z</time>
      </trkpt>
      <trkpt lat="46.16749" lon="6.81187">
        <ele>1801</ele>
        <time>2019-08-15T01:46:50Z</time>
      </trkpt>
      <trkpt lat="46.1673" lon="6.81171">
        <ele>1798</ele>
        <time>2019-08-15T01:47:19Z</time>
      </trkpt>
      <trkpt lat="46.16723" lon="6.81167">
        <ele>1797</ele>
        <time>2019-08-15T01:47:29Z</time>
      </trkpt>
      <trkpt lat="46.16718" lon="6.8116">
        <ele>1797</ele>
        <time>2019-08-15T01:47:39Z</time>
      </trkpt>
      <trkpt lat="46.16712" lon="6.81152">
        <ele>1796</ele>
        <time>2019-08-15T01:47:50Z</time>
      </trkpt>
      <trkpt lat="46.16706" lon="6.81139">
        <ele>1796</ele>
        <time>2019-08-15T01:48:04Z</time>
      </trkpt>
      <trkpt lat="46.16699" lon="6.81119">
        <ele>1797</ele>
        <time>2019-08-15T01:48:25Z</time>
      </trkpt>
      <trkpt lat="46.16694" lon="6.81107">
        <ele>1797</ele>
        <time>2019-08-15T01:48:38Z</time>
      </trkpt>
      <trkpt lat="46.16688" lon="6.81095">
        <ele>1796</ele>
        <time>2019-08-15T01:48:51Z</time>
      </trkpt>
      <trkpt lat="46.16683" lon="6.81087">
        <ele>1796</ele>
        <time>2019-08-15T01:49:01Z</time>
      </trkpt>
      <trkpt lat="46.16672" lon="6.81072">
        <ele>1794</ele>
        <time>2019-08-15T01:49:22Z</time>
      </trkpt>
      <trkpt lat="46.16663" lon="6.81062">
        <ele>1792</ele>
        <time>2019-08-15T01:49:37Z</time>
      </trkpt>
      <trkpt lat="46.16658" lon="6.81058">
        <ele>1791</ele>
        <time>2019-08-15T01:49:44Z</time>
      </trkpt>
      <trkpt lat="46.16654" lon="6.81057">
        <ele>1790</ele>
        <time>2019-08-15T01:49:50Z</time>
      </trkpt>
      <trkpt lat="46.16651" lon="6.81058">
        <ele>1790</ele>
        <time>2019-08-15T01:49:54Z</time>
      </trkpt>
      <trkpt lat="46.16644" lon="6.81042">
        <ele>1790</ele>
        <time>2019-08-15T01:50:11Z</time>
      </trkpt>
      <trkpt lat="46.16626" lon="6.81006">
        <ele>1789</ele>
        <time>2019-08-15T01:50:52Z</time>
      </trkpt>
      <trkpt lat="46.1661" lon="6.8101">
        <ele>1785</ele>
        <time>2019-08-15T01:51:14Z</time>
      </trkpt>
      <trkpt lat="46.16597" lon="6.80986">
        <ele>1783</ele>
        <time>2019-08-15T01:51:42Z</time>
      </trkpt>
      <trkpt lat="46.16595" lon="6.80963">
        <ele>1782</ele>
        <time>2019-08-15T01:52:04Z</time>
      </trkpt>
      <trkpt lat="46.16607" lon="6.80916">
        <ele>1784</ele>
        <time>2019-08-15T01:52:50Z</time>
      </trkpt>
      <trkpt lat="46.16618" lon="6.8087">
        <ele>1785</ele>
        <time>2019-08-15T01:53:35Z</time>
      </trkpt>
      <trkpt lat="46.16595" lon="6.80867">
        <ele>1777</ele>
        <time>2019-08-15T01:54:06Z</time>
      </trkpt>
      <trkpt lat="46.1658" lon="6.80842">
        <ele>1771</ele>
        <time>2019-08-15T01:54:36Z</time>
      </trkpt>
      <trkpt lat="46.16566" lon="6.80816">
        <ele>1765</ele>
        <time>2019-08-15T01:55:07Z</time>
      </trkpt>
      <trkpt lat="46.16555" lon="6.80825">
        <ele>1761</ele>
        <time>2019-08-15T01:55:24Z</time>
      </trkpt>
      <trkpt lat="46.1655" lon="6.80805">
        <ele>1759</ele>
        <time>2019-08-15T01:55:43Z</time>
      </trkpt>
      <trkpt lat="46.16537" lon="6.80769">
        <ele>1756</ele>
        <time>2019-08-15T01:56:21Z</time>
      </trkpt>
      <trkpt lat="46.16525" lon="6.80734">
        <ele>1751</ele>
        <time>2019-08-15T01:56:57Z</time>
      </trkpt>
      <trkpt lat="46.16523" lon="6.80685">
        <ele>1748</ele>
        <time>2019-08-15T01:57:42Z</time>
      </trkpt>
      <trkpt lat="46.16513" lon="6.80638">
        <ele>1742</ele>
        <time>2019-08-15T01:58:28Z</time>
      </trkpt>
      <trkpt lat="46.16504" lon="6.8059">
        <ele>1737</ele>
        <time>2019-08-15T01:59:14Z</time>
      </trkpt>
      <trkpt lat="46.16508" lon="6.80562">
        <ele>1737</ele>
        <time>2019-08-15T01:59:40Z</time>
      </trkpt>
      <trkpt lat="46.16483" lon="6.80504">
        <ele>1726</ele>
        <time>2019-08-15T02:00:43Z</time>
      </trkpt>
      <trkpt lat="46.16489" lon="6.80484">
        <ele>1728</ele>
        <time>2019-08-15T02:01:03Z</time>
      </trkpt>
      <trkpt lat="46.1646" lon="6.80484">
        <ele>1718</ele>
        <time>2019-08-15T02:01:42Z</time>
      </trkpt>
      <trkpt lat="46.16434" lon="6.80502">
        <ele>1709</ele>
        <time>2019-08-15T02:02:21Z</time>
      </trkpt>
      <trkpt lat="46.16436" lon="6.80558">
        <ele>1708</ele>
        <time>2019-08-15T02:03:12Z</time>
      </trkpt>
      <trkpt lat="46.16425" lon="6.80557">
        <ele>1704</ele>
        <time>2019-08-15T02:03:27Z</time>
      </trkpt>
      <trkpt lat="46.16388" lon="6.80473">
        <ele>1690</ele>
        <time>2019-08-15T02:04:59Z</time>
      </trkpt>
      <trkpt lat="46.16369" lon="6.80432">
        <ele>1685</ele>
        <time>2019-08-15T02:05:45Z</time>
      </trkpt>
      <trkpt lat="46.1634" lon="6.8041">
        <ele>1679</ele>
        <time>2019-08-15T02:06:28Z</time>
      </trkpt>
      <trkpt lat="46.16326" lon="6.8037">
        <ele>1681</ele>
        <time>2019-08-15T02:07:10Z</time>
      </trkpt>
      <trkpt lat="46.16291" lon="6.80342">
        <ele>1677</ele>
        <time>2019-08-15T02:08:03Z</time>
      </trkpt>
      <trkpt lat="46.16263" lon="6.803">
        <ele>1681</ele>
        <time>2019-08-15T02:08:57Z</time>
      </trkpt>
      <trkpt lat="46.16235" lon="6.80257">
        <ele>1683</ele>
        <time>2019-08-15T02:09:52Z</time>
      </trkpt>
      <trkpt lat="46.16197" lon="6.80225">
        <ele>1680</ele>
        <time>2019-08-15T02:10:50Z</time>
      </trkpt>
      <trkpt lat="46.16159" lon="6.80192">
        <ele>1681</ele>
        <time>2019-08-15T02:11:50Z</time>
      </trkpt>
      <trkpt lat="46.16118" lon="6.80182">
        <ele>1685</ele>
        <time>2019-08-15T02:12:45Z</time>
      </trkpt>
      <trkpt lat="46.1608" lon="6.80187">
        <ele>1683</ele>
        <time>2019-08-15T02:13:36Z</time>
      </trkpt>
      <trkpt lat="46.16048" lon="6.80217">
        <ele>1674</ele>
        <time>2019-08-15T02:14:27Z</time>
      </trkpt>
      <trkpt lat="46.16017" lon="6.80247">
        <ele>1669</ele>
        <time>2019-08-15T02:15:17Z</time>
      </trkpt>
      <trkpt lat="46.16007" lon="6.80246">
        <ele>1671</ele>
        <time>2019-08-15T02:15:30Z</time>
      </trkpt>
      <trkpt lat="46.15943" lon="6.80216">
        <ele>1665</ele>
        <time>2019-08-15T02:17:00Z</time>
      </trkpt>
      <trkpt lat="46.159" lon="6.80216">
        <ele>1654</ele>
        <time>2019-08-15T02:17:57Z</time>
      </trkpt>
      <trkpt lat="46.15867" lon="6.80171">
        <ele>1650</ele>
        <time>2019-08-15T02:18:58Z</time>
      </trkpt>
      <trkpt lat="46.15844" lon="6.80139">
        <ele>1650</ele>
        <time>2019-08-15T02:19:40Z</time>
      </trkpt>
      <trkpt lat="46.15821" lon="6.80106">
        <ele>1652</ele>
        <time>2019-08-15T02:20:24Z</time>
      </trkpt>
      <trkpt lat="46.15807" lon="6.80086">
        <ele>1654</ele>
        <time>2019-08-15T02:20:50Z</time>
      </trkpt>
      <trkpt lat="46.15803" lon="6.80076">
        <ele>1655</ele>
        <time>2019-08-15T02:21:01Z</time>
      </trkpt>
      <trkpt lat="46.1579" lon="6.80024">
        <ele>1663</ele>
        <time>2019-08-15T02:21:52Z</time>
      </trkpt>
      <trkpt lat="46.15757" lon="6.7999">
        <ele>1666</ele>
        <time>2019-08-15T02:22:46Z</time>
      </trkpt>
      <trkpt lat="46.15724" lon="6.79955">
        <ele>1676</ele>
        <time>2019-08-15T02:23:41Z</time>
      </trkpt>
      <trkpt lat="46.15698" lon="6.79941">
        <ele>1681</ele>
        <time>2019-08-15T02:24:18Z</time>
      </trkpt>
      <trkpt lat="46.15672" lon="6.79927">
        <ele>1686</ele>
        <time>2019-08-15T02:24:55Z</time>
      </trkpt>
      <trkpt lat="46.15662" lon="6.79951">
        <ele>1681</ele>
        <time>2019-08-15T02:25:20Z</time>
      </trkpt>
      <trkpt lat="46.15661" lon="6.7996">
        <ele>1680</ele>
        <time>2019-08-15T02:25:29Z</time>
      </trkpt>
      <trkpt lat="46.15648" lon="6.79977">
        <ele>1679</ele>
        <time>2019-08-15T02:25:52Z</time>
      </trkpt>
      <trkpt lat="46.15621" lon="6.79977">
        <ele>1684</ele>
        <time>2019-08-15T02:26:28Z</time>
      </trkpt>
      <trkpt lat="46.15612" lon="6.79972">
        <ele>1687</ele>
        <time>2019-08-15T02:26:41Z</time>
      </trkpt>
      <trkpt lat="46.15613" lon="6.79966">
        <ele>1687</ele>
        <time>2019-08-15T02:26:47Z</time>
      </trkpt>
      <trkpt lat="46.15623" lon="6.79948">
        <ele>1689</ele>
        <time>2019-08-15T02:27:08Z</time>
      </trkpt>
      <trkpt lat="46.15612" lon="6.79929">
        <ele>1694</ele>
        <time>2019-08-15T02:27:31Z</time>
      </trkpt>
      <trkpt lat="46.15615" lon="6.79887">
        <ele>1702</ele>
        <time>2019-08-15T02:28:10Z</time>
      </trkpt>
      <trkpt lat="46.15573" lon="6.79861">
        <ele>1712</ele>
        <time>2019-08-15T02:29:11Z</time>
      </trkpt>
      <trkpt lat="46.15565" lon="6.79855">
        <ele>1714</ele>
        <time>2019-08-15T02:29:23Z</time>
      </trkpt>
      <trkpt lat="46.15572" lon="6.7984">
        <ele>1717</ele>
        <time>2019-08-15T02:29:40Z</time>
      </trkpt>
      <trkpt lat="46.15543" lon="6.79794">
        <ele>1729</ele>
        <time>2019-08-15T02:30:37Z</time>
      </trkpt>
      <trkpt lat="46.15515" lon="6.79748">
        <ele>1744</ele>
        <time>2019-08-15T02:31:34Z</time>
      </trkpt>
      <trkpt lat="46.15473" lon="6.7974">
        <ele>1749</ele>
        <time>2019-08-15T02:32:31Z</time>
      </trkpt>
      <trkpt lat="46.1543" lon="6.79733">
        <ele>1753</ele>
        <time>2019-08-15T02:33:28Z</time>
      </trkpt>
      <trkpt lat="46.15388" lon="6.79726">
        <ele>1759</ele>
        <time>2019-08-15T02:34:25Z</time>
      </trkpt>
      <trkpt lat="46.15364" lon="6.79708">
        <ele>1765</ele>
        <time>2019-08-15T02:35:01Z</time>
      </trkpt>
      <trkpt lat="46.15339" lon="6.79691">
        <ele>1770</ele>
        <time>2019-08-15T02:35:38Z</time>
      </trkpt>
      <trkpt lat="46.15326" lon="6.79724">
        <ele>1769</ele>
        <time>2019-08-15T02:36:13Z</time>
      </trkpt>
      <trkpt lat="46.15312" lon="6.79756">
        <ele>1770</ele>
        <time>2019-08-15T02:36:48Z</time>
      </trkpt>
      <trkpt lat="46.15312" lon="6.79702">
        <ele>1776</ele>
        <time>2019-08-15T02:37:38Z</time>
      </trkpt>
      <trkpt lat="46.15278" lon="6.79734">
        <ele>1784</ele>
        <time>2019-08-15T02:38:32Z</time>
      </trkpt>
      <trkpt lat="46.15284" lon="6.79702">
        <ele>1786</ele>
        <time>2019-08-15T02:39:02Z</time>
      </trkpt>
      <trkpt lat="46.1529" lon="6.79669">
        <ele>1787</ele>
        <time>2019-08-15T02:39:34Z</time>
      </trkpt>
      <trkpt lat="46.15276" lon="6.79667">
        <ele>1792</ele>
        <time>2019-08-15T02:39:53Z</time>
      </trkpt>
      <trkpt lat="46.15263" lon="6.79688">
        <ele>1794</ele>
        <time>2019-08-15T02:40:19Z</time>
      </trkpt>
      <trkpt lat="46.15265" lon="6.79659">
        <ele>1796</ele>
        <time>2019-08-15T02:40:46Z</time>
      </trkpt>
      <trkpt lat="46.15238" lon="6.79627">
        <ele>1805</ele>
        <time>2019-08-15T02:41:32Z</time>
      </trkpt>
      <trkpt lat="46.15222" lon="6.79654">
        <ele>1811</ele>
        <time>2019-08-15T02:42:05Z</time>
      </trkpt>
      <trkpt lat="46.15199" lon="6.79635">
        <ele>1819</ele>
        <time>2019-08-15T02:42:41Z</time>
      </trkpt>
      <trkpt lat="46.15182" lon="6.79663">
        <ele>1825</ele>
        <time>2019-08-15T02:43:15Z</time>
      </trkpt>
      <trkpt lat="46.1517" lon="6.79643">
        <ele>1829</ele>
        <time>2019-08-15T02:43:39Z</time>
      </trkpt>
      <trkpt lat="46.15146" lon="6.79667">
        <ele>1837</ele>
        <time>2019-08-15T02:44:18Z</time>
      </trkpt>
      <trkpt lat="46.15138" lon="6.79691">
        <ele>1839</ele>
        <time>2019-08-15T02:44:43Z</time>
      </trkpt>
      <trkpt lat="46.15125" lon="6.79698">
        <ele>1843</ele>
        <time>2019-08-15T02:45:02Z</time>
      </trkpt>
      <trkpt lat="46.15108" lon="6.79675">
        <ele>1847</ele>
        <time>2019-08-15T02:45:33Z</time>
      </trkpt>
      <trkpt lat="46.15091" lon="6.79652">
        <ele>1852</ele>
        <time>2019-08-15T02:46:04Z</time>
      </trkpt>
      <trkpt lat="46.15097" lon="6.79618">
        <ele>1852</ele>
        <time>2019-08-15T02:46:36Z</time>
      </trkpt>
      <trkpt lat="46.15088" lon="6.79604">
        <ele>1855</ele>
        <time>2019-08-15T02:46:54Z</time>
      </trkpt>
      <trkpt lat="46.15066" lon="6.79602">
        <ele>1860</ele>
        <time>2019-08-15T02:47:23Z</time>
      </trkpt>
      <trkpt lat="46.15057" lon="6.79587">
        <ele>1863</ele>
        <time>2019-08-15T02:47:42Z</time>
      </trkpt>
      <trkpt lat="46.15055" lon="6.79576">
        <ele>1864</ele>
        <time>2019-08-15T02:47:52Z</time>
      </trkpt>
      <trkpt lat="46.15035" lon="6.79578">
        <ele>1868</ele>
        <time>2019-08-15T02:48:19Z</time>
      </trkpt>
      <trkpt lat="46.15024" lon="6.79578">
        <ele>1870</ele>
        <time>2019-08-15T02:48:34Z</time>
      </trkpt>
      <trkpt lat="46.15018" lon="6.79552">
        <ele>1873</ele>
        <time>2019-08-15T02:48:59Z</time>
      </trkpt>
      <trkpt lat="46.14991" lon="6.79538">
        <ele>1881</ele>
        <time>2019-08-15T02:49:37Z</time>
      </trkpt>
      <trkpt lat="46.15006" lon="6.79525">
        <ele>1877</ele>
        <time>2019-08-15T02:50:01Z</time>
      </trkpt>
      <trkpt lat="46.1502" lon="6.79482">
        <ele>1878</ele>
        <time>2019-08-15T02:50:44Z</time>
      </trkpt>
      <trkpt lat="46.15" lon="6.79468">
        <ele>1885</ele>
        <time>2019-08-15T02:51:14Z</time>
      </trkpt>
      <trkpt lat="46.14977" lon="6.79486">
        <ele>1890</ele>
        <time>2019-08-15T02:51:49Z</time>
      </trkpt>
      <trkpt lat="46.14955" lon="6.79505">
        <ele>1895</ele>
        <time>2019-08-15T02:52:23Z</time>
      </trkpt>
      <trkpt lat="46.14957" lon="6.79473">
        <ele>1897</ele>
        <time>2019-08-15T02:52:53Z</time>
      </trkpt>
      <trkpt lat="46.14947" lon="6.79436">
        <ele>1904</ele>
        <time>2019-08-15T02:53:30Z</time>
      </trkpt>
      <trkpt lat="46.14948" lon="6.79428">
        <ele>1904</ele>
        <time>2019-08-15T02:53:37Z</time>
      </trkpt>
      <trkpt lat="46.14947" lon="6.7941">
        <ele>1907</ele>
        <time>2019-08-15T02:53:54Z</time>
      </trkpt>
      <trkpt lat="46.14948" lon="6.79396">
        <ele>1908</ele>
        <time>2019-08-15T02:54:07Z</time>
      </trkpt>
      <trkpt lat="46.14948" lon="6.79388">
        <ele>1909</ele>
        <time>2019-08-15T02:54:14Z</time>
      </trkpt>
      <trkpt lat="46.1495" lon="6.79381">
        <ele>1910</ele>
        <time>2019-08-15T02:54:21Z</time>
      </trkpt>
      <trkpt lat="46.14951" lon="6.79377">
        <ele>1910</ele>
        <time>2019-08-15T02:54:25Z</time>
      </trkpt>
      <trkpt lat="46.14953" lon="6.79375">
        <ele>1910</ele>
        <time>2019-08-15T02:54:28Z</time>
      </trkpt>
      <trkpt lat="46.14961" lon="6.79361">
        <ele>1911</ele>
        <time>2019-08-15T02:54:45Z</time>
      </trkpt>
      <trkpt lat="46.14986" lon="6.79343">
        <ele>1912</ele>
        <time>2019-08-15T02:55:22Z</time>
      </trkpt>
      <trkpt lat="46.1501" lon="6.79325">
        <ele>1911</ele>
        <time>2019-08-15T02:55:59Z</time>
      </trkpt>
      <trkpt lat="46.15022" lon="6.793">
        <ele>1911</ele>
        <time>2019-08-15T02:56:27Z</time>
      </trkpt>
      <trkpt lat="46.15025" lon="6.79286">
        <ele>1913</ele>
        <time>2019-08-15T02:56:40Z</time>
      </trkpt>
      <trkpt lat="46.15019" lon="6.79275">
        <ele>1913</ele>
        <time>2019-08-15T02:56:53Z</time>
      </trkpt>
      <trkpt lat="46.15016" lon="6.79274">
        <ele>1913</ele>
        <time>2019-08-15T02:56:57Z</time>
      </trkpt>
      <trkpt lat="46.15008" lon="6.79274">
        <ele>1913</ele>
        <time>2019-08-15T02:57:08Z</time>
      </trkpt>
      <trkpt lat="46.15004" lon="6.79273">
        <ele>1913</ele>
        <time>2019-08-15T02:57:13Z</time>
      </trkpt>
      <trkpt lat="46.15" lon="6.7927">
        <ele>1913</ele>
        <time>2019-08-15T02:57:19Z</time>
      </trkpt>
      <trkpt lat="46.14996" lon="6.79269">
        <ele>1913</ele>
        <time>2019-08-15T02:57:25Z</time>
      </trkpt>
      <trkpt lat="46.1499" lon="6.7927">
        <ele>1913</ele>
        <time>2019-08-15T02:57:33Z</time>
      </trkpt>
      <trkpt lat="46.14983" lon="6.79268">
        <ele>1912</ele>
        <time>2019-08-15T02:57:42Z</time>
      </trkpt>
      <trkpt lat="46.14974" lon="6.79265">
        <ele>1912</ele>
        <time>2019-08-15T02:57:55Z</time>
      </trkpt>
      <trkpt lat="46.14966" lon="6.79265">
        <ele>1911</ele>
        <time>2019-08-15T02:58:05Z</time>
      </trkpt>
      <trkpt lat="46.1496" lon="6.79265">
        <ele>1911</ele>
        <time>2019-08-15T02:58:13Z</time>
      </trkpt>
      <trkpt lat="46.14955" lon="6.79264">
        <ele>1910</ele>
        <time>2019-08-15T02:58:20Z</time>
      </trkpt>
      <trkpt lat="46.14945" lon="6.79262">
        <ele>1910</ele>
        <time>2019-08-15T02:58:34Z</time>
      </trkpt>
      <trkpt lat="46.1494" lon="6.7926">
        <ele>1909</ele>
        <time>2019-08-15T02:58:41Z</time>
      </trkpt>
      <trkpt lat="46.14936" lon="6.79258">
        <ele>1909</ele>
        <time>2019-08-15T02:58:46Z</time>
      </trkpt>
      <trkpt lat="46.14931" lon="6.79255">
        <ele>1908</ele>
        <time>2019-08-15T02:58:53Z</time>
      </trkpt>
      <trkpt lat="46.14926" lon="6.79252">
        <ele>1907</ele>
        <time>2019-08-15T02:59:01Z</time>
      </trkpt>
      <trkpt lat="46.14921" lon="6.79247">
        <ele>1906</ele>
        <time>2019-08-15T02:59:09Z</time>
      </trkpt>
      <trkpt lat="46.14916" lon="6.7924">
        <ele>1903</ele>
        <time>2019-08-15T02:59:18Z</time>
      </trkpt>
      <trkpt lat="46.14904" lon="6.79219">
        <ele>1898</ele>
        <time>2019-08-15T02:59:43Z</time>
      </trkpt>
      <trkpt lat="46.14904" lon="6.79219">
        <ele>1898</ele>
        <time>2019-08-15T02:59:43Z</time>
      </trkpt>
      <trkpt lat="46.14901" lon="6.79216">
        <ele>1898</ele>
        <time>2019-08-15T02:59:48Z</time>
      </trkpt>
      <trkpt lat="46.1489" lon="6.79214">
        <ele>1898</ele>
        <time>2019-08-15T03:00:03Z</time>
      </trkpt>
      <trkpt lat="46.14887" lon="6.79212">
        <ele>1898</ele>
        <time>2019-08-15T03:00:07Z</time>
      </trkpt>
      <trkpt lat="46.14879" lon="6.79199">
        <ele>1895</ele>
        <time>2019-08-15T03:00:23Z</time>
      </trkpt>
      <trkpt lat="46.14877" lon="6.79197">
        <ele>1894</ele>
        <time>2019-08-15T03:00:27Z</time>
      </trkpt>
      <trkpt lat="46.14874" lon="6.79195">
        <ele>1894</ele>
        <time>2019-08-15T03:00:31Z</time>
      </trkpt>
      <trkpt lat="46.14871" lon="6.79197">
        <ele>1895</ele>
        <time>2019-08-15T03:00:35Z</time>
      </trkpt>
      <trkpt lat="46.14867" lon="6.79201">
        <ele>1896</ele>
        <time>2019-08-15T03:00:42Z</time>
      </trkpt>
      <trkpt lat="46.14864" lon="6.79202">
        <ele>1897</ele>
        <time>2019-08-15T03:00:46Z</time>
      </trkpt>
      <trkpt lat="46.14861" lon="6.79201">
        <ele>1897</ele>
        <time>2019-08-15T03:00:50Z</time>
      </trkpt>
      <trkpt lat="46.14858" lon="6.79197">
        <ele>1896</ele>
        <time>2019-08-15T03:00:56Z</time>
      </trkpt>
      <trkpt lat="46.14853" lon="6.79189">
        <ele>1894</ele>
        <time>2019-08-15T03:01:06Z</time>
      </trkpt>
      <trkpt lat="46.1485" lon="6.79183">
        <ele>1892</ele>
        <time>2019-08-15T03:01:12Z</time>
      </trkpt>
      <trkpt lat="46.14845" lon="6.79172">
        <ele>1889</ele>
        <time>2019-08-15T03:01:25Z</time>
      </trkpt>
      <trkpt lat="46.14839" lon="6.79167">
        <ele>1888</ele>
        <time>2019-08-15T03:01:34Z</time>
      </trkpt>
      <trkpt lat="46.14834" lon="6.79164">
        <ele>1887</ele>
        <time>2019-08-15T03:01:41Z</time>
      </trkpt>
      <trkpt lat="46.14826" lon="6.79157">
        <ele>1886</ele>
        <time>2019-08-15T03:01:54Z</time>
      </trkpt>
      <trkpt lat="46.14822" lon="6.79151">
        <ele>1885</ele>
        <time>2019-08-15T03:02:01Z</time>
      </trkpt>
      <trkpt lat="46.14819" lon="6.79146">
        <ele>1884</ele>
        <time>2019-08-15T03:02:07Z</time>
      </trkpt>
      <trkpt lat="46.14812" lon="6.7912">
        <ele>1877</ele>
        <time>2019-08-15T03:02:33Z</time>
      </trkpt>
      <trkpt lat="46.14809" lon="6.79115">
        <ele>1876</ele>
        <time>2019-08-15T03:02:39Z</time>
      </trkpt>
      <trkpt lat="46.14797" lon="6.79099">
        <ele>1873</ele>
        <time>2019-08-15T03:03:01Z</time>
      </trkpt>
      <trkpt lat="46.14793" lon="6.79095">
        <ele>1872</ele>
        <time>2019-08-15T03:03:08Z</time>
      </trkpt>
      <trkpt lat="46.14774" lon="6.79083">
        <ele>1871</ele>
        <time>2019-08-15T03:03:35Z</time>
      </trkpt>
      <trkpt lat="46.14771" lon="6.7908">
        <ele>1871</ele>
        <time>2019-08-15T03:03:40Z</time>
      </trkpt>
      <trkpt lat="46.14769" lon="6.79076">
        <ele>1870</ele>
        <time>2019-08-15T03:03:45Z</time>
      </trkpt>
      <trkpt lat="46.14766" lon="6.79059">
        <ele>1864</ele>
        <time>2019-08-15T03:04:01Z</time>
      </trkpt>
      <trkpt lat="46.14765" lon="6.79054">
        <ele>1862</ele>
        <time>2019-08-15T03:04:06Z</time>
      </trkpt>
      <trkpt lat="46.14763" lon="6.79049">
        <ele>1861</ele>
        <time>2019-08-15T03:04:11Z</time>
      </trkpt>
      <trkpt lat="46.14759" lon="6.79043">
        <ele>1859</ele>
        <time>2019-08-15T03:04:19Z</time>
      </trkpt>
      <trkpt lat="46.14752" lon="6.79022">
        <ele>1853</ele>
        <time>2019-08-15T03:04:40Z</time>
      </trkpt>
      <trkpt lat="46.14753" lon="6.79017">
        <ele>1851</ele>
        <time>2019-08-15T03:04:45Z</time>
      </trkpt>
      <trkpt lat="46.14756" lon="6.79013">
        <ele>1849</ele>
        <time>2019-08-15T03:04:51Z</time>
      </trkpt>
      <trkpt lat="46.14759" lon="6.79011">
        <ele>1848</ele>
        <time>2019-08-15T03:04:55Z</time>
      </trkpt>
      <trkpt lat="46.14787" lon="6.79005">
        <ele>1842</ele>
        <time>2019-08-15T03:05:33Z</time>
      </trkpt>
      <trkpt lat="46.14794" lon="6.78997">
        <ele>1839</ele>
        <time>2019-08-15T03:05:45Z</time>
      </trkpt>
      <trkpt lat="46.14796" lon="6.78993">
        <ele>1837</ele>
        <time>2019-08-15T03:05:49Z</time>
      </trkpt>
      <trkpt lat="46.14797" lon="6.78987">
        <ele>1835</ele>
        <time>2019-08-15T03:05:55Z</time>
      </trkpt>
      <trkpt lat="46.14796" lon="6.78982">
        <ele>1834</ele>
        <time>2019-08-15T03:06:00Z</time>
      </trkpt>
      <trkpt lat="46.14795" lon="6.78977">
        <ele>1833</ele>
        <time>2019-08-15T03:06:05Z</time>
      </trkpt>
      <trkpt lat="46.14789" lon="6.78961">
        <ele>1828</ele>
        <time>2019-08-15T03:06:21Z</time>
      </trkpt>
      <trkpt lat="46.14786" lon="6.78957">
        <ele>1828</ele>
        <time>2019-08-15T03:06:27Z</time>
      </trkpt>
      <trkpt lat="46.14757" lon="6.78943">
        <ele>1828</ele>
        <time>2019-08-15T03:07:08Z</time>
      </trkpt>
      <trkpt lat="46.14753" lon="6.78941">
        <ele>1828</ele>
        <time>2019-08-15T03:07:13Z</time>
      </trkpt>
      <trkpt lat="46.1473" lon="6.78911">
        <ele>1820</ele>
        <time>2019-08-15T03:07:55Z</time>
      </trkpt>
      <trkpt lat="46.14727" lon="6.78909">
        <ele>1819</ele>
        <time>2019-08-15T03:07:59Z</time>
      </trkpt>
      <trkpt lat="46.14726" lon="6.78904">
        <ele>1817</ele>
        <time>2019-08-15T03:08:04Z</time>
      </trkpt>
      <trkpt lat="46.14724" lon="6.78892">
        <ele>1813</ele>
        <time>2019-08-15T03:08:15Z</time>
      </trkpt>
      <trkpt lat="46.14721" lon="6.78888">
        <ele>1811</ele>
        <time>2019-08-15T03:08:21Z</time>
      </trkpt>
      <trkpt lat="46.14713" lon="6.78877">
        <ele>1807</ele>
        <time>2019-08-15T03:08:35Z</time>
      </trkpt>
      <trkpt lat="46.1471" lon="6.78875">
        <ele>1807</ele>
        <time>2019-08-15T03:08:40Z</time>
      </trkpt>
      <trkpt lat="46.14706" lon="6.78875">
        <ele>1806</ele>
        <time>2019-08-15T03:08:45Z</time>
      </trkpt>
      <trkpt lat="46.14701" lon="6.78876">
        <ele>1807</ele>
        <time>2019-08-15T03:08:52Z</time>
      </trkpt>
      <trkpt lat="46.14697" lon="6.78875">
        <ele>1806</ele>
        <time>2019-08-15T03:08:57Z</time>
      </trkpt>
      <trkpt lat="46.14694" lon="6.78873">
        <ele>1806</ele>
        <time>2019-08-15T03:09:02Z</time>
      </trkpt>
      <trkpt lat="46.14685" lon="6.78851">
        <ele>1798</ele>
        <time>2019-08-15T03:09:25Z</time>
      </trkpt>
      <trkpt lat="46.14683" lon="6.78846">
        <ele>1796</ele>
        <time>2019-08-15T03:09:31Z</time>
      </trkpt>
      <trkpt lat="46.14683" lon="6.7884">
        <ele>1794</ele>
        <time>2019-08-15T03:09:36Z</time>
      </trkpt>
      <trkpt lat="46.14683" lon="6.78834">
        <ele>1791</ele>
        <time>2019-08-15T03:09:42Z</time>
      </trkpt>
      <trkpt lat="46.14682" lon="6.78829">
        <ele>1790</ele>
        <time>2019-08-15T03:09:47Z</time>
      </trkpt>
      <trkpt lat="46.14676" lon="6.78814">
        <ele>1786</ele>
        <time>2019-08-15T03:10:03Z</time>
      </trkpt>
      <trkpt lat="46.14674" lon="6.78811">
        <ele>1785</ele>
        <time>2019-08-15T03:10:06Z</time>
      </trkpt>
      <trkpt lat="46.1467" lon="6.78807">
        <ele>1784</ele>
        <time>2019-08-15T03:10:13Z</time>
      </trkpt>
      <trkpt lat="46.14648" lon="6.78793">
        <ele>1775</ele>
        <time>2019-08-15T03:10:45Z</time>
      </trkpt>
      <trkpt lat="46.14645" lon="6.78791">
        <ele>1774</ele>
        <time>2019-08-15T03:10:49Z</time>
      </trkpt>
      <trkpt lat="46.14644" lon="6.78785">
        <ele>1772</ele>
        <time>2019-08-15T03:10:55Z</time>
      </trkpt>
      <trkpt lat="46.14644" lon="6.78773">
        <ele>1769</ele>
        <time>2019-08-15T03:11:06Z</time>
      </trkpt>
      <trkpt lat="46.14644" lon="6.78765">
        <ele>1767</ele>
        <time>2019-08-15T03:11:14Z</time>
      </trkpt>
      <trkpt lat="46.14638" lon="6.78707">
        <ele>1755</ele>
        <time>2019-08-15T03:12:08Z</time>
      </trkpt>
      <trkpt lat="46.14636" lon="6.78681">
        <ele>1751</ele>
        <time>2019-08-15T03:12:32Z</time>
      </trkpt>
      <trkpt lat="46.14631" lon="6.78644">
        <ele>1745</ele>
        <time>2019-08-15T03:13:07Z</time>
      </trkpt>
      <trkpt lat="46.1463" lon="6.78637">
        <ele>1744</ele>
        <time>2019-08-15T03:13:14Z</time>
      </trkpt>
      <trkpt lat="46.14623" lon="6.78611">
        <ele>1740</ele>
        <time>2019-08-15T03:13:39Z</time>
      </trkpt>
      <trkpt lat="46.14621" lon="6.78603">
        <ele>1739</ele>
        <time>2019-08-15T03:13:47Z</time>
      </trkpt>
      <trkpt lat="46.1462" lon="6.78593">
        <ele>1738</ele>
        <time>2019-08-15T03:13:57Z</time>
      </trkpt>
      <trkpt lat="46.14617" lon="6.78578">
        <ele>1737</ele>
        <time>2019-08-15T03:14:11Z</time>
      </trkpt>
      <trkpt lat="46.14615" lon="6.78572">
        <ele>1736</ele>
        <time>2019-08-15T03:14:17Z</time>
      </trkpt>
      <trkpt lat="46.14615" lon="6.78566">
        <ele>1736</ele>
        <time>2019-08-15T03:14:23Z</time>
      </trkpt>
      <trkpt lat="46.14614" lon="6.78552">
        <ele>1736</ele>
        <time>2019-08-15T03:14:36Z</time>
      </trkpt>
      <trkpt lat="46.14615" lon="6.78545">
        <ele>1736</ele>
        <time>2019-08-15T03:14:42Z</time>
      </trkpt>
      <trkpt lat="46.14615" lon="6.78539">
        <ele>1736</ele>
        <time>2019-08-15T03:14:48Z</time>
      </trkpt>
      <trkpt lat="46.14614" lon="6.78531">
        <ele>1736</ele>
        <time>2019-08-15T03:14:55Z</time>
      </trkpt>
      <trkpt lat="46.1461" lon="6.78501">
        <ele>1736</ele>
        <time>2019-08-15T03:15:24Z</time>
      </trkpt>
      <trkpt lat="46.14579" lon="6.78397">
        <ele>1726</ele>
        <time>2019-08-15T03:17:08Z</time>
      </trkpt>
      <trkpt lat="46.14575" lon="6.78389">
        <ele>1724</ele>
        <time>2019-08-15T03:17:17Z</time>
      </trkpt>
      <trkpt lat="46.14572" lon="6.78385">
        <ele>1722</ele>
        <time>2019-08-15T03:17:23Z</time>
      </trkpt>
      <trkpt lat="46.14569" lon="6.78382">
        <ele>1721</ele>
        <time>2019-08-15T03:17:28Z</time>
      </trkpt>
      <trkpt lat="46.14565" lon="6.78379">
        <ele>1719</ele>
        <time>2019-08-15T03:17:34Z</time>
      </trkpt>
      <trkpt lat="46.14561" lon="6.78379">
        <ele>1718</ele>
        <time>2019-08-15T03:17:39Z</time>
      </trkpt>
      <trkpt lat="46.14556" lon="6.7838">
        <ele>1717</ele>
        <time>2019-08-15T03:17:46Z</time>
      </trkpt>
      <trkpt lat="46.14552" lon="6.78382">
        <ele>1717</ele>
        <time>2019-08-15T03:17:51Z</time>
      </trkpt>
      <trkpt lat="46.14546" lon="6.78392">
        <ele>1717</ele>
        <time>2019-08-15T03:18:04Z</time>
      </trkpt>
      <trkpt lat="46.14544" lon="6.78393">
        <ele>1717</ele>
        <time>2019-08-15T03:18:06Z</time>
      </trkpt>
      <trkpt lat="46.14542" lon="6.78386">
        <ele>1715</ele>
        <time>2019-08-15T03:18:13Z</time>
      </trkpt>
      <trkpt lat="46.1454" lon="6.78369">
        <ele>1712</ele>
        <time>2019-08-15T03:18:29Z</time>
      </trkpt>
      <trkpt lat="46.14541" lon="6.78327">
        <ele>1704</ele>
        <time>2019-08-15T03:19:08Z</time>
      </trkpt>
      <trkpt lat="46.1454" lon="6.78323">
        <ele>1703</ele>
        <time>2019-08-15T03:19:12Z</time>
      </trkpt>
      <trkpt lat="46.14537" lon="6.78321">
        <ele>1702</ele>
        <time>2019-08-15T03:19:17Z</time>
      </trkpt>
      <trkpt lat="46.14534" lon="6.7832">
        <ele>1702</ele>
        <time>2019-08-15T03:19:21Z</time>
      </trkpt>
      <trkpt lat="46.1452" lon="6.78319">
        <ele>1699</ele>
        <time>2019-08-15T03:19:39Z</time>
      </trkpt>
      <trkpt lat="46.14516" lon="6.78318">
        <ele>1698</ele>
        <time>2019-08-15T03:19:45Z</time>
      </trkpt>
      <trkpt lat="46.14513" lon="6.78315">
        <ele>1697</ele>
        <time>2019-08-15T03:19:50Z</time>
      </trkpt>
      <trkpt lat="46.14512" lon="6.7831">
        <ele>1696</ele>
        <time>2019-08-15T03:19:55Z</time>
      </trkpt>
      <trkpt lat="46.14512" lon="6.78305">
        <ele>1695</ele>
        <time>2019-08-15T03:19:59Z</time>
      </trkpt>
      <trkpt lat="46.14515" lon="6.7829">
        <ele>1692</ele>
        <time>2019-08-15T03:20:14Z</time>
      </trkpt>
      <trkpt lat="46.14518" lon="6.78287">
        <ele>1692</ele>
        <time>2019-08-15T03:20:18Z</time>
      </trkpt>
      <trkpt lat="46.14522" lon="6.78286">
        <ele>1692</ele>
        <time>2019-08-15T03:20:24Z</time>
      </trkpt>
      <trkpt lat="46.14526" lon="6.78288">
        <ele>1693</ele>
        <time>2019-08-15T03:20:30Z</time>
      </trkpt>
      <trkpt lat="46.14546" lon="6.78301">
        <ele>1699</ele>
        <time>2019-08-15T03:20:59Z</time>
      </trkpt>
      <trkpt lat="46.14549" lon="6.78302">
        <ele>1700</ele>
        <time>2019-08-15T03:21:03Z</time>
      </trkpt>
      <trkpt lat="46.14552" lon="6.78301">
        <ele>1700</ele>
        <time>2019-08-15T03:21:07Z</time>
      </trkpt>
      <trkpt lat="46.14555" lon="6.78299">
        <ele>1700</ele>
        <time>2019-08-15T03:21:11Z</time>
      </trkpt>
      <trkpt lat="46.14558" lon="6.78295">
        <ele>1699</ele>
        <time>2019-08-15T03:21:17Z</time>
      </trkpt>
      <trkpt lat="46.14559" lon="6.78291">
        <ele>1698</ele>
        <time>2019-08-15T03:21:21Z</time>
      </trkpt>
      <trkpt lat="46.1456" lon="6.78285">
        <ele>1697</ele>
        <time>2019-08-15T03:21:27Z</time>
      </trkpt>
      <trkpt lat="46.1456" lon="6.78279">
        <ele>1696</ele>
        <time>2019-08-15T03:21:32Z</time>
      </trkpt>
      <trkpt lat="46.14558" lon="6.78264">
        <ele>1692</ele>
        <time>2019-08-15T03:21:46Z</time>
      </trkpt>
      <trkpt lat="46.14559" lon="6.7826">
        <ele>1691</ele>
        <time>2019-08-15T03:21:50Z</time>
      </trkpt>
      <trkpt lat="46.14563" lon="6.78261">
        <ele>1692</ele>
        <time>2019-08-15T03:21:56Z</time>
      </trkpt>
      <trkpt lat="46.14567" lon="6.78262">
        <ele>1692</ele>
        <time>2019-08-15T03:22:01Z</time>
      </trkpt>
      <trkpt lat="46.14576" lon="6.78254">
        <ele>1691</ele>
        <time>2019-08-15T03:22:15Z</time>
      </trkpt>
      <trkpt lat="46.14578" lon="6.78251">
        <ele>1691</ele>
        <time>2019-08-15T03:22:19Z</time>
      </trkpt>
      <trkpt lat="46.14578" lon="6.78246">
        <ele>1689</ele>
        <time>2019-08-15T03:22:24Z</time>
      </trkpt>
      <trkpt lat="46.14576" lon="6.78242">
        <ele>1688</ele>
        <time>2019-08-15T03:22:28Z</time>
      </trkpt>
      <trkpt lat="46.14571" lon="6.78227">
        <ele>1683</ele>
        <time>2019-08-15T03:22:44Z</time>
      </trkpt>
      <trkpt lat="46.14564" lon="6.78214">
        <ele>1679</ele>
        <time>2019-08-15T03:22:59Z</time>
      </trkpt>
      <trkpt lat="46.14558" lon="6.78201">
        <ele>1675</ele>
        <time>2019-08-15T03:23:13Z</time>
      </trkpt>
      <trkpt lat="46.14555" lon="6.78197">
        <ele>1673</ele>
        <time>2019-08-15T03:23:19Z</time>
      </trkpt>
      <trkpt lat="46.14553" lon="6.78193">
        <ele>1672</ele>
        <time>2019-08-15T03:23:23Z</time>
      </trkpt>
      <trkpt lat="46.14544" lon="6.78184">
        <ele>1668</ele>
        <time>2019-08-15T03:23:38Z</time>
      </trkpt>
      <trkpt lat="46.14542" lon="6.78181">
        <ele>1667</ele>
        <time>2019-08-15T03:23:42Z</time>
      </trkpt>
      <trkpt lat="46.14541" lon="6.78171">
        <ele>1665</ele>
        <time>2019-08-15T03:23:51Z</time>
      </trkpt>
      <trkpt lat="46.14542" lon="6.78166">
        <ele>1663</ele>
        <time>2019-08-15T03:23:56Z</time>
      </trkpt>
      <trkpt lat="46.14545" lon="6.78163">
        <ele>1663</ele>
        <time>2019-08-15T03:24:01Z</time>
      </trkpt>
      <trkpt lat="46.1455" lon="6.78162">
        <ele>1663</ele>
        <time>2019-08-15T03:24:07Z</time>
      </trkpt>
      <trkpt lat="46.14554" lon="6.7816">
        <ele>1663</ele>
        <time>2019-08-15T03:24:13Z</time>
      </trkpt>
      <trkpt lat="46.14555" lon="6.78156">
        <ele>1662</ele>
        <time>2019-08-15T03:24:17Z</time>
      </trkpt>
      <trkpt lat="46.14554" lon="6.78152">
        <ele>1660</ele>
        <time>2019-08-15T03:24:21Z</time>
      </trkpt>
      <trkpt lat="46.14552" lon="6.78147">
        <ele>1659</ele>
        <time>2019-08-15T03:24:26Z</time>
      </trkpt>
      <trkpt lat="46.14545" lon="6.78138">
        <ele>1655</ele>
        <time>2019-08-15T03:24:39Z</time>
      </trkpt>
      <trkpt lat="46.14542" lon="6.78132">
        <ele>1653</ele>
        <time>2019-08-15T03:24:46Z</time>
      </trkpt>
      <trkpt lat="46.14541" lon="6.78126">
        <ele>1651</ele>
        <time>2019-08-15T03:24:51Z</time>
      </trkpt>
      <trkpt lat="46.14541" lon="6.78121">
        <ele>1650</ele>
        <time>2019-08-15T03:24:56Z</time>
      </trkpt>
      <trkpt lat="46.14543" lon="6.78117">
        <ele>1649</ele>
        <time>2019-08-15T03:25:00Z</time>
      </trkpt>
      <trkpt lat="46.14546" lon="6.78114">
        <ele>1648</ele>
        <time>2019-08-15T03:25:05Z</time>
      </trkpt>
      <trkpt lat="46.1455" lon="6.78112">
        <ele>1648</ele>
        <time>2019-08-15T03:25:11Z</time>
      </trkpt>
      <trkpt lat="46.14554" lon="6.78112">
        <ele>1649</ele>
        <time>2019-08-15T03:25:16Z</time>
      </trkpt>
      <trkpt lat="46.14558" lon="6.78114">
        <ele>1650</ele>
        <time>2019-08-15T03:25:22Z</time>
      </trkpt>
      <trkpt lat="46.14573" lon="6.78134">
        <ele>1657</ele>
        <time>2019-08-15T03:25:49Z</time>
      </trkpt>
      <trkpt lat="46.14584" lon="6.78151">
        <ele>1662</ele>
        <time>2019-08-15T03:26:11Z</time>
      </trkpt>
      <trkpt lat="46.14588" lon="6.78154">
        <ele>1662</ele>
        <time>2019-08-15T03:26:17Z</time>
      </trkpt>
      <trkpt lat="46.14591" lon="6.78153">
        <ele>1660</ele>
        <time>2019-08-15T03:26:21Z</time>
      </trkpt>
      <trkpt lat="46.14593" lon="6.7815">
        <ele>1659</ele>
        <time>2019-08-15T03:26:25Z</time>
      </trkpt>
      <trkpt lat="46.14593" lon="6.78146">
        <ele>1657</ele>
        <time>2019-08-15T03:26:28Z</time>
      </trkpt>
      <trkpt lat="46.14594" lon="6.7814">
        <ele>1655</ele>
        <time>2019-08-15T03:26:34Z</time>
      </trkpt>
      <trkpt lat="46.14593" lon="6.78078">
        <ele>1638</ele>
        <time>2019-08-15T03:27:31Z</time>
      </trkpt>
      <trkpt lat="46.14593" lon="6.78071">
        <ele>1636</ele>
        <time>2019-08-15T03:27:38Z</time>
      </trkpt>
      <trkpt lat="46.14592" lon="6.78064">
        <ele>1635</ele>
        <time>2019-08-15T03:27:45Z</time>
      </trkpt>
      <trkpt lat="46.14591" lon="6.78059">
        <ele>1634</ele>
        <time>2019-08-15T03:27:49Z</time>
      </trkpt>
      <trkpt lat="46.14589" lon="6.78055">
        <ele>1633</ele>
        <time>2019-08-15T03:27:54Z</time>
      </trkpt>
      <trkpt lat="46.14585" lon="6.78051">
        <ele>1634</ele>
        <time>2019-08-15T03:28:00Z</time>
      </trkpt>
      <trkpt lat="46.14579" lon="6.78049">
        <ele>1633</ele>
        <time>2019-08-15T03:28:09Z</time>
      </trkpt>
      <trkpt lat="46.14572" lon="6.78047">
        <ele>1632</ele>
        <time>2019-08-15T03:28:18Z</time>
      </trkpt>
      <trkpt lat="46.14566" lon="6.78043">
        <ele>1630</ele>
        <time>2019-08-15T03:28:27Z</time>
      </trkpt>
      <trkpt lat="46.14561" lon="6.78039">
        <ele>1628</ele>
        <time>2019-08-15T03:28:35Z</time>
      </trkpt>
      <trkpt lat="46.14546" lon="6.78024">
        <ele>1622</ele>
        <time>2019-08-15T03:28:59Z</time>
      </trkpt>
      <trkpt lat="46.14535" lon="6.7801">
        <ele>1616</ele>
        <time>2019-08-15T03:29:19Z</time>
      </trkpt>
      <trkpt lat="46.14533" lon="6.78007">
        <ele>1615</ele>
        <time>2019-08-15T03:29:22Z</time>
      </trkpt>
      <trkpt lat="46.14532" lon="6.78001">
        <ele>1613</ele>
        <time>2019-08-15T03:29:28Z</time>
      </trkpt>
      <trkpt lat="46.14533" lon="6.77997">
        <ele>1612</ele>
        <time>2019-08-15T03:29:32Z</time>
      </trkpt>
      <trkpt lat="46.14541" lon="6.77983">
        <ele>1609</ele>
        <time>2019-08-15T03:29:49Z</time>
      </trkpt>
      <trkpt lat="46.14545" lon="6.7798">
        <ele>1609</ele>
        <time>2019-08-15T03:29:55Z</time>
      </trkpt>
      <trkpt lat="46.14549" lon="6.7798">
        <ele>1609</ele>
        <time>2019-08-15T03:30:00Z</time>
      </trkpt>
      <trkpt lat="46.14553" lon="6.7798">
        <ele>1610</ele>
        <time>2019-08-15T03:30:05Z</time>
      </trkpt>
      <trkpt lat="46.14566" lon="6.77985">
        <ele>1612</ele>
        <time>2019-08-15T03:30:23Z</time>
      </trkpt>
      <trkpt lat="46.14588" lon="6.78005">
        <ele>1619</ele>
        <time>2019-08-15T03:30:58Z</time>
      </trkpt>
      <trkpt lat="46.14592" lon="6.78005">
        <ele>1618</ele>
        <time>2019-08-15T03:31:03Z</time>
      </trkpt>
      <trkpt lat="46.14594" lon="6.78002">
        <ele>1616</ele>
        <time>2019-08-15T03:31:07Z</time>
      </trkpt>
      <trkpt lat="46.14594" lon="6.77992">
        <ele>1613</ele>
        <time>2019-08-15T03:31:17Z</time>
      </trkpt>
      <trkpt lat="46.14593" lon="6.77989">
        <ele>1612</ele>
        <time>2019-08-15T03:31:20Z</time>
      </trkpt>
      <trkpt lat="46.1457" lon="6.77951">
        <ele>1602</ele>
        <time>2019-08-15T03:32:06Z</time>
      </trkpt>
      <trkpt lat="46.14547" lon="6.77913">
        <ele>1590</ele>
        <time>2019-08-15T03:32:53Z</time>
      </trkpt>
      <trkpt lat="46.14542" lon="6.77907">
        <ele>1588</ele>
        <time>2019-08-15T03:33:02Z</time>
      </trkpt>
      <trkpt lat="46.14537" lon="6.77903">
        <ele>1586</ele>
        <time>2019-08-15T03:33:09Z</time>
      </trkpt>
      <trkpt lat="46.14525" lon="6.77895">
        <ele>1583</ele>
        <time>2019-08-15T03:33:27Z</time>
      </trkpt>
      <trkpt lat="46.14517" lon="6.77892">
        <ele>1582</ele>
        <time>2019-08-15T03:33:38Z</time>
      </trkpt>
      <trkpt lat="46.14513" lon="6.77892">
        <ele>1582</ele>
        <time>2019-08-15T03:33:43Z</time>
      </trkpt>
      <trkpt lat="46.14506" lon="6.77894">
        <ele>1583</ele>
        <time>2019-08-15T03:33:53Z</time>
      </trkpt>
      <trkpt lat="46.14501" lon="6.77896">
        <ele>1584</ele>
        <time>2019-08-15T03:34:00Z</time>
      </trkpt>
      <trkpt lat="46.14497" lon="6.779">
        <ele>1584</ele>
        <time>2019-08-15T03:34:06Z</time>
      </trkpt>
      <trkpt lat="46.14488" lon="6.77906">
        <ele>1583</ele>
        <time>2019-08-15T03:34:19Z</time>
      </trkpt>
      <trkpt lat="46.14458" lon="6.7793">
        <ele>1580</ele>
        <time>2019-08-15T03:35:05Z</time>
      </trkpt>
      <trkpt lat="46.14455" lon="6.77933">
        <ele>1580</ele>
        <time>2019-08-15T03:35:10Z</time>
      </trkpt>
      <trkpt lat="46.14452" lon="6.7794">
        <ele>1580</ele>
        <time>2019-08-15T03:35:18Z</time>
      </trkpt>
      <trkpt lat="46.14449" lon="6.77946">
        <ele>1580</ele>
        <time>2019-08-15T03:35:25Z</time>
      </trkpt>
      <trkpt lat="46.14444" lon="6.77964">
        <ele>1582</ele>
        <time>2019-08-15T03:35:42Z</time>
      </trkpt>
      <trkpt lat="46.14442" lon="6.77971">
        <ele>1582</ele>
        <time>2019-08-15T03:35:49Z</time>
      </trkpt>
      <trkpt lat="46.14437" lon="6.77979">
        <ele>1582</ele>
        <time>2019-08-15T03:35:59Z</time>
      </trkpt>
      <trkpt lat="46.14433" lon="6.77986">
        <ele>1582</ele>
        <time>2019-08-15T03:36:08Z</time>
      </trkpt>
      <trkpt lat="46.14429" lon="6.7799">
        <ele>1581</ele>
        <time>2019-08-15T03:36:14Z</time>
      </trkpt>
      <trkpt lat="46.14427" lon="6.77991">
        <ele>1580</ele>
        <time>2019-08-15T03:36:17Z</time>
      </trkpt>
      <trkpt lat="46.14424" lon="6.77989">
        <ele>1579</ele>
        <time>2019-08-15T03:36:22Z</time>
      </trkpt>
      <trkpt lat="46.14423" lon="6.77986">
        <ele>1578</ele>
        <time>2019-08-15T03:36:25Z</time>
      </trkpt>
      <trkpt lat="46.14422" lon="6.77981">
        <ele>1577</ele>
        <time>2019-08-15T03:36:29Z</time>
      </trkpt>
      <trkpt lat="46.14423" lon="6.77975">
        <ele>1576</ele>
        <time>2019-08-15T03:36:35Z</time>
      </trkpt>
      <trkpt lat="46.14424" lon="6.77968">
        <ele>1576</ele>
        <time>2019-08-15T03:36:42Z</time>
      </trkpt>
      <trkpt lat="46.14431" lon="6.77937">
        <ele>1573</ele>
        <time>2019-08-15T03:37:12Z</time>
      </trkpt>
      <trkpt lat="46.14439" lon="6.77905">
        <ele>1569</ele>
        <time>2019-08-15T03:37:43Z</time>
      </trkpt>
      <trkpt lat="46.14442" lon="6.77895">
        <ele>1568</ele>
        <time>2019-08-15T03:37:53Z</time>
      </trkpt>
      <trkpt lat="46.14465" lon="6.77839">
        <ele>1559</ele>
        <time>2019-08-15T03:38:54Z</time>
      </trkpt>
      <trkpt lat="46.14467" lon="6.77832">
        <ele>1558</ele>
        <time>2019-08-15T03:39:01Z</time>
      </trkpt>
      <trkpt lat="46.14475" lon="6.77818">
        <ele>1555</ele>
        <time>2019-08-15T03:39:17Z</time>
      </trkpt>
      <trkpt lat="46.14481" lon="6.77809">
        <ele>1554</ele>
        <time>2019-08-15T03:39:29Z</time>
      </trkpt>
      <trkpt lat="46.14482" lon="6.77805">
        <ele>1553</ele>
        <time>2019-08-15T03:39:33Z</time>
      </trkpt>
      <trkpt lat="46.14482" lon="6.778">
        <ele>1551</ele>
        <time>2019-08-15T03:39:38Z</time>
      </trkpt>
      <trkpt lat="46.14482" lon="6.77797">
        <ele>1550</ele>
        <time>2019-08-15T03:39:40Z</time>
      </trkpt>
      <trkpt lat="46.14481" lon="6.77795">
        <ele>1550</ele>
        <time>2019-08-15T03:39:43Z</time>
      </trkpt>
      <trkpt lat="46.14477" lon="6.77792">
        <ele>1548</ele>
        <time>2019-08-15T03:39:49Z</time>
      </trkpt>
      <trkpt lat="46.14474" lon="6.77793">
        <ele>1548</ele>
        <time>2019-08-15T03:39:53Z</time>
      </trkpt>
      <trkpt lat="46.14439" lon="6.77838">
        <ele>1554</ele>
        <time>2019-08-15T03:40:55Z</time>
      </trkpt>
      <trkpt lat="46.14431" lon="6.77848">
        <ele>1555</ele>
        <time>2019-08-15T03:41:09Z</time>
      </trkpt>
      <trkpt lat="46.14421" lon="6.77859">
        <ele>1555</ele>
        <time>2019-08-15T03:41:26Z</time>
      </trkpt>
      <trkpt lat="46.14413" lon="6.77865">
        <ele>1554</ele>
        <time>2019-08-15T03:41:38Z</time>
      </trkpt>
      <trkpt lat="46.14408" lon="6.7787">
        <ele>1553</ele>
        <time>2019-08-15T03:41:46Z</time>
      </trkpt>
      <trkpt lat="46.14345" lon="6.77944">
        <ele>1545</ele>
        <time>2019-08-15T03:43:35Z</time>
      </trkpt>
      <trkpt lat="46.14341" lon="6.77949">
        <ele>1544</ele>
        <time>2019-08-15T03:43:42Z</time>
      </trkpt>
      <trkpt lat="46.14334" lon="6.77972">
        <ele>1545</ele>
        <time>2019-08-15T03:44:05Z</time>
      </trkpt>
      <trkpt lat="46.14331" lon="6.77976">
        <ele>1544</ele>
        <time>2019-08-15T03:44:10Z</time>
      </trkpt>
      <trkpt lat="46.14328" lon="6.77979">
        <ele>1543</ele>
        <time>2019-08-15T03:44:15Z</time>
      </trkpt>
      <trkpt lat="46.14325" lon="6.77981">
        <ele>1542</ele>
        <time>2019-08-15T03:44:20Z</time>
      </trkpt>
      <trkpt lat="46.14311" lon="6.77984">
        <ele>1536</ele>
        <time>2019-08-15T03:44:39Z</time>
      </trkpt>
      <trkpt lat="46.14308" lon="6.77986">
        <ele>1535</ele>
        <time>2019-08-15T03:44:43Z</time>
      </trkpt>
      <trkpt lat="46.14305" lon="6.77989">
        <ele>1534</ele>
        <time>2019-08-15T03:44:48Z</time>
      </trkpt>
      <trkpt lat="46.14281" lon="6.78029">
        <ele>1526</ele>
        <time>2019-08-15T03:45:37Z</time>
      </trkpt>
      <trkpt lat="46.14273" lon="6.78037">
        <ele>1523</ele>
        <time>2019-08-15T03:45:50Z</time>
      </trkpt>
      <trkpt lat="46.1427" lon="6.78043">
        <ele>1522</ele>
        <time>2019-08-15T03:45:57Z</time>
      </trkpt>
      <trkpt lat="46.14268" lon="6.78049">
        <ele>1522</ele>
        <time>2019-08-15T03:46:03Z</time>
      </trkpt>
      <trkpt lat="46.14264" lon="6.78066">
        <ele>1521</ele>
        <time>2019-08-15T03:46:19Z</time>
      </trkpt>
      <trkpt lat="46.14262" lon="6.78073">
        <ele>1521</ele>
        <time>2019-08-15T03:46:26Z</time>
      </trkpt>
      <trkpt lat="46.14258" lon="6.78081">
        <ele>1519</ele>
        <time>2019-08-15T03:46:35Z</time>
      </trkpt>
      <trkpt lat="46.1424" lon="6.7812">
        <ele>1516</ele>
        <time>2019-08-15T03:47:19Z</time>
      </trkpt>
      <trkpt lat="46.14234" lon="6.78135">
        <ele>1516</ele>
        <time>2019-08-15T03:47:35Z</time>
      </trkpt>
      <trkpt lat="46.14232" lon="6.78141">
        <ele>1516</ele>
        <time>2019-08-15T03:47:41Z</time>
      </trkpt>
      <trkpt lat="46.1423" lon="6.7815">
        <ele>1516</ele>
        <time>2019-08-15T03:47:50Z</time>
      </trkpt>
      <trkpt lat="46.14228" lon="6.7816">
        <ele>1517</ele>
        <time>2019-08-15T03:47:59Z</time>
      </trkpt>
      <trkpt lat="46.14226" lon="6.78182">
        <ele>1518</ele>
        <time>2019-08-15T03:48:20Z</time>
      </trkpt>
      <trkpt lat="46.14225" lon="6.78187">
        <ele>1518</ele>
        <time>2019-08-15T03:48:25Z</time>
      </trkpt>
      <trkpt lat="46.14222" lon="6.78188">
        <ele>1517</ele>
        <time>2019-08-15T03:48:29Z</time>
      </trkpt>
      <trkpt lat="46.1422" lon="6.78187">
        <ele>1517</ele>
        <time>2019-08-15T03:48:32Z</time>
      </trkpt>
      <trkpt lat="46.14217" lon="6.78183">
        <ele>1515</ele>
        <time>2019-08-15T03:48:37Z</time>
      </trkpt>
      <trkpt lat="46.14212" lon="6.78201">
        <ele>1516</ele>
        <time>2019-08-15T03:48:55Z</time>
      </trkpt>
      <trkpt lat="46.1421" lon="6.78217">
        <ele>1517</ele>
        <time>2019-08-15T03:49:10Z</time>
      </trkpt>
      <trkpt lat="46.14207" lon="6.78221">
        <ele>1516</ele>
        <time>2019-08-15T03:49:15Z</time>
      </trkpt>
      <trkpt lat="46.14204" lon="6.78223">
        <ele>1516</ele>
        <time>2019-08-15T03:49:20Z</time>
      </trkpt>
      <trkpt lat="46.14195" lon="6.78224">
        <ele>1513</ele>
        <time>2019-08-15T03:49:32Z</time>
      </trkpt>
      <trkpt lat="46.14191" lon="6.78223">
        <ele>1512</ele>
        <time>2019-08-15T03:49:37Z</time>
      </trkpt>
      <trkpt lat="46.14187" lon="6.7822">
        <ele>1510</ele>
        <time>2019-08-15T03:49:43Z</time>
      </trkpt>
      <trkpt lat="46.14174" lon="6.782">
        <ele>1503</ele>
        <time>2019-08-15T03:50:09Z</time>
      </trkpt>
      <trkpt lat="46.14169" lon="6.78196">
        <ele>1500</ele>
        <time>2019-08-15T03:50:16Z</time>
      </trkpt>
      <trkpt lat="46.14163" lon="6.78193">
        <ele>1499</ele>
        <time>2019-08-15T03:50:25Z</time>
      </trkpt>
      <trkpt lat="46.1416" lon="6.78193">
        <ele>1499</ele>
        <time>2019-08-15T03:50:29Z</time>
      </trkpt>
      <trkpt lat="46.14155" lon="6.78193">
        <ele>1499</ele>
        <time>2019-08-15T03:50:36Z</time>
      </trkpt>
      <trkpt lat="46.14129" lon="6.78199">
        <ele>1501</ele>
        <time>2019-08-15T03:51:11Z</time>
      </trkpt>
      <trkpt lat="46.14124" lon="6.78199">
        <ele>1501</ele>
        <time>2019-08-15T03:51:17Z</time>
      </trkpt>
      <trkpt lat="46.14119" lon="6.78199">
        <ele>1501</ele>
        <time>2019-08-15T03:51:24Z</time>
      </trkpt>
      <trkpt lat="46.14114" lon="6.78197">
        <ele>1500</ele>
        <time>2019-08-15T03:51:31Z</time>
      </trkpt>
      <trkpt lat="46.14109" lon="6.78194">
        <ele>1500</ele>
        <time>2019-08-15T03:51:38Z</time>
      </trkpt>
      <trkpt lat="46.14093" lon="6.78182">
        <ele>1496</ele>
        <time>2019-08-15T03:52:02Z</time>
      </trkpt>
      <trkpt lat="46.1409" lon="6.78178">
        <ele>1495</ele>
        <time>2019-08-15T03:52:08Z</time>
      </trkpt>
      <trkpt lat="46.14088" lon="6.78173">
        <ele>1494</ele>
        <time>2019-08-15T03:52:13Z</time>
      </trkpt>
      <trkpt lat="46.14087" lon="6.78168">
        <ele>1492</ele>
        <time>2019-08-15T03:52:18Z</time>
      </trkpt>
      <trkpt lat="46.14087" lon="6.78138">
        <ele>1488</ele>
        <time>2019-08-15T03:52:46Z</time>
      </trkpt>
      <trkpt lat="46.14085" lon="6.78131">
        <ele>1487</ele>
        <time>2019-08-15T03:52:53Z</time>
      </trkpt>
      <trkpt lat="46.14056" lon="6.7809">
        <ele>1478</ele>
        <time>2019-08-15T03:53:47Z</time>
      </trkpt>
      <trkpt lat="46.14052" lon="6.78084">
        <ele>1477</ele>
        <time>2019-08-15T03:53:54Z</time>
      </trkpt>
      <trkpt lat="46.14045" lon="6.78077">
        <ele>1475</ele>
        <time>2019-08-15T03:54:06Z</time>
      </trkpt>
      <trkpt lat="46.14037" lon="6.78072">
        <ele>1474</ele>
        <time>2019-08-15T03:54:17Z</time>
      </trkpt>
      <trkpt lat="46.14012" lon="6.7806">
        <ele>1469</ele>
        <time>2019-08-15T03:54:53Z</time>
      </trkpt>
      <trkpt lat="46.14008" lon="6.78057">
        <ele>1469</ele>
        <time>2019-08-15T03:54:59Z</time>
      </trkpt>
      <trkpt lat="46.14005" lon="6.78053">
        <ele>1468</ele>
        <time>2019-08-15T03:55:04Z</time>
      </trkpt>
      <trkpt lat="46.13997" lon="6.78038">
        <ele>1465</ele>
        <time>2019-08-15T03:55:22Z</time>
      </trkpt>
      <trkpt lat="46.13994" lon="6.78031">
        <ele>1464</ele>
        <time>2019-08-15T03:55:29Z</time>
      </trkpt>
      <trkpt lat="46.13988" lon="6.78013">
        <ele>1461</ele>
        <time>2019-08-15T03:55:48Z</time>
      </trkpt>
      <trkpt lat="46.13978" lon="6.77989">
        <ele>1458</ele>
        <time>2019-08-15T03:56:14Z</time>
      </trkpt>
      <trkpt lat="46.13966" lon="6.77937">
        <ele>1454</ele>
        <time>2019-08-15T03:57:04Z</time>
      </trkpt>
      <trkpt lat="46.13954" lon="6.77886">
        <ele>1448</ele>
        <time>2019-08-15T03:57:54Z</time>
      </trkpt>
      <trkpt lat="46.13927" lon="6.77843">
        <ele>1438</ele>
        <time>2019-08-15T03:58:48Z</time>
      </trkpt>
      <trkpt lat="46.13901" lon="6.77801">
        <ele>1434</ele>
        <time>2019-08-15T03:59:40Z</time>
      </trkpt>
      <trkpt lat="46.13843" lon="6.7772">
        <ele>1424</ele>
        <time>2019-08-15T04:01:27Z</time>
      </trkpt>
      <trkpt lat="46.13814" lon="6.7768">
        <ele>1418</ele>
        <time>2019-08-15T04:02:21Z</time>
      </trkpt>
      <trkpt lat="46.1379" lon="6.77675">
        <ele>1418</ele>
        <time>2019-08-15T04:02:53Z</time>
      </trkpt>
      <trkpt lat="46.13767" lon="6.77671">
        <ele>1418</ele>
        <time>2019-08-15T04:03:24Z</time>
      </trkpt>
      <trkpt lat="46.13709" lon="6.77668">
        <ele>1434</ele>
        <time>2019-08-15T04:04:42Z</time>
      </trkpt>
      <trkpt lat="46.13678" lon="6.77627">
        <ele>1437</ele>
        <time>2019-08-15T04:05:38Z</time>
      </trkpt>
      <trkpt lat="46.1367" lon="6.77576">
        <ele>1431</ele>
        <time>2019-08-15T04:06:26Z</time>
      </trkpt>
      <trkpt lat="46.13663" lon="6.77525">
        <ele>1434</ele>
        <time>2019-08-15T04:07:14Z</time>
      </trkpt>
      <trkpt lat="46.13667" lon="6.77476">
        <ele>1431</ele>
        <time>2019-08-15T04:08:00Z</time>
      </trkpt>
      <trkpt lat="46.13672" lon="6.77427">
        <ele>1432</ele>
        <time>2019-08-15T04:08:46Z</time>
      </trkpt>
      <trkpt lat="46.13666" lon="6.77394">
        <ele>1433</ele>
        <time>2019-08-15T04:09:17Z</time>
      </trkpt>
      <trkpt lat="46.1366" lon="6.77362">
        <ele>1433</ele>
        <time>2019-08-15T04:09:48Z</time>
      </trkpt>
      <trkpt lat="46.13643" lon="6.77328">
        <ele>1438</ele>
        <time>2019-08-15T04:10:27Z</time>
      </trkpt>
      <trkpt lat="46.13627" lon="6.77293">
        <ele>1443</ele>
        <time>2019-08-15T04:11:05Z</time>
      </trkpt>
      <trkpt lat="46.13625" lon="6.77245">
        <ele>1441</ele>
        <time>2019-08-15T04:11:50Z</time>
      </trkpt>
      <trkpt lat="46.13623" lon="6.77196">
        <ele>1449</ele>
        <time>2019-08-15T04:12:35Z</time>
      </trkpt>
      <trkpt lat="46.13641" lon="6.77153">
        <ele>1450</ele>
        <time>2019-08-15T04:13:22Z</time>
      </trkpt>
      <trkpt lat="46.13646" lon="6.77123">
        <ele>1456</ele>
        <time>2019-08-15T04:13:50Z</time>
      </trkpt>
      <trkpt lat="46.13654" lon="6.77079">
        <ele>1463</ele>
        <time>2019-08-15T04:14:32Z</time>
      </trkpt>
      <trkpt lat="46.13665" lon="6.77039">
        <ele>1467</ele>
        <time>2019-08-15T04:15:12Z</time>
      </trkpt>
      <trkpt lat="46.13674" lon="6.7699">
        <ele>1473</ele>
        <time>2019-08-15T04:15:59Z</time>
      </trkpt>
      <trkpt lat="46.13683" lon="6.76942">
        <ele>1474</ele>
        <time>2019-08-15T04:16:45Z</time>
      </trkpt>
      <trkpt lat="46.13659" lon="6.76914">
        <ele>1484</ele>
        <time>2019-08-15T04:17:26Z</time>
      </trkpt>
      <trkpt lat="46.13635" lon="6.76887">
        <ele>1488</ele>
        <time>2019-08-15T04:18:07Z</time>
      </trkpt>
      <trkpt lat="46.13632" lon="6.7685">
        <ele>1485</ele>
        <time>2019-08-15T04:18:41Z</time>
      </trkpt>
      <trkpt lat="46.13631" lon="6.76841">
        <ele>1485</ele>
        <time>2019-08-15T04:18:50Z</time>
      </trkpt>
      <trkpt lat="46.13624" lon="6.7682">
        <ele>1486</ele>
        <time>2019-08-15T04:19:11Z</time>
      </trkpt>
      <trkpt lat="46.13621" lon="6.76812">
        <ele>1488</ele>
        <time>2019-08-15T04:19:20Z</time>
      </trkpt>
      <trkpt lat="46.13617" lon="6.76805">
        <ele>1489</ele>
        <time>2019-08-15T04:19:28Z</time>
      </trkpt>
      <trkpt lat="46.13614" lon="6.76801">
        <ele>1489</ele>
        <time>2019-08-15T04:19:33Z</time>
      </trkpt>
      <trkpt lat="46.13608" lon="6.76797">
        <ele>1490</ele>
        <time>2019-08-15T04:19:42Z</time>
      </trkpt>
      <trkpt lat="46.13603" lon="6.76792">
        <ele>1491</ele>
        <time>2019-08-15T04:19:50Z</time>
      </trkpt>
      <trkpt lat="46.13599" lon="6.76787">
        <ele>1492</ele>
        <time>2019-08-15T04:19:57Z</time>
      </trkpt>
      <trkpt lat="46.13593" lon="6.76776">
        <ele>1493</ele>
        <time>2019-08-15T04:20:10Z</time>
      </trkpt>
      <trkpt lat="46.13592" lon="6.76772">
        <ele>1493</ele>
        <time>2019-08-15T04:20:14Z</time>
      </trkpt>
      <trkpt lat="46.13596" lon="6.76768">
        <ele>1494</ele>
        <time>2019-08-15T04:20:21Z</time>
      </trkpt>
      <trkpt lat="46.13601" lon="6.76762">
        <ele>1494</ele>
        <time>2019-08-15T04:20:29Z</time>
      </trkpt>
      <trkpt lat="46.13605" lon="6.76755">
        <ele>1495</ele>
        <time>2019-08-15T04:20:38Z</time>
      </trkpt>
      <trkpt lat="46.13614" lon="6.76741">
        <ele>1498</ele>
        <time>2019-08-15T04:20:56Z</time>
      </trkpt>
      <trkpt lat="46.13633" lon="6.76724">
        <ele>1502</ele>
        <time>2019-08-15T04:21:25Z</time>
      </trkpt>
      <trkpt lat="46.13652" lon="6.76707">
        <ele>1506</ele>
        <time>2019-08-15T04:21:55Z</time>
      </trkpt>
      <trkpt lat="46.13667" lon="6.76705">
        <ele>1505</ele>
        <time>2019-08-15T04:22:15Z</time>
      </trkpt>
      <trkpt lat="46.13683" lon="6.76706">
        <ele>1501</ele>
        <time>2019-08-15T04:22:37Z</time>
      </trkpt>
      <trkpt lat="46.1371" lon="6.76701">
        <ele>1494</ele>
        <time>2019-08-15T04:23:13Z</time>
      </trkpt>
      <trkpt lat="46.13695" lon="6.76663">
        <ele>1502</ele>
        <time>2019-08-15T04:23:53Z</time>
      </trkpt>
      <trkpt lat="46.13669" lon="6.76652">
        <ele>1512</ele>
        <time>2019-08-15T04:24:30Z</time>
      </trkpt>
      <trkpt lat="46.13642" lon="6.76641">
        <ele>1516</ele>
        <time>2019-08-15T04:25:07Z</time>
      </trkpt>
      <trkpt lat="46.13621" lon="6.76625">
        <ele>1520</ele>
        <time>2019-08-15T04:25:39Z</time>
      </trkpt>
      <trkpt lat="46.136" lon="6.76608">
        <ele>1525</ele>
        <time>2019-08-15T04:26:11Z</time>
      </trkpt>
      <trkpt lat="46.13598" lon="6.76614">
        <ele>1525</ele>
        <time>2019-08-15T04:26:17Z</time>
      </trkpt>
      <trkpt lat="46.13577" lon="6.76649">
        <ele>1524</ele>
        <time>2019-08-15T04:27:00Z</time>
      </trkpt>
      <trkpt lat="46.13574" lon="6.76654">
        <ele>1524</ele>
        <time>2019-08-15T04:27:06Z</time>
      </trkpt>
      <trkpt lat="46.13571" lon="6.76657">
        <ele>1524</ele>
        <time>2019-08-15T04:27:11Z</time>
      </trkpt>
      <trkpt lat="46.13567" lon="6.76656">
        <ele>1524</ele>
        <time>2019-08-15T04:27:16Z</time>
      </trkpt>
      <trkpt lat="46.13552" lon="6.76648">
        <ele>1526</ele>
        <time>2019-08-15T04:27:38Z</time>
      </trkpt>
      <trkpt lat="46.13548" lon="6.76644">
        <ele>1526</ele>
        <time>2019-08-15T04:27:44Z</time>
      </trkpt>
      <trkpt lat="46.13537" lon="6.76627">
        <ele>1529</ele>
        <time>2019-08-15T04:28:06Z</time>
      </trkpt>
      <trkpt lat="46.13534" lon="6.76621">
        <ele>1530</ele>
        <time>2019-08-15T04:28:12Z</time>
      </trkpt>
      <trkpt lat="46.13532" lon="6.76615">
        <ele>1531</ele>
        <time>2019-08-15T04:28:19Z</time>
      </trkpt>
      <trkpt lat="46.13526" lon="6.76588">
        <ele>1535</ele>
        <time>2019-08-15T04:28:45Z</time>
      </trkpt>
      <trkpt lat="46.13524" lon="6.76579">
        <ele>1536</ele>
        <time>2019-08-15T04:28:54Z</time>
      </trkpt>
      <trkpt lat="46.1351" lon="6.76544">
        <ele>1540</ele>
        <time>2019-08-15T04:29:31Z</time>
      </trkpt>
      <trkpt lat="46.13506" lon="6.76538">
        <ele>1541</ele>
        <time>2019-08-15T04:29:39Z</time>
      </trkpt>
      <trkpt lat="46.13502" lon="6.76533">
        <ele>1542</ele>
        <time>2019-08-15T04:29:46Z</time>
      </trkpt>
      <trkpt lat="46.13499" lon="6.76529">
        <ele>1542</ele>
        <time>2019-08-15T04:29:51Z</time>
      </trkpt>
      <trkpt lat="46.13471" lon="6.76506">
        <ele>1550</ele>
        <time>2019-08-15T04:30:34Z</time>
      </trkpt>
      <trkpt lat="46.13456" lon="6.7649">
        <ele>1554</ele>
        <time>2019-08-15T04:30:59Z</time>
      </trkpt>
      <trkpt lat="46.13452" lon="6.76488">
        <ele>1555</ele>
        <time>2019-08-15T04:31:05Z</time>
      </trkpt>
      <trkpt lat="46.13447" lon="6.76486">
        <ele>1556</ele>
        <time>2019-08-15T04:31:12Z</time>
      </trkpt>
      <trkpt lat="46.13442" lon="6.76486">
        <ele>1557</ele>
        <time>2019-08-15T04:31:18Z</time>
      </trkpt>
      <trkpt lat="46.13437" lon="6.76485">
        <ele>1558</ele>
        <time>2019-08-15T04:31:25Z</time>
      </trkpt>
      <trkpt lat="46.13432" lon="6.76482">
        <ele>1559</ele>
        <time>2019-08-15T04:31:32Z</time>
      </trkpt>
      <trkpt lat="46.13427" lon="6.76478">
        <ele>1560</ele>
        <time>2019-08-15T04:31:40Z</time>
      </trkpt>
      <trkpt lat="46.13423" lon="6.76473">
        <ele>1561</ele>
        <time>2019-08-15T04:31:47Z</time>
      </trkpt>
      <trkpt lat="46.13419" lon="6.76466">
        <ele>1562</ele>
        <time>2019-08-15T04:31:55Z</time>
      </trkpt>
      <trkpt lat="46.13414" lon="6.7646">
        <ele>1563</ele>
        <time>2019-08-15T04:32:04Z</time>
      </trkpt>
      <trkpt lat="46.13398" lon="6.76432">
        <ele>1567</ele>
        <time>2019-08-15T04:32:38Z</time>
      </trkpt>
      <trkpt lat="46.13396" lon="6.7643">
        <ele>1567</ele>
        <time>2019-08-15T04:32:41Z</time>
      </trkpt>
      <trkpt lat="46.13388" lon="6.76429">
        <ele>1568</ele>
        <time>2019-08-15T04:32:51Z</time>
      </trkpt>
      <trkpt lat="46.13384" lon="6.76429">
        <ele>1569</ele>
        <time>2019-08-15T04:32:57Z</time>
      </trkpt>
      <trkpt lat="46.1338" lon="6.76431">
        <ele>1570</ele>
        <time>2019-08-15T04:33:02Z</time>
      </trkpt>
      <trkpt lat="46.13375" lon="6.76436">
        <ele>1570</ele>
        <time>2019-08-15T04:33:11Z</time>
      </trkpt>
      <trkpt lat="46.1337" lon="6.76439">
        <ele>1571</ele>
        <time>2019-08-15T04:33:18Z</time>
      </trkpt>
      <trkpt lat="46.13364" lon="6.7644">
        <ele>1573</ele>
        <time>2019-08-15T04:33:26Z</time>
      </trkpt>
      <trkpt lat="46.13359" lon="6.76441">
        <ele>1573</ele>
        <time>2019-08-15T04:33:33Z</time>
      </trkpt>
      <trkpt lat="46.13353" lon="6.7644">
        <ele>1574</ele>
        <time>2019-08-15T04:33:41Z</time>
      </trkpt>
      <trkpt lat="46.13342" lon="6.76437">
        <ele>1576</ele>
        <time>2019-08-15T04:33:56Z</time>
      </trkpt>
      <trkpt lat="46.13332" lon="6.76438">
        <ele>1578</ele>
        <time>2019-08-15T04:34:09Z</time>
      </trkpt>
      <trkpt lat="46.13325" lon="6.76438">
        <ele>1580</ele>
        <time>2019-08-15T04:34:18Z</time>
      </trkpt>
      <trkpt lat="46.13314" lon="6.76436">
        <ele>1582</ele>
        <time>2019-08-15T04:34:33Z</time>
      </trkpt>
      <trkpt lat="46.13308" lon="6.76435">
        <ele>1583</ele>
        <time>2019-08-15T04:34:41Z</time>
      </trkpt>
      <trkpt lat="46.13296" lon="6.7643">
        <ele>1585</ele>
        <time>2019-08-15T04:34:58Z</time>
      </trkpt>
      <trkpt lat="46.13292" lon="6.76429">
        <ele>1585</ele>
        <time>2019-08-15T04:35:03Z</time>
      </trkpt>
      <trkpt lat="46.13277" lon="6.7643">
        <ele>1588</ele>
        <time>2019-08-15T04:35:23Z</time>
      </trkpt>
      <trkpt lat="46.13272" lon="6.76431">
        <ele>1590</ele>
        <time>2019-08-15T04:35:30Z</time>
      </trkpt>
      <trkpt lat="46.13248" lon="6.76422">
        <ele>1593</ele>
        <time>2019-08-15T04:36:03Z</time>
      </trkpt>
      <trkpt lat="46.13243" lon="6.7642">
        <ele>1594</ele>
        <time>2019-08-15T04:36:10Z</time>
      </trkpt>
      <trkpt lat="46.13234" lon="6.76423">
        <ele>1596</ele>
        <time>2019-08-15T04:36:22Z</time>
      </trkpt>
      <trkpt lat="46.1323" lon="6.76425">
        <ele>1598</ele>
        <time>2019-08-15T04:36:28Z</time>
      </trkpt>
      <trkpt lat="46.13215" lon="6.76443">
        <ele>1605</ele>
        <time>2019-08-15T04:36:54Z</time>
      </trkpt>
      <trkpt lat="46.13212" lon="6.76444">
        <ele>1605</ele>
        <time>2019-08-15T04:36:58Z</time>
      </trkpt>
      <trkpt lat="46.13208" lon="6.76443">
        <ele>1606</ele>
        <time>2019-08-15T04:37:04Z</time>
      </trkpt>
      <trkpt lat="46.13204" lon="6.7644">
        <ele>1607</ele>
        <time>2019-08-15T04:37:10Z</time>
      </trkpt>
      <trkpt lat="46.13201" lon="6.76436">
        <ele>1607</ele>
        <time>2019-08-15T04:37:15Z</time>
      </trkpt>
      <trkpt lat="46.13187" lon="6.76405">
        <ele>1608</ele>
        <time>2019-08-15T04:37:49Z</time>
      </trkpt>
      <trkpt lat="46.13182" lon="6.76399">
        <ele>1609</ele>
        <time>2019-08-15T04:37:58Z</time>
      </trkpt>
      <trkpt lat="46.13177" lon="6.76395">
        <ele>1610</ele>
        <time>2019-08-15T04:38:06Z</time>
      </trkpt>
      <trkpt lat="46.13171" lon="6.76392">
        <ele>1612</ele>
        <time>2019-08-15T04:38:14Z</time>
      </trkpt>
      <trkpt lat="46.13166" lon="6.7639">
        <ele>1613</ele>
        <time>2019-08-15T04:38:21Z</time>
      </trkpt>
      <trkpt lat="46.13161" lon="6.76389">
        <ele>1615</ele>
        <time>2019-08-15T04:38:28Z</time>
      </trkpt>
      <trkpt lat="46.13157" lon="6.76388">
        <ele>1616</ele>
        <time>2019-08-15T04:38:33Z</time>
      </trkpt>
      <trkpt lat="46.13148" lon="6.76388">
        <ele>1620</ele>
        <time>2019-08-15T04:38:45Z</time>
      </trkpt>
      <trkpt lat="46.13145" lon="6.76387">
        <ele>1621</ele>
        <time>2019-08-15T04:38:49Z</time>
      </trkpt>
      <trkpt lat="46.13143" lon="6.76385">
        <ele>1622</ele>
        <time>2019-08-15T04:38:53Z</time>
      </trkpt>
      <trkpt lat="46.13145" lon="6.76376">
        <ele>1621</ele>
        <time>2019-08-15T04:39:01Z</time>
      </trkpt>
      <trkpt lat="46.13148" lon="6.76362">
        <ele>1620</ele>
        <time>2019-08-15T04:39:15Z</time>
      </trkpt>
      <trkpt lat="46.13149" lon="6.76352">
        <ele>1620</ele>
        <time>2019-08-15T04:39:24Z</time>
      </trkpt>
      <trkpt lat="46.13149" lon="6.76344">
        <ele>1620</ele>
        <time>2019-08-15T04:39:32Z</time>
      </trkpt>
      <trkpt lat="46.13145" lon="6.76295">
        <ele>1625</ele>
        <time>2019-08-15T04:40:17Z</time>
      </trkpt>
      <trkpt lat="46.13142" lon="6.76255">
        <ele>1630</ele>
        <time>2019-08-15T04:40:54Z</time>
      </trkpt>
      <trkpt lat="46.13142" lon="6.76248">
        <ele>1630</ele>
        <time>2019-08-15T04:41:01Z</time>
      </trkpt>
      <trkpt lat="46.13142" lon="6.76241">
        <ele>1632</ele>
        <time>2019-08-15T04:41:07Z</time>
      </trkpt>
      <trkpt lat="46.13146" lon="6.76228">
        <ele>1632</ele>
        <time>2019-08-15T04:41:20Z</time>
      </trkpt>
      <trkpt lat="46.13149" lon="6.7622">
        <ele>1633</ele>
        <time>2019-08-15T04:41:29Z</time>
      </trkpt>
      <trkpt lat="46.13152" lon="6.76216">
        <ele>1632</ele>
        <time>2019-08-15T04:41:34Z</time>
      </trkpt>
      <trkpt lat="46.13155" lon="6.76211">
        <ele>1632</ele>
        <time>2019-08-15T04:41:40Z</time>
      </trkpt>
      <trkpt lat="46.13163" lon="6.76203">
        <ele>1631</ele>
        <time>2019-08-15T04:41:53Z</time>
      </trkpt>
      <trkpt lat="46.13166" lon="6.76199">
        <ele>1631</ele>
        <time>2019-08-15T04:41:59Z</time>
      </trkpt>
      <trkpt lat="46.13168" lon="6.76194">
        <ele>1632</ele>
        <time>2019-08-15T04:42:04Z</time>
      </trkpt>
      <trkpt lat="46.1317" lon="6.76184">
        <ele>1634</ele>
        <time>2019-08-15T04:42:14Z</time>
      </trkpt>
      <trkpt lat="46.1317" lon="6.76178">
        <ele>1635</ele>
        <time>2019-08-15T04:42:19Z</time>
      </trkpt>
      <trkpt lat="46.13169" lon="6.76171">
        <ele>1637</ele>
        <time>2019-08-15T04:42:26Z</time>
      </trkpt>
      <trkpt lat="46.13165" lon="6.76157">
        <ele>1641</ele>
        <time>2019-08-15T04:42:40Z</time>
      </trkpt>
      <trkpt lat="46.13146" lon="6.76113">
        <ele>1658</ele>
        <time>2019-08-15T04:43:28Z</time>
      </trkpt>
      <trkpt lat="46.13143" lon="6.76108">
        <ele>1659</ele>
        <time>2019-08-15T04:43:34Z</time>
      </trkpt>
      <trkpt lat="46.1314" lon="6.76104">
        <ele>1661</ele>
        <time>2019-08-15T04:43:40Z</time>
      </trkpt>
      <trkpt lat="46.13136" lon="6.761">
        <ele>1662</ele>
        <time>2019-08-15T04:43:46Z</time>
      </trkpt>
      <trkpt lat="46.13132" lon="6.76097">
        <ele>1663</ele>
        <time>2019-08-15T04:43:52Z</time>
      </trkpt>
      <trkpt lat="46.13126" lon="6.76095">
        <ele>1664</ele>
        <time>2019-08-15T04:44:00Z</time>
      </trkpt>
      <trkpt lat="46.13121" lon="6.76093">
        <ele>1665</ele>
        <time>2019-08-15T04:44:07Z</time>
      </trkpt>
      <trkpt lat="46.13071" lon="6.7609">
        <ele>1668</ele>
        <time>2019-08-15T04:45:14Z</time>
      </trkpt>
      <trkpt lat="46.13065" lon="6.76089">
        <ele>1668</ele>
        <time>2019-08-15T04:45:22Z</time>
      </trkpt>
      <trkpt lat="46.13059" lon="6.7609">
        <ele>1667</ele>
        <time>2019-08-15T04:45:30Z</time>
      </trkpt>
      <trkpt lat="46.13045" lon="6.76093">
        <ele>1665</ele>
        <time>2019-08-15T04:45:49Z</time>
      </trkpt>
      <trkpt lat="46.13031" lon="6.76099">
        <ele>1663</ele>
        <time>2019-08-15T04:46:08Z</time>
      </trkpt>
      <trkpt lat="46.13026" lon="6.76101">
        <ele>1662</ele>
        <time>2019-08-15T04:46:15Z</time>
      </trkpt>
      <trkpt lat="46.13016" lon="6.76104">
        <ele>1661</ele>
        <time>2019-08-15T04:46:29Z</time>
      </trkpt>
      <trkpt lat="46.13011" lon="6.76104">
        <ele>1660</ele>
        <time>2019-08-15T04:46:36Z</time>
      </trkpt>
      <trkpt lat="46.13005" lon="6.76103">
        <ele>1660</ele>
        <time>2019-08-15T04:46:44Z</time>
      </trkpt>
      <trkpt lat="46.12974" lon="6.76096">
        <ele>1657</ele>
        <time>2019-08-15T04:47:26Z</time>
      </trkpt>
      <trkpt lat="46.12966" lon="6.76093">
        <ele>1656</ele>
        <time>2019-08-15T04:47:37Z</time>
      </trkpt>
      <trkpt lat="46.12954" lon="6.76089">
        <ele>1655</ele>
        <time>2019-08-15T04:47:53Z</time>
      </trkpt>
      <trkpt lat="46.12948" lon="6.76086">
        <ele>1655</ele>
        <time>2019-08-15T04:48:02Z</time>
      </trkpt>
      <trkpt lat="46.12942" lon="6.76083">
        <ele>1654</ele>
        <time>2019-08-15T04:48:10Z</time>
      </trkpt>
      <trkpt lat="46.12927" lon="6.76073">
        <ele>1654</ele>
        <time>2019-08-15T04:48:32Z</time>
      </trkpt>
      <trkpt lat="46.12925" lon="6.76071">
        <ele>1653</ele>
        <time>2019-08-15T04:48:35Z</time>
      </trkpt>
      <trkpt lat="46.12952" lon="6.76115">
        <ele>1652</ele>
        <time>2019-08-15T04:49:30Z</time>
      </trkpt>
      <trkpt lat="46.12957" lon="6.76123">
        <ele>1651</ele>
        <time>2019-08-15T04:49:40Z</time>
      </trkpt>
      <trkpt lat="46.12962" lon="6.76127">
        <ele>1651</ele>
        <time>2019-08-15T04:49:47Z</time>
      </trkpt>
      <trkpt lat="46.12965" lon="6.76131">
        <ele>1651</ele>
        <time>2019-08-15T04:49:53Z</time>
      </trkpt>
      <trkpt lat="46.12976" lon="6.76142">
        <ele>1651</ele>
        <time>2019-08-15T04:50:11Z</time>
      </trkpt>
      <trkpt lat="46.12982" lon="6.76151">
        <ele>1650</ele>
        <time>2019-08-15T04:50:22Z</time>
      </trkpt>
      <trkpt lat="46.12984" lon="6.76158">
        <ele>1650</ele>
        <time>2019-08-15T04:50:29Z</time>
      </trkpt>
      <trkpt lat="46.12984" lon="6.76163">
        <ele>1649</ele>
        <time>2019-08-15T04:50:34Z</time>
      </trkpt>
      <trkpt lat="46.12983" lon="6.76168">
        <ele>1648</ele>
        <time>2019-08-15T04:50:39Z</time>
      </trkpt>
      <trkpt lat="46.12981" lon="6.76175">
        <ele>1648</ele>
        <time>2019-08-15T04:50:46Z</time>
      </trkpt>
      <trkpt lat="46.1298" lon="6.76185">
        <ele>1648</ele>
        <time>2019-08-15T04:50:55Z</time>
      </trkpt>
      <trkpt lat="46.1298" lon="6.76191">
        <ele>1648</ele>
        <time>2019-08-15T04:51:00Z</time>
      </trkpt>
      <trkpt lat="46.12982" lon="6.76197">
        <ele>1649</ele>
        <time>2019-08-15T04:51:07Z</time>
      </trkpt>
      <trkpt lat="46.12983" lon="6.76202">
        <ele>1649</ele>
        <time>2019-08-15T04:51:11Z</time>
      </trkpt>
      <trkpt lat="46.12991" lon="6.76224">
        <ele>1649</ele>
        <time>2019-08-15T04:51:34Z</time>
      </trkpt>
      <trkpt lat="46.12993" lon="6.76229">
        <ele>1650</ele>
        <time>2019-08-15T04:51:40Z</time>
      </trkpt>
      <trkpt lat="46.12995" lon="6.76241">
        <ele>1650</ele>
        <time>2019-08-15T04:51:51Z</time>
      </trkpt>
      <trkpt lat="46.12996" lon="6.76248">
        <ele>1650</ele>
        <time>2019-08-15T04:51:58Z</time>
      </trkpt>
      <trkpt lat="46.12995" lon="6.76254">
        <ele>1650</ele>
        <time>2019-08-15T04:52:04Z</time>
      </trkpt>
      <trkpt lat="46.12995" lon="6.76267">
        <ele>1651</ele>
        <time>2019-08-15T04:52:16Z</time>
      </trkpt>
      <trkpt lat="46.12994" lon="6.76273">
        <ele>1652</ele>
        <time>2019-08-15T04:52:21Z</time>
      </trkpt>
      <trkpt lat="46.12996" lon="6.76283">
        <ele>1653</ele>
        <time>2019-08-15T04:52:31Z</time>
      </trkpt>
      <trkpt lat="46.12997" lon="6.76286">
        <ele>1653</ele>
        <time>2019-08-15T04:52:34Z</time>
      </trkpt>
      <trkpt lat="46.12995" lon="6.76279">
        <ele>1652</ele>
        <time>2019-08-15T04:52:41Z</time>
      </trkpt>
      <trkpt lat="46.12994" lon="6.76273">
        <ele>1652</ele>
        <time>2019-08-15T04:52:47Z</time>
      </trkpt>
      <trkpt lat="46.12995" lon="6.76267">
        <ele>1651</ele>
        <time>2019-08-15T04:52:52Z</time>
      </trkpt>
      <trkpt lat="46.12995" lon="6.76254">
        <ele>1650</ele>
        <time>2019-08-15T04:53:04Z</time>
      </trkpt>
      <trkpt lat="46.12996" lon="6.76248">
        <ele>1650</ele>
        <time>2019-08-15T04:53:10Z</time>
      </trkpt>
      <trkpt lat="46.12994" lon="6.76235">
        <ele>1650</ele>
        <time>2019-08-15T04:53:22Z</time>
      </trkpt>
      <trkpt lat="46.12993" lon="6.76229">
        <ele>1650</ele>
        <time>2019-08-15T04:53:28Z</time>
      </trkpt>
      <trkpt lat="46.12991" lon="6.76224">
        <ele>1649</ele>
        <time>2019-08-15T04:53:33Z</time>
      </trkpt>
      <trkpt lat="46.12985" lon="6.76208">
        <ele>1649</ele>
        <time>2019-08-15T04:53:50Z</time>
      </trkpt>
      <trkpt lat="46.12982" lon="6.76197">
        <ele>1649</ele>
        <time>2019-08-15T04:54:01Z</time>
      </trkpt>
      <trkpt lat="46.1298" lon="6.76191">
        <ele>1648</ele>
        <time>2019-08-15T04:54:07Z</time>
      </trkpt>
      <trkpt lat="46.1298" lon="6.76185">
        <ele>1648</ele>
        <time>2019-08-15T04:54:13Z</time>
      </trkpt>
      <trkpt lat="46.12981" lon="6.7618">
        <ele>1648</ele>
        <time>2019-08-15T04:54:18Z</time>
      </trkpt>
      <trkpt lat="46.12981" lon="6.76175">
        <ele>1648</ele>
        <time>2019-08-15T04:54:22Z</time>
      </trkpt>
      <trkpt lat="46.12983" lon="6.76168">
        <ele>1648</ele>
        <time>2019-08-15T04:54:29Z</time>
      </trkpt>
      <trkpt lat="46.12984" lon="6.76163">
        <ele>1649</ele>
        <time>2019-08-15T04:54:34Z</time>
      </trkpt>
      <trkpt lat="46.12984" lon="6.76158">
        <ele>1650</ele>
        <time>2019-08-15T04:54:39Z</time>
      </trkpt>
      <trkpt lat="46.12983" lon="6.76155">
        <ele>1650</ele>
        <time>2019-08-15T04:54:42Z</time>
      </trkpt>
      <trkpt lat="46.12982" lon="6.76151">
        <ele>1650</ele>
        <time>2019-08-15T04:54:46Z</time>
      </trkpt>
      <trkpt lat="46.12976" lon="6.76142">
        <ele>1651</ele>
        <time>2019-08-15T04:54:57Z</time>
      </trkpt>
      <trkpt lat="46.12967" lon="6.76133">
        <ele>1651</ele>
        <time>2019-08-15T04:55:12Z</time>
      </trkpt>
      <trkpt lat="46.12965" lon="6.76131">
        <ele>1651</ele>
        <time>2019-08-15T04:55:15Z</time>
      </trkpt>
      <trkpt lat="46.12962" lon="6.76127">
        <ele>1651</ele>
        <time>2019-08-15T04:55:21Z</time>
      </trkpt>
      <trkpt lat="46.12957" lon="6.76123">
        <ele>1651</ele>
        <time>2019-08-15T04:55:28Z</time>
      </trkpt>
      <trkpt lat="46.12929" lon="6.76077">
        <ele>1653</ele>
        <time>2019-08-15T04:56:25Z</time>
      </trkpt>
      <trkpt lat="46.12925" lon="6.76071">
        <ele>1653</ele>
        <time>2019-08-15T04:56:33Z</time>
      </trkpt>
      <trkpt lat="46.12913" lon="6.7606">
        <ele>1652</ele>
        <time>2019-08-15T04:56:52Z</time>
      </trkpt>
      <trkpt lat="46.12908" lon="6.76055">
        <ele>1651</ele>
        <time>2019-08-15T04:57:00Z</time>
      </trkpt>
      <trkpt lat="46.12895" lon="6.7604">
        <ele>1648</ele>
        <time>2019-08-15T04:57:22Z</time>
      </trkpt>
      <trkpt lat="46.1289" lon="6.76034">
        <ele>1647</ele>
        <time>2019-08-15T04:57:31Z</time>
      </trkpt>
      <trkpt lat="46.12886" lon="6.76029">
        <ele>1646</ele>
        <time>2019-08-15T04:57:38Z</time>
      </trkpt>
      <trkpt lat="46.1288" lon="6.76017">
        <ele>1646</ele>
        <time>2019-08-15T04:57:51Z</time>
      </trkpt>
      <trkpt lat="46.12877" lon="6.76012">
        <ele>1645</ele>
        <time>2019-08-15T04:57:57Z</time>
      </trkpt>
      <trkpt lat="46.12871" lon="6.76004">
        <ele>1644</ele>
        <time>2019-08-15T04:58:08Z</time>
      </trkpt>
      <trkpt lat="46.12867" lon="6.76">
        <ele>1643</ele>
        <time>2019-08-15T04:58:15Z</time>
      </trkpt>
      <trkpt lat="46.12863" lon="6.75995">
        <ele>1642</ele>
        <time>2019-08-15T04:58:22Z</time>
      </trkpt>
      <trkpt lat="46.12848" lon="6.75982">
        <ele>1640</ele>
        <time>2019-08-15T04:58:45Z</time>
      </trkpt>
      <trkpt lat="46.12843" lon="6.75977">
        <ele>1639</ele>
        <time>2019-08-15T04:58:53Z</time>
      </trkpt>
      <trkpt lat="46.12833" lon="6.75971">
        <ele>1637</ele>
        <time>2019-08-15T04:59:08Z</time>
      </trkpt>
      <trkpt lat="46.12802" lon="6.75954">
        <ele>1629</ele>
        <time>2019-08-15T04:59:52Z</time>
      </trkpt>
      <trkpt lat="46.12798" lon="6.7595">
        <ele>1628</ele>
        <time>2019-08-15T04:59:59Z</time>
      </trkpt>
      <trkpt lat="46.12794" lon="6.75946">
        <ele>1627</ele>
        <time>2019-08-15T05:00:05Z</time>
      </trkpt>
      <trkpt lat="46.1279" lon="6.7594">
        <ele>1627</ele>
        <time>2019-08-15T05:00:13Z</time>
      </trkpt>
      <trkpt lat="46.12785" lon="6.75925">
        <ele>1627</ele>
        <time>2019-08-15T05:00:28Z</time>
      </trkpt>
      <trkpt lat="46.12783" lon="6.75919">
        <ele>1627</ele>
        <time>2019-08-15T05:00:34Z</time>
      </trkpt>
      <trkpt lat="46.12777" lon="6.75909">
        <ele>1626</ele>
        <time>2019-08-15T05:00:47Z</time>
      </trkpt>
      <trkpt lat="46.12774" lon="6.75904">
        <ele>1625</ele>
        <time>2019-08-15T05:00:53Z</time>
      </trkpt>
      <trkpt lat="46.12769" lon="6.75888">
        <ele>1625</ele>
        <time>2019-08-15T05:01:09Z</time>
      </trkpt>
      <trkpt lat="46.12766" lon="6.75883">
        <ele>1624</ele>
        <time>2019-08-15T05:01:15Z</time>
      </trkpt>
      <trkpt lat="46.12763" lon="6.75879">
        <ele>1624</ele>
        <time>2019-08-15T05:01:20Z</time>
      </trkpt>
      <trkpt lat="46.12758" lon="6.75875">
        <ele>1622</ele>
        <time>2019-08-15T05:01:28Z</time>
      </trkpt>
      <trkpt lat="46.12715" lon="6.7582">
        <ele>1615</ele>
        <time>2019-08-15T05:02:45Z</time>
      </trkpt>
      <trkpt lat="46.1271" lon="6.75814">
        <ele>1614</ele>
        <time>2019-08-15T05:02:53Z</time>
      </trkpt>
      <trkpt lat="46.12701" lon="6.75806">
        <ele>1613</ele>
        <time>2019-08-15T05:03:08Z</time>
      </trkpt>
      <trkpt lat="46.12695" lon="6.75801">
        <ele>1611</ele>
        <time>2019-08-15T05:03:17Z</time>
      </trkpt>
      <trkpt lat="46.12665" lon="6.75783">
        <ele>1604</ele>
        <time>2019-08-15T05:04:00Z</time>
      </trkpt>
      <trkpt lat="46.12663" lon="6.75781">
        <ele>1603</ele>
        <time>2019-08-15T05:04:03Z</time>
      </trkpt>
      <trkpt lat="46.12658" lon="6.75779">
        <ele>1602</ele>
        <time>2019-08-15T05:04:10Z</time>
      </trkpt>
      <trkpt lat="46.12654" lon="6.75778">
        <ele>1601</ele>
        <time>2019-08-15T05:04:16Z</time>
      </trkpt>
      <trkpt lat="46.1265" lon="6.75776">
        <ele>1600</ele>
        <time>2019-08-15T05:04:21Z</time>
      </trkpt>
      <trkpt lat="46.12647" lon="6.75773">
        <ele>1599</ele>
        <time>2019-08-15T05:04:26Z</time>
      </trkpt>
      <trkpt lat="46.12644" lon="6.7577">
        <ele>1598</ele>
        <time>2019-08-15T05:04:31Z</time>
      </trkpt>
      <trkpt lat="46.12642" lon="6.75766">
        <ele>1598</ele>
        <time>2019-08-15T05:04:36Z</time>
      </trkpt>
      <trkpt lat="46.1264" lon="6.7576">
        <ele>1597</ele>
        <time>2019-08-15T05:04:42Z</time>
      </trkpt>
      <trkpt lat="46.1264" lon="6.75748">
        <ele>1598</ele>
        <time>2019-08-15T05:04:53Z</time>
      </trkpt>
      <trkpt lat="46.12639" lon="6.7574">
        <ele>1598</ele>
        <time>2019-08-15T05:05:00Z</time>
      </trkpt>
      <trkpt lat="46.12636" lon="6.75728">
        <ele>1598</ele>
        <time>2019-08-15T05:05:12Z</time>
      </trkpt>
      <trkpt lat="46.12626" lon="6.75701">
        <ele>1596</ele>
        <time>2019-08-15T05:05:41Z</time>
      </trkpt>
      <trkpt lat="46.12619" lon="6.75687">
        <ele>1594</ele>
        <time>2019-08-15T05:05:57Z</time>
      </trkpt>
      <trkpt lat="46.12612" lon="6.75674">
        <ele>1591</ele>
        <time>2019-08-15T05:06:12Z</time>
      </trkpt>
      <trkpt lat="46.1261" lon="6.75668">
        <ele>1591</ele>
        <time>2019-08-15T05:06:18Z</time>
      </trkpt>
      <trkpt lat="46.12606" lon="6.75657">
        <ele>1590</ele>
        <time>2019-08-15T05:06:29Z</time>
      </trkpt>
      <trkpt lat="46.12603" lon="6.75652">
        <ele>1590</ele>
        <time>2019-08-15T05:06:36Z</time>
      </trkpt>
      <trkpt lat="46.126" lon="6.75647">
        <ele>1589</ele>
        <time>2019-08-15T05:06:42Z</time>
      </trkpt>
      <trkpt lat="46.12597" lon="6.7564">
        <ele>1588</ele>
        <time>2019-08-15T05:06:49Z</time>
      </trkpt>
      <trkpt lat="46.12594" lon="6.75636">
        <ele>1587</ele>
        <time>2019-08-15T05:06:55Z</time>
      </trkpt>
      <trkpt lat="46.12592" lon="6.75629">
        <ele>1587</ele>
        <time>2019-08-15T05:07:02Z</time>
      </trkpt>
      <trkpt lat="46.12581" lon="6.75597">
        <ele>1585</ele>
        <time>2019-08-15T05:07:35Z</time>
      </trkpt>
      <trkpt lat="46.12575" lon="6.75586">
        <ele>1583</ele>
        <time>2019-08-15T05:07:48Z</time>
      </trkpt>
      <trkpt lat="46.12572" lon="6.75582">
        <ele>1583</ele>
        <time>2019-08-15T05:07:53Z</time>
      </trkpt>
      <trkpt lat="46.12537" lon="6.75552">
        <ele>1575</ele>
        <time>2019-08-15T05:08:47Z</time>
      </trkpt>
      <trkpt lat="46.12532" lon="6.75548">
        <ele>1573</ele>
        <time>2019-08-15T05:08:55Z</time>
      </trkpt>
      <trkpt lat="46.12516" lon="6.7553">
        <ele>1570</ele>
        <time>2019-08-15T05:09:22Z</time>
      </trkpt>
      <trkpt lat="46.12511" lon="6.75524">
        <ele>1569</ele>
        <time>2019-08-15T05:09:31Z</time>
      </trkpt>
      <trkpt lat="46.12493" lon="6.75511">
        <ele>1563</ele>
        <time>2019-08-15T05:09:58Z</time>
      </trkpt>
      <trkpt lat="46.12488" lon="6.75507">
        <ele>1562</ele>
        <time>2019-08-15T05:10:05Z</time>
      </trkpt>
      <trkpt lat="46.12484" lon="6.75502">
        <ele>1561</ele>
        <time>2019-08-15T05:10:12Z</time>
      </trkpt>
      <trkpt lat="46.12477" lon="6.75491">
        <ele>1560</ele>
        <time>2019-08-15T05:10:26Z</time>
      </trkpt>
      <trkpt lat="46.12465" lon="6.75478">
        <ele>1557</ele>
        <time>2019-08-15T05:10:46Z</time>
      </trkpt>
      <trkpt lat="46.12461" lon="6.75474">
        <ele>1556</ele>
        <time>2019-08-15T05:10:53Z</time>
      </trkpt>
      <trkpt lat="46.12381" lon="6.75418">
        <ele>1531</ele>
        <time>2019-08-15T05:12:51Z</time>
      </trkpt>
      <trkpt lat="46.12377" lon="6.75415">
        <ele>1530</ele>
        <time>2019-08-15T05:12:57Z</time>
      </trkpt>
      <trkpt lat="46.12374" lon="6.75411">
        <ele>1530</ele>
        <time>2019-08-15T05:13:03Z</time>
      </trkpt>
      <trkpt lat="46.12371" lon="6.75407">
        <ele>1530</ele>
        <time>2019-08-15T05:13:08Z</time>
      </trkpt>
      <trkpt lat="46.12359" lon="6.75396">
        <ele>1528</ele>
        <time>2019-08-15T05:13:27Z</time>
      </trkpt>
      <trkpt lat="46.12354" lon="6.7539">
        <ele>1527</ele>
        <time>2019-08-15T05:13:36Z</time>
      </trkpt>
      <trkpt lat="46.12348" lon="6.7538">
        <ele>1527</ele>
        <time>2019-08-15T05:13:48Z</time>
      </trkpt>
      <trkpt lat="46.12344" lon="6.75375">
        <ele>1526</ele>
        <time>2019-08-15T05:13:55Z</time>
      </trkpt>
      <trkpt lat="46.12341" lon="6.75368">
        <ele>1526</ele>
        <time>2019-08-15T05:14:03Z</time>
      </trkpt>
      <trkpt lat="46.12338" lon="6.75364">
        <ele>1526</ele>
        <time>2019-08-15T05:14:08Z</time>
      </trkpt>
      <trkpt lat="46.12334" lon="6.75362">
        <ele>1524</ele>
        <time>2019-08-15T05:14:14Z</time>
      </trkpt>
      <trkpt lat="46.12325" lon="6.7536">
        <ele>1522</ele>
        <time>2019-08-15T05:14:26Z</time>
      </trkpt>
      <trkpt lat="46.12319" lon="6.75359">
        <ele>1520</ele>
        <time>2019-08-15T05:14:34Z</time>
      </trkpt>
      <trkpt lat="46.12314" lon="6.75357">
        <ele>1519</ele>
        <time>2019-08-15T05:14:41Z</time>
      </trkpt>
      <trkpt lat="46.1231" lon="6.75355">
        <ele>1518</ele>
        <time>2019-08-15T05:14:47Z</time>
      </trkpt>
      <trkpt lat="46.12306" lon="6.75352">
        <ele>1518</ele>
        <time>2019-08-15T05:14:53Z</time>
      </trkpt>
      <trkpt lat="46.12293" lon="6.75337">
        <ele>1517</ele>
        <time>2019-08-15T05:15:15Z</time>
      </trkpt>
      <trkpt lat="46.1229" lon="6.75334">
        <ele>1517</ele>
        <time>2019-08-15T05:15:20Z</time>
      </trkpt>
      <trkpt lat="46.12286" lon="6.75332">
        <ele>1516</ele>
        <time>2019-08-15T05:15:26Z</time>
      </trkpt>
      <trkpt lat="46.12282" lon="6.75332">
        <ele>1515</ele>
        <time>2019-08-15T05:15:31Z</time>
      </trkpt>
      <trkpt lat="46.12277" lon="6.75332">
        <ele>1513</ele>
        <time>2019-08-15T05:15:38Z</time>
      </trkpt>
      <trkpt lat="46.12272" lon="6.75331">
        <ele>1512</ele>
        <time>2019-08-15T05:15:44Z</time>
      </trkpt>
      <trkpt lat="46.12266" lon="6.75326">
        <ele>1511</ele>
        <time>2019-08-15T05:15:54Z</time>
      </trkpt>
      <trkpt lat="46.12258" lon="6.75317">
        <ele>1510</ele>
        <time>2019-08-15T05:16:07Z</time>
      </trkpt>
      <trkpt lat="46.12256" lon="6.75313">
        <ele>1510</ele>
        <time>2019-08-15T05:16:12Z</time>
      </trkpt>
      <trkpt lat="46.12254" lon="6.75308">
        <ele>1510</ele>
        <time>2019-08-15T05:16:17Z</time>
      </trkpt>
      <trkpt lat="46.12251" lon="6.75289">
        <ele>1512</ele>
        <time>2019-08-15T05:16:35Z</time>
      </trkpt>
      <trkpt lat="46.12249" lon="6.75284">
        <ele>1512</ele>
        <time>2019-08-15T05:16:40Z</time>
      </trkpt>
      <trkpt lat="46.12247" lon="6.75281">
        <ele>1512</ele>
        <time>2019-08-15T05:16:44Z</time>
      </trkpt>
      <trkpt lat="46.12244" lon="6.75278">
        <ele>1512</ele>
        <time>2019-08-15T05:16:49Z</time>
      </trkpt>
      <trkpt lat="46.1224" lon="6.75277">
        <ele>1510</ele>
        <time>2019-08-15T05:16:54Z</time>
      </trkpt>
      <trkpt lat="46.1223" lon="6.75273">
        <ele>1508</ele>
        <time>2019-08-15T05:17:08Z</time>
      </trkpt>
      <trkpt lat="46.12225" lon="6.75272">
        <ele>1506</ele>
        <time>2019-08-15T05:17:15Z</time>
      </trkpt>
      <trkpt lat="46.1222" lon="6.7527">
        <ele>1505</ele>
        <time>2019-08-15T05:17:22Z</time>
      </trkpt>
      <trkpt lat="46.12215" lon="6.75266">
        <ele>1504</ele>
        <time>2019-08-15T05:17:30Z</time>
      </trkpt>
      <trkpt lat="46.12203" lon="6.75258">
        <ele>1501</ele>
        <time>2019-08-15T05:17:47Z</time>
      </trkpt>
      <trkpt lat="46.12198" lon="6.75254">
        <ele>1500</ele>
        <time>2019-08-15T05:17:55Z</time>
      </trkpt>
      <trkpt lat="46.12193" lon="6.7525">
        <ele>1500</ele>
        <time>2019-08-15T05:18:03Z</time>
      </trkpt>
      <trkpt lat="46.12188" lon="6.75244">
        <ele>1498</ele>
        <time>2019-08-15T05:18:11Z</time>
      </trkpt>
      <trkpt lat="46.12152" lon="6.7521">
        <ele>1485</ele>
        <time>2019-08-15T05:19:09Z</time>
      </trkpt>
      <trkpt lat="46.12147" lon="6.75204">
        <ele>1483</ele>
        <time>2019-08-15T05:19:17Z</time>
      </trkpt>
      <trkpt lat="46.12143" lon="6.75197">
        <ele>1482</ele>
        <time>2019-08-15T05:19:26Z</time>
      </trkpt>
      <trkpt lat="46.12138" lon="6.75189">
        <ele>1480</ele>
        <time>2019-08-15T05:19:36Z</time>
      </trkpt>
      <trkpt lat="46.12126" lon="6.7516">
        <ele>1476</ele>
        <time>2019-08-15T05:20:07Z</time>
      </trkpt>
      <trkpt lat="46.12124" lon="6.75155">
        <ele>1475</ele>
        <time>2019-08-15T05:20:12Z</time>
      </trkpt>
      <trkpt lat="46.12124" lon="6.75151">
        <ele>1475</ele>
        <time>2019-08-15T05:20:16Z</time>
      </trkpt>
      <trkpt lat="46.12124" lon="6.75146">
        <ele>1474</ele>
        <time>2019-08-15T05:20:21Z</time>
      </trkpt>
      <trkpt lat="46.12126" lon="6.75137">
        <ele>1474</ele>
        <time>2019-08-15T05:20:29Z</time>
      </trkpt>
      <trkpt lat="46.12127" lon="6.7513">
        <ele>1473</ele>
        <time>2019-08-15T05:20:36Z</time>
      </trkpt>
      <trkpt lat="46.12125" lon="6.75119">
        <ele>1472</ele>
        <time>2019-08-15T05:20:46Z</time>
      </trkpt>
      <trkpt lat="46.12123" lon="6.75115">
        <ele>1471</ele>
        <time>2019-08-15T05:20:51Z</time>
      </trkpt>
      <trkpt lat="46.1212" lon="6.75112">
        <ele>1470</ele>
        <time>2019-08-15T05:20:56Z</time>
      </trkpt>
      <trkpt lat="46.12117" lon="6.7511">
        <ele>1469</ele>
        <time>2019-08-15T05:21:00Z</time>
      </trkpt>
      <trkpt lat="46.1211" lon="6.75111">
        <ele>1467</ele>
        <time>2019-08-15T05:21:10Z</time>
      </trkpt>
      <trkpt lat="46.12105" lon="6.75111">
        <ele>1465</ele>
        <time>2019-08-15T05:21:16Z</time>
      </trkpt>
      <trkpt lat="46.12097" lon="6.75114">
        <ele>1464</ele>
        <time>2019-08-15T05:21:27Z</time>
      </trkpt>
      <trkpt lat="46.12092" lon="6.75115">
        <ele>1462</ele>
        <time>2019-08-15T05:21:34Z</time>
      </trkpt>
      <trkpt lat="46.12089" lon="6.75113">
        <ele>1461</ele>
        <time>2019-08-15T05:21:38Z</time>
      </trkpt>
      <trkpt lat="46.12086" lon="6.75109">
        <ele>1460</ele>
        <time>2019-08-15T05:21:44Z</time>
      </trkpt>
      <trkpt lat="46.12078" lon="6.75085">
        <ele>1455</ele>
        <time>2019-08-15T05:22:09Z</time>
      </trkpt>
      <trkpt lat="46.12077" lon="6.75078">
        <ele>1453</ele>
        <time>2019-08-15T05:22:15Z</time>
      </trkpt>
      <trkpt lat="46.1208" lon="6.75059">
        <ele>1451</ele>
        <time>2019-08-15T05:22:33Z</time>
      </trkpt>
      <trkpt lat="46.12082" lon="6.75049">
        <ele>1451</ele>
        <time>2019-08-15T05:22:43Z</time>
      </trkpt>
      <trkpt lat="46.12082" lon="6.75041">
        <ele>1449</ele>
        <time>2019-08-15T05:22:50Z</time>
      </trkpt>
      <trkpt lat="46.12082" lon="6.75024">
        <ele>1447</ele>
        <time>2019-08-15T05:23:06Z</time>
      </trkpt>
      <trkpt lat="46.12088" lon="6.74976">
        <ele>1443</ele>
        <time>2019-08-15T05:23:51Z</time>
      </trkpt>
      <trkpt lat="46.12089" lon="6.74942">
        <ele>1442</ele>
        <time>2019-08-15T05:24:23Z</time>
      </trkpt>
      <trkpt lat="46.12088" lon="6.74934">
        <ele>1441</ele>
        <time>2019-08-15T05:24:30Z</time>
      </trkpt>
      <trkpt lat="46.12086" lon="6.74928">
        <ele>1440</ele>
        <time>2019-08-15T05:24:36Z</time>
      </trkpt>
      <trkpt lat="46.12084" lon="6.74921">
        <ele>1439</ele>
        <time>2019-08-15T05:24:43Z</time>
      </trkpt>
      <trkpt lat="46.12071" lon="6.74891">
        <ele>1431</ele>
        <time>2019-08-15T05:25:16Z</time>
      </trkpt>
      <trkpt lat="46.12068" lon="6.74884">
        <ele>1430</ele>
        <time>2019-08-15T05:25:24Z</time>
      </trkpt>
      <trkpt lat="46.12067" lon="6.74877">
        <ele>1429</ele>
        <time>2019-08-15T05:25:30Z</time>
      </trkpt>
      <trkpt lat="46.12065" lon="6.74851">
        <ele>1425</ele>
        <time>2019-08-15T05:25:54Z</time>
      </trkpt>
      <trkpt lat="46.12066" lon="6.74848">
        <ele>1425</ele>
        <time>2019-08-15T05:25:57Z</time>
      </trkpt>
      <trkpt lat="46.12067" lon="6.74833">
        <ele>1424</ele>
        <time>2019-08-15T05:26:11Z</time>
      </trkpt>
      <trkpt lat="46.12066" lon="6.7483">
        <ele>1423</ele>
        <time>2019-08-15T05:26:14Z</time>
      </trkpt>
      <trkpt lat="46.12063" lon="6.74827">
        <ele>1422</ele>
        <time>2019-08-15T05:26:19Z</time>
      </trkpt>
      <trkpt lat="46.1206" lon="6.74826">
        <ele>1421</ele>
        <time>2019-08-15T05:26:23Z</time>
      </trkpt>
      <trkpt lat="46.12056" lon="6.74825">
        <ele>1420</ele>
        <time>2019-08-15T05:26:29Z</time>
      </trkpt>
      <trkpt lat="46.12045" lon="6.74827">
        <ele>1418</ele>
        <time>2019-08-15T05:26:44Z</time>
      </trkpt>
      <trkpt lat="46.12015" lon="6.74836">
        <ele>1412</ele>
        <time>2019-08-15T05:27:25Z</time>
      </trkpt>
      <trkpt lat="46.12005" lon="6.74835">
        <ele>1409</ele>
        <time>2019-08-15T05:27:38Z</time>
      </trkpt>
      <trkpt lat="46.12001" lon="6.74832">
        <ele>1408</ele>
        <time>2019-08-15T05:27:44Z</time>
      </trkpt>
      <trkpt lat="46.11998" lon="6.74828">
        <ele>1406</ele>
        <time>2019-08-15T05:27:49Z</time>
      </trkpt>
      <trkpt lat="46.11991" lon="6.74819">
        <ele>1403</ele>
        <time>2019-08-15T05:28:02Z</time>
      </trkpt>
      <trkpt lat="46.11985" lon="6.74809">
        <ele>1399</ele>
        <time>2019-08-15T05:28:14Z</time>
      </trkpt>
      <trkpt lat="46.11983" lon="6.74803">
        <ele>1398</ele>
        <time>2019-08-15T05:28:20Z</time>
      </trkpt>
      <trkpt lat="46.11982" lon="6.74796">
        <ele>1397</ele>
        <time>2019-08-15T05:28:27Z</time>
      </trkpt>
      <trkpt lat="46.1198" lon="6.74789">
        <ele>1395</ele>
        <time>2019-08-15T05:28:34Z</time>
      </trkpt>
      <trkpt lat="46.11979" lon="6.7478">
        <ele>1394</ele>
        <time>2019-08-15T05:28:42Z</time>
      </trkpt>
      <trkpt lat="46.11978" lon="6.74757">
        <ele>1392</ele>
        <time>2019-08-15T05:29:04Z</time>
      </trkpt>
      <trkpt lat="46.11976" lon="6.74747">
        <ele>1390</ele>
        <time>2019-08-15T05:29:13Z</time>
      </trkpt>
      <trkpt lat="46.11974" lon="6.74739">
        <ele>1389</ele>
        <time>2019-08-15T05:29:21Z</time>
      </trkpt>
      <trkpt lat="46.11971" lon="6.74731">
        <ele>1387</ele>
        <time>2019-08-15T05:29:30Z</time>
      </trkpt>
      <trkpt lat="46.11968" lon="6.74724">
        <ele>1385</ele>
        <time>2019-08-15T05:29:37Z</time>
      </trkpt>
      <trkpt lat="46.11951" lon="6.74698">
        <ele>1379</ele>
        <time>2019-08-15T05:30:10Z</time>
      </trkpt>
      <trkpt lat="46.11949" lon="6.74693">
        <ele>1378</ele>
        <time>2019-08-15T05:30:16Z</time>
      </trkpt>
      <trkpt lat="46.11948" lon="6.74681">
        <ele>1377</ele>
        <time>2019-08-15T05:30:27Z</time>
      </trkpt>
      <trkpt lat="46.11948" lon="6.74676">
        <ele>1376</ele>
        <time>2019-08-15T05:30:31Z</time>
      </trkpt>
      <trkpt lat="46.11951" lon="6.74649">
        <ele>1373</ele>
        <time>2019-08-15T05:30:57Z</time>
      </trkpt>
      <trkpt lat="46.11951" lon="6.74642">
        <ele>1372</ele>
        <time>2019-08-15T05:31:03Z</time>
      </trkpt>
      <trkpt lat="46.11951" lon="6.74634">
        <ele>1371</ele>
        <time>2019-08-15T05:31:11Z</time>
      </trkpt>
      <trkpt lat="46.11949" lon="6.74619">
        <ele>1368</ele>
        <time>2019-08-15T05:31:25Z</time>
      </trkpt>
      <trkpt lat="46.11944" lon="6.74599">
        <ele>1365</ele>
        <time>2019-08-15T05:31:44Z</time>
      </trkpt>
      <trkpt lat="46.11944" lon="6.74592">
        <ele>1364</ele>
        <time>2019-08-15T05:31:51Z</time>
      </trkpt>
      <trkpt lat="46.11944" lon="6.74584">
        <ele>1362</ele>
        <time>2019-08-15T05:31:58Z</time>
      </trkpt>
      <trkpt lat="46.11945" lon="6.7457">
        <ele>1360</ele>
        <time>2019-08-15T05:32:11Z</time>
      </trkpt>
      <trkpt lat="46.11945" lon="6.74564">
        <ele>1359</ele>
        <time>2019-08-15T05:32:17Z</time>
      </trkpt>
      <trkpt lat="46.11946" lon="6.7456">
        <ele>1358</ele>
        <time>2019-08-15T05:32:21Z</time>
      </trkpt>
      <trkpt lat="46.1195" lon="6.74554">
        <ele>1358</ele>
        <time>2019-08-15T05:32:28Z</time>
      </trkpt>
      <trkpt lat="46.11951" lon="6.74548">
        <ele>1357</ele>
        <time>2019-08-15T05:32:34Z</time>
      </trkpt>
      <trkpt lat="46.11953" lon="6.74538">
        <ele>1356</ele>
        <time>2019-08-15T05:32:44Z</time>
      </trkpt>
      <trkpt lat="46.11954" lon="6.74528">
        <ele>1354</ele>
        <time>2019-08-15T05:32:53Z</time>
      </trkpt>
      <trkpt lat="46.11954" lon="6.74517">
        <ele>1352</ele>
        <time>2019-08-15T05:33:03Z</time>
      </trkpt>
      <trkpt lat="46.11953" lon="6.7451">
        <ele>1351</ele>
        <time>2019-08-15T05:33:10Z</time>
      </trkpt>
      <trkpt lat="46.11948" lon="6.74494">
        <ele>1347</ele>
        <time>2019-08-15T05:33:26Z</time>
      </trkpt>
      <trkpt lat="46.11945" lon="6.74488">
        <ele>1346</ele>
        <time>2019-08-15T05:33:33Z</time>
      </trkpt>
      <trkpt lat="46.11943" lon="6.74472">
        <ele>1344</ele>
        <time>2019-08-15T05:33:48Z</time>
      </trkpt>
      <trkpt lat="46.11942" lon="6.74466">
        <ele>1344</ele>
        <time>2019-08-15T05:33:54Z</time>
      </trkpt>
      <trkpt lat="46.11938" lon="6.7445">
        <ele>1341</ele>
        <time>2019-08-15T05:34:09Z</time>
      </trkpt>
      <trkpt lat="46.11936" lon="6.74444">
        <ele>1340</ele>
        <time>2019-08-15T05:34:16Z</time>
      </trkpt>
      <trkpt lat="46.11923" lon="6.74422">
        <ele>1336</ele>
        <time>2019-08-15T05:34:42Z</time>
      </trkpt>
      <trkpt lat="46.11916" lon="6.74409">
        <ele>1333</ele>
        <time>2019-08-15T05:34:58Z</time>
      </trkpt>
      <trkpt lat="46.11908" lon="6.74398">
        <ele>1330</ele>
        <time>2019-08-15T05:35:12Z</time>
      </trkpt>
      <trkpt lat="46.11891" lon="6.74379">
        <ele>1323</ele>
        <time>2019-08-15T05:35:41Z</time>
      </trkpt>
      <trkpt lat="46.11888" lon="6.74374">
        <ele>1322</ele>
        <time>2019-08-15T05:35:47Z</time>
      </trkpt>
      <trkpt lat="46.11888" lon="6.7437">
        <ele>1321</ele>
        <time>2019-08-15T05:35:51Z</time>
      </trkpt>
      <trkpt lat="46.11887" lon="6.74365">
        <ele>1320</ele>
        <time>2019-08-15T05:35:56Z</time>
      </trkpt>
      <trkpt lat="46.11889" lon="6.74359">
        <ele>1320</ele>
        <time>2019-08-15T05:36:02Z</time>
      </trkpt>
      <trkpt lat="46.11895" lon="6.74338">
        <ele>1319</ele>
        <time>2019-08-15T05:36:23Z</time>
      </trkpt>
      <trkpt lat="46.11899" lon="6.74327">
        <ele>1319</ele>
        <time>2019-08-15T05:36:34Z</time>
      </trkpt>
      <trkpt lat="46.11904" lon="6.74318">
        <ele>1318</ele>
        <time>2019-08-15T05:36:45Z</time>
      </trkpt>
      <trkpt lat="46.11907" lon="6.74313">
        <ele>1318</ele>
        <time>2019-08-15T05:36:51Z</time>
      </trkpt>
      <trkpt lat="46.11909" lon="6.74301">
        <ele>1317</ele>
        <time>2019-08-15T05:37:03Z</time>
      </trkpt>
      <trkpt lat="46.1191" lon="6.74295">
        <ele>1316</ele>
        <time>2019-08-15T05:37:08Z</time>
      </trkpt>
      <trkpt lat="46.11911" lon="6.74276">
        <ele>1314</ele>
        <time>2019-08-15T05:37:26Z</time>
      </trkpt>
      <trkpt lat="46.11911" lon="6.74261">
        <ele>1311</ele>
        <time>2019-08-15T05:37:40Z</time>
      </trkpt>
      <trkpt lat="46.11912" lon="6.74253">
        <ele>1310</ele>
        <time>2019-08-15T05:37:47Z</time>
      </trkpt>
      <trkpt lat="46.11912" lon="6.74247">
        <ele>1309</ele>
        <time>2019-08-15T05:37:53Z</time>
      </trkpt>
      <trkpt lat="46.11914" lon="6.7424">
        <ele>1309</ele>
        <time>2019-08-15T05:38:00Z</time>
      </trkpt>
      <trkpt lat="46.11916" lon="6.74233">
        <ele>1308</ele>
        <time>2019-08-15T05:38:07Z</time>
      </trkpt>
      <trkpt lat="46.11924" lon="6.74217">
        <ele>1307</ele>
        <time>2019-08-15T05:38:25Z</time>
      </trkpt>
      <trkpt lat="46.11926" lon="6.74213">
        <ele>1307</ele>
        <time>2019-08-15T05:38:30Z</time>
      </trkpt>
      <trkpt lat="46.11926" lon="6.74204">
        <ele>1306</ele>
        <time>2019-08-15T05:38:38Z</time>
      </trkpt>
      <trkpt lat="46.11925" lon="6.742">
        <ele>1305</ele>
        <time>2019-08-15T05:38:42Z</time>
      </trkpt>
      <trkpt lat="46.11922" lon="6.74197">
        <ele>1304</ele>
        <time>2019-08-15T05:38:47Z</time>
      </trkpt>
      <trkpt lat="46.11914" lon="6.74192">
        <ele>1301</ele>
        <time>2019-08-15T05:38:58Z</time>
      </trkpt>
      <trkpt lat="46.1191" lon="6.74187">
        <ele>1300</ele>
        <time>2019-08-15T05:39:05Z</time>
      </trkpt>
      <trkpt lat="46.11907" lon="6.74183">
        <ele>1298</ele>
        <time>2019-08-15T05:39:11Z</time>
      </trkpt>
      <trkpt lat="46.119" lon="6.74152">
        <ele>1292</ele>
        <time>2019-08-15T05:39:41Z</time>
      </trkpt>
      <trkpt lat="46.11895" lon="6.74134">
        <ele>1287</ele>
        <time>2019-08-15T05:39:59Z</time>
      </trkpt>
      <trkpt lat="46.11893" lon="6.74128">
        <ele>1286</ele>
        <time>2019-08-15T05:40:05Z</time>
      </trkpt>
      <trkpt lat="46.11889" lon="6.7412">
        <ele>1283</ele>
        <time>2019-08-15T05:40:14Z</time>
      </trkpt>
      <trkpt lat="46.11887" lon="6.74113">
        <ele>1282</ele>
        <time>2019-08-15T05:40:21Z</time>
      </trkpt>
      <trkpt lat="46.11885" lon="6.74106">
        <ele>1280</ele>
        <time>2019-08-15T05:40:28Z</time>
      </trkpt>
      <trkpt lat="46.11884" lon="6.74097">
        <ele>1278</ele>
        <time>2019-08-15T05:40:37Z</time>
      </trkpt>
      <trkpt lat="46.11883" lon="6.7409">
        <ele>1277</ele>
        <time>2019-08-15T05:40:43Z</time>
      </trkpt>
      <trkpt lat="46.11883" lon="6.74042">
        <ele>1271</ele>
        <time>2019-08-15T05:41:28Z</time>
      </trkpt>
      <trkpt lat="46.11883" lon="6.74035">
        <ele>1270</ele>
        <time>2019-08-15T05:41:34Z</time>
      </trkpt>
      <trkpt lat="46.11884" lon="6.7403">
        <ele>1270</ele>
        <time>2019-08-15T05:41:39Z</time>
      </trkpt>
      <trkpt lat="46.11886" lon="6.74024">
        <ele>1270</ele>
        <time>2019-08-15T05:41:45Z</time>
      </trkpt>
      <trkpt lat="46.1189" lon="6.74015">
        <ele>1270</ele>
        <time>2019-08-15T05:41:55Z</time>
      </trkpt>
      <trkpt lat="46.11891" lon="6.74012">
        <ele>1269</ele>
        <time>2019-08-15T05:41:58Z</time>
      </trkpt>
      <trkpt lat="46.1189" lon="6.7401">
        <ele>1269</ele>
        <time>2019-08-15T05:42:00Z</time>
      </trkpt>
      <trkpt lat="46.11888" lon="6.74008">
        <ele>1268</ele>
        <time>2019-08-15T05:42:04Z</time>
      </trkpt>
      <trkpt lat="46.11886" lon="6.74007">
        <ele>1268</ele>
        <time>2019-08-15T05:42:07Z</time>
      </trkpt>
      <trkpt lat="46.11883" lon="6.74007">
        <ele>1267</ele>
        <time>2019-08-15T05:42:11Z</time>
      </trkpt>
      <trkpt lat="46.11874" lon="6.74011">
        <ele>1266</ele>
        <time>2019-08-15T05:42:23Z</time>
      </trkpt>
      <trkpt lat="46.11867" lon="6.74015">
        <ele>1265</ele>
        <time>2019-08-15T05:42:33Z</time>
      </trkpt>
      <trkpt lat="46.1186" lon="6.74021">
        <ele>1264</ele>
        <time>2019-08-15T05:42:44Z</time>
      </trkpt>
      <trkpt lat="46.11855" lon="6.74026">
        <ele>1263</ele>
        <time>2019-08-15T05:42:52Z</time>
      </trkpt>
      <trkpt lat="46.11836" lon="6.74053">
        <ele>1263</ele>
        <time>2019-08-15T05:43:28Z</time>
      </trkpt>
      <trkpt lat="46.11832" lon="6.74057">
        <ele>1263</ele>
        <time>2019-08-15T05:43:34Z</time>
      </trkpt>
      <trkpt lat="46.11828" lon="6.74059">
        <ele>1262</ele>
        <time>2019-08-15T05:43:40Z</time>
      </trkpt>
      <trkpt lat="46.11811" lon="6.74064">
        <ele>1259</ele>
        <time>2019-08-15T05:44:03Z</time>
      </trkpt>
      <trkpt lat="46.11807" lon="6.74067">
        <ele>1259</ele>
        <time>2019-08-15T05:44:09Z</time>
      </trkpt>
      <trkpt lat="46.11803" lon="6.74077">
        <ele>1259</ele>
        <time>2019-08-15T05:44:20Z</time>
      </trkpt>
      <trkpt lat="46.118" lon="6.74082">
        <ele>1259</ele>
        <time>2019-08-15T05:44:26Z</time>
      </trkpt>
      <trkpt lat="46.11796" lon="6.74086">
        <ele>1259</ele>
        <time>2019-08-15T05:44:32Z</time>
      </trkpt>
      <trkpt lat="46.11779" lon="6.74097">
        <ele>1256</ele>
        <time>2019-08-15T05:44:57Z</time>
      </trkpt>
      <trkpt lat="46.11774" lon="6.741">
        <ele>1255</ele>
        <time>2019-08-15T05:45:04Z</time>
      </trkpt>
      <trkpt lat="46.11769" lon="6.74101">
        <ele>1254</ele>
        <time>2019-08-15T05:45:11Z</time>
      </trkpt>
      <trkpt lat="46.11763" lon="6.74102">
        <ele>1253</ele>
        <time>2019-08-15T05:45:19Z</time>
      </trkpt>
      <trkpt lat="46.11754" lon="6.74102">
        <ele>1251</ele>
        <time>2019-08-15T05:45:31Z</time>
      </trkpt>
      <trkpt lat="46.11748" lon="6.74102">
        <ele>1249</ele>
        <time>2019-08-15T05:45:39Z</time>
      </trkpt>
      <trkpt lat="46.11733" lon="6.7412">
        <ele>1246</ele>
        <time>2019-08-15T05:46:05Z</time>
      </trkpt>
      <trkpt lat="46.1172" lon="6.74137">
        <ele>1244</ele>
        <time>2019-08-15T05:46:29Z</time>
      </trkpt>
      <trkpt lat="46.11704" lon="6.74164">
        <ele>1241</ele>
        <time>2019-08-15T05:47:02Z</time>
      </trkpt>
      <trkpt lat="46.11701" lon="6.7417">
        <ele>1241</ele>
        <time>2019-08-15T05:47:08Z</time>
      </trkpt>
      <trkpt lat="46.11698" lon="6.74177">
        <ele>1241</ele>
        <time>2019-08-15T05:47:16Z</time>
      </trkpt>
      <trkpt lat="46.11697" lon="6.74185">
        <ele>1241</ele>
        <time>2019-08-15T05:47:23Z</time>
      </trkpt>
      <trkpt lat="46.11693" lon="6.742">
        <ele>1241</ele>
        <time>2019-08-15T05:47:38Z</time>
      </trkpt>
      <trkpt lat="46.1169" lon="6.74216">
        <ele>1242</ele>
        <time>2019-08-15T05:47:54Z</time>
      </trkpt>
      <trkpt lat="46.11688" lon="6.74224">
        <ele>1242</ele>
        <time>2019-08-15T05:48:02Z</time>
      </trkpt>
      <trkpt lat="46.11683" lon="6.74233">
        <ele>1241</ele>
        <time>2019-08-15T05:48:12Z</time>
      </trkpt>
      <trkpt lat="46.11679" lon="6.74236">
        <ele>1240</ele>
        <time>2019-08-15T05:48:18Z</time>
      </trkpt>
      <trkpt lat="46.11675" lon="6.74237">
        <ele>1239</ele>
        <time>2019-08-15T05:48:24Z</time>
      </trkpt>
      <trkpt lat="46.11671" lon="6.74236">
        <ele>1237</ele>
        <time>2019-08-15T05:48:29Z</time>
      </trkpt>
      <trkpt lat="46.1166" lon="6.74216">
        <ele>1232</ele>
        <time>2019-08-15T05:48:53Z</time>
      </trkpt>
      <trkpt lat="46.11656" lon="6.74212">
        <ele>1231</ele>
        <time>2019-08-15T05:48:59Z</time>
      </trkpt>
      <trkpt lat="46.11652" lon="6.7421">
        <ele>1229</ele>
        <time>2019-08-15T05:49:05Z</time>
      </trkpt>
      <trkpt lat="46.11646" lon="6.74207">
        <ele>1228</ele>
        <time>2019-08-15T05:49:13Z</time>
      </trkpt>
      <trkpt lat="46.11639" lon="6.74205">
        <ele>1226</ele>
        <time>2019-08-15T05:49:23Z</time>
      </trkpt>
      <trkpt lat="46.11632" lon="6.74205">
        <ele>1224</ele>
        <time>2019-08-15T05:49:32Z</time>
      </trkpt>
      <trkpt lat="46.11617" lon="6.74206">
        <ele>1220</ele>
        <time>2019-08-15T05:49:52Z</time>
      </trkpt>
      <trkpt lat="46.11612" lon="6.74208">
        <ele>1219</ele>
        <time>2019-08-15T05:49:59Z</time>
      </trkpt>
      <trkpt lat="46.11609" lon="6.74211">
        <ele>1219</ele>
        <time>2019-08-15T05:50:04Z</time>
      </trkpt>
      <trkpt lat="46.11606" lon="6.74216">
        <ele>1218</ele>
        <time>2019-08-15T05:50:10Z</time>
      </trkpt>
      <trkpt lat="46.11583" lon="6.74263">
        <ele>1219</ele>
        <time>2019-08-15T05:51:03Z</time>
      </trkpt>
      <trkpt lat="46.11579" lon="6.74271">
        <ele>1219</ele>
        <time>2019-08-15T05:51:12Z</time>
      </trkpt>
      <trkpt lat="46.11575" lon="6.74277">
        <ele>1220</ele>
        <time>2019-08-15T05:51:20Z</time>
      </trkpt>
      <trkpt lat="46.11571" lon="6.7428">
        <ele>1219</ele>
        <time>2019-08-15T05:51:26Z</time>
      </trkpt>
      <trkpt lat="46.11567" lon="6.74282">
        <ele>1219</ele>
        <time>2019-08-15T05:51:32Z</time>
      </trkpt>
      <trkpt lat="46.11555" lon="6.74282">
        <ele>1216</ele>
        <time>2019-08-15T05:51:48Z</time>
      </trkpt>
      <trkpt lat="46.11518" lon="6.74285">
        <ele>1207</ele>
        <time>2019-08-15T05:52:37Z</time>
      </trkpt>
      <trkpt lat="46.11512" lon="6.74285">
        <ele>1206</ele>
        <time>2019-08-15T05:52:45Z</time>
      </trkpt>
      <trkpt lat="46.11507" lon="6.74285">
        <ele>1205</ele>
        <time>2019-08-15T05:52:52Z</time>
      </trkpt>
      <trkpt lat="46.11493" lon="6.74281">
        <ele>1200</ele>
        <time>2019-08-15T05:53:11Z</time>
      </trkpt>
      <trkpt lat="46.11488" lon="6.7428">
        <ele>1199</ele>
        <time>2019-08-15T05:53:18Z</time>
      </trkpt>
      <trkpt lat="46.11483" lon="6.74281">
        <ele>1197</ele>
        <time>2019-08-15T05:53:24Z</time>
      </trkpt>
      <trkpt lat="46.11478" lon="6.74283">
        <ele>1195</ele>
        <time>2019-08-15T05:53:31Z</time>
      </trkpt>
      <trkpt lat="46.11474" lon="6.74286">
        <ele>1194</ele>
        <time>2019-08-15T05:53:37Z</time>
      </trkpt>
      <trkpt lat="46.11471" lon="6.7429">
        <ele>1193</ele>
        <time>2019-08-15T05:53:43Z</time>
      </trkpt>
      <trkpt lat="46.1147" lon="6.74301">
        <ele>1193</ele>
        <time>2019-08-15T05:53:53Z</time>
      </trkpt>
      <trkpt lat="46.11471" lon="6.74308">
        <ele>1193</ele>
        <time>2019-08-15T05:54:00Z</time>
      </trkpt>
      <trkpt lat="46.11479" lon="6.74348">
        <ele>1195</ele>
        <time>2019-08-15T05:54:38Z</time>
      </trkpt>
      <trkpt lat="46.11482" lon="6.74363">
        <ele>1194</ele>
        <time>2019-08-15T05:54:53Z</time>
      </trkpt>
      <trkpt lat="46.11488" lon="6.74389">
        <ele>1194</ele>
        <time>2019-08-15T05:55:18Z</time>
      </trkpt>
      <trkpt lat="46.1149" lon="6.74399">
        <ele>1194</ele>
        <time>2019-08-15T05:55:28Z</time>
      </trkpt>
      <trkpt lat="46.11494" lon="6.7441">
        <ele>1194</ele>
        <time>2019-08-15T05:55:39Z</time>
      </trkpt>
      <trkpt lat="46.11499" lon="6.74419">
        <ele>1196</ele>
        <time>2019-08-15T05:55:50Z</time>
      </trkpt>
      <trkpt lat="46.11502" lon="6.74425">
        <ele>1196</ele>
        <time>2019-08-15T05:55:57Z</time>
      </trkpt>
      <trkpt lat="46.11503" lon="6.74429">
        <ele>1196</ele>
        <time>2019-08-15T05:56:01Z</time>
      </trkpt>
      <trkpt lat="46.11506" lon="6.74441">
        <ele>1195</ele>
        <time>2019-08-15T05:56:12Z</time>
      </trkpt>
      <trkpt lat="46.11509" lon="6.74457">
        <ele>1193</ele>
        <time>2019-08-15T05:56:28Z</time>
      </trkpt>
      <trkpt lat="46.11508" lon="6.74472">
        <ele>1189</ele>
        <time>2019-08-15T05:56:42Z</time>
      </trkpt>
      <trkpt lat="46.11508" lon="6.74477">
        <ele>1187</ele>
        <time>2019-08-15T05:56:46Z</time>
      </trkpt>
      <trkpt lat="46.11519" lon="6.74525">
        <ele>1182</ele>
        <time>2019-08-15T05:57:33Z</time>
      </trkpt>
      <trkpt lat="46.11522" lon="6.7454">
        <ele>1180</ele>
        <time>2019-08-15T05:57:48Z</time>
      </trkpt>
      <trkpt lat="46.11525" lon="6.74546">
        <ele>1180</ele>
        <time>2019-08-15T05:57:54Z</time>
      </trkpt>
      <trkpt lat="46.11527" lon="6.74552">
        <ele>1180</ele>
        <time>2019-08-15T05:58:01Z</time>
      </trkpt>
      <trkpt lat="46.1153" lon="6.74557">
        <ele>1180</ele>
        <time>2019-08-15T05:58:07Z</time>
      </trkpt>
      <trkpt lat="46.11549" lon="6.74578">
        <ele>1186</ele>
        <time>2019-08-15T05:58:39Z</time>
      </trkpt>
      <trkpt lat="46.11552" lon="6.74584">
        <ele>1186</ele>
        <time>2019-08-15T05:58:45Z</time>
      </trkpt>
      <trkpt lat="46.11557" lon="6.74599">
        <ele>1186</ele>
        <time>2019-08-15T05:59:01Z</time>
      </trkpt>
      <trkpt lat="46.11559" lon="6.74606">
        <ele>1186</ele>
        <time>2019-08-15T05:59:08Z</time>
      </trkpt>
      <trkpt lat="46.1156" lon="6.74612">
        <ele>1186</ele>
        <time>2019-08-15T05:59:14Z</time>
      </trkpt>
      <trkpt lat="46.11559" lon="6.74663">
        <ele>1176</ele>
        <time>2019-08-15T06:00:01Z</time>
      </trkpt>
      <trkpt lat="46.11559" lon="6.74671">
        <ele>1175</ele>
        <time>2019-08-15T06:00:08Z</time>
      </trkpt>
      <trkpt lat="46.11565" lon="6.74701">
        <ele>1174</ele>
        <time>2019-08-15T06:00:37Z</time>
      </trkpt>
      <trkpt lat="46.11566" lon="6.74707">
        <ele>1173</ele>
        <time>2019-08-15T06:00:43Z</time>
      </trkpt>
      <trkpt lat="46.11561" lon="6.74727">
        <ele>1168</ele>
        <time>2019-08-15T06:01:02Z</time>
      </trkpt>
      <trkpt lat="46.11559" lon="6.74734">
        <ele>1166</ele>
        <time>2019-08-15T06:01:09Z</time>
      </trkpt>
      <trkpt lat="46.11549" lon="6.74759">
        <ele>1161</ele>
        <time>2019-08-15T06:01:36Z</time>
      </trkpt>
      <trkpt lat="46.11546" lon="6.74767">
        <ele>1161</ele>
        <time>2019-08-15T06:01:45Z</time>
      </trkpt>
      <trkpt lat="46.11542" lon="6.74774">
        <ele>1160</ele>
        <time>2019-08-15T06:01:53Z</time>
      </trkpt>
      <trkpt lat="46.11538" lon="6.74779">
        <ele>1159</ele>
        <time>2019-08-15T06:02:00Z</time>
      </trkpt>
      <trkpt lat="46.11532" lon="6.74788">
        <ele>1159</ele>
        <time>2019-08-15T06:02:12Z</time>
      </trkpt>
      <trkpt lat="46.11528" lon="6.7479">
        <ele>1158</ele>
        <time>2019-08-15T06:02:17Z</time>
      </trkpt>
      <trkpt lat="46.11523" lon="6.74794">
        <ele>1157</ele>
        <time>2019-08-15T06:02:25Z</time>
      </trkpt>
      <trkpt lat="46.11482" lon="6.74815">
        <ele>1149</ele>
        <time>2019-08-15T06:03:23Z</time>
      </trkpt>
      <trkpt lat="46.11468" lon="6.7482">
        <ele>1146</ele>
        <time>2019-08-15T06:03:42Z</time>
      </trkpt>
      <trkpt lat="46.1145" lon="6.74824">
        <ele>1142</ele>
        <time>2019-08-15T06:04:06Z</time>
      </trkpt>
      <trkpt lat="46.11431" lon="6.74833">
        <ele>1138</ele>
        <time>2019-08-15T06:04:33Z</time>
      </trkpt>
      <trkpt lat="46.1142" lon="6.74848">
        <ele>1137</ele>
        <time>2019-08-15T06:04:53Z</time>
      </trkpt>
      <trkpt lat="46.11416" lon="6.74855">
        <ele>1137</ele>
        <time>2019-08-15T06:05:02Z</time>
      </trkpt>
      <trkpt lat="46.11382" lon="6.74955">
        <ele>1140</ele>
        <time>2019-08-15T06:06:45Z</time>
      </trkpt>
      <trkpt lat="46.1138" lon="6.74961">
        <ele>1140</ele>
        <time>2019-08-15T06:06:51Z</time>
      </trkpt>
      <trkpt lat="46.11378" lon="6.74965">
        <ele>1140</ele>
        <time>2019-08-15T06:06:55Z</time>
      </trkpt>
      <trkpt lat="46.11375" lon="6.74968">
        <ele>1139</ele>
        <time>2019-08-15T06:07:00Z</time>
      </trkpt>
      <trkpt lat="46.11371" lon="6.7497">
        <ele>1138</ele>
        <time>2019-08-15T06:07:06Z</time>
      </trkpt>
      <trkpt lat="46.11338" lon="6.74966">
        <ele>1127</ele>
        <time>2019-08-15T06:07:50Z</time>
      </trkpt>
      <trkpt lat="46.11333" lon="6.74966">
        <ele>1126</ele>
        <time>2019-08-15T06:07:57Z</time>
      </trkpt>
      <trkpt lat="46.11327" lon="6.74967">
        <ele>1125</ele>
        <time>2019-08-15T06:08:05Z</time>
      </trkpt>
      <trkpt lat="46.11323" lon="6.74969">
        <ele>1124</ele>
        <time>2019-08-15T06:08:11Z</time>
      </trkpt>
      <trkpt lat="46.11318" lon="6.7497">
        <ele>1123</ele>
        <time>2019-08-15T06:08:17Z</time>
      </trkpt>
      <trkpt lat="46.11313" lon="6.7497">
        <ele>1122</ele>
        <time>2019-08-15T06:08:24Z</time>
      </trkpt>
      <trkpt lat="46.11309" lon="6.74968">
        <ele>1121</ele>
        <time>2019-08-15T06:08:30Z</time>
      </trkpt>
      <trkpt lat="46.11299" lon="6.74961">
        <ele>1118</ele>
        <time>2019-08-15T06:08:44Z</time>
      </trkpt>
      <trkpt lat="46.1129" lon="6.7496">
        <ele>1116</ele>
        <time>2019-08-15T06:08:57Z</time>
      </trkpt>
      <trkpt lat="46.11287" lon="6.74961">
        <ele>1115</ele>
        <time>2019-08-15T06:09:01Z</time>
      </trkpt>
      <trkpt lat="46.11284" lon="6.74964">
        <ele>1115</ele>
        <time>2019-08-15T06:09:05Z</time>
      </trkpt>
      <trkpt lat="46.11281" lon="6.74968">
        <ele>1115</ele>
        <time>2019-08-15T06:09:11Z</time>
      </trkpt>
      <trkpt lat="46.11274" lon="6.74991">
        <ele>1117</ele>
        <time>2019-08-15T06:09:34Z</time>
      </trkpt>
      <trkpt lat="46.11272" lon="6.75001">
        <ele>1117</ele>
        <time>2019-08-15T06:09:44Z</time>
      </trkpt>
      <trkpt lat="46.11268" lon="6.75009">
        <ele>1118</ele>
        <time>2019-08-15T06:09:53Z</time>
      </trkpt>
      <trkpt lat="46.11265" lon="6.75017">
        <ele>1118</ele>
        <time>2019-08-15T06:10:01Z</time>
      </trkpt>
      <trkpt lat="46.11261" lon="6.75023">
        <ele>1118</ele>
        <time>2019-08-15T06:10:09Z</time>
      </trkpt>
      <trkpt lat="46.11256" lon="6.75024">
        <ele>1116</ele>
        <time>2019-08-15T06:10:16Z</time>
      </trkpt>
      <trkpt lat="46.11251" lon="6.7502">
        <ele>1115</ele>
        <time>2019-08-15T06:10:23Z</time>
      </trkpt>
      <trkpt lat="46.11248" lon="6.75014">
        <ele>1114</ele>
        <time>2019-08-15T06:10:30Z</time>
      </trkpt>
      <trkpt lat="46.11245" lon="6.7499">
        <ele>1111</ele>
        <time>2019-08-15T06:10:53Z</time>
      </trkpt>
      <trkpt lat="46.11243" lon="6.74982">
        <ele>1110</ele>
        <time>2019-08-15T06:11:01Z</time>
      </trkpt>
      <trkpt lat="46.11241" lon="6.74975">
        <ele>1109</ele>
        <time>2019-08-15T06:11:08Z</time>
      </trkpt>
      <trkpt lat="46.11239" lon="6.74968">
        <ele>1108</ele>
        <time>2019-08-15T06:11:15Z</time>
      </trkpt>
      <trkpt lat="46.11233" lon="6.74959">
        <ele>1106</ele>
        <time>2019-08-15T06:11:26Z</time>
      </trkpt>
      <trkpt lat="46.11217" lon="6.74945">
        <ele>1102</ele>
        <time>2019-08-15T06:11:51Z</time>
      </trkpt>
      <trkpt lat="46.11214" lon="6.74943">
        <ele>1101</ele>
        <time>2019-08-15T06:11:56Z</time>
      </trkpt>
      <trkpt lat="46.1121" lon="6.74942">
        <ele>1101</ele>
        <time>2019-08-15T06:12:01Z</time>
      </trkpt>
      <trkpt lat="46.11207" lon="6.74942">
        <ele>1100</ele>
        <time>2019-08-15T06:12:05Z</time>
      </trkpt>
      <trkpt lat="46.11199" lon="6.74949">
        <ele>1101</ele>
        <time>2019-08-15T06:12:18Z</time>
      </trkpt>
      <trkpt lat="46.11163" lon="6.74956">
        <ele>1099</ele>
        <time>2019-08-15T06:13:06Z</time>
      </trkpt>
      <trkpt lat="46.11157" lon="6.74957">
        <ele>1100</ele>
        <time>2019-08-15T06:13:14Z</time>
      </trkpt>
      <trkpt lat="46.11152" lon="6.74956">
        <ele>1101</ele>
        <time>2019-08-15T06:13:21Z</time>
      </trkpt>
      <trkpt lat="46.11147" lon="6.74955">
        <ele>1101</ele>
        <time>2019-08-15T06:13:28Z</time>
      </trkpt>
      <trkpt lat="46.11129" lon="6.74945">
        <ele>1102</ele>
        <time>2019-08-15T06:13:53Z</time>
      </trkpt>
      <trkpt lat="46.11124" lon="6.74941">
        <ele>1101</ele>
        <time>2019-08-15T06:14:01Z</time>
      </trkpt>
      <trkpt lat="46.1112" lon="6.74936">
        <ele>1100</ele>
        <time>2019-08-15T06:14:08Z</time>
      </trkpt>
      <trkpt lat="46.11092" lon="6.74893">
        <ele>1092</ele>
        <time>2019-08-15T06:15:03Z</time>
      </trkpt>
      <trkpt lat="46.11091" lon="6.7489">
        <ele>1091</ele>
        <time>2019-08-15T06:15:06Z</time>
      </trkpt>
      <trkpt lat="46.11065" lon="6.7485">
        <ele>1088</ele>
        <time>2019-08-15T06:15:56Z</time>
      </trkpt>
      <trkpt lat="46.11051" lon="6.74817">
        <ele>1082</ele>
        <time>2019-08-15T06:16:32Z</time>
      </trkpt>
      <trkpt lat="46.11038" lon="6.74784">
        <ele>1074</ele>
        <time>2019-08-15T06:17:07Z</time>
      </trkpt>
      <trkpt lat="46.11036" lon="6.74776">
        <ele>1072</ele>
        <time>2019-08-15T06:17:15Z</time>
      </trkpt>
      <trkpt lat="46.11037" lon="6.7477">
        <ele>1070</ele>
        <time>2019-08-15T06:17:21Z</time>
      </trkpt>
      <trkpt lat="46.11037" lon="6.74763">
        <ele>1068</ele>
        <time>2019-08-15T06:17:27Z</time>
      </trkpt>
      <trkpt lat="46.1104" lon="6.74758">
        <ele>1066</ele>
        <time>2019-08-15T06:17:33Z</time>
      </trkpt>
      <trkpt lat="46.11044" lon="6.74755">
        <ele>1065</ele>
        <time>2019-08-15T06:17:39Z</time>
      </trkpt>
      <trkpt lat="46.11049" lon="6.74754">
        <ele>1064</ele>
        <time>2019-08-15T06:17:46Z</time>
      </trkpt>
      <trkpt lat="46.11054" lon="6.74754">
        <ele>1064</ele>
        <time>2019-08-15T06:17:53Z</time>
      </trkpt>
      <trkpt lat="46.11063" lon="6.74757">
        <ele>1064</ele>
        <time>2019-08-15T06:18:05Z</time>
      </trkpt>
      <trkpt lat="46.11069" lon="6.74758">
        <ele>1064</ele>
        <time>2019-08-15T06:18:13Z</time>
      </trkpt>
      <trkpt lat="46.11074" lon="6.74758">
        <ele>1064</ele>
        <time>2019-08-15T06:18:20Z</time>
      </trkpt>
      <trkpt lat="46.11083" lon="6.74753">
        <ele>1063</ele>
        <time>2019-08-15T06:18:33Z</time>
      </trkpt>
      <trkpt lat="46.11087" lon="6.7475">
        <ele>1062</ele>
        <time>2019-08-15T06:18:39Z</time>
      </trkpt>
      <trkpt lat="46.11095" lon="6.74739">
        <ele>1060</ele>
        <time>2019-08-15T06:18:54Z</time>
      </trkpt>
      <trkpt lat="46.11097" lon="6.74733">
        <ele>1059</ele>
        <time>2019-08-15T06:19:00Z</time>
      </trkpt>
      <trkpt lat="46.11098" lon="6.74726">
        <ele>1058</ele>
        <time>2019-08-15T06:19:06Z</time>
      </trkpt>
      <trkpt lat="46.11098" lon="6.74719">
        <ele>1057</ele>
        <time>2019-08-15T06:19:13Z</time>
      </trkpt>
      <trkpt lat="46.11094" lon="6.74706">
        <ele>1055</ele>
        <time>2019-08-15T06:19:26Z</time>
      </trkpt>
      <trkpt lat="46.11092" lon="6.747">
        <ele>1054</ele>
        <time>2019-08-15T06:19:32Z</time>
      </trkpt>
      <trkpt lat="46.11078" lon="6.74681">
        <ele>1051</ele>
        <time>2019-08-15T06:19:58Z</time>
      </trkpt>
      <trkpt lat="46.11045" lon="6.74642">
        <ele>1046</ele>
        <time>2019-08-15T06:20:55Z</time>
      </trkpt>
      <trkpt lat="46.11025" lon="6.74621">
        <ele>1043</ele>
        <time>2019-08-15T06:21:28Z</time>
      </trkpt>
      <trkpt lat="46.11021" lon="6.74616">
        <ele>1043</ele>
        <time>2019-08-15T06:21:35Z</time>
      </trkpt>
      <trkpt lat="46.11018" lon="6.74611">
        <ele>1042</ele>
        <time>2019-08-15T06:21:41Z</time>
      </trkpt>
      <trkpt lat="46.11015" lon="6.74605">
        <ele>1042</ele>
        <time>2019-08-15T06:21:48Z</time>
      </trkpt>
      <trkpt lat="46.11008" lon="6.74585">
        <ele>1040</ele>
        <time>2019-08-15T06:22:08Z</time>
      </trkpt>
      <trkpt lat="46.11006" lon="6.7458">
        <ele>1039</ele>
        <time>2019-08-15T06:22:14Z</time>
      </trkpt>
      <trkpt lat="46.11002" lon="6.74574">
        <ele>1039</ele>
        <time>2019-08-15T06:22:22Z</time>
      </trkpt>
      <trkpt lat="46.11" lon="6.74569">
        <ele>1038</ele>
        <time>2019-08-15T06:22:27Z</time>
      </trkpt>
      <trkpt lat="46.10974" lon="6.74535">
        <ele>1038</ele>
        <time>2019-08-15T06:23:14Z</time>
      </trkpt>
      <trkpt lat="46.10965" lon="6.74526">
        <ele>1038</ele>
        <time>2019-08-15T06:23:28Z</time>
      </trkpt>
      <trkpt lat="46.10954" lon="6.74518">
        <ele>1037</ele>
        <time>2019-08-15T06:23:45Z</time>
      </trkpt>
      <trkpt lat="46.10949" lon="6.74514">
        <ele>1037</ele>
        <time>2019-08-15T06:23:52Z</time>
      </trkpt>
      <trkpt lat="46.10945" lon="6.7451">
        <ele>1037</ele>
        <time>2019-08-15T06:23:59Z</time>
      </trkpt>
      <trkpt lat="46.10929" lon="6.74491">
        <ele>1035</ele>
        <time>2019-08-15T06:24:27Z</time>
      </trkpt>
      <trkpt lat="46.1092" lon="6.74484">
        <ele>1034</ele>
        <time>2019-08-15T06:24:40Z</time>
      </trkpt>
      <trkpt lat="46.10916" lon="6.74481">
        <ele>1034</ele>
        <time>2019-08-15T06:24:46Z</time>
      </trkpt>
      <trkpt lat="46.10911" lon="6.74479">
        <ele>1033</ele>
        <time>2019-08-15T06:24:53Z</time>
      </trkpt>
      <trkpt lat="46.10898" lon="6.74477">
        <ele>1031</ele>
        <time>2019-08-15T06:25:11Z</time>
      </trkpt>
      <trkpt lat="46.10891" lon="6.74477">
        <ele>1031</ele>
        <time>2019-08-15T06:25:20Z</time>
      </trkpt>
      <trkpt lat="46.10886" lon="6.74477">
        <ele>1030</ele>
        <time>2019-08-15T06:25:27Z</time>
      </trkpt>
      <trkpt lat="46.10881" lon="6.74479">
        <ele>1030</ele>
        <time>2019-08-15T06:25:33Z</time>
      </trkpt>
      <trkpt lat="46.10876" lon="6.74481">
        <ele>1030</ele>
        <time>2019-08-15T06:25:40Z</time>
      </trkpt>
      <trkpt lat="46.10872" lon="6.74484">
        <ele>1030</ele>
        <time>2019-08-15T06:25:46Z</time>
      </trkpt>
      <trkpt lat="46.10847" lon="6.74512">
        <ele>1031</ele>
        <time>2019-08-15T06:26:29Z</time>
      </trkpt>
      <trkpt lat="46.10843" lon="6.74516">
        <ele>1031</ele>
        <time>2019-08-15T06:26:35Z</time>
      </trkpt>
      <trkpt lat="46.10838" lon="6.74518">
        <ele>1031</ele>
        <time>2019-08-15T06:26:42Z</time>
      </trkpt>
      <trkpt lat="46.10834" lon="6.7452">
        <ele>1031</ele>
        <time>2019-08-15T06:26:48Z</time>
      </trkpt>
      <trkpt lat="46.10828" lon="6.7452">
        <ele>1030</ele>
        <time>2019-08-15T06:26:56Z</time>
      </trkpt>
      <trkpt lat="46.10802" lon="6.74515">
        <ele>1027</ele>
        <time>2019-08-15T06:27:31Z</time>
      </trkpt>
      <trkpt lat="46.10776" lon="6.7451">
        <ele>1024</ele>
        <time>2019-08-15T06:28:06Z</time>
      </trkpt>
      <trkpt lat="46.1077" lon="6.74508">
        <ele>1023</ele>
        <time>2019-08-15T06:28:14Z</time>
      </trkpt>
      <trkpt lat="46.10764" lon="6.74506">
        <ele>1022</ele>
        <time>2019-08-15T06:28:22Z</time>
      </trkpt>
      <trkpt lat="46.10752" lon="6.745">
        <ele>1020</ele>
        <time>2019-08-15T06:28:39Z</time>
      </trkpt>
      <trkpt lat="46.10744" lon="6.74494">
        <ele>1019</ele>
        <time>2019-08-15T06:28:51Z</time>
      </trkpt>
      <trkpt lat="46.10739" lon="6.74487">
        <ele>1018</ele>
        <time>2019-08-15T06:29:00Z</time>
      </trkpt>
      <trkpt lat="46.10728" lon="6.74472">
        <ele>1016</ele>
        <time>2019-08-15T06:29:21Z</time>
      </trkpt>
      <trkpt lat="46.10711" lon="6.74452">
        <ele>1012</ele>
        <time>2019-08-15T06:29:50Z</time>
      </trkpt>
      <trkpt lat="46.10707" lon="6.74449">
        <ele>1012</ele>
        <time>2019-08-15T06:29:56Z</time>
      </trkpt>
      <trkpt lat="46.10682" lon="6.74443">
        <ele>1010</ele>
        <time>2019-08-15T06:30:30Z</time>
      </trkpt>
      <trkpt lat="46.10677" lon="6.74442">
        <ele>1010</ele>
        <time>2019-08-15T06:30:37Z</time>
      </trkpt>
      <trkpt lat="46.10673" lon="6.74439">
        <ele>1010</ele>
        <time>2019-08-15T06:30:43Z</time>
      </trkpt>
      <trkpt lat="46.10606" lon="6.74404">
        <ele>1004</ele>
        <time>2019-08-15T06:32:18Z</time>
      </trkpt>
      <trkpt lat="46.10597" lon="6.744">
        <ele>1002</ele>
        <time>2019-08-15T06:32:30Z</time>
      </trkpt>
      <trkpt lat="46.10573" lon="6.74391">
        <ele>998</ele>
        <time>2019-08-15T06:33:03Z</time>
      </trkpt>
      <trkpt lat="46.10565" lon="6.74388">
        <ele>995</ele>
        <time>2019-08-15T06:33:14Z</time>
      </trkpt>
      <trkpt lat="46.10544" lon="6.74383">
        <ele>990</ele>
        <time>2019-08-15T06:33:43Z</time>
      </trkpt>
      <trkpt lat="46.10539" lon="6.74383">
        <ele>989</ele>
        <time>2019-08-15T06:33:49Z</time>
      </trkpt>
      <trkpt lat="46.10535" lon="6.74384">
        <ele>989</ele>
        <time>2019-08-15T06:33:55Z</time>
      </trkpt>
      <trkpt lat="46.10531" lon="6.74386">
        <ele>989</ele>
        <time>2019-08-15T06:34:00Z</time>
      </trkpt>
      <trkpt lat="46.10505" lon="6.74402">
        <ele>990</ele>
        <time>2019-08-15T06:34:38Z</time>
      </trkpt>
      <trkpt lat="46.105" lon="6.74404">
        <ele>989</ele>
        <time>2019-08-15T06:34:45Z</time>
      </trkpt>
      <trkpt lat="46.10491" lon="6.74405">
        <ele>987</ele>
        <time>2019-08-15T06:34:57Z</time>
      </trkpt>
      <trkpt lat="46.10454" lon="6.74404">
        <ele>974</ele>
        <time>2019-08-15T06:35:47Z</time>
      </trkpt>
      <trkpt lat="46.10445" lon="6.74406">
        <ele>972</ele>
        <time>2019-08-15T06:35:59Z</time>
      </trkpt>
      <trkpt lat="46.10441" lon="6.74409">
        <ele>971</ele>
        <time>2019-08-15T06:36:05Z</time>
      </trkpt>
      <trkpt lat="46.10418" lon="6.74442">
        <ele>975</ele>
        <time>2019-08-15T06:36:48Z</time>
      </trkpt>
      <trkpt lat="46.10397" lon="6.74472">
        <ele>974</ele>
        <time>2019-08-15T06:37:27Z</time>
      </trkpt>
      <trkpt lat="46.10389" lon="6.74481">
        <ele>973</ele>
        <time>2019-08-15T06:37:41Z</time>
      </trkpt>
      <trkpt lat="46.10385" lon="6.74485">
        <ele>972</ele>
        <time>2019-08-15T06:37:47Z</time>
      </trkpt>
      <trkpt lat="46.10356" lon="6.74507">
        <ele>960</ele>
        <time>2019-08-15T06:38:31Z</time>
      </trkpt>
      <trkpt lat="46.10352" lon="6.7451">
        <ele>958</ele>
        <time>2019-08-15T06:38:37Z</time>
      </trkpt>
      <trkpt lat="46.10343" lon="6.74524">
        <ele>954</ele>
        <time>2019-08-15T06:38:55Z</time>
      </trkpt>
      <trkpt lat="46.1034" lon="6.74528">
        <ele>952</ele>
        <time>2019-08-15T06:39:00Z</time>
      </trkpt>
      <trkpt lat="46.10337" lon="6.74533">
        <ele>951</ele>
        <time>2019-08-15T06:39:06Z</time>
      </trkpt>
      <trkpt lat="46.10335" lon="6.74538">
        <ele>950</ele>
        <time>2019-08-15T06:39:12Z</time>
      </trkpt>
      <trkpt lat="46.10334" lon="6.74544">
        <ele>950</ele>
        <time>2019-08-15T06:39:17Z</time>
      </trkpt>
      <trkpt lat="46.10332" lon="6.7455">
        <ele>949</ele>
        <time>2019-08-15T06:39:24Z</time>
      </trkpt>
      <trkpt lat="46.10332" lon="6.74562">
        <ele>950</ele>
        <time>2019-08-15T06:39:35Z</time>
      </trkpt>
      <trkpt lat="46.10332" lon="6.74567">
        <ele>951</ele>
        <time>2019-08-15T06:39:39Z</time>
      </trkpt>
      <trkpt lat="46.10334" lon="6.74573">
        <ele>953</ele>
        <time>2019-08-15T06:39:46Z</time>
      </trkpt>
      <trkpt lat="46.10335" lon="6.7458">
        <ele>954</ele>
        <time>2019-08-15T06:39:52Z</time>
      </trkpt>
      <trkpt lat="46.10335" lon="6.74585">
        <ele>954</ele>
        <time>2019-08-15T06:39:57Z</time>
      </trkpt>
      <trkpt lat="46.10334" lon="6.74588">
        <ele>953</ele>
        <time>2019-08-15T06:40:00Z</time>
      </trkpt>
      <trkpt lat="46.1033" lon="6.74593">
        <ele>950</ele>
        <time>2019-08-15T06:40:07Z</time>
      </trkpt>
      <trkpt lat="46.10327" lon="6.74593">
        <ele>948</ele>
        <time>2019-08-15T06:40:11Z</time>
      </trkpt>
      <trkpt lat="46.10324" lon="6.74592">
        <ele>946</ele>
        <time>2019-08-15T06:40:15Z</time>
      </trkpt>
      <trkpt lat="46.10322" lon="6.74589">
        <ele>945</ele>
        <time>2019-08-15T06:40:19Z</time>
      </trkpt>
      <trkpt lat="46.10322" lon="6.74585">
        <ele>945</ele>
        <time>2019-08-15T06:40:23Z</time>
      </trkpt>
      <trkpt lat="46.10322" lon="6.7458">
        <ele>945</ele>
        <time>2019-08-15T06:40:27Z</time>
      </trkpt>
      <trkpt lat="46.10325" lon="6.7456">
        <ele>946</ele>
        <time>2019-08-15T06:40:46Z</time>
      </trkpt>
      <trkpt lat="46.10326" lon="6.74553">
        <ele>946</ele>
        <time>2019-08-15T06:40:53Z</time>
      </trkpt>
      <trkpt lat="46.10326" lon="6.74546">
        <ele>945</ele>
        <time>2019-08-15T06:40:59Z</time>
      </trkpt>
      <trkpt lat="46.10325" lon="6.74514">
        <ele>943</ele>
        <time>2019-08-15T06:41:29Z</time>
      </trkpt>
      <trkpt lat="46.10326" lon="6.74502">
        <ele>942</ele>
        <time>2019-08-15T06:41:40Z</time>
      </trkpt>
      <trkpt lat="46.10327" lon="6.74497">
        <ele>942</ele>
        <time>2019-08-15T06:41:45Z</time>
      </trkpt>
      <trkpt lat="46.1033" lon="6.74492">
        <ele>942</ele>
        <time>2019-08-15T06:41:51Z</time>
      </trkpt>
      <trkpt lat="46.10332" lon="6.74487">
        <ele>942</ele>
        <time>2019-08-15T06:41:56Z</time>
      </trkpt>
      <trkpt lat="46.10336" lon="6.74483">
        <ele>944</ele>
        <time>2019-08-15T06:42:03Z</time>
      </trkpt>
      <trkpt lat="46.1035" lon="6.74468">
        <ele>948</ele>
        <time>2019-08-15T06:42:26Z</time>
      </trkpt>
      <trkpt lat="46.10353" lon="6.74463">
        <ele>948</ele>
        <time>2019-08-15T06:42:32Z</time>
      </trkpt>
      <trkpt lat="46.10356" lon="6.74458">
        <ele>948</ele>
        <time>2019-08-15T06:42:38Z</time>
      </trkpt>
      <trkpt lat="46.1038" lon="6.74411">
        <ele>947</ele>
        <time>2019-08-15T06:43:32Z</time>
      </trkpt>
      <trkpt lat="46.10383" lon="6.74401">
        <ele>947</ele>
        <time>2019-08-15T06:43:42Z</time>
      </trkpt>
      <trkpt lat="46.10384" lon="6.74396">
        <ele>946</ele>
        <time>2019-08-15T06:43:47Z</time>
      </trkpt>
      <trkpt lat="46.10383" lon="6.74391">
        <ele>945</ele>
        <time>2019-08-15T06:43:52Z</time>
      </trkpt>
      <trkpt lat="46.10382" lon="6.74387">
        <ele>944</ele>
        <time>2019-08-15T06:43:56Z</time>
      </trkpt>
      <trkpt lat="46.10378" lon="6.74379">
        <ele>940</ele>
        <time>2019-08-15T06:44:05Z</time>
      </trkpt>
      <trkpt lat="46.10376" lon="6.74374">
        <ele>938</ele>
        <time>2019-08-15T06:44:10Z</time>
      </trkpt>
      <trkpt lat="46.10375" lon="6.74368">
        <ele>937</ele>
        <time>2019-08-15T06:44:16Z</time>
      </trkpt>
      <trkpt lat="46.10371" lon="6.74343">
        <ele>931</ele>
        <time>2019-08-15T06:44:40Z</time>
      </trkpt>
      <trkpt lat="46.10371" lon="6.74338">
        <ele>930</ele>
        <time>2019-08-15T06:44:45Z</time>
      </trkpt>
      <trkpt lat="46.10371" lon="6.74332">
        <ele>929</ele>
        <time>2019-08-15T06:44:50Z</time>
      </trkpt>
      <trkpt lat="46.10373" lon="6.74327">
        <ele>930</ele>
        <time>2019-08-15T06:44:55Z</time>
      </trkpt>
      <trkpt lat="46.10374" lon="6.74314">
        <ele>930</ele>
        <time>2019-08-15T06:45:08Z</time>
      </trkpt>
      <trkpt lat="46.10373" lon="6.7431">
        <ele>930</ele>
        <time>2019-08-15T06:45:11Z</time>
      </trkpt>
      <trkpt lat="46.10373" lon="6.7431">
        <ele>930</ele>
        <time>2019-08-15T06:45:12Z</time>
      </trkpt>
      <trkpt lat="46.10371" lon="6.74308">
        <ele>929</ele>
        <time>2019-08-15T06:45:15Z</time>
      </trkpt>
      <trkpt lat="46.10368" lon="6.74307">
        <ele>928</ele>
        <time>2019-08-15T06:45:19Z</time>
      </trkpt>
      <trkpt lat="46.10362" lon="6.74305">
        <ele>926</ele>
        <time>2019-08-15T06:45:27Z</time>
      </trkpt>
      <trkpt lat="46.10358" lon="6.74306">
        <ele>925</ele>
        <time>2019-08-15T06:45:33Z</time>
      </trkpt>
      <trkpt lat="46.10351" lon="6.74298">
        <ele>923</ele>
        <time>2019-08-15T06:45:44Z</time>
      </trkpt>
      <trkpt lat="46.10346" lon="6.74302">
        <ele>922</ele>
        <time>2019-08-15T06:45:52Z</time>
      </trkpt>
      <trkpt lat="46.10336" lon="6.74305">
        <ele>918</ele>
        <time>2019-08-15T06:46:06Z</time>
      </trkpt>
      <trkpt lat="46.10327" lon="6.74308">
        <ele>916</ele>
        <time>2019-08-15T06:46:18Z</time>
      </trkpt>
      <trkpt lat="46.10324" lon="6.743">
        <ele>916</ele>
        <time>2019-08-15T06:46:26Z</time>
      </trkpt>
      <trkpt lat="46.1032" lon="6.74293">
        <ele>917</ele>
        <time>2019-08-15T06:46:35Z</time>
      </trkpt>
      <trkpt lat="46.10306" lon="6.74285">
        <ele>916</ele>
        <time>2019-08-15T06:46:55Z</time>
      </trkpt>
      <trkpt lat="46.10299" lon="6.74283">
        <ele>915</ele>
        <time>2019-08-15T06:47:05Z</time>
      </trkpt>
      <trkpt lat="46.10292" lon="6.74282">
        <ele>914</ele>
        <time>2019-08-15T06:47:14Z</time>
      </trkpt>
      <trkpt lat="46.10263" lon="6.74285">
        <ele>909</ele>
        <time>2019-08-15T06:47:53Z</time>
      </trkpt>
      <trkpt lat="46.10234" lon="6.74288">
        <ele>903</ele>
        <time>2019-08-15T06:48:31Z</time>
      </trkpt>
      <trkpt lat="46.10191" lon="6.74276">
        <ele>895</ele>
        <time>2019-08-15T06:49:30Z</time>
      </trkpt>
      <trkpt lat="46.10168" lon="6.7427">
        <ele>890</ele>
        <time>2019-08-15T06:50:01Z</time>
      </trkpt>
      <trkpt lat="46.10159" lon="6.74271">
        <ele>888</ele>
        <time>2019-08-15T06:50:13Z</time>
      </trkpt>
      <trkpt lat="46.10144" lon="6.7428">
        <ele>885</ele>
        <time>2019-08-15T06:50:35Z</time>
      </trkpt>
      <trkpt lat="46.10134" lon="6.74283">
        <ele>883</ele>
        <time>2019-08-15T06:50:48Z</time>
      </trkpt>
      <trkpt lat="46.10115" lon="6.74293">
        <ele>879</ele>
        <time>2019-08-15T06:51:15Z</time>
      </trkpt>
      <trkpt lat="46.10119" lon="6.74318">
        <ele>877</ele>
        <time>2019-08-15T06:51:39Z</time>
      </trkpt>
      <trkpt lat="46.10112" lon="6.74322">
        <ele>875</ele>
        <time>2019-08-15T06:51:49Z</time>
      </trkpt>
      <trkpt lat="46.10082" lon="6.74314">
        <ele>872</ele>
        <time>2019-08-15T06:52:30Z</time>
      </trkpt>
      <trkpt lat="46.10054" lon="6.74312">
        <ele>870</ele>
        <time>2019-08-15T06:53:07Z</time>
      </trkpt>
      <trkpt lat="46.10026" lon="6.74311">
        <ele>867</ele>
        <time>2019-08-15T06:53:45Z</time>
      </trkpt>
      <trkpt lat="46.0999" lon="6.74294">
        <ele>864</ele>
        <time>2019-08-15T06:54:35Z</time>
      </trkpt>
      <trkpt lat="46.09931" lon="6.74263">
        <ele>858</ele>
        <time>2019-08-15T06:55:59Z</time>
      </trkpt>
      <trkpt lat="46.09907" lon="6.74249">
        <ele>856</ele>
        <time>2019-08-15T06:56:34Z</time>
      </trkpt>
      <trkpt lat="46.09886" lon="6.74246">
        <ele>854</ele>
        <time>2019-08-15T06:57:02Z</time>
      </trkpt>
      <trkpt lat="46.09855" lon="6.74252">
        <ele>851</ele>
        <time>2019-08-15T06:57:44Z</time>
      </trkpt>
      <trkpt lat="46.09821" lon="6.74243">
        <ele>847</ele>
        <time>2019-08-15T06:58:30Z</time>
      </trkpt>
      <trkpt lat="46.09789" lon="6.74217">
        <ele>841</ele>
        <time>2019-08-15T06:59:19Z</time>
      </trkpt>
      <trkpt lat="46.09754" lon="6.74234">
        <ele>834</ele>
        <time>2019-08-15T07:00:08Z</time>
      </trkpt>
      <trkpt lat="46.09734" lon="6.74262">
        <ele>832</ele>
        <time>2019-08-15T07:00:45Z</time>
      </trkpt>
      <trkpt lat="46.09721" lon="6.74278">
        <ele>831</ele>
        <time>2019-08-15T07:01:08Z</time>
      </trkpt>
      <trkpt lat="46.09705" lon="6.74283">
        <ele>830</ele>
        <time>2019-08-15T07:01:30Z</time>
      </trkpt>
      <trkpt lat="46.09687" lon="6.74272">
        <ele>827</ele>
        <time>2019-08-15T07:01:56Z</time>
      </trkpt>
      <trkpt lat="46.09669" lon="6.7427">
        <ele>825</ele>
        <time>2019-08-15T07:02:20Z</time>
      </trkpt>
      <trkpt lat="46.09652" lon="6.74276">
        <ele>824</ele>
        <time>2019-08-15T07:02:43Z</time>
      </trkpt>
      <trkpt lat="46.0964" lon="6.74259">
        <ele>823</ele>
        <time>2019-08-15T07:03:06Z</time>
      </trkpt>
      <trkpt lat="46.09628" lon="6.74215">
        <ele>822</ele>
        <time>2019-08-15T07:03:50Z</time>
      </trkpt>
      <trkpt lat="46.0961" lon="6.7419">
        <ele>821</ele>
        <time>2019-08-15T07:04:23Z</time>
      </trkpt>
      <trkpt lat="46.09594" lon="6.74169">
        <ele>820</ele>
        <time>2019-08-15T07:04:52Z</time>
      </trkpt>
      <trkpt lat="46.0958" lon="6.74167">
        <ele>819</ele>
        <time>2019-08-15T07:05:11Z</time>
      </trkpt>
      <trkpt lat="46.09556" lon="6.74178">
        <ele>817</ele>
        <time>2019-08-15T07:05:44Z</time>
      </trkpt>
      <trkpt lat="46.09532" lon="6.74163">
        <ele>816</ele>
        <time>2019-08-15T07:06:19Z</time>
      </trkpt>
      <trkpt lat="46.09508" lon="6.74148">
        <ele>816</ele>
        <time>2019-08-15T07:06:54Z</time>
      </trkpt>
      <trkpt lat="46.09478" lon="6.74128">
        <ele>815</ele>
        <time>2019-08-15T07:07:38Z</time>
      </trkpt>
      <trkpt lat="46.09466" lon="6.74123">
        <ele>813</ele>
        <time>2019-08-15T07:07:55Z</time>
      </trkpt>
      <trkpt lat="46.0946" lon="6.7413">
        <ele>812</ele>
        <time>2019-08-15T07:08:05Z</time>
      </trkpt>
      <trkpt lat="46.09458" lon="6.74146">
        <ele>810</ele>
        <time>2019-08-15T07:08:20Z</time>
      </trkpt>
      <trkpt lat="46.09454" lon="6.74155">
        <ele>808</ele>
        <time>2019-08-15T07:08:30Z</time>
      </trkpt>
      <trkpt lat="46.09436" lon="6.74155">
        <ele>806</ele>
        <time>2019-08-15T07:08:54Z</time>
      </trkpt>
      <trkpt lat="46.09423" lon="6.74152">
        <ele>804</ele>
        <time>2019-08-15T07:09:12Z</time>
      </trkpt>
      <trkpt lat="46.09403" lon="6.74148">
        <ele>803</ele>
        <time>2019-08-15T07:09:39Z</time>
      </trkpt>
      <trkpt lat="46.09367" lon="6.74124">
        <ele>801</ele>
        <time>2019-08-15T07:10:31Z</time>
      </trkpt>
      <trkpt lat="46.09335" lon="6.74112">
        <ele>798</ele>
        <time>2019-08-15T07:11:16Z</time>
      </trkpt>
      <trkpt lat="46.09314" lon="6.74099">
        <ele>796</ele>
        <time>2019-08-15T07:11:46Z</time>
      </trkpt>
      <trkpt lat="46.09298" lon="6.74109">
        <ele>795</ele>
        <time>2019-08-15T07:12:09Z</time>
      </trkpt>
      <trkpt lat="46.0928" lon="6.74103">
        <ele>794</ele>
        <time>2019-08-15T07:12:34Z</time>
      </trkpt>
      <trkpt lat="46.09248" lon="6.74073">
        <ele>791</ele>
        <time>2019-08-15T07:13:25Z</time>
      </trkpt>
      <trkpt lat="46.09219" lon="6.7405">
        <ele>787</ele>
        <time>2019-08-15T07:14:09Z</time>
      </trkpt>
      <trkpt lat="46.09203" lon="6.7402">
        <ele>786</ele>
        <time>2019-08-15T07:14:44Z</time>
      </trkpt>
      <trkpt lat="46.09189" lon="6.73999">
        <ele>786</ele>
        <time>2019-08-15T07:15:11Z</time>
      </trkpt>
      <trkpt lat="46.09164" lon="6.7398">
        <ele>785</ele>
        <time>2019-08-15T07:15:49Z</time>
      </trkpt>
      <trkpt lat="46.09139" lon="6.73972">
        <ele>781</ele>
        <time>2019-08-15T07:16:23Z</time>
      </trkpt>
      <trkpt lat="46.09117" lon="6.73973">
        <ele>779</ele>
        <time>2019-08-15T07:16:52Z</time>
      </trkpt>
      <trkpt lat="46.09103" lon="6.73975">
        <ele>778</ele>
        <time>2019-08-15T07:17:11Z</time>
      </trkpt>
      <trkpt lat="46.09094" lon="6.73954">
        <ele>776</ele>
        <time>2019-08-15T07:17:34Z</time>
      </trkpt>
      <trkpt lat="46.09093" lon="6.73947">
        <ele>776</ele>
        <time>2019-08-15T07:17:41Z</time>
      </trkpt>
      <trkpt lat="46.09086" lon="6.73946">
        <ele>775</ele>
        <time>2019-08-15T07:17:50Z</time>
      </trkpt>
      <trkpt lat="46.09081" lon="6.73945">
        <ele>774</ele>
        <time>2019-08-15T07:17:57Z</time>
      </trkpt>
      <trkpt lat="46.09076" lon="6.73943">
        <ele>774</ele>
        <time>2019-08-15T07:18:04Z</time>
      </trkpt>
      <trkpt lat="46.09072" lon="6.7394">
        <ele>774</ele>
        <time>2019-08-15T07:18:10Z</time>
      </trkpt>
      <trkpt lat="46.09068" lon="6.73936">
        <ele>773</ele>
        <time>2019-08-15T07:18:16Z</time>
      </trkpt>
      <trkpt lat="46.09042" lon="6.739">
        <ele>772</ele>
        <time>2019-08-15T07:19:04Z</time>
      </trkpt>
      <trkpt lat="46.09027" lon="6.73875">
        <ele>771</ele>
        <time>2019-08-15T07:19:35Z</time>
      </trkpt>
      <trkpt lat="46.09024" lon="6.7387">
        <ele>771</ele>
        <time>2019-08-15T07:19:41Z</time>
      </trkpt>
      <trkpt lat="46.09017" lon="6.73863">
        <ele>771</ele>
        <time>2019-08-15T07:19:52Z</time>
      </trkpt>
      <trkpt lat="46.0901" lon="6.73858">
        <ele>770</ele>
        <time>2019-08-15T07:20:03Z</time>
      </trkpt>
      <trkpt lat="46.09005" lon="6.73855">
        <ele>770</ele>
        <time>2019-08-15T07:20:10Z</time>
      </trkpt>
      <trkpt lat="46.09" lon="6.73853">
        <ele>770</ele>
        <time>2019-08-15T07:20:17Z</time>
      </trkpt>
      <trkpt lat="46.08949" lon="6.73841">
        <ele>767</ele>
        <time>2019-08-15T07:21:26Z</time>
      </trkpt>
      <trkpt lat="46.08915" lon="6.73833">
        <ele>765</ele>
        <time>2019-08-15T07:22:12Z</time>
      </trkpt>
      <trkpt lat="46.08909" lon="6.73832">
        <ele>765</ele>
        <time>2019-08-15T07:22:20Z</time>
      </trkpt>
      <trkpt lat="46.08904" lon="6.73831">
        <ele>765</ele>
        <time>2019-08-15T07:22:27Z</time>
      </trkpt>
      <trkpt lat="46.08883" lon="6.73831">
        <ele>764</ele>
        <time>2019-08-15T07:22:55Z</time>
      </trkpt>
      <trkpt lat="46.08878" lon="6.7383">
        <ele>764</ele>
        <time>2019-08-15T07:23:01Z</time>
      </trkpt>
      <trkpt lat="46.0887" lon="6.73825">
        <ele>763</ele>
        <time>2019-08-15T07:23:13Z</time>
      </trkpt>
      <trkpt lat="46.08866" lon="6.73822">
        <ele>763</ele>
        <time>2019-08-15T07:23:19Z</time>
      </trkpt>
      <trkpt lat="46.08852" lon="6.73807">
        <ele>763</ele>
        <time>2019-08-15T07:23:42Z</time>
      </trkpt>
      <trkpt lat="46.08848" lon="6.73804">
        <ele>763</ele>
        <time>2019-08-15T07:23:48Z</time>
      </trkpt>
      <trkpt lat="46.08844" lon="6.738">
        <ele>763</ele>
        <time>2019-08-15T07:23:55Z</time>
      </trkpt>
      <trkpt lat="46.08728" lon="6.7373">
        <ele>760</ele>
        <time>2019-08-15T07:26:43Z</time>
      </trkpt>
      <trkpt lat="46.08723" lon="6.73728">
        <ele>760</ele>
        <time>2019-08-15T07:26:50Z</time>
      </trkpt>
      <trkpt lat="46.0872" lon="6.73725">
        <ele>760</ele>
        <time>2019-08-15T07:26:54Z</time>
      </trkpt>
      <trkpt lat="46.08716" lon="6.73722">
        <ele>760</ele>
        <time>2019-08-15T07:27:00Z</time>
      </trkpt>
      <trkpt lat="46.08713" lon="6.73718">
        <ele>759</ele>
        <time>2019-08-15T07:27:06Z</time>
      </trkpt>
      <trkpt lat="46.0871" lon="6.73709">
        <ele>759</ele>
        <time>2019-08-15T07:27:15Z</time>
      </trkpt>
      <trkpt lat="46.08708" lon="6.73702">
        <ele>759</ele>
        <time>2019-08-15T07:27:22Z</time>
      </trkpt>
      <trkpt lat="46.08708" lon="6.73702">
        <ele>759</ele>
        <time>2019-08-15T07:27:22Z</time>
      </trkpt>
      <trkpt lat="46.08705" lon="6.73671">
        <ele>759</ele>
        <time>2019-08-15T07:27:51Z</time>
      </trkpt>
      <trkpt lat="46.08703" lon="6.73662">
        <ele>759</ele>
        <time>2019-08-15T07:28:00Z</time>
      </trkpt>
      <trkpt lat="46.08701" lon="6.73654">
        <ele>760</ele>
        <time>2019-08-15T07:28:08Z</time>
      </trkpt>
      <trkpt lat="46.08697" lon="6.73642">
        <ele>761</ele>
        <time>2019-08-15T07:28:20Z</time>
      </trkpt>
      <trkpt lat="46.08693" lon="6.73631">
        <ele>761</ele>
        <time>2019-08-15T07:28:32Z</time>
      </trkpt>
      <trkpt lat="46.08689" lon="6.73623">
        <ele>762</ele>
        <time>2019-08-15T07:28:41Z</time>
      </trkpt>
      <trkpt lat="46.08686" lon="6.73615">
        <ele>762</ele>
        <time>2019-08-15T07:28:49Z</time>
      </trkpt>
      <trkpt lat="46.08682" lon="6.7361">
        <ele>762</ele>
        <time>2019-08-15T07:28:56Z</time>
      </trkpt>
      <trkpt lat="46.08645" lon="6.73547">
        <ele>763</ele>
        <time>2019-08-15T07:30:13Z</time>
      </trkpt>
      <trkpt lat="46.0864" lon="6.7354">
        <ele>763</ele>
        <time>2019-08-15T07:30:22Z</time>
      </trkpt>
      <trkpt lat="46.08615" lon="6.73508">
        <ele>761</ele>
        <time>2019-08-15T07:31:06Z</time>
      </trkpt>
      <trkpt lat="46.0859" lon="6.73477">
        <ele>760</ele>
        <time>2019-08-15T07:31:50Z</time>
      </trkpt>
      <trkpt lat="46.08569" lon="6.73454">
        <ele>758</ele>
        <time>2019-08-15T07:32:26Z</time>
      </trkpt>
      <trkpt lat="46.08537" lon="6.73422">
        <ele>754</ele>
        <time>2019-08-15T07:33:18Z</time>
      </trkpt>
      <trkpt lat="46.08534" lon="6.73423">
        <ele>753</ele>
        <time>2019-08-15T07:33:22Z</time>
      </trkpt>
      <trkpt lat="46.0853" lon="6.73423">
        <ele>752</ele>
        <time>2019-08-15T07:33:27Z</time>
      </trkpt>
      <trkpt lat="46.08526" lon="6.73422">
        <ele>751</ele>
        <time>2019-08-15T07:33:33Z</time>
      </trkpt>
      <trkpt lat="46.08523" lon="6.7342">
        <ele>751</ele>
        <time>2019-08-15T07:33:37Z</time>
      </trkpt>
      <trkpt lat="46.08519" lon="6.73417">
        <ele>750</ele>
        <time>2019-08-15T07:33:43Z</time>
      </trkpt>
      <trkpt lat="46.08516" lon="6.73412">
        <ele>749</ele>
        <time>2019-08-15T07:33:49Z</time>
      </trkpt>
      <trkpt lat="46.08513" lon="6.73406">
        <ele>749</ele>
        <time>2019-08-15T07:33:56Z</time>
      </trkpt>
      <trkpt lat="46.08496" lon="6.7342">
        <ele>745</ele>
        <time>2019-08-15T07:34:22Z</time>
      </trkpt>
      <trkpt lat="46.08491" lon="6.73424">
        <ele>744</ele>
        <time>2019-08-15T07:34:30Z</time>
      </trkpt>
      <trkpt lat="46.08487" lon="6.73425">
        <ele>743</ele>
        <time>2019-08-15T07:34:35Z</time>
      </trkpt>
      <trkpt lat="46.08479" lon="6.73425">
        <ele>742</ele>
        <time>2019-08-15T07:34:46Z</time>
      </trkpt>
      <trkpt lat="46.08473" lon="6.73423">
        <ele>741</ele>
        <time>2019-08-15T07:34:54Z</time>
      </trkpt>
      <trkpt lat="46.0847" lon="6.7342">
        <ele>740</ele>
        <time>2019-08-15T07:34:59Z</time>
      </trkpt>
      <trkpt lat="46.08466" lon="6.73416">
        <ele>739</ele>
        <time>2019-08-15T07:35:05Z</time>
      </trkpt>
      <trkpt lat="46.08454" lon="6.73397">
        <ele>737</ele>
        <time>2019-08-15T07:35:29Z</time>
      </trkpt>
      <trkpt lat="46.0845" lon="6.73392">
        <ele>736</ele>
        <time>2019-08-15T07:35:36Z</time>
      </trkpt>
      <trkpt lat="46.08448" lon="6.73391">
        <ele>736</ele>
        <time>2019-08-15T07:35:39Z</time>
      </trkpt>
      <trkpt lat="46.08446" lon="6.73391">
        <ele>735</ele>
        <time>2019-08-15T07:35:42Z</time>
      </trkpt>
      <trkpt lat="46.08444" lon="6.73392">
        <ele>735</ele>
        <time>2019-08-15T07:35:45Z</time>
      </trkpt>
      <trkpt lat="46.08441" lon="6.73395">
        <ele>734</ele>
        <time>2019-08-15T07:35:49Z</time>
      </trkpt>
      <trkpt lat="46.08429" lon="6.73402">
        <ele>732</ele>
        <time>2019-08-15T07:36:07Z</time>
      </trkpt>
      <trkpt lat="46.08423" lon="6.73404">
        <ele>731</ele>
        <time>2019-08-15T07:36:15Z</time>
      </trkpt>
      <trkpt lat="46.08418" lon="6.73404">
        <ele>730</ele>
        <time>2019-08-15T07:36:22Z</time>
      </trkpt>
      <trkpt lat="46.08412" lon="6.73403">
        <ele>729</ele>
        <time>2019-08-15T07:36:30Z</time>
      </trkpt>
      <trkpt lat="46.08404" lon="6.73399">
        <ele>729</ele>
        <time>2019-08-15T07:36:41Z</time>
      </trkpt>
      <trkpt lat="46.08401" lon="6.73394">
        <ele>728</ele>
        <time>2019-08-15T07:36:47Z</time>
      </trkpt>
      <trkpt lat="46.08402" lon="6.73464">
        <ele>732</ele>
        <time>2019-08-15T07:37:52Z</time>
      </trkpt>
      <trkpt lat="46.08402" lon="6.73468">
        <ele>733</ele>
        <time>2019-08-15T07:37:56Z</time>
      </trkpt>
      <trkpt lat="46.08401" lon="6.73472">
        <ele>733</ele>
        <time>2019-08-15T07:37:59Z</time>
      </trkpt>
      <trkpt lat="46.08399" lon="6.73475">
        <ele>733</ele>
        <time>2019-08-15T07:38:03Z</time>
      </trkpt>
      <trkpt lat="46.08393" lon="6.73481">
        <ele>733</ele>
        <time>2019-08-15T07:38:13Z</time>
      </trkpt>
      <trkpt lat="46.08392" lon="6.73481">
        <ele>733</ele>
        <time>2019-08-15T07:38:14Z</time>
      </trkpt>
      <trkpt lat="46.0839" lon="6.7348">
        <ele>733</ele>
        <time>2019-08-15T07:38:17Z</time>
      </trkpt>
      <trkpt lat="46.08389" lon="6.73478">
        <ele>732</ele>
        <time>2019-08-15T07:38:20Z</time>
      </trkpt>
      <trkpt lat="46.08381" lon="6.7346">
        <ele>730</ele>
        <time>2019-08-15T07:38:39Z</time>
      </trkpt>
      <trkpt lat="46.08374" lon="6.73447">
        <ele>729</ele>
        <time>2019-08-15T07:38:55Z</time>
      </trkpt>
      <trkpt lat="46.08369" lon="6.73442">
        <ele>728</ele>
        <time>2019-08-15T07:39:03Z</time>
      </trkpt>
      <trkpt lat="46.08361" lon="6.73438">
        <ele>727</ele>
        <time>2019-08-15T07:39:14Z</time>
      </trkpt>
      <trkpt lat="46.08357" lon="6.73437">
        <ele>727</ele>
        <time>2019-08-15T07:39:19Z</time>
      </trkpt>
      <trkpt lat="46.08348" lon="6.73437">
        <ele>726</ele>
        <time>2019-08-15T07:39:31Z</time>
      </trkpt>
      <trkpt lat="46.08344" lon="6.73437">
        <ele>726</ele>
        <time>2019-08-15T07:39:37Z</time>
      </trkpt>
      <trkpt lat="46.08338" lon="6.73438">
        <ele>725</ele>
        <time>2019-08-15T07:39:45Z</time>
      </trkpt>
      <trkpt lat="46.08334" lon="6.73439">
        <ele>725</ele>
        <time>2019-08-15T07:39:50Z</time>
      </trkpt>
      <trkpt lat="46.08312" lon="6.73446">
        <ele>725</ele>
        <time>2019-08-15T07:40:20Z</time>
      </trkpt>
      <trkpt lat="46.08308" lon="6.73446">
        <ele>725</ele>
        <time>2019-08-15T07:40:26Z</time>
      </trkpt>
      <trkpt lat="46.08304" lon="6.73444">
        <ele>725</ele>
        <time>2019-08-15T07:40:31Z</time>
      </trkpt>
      <trkpt lat="46.083" lon="6.73443">
        <ele>725</ele>
        <time>2019-08-15T07:40:37Z</time>
      </trkpt>
      <trkpt lat="46.08293" lon="6.73437">
        <ele>724</ele>
        <time>2019-08-15T07:40:48Z</time>
      </trkpt>
      <trkpt lat="46.08268" lon="6.73419">
        <ele>722</ele>
        <time>2019-08-15T07:41:25Z</time>
      </trkpt>
      <trkpt lat="46.08239" lon="6.73396">
        <ele>721</ele>
        <time>2019-08-15T07:42:09Z</time>
      </trkpt>
      <trkpt lat="46.08209" lon="6.73372">
        <ele>719</ele>
        <time>2019-08-15T07:42:55Z</time>
      </trkpt>
      <trkpt lat="46.0819" lon="6.73354">
        <ele>718</ele>
        <time>2019-08-15T07:43:25Z</time>
      </trkpt>
      <trkpt lat="46.08178" lon="6.73341">
        <ele>717</ele>
        <time>2019-08-15T07:43:45Z</time>
      </trkpt>
      <trkpt lat="46.08179" lon="6.73339">
        <ele>717</ele>
        <time>2019-08-15T07:43:47Z</time>
      </trkpt>
      <trkpt lat="46.08161" lon="6.73319">
        <ele>716</ele>
        <time>2019-08-15T07:44:18Z</time>
      </trkpt>
      <trkpt lat="46.08139" lon="6.73291">
        <ele>716</ele>
        <time>2019-08-15T07:44:57Z</time>
      </trkpt>
      <trkpt lat="46.08117" lon="6.73262">
        <ele>716</ele>
        <time>2019-08-15T07:45:37Z</time>
      </trkpt>
      <trkpt lat="46.08047" lon="6.73166">
        <ele>714</ele>
        <time>2019-08-15T07:47:46Z</time>
      </trkpt>
      <trkpt lat="46.08045" lon="6.73168">
        <ele>714</ele>
        <time>2019-08-15T07:47:49Z</time>
      </trkpt>
      <trkpt lat="46.08024" lon="6.73125">
        <ele>713</ele>
        <time>2019-08-15T07:48:38Z</time>
      </trkpt>
      <trkpt lat="46.08004" lon="6.73082">
        <ele>712</ele>
        <time>2019-08-15T07:49:25Z</time>
      </trkpt>
      <trkpt lat="46.0793" lon="6.73007">
        <ele>714</ele>
        <time>2019-08-15T07:51:26Z</time>
      </trkpt>
      <trkpt lat="46.07909" lon="6.72986">
        <ele>714</ele>
        <time>2019-08-15T07:52:00Z</time>
      </trkpt>
      <trkpt lat="46.07912" lon="6.72981">
        <ele>714</ele>
        <time>2019-08-15T07:52:06Z</time>
      </trkpt>
      <trkpt lat="46.07911" lon="6.72979">
        <ele>714</ele>
        <time>2019-08-15T07:52:09Z</time>
      </trkpt>
      <trkpt lat="46.07893" lon="6.72957">
        <ele>715</ele>
        <time>2019-08-15T07:52:40Z</time>
      </trkpt>
      <trkpt lat="46.0787" lon="6.72932">
        <ele>716</ele>
        <time>2019-08-15T07:53:19Z</time>
      </trkpt>
      <trkpt lat="46.07841" lon="6.7291">
        <ele>717</ele>
        <time>2019-08-15T07:54:02Z</time>
      </trkpt>
      <trkpt lat="46.07813" lon="6.72887">
        <ele>715</ele>
        <time>2019-08-15T07:54:45Z</time>
      </trkpt>
      <trkpt lat="46.07723" lon="6.72787">
        <ele>711</ele>
        <time>2019-08-15T07:57:17Z</time>
      </trkpt>
      <trkpt lat="46.07693" lon="6.72754">
        <ele>711</ele>
        <time>2019-08-15T07:58:07Z</time>
      </trkpt>
      <trkpt lat="46.07658" lon="6.72725">
        <ele>710</ele>
        <time>2019-08-15T07:59:01Z</time>
      </trkpt>
      <trkpt lat="46.07634" lon="6.72718">
        <ele>709</ele>
        <time>2019-08-15T07:59:34Z</time>
      </trkpt>
      <trkpt lat="46.07633" lon="6.7274">
        <ele>709</ele>
        <time>2019-08-15T07:59:54Z</time>
      </trkpt>
      <trkpt lat="46.07629" lon="6.72748">
        <ele>708</ele>
        <time>2019-08-15T08:00:03Z</time>
      </trkpt>
      <trkpt lat="46.07624" lon="6.72775">
        <ele>708</ele>
        <time>2019-08-15T08:00:29Z</time>
      </trkpt>
      <trkpt lat="46.07626" lon="6.72816">
        <ele>709</ele>
        <time>2019-08-15T08:01:07Z</time>
      </trkpt>
      <trkpt lat="46.07635" lon="6.72837">
        <ele>709</ele>
        <time>2019-08-15T08:01:30Z</time>
      </trkpt>
      <trkpt lat="46.07636" lon="6.7286">
        <ele>710</ele>
        <time>2019-08-15T08:01:52Z</time>
      </trkpt>
      <trkpt lat="46.07629" lon="6.72901">
        <ele>709</ele>
        <time>2019-08-15T08:02:31Z</time>
      </trkpt>
      <trkpt lat="46.07621" lon="6.72943">
        <ele>708</ele>
        <time>2019-08-15T08:03:11Z</time>
      </trkpt>
      <trkpt lat="46.07602" lon="6.7299">
        <ele>707</ele>
        <time>2019-08-15T08:04:01Z</time>
      </trkpt>
      <trkpt lat="46.07577" lon="6.7302">
        <ele>706</ele>
        <time>2019-08-15T08:04:45Z</time>
      </trkpt>
      <trkpt lat="46.07451" lon="6.73101">
        <ele>709</ele>
        <time>2019-08-15T08:07:49Z</time>
      </trkpt>
      <trkpt lat="46.07413" lon="6.73126">
        <ele>709</ele>
        <time>2019-08-15T08:08:45Z</time>
      </trkpt>
      <trkpt lat="46.07267" lon="6.73198">
        <ele>715</ele>
        <time>2019-08-15T08:12:10Z</time>
      </trkpt>
      <trkpt lat="46.0723" lon="6.73216">
        <ele>717</ele>
        <time>2019-08-15T08:13:03Z</time>
      </trkpt>
      <trkpt lat="46.07204" lon="6.73216">
        <ele>718</ele>
        <time>2019-08-15T08:13:37Z</time>
      </trkpt>
      <trkpt lat="46.07179" lon="6.73217">
        <ele>719</ele>
        <time>2019-08-15T08:14:11Z</time>
      </trkpt>
      <trkpt lat="46.07157" lon="6.73232">
        <ele>720</ele>
        <time>2019-08-15T08:14:43Z</time>
      </trkpt>
      <trkpt lat="46.07134" lon="6.73247">
        <ele>721</ele>
        <time>2019-08-15T08:15:17Z</time>
      </trkpt>
      <trkpt lat="46.0711" lon="6.73261">
        <ele>721</ele>
        <time>2019-08-15T08:15:51Z</time>
      </trkpt>
      <trkpt lat="46.07085" lon="6.73275">
        <ele>722</ele>
        <time>2019-08-15T08:16:27Z</time>
      </trkpt>
      <trkpt lat="46.07055" lon="6.73302">
        <ele>729</ele>
        <time>2019-08-15T08:17:14Z</time>
      </trkpt>
      <trkpt lat="46.07026" lon="6.73329">
        <ele>730</ele>
        <time>2019-08-15T08:18:00Z</time>
      </trkpt>
      <trkpt lat="46.07001" lon="6.73364">
        <ele>728</ele>
        <time>2019-08-15T08:18:47Z</time>
      </trkpt>
      <trkpt lat="46.06977" lon="6.73398">
        <ele>728</ele>
        <time>2019-08-15T08:19:32Z</time>
      </trkpt>
      <trkpt lat="46.06934" lon="6.73472">
        <ele>725</ele>
        <time>2019-08-15T08:21:01Z</time>
      </trkpt>
      <trkpt lat="46.06913" lon="6.7351">
        <ele>722</ele>
        <time>2019-08-15T08:21:46Z</time>
      </trkpt>
      <trkpt lat="46.06891" lon="6.73545">
        <ele>724</ele>
        <time>2019-08-15T08:22:30Z</time>
      </trkpt>
      <trkpt lat="46.06872" lon="6.73574">
        <ele>724</ele>
        <time>2019-08-15T08:23:07Z</time>
      </trkpt>
      <trkpt lat="46.06849" lon="6.73599">
        <ele>724</ele>
        <time>2019-08-15T08:23:45Z</time>
      </trkpt>
      <trkpt lat="46.06826" lon="6.73623">
        <ele>725</ele>
        <time>2019-08-15T08:24:23Z</time>
      </trkpt>
      <trkpt lat="46.06785" lon="6.73634">
        <ele>725</ele>
        <time>2019-08-15T08:25:19Z</time>
      </trkpt>
      <trkpt lat="46.06744" lon="6.73645">
        <ele>726</ele>
        <time>2019-08-15T08:26:14Z</time>
      </trkpt>
      <trkpt lat="46.06569" lon="6.73729">
        <ele>726</ele>
        <time>2019-08-15T08:30:21Z</time>
      </trkpt>
      <trkpt lat="46.06533" lon="6.73746">
        <ele>727</ele>
        <time>2019-08-15T08:31:11Z</time>
      </trkpt>
      <trkpt lat="46.06425" lon="6.73791">
        <ele>731</ele>
        <time>2019-08-15T08:33:41Z</time>
      </trkpt>
      <trkpt lat="46.06389" lon="6.73806">
        <ele>732</ele>
        <time>2019-08-15T08:34:31Z</time>
      </trkpt>
      <trkpt lat="46.06382" lon="6.73807">
        <ele>733</ele>
        <time>2019-08-15T08:34:41Z</time>
      </trkpt>
      <trkpt lat="46.06345" lon="6.73814">
        <ele>734</ele>
        <time>2019-08-15T08:35:30Z</time>
      </trkpt>
      <trkpt lat="46.06318" lon="6.73833">
        <ele>733</ele>
        <time>2019-08-15T08:36:11Z</time>
      </trkpt>
      <trkpt lat="46.0629" lon="6.73851">
        <ele>736</ele>
        <time>2019-08-15T08:36:51Z</time>
      </trkpt>
      <trkpt lat="46.06268" lon="6.73907">
        <ele>731</ele>
        <time>2019-08-15T08:37:51Z</time>
      </trkpt>
      <trkpt lat="46.06246" lon="6.73962">
        <ele>728</ele>
        <time>2019-08-15T08:38:50Z</time>
      </trkpt>
      <trkpt lat="46.06225" lon="6.74003">
        <ele>727</ele>
        <time>2019-08-15T08:39:37Z</time>
      </trkpt>
      <trkpt lat="46.06205" lon="6.74043">
        <ele>727</ele>
        <time>2019-08-15T08:40:23Z</time>
      </trkpt>
      <trkpt lat="46.06184" lon="6.74083">
        <ele>727</ele>
        <time>2019-08-15T08:41:09Z</time>
      </trkpt>
      <trkpt lat="46.06164" lon="6.74123">
        <ele>725</ele>
        <time>2019-08-15T08:41:55Z</time>
      </trkpt>
      <trkpt lat="46.06109" lon="6.74205">
        <ele>727</ele>
        <time>2019-08-15T08:43:40Z</time>
      </trkpt>
      <trkpt lat="46.06082" lon="6.74246">
        <ele>726</ele>
        <time>2019-08-15T08:44:33Z</time>
      </trkpt>
      <trkpt lat="46.06076" lon="6.74284">
        <ele>726</ele>
        <time>2019-08-15T08:45:09Z</time>
      </trkpt>
      <trkpt lat="46.06066" lon="6.74304">
        <ele>727</ele>
        <time>2019-08-15T08:45:32Z</time>
      </trkpt>
      <trkpt lat="46.05982" lon="6.74459">
        <ele>729</ele>
        <time>2019-08-15T08:48:34Z</time>
      </trkpt>
      <trkpt lat="46.05956" lon="6.74503">
        <ele>729</ele>
        <time>2019-08-15T08:49:27Z</time>
      </trkpt>
      <trkpt lat="46.05928" lon="6.74581">
        <ele>728</ele>
        <time>2019-08-15T08:50:49Z</time>
      </trkpt>
      <trkpt lat="46.05926" lon="6.74584">
        <ele>729</ele>
        <time>2019-08-15T08:50:52Z</time>
      </trkpt>
      <trkpt lat="46.05894" lon="6.74546">
        <ele>736</ele>
        <time>2019-08-15T08:51:48Z</time>
      </trkpt>
      <trkpt lat="46.05892" lon="6.74541">
        <ele>737</ele>
        <time>2019-08-15T08:51:53Z</time>
      </trkpt>
      <trkpt lat="46.05891" lon="6.74535">
        <ele>737</ele>
        <time>2019-08-15T08:51:59Z</time>
      </trkpt>
      <trkpt lat="46.05886" lon="6.74464">
        <ele>742</ele>
        <time>2019-08-15T08:53:05Z</time>
      </trkpt>
      <trkpt lat="46.05885" lon="6.74457">
        <ele>743</ele>
        <time>2019-08-15T08:53:11Z</time>
      </trkpt>
      <trkpt lat="46.05882" lon="6.74451">
        <ele>744</ele>
        <time>2019-08-15T08:53:18Z</time>
      </trkpt>
      <trkpt lat="46.05879" lon="6.74447">
        <ele>745</ele>
        <time>2019-08-15T08:53:24Z</time>
      </trkpt>
      <trkpt lat="46.05873" lon="6.74441">
        <ele>747</ele>
        <time>2019-08-15T08:53:34Z</time>
      </trkpt>
      <trkpt lat="46.05871" lon="6.74437">
        <ele>747</ele>
        <time>2019-08-15T08:53:38Z</time>
      </trkpt>
      <trkpt lat="46.0587" lon="6.74431">
        <ele>748</ele>
        <time>2019-08-15T08:53:44Z</time>
      </trkpt>
      <trkpt lat="46.05869" lon="6.74426">
        <ele>748</ele>
        <time>2019-08-15T08:53:49Z</time>
      </trkpt>
      <trkpt lat="46.05869" lon="6.7442">
        <ele>749</ele>
        <time>2019-08-15T08:53:54Z</time>
      </trkpt>
      <trkpt lat="46.0587" lon="6.74414">
        <ele>749</ele>
        <time>2019-08-15T08:54:00Z</time>
      </trkpt>
      <trkpt lat="46.05876" lon="6.74388">
        <ele>752</ele>
        <time>2019-08-15T08:54:25Z</time>
      </trkpt>
      <trkpt lat="46.05877" lon="6.74381">
        <ele>753</ele>
        <time>2019-08-15T08:54:32Z</time>
      </trkpt>
      <trkpt lat="46.05877" lon="6.74376">
        <ele>754</ele>
        <time>2019-08-15T08:54:37Z</time>
      </trkpt>
      <trkpt lat="46.05876" lon="6.7437">
        <ele>755</ele>
        <time>2019-08-15T08:54:42Z</time>
      </trkpt>
      <trkpt lat="46.05874" lon="6.74365">
        <ele>756</ele>
        <time>2019-08-15T08:54:48Z</time>
      </trkpt>
      <trkpt lat="46.05871" lon="6.7436">
        <ele>757</ele>
        <time>2019-08-15T08:54:54Z</time>
      </trkpt>
      <trkpt lat="46.05868" lon="6.74358">
        <ele>758</ele>
        <time>2019-08-15T08:54:58Z</time>
      </trkpt>
      <trkpt lat="46.05864" lon="6.74357">
        <ele>758</ele>
        <time>2019-08-15T08:55:04Z</time>
      </trkpt>
      <trkpt lat="46.0586" lon="6.74357">
        <ele>759</ele>
        <time>2019-08-15T08:55:09Z</time>
      </trkpt>
      <trkpt lat="46.05845" lon="6.74365">
        <ele>759</ele>
        <time>2019-08-15T08:55:30Z</time>
      </trkpt>
      <trkpt lat="46.0584" lon="6.74369">
        <ele>759</ele>
        <time>2019-08-15T08:55:38Z</time>
      </trkpt>
      <trkpt lat="46.05832" lon="6.74378">
        <ele>759</ele>
        <time>2019-08-15T08:55:51Z</time>
      </trkpt>
      <trkpt lat="46.05807" lon="6.74416">
        <ele>758</ele>
        <time>2019-08-15T08:56:40Z</time>
      </trkpt>
      <trkpt lat="46.05797" lon="6.74427">
        <ele>760</ele>
        <time>2019-08-15T08:56:57Z</time>
      </trkpt>
      <trkpt lat="46.05776" lon="6.74451">
        <ele>763</ele>
        <time>2019-08-15T08:57:32Z</time>
      </trkpt>
      <trkpt lat="46.05769" lon="6.74461">
        <ele>765</ele>
        <time>2019-08-15T08:57:46Z</time>
      </trkpt>
      <trkpt lat="46.05766" lon="6.74467">
        <ele>765</ele>
        <time>2019-08-15T08:57:52Z</time>
      </trkpt>
      <trkpt lat="46.05758" lon="6.74485">
        <ele>767</ele>
        <time>2019-08-15T08:58:12Z</time>
      </trkpt>
      <trkpt lat="46.05753" lon="6.74499">
        <ele>767</ele>
        <time>2019-08-15T08:58:27Z</time>
      </trkpt>
      <trkpt lat="46.05711" lon="6.74585">
        <ele>777</ele>
        <time>2019-08-15T09:00:04Z</time>
      </trkpt>
      <trkpt lat="46.05699" lon="6.74614">
        <ele>775</ele>
        <time>2019-08-15T09:00:35Z</time>
      </trkpt>
      <trkpt lat="46.05671" lon="6.74665">
        <ele>775</ele>
        <time>2019-08-15T09:01:36Z</time>
      </trkpt>
      <trkpt lat="46.05647" lon="6.74707">
        <ele>777</ele>
        <time>2019-08-15T09:02:26Z</time>
      </trkpt>
      <trkpt lat="46.05638" lon="6.74746">
        <ele>777</ele>
        <time>2019-08-15T09:03:04Z</time>
      </trkpt>
      <trkpt lat="46.05632" lon="6.74778">
        <ele>775</ele>
        <time>2019-08-15T09:03:35Z</time>
      </trkpt>
      <trkpt lat="46.0563" lon="6.74818">
        <ele>772</ele>
        <time>2019-08-15T09:04:12Z</time>
      </trkpt>
      <trkpt lat="46.05631" lon="6.74832">
        <ele>770</ele>
        <time>2019-08-15T09:04:25Z</time>
      </trkpt>
      <trkpt lat="46.0563" lon="6.74881">
        <ele>765</ele>
        <time>2019-08-15T09:05:10Z</time>
      </trkpt>
      <trkpt lat="46.05619" lon="6.74908">
        <ele>765</ele>
        <time>2019-08-15T09:05:39Z</time>
      </trkpt>
      <trkpt lat="46.05593" lon="6.74944">
        <ele>766</ele>
        <time>2019-08-15T09:06:27Z</time>
      </trkpt>
      <trkpt lat="46.05564" lon="6.74985">
        <ele>763</ele>
        <time>2019-08-15T09:07:22Z</time>
      </trkpt>
      <trkpt lat="46.05514" lon="6.75061">
        <ele>759</ele>
        <time>2019-08-15T09:08:59Z</time>
      </trkpt>
      <trkpt lat="46.05504" lon="6.75096">
        <ele>756</ele>
        <time>2019-08-15T09:09:34Z</time>
      </trkpt>
      <trkpt lat="46.05495" lon="6.75135">
        <ele>757</ele>
        <time>2019-08-15T09:10:12Z</time>
      </trkpt>
      <trkpt lat="46.0551" lon="6.75179">
        <ele>748</ele>
        <time>2019-08-15T09:10:57Z</time>
      </trkpt>
      <trkpt lat="46.05527" lon="6.75214">
        <ele>744</ele>
        <time>2019-08-15T09:11:37Z</time>
      </trkpt>
      <trkpt lat="46.05536" lon="6.75243">
        <ele>741</ele>
        <time>2019-08-15T09:12:06Z</time>
      </trkpt>
      <trkpt lat="46.05536" lon="6.75288">
        <ele>741</ele>
        <time>2019-08-15T09:12:48Z</time>
      </trkpt>
      <trkpt lat="46.05542" lon="6.75333">
        <ele>740</ele>
        <time>2019-08-15T09:13:30Z</time>
      </trkpt>
      <trkpt lat="46.05558" lon="6.75374">
        <ele>740</ele>
        <time>2019-08-15T09:14:14Z</time>
      </trkpt>
      <trkpt lat="46.05569" lon="6.75425">
        <ele>741</ele>
        <time>2019-08-15T09:15:03Z</time>
      </trkpt>
      <trkpt lat="46.05574" lon="6.75467">
        <ele>742</ele>
        <time>2019-08-15T09:15:43Z</time>
      </trkpt>
      <trkpt lat="46.0557" lon="6.75508">
        <ele>744</ele>
        <time>2019-08-15T09:16:21Z</time>
      </trkpt>
      <trkpt lat="46.0557" lon="6.7551">
        <ele>744</ele>
        <time>2019-08-15T09:16:23Z</time>
      </trkpt>
      <trkpt lat="46.05551" lon="6.75559">
        <ele>751</ele>
        <time>2019-08-15T09:17:15Z</time>
      </trkpt>
      <trkpt lat="46.0555" lon="6.7558">
        <ele>754</ele>
        <time>2019-08-15T09:17:34Z</time>
      </trkpt>
      <trkpt lat="46.0555" lon="6.7558">
        <ele>754</ele>
        <time>2019-08-15T09:17:34Z</time>
      </trkpt>
      <trkpt lat="46.05541" lon="6.75589">
        <ele>756</ele>
        <time>2019-08-15T09:17:49Z</time>
      </trkpt>
      <trkpt lat="46.05518" lon="6.75605">
        <ele>763</ele>
        <time>2019-08-15T09:18:23Z</time>
      </trkpt>
      <trkpt lat="46.05495" lon="6.75621">
        <ele>770</ele>
        <time>2019-08-15T09:18:57Z</time>
      </trkpt>
      <trkpt lat="46.05471" lon="6.75646">
        <ele>780</ele>
        <time>2019-08-15T09:19:37Z</time>
      </trkpt>
      <trkpt lat="46.05448" lon="6.7567">
        <ele>787</ele>
        <time>2019-08-15T09:20:15Z</time>
      </trkpt>
      <trkpt lat="46.05398" lon="6.75696">
        <ele>799</ele>
        <time>2019-08-15T09:21:26Z</time>
      </trkpt>
      <trkpt lat="46.0537" lon="6.75743">
        <ele>819</ele>
        <time>2019-08-15T09:22:23Z</time>
      </trkpt>
      <trkpt lat="46.05365" lon="6.75776">
        <ele>827</ele>
        <time>2019-08-15T09:22:54Z</time>
      </trkpt>
      <trkpt lat="46.05359" lon="6.75808">
        <ele>834</ele>
        <time>2019-08-15T09:23:25Z</time>
      </trkpt>
      <trkpt lat="46.05357" lon="6.75823">
        <ele>837</ele>
        <time>2019-08-15T09:23:39Z</time>
      </trkpt>
      <trkpt lat="46.05357" lon="6.75871">
        <ele>840</ele>
        <time>2019-08-15T09:24:24Z</time>
      </trkpt>
      <trkpt lat="46.05357" lon="6.75885">
        <ele>840</ele>
        <time>2019-08-15T09:24:36Z</time>
      </trkpt>
      <trkpt lat="46.05347" lon="6.75924">
        <ele>847</ele>
        <time>2019-08-15T09:25:15Z</time>
      </trkpt>
      <trkpt lat="46.05337" lon="6.75962">
        <ele>854</ele>
        <time>2019-08-15T09:25:53Z</time>
      </trkpt>
      <trkpt lat="46.05317" lon="6.76009">
        <ele>870</ele>
        <time>2019-08-15T09:26:44Z</time>
      </trkpt>
      <trkpt lat="46.05296" lon="6.76009">
        <ele>884</ele>
        <time>2019-08-15T09:27:12Z</time>
      </trkpt>
      <trkpt lat="46.05287" lon="6.76016">
        <ele>890</ele>
        <time>2019-08-15T09:27:25Z</time>
      </trkpt>
      <trkpt lat="46.05309" lon="6.76053">
        <ele>878</ele>
        <time>2019-08-15T09:28:10Z</time>
      </trkpt>
      <trkpt lat="46.05314" lon="6.76061">
        <ele>876</ele>
        <time>2019-08-15T09:28:20Z</time>
      </trkpt>
      <trkpt lat="46.05308" lon="6.76078">
        <ele>881</ele>
        <time>2019-08-15T09:28:38Z</time>
      </trkpt>
      <trkpt lat="46.05318" lon="6.76097">
        <ele>873</ele>
        <time>2019-08-15T09:29:00Z</time>
      </trkpt>
      <trkpt lat="46.05336" lon="6.76155">
        <ele>853</ele>
        <time>2019-08-15T09:29:59Z</time>
      </trkpt>
      <trkpt lat="46.05324" lon="6.76198">
        <ele>848</ele>
        <time>2019-08-15T09:30:42Z</time>
      </trkpt>
      <trkpt lat="46.05312" lon="6.76233">
        <ele>844</ele>
        <time>2019-08-15T09:31:18Z</time>
      </trkpt>
      <trkpt lat="46.05282" lon="6.76263">
        <ele>855</ele>
        <time>2019-08-15T09:32:07Z</time>
      </trkpt>
      <trkpt lat="46.05273" lon="6.76288">
        <ele>847</ele>
        <time>2019-08-15T09:32:33Z</time>
      </trkpt>
      <trkpt lat="46.05252" lon="6.76327">
        <ele>837</ele>
        <time>2019-08-15T09:33:19Z</time>
      </trkpt>
      <trkpt lat="46.05218" lon="6.76338">
        <ele>831</ele>
        <time>2019-08-15T09:34:05Z</time>
      </trkpt>
      <trkpt lat="46.05227" lon="6.76346">
        <ele>826</ele>
        <time>2019-08-15T09:34:19Z</time>
      </trkpt>
      <trkpt lat="46.05208" lon="6.76383">
        <ele>804</ele>
        <time>2019-08-15T09:35:02Z</time>
      </trkpt>
      <trkpt lat="46.05181" lon="6.76387">
        <ele>801</ele>
        <time>2019-08-15T09:35:38Z</time>
      </trkpt>
      <trkpt lat="46.05155" lon="6.76401">
        <ele>793</ele>
        <time>2019-08-15T09:36:15Z</time>
      </trkpt>
      <trkpt lat="46.05129" lon="6.76415">
        <ele>784</ele>
        <time>2019-08-15T09:36:52Z</time>
      </trkpt>
      <trkpt lat="46.05095" lon="6.76426">
        <ele>780</ele>
        <time>2019-08-15T09:37:39Z</time>
      </trkpt>
      <trkpt lat="46.05053" lon="6.76419">
        <ele>780</ele>
        <time>2019-08-15T09:38:35Z</time>
      </trkpt>
      <trkpt lat="46.0502" lon="6.76419">
        <ele>778</ele>
        <time>2019-08-15T09:39:19Z</time>
      </trkpt>
      <trkpt lat="46.04991" lon="6.7641">
        <ele>779</ele>
        <time>2019-08-15T09:39:59Z</time>
      </trkpt>
      <trkpt lat="46.04962" lon="6.76401">
        <ele>779</ele>
        <time>2019-08-15T09:40:38Z</time>
      </trkpt>
      <trkpt lat="46.04943" lon="6.76394">
        <ele>779</ele>
        <time>2019-08-15T09:41:04Z</time>
      </trkpt>
      <trkpt lat="46.04924" lon="6.7639">
        <ele>778</ele>
        <time>2019-08-15T09:41:30Z</time>
      </trkpt>
      <trkpt lat="46.04894" lon="6.76406">
        <ele>771</ele>
        <time>2019-08-15T09:42:13Z</time>
      </trkpt>
      <trkpt lat="46.0485" lon="6.76401">
        <ele>769</ele>
        <time>2019-08-15T09:43:12Z</time>
      </trkpt>
      <trkpt lat="46.04814" lon="6.76406">
        <ele>767</ele>
        <time>2019-08-15T09:44:00Z</time>
      </trkpt>
      <trkpt lat="46.04772" lon="6.76401">
        <ele>768</ele>
        <time>2019-08-15T09:44:56Z</time>
      </trkpt>
      <trkpt lat="46.04763" lon="6.76425">
        <ele>765</ele>
        <time>2019-08-15T09:45:21Z</time>
      </trkpt>
      <trkpt lat="46.04762" lon="6.7643">
        <ele>765</ele>
        <time>2019-08-15T09:45:26Z</time>
      </trkpt>
      <trkpt lat="46.04765" lon="6.76449">
        <ele>766</ele>
        <time>2019-08-15T09:45:44Z</time>
      </trkpt>
      <trkpt lat="46.04769" lon="6.76466">
        <ele>768</ele>
        <time>2019-08-15T09:46:01Z</time>
      </trkpt>
      <trkpt lat="46.04772" lon="6.76476">
        <ele>768</ele>
        <time>2019-08-15T09:46:11Z</time>
      </trkpt>
      <trkpt lat="46.04784" lon="6.76499">
        <ele>768</ele>
        <time>2019-08-15T09:46:38Z</time>
      </trkpt>
      <trkpt lat="46.04787" lon="6.76504">
        <ele>769</ele>
        <time>2019-08-15T09:46:44Z</time>
      </trkpt>
      <trkpt lat="46.04788" lon="6.76508">
        <ele>769</ele>
        <time>2019-08-15T09:46:48Z</time>
      </trkpt>
      <trkpt lat="46.04788" lon="6.76512">
        <ele>770</ele>
        <time>2019-08-15T09:46:51Z</time>
      </trkpt>
      <trkpt lat="46.04775" lon="6.76551">
        <ele>776</ele>
        <time>2019-08-15T09:47:32Z</time>
      </trkpt>
      <trkpt lat="46.04771" lon="6.76561">
        <ele>778</ele>
        <time>2019-08-15T09:47:42Z</time>
      </trkpt>
      <trkpt lat="46.04764" lon="6.76573">
        <ele>781</ele>
        <time>2019-08-15T09:47:57Z</time>
      </trkpt>
      <trkpt lat="46.04744" lon="6.76603">
        <ele>786</ele>
        <time>2019-08-15T09:48:35Z</time>
      </trkpt>
      <trkpt lat="46.04738" lon="6.76614">
        <ele>787</ele>
        <time>2019-08-15T09:48:48Z</time>
      </trkpt>
      <trkpt lat="46.04736" lon="6.76625">
        <ele>788</ele>
        <time>2019-08-15T09:48:59Z</time>
      </trkpt>
      <trkpt lat="46.0471" lon="6.76626">
        <ele>789</ele>
        <time>2019-08-15T09:49:33Z</time>
      </trkpt>
      <trkpt lat="46.04707" lon="6.76627">
        <ele>789</ele>
        <time>2019-08-15T09:49:38Z</time>
      </trkpt>
      <trkpt lat="46.04705" lon="6.76629">
        <ele>789</ele>
        <time>2019-08-15T09:49:41Z</time>
      </trkpt>
      <trkpt lat="46.04703" lon="6.76631">
        <ele>790</ele>
        <time>2019-08-15T09:49:44Z</time>
      </trkpt>
      <trkpt lat="46.04697" lon="6.76653">
        <ele>793</ele>
        <time>2019-08-15T09:50:06Z</time>
      </trkpt>
      <trkpt lat="46.04696" lon="6.76657">
        <ele>793</ele>
        <time>2019-08-15T09:50:10Z</time>
      </trkpt>
      <trkpt lat="46.04694" lon="6.76662">
        <ele>794</ele>
        <time>2019-08-15T09:50:15Z</time>
      </trkpt>
      <trkpt lat="46.04686" lon="6.76682">
        <ele>797</ele>
        <time>2019-08-15T09:50:37Z</time>
      </trkpt>
      <trkpt lat="46.04684" lon="6.76692">
        <ele>798</ele>
        <time>2019-08-15T09:50:46Z</time>
      </trkpt>
      <trkpt lat="46.04681" lon="6.76711">
        <ele>800</ele>
        <time>2019-08-15T09:51:04Z</time>
      </trkpt>
      <trkpt lat="46.04678" lon="6.76746">
        <ele>804</ele>
        <time>2019-08-15T09:51:37Z</time>
      </trkpt>
      <trkpt lat="46.04677" lon="6.76755">
        <ele>805</ele>
        <time>2019-08-15T09:51:45Z</time>
      </trkpt>
      <trkpt lat="46.04677" lon="6.76762">
        <ele>806</ele>
        <time>2019-08-15T09:51:52Z</time>
      </trkpt>
      <trkpt lat="46.04676" lon="6.7677">
        <ele>807</ele>
        <time>2019-08-15T09:51:59Z</time>
      </trkpt>
      <trkpt lat="46.04677" lon="6.76792">
        <ele>810</ele>
        <time>2019-08-15T09:52:20Z</time>
      </trkpt>
      <trkpt lat="46.04676" lon="6.76889">
        <ele>821</ele>
        <time>2019-08-15T09:53:50Z</time>
      </trkpt>
      <trkpt lat="46.04673" lon="6.76942">
        <ele>827</ele>
        <time>2019-08-15T09:54:39Z</time>
      </trkpt>
      <trkpt lat="46.04676" lon="6.76889">
        <ele>821</ele>
        <time>2019-08-15T09:55:28Z</time>
      </trkpt>
      <trkpt lat="46.04677" lon="6.76792">
        <ele>810</ele>
        <time>2019-08-15T09:56:58Z</time>
      </trkpt>
      <trkpt lat="46.04676" lon="6.7677">
        <ele>807</ele>
        <time>2019-08-15T09:57:18Z</time>
      </trkpt>
      <trkpt lat="46.04678" lon="6.76746">
        <ele>804</ele>
        <time>2019-08-15T09:57:41Z</time>
      </trkpt>
      <trkpt lat="46.04681" lon="6.76711">
        <ele>800</ele>
        <time>2019-08-15T09:58:14Z</time>
      </trkpt>
      <trkpt lat="46.04685" lon="6.76686">
        <ele>797</ele>
        <time>2019-08-15T09:58:37Z</time>
      </trkpt>
      <trkpt lat="46.04686" lon="6.76682">
        <ele>797</ele>
        <time>2019-08-15T09:58:41Z</time>
      </trkpt>
      <trkpt lat="46.04694" lon="6.76662">
        <ele>794</ele>
        <time>2019-08-15T09:59:03Z</time>
      </trkpt>
      <trkpt lat="46.04696" lon="6.76657">
        <ele>793</ele>
        <time>2019-08-15T09:59:08Z</time>
      </trkpt>
      <trkpt lat="46.04702" lon="6.76635">
        <ele>790</ele>
        <time>2019-08-15T09:59:30Z</time>
      </trkpt>
      <trkpt lat="46.04703" lon="6.76631">
        <ele>790</ele>
        <time>2019-08-15T09:59:34Z</time>
      </trkpt>
      <trkpt lat="46.04705" lon="6.76629">
        <ele>789</ele>
        <time>2019-08-15T09:59:37Z</time>
      </trkpt>
      <trkpt lat="46.04707" lon="6.76627">
        <ele>789</ele>
        <time>2019-08-15T09:59:40Z</time>
      </trkpt>
      <trkpt lat="46.0471" lon="6.76626">
        <ele>789</ele>
        <time>2019-08-15T09:59:44Z</time>
      </trkpt>
      <trkpt lat="46.04736" lon="6.76625">
        <ele>788</ele>
        <time>2019-08-15T10:00:19Z</time>
      </trkpt>
      <trkpt lat="46.04738" lon="6.76614">
        <ele>787</ele>
        <time>2019-08-15T10:00:30Z</time>
      </trkpt>
      <trkpt lat="46.04741" lon="6.76608">
        <ele>786</ele>
        <time>2019-08-15T10:00:36Z</time>
      </trkpt>
      <trkpt lat="46.04768" lon="6.76567">
        <ele>780</ele>
        <time>2019-08-15T10:01:29Z</time>
      </trkpt>
      <trkpt lat="46.04771" lon="6.76561">
        <ele>778</ele>
        <time>2019-08-15T10:01:36Z</time>
      </trkpt>
      <trkpt lat="46.04775" lon="6.76551">
        <ele>776</ele>
        <time>2019-08-15T10:01:46Z</time>
      </trkpt>
      <trkpt lat="46.04787" lon="6.76516">
        <ele>770</ele>
        <time>2019-08-15T10:02:23Z</time>
      </trkpt>
      <trkpt lat="46.04788" lon="6.76508">
        <ele>769</ele>
        <time>2019-08-15T10:02:30Z</time>
      </trkpt>
      <trkpt lat="46.04787" lon="6.76504">
        <ele>769</ele>
        <time>2019-08-15T10:02:34Z</time>
      </trkpt>
      <trkpt lat="46.04784" lon="6.76499">
        <ele>768</ele>
        <time>2019-08-15T10:02:40Z</time>
      </trkpt>
      <trkpt lat="46.04772" lon="6.76476">
        <ele>768</ele>
        <time>2019-08-15T10:03:07Z</time>
      </trkpt>
      <trkpt lat="46.04765" lon="6.76449">
        <ele>766</ele>
        <time>2019-08-15T10:03:33Z</time>
      </trkpt>
      <trkpt lat="46.04762" lon="6.7643">
        <ele>765</ele>
        <time>2019-08-15T10:03:52Z</time>
      </trkpt>
      <trkpt lat="46.0475" lon="6.76418">
        <ele>764</ele>
        <time>2019-08-15T10:04:11Z</time>
      </trkpt>
      <trkpt lat="46.04739" lon="6.7641">
        <ele>766</ele>
        <time>2019-08-15T10:04:27Z</time>
      </trkpt>
      <trkpt lat="46.04724" lon="6.76403">
        <ele>768</ele>
        <time>2019-08-15T10:04:48Z</time>
      </trkpt>
      <trkpt lat="46.04714" lon="6.76401">
        <ele>768</ele>
        <time>2019-08-15T10:05:02Z</time>
      </trkpt>
      <trkpt lat="46.04656" lon="6.76394">
        <ele>771</ele>
        <time>2019-08-15T10:06:20Z</time>
      </trkpt>
      <trkpt lat="46.04617" lon="6.76388">
        <ele>776</ele>
        <time>2019-08-15T10:07:12Z</time>
      </trkpt>
      <trkpt lat="46.04578" lon="6.76385">
        <ele>780</ele>
        <time>2019-08-15T10:08:04Z</time>
      </trkpt>
      <trkpt lat="46.04549" lon="6.76389">
        <ele>781</ele>
        <time>2019-08-15T10:08:43Z</time>
      </trkpt>
      <trkpt lat="46.04485" lon="6.7638">
        <ele>782</ele>
        <time>2019-08-15T10:10:09Z</time>
      </trkpt>
      <trkpt lat="46.04461" lon="6.76382">
        <ele>781</ele>
        <time>2019-08-15T10:10:41Z</time>
      </trkpt>
      <trkpt lat="46.04424" lon="6.76402">
        <ele>777</ele>
        <time>2019-08-15T10:11:34Z</time>
      </trkpt>
      <trkpt lat="46.04418" lon="6.76407">
        <ele>777</ele>
        <time>2019-08-15T10:11:43Z</time>
      </trkpt>
      <trkpt lat="46.04398" lon="6.76419">
        <ele>777</ele>
        <time>2019-08-15T10:12:12Z</time>
      </trkpt>
      <trkpt lat="46.04372" lon="6.76436">
        <ele>780</ele>
        <time>2019-08-15T10:12:50Z</time>
      </trkpt>
      <trkpt lat="46.04342" lon="6.76445">
        <ele>782</ele>
        <time>2019-08-15T10:13:31Z</time>
      </trkpt>
      <trkpt lat="46.04311" lon="6.76455">
        <ele>785</ele>
        <time>2019-08-15T10:14:13Z</time>
      </trkpt>
      <trkpt lat="46.04265" lon="6.76485">
        <ele>788</ele>
        <time>2019-08-15T10:15:21Z</time>
      </trkpt>
      <trkpt lat="46.04243" lon="6.76499">
        <ele>789</ele>
        <time>2019-08-15T10:15:53Z</time>
      </trkpt>
      <trkpt lat="46.04223" lon="6.76518">
        <ele>792</ele>
        <time>2019-08-15T10:16:25Z</time>
      </trkpt>
      <trkpt lat="46.04204" lon="6.76537">
        <ele>794</ele>
        <time>2019-08-15T10:16:55Z</time>
      </trkpt>
      <trkpt lat="46.04183" lon="6.76537">
        <ele>795</ele>
        <time>2019-08-15T10:17:23Z</time>
      </trkpt>
      <trkpt lat="46.04151" lon="6.76494">
        <ele>797</ele>
        <time>2019-08-15T10:18:22Z</time>
      </trkpt>
      <trkpt lat="46.0412" lon="6.76475">
        <ele>801</ele>
        <time>2019-08-15T10:19:07Z</time>
      </trkpt>
      <trkpt lat="46.04085" lon="6.76475">
        <ele>805</ele>
        <time>2019-08-15T10:19:54Z</time>
      </trkpt>
      <trkpt lat="46.04062" lon="6.7648">
        <ele>807</ele>
        <time>2019-08-15T10:20:25Z</time>
      </trkpt>
      <trkpt lat="46.04043" lon="6.76494">
        <ele>807</ele>
        <time>2019-08-15T10:20:53Z</time>
      </trkpt>
      <trkpt lat="46.04021" lon="6.76507">
        <ele>808</ele>
        <time>2019-08-15T10:21:25Z</time>
      </trkpt>
      <trkpt lat="46.03998" lon="6.7652">
        <ele>811</ele>
        <time>2019-08-15T10:21:58Z</time>
      </trkpt>
      <trkpt lat="46.03974" lon="6.76541">
        <ele>812</ele>
        <time>2019-08-15T10:22:35Z</time>
      </trkpt>
      <trkpt lat="46.03949" lon="6.76561">
        <ele>813</ele>
        <time>2019-08-15T10:23:13Z</time>
      </trkpt>
      <trkpt lat="46.03918" lon="6.76578">
        <ele>811</ele>
        <time>2019-08-15T10:23:58Z</time>
      </trkpt>
      <trkpt lat="46.03904" lon="6.76599">
        <ele>811</ele>
        <time>2019-08-15T10:24:25Z</time>
      </trkpt>
      <trkpt lat="46.03902" lon="6.76621">
        <ele>812</ele>
        <time>2019-08-15T10:24:45Z</time>
      </trkpt>
      <trkpt lat="46.03904" lon="6.76634">
        <ele>812</ele>
        <time>2019-08-15T10:24:58Z</time>
      </trkpt>
      <trkpt lat="46.039" lon="6.76655">
        <ele>813</ele>
        <time>2019-08-15T10:25:18Z</time>
      </trkpt>
      <trkpt lat="46.03894" lon="6.76715">
        <ele>817</ele>
        <time>2019-08-15T10:26:14Z</time>
      </trkpt>
      <trkpt lat="46.03888" lon="6.76776">
        <ele>821</ele>
        <time>2019-08-15T10:27:11Z</time>
      </trkpt>
      <trkpt lat="46.03876" lon="6.7684">
        <ele>825</ele>
        <time>2019-08-15T10:28:12Z</time>
      </trkpt>
      <trkpt lat="46.03864" lon="6.76876">
        <ele>826</ele>
        <time>2019-08-15T10:28:49Z</time>
      </trkpt>
      <trkpt lat="46.03838" lon="6.76901">
        <ele>824</ele>
        <time>2019-08-15T10:29:31Z</time>
      </trkpt>
      <trkpt lat="46.03811" lon="6.76926">
        <ele>825</ele>
        <time>2019-08-15T10:30:14Z</time>
      </trkpt>
      <trkpt lat="46.03784" lon="6.76934">
        <ele>825</ele>
        <time>2019-08-15T10:30:51Z</time>
      </trkpt>
      <trkpt lat="46.03774" lon="6.76943">
        <ele>826</ele>
        <time>2019-08-15T10:31:06Z</time>
      </trkpt>
      <trkpt lat="46.03759" lon="6.76971">
        <ele>828</ele>
        <time>2019-08-15T10:31:39Z</time>
      </trkpt>
      <trkpt lat="46.03742" lon="6.76943">
        <ele>828</ele>
        <time>2019-08-15T10:32:14Z</time>
      </trkpt>
      <trkpt lat="46.0373" lon="6.76919">
        <ele>828</ele>
        <time>2019-08-15T10:32:41Z</time>
      </trkpt>
      <trkpt lat="46.03712" lon="6.76917">
        <ele>830</ele>
        <time>2019-08-15T10:33:05Z</time>
      </trkpt>
      <trkpt lat="46.03692" lon="6.76943">
        <ele>836</ele>
        <time>2019-08-15T10:33:41Z</time>
      </trkpt>
      <trkpt lat="46.03658" lon="6.76968">
        <ele>842</ele>
        <time>2019-08-15T10:34:32Z</time>
      </trkpt>
      <trkpt lat="46.03625" lon="6.76992">
        <ele>842</ele>
        <time>2019-08-15T10:35:21Z</time>
      </trkpt>
      <trkpt lat="46.03604" lon="6.77021">
        <ele>841</ele>
        <time>2019-08-15T10:36:00Z</time>
      </trkpt>
      <trkpt lat="46.03584" lon="6.7705">
        <ele>841</ele>
        <time>2019-08-15T10:36:38Z</time>
      </trkpt>
      <trkpt lat="46.03568" lon="6.77095">
        <ele>844</ele>
        <time>2019-08-15T10:37:25Z</time>
      </trkpt>
      <trkpt lat="46.0356" lon="6.77123">
        <ele>846</ele>
        <time>2019-08-15T10:37:53Z</time>
      </trkpt>
      <trkpt lat="46.03562" lon="6.7715">
        <ele>848</ele>
        <time>2019-08-15T10:38:18Z</time>
      </trkpt>
      <trkpt lat="46.0356" lon="6.77163">
        <ele>848</ele>
        <time>2019-08-15T10:38:30Z</time>
      </trkpt>
      <trkpt lat="46.03544" lon="6.77167">
        <ele>848</ele>
        <time>2019-08-15T10:38:52Z</time>
      </trkpt>
      <trkpt lat="46.03539" lon="6.77168">
        <ele>847</ele>
        <time>2019-08-15T10:38:59Z</time>
      </trkpt>
      <trkpt lat="46.03523" lon="6.77169">
        <ele>847</ele>
        <time>2019-08-15T10:39:20Z</time>
      </trkpt>
      <trkpt lat="46.03509" lon="6.77172">
        <ele>846</ele>
        <time>2019-08-15T10:39:39Z</time>
      </trkpt>
      <trkpt lat="46.03499" lon="6.77177">
        <ele>846</ele>
        <time>2019-08-15T10:39:53Z</time>
      </trkpt>
      <trkpt lat="46.03487" lon="6.77185">
        <ele>848</ele>
        <time>2019-08-15T10:40:11Z</time>
      </trkpt>
      <trkpt lat="46.03483" lon="6.77185">
        <ele>848</ele>
        <time>2019-08-15T10:40:16Z</time>
      </trkpt>
      <trkpt lat="46.03479" lon="6.77185">
        <ele>848</ele>
        <time>2019-08-15T10:40:22Z</time>
      </trkpt>
      <trkpt lat="46.03461" lon="6.77178">
        <ele>848</ele>
        <time>2019-08-15T10:40:46Z</time>
      </trkpt>
      <trkpt lat="46.03454" lon="6.77176">
        <ele>848</ele>
        <time>2019-08-15T10:40:56Z</time>
      </trkpt>
      <trkpt lat="46.03449" lon="6.77176">
        <ele>848</ele>
        <time>2019-08-15T10:41:03Z</time>
      </trkpt>
      <trkpt lat="46.03444" lon="6.77176">
        <ele>848</ele>
        <time>2019-08-15T10:41:09Z</time>
      </trkpt>
      <trkpt lat="46.03439" lon="6.77178">
        <ele>849</ele>
        <time>2019-08-15T10:41:16Z</time>
      </trkpt>
      <trkpt lat="46.03434" lon="6.77181">
        <ele>849</ele>
        <time>2019-08-15T10:41:23Z</time>
      </trkpt>
      <trkpt lat="46.03431" lon="6.77184">
        <ele>850</ele>
        <time>2019-08-15T10:41:28Z</time>
      </trkpt>
      <trkpt lat="46.03426" lon="6.77194">
        <ele>852</ele>
        <time>2019-08-15T10:41:40Z</time>
      </trkpt>
      <trkpt lat="46.03419" lon="6.77192">
        <ele>852</ele>
        <time>2019-08-15T10:41:49Z</time>
      </trkpt>
      <trkpt lat="46.03384" lon="6.77192">
        <ele>855</ele>
        <time>2019-08-15T10:42:36Z</time>
      </trkpt>
      <trkpt lat="46.03378" lon="6.77193">
        <ele>856</ele>
        <time>2019-08-15T10:42:44Z</time>
      </trkpt>
      <trkpt lat="46.03371" lon="6.77196">
        <ele>857</ele>
        <time>2019-08-15T10:42:54Z</time>
      </trkpt>
      <trkpt lat="46.03363" lon="6.77199">
        <ele>859</ele>
        <time>2019-08-15T10:43:05Z</time>
      </trkpt>
      <trkpt lat="46.03307" lon="6.77229">
        <ele>869</ele>
        <time>2019-08-15T10:44:24Z</time>
      </trkpt>
      <trkpt lat="46.03303" lon="6.7723">
        <ele>870</ele>
        <time>2019-08-15T10:44:30Z</time>
      </trkpt>
      <trkpt lat="46.03299" lon="6.77229">
        <ele>871</ele>
        <time>2019-08-15T10:44:35Z</time>
      </trkpt>
      <trkpt lat="46.03296" lon="6.77227">
        <ele>871</ele>
        <time>2019-08-15T10:44:40Z</time>
      </trkpt>
      <trkpt lat="46.03292" lon="6.77223">
        <ele>871</ele>
        <time>2019-08-15T10:44:46Z</time>
      </trkpt>
      <trkpt lat="46.03282" lon="6.7719">
        <ele>869</ele>
        <time>2019-08-15T10:45:20Z</time>
      </trkpt>
      <trkpt lat="46.03282" lon="6.77186">
        <ele>869</ele>
        <time>2019-08-15T10:45:23Z</time>
      </trkpt>
      <trkpt lat="46.03283" lon="6.77182">
        <ele>869</ele>
        <time>2019-08-15T10:45:27Z</time>
      </trkpt>
      <trkpt lat="46.03285" lon="6.77178">
        <ele>868</ele>
        <time>2019-08-15T10:45:32Z</time>
      </trkpt>
      <trkpt lat="46.0332" lon="6.77121">
        <ele>866</ele>
        <time>2019-08-15T10:46:42Z</time>
      </trkpt>
      <trkpt lat="46.03324" lon="6.77115">
        <ele>866</ele>
        <time>2019-08-15T10:46:50Z</time>
      </trkpt>
      <trkpt lat="46.03326" lon="6.77109">
        <ele>867</ele>
        <time>2019-08-15T10:46:56Z</time>
      </trkpt>
      <trkpt lat="46.03327" lon="6.77101">
        <ele>867</ele>
        <time>2019-08-15T10:47:04Z</time>
      </trkpt>
      <trkpt lat="46.03328" lon="6.77072">
        <ele>872</ele>
        <time>2019-08-15T10:47:31Z</time>
      </trkpt>
      <trkpt lat="46.03322" lon="6.77076">
        <ele>873</ele>
        <time>2019-08-15T10:47:39Z</time>
      </trkpt>
      <trkpt lat="46.03303" lon="6.77094">
        <ele>875</ele>
        <time>2019-08-15T10:48:10Z</time>
      </trkpt>
      <trkpt lat="46.03283" lon="6.77111">
        <ele>877</ele>
        <time>2019-08-15T10:48:41Z</time>
      </trkpt>
      <trkpt lat="46.03266" lon="6.77127">
        <ele>879</ele>
        <time>2019-08-15T10:49:08Z</time>
      </trkpt>
      <trkpt lat="46.03257" lon="6.77138">
        <ele>879</ele>
        <time>2019-08-15T10:49:24Z</time>
      </trkpt>
      <trkpt lat="46.03234" lon="6.77132">
        <ele>884</ele>
        <time>2019-08-15T10:49:55Z</time>
      </trkpt>
      <trkpt lat="46.03212" lon="6.77129">
        <ele>889</ele>
        <time>2019-08-15T10:50:24Z</time>
      </trkpt>
      <trkpt lat="46.03165" lon="6.77087">
        <ele>907</ele>
        <time>2019-08-15T10:51:38Z</time>
      </trkpt>
      <trkpt lat="46.03153" lon="6.7708">
        <ele>911</ele>
        <time>2019-08-15T10:51:55Z</time>
      </trkpt>
      <trkpt lat="46.0313" lon="6.77079">
        <ele>915</ele>
        <time>2019-08-15T10:52:26Z</time>
      </trkpt>
      <trkpt lat="46.03107" lon="6.77077">
        <ele>919</ele>
        <time>2019-08-15T10:52:57Z</time>
      </trkpt>
      <trkpt lat="46.03069" lon="6.7708">
        <ele>925</ele>
        <time>2019-08-15T10:53:48Z</time>
      </trkpt>
      <trkpt lat="46.0305" lon="6.77081">
        <ele>929</ele>
        <time>2019-08-15T10:54:13Z</time>
      </trkpt>
      <trkpt lat="46.03002" lon="6.77073">
        <ele>940</ele>
        <time>2019-08-15T10:55:17Z</time>
      </trkpt>
      <trkpt lat="46.02984" lon="6.77063">
        <ele>946</ele>
        <time>2019-08-15T10:55:43Z</time>
      </trkpt>
      <trkpt lat="46.02968" lon="6.77068">
        <ele>949</ele>
        <time>2019-08-15T10:56:05Z</time>
      </trkpt>
      <trkpt lat="46.02932" lon="6.77087">
        <ele>952</ele>
        <time>2019-08-15T10:56:56Z</time>
      </trkpt>
      <trkpt lat="46.02914" lon="6.77082">
        <ele>957</ele>
        <time>2019-08-15T10:57:21Z</time>
      </trkpt>
      <trkpt lat="46.02905" lon="6.77087">
        <ele>959</ele>
        <time>2019-08-15T10:57:34Z</time>
      </trkpt>
      <trkpt lat="46.0287" lon="6.77104">
        <ele>968</ele>
        <time>2019-08-15T10:58:23Z</time>
      </trkpt>
      <trkpt lat="46.02866" lon="6.77108">
        <ele>968</ele>
        <time>2019-08-15T10:58:29Z</time>
      </trkpt>
      <trkpt lat="46.02864" lon="6.77114">
        <ele>968</ele>
        <time>2019-08-15T10:58:36Z</time>
      </trkpt>
      <trkpt lat="46.02864" lon="6.7712">
        <ele>967</ele>
        <time>2019-08-15T10:58:41Z</time>
      </trkpt>
      <trkpt lat="46.02866" lon="6.77147">
        <ele>962</ele>
        <time>2019-08-15T10:59:06Z</time>
      </trkpt>
      <trkpt lat="46.02865" lon="6.77161">
        <ele>960</ele>
        <time>2019-08-15T10:59:19Z</time>
      </trkpt>
      <trkpt lat="46.02864" lon="6.77167">
        <ele>960</ele>
        <time>2019-08-15T10:59:25Z</time>
      </trkpt>
      <trkpt lat="46.02861" lon="6.77172">
        <ele>961</ele>
        <time>2019-08-15T10:59:31Z</time>
      </trkpt>
      <trkpt lat="46.02842" lon="6.77195">
        <ele>968</ele>
        <time>2019-08-15T11:00:04Z</time>
      </trkpt>
      <trkpt lat="46.02823" lon="6.77219">
        <ele>975</ele>
        <time>2019-08-15T11:00:38Z</time>
      </trkpt>
      <trkpt lat="46.02821" lon="6.77205">
        <ele>976</ele>
        <time>2019-08-15T11:00:51Z</time>
      </trkpt>
      <trkpt lat="46.0282" lon="6.77196">
        <ele>977</ele>
        <time>2019-08-15T11:01:00Z</time>
      </trkpt>
      <trkpt lat="46.02828" lon="6.77194">
        <ele>973</ele>
        <time>2019-08-15T11:01:10Z</time>
      </trkpt>
      <trkpt lat="46.02831" lon="6.77182">
        <ele>971</ele>
        <time>2019-08-15T11:01:22Z</time>
      </trkpt>
      <trkpt lat="46.02829" lon="6.77173">
        <ele>973</ele>
        <time>2019-08-15T11:01:31Z</time>
      </trkpt>
      <trkpt lat="46.02814" lon="6.77159">
        <ele>983</ele>
        <time>2019-08-15T11:01:55Z</time>
      </trkpt>
      <trkpt lat="46.028" lon="6.77154">
        <ele>993</ele>
        <time>2019-08-15T11:02:14Z</time>
      </trkpt>
      <trkpt lat="46.02791" lon="6.7714">
        <ele>1002</ele>
        <time>2019-08-15T11:02:32Z</time>
      </trkpt>
      <trkpt lat="46.02783" lon="6.77124">
        <ele>1011</ele>
        <time>2019-08-15T11:02:50Z</time>
      </trkpt>
      <trkpt lat="46.0277" lon="6.77134">
        <ele>1017</ele>
        <time>2019-08-15T11:03:10Z</time>
      </trkpt>
      <trkpt lat="46.0276" lon="6.77147">
        <ele>1020</ele>
        <time>2019-08-15T11:03:28Z</time>
      </trkpt>
      <trkpt lat="46.02757" lon="6.77147">
        <ele>1021</ele>
        <time>2019-08-15T11:03:32Z</time>
      </trkpt>
      <trkpt lat="46.02758" lon="6.77131">
        <ele>1025</ele>
        <time>2019-08-15T11:03:47Z</time>
      </trkpt>
      <trkpt lat="46.0276" lon="6.77114">
        <ele>1029</ele>
        <time>2019-08-15T11:04:03Z</time>
      </trkpt>
      <trkpt lat="46.02754" lon="6.77114">
        <ele>1033</ele>
        <time>2019-08-15T11:04:11Z</time>
      </trkpt>
      <trkpt lat="46.02748" lon="6.77128">
        <ele>1033</ele>
        <time>2019-08-15T11:04:26Z</time>
      </trkpt>
      <trkpt lat="46.0274" lon="6.77137">
        <ele>1035</ele>
        <time>2019-08-15T11:04:39Z</time>
      </trkpt>
      <trkpt lat="46.02741" lon="6.77124">
        <ele>1038</ele>
        <time>2019-08-15T11:04:52Z</time>
      </trkpt>
      <trkpt lat="46.02739" lon="6.77112">
        <ele>1042</ele>
        <time>2019-08-15T11:05:03Z</time>
      </trkpt>
      <trkpt lat="46.02729" lon="6.77116">
        <ele>1046</ele>
        <time>2019-08-15T11:05:17Z</time>
      </trkpt>
      <trkpt lat="46.0272" lon="6.77121">
        <ele>1050</ele>
        <time>2019-08-15T11:05:30Z</time>
      </trkpt>
      <trkpt lat="46.02711" lon="6.77101">
        <ele>1059</ele>
        <time>2019-08-15T11:05:52Z</time>
      </trkpt>
      <trkpt lat="46.02704" lon="6.77078">
        <ele>1067</ele>
        <time>2019-08-15T11:06:15Z</time>
      </trkpt>
      <trkpt lat="46.02686" lon="6.77067">
        <ele>1077</ele>
        <time>2019-08-15T11:06:41Z</time>
      </trkpt>
      <trkpt lat="46.02672" lon="6.77063">
        <ele>1083</ele>
        <time>2019-08-15T11:07:00Z</time>
      </trkpt>
      <trkpt lat="46.02659" lon="6.77045">
        <ele>1090</ele>
        <time>2019-08-15T11:07:24Z</time>
      </trkpt>
      <trkpt lat="46.02645" lon="6.77021">
        <ele>1096</ele>
        <time>2019-08-15T11:07:53Z</time>
      </trkpt>
      <trkpt lat="46.02632" lon="6.77003">
        <ele>1101</ele>
        <time>2019-08-15T11:08:17Z</time>
      </trkpt>
      <trkpt lat="46.02609" lon="6.76975">
        <ele>1111</ele>
        <time>2019-08-15T11:08:58Z</time>
      </trkpt>
      <trkpt lat="46.02579" lon="6.7696">
        <ele>1119</ele>
        <time>2019-08-15T11:09:40Z</time>
      </trkpt>
      <trkpt lat="46.02564" lon="6.76945">
        <ele>1123</ele>
        <time>2019-08-15T11:10:04Z</time>
      </trkpt>
      <trkpt lat="46.02542" lon="6.76928">
        <ele>1127</ele>
        <time>2019-08-15T11:10:38Z</time>
      </trkpt>
      <trkpt lat="46.02518" lon="6.76913">
        <ele>1130</ele>
        <time>2019-08-15T11:11:13Z</time>
      </trkpt>
      <trkpt lat="46.02482" lon="6.769">
        <ele>1134</ele>
        <time>2019-08-15T11:12:02Z</time>
      </trkpt>
      <trkpt lat="46.02479" lon="6.76898">
        <ele>1135</ele>
        <time>2019-08-15T11:12:06Z</time>
      </trkpt>
      <trkpt lat="46.02446" lon="6.76874">
        <ele>1143</ele>
        <time>2019-08-15T11:12:56Z</time>
      </trkpt>
      <trkpt lat="46.02434" lon="6.76876">
        <ele>1143</ele>
        <time>2019-08-15T11:13:12Z</time>
      </trkpt>
      <trkpt lat="46.02409" lon="6.76868">
        <ele>1144</ele>
        <time>2019-08-15T11:13:46Z</time>
      </trkpt>
      <trkpt lat="46.02387" lon="6.76865">
        <ele>1143</ele>
        <time>2019-08-15T11:14:16Z</time>
      </trkpt>
      <trkpt lat="46.02351" lon="6.76846">
        <ele>1142</ele>
        <time>2019-08-15T11:15:07Z</time>
      </trkpt>
      <trkpt lat="46.02314" lon="6.76836">
        <ele>1142</ele>
        <time>2019-08-15T11:15:57Z</time>
      </trkpt>
      <trkpt lat="46.02294" lon="6.76823">
        <ele>1147</ele>
        <time>2019-08-15T11:16:26Z</time>
      </trkpt>
      <trkpt lat="46.02263" lon="6.76823">
        <ele>1149</ele>
        <time>2019-08-15T11:17:08Z</time>
      </trkpt>
      <trkpt lat="46.02233" lon="6.76829">
        <ele>1152</ele>
        <time>2019-08-15T11:17:48Z</time>
      </trkpt>
      <trkpt lat="46.02225" lon="6.76829">
        <ele>1154</ele>
        <time>2019-08-15T11:17:59Z</time>
      </trkpt>
      <trkpt lat="46.02217" lon="6.76847">
        <ele>1154</ele>
        <time>2019-08-15T11:18:19Z</time>
      </trkpt>
      <trkpt lat="46.02215" lon="6.7685">
        <ele>1154</ele>
        <time>2019-08-15T11:18:22Z</time>
      </trkpt>
      <trkpt lat="46.02203" lon="6.76835">
        <ele>1158</ele>
        <time>2019-08-15T11:18:44Z</time>
      </trkpt>
      <trkpt lat="46.02181" lon="6.76816">
        <ele>1165</ele>
        <time>2019-08-15T11:19:18Z</time>
      </trkpt>
      <trkpt lat="46.0218" lon="6.76803">
        <ele>1167</ele>
        <time>2019-08-15T11:19:30Z</time>
      </trkpt>
      <trkpt lat="46.02156" lon="6.76772">
        <ele>1174</ele>
        <time>2019-08-15T11:20:13Z</time>
      </trkpt>
      <trkpt lat="46.02142" lon="6.76766">
        <ele>1178</ele>
        <time>2019-08-15T11:20:32Z</time>
      </trkpt>
      <trkpt lat="46.02132" lon="6.76766">
        <ele>1180</ele>
        <time>2019-08-15T11:20:46Z</time>
      </trkpt>
      <trkpt lat="46.02118" lon="6.76764">
        <ele>1183</ele>
        <time>2019-08-15T11:21:05Z</time>
      </trkpt>
      <trkpt lat="46.02115" lon="6.76791">
        <ele>1184</ele>
        <time>2019-08-15T11:21:30Z</time>
      </trkpt>
      <trkpt lat="46.02115" lon="6.76803">
        <ele>1184</ele>
        <time>2019-08-15T11:21:41Z</time>
      </trkpt>
      <trkpt lat="46.0211" lon="6.76809">
        <ele>1185</ele>
        <time>2019-08-15T11:21:50Z</time>
      </trkpt>
      <trkpt lat="46.021" lon="6.76818">
        <ele>1188</ele>
        <time>2019-08-15T11:22:05Z</time>
      </trkpt>
      <trkpt lat="46.02095" lon="6.76816">
        <ele>1190</ele>
        <time>2019-08-15T11:22:12Z</time>
      </trkpt>
      <trkpt lat="46.02094" lon="6.76817">
        <ele>1190</ele>
        <time>2019-08-15T11:22:14Z</time>
      </trkpt>
      <trkpt lat="46.02092" lon="6.76817">
        <ele>1191</ele>
        <time>2019-08-15T11:22:17Z</time>
      </trkpt>
      <trkpt lat="46.02091" lon="6.76814">
        <ele>1191</ele>
        <time>2019-08-15T11:22:20Z</time>
      </trkpt>
      <trkpt lat="46.02084" lon="6.76808">
        <ele>1193</ele>
        <time>2019-08-15T11:22:31Z</time>
      </trkpt>
      <trkpt lat="46.02082" lon="6.76809">
        <ele>1193</ele>
        <time>2019-08-15T11:22:33Z</time>
      </trkpt>
      <trkpt lat="46.0208" lon="6.76808">
        <ele>1194</ele>
        <time>2019-08-15T11:22:36Z</time>
      </trkpt>
      <trkpt lat="46.02075" lon="6.76798">
        <ele>1195</ele>
        <time>2019-08-15T11:22:48Z</time>
      </trkpt>
      <trkpt lat="46.02075" lon="6.76794">
        <ele>1195</ele>
        <time>2019-08-15T11:22:51Z</time>
      </trkpt>
      <trkpt lat="46.02072" lon="6.76791">
        <ele>1195</ele>
        <time>2019-08-15T11:22:56Z</time>
      </trkpt>
      <trkpt lat="46.0207" lon="6.76786">
        <ele>1196</ele>
        <time>2019-08-15T11:23:02Z</time>
      </trkpt>
      <trkpt lat="46.02068" lon="6.76786">
        <ele>1196</ele>
        <time>2019-08-15T11:23:04Z</time>
      </trkpt>
      <trkpt lat="46.02068" lon="6.76785">
        <ele>1196</ele>
        <time>2019-08-15T11:23:05Z</time>
      </trkpt>
      <trkpt lat="46.0207" lon="6.76782">
        <ele>1196</ele>
        <time>2019-08-15T11:23:09Z</time>
      </trkpt>
      <trkpt lat="46.0207" lon="6.76778">
        <ele>1195</ele>
        <time>2019-08-15T11:23:13Z</time>
      </trkpt>
      <trkpt lat="46.02071" lon="6.76777">
        <ele>1195</ele>
        <time>2019-08-15T11:23:14Z</time>
      </trkpt>
      <trkpt lat="46.02068" lon="6.76773">
        <ele>1196</ele>
        <time>2019-08-15T11:23:20Z</time>
      </trkpt>
      <trkpt lat="46.02068" lon="6.76767">
        <ele>1195</ele>
        <time>2019-08-15T11:23:25Z</time>
      </trkpt>
      <trkpt lat="46.0207" lon="6.76763">
        <ele>1195</ele>
        <time>2019-08-15T11:23:30Z</time>
      </trkpt>
      <trkpt lat="46.02068" lon="6.76761">
        <ele>1195</ele>
        <time>2019-08-15T11:23:33Z</time>
      </trkpt>
      <trkpt lat="46.0206" lon="6.76755">
        <ele>1197</ele>
        <time>2019-08-15T11:23:45Z</time>
      </trkpt>
      <trkpt lat="46.0206" lon="6.76743">
        <ele>1196</ele>
        <time>2019-08-15T11:23:56Z</time>
      </trkpt>
      <trkpt lat="46.02057" lon="6.76743">
        <ele>1197</ele>
        <time>2019-08-15T11:24:00Z</time>
      </trkpt>
      <trkpt lat="46.02048" lon="6.76723">
        <ele>1199</ele>
        <time>2019-08-15T11:24:22Z</time>
      </trkpt>
      <trkpt lat="46.02049" lon="6.76719">
        <ele>1198</ele>
        <time>2019-08-15T11:24:26Z</time>
      </trkpt>
      <trkpt lat="46.02027" lon="6.76696">
        <ele>1203</ele>
        <time>2019-08-15T11:25:03Z</time>
      </trkpt>
      <trkpt lat="46.02028" lon="6.7669">
        <ele>1203</ele>
        <time>2019-08-15T11:25:08Z</time>
      </trkpt>
      <trkpt lat="46.02026" lon="6.76687">
        <ele>1203</ele>
        <time>2019-08-15T11:25:12Z</time>
      </trkpt>
      <trkpt lat="46.02024" lon="6.76661">
        <ele>1203</ele>
        <time>2019-08-15T11:25:37Z</time>
      </trkpt>
      <trkpt lat="46.02009" lon="6.76645">
        <ele>1208</ele>
        <time>2019-08-15T11:26:01Z</time>
      </trkpt>
      <trkpt lat="46.02006" lon="6.76645">
        <ele>1209</ele>
        <time>2019-08-15T11:26:05Z</time>
      </trkpt>
      <trkpt lat="46.01996" lon="6.76637">
        <ele>1212</ele>
        <time>2019-08-15T11:26:21Z</time>
      </trkpt>
      <trkpt lat="46.01995" lon="6.76634">
        <ele>1212</ele>
        <time>2019-08-15T11:26:24Z</time>
      </trkpt>
      <trkpt lat="46.01987" lon="6.76633">
        <ele>1214</ele>
        <time>2019-08-15T11:26:34Z</time>
      </trkpt>
      <trkpt lat="46.01985" lon="6.76637">
        <ele>1215</ele>
        <time>2019-08-15T11:26:39Z</time>
      </trkpt>
      <trkpt lat="46.01983" lon="6.76637">
        <ele>1215</ele>
        <time>2019-08-15T11:26:42Z</time>
      </trkpt>
      <trkpt lat="46.01981" lon="6.7664">
        <ele>1216</ele>
        <time>2019-08-15T11:26:46Z</time>
      </trkpt>
      <trkpt lat="46.01977" lon="6.76639">
        <ele>1217</ele>
        <time>2019-08-15T11:26:51Z</time>
      </trkpt>
      <trkpt lat="46.01972" lon="6.76636">
        <ele>1218</ele>
        <time>2019-08-15T11:26:58Z</time>
      </trkpt>
      <trkpt lat="46.01964" lon="6.76634">
        <ele>1221</ele>
        <time>2019-08-15T11:27:09Z</time>
      </trkpt>
      <trkpt lat="46.01964" lon="6.7663">
        <ele>1221</ele>
        <time>2019-08-15T11:27:13Z</time>
      </trkpt>
      <trkpt lat="46.01959" lon="6.76625">
        <ele>1222</ele>
        <time>2019-08-15T11:27:21Z</time>
      </trkpt>
      <trkpt lat="46.01948" lon="6.76621">
        <ele>1225</ele>
        <time>2019-08-15T11:27:36Z</time>
      </trkpt>
      <trkpt lat="46.01946" lon="6.76617">
        <ele>1226</ele>
        <time>2019-08-15T11:27:41Z</time>
      </trkpt>
      <trkpt lat="46.0194" lon="6.76613">
        <ele>1228</ele>
        <time>2019-08-15T11:27:49Z</time>
      </trkpt>
      <trkpt lat="46.01933" lon="6.7661">
        <ele>1230</ele>
        <time>2019-08-15T11:27:59Z</time>
      </trkpt>
      <trkpt lat="46.01931" lon="6.76607">
        <ele>1230</ele>
        <time>2019-08-15T11:28:03Z</time>
      </trkpt>
      <trkpt lat="46.01927" lon="6.76592">
        <ele>1231</ele>
        <time>2019-08-15T11:28:18Z</time>
      </trkpt>
      <trkpt lat="46.01927" lon="6.76588">
        <ele>1231</ele>
        <time>2019-08-15T11:28:22Z</time>
      </trkpt>
      <trkpt lat="46.01925" lon="6.76585">
        <ele>1232</ele>
        <time>2019-08-15T11:28:25Z</time>
      </trkpt>
      <trkpt lat="46.01923" lon="6.76586">
        <ele>1232</ele>
        <time>2019-08-15T11:28:28Z</time>
      </trkpt>
      <trkpt lat="46.01912" lon="6.76573">
        <ele>1235</ele>
        <time>2019-08-15T11:28:47Z</time>
      </trkpt>
      <trkpt lat="46.01904" lon="6.76562">
        <ele>1237</ele>
        <time>2019-08-15T11:29:02Z</time>
      </trkpt>
      <trkpt lat="46.01897" lon="6.7656">
        <ele>1238</ele>
        <time>2019-08-15T11:29:12Z</time>
      </trkpt>
      <trkpt lat="46.01896" lon="6.76558">
        <ele>1239</ele>
        <time>2019-08-15T11:29:14Z</time>
      </trkpt>
      <trkpt lat="46.01888" lon="6.76557">
        <ele>1241</ele>
        <time>2019-08-15T11:29:25Z</time>
      </trkpt>
      <trkpt lat="46.01885" lon="6.76554">
        <ele>1241</ele>
        <time>2019-08-15T11:29:29Z</time>
      </trkpt>
      <trkpt lat="46.01886" lon="6.76552">
        <ele>1241</ele>
        <time>2019-08-15T11:29:32Z</time>
      </trkpt>
      <trkpt lat="46.01885" lon="6.76547">
        <ele>1241</ele>
        <time>2019-08-15T11:29:37Z</time>
      </trkpt>
      <trkpt lat="46.01879" lon="6.76543">
        <ele>1243</ele>
        <time>2019-08-15T11:29:45Z</time>
      </trkpt>
      <trkpt lat="46.01879" lon="6.76542">
        <ele>1243</ele>
        <time>2019-08-15T11:29:46Z</time>
      </trkpt>
      <trkpt lat="46.01879" lon="6.76539">
        <ele>1242</ele>
        <time>2019-08-15T11:29:49Z</time>
      </trkpt>
      <trkpt lat="46.0187" lon="6.76537">
        <ele>1245</ele>
        <time>2019-08-15T11:30:01Z</time>
      </trkpt>
      <trkpt lat="46.0187" lon="6.76536">
        <ele>1245</ele>
        <time>2019-08-15T11:30:02Z</time>
      </trkpt>
      <trkpt lat="46.01869" lon="6.76536">
        <ele>1245</ele>
        <time>2019-08-15T11:30:03Z</time>
      </trkpt>
      <trkpt lat="46.01869" lon="6.76539">
        <ele>1245</ele>
        <time>2019-08-15T11:30:06Z</time>
      </trkpt>
      <trkpt lat="46.01861" lon="6.76539">
        <ele>1247</ele>
        <time>2019-08-15T11:30:17Z</time>
      </trkpt>
      <trkpt lat="46.01859" lon="6.76541">
        <ele>1248</ele>
        <time>2019-08-15T11:30:20Z</time>
      </trkpt>
      <trkpt lat="46.01856" lon="6.76542">
        <ele>1248</ele>
        <time>2019-08-15T11:30:24Z</time>
      </trkpt>
      <trkpt lat="46.01853" lon="6.76542">
        <ele>1249</ele>
        <time>2019-08-15T11:30:28Z</time>
      </trkpt>
      <trkpt lat="46.01851" lon="6.7654">
        <ele>1249</ele>
        <time>2019-08-15T11:30:32Z</time>
      </trkpt>
      <trkpt lat="46.01845" lon="6.76543">
        <ele>1251</ele>
        <time>2019-08-15T11:30:40Z</time>
      </trkpt>
      <trkpt lat="46.01839" lon="6.7654">
        <ele>1252</ele>
        <time>2019-08-15T11:30:49Z</time>
      </trkpt>
      <trkpt lat="46.01832" lon="6.76531">
        <ele>1254</ele>
        <time>2019-08-15T11:31:01Z</time>
      </trkpt>
      <trkpt lat="46.01829" lon="6.76532">
        <ele>1255</ele>
        <time>2019-08-15T11:31:05Z</time>
      </trkpt>
      <trkpt lat="46.01824" lon="6.76529">
        <ele>1257</ele>
        <time>2019-08-15T11:31:12Z</time>
      </trkpt>
      <trkpt lat="46.01819" lon="6.7653">
        <ele>1259</ele>
        <time>2019-08-15T11:31:19Z</time>
      </trkpt>
      <trkpt lat="46.01814" lon="6.76528">
        <ele>1261</ele>
        <time>2019-08-15T11:31:26Z</time>
      </trkpt>
      <trkpt lat="46.01811" lon="6.7652">
        <ele>1262</ele>
        <time>2019-08-15T11:31:34Z</time>
      </trkpt>
      <trkpt lat="46.01808" lon="6.76515">
        <ele>1263</ele>
        <time>2019-08-15T11:31:41Z</time>
      </trkpt>
      <trkpt lat="46.01807" lon="6.76512">
        <ele>1263</ele>
        <time>2019-08-15T11:31:44Z</time>
      </trkpt>
      <trkpt lat="46.01805" lon="6.76514">
        <ele>1264</ele>
        <time>2019-08-15T11:31:47Z</time>
      </trkpt>
      <trkpt lat="46.01804" lon="6.76512">
        <ele>1264</ele>
        <time>2019-08-15T11:31:49Z</time>
      </trkpt>
      <trkpt lat="46.01805" lon="6.76508">
        <ele>1263</ele>
        <time>2019-08-15T11:31:53Z</time>
      </trkpt>
      <trkpt lat="46.01803" lon="6.76507">
        <ele>1264</ele>
        <time>2019-08-15T11:31:56Z</time>
      </trkpt>
      <trkpt lat="46.018" lon="6.76507">
        <ele>1265</ele>
        <time>2019-08-15T11:32:00Z</time>
      </trkpt>
      <trkpt lat="46.01796" lon="6.76498">
        <ele>1266</ele>
        <time>2019-08-15T11:32:10Z</time>
      </trkpt>
      <trkpt lat="46.01792" lon="6.76498">
        <ele>1268</ele>
        <time>2019-08-15T11:32:15Z</time>
      </trkpt>
      <trkpt lat="46.0179" lon="6.76493">
        <ele>1269</ele>
        <time>2019-08-15T11:32:21Z</time>
      </trkpt>
      <trkpt lat="46.01791" lon="6.7649">
        <ele>1269</ele>
        <time>2019-08-15T11:32:24Z</time>
      </trkpt>
      <trkpt lat="46.01789" lon="6.76488">
        <ele>1269</ele>
        <time>2019-08-15T11:32:27Z</time>
      </trkpt>
      <trkpt lat="46.01792" lon="6.76482">
        <ele>1269</ele>
        <time>2019-08-15T11:32:34Z</time>
      </trkpt>
      <trkpt lat="46.01792" lon="6.76478">
        <ele>1269</ele>
        <time>2019-08-15T11:32:37Z</time>
      </trkpt>
      <trkpt lat="46.01791" lon="6.76472">
        <ele>1269</ele>
        <time>2019-08-15T11:32:43Z</time>
      </trkpt>
      <trkpt lat="46.0179" lon="6.76471">
        <ele>1270</ele>
        <time>2019-08-15T11:32:45Z</time>
      </trkpt>
      <trkpt lat="46.01791" lon="6.76466">
        <ele>1269</ele>
        <time>2019-08-15T11:32:50Z</time>
      </trkpt>
      <trkpt lat="46.01788" lon="6.76465">
        <ele>1270</ele>
        <time>2019-08-15T11:32:54Z</time>
      </trkpt>
      <trkpt lat="46.01778" lon="6.7645">
        <ele>1274</ele>
        <time>2019-08-15T11:33:13Z</time>
      </trkpt>
      <trkpt lat="46.01774" lon="6.76449">
        <ele>1275</ele>
        <time>2019-08-15T11:33:18Z</time>
      </trkpt>
      <trkpt lat="46.0177" lon="6.76441">
        <ele>1277</ele>
        <time>2019-08-15T11:33:28Z</time>
      </trkpt>
      <trkpt lat="46.0177" lon="6.76435">
        <ele>1277</ele>
        <time>2019-08-15T11:33:33Z</time>
      </trkpt>
      <trkpt lat="46.01765" lon="6.76433">
        <ele>1278</ele>
        <time>2019-08-15T11:33:40Z</time>
      </trkpt>
      <trkpt lat="46.0176" lon="6.76436">
        <ele>1280</ele>
        <time>2019-08-15T11:33:47Z</time>
      </trkpt>
      <trkpt lat="46.01758" lon="6.76435">
        <ele>1280</ele>
        <time>2019-08-15T11:33:50Z</time>
      </trkpt>
      <trkpt lat="46.01756" lon="6.76427">
        <ele>1281</ele>
        <time>2019-08-15T11:33:58Z</time>
      </trkpt>
      <trkpt lat="46.01746" lon="6.76426">
        <ele>1283</ele>
        <time>2019-08-15T11:34:11Z</time>
      </trkpt>
      <trkpt lat="46.01744" lon="6.76419">
        <ele>1283</ele>
        <time>2019-08-15T11:34:18Z</time>
      </trkpt>
      <trkpt lat="46.01736" lon="6.76414">
        <ele>1285</ele>
        <time>2019-08-15T11:34:30Z</time>
      </trkpt>
      <trkpt lat="46.01735" lon="6.76412">
        <ele>1285</ele>
        <time>2019-08-15T11:34:32Z</time>
      </trkpt>
      <trkpt lat="46.01733" lon="6.76414">
        <ele>1285</ele>
        <time>2019-08-15T11:34:36Z</time>
      </trkpt>
      <trkpt lat="46.01725" lon="6.76406">
        <ele>1286</ele>
        <time>2019-08-15T11:34:49Z</time>
      </trkpt>
      <trkpt lat="46.01725" lon="6.76405">
        <ele>1286</ele>
        <time>2019-08-15T11:34:49Z</time>
      </trkpt>
      <trkpt lat="46.01714" lon="6.76399">
        <ele>1288</ele>
        <time>2019-08-15T11:35:05Z</time>
      </trkpt>
      <trkpt lat="46.01706" lon="6.76395">
        <ele>1290</ele>
        <time>2019-08-15T11:35:16Z</time>
      </trkpt>
      <trkpt lat="46.01697" lon="6.76385">
        <ele>1291</ele>
        <time>2019-08-15T11:35:32Z</time>
      </trkpt>
      <trkpt lat="46.01688" lon="6.7637">
        <ele>1291</ele>
        <time>2019-08-15T11:35:50Z</time>
      </trkpt>
      <trkpt lat="46.01674" lon="6.76358">
        <ele>1293</ele>
        <time>2019-08-15T11:36:12Z</time>
      </trkpt>
      <trkpt lat="46.01667" lon="6.76354">
        <ele>1294</ele>
        <time>2019-08-15T11:36:22Z</time>
      </trkpt>
      <trkpt lat="46.01659" lon="6.76347">
        <ele>1296</ele>
        <time>2019-08-15T11:36:34Z</time>
      </trkpt>
      <trkpt lat="46.01656" lon="6.76339">
        <ele>1296</ele>
        <time>2019-08-15T11:36:43Z</time>
      </trkpt>
      <trkpt lat="46.01639" lon="6.76327">
        <ele>1300</ele>
        <time>2019-08-15T11:37:08Z</time>
      </trkpt>
      <trkpt lat="46.01638" lon="6.76329">
        <ele>1301</ele>
        <time>2019-08-15T11:37:10Z</time>
      </trkpt>
      <trkpt lat="46.01629" lon="6.76325">
        <ele>1303</ele>
        <time>2019-08-15T11:37:23Z</time>
      </trkpt>
      <trkpt lat="46.01622" lon="6.76314">
        <ele>1303</ele>
        <time>2019-08-15T11:37:37Z</time>
      </trkpt>
      <trkpt lat="46.01603" lon="6.76304">
        <ele>1307</ele>
        <time>2019-08-15T11:38:04Z</time>
      </trkpt>
      <trkpt lat="46.01586" lon="6.76296">
        <ele>1310</ele>
        <time>2019-08-15T11:38:28Z</time>
      </trkpt>
      <trkpt lat="46.01586" lon="6.76293">
        <ele>1310</ele>
        <time>2019-08-15T11:38:30Z</time>
      </trkpt>
      <trkpt lat="46.01581" lon="6.76287">
        <ele>1311</ele>
        <time>2019-08-15T11:38:39Z</time>
      </trkpt>
      <trkpt lat="46.01576" lon="6.7627">
        <ele>1310</ele>
        <time>2019-08-15T11:38:56Z</time>
      </trkpt>
      <trkpt lat="46.01567" lon="6.76249">
        <ele>1311</ele>
        <time>2019-08-15T11:39:19Z</time>
      </trkpt>
      <trkpt lat="46.01549" lon="6.76221">
        <ele>1318</ele>
        <time>2019-08-15T11:39:54Z</time>
      </trkpt>
      <trkpt lat="46.01544" lon="6.76207">
        <ele>1320</ele>
        <time>2019-08-15T11:40:09Z</time>
      </trkpt>
      <trkpt lat="46.01536" lon="6.76195">
        <ele>1322</ele>
        <time>2019-08-15T11:40:24Z</time>
      </trkpt>
      <trkpt lat="46.01536" lon="6.7619">
        <ele>1322</ele>
        <time>2019-08-15T11:40:29Z</time>
      </trkpt>
      <trkpt lat="46.01521" lon="6.76175">
        <ele>1327</ele>
        <time>2019-08-15T11:40:53Z</time>
      </trkpt>
      <trkpt lat="46.01501" lon="6.76165">
        <ele>1332</ele>
        <time>2019-08-15T11:41:22Z</time>
      </trkpt>
      <trkpt lat="46.01493" lon="6.76164">
        <ele>1335</ele>
        <time>2019-08-15T11:41:32Z</time>
      </trkpt>
      <trkpt lat="46.01489" lon="6.76168">
        <ele>1337</ele>
        <time>2019-08-15T11:41:39Z</time>
      </trkpt>
      <trkpt lat="46.0149" lon="6.7617">
        <ele>1337</ele>
        <time>2019-08-15T11:41:41Z</time>
      </trkpt>
      <trkpt lat="46.0149" lon="6.76174">
        <ele>1337</ele>
        <time>2019-08-15T11:41:45Z</time>
      </trkpt>
      <trkpt lat="46.01491" lon="6.76177">
        <ele>1337</ele>
        <time>2019-08-15T11:41:48Z</time>
      </trkpt>
      <trkpt lat="46.0149" lon="6.76179">
        <ele>1337</ele>
        <time>2019-08-15T11:41:50Z</time>
      </trkpt>
      <trkpt lat="46.01492" lon="6.76184">
        <ele>1337</ele>
        <time>2019-08-15T11:41:56Z</time>
      </trkpt>
      <trkpt lat="46.01491" lon="6.76202">
        <ele>1338</ele>
        <time>2019-08-15T11:42:12Z</time>
      </trkpt>
      <trkpt lat="46.01489" lon="6.76206">
        <ele>1340</ele>
        <time>2019-08-15T11:42:17Z</time>
      </trkpt>
      <trkpt lat="46.01489" lon="6.76212">
        <ele>1340</ele>
        <time>2019-08-15T11:42:22Z</time>
      </trkpt>
      <trkpt lat="46.01488" lon="6.76214">
        <ele>1341</ele>
        <time>2019-08-15T11:42:25Z</time>
      </trkpt>
      <trkpt lat="46.01485" lon="6.76211">
        <ele>1343</ele>
        <time>2019-08-15T11:42:30Z</time>
      </trkpt>
      <trkpt lat="46.01457" lon="6.76194">
        <ele>1358</ele>
        <time>2019-08-15T11:43:10Z</time>
      </trkpt>
      <trkpt lat="46.01438" lon="6.76171">
        <ele>1363</ele>
        <time>2019-08-15T11:43:43Z</time>
      </trkpt>
      <trkpt lat="46.01414" lon="6.76143">
        <ele>1372</ele>
        <time>2019-08-15T11:44:24Z</time>
      </trkpt>
      <trkpt lat="46.01415" lon="6.7614">
        <ele>1371</ele>
        <time>2019-08-15T11:44:28Z</time>
      </trkpt>
      <trkpt lat="46.01408" lon="6.76128">
        <ele>1374</ele>
        <time>2019-08-15T11:44:42Z</time>
      </trkpt>
      <trkpt lat="46.01404" lon="6.76127">
        <ele>1377</ele>
        <time>2019-08-15T11:44:47Z</time>
      </trkpt>
      <trkpt lat="46.01401" lon="6.76119">
        <ele>1378</ele>
        <time>2019-08-15T11:44:56Z</time>
      </trkpt>
      <trkpt lat="46.01386" lon="6.76112">
        <ele>1386</ele>
        <time>2019-08-15T11:45:17Z</time>
      </trkpt>
      <trkpt lat="46.01375" lon="6.76116">
        <ele>1394</ele>
        <time>2019-08-15T11:45:32Z</time>
      </trkpt>
      <trkpt lat="46.01367" lon="6.76105">
        <ele>1396</ele>
        <time>2019-08-15T11:45:47Z</time>
      </trkpt>
      <trkpt lat="46.01367" lon="6.76099">
        <ele>1395</ele>
        <time>2019-08-15T11:45:52Z</time>
      </trkpt>
      <trkpt lat="46.01354" lon="6.7607">
        <ele>1395</ele>
        <time>2019-08-15T11:46:24Z</time>
      </trkpt>
      <trkpt lat="46.01349" lon="6.76069">
        <ele>1397</ele>
        <time>2019-08-15T11:46:31Z</time>
      </trkpt>
      <trkpt lat="46.01344" lon="6.76058">
        <ele>1398</ele>
        <time>2019-08-15T11:46:43Z</time>
      </trkpt>
      <trkpt lat="46.01342" lon="6.76059">
        <ele>1399</ele>
        <time>2019-08-15T11:46:46Z</time>
      </trkpt>
      <trkpt lat="46.01339" lon="6.76056">
        <ele>1400</ele>
        <time>2019-08-15T11:46:51Z</time>
      </trkpt>
      <trkpt lat="46.01338" lon="6.76052">
        <ele>1399</ele>
        <time>2019-08-15T11:46:55Z</time>
      </trkpt>
      <trkpt lat="46.01308" lon="6.76022">
        <ele>1409</ele>
        <time>2019-08-15T11:47:44Z</time>
      </trkpt>
      <trkpt lat="46.01299" lon="6.76009">
        <ele>1411</ele>
        <time>2019-08-15T11:48:01Z</time>
      </trkpt>
      <trkpt lat="46.01295" lon="6.75997">
        <ele>1411</ele>
        <time>2019-08-15T11:48:13Z</time>
      </trkpt>
      <trkpt lat="46.01289" lon="6.75995">
        <ele>1414</ele>
        <time>2019-08-15T11:48:21Z</time>
      </trkpt>
      <trkpt lat="46.01285" lon="6.75999">
        <ele>1417</ele>
        <time>2019-08-15T11:48:28Z</time>
      </trkpt>
      <trkpt lat="46.01289" lon="6.76009">
        <ele>1417</ele>
        <time>2019-08-15T11:48:38Z</time>
      </trkpt>
      <trkpt lat="46.01286" lon="6.76025">
        <ele>1422</ele>
        <time>2019-08-15T11:48:54Z</time>
      </trkpt>
      <trkpt lat="46.01283" lon="6.76037">
        <ele>1426</ele>
        <time>2019-08-15T11:49:06Z</time>
      </trkpt>
      <trkpt lat="46.01283" lon="6.76047">
        <ele>1429</ele>
        <time>2019-08-15T11:49:15Z</time>
      </trkpt>
      <trkpt lat="46.01282" lon="6.76048">
        <ele>1429</ele>
        <time>2019-08-15T11:49:17Z</time>
      </trkpt>
      <trkpt lat="46.01268" lon="6.76034">
        <ele>1434</ele>
        <time>2019-08-15T11:49:39Z</time>
      </trkpt>
      <trkpt lat="46.01263" lon="6.76026">
        <ele>1435</ele>
        <time>2019-08-15T11:49:49Z</time>
      </trkpt>
      <trkpt lat="46.01253" lon="6.76019">
        <ele>1439</ele>
        <time>2019-08-15T11:50:04Z</time>
      </trkpt>
      <trkpt lat="46.01233" lon="6.76022">
        <ele>1451</ele>
        <time>2019-08-15T11:50:31Z</time>
      </trkpt>
      <trkpt lat="46.01228" lon="6.75997">
        <ele>1449</ele>
        <time>2019-08-15T11:50:55Z</time>
      </trkpt>
      <trkpt lat="46.01212" lon="6.75996">
        <ele>1457</ele>
        <time>2019-08-15T11:51:16Z</time>
      </trkpt>
      <trkpt lat="46.01203" lon="6.76034">
        <ele>1471</ele>
        <time>2019-08-15T11:51:54Z</time>
      </trkpt>
      <trkpt lat="46.01213" lon="6.76064">
        <ele>1472</ele>
        <time>2019-08-15T11:52:24Z</time>
      </trkpt>
      <trkpt lat="46.01226" lon="6.76117">
        <ele>1480</ele>
        <time>2019-08-15T11:53:17Z</time>
      </trkpt>
      <trkpt lat="46.01236" lon="6.76153">
        <ele>1486</ele>
        <time>2019-08-15T11:53:52Z</time>
      </trkpt>
      <trkpt lat="46.01247" lon="6.76162">
        <ele>1481</ele>
        <time>2019-08-15T11:54:09Z</time>
      </trkpt>
      <trkpt lat="46.01247" lon="6.76179">
        <ele>1488</ele>
        <time>2019-08-15T11:54:25Z</time>
      </trkpt>
      <trkpt lat="46.01275" lon="6.76192">
        <ele>1481</ele>
        <time>2019-08-15T11:55:04Z</time>
      </trkpt>
      <trkpt lat="46.01305" lon="6.76226">
        <ele>1483</ele>
        <time>2019-08-15T11:55:55Z</time>
      </trkpt>
      <trkpt lat="46.01341" lon="6.76263">
        <ele>1479</ele>
        <time>2019-08-15T11:56:54Z</time>
      </trkpt>
      <trkpt lat="46.01342" lon="6.76282">
        <ele>1484</ele>
        <time>2019-08-15T11:57:12Z</time>
      </trkpt>
      <trkpt lat="46.01363" lon="6.76312">
        <ele>1477</ele>
        <time>2019-08-15T11:57:51Z</time>
      </trkpt>
      <trkpt lat="46.0137" lon="6.76357">
        <ele>1489</ele>
        <time>2019-08-15T11:58:34Z</time>
      </trkpt>
      <trkpt lat="46.01382" lon="6.76392">
        <ele>1496</ele>
        <time>2019-08-15T11:59:10Z</time>
      </trkpt>
      <trkpt lat="46.01382" lon="6.76407">
        <ele>1502</ele>
        <time>2019-08-15T11:59:24Z</time>
      </trkpt>
      <trkpt lat="46.01393" lon="6.76426">
        <ele>1504</ele>
        <time>2019-08-15T11:59:47Z</time>
      </trkpt>
      <trkpt lat="46.01391" lon="6.76439">
        <ele>1510</ele>
        <time>2019-08-15T12:00:00Z</time>
      </trkpt>
      <trkpt lat="46.01391" lon="6.76446">
        <ele>1512</ele>
        <time>2019-08-15T12:00:06Z</time>
      </trkpt>
      <trkpt lat="46.01396" lon="6.76448">
        <ele>1511</ele>
        <time>2019-08-15T12:00:13Z</time>
      </trkpt>
      <trkpt lat="46.01411" lon="6.76468">
        <ele>1514</ele>
        <time>2019-08-15T12:00:40Z</time>
      </trkpt>
      <trkpt lat="46.01419" lon="6.76476">
        <ele>1514</ele>
        <time>2019-08-15T12:00:53Z</time>
      </trkpt>
      <trkpt lat="46.01426" lon="6.76485">
        <ele>1512</ele>
        <time>2019-08-15T12:01:06Z</time>
      </trkpt>
      <trkpt lat="46.01435" lon="6.76493">
        <ele>1508</ele>
        <time>2019-08-15T12:01:20Z</time>
      </trkpt>
      <trkpt lat="46.01438" lon="6.76503">
        <ele>1511</ele>
        <time>2019-08-15T12:01:30Z</time>
      </trkpt>
      <trkpt lat="46.01436" lon="6.76514">
        <ele>1517</ele>
        <time>2019-08-15T12:01:41Z</time>
      </trkpt>
      <trkpt lat="46.01431" lon="6.76529">
        <ele>1526</ele>
        <time>2019-08-15T12:01:56Z</time>
      </trkpt>
      <trkpt lat="46.01419" lon="6.76537">
        <ele>1536</ele>
        <time>2019-08-15T12:02:14Z</time>
      </trkpt>
      <trkpt lat="46.01401" lon="6.76541">
        <ele>1542</ele>
        <time>2019-08-15T12:02:38Z</time>
      </trkpt>
      <trkpt lat="46.01387" lon="6.76539">
        <ele>1545</ele>
        <time>2019-08-15T12:02:57Z</time>
      </trkpt>
      <trkpt lat="46.01381" lon="6.76539">
        <ele>1546</ele>
        <time>2019-08-15T12:03:05Z</time>
      </trkpt>
      <trkpt lat="46.01381" lon="6.76547">
        <ele>1549</ele>
        <time>2019-08-15T12:03:12Z</time>
      </trkpt>
      <trkpt lat="46.01386" lon="6.76558">
        <ele>1551</ele>
        <time>2019-08-15T12:03:24Z</time>
      </trkpt>
      <trkpt lat="46.01375" lon="6.76559">
        <ele>1554</ele>
        <time>2019-08-15T12:03:39Z</time>
      </trkpt>
      <trkpt lat="46.01363" lon="6.76553">
        <ele>1555</ele>
        <time>2019-08-15T12:03:56Z</time>
      </trkpt>
      <trkpt lat="46.01363" lon="6.76563">
        <ele>1558</ele>
        <time>2019-08-15T12:04:05Z</time>
      </trkpt>
      <trkpt lat="46.01373" lon="6.76595">
        <ele>1567</ele>
        <time>2019-08-15T12:04:38Z</time>
      </trkpt>
      <trkpt lat="46.01397" lon="6.76619">
        <ele>1569</ele>
        <time>2019-08-15T12:05:17Z</time>
      </trkpt>
      <trkpt lat="46.01417" lon="6.76633">
        <ele>1570</ele>
        <time>2019-08-15T12:05:46Z</time>
      </trkpt>
      <trkpt lat="46.01436" lon="6.7664">
        <ele>1568</ele>
        <time>2019-08-15T12:06:13Z</time>
      </trkpt>
      <trkpt lat="46.01452" lon="6.7664">
        <ele>1565</ele>
        <time>2019-08-15T12:06:34Z</time>
      </trkpt>
      <trkpt lat="46.01462" lon="6.76639">
        <ele>1562</ele>
        <time>2019-08-15T12:06:47Z</time>
      </trkpt>
      <trkpt lat="46.01466" lon="6.76644">
        <ele>1564</ele>
        <time>2019-08-15T12:06:54Z</time>
      </trkpt>
      <trkpt lat="46.01461" lon="6.7665">
        <ele>1568</ele>
        <time>2019-08-15T12:07:03Z</time>
      </trkpt>
      <trkpt lat="46.0146" lon="6.76657">
        <ele>1572</ele>
        <time>2019-08-15T12:07:10Z</time>
      </trkpt>
      <trkpt lat="46.01466" lon="6.76664">
        <ele>1575</ele>
        <time>2019-08-15T12:07:20Z</time>
      </trkpt>
      <trkpt lat="46.0147" lon="6.76667">
        <ele>1576</ele>
        <time>2019-08-15T12:07:26Z</time>
      </trkpt>
      <trkpt lat="46.01466" lon="6.76672">
        <ele>1578</ele>
        <time>2019-08-15T12:07:33Z</time>
      </trkpt>
      <trkpt lat="46.01471" lon="6.76679">
        <ele>1580</ele>
        <time>2019-08-15T12:07:42Z</time>
      </trkpt>
      <trkpt lat="46.01468" lon="6.76689">
        <ele>1583</ele>
        <time>2019-08-15T12:07:52Z</time>
      </trkpt>
      <trkpt lat="46.01472" lon="6.76693">
        <ele>1584</ele>
        <time>2019-08-15T12:07:59Z</time>
      </trkpt>
      <trkpt lat="46.01466" lon="6.76694">
        <ele>1585</ele>
        <time>2019-08-15T12:08:07Z</time>
      </trkpt>
      <trkpt lat="46.01462" lon="6.76703">
        <ele>1589</ele>
        <time>2019-08-15T12:08:17Z</time>
      </trkpt>
      <trkpt lat="46.0147" lon="6.76728">
        <ele>1596</ele>
        <time>2019-08-15T12:08:42Z</time>
      </trkpt>
      <trkpt lat="46.01478" lon="6.76743">
        <ele>1600</ele>
        <time>2019-08-15T12:09:00Z</time>
      </trkpt>
      <trkpt lat="46.01488" lon="6.76755">
        <ele>1602</ele>
        <time>2019-08-15T12:09:17Z</time>
      </trkpt>
      <trkpt lat="46.01493" lon="6.76765">
        <ele>1604</ele>
        <time>2019-08-15T12:09:29Z</time>
      </trkpt>
      <trkpt lat="46.01491" lon="6.76773">
        <ele>1607</ele>
        <time>2019-08-15T12:09:37Z</time>
      </trkpt>
      <trkpt lat="46.01496" lon="6.76782">
        <ele>1608</ele>
        <time>2019-08-15T12:09:47Z</time>
      </trkpt>
      <trkpt lat="46.01505" lon="6.76799">
        <ele>1609</ele>
        <time>2019-08-15T12:10:07Z</time>
      </trkpt>
      <trkpt lat="46.01497" lon="6.76798">
        <ele>1613</ele>
        <time>2019-08-15T12:10:18Z</time>
      </trkpt>
      <trkpt lat="46.01492" lon="6.76804">
        <ele>1616</ele>
        <time>2019-08-15T12:10:27Z</time>
      </trkpt>
      <trkpt lat="46.01486" lon="6.76811">
        <ele>1620</ele>
        <time>2019-08-15T12:10:37Z</time>
      </trkpt>
      <trkpt lat="46.01477" lon="6.76814">
        <ele>1623</ele>
        <time>2019-08-15T12:10:49Z</time>
      </trkpt>
      <trkpt lat="46.01473" lon="6.76821">
        <ele>1626</ele>
        <time>2019-08-15T12:10:58Z</time>
      </trkpt>
      <trkpt lat="46.01479" lon="6.76841">
        <ele>1631</ele>
        <time>2019-08-15T12:11:18Z</time>
      </trkpt>
      <trkpt lat="46.01486" lon="6.76855">
        <ele>1634</ele>
        <time>2019-08-15T12:11:34Z</time>
      </trkpt>
      <trkpt lat="46.01502" lon="6.76923">
        <ele>1652</ele>
        <time>2019-08-15T12:12:40Z</time>
      </trkpt>
      <trkpt lat="46.01509" lon="6.76938">
        <ele>1653</ele>
        <time>2019-08-15T12:12:57Z</time>
      </trkpt>
      <trkpt lat="46.01506" lon="6.7694">
        <ele>1655</ele>
        <time>2019-08-15T12:13:01Z</time>
      </trkpt>
      <trkpt lat="46.01511" lon="6.76951">
        <ele>1656</ele>
        <time>2019-08-15T12:13:14Z</time>
      </trkpt>
      <trkpt lat="46.01507" lon="6.76948">
        <ele>1657</ele>
        <time>2019-08-15T12:13:20Z</time>
      </trkpt>
      <trkpt lat="46.01507" lon="6.76957">
        <ele>1659</ele>
        <time>2019-08-15T12:13:28Z</time>
      </trkpt>
      <trkpt lat="46.0151" lon="6.76975">
        <ele>1663</ele>
        <time>2019-08-15T12:13:45Z</time>
      </trkpt>
      <trkpt lat="46.0152" lon="6.76991">
        <ele>1665</ele>
        <time>2019-08-15T12:14:05Z</time>
      </trkpt>
      <trkpt lat="46.01524" lon="6.77004">
        <ele>1667</ele>
        <time>2019-08-15T12:14:18Z</time>
      </trkpt>
      <trkpt lat="46.01519" lon="6.77017">
        <ele>1673</ele>
        <time>2019-08-15T12:14:32Z</time>
      </trkpt>
      <trkpt lat="46.01527" lon="6.77038">
        <ele>1677</ele>
        <time>2019-08-15T12:14:54Z</time>
      </trkpt>
      <trkpt lat="46.01528" lon="6.77046">
        <ele>1679</ele>
        <time>2019-08-15T12:15:02Z</time>
      </trkpt>
      <trkpt lat="46.01519" lon="6.77049">
        <ele>1682</ele>
        <time>2019-08-15T12:15:14Z</time>
      </trkpt>
      <trkpt lat="46.01522" lon="6.77067">
        <ele>1687</ele>
        <time>2019-08-15T12:15:31Z</time>
      </trkpt>
      <trkpt lat="46.01529" lon="6.77083">
        <ele>1690</ele>
        <time>2019-08-15T12:15:49Z</time>
      </trkpt>
      <trkpt lat="46.01537" lon="6.77084">
        <ele>1689</ele>
        <time>2019-08-15T12:15:59Z</time>
      </trkpt>
      <trkpt lat="46.01549" lon="6.77087">
        <ele>1687</ele>
        <time>2019-08-15T12:16:16Z</time>
      </trkpt>
      <trkpt lat="46.01559" lon="6.77104">
        <ele>1690</ele>
        <time>2019-08-15T12:16:36Z</time>
      </trkpt>
      <trkpt lat="46.01565" lon="6.77119">
        <ele>1694</ele>
        <time>2019-08-15T12:16:52Z</time>
      </trkpt>
      <trkpt lat="46.01578" lon="6.7712">
        <ele>1691</ele>
        <time>2019-08-15T12:17:10Z</time>
      </trkpt>
      <trkpt lat="46.016" lon="6.77141">
        <ele>1686</ele>
        <time>2019-08-15T12:17:45Z</time>
      </trkpt>
      <trkpt lat="46.0162" lon="6.77166">
        <ele>1684</ele>
        <time>2019-08-15T12:18:20Z</time>
      </trkpt>
      <trkpt lat="46.01631" lon="6.77215">
        <ele>1695</ele>
        <time>2019-08-15T12:19:08Z</time>
      </trkpt>
      <trkpt lat="46.01625" lon="6.77227">
        <ele>1702</ele>
        <time>2019-08-15T12:19:22Z</time>
      </trkpt>
      <trkpt lat="46.01627" lon="6.7724">
        <ele>1706</ele>
        <time>2019-08-15T12:19:34Z</time>
      </trkpt>
      <trkpt lat="46.01635" lon="6.77255">
        <ele>1708</ele>
        <time>2019-08-15T12:19:52Z</time>
      </trkpt>
      <trkpt lat="46.01621" lon="6.77269">
        <ele>1717</ele>
        <time>2019-08-15T12:20:14Z</time>
      </trkpt>
      <trkpt lat="46.01613" lon="6.77286">
        <ele>1725</ele>
        <time>2019-08-15T12:20:33Z</time>
      </trkpt>
      <trkpt lat="46.01612" lon="6.77294">
        <ele>1727</ele>
        <time>2019-08-15T12:20:41Z</time>
      </trkpt>
      <trkpt lat="46.01624" lon="6.77303">
        <ele>1725</ele>
        <time>2019-08-15T12:20:59Z</time>
      </trkpt>
      <trkpt lat="46.0163" lon="6.77333">
        <ele>1730</ele>
        <time>2019-08-15T12:21:28Z</time>
      </trkpt>
      <trkpt lat="46.01631" lon="6.77373">
        <ele>1741</ele>
        <time>2019-08-15T12:22:05Z</time>
      </trkpt>
      <trkpt lat="46.01647" lon="6.77413">
        <ele>1743</ele>
        <time>2019-08-15T12:22:48Z</time>
      </trkpt>
      <trkpt lat="46.01654" lon="6.77431">
        <ele>1744</ele>
        <time>2019-08-15T12:23:07Z</time>
      </trkpt>
      <trkpt lat="46.01657" lon="6.77477">
        <ele>1755</ele>
        <time>2019-08-15T12:23:50Z</time>
      </trkpt>
      <trkpt lat="46.01663" lon="6.77489">
        <ele>1754</ele>
        <time>2019-08-15T12:24:03Z</time>
      </trkpt>
      <trkpt lat="46.01678" lon="6.77573">
        <ele>1764</ele>
        <time>2019-08-15T12:25:24Z</time>
      </trkpt>
      <trkpt lat="46.01688" lon="6.77607">
        <ele>1762</ele>
        <time>2019-08-15T12:25:58Z</time>
      </trkpt>
      <trkpt lat="46.01688" lon="6.77643">
        <ele>1765</ele>
        <time>2019-08-15T12:26:31Z</time>
      </trkpt>
      <trkpt lat="46.01682" lon="6.77666">
        <ele>1771</ele>
        <time>2019-08-15T12:26:54Z</time>
      </trkpt>
      <trkpt lat="46.01673" lon="6.77721">
        <ele>1776</ele>
        <time>2019-08-15T12:27:47Z</time>
      </trkpt>
      <trkpt lat="46.0167" lon="6.77759">
        <ele>1778</ele>
        <time>2019-08-15T12:28:22Z</time>
      </trkpt>
      <trkpt lat="46.0166" lon="6.77787">
        <ele>1783</ele>
        <time>2019-08-15T12:28:51Z</time>
      </trkpt>
      <trkpt lat="46.01646" lon="6.77819">
        <ele>1787</ele>
        <time>2019-08-15T12:29:26Z</time>
      </trkpt>
      <trkpt lat="46.01642" lon="6.77831">
        <ele>1788</ele>
        <time>2019-08-15T12:29:39Z</time>
      </trkpt>
      <trkpt lat="46.01629" lon="6.77845">
        <ele>1790</ele>
        <time>2019-08-15T12:30:00Z</time>
      </trkpt>
      <trkpt lat="46.01611" lon="6.77853">
        <ele>1792</ele>
        <time>2019-08-15T12:30:25Z</time>
      </trkpt>
      <trkpt lat="46.01587" lon="6.77852">
        <ele>1795</ele>
        <time>2019-08-15T12:30:57Z</time>
      </trkpt>
      <trkpt lat="46.01573" lon="6.77847">
        <ele>1796</ele>
        <time>2019-08-15T12:31:17Z</time>
      </trkpt>
      <trkpt lat="46.01547" lon="6.77845">
        <ele>1798</ele>
        <time>2019-08-15T12:31:51Z</time>
      </trkpt>
      <trkpt lat="46.01535" lon="6.7785">
        <ele>1799</ele>
        <time>2019-08-15T12:32:08Z</time>
      </trkpt>
      <trkpt lat="46.01525" lon="6.7785">
        <ele>1799</ele>
        <time>2019-08-15T12:32:21Z</time>
      </trkpt>
      <trkpt lat="46.01522" lon="6.77862">
        <ele>1798</ele>
        <time>2019-08-15T12:32:33Z</time>
      </trkpt>
      <trkpt lat="46.01518" lon="6.7787">
        <ele>1797</ele>
        <time>2019-08-15T12:32:42Z</time>
      </trkpt>
      <trkpt lat="46.01496" lon="6.77873">
        <ele>1797</ele>
        <time>2019-08-15T12:33:12Z</time>
      </trkpt>
      <trkpt lat="46.01484" lon="6.77887">
        <ele>1793</ele>
        <time>2019-08-15T12:33:32Z</time>
      </trkpt>
      <trkpt lat="46.01467" lon="6.77905">
        <ele>1788</ele>
        <time>2019-08-15T12:34:01Z</time>
      </trkpt>
      <trkpt lat="46.01449" lon="6.77901">
        <ele>1787</ele>
        <time>2019-08-15T12:34:25Z</time>
      </trkpt>
      <trkpt lat="46.01408" lon="6.77896">
        <ele>1785</ele>
        <time>2019-08-15T12:35:20Z</time>
      </trkpt>
      <trkpt lat="46.01388" lon="6.77897">
        <ele>1781</ele>
        <time>2019-08-15T12:35:47Z</time>
      </trkpt>
      <trkpt lat="46.01372" lon="6.77889">
        <ele>1781</ele>
        <time>2019-08-15T12:36:09Z</time>
      </trkpt>
      <trkpt lat="46.01337" lon="6.77896">
        <ele>1773</ele>
        <time>2019-08-15T12:36:56Z</time>
      </trkpt>
      <trkpt lat="46.01321" lon="6.77908">
        <ele>1769</ele>
        <time>2019-08-15T12:37:20Z</time>
      </trkpt>
      <trkpt lat="46.01304" lon="6.77928">
        <ele>1766</ele>
        <time>2019-08-15T12:37:50Z</time>
      </trkpt>
      <trkpt lat="46.01294" lon="6.77954">
        <ele>1762</ele>
        <time>2019-08-15T12:38:17Z</time>
      </trkpt>
      <trkpt lat="46.01275" lon="6.77992">
        <ele>1756</ele>
        <time>2019-08-15T12:39:01Z</time>
      </trkpt>
      <trkpt lat="46.01266" lon="6.78022">
        <ele>1752</ele>
        <time>2019-08-15T12:39:31Z</time>
      </trkpt>
      <trkpt lat="46.01225" lon="6.78065">
        <ele>1749</ele>
        <time>2019-08-15T12:40:39Z</time>
      </trkpt>
      <trkpt lat="46.01207" lon="6.78083">
        <ele>1748</ele>
        <time>2019-08-15T12:41:08Z</time>
      </trkpt>
      <trkpt lat="46.01197" lon="6.78088">
        <ele>1748</ele>
        <time>2019-08-15T12:41:22Z</time>
      </trkpt>
      <trkpt lat="46.01187" lon="6.78095">
        <ele>1748</ele>
        <time>2019-08-15T12:41:37Z</time>
      </trkpt>
      <trkpt lat="46.01186" lon="6.78104">
        <ele>1748</ele>
        <time>2019-08-15T12:41:45Z</time>
      </trkpt>
      <trkpt lat="46.01173" lon="6.78117">
        <ele>1748</ele>
        <time>2019-08-15T12:42:06Z</time>
      </trkpt>
      <trkpt lat="46.01142" lon="6.7814">
        <ele>1751</ele>
        <time>2019-08-15T12:42:53Z</time>
      </trkpt>
      <trkpt lat="46.01117" lon="6.78179">
        <ele>1752</ele>
        <time>2019-08-15T12:43:42Z</time>
      </trkpt>
      <trkpt lat="46.0111" lon="6.78209">
        <ele>1751</ele>
        <time>2019-08-15T12:44:11Z</time>
      </trkpt>
      <trkpt lat="46.01089" lon="6.78217">
        <ele>1754</ele>
        <time>2019-08-15T12:44:40Z</time>
      </trkpt>
      <trkpt lat="46.01057" lon="6.78248">
        <ele>1754</ele>
        <time>2019-08-15T12:45:32Z</time>
      </trkpt>
      <trkpt lat="46.01044" lon="6.78257">
        <ele>1753</ele>
        <time>2019-08-15T12:45:51Z</time>
      </trkpt>
      <trkpt lat="46.0104" lon="6.78266">
        <ele>1753</ele>
        <time>2019-08-15T12:46:01Z</time>
      </trkpt>
      <trkpt lat="46.01034" lon="6.78271">
        <ele>1753</ele>
        <time>2019-08-15T12:46:10Z</time>
      </trkpt>
      <trkpt lat="46.01031" lon="6.78286">
        <ele>1752</ele>
        <time>2019-08-15T12:46:25Z</time>
      </trkpt>
      <trkpt lat="46.01015" lon="6.78315">
        <ele>1751</ele>
        <time>2019-08-15T12:46:59Z</time>
      </trkpt>
      <trkpt lat="46.01" lon="6.78343">
        <ele>1751</ele>
        <time>2019-08-15T12:47:32Z</time>
      </trkpt>
      <trkpt lat="46.01" lon="6.78357">
        <ele>1752</ele>
        <time>2019-08-15T12:47:45Z</time>
      </trkpt>
      <trkpt lat="46.01" lon="6.78358">
        <ele>1752</ele>
        <time>2019-08-15T12:47:46Z</time>
      </trkpt>
      <trkpt lat="46.0097" lon="6.78366">
        <ele>1753</ele>
        <time>2019-08-15T12:48:26Z</time>
      </trkpt>
      <trkpt lat="46.00954" lon="6.78364">
        <ele>1753</ele>
        <time>2019-08-15T12:48:48Z</time>
      </trkpt>
      <trkpt lat="46.00936" lon="6.78361">
        <ele>1753</ele>
        <time>2019-08-15T12:49:12Z</time>
      </trkpt>
      <trkpt lat="46.00923" lon="6.78365">
        <ele>1753</ele>
        <time>2019-08-15T12:49:30Z</time>
      </trkpt>
      <trkpt lat="46.00911" lon="6.78365">
        <ele>1753</ele>
        <time>2019-08-15T12:49:46Z</time>
      </trkpt>
      <trkpt lat="46.00896" lon="6.78363">
        <ele>1755</ele>
        <time>2019-08-15T12:50:06Z</time>
      </trkpt>
      <trkpt lat="46.0088" lon="6.78357">
        <ele>1755</ele>
        <time>2019-08-15T12:50:28Z</time>
      </trkpt>
      <trkpt lat="46.00873" lon="6.78357">
        <ele>1756</ele>
        <time>2019-08-15T12:50:37Z</time>
      </trkpt>
      <trkpt lat="46.00849" lon="6.78369">
        <ele>1759</ele>
        <time>2019-08-15T12:51:11Z</time>
      </trkpt>
      <trkpt lat="46.0082" lon="6.78396">
        <ele>1761</ele>
        <time>2019-08-15T12:51:57Z</time>
      </trkpt>
      <trkpt lat="46.00805" lon="6.78408">
        <ele>1762</ele>
        <time>2019-08-15T12:52:20Z</time>
      </trkpt>
      <trkpt lat="46.00792" lon="6.78415">
        <ele>1762</ele>
        <time>2019-08-15T12:52:39Z</time>
      </trkpt>
      <trkpt lat="46.00779" lon="6.78418">
        <ele>1762</ele>
        <time>2019-08-15T12:52:56Z</time>
      </trkpt>
      <trkpt lat="46.00765" lon="6.78423">
        <ele>1762</ele>
        <time>2019-08-15T12:53:16Z</time>
      </trkpt>
      <trkpt lat="46.0076" lon="6.78428">
        <ele>1762</ele>
        <time>2019-08-15T12:53:24Z</time>
      </trkpt>
      <trkpt lat="46.00754" lon="6.78441">
        <ele>1763</ele>
        <time>2019-08-15T12:53:38Z</time>
      </trkpt>
      <trkpt lat="46.00747" lon="6.78444">
        <ele>1764</ele>
        <time>2019-08-15T12:53:48Z</time>
      </trkpt>
      <trkpt lat="46.00736" lon="6.78448">
        <ele>1764</ele>
        <time>2019-08-15T12:54:03Z</time>
      </trkpt>
      <trkpt lat="46.00726" lon="6.78455">
        <ele>1765</ele>
        <time>2019-08-15T12:54:18Z</time>
      </trkpt>
      <trkpt lat="46.00709" lon="6.78475">
        <ele>1767</ele>
        <time>2019-08-15T12:54:47Z</time>
      </trkpt>
      <trkpt lat="46.007" lon="6.78489">
        <ele>1768</ele>
        <time>2019-08-15T12:55:05Z</time>
      </trkpt>
      <trkpt lat="46.00698" lon="6.78505">
        <ele>1770</ele>
        <time>2019-08-15T12:55:20Z</time>
      </trkpt>
      <trkpt lat="46.00698" lon="6.78513">
        <ele>1771</ele>
        <time>2019-08-15T12:55:27Z</time>
      </trkpt>
      <trkpt lat="46.00694" lon="6.78527">
        <ele>1774</ele>
        <time>2019-08-15T12:55:41Z</time>
      </trkpt>
      <trkpt lat="46.00705" lon="6.78547">
        <ele>1776</ele>
        <time>2019-08-15T12:56:05Z</time>
      </trkpt>
      <trkpt lat="46.00708" lon="6.78556">
        <ele>1777</ele>
        <time>2019-08-15T12:56:14Z</time>
      </trkpt>
      <trkpt lat="46.00721" lon="6.78566">
        <ele>1778</ele>
        <time>2019-08-15T12:56:34Z</time>
      </trkpt>
      <trkpt lat="46.00726" lon="6.78586">
        <ele>1781</ele>
        <time>2019-08-15T12:56:54Z</time>
      </trkpt>
      <trkpt lat="46.00728" lon="6.786">
        <ele>1782</ele>
        <time>2019-08-15T12:57:07Z</time>
      </trkpt>
      <trkpt lat="46.00722" lon="6.7861">
        <ele>1784</ele>
        <time>2019-08-15T12:57:19Z</time>
      </trkpt>
      <trkpt lat="46.0072" lon="6.78623">
        <ele>1786</ele>
        <time>2019-08-15T12:57:31Z</time>
      </trkpt>
      <trkpt lat="46.00712" lon="6.78627">
        <ele>1787</ele>
        <time>2019-08-15T12:57:43Z</time>
      </trkpt>
      <trkpt lat="46.00702" lon="6.78628">
        <ele>1787</ele>
        <time>2019-08-15T12:57:56Z</time>
      </trkpt>
      <trkpt lat="46.00698" lon="6.78634">
        <ele>1788</ele>
        <time>2019-08-15T12:58:04Z</time>
      </trkpt>
      <trkpt lat="46.00693" lon="6.78638">
        <ele>1789</ele>
        <time>2019-08-15T12:58:11Z</time>
      </trkpt>
      <trkpt lat="46.00672" lon="6.78635">
        <ele>1789</ele>
        <time>2019-08-15T12:58:40Z</time>
      </trkpt>
      <trkpt lat="46.00665" lon="6.78635">
        <ele>1789</ele>
        <time>2019-08-15T12:58:49Z</time>
      </trkpt>
      <trkpt lat="46.00655" lon="6.78639">
        <ele>1790</ele>
        <time>2019-08-15T12:59:03Z</time>
      </trkpt>
      <trkpt lat="46.00646" lon="6.78653">
        <ele>1791</ele>
        <time>2019-08-15T12:59:21Z</time>
      </trkpt>
      <trkpt lat="46.0064" lon="6.78666">
        <ele>1793</ele>
        <time>2019-08-15T12:59:35Z</time>
      </trkpt>
      <trkpt lat="46.00614" lon="6.78701">
        <ele>1794</ele>
        <time>2019-08-15T13:00:22Z</time>
      </trkpt>
      <trkpt lat="46.00585" lon="6.78737">
        <ele>1795</ele>
        <time>2019-08-15T13:01:14Z</time>
      </trkpt>
      <trkpt lat="46.00569" lon="6.78772">
        <ele>1797</ele>
        <time>2019-08-15T13:01:52Z</time>
      </trkpt>
      <trkpt lat="46.00552" lon="6.78808">
        <ele>1799</ele>
        <time>2019-08-15T13:02:33Z</time>
      </trkpt>
      <trkpt lat="46.0054" lon="6.7883">
        <ele>1800</ele>
        <time>2019-08-15T13:02:59Z</time>
      </trkpt>
      <trkpt lat="46.00519" lon="6.78845">
        <ele>1801</ele>
        <time>2019-08-15T13:03:30Z</time>
      </trkpt>
      <trkpt lat="46.00517" lon="6.7886">
        <ele>1801</ele>
        <time>2019-08-15T13:03:44Z</time>
      </trkpt>
      <trkpt lat="46.00514" lon="6.78862">
        <ele>1801</ele>
        <time>2019-08-15T13:03:49Z</time>
      </trkpt>
      <trkpt lat="46.0051" lon="6.78864">
        <ele>1801</ele>
        <time>2019-08-15T13:03:54Z</time>
      </trkpt>
      <trkpt lat="46.00503" lon="6.78885">
        <ele>1802</ele>
        <time>2019-08-15T13:04:16Z</time>
      </trkpt>
      <trkpt lat="46.00489" lon="6.78911">
        <ele>1802</ele>
        <time>2019-08-15T13:04:46Z</time>
      </trkpt>
      <trkpt lat="46.00481" lon="6.78929">
        <ele>1803</ele>
        <time>2019-08-15T13:05:06Z</time>
      </trkpt>
      <trkpt lat="46.00476" lon="6.7895">
        <ele>1803</ele>
        <time>2019-08-15T13:05:27Z</time>
      </trkpt>
      <trkpt lat="46.00481" lon="6.7899">
        <ele>1803</ele>
        <time>2019-08-15T13:06:04Z</time>
      </trkpt>
      <trkpt lat="46.00484" lon="6.79024">
        <ele>1804</ele>
        <time>2019-08-15T13:06:36Z</time>
      </trkpt>
      <trkpt lat="46.00485" lon="6.79059">
        <ele>1806</ele>
        <time>2019-08-15T13:07:09Z</time>
      </trkpt>
      <trkpt lat="46.00482" lon="6.79074">
        <ele>1806</ele>
        <time>2019-08-15T13:07:23Z</time>
      </trkpt>
      <trkpt lat="46.00481" lon="6.79088">
        <ele>1807</ele>
        <time>2019-08-15T13:07:36Z</time>
      </trkpt>
      <trkpt lat="46.00479" lon="6.79098">
        <ele>1808</ele>
        <time>2019-08-15T13:07:46Z</time>
      </trkpt>
      <trkpt lat="46.00465" lon="6.79131">
        <ele>1810</ele>
        <time>2019-08-15T13:08:22Z</time>
      </trkpt>
      <trkpt lat="46.00454" lon="6.79142">
        <ele>1811</ele>
        <time>2019-08-15T13:08:39Z</time>
      </trkpt>
      <trkpt lat="46.00455" lon="6.79157">
        <ele>1812</ele>
        <time>2019-08-15T13:08:53Z</time>
      </trkpt>
      <trkpt lat="46.00444" lon="6.79181">
        <ele>1815</ele>
        <time>2019-08-15T13:09:20Z</time>
      </trkpt>
      <trkpt lat="46.00442" lon="6.79191">
        <ele>1817</ele>
        <time>2019-08-15T13:09:30Z</time>
      </trkpt>
      <trkpt lat="46.00436" lon="6.79199">
        <ele>1818</ele>
        <time>2019-08-15T13:09:41Z</time>
      </trkpt>
      <trkpt lat="46.0043" lon="6.79201">
        <ele>1818</ele>
        <time>2019-08-15T13:09:49Z</time>
      </trkpt>
      <trkpt lat="46.00423" lon="6.79203">
        <ele>1818</ele>
        <time>2019-08-15T13:09:58Z</time>
      </trkpt>
      <trkpt lat="46.00413" lon="6.79204">
        <ele>1817</ele>
        <time>2019-08-15T13:10:12Z</time>
      </trkpt>
      <trkpt lat="46.00405" lon="6.79209">
        <ele>1818</ele>
        <time>2019-08-15T13:10:23Z</time>
      </trkpt>
      <trkpt lat="46.00396" lon="6.79217">
        <ele>1819</ele>
        <time>2019-08-15T13:10:37Z</time>
      </trkpt>
      <trkpt lat="46.0039" lon="6.79228">
        <ele>1820</ele>
        <time>2019-08-15T13:10:50Z</time>
      </trkpt>
      <trkpt lat="46.00384" lon="6.79236">
        <ele>1821</ele>
        <time>2019-08-15T13:11:01Z</time>
      </trkpt>
      <trkpt lat="46.00378" lon="6.79246">
        <ele>1822</ele>
        <time>2019-08-15T13:11:14Z</time>
      </trkpt>
      <trkpt lat="46.00373" lon="6.79256">
        <ele>1824</ele>
        <time>2019-08-15T13:11:25Z</time>
      </trkpt>
      <trkpt lat="46.00369" lon="6.79255">
        <ele>1823</ele>
        <time>2019-08-15T13:11:30Z</time>
      </trkpt>
      <trkpt lat="46.00363" lon="6.79259">
        <ele>1824</ele>
        <time>2019-08-15T13:11:39Z</time>
      </trkpt>
      <trkpt lat="46.00353" lon="6.79254">
        <ele>1823</ele>
        <time>2019-08-15T13:11:53Z</time>
      </trkpt>
      <trkpt lat="46.00346" lon="6.79253">
        <ele>1823</ele>
        <time>2019-08-15T13:12:03Z</time>
      </trkpt>
      <trkpt lat="46.00344" lon="6.79253">
        <ele>1823</ele>
        <time>2019-08-15T13:12:05Z</time>
      </trkpt>
      <trkpt lat="46.00343" lon="6.79251">
        <ele>1822</ele>
        <time>2019-08-15T13:12:08Z</time>
      </trkpt>
      <trkpt lat="46.00339" lon="6.7925">
        <ele>1822</ele>
        <time>2019-08-15T13:12:13Z</time>
      </trkpt>
      <trkpt lat="46.00338" lon="6.79255">
        <ele>1823</ele>
        <time>2019-08-15T13:12:18Z</time>
      </trkpt>
      <trkpt lat="46.00332" lon="6.79262">
        <ele>1825</ele>
        <time>2019-08-15T13:12:28Z</time>
      </trkpt>
      <trkpt lat="46.00334" lon="6.79266">
        <ele>1825</ele>
        <time>2019-08-15T13:12:33Z</time>
      </trkpt>
      <trkpt lat="46.00332" lon="6.79273">
        <ele>1826</ele>
        <time>2019-08-15T13:12:40Z</time>
      </trkpt>
      <trkpt lat="46.00336" lon="6.7928">
        <ele>1827</ele>
        <time>2019-08-15T13:12:48Z</time>
      </trkpt>
      <trkpt lat="46.00335" lon="6.79284">
        <ele>1828</ele>
        <time>2019-08-15T13:12:52Z</time>
      </trkpt>
      <trkpt lat="46.00328" lon="6.79284">
        <ele>1830</ele>
        <time>2019-08-15T13:13:02Z</time>
      </trkpt>
      <trkpt lat="46.00316" lon="6.79281">
        <ele>1834</ele>
        <time>2019-08-15T13:13:18Z</time>
      </trkpt>
      <trkpt lat="46.00284" lon="6.79267">
        <ele>1843</ele>
        <time>2019-08-15T13:14:02Z</time>
      </trkpt>
      <trkpt lat="46.00254" lon="6.7925">
        <ele>1851</ele>
        <time>2019-08-15T13:14:45Z</time>
      </trkpt>
      <trkpt lat="46.00236" lon="6.79241">
        <ele>1856</ele>
        <time>2019-08-15T13:15:11Z</time>
      </trkpt>
      <trkpt lat="46.00227" lon="6.79241">
        <ele>1860</ele>
        <time>2019-08-15T13:15:23Z</time>
      </trkpt>
      <trkpt lat="46.00219" lon="6.7924">
        <ele>1863</ele>
        <time>2019-08-15T13:15:34Z</time>
      </trkpt>
      <trkpt lat="46.00208" lon="6.79225">
        <ele>1865</ele>
        <time>2019-08-15T13:15:54Z</time>
      </trkpt>
      <trkpt lat="46.002" lon="6.79217">
        <ele>1867</ele>
        <time>2019-08-15T13:16:07Z</time>
      </trkpt>
      <trkpt lat="46.00197" lon="6.79216">
        <ele>1868</ele>
        <time>2019-08-15T13:16:11Z</time>
      </trkpt>
      <trkpt lat="46.00195" lon="6.79221">
        <ele>1870</ele>
        <time>2019-08-15T13:16:16Z</time>
      </trkpt>
      <trkpt lat="46.00195" lon="6.79233">
        <ele>1872</ele>
        <time>2019-08-15T13:16:27Z</time>
      </trkpt>
      <trkpt lat="46.00194" lon="6.79238">
        <ele>1873</ele>
        <time>2019-08-15T13:16:32Z</time>
      </trkpt>
      <trkpt lat="46.00189" lon="6.79231">
        <ele>1874</ele>
        <time>2019-08-15T13:16:42Z</time>
      </trkpt>
      <trkpt lat="46.00186" lon="6.79234">
        <ele>1876</ele>
        <time>2019-08-15T13:16:46Z</time>
      </trkpt>
      <trkpt lat="46.00186" lon="6.79238">
        <ele>1876</ele>
        <time>2019-08-15T13:16:50Z</time>
      </trkpt>
      <trkpt lat="46.0019" lon="6.79258">
        <ele>1878</ele>
        <time>2019-08-15T13:17:09Z</time>
      </trkpt>
      <trkpt lat="46.00194" lon="6.79295">
        <ele>1885</ele>
        <time>2019-08-15T13:17:44Z</time>
      </trkpt>
      <trkpt lat="46.00207" lon="6.79355">
        <ele>1896</ele>
        <time>2019-08-15T13:18:42Z</time>
      </trkpt>
      <trkpt lat="46.00215" lon="6.79382">
        <ele>1901</ele>
        <time>2019-08-15T13:19:10Z</time>
      </trkpt>
      <trkpt lat="46.00217" lon="6.79395">
        <ele>1903</ele>
        <time>2019-08-15T13:19:22Z</time>
      </trkpt>
      <trkpt lat="46.00218" lon="6.79409">
        <ele>1907</ele>
        <time>2019-08-15T13:19:35Z</time>
      </trkpt>
      <trkpt lat="46.00214" lon="6.79434">
        <ele>1915</ele>
        <time>2019-08-15T13:19:59Z</time>
      </trkpt>
      <trkpt lat="46.00218" lon="6.7948">
        <ele>1924</ele>
        <time>2019-08-15T13:20:42Z</time>
      </trkpt>
      <trkpt lat="46.00217" lon="6.79485">
        <ele>1925</ele>
        <time>2019-08-15T13:20:47Z</time>
      </trkpt>
      <trkpt lat="46.00219" lon="6.79492">
        <ele>1926</ele>
        <time>2019-08-15T13:20:54Z</time>
      </trkpt>
      <trkpt lat="46.00219" lon="6.79504">
        <ele>1929</ele>
        <time>2019-08-15T13:21:05Z</time>
      </trkpt>
      <trkpt lat="46.00218" lon="6.79516">
        <ele>1932</ele>
        <time>2019-08-15T13:21:16Z</time>
      </trkpt>
      <trkpt lat="46.00209" lon="6.79566">
        <ele>1950</ele>
        <time>2019-08-15T13:22:04Z</time>
      </trkpt>
      <trkpt lat="46.00212" lon="6.7958">
        <ele>1952</ele>
        <time>2019-08-15T13:22:17Z</time>
      </trkpt>
      <trkpt lat="46.002" lon="6.7958">
        <ele>1958</ele>
        <time>2019-08-15T13:22:33Z</time>
      </trkpt>
      <trkpt lat="46.00199" lon="6.79583">
        <ele>1959</ele>
        <time>2019-08-15T13:22:36Z</time>
      </trkpt>
      <trkpt lat="46.00202" lon="6.79595">
        <ele>1960</ele>
        <time>2019-08-15T13:22:48Z</time>
      </trkpt>
      <trkpt lat="46.00203" lon="6.79606">
        <ele>1961</ele>
        <time>2019-08-15T13:22:59Z</time>
      </trkpt>
      <trkpt lat="46.00201" lon="6.79617">
        <ele>1964</ele>
        <time>2019-08-15T13:23:09Z</time>
      </trkpt>
      <trkpt lat="46.00197" lon="6.79625">
        <ele>1968</ele>
        <time>2019-08-15T13:23:18Z</time>
      </trkpt>
      <trkpt lat="46.00196" lon="6.79633">
        <ele>1970</ele>
        <time>2019-08-15T13:23:26Z</time>
      </trkpt>
      <trkpt lat="46.00196" lon="6.79641">
        <ele>1971</ele>
        <time>2019-08-15T13:23:33Z</time>
      </trkpt>
      <trkpt lat="46.00208" lon="6.79669">
        <ele>1972</ele>
        <time>2019-08-15T13:24:04Z</time>
      </trkpt>
      <trkpt lat="46.00219" lon="6.79707">
        <ele>1976</ele>
        <time>2019-08-15T13:24:42Z</time>
      </trkpt>
      <trkpt lat="46.00219" lon="6.79723">
        <ele>1980</ele>
        <time>2019-08-15T13:24:57Z</time>
      </trkpt>
      <trkpt lat="46.00217" lon="6.7974">
        <ele>1985</ele>
        <time>2019-08-15T13:25:13Z</time>
      </trkpt>
      <trkpt lat="46.00213" lon="6.79741">
        <ele>1987</ele>
        <time>2019-08-15T13:25:18Z</time>
      </trkpt>
      <trkpt lat="46.00209" lon="6.79737">
        <ele>1987</ele>
        <time>2019-08-15T13:25:25Z</time>
      </trkpt>
      <trkpt lat="46.00198" lon="6.79732">
        <ele>1990</ele>
        <time>2019-08-15T13:25:40Z</time>
      </trkpt>
      <trkpt lat="46.00191" lon="6.79732">
        <ele>1993</ele>
        <time>2019-08-15T13:25:49Z</time>
      </trkpt>
      <trkpt lat="46.00179" lon="6.79725">
        <ele>1996</ele>
        <time>2019-08-15T13:26:07Z</time>
      </trkpt>
      <trkpt lat="46.0017" lon="6.79721">
        <ele>1998</ele>
        <time>2019-08-15T13:26:19Z</time>
      </trkpt>
      <trkpt lat="46.00162" lon="6.79726">
        <ele>2003</ele>
        <time>2019-08-15T13:26:31Z</time>
      </trkpt>
      <trkpt lat="46.00146" lon="6.79729">
        <ele>2010</ele>
        <time>2019-08-15T13:26:52Z</time>
      </trkpt>
      <trkpt lat="46.00156" lon="6.79752">
        <ele>2010</ele>
        <time>2019-08-15T13:27:18Z</time>
      </trkpt>
      <trkpt lat="46.00161" lon="6.79767">
        <ele>2010</ele>
        <time>2019-08-15T13:27:33Z</time>
      </trkpt>
      <trkpt lat="46.00166" lon="6.79779">
        <ele>2010</ele>
        <time>2019-08-15T13:27:46Z</time>
      </trkpt>
      <trkpt lat="46.00167" lon="6.79794">
        <ele>2012</ele>
        <time>2019-08-15T13:28:00Z</time>
      </trkpt>
      <trkpt lat="46.00167" lon="6.79809">
        <ele>2015</ele>
        <time>2019-08-15T13:28:14Z</time>
      </trkpt>
      <trkpt lat="46.00162" lon="6.79811">
        <ele>2017</ele>
        <time>2019-08-15T13:28:21Z</time>
      </trkpt>
      <trkpt lat="46.00161" lon="6.7982">
        <ele>2019</ele>
        <time>2019-08-15T13:28:29Z</time>
      </trkpt>
      <trkpt lat="46.00158" lon="6.79822">
        <ele>2021</ele>
        <time>2019-08-15T13:28:34Z</time>
      </trkpt>
      <trkpt lat="46.00158" lon="6.79829">
        <ele>2022</ele>
        <time>2019-08-15T13:28:40Z</time>
      </trkpt>
      <trkpt lat="46.00156" lon="6.79829">
        <ele>2023</ele>
        <time>2019-08-15T13:28:43Z</time>
      </trkpt>
      <trkpt lat="46.00145" lon="6.79822">
        <ele>2026</ele>
        <time>2019-08-15T13:28:59Z</time>
      </trkpt>
      <trkpt lat="46.00143" lon="6.79826">
        <ele>2028</ele>
        <time>2019-08-15T13:29:03Z</time>
      </trkpt>
      <trkpt lat="46.00144" lon="6.79835">
        <ele>2029</ele>
        <time>2019-08-15T13:29:12Z</time>
      </trkpt>
      <trkpt lat="46.00143" lon="6.79843">
        <ele>2031</ele>
        <time>2019-08-15T13:29:19Z</time>
      </trkpt>
      <trkpt lat="46.0014" lon="6.7984">
        <ele>2032</ele>
        <time>2019-08-15T13:29:24Z</time>
      </trkpt>
      <trkpt lat="46.00138" lon="6.79842">
        <ele>2033</ele>
        <time>2019-08-15T13:29:27Z</time>
      </trkpt>
      <trkpt lat="46.00137" lon="6.79848">
        <ele>2034</ele>
        <time>2019-08-15T13:29:33Z</time>
      </trkpt>
      <trkpt lat="46.00135" lon="6.79849">
        <ele>2036</ele>
        <time>2019-08-15T13:29:36Z</time>
      </trkpt>
      <trkpt lat="46.00133" lon="6.79843">
        <ele>2035</ele>
        <time>2019-08-15T13:29:42Z</time>
      </trkpt>
      <trkpt lat="46.0013" lon="6.79846">
        <ele>2037</ele>
        <time>2019-08-15T13:29:47Z</time>
      </trkpt>
      <trkpt lat="46.00127" lon="6.79844">
        <ele>2038</ele>
        <time>2019-08-15T13:29:51Z</time>
      </trkpt>
      <trkpt lat="46.00126" lon="6.79847">
        <ele>2039</ele>
        <time>2019-08-15T13:29:55Z</time>
      </trkpt>
      <trkpt lat="46.00127" lon="6.79852">
        <ele>2040</ele>
        <time>2019-08-15T13:29:59Z</time>
      </trkpt>
      <trkpt lat="46.00123" lon="6.79853">
        <ele>2041</ele>
        <time>2019-08-15T13:30:05Z</time>
      </trkpt>
      <trkpt lat="46.00117" lon="6.7985">
        <ele>2043</ele>
        <time>2019-08-15T13:30:13Z</time>
      </trkpt>
      <trkpt lat="46.00113" lon="6.79852">
        <ele>2046</ele>
        <time>2019-08-15T13:30:19Z</time>
      </trkpt>
      <trkpt lat="46.00114" lon="6.79849">
        <ele>2044</ele>
        <time>2019-08-15T13:30:22Z</time>
      </trkpt>
      <trkpt lat="46.00112" lon="6.79848">
        <ele>2045</ele>
        <time>2019-08-15T13:30:25Z</time>
      </trkpt>
      <trkpt lat="46.00103" lon="6.79848">
        <ele>2049</ele>
        <time>2019-08-15T13:30:37Z</time>
      </trkpt>
      <trkpt lat="46.00095" lon="6.79853">
        <ele>2053</ele>
        <time>2019-08-15T13:30:48Z</time>
      </trkpt>
      <trkpt lat="46.00087" lon="6.79854">
        <ele>2057</ele>
        <time>2019-08-15T13:30:59Z</time>
      </trkpt>
      <trkpt lat="46.00069" lon="6.7985">
        <ele>2062</ele>
        <time>2019-08-15T13:31:23Z</time>
      </trkpt>
      <trkpt lat="46.00027" lon="6.79841">
        <ele>2072</ele>
        <time>2019-08-15T13:32:20Z</time>
      </trkpt>
      <trkpt lat="45.99997" lon="6.79847">
        <ele>2081</ele>
        <time>2019-08-15T13:33:01Z</time>
      </trkpt>
      <trkpt lat="45.99986" lon="6.79849">
        <ele>2081</ele>
        <time>2019-08-15T13:33:15Z</time>
      </trkpt>
      <trkpt lat="45.99975" lon="6.79858">
        <ele>2083</ele>
        <time>2019-08-15T13:33:32Z</time>
      </trkpt>
      <trkpt lat="45.99942" lon="6.79887">
        <ele>2087</ele>
        <time>2019-08-15T13:34:24Z</time>
      </trkpt>
      <trkpt lat="45.99925" lon="6.79907">
        <ele>2090</ele>
        <time>2019-08-15T13:34:53Z</time>
      </trkpt>
      <trkpt lat="45.99911" lon="6.79929">
        <ele>2095</ele>
        <time>2019-08-15T13:35:21Z</time>
      </trkpt>
      <trkpt lat="45.99895" lon="6.79928">
        <ele>2098</ele>
        <time>2019-08-15T13:35:42Z</time>
      </trkpt>
      <trkpt lat="45.99874" lon="6.79934">
        <ele>2104</ele>
        <time>2019-08-15T13:36:11Z</time>
      </trkpt>
      <trkpt lat="45.99855" lon="6.79906">
        <ele>2104</ele>
        <time>2019-08-15T13:36:47Z</time>
      </trkpt>
      <trkpt lat="45.99831" lon="6.79887">
        <ele>2106</ele>
        <time>2019-08-15T13:37:24Z</time>
      </trkpt>
      <trkpt lat="45.99814" lon="6.79861">
        <ele>2106</ele>
        <time>2019-08-15T13:37:57Z</time>
      </trkpt>
      <trkpt lat="45.99807" lon="6.79827">
        <ele>2102</ele>
        <time>2019-08-15T13:38:30Z</time>
      </trkpt>
      <trkpt lat="45.99791" lon="6.79801">
        <ele>2102</ele>
        <time>2019-08-15T13:39:02Z</time>
      </trkpt>
      <trkpt lat="45.99768" lon="6.79775">
        <ele>2106</ele>
        <time>2019-08-15T13:39:41Z</time>
      </trkpt>
      <trkpt lat="45.99754" lon="6.79764">
        <ele>2110</ele>
        <time>2019-08-15T13:40:02Z</time>
      </trkpt>
      <trkpt lat="45.99746" lon="6.79757">
        <ele>2110</ele>
        <time>2019-08-15T13:40:15Z</time>
      </trkpt>
      <trkpt lat="45.99736" lon="6.79761">
        <ele>2110</ele>
        <time>2019-08-15T13:40:28Z</time>
      </trkpt>
      <trkpt lat="45.99731" lon="6.79755">
        <ele>2109</ele>
        <time>2019-08-15T13:40:37Z</time>
      </trkpt>
      <trkpt lat="45.99715" lon="6.79747">
        <ele>2108</ele>
        <time>2019-08-15T13:41:00Z</time>
      </trkpt>
      <trkpt lat="45.99707" lon="6.79767">
        <ele>2109</ele>
        <time>2019-08-15T13:41:21Z</time>
      </trkpt>
      <trkpt lat="45.997" lon="6.79792">
        <ele>2109</ele>
        <time>2019-08-15T13:41:46Z</time>
      </trkpt>
      <trkpt lat="45.99695" lon="6.7981">
        <ele>2108</ele>
        <time>2019-08-15T13:42:04Z</time>
      </trkpt>
      <trkpt lat="45.99682" lon="6.79842">
        <ele>2107</ele>
        <time>2019-08-15T13:42:38Z</time>
      </trkpt>
      <trkpt lat="45.99674" lon="6.79859">
        <ele>2105</ele>
        <time>2019-08-15T13:42:57Z</time>
      </trkpt>
      <trkpt lat="45.99664" lon="6.79852">
        <ele>2103</ele>
        <time>2019-08-15T13:43:12Z</time>
      </trkpt>
      <trkpt lat="45.99656" lon="6.79851">
        <ele>2101</ele>
        <time>2019-08-15T13:43:23Z</time>
      </trkpt>
      <trkpt lat="45.99628" lon="6.79863">
        <ele>2094</ele>
        <time>2019-08-15T13:44:02Z</time>
      </trkpt>
      <trkpt lat="45.99604" lon="6.79872">
        <ele>2088</ele>
        <time>2019-08-15T13:44:35Z</time>
      </trkpt>
      <trkpt lat="45.99565" lon="6.79891">
        <ele>2080</ele>
        <time>2019-08-15T13:45:30Z</time>
      </trkpt>
      <trkpt lat="45.99527" lon="6.799">
        <ele>2074</ele>
        <time>2019-08-15T13:46:21Z</time>
      </trkpt>
      <trkpt lat="45.99494" lon="6.799">
        <ele>2070</ele>
        <time>2019-08-15T13:47:05Z</time>
      </trkpt>
      <trkpt lat="45.99454" lon="6.79906">
        <ele>2068</ele>
        <time>2019-08-15T13:47:59Z</time>
      </trkpt>
      <trkpt lat="45.99431" lon="6.79921">
        <ele>2068</ele>
        <time>2019-08-15T13:48:33Z</time>
      </trkpt>
      <trkpt lat="45.99419" lon="6.79944">
        <ele>2070</ele>
        <time>2019-08-15T13:48:59Z</time>
      </trkpt>
      <trkpt lat="45.99408" lon="6.79978">
        <ele>2074</ele>
        <time>2019-08-15T13:49:34Z</time>
      </trkpt>
      <trkpt lat="45.99399" lon="6.79989">
        <ele>2075</ele>
        <time>2019-08-15T13:49:50Z</time>
      </trkpt>
      <trkpt lat="45.99385" lon="6.80007">
        <ele>2075</ele>
        <time>2019-08-15T13:50:15Z</time>
      </trkpt>
      <trkpt lat="45.99367" lon="6.80028">
        <ele>2073</ele>
        <time>2019-08-15T13:50:46Z</time>
      </trkpt>
      <trkpt lat="45.99357" lon="6.80033">
        <ele>2072</ele>
        <time>2019-08-15T13:51:00Z</time>
      </trkpt>
      <trkpt lat="45.99352" lon="6.80041">
        <ele>2071</ele>
        <time>2019-08-15T13:51:10Z</time>
      </trkpt>
      <trkpt lat="45.99344" lon="6.8004">
        <ele>2070</ele>
        <time>2019-08-15T13:51:21Z</time>
      </trkpt>
      <trkpt lat="45.99337" lon="6.80047">
        <ele>2069</ele>
        <time>2019-08-15T13:51:32Z</time>
      </trkpt>
      <trkpt lat="45.99322" lon="6.80057">
        <ele>2068</ele>
        <time>2019-08-15T13:51:54Z</time>
      </trkpt>
      <trkpt lat="45.99297" lon="6.80061">
        <ele>2066</ele>
        <time>2019-08-15T13:52:28Z</time>
      </trkpt>
      <trkpt lat="45.99277" lon="6.80067">
        <ele>2065</ele>
        <time>2019-08-15T13:52:55Z</time>
      </trkpt>
      <trkpt lat="45.99251" lon="6.80068">
        <ele>2064</ele>
        <time>2019-08-15T13:53:30Z</time>
      </trkpt>
      <trkpt lat="45.99211" lon="6.80077">
        <ele>2062</ele>
        <time>2019-08-15T13:54:24Z</time>
      </trkpt>
      <trkpt lat="45.9917" lon="6.80091">
        <ele>2061</ele>
        <time>2019-08-15T13:55:20Z</time>
      </trkpt>
      <trkpt lat="45.99147" lon="6.80097">
        <ele>2062</ele>
        <time>2019-08-15T13:55:51Z</time>
      </trkpt>
      <trkpt lat="45.99122" lon="6.80103">
        <ele>2063</ele>
        <time>2019-08-15T13:56:25Z</time>
      </trkpt>
      <trkpt lat="45.99103" lon="6.80097">
        <ele>2063</ele>
        <time>2019-08-15T13:56:51Z</time>
      </trkpt>
      <trkpt lat="45.99085" lon="6.80069">
        <ele>2063</ele>
        <time>2019-08-15T13:57:26Z</time>
      </trkpt>
      <trkpt lat="45.99073" lon="6.80086">
        <ele>2063</ele>
        <time>2019-08-15T13:57:49Z</time>
      </trkpt>
      <trkpt lat="45.99068" lon="6.80106">
        <ele>2063</ele>
        <time>2019-08-15T13:58:09Z</time>
      </trkpt>
      <trkpt lat="45.99037" lon="6.80098">
        <ele>2063</ele>
        <time>2019-08-15T13:58:51Z</time>
      </trkpt>
      <trkpt lat="45.99024" lon="6.80099">
        <ele>2063</ele>
        <time>2019-08-15T13:59:08Z</time>
      </trkpt>
      <trkpt lat="45.99015" lon="6.80101">
        <ele>2063</ele>
        <time>2019-08-15T13:59:20Z</time>
      </trkpt>
      <trkpt lat="45.99006" lon="6.80101">
        <ele>2063</ele>
        <time>2019-08-15T13:59:32Z</time>
      </trkpt>
      <trkpt lat="45.98987" lon="6.80093">
        <ele>2063</ele>
        <time>2019-08-15T13:59:59Z</time>
      </trkpt>
      <trkpt lat="45.98951" lon="6.80091">
        <ele>2065</ele>
        <time>2019-08-15T14:00:47Z</time>
      </trkpt>
      <trkpt lat="45.98959" lon="6.80099">
        <ele>2066</ele>
        <time>2019-08-15T14:01:00Z</time>
      </trkpt>
      <trkpt lat="45.98944" lon="6.80093">
        <ele>2066</ele>
        <time>2019-08-15T14:01:20Z</time>
      </trkpt>
      <trkpt lat="45.98932" lon="6.80078">
        <ele>2065</ele>
        <time>2019-08-15T14:01:42Z</time>
      </trkpt>
      <trkpt lat="45.98923" lon="6.80067">
        <ele>2066</ele>
        <time>2019-08-15T14:01:57Z</time>
      </trkpt>
      <trkpt lat="45.98911" lon="6.80067">
        <ele>2067</ele>
        <time>2019-08-15T14:02:13Z</time>
      </trkpt>
      <trkpt lat="45.98901" lon="6.80052">
        <ele>2068</ele>
        <time>2019-08-15T14:02:33Z</time>
      </trkpt>
      <trkpt lat="45.98868" lon="6.80024">
        <ele>2072</ele>
        <time>2019-08-15T14:03:24Z</time>
      </trkpt>
      <trkpt lat="45.98857" lon="6.80026">
        <ele>2074</ele>
        <time>2019-08-15T14:03:39Z</time>
      </trkpt>
      <trkpt lat="45.98842" lon="6.80021">
        <ele>2075</ele>
        <time>2019-08-15T14:03:59Z</time>
      </trkpt>
      <trkpt lat="45.98829" lon="6.79998">
        <ele>2075</ele>
        <time>2019-08-15T14:04:27Z</time>
      </trkpt>
      <trkpt lat="45.98805" lon="6.79986">
        <ele>2083</ele>
        <time>2019-08-15T14:05:00Z</time>
      </trkpt>
      <trkpt lat="45.98801" lon="6.7998">
        <ele>2085</ele>
        <time>2019-08-15T14:05:08Z</time>
      </trkpt>
      <trkpt lat="45.988" lon="6.79979">
        <ele>2085</ele>
        <time>2019-08-15T14:05:10Z</time>
      </trkpt>
      <trkpt lat="45.98799" lon="6.79969">
        <ele>2086</ele>
        <time>2019-08-15T14:05:19Z</time>
      </trkpt>
      <trkpt lat="45.98801" lon="6.79915">
        <ele>2090</ele>
        <time>2019-08-15T14:06:09Z</time>
      </trkpt>
      <trkpt lat="45.98788" lon="6.7994">
        <ele>2094</ele>
        <time>2019-08-15T14:06:38Z</time>
      </trkpt>
      <trkpt lat="45.98774" lon="6.79947">
        <ele>2099</ele>
        <time>2019-08-15T14:06:58Z</time>
      </trkpt>
      <trkpt lat="45.98763" lon="6.79956">
        <ele>2102</ele>
        <time>2019-08-15T14:07:15Z</time>
      </trkpt>
      <trkpt lat="45.98735" lon="6.79962">
        <ele>2110</ele>
        <time>2019-08-15T14:07:53Z</time>
      </trkpt>
      <trkpt lat="45.9872" lon="6.79971">
        <ele>2113</ele>
        <time>2019-08-15T14:08:14Z</time>
      </trkpt>
      <trkpt lat="45.98696" lon="6.79977">
        <ele>2118</ele>
        <time>2019-08-15T14:08:47Z</time>
      </trkpt>
      <trkpt lat="45.98646" lon="6.79973">
        <ele>2132</ele>
        <time>2019-08-15T14:09:54Z</time>
      </trkpt>
      <trkpt lat="45.98628" lon="6.79973">
        <ele>2135</ele>
        <time>2019-08-15T14:10:18Z</time>
      </trkpt>
      <trkpt lat="45.98607" lon="6.79951">
        <ele>2143</ele>
        <time>2019-08-15T14:10:52Z</time>
      </trkpt>
      <trkpt lat="45.98574" lon="6.79926">
        <ele>2150</ele>
        <time>2019-08-15T14:11:42Z</time>
      </trkpt>
      <trkpt lat="45.98559" lon="6.79891">
        <ele>2155</ele>
        <time>2019-08-15T14:12:20Z</time>
      </trkpt>
      <trkpt lat="45.98549" lon="6.79847">
        <ele>2160</ele>
        <time>2019-08-15T14:13:03Z</time>
      </trkpt>
      <trkpt lat="45.98546" lon="6.79834">
        <ele>2161</ele>
        <time>2019-08-15T14:13:16Z</time>
      </trkpt>
      <trkpt lat="45.98538" lon="6.79828">
        <ele>2162</ele>
        <time>2019-08-15T14:13:28Z</time>
      </trkpt>
      <trkpt lat="45.98525" lon="6.79817">
        <ele>2164</ele>
        <time>2019-08-15T14:13:48Z</time>
      </trkpt>
      <trkpt lat="45.98507" lon="6.79819">
        <ele>2164</ele>
        <time>2019-08-15T14:14:12Z</time>
      </trkpt>
      <trkpt lat="45.98487" lon="6.79822">
        <ele>2165</ele>
        <time>2019-08-15T14:14:39Z</time>
      </trkpt>
      <trkpt lat="45.98476" lon="6.79816">
        <ele>2167</ele>
        <time>2019-08-15T14:14:55Z</time>
      </trkpt>
      <trkpt lat="45.9847" lon="6.79821">
        <ele>2167</ele>
        <time>2019-08-15T14:15:04Z</time>
      </trkpt>
      <trkpt lat="45.9846" lon="6.79816">
        <ele>2169</ele>
        <time>2019-08-15T14:15:18Z</time>
      </trkpt>
      <trkpt lat="45.98453" lon="6.79808">
        <ele>2170</ele>
        <time>2019-08-15T14:15:30Z</time>
      </trkpt>
      <trkpt lat="45.98443" lon="6.79804">
        <ele>2171</ele>
        <time>2019-08-15T14:15:44Z</time>
      </trkpt>
      <trkpt lat="45.98431" lon="6.79794">
        <ele>2172</ele>
        <time>2019-08-15T14:16:02Z</time>
      </trkpt>
      <trkpt lat="45.9842" lon="6.79784">
        <ele>2172</ele>
        <time>2019-08-15T14:16:20Z</time>
      </trkpt>
      <trkpt lat="45.98385" lon="6.79786">
        <ele>2178</ele>
        <time>2019-08-15T14:17:07Z</time>
      </trkpt>
      <trkpt lat="45.98353" lon="6.79782">
        <ele>2184</ele>
        <time>2019-08-15T14:17:49Z</time>
      </trkpt>
      <trkpt lat="45.9833" lon="6.7978">
        <ele>2189</ele>
        <time>2019-08-15T14:18:20Z</time>
      </trkpt>
      <trkpt lat="45.98309" lon="6.79773">
        <ele>2192</ele>
        <time>2019-08-15T14:18:49Z</time>
      </trkpt>
      <trkpt lat="45.98285" lon="6.79767">
        <ele>2197</ele>
        <time>2019-08-15T14:19:21Z</time>
      </trkpt>
      <trkpt lat="45.98265" lon="6.79769">
        <ele>2201</ele>
        <time>2019-08-15T14:19:48Z</time>
      </trkpt>
      <trkpt lat="45.98246" lon="6.79777">
        <ele>2205</ele>
        <time>2019-08-15T14:20:15Z</time>
      </trkpt>
      <trkpt lat="45.98225" lon="6.79785">
        <ele>2208</ele>
        <time>2019-08-15T14:20:44Z</time>
      </trkpt>
      <trkpt lat="45.98208" lon="6.79783">
        <ele>2210</ele>
        <time>2019-08-15T14:21:06Z</time>
      </trkpt>
      <trkpt lat="45.98198" lon="6.79786">
        <ele>2211</ele>
        <time>2019-08-15T14:21:20Z</time>
      </trkpt>
      <trkpt lat="45.98189" lon="6.79783">
        <ele>2212</ele>
        <time>2019-08-15T14:21:32Z</time>
      </trkpt>
      <trkpt lat="45.98176" lon="6.79775">
        <ele>2213</ele>
        <time>2019-08-15T14:21:51Z</time>
      </trkpt>
      <trkpt lat="45.98143" lon="6.79747">
        <ele>2220</ele>
        <time>2019-08-15T14:22:42Z</time>
      </trkpt>
      <trkpt lat="45.98119" lon="6.79728">
        <ele>2226</ele>
        <time>2019-08-15T14:23:19Z</time>
      </trkpt>
      <trkpt lat="45.98086" lon="6.79689">
        <ele>2234</ele>
        <time>2019-08-15T14:24:16Z</time>
      </trkpt>
      <trkpt lat="45.98067" lon="6.79663">
        <ele>2235</ele>
        <time>2019-08-15T14:24:51Z</time>
      </trkpt>
      <trkpt lat="45.98046" lon="6.79651">
        <ele>2238</ele>
        <time>2019-08-15T14:25:21Z</time>
      </trkpt>
      <trkpt lat="45.98037" lon="6.79643">
        <ele>2239</ele>
        <time>2019-08-15T14:25:35Z</time>
      </trkpt>
      <trkpt lat="45.98028" lon="6.7964">
        <ele>2240</ele>
        <time>2019-08-15T14:25:47Z</time>
      </trkpt>
      <trkpt lat="45.98016" lon="6.79653">
        <ele>2242</ele>
        <time>2019-08-15T14:26:07Z</time>
      </trkpt>
      <trkpt lat="45.9801" lon="6.79661">
        <ele>2242</ele>
        <time>2019-08-15T14:26:18Z</time>
      </trkpt>
      <trkpt lat="45.98002" lon="6.79656">
        <ele>2244</ele>
        <time>2019-08-15T14:26:30Z</time>
      </trkpt>
      <trkpt lat="45.97996" lon="6.7966">
        <ele>2241</ele>
        <time>2019-08-15T14:26:39Z</time>
      </trkpt>
      <trkpt lat="45.97995" lon="6.79676">
        <ele>2239</ele>
        <time>2019-08-15T14:26:54Z</time>
      </trkpt>
      <trkpt lat="45.97989" lon="6.79676">
        <ele>2236</ele>
        <time>2019-08-15T14:27:02Z</time>
      </trkpt>
      <trkpt lat="45.97983" lon="6.79683">
        <ele>2232</ele>
        <time>2019-08-15T14:27:12Z</time>
      </trkpt>
      <trkpt lat="45.97986" lon="6.7969">
        <ele>2233</ele>
        <time>2019-08-15T14:27:20Z</time>
      </trkpt>
      <trkpt lat="45.97981" lon="6.79706">
        <ele>2228</ele>
        <time>2019-08-15T14:27:36Z</time>
      </trkpt>
      <trkpt lat="45.97976" lon="6.79722">
        <ele>2223</ele>
        <time>2019-08-15T14:27:52Z</time>
      </trkpt>
      <trkpt lat="45.97971" lon="6.79749">
        <ele>2215</ele>
        <time>2019-08-15T14:28:18Z</time>
      </trkpt>
      <trkpt lat="45.9797" lon="6.79765">
        <ele>2211</ele>
        <time>2019-08-15T14:28:33Z</time>
      </trkpt>
      <trkpt lat="45.97968" lon="6.79776">
        <ele>2208</ele>
        <time>2019-08-15T14:28:44Z</time>
      </trkpt>
      <trkpt lat="45.9796" lon="6.79767">
        <ele>2205</ele>
        <time>2019-08-15T14:28:57Z</time>
      </trkpt>
      <trkpt lat="45.97953" lon="6.79752">
        <ele>2203</ele>
        <time>2019-08-15T14:29:14Z</time>
      </trkpt>
      <trkpt lat="45.97942" lon="6.7975">
        <ele>2196</ele>
        <time>2019-08-15T14:29:29Z</time>
      </trkpt>
      <trkpt lat="45.97924" lon="6.79726">
        <ele>2190</ele>
        <time>2019-08-15T14:30:01Z</time>
      </trkpt>
      <trkpt lat="45.979" lon="6.797">
        <ele>2183</ele>
        <time>2019-08-15T14:30:41Z</time>
      </trkpt>
      <trkpt lat="45.97863" lon="6.7967">
        <ele>2170</ele>
        <time>2019-08-15T14:31:38Z</time>
      </trkpt>
      <trkpt lat="45.97836" lon="6.79659">
        <ele>2158</ele>
        <time>2019-08-15T14:32:16Z</time>
      </trkpt>
      <trkpt lat="45.97828" lon="6.79652">
        <ele>2157</ele>
        <time>2019-08-15T14:32:28Z</time>
      </trkpt>
      <trkpt lat="45.9782" lon="6.79651">
        <ele>2153</ele>
        <time>2019-08-15T14:32:39Z</time>
      </trkpt>
      <trkpt lat="45.97829" lon="6.79686">
        <ele>2149</ele>
        <time>2019-08-15T14:33:13Z</time>
      </trkpt>
      <trkpt lat="45.97829" lon="6.79705">
        <ele>2146</ele>
        <time>2019-08-15T14:33:31Z</time>
      </trkpt>
      <trkpt lat="45.97828" lon="6.79713">
        <ele>2144</ele>
        <time>2019-08-15T14:33:39Z</time>
      </trkpt>
      <trkpt lat="45.97824" lon="6.79719">
        <ele>2141</ele>
        <time>2019-08-15T14:33:46Z</time>
      </trkpt>
      <trkpt lat="45.97823" lon="6.79732">
        <ele>2139</ele>
        <time>2019-08-15T14:33:58Z</time>
      </trkpt>
      <trkpt lat="45.9782" lon="6.79746">
        <ele>2136</ele>
        <time>2019-08-15T14:34:12Z</time>
      </trkpt>
      <trkpt lat="45.97814" lon="6.79755">
        <ele>2133</ele>
        <time>2019-08-15T14:34:24Z</time>
      </trkpt>
      <trkpt lat="45.97807" lon="6.79759">
        <ele>2130</ele>
        <time>2019-08-15T14:34:34Z</time>
      </trkpt>
      <trkpt lat="45.97803" lon="6.79757">
        <ele>2129</ele>
        <time>2019-08-15T14:34:39Z</time>
      </trkpt>
      <trkpt lat="45.978" lon="6.79755">
        <ele>2128</ele>
        <time>2019-08-15T14:34:44Z</time>
      </trkpt>
      <trkpt lat="45.97787" lon="6.7972">
        <ele>2127</ele>
        <time>2019-08-15T14:35:20Z</time>
      </trkpt>
      <trkpt lat="45.97783" lon="6.79715">
        <ele>2125</ele>
        <time>2019-08-15T14:35:28Z</time>
      </trkpt>
      <trkpt lat="45.9778" lon="6.79707">
        <ele>2125</ele>
        <time>2019-08-15T14:35:36Z</time>
      </trkpt>
      <trkpt lat="45.97781" lon="6.79698">
        <ele>2126</ele>
        <time>2019-08-15T14:35:44Z</time>
      </trkpt>
      <trkpt lat="45.9778" lon="6.79691">
        <ele>2126</ele>
        <time>2019-08-15T14:35:51Z</time>
      </trkpt>
      <trkpt lat="45.97763" lon="6.79682">
        <ele>2119</ele>
        <time>2019-08-15T14:36:15Z</time>
      </trkpt>
      <trkpt lat="45.97759" lon="6.79672">
        <ele>2117</ele>
        <time>2019-08-15T14:36:26Z</time>
      </trkpt>
      <trkpt lat="45.97757" lon="6.79661">
        <ele>2118</ele>
        <time>2019-08-15T14:36:36Z</time>
      </trkpt>
      <trkpt lat="45.97751" lon="6.79655">
        <ele>2117</ele>
        <time>2019-08-15T14:36:46Z</time>
      </trkpt>
      <trkpt lat="45.9774" lon="6.79655">
        <ele>2112</ele>
        <time>2019-08-15T14:37:01Z</time>
      </trkpt>
      <trkpt lat="45.9773" lon="6.79649">
        <ele>2109</ele>
        <time>2019-08-15T14:37:15Z</time>
      </trkpt>
      <trkpt lat="45.97726" lon="6.79646">
        <ele>2108</ele>
        <time>2019-08-15T14:37:21Z</time>
      </trkpt>
      <trkpt lat="45.97723" lon="6.79649">
        <ele>2105</ele>
        <time>2019-08-15T14:37:26Z</time>
      </trkpt>
      <trkpt lat="45.97727" lon="6.79678">
        <ele>2101</ele>
        <time>2019-08-15T14:37:54Z</time>
      </trkpt>
      <trkpt lat="45.97721" lon="6.7968">
        <ele>2098</ele>
        <time>2019-08-15T14:38:02Z</time>
      </trkpt>
      <trkpt lat="45.97715" lon="6.79675">
        <ele>2096</ele>
        <time>2019-08-15T14:38:11Z</time>
      </trkpt>
      <trkpt lat="45.97711" lon="6.7967">
        <ele>2094</ele>
        <time>2019-08-15T14:38:18Z</time>
      </trkpt>
      <trkpt lat="45.97702" lon="6.79679">
        <ele>2089</ele>
        <time>2019-08-15T14:38:33Z</time>
      </trkpt>
      <trkpt lat="45.97701" lon="6.79679">
        <ele>2089</ele>
        <time>2019-08-15T14:38:34Z</time>
      </trkpt>
      <trkpt lat="45.97692" lon="6.7968">
        <ele>2084</ele>
        <time>2019-08-15T14:38:46Z</time>
      </trkpt>
      <trkpt lat="45.97685" lon="6.79676">
        <ele>2081</ele>
        <time>2019-08-15T14:38:56Z</time>
      </trkpt>
      <trkpt lat="45.97682" lon="6.79679">
        <ele>2079</ele>
        <time>2019-08-15T14:39:01Z</time>
      </trkpt>
      <trkpt lat="45.9768" lon="6.79679">
        <ele>2078</ele>
        <time>2019-08-15T14:39:04Z</time>
      </trkpt>
      <trkpt lat="45.97665" lon="6.79663">
        <ele>2074</ele>
        <time>2019-08-15T14:39:29Z</time>
      </trkpt>
      <trkpt lat="45.97655" lon="6.79663">
        <ele>2070</ele>
        <time>2019-08-15T14:39:42Z</time>
      </trkpt>
      <trkpt lat="45.97645" lon="6.79656">
        <ele>2067</ele>
        <time>2019-08-15T14:39:57Z</time>
      </trkpt>
      <trkpt lat="45.97641" lon="6.79651">
        <ele>2066</ele>
        <time>2019-08-15T14:40:04Z</time>
      </trkpt>
      <trkpt lat="45.97635" lon="6.79649">
        <ele>2064</ele>
        <time>2019-08-15T14:40:12Z</time>
      </trkpt>
      <trkpt lat="45.97632" lon="6.79649">
        <ele>2063</ele>
        <time>2019-08-15T14:40:16Z</time>
      </trkpt>
      <trkpt lat="45.97633" lon="6.79659">
        <ele>2061</ele>
        <time>2019-08-15T14:40:26Z</time>
      </trkpt>
      <trkpt lat="45.97634" lon="6.79664">
        <ele>2060</ele>
        <time>2019-08-15T14:40:30Z</time>
      </trkpt>
      <trkpt lat="45.97633" lon="6.79706">
        <ele>2052</ele>
        <time>2019-08-15T14:41:09Z</time>
      </trkpt>
      <trkpt lat="45.97629" lon="6.79714">
        <ele>2049</ele>
        <time>2019-08-15T14:41:19Z</time>
      </trkpt>
      <trkpt lat="45.97633" lon="6.79761">
        <ele>2045</ele>
        <time>2019-08-15T14:42:02Z</time>
      </trkpt>
      <trkpt lat="45.97635" lon="6.79778">
        <ele>2045</ele>
        <time>2019-08-15T14:42:18Z</time>
      </trkpt>
      <trkpt lat="45.97633" lon="6.79789">
        <ele>2044</ele>
        <time>2019-08-15T14:42:29Z</time>
      </trkpt>
      <trkpt lat="45.97629" lon="6.79788">
        <ele>2043</ele>
        <time>2019-08-15T14:42:34Z</time>
      </trkpt>
      <trkpt lat="45.97629" lon="6.79798">
        <ele>2042</ele>
        <time>2019-08-15T14:42:44Z</time>
      </trkpt>
      <trkpt lat="45.97629" lon="6.79803">
        <ele>2042</ele>
        <time>2019-08-15T14:42:48Z</time>
      </trkpt>
      <trkpt lat="45.97626" lon="6.79809">
        <ele>2041</ele>
        <time>2019-08-15T14:42:55Z</time>
      </trkpt>
      <trkpt lat="45.9762" lon="6.7982">
        <ele>2038</ele>
        <time>2019-08-15T14:43:08Z</time>
      </trkpt>
      <trkpt lat="45.97619" lon="6.79831">
        <ele>2037</ele>
        <time>2019-08-15T14:43:18Z</time>
      </trkpt>
      <trkpt lat="45.97623" lon="6.79875">
        <ele>2033</ele>
        <time>2019-08-15T14:44:00Z</time>
      </trkpt>
      <trkpt lat="45.97623" lon="6.79882">
        <ele>2032</ele>
        <time>2019-08-15T14:44:06Z</time>
      </trkpt>
      <trkpt lat="45.97622" lon="6.79887">
        <ele>2031</ele>
        <time>2019-08-15T14:44:11Z</time>
      </trkpt>
      <trkpt lat="45.97615" lon="6.79889">
        <ele>2028</ele>
        <time>2019-08-15T14:44:20Z</time>
      </trkpt>
      <trkpt lat="45.97613" lon="6.79898">
        <ele>2026</ele>
        <time>2019-08-15T14:44:29Z</time>
      </trkpt>
      <trkpt lat="45.97614" lon="6.79906">
        <ele>2025</ele>
        <time>2019-08-15T14:44:37Z</time>
      </trkpt>
      <trkpt lat="45.97619" lon="6.79916">
        <ele>2026</ele>
        <time>2019-08-15T14:44:48Z</time>
      </trkpt>
      <trkpt lat="45.97621" lon="6.79923">
        <ele>2026</ele>
        <time>2019-08-15T14:44:55Z</time>
      </trkpt>
      <trkpt lat="45.97628" lon="6.79925">
        <ele>2029</ele>
        <time>2019-08-15T14:45:05Z</time>
      </trkpt>
      <trkpt lat="45.97632" lon="6.79931">
        <ele>2031</ele>
        <time>2019-08-15T14:45:12Z</time>
      </trkpt>
      <trkpt lat="45.97632" lon="6.79937">
        <ele>2030</ele>
        <time>2019-08-15T14:45:18Z</time>
      </trkpt>
      <trkpt lat="45.97629" lon="6.79945">
        <ele>2029</ele>
        <time>2019-08-15T14:45:26Z</time>
      </trkpt>
      <trkpt lat="45.97628" lon="6.79955">
        <ele>2029</ele>
        <time>2019-08-15T14:45:36Z</time>
      </trkpt>
      <trkpt lat="45.97627" lon="6.79969">
        <ele>2028</ele>
        <time>2019-08-15T14:45:49Z</time>
      </trkpt>
      <trkpt lat="45.97625" lon="6.79978">
        <ele>2027</ele>
        <time>2019-08-15T14:45:58Z</time>
      </trkpt>
      <trkpt lat="45.97623" lon="6.79982">
        <ele>2026</ele>
        <time>2019-08-15T14:46:02Z</time>
      </trkpt>
      <trkpt lat="45.97592" lon="6.80005">
        <ele>2014</ele>
        <time>2019-08-15T14:46:49Z</time>
      </trkpt>
      <trkpt lat="45.97583" lon="6.80012">
        <ele>2010</ele>
        <time>2019-08-15T14:47:02Z</time>
      </trkpt>
      <trkpt lat="45.97578" lon="6.80028">
        <ele>2010</ele>
        <time>2019-08-15T14:47:19Z</time>
      </trkpt>
      <trkpt lat="45.9756" lon="6.80045">
        <ele>2006</ele>
        <time>2019-08-15T14:47:47Z</time>
      </trkpt>
      <trkpt lat="45.9755" lon="6.80064">
        <ele>2004</ele>
        <time>2019-08-15T14:48:09Z</time>
      </trkpt>
      <trkpt lat="45.97546" lon="6.80068">
        <ele>2003</ele>
        <time>2019-08-15T14:48:16Z</time>
      </trkpt>
      <trkpt lat="45.97535" lon="6.80064">
        <ele>2000</ele>
        <time>2019-08-15T14:48:31Z</time>
      </trkpt>
      <trkpt lat="45.97526" lon="6.80061">
        <ele>1998</ele>
        <time>2019-08-15T14:48:43Z</time>
      </trkpt>
      <trkpt lat="45.9752" lon="6.8006">
        <ele>1996</ele>
        <time>2019-08-15T14:48:51Z</time>
      </trkpt>
      <trkpt lat="45.97496" lon="6.80048">
        <ele>1989</ele>
        <time>2019-08-15T14:49:25Z</time>
      </trkpt>
      <trkpt lat="45.9748" lon="6.80034">
        <ele>1985</ele>
        <time>2019-08-15T14:49:50Z</time>
      </trkpt>
      <trkpt lat="45.97468" lon="6.80031">
        <ele>1983</ele>
        <time>2019-08-15T14:50:07Z</time>
      </trkpt>
      <trkpt lat="45.97445" lon="6.80013">
        <ele>1979</ele>
        <time>2019-08-15T14:50:42Z</time>
      </trkpt>
      <trkpt lat="45.97435" lon="6.79999">
        <ele>1978</ele>
        <time>2019-08-15T14:51:00Z</time>
      </trkpt>
      <trkpt lat="45.97424" lon="6.79992">
        <ele>1976</ele>
        <time>2019-08-15T14:51:16Z</time>
      </trkpt>
      <trkpt lat="45.97409" lon="6.7998">
        <ele>1972</ele>
        <time>2019-08-15T14:51:39Z</time>
      </trkpt>
      <trkpt lat="45.974" lon="6.79972">
        <ele>1971</ele>
        <time>2019-08-15T14:51:53Z</time>
      </trkpt>
      <trkpt lat="45.97386" lon="6.79975">
        <ele>1969</ele>
        <time>2019-08-15T14:52:12Z</time>
      </trkpt>
      <trkpt lat="45.97381" lon="6.79975">
        <ele>1969</ele>
        <time>2019-08-15T14:52:19Z</time>
      </trkpt>
      <trkpt lat="45.97377" lon="6.79973">
        <ele>1968</ele>
        <time>2019-08-15T14:52:24Z</time>
      </trkpt>
      <trkpt lat="45.97362" lon="6.79962">
        <ele>1967</ele>
        <time>2019-08-15T14:52:47Z</time>
      </trkpt>
      <trkpt lat="45.97348" lon="6.79947">
        <ele>1966</ele>
        <time>2019-08-15T14:53:10Z</time>
      </trkpt>
      <trkpt lat="45.97339" lon="6.79939">
        <ele>1966</ele>
        <time>2019-08-15T14:53:24Z</time>
      </trkpt>
      <trkpt lat="45.97329" lon="6.79935">
        <ele>1966</ele>
        <time>2019-08-15T14:53:38Z</time>
      </trkpt>
      <trkpt lat="45.97315" lon="6.79924">
        <ele>1964</ele>
        <time>2019-08-15T14:53:59Z</time>
      </trkpt>
      <trkpt lat="45.97304" lon="6.79918">
        <ele>1963</ele>
        <time>2019-08-15T14:54:15Z</time>
      </trkpt>
      <trkpt lat="45.97289" lon="6.79905">
        <ele>1961</ele>
        <time>2019-08-15T14:54:39Z</time>
      </trkpt>
      <trkpt lat="45.97266" lon="6.79885">
        <ele>1959</ele>
        <time>2019-08-15T14:55:14Z</time>
      </trkpt>
      <trkpt lat="45.97259" lon="6.79876">
        <ele>1959</ele>
        <time>2019-08-15T14:55:27Z</time>
      </trkpt>
      <trkpt lat="45.97245" lon="6.79863">
        <ele>1960</ele>
        <time>2019-08-15T14:55:49Z</time>
      </trkpt>
      <trkpt lat="45.97241" lon="6.79859">
        <ele>1959</ele>
        <time>2019-08-15T14:55:56Z</time>
      </trkpt>
      <trkpt lat="45.97236" lon="6.79856">
        <ele>1959</ele>
        <time>2019-08-15T14:56:03Z</time>
      </trkpt>
      <trkpt lat="45.97227" lon="6.79855">
        <ele>1958</ele>
        <time>2019-08-15T14:56:15Z</time>
      </trkpt>
      <trkpt lat="45.97222" lon="6.79856">
        <ele>1958</ele>
        <time>2019-08-15T14:56:22Z</time>
      </trkpt>
      <trkpt lat="45.97212" lon="6.79865">
        <ele>1955</ele>
        <time>2019-08-15T14:56:37Z</time>
      </trkpt>
      <trkpt lat="45.9721" lon="6.79868">
        <ele>1955</ele>
        <time>2019-08-15T14:56:41Z</time>
      </trkpt>
      <trkpt lat="45.97209" lon="6.79873">
        <ele>1954</ele>
        <time>2019-08-15T14:56:46Z</time>
      </trkpt>
      <trkpt lat="45.97208" lon="6.79881">
        <ele>1953</ele>
        <time>2019-08-15T14:56:54Z</time>
      </trkpt>
      <trkpt lat="45.97208" lon="6.79888">
        <ele>1952</ele>
        <time>2019-08-15T14:57:00Z</time>
      </trkpt>
      <trkpt lat="45.9721" lon="6.79897">
        <ele>1951</ele>
        <time>2019-08-15T14:57:09Z</time>
      </trkpt>
      <trkpt lat="45.97211" lon="6.79903">
        <ele>1951</ele>
        <time>2019-08-15T14:57:15Z</time>
      </trkpt>
      <trkpt lat="45.9721" lon="6.79911">
        <ele>1950</ele>
        <time>2019-08-15T14:57:22Z</time>
      </trkpt>
      <trkpt lat="45.97208" lon="6.79918">
        <ele>1949</ele>
        <time>2019-08-15T14:57:29Z</time>
      </trkpt>
      <trkpt lat="45.97205" lon="6.79924">
        <ele>1948</ele>
        <time>2019-08-15T14:57:36Z</time>
      </trkpt>
      <trkpt lat="45.97202" lon="6.79928">
        <ele>1947</ele>
        <time>2019-08-15T14:57:41Z</time>
      </trkpt>
      <trkpt lat="45.97199" lon="6.79931">
        <ele>1946</ele>
        <time>2019-08-15T14:57:46Z</time>
      </trkpt>
      <trkpt lat="45.97191" lon="6.79933">
        <ele>1945</ele>
        <time>2019-08-15T14:57:57Z</time>
      </trkpt>
      <trkpt lat="45.97185" lon="6.79935">
        <ele>1944</ele>
        <time>2019-08-15T14:58:05Z</time>
      </trkpt>
      <trkpt lat="45.97176" lon="6.79936">
        <ele>1942</ele>
        <time>2019-08-15T14:58:17Z</time>
      </trkpt>
      <trkpt lat="45.97171" lon="6.79939">
        <ele>1941</ele>
        <time>2019-08-15T14:58:25Z</time>
      </trkpt>
      <trkpt lat="45.97169" lon="6.79943">
        <ele>1941</ele>
        <time>2019-08-15T14:58:29Z</time>
      </trkpt>
      <trkpt lat="45.97168" lon="6.79949">
        <ele>1940</ele>
        <time>2019-08-15T14:58:35Z</time>
      </trkpt>
      <trkpt lat="45.97167" lon="6.7996">
        <ele>1939</ele>
        <time>2019-08-15T14:58:45Z</time>
      </trkpt>
      <trkpt lat="45.97168" lon="6.79968">
        <ele>1938</ele>
        <time>2019-08-15T14:58:53Z</time>
      </trkpt>
      <trkpt lat="45.97173" lon="6.79987">
        <ele>1937</ele>
        <time>2019-08-15T14:59:12Z</time>
      </trkpt>
      <trkpt lat="45.97181" lon="6.80004">
        <ele>1936</ele>
        <time>2019-08-15T14:59:31Z</time>
      </trkpt>
      <trkpt lat="45.97193" lon="6.80023">
        <ele>1936</ele>
        <time>2019-08-15T14:59:55Z</time>
      </trkpt>
      <trkpt lat="45.97196" lon="6.80031">
        <ele>1935</ele>
        <time>2019-08-15T15:00:03Z</time>
      </trkpt>
      <trkpt lat="45.97201" lon="6.80056">
        <ele>1934</ele>
        <time>2019-08-15T15:00:27Z</time>
      </trkpt>
      <trkpt lat="45.97203" lon="6.8007">
        <ele>1933</ele>
        <time>2019-08-15T15:00:40Z</time>
      </trkpt>
      <trkpt lat="45.97206" lon="6.80077">
        <ele>1933</ele>
        <time>2019-08-15T15:00:48Z</time>
      </trkpt>
      <trkpt lat="45.97209" lon="6.80082">
        <ele>1933</ele>
        <time>2019-08-15T15:00:54Z</time>
      </trkpt>
      <trkpt lat="45.97217" lon="6.80089">
        <ele>1933</ele>
        <time>2019-08-15T15:01:07Z</time>
      </trkpt>
      <trkpt lat="45.97221" lon="6.80095">
        <ele>1932</ele>
        <time>2019-08-15T15:01:14Z</time>
      </trkpt>
      <trkpt lat="45.97223" lon="6.80102">
        <ele>1932</ele>
        <time>2019-08-15T15:01:21Z</time>
      </trkpt>
      <trkpt lat="45.97225" lon="6.80126">
        <ele>1930</ele>
        <time>2019-08-15T15:01:44Z</time>
      </trkpt>
      <trkpt lat="45.97225" lon="6.80145">
        <ele>1928</ele>
        <time>2019-08-15T15:02:01Z</time>
      </trkpt>
      <trkpt lat="45.97225" lon="6.8015">
        <ele>1927</ele>
        <time>2019-08-15T15:02:06Z</time>
      </trkpt>
      <trkpt lat="45.97226" lon="6.80155">
        <ele>1927</ele>
        <time>2019-08-15T15:02:11Z</time>
      </trkpt>
      <trkpt lat="45.9723" lon="6.80163">
        <ele>1926</ele>
        <time>2019-08-15T15:02:20Z</time>
      </trkpt>
      <trkpt lat="45.97233" lon="6.80169">
        <ele>1926</ele>
        <time>2019-08-15T15:02:27Z</time>
      </trkpt>
      <trkpt lat="45.97245" lon="6.80212">
        <ele>1922</ele>
        <time>2019-08-15T15:03:10Z</time>
      </trkpt>
      <trkpt lat="45.9725" lon="6.80226">
        <ele>1921</ele>
        <time>2019-08-15T15:03:24Z</time>
      </trkpt>
      <trkpt lat="45.97251" lon="6.80238">
        <ele>1920</ele>
        <time>2019-08-15T15:03:36Z</time>
      </trkpt>
      <trkpt lat="45.97251" lon="6.80254">
        <ele>1919</ele>
        <time>2019-08-15T15:03:50Z</time>
      </trkpt>
      <trkpt lat="45.97251" lon="6.80263">
        <ele>1918</ele>
        <time>2019-08-15T15:03:59Z</time>
      </trkpt>
      <trkpt lat="45.97255" lon="6.80275">
        <ele>1918</ele>
        <time>2019-08-15T15:04:11Z</time>
      </trkpt>
      <trkpt lat="45.97257" lon="6.80287">
        <ele>1917</ele>
        <time>2019-08-15T15:04:23Z</time>
      </trkpt>
      <trkpt lat="45.97257" lon="6.80295">
        <ele>1916</ele>
        <time>2019-08-15T15:04:30Z</time>
      </trkpt>
      <trkpt lat="45.97259" lon="6.80304">
        <ele>1916</ele>
        <time>2019-08-15T15:04:39Z</time>
      </trkpt>
      <trkpt lat="45.97265" lon="6.80322">
        <ele>1915</ele>
        <time>2019-08-15T15:04:57Z</time>
      </trkpt>
      <trkpt lat="45.97266" lon="6.80328">
        <ele>1915</ele>
        <time>2019-08-15T15:05:03Z</time>
      </trkpt>
      <trkpt lat="45.97266" lon="6.80328">
        <ele>1915</ele>
        <time>2019-08-15T15:05:03Z</time>
      </trkpt>
      <trkpt lat="45.97253" lon="6.80338">
        <ele>1912</ele>
        <time>2019-08-15T15:05:23Z</time>
      </trkpt>
      <trkpt lat="45.97247" lon="6.80357">
        <ele>1909</ele>
        <time>2019-08-15T15:05:42Z</time>
      </trkpt>
      <trkpt lat="45.97245" lon="6.80385">
        <ele>1905</ele>
        <time>2019-08-15T15:06:08Z</time>
      </trkpt>
      <trkpt lat="45.97226" lon="6.80413">
        <ele>1900</ele>
        <time>2019-08-15T15:06:44Z</time>
      </trkpt>
      <trkpt lat="45.97216" lon="6.80445">
        <ele>1895</ele>
        <time>2019-08-15T15:07:17Z</time>
      </trkpt>
      <trkpt lat="45.97192" lon="6.80464">
        <ele>1890</ele>
        <time>2019-08-15T15:07:54Z</time>
      </trkpt>
      <trkpt lat="45.97184" lon="6.80503">
        <ele>1885</ele>
        <time>2019-08-15T15:08:31Z</time>
      </trkpt>
      <trkpt lat="45.97171" lon="6.80525">
        <ele>1882</ele>
        <time>2019-08-15T15:08:58Z</time>
      </trkpt>
      <trkpt lat="45.97166" lon="6.80536">
        <ele>1881</ele>
        <time>2019-08-15T15:09:10Z</time>
      </trkpt>
      <trkpt lat="45.97161" lon="6.80547">
        <ele>1880</ele>
        <time>2019-08-15T15:09:22Z</time>
      </trkpt>
      <trkpt lat="45.97156" lon="6.80569">
        <ele>1879</ele>
        <time>2019-08-15T15:09:44Z</time>
      </trkpt>
      <trkpt lat="45.97155" lon="6.80571">
        <ele>1879</ele>
        <time>2019-08-15T15:09:46Z</time>
      </trkpt>
      <trkpt lat="45.97149" lon="6.80601">
        <ele>1877</ele>
        <time>2019-08-15T15:10:15Z</time>
      </trkpt>
      <trkpt lat="45.97146" lon="6.80636">
        <ele>1876</ele>
        <time>2019-08-15T15:10:48Z</time>
      </trkpt>
      <trkpt lat="45.97139" lon="6.80661">
        <ele>1875</ele>
        <time>2019-08-15T15:11:13Z</time>
      </trkpt>
      <trkpt lat="45.97132" lon="6.807">
        <ele>1874</ele>
        <time>2019-08-15T15:11:50Z</time>
      </trkpt>
      <trkpt lat="45.97125" lon="6.80708">
        <ele>1873</ele>
        <time>2019-08-15T15:12:02Z</time>
      </trkpt>
      <trkpt lat="45.97119" lon="6.8071">
        <ele>1872</ele>
        <time>2019-08-15T15:12:10Z</time>
      </trkpt>
      <trkpt lat="45.97111" lon="6.80721">
        <ele>1871</ele>
        <time>2019-08-15T15:12:25Z</time>
      </trkpt>
      <trkpt lat="45.97104" lon="6.80738">
        <ele>1870</ele>
        <time>2019-08-15T15:12:43Z</time>
      </trkpt>
      <trkpt lat="45.97097" lon="6.8075">
        <ele>1869</ele>
        <time>2019-08-15T15:12:58Z</time>
      </trkpt>
      <trkpt lat="45.97092" lon="6.80769">
        <ele>1867</ele>
        <time>2019-08-15T15:13:17Z</time>
      </trkpt>
      <trkpt lat="45.97086" lon="6.80787">
        <ele>1865</ele>
        <time>2019-08-15T15:13:35Z</time>
      </trkpt>
      <trkpt lat="45.97087" lon="6.80799">
        <ele>1864</ele>
        <time>2019-08-15T15:13:46Z</time>
      </trkpt>
      <trkpt lat="45.97091" lon="6.80811">
        <ele>1864</ele>
        <time>2019-08-15T15:13:59Z</time>
      </trkpt>
      <trkpt lat="45.97092" lon="6.80822">
        <ele>1863</ele>
        <time>2019-08-15T15:14:09Z</time>
      </trkpt>
      <trkpt lat="45.97087" lon="6.80837">
        <ele>1861</ele>
        <time>2019-08-15T15:14:25Z</time>
      </trkpt>
      <trkpt lat="45.97082" lon="6.80861">
        <ele>1857</ele>
        <time>2019-08-15T15:14:48Z</time>
      </trkpt>
      <trkpt lat="45.97077" lon="6.80875">
        <ele>1855</ele>
        <time>2019-08-15T15:15:02Z</time>
      </trkpt>
      <trkpt lat="45.97074" lon="6.80887">
        <ele>1854</ele>
        <time>2019-08-15T15:15:14Z</time>
      </trkpt>
      <trkpt lat="45.97075" lon="6.80899">
        <ele>1852</ele>
        <time>2019-08-15T15:15:25Z</time>
      </trkpt>
      <trkpt lat="45.97096" lon="6.80935">
        <ele>1848</ele>
        <time>2019-08-15T15:16:09Z</time>
      </trkpt>
      <trkpt lat="45.97116" lon="6.80971">
        <ele>1847</ele>
        <time>2019-08-15T15:16:52Z</time>
      </trkpt>
      <trkpt lat="45.97128" lon="6.80998">
        <ele>1845</ele>
        <time>2019-08-15T15:17:21Z</time>
      </trkpt>
      <trkpt lat="45.97141" lon="6.81026">
        <ele>1843</ele>
        <time>2019-08-15T15:17:53Z</time>
      </trkpt>
      <trkpt lat="45.97142" lon="6.81045">
        <ele>1841</ele>
        <time>2019-08-15T15:18:10Z</time>
      </trkpt>
      <trkpt lat="45.97141" lon="6.81063">
        <ele>1838</ele>
        <time>2019-08-15T15:18:27Z</time>
      </trkpt>
      <trkpt lat="45.97148" lon="6.81088">
        <ele>1836</ele>
        <time>2019-08-15T15:18:52Z</time>
      </trkpt>
      <trkpt lat="45.97147" lon="6.81112">
        <ele>1834</ele>
        <time>2019-08-15T15:19:14Z</time>
      </trkpt>
      <trkpt lat="45.97142" lon="6.8113">
        <ele>1831</ele>
        <time>2019-08-15T15:19:32Z</time>
      </trkpt>
      <trkpt lat="45.97143" lon="6.81134">
        <ele>1830</ele>
        <time>2019-08-15T15:19:36Z</time>
      </trkpt>
      <trkpt lat="45.97144" lon="6.81138">
        <ele>1830</ele>
        <time>2019-08-15T15:19:40Z</time>
      </trkpt>
      <trkpt lat="45.97138" lon="6.81157">
        <ele>1827</ele>
        <time>2019-08-15T15:20:00Z</time>
      </trkpt>
      <trkpt lat="45.97132" lon="6.81195">
        <ele>1823</ele>
        <time>2019-08-15T15:20:36Z</time>
      </trkpt>
      <trkpt lat="45.97135" lon="6.8122">
        <ele>1824</ele>
        <time>2019-08-15T15:20:59Z</time>
      </trkpt>
      <trkpt lat="45.97131" lon="6.8124">
        <ele>1822</ele>
        <time>2019-08-15T15:21:19Z</time>
      </trkpt>
      <trkpt lat="45.9712" lon="6.81259">
        <ele>1817</ele>
        <time>2019-08-15T15:21:42Z</time>
      </trkpt>
      <trkpt lat="45.97114" lon="6.81275">
        <ele>1814</ele>
        <time>2019-08-15T15:21:58Z</time>
      </trkpt>
      <trkpt lat="45.97114" lon="6.81293">
        <ele>1814</ele>
        <time>2019-08-15T15:22:15Z</time>
      </trkpt>
      <trkpt lat="45.97113" lon="6.81301">
        <ele>1813</ele>
        <time>2019-08-15T15:22:23Z</time>
      </trkpt>
      <trkpt lat="45.97111" lon="6.81311">
        <ele>1811</ele>
        <time>2019-08-15T15:22:32Z</time>
      </trkpt>
      <trkpt lat="45.97107" lon="6.81316">
        <ele>1809</ele>
        <time>2019-08-15T15:22:39Z</time>
      </trkpt>
      <trkpt lat="45.97102" lon="6.81325">
        <ele>1806</ele>
        <time>2019-08-15T15:22:50Z</time>
      </trkpt>
      <trkpt lat="45.971" lon="6.81332">
        <ele>1804</ele>
        <time>2019-08-15T15:22:57Z</time>
      </trkpt>
      <trkpt lat="45.97101" lon="6.81345">
        <ele>1805</ele>
        <time>2019-08-15T15:23:09Z</time>
      </trkpt>
      <trkpt lat="45.971" lon="6.81353">
        <ele>1804</ele>
        <time>2019-08-15T15:23:17Z</time>
      </trkpt>
      <trkpt lat="45.97096" lon="6.81363">
        <ele>1802</ele>
        <time>2019-08-15T15:23:27Z</time>
      </trkpt>
      <trkpt lat="45.9709" lon="6.81372">
        <ele>1798</ele>
        <time>2019-08-15T15:23:39Z</time>
      </trkpt>
      <trkpt lat="45.97083" lon="6.81389">
        <ele>1793</ele>
        <time>2019-08-15T15:23:57Z</time>
      </trkpt>
      <trkpt lat="45.97073" lon="6.81408">
        <ele>1789</ele>
        <time>2019-08-15T15:24:19Z</time>
      </trkpt>
      <trkpt lat="45.97068" lon="6.81428">
        <ele>1789</ele>
        <time>2019-08-15T15:24:39Z</time>
      </trkpt>
      <trkpt lat="45.97062" lon="6.81443">
        <ele>1788</ele>
        <time>2019-08-15T15:24:55Z</time>
      </trkpt>
      <trkpt lat="45.97043" lon="6.81482">
        <ele>1784</ele>
        <time>2019-08-15T15:25:39Z</time>
      </trkpt>
      <trkpt lat="45.97029" lon="6.81502">
        <ele>1779</ele>
        <time>2019-08-15T15:26:06Z</time>
      </trkpt>
      <trkpt lat="45.97021" lon="6.81512">
        <ele>1776</ele>
        <time>2019-08-15T15:26:20Z</time>
      </trkpt>
      <trkpt lat="45.97019" lon="6.81525">
        <ele>1775</ele>
        <time>2019-08-15T15:26:32Z</time>
      </trkpt>
      <trkpt lat="45.97016" lon="6.81527">
        <ele>1774</ele>
        <time>2019-08-15T15:26:37Z</time>
      </trkpt>
      <trkpt lat="45.97012" lon="6.81527">
        <ele>1772</ele>
        <time>2019-08-15T15:26:42Z</time>
      </trkpt>
      <trkpt lat="45.97011" lon="6.81529">
        <ele>1771</ele>
        <time>2019-08-15T15:26:44Z</time>
      </trkpt>
      <trkpt lat="45.97009" lon="6.81535">
        <ele>1770</ele>
        <time>2019-08-15T15:26:50Z</time>
      </trkpt>
      <trkpt lat="45.97008" lon="6.81543">
        <ele>1770</ele>
        <time>2019-08-15T15:26:58Z</time>
      </trkpt>
      <trkpt lat="45.97008" lon="6.8156">
        <ele>1770</ele>
        <time>2019-08-15T15:27:14Z</time>
      </trkpt>
      <trkpt lat="45.97002" lon="6.81572">
        <ele>1766</ele>
        <time>2019-08-15T15:27:27Z</time>
      </trkpt>
      <trkpt lat="45.96978" lon="6.81595">
        <ele>1760</ele>
        <time>2019-08-15T15:28:06Z</time>
      </trkpt>
      <trkpt lat="45.96973" lon="6.81622">
        <ele>1757</ele>
        <time>2019-08-15T15:28:32Z</time>
      </trkpt>
      <trkpt lat="45.96968" lon="6.81626">
        <ele>1756</ele>
        <time>2019-08-15T15:28:39Z</time>
      </trkpt>
      <trkpt lat="45.96965" lon="6.81633">
        <ele>1754</ele>
        <time>2019-08-15T15:28:47Z</time>
      </trkpt>
      <trkpt lat="45.96965" lon="6.81641">
        <ele>1754</ele>
        <time>2019-08-15T15:28:55Z</time>
      </trkpt>
      <trkpt lat="45.96966" lon="6.81653">
        <ele>1753</ele>
        <time>2019-08-15T15:29:06Z</time>
      </trkpt>
      <trkpt lat="45.96957" lon="6.81677">
        <ele>1749</ele>
        <time>2019-08-15T15:29:31Z</time>
      </trkpt>
      <trkpt lat="45.96957" lon="6.81691">
        <ele>1748</ele>
        <time>2019-08-15T15:29:44Z</time>
      </trkpt>
      <trkpt lat="45.96953" lon="6.81703">
        <ele>1746</ele>
        <time>2019-08-15T15:29:56Z</time>
      </trkpt>
      <trkpt lat="45.96949" lon="6.8171">
        <ele>1744</ele>
        <time>2019-08-15T15:30:05Z</time>
      </trkpt>
      <trkpt lat="45.96946" lon="6.81712">
        <ele>1742</ele>
        <time>2019-08-15T15:30:09Z</time>
      </trkpt>
      <trkpt lat="45.96944" lon="6.81713">
        <ele>1742</ele>
        <time>2019-08-15T15:30:12Z</time>
      </trkpt>
      <trkpt lat="45.96943" lon="6.81712">
        <ele>1741</ele>
        <time>2019-08-15T15:30:14Z</time>
      </trkpt>
      <trkpt lat="45.96937" lon="6.81706">
        <ele>1739</ele>
        <time>2019-08-15T15:30:23Z</time>
      </trkpt>
      <trkpt lat="45.96937" lon="6.81705">
        <ele>1740</ele>
        <time>2019-08-15T15:30:24Z</time>
      </trkpt>
      <trkpt lat="45.96936" lon="6.81706">
        <ele>1739</ele>
        <time>2019-08-15T15:30:26Z</time>
      </trkpt>
      <trkpt lat="45.96934" lon="6.81715">
        <ele>1737</ele>
        <time>2019-08-15T15:30:35Z</time>
      </trkpt>
      <trkpt lat="45.96938" lon="6.81728">
        <ele>1737</ele>
        <time>2019-08-15T15:30:48Z</time>
      </trkpt>
      <trkpt lat="45.96942" lon="6.81738">
        <ele>1738</ele>
        <time>2019-08-15T15:30:59Z</time>
      </trkpt>
      <trkpt lat="45.96946" lon="6.8174">
        <ele>1740</ele>
        <time>2019-08-15T15:31:04Z</time>
      </trkpt>
      <trkpt lat="45.96948" lon="6.81745">
        <ele>1741</ele>
        <time>2019-08-15T15:31:10Z</time>
      </trkpt>
      <trkpt lat="45.96946" lon="6.8176">
        <ele>1740</ele>
        <time>2019-08-15T15:31:24Z</time>
      </trkpt>
      <trkpt lat="45.9694" lon="6.81779">
        <ele>1738</ele>
        <time>2019-08-15T15:31:43Z</time>
      </trkpt>
      <trkpt lat="45.96929" lon="6.81791">
        <ele>1732</ele>
        <time>2019-08-15T15:32:01Z</time>
      </trkpt>
      <trkpt lat="45.96922" lon="6.81814">
        <ele>1729</ele>
        <time>2019-08-15T15:32:25Z</time>
      </trkpt>
      <trkpt lat="45.96906" lon="6.81822">
        <ele>1722</ele>
        <time>2019-08-15T15:32:47Z</time>
      </trkpt>
      <trkpt lat="45.96896" lon="6.81842">
        <ele>1721</ele>
        <time>2019-08-15T15:33:10Z</time>
      </trkpt>
      <trkpt lat="45.9688" lon="6.81866">
        <ele>1719</ele>
        <time>2019-08-15T15:33:41Z</time>
      </trkpt>
      <trkpt lat="45.96868" lon="6.81898">
        <ele>1719</ele>
        <time>2019-08-15T15:34:15Z</time>
      </trkpt>
      <trkpt lat="45.96857" lon="6.81922">
        <ele>1716</ele>
        <time>2019-08-15T15:34:41Z</time>
      </trkpt>
      <trkpt lat="45.96848" lon="6.81929">
        <ele>1713</ele>
        <time>2019-08-15T15:34:55Z</time>
      </trkpt>
      <trkpt lat="45.96827" lon="6.81965">
        <ele>1710</ele>
        <time>2019-08-15T15:35:39Z</time>
      </trkpt>
      <trkpt lat="45.96805" lon="6.82">
        <ele>1705</ele>
        <time>2019-08-15T15:36:22Z</time>
      </trkpt>
      <trkpt lat="45.96779" lon="6.82018">
        <ele>1693</ele>
        <time>2019-08-15T15:37:01Z</time>
      </trkpt>
      <trkpt lat="45.96764" lon="6.82033">
        <ele>1687</ele>
        <time>2019-08-15T15:37:25Z</time>
      </trkpt>
      <trkpt lat="45.96752" lon="6.82073">
        <ele>1685</ele>
        <time>2019-08-15T15:38:06Z</time>
      </trkpt>
      <trkpt lat="45.96749" lon="6.82094">
        <ele>1685</ele>
        <time>2019-08-15T15:38:26Z</time>
      </trkpt>
      <trkpt lat="45.96741" lon="6.82107">
        <ele>1681</ele>
        <time>2019-08-15T15:38:42Z</time>
      </trkpt>
      <trkpt lat="45.96735" lon="6.82117">
        <ele>1679</ele>
        <time>2019-08-15T15:38:54Z</time>
      </trkpt>
      <trkpt lat="45.96735" lon="6.8214">
        <ele>1679</ele>
        <time>2019-08-15T15:39:15Z</time>
      </trkpt>
      <trkpt lat="45.96759" lon="6.82206">
        <ele>1690</ele>
        <time>2019-08-15T15:40:24Z</time>
      </trkpt>
      <trkpt lat="45.96757" lon="6.82232">
        <ele>1689</ele>
        <time>2019-08-15T15:40:49Z</time>
      </trkpt>
      <trkpt lat="45.9676" lon="6.82239">
        <ele>1690</ele>
        <time>2019-08-15T15:40:56Z</time>
      </trkpt>
      <trkpt lat="45.96765" lon="6.82242">
        <ele>1690</ele>
        <time>2019-08-15T15:41:04Z</time>
      </trkpt>
      <trkpt lat="45.9677" lon="6.82252">
        <ele>1689</ele>
        <time>2019-08-15T15:41:15Z</time>
      </trkpt>
      <trkpt lat="45.96772" lon="6.82258">
        <ele>1686</ele>
        <time>2019-08-15T15:41:21Z</time>
      </trkpt>
      <trkpt lat="45.96777" lon="6.8226">
        <ele>1685</ele>
        <time>2019-08-15T15:41:28Z</time>
      </trkpt>
      <trkpt lat="45.96791" lon="6.82253">
        <ele>1689</ele>
        <time>2019-08-15T15:41:48Z</time>
      </trkpt>
      <trkpt lat="45.96798" lon="6.82255">
        <ele>1688</ele>
        <time>2019-08-15T15:41:57Z</time>
      </trkpt>
      <trkpt lat="45.96806" lon="6.82267">
        <ele>1683</ele>
        <time>2019-08-15T15:42:13Z</time>
      </trkpt>
      <trkpt lat="45.96816" lon="6.82277">
        <ele>1678</ele>
        <time>2019-08-15T15:42:29Z</time>
      </trkpt>
      <trkpt lat="45.96822" lon="6.82291">
        <ele>1671</ele>
        <time>2019-08-15T15:42:44Z</time>
      </trkpt>
      <trkpt lat="45.96834" lon="6.82294">
        <ele>1669</ele>
        <time>2019-08-15T15:43:01Z</time>
      </trkpt>
      <trkpt lat="45.96854" lon="6.82304">
        <ele>1668</ele>
        <time>2019-08-15T15:43:29Z</time>
      </trkpt>
      <trkpt lat="45.96873" lon="6.82318">
        <ele>1664</ele>
        <time>2019-08-15T15:43:57Z</time>
      </trkpt>
      <trkpt lat="45.96901" lon="6.82349">
        <ele>1654</ele>
        <time>2019-08-15T15:44:44Z</time>
      </trkpt>
      <trkpt lat="45.96926" lon="6.82367">
        <ele>1652</ele>
        <time>2019-08-15T15:45:22Z</time>
      </trkpt>
      <trkpt lat="45.96952" lon="6.82391">
        <ele>1651</ele>
        <time>2019-08-15T15:46:03Z</time>
      </trkpt>
      <trkpt lat="45.96968" lon="6.82436">
        <ele>1643</ele>
        <time>2019-08-15T15:46:50Z</time>
      </trkpt>
      <trkpt lat="45.97001" lon="6.82518">
        <ele>1646</ele>
        <time>2019-08-15T15:48:18Z</time>
      </trkpt>
      <trkpt lat="45.97017" lon="6.82558">
        <ele>1645</ele>
        <time>2019-08-15T15:49:01Z</time>
      </trkpt>
      <trkpt lat="45.97017" lon="6.82562">
        <ele>1644</ele>
        <time>2019-08-15T15:49:04Z</time>
      </trkpt>
      <trkpt lat="45.97014" lon="6.82565">
        <ele>1641</ele>
        <time>2019-08-15T15:49:09Z</time>
      </trkpt>
      <trkpt lat="45.97012" lon="6.82565">
        <ele>1640</ele>
        <time>2019-08-15T15:49:12Z</time>
      </trkpt>
      <trkpt lat="45.97007" lon="6.82561">
        <ele>1638</ele>
        <time>2019-08-15T15:49:19Z</time>
      </trkpt>
      <trkpt lat="45.97002" lon="6.82552">
        <ele>1637</ele>
        <time>2019-08-15T15:49:30Z</time>
      </trkpt>
      <trkpt lat="45.96991" lon="6.82544">
        <ele>1633</ele>
        <time>2019-08-15T15:49:47Z</time>
      </trkpt>
      <trkpt lat="45.9698" lon="6.82541">
        <ele>1629</ele>
        <time>2019-08-15T15:50:02Z</time>
      </trkpt>
      <trkpt lat="45.96954" lon="6.82525">
        <ele>1618</ele>
        <time>2019-08-15T15:50:39Z</time>
      </trkpt>
      <trkpt lat="45.96949" lon="6.82525">
        <ele>1616</ele>
        <time>2019-08-15T15:50:46Z</time>
      </trkpt>
      <trkpt lat="45.96945" lon="6.82528">
        <ele>1613</ele>
        <time>2019-08-15T15:50:52Z</time>
      </trkpt>
      <trkpt lat="45.96942" lon="6.82539">
        <ele>1610</ele>
        <time>2019-08-15T15:51:03Z</time>
      </trkpt>
      <trkpt lat="45.96943" lon="6.82548">
        <ele>1609</ele>
        <time>2019-08-15T15:51:11Z</time>
      </trkpt>
      <trkpt lat="45.96948" lon="6.82555">
        <ele>1610</ele>
        <time>2019-08-15T15:51:21Z</time>
      </trkpt>
      <trkpt lat="45.96961" lon="6.82575">
        <ele>1612</ele>
        <time>2019-08-15T15:51:46Z</time>
      </trkpt>
      <trkpt lat="45.96966" lon="6.82596">
        <ele>1611</ele>
        <time>2019-08-15T15:52:07Z</time>
      </trkpt>
      <trkpt lat="45.96975" lon="6.82622">
        <ele>1609</ele>
        <time>2019-08-15T15:52:34Z</time>
      </trkpt>
      <trkpt lat="45.96975" lon="6.82622">
        <ele>1609</ele>
        <time>2019-08-15T15:52:34Z</time>
      </trkpt>
      <trkpt lat="45.9697" lon="6.82639">
        <ele>1605</ele>
        <time>2019-08-15T15:52:51Z</time>
      </trkpt>
      <trkpt lat="45.96968" lon="6.82653">
        <ele>1603</ele>
        <time>2019-08-15T15:53:04Z</time>
      </trkpt>
      <trkpt lat="45.96968" lon="6.82662">
        <ele>1601</ele>
        <time>2019-08-15T15:53:12Z</time>
      </trkpt>
      <trkpt lat="45.96973" lon="6.8267">
        <ele>1601</ele>
        <time>2019-08-15T15:53:22Z</time>
      </trkpt>
      <trkpt lat="45.96986" lon="6.82674">
        <ele>1602</ele>
        <time>2019-08-15T15:53:40Z</time>
      </trkpt>
      <trkpt lat="45.96994" lon="6.82683">
        <ele>1603</ele>
        <time>2019-08-15T15:53:54Z</time>
      </trkpt>
      <trkpt lat="45.96995" lon="6.82695">
        <ele>1604</ele>
        <time>2019-08-15T15:54:05Z</time>
      </trkpt>
      <trkpt lat="45.96992" lon="6.82722">
        <ele>1608</ele>
        <time>2019-08-15T15:54:30Z</time>
      </trkpt>
      <trkpt lat="45.96978" lon="6.82736">
        <ele>1612</ele>
        <time>2019-08-15T15:54:53Z</time>
      </trkpt>
      <trkpt lat="45.96966" lon="6.82732">
        <ele>1614</ele>
        <time>2019-08-15T15:55:09Z</time>
      </trkpt>
      <trkpt lat="45.96963" lon="6.8273">
        <ele>1614</ele>
        <time>2019-08-15T15:55:14Z</time>
      </trkpt>
      <trkpt lat="45.96961" lon="6.82729">
        <ele>1614</ele>
        <time>2019-08-15T15:55:17Z</time>
      </trkpt>
      <trkpt lat="45.9696" lon="6.82732">
        <ele>1615</ele>
        <time>2019-08-15T15:55:20Z</time>
      </trkpt>
      <trkpt lat="45.9696" lon="6.82735">
        <ele>1615</ele>
        <time>2019-08-15T15:55:22Z</time>
      </trkpt>
      <trkpt lat="45.9697" lon="6.82746">
        <ele>1616</ele>
        <time>2019-08-15T15:55:39Z</time>
      </trkpt>
      <trkpt lat="45.96993" lon="6.82792">
        <ele>1623</ele>
        <time>2019-08-15T15:56:32Z</time>
      </trkpt>
      <trkpt lat="45.97022" lon="6.82835">
        <ele>1627</ele>
        <time>2019-08-15T15:57:27Z</time>
      </trkpt>
      <trkpt lat="45.97023" lon="6.82839">
        <ele>1629</ele>
        <time>2019-08-15T15:57:31Z</time>
      </trkpt>
      <trkpt lat="45.97021" lon="6.8284">
        <ele>1629</ele>
        <time>2019-08-15T15:57:34Z</time>
      </trkpt>
      <trkpt lat="45.96996" lon="6.82835">
        <ele>1634</ele>
        <time>2019-08-15T15:58:08Z</time>
      </trkpt>
      <trkpt lat="45.96953" lon="6.8282">
        <ele>1644</ele>
        <time>2019-08-15T15:59:07Z</time>
      </trkpt>
      <trkpt lat="45.96914" lon="6.82805">
        <ele>1651</ele>
        <time>2019-08-15T16:00:01Z</time>
      </trkpt>
      <trkpt lat="45.96891" lon="6.82794">
        <ele>1656</ele>
        <time>2019-08-15T16:00:33Z</time>
      </trkpt>
      <trkpt lat="45.96868" lon="6.82784">
        <ele>1660</ele>
        <time>2019-08-15T16:01:05Z</time>
      </trkpt>
      <trkpt lat="45.96838" lon="6.82779">
        <ele>1668</ele>
        <time>2019-08-15T16:01:45Z</time>
      </trkpt>
      <trkpt lat="45.96807" lon="6.82771">
        <ele>1680</ele>
        <time>2019-08-15T16:02:28Z</time>
      </trkpt>
      <trkpt lat="45.96774" lon="6.82756">
        <ele>1689</ele>
        <time>2019-08-15T16:03:14Z</time>
      </trkpt>
      <trkpt lat="45.96738" lon="6.82743">
        <ele>1699</ele>
        <time>2019-08-15T16:04:03Z</time>
      </trkpt>
      <trkpt lat="45.96703" lon="6.8273">
        <ele>1707</ele>
        <time>2019-08-15T16:04:51Z</time>
      </trkpt>
      <trkpt lat="45.96662" lon="6.82708">
        <ele>1713</ele>
        <time>2019-08-15T16:05:50Z</time>
      </trkpt>
      <trkpt lat="45.96652" lon="6.82704">
        <ele>1715</ele>
        <time>2019-08-15T16:06:04Z</time>
      </trkpt>
      <trkpt lat="45.96639" lon="6.82708">
        <ele>1723</ele>
        <time>2019-08-15T16:06:21Z</time>
      </trkpt>
      <trkpt lat="45.96625" lon="6.82709">
        <ele>1729</ele>
        <time>2019-08-15T16:06:40Z</time>
      </trkpt>
      <trkpt lat="45.96613" lon="6.82695">
        <ele>1727</ele>
        <time>2019-08-15T16:07:01Z</time>
      </trkpt>
      <trkpt lat="45.96605" lon="6.82682">
        <ele>1723</ele>
        <time>2019-08-15T16:07:17Z</time>
      </trkpt>
      <trkpt lat="45.96599" lon="6.8268">
        <ele>1724</ele>
        <time>2019-08-15T16:07:25Z</time>
      </trkpt>
      <trkpt lat="45.96581" lon="6.82681">
        <ele>1733</ele>
        <time>2019-08-15T16:07:49Z</time>
      </trkpt>
      <trkpt lat="45.96565" lon="6.82675">
        <ele>1735</ele>
        <time>2019-08-15T16:08:11Z</time>
      </trkpt>
      <trkpt lat="45.9655" lon="6.82657">
        <ele>1730</ele>
        <time>2019-08-15T16:08:37Z</time>
      </trkpt>
      <trkpt lat="45.96541" lon="6.82651">
        <ele>1730</ele>
        <time>2019-08-15T16:08:50Z</time>
      </trkpt>
      <trkpt lat="45.96522" lon="6.82652">
        <ele>1737</ele>
        <time>2019-08-15T16:09:16Z</time>
      </trkpt>
      <trkpt lat="45.96501" lon="6.82655">
        <ele>1747</ele>
        <time>2019-08-15T16:09:44Z</time>
      </trkpt>
      <trkpt lat="45.96495" lon="6.82665">
        <ele>1755</ele>
        <time>2019-08-15T16:09:56Z</time>
      </trkpt>
      <trkpt lat="45.96481" lon="6.82669">
        <ele>1759</ele>
        <time>2019-08-15T16:10:15Z</time>
      </trkpt>
      <trkpt lat="45.96472" lon="6.8266">
        <ele>1755</ele>
        <time>2019-08-15T16:10:30Z</time>
      </trkpt>
      <trkpt lat="45.96462" lon="6.82658">
        <ele>1755</ele>
        <time>2019-08-15T16:10:43Z</time>
      </trkpt>
      <trkpt lat="45.96446" lon="6.8265">
        <ele>1752</ele>
        <time>2019-08-15T16:11:06Z</time>
      </trkpt>
      <trkpt lat="45.96428" lon="6.82648">
        <ele>1753</ele>
        <time>2019-08-15T16:11:30Z</time>
      </trkpt>
      <trkpt lat="45.96409" lon="6.82657">
        <ele>1760</ele>
        <time>2019-08-15T16:11:57Z</time>
      </trkpt>
      <trkpt lat="45.96407" lon="6.8267">
        <ele>1768</ele>
        <time>2019-08-15T16:12:09Z</time>
      </trkpt>
      <trkpt lat="45.96389" lon="6.82702">
        <ele>1776</ele>
        <time>2019-08-15T16:12:47Z</time>
      </trkpt>
      <trkpt lat="45.96376" lon="6.82709">
        <ele>1776</ele>
        <time>2019-08-15T16:13:06Z</time>
      </trkpt>
      <trkpt lat="45.96356" lon="6.82714">
        <ele>1773</ele>
        <time>2019-08-15T16:13:33Z</time>
      </trkpt>
      <trkpt lat="45.96325" lon="6.82741">
        <ele>1775</ele>
        <time>2019-08-15T16:14:21Z</time>
      </trkpt>
      <trkpt lat="45.963" lon="6.82756">
        <ele>1772</ele>
        <time>2019-08-15T16:14:57Z</time>
      </trkpt>
      <trkpt lat="45.96284" lon="6.82756">
        <ele>1766</ele>
        <time>2019-08-15T16:15:19Z</time>
      </trkpt>
      <trkpt lat="45.96273" lon="6.82767">
        <ele>1767</ele>
        <time>2019-08-15T16:15:37Z</time>
      </trkpt>
      <trkpt lat="45.96264" lon="6.82784">
        <ele>1771</ele>
        <time>2019-08-15T16:15:57Z</time>
      </trkpt>
      <trkpt lat="45.96247" lon="6.82806">
        <ele>1773</ele>
        <time>2019-08-15T16:16:27Z</time>
      </trkpt>
      <trkpt lat="45.96231" lon="6.82819">
        <ele>1774</ele>
        <time>2019-08-15T16:16:52Z</time>
      </trkpt>
      <trkpt lat="45.96214" lon="6.82838">
        <ele>1777</ele>
        <time>2019-08-15T16:17:20Z</time>
      </trkpt>
      <trkpt lat="45.96188" lon="6.82855">
        <ele>1778</ele>
        <time>2019-08-15T16:17:58Z</time>
      </trkpt>
      <trkpt lat="45.96178" lon="6.82872">
        <ele>1784</ele>
        <time>2019-08-15T16:18:19Z</time>
      </trkpt>
      <trkpt lat="45.96166" lon="6.82881">
        <ele>1784</ele>
        <time>2019-08-15T16:18:37Z</time>
      </trkpt>
      <trkpt lat="45.96156" lon="6.82907">
        <ele>1793</ele>
        <time>2019-08-15T16:19:05Z</time>
      </trkpt>
      <trkpt lat="45.96148" lon="6.8292">
        <ele>1796</ele>
        <time>2019-08-15T16:19:21Z</time>
      </trkpt>
      <trkpt lat="45.96143" lon="6.82934">
        <ele>1799</ele>
        <time>2019-08-15T16:19:35Z</time>
      </trkpt>
      <trkpt lat="45.96134" lon="6.82964">
        <ele>1805</ele>
        <time>2019-08-15T16:20:06Z</time>
      </trkpt>
      <trkpt lat="45.9613" lon="6.8298">
        <ele>1809</ele>
        <time>2019-08-15T16:20:21Z</time>
      </trkpt>
      <trkpt lat="45.96124" lon="6.82988">
        <ele>1810</ele>
        <time>2019-08-15T16:20:32Z</time>
      </trkpt>
      <trkpt lat="45.96115" lon="6.82994">
        <ele>1808</ele>
        <time>2019-08-15T16:20:46Z</time>
      </trkpt>
      <trkpt lat="45.9609" lon="6.83045">
        <ele>1817</ele>
        <time>2019-08-15T16:21:44Z</time>
      </trkpt>
      <trkpt lat="45.96063" lon="6.83073">
        <ele>1823</ele>
        <time>2019-08-15T16:22:28Z</time>
      </trkpt>
      <trkpt lat="45.96034" lon="6.83078">
        <ele>1823</ele>
        <time>2019-08-15T16:23:07Z</time>
      </trkpt>
      <trkpt lat="45.96031" lon="6.8308">
        <ele>1824</ele>
        <time>2019-08-15T16:23:11Z</time>
      </trkpt>
      <trkpt lat="45.9603" lon="6.83081">
        <ele>1824</ele>
        <time>2019-08-15T16:23:13Z</time>
      </trkpt>
      <trkpt lat="45.96004" lon="6.83086">
        <ele>1824</ele>
        <time>2019-08-15T16:23:48Z</time>
      </trkpt>
      <trkpt lat="45.96" lon="6.83087">
        <ele>1824</ele>
        <time>2019-08-15T16:23:53Z</time>
      </trkpt>
      <trkpt lat="45.95997" lon="6.83087">
        <ele>1824</ele>
        <time>2019-08-15T16:23:57Z</time>
      </trkpt>
      <trkpt lat="45.95979" lon="6.83084">
        <ele>1823</ele>
        <time>2019-08-15T16:24:22Z</time>
      </trkpt>
      <trkpt lat="45.95975" lon="6.83087">
        <ele>1824</ele>
        <time>2019-08-15T16:24:28Z</time>
      </trkpt>
      <trkpt lat="45.95972" lon="6.83096">
        <ele>1826</ele>
        <time>2019-08-15T16:24:37Z</time>
      </trkpt>
      <trkpt lat="45.95972" lon="6.83103">
        <ele>1828</ele>
        <time>2019-08-15T16:24:43Z</time>
      </trkpt>
      <trkpt lat="45.95969" lon="6.83108">
        <ele>1829</ele>
        <time>2019-08-15T16:24:49Z</time>
      </trkpt>
      <trkpt lat="45.95965" lon="6.83109">
        <ele>1829</ele>
        <time>2019-08-15T16:24:55Z</time>
      </trkpt>
      <trkpt lat="45.95955" lon="6.83108">
        <ele>1829</ele>
        <time>2019-08-15T16:25:08Z</time>
      </trkpt>
      <trkpt lat="45.95941" lon="6.83115">
        <ele>1830</ele>
        <time>2019-08-15T16:25:28Z</time>
      </trkpt>
      <trkpt lat="45.95937" lon="6.83125">
        <ele>1831</ele>
        <time>2019-08-15T16:25:39Z</time>
      </trkpt>
      <trkpt lat="45.95934" lon="6.83129">
        <ele>1832</ele>
        <time>2019-08-15T16:25:44Z</time>
      </trkpt>
      <trkpt lat="45.95923" lon="6.83153">
        <ele>1835</ele>
        <time>2019-08-15T16:26:11Z</time>
      </trkpt>
      <trkpt lat="45.95892" lon="6.83169">
        <ele>1835</ele>
        <time>2019-08-15T16:26:55Z</time>
      </trkpt>
      <trkpt lat="45.95888" lon="6.8318">
        <ele>1837</ele>
        <time>2019-08-15T16:27:06Z</time>
      </trkpt>
      <trkpt lat="45.95886" lon="6.83181">
        <ele>1838</ele>
        <time>2019-08-15T16:27:09Z</time>
      </trkpt>
      <trkpt lat="45.95884" lon="6.83181">
        <ele>1837</ele>
        <time>2019-08-15T16:27:12Z</time>
      </trkpt>
      <trkpt lat="45.95879" lon="6.83186">
        <ele>1839</ele>
        <time>2019-08-15T16:27:20Z</time>
      </trkpt>
      <trkpt lat="45.95874" lon="6.83188">
        <ele>1839</ele>
        <time>2019-08-15T16:27:27Z</time>
      </trkpt>
      <trkpt lat="45.95868" lon="6.83192">
        <ele>1840</ele>
        <time>2019-08-15T16:27:36Z</time>
      </trkpt>
      <trkpt lat="45.95865" lon="6.83198">
        <ele>1841</ele>
        <time>2019-08-15T16:27:43Z</time>
      </trkpt>
      <trkpt lat="45.9586" lon="6.832">
        <ele>1842</ele>
        <time>2019-08-15T16:27:49Z</time>
      </trkpt>
      <trkpt lat="45.9585" lon="6.83201">
        <ele>1841</ele>
        <time>2019-08-15T16:28:03Z</time>
      </trkpt>
      <trkpt lat="45.95841" lon="6.83199">
        <ele>1840</ele>
        <time>2019-08-15T16:28:15Z</time>
      </trkpt>
      <trkpt lat="45.95832" lon="6.83198">
        <ele>1840</ele>
        <time>2019-08-15T16:28:27Z</time>
      </trkpt>
      <trkpt lat="45.95803" lon="6.83211">
        <ele>1845</ele>
        <time>2019-08-15T16:29:08Z</time>
      </trkpt>
      <trkpt lat="45.95793" lon="6.83214">
        <ele>1846</ele>
        <time>2019-08-15T16:29:21Z</time>
      </trkpt>
      <trkpt lat="45.95788" lon="6.83215">
        <ele>1847</ele>
        <time>2019-08-15T16:29:28Z</time>
      </trkpt>
      <trkpt lat="45.95783" lon="6.8322">
        <ele>1848</ele>
        <time>2019-08-15T16:29:36Z</time>
      </trkpt>
      <trkpt lat="45.95773" lon="6.83228">
        <ele>1851</ele>
        <time>2019-08-15T16:29:51Z</time>
      </trkpt>
      <trkpt lat="45.95769" lon="6.83221">
        <ele>1849</ele>
        <time>2019-08-15T16:30:00Z</time>
      </trkpt>
      <trkpt lat="45.95764" lon="6.8322">
        <ele>1849</ele>
        <time>2019-08-15T16:30:06Z</time>
      </trkpt>
      <trkpt lat="45.95756" lon="6.83227">
        <ele>1851</ele>
        <time>2019-08-15T16:30:19Z</time>
      </trkpt>
      <trkpt lat="45.9575" lon="6.83228">
        <ele>1851</ele>
        <time>2019-08-15T16:30:27Z</time>
      </trkpt>
      <trkpt lat="45.95746" lon="6.83233">
        <ele>1853</ele>
        <time>2019-08-15T16:30:34Z</time>
      </trkpt>
      <trkpt lat="45.9574" lon="6.83234">
        <ele>1853</ele>
        <time>2019-08-15T16:30:42Z</time>
      </trkpt>
      <trkpt lat="45.95731" lon="6.83246">
        <ele>1857</ele>
        <time>2019-08-15T16:30:59Z</time>
      </trkpt>
      <trkpt lat="45.95727" lon="6.83246">
        <ele>1857</ele>
        <time>2019-08-15T16:31:04Z</time>
      </trkpt>
      <trkpt lat="45.95722" lon="6.83248">
        <ele>1858</ele>
        <time>2019-08-15T16:31:11Z</time>
      </trkpt>
      <trkpt lat="45.95716" lon="6.83247">
        <ele>1858</ele>
        <time>2019-08-15T16:31:19Z</time>
      </trkpt>
      <trkpt lat="45.95708" lon="6.83249">
        <ele>1859</ele>
        <time>2019-08-15T16:31:30Z</time>
      </trkpt>
      <trkpt lat="45.95701" lon="6.83258">
        <ele>1863</ele>
        <time>2019-08-15T16:31:42Z</time>
      </trkpt>
      <trkpt lat="45.95682" lon="6.83267">
        <ele>1868</ele>
        <time>2019-08-15T16:32:09Z</time>
      </trkpt>
      <trkpt lat="45.95671" lon="6.83284">
        <ele>1874</ele>
        <time>2019-08-15T16:32:30Z</time>
      </trkpt>
      <trkpt lat="45.95657" lon="6.83294">
        <ele>1876</ele>
        <time>2019-08-15T16:32:51Z</time>
      </trkpt>
      <trkpt lat="45.95639" lon="6.83297">
        <ele>1875</ele>
        <time>2019-08-15T16:33:16Z</time>
      </trkpt>
      <trkpt lat="45.95601" lon="6.83307">
        <ele>1874</ele>
        <time>2019-08-15T16:34:07Z</time>
      </trkpt>
      <trkpt lat="45.95597" lon="6.83308">
        <ele>1874</ele>
        <time>2019-08-15T16:34:12Z</time>
      </trkpt>
      <trkpt lat="45.95594" lon="6.83311">
        <ele>1875</ele>
        <time>2019-08-15T16:34:17Z</time>
      </trkpt>
      <trkpt lat="45.9559" lon="6.8332">
        <ele>1877</ele>
        <time>2019-08-15T16:34:27Z</time>
      </trkpt>
      <trkpt lat="45.95582" lon="6.83331">
        <ele>1878</ele>
        <time>2019-08-15T16:34:42Z</time>
      </trkpt>
      <trkpt lat="45.95576" lon="6.83344">
        <ele>1880</ele>
        <time>2019-08-15T16:34:57Z</time>
      </trkpt>
      <trkpt lat="45.95563" lon="6.83358">
        <ele>1881</ele>
        <time>2019-08-15T16:35:18Z</time>
      </trkpt>
      <trkpt lat="45.95551" lon="6.83382">
        <ele>1886</ele>
        <time>2019-08-15T16:35:46Z</time>
      </trkpt>
      <trkpt lat="45.9551" lon="6.83429">
        <ele>1890</ele>
        <time>2019-08-15T16:36:56Z</time>
      </trkpt>
      <trkpt lat="45.95497" lon="6.83437">
        <ele>1889</ele>
        <time>2019-08-15T16:37:14Z</time>
      </trkpt>
      <trkpt lat="45.95492" lon="6.83445">
        <ele>1890</ele>
        <time>2019-08-15T16:37:24Z</time>
      </trkpt>
      <trkpt lat="45.95482" lon="6.83468">
        <ele>1893</ele>
        <time>2019-08-15T16:37:50Z</time>
      </trkpt>
      <trkpt lat="45.9548" lon="6.83476">
        <ele>1894</ele>
        <time>2019-08-15T16:37:57Z</time>
      </trkpt>
      <trkpt lat="45.95478" lon="6.83479">
        <ele>1894</ele>
        <time>2019-08-15T16:38:01Z</time>
      </trkpt>
      <trkpt lat="45.95476" lon="6.83479">
        <ele>1893</ele>
        <time>2019-08-15T16:38:04Z</time>
      </trkpt>
      <trkpt lat="45.9547" lon="6.83476">
        <ele>1891</ele>
        <time>2019-08-15T16:38:12Z</time>
      </trkpt>
      <trkpt lat="45.95466" lon="6.83473">
        <ele>1889</ele>
        <time>2019-08-15T16:38:19Z</time>
      </trkpt>
      <trkpt lat="45.95464" lon="6.83473">
        <ele>1889</ele>
        <time>2019-08-15T16:38:21Z</time>
      </trkpt>
      <trkpt lat="45.95462" lon="6.83481">
        <ele>1890</ele>
        <time>2019-08-15T16:38:29Z</time>
      </trkpt>
      <trkpt lat="45.95462" lon="6.83482">
        <ele>1890</ele>
        <time>2019-08-15T16:38:30Z</time>
      </trkpt>
      <trkpt lat="45.95456" lon="6.83482">
        <ele>1888</ele>
        <time>2019-08-15T16:38:38Z</time>
      </trkpt>
      <trkpt lat="45.9545" lon="6.83483">
        <ele>1886</ele>
        <time>2019-08-15T16:38:46Z</time>
      </trkpt>
      <trkpt lat="45.95444" lon="6.83487">
        <ele>1885</ele>
        <time>2019-08-15T16:38:55Z</time>
      </trkpt>
      <trkpt lat="45.95434" lon="6.835">
        <ele>1883</ele>
        <time>2019-08-15T16:39:13Z</time>
      </trkpt>
      <trkpt lat="45.9543" lon="6.835">
        <ele>1882</ele>
        <time>2019-08-15T16:39:18Z</time>
      </trkpt>
      <trkpt lat="45.95423" lon="6.83487">
        <ele>1878</ele>
        <time>2019-08-15T16:39:33Z</time>
      </trkpt>
      <trkpt lat="45.95394" lon="6.83496">
        <ele>1881</ele>
        <time>2019-08-15T16:40:13Z</time>
      </trkpt>
      <trkpt lat="45.95371" lon="6.83507">
        <ele>1890</ele>
        <time>2019-08-15T16:40:45Z</time>
      </trkpt>
      <trkpt lat="45.95367" lon="6.83514">
        <ele>1894</ele>
        <time>2019-08-15T16:40:54Z</time>
      </trkpt>
      <trkpt lat="45.95365" lon="6.83515">
        <ele>1895</ele>
        <time>2019-08-15T16:40:57Z</time>
      </trkpt>
      <trkpt lat="45.9536" lon="6.83514">
        <ele>1895</ele>
        <time>2019-08-15T16:41:03Z</time>
      </trkpt>
      <trkpt lat="45.95355" lon="6.83506">
        <ele>1892</ele>
        <time>2019-08-15T16:41:13Z</time>
      </trkpt>
      <trkpt lat="45.9535" lon="6.83503">
        <ele>1892</ele>
        <time>2019-08-15T16:41:21Z</time>
      </trkpt>
      <trkpt lat="45.95323" lon="6.8351">
        <ele>1899</ele>
        <time>2019-08-15T16:41:57Z</time>
      </trkpt>
      <trkpt lat="45.95298" lon="6.83519">
        <ele>1905</ele>
        <time>2019-08-15T16:42:32Z</time>
      </trkpt>
      <trkpt lat="45.95293" lon="6.8353">
        <ele>1909</ele>
        <time>2019-08-15T16:42:44Z</time>
      </trkpt>
      <trkpt lat="45.95289" lon="6.83543">
        <ele>1914</ele>
        <time>2019-08-15T16:42:57Z</time>
      </trkpt>
      <trkpt lat="45.95287" lon="6.83547">
        <ele>1916</ele>
        <time>2019-08-15T16:43:02Z</time>
      </trkpt>
      <trkpt lat="45.95283" lon="6.83551">
        <ele>1918</ele>
        <time>2019-08-15T16:43:08Z</time>
      </trkpt>
      <trkpt lat="45.95277" lon="6.83552">
        <ele>1919</ele>
        <time>2019-08-15T16:43:16Z</time>
      </trkpt>
      <trkpt lat="45.95272" lon="6.83555">
        <ele>1920</ele>
        <time>2019-08-15T16:43:23Z</time>
      </trkpt>
      <trkpt lat="45.95265" lon="6.83556">
        <ele>1921</ele>
        <time>2019-08-15T16:43:33Z</time>
      </trkpt>
      <trkpt lat="45.95254" lon="6.83547">
        <ele>1920</ele>
        <time>2019-08-15T16:43:50Z</time>
      </trkpt>
      <trkpt lat="45.95247" lon="6.83533">
        <ele>1916</ele>
        <time>2019-08-15T16:44:06Z</time>
      </trkpt>
      <trkpt lat="45.95236" lon="6.83525">
        <ele>1916</ele>
        <time>2019-08-15T16:44:22Z</time>
      </trkpt>
      <trkpt lat="45.9523" lon="6.8352">
        <ele>1916</ele>
        <time>2019-08-15T16:44:31Z</time>
      </trkpt>
      <trkpt lat="45.95221" lon="6.8352">
        <ele>1918</ele>
        <time>2019-08-15T16:44:43Z</time>
      </trkpt>
      <trkpt lat="45.95217" lon="6.83516">
        <ele>1918</ele>
        <time>2019-08-15T16:44:50Z</time>
      </trkpt>
      <trkpt lat="45.95212" lon="6.83516">
        <ele>1919</ele>
        <time>2019-08-15T16:44:56Z</time>
      </trkpt>
      <trkpt lat="45.95204" lon="6.83523">
        <ele>1923</ele>
        <time>2019-08-15T16:45:09Z</time>
      </trkpt>
      <trkpt lat="45.95201" lon="6.83524">
        <ele>1924</ele>
        <time>2019-08-15T16:45:13Z</time>
      </trkpt>
      <trkpt lat="45.95176" lon="6.83523">
        <ele>1929</ele>
        <time>2019-08-15T16:45:46Z</time>
      </trkpt>
      <trkpt lat="45.95146" lon="6.83509">
        <ele>1931</ele>
        <time>2019-08-15T16:46:29Z</time>
      </trkpt>
      <trkpt lat="45.9514" lon="6.8351">
        <ele>1933</ele>
        <time>2019-08-15T16:46:37Z</time>
      </trkpt>
      <trkpt lat="45.95129" lon="6.83502">
        <ele>1932</ele>
        <time>2019-08-15T16:46:53Z</time>
      </trkpt>
      <trkpt lat="45.9512" lon="6.835">
        <ele>1934</ele>
        <time>2019-08-15T16:47:05Z</time>
      </trkpt>
      <trkpt lat="45.95103" lon="6.8349">
        <ele>1934</ele>
        <time>2019-08-15T16:47:30Z</time>
      </trkpt>
      <trkpt lat="45.9508" lon="6.83483">
        <ele>1936</ele>
        <time>2019-08-15T16:48:01Z</time>
      </trkpt>
      <trkpt lat="45.95072" lon="6.83476">
        <ele>1936</ele>
        <time>2019-08-15T16:48:14Z</time>
      </trkpt>
      <trkpt lat="45.95061" lon="6.83471">
        <ele>1937</ele>
        <time>2019-08-15T16:48:29Z</time>
      </trkpt>
      <trkpt lat="45.95046" lon="6.83452">
        <ele>1933</ele>
        <time>2019-08-15T16:48:56Z</time>
      </trkpt>
      <trkpt lat="45.95031" lon="6.83448">
        <ele>1936</ele>
        <time>2019-08-15T16:49:16Z</time>
      </trkpt>
      <trkpt lat="45.95016" lon="6.83447">
        <ele>1939</ele>
        <time>2019-08-15T16:49:36Z</time>
      </trkpt>
      <trkpt lat="45.94996" lon="6.83444">
        <ele>1942</ele>
        <time>2019-08-15T16:50:03Z</time>
      </trkpt>
      <trkpt lat="45.94988" lon="6.83448">
        <ele>1944</ele>
        <time>2019-08-15T16:50:14Z</time>
      </trkpt>
      <trkpt lat="45.94976" lon="6.83473">
        <ele>1953</ele>
        <time>2019-08-15T16:50:42Z</time>
      </trkpt>
      <trkpt lat="45.94967" lon="6.83485">
        <ele>1958</ele>
        <time>2019-08-15T16:50:59Z</time>
      </trkpt>
      <trkpt lat="45.94956" lon="6.83487">
        <ele>1959</ele>
        <time>2019-08-15T16:51:14Z</time>
      </trkpt>
      <trkpt lat="45.94948" lon="6.83492">
        <ele>1961</ele>
        <time>2019-08-15T16:51:25Z</time>
      </trkpt>
      <trkpt lat="45.94946" lon="6.83492">
        <ele>1961</ele>
        <time>2019-08-15T16:51:28Z</time>
      </trkpt>
      <trkpt lat="45.9494" lon="6.83487">
        <ele>1959</ele>
        <time>2019-08-15T16:51:37Z</time>
      </trkpt>
      <trkpt lat="45.94932" lon="6.8348">
        <ele>1956</ele>
        <time>2019-08-15T16:51:50Z</time>
      </trkpt>
      <trkpt lat="45.94925" lon="6.83482">
        <ele>1956</ele>
        <time>2019-08-15T16:51:59Z</time>
      </trkpt>
      <trkpt lat="45.94919" lon="6.83485">
        <ele>1958</ele>
        <time>2019-08-15T16:52:08Z</time>
      </trkpt>
      <trkpt lat="45.94915" lon="6.83491">
        <ele>1960</ele>
        <time>2019-08-15T16:52:15Z</time>
      </trkpt>
      <trkpt lat="45.94898" lon="6.83507">
        <ele>1967</ele>
        <time>2019-08-15T16:52:42Z</time>
      </trkpt>
      <trkpt lat="45.94898" lon="6.83508">
        <ele>1967</ele>
        <time>2019-08-15T16:52:43Z</time>
      </trkpt>
      <trkpt lat="45.94898" lon="6.83509">
        <ele>1968</ele>
        <time>2019-08-15T16:52:44Z</time>
      </trkpt>
      <trkpt lat="45.94904" lon="6.8351">
        <ele>1968</ele>
        <time>2019-08-15T16:52:52Z</time>
      </trkpt>
      <trkpt lat="45.94905" lon="6.83511">
        <ele>1969</ele>
        <time>2019-08-15T16:52:54Z</time>
      </trkpt>
      <trkpt lat="45.94905" lon="6.83512">
        <ele>1969</ele>
        <time>2019-08-15T16:52:55Z</time>
      </trkpt>
      <trkpt lat="45.94905" lon="6.83513">
        <ele>1970</ele>
        <time>2019-08-15T16:52:56Z</time>
      </trkpt>
      <trkpt lat="45.94898" lon="6.83519">
        <ele>1972</ele>
        <time>2019-08-15T16:53:07Z</time>
      </trkpt>
      <trkpt lat="45.94892" lon="6.83528">
        <ele>1976</ele>
        <time>2019-08-15T16:53:18Z</time>
      </trkpt>
      <trkpt lat="45.94882" lon="6.83532">
        <ele>1979</ele>
        <time>2019-08-15T16:53:32Z</time>
      </trkpt>
      <trkpt lat="45.9486" lon="6.83546">
        <ele>1987</ele>
        <time>2019-08-15T16:54:04Z</time>
      </trkpt>
      <trkpt lat="45.94852" lon="6.8355">
        <ele>1989</ele>
        <time>2019-08-15T16:54:16Z</time>
      </trkpt>
      <trkpt lat="45.94823" lon="6.83552">
        <ele>1993</ele>
        <time>2019-08-15T16:54:54Z</time>
      </trkpt>
      <trkpt lat="45.94798" lon="6.8355">
        <ele>1997</ele>
        <time>2019-08-15T16:55:28Z</time>
      </trkpt>
      <trkpt lat="45.9478" lon="6.83539">
        <ele>1995</ele>
        <time>2019-08-15T16:55:54Z</time>
      </trkpt>
      <trkpt lat="45.94768" lon="6.83537">
        <ele>1996</ele>
        <time>2019-08-15T16:56:10Z</time>
      </trkpt>
      <trkpt lat="45.94726" lon="6.83544">
        <ele>2010</ele>
        <time>2019-08-15T16:57:06Z</time>
      </trkpt>
      <trkpt lat="45.94722" lon="6.83544">
        <ele>2011</ele>
        <time>2019-08-15T16:57:12Z</time>
      </trkpt>
      <trkpt lat="45.94719" lon="6.83543">
        <ele>2012</ele>
        <time>2019-08-15T16:57:16Z</time>
      </trkpt>
      <trkpt lat="45.94715" lon="6.8354">
        <ele>2012</ele>
        <time>2019-08-15T16:57:22Z</time>
      </trkpt>
      <trkpt lat="45.94707" lon="6.83524">
        <ele>2007</ele>
        <time>2019-08-15T16:57:40Z</time>
      </trkpt>
      <trkpt lat="45.94704" lon="6.83521">
        <ele>2007</ele>
        <time>2019-08-15T16:57:45Z</time>
      </trkpt>
      <trkpt lat="45.94703" lon="6.83521">
        <ele>2008</ele>
        <time>2019-08-15T16:57:46Z</time>
      </trkpt>
      <trkpt lat="45.94699" lon="6.83519">
        <ele>2008</ele>
        <time>2019-08-15T16:57:52Z</time>
      </trkpt>
      <trkpt lat="45.94692" lon="6.83519">
        <ele>2010</ele>
        <time>2019-08-15T16:58:01Z</time>
      </trkpt>
      <trkpt lat="45.94691" lon="6.83519">
        <ele>2011</ele>
        <time>2019-08-15T16:58:03Z</time>
      </trkpt>
      <trkpt lat="45.94691" lon="6.8352">
        <ele>2011</ele>
        <time>2019-08-15T16:58:04Z</time>
      </trkpt>
      <trkpt lat="45.94691" lon="6.83521">
        <ele>2012</ele>
        <time>2019-08-15T16:58:04Z</time>
      </trkpt>
      <trkpt lat="45.94694" lon="6.83523">
        <ele>2011</ele>
        <time>2019-08-15T16:58:09Z</time>
      </trkpt>
      <trkpt lat="45.94699" lon="6.83529">
        <ele>2012</ele>
        <time>2019-08-15T16:58:18Z</time>
      </trkpt>
      <trkpt lat="45.94699" lon="6.83534">
        <ele>2014</ele>
        <time>2019-08-15T16:58:22Z</time>
      </trkpt>
      <trkpt lat="45.94699" lon="6.83535">
        <ele>2015</ele>
        <time>2019-08-15T16:58:23Z</time>
      </trkpt>
      <trkpt lat="45.94694" lon="6.83533">
        <ele>2016</ele>
        <time>2019-08-15T16:58:30Z</time>
      </trkpt>
      <trkpt lat="45.94692" lon="6.83532">
        <ele>2016</ele>
        <time>2019-08-15T16:58:33Z</time>
      </trkpt>
      <trkpt lat="45.94691" lon="6.83533">
        <ele>2017</ele>
        <time>2019-08-15T16:58:35Z</time>
      </trkpt>
      <trkpt lat="45.9469" lon="6.83533">
        <ele>2017</ele>
        <time>2019-08-15T16:58:36Z</time>
      </trkpt>
      <trkpt lat="45.94699" lon="6.83568">
        <ele>2029</ele>
        <time>2019-08-15T16:59:10Z</time>
      </trkpt>
      <trkpt lat="45.947" lon="6.83571">
        <ele>2030</ele>
        <time>2019-08-15T16:59:14Z</time>
      </trkpt>
      <trkpt lat="45.94699" lon="6.83574">
        <ele>2031</ele>
        <time>2019-08-15T16:59:17Z</time>
      </trkpt>
      <trkpt lat="45.94699" lon="6.83575">
        <ele>2032</ele>
        <time>2019-08-15T16:59:18Z</time>
      </trkpt>
      <trkpt lat="45.94698" lon="6.83576">
        <ele>2033</ele>
        <time>2019-08-15T16:59:19Z</time>
      </trkpt>
      <trkpt lat="45.94695" lon="6.83575">
        <ele>2033</ele>
        <time>2019-08-15T16:59:23Z</time>
      </trkpt>
      <trkpt lat="45.94691" lon="6.83572">
        <ele>2033</ele>
        <time>2019-08-15T16:59:29Z</time>
      </trkpt>
      <trkpt lat="45.94685" lon="6.83572">
        <ele>2035</ele>
        <time>2019-08-15T16:59:37Z</time>
      </trkpt>
      <trkpt lat="45.94681" lon="6.83573">
        <ele>2036</ele>
        <time>2019-08-15T16:59:43Z</time>
      </trkpt>
      <trkpt lat="45.94677" lon="6.83574">
        <ele>2038</ele>
        <time>2019-08-15T16:59:48Z</time>
      </trkpt>
      <trkpt lat="45.94675" lon="6.83576">
        <ele>2039</ele>
        <time>2019-08-15T16:59:51Z</time>
      </trkpt>
      <trkpt lat="45.94674" lon="6.83578">
        <ele>2040</ele>
        <time>2019-08-15T16:59:54Z</time>
      </trkpt>
      <trkpt lat="45.94674" lon="6.83583">
        <ele>2042</ele>
        <time>2019-08-15T16:59:58Z</time>
      </trkpt>
      <trkpt lat="45.94674" lon="6.83586">
        <ele>2043</ele>
        <time>2019-08-15T17:00:01Z</time>
      </trkpt>
      <trkpt lat="45.9468" lon="6.83599">
        <ele>2046</ele>
        <time>2019-08-15T17:00:16Z</time>
      </trkpt>
      <trkpt lat="45.94682" lon="6.83601">
        <ele>2046</ele>
        <time>2019-08-15T17:00:19Z</time>
      </trkpt>
      <trkpt lat="45.94685" lon="6.83602">
        <ele>2046</ele>
        <time>2019-08-15T17:00:23Z</time>
      </trkpt>
      <trkpt lat="45.94688" lon="6.83602">
        <ele>2045</ele>
        <time>2019-08-15T17:00:27Z</time>
      </trkpt>
      <trkpt lat="45.94691" lon="6.83604">
        <ele>2045</ele>
        <time>2019-08-15T17:00:31Z</time>
      </trkpt>
      <trkpt lat="45.94692" lon="6.83606">
        <ele>2046</ele>
        <time>2019-08-15T17:00:34Z</time>
      </trkpt>
      <trkpt lat="45.94694" lon="6.83608">
        <ele>2046</ele>
        <time>2019-08-15T17:00:37Z</time>
      </trkpt>
      <trkpt lat="45.94695" lon="6.83621">
        <ele>2051</ele>
        <time>2019-08-15T17:00:49Z</time>
      </trkpt>
      <trkpt lat="45.94695" lon="6.83623">
        <ele>2051</ele>
        <time>2019-08-15T17:00:51Z</time>
      </trkpt>
      <trkpt lat="45.94698" lon="6.83625">
        <ele>2051</ele>
        <time>2019-08-15T17:00:55Z</time>
      </trkpt>
      <trkpt lat="45.94702" lon="6.83629">
        <ele>2052</ele>
        <time>2019-08-15T17:01:02Z</time>
      </trkpt>
      <trkpt lat="45.94705" lon="6.8363">
        <ele>2052</ele>
        <time>2019-08-15T17:01:06Z</time>
      </trkpt>
      <trkpt lat="45.94707" lon="6.83632">
        <ele>2052</ele>
        <time>2019-08-15T17:01:09Z</time>
      </trkpt>
      <trkpt lat="45.94707" lon="6.83633">
        <ele>2053</ele>
        <time>2019-08-15T17:01:10Z</time>
      </trkpt>
      <trkpt lat="45.94706" lon="6.83633">
        <ele>2053</ele>
        <time>2019-08-15T17:01:11Z</time>
      </trkpt>
      <trkpt lat="45.94705" lon="6.83634">
        <ele>2053</ele>
        <time>2019-08-15T17:01:13Z</time>
      </trkpt>
      <trkpt lat="45.94704" lon="6.83633">
        <ele>2053</ele>
        <time>2019-08-15T17:01:15Z</time>
      </trkpt>
      <trkpt lat="45.94702" lon="6.83633">
        <ele>2054</ele>
        <time>2019-08-15T17:01:17Z</time>
      </trkpt>
      <trkpt lat="45.947" lon="6.83632">
        <ele>2054</ele>
        <time>2019-08-15T17:01:20Z</time>
      </trkpt>
      <trkpt lat="45.94697" lon="6.83633">
        <ele>2055</ele>
        <time>2019-08-15T17:01:24Z</time>
      </trkpt>
      <trkpt lat="45.94691" lon="6.83632">
        <ele>2055</ele>
        <time>2019-08-15T17:01:32Z</time>
      </trkpt>
      <trkpt lat="45.94684" lon="6.83633">
        <ele>2057</ele>
        <time>2019-08-15T17:01:42Z</time>
      </trkpt>
      <trkpt lat="45.94674" lon="6.83628">
        <ele>2057</ele>
        <time>2019-08-15T17:01:56Z</time>
      </trkpt>
      <trkpt lat="45.94673" lon="6.83628">
        <ele>2058</ele>
        <time>2019-08-15T17:01:57Z</time>
      </trkpt>
      <trkpt lat="45.94672" lon="6.8363">
        <ele>2059</ele>
        <time>2019-08-15T17:02:00Z</time>
      </trkpt>
      <trkpt lat="45.94672" lon="6.83631">
        <ele>2059</ele>
        <time>2019-08-15T17:02:00Z</time>
      </trkpt>
      <trkpt lat="45.94677" lon="6.83645">
        <ele>2063</ele>
        <time>2019-08-15T17:02:15Z</time>
      </trkpt>
      <trkpt lat="45.94677" lon="6.83646">
        <ele>2063</ele>
        <time>2019-08-15T17:02:16Z</time>
      </trkpt>
      <trkpt lat="45.94676" lon="6.83646">
        <ele>2063</ele>
        <time>2019-08-15T17:02:17Z</time>
      </trkpt>
      <trkpt lat="45.94675" lon="6.83646">
        <ele>2064</ele>
        <time>2019-08-15T17:02:19Z</time>
      </trkpt>
      <trkpt lat="45.94672" lon="6.83644">
        <ele>2063</ele>
        <time>2019-08-15T17:02:23Z</time>
      </trkpt>
      <trkpt lat="45.94666" lon="6.8364">
        <ele>2063</ele>
        <time>2019-08-15T17:02:32Z</time>
      </trkpt>
      <trkpt lat="45.94663" lon="6.83637">
        <ele>2063</ele>
        <time>2019-08-15T17:02:37Z</time>
      </trkpt>
      <trkpt lat="45.94662" lon="6.83636">
        <ele>2063</ele>
        <time>2019-08-15T17:02:38Z</time>
      </trkpt>
      <trkpt lat="45.94661" lon="6.83636">
        <ele>2063</ele>
        <time>2019-08-15T17:02:40Z</time>
      </trkpt>
      <trkpt lat="45.9466" lon="6.83636">
        <ele>2063</ele>
        <time>2019-08-15T17:02:41Z</time>
      </trkpt>
      <trkpt lat="45.9466" lon="6.83637">
        <ele>2064</ele>
        <time>2019-08-15T17:02:42Z</time>
      </trkpt>
      <trkpt lat="45.9466" lon="6.83641">
        <ele>2065</ele>
        <time>2019-08-15T17:02:46Z</time>
      </trkpt>
      <trkpt lat="45.94667" lon="6.83651">
        <ele>2067</ele>
        <time>2019-08-15T17:02:59Z</time>
      </trkpt>
      <trkpt lat="45.94668" lon="6.83653">
        <ele>2067</ele>
        <time>2019-08-15T17:03:01Z</time>
      </trkpt>
      <trkpt lat="45.94668" lon="6.83654">
        <ele>2068</ele>
        <time>2019-08-15T17:03:02Z</time>
      </trkpt>
      <trkpt lat="45.94666" lon="6.83655">
        <ele>2068</ele>
        <time>2019-08-15T17:03:05Z</time>
      </trkpt>
      <trkpt lat="45.94665" lon="6.83655">
        <ele>2068</ele>
        <time>2019-08-15T17:03:06Z</time>
      </trkpt>
      <trkpt lat="45.94661" lon="6.83653">
        <ele>2069</ele>
        <time>2019-08-15T17:03:12Z</time>
      </trkpt>
      <trkpt lat="45.94655" lon="6.83651">
        <ele>2069</ele>
        <time>2019-08-15T17:03:20Z</time>
      </trkpt>
      <trkpt lat="45.94645" lon="6.83636">
        <ele>2067</ele>
        <time>2019-08-15T17:03:39Z</time>
      </trkpt>
      <trkpt lat="45.94643" lon="6.83633">
        <ele>2066</ele>
        <time>2019-08-15T17:03:43Z</time>
      </trkpt>
      <trkpt lat="45.9464" lon="6.83631">
        <ele>2067</ele>
        <time>2019-08-15T17:03:48Z</time>
      </trkpt>
      <trkpt lat="45.94639" lon="6.83631">
        <ele>2067</ele>
        <time>2019-08-15T17:03:49Z</time>
      </trkpt>
      <trkpt lat="45.94642" lon="6.83643">
        <ele>2070</ele>
        <time>2019-08-15T17:04:01Z</time>
      </trkpt>
      <trkpt lat="45.94642" lon="6.83644">
        <ele>2070</ele>
        <time>2019-08-15T17:04:02Z</time>
      </trkpt>
      <trkpt lat="45.94641" lon="6.83644">
        <ele>2070</ele>
        <time>2019-08-15T17:04:03Z</time>
      </trkpt>
      <trkpt lat="45.94641" lon="6.83645">
        <ele>2071</ele>
        <time>2019-08-15T17:04:04Z</time>
      </trkpt>
      <trkpt lat="45.94639" lon="6.83645">
        <ele>2071</ele>
        <time>2019-08-15T17:04:07Z</time>
      </trkpt>
      <trkpt lat="45.94636" lon="6.83647">
        <ele>2073</ele>
        <time>2019-08-15T17:04:11Z</time>
      </trkpt>
      <trkpt lat="45.94633" lon="6.83655">
        <ele>2076</ele>
        <time>2019-08-15T17:04:19Z</time>
      </trkpt>
      <trkpt lat="45.94632" lon="6.8366">
        <ele>2077</ele>
        <time>2019-08-15T17:04:24Z</time>
      </trkpt>
      <trkpt lat="45.94632" lon="6.83663">
        <ele>2078</ele>
        <time>2019-08-15T17:04:27Z</time>
      </trkpt>
      <trkpt lat="45.94633" lon="6.83665">
        <ele>2079</ele>
        <time>2019-08-15T17:04:29Z</time>
      </trkpt>
      <trkpt lat="45.94634" lon="6.83666">
        <ele>2079</ele>
        <time>2019-08-15T17:04:31Z</time>
      </trkpt>
      <trkpt lat="45.94649" lon="6.83674">
        <ele>2079</ele>
        <time>2019-08-15T17:04:52Z</time>
      </trkpt>
      <trkpt lat="45.94654" lon="6.83676">
        <ele>2078</ele>
        <time>2019-08-15T17:04:59Z</time>
      </trkpt>
      <trkpt lat="45.94657" lon="6.8368">
        <ele>2079</ele>
        <time>2019-08-15T17:05:05Z</time>
      </trkpt>
      <trkpt lat="45.9466" lon="6.83684">
        <ele>2080</ele>
        <time>2019-08-15T17:05:10Z</time>
      </trkpt>
      <trkpt lat="45.94661" lon="6.83688">
        <ele>2082</ele>
        <time>2019-08-15T17:05:14Z</time>
      </trkpt>
      <trkpt lat="45.94664" lon="6.83694">
        <ele>2084</ele>
        <time>2019-08-15T17:05:21Z</time>
      </trkpt>
      <trkpt lat="45.94664" lon="6.83698">
        <ele>2086</ele>
        <time>2019-08-15T17:05:25Z</time>
      </trkpt>
      <trkpt lat="45.94664" lon="6.837">
        <ele>2086</ele>
        <time>2019-08-15T17:05:27Z</time>
      </trkpt>
      <trkpt lat="45.94663" lon="6.83701">
        <ele>2087</ele>
        <time>2019-08-15T17:05:28Z</time>
      </trkpt>
      <trkpt lat="45.94661" lon="6.83702">
        <ele>2088</ele>
        <time>2019-08-15T17:05:31Z</time>
      </trkpt>
      <trkpt lat="45.94653" lon="6.83701">
        <ele>2088</ele>
        <time>2019-08-15T17:05:42Z</time>
      </trkpt>
      <trkpt lat="45.9465" lon="6.83702">
        <ele>2089</ele>
        <time>2019-08-15T17:05:46Z</time>
      </trkpt>
      <trkpt lat="45.94646" lon="6.83707">
        <ele>2092</ele>
        <time>2019-08-15T17:05:53Z</time>
      </trkpt>
      <trkpt lat="45.94644" lon="6.83709">
        <ele>2093</ele>
        <time>2019-08-15T17:05:56Z</time>
      </trkpt>
      <trkpt lat="45.94637" lon="6.83711">
        <ele>2094</ele>
        <time>2019-08-15T17:06:06Z</time>
      </trkpt>
      <trkpt lat="45.94627" lon="6.83712">
        <ele>2096</ele>
        <time>2019-08-15T17:06:19Z</time>
      </trkpt>
      <trkpt lat="45.94622" lon="6.83711">
        <ele>2096</ele>
        <time>2019-08-15T17:06:26Z</time>
      </trkpt>
      <trkpt lat="45.94617" lon="6.83708">
        <ele>2096</ele>
        <time>2019-08-15T17:06:33Z</time>
      </trkpt>
      <trkpt lat="45.94611" lon="6.83706">
        <ele>2096</ele>
        <time>2019-08-15T17:06:41Z</time>
      </trkpt>
      <trkpt lat="45.94602" lon="6.83704">
        <ele>2096</ele>
        <time>2019-08-15T17:06:53Z</time>
      </trkpt>
      <trkpt lat="45.94601" lon="6.83704">
        <ele>2097</ele>
        <time>2019-08-15T17:06:55Z</time>
      </trkpt>
      <trkpt lat="45.94601" lon="6.83705">
        <ele>2097</ele>
        <time>2019-08-15T17:06:56Z</time>
      </trkpt>
      <trkpt lat="45.94601" lon="6.83706">
        <ele>2097</ele>
        <time>2019-08-15T17:06:57Z</time>
      </trkpt>
      <trkpt lat="45.94605" lon="6.83712">
        <ele>2098</ele>
        <time>2019-08-15T17:07:04Z</time>
      </trkpt>
      <trkpt lat="45.94607" lon="6.83717">
        <ele>2100</ele>
        <time>2019-08-15T17:07:10Z</time>
      </trkpt>
      <trkpt lat="45.94608" lon="6.83725">
        <ele>2102</ele>
        <time>2019-08-15T17:07:17Z</time>
      </trkpt>
      <trkpt lat="45.9461" lon="6.83729">
        <ele>2103</ele>
        <time>2019-08-15T17:07:22Z</time>
      </trkpt>
      <trkpt lat="45.9462" lon="6.83735">
        <ele>2104</ele>
        <time>2019-08-15T17:07:36Z</time>
      </trkpt>
      <trkpt lat="45.9463" lon="6.83743">
        <ele>2106</ele>
        <time>2019-08-15T17:07:52Z</time>
      </trkpt>
      <trkpt lat="45.94635" lon="6.83746">
        <ele>2107</ele>
        <time>2019-08-15T17:07:59Z</time>
      </trkpt>
      <trkpt lat="45.94638" lon="6.8376">
        <ele>2110</ele>
        <time>2019-08-15T17:08:12Z</time>
      </trkpt>
      <trkpt lat="45.94636" lon="6.83765">
        <ele>2112</ele>
        <time>2019-08-15T17:08:18Z</time>
      </trkpt>
      <trkpt lat="45.9463" lon="6.83772">
        <ele>2114</ele>
        <time>2019-08-15T17:08:28Z</time>
      </trkpt>
      <trkpt lat="45.94612" lon="6.83781">
        <ele>2117</ele>
        <time>2019-08-15T17:08:53Z</time>
      </trkpt>
      <trkpt lat="45.94591" lon="6.83793">
        <ele>2123</ele>
        <time>2019-08-15T17:09:24Z</time>
      </trkpt>
      <trkpt lat="45.94568" lon="6.8381">
        <ele>2131</ele>
        <time>2019-08-15T17:09:58Z</time>
      </trkpt>
      <trkpt lat="45.94554" lon="6.83817">
        <ele>2135</ele>
        <time>2019-08-15T17:10:18Z</time>
      </trkpt>
      <trkpt lat="45.94537" lon="6.8383">
        <ele>2141</ele>
        <time>2019-08-15T17:10:44Z</time>
      </trkpt>
      <trkpt lat="45.94535" lon="6.8383">
        <ele>2141</ele>
        <time>2019-08-15T17:10:46Z</time>
      </trkpt>
      <trkpt lat="45.94534" lon="6.8383">
        <ele>2141</ele>
        <time>2019-08-15T17:10:48Z</time>
      </trkpt>
      <trkpt lat="45.94532" lon="6.83828">
        <ele>2141</ele>
        <time>2019-08-15T17:10:51Z</time>
      </trkpt>
      <trkpt lat="45.94531" lon="6.83828">
        <ele>2141</ele>
        <time>2019-08-15T17:10:52Z</time>
      </trkpt>
      <trkpt lat="45.94529" lon="6.83828">
        <ele>2141</ele>
        <time>2019-08-15T17:10:55Z</time>
      </trkpt>
      <trkpt lat="45.94528" lon="6.83831">
        <ele>2142</ele>
        <time>2019-08-15T17:10:58Z</time>
      </trkpt>
      <trkpt lat="45.94526" lon="6.83832">
        <ele>2142</ele>
        <time>2019-08-15T17:11:01Z</time>
      </trkpt>
      <trkpt lat="45.94519" lon="6.83831">
        <ele>2143</ele>
        <time>2019-08-15T17:11:10Z</time>
      </trkpt>
      <trkpt lat="45.94518" lon="6.83831">
        <ele>2143</ele>
        <time>2019-08-15T17:11:11Z</time>
      </trkpt>
      <trkpt lat="45.94518" lon="6.83832">
        <ele>2143</ele>
        <time>2019-08-15T17:11:12Z</time>
      </trkpt>
      <trkpt lat="45.94518" lon="6.83834">
        <ele>2144</ele>
        <time>2019-08-15T17:11:14Z</time>
      </trkpt>
      <trkpt lat="45.9452" lon="6.83836">
        <ele>2144</ele>
        <time>2019-08-15T17:11:17Z</time>
      </trkpt>
      <trkpt lat="45.94521" lon="6.8384">
        <ele>2145</ele>
        <time>2019-08-15T17:11:21Z</time>
      </trkpt>
      <trkpt lat="45.94521" lon="6.83842">
        <ele>2146</ele>
        <time>2019-08-15T17:11:23Z</time>
      </trkpt>
      <trkpt lat="45.9452" lon="6.83843">
        <ele>2146</ele>
        <time>2019-08-15T17:11:25Z</time>
      </trkpt>
      <trkpt lat="45.94518" lon="6.83843">
        <ele>2147</ele>
        <time>2019-08-15T17:11:28Z</time>
      </trkpt>
      <trkpt lat="45.94511" lon="6.83841">
        <ele>2147</ele>
        <time>2019-08-15T17:11:37Z</time>
      </trkpt>
      <trkpt lat="45.9451" lon="6.83841">
        <ele>2147</ele>
        <time>2019-08-15T17:11:38Z</time>
      </trkpt>
      <trkpt lat="45.94509" lon="6.83842">
        <ele>2147</ele>
        <time>2019-08-15T17:11:40Z</time>
      </trkpt>
      <trkpt lat="45.94509" lon="6.83847">
        <ele>2149</ele>
        <time>2019-08-15T17:11:45Z</time>
      </trkpt>
      <trkpt lat="45.94507" lon="6.83854">
        <ele>2151</ele>
        <time>2019-08-15T17:11:52Z</time>
      </trkpt>
      <trkpt lat="45.94505" lon="6.83855">
        <ele>2152</ele>
        <time>2019-08-15T17:11:55Z</time>
      </trkpt>
      <trkpt lat="45.94501" lon="6.83854">
        <ele>2152</ele>
        <time>2019-08-15T17:12:00Z</time>
      </trkpt>
      <trkpt lat="45.94497" lon="6.83849">
        <ele>2152</ele>
        <time>2019-08-15T17:12:07Z</time>
      </trkpt>
      <trkpt lat="45.94485" lon="6.83846">
        <ele>2155</ele>
        <time>2019-08-15T17:12:23Z</time>
      </trkpt>
      <trkpt lat="45.94476" lon="6.83839">
        <ele>2155</ele>
        <time>2019-08-15T17:12:37Z</time>
      </trkpt>
      <trkpt lat="45.94468" lon="6.83837">
        <ele>2157</ele>
        <time>2019-08-15T17:12:48Z</time>
      </trkpt>
      <trkpt lat="45.94463" lon="6.83838">
        <ele>2159</ele>
        <time>2019-08-15T17:12:55Z</time>
      </trkpt>
      <trkpt lat="45.94462" lon="6.83838">
        <ele>2159</ele>
        <time>2019-08-15T17:12:56Z</time>
      </trkpt>
      <trkpt lat="45.94462" lon="6.83839">
        <ele>2160</ele>
        <time>2019-08-15T17:12:57Z</time>
      </trkpt>
      <trkpt lat="45.94464" lon="6.8384">
        <ele>2159</ele>
        <time>2019-08-15T17:13:00Z</time>
      </trkpt>
      <trkpt lat="45.94466" lon="6.83843">
        <ele>2160</ele>
        <time>2019-08-15T17:13:03Z</time>
      </trkpt>
      <trkpt lat="45.94468" lon="6.83848">
        <ele>2161</ele>
        <time>2019-08-15T17:13:09Z</time>
      </trkpt>
      <trkpt lat="45.94467" lon="6.8385">
        <ele>2161</ele>
        <time>2019-08-15T17:13:11Z</time>
      </trkpt>
      <trkpt lat="45.94465" lon="6.83851">
        <ele>2162</ele>
        <time>2019-08-15T17:13:14Z</time>
      </trkpt>
      <trkpt lat="45.94457" lon="6.83851">
        <ele>2165</ele>
        <time>2019-08-15T17:13:25Z</time>
      </trkpt>
      <trkpt lat="45.94455" lon="6.83851">
        <ele>2166</ele>
        <time>2019-08-15T17:13:27Z</time>
      </trkpt>
      <trkpt lat="45.94454" lon="6.83852">
        <ele>2166</ele>
        <time>2019-08-15T17:13:29Z</time>
      </trkpt>
      <trkpt lat="45.94454" lon="6.83853">
        <ele>2167</ele>
        <time>2019-08-15T17:13:30Z</time>
      </trkpt>
      <trkpt lat="45.94456" lon="6.83855">
        <ele>2167</ele>
        <time>2019-08-15T17:13:33Z</time>
      </trkpt>
      <trkpt lat="45.94459" lon="6.83858">
        <ele>2166</ele>
        <time>2019-08-15T17:13:38Z</time>
      </trkpt>
      <trkpt lat="45.94464" lon="6.83872">
        <ele>2169</ele>
        <time>2019-08-15T17:13:53Z</time>
      </trkpt>
      <trkpt lat="45.94464" lon="6.83873">
        <ele>2170</ele>
        <time>2019-08-15T17:13:54Z</time>
      </trkpt>
      <trkpt lat="45.94463" lon="6.83873">
        <ele>2170</ele>
        <time>2019-08-15T17:13:55Z</time>
      </trkpt>
      <trkpt lat="45.94461" lon="6.8387">
        <ele>2170</ele>
        <time>2019-08-15T17:13:59Z</time>
      </trkpt>
      <trkpt lat="45.94456" lon="6.83866">
        <ele>2170</ele>
        <time>2019-08-15T17:14:06Z</time>
      </trkpt>
      <trkpt lat="45.94454" lon="6.83865">
        <ele>2170</ele>
        <time>2019-08-15T17:14:09Z</time>
      </trkpt>
      <trkpt lat="45.94453" lon="6.83866">
        <ele>2171</ele>
        <time>2019-08-15T17:14:11Z</time>
      </trkpt>
      <trkpt lat="45.94452" lon="6.83866">
        <ele>2171</ele>
        <time>2019-08-15T17:14:12Z</time>
      </trkpt>
      <trkpt lat="45.94451" lon="6.83867">
        <ele>2172</ele>
        <time>2019-08-15T17:14:14Z</time>
      </trkpt>
      <trkpt lat="45.94452" lon="6.83872">
        <ele>2173</ele>
        <time>2019-08-15T17:14:19Z</time>
      </trkpt>
      <trkpt lat="45.94453" lon="6.83876">
        <ele>2174</ele>
        <time>2019-08-15T17:14:23Z</time>
      </trkpt>
      <trkpt lat="45.94453" lon="6.83882">
        <ele>2176</ele>
        <time>2019-08-15T17:14:28Z</time>
      </trkpt>
      <trkpt lat="45.94452" lon="6.83884">
        <ele>2177</ele>
        <time>2019-08-15T17:14:30Z</time>
      </trkpt>
      <trkpt lat="45.9445" lon="6.83886">
        <ele>2178</ele>
        <time>2019-08-15T17:14:34Z</time>
      </trkpt>
      <trkpt lat="45.94449" lon="6.83887">
        <ele>2179</ele>
        <time>2019-08-15T17:14:35Z</time>
      </trkpt>
      <trkpt lat="45.94438" lon="6.83888">
        <ele>2183</ele>
        <time>2019-08-15T17:14:50Z</time>
      </trkpt>
      <trkpt lat="45.94437" lon="6.83889">
        <ele>2183</ele>
        <time>2019-08-15T17:14:52Z</time>
      </trkpt>
      <trkpt lat="45.94437" lon="6.8389">
        <ele>2184</ele>
        <time>2019-08-15T17:14:52Z</time>
      </trkpt>
      <trkpt lat="45.94437" lon="6.83892">
        <ele>2184</ele>
        <time>2019-08-15T17:14:54Z</time>
      </trkpt>
      <trkpt lat="45.94439" lon="6.83897">
        <ele>2185</ele>
        <time>2019-08-15T17:15:00Z</time>
      </trkpt>
      <trkpt lat="45.94441" lon="6.83901">
        <ele>2186</ele>
        <time>2019-08-15T17:15:04Z</time>
      </trkpt>
      <trkpt lat="45.94441" lon="6.83904">
        <ele>2187</ele>
        <time>2019-08-15T17:15:07Z</time>
      </trkpt>
      <trkpt lat="45.94441" lon="6.83905">
        <ele>2187</ele>
        <time>2019-08-15T17:15:08Z</time>
      </trkpt>
      <trkpt lat="45.9444" lon="6.83906">
        <ele>2188</ele>
        <time>2019-08-15T17:15:10Z</time>
      </trkpt>
      <trkpt lat="45.94437" lon="6.83907">
        <ele>2189</ele>
        <time>2019-08-15T17:15:14Z</time>
      </trkpt>
      <trkpt lat="45.94432" lon="6.83906">
        <ele>2190</ele>
        <time>2019-08-15T17:15:20Z</time>
      </trkpt>
      <trkpt lat="45.94424" lon="6.83905">
        <ele>2193</ele>
        <time>2019-08-15T17:15:31Z</time>
      </trkpt>
      <trkpt lat="45.94422" lon="6.83906">
        <ele>2194</ele>
        <time>2019-08-15T17:15:34Z</time>
      </trkpt>
      <trkpt lat="45.94421" lon="6.83906">
        <ele>2194</ele>
        <time>2019-08-15T17:15:35Z</time>
      </trkpt>
      <trkpt lat="45.94421" lon="6.83907">
        <ele>2194</ele>
        <time>2019-08-15T17:15:36Z</time>
      </trkpt>
      <trkpt lat="45.94421" lon="6.83909">
        <ele>2195</ele>
        <time>2019-08-15T17:15:38Z</time>
      </trkpt>
      <trkpt lat="45.94425" lon="6.8392">
        <ele>2197</ele>
        <time>2019-08-15T17:15:50Z</time>
      </trkpt>
      <trkpt lat="45.94427" lon="6.83924">
        <ele>2198</ele>
        <time>2019-08-15T17:15:54Z</time>
      </trkpt>
      <trkpt lat="45.94428" lon="6.83934">
        <ele>2200</ele>
        <time>2019-08-15T17:16:04Z</time>
      </trkpt>
      <trkpt lat="45.9443" lon="6.83945">
        <ele>2203</ele>
        <time>2019-08-15T17:16:14Z</time>
      </trkpt>
      <trkpt lat="45.94433" lon="6.83951">
        <ele>2204</ele>
        <time>2019-08-15T17:16:21Z</time>
      </trkpt>
      <trkpt lat="45.94433" lon="6.83954">
        <ele>2205</ele>
        <time>2019-08-15T17:16:24Z</time>
      </trkpt>
      <trkpt lat="45.94433" lon="6.83956">
        <ele>2205</ele>
        <time>2019-08-15T17:16:26Z</time>
      </trkpt>
      <trkpt lat="45.94432" lon="6.83957">
        <ele>2206</ele>
        <time>2019-08-15T17:16:27Z</time>
      </trkpt>
      <trkpt lat="45.9443" lon="6.83957">
        <ele>2207</ele>
        <time>2019-08-15T17:16:30Z</time>
      </trkpt>
      <trkpt lat="45.94429" lon="6.83957">
        <ele>2207</ele>
        <time>2019-08-15T17:16:31Z</time>
      </trkpt>
      <trkpt lat="45.94427" lon="6.83954">
        <ele>2207</ele>
        <time>2019-08-15T17:16:35Z</time>
      </trkpt>
      <trkpt lat="45.94423" lon="6.83951">
        <ele>2207</ele>
        <time>2019-08-15T17:16:41Z</time>
      </trkpt>
      <trkpt lat="45.94416" lon="6.83948">
        <ele>2209</ele>
        <time>2019-08-15T17:16:51Z</time>
      </trkpt>
      <trkpt lat="45.94411" lon="6.83947">
        <ele>2211</ele>
        <time>2019-08-15T17:16:58Z</time>
      </trkpt>
      <trkpt lat="45.94401" lon="6.83949">
        <ele>2217</ele>
        <time>2019-08-15T17:17:11Z</time>
      </trkpt>
      <trkpt lat="45.94399" lon="6.8395">
        <ele>2218</ele>
        <time>2019-08-15T17:17:14Z</time>
      </trkpt>
      <trkpt lat="45.94387" lon="6.83948">
        <ele>2224</ele>
        <time>2019-08-15T17:17:30Z</time>
      </trkpt>
      <trkpt lat="45.94386" lon="6.83947">
        <ele>2224</ele>
        <time>2019-08-15T17:17:32Z</time>
      </trkpt>
      <trkpt lat="45.94385" lon="6.83949">
        <ele>2225</ele>
        <time>2019-08-15T17:17:34Z</time>
      </trkpt>
      <trkpt lat="45.94385" lon="6.8395">
        <ele>2225</ele>
        <time>2019-08-15T17:17:35Z</time>
      </trkpt>
      <trkpt lat="45.94387" lon="6.83953">
        <ele>2226</ele>
        <time>2019-08-15T17:17:39Z</time>
      </trkpt>
      <trkpt lat="45.9439" lon="6.83954">
        <ele>2224</ele>
        <time>2019-08-15T17:17:43Z</time>
      </trkpt>
      <trkpt lat="45.94392" lon="6.83956">
        <ele>2224</ele>
        <time>2019-08-15T17:17:46Z</time>
      </trkpt>
      <trkpt lat="45.94392" lon="6.83959">
        <ele>2225</ele>
        <time>2019-08-15T17:17:49Z</time>
      </trkpt>
      <trkpt lat="45.9439" lon="6.83963">
        <ele>2228</ele>
        <time>2019-08-15T17:17:53Z</time>
      </trkpt>
      <trkpt lat="45.94384" lon="6.83969">
        <ele>2233</ele>
        <time>2019-08-15T17:18:03Z</time>
      </trkpt>
      <trkpt lat="45.94378" lon="6.83972">
        <ele>2237</ele>
        <time>2019-08-15T17:18:12Z</time>
      </trkpt>
      <trkpt lat="45.94368" lon="6.83973">
        <ele>2243</ele>
        <time>2019-08-15T17:18:25Z</time>
      </trkpt>
      <trkpt lat="45.94346" lon="6.83971">
        <ele>2255</ele>
        <time>2019-08-15T17:18:54Z</time>
      </trkpt>
      <trkpt lat="45.94343" lon="6.83973">
        <ele>2257</ele>
        <time>2019-08-15T17:18:59Z</time>
      </trkpt>
      <trkpt lat="45.94342" lon="6.83976">
        <ele>2259</ele>
        <time>2019-08-15T17:19:02Z</time>
      </trkpt>
      <trkpt lat="45.94343" lon="6.83979">
        <ele>2260</ele>
        <time>2019-08-15T17:19:05Z</time>
      </trkpt>
      <trkpt lat="45.94361" lon="6.83994">
        <ele>2256</ele>
        <time>2019-08-15T17:19:33Z</time>
      </trkpt>
      <trkpt lat="45.94362" lon="6.83997">
        <ele>2257</ele>
        <time>2019-08-15T17:19:36Z</time>
      </trkpt>
      <trkpt lat="45.94362" lon="6.83999">
        <ele>2257</ele>
        <time>2019-08-15T17:19:38Z</time>
      </trkpt>
      <trkpt lat="45.94359" lon="6.84003">
        <ele>2261</ele>
        <time>2019-08-15T17:19:43Z</time>
      </trkpt>
      <trkpt lat="45.94355" lon="6.84005">
        <ele>2264</ele>
        <time>2019-08-15T17:19:49Z</time>
      </trkpt>
      <trkpt lat="45.94351" lon="6.84009">
        <ele>2268</ele>
        <time>2019-08-15T17:19:55Z</time>
      </trkpt>
      <trkpt lat="45.94344" lon="6.84011">
        <ele>2273</ele>
        <time>2019-08-15T17:20:05Z</time>
      </trkpt>
      <trkpt lat="45.94339" lon="6.8401">
        <ele>2276</ele>
        <time>2019-08-15T17:20:12Z</time>
      </trkpt>
      <trkpt lat="45.94331" lon="6.84009">
        <ele>2279</ele>
        <time>2019-08-15T17:20:22Z</time>
      </trkpt>
      <trkpt lat="45.9433" lon="6.84011">
        <ele>2281</ele>
        <time>2019-08-15T17:20:25Z</time>
      </trkpt>
      <trkpt lat="45.94331" lon="6.84013">
        <ele>2281</ele>
        <time>2019-08-15T17:20:27Z</time>
      </trkpt>
      <trkpt lat="45.9434" lon="6.8402">
        <ele>2279</ele>
        <time>2019-08-15T17:20:41Z</time>
      </trkpt>
      <trkpt lat="45.94345" lon="6.84025">
        <ele>2279</ele>
        <time>2019-08-15T17:20:49Z</time>
      </trkpt>
      <trkpt lat="45.94345" lon="6.84026">
        <ele>2279</ele>
        <time>2019-08-15T17:20:50Z</time>
      </trkpt>
      <trkpt lat="45.94345" lon="6.84026">
        <ele>2279</ele>
        <time>2019-08-15T17:20:50Z</time>
      </trkpt>
      <trkpt lat="45.94344" lon="6.84027">
        <ele>2280</ele>
        <time>2019-08-15T17:20:51Z</time>
      </trkpt>
      <trkpt lat="45.94335" lon="6.84028">
        <ele>2285</ele>
        <time>2019-08-15T17:21:03Z</time>
      </trkpt>
      <trkpt lat="45.94322" lon="6.84033">
        <ele>2292</ele>
        <time>2019-08-15T17:21:21Z</time>
      </trkpt>
      <trkpt lat="45.94302" lon="6.84026">
        <ele>2297</ele>
        <time>2019-08-15T17:21:49Z</time>
      </trkpt>
      <trkpt lat="45.94301" lon="6.84028">
        <ele>2298</ele>
        <time>2019-08-15T17:21:51Z</time>
      </trkpt>
      <trkpt lat="45.94301" lon="6.8403">
        <ele>2299</ele>
        <time>2019-08-15T17:21:53Z</time>
      </trkpt>
      <trkpt lat="45.94314" lon="6.84048">
        <ele>2300</ele>
        <time>2019-08-15T17:22:17Z</time>
      </trkpt>
      <trkpt lat="45.94331" lon="6.84058">
        <ele>2298</ele>
        <time>2019-08-15T17:22:41Z</time>
      </trkpt>
      <trkpt lat="45.9435" lon="6.8406">
        <ele>2292</ele>
        <time>2019-08-15T17:23:07Z</time>
      </trkpt>
      <trkpt lat="45.94352" lon="6.84062">
        <ele>2292</ele>
        <time>2019-08-15T17:23:10Z</time>
      </trkpt>
      <trkpt lat="45.94352" lon="6.84066">
        <ele>2294</ele>
        <time>2019-08-15T17:23:14Z</time>
      </trkpt>
      <trkpt lat="45.94344" lon="6.84082">
        <ele>2304</ele>
        <time>2019-08-15T17:23:32Z</time>
      </trkpt>
      <trkpt lat="45.94329" lon="6.84097">
        <ele>2315</ele>
        <time>2019-08-15T17:23:57Z</time>
      </trkpt>
      <trkpt lat="45.94289" lon="6.84118">
        <ele>2332</ele>
        <time>2019-08-15T17:24:53Z</time>
      </trkpt>
      <trkpt lat="45.94266" lon="6.84131">
        <ele>2340</ele>
        <time>2019-08-15T17:25:26Z</time>
      </trkpt>
      <trkpt lat="45.94244" lon="6.84144">
        <ele>2347</ele>
        <time>2019-08-15T17:25:58Z</time>
      </trkpt>
      <trkpt lat="45.94225" lon="6.84163">
        <ele>2352</ele>
        <time>2019-08-15T17:26:29Z</time>
      </trkpt>
      <trkpt lat="45.94217" lon="6.84174">
        <ele>2354</ele>
        <time>2019-08-15T17:26:44Z</time>
      </trkpt>
      <trkpt lat="45.94202" lon="6.8419">
        <ele>2357</ele>
        <time>2019-08-15T17:27:09Z</time>
      </trkpt>
      <trkpt lat="45.94182" lon="6.84184">
        <ele>2356</ele>
        <time>2019-08-15T17:27:36Z</time>
      </trkpt>
      <trkpt lat="45.94174" lon="6.84191">
        <ele>2357</ele>
        <time>2019-08-15T17:27:48Z</time>
      </trkpt>
      <trkpt lat="45.94172" lon="6.84228">
        <ele>2360</ele>
        <time>2019-08-15T17:28:23Z</time>
      </trkpt>
      <trkpt lat="45.94175" lon="6.84251">
        <ele>2363</ele>
        <time>2019-08-15T17:28:45Z</time>
      </trkpt>
      <trkpt lat="45.94171" lon="6.84279">
        <ele>2363</ele>
        <time>2019-08-15T17:29:11Z</time>
      </trkpt>
      <trkpt lat="45.94175" lon="6.84309">
        <ele>2364</ele>
        <time>2019-08-15T17:29:39Z</time>
      </trkpt>
      <trkpt lat="45.94156" lon="6.84344">
        <ele>2363</ele>
        <time>2019-08-15T17:30:21Z</time>
      </trkpt>
      <trkpt lat="45.94136" lon="6.84354">
        <ele>2359</ele>
        <time>2019-08-15T17:30:49Z</time>
      </trkpt>
      <trkpt lat="45.94137" lon="6.84352">
        <ele>2360</ele>
        <time>2019-08-15T17:30:51Z</time>
      </trkpt>
      <trkpt lat="45.94138" lon="6.84349">
        <ele>2360</ele>
        <time>2019-08-15T17:30:54Z</time>
      </trkpt>
      <trkpt lat="45.94138" lon="6.84343">
        <ele>2360</ele>
        <time>2019-08-15T17:31:00Z</time>
      </trkpt>
      <trkpt lat="45.94137" lon="6.8434">
        <ele>2360</ele>
        <time>2019-08-15T17:31:03Z</time>
      </trkpt>
      <trkpt lat="45.94128" lon="6.84337">
        <ele>2359</ele>
        <time>2019-08-15T17:31:15Z</time>
      </trkpt>
      <trkpt lat="45.94128" lon="6.84336">
        <ele>2359</ele>
        <time>2019-08-15T17:31:16Z</time>
      </trkpt>
      <trkpt lat="45.94128" lon="6.84335">
        <ele>2359</ele>
        <time>2019-08-15T17:31:17Z</time>
      </trkpt>
      <trkpt lat="45.94131" lon="6.84332">
        <ele>2360</ele>
        <time>2019-08-15T17:31:22Z</time>
      </trkpt>
      <trkpt lat="45.94136" lon="6.84328">
        <ele>2361</ele>
        <time>2019-08-15T17:31:30Z</time>
      </trkpt>
      <trkpt lat="45.94136" lon="6.84321">
        <ele>2362</ele>
        <time>2019-08-15T17:31:36Z</time>
      </trkpt>
      <trkpt lat="45.94134" lon="6.84317">
        <ele>2362</ele>
        <time>2019-08-15T17:31:41Z</time>
      </trkpt>
      <trkpt lat="45.94135" lon="6.84311">
        <ele>2363</ele>
        <time>2019-08-15T17:31:46Z</time>
      </trkpt>
      <trkpt lat="45.94136" lon="6.84308">
        <ele>2363</ele>
        <time>2019-08-15T17:31:49Z</time>
      </trkpt>
      <trkpt lat="45.94136" lon="6.84304">
        <ele>2364</ele>
        <time>2019-08-15T17:31:53Z</time>
      </trkpt>
      <trkpt lat="45.94136" lon="6.84303">
        <ele>2364</ele>
        <time>2019-08-15T17:31:54Z</time>
      </trkpt>
      <trkpt lat="45.94132" lon="6.84305">
        <ele>2364</ele>
        <time>2019-08-15T17:32:00Z</time>
      </trkpt>
      <trkpt lat="45.94129" lon="6.84303">
        <ele>2364</ele>
        <time>2019-08-15T17:32:04Z</time>
      </trkpt>
      <trkpt lat="45.94128" lon="6.8428">
        <ele>2368</ele>
        <time>2019-08-15T17:32:26Z</time>
      </trkpt>
      <trkpt lat="45.94125" lon="6.84265">
        <ele>2371</ele>
        <time>2019-08-15T17:32:40Z</time>
      </trkpt>
      <trkpt lat="45.94122" lon="6.84242">
        <ele>2374</ele>
        <time>2019-08-15T17:33:02Z</time>
      </trkpt>
      <trkpt lat="45.94115" lon="6.84231">
        <ele>2376</ele>
        <time>2019-08-15T17:33:16Z</time>
      </trkpt>
      <trkpt lat="45.94115" lon="6.84224">
        <ele>2375</ele>
        <time>2019-08-15T17:33:22Z</time>
      </trkpt>
      <trkpt lat="45.94111" lon="6.84218">
        <ele>2376</ele>
        <time>2019-08-15T17:33:30Z</time>
      </trkpt>
      <trkpt lat="45.94103" lon="6.84193">
        <ele>2378</ele>
        <time>2019-08-15T17:33:55Z</time>
      </trkpt>
      <trkpt lat="45.94098" lon="6.84191">
        <ele>2380</ele>
        <time>2019-08-15T17:34:02Z</time>
      </trkpt>
      <trkpt lat="45.94096" lon="6.84185">
        <ele>2381</ele>
        <time>2019-08-15T17:34:08Z</time>
      </trkpt>
      <trkpt lat="45.94097" lon="6.8418">
        <ele>2380</ele>
        <time>2019-08-15T17:34:13Z</time>
      </trkpt>
      <trkpt lat="45.94094" lon="6.84168">
        <ele>2381</ele>
        <time>2019-08-15T17:34:25Z</time>
      </trkpt>
      <trkpt lat="45.94092" lon="6.84154">
        <ele>2381</ele>
        <time>2019-08-15T17:34:38Z</time>
      </trkpt>
      <trkpt lat="45.94088" lon="6.8414">
        <ele>2381</ele>
        <time>2019-08-15T17:34:52Z</time>
      </trkpt>
      <trkpt lat="45.94087" lon="6.84136">
        <ele>2381</ele>
        <time>2019-08-15T17:34:56Z</time>
      </trkpt>
      <trkpt lat="45.94084" lon="6.84133">
        <ele>2382</ele>
        <time>2019-08-15T17:35:01Z</time>
      </trkpt>
      <trkpt lat="45.94082" lon="6.84129">
        <ele>2382</ele>
        <time>2019-08-15T17:35:06Z</time>
      </trkpt>
      <trkpt lat="45.94081" lon="6.84118">
        <ele>2381</ele>
        <time>2019-08-15T17:35:16Z</time>
      </trkpt>
      <trkpt lat="45.9408" lon="6.84109">
        <ele>2380</ele>
        <time>2019-08-15T17:35:25Z</time>
      </trkpt>
      <trkpt lat="45.94077" lon="6.84103">
        <ele>2380</ele>
        <time>2019-08-15T17:35:31Z</time>
      </trkpt>
      <trkpt lat="45.94071" lon="6.84096">
        <ele>2380</ele>
        <time>2019-08-15T17:35:42Z</time>
      </trkpt>
      <trkpt lat="45.94072" lon="6.84084">
        <ele>2379</ele>
        <time>2019-08-15T17:35:53Z</time>
      </trkpt>
      <trkpt lat="45.94065" lon="6.8406">
        <ele>2380</ele>
        <time>2019-08-15T17:36:17Z</time>
      </trkpt>
      <trkpt lat="45.94056" lon="6.84038">
        <ele>2380</ele>
        <time>2019-08-15T17:36:41Z</time>
      </trkpt>
      <trkpt lat="45.94049" lon="6.84038">
        <ele>2380</ele>
        <time>2019-08-15T17:36:50Z</time>
      </trkpt>
      <trkpt lat="45.94043" lon="6.84032">
        <ele>2380</ele>
        <time>2019-08-15T17:37:00Z</time>
      </trkpt>
      <trkpt lat="45.94037" lon="6.84022">
        <ele>2379</ele>
        <time>2019-08-15T17:37:12Z</time>
      </trkpt>
      <trkpt lat="45.94024" lon="6.83987">
        <ele>2376</ele>
        <time>2019-08-15T17:37:49Z</time>
      </trkpt>
      <trkpt lat="45.94017" lon="6.83966">
        <ele>2373</ele>
        <time>2019-08-15T17:38:11Z</time>
      </trkpt>
      <trkpt lat="45.94008" lon="6.83951">
        <ele>2371</ele>
        <time>2019-08-15T17:38:29Z</time>
      </trkpt>
      <trkpt lat="45.93998" lon="6.83931">
        <ele>2368</ele>
        <time>2019-08-15T17:38:52Z</time>
      </trkpt>
      <trkpt lat="45.93995" lon="6.83912">
        <ele>2366</ele>
        <time>2019-08-15T17:39:10Z</time>
      </trkpt>
      <trkpt lat="45.93999" lon="6.83887">
        <ele>2360</ele>
        <time>2019-08-15T17:39:34Z</time>
      </trkpt>
      <trkpt lat="45.93997" lon="6.83875">
        <ele>2358</ele>
        <time>2019-08-15T17:39:45Z</time>
      </trkpt>
      <trkpt lat="45.93992" lon="6.83865">
        <ele>2357</ele>
        <time>2019-08-15T17:39:57Z</time>
      </trkpt>
      <trkpt lat="45.93976" lon="6.83849">
        <ele>2357</ele>
        <time>2019-08-15T17:40:23Z</time>
      </trkpt>
      <trkpt lat="45.93963" lon="6.83835">
        <ele>2358</ele>
        <time>2019-08-15T17:40:44Z</time>
      </trkpt>
      <trkpt lat="45.9395" lon="6.8383">
        <ele>2360</ele>
        <time>2019-08-15T17:41:02Z</time>
      </trkpt>
      <trkpt lat="45.9394" lon="6.8383">
        <ele>2362</ele>
        <time>2019-08-15T17:41:16Z</time>
      </trkpt>
      <trkpt lat="45.93936" lon="6.83819">
        <ele>2361</ele>
        <time>2019-08-15T17:41:27Z</time>
      </trkpt>
      <trkpt lat="45.93933" lon="6.83816">
        <ele>2361</ele>
        <time>2019-08-15T17:41:32Z</time>
      </trkpt>
      <trkpt lat="45.93929" lon="6.83817">
        <ele>2362</ele>
        <time>2019-08-15T17:41:37Z</time>
      </trkpt>
      <trkpt lat="45.93926" lon="6.83813">
        <ele>2362</ele>
        <time>2019-08-15T17:41:43Z</time>
      </trkpt>
      <trkpt lat="45.93922" lon="6.83805">
        <ele>2362</ele>
        <time>2019-08-15T17:41:52Z</time>
      </trkpt>
      <trkpt lat="45.93903" lon="6.83785">
        <ele>2365</ele>
        <time>2019-08-15T17:42:23Z</time>
      </trkpt>
      <trkpt lat="45.93893" lon="6.83772">
        <ele>2366</ele>
        <time>2019-08-15T17:42:41Z</time>
      </trkpt>
      <trkpt lat="45.93877" lon="6.83757">
        <ele>2368</ele>
        <time>2019-08-15T17:43:07Z</time>
      </trkpt>
      <trkpt lat="45.93864" lon="6.83755">
        <ele>2372</ele>
        <time>2019-08-15T17:43:24Z</time>
      </trkpt>
      <trkpt lat="45.93859" lon="6.83748">
        <ele>2371</ele>
        <time>2019-08-15T17:43:34Z</time>
      </trkpt>
      <trkpt lat="45.93836" lon="6.83747">
        <ele>2379</ele>
        <time>2019-08-15T17:44:04Z</time>
      </trkpt>
      <trkpt lat="45.93816" lon="6.83737">
        <ele>2379</ele>
        <time>2019-08-15T17:44:33Z</time>
      </trkpt>
      <trkpt lat="45.93809" lon="6.83729">
        <ele>2377</ele>
        <time>2019-08-15T17:44:45Z</time>
      </trkpt>
      <trkpt lat="45.93794" lon="6.83733">
        <ele>2383</ele>
        <time>2019-08-15T17:45:05Z</time>
      </trkpt>
      <trkpt lat="45.93779" lon="6.8373">
        <ele>2385</ele>
        <time>2019-08-15T17:45:25Z</time>
      </trkpt>
      <trkpt lat="45.93762" lon="6.83735">
        <ele>2392</ele>
        <time>2019-08-15T17:45:48Z</time>
      </trkpt>
      <trkpt lat="45.93741" lon="6.83722">
        <ele>2391</ele>
        <time>2019-08-15T17:46:19Z</time>
      </trkpt>
      <trkpt lat="45.93743" lon="6.83715">
        <ele>2386</ele>
        <time>2019-08-15T17:46:26Z</time>
      </trkpt>
      <trkpt lat="45.93729" lon="6.8371">
        <ele>2388</ele>
        <time>2019-08-15T17:46:45Z</time>
      </trkpt>
      <trkpt lat="45.93724" lon="6.83709">
        <ele>2390</ele>
        <time>2019-08-15T17:46:52Z</time>
      </trkpt>
      <trkpt lat="45.93719" lon="6.83719">
        <ele>2396</ele>
        <time>2019-08-15T17:47:03Z</time>
      </trkpt>
      <trkpt lat="45.93687" lon="6.83719">
        <ele>2407</ele>
        <time>2019-08-15T17:47:46Z</time>
      </trkpt>
      <trkpt lat="45.9369" lon="6.83729">
        <ele>2411</ele>
        <time>2019-08-15T17:47:56Z</time>
      </trkpt>
      <trkpt lat="45.93679" lon="6.83744">
        <ele>2421</ele>
        <time>2019-08-15T17:48:16Z</time>
      </trkpt>
      <trkpt lat="45.93665" lon="6.83752">
        <ele>2427</ele>
        <time>2019-08-15T17:48:36Z</time>
      </trkpt>
      <trkpt lat="45.93671" lon="6.83759">
        <ele>2426</ele>
        <time>2019-08-15T17:48:47Z</time>
      </trkpt>
      <trkpt lat="45.93668" lon="6.83771">
        <ele>2427</ele>
        <time>2019-08-15T17:48:59Z</time>
      </trkpt>
      <trkpt lat="45.93663" lon="6.8378">
        <ele>2428</ele>
        <time>2019-08-15T17:49:09Z</time>
      </trkpt>
      <trkpt lat="45.93657" lon="6.83783">
        <ele>2428</ele>
        <time>2019-08-15T17:49:18Z</time>
      </trkpt>
      <trkpt lat="45.93655" lon="6.83784">
        <ele>2429</ele>
        <time>2019-08-15T17:49:21Z</time>
      </trkpt>
      <trkpt lat="45.93633" lon="6.83765">
        <ele>2433</ele>
        <time>2019-08-15T17:49:55Z</time>
      </trkpt>
      <trkpt lat="45.93609" lon="6.83731">
        <ele>2434</ele>
        <time>2019-08-15T17:50:40Z</time>
      </trkpt>
      <trkpt lat="45.93592" lon="6.83725">
        <ele>2437</ele>
        <time>2019-08-15T17:51:03Z</time>
      </trkpt>
      <trkpt lat="45.93571" lon="6.8373">
        <ele>2443</ele>
        <time>2019-08-15T17:51:31Z</time>
      </trkpt>
      <trkpt lat="45.93557" lon="6.83746">
        <ele>2450</ele>
        <time>2019-08-15T17:51:55Z</time>
      </trkpt>
      <trkpt lat="45.9353" lon="6.8376">
        <ele>2455</ele>
        <time>2019-08-15T17:52:34Z</time>
      </trkpt>
      <trkpt lat="45.93521" lon="6.83759">
        <ele>2458</ele>
        <time>2019-08-15T17:52:46Z</time>
      </trkpt>
      <trkpt lat="45.93512" lon="6.83753">
        <ele>2461</ele>
        <time>2019-08-15T17:52:59Z</time>
      </trkpt>
      <trkpt lat="45.93494" lon="6.83739">
        <ele>2464</ele>
        <time>2019-08-15T17:53:26Z</time>
      </trkpt>
      <trkpt lat="45.9347" lon="6.83724">
        <ele>2469</ele>
        <time>2019-08-15T17:54:01Z</time>
      </trkpt>
      <trkpt lat="45.93451" lon="6.83704">
        <ele>2471</ele>
        <time>2019-08-15T17:54:33Z</time>
      </trkpt>
      <trkpt lat="45.93435" lon="6.83694">
        <ele>2474</ele>
        <time>2019-08-15T17:54:56Z</time>
      </trkpt>
      <trkpt lat="45.93422" lon="6.83693">
        <ele>2478</ele>
        <time>2019-08-15T17:55:13Z</time>
      </trkpt>
      <trkpt lat="45.9341" lon="6.83695">
        <ele>2480</ele>
        <time>2019-08-15T17:55:29Z</time>
      </trkpt>
      <trkpt lat="45.93388" lon="6.83692">
        <ele>2479</ele>
        <time>2019-08-15T17:55:59Z</time>
      </trkpt>
      <trkpt lat="45.93384" lon="6.83681">
        <ele>2477</ele>
        <time>2019-08-15T17:56:10Z</time>
      </trkpt>
      <trkpt lat="45.93357" lon="6.83666">
        <ele>2473</ele>
        <time>2019-08-15T17:56:49Z</time>
      </trkpt>
      <trkpt lat="45.93329" lon="6.83662">
        <ele>2469</ele>
        <time>2019-08-15T17:57:27Z</time>
      </trkpt>
      <trkpt lat="45.93318" lon="6.83669">
        <ele>2466</ele>
        <time>2019-08-15T17:57:43Z</time>
      </trkpt>
      <trkpt lat="45.93321" lon="6.83654">
        <ele>2463</ele>
        <time>2019-08-15T17:57:57Z</time>
      </trkpt>
      <trkpt lat="45.93326" lon="6.83642">
        <ele>2461</ele>
        <time>2019-08-15T17:58:10Z</time>
      </trkpt>
      <trkpt lat="45.93304" lon="6.83652">
        <ele>2455</ele>
        <time>2019-08-15T17:58:41Z</time>
      </trkpt>
      <trkpt lat="45.93279" lon="6.83665">
        <ele>2448</ele>
        <time>2019-08-15T17:59:16Z</time>
      </trkpt>
      <trkpt lat="45.93279" lon="6.83646">
        <ele>2442</ele>
        <time>2019-08-15T17:59:34Z</time>
      </trkpt>
      <trkpt lat="45.93252" lon="6.83654">
        <ele>2432</ele>
        <time>2019-08-15T18:00:11Z</time>
      </trkpt>
      <trkpt lat="45.93236" lon="6.83667">
        <ele>2429</ele>
        <time>2019-08-15T18:00:35Z</time>
      </trkpt>
      <trkpt lat="45.93223" lon="6.83681">
        <ele>2419</ele>
        <time>2019-08-15T18:00:57Z</time>
      </trkpt>
      <trkpt lat="45.93213" lon="6.83688">
        <ele>2412</ele>
        <time>2019-08-15T18:01:12Z</time>
      </trkpt>
      <trkpt lat="45.93195" lon="6.83685">
        <ele>2405</ele>
        <time>2019-08-15T18:01:36Z</time>
      </trkpt>
      <trkpt lat="45.93197" lon="6.83674">
        <ele>2410</ele>
        <time>2019-08-15T18:01:47Z</time>
      </trkpt>
      <trkpt lat="45.93188" lon="6.83671">
        <ele>2407</ele>
        <time>2019-08-15T18:01:59Z</time>
      </trkpt>
      <trkpt lat="45.93189" lon="6.83658">
        <ele>2407</ele>
        <time>2019-08-15T18:02:11Z</time>
      </trkpt>
      <trkpt lat="45.93179" lon="6.83657">
        <ele>2403</ele>
        <time>2019-08-15T18:02:24Z</time>
      </trkpt>
      <trkpt lat="45.93189" lon="6.8362">
        <ele>2398</ele>
        <time>2019-08-15T18:03:01Z</time>
      </trkpt>
      <trkpt lat="45.93163" lon="6.83626">
        <ele>2389</ele>
        <time>2019-08-15T18:03:36Z</time>
      </trkpt>
      <trkpt lat="45.93144" lon="6.83649">
        <ele>2386</ele>
        <time>2019-08-15T18:04:10Z</time>
      </trkpt>
      <trkpt lat="45.93146" lon="6.83627">
        <ele>2382</ele>
        <time>2019-08-15T18:04:30Z</time>
      </trkpt>
      <trkpt lat="45.93153" lon="6.83609">
        <ele>2381</ele>
        <time>2019-08-15T18:04:49Z</time>
      </trkpt>
      <trkpt lat="45.93186" lon="6.83563">
        <ele>2382</ele>
        <time>2019-08-15T18:05:51Z</time>
      </trkpt>
      <trkpt lat="45.932" lon="6.83554">
        <ele>2384</ele>
        <time>2019-08-15T18:06:11Z</time>
      </trkpt>
      <trkpt lat="45.93209" lon="6.8354">
        <ele>2383</ele>
        <time>2019-08-15T18:06:29Z</time>
      </trkpt>
      <trkpt lat="45.93205" lon="6.83532">
        <ele>2380</ele>
        <time>2019-08-15T18:06:38Z</time>
      </trkpt>
      <trkpt lat="45.93219" lon="6.83509">
        <ele>2378</ele>
        <time>2019-08-15T18:07:06Z</time>
      </trkpt>
      <trkpt lat="45.93203" lon="6.83505">
        <ele>2370</ele>
        <time>2019-08-15T18:07:28Z</time>
      </trkpt>
      <trkpt lat="45.9319" lon="6.83506">
        <ele>2366</ele>
        <time>2019-08-15T18:07:45Z</time>
      </trkpt>
      <trkpt lat="45.93197" lon="6.83477">
        <ele>2362</ele>
        <time>2019-08-15T18:08:14Z</time>
      </trkpt>
      <trkpt lat="45.93181" lon="6.83478">
        <ele>2356</ele>
        <time>2019-08-15T18:08:35Z</time>
      </trkpt>
      <trkpt lat="45.9316" lon="6.83498">
        <ele>2353</ele>
        <time>2019-08-15T18:09:09Z</time>
      </trkpt>
      <trkpt lat="45.93144" lon="6.83509">
        <ele>2352</ele>
        <time>2019-08-15T18:09:32Z</time>
      </trkpt>
      <trkpt lat="45.93132" lon="6.83512">
        <ele>2349</ele>
        <time>2019-08-15T18:09:49Z</time>
      </trkpt>
      <trkpt lat="45.93119" lon="6.83502">
        <ele>2343</ele>
        <time>2019-08-15T18:10:08Z</time>
      </trkpt>
      <trkpt lat="45.93104" lon="6.83508">
        <ele>2341</ele>
        <time>2019-08-15T18:10:29Z</time>
      </trkpt>
      <trkpt lat="45.93095" lon="6.83506">
        <ele>2338</ele>
        <time>2019-08-15T18:10:41Z</time>
      </trkpt>
      <trkpt lat="45.9308" lon="6.83505">
        <ele>2334</ele>
        <time>2019-08-15T18:11:01Z</time>
      </trkpt>
      <trkpt lat="45.93066" lon="6.83503">
        <ele>2330</ele>
        <time>2019-08-15T18:11:20Z</time>
      </trkpt>
      <trkpt lat="45.93055" lon="6.83498">
        <ele>2327</ele>
        <time>2019-08-15T18:11:36Z</time>
      </trkpt>
      <trkpt lat="45.93048" lon="6.83486">
        <ele>2323</ele>
        <time>2019-08-15T18:11:50Z</time>
      </trkpt>
      <trkpt lat="45.93038" lon="6.83463">
        <ele>2318</ele>
        <time>2019-08-15T18:12:15Z</time>
      </trkpt>
      <trkpt lat="45.93014" lon="6.83463">
        <ele>2313</ele>
        <time>2019-08-15T18:12:47Z</time>
      </trkpt>
      <trkpt lat="45.93" lon="6.83465">
        <ele>2310</ele>
        <time>2019-08-15T18:13:06Z</time>
      </trkpt>
      <trkpt lat="45.92989" lon="6.83455">
        <ele>2308</ele>
        <time>2019-08-15T18:13:23Z</time>
      </trkpt>
      <trkpt lat="45.92981" lon="6.8347">
        <ele>2308</ele>
        <time>2019-08-15T18:13:41Z</time>
      </trkpt>
      <trkpt lat="45.92973" lon="6.83457">
        <ele>2305</ele>
        <time>2019-08-15T18:13:57Z</time>
      </trkpt>
      <trkpt lat="45.92957" lon="6.83478">
        <ele>2306</ele>
        <time>2019-08-15T18:14:26Z</time>
      </trkpt>
      <trkpt lat="45.92948" lon="6.83479">
        <ele>2304</ele>
        <time>2019-08-15T18:14:38Z</time>
      </trkpt>
      <trkpt lat="45.9294" lon="6.8347">
        <ele>2302</ele>
        <time>2019-08-15T18:14:52Z</time>
      </trkpt>
      <trkpt lat="45.92935" lon="6.83458">
        <ele>2299</ele>
        <time>2019-08-15T18:15:05Z</time>
      </trkpt>
      <trkpt lat="45.92924" lon="6.83458">
        <ele>2298</ele>
        <time>2019-08-15T18:15:19Z</time>
      </trkpt>
      <trkpt lat="45.92906" lon="6.8345">
        <ele>2296</ele>
        <time>2019-08-15T18:15:44Z</time>
      </trkpt>
      <trkpt lat="45.92884" lon="6.83428">
        <ele>2294</ele>
        <time>2019-08-15T18:16:20Z</time>
      </trkpt>
      <trkpt lat="45.92869" lon="6.83407">
        <ele>2290</ele>
        <time>2019-08-15T18:16:48Z</time>
      </trkpt>
      <trkpt lat="45.92851" lon="6.83399">
        <ele>2289</ele>
        <time>2019-08-15T18:17:13Z</time>
      </trkpt>
      <trkpt lat="45.92842" lon="6.834">
        <ele>2290</ele>
        <time>2019-08-15T18:17:25Z</time>
      </trkpt>
      <trkpt lat="45.92833" lon="6.83392">
        <ele>2287</ele>
        <time>2019-08-15T18:17:39Z</time>
      </trkpt>
      <trkpt lat="45.92813" lon="6.83382">
        <ele>2285</ele>
        <time>2019-08-15T18:18:08Z</time>
      </trkpt>
      <trkpt lat="45.92794" lon="6.83384">
        <ele>2287</ele>
        <time>2019-08-15T18:18:33Z</time>
      </trkpt>
      <trkpt lat="45.92786" lon="6.8338">
        <ele>2286</ele>
        <time>2019-08-15T18:18:44Z</time>
      </trkpt>
      <trkpt lat="45.92755" lon="6.83374">
        <ele>2286</ele>
        <time>2019-08-15T18:19:26Z</time>
      </trkpt>
      <trkpt lat="45.92748" lon="6.83373">
        <ele>2286</ele>
        <time>2019-08-15T18:19:35Z</time>
      </trkpt>
      <trkpt lat="45.92732" lon="6.83347">
        <ele>2280</ele>
        <time>2019-08-15T18:20:08Z</time>
      </trkpt>
      <trkpt lat="45.92715" lon="6.83335">
        <ele>2279</ele>
        <time>2019-08-15T18:20:33Z</time>
      </trkpt>
      <trkpt lat="45.92703" lon="6.83335">
        <ele>2279</ele>
        <time>2019-08-15T18:20:49Z</time>
      </trkpt>
      <trkpt lat="45.92681" lon="6.83322">
        <ele>2278</ele>
        <time>2019-08-15T18:21:21Z</time>
      </trkpt>
      <trkpt lat="45.92659" lon="6.8332">
        <ele>2276</ele>
        <time>2019-08-15T18:21:50Z</time>
      </trkpt>
      <trkpt lat="45.92654" lon="6.83316">
        <ele>2274</ele>
        <time>2019-08-15T18:21:58Z</time>
      </trkpt>
      <trkpt lat="45.92648" lon="6.83325">
        <ele>2273</ele>
        <time>2019-08-15T18:22:09Z</time>
      </trkpt>
      <trkpt lat="45.92652" lon="6.8335">
        <ele>2273</ele>
        <time>2019-08-15T18:22:33Z</time>
      </trkpt>
      <trkpt lat="45.92657" lon="6.83365">
        <ele>2273</ele>
        <time>2019-08-15T18:22:49Z</time>
      </trkpt>
      <trkpt lat="45.92652" lon="6.83371">
        <ele>2269</ele>
        <time>2019-08-15T18:22:57Z</time>
      </trkpt>
      <trkpt lat="45.92635" lon="6.83357">
        <ele>2264</ele>
        <time>2019-08-15T18:23:23Z</time>
      </trkpt>
      <trkpt lat="45.92608" lon="6.83325">
        <ele>2260</ele>
        <time>2019-08-15T18:24:10Z</time>
      </trkpt>
      <trkpt lat="45.92589" lon="6.83301">
        <ele>2258</ele>
        <time>2019-08-15T18:24:44Z</time>
      </trkpt>
      <trkpt lat="45.92584" lon="6.83296">
        <ele>2257</ele>
        <time>2019-08-15T18:24:52Z</time>
      </trkpt>
      <trkpt lat="45.92569" lon="6.83276">
        <ele>2256</ele>
        <time>2019-08-15T18:25:19Z</time>
      </trkpt>
      <trkpt lat="45.92556" lon="6.83241">
        <ele>2258</ele>
        <time>2019-08-15T18:25:56Z</time>
      </trkpt>
      <trkpt lat="45.92548" lon="6.83212">
        <ele>2256</ele>
        <time>2019-08-15T18:26:25Z</time>
      </trkpt>
      <trkpt lat="45.92531" lon="6.83195">
        <ele>2255</ele>
        <time>2019-08-15T18:26:53Z</time>
      </trkpt>
      <trkpt lat="45.92525" lon="6.83163">
        <ele>2257</ele>
        <time>2019-08-15T18:27:24Z</time>
      </trkpt>
      <trkpt lat="45.92513" lon="6.83143">
        <ele>2255</ele>
        <time>2019-08-15T18:27:48Z</time>
      </trkpt>
      <trkpt lat="45.925" lon="6.83093">
        <ele>2253</ele>
        <time>2019-08-15T18:28:38Z</time>
      </trkpt>
      <trkpt lat="45.92501" lon="6.83079">
        <ele>2252</ele>
        <time>2019-08-15T18:28:51Z</time>
      </trkpt>
      <trkpt lat="45.92498" lon="6.8306">
        <ele>2252</ele>
        <time>2019-08-15T18:29:09Z</time>
      </trkpt>
      <trkpt lat="45.92505" lon="6.83043">
        <ele>2253</ele>
        <time>2019-08-15T18:29:27Z</time>
      </trkpt>
      <trkpt lat="45.92513" lon="6.83016">
        <ele>2253</ele>
        <time>2019-08-15T18:29:54Z</time>
      </trkpt>
      <trkpt lat="45.92511" lon="6.82987">
        <ele>2253</ele>
        <time>2019-08-15T18:30:21Z</time>
      </trkpt>
      <trkpt lat="45.92513" lon="6.8298">
        <ele>2253</ele>
        <time>2019-08-15T18:30:28Z</time>
      </trkpt>
      <trkpt lat="45.92527" lon="6.82976">
        <ele>2251</ele>
        <time>2019-08-15T18:30:47Z</time>
      </trkpt>
      <trkpt lat="45.92511" lon="6.82966">
        <ele>2252</ele>
        <time>2019-08-15T18:31:11Z</time>
      </trkpt>
      <trkpt lat="45.92502" lon="6.82963">
        <ele>2253</ele>
        <time>2019-08-15T18:31:23Z</time>
      </trkpt>
      <trkpt lat="45.92494" lon="6.82947">
        <ele>2250</ele>
        <time>2019-08-15T18:31:41Z</time>
      </trkpt>
      <trkpt lat="45.92483" lon="6.82922">
        <ele>2246</ele>
        <time>2019-08-15T18:32:09Z</time>
      </trkpt>
      <trkpt lat="45.92479" lon="6.8293">
        <ele>2245</ele>
        <time>2019-08-15T18:32:18Z</time>
      </trkpt>
      <trkpt lat="45.92457" lon="6.82919">
        <ele>2240</ele>
        <time>2019-08-15T18:32:49Z</time>
      </trkpt>
      <trkpt lat="45.92438" lon="6.82917">
        <ele>2236</ele>
        <time>2019-08-15T18:33:14Z</time>
      </trkpt>
      <trkpt lat="45.92421" lon="6.82923">
        <ele>2232</ele>
        <time>2019-08-15T18:33:38Z</time>
      </trkpt>
      <trkpt lat="45.92406" lon="6.82926">
        <ele>2227</ele>
        <time>2019-08-15T18:33:58Z</time>
      </trkpt>
      <trkpt lat="45.92393" lon="6.82936">
        <ele>2221</ele>
        <time>2019-08-15T18:34:18Z</time>
      </trkpt>
      <trkpt lat="45.92384" lon="6.82949">
        <ele>2217</ele>
        <time>2019-08-15T18:34:35Z</time>
      </trkpt>
      <trkpt lat="45.9238" lon="6.82934">
        <ele>2216</ele>
        <time>2019-08-15T18:34:50Z</time>
      </trkpt>
      <trkpt lat="45.92385" lon="6.82919">
        <ele>2218</ele>
        <time>2019-08-15T18:35:05Z</time>
      </trkpt>
      <trkpt lat="45.92389" lon="6.82908">
        <ele>2219</ele>
        <time>2019-08-15T18:35:17Z</time>
      </trkpt>
      <trkpt lat="45.92403" lon="6.82901">
        <ele>2224</ele>
        <time>2019-08-15T18:35:36Z</time>
      </trkpt>
      <trkpt lat="45.92434" lon="6.82878">
        <ele>2229</ele>
        <time>2019-08-15T18:36:23Z</time>
      </trkpt>
      <trkpt lat="45.92426" lon="6.82866">
        <ele>2226</ele>
        <time>2019-08-15T18:36:38Z</time>
      </trkpt>
      <trkpt lat="45.9241" lon="6.82856">
        <ele>2220</ele>
        <time>2019-08-15T18:37:02Z</time>
      </trkpt>
      <trkpt lat="45.92383" lon="6.8284">
        <ele>2210</ele>
        <time>2019-08-15T18:37:41Z</time>
      </trkpt>
      <trkpt lat="45.92359" lon="6.82833">
        <ele>2202</ele>
        <time>2019-08-15T18:38:13Z</time>
      </trkpt>
      <trkpt lat="45.92339" lon="6.82823">
        <ele>2194</ele>
        <time>2019-08-15T18:38:42Z</time>
      </trkpt>
      <trkpt lat="45.92353" lon="6.82848">
        <ele>2201</ele>
        <time>2019-08-15T18:39:11Z</time>
      </trkpt>
      <trkpt lat="45.92348" lon="6.82863">
        <ele>2200</ele>
        <time>2019-08-15T18:39:27Z</time>
      </trkpt>
      <trkpt lat="45.92334" lon="6.82884">
        <ele>2197</ele>
        <time>2019-08-15T18:39:54Z</time>
      </trkpt>
      <trkpt lat="45.92332" lon="6.82892">
        <ele>2196</ele>
        <time>2019-08-15T18:40:02Z</time>
      </trkpt>
      <trkpt lat="45.92329" lon="6.82882">
        <ele>2194</ele>
        <time>2019-08-15T18:40:12Z</time>
      </trkpt>
      <trkpt lat="45.92328" lon="6.82865">
        <ele>2193</ele>
        <time>2019-08-15T18:40:28Z</time>
      </trkpt>
      <trkpt lat="45.92318" lon="6.82885">
        <ele>2189</ele>
        <time>2019-08-15T18:40:50Z</time>
      </trkpt>
      <trkpt lat="45.92308" lon="6.82899">
        <ele>2186</ele>
        <time>2019-08-15T18:41:09Z</time>
      </trkpt>
      <trkpt lat="45.92304" lon="6.82913">
        <ele>2185</ele>
        <time>2019-08-15T18:41:23Z</time>
      </trkpt>
      <trkpt lat="45.92298" lon="6.82924">
        <ele>2181</ele>
        <time>2019-08-15T18:41:36Z</time>
      </trkpt>
      <trkpt lat="45.92287" lon="6.82933">
        <ele>2175</ele>
        <time>2019-08-15T18:41:53Z</time>
      </trkpt>
      <trkpt lat="45.9227" lon="6.82931">
        <ele>2168</ele>
        <time>2019-08-15T18:42:16Z</time>
      </trkpt>
      <trkpt lat="45.92257" lon="6.82934">
        <ele>2162</ele>
        <time>2019-08-15T18:42:33Z</time>
      </trkpt>
      <trkpt lat="45.92239" lon="6.82941">
        <ele>2153</ele>
        <time>2019-08-15T18:42:58Z</time>
      </trkpt>
      <trkpt lat="45.92226" lon="6.8294">
        <ele>2147</ele>
        <time>2019-08-15T18:43:16Z</time>
      </trkpt>
      <trkpt lat="45.92212" lon="6.82952">
        <ele>2138</ele>
        <time>2019-08-15T18:43:37Z</time>
      </trkpt>
      <trkpt lat="45.92206" lon="6.82948">
        <ele>2136</ele>
        <time>2019-08-15T18:43:46Z</time>
      </trkpt>
      <trkpt lat="45.92216" lon="6.82908">
        <ele>2144</ele>
        <time>2019-08-15T18:44:26Z</time>
      </trkpt>
      <trkpt lat="45.92219" lon="6.82891">
        <ele>2143</ele>
        <time>2019-08-15T18:44:42Z</time>
      </trkpt>
      <trkpt lat="45.9221" lon="6.82874">
        <ele>2136</ele>
        <time>2019-08-15T18:45:02Z</time>
      </trkpt>
      <trkpt lat="45.9222" lon="6.82864">
        <ele>2140</ele>
        <time>2019-08-15T18:45:18Z</time>
      </trkpt>
      <trkpt lat="45.92232" lon="6.82842">
        <ele>2144</ele>
        <time>2019-08-15T18:45:44Z</time>
      </trkpt>
      <trkpt lat="45.92233" lon="6.82829">
        <ele>2143</ele>
        <time>2019-08-15T18:45:56Z</time>
      </trkpt>
      <trkpt lat="45.9223" lon="6.82819">
        <ele>2140</ele>
        <time>2019-08-15T18:46:06Z</time>
      </trkpt>
      <trkpt lat="45.92223" lon="6.82824">
        <ele>2137</ele>
        <time>2019-08-15T18:46:17Z</time>
      </trkpt>
      <trkpt lat="45.9222" lon="6.82813">
        <ele>2134</ele>
        <time>2019-08-15T18:46:28Z</time>
      </trkpt>
      <trkpt lat="45.92214" lon="6.82816">
        <ele>2131</ele>
        <time>2019-08-15T18:46:36Z</time>
      </trkpt>
      <trkpt lat="45.92211" lon="6.82808">
        <ele>2128</ele>
        <time>2019-08-15T18:46:45Z</time>
      </trkpt>
      <trkpt lat="45.92204" lon="6.82812">
        <ele>2124</ele>
        <time>2019-08-15T18:46:55Z</time>
      </trkpt>
      <trkpt lat="45.92202" lon="6.82802">
        <ele>2122</ele>
        <time>2019-08-15T18:47:04Z</time>
      </trkpt>
      <trkpt lat="45.92193" lon="6.82807">
        <ele>2117</ele>
        <time>2019-08-15T18:47:17Z</time>
      </trkpt>
      <trkpt lat="45.92186" lon="6.82792">
        <ele>2112</ele>
        <time>2019-08-15T18:47:34Z</time>
      </trkpt>
      <trkpt lat="45.92171" lon="6.82786">
        <ele>2102</ele>
        <time>2019-08-15T18:47:55Z</time>
      </trkpt>
      <trkpt lat="45.92164" lon="6.82786">
        <ele>2098</ele>
        <time>2019-08-15T18:48:04Z</time>
      </trkpt>
      <trkpt lat="45.92155" lon="6.82811">
        <ele>2094</ele>
        <time>2019-08-15T18:48:30Z</time>
      </trkpt>
      <trkpt lat="45.92151" lon="6.82803">
        <ele>2090</ele>
        <time>2019-08-15T18:48:39Z</time>
      </trkpt>
      <trkpt lat="45.92136" lon="6.82813">
        <ele>2079</ele>
        <time>2019-08-15T18:49:01Z</time>
      </trkpt>
      <trkpt lat="45.92136" lon="6.82795">
        <ele>2078</ele>
        <time>2019-08-15T18:49:18Z</time>
      </trkpt>
      <trkpt lat="45.92138" lon="6.82776">
        <ele>2079</ele>
        <time>2019-08-15T18:49:36Z</time>
      </trkpt>
      <trkpt lat="45.92129" lon="6.8276">
        <ele>2072</ele>
        <time>2019-08-15T18:49:55Z</time>
      </trkpt>
      <trkpt lat="45.92118" lon="6.82729">
        <ele>2069</ele>
        <time>2019-08-15T18:50:27Z</time>
      </trkpt>
      <trkpt lat="45.92111" lon="6.82723">
        <ele>2066</ele>
        <time>2019-08-15T18:50:38Z</time>
      </trkpt>
      <trkpt lat="45.92106" lon="6.82732">
        <ele>2060</ele>
        <time>2019-08-15T18:50:49Z</time>
      </trkpt>
      <trkpt lat="45.92093" lon="6.82719">
        <ele>2055</ele>
        <time>2019-08-15T18:51:10Z</time>
      </trkpt>
      <trkpt lat="45.92059" lon="6.82707">
        <ele>2037</ele>
        <time>2019-08-15T18:51:57Z</time>
      </trkpt>
      <trkpt lat="45.92059" lon="6.82687">
        <ele>2042</ele>
        <time>2019-08-15T18:52:15Z</time>
      </trkpt>
      <trkpt lat="45.92044" lon="6.82693">
        <ele>2031</ele>
        <time>2019-08-15T18:52:36Z</time>
      </trkpt>
      <trkpt lat="45.92036" lon="6.82686">
        <ele>2028</ele>
        <time>2019-08-15T18:52:49Z</time>
      </trkpt>
      <trkpt lat="45.92035" lon="6.82702">
        <ele>2023</ele>
        <time>2019-08-15T18:53:03Z</time>
      </trkpt>
      <trkpt lat="45.92019" lon="6.82693">
        <ele>2016</ele>
        <time>2019-08-15T18:53:26Z</time>
      </trkpt>
      <trkpt lat="45.92021" lon="6.82719">
        <ele>2009</ele>
        <time>2019-08-15T18:53:51Z</time>
      </trkpt>
      <trkpt lat="45.92013" lon="6.82712">
        <ele>2006</ele>
        <time>2019-08-15T18:54:03Z</time>
      </trkpt>
      <trkpt lat="45.92011" lon="6.82725">
        <ele>2001</ele>
        <time>2019-08-15T18:54:16Z</time>
      </trkpt>
      <trkpt lat="45.91991" lon="6.82714">
        <ele>1993</ele>
        <time>2019-08-15T18:54:44Z</time>
      </trkpt>
      <trkpt lat="45.91992" lon="6.82739">
        <ele>1985</ele>
        <time>2019-08-15T18:55:07Z</time>
      </trkpt>
      <trkpt lat="45.92001" lon="6.82746">
        <ele>1987</ele>
        <time>2019-08-15T18:55:21Z</time>
      </trkpt>
      <trkpt lat="45.91997" lon="6.82756">
        <ele>1983</ele>
        <time>2019-08-15T18:55:32Z</time>
      </trkpt>
      <trkpt lat="45.91994" lon="6.8276">
        <ele>1981</ele>
        <time>2019-08-15T18:55:37Z</time>
      </trkpt>
      <trkpt lat="45.91987" lon="6.82762">
        <ele>1977</ele>
        <time>2019-08-15T18:55:47Z</time>
      </trkpt>
      <trkpt lat="45.91974" lon="6.82745">
        <ele>1974</ele>
        <time>2019-08-15T18:56:10Z</time>
      </trkpt>
      <trkpt lat="45.91957" lon="6.82729">
        <ele>1972</ele>
        <time>2019-08-15T18:56:37Z</time>
      </trkpt>
      <trkpt lat="45.91946" lon="6.82714">
        <ele>1973</ele>
        <time>2019-08-15T18:56:58Z</time>
      </trkpt>
      <trkpt lat="45.9191" lon="6.82704">
        <ele>1964</ele>
        <time>2019-08-15T18:57:46Z</time>
      </trkpt>
      <trkpt lat="45.91911" lon="6.82717">
        <ele>1958</ele>
        <time>2019-08-15T18:57:59Z</time>
      </trkpt>
      <trkpt lat="45.91888" lon="6.82723">
        <ele>1952</ele>
        <time>2019-08-15T18:58:30Z</time>
      </trkpt>
      <trkpt lat="45.91866" lon="6.8273">
        <ele>1945</ele>
        <time>2019-08-15T18:59:00Z</time>
      </trkpt>
      <trkpt lat="45.91824" lon="6.82731">
        <ele>1939</ele>
        <time>2019-08-15T18:59:56Z</time>
      </trkpt>
      <trkpt lat="45.91811" lon="6.82722">
        <ele>1941</ele>
        <time>2019-08-15T19:00:15Z</time>
      </trkpt>
      <trkpt lat="45.91808" lon="6.8273">
        <ele>1937</ele>
        <time>2019-08-15T19:00:24Z</time>
      </trkpt>
      <trkpt lat="45.9179" lon="6.82731">
        <ele>1933</ele>
        <time>2019-08-15T19:00:48Z</time>
      </trkpt>
      <trkpt lat="45.91774" lon="6.82746">
        <ele>1924</ele>
        <time>2019-08-15T19:01:13Z</time>
      </trkpt>
      <trkpt lat="45.91749" lon="6.82757">
        <ele>1913</ele>
        <time>2019-08-15T19:01:48Z</time>
      </trkpt>
      <trkpt lat="45.91738" lon="6.82751">
        <ele>1913</ele>
        <time>2019-08-15T19:02:04Z</time>
      </trkpt>
      <trkpt lat="45.91722" lon="6.82751">
        <ele>1905</ele>
        <time>2019-08-15T19:02:25Z</time>
      </trkpt>
      <trkpt lat="45.91708" lon="6.82733">
        <ele>1906</ele>
        <time>2019-08-15T19:02:50Z</time>
      </trkpt>
      <trkpt lat="45.91701" lon="6.82744">
        <ele>1899</ele>
        <time>2019-08-15T19:03:04Z</time>
      </trkpt>
      <trkpt lat="45.91691" lon="6.82741">
        <ele>1895</ele>
        <time>2019-08-15T19:03:18Z</time>
      </trkpt>
      <trkpt lat="45.91685" lon="6.82748">
        <ele>1890</ele>
        <time>2019-08-15T19:03:28Z</time>
      </trkpt>
      <trkpt lat="45.91673" lon="6.82739">
        <ele>1887</ele>
        <time>2019-08-15T19:03:46Z</time>
      </trkpt>
      <trkpt lat="45.91667" lon="6.82761">
        <ele>1874</ele>
        <time>2019-08-15T19:04:08Z</time>
      </trkpt>
      <trkpt lat="45.9166" lon="6.82753">
        <ele>1875</ele>
        <time>2019-08-15T19:04:20Z</time>
      </trkpt>
      <trkpt lat="45.91657" lon="6.82764">
        <ele>1866</ele>
        <time>2019-08-15T19:04:31Z</time>
      </trkpt>
      <trkpt lat="45.91652" lon="6.82776">
        <ele>1857</ele>
        <time>2019-08-15T19:04:44Z</time>
      </trkpt>
      <trkpt lat="45.91644" lon="6.82756">
        <ele>1863</ele>
        <time>2019-08-15T19:05:05Z</time>
      </trkpt>
      <trkpt lat="45.91638" lon="6.82759">
        <ele>1857</ele>
        <time>2019-08-15T19:05:14Z</time>
      </trkpt>
      <trkpt lat="45.91627" lon="6.82737">
        <ele>1857</ele>
        <time>2019-08-15T19:05:39Z</time>
      </trkpt>
      <trkpt lat="45.91624" lon="6.82746">
        <ele>1853</ele>
        <time>2019-08-15T19:05:48Z</time>
      </trkpt>
      <trkpt lat="45.91621" lon="6.82733">
        <ele>1854</ele>
        <time>2019-08-15T19:06:01Z</time>
      </trkpt>
      <trkpt lat="45.91613" lon="6.82736">
        <ele>1848</ele>
        <time>2019-08-15T19:06:12Z</time>
      </trkpt>
      <trkpt lat="45.91599" lon="6.82703">
        <ele>1845</ele>
        <time>2019-08-15T19:06:48Z</time>
      </trkpt>
      <trkpt lat="45.91587" lon="6.82691">
        <ele>1838</ele>
        <time>2019-08-15T19:07:07Z</time>
      </trkpt>
      <trkpt lat="45.91588" lon="6.82681">
        <ele>1841</ele>
        <time>2019-08-15T19:07:17Z</time>
      </trkpt>
      <trkpt lat="45.91565" lon="6.82678">
        <ele>1824</ele>
        <time>2019-08-15T19:07:47Z</time>
      </trkpt>
      <trkpt lat="45.91544" lon="6.82633">
        <ele>1820</ele>
        <time>2019-08-15T19:08:38Z</time>
      </trkpt>
      <trkpt lat="45.9153" lon="6.82618">
        <ele>1814</ele>
        <time>2019-08-15T19:09:01Z</time>
      </trkpt>
      <trkpt lat="45.91518" lon="6.82612">
        <ele>1807</ele>
        <time>2019-08-15T19:09:18Z</time>
      </trkpt>
      <trkpt lat="45.91511" lon="6.82593">
        <ele>1807</ele>
        <time>2019-08-15T19:09:38Z</time>
      </trkpt>
      <trkpt lat="45.91483" lon="6.82568">
        <ele>1795</ele>
        <time>2019-08-15T19:10:22Z</time>
      </trkpt>
      <trkpt lat="45.91472" lon="6.82551">
        <ele>1793</ele>
        <time>2019-08-15T19:10:44Z</time>
      </trkpt>
      <trkpt lat="45.91451" lon="6.82546">
        <ele>1781</ele>
        <time>2019-08-15T19:11:12Z</time>
      </trkpt>
      <trkpt lat="45.91432" lon="6.82534">
        <ele>1773</ele>
        <time>2019-08-15T19:11:40Z</time>
      </trkpt>
      <trkpt lat="45.91424" lon="6.82524">
        <ele>1772</ele>
        <time>2019-08-15T19:11:54Z</time>
      </trkpt>
      <trkpt lat="45.91385" lon="6.82491">
        <ele>1761</ele>
        <time>2019-08-15T19:12:54Z</time>
      </trkpt>
      <trkpt lat="45.91348" lon="6.82483">
        <ele>1742</ele>
        <time>2019-08-15T19:13:44Z</time>
      </trkpt>
      <trkpt lat="45.91326" lon="6.82458">
        <ele>1734</ele>
        <time>2019-08-15T19:14:22Z</time>
      </trkpt>
      <trkpt lat="45.91295" lon="6.82376">
        <ele>1730</ele>
        <time>2019-08-15T19:15:48Z</time>
      </trkpt>
      <trkpt lat="45.91279" lon="6.82348">
        <ele>1725</ele>
        <time>2019-08-15T19:16:22Z</time>
      </trkpt>
      <trkpt lat="45.91271" lon="6.82319">
        <ele>1723</ele>
        <time>2019-08-15T19:16:51Z</time>
      </trkpt>
      <trkpt lat="45.91256" lon="6.82289">
        <ele>1717</ele>
        <time>2019-08-15T19:17:25Z</time>
      </trkpt>
      <trkpt lat="45.91255" lon="6.82266">
        <ele>1717</ele>
        <time>2019-08-15T19:17:46Z</time>
      </trkpt>
      <trkpt lat="45.91247" lon="6.82262">
        <ele>1712</ele>
        <time>2019-08-15T19:17:58Z</time>
      </trkpt>
      <trkpt lat="45.91248" lon="6.82234">
        <ele>1710</ele>
        <time>2019-08-15T19:18:24Z</time>
      </trkpt>
      <trkpt lat="45.9124" lon="6.82217">
        <ele>1700</ele>
        <time>2019-08-15T19:18:43Z</time>
      </trkpt>
      <trkpt lat="45.91242" lon="6.82198">
        <ele>1697</ele>
        <time>2019-08-15T19:19:01Z</time>
      </trkpt>
      <trkpt lat="45.91246" lon="6.8214">
        <ele>1696</ele>
        <time>2019-08-15T19:19:55Z</time>
      </trkpt>
      <trkpt lat="45.91255" lon="6.82117">
        <ele>1704</ele>
        <time>2019-08-15T19:20:19Z</time>
      </trkpt>
      <trkpt lat="45.91232" lon="6.8213">
        <ele>1688</ele>
        <time>2019-08-15T19:20:52Z</time>
      </trkpt>
      <trkpt lat="45.91238" lon="6.82113">
        <ele>1694</ele>
        <time>2019-08-15T19:21:10Z</time>
      </trkpt>
      <trkpt lat="45.91231" lon="6.82095">
        <ele>1693</ele>
        <time>2019-08-15T19:21:29Z</time>
      </trkpt>
      <trkpt lat="45.91223" lon="6.82104">
        <ele>1688</ele>
        <time>2019-08-15T19:21:43Z</time>
      </trkpt>
      <trkpt lat="45.91197" lon="6.82104">
        <ele>1674</ele>
        <time>2019-08-15T19:22:17Z</time>
      </trkpt>
      <trkpt lat="45.91183" lon="6.82105">
        <ele>1667</ele>
        <time>2019-08-15T19:22:36Z</time>
      </trkpt>
      <trkpt lat="45.91159" lon="6.82091">
        <ele>1661</ele>
        <time>2019-08-15T19:23:11Z</time>
      </trkpt>
      <trkpt lat="45.91137" lon="6.82091">
        <ele>1653</ele>
        <time>2019-08-15T19:23:40Z</time>
      </trkpt>
      <trkpt lat="45.9111" lon="6.82087">
        <ele>1645</ele>
        <time>2019-08-15T19:24:16Z</time>
      </trkpt>
      <trkpt lat="45.91088" lon="6.82066">
        <ele>1646</ele>
        <time>2019-08-15T19:24:51Z</time>
      </trkpt>
      <trkpt lat="45.91057" lon="6.82027">
        <ele>1643</ele>
        <time>2019-08-15T19:25:46Z</time>
      </trkpt>
      <trkpt lat="45.91045" lon="6.81983">
        <ele>1650</ele>
        <time>2019-08-15T19:26:30Z</time>
      </trkpt>
      <trkpt lat="45.91027" lon="6.8196">
        <ele>1644</ele>
        <time>2019-08-15T19:27:02Z</time>
      </trkpt>
      <trkpt lat="45.91021" lon="6.81951">
        <ele>1643</ele>
        <time>2019-08-15T19:27:14Z</time>
      </trkpt>
      <trkpt lat="45.91009" lon="6.81936">
        <ele>1638</ele>
        <time>2019-08-15T19:27:35Z</time>
      </trkpt>
      <trkpt lat="45.90998" lon="6.81893">
        <ele>1639</ele>
        <time>2019-08-15T19:28:18Z</time>
      </trkpt>
      <trkpt lat="45.90983" lon="6.81861">
        <ele>1636</ele>
        <time>2019-08-15T19:28:54Z</time>
      </trkpt>
      <trkpt lat="45.90976" lon="6.81819">
        <ele>1639</ele>
        <time>2019-08-15T19:29:34Z</time>
      </trkpt>
      <trkpt lat="45.90965" lon="6.81801">
        <ele>1636</ele>
        <time>2019-08-15T19:29:56Z</time>
      </trkpt>
      <trkpt lat="45.90963" lon="6.81775">
        <ele>1640</ele>
        <time>2019-08-15T19:30:20Z</time>
      </trkpt>
      <trkpt lat="45.9093" lon="6.81695">
        <ele>1627</ele>
        <time>2019-08-15T19:31:47Z</time>
      </trkpt>
      <trkpt lat="45.90923" lon="6.8169">
        <ele>1622</ele>
        <time>2019-08-15T19:31:57Z</time>
      </trkpt>
      <trkpt lat="45.90904" lon="6.81621">
        <ele>1613</ele>
        <time>2019-08-15T19:33:06Z</time>
      </trkpt>
      <trkpt lat="45.90893" lon="6.81581">
        <ele>1608</ele>
        <time>2019-08-15T19:33:46Z</time>
      </trkpt>
      <trkpt lat="45.90875" lon="6.81548">
        <ele>1599</ele>
        <time>2019-08-15T19:34:25Z</time>
      </trkpt>
      <trkpt lat="45.90861" lon="6.81526">
        <ele>1591</ele>
        <time>2019-08-15T19:34:53Z</time>
      </trkpt>
      <trkpt lat="45.90849" lon="6.81532">
        <ele>1584</ele>
        <time>2019-08-15T19:35:09Z</time>
      </trkpt>
      <trkpt lat="45.90839" lon="6.81513">
        <ele>1579</ele>
        <time>2019-08-15T19:35:32Z</time>
      </trkpt>
      <trkpt lat="45.90816" lon="6.81479">
        <ele>1565</ele>
        <time>2019-08-15T19:36:16Z</time>
      </trkpt>
      <trkpt lat="45.90813" lon="6.81434">
        <ele>1561</ele>
        <time>2019-08-15T19:36:58Z</time>
      </trkpt>
      <trkpt lat="45.90793" lon="6.81402">
        <ele>1549</ele>
        <time>2019-08-15T19:37:38Z</time>
      </trkpt>
      <trkpt lat="45.9078" lon="6.81398">
        <ele>1541</ele>
        <time>2019-08-15T19:37:55Z</time>
      </trkpt>
      <trkpt lat="45.9077" lon="6.81403">
        <ele>1535</ele>
        <time>2019-08-15T19:38:09Z</time>
      </trkpt>
      <trkpt lat="45.90765" lon="6.8141">
        <ele>1532</ele>
        <time>2019-08-15T19:38:19Z</time>
      </trkpt>
      <trkpt lat="45.90745" lon="6.81383">
        <ele>1519</ele>
        <time>2019-08-15T19:38:55Z</time>
      </trkpt>
      <trkpt lat="45.9074" lon="6.81342">
        <ele>1515</ele>
        <time>2019-08-15T19:39:34Z</time>
      </trkpt>
      <trkpt lat="45.9074" lon="6.81313">
        <ele>1517</ele>
        <time>2019-08-15T19:40:01Z</time>
      </trkpt>
      <trkpt lat="45.90738" lon="6.81292">
        <ele>1518</ele>
        <time>2019-08-15T19:40:21Z</time>
      </trkpt>
      <trkpt lat="45.90715" lon="6.81237">
        <ele>1505</ele>
        <time>2019-08-15T19:41:20Z</time>
      </trkpt>
      <trkpt lat="45.90699" lon="6.81152">
        <ele>1496</ele>
        <time>2019-08-15T19:42:42Z</time>
      </trkpt>
      <trkpt lat="45.90692" lon="6.8114">
        <ele>1492</ele>
        <time>2019-08-15T19:42:56Z</time>
      </trkpt>
      <trkpt lat="45.90679" lon="6.81189">
        <ele>1478</ele>
        <time>2019-08-15T19:43:45Z</time>
      </trkpt>
      <trkpt lat="45.90675" lon="6.81259">
        <ele>1472</ele>
        <time>2019-08-15T19:44:50Z</time>
      </trkpt>
      <trkpt lat="45.90669" lon="6.81262">
        <ele>1468</ele>
        <time>2019-08-15T19:44:59Z</time>
      </trkpt>
      <trkpt lat="45.90672" lon="6.81294">
        <ele>1470</ele>
        <time>2019-08-15T19:45:29Z</time>
      </trkpt>
      <trkpt lat="45.90659" lon="6.81331">
        <ele>1460</ele>
        <time>2019-08-15T19:46:07Z</time>
      </trkpt>
      <trkpt lat="45.90659" lon="6.81363">
        <ele>1460</ele>
        <time>2019-08-15T19:46:37Z</time>
      </trkpt>
      <trkpt lat="45.90655" lon="6.8139">
        <ele>1456</ele>
        <time>2019-08-15T19:47:03Z</time>
      </trkpt>
      <trkpt lat="45.90656" lon="6.81417">
        <ele>1456</ele>
        <time>2019-08-15T19:47:28Z</time>
      </trkpt>
      <trkpt lat="45.90655" lon="6.81438">
        <ele>1457</ele>
        <time>2019-08-15T19:47:47Z</time>
      </trkpt>
      <trkpt lat="45.90652" lon="6.81446">
        <ele>1455</ele>
        <time>2019-08-15T19:47:56Z</time>
      </trkpt>
      <trkpt lat="45.90649" lon="6.81412">
        <ele>1450</ele>
        <time>2019-08-15T19:48:28Z</time>
      </trkpt>
      <trkpt lat="45.90646" lon="6.81378">
        <ele>1449</ele>
        <time>2019-08-15T19:48:59Z</time>
      </trkpt>
      <trkpt lat="45.90622" lon="6.81344">
        <ele>1432</ele>
        <time>2019-08-15T19:49:44Z</time>
      </trkpt>
      <trkpt lat="45.90611" lon="6.81289">
        <ele>1426</ele>
        <time>2019-08-15T19:50:38Z</time>
      </trkpt>
      <trkpt lat="45.90602" lon="6.81312">
        <ele>1418</ele>
        <time>2019-08-15T19:51:02Z</time>
      </trkpt>
      <trkpt lat="45.90591" lon="6.8128">
        <ele>1412</ele>
        <time>2019-08-15T19:51:35Z</time>
      </trkpt>
      <trkpt lat="45.90575" lon="6.81209">
        <ele>1403</ele>
        <time>2019-08-15T19:52:44Z</time>
      </trkpt>
      <trkpt lat="45.90561" lon="6.81175">
        <ele>1393</ele>
        <time>2019-08-15T19:53:21Z</time>
      </trkpt>
      <trkpt lat="45.90554" lon="6.81128">
        <ele>1388</ele>
        <time>2019-08-15T19:54:06Z</time>
      </trkpt>
      <trkpt lat="45.90546" lon="6.81083">
        <ele>1383</ele>
        <time>2019-08-15T19:54:49Z</time>
      </trkpt>
      <trkpt lat="45.90544" lon="6.81045">
        <ele>1382</ele>
        <time>2019-08-15T19:55:24Z</time>
      </trkpt>
      <trkpt lat="45.90538" lon="6.80968">
        <ele>1379</ele>
        <time>2019-08-15T19:56:36Z</time>
      </trkpt>
      <trkpt lat="45.90532" lon="6.80948">
        <ele>1375</ele>
        <time>2019-08-15T19:56:57Z</time>
      </trkpt>
      <trkpt lat="45.90522" lon="6.80939">
        <ele>1366</ele>
        <time>2019-08-15T19:57:12Z</time>
      </trkpt>
      <trkpt lat="45.90516" lon="6.80982">
        <ele>1361</ele>
        <time>2019-08-15T19:57:53Z</time>
      </trkpt>
      <trkpt lat="45.90504" lon="6.80983">
        <ele>1352</ele>
        <time>2019-08-15T19:58:09Z</time>
      </trkpt>
      <trkpt lat="45.90429" lon="6.80738">
        <ele>1321</ele>
        <time>2019-08-15T20:02:18Z</time>
      </trkpt>
      <trkpt lat="45.90416" lon="6.80709">
        <ele>1312</ele>
        <time>2019-08-15T20:02:50Z</time>
      </trkpt>
      <trkpt lat="45.90412" lon="6.80661">
        <ele>1306</ele>
        <time>2019-08-15T20:03:34Z</time>
      </trkpt>
      <trkpt lat="45.90409" lon="6.80612">
        <ele>1294</ele>
        <time>2019-08-15T20:04:20Z</time>
      </trkpt>
      <trkpt lat="45.90429" lon="6.80565">
        <ele>1304</ele>
        <time>2019-08-15T20:05:11Z</time>
      </trkpt>
      <trkpt lat="45.9043" lon="6.80509">
        <ele>1295</ele>
        <time>2019-08-15T20:06:03Z</time>
      </trkpt>
      <trkpt lat="45.90431" lon="6.80452">
        <ele>1291</ele>
        <time>2019-08-15T20:06:56Z</time>
      </trkpt>
      <trkpt lat="45.90409" lon="6.8035">
        <ele>1276</ele>
        <time>2019-08-15T20:08:35Z</time>
      </trkpt>
      <trkpt lat="45.90395" lon="6.80326">
        <ele>1267</ele>
        <time>2019-08-15T20:09:05Z</time>
      </trkpt>
      <trkpt lat="45.90385" lon="6.80226">
        <ele>1261</ele>
        <time>2019-08-15T20:10:38Z</time>
      </trkpt>
      <trkpt lat="45.90381" lon="6.80176">
        <ele>1258</ele>
        <time>2019-08-15T20:11:25Z</time>
      </trkpt>
      <trkpt lat="45.90377" lon="6.80206">
        <ele>1257</ele>
        <time>2019-08-15T20:11:53Z</time>
      </trkpt>
      <trkpt lat="45.90365" lon="6.80202">
        <ele>1250</ele>
        <time>2019-08-15T20:12:10Z</time>
      </trkpt>
      <trkpt lat="45.90364" lon="6.80201">
        <ele>1250</ele>
        <time>2019-08-15T20:12:12Z</time>
      </trkpt>
      <trkpt lat="45.90354" lon="6.80195">
        <ele>1245</ele>
        <time>2019-08-15T20:12:26Z</time>
      </trkpt>
      <trkpt lat="45.90341" lon="6.8023">
        <ele>1238</ele>
        <time>2019-08-15T20:13:03Z</time>
      </trkpt>
      <trkpt lat="45.90328" lon="6.8025">
        <ele>1230</ele>
        <time>2019-08-15T20:13:28Z</time>
      </trkpt>
      <trkpt lat="45.90306" lon="6.80231">
        <ele>1215</ele>
        <time>2019-08-15T20:14:02Z</time>
      </trkpt>
      <trkpt lat="45.90291" lon="6.80215">
        <ele>1205</ele>
        <time>2019-08-15T20:14:27Z</time>
      </trkpt>
      <trkpt lat="45.90272" lon="6.80166">
        <ele>1192</ele>
        <time>2019-08-15T20:15:19Z</time>
      </trkpt>
      <trkpt lat="45.90272" lon="6.80166">
        <ele>1192</ele>
        <time>2019-08-15T20:15:19Z</time>
      </trkpt>
      <trkpt lat="45.90275" lon="6.80163">
        <ele>1193</ele>
        <time>2019-08-15T20:15:24Z</time>
      </trkpt>
      <trkpt lat="45.90271" lon="6.80114">
        <ele>1186</ele>
        <time>2019-08-15T20:16:10Z</time>
      </trkpt>
      <trkpt lat="45.90268" lon="6.80064">
        <ele>1182</ele>
        <time>2019-08-15T20:16:57Z</time>
      </trkpt>
      <trkpt lat="45.90256" lon="6.8009">
        <ele>1174</ele>
        <time>2019-08-15T20:17:26Z</time>
      </trkpt>
      <trkpt lat="45.90252" lon="6.80139">
        <ele>1175</ele>
        <time>2019-08-15T20:18:12Z</time>
      </trkpt>
      <trkpt lat="45.90248" lon="6.80189">
        <ele>1176</ele>
        <time>2019-08-15T20:18:58Z</time>
      </trkpt>
      <trkpt lat="45.90226" lon="6.80269">
        <ele>1163</ele>
        <time>2019-08-15T20:20:18Z</time>
      </trkpt>
      <trkpt lat="45.90215" lon="6.8031">
        <ele>1154</ele>
        <time>2019-08-15T20:20:59Z</time>
      </trkpt>
      <trkpt lat="45.90197" lon="6.80269">
        <ele>1145</ele>
        <time>2019-08-15T20:21:44Z</time>
      </trkpt>
      <trkpt lat="45.9018" lon="6.80261">
        <ele>1135</ele>
        <time>2019-08-15T20:22:08Z</time>
      </trkpt>
      <trkpt lat="45.90175" lon="6.80286">
        <ele>1132</ele>
        <time>2019-08-15T20:22:32Z</time>
      </trkpt>
      <trkpt lat="45.90161" lon="6.8029">
        <ele>1124</ele>
        <time>2019-08-15T20:22:51Z</time>
      </trkpt>
      <trkpt lat="45.90137" lon="6.80272">
        <ele>1115</ele>
        <time>2019-08-15T20:23:27Z</time>
      </trkpt>
      <trkpt lat="45.9013" lon="6.8031">
        <ele>1110</ele>
        <time>2019-08-15T20:24:04Z</time>
      </trkpt>
      <trkpt lat="45.90131" lon="6.80333">
        <ele>1109</ele>
        <time>2019-08-15T20:24:25Z</time>
      </trkpt>
      <trkpt lat="45.90125" lon="6.80366">
        <ele>1103</ele>
        <time>2019-08-15T20:24:57Z</time>
      </trkpt>
      <trkpt lat="45.90118" lon="6.804">
        <ele>1097</ele>
        <time>2019-08-15T20:25:30Z</time>
      </trkpt>
      <trkpt lat="45.90093" lon="6.80367">
        <ele>1088</ele>
        <time>2019-08-15T20:26:15Z</time>
      </trkpt>
      <trkpt lat="45.9007" lon="6.80418">
        <ele>1072</ele>
        <time>2019-08-15T20:27:11Z</time>
      </trkpt>
      <trkpt lat="45.90063" lon="6.80446">
        <ele>1065</ele>
        <time>2019-08-15T20:27:39Z</time>
      </trkpt>
      <trkpt lat="45.90053" lon="6.80469">
        <ele>1058</ele>
        <time>2019-08-15T20:28:04Z</time>
      </trkpt>
      <trkpt lat="45.90005" lon="6.80412">
        <ele>1048</ele>
        <time>2019-08-15T20:29:27Z</time>
      </trkpt>
      <trkpt lat="45.89981" lon="6.80384">
        <ele>1043</ele>
        <time>2019-08-15T20:30:09Z</time>
      </trkpt>
      <trkpt lat="45.89986" lon="6.80426">
        <ele>1039</ele>
        <time>2019-08-15T20:30:48Z</time>
      </trkpt>
      <trkpt lat="45.89988" lon="6.80446">
        <ele>1037</ele>
        <time>2019-08-15T20:31:07Z</time>
      </trkpt>
      <trkpt lat="45.8997" lon="6.80423">
        <ele>1034</ele>
        <time>2019-08-15T20:31:39Z</time>
      </trkpt>
      <trkpt lat="45.89928" lon="6.80405">
        <ele>1023</ele>
        <time>2019-08-15T20:32:38Z</time>
      </trkpt>
      <trkpt lat="45.89908" lon="6.80372">
        <ele>1023</ele>
        <time>2019-08-15T20:33:18Z</time>
      </trkpt>
      <trkpt lat="45.89891" lon="6.8035">
        <ele>1022</ele>
        <time>2019-08-15T20:33:49Z</time>
      </trkpt>
      <trkpt lat="45.89874" lon="6.80329">
        <ele>1021</ele>
        <time>2019-08-15T20:34:19Z</time>
      </trkpt>
      <trkpt lat="45.89874" lon="6.80329">
        <ele>1021</ele>
        <time>2019-08-15T20:34:19Z</time>
      </trkpt>
      <trkpt lat="45.89844" lon="6.8031">
        <ele>1016</ele>
        <time>2019-08-15T20:35:02Z</time>
      </trkpt>
      <trkpt lat="45.8982" lon="6.80285">
        <ele>1015</ele>
        <time>2019-08-15T20:35:42Z</time>
      </trkpt>
      <trkpt lat="45.89805" lon="6.80273">
        <ele>1013</ele>
        <time>2019-08-15T20:36:05Z</time>
      </trkpt>
      <trkpt lat="45.8979" lon="6.80247">
        <ele>1013</ele>
        <time>2019-08-15T20:36:36Z</time>
      </trkpt>
      <trkpt lat="45.89774" lon="6.80222">
        <ele>1011</ele>
        <time>2019-08-15T20:37:08Z</time>
      </trkpt>
      <trkpt lat="45.89768" lon="6.80201">
        <ele>1011</ele>
        <time>2019-08-15T20:37:29Z</time>
      </trkpt>
      <trkpt lat="45.89766" lon="6.80186">
        <ele>1012</ele>
        <time>2019-08-15T20:37:43Z</time>
      </trkpt>
      <trkpt lat="45.89765" lon="6.80148">
        <ele>1014</ele>
        <time>2019-08-15T20:38:18Z</time>
      </trkpt>
      <trkpt lat="45.89757" lon="6.80104">
        <ele>1013</ele>
        <time>2019-08-15T20:39:01Z</time>
      </trkpt>
      <trkpt lat="45.89742" lon="6.80069">
        <ele>1012</ele>
        <time>2019-08-15T20:39:39Z</time>
      </trkpt>
      <trkpt lat="45.89728" lon="6.80034">
        <ele>1016</ele>
        <time>2019-08-15T20:40:16Z</time>
      </trkpt>
      <trkpt lat="45.89702" lon="6.80019">
        <ele>1013</ele>
        <time>2019-08-15T20:40:54Z</time>
      </trkpt>
      <trkpt lat="45.89672" lon="6.79986">
        <ele>1014</ele>
        <time>2019-08-15T20:41:44Z</time>
      </trkpt>
      <trkpt lat="45.8964" lon="6.79972">
        <ele>1009</ele>
        <time>2019-08-15T20:42:29Z</time>
      </trkpt>
      <trkpt lat="45.89608" lon="6.79945">
        <ele>1008</ele>
        <time>2019-08-15T20:43:18Z</time>
      </trkpt>
      <trkpt lat="45.89581" lon="6.79938">
        <ele>1002</ele>
        <time>2019-08-15T20:43:55Z</time>
      </trkpt>
      <trkpt lat="45.89556" lon="6.79918">
        <ele>1001</ele>
        <time>2019-08-15T20:44:33Z</time>
      </trkpt>
      <trkpt lat="45.89548" lon="6.79916">
        <ele>999</ele>
        <time>2019-08-15T20:44:44Z</time>
      </trkpt>
      <trkpt lat="45.89526" lon="6.79901">
        <ele>998</ele>
        <time>2019-08-15T20:45:16Z</time>
      </trkpt>
      <trkpt lat="45.89505" lon="6.79886">
        <ele>996</ele>
        <time>2019-08-15T20:45:48Z</time>
      </trkpt>
      <trkpt lat="45.8948" lon="6.79874">
        <ele>994</ele>
        <time>2019-08-15T20:46:23Z</time>
      </trkpt>
      <trkpt lat="45.89478" lon="6.79875">
        <ele>993</ele>
        <time>2019-08-15T20:46:26Z</time>
      </trkpt>
      <trkpt lat="45.89461" lon="6.79888">
        <ele>987</ele>
        <time>2019-08-15T20:46:51Z</time>
      </trkpt>
      <trkpt lat="45.89457" lon="6.79889">
        <ele>987</ele>
        <time>2019-08-15T20:46:57Z</time>
      </trkpt>
      <trkpt lat="45.89451" lon="6.79888">
        <ele>986</ele>
        <time>2019-08-15T20:47:05Z</time>
      </trkpt>
      <trkpt lat="45.89444" lon="6.7988">
        <ele>985</ele>
        <time>2019-08-15T20:47:17Z</time>
      </trkpt>
      <trkpt lat="45.89435" lon="6.79861">
        <ele>985</ele>
        <time>2019-08-15T20:47:38Z</time>
      </trkpt>
      <trkpt lat="45.89411" lon="6.79815">
        <ele>985</ele>
        <time>2019-08-15T20:48:32Z</time>
      </trkpt>
      <trkpt lat="45.89388" lon="6.79787">
        <ele>986</ele>
        <time>2019-08-15T20:49:12Z</time>
      </trkpt>
      <trkpt lat="45.89387" lon="6.79799">
        <ele>984</ele>
        <time>2019-08-15T20:49:23Z</time>
      </trkpt>
      <trkpt lat="45.89379" lon="6.79849">
        <ele>979</ele>
        <time>2019-08-15T20:50:11Z</time>
      </trkpt>
      <trkpt lat="45.89376" lon="6.79861">
        <ele>979</ele>
        <time>2019-08-15T20:50:22Z</time>
      </trkpt>
      <trkpt lat="45.89373" lon="6.79881">
        <ele>979</ele>
        <time>2019-08-15T20:50:41Z</time>
      </trkpt>
      <trkpt lat="45.8937" lon="6.79896">
        <ele>980</ele>
        <time>2019-08-15T20:50:56Z</time>
      </trkpt>
      <trkpt lat="45.89367" lon="6.79904">
        <ele>980</ele>
        <time>2019-08-15T20:51:04Z</time>
      </trkpt>
      <trkpt lat="45.89364" lon="6.79913">
        <ele>980</ele>
        <time>2019-08-15T20:51:14Z</time>
      </trkpt>
      <trkpt lat="45.89358" lon="6.79923">
        <ele>981</ele>
        <time>2019-08-15T20:51:26Z</time>
      </trkpt>
      <trkpt lat="45.89329" lon="6.79964">
        <ele>989</ele>
        <time>2019-08-15T20:52:20Z</time>
      </trkpt>
      <trkpt lat="45.89325" lon="6.79967">
        <ele>990</ele>
        <time>2019-08-15T20:52:26Z</time>
      </trkpt>
      <trkpt lat="45.89318" lon="6.79968">
        <ele>991</ele>
        <time>2019-08-15T20:52:36Z</time>
      </trkpt>
      <trkpt lat="45.89312" lon="6.79965">
        <ele>991</ele>
        <time>2019-08-15T20:52:44Z</time>
      </trkpt>
      <trkpt lat="45.89294" lon="6.79945">
        <ele>992</ele>
        <time>2019-08-15T20:53:14Z</time>
      </trkpt>
      <trkpt lat="45.89277" lon="6.79922">
        <ele>992</ele>
        <time>2019-08-15T20:53:46Z</time>
      </trkpt>
      <trkpt lat="45.89268" lon="6.79928">
        <ele>994</ele>
        <time>2019-08-15T20:53:59Z</time>
      </trkpt>
      <trkpt lat="45.89257" lon="6.79934">
        <ele>996</ele>
        <time>2019-08-15T20:54:15Z</time>
      </trkpt>
      <trkpt lat="45.89244" lon="6.79944">
        <ele>999</ele>
        <time>2019-08-15T20:54:34Z</time>
      </trkpt>
      <trkpt lat="45.89245" lon="6.7995">
        <ele>1000</ele>
        <time>2019-08-15T20:54:40Z</time>
      </trkpt>
      <trkpt lat="45.89248" lon="6.7996">
        <ele>1000</ele>
        <time>2019-08-15T20:54:50Z</time>
      </trkpt>
      <trkpt lat="45.89249" lon="6.79979">
        <ele>1001</ele>
        <time>2019-08-15T20:55:08Z</time>
      </trkpt>
      <trkpt lat="45.89244" lon="6.79994">
        <ele>1003</ele>
        <time>2019-08-15T20:55:23Z</time>
      </trkpt>
      <trkpt lat="45.89229" lon="6.79981">
        <ele>1004</ele>
        <time>2019-08-15T20:55:47Z</time>
      </trkpt>
      <trkpt lat="45.89211" lon="6.79953">
        <ele>1005</ele>
        <time>2019-08-15T20:56:22Z</time>
      </trkpt>
      <trkpt lat="45.89196" lon="6.79926">
        <ele>1005</ele>
        <time>2019-08-15T20:56:54Z</time>
      </trkpt>
      <trkpt lat="45.89187" lon="6.79916">
        <ele>1006</ele>
        <time>2019-08-15T20:57:09Z</time>
      </trkpt>
      <trkpt lat="45.8918" lon="6.7991">
        <ele>1006</ele>
        <time>2019-08-15T20:57:20Z</time>
      </trkpt>
      <trkpt lat="45.89173" lon="6.79906">
        <ele>1007</ele>
        <time>2019-08-15T20:57:30Z</time>
      </trkpt>
      <trkpt lat="45.89171" lon="6.79905">
        <ele>1007</ele>
        <time>2019-08-15T20:57:33Z</time>
      </trkpt>
      <trkpt lat="45.89158" lon="6.79901">
        <ele>1008</ele>
        <time>2019-08-15T20:57:51Z</time>
      </trkpt>
      <trkpt lat="45.89138" lon="6.79893">
        <ele>1008</ele>
        <time>2019-08-15T20:58:19Z</time>
      </trkpt>
      <trkpt lat="45.89097" lon="6.79879">
        <ele>1009</ele>
        <time>2019-08-15T20:59:15Z</time>
      </trkpt>
      <trkpt lat="45.89083" lon="6.79875">
        <ele>1010</ele>
        <time>2019-08-15T20:59:34Z</time>
      </trkpt>
      <trkpt lat="45.89072" lon="6.7987">
        <ele>1010</ele>
        <time>2019-08-15T20:59:49Z</time>
      </trkpt>
      <trkpt lat="45.8905" lon="6.79857">
        <ele>1011</ele>
        <time>2019-08-15T21:00:21Z</time>
      </trkpt>
      <trkpt lat="45.89037" lon="6.79848">
        <ele>1011</ele>
        <time>2019-08-15T21:00:40Z</time>
      </trkpt>
      <trkpt lat="45.89004" lon="6.79817">
        <ele>1011</ele>
        <time>2019-08-15T21:01:33Z</time>
      </trkpt>
      <trkpt lat="45.88993" lon="6.79807">
        <ele>1012</ele>
        <time>2019-08-15T21:01:50Z</time>
      </trkpt>
      <trkpt lat="45.88979" lon="6.79786">
        <ele>1012</ele>
        <time>2019-08-15T21:02:17Z</time>
      </trkpt>
      <trkpt lat="45.88968" lon="6.7977">
        <ele>1012</ele>
        <time>2019-08-15T21:02:38Z</time>
      </trkpt>
      <trkpt lat="45.88958" lon="6.79753">
        <ele>1012</ele>
        <time>2019-08-15T21:02:59Z</time>
      </trkpt>
      <trkpt lat="45.8895" lon="6.79738">
        <ele>1012</ele>
        <time>2019-08-15T21:03:16Z</time>
      </trkpt>
      <trkpt lat="45.88946" lon="6.79724">
        <ele>1012</ele>
        <time>2019-08-15T21:03:30Z</time>
      </trkpt>
      <trkpt lat="45.8894" lon="6.79703">
        <ele>1011</ele>
        <time>2019-08-15T21:03:51Z</time>
      </trkpt>
      <trkpt lat="45.88937" lon="6.79669">
        <ele>1010</ele>
        <time>2019-08-15T21:04:23Z</time>
      </trkpt>
      <trkpt lat="45.88935" lon="6.7965">
        <ele>1010</ele>
        <time>2019-08-15T21:04:41Z</time>
      </trkpt>
      <trkpt lat="45.88935" lon="6.79635">
        <ele>1011</ele>
        <time>2019-08-15T21:04:55Z</time>
      </trkpt>
      <trkpt lat="45.88933" lon="6.79625">
        <ele>1011</ele>
        <time>2019-08-15T21:05:05Z</time>
      </trkpt>
      <trkpt lat="45.88929" lon="6.79581">
        <ele>1013</ele>
        <time>2019-08-15T21:05:46Z</time>
      </trkpt>
      <trkpt lat="45.88926" lon="6.79536">
        <ele>1018</ele>
        <time>2019-08-15T21:06:28Z</time>
      </trkpt>
      <trkpt lat="45.88924" lon="6.79518">
        <ele>1020</ele>
        <time>2019-08-15T21:06:45Z</time>
      </trkpt>
      <trkpt lat="45.88932" lon="6.79445">
        <ele>1019</ele>
        <time>2019-08-15T21:07:54Z</time>
      </trkpt>
      <trkpt lat="45.88936" lon="6.79414">
        <ele>1018</ele>
        <time>2019-08-15T21:08:23Z</time>
      </trkpt>
      <trkpt lat="45.88935" lon="6.79393">
        <ele>1017</ele>
        <time>2019-08-15T21:08:42Z</time>
      </trkpt>
      <trkpt lat="45.88934" lon="6.79367">
        <ele>1015</ele>
        <time>2019-08-15T21:09:07Z</time>
      </trkpt>
      <trkpt lat="45.88927" lon="6.79272">
        <ele>1010</ele>
        <time>2019-08-15T21:10:35Z</time>
      </trkpt>
      <trkpt lat="45.88923" lon="6.7923">
        <ele>1009</ele>
        <time>2019-08-15T21:11:15Z</time>
      </trkpt>
      <trkpt lat="45.88923" lon="6.79202">
        <ele>1008</ele>
        <time>2019-08-15T21:11:41Z</time>
      </trkpt>
      <trkpt lat="45.88924" lon="6.79181">
        <ele>1007</ele>
        <time>2019-08-15T21:12:00Z</time>
      </trkpt>
      <trkpt lat="45.8893" lon="6.7911">
        <ele>1007</ele>
        <time>2019-08-15T21:13:07Z</time>
      </trkpt>
      <trkpt lat="45.88933" lon="6.79075">
        <ele>1007</ele>
        <time>2019-08-15T21:13:39Z</time>
      </trkpt>
      <trkpt lat="45.8894" lon="6.79043">
        <ele>1003</ele>
        <time>2019-08-15T21:14:11Z</time>
      </trkpt>
      <trkpt lat="45.8897" lon="6.78939">
        <ele>997</ele>
        <time>2019-08-15T21:15:55Z</time>
      </trkpt>
      <trkpt lat="45.88977" lon="6.78914">
        <ele>997</ele>
        <time>2019-08-15T21:16:20Z</time>
      </trkpt>
      <trkpt lat="45.88981" lon="6.78903">
        <ele>997</ele>
        <time>2019-08-15T21:16:32Z</time>
      </trkpt>
      <trkpt lat="45.88988" lon="6.78893">
        <ele>997</ele>
        <time>2019-08-15T21:16:45Z</time>
      </trkpt>
      <trkpt lat="45.88987" lon="6.78879">
        <ele>998</ele>
        <time>2019-08-15T21:16:58Z</time>
      </trkpt>
      <trkpt lat="45.89013" lon="6.78796">
        <ele>999</ele>
        <time>2019-08-15T21:18:22Z</time>
      </trkpt>
      <trkpt lat="45.89025" lon="6.78755">
        <ele>1001</ele>
        <time>2019-08-15T21:19:04Z</time>
      </trkpt>
      <trkpt lat="45.89046" lon="6.78694">
        <ele>1005</ele>
        <time>2019-08-15T21:20:07Z</time>
      </trkpt>
      <trkpt lat="45.89068" lon="6.7865">
        <ele>1008</ele>
        <time>2019-08-15T21:20:57Z</time>
      </trkpt>
      <trkpt lat="45.89089" lon="6.78619">
        <ele>1011</ele>
        <time>2019-08-15T21:21:37Z</time>
      </trkpt>
      <trkpt lat="45.89104" lon="6.78604">
        <ele>1012</ele>
        <time>2019-08-15T21:22:02Z</time>
      </trkpt>
      <trkpt lat="45.89117" lon="6.78598">
        <ele>1012</ele>
        <time>2019-08-15T21:22:20Z</time>
      </trkpt>
      <trkpt lat="45.89135" lon="6.78598">
        <ele>1010</ele>
        <time>2019-08-15T21:22:44Z</time>
      </trkpt>
      <trkpt lat="45.89173" lon="6.78605">
        <ele>1005</ele>
        <time>2019-08-15T21:23:35Z</time>
      </trkpt>
      <trkpt lat="45.89196" lon="6.78602">
        <ele>1004</ele>
        <time>2019-08-15T21:24:06Z</time>
      </trkpt>
      <trkpt lat="45.89211" lon="6.78597">
        <ele>1004</ele>
        <time>2019-08-15T21:24:27Z</time>
      </trkpt>
      <trkpt lat="45.89226" lon="6.78586">
        <ele>1005</ele>
        <time>2019-08-15T21:24:49Z</time>
      </trkpt>
      <trkpt lat="45.89244" lon="6.78563">
        <ele>1009</ele>
        <time>2019-08-15T21:25:21Z</time>
      </trkpt>
      <trkpt lat="45.89262" lon="6.78541">
        <ele>1012</ele>
        <time>2019-08-15T21:25:53Z</time>
      </trkpt>
      <trkpt lat="45.89263" lon="6.7853">
        <ele>1014</ele>
        <time>2019-08-15T21:26:03Z</time>
      </trkpt>
      <trkpt lat="45.89258" lon="6.78502">
        <ele>1021</ele>
        <time>2019-08-15T21:26:30Z</time>
      </trkpt>
      <trkpt lat="45.89246" lon="6.7848">
        <ele>1027</ele>
        <time>2019-08-15T21:26:56Z</time>
      </trkpt>
      <trkpt lat="45.89235" lon="6.78481">
        <ele>1027</ele>
        <time>2019-08-15T21:27:11Z</time>
      </trkpt>
      <trkpt lat="45.89232" lon="6.78477">
        <ele>1028</ele>
        <time>2019-08-15T21:27:16Z</time>
      </trkpt>
      <trkpt lat="45.89224" lon="6.78463">
        <ele>1031</ele>
        <time>2019-08-15T21:27:33Z</time>
      </trkpt>
      <trkpt lat="45.89219" lon="6.78447">
        <ele>1034</ele>
        <time>2019-08-15T21:27:49Z</time>
      </trkpt>
      <trkpt lat="45.89209" lon="6.78451">
        <ele>1034</ele>
        <time>2019-08-15T21:28:03Z</time>
      </trkpt>
      <trkpt lat="45.8922" lon="6.78408">
        <ele>1042</ele>
        <time>2019-08-15T21:28:46Z</time>
      </trkpt>
      <trkpt lat="45.89218" lon="6.78387">
        <ele>1047</ele>
        <time>2019-08-15T21:29:05Z</time>
      </trkpt>
      <trkpt lat="45.89219" lon="6.78369">
        <ele>1050</ele>
        <time>2019-08-15T21:29:22Z</time>
      </trkpt>
      <trkpt lat="45.89213" lon="6.78364">
        <ele>1052</ele>
        <time>2019-08-15T21:29:31Z</time>
      </trkpt>
      <trkpt lat="45.89202" lon="6.78365">
        <ele>1053</ele>
        <time>2019-08-15T21:29:46Z</time>
      </trkpt>
      <trkpt lat="45.89198" lon="6.78357">
        <ele>1055</ele>
        <time>2019-08-15T21:29:55Z</time>
      </trkpt>
      <trkpt lat="45.89206" lon="6.7832">
        <ele>1061</ele>
        <time>2019-08-15T21:30:31Z</time>
      </trkpt>
      <trkpt lat="45.89206" lon="6.78289">
        <ele>1066</ele>
        <time>2019-08-15T21:31:00Z</time>
      </trkpt>
      <trkpt lat="45.89207" lon="6.78235">
        <ele>1075</ele>
        <time>2019-08-15T21:31:50Z</time>
      </trkpt>
      <trkpt lat="45.89218" lon="6.782">
        <ele>1077</ele>
        <time>2019-08-15T21:32:26Z</time>
      </trkpt>
      <trkpt lat="45.89231" lon="6.78151">
        <ele>1078</ele>
        <time>2019-08-15T21:33:14Z</time>
      </trkpt>
      <trkpt lat="45.89247" lon="6.78074">
        <ele>1083</ele>
        <time>2019-08-15T21:34:29Z</time>
      </trkpt>
      <trkpt lat="45.89254" lon="6.78032">
        <ele>1083</ele>
        <time>2019-08-15T21:35:09Z</time>
      </trkpt>
      <trkpt lat="45.89256" lon="6.77994">
        <ele>1085</ele>
        <time>2019-08-15T21:35:45Z</time>
      </trkpt>
      <trkpt lat="45.89254" lon="6.77966">
        <ele>1087</ele>
        <time>2019-08-15T21:36:11Z</time>
      </trkpt>
      <trkpt lat="45.89254" lon="6.77936">
        <ele>1088</ele>
        <time>2019-08-15T21:36:39Z</time>
      </trkpt>
      <trkpt lat="45.89245" lon="6.77898">
        <ele>1092</ele>
        <time>2019-08-15T21:37:16Z</time>
      </trkpt>
      <trkpt lat="45.89232" lon="6.77875">
        <ele>1097</ele>
        <time>2019-08-15T21:37:43Z</time>
      </trkpt>
      <trkpt lat="45.8922" lon="6.77864">
        <ele>1101</ele>
        <time>2019-08-15T21:38:02Z</time>
      </trkpt>
      <trkpt lat="45.89213" lon="6.77842">
        <ele>1105</ele>
        <time>2019-08-15T21:38:25Z</time>
      </trkpt>
      <trkpt lat="45.89208" lon="6.77795">
        <ele>1109</ele>
        <time>2019-08-15T21:39:09Z</time>
      </trkpt>
      <trkpt lat="45.89202" lon="6.7778">
        <ele>1112</ele>
        <time>2019-08-15T21:39:25Z</time>
      </trkpt>
      <trkpt lat="45.89192" lon="6.77842">
        <ele>1111</ele>
        <time>2019-08-15T21:40:24Z</time>
      </trkpt>
      <trkpt lat="45.89173" lon="6.77886">
        <ele>1115</ele>
        <time>2019-08-15T21:41:12Z</time>
      </trkpt>
      <trkpt lat="45.89154" lon="6.77931">
        <ele>1118</ele>
        <time>2019-08-15T21:42:01Z</time>
      </trkpt>
      <trkpt lat="45.89141" lon="6.77952">
        <ele>1120</ele>
        <time>2019-08-15T21:42:27Z</time>
      </trkpt>
      <trkpt lat="45.89113" lon="6.77967">
        <ele>1126</ele>
        <time>2019-08-15T21:43:07Z</time>
      </trkpt>
      <trkpt lat="45.89104" lon="6.77978">
        <ele>1128</ele>
        <time>2019-08-15T21:43:23Z</time>
      </trkpt>
      <trkpt lat="45.8909" lon="6.7801">
        <ele>1131</ele>
        <time>2019-08-15T21:43:58Z</time>
      </trkpt>
      <trkpt lat="45.89085" lon="6.78031">
        <ele>1129</ele>
        <time>2019-08-15T21:44:19Z</time>
      </trkpt>
      <trkpt lat="45.89082" lon="6.78049">
        <ele>1127</ele>
        <time>2019-08-15T21:44:36Z</time>
      </trkpt>
      <trkpt lat="45.89078" lon="6.78054">
        <ele>1127</ele>
        <time>2019-08-15T21:44:43Z</time>
      </trkpt>
      <trkpt lat="45.89073" lon="6.78055">
        <ele>1128</ele>
        <time>2019-08-15T21:44:50Z</time>
      </trkpt>
      <trkpt lat="45.89065" lon="6.78048">
        <ele>1130</ele>
        <time>2019-08-15T21:45:02Z</time>
      </trkpt>
      <trkpt lat="45.89051" lon="6.78033">
        <ele>1135</ele>
        <time>2019-08-15T21:45:25Z</time>
      </trkpt>
      <trkpt lat="45.8904" lon="6.78028">
        <ele>1137</ele>
        <time>2019-08-15T21:45:41Z</time>
      </trkpt>
      <trkpt lat="45.89025" lon="6.78026">
        <ele>1140</ele>
        <time>2019-08-15T21:46:01Z</time>
      </trkpt>
      <trkpt lat="45.89016" lon="6.7803">
        <ele>1141</ele>
        <time>2019-08-15T21:46:14Z</time>
      </trkpt>
      <trkpt lat="45.89005" lon="6.7804">
        <ele>1141</ele>
        <time>2019-08-15T21:46:31Z</time>
      </trkpt>
      <trkpt lat="45.88999" lon="6.78042">
        <ele>1142</ele>
        <time>2019-08-15T21:46:39Z</time>
      </trkpt>
      <trkpt lat="45.88978" lon="6.78039">
        <ele>1146</ele>
        <time>2019-08-15T21:47:07Z</time>
      </trkpt>
      <trkpt lat="45.88957" lon="6.78039">
        <ele>1150</ele>
        <time>2019-08-15T21:47:35Z</time>
      </trkpt>
      <trkpt lat="45.88949" lon="6.78037">
        <ele>1151</ele>
        <time>2019-08-15T21:47:46Z</time>
      </trkpt>
      <trkpt lat="45.88923" lon="6.78027">
        <ele>1158</ele>
        <time>2019-08-15T21:48:22Z</time>
      </trkpt>
      <trkpt lat="45.88908" lon="6.78029">
        <ele>1160</ele>
        <time>2019-08-15T21:48:42Z</time>
      </trkpt>
      <trkpt lat="45.88896" lon="6.78025">
        <ele>1163</ele>
        <time>2019-08-15T21:48:59Z</time>
      </trkpt>
      <trkpt lat="45.8889" lon="6.78019">
        <ele>1165</ele>
        <time>2019-08-15T21:49:08Z</time>
      </trkpt>
      <trkpt lat="45.88886" lon="6.78011">
        <ele>1167</ele>
        <time>2019-08-15T21:49:18Z</time>
      </trkpt>
      <trkpt lat="45.88884" lon="6.78005">
        <ele>1168</ele>
        <time>2019-08-15T21:49:24Z</time>
      </trkpt>
      <trkpt lat="45.88887" lon="6.77993">
        <ele>1169</ele>
        <time>2019-08-15T21:49:36Z</time>
      </trkpt>
      <trkpt lat="45.88894" lon="6.77991">
        <ele>1168</ele>
        <time>2019-08-15T21:49:45Z</time>
      </trkpt>
      <trkpt lat="45.88916" lon="6.77991">
        <ele>1164</ele>
        <time>2019-08-15T21:50:14Z</time>
      </trkpt>
      <trkpt lat="45.88939" lon="6.77984">
        <ele>1161</ele>
        <time>2019-08-15T21:50:46Z</time>
      </trkpt>
      <trkpt lat="45.88958" lon="6.77975">
        <ele>1159</ele>
        <time>2019-08-15T21:51:12Z</time>
      </trkpt>
      <trkpt lat="45.88964" lon="6.77968">
        <ele>1158</ele>
        <time>2019-08-15T21:51:23Z</time>
      </trkpt>
      <trkpt lat="45.88968" lon="6.77957">
        <ele>1158</ele>
        <time>2019-08-15T21:51:34Z</time>
      </trkpt>
      <trkpt lat="45.88978" lon="6.77907">
        <ele>1161</ele>
        <time>2019-08-15T21:52:23Z</time>
      </trkpt>
      <trkpt lat="45.88988" lon="6.77864">
        <ele>1164</ele>
        <time>2019-08-15T21:53:05Z</time>
      </trkpt>
      <trkpt lat="45.8899" lon="6.77843">
        <ele>1166</ele>
        <time>2019-08-15T21:53:24Z</time>
      </trkpt>
      <trkpt lat="45.88989" lon="6.77835">
        <ele>1168</ele>
        <time>2019-08-15T21:53:32Z</time>
      </trkpt>
      <trkpt lat="45.88986" lon="6.77829">
        <ele>1169</ele>
        <time>2019-08-15T21:53:39Z</time>
      </trkpt>
      <trkpt lat="45.88981" lon="6.77827">
        <ele>1171</ele>
        <time>2019-08-15T21:53:46Z</time>
      </trkpt>
      <trkpt lat="45.88975" lon="6.77831">
        <ele>1172</ele>
        <time>2019-08-15T21:53:55Z</time>
      </trkpt>
      <trkpt lat="45.88964" lon="6.77844">
        <ele>1173</ele>
        <time>2019-08-15T21:54:14Z</time>
      </trkpt>
      <trkpt lat="45.88943" lon="6.77866">
        <ele>1175</ele>
        <time>2019-08-15T21:54:48Z</time>
      </trkpt>
      <trkpt lat="45.88925" lon="6.77883">
        <ele>1178</ele>
        <time>2019-08-15T21:55:17Z</time>
      </trkpt>
      <trkpt lat="45.88915" lon="6.77874">
        <ele>1181</ele>
        <time>2019-08-15T21:55:33Z</time>
      </trkpt>
      <trkpt lat="45.88895" lon="6.77846">
        <ele>1190</ele>
        <time>2019-08-15T21:56:10Z</time>
      </trkpt>
      <trkpt lat="45.88894" lon="6.77831">
        <ele>1192</ele>
        <time>2019-08-15T21:56:24Z</time>
      </trkpt>
      <trkpt lat="45.88906" lon="6.77821">
        <ele>1191</ele>
        <time>2019-08-15T21:56:43Z</time>
      </trkpt>
      <trkpt lat="45.88911" lon="6.77813">
        <ele>1191</ele>
        <time>2019-08-15T21:56:53Z</time>
      </trkpt>
      <trkpt lat="45.88912" lon="6.77801">
        <ele>1192</ele>
        <time>2019-08-15T21:57:04Z</time>
      </trkpt>
      <trkpt lat="45.88905" lon="6.77791">
        <ele>1195</ele>
        <time>2019-08-15T21:57:17Z</time>
      </trkpt>
      <trkpt lat="45.88888" lon="6.7779">
        <ele>1199</ele>
        <time>2019-08-15T21:57:40Z</time>
      </trkpt>
      <trkpt lat="45.88878" lon="6.77781">
        <ele>1202</ele>
        <time>2019-08-15T21:57:55Z</time>
      </trkpt>
      <trkpt lat="45.88885" lon="6.77774">
        <ele>1202</ele>
        <time>2019-08-15T21:58:07Z</time>
      </trkpt>
      <trkpt lat="45.88886" lon="6.77774">
        <ele>1201</ele>
        <time>2019-08-15T21:58:08Z</time>
      </trkpt>
      <trkpt lat="45.88885" lon="6.77774">
        <ele>1202</ele>
        <time>2019-08-15T21:58:09Z</time>
      </trkpt>
      <trkpt lat="45.88878" lon="6.77781">
        <ele>1202</ele>
        <time>2019-08-15T21:58:21Z</time>
      </trkpt>
      <trkpt lat="45.88864" lon="6.77786">
        <ele>1205</ele>
        <time>2019-08-15T21:58:40Z</time>
      </trkpt>
      <trkpt lat="45.88855" lon="6.77789">
        <ele>1206</ele>
        <time>2019-08-15T21:58:52Z</time>
      </trkpt>
      <trkpt lat="45.88847" lon="6.77788">
        <ele>1208</ele>
        <time>2019-08-15T21:59:03Z</time>
      </trkpt>
      <trkpt lat="45.88841" lon="6.77782">
        <ele>1210</ele>
        <time>2019-08-15T21:59:13Z</time>
      </trkpt>
      <trkpt lat="45.88838" lon="6.77774">
        <ele>1212</ele>
        <time>2019-08-15T21:59:21Z</time>
      </trkpt>
      <trkpt lat="45.8884" lon="6.77762">
        <ele>1213</ele>
        <time>2019-08-15T21:59:33Z</time>
      </trkpt>
      <trkpt lat="45.88854" lon="6.77735">
        <ele>1213</ele>
        <time>2019-08-15T22:00:04Z</time>
      </trkpt>
      <trkpt lat="45.88855" lon="6.77729">
        <ele>1213</ele>
        <time>2019-08-15T22:00:10Z</time>
      </trkpt>
      <trkpt lat="45.88854" lon="6.77723">
        <ele>1214</ele>
        <time>2019-08-15T22:00:16Z</time>
      </trkpt>
      <trkpt lat="45.88846" lon="6.77711">
        <ele>1216</ele>
        <time>2019-08-15T22:00:31Z</time>
      </trkpt>
      <trkpt lat="45.88827" lon="6.777">
        <ele>1220</ele>
        <time>2019-08-15T22:00:58Z</time>
      </trkpt>
      <trkpt lat="45.88822" lon="6.777">
        <ele>1221</ele>
        <time>2019-08-15T22:01:05Z</time>
      </trkpt>
      <trkpt lat="45.88817" lon="6.77701">
        <ele>1221</ele>
        <time>2019-08-15T22:01:12Z</time>
      </trkpt>
      <trkpt lat="45.88808" lon="6.7771">
        <ele>1221</ele>
        <time>2019-08-15T22:01:26Z</time>
      </trkpt>
      <trkpt lat="45.88792" lon="6.77718">
        <ele>1221</ele>
        <time>2019-08-15T22:01:49Z</time>
      </trkpt>
      <trkpt lat="45.88785" lon="6.77719">
        <ele>1222</ele>
        <time>2019-08-15T22:01:58Z</time>
      </trkpt>
      <trkpt lat="45.88778" lon="6.7772">
        <ele>1222</ele>
        <time>2019-08-15T22:02:08Z</time>
      </trkpt>
      <trkpt lat="45.88774" lon="6.77717">
        <ele>1223</ele>
        <time>2019-08-15T22:02:14Z</time>
      </trkpt>
      <trkpt lat="45.88768" lon="6.77708">
        <ele>1224</ele>
        <time>2019-08-15T22:02:25Z</time>
      </trkpt>
      <trkpt lat="45.88768" lon="6.777">
        <ele>1225</ele>
        <time>2019-08-15T22:02:33Z</time>
      </trkpt>
      <trkpt lat="45.88772" lon="6.77692">
        <ele>1225</ele>
        <time>2019-08-15T22:02:42Z</time>
      </trkpt>
      <trkpt lat="45.88783" lon="6.77683">
        <ele>1225</ele>
        <time>2019-08-15T22:02:59Z</time>
      </trkpt>
      <trkpt lat="45.88805" lon="6.77667">
        <ele>1225</ele>
        <time>2019-08-15T22:03:32Z</time>
      </trkpt>
      <trkpt lat="45.8881" lon="6.77661">
        <ele>1225</ele>
        <time>2019-08-15T22:03:40Z</time>
      </trkpt>
      <trkpt lat="45.88815" lon="6.7764">
        <ele>1225</ele>
        <time>2019-08-15T22:04:01Z</time>
      </trkpt>
      <trkpt lat="45.88816" lon="6.77619">
        <ele>1226</ele>
        <time>2019-08-15T22:04:21Z</time>
      </trkpt>
      <trkpt lat="45.88814" lon="6.77607">
        <ele>1227</ele>
        <time>2019-08-15T22:04:32Z</time>
      </trkpt>
      <trkpt lat="45.88808" lon="6.77594">
        <ele>1229</ele>
        <time>2019-08-15T22:04:47Z</time>
      </trkpt>
      <trkpt lat="45.88787" lon="6.77564">
        <ele>1237</ele>
        <time>2019-08-15T22:05:26Z</time>
      </trkpt>
      <trkpt lat="45.88787" lon="6.77549">
        <ele>1240</ele>
        <time>2019-08-15T22:05:40Z</time>
      </trkpt>
      <trkpt lat="45.88784" lon="6.77528">
        <ele>1244</ele>
        <time>2019-08-15T22:06:00Z</time>
      </trkpt>
      <trkpt lat="45.88784" lon="6.77508">
        <ele>1248</ele>
        <time>2019-08-15T22:06:18Z</time>
      </trkpt>
      <trkpt lat="45.88789" lon="6.7749">
        <ele>1250</ele>
        <time>2019-08-15T22:06:36Z</time>
      </trkpt>
      <trkpt lat="45.88798" lon="6.77476">
        <ele>1252</ele>
        <time>2019-08-15T22:06:54Z</time>
      </trkpt>
      <trkpt lat="45.88805" lon="6.77454">
        <ele>1255</ele>
        <time>2019-08-15T22:07:17Z</time>
      </trkpt>
      <trkpt lat="45.88803" lon="6.77433">
        <ele>1260</ele>
        <time>2019-08-15T22:07:36Z</time>
      </trkpt>
      <trkpt lat="45.88801" lon="6.77422">
        <ele>1263</ele>
        <time>2019-08-15T22:07:47Z</time>
      </trkpt>
      <trkpt lat="45.88793" lon="6.77416">
        <ele>1266</ele>
        <time>2019-08-15T22:07:59Z</time>
      </trkpt>
      <trkpt lat="45.88734" lon="6.77418">
        <ele>1283</ele>
        <time>2019-08-15T22:09:18Z</time>
      </trkpt>
      <trkpt lat="45.88721" lon="6.77417">
        <ele>1286</ele>
        <time>2019-08-15T22:09:35Z</time>
      </trkpt>
      <trkpt lat="45.88699" lon="6.77426">
        <ele>1289</ele>
        <time>2019-08-15T22:10:06Z</time>
      </trkpt>
      <trkpt lat="45.88672" lon="6.77432">
        <ele>1294</ele>
        <time>2019-08-15T22:10:42Z</time>
      </trkpt>
      <trkpt lat="45.88655" lon="6.77424">
        <ele>1299</ele>
        <time>2019-08-15T22:11:06Z</time>
      </trkpt>
      <trkpt lat="45.88653" lon="6.77412">
        <ele>1303</ele>
        <time>2019-08-15T22:11:17Z</time>
      </trkpt>
      <trkpt lat="45.88659" lon="6.77398">
        <ele>1308</ele>
        <time>2019-08-15T22:11:33Z</time>
      </trkpt>
      <trkpt lat="45.88696" lon="6.7737">
        <ele>1311</ele>
        <time>2019-08-15T22:12:28Z</time>
      </trkpt>
      <trkpt lat="45.887" lon="6.77359">
        <ele>1314</ele>
        <time>2019-08-15T22:12:40Z</time>
      </trkpt>
      <trkpt lat="45.88692" lon="6.77346">
        <ele>1321</ele>
        <time>2019-08-15T22:12:56Z</time>
      </trkpt>
      <trkpt lat="45.88664" lon="6.77327">
        <ele>1333</ele>
        <time>2019-08-15T22:13:37Z</time>
      </trkpt>
      <trkpt lat="45.88643" lon="6.7731">
        <ele>1335</ele>
        <time>2019-08-15T22:14:10Z</time>
      </trkpt>
      <trkpt lat="45.8863" lon="6.77273">
        <ele>1340</ele>
        <time>2019-08-15T22:14:48Z</time>
      </trkpt>
      <trkpt lat="45.88597" lon="6.77246">
        <ele>1341</ele>
        <time>2019-08-15T22:15:39Z</time>
      </trkpt>
      <trkpt lat="45.88594" lon="6.77234">
        <ele>1342</ele>
        <time>2019-08-15T22:15:51Z</time>
      </trkpt>
      <trkpt lat="45.886" lon="6.77211">
        <ele>1346</ele>
        <time>2019-08-15T22:16:13Z</time>
      </trkpt>
      <trkpt lat="45.88601" lon="6.77171">
        <ele>1351</ele>
        <time>2019-08-15T22:16:51Z</time>
      </trkpt>
      <trkpt lat="45.88598" lon="6.77152">
        <ele>1355</ele>
        <time>2019-08-15T22:17:09Z</time>
      </trkpt>
      <trkpt lat="45.88581" lon="6.77129">
        <ele>1358</ele>
        <time>2019-08-15T22:17:40Z</time>
      </trkpt>
      <trkpt lat="45.88575" lon="6.7712">
        <ele>1359</ele>
        <time>2019-08-15T22:17:51Z</time>
      </trkpt>
      <trkpt lat="45.88577" lon="6.77111">
        <ele>1361</ele>
        <time>2019-08-15T22:18:00Z</time>
      </trkpt>
      <trkpt lat="45.88588" lon="6.77109">
        <ele>1362</ele>
        <time>2019-08-15T22:18:15Z</time>
      </trkpt>
      <trkpt lat="45.8861" lon="6.77104">
        <ele>1365</ele>
        <time>2019-08-15T22:18:45Z</time>
      </trkpt>
      <trkpt lat="45.88617" lon="6.77104">
        <ele>1366</ele>
        <time>2019-08-15T22:18:54Z</time>
      </trkpt>
      <trkpt lat="45.88648" lon="6.77094">
        <ele>1370</ele>
        <time>2019-08-15T22:19:36Z</time>
      </trkpt>
      <trkpt lat="45.88657" lon="6.77095">
        <ele>1371</ele>
        <time>2019-08-15T22:19:49Z</time>
      </trkpt>
      <trkpt lat="45.88673" lon="6.77104">
        <ele>1370</ele>
        <time>2019-08-15T22:20:11Z</time>
      </trkpt>
      <trkpt lat="45.88678" lon="6.77103">
        <ele>1369</ele>
        <time>2019-08-15T22:20:18Z</time>
      </trkpt>
      <trkpt lat="45.88681" lon="6.77098">
        <ele>1370</ele>
        <time>2019-08-15T22:20:24Z</time>
      </trkpt>
      <trkpt lat="45.8868" lon="6.77087">
        <ele>1372</ele>
        <time>2019-08-15T22:20:35Z</time>
      </trkpt>
      <trkpt lat="45.88676" lon="6.77072">
        <ele>1376</ele>
        <time>2019-08-15T22:20:50Z</time>
      </trkpt>
      <trkpt lat="45.88674" lon="6.77032">
        <ele>1387</ele>
        <time>2019-08-15T22:21:27Z</time>
      </trkpt>
      <trkpt lat="45.88685" lon="6.77022">
        <ele>1389</ele>
        <time>2019-08-15T22:21:44Z</time>
      </trkpt>
      <trkpt lat="45.88686" lon="6.77013">
        <ele>1391</ele>
        <time>2019-08-15T22:21:53Z</time>
      </trkpt>
      <trkpt lat="45.88682" lon="6.77005">
        <ele>1394</ele>
        <time>2019-08-15T22:22:02Z</time>
      </trkpt>
      <trkpt lat="45.88666" lon="6.76996">
        <ele>1398</ele>
        <time>2019-08-15T22:22:25Z</time>
      </trkpt>
      <trkpt lat="45.88665" lon="6.7699">
        <ele>1399</ele>
        <time>2019-08-15T22:22:30Z</time>
      </trkpt>
      <trkpt lat="45.88668" lon="6.76982">
        <ele>1402</ele>
        <time>2019-08-15T22:22:39Z</time>
      </trkpt>
      <trkpt lat="45.88679" lon="6.76964">
        <ele>1405</ele>
        <time>2019-08-15T22:23:01Z</time>
      </trkpt>
      <trkpt lat="45.88687" lon="6.76943">
        <ele>1409</ele>
        <time>2019-08-15T22:23:23Z</time>
      </trkpt>
      <trkpt lat="45.88693" lon="6.76929">
        <ele>1412</ele>
        <time>2019-08-15T22:23:39Z</time>
      </trkpt>
      <trkpt lat="45.88691" lon="6.76922">
        <ele>1414</ele>
        <time>2019-08-15T22:23:46Z</time>
      </trkpt>
      <trkpt lat="45.88686" lon="6.76916">
        <ele>1417</ele>
        <time>2019-08-15T22:23:54Z</time>
      </trkpt>
      <trkpt lat="45.88667" lon="6.76909">
        <ele>1421</ele>
        <time>2019-08-15T22:24:21Z</time>
      </trkpt>
      <trkpt lat="45.88662" lon="6.769">
        <ele>1423</ele>
        <time>2019-08-15T22:24:31Z</time>
      </trkpt>
      <trkpt lat="45.88661" lon="6.76868">
        <ele>1431</ele>
        <time>2019-08-15T22:25:01Z</time>
      </trkpt>
      <trkpt lat="45.88659" lon="6.7682">
        <ele>1443</ele>
        <time>2019-08-15T22:25:46Z</time>
      </trkpt>
      <trkpt lat="45.88659" lon="6.76802">
        <ele>1446</ele>
        <time>2019-08-15T22:26:02Z</time>
      </trkpt>
      <trkpt lat="45.88661" lon="6.76787">
        <ele>1450</ele>
        <time>2019-08-15T22:26:17Z</time>
      </trkpt>
      <trkpt lat="45.88661" lon="6.76775">
        <ele>1452</ele>
        <time>2019-08-15T22:26:28Z</time>
      </trkpt>
      <trkpt lat="45.8865" lon="6.76742">
        <ele>1456</ele>
        <time>2019-08-15T22:27:02Z</time>
      </trkpt>
      <trkpt lat="45.88647" lon="6.76727">
        <ele>1459</ele>
        <time>2019-08-15T22:27:16Z</time>
      </trkpt>
      <trkpt lat="45.8865" lon="6.76713">
        <ele>1463</ele>
        <time>2019-08-15T22:27:30Z</time>
      </trkpt>
      <trkpt lat="45.88658" lon="6.76708">
        <ele>1465</ele>
        <time>2019-08-15T22:27:41Z</time>
      </trkpt>
      <trkpt lat="45.88667" lon="6.76707">
        <ele>1466</ele>
        <time>2019-08-15T22:27:53Z</time>
      </trkpt>
      <trkpt lat="45.88674" lon="6.76708">
        <ele>1464</ele>
        <time>2019-08-15T22:28:03Z</time>
      </trkpt>
      <trkpt lat="45.88676" lon="6.767">
        <ele>1465</ele>
        <time>2019-08-15T22:28:11Z</time>
      </trkpt>
      <trkpt lat="45.88674" lon="6.76691">
        <ele>1467</ele>
        <time>2019-08-15T22:28:20Z</time>
      </trkpt>
      <trkpt lat="45.88667" lon="6.76671">
        <ele>1473</ele>
        <time>2019-08-15T22:28:40Z</time>
      </trkpt>
      <trkpt lat="45.88666" lon="6.76659">
        <ele>1476</ele>
        <time>2019-08-15T22:28:52Z</time>
      </trkpt>
      <trkpt lat="45.88667" lon="6.76641">
        <ele>1481</ele>
        <time>2019-08-15T22:29:08Z</time>
      </trkpt>
      <trkpt lat="45.88663" lon="6.76616">
        <ele>1487</ele>
        <time>2019-08-15T22:29:32Z</time>
      </trkpt>
      <trkpt lat="45.88658" lon="6.76602">
        <ele>1491</ele>
        <time>2019-08-15T22:29:47Z</time>
      </trkpt>
      <trkpt lat="45.88632" lon="6.76558">
        <ele>1502</ele>
        <time>2019-08-15T22:30:40Z</time>
      </trkpt>
      <trkpt lat="45.88621" lon="6.76544">
        <ele>1505</ele>
        <time>2019-08-15T22:31:00Z</time>
      </trkpt>
      <trkpt lat="45.8861" lon="6.76533">
        <ele>1507</ele>
        <time>2019-08-15T22:31:18Z</time>
      </trkpt>
      <trkpt lat="45.88561" lon="6.76467">
        <ele>1525</ele>
        <time>2019-08-15T22:32:48Z</time>
      </trkpt>
      <trkpt lat="45.8854" lon="6.76441">
        <ele>1533</ele>
        <time>2019-08-15T22:33:25Z</time>
      </trkpt>
      <trkpt lat="45.88529" lon="6.76421">
        <ele>1539</ele>
        <time>2019-08-15T22:33:48Z</time>
      </trkpt>
      <trkpt lat="45.88513" lon="6.76402">
        <ele>1544</ele>
        <time>2019-08-15T22:34:16Z</time>
      </trkpt>
      <trkpt lat="45.88486" lon="6.7639">
        <ele>1548</ele>
        <time>2019-08-15T22:34:54Z</time>
      </trkpt>
      <trkpt lat="45.88465" lon="6.76382">
        <ele>1551</ele>
        <time>2019-08-15T22:35:23Z</time>
      </trkpt>
      <trkpt lat="45.88444" lon="6.76374">
        <ele>1555</ele>
        <time>2019-08-15T22:35:52Z</time>
      </trkpt>
      <trkpt lat="45.88434" lon="6.76374">
        <ele>1555</ele>
        <time>2019-08-15T22:36:05Z</time>
      </trkpt>
      <trkpt lat="45.88418" lon="6.76365">
        <ele>1558</ele>
        <time>2019-08-15T22:36:28Z</time>
      </trkpt>
      <trkpt lat="45.88412" lon="6.76336">
        <ele>1563</ele>
        <time>2019-08-15T22:36:56Z</time>
      </trkpt>
      <trkpt lat="45.88405" lon="6.76312">
        <ele>1565</ele>
        <time>2019-08-15T22:37:20Z</time>
      </trkpt>
      <trkpt lat="45.88412" lon="6.76286">
        <ele>1569</ele>
        <time>2019-08-15T22:37:46Z</time>
      </trkpt>
      <trkpt lat="45.88408" lon="6.76261">
        <ele>1572</ele>
        <time>2019-08-15T22:38:10Z</time>
      </trkpt>
      <trkpt lat="45.88399" lon="6.76243">
        <ele>1573</ele>
        <time>2019-08-15T22:38:30Z</time>
      </trkpt>
      <trkpt lat="45.88399" lon="6.76188">
        <ele>1580</ele>
        <time>2019-08-15T22:39:22Z</time>
      </trkpt>
      <trkpt lat="45.8839" lon="6.76153">
        <ele>1584</ele>
        <time>2019-08-15T22:39:56Z</time>
      </trkpt>
      <trkpt lat="45.88375" lon="6.76123">
        <ele>1588</ele>
        <time>2019-08-15T22:40:31Z</time>
      </trkpt>
      <trkpt lat="45.88353" lon="6.76105">
        <ele>1588</ele>
        <time>2019-08-15T22:41:04Z</time>
      </trkpt>
      <trkpt lat="45.88323" lon="6.76094">
        <ele>1589</ele>
        <time>2019-08-15T22:41:46Z</time>
      </trkpt>
      <trkpt lat="45.88278" lon="6.76087">
        <ele>1596</ele>
        <time>2019-08-15T22:42:46Z</time>
      </trkpt>
      <trkpt lat="45.88253" lon="6.76082">
        <ele>1600</ele>
        <time>2019-08-15T22:43:20Z</time>
      </trkpt>
      <trkpt lat="45.88227" lon="6.76062">
        <ele>1606</ele>
        <time>2019-08-15T22:43:59Z</time>
      </trkpt>
      <trkpt lat="45.8821" lon="6.76042">
        <ele>1610</ele>
        <time>2019-08-15T22:44:28Z</time>
      </trkpt>
      <trkpt lat="45.88187" lon="6.7602">
        <ele>1613</ele>
        <time>2019-08-15T22:45:05Z</time>
      </trkpt>
      <trkpt lat="45.88169" lon="6.76005">
        <ele>1614</ele>
        <time>2019-08-15T22:45:33Z</time>
      </trkpt>
      <trkpt lat="45.88157" lon="6.75997">
        <ele>1619</ele>
        <time>2019-08-15T22:45:51Z</time>
      </trkpt>
      <trkpt lat="45.88136" lon="6.76004">
        <ele>1624</ele>
        <time>2019-08-15T22:46:19Z</time>
      </trkpt>
      <trkpt lat="45.88121" lon="6.76032">
        <ele>1624</ele>
        <time>2019-08-15T22:46:52Z</time>
      </trkpt>
      <trkpt lat="45.88112" lon="6.76068">
        <ele>1621</ele>
        <time>2019-08-15T22:47:28Z</time>
      </trkpt>
      <trkpt lat="45.88105" lon="6.76077">
        <ele>1621</ele>
        <time>2019-08-15T22:47:40Z</time>
      </trkpt>
      <trkpt lat="45.88069" lon="6.76085">
        <ele>1628</ele>
        <time>2019-08-15T22:48:29Z</time>
      </trkpt>
      <trkpt lat="45.88048" lon="6.76093">
        <ele>1631</ele>
        <time>2019-08-15T22:48:58Z</time>
      </trkpt>
      <trkpt lat="45.88025" lon="6.7611">
        <ele>1632</ele>
        <time>2019-08-15T22:49:32Z</time>
      </trkpt>
      <trkpt lat="45.88003" lon="6.761">
        <ele>1638</ele>
        <time>2019-08-15T22:50:03Z</time>
      </trkpt>
      <trkpt lat="45.87958" lon="6.76086">
        <ele>1650</ele>
        <time>2019-08-15T22:51:05Z</time>
      </trkpt>
      <trkpt lat="45.87937" lon="6.76078">
        <ele>1655</ele>
        <time>2019-08-15T22:51:34Z</time>
      </trkpt>
      <trkpt lat="45.87938" lon="6.76065">
        <ele>1658</ele>
        <time>2019-08-15T22:51:46Z</time>
      </trkpt>
      <trkpt lat="45.87952" lon="6.76056">
        <ele>1658</ele>
        <time>2019-08-15T22:52:06Z</time>
      </trkpt>
      <trkpt lat="45.87958" lon="6.76045">
        <ele>1660</ele>
        <time>2019-08-15T22:52:19Z</time>
      </trkpt>
      <trkpt lat="45.87957" lon="6.76027">
        <ele>1664</ele>
        <time>2019-08-15T22:52:36Z</time>
      </trkpt>
      <trkpt lat="45.87943" lon="6.76017">
        <ele>1668</ele>
        <time>2019-08-15T22:52:57Z</time>
      </trkpt>
      <trkpt lat="45.87918" lon="6.7601">
        <ele>1672</ele>
        <time>2019-08-15T22:53:31Z</time>
      </trkpt>
      <trkpt lat="45.87895" lon="6.76008">
        <ele>1672</ele>
        <time>2019-08-15T22:54:02Z</time>
      </trkpt>
      <trkpt lat="45.87853" lon="6.76002">
        <ele>1671</ele>
        <time>2019-08-15T22:54:58Z</time>
      </trkpt>
      <trkpt lat="45.87817" lon="6.76">
        <ele>1669</ele>
        <time>2019-08-15T22:55:46Z</time>
      </trkpt>
      <trkpt lat="45.87805" lon="6.76003">
        <ele>1669</ele>
        <time>2019-08-15T22:56:02Z</time>
      </trkpt>
      <trkpt lat="45.87794" lon="6.76005">
        <ele>1668</ele>
        <time>2019-08-15T22:56:17Z</time>
      </trkpt>
      <trkpt lat="45.87776" lon="6.7601">
        <ele>1667</ele>
        <time>2019-08-15T22:56:42Z</time>
      </trkpt>
      <trkpt lat="45.87746" lon="6.7602">
        <ele>1665</ele>
        <time>2019-08-15T22:57:23Z</time>
      </trkpt>
      <trkpt lat="45.87733" lon="6.76024">
        <ele>1663</ele>
        <time>2019-08-15T22:57:40Z</time>
      </trkpt>
      <trkpt lat="45.87729" lon="6.76024">
        <ele>1663</ele>
        <time>2019-08-15T22:57:46Z</time>
      </trkpt>
      <trkpt lat="45.87723" lon="6.76021">
        <ele>1662</ele>
        <time>2019-08-15T22:57:54Z</time>
      </trkpt>
      <trkpt lat="45.87723" lon="6.76021">
        <ele>1662</ele>
        <time>2019-08-15T22:57:54Z</time>
      </trkpt>
      <trkpt lat="45.87715" lon="6.76034">
        <ele>1661</ele>
        <time>2019-08-15T22:58:10Z</time>
      </trkpt>
      <trkpt lat="45.87713" lon="6.76042">
        <ele>1661</ele>
        <time>2019-08-15T22:58:18Z</time>
      </trkpt>
      <trkpt lat="45.87712" lon="6.76049">
        <ele>1660</ele>
        <time>2019-08-15T22:58:25Z</time>
      </trkpt>
      <trkpt lat="45.87702" lon="6.76069">
        <ele>1659</ele>
        <time>2019-08-15T22:58:48Z</time>
      </trkpt>
      <trkpt lat="45.87696" lon="6.76088">
        <ele>1659</ele>
        <time>2019-08-15T22:59:07Z</time>
      </trkpt>
      <trkpt lat="45.87691" lon="6.7611">
        <ele>1659</ele>
        <time>2019-08-15T22:59:29Z</time>
      </trkpt>
      <trkpt lat="45.87689" lon="6.76131">
        <ele>1658</ele>
        <time>2019-08-15T22:59:48Z</time>
      </trkpt>
      <trkpt lat="45.87689" lon="6.76136">
        <ele>1658</ele>
        <time>2019-08-15T22:59:53Z</time>
      </trkpt>
      <trkpt lat="45.87686" lon="6.7614">
        <ele>1658</ele>
        <time>2019-08-15T22:59:58Z</time>
      </trkpt>
      <trkpt lat="45.87682" lon="6.7614">
        <ele>1658</ele>
        <time>2019-08-15T23:00:04Z</time>
      </trkpt>
      <trkpt lat="45.87679" lon="6.76141">
        <ele>1658</ele>
        <time>2019-08-15T23:00:08Z</time>
      </trkpt>
      <trkpt lat="45.87672" lon="6.7614">
        <ele>1658</ele>
        <time>2019-08-15T23:00:17Z</time>
      </trkpt>
      <trkpt lat="45.87664" lon="6.76135">
        <ele>1657</ele>
        <time>2019-08-15T23:00:29Z</time>
      </trkpt>
      <trkpt lat="45.87655" lon="6.76127">
        <ele>1655</ele>
        <time>2019-08-15T23:00:43Z</time>
      </trkpt>
      <trkpt lat="45.87649" lon="6.76119">
        <ele>1654</ele>
        <time>2019-08-15T23:00:54Z</time>
      </trkpt>
      <trkpt lat="45.87639" lon="6.7609">
        <ele>1653</ele>
        <time>2019-08-15T23:01:24Z</time>
      </trkpt>
      <trkpt lat="45.87632" lon="6.76077">
        <ele>1651</ele>
        <time>2019-08-15T23:01:39Z</time>
      </trkpt>
      <trkpt lat="45.87629" lon="6.76066">
        <ele>1649</ele>
        <time>2019-08-15T23:01:50Z</time>
      </trkpt>
      <trkpt lat="45.87627" lon="6.76049">
        <ele>1648</ele>
        <time>2019-08-15T23:02:06Z</time>
      </trkpt>
      <trkpt lat="45.87625" lon="6.76043">
        <ele>1647</ele>
        <time>2019-08-15T23:02:13Z</time>
      </trkpt>
      <trkpt lat="45.8762" lon="6.76039">
        <ele>1645</ele>
        <time>2019-08-15T23:02:20Z</time>
      </trkpt>
      <trkpt lat="45.87613" lon="6.76036">
        <ele>1643</ele>
        <time>2019-08-15T23:02:30Z</time>
      </trkpt>
      <trkpt lat="45.87605" lon="6.76036">
        <ele>1642</ele>
        <time>2019-08-15T23:02:41Z</time>
      </trkpt>
      <trkpt lat="45.87598" lon="6.7604">
        <ele>1640</ele>
        <time>2019-08-15T23:02:51Z</time>
      </trkpt>
      <trkpt lat="45.87588" lon="6.76055">
        <ele>1640</ele>
        <time>2019-08-15T23:03:10Z</time>
      </trkpt>
      <trkpt lat="45.8758" lon="6.76081">
        <ele>1640</ele>
        <time>2019-08-15T23:03:36Z</time>
      </trkpt>
      <trkpt lat="45.87578" lon="6.76092">
        <ele>1639</ele>
        <time>2019-08-15T23:03:47Z</time>
      </trkpt>
      <trkpt lat="45.87579" lon="6.76117">
        <ele>1638</ele>
        <time>2019-08-15T23:04:10Z</time>
      </trkpt>
      <trkpt lat="45.87575" lon="6.76135">
        <ele>1636</ele>
        <time>2019-08-15T23:04:28Z</time>
      </trkpt>
      <trkpt lat="45.8758" lon="6.76171">
        <ele>1637</ele>
        <time>2019-08-15T23:05:02Z</time>
      </trkpt>
      <trkpt lat="45.87581" lon="6.76187">
        <ele>1637</ele>
        <time>2019-08-15T23:05:17Z</time>
      </trkpt>
      <trkpt lat="45.8758" lon="6.76192">
        <ele>1637</ele>
        <time>2019-08-15T23:05:22Z</time>
      </trkpt>
      <trkpt lat="45.87576" lon="6.76196">
        <ele>1636</ele>
        <time>2019-08-15T23:05:28Z</time>
      </trkpt>
      <trkpt lat="45.87562" lon="6.76205">
        <ele>1630</ele>
        <time>2019-08-15T23:05:49Z</time>
      </trkpt>
      <trkpt lat="45.87545" lon="6.76213">
        <ele>1623</ele>
        <time>2019-08-15T23:06:12Z</time>
      </trkpt>
      <trkpt lat="45.87532" lon="6.76215">
        <ele>1617</ele>
        <time>2019-08-15T23:06:30Z</time>
      </trkpt>
      <trkpt lat="45.87524" lon="6.76219">
        <ele>1614</ele>
        <time>2019-08-15T23:06:41Z</time>
      </trkpt>
      <trkpt lat="45.87522" lon="6.76219">
        <ele>1613</ele>
        <time>2019-08-15T23:06:44Z</time>
      </trkpt>
      <trkpt lat="45.8752" lon="6.76219">
        <ele>1612</ele>
        <time>2019-08-15T23:06:47Z</time>
      </trkpt>
      <trkpt lat="45.87516" lon="6.76214">
        <ele>1611</ele>
        <time>2019-08-15T23:06:54Z</time>
      </trkpt>
      <trkpt lat="45.87514" lon="6.76207">
        <ele>1609</ele>
        <time>2019-08-15T23:07:01Z</time>
      </trkpt>
      <trkpt lat="45.87511" lon="6.76203">
        <ele>1608</ele>
        <time>2019-08-15T23:07:06Z</time>
      </trkpt>
      <trkpt lat="45.87505" lon="6.76202">
        <ele>1605</ele>
        <time>2019-08-15T23:07:14Z</time>
      </trkpt>
      <trkpt lat="45.87503" lon="6.76203">
        <ele>1605</ele>
        <time>2019-08-15T23:07:17Z</time>
      </trkpt>
      <trkpt lat="45.87501" lon="6.76207">
        <ele>1604</ele>
        <time>2019-08-15T23:07:22Z</time>
      </trkpt>
      <trkpt lat="45.87493" lon="6.7623">
        <ele>1602</ele>
        <time>2019-08-15T23:07:45Z</time>
      </trkpt>
      <trkpt lat="45.87484" lon="6.76242">
        <ele>1601</ele>
        <time>2019-08-15T23:08:02Z</time>
      </trkpt>
      <trkpt lat="45.87478" lon="6.76246">
        <ele>1599</ele>
        <time>2019-08-15T23:08:11Z</time>
      </trkpt>
      <trkpt lat="45.8747" lon="6.76247">
        <ele>1598</ele>
        <time>2019-08-15T23:08:21Z</time>
      </trkpt>
      <trkpt lat="45.87462" lon="6.76246">
        <ele>1596</ele>
        <time>2019-08-15T23:08:32Z</time>
      </trkpt>
      <trkpt lat="45.87444" lon="6.76237">
        <ele>1590</ele>
        <time>2019-08-15T23:08:58Z</time>
      </trkpt>
      <trkpt lat="45.87434" lon="6.76228">
        <ele>1587</ele>
        <time>2019-08-15T23:09:13Z</time>
      </trkpt>
      <trkpt lat="45.87427" lon="6.76219">
        <ele>1584</ele>
        <time>2019-08-15T23:09:26Z</time>
      </trkpt>
      <trkpt lat="45.87422" lon="6.76209">
        <ele>1582</ele>
        <time>2019-08-15T23:09:37Z</time>
      </trkpt>
      <trkpt lat="45.87418" lon="6.76196">
        <ele>1580</ele>
        <time>2019-08-15T23:09:50Z</time>
      </trkpt>
      <trkpt lat="45.87417" lon="6.76181">
        <ele>1578</ele>
        <time>2019-08-15T23:10:04Z</time>
      </trkpt>
      <trkpt lat="45.87419" lon="6.76164">
        <ele>1577</ele>
        <time>2019-08-15T23:10:20Z</time>
      </trkpt>
      <trkpt lat="45.87418" lon="6.7615">
        <ele>1575</ele>
        <time>2019-08-15T23:10:34Z</time>
      </trkpt>
      <trkpt lat="45.87416" lon="6.76143">
        <ele>1574</ele>
        <time>2019-08-15T23:10:41Z</time>
      </trkpt>
      <trkpt lat="45.87406" lon="6.76133">
        <ele>1571</ele>
        <time>2019-08-15T23:10:57Z</time>
      </trkpt>
      <trkpt lat="45.87393" lon="6.76126">
        <ele>1567</ele>
        <time>2019-08-15T23:11:15Z</time>
      </trkpt>
      <trkpt lat="45.87373" lon="6.76118">
        <ele>1561</ele>
        <time>2019-08-15T23:11:43Z</time>
      </trkpt>
      <trkpt lat="45.87363" lon="6.76111">
        <ele>1558</ele>
        <time>2019-08-15T23:11:58Z</time>
      </trkpt>
      <trkpt lat="45.87353" lon="6.76098">
        <ele>1555</ele>
        <time>2019-08-15T23:12:16Z</time>
      </trkpt>
      <trkpt lat="45.87345" lon="6.76085">
        <ele>1553</ele>
        <time>2019-08-15T23:12:32Z</time>
      </trkpt>
      <trkpt lat="45.87334" lon="6.76072">
        <ele>1548</ele>
        <time>2019-08-15T23:12:51Z</time>
      </trkpt>
      <trkpt lat="45.87325" lon="6.7606">
        <ele>1544</ele>
        <time>2019-08-15T23:13:07Z</time>
      </trkpt>
      <trkpt lat="45.87319" lon="6.76049">
        <ele>1540</ele>
        <time>2019-08-15T23:13:20Z</time>
      </trkpt>
      <trkpt lat="45.87315" lon="6.76036">
        <ele>1537</ele>
        <time>2019-08-15T23:13:34Z</time>
      </trkpt>
      <trkpt lat="45.87313" lon="6.76025">
        <ele>1535</ele>
        <time>2019-08-15T23:13:44Z</time>
      </trkpt>
      <trkpt lat="45.87309" lon="6.76017">
        <ele>1533</ele>
        <time>2019-08-15T23:13:53Z</time>
      </trkpt>
      <trkpt lat="45.87299" lon="6.76008">
        <ele>1529</ele>
        <time>2019-08-15T23:14:09Z</time>
      </trkpt>
      <trkpt lat="45.87293" lon="6.76006">
        <ele>1527</ele>
        <time>2019-08-15T23:14:17Z</time>
      </trkpt>
      <trkpt lat="45.87283" lon="6.76006">
        <ele>1525</ele>
        <time>2019-08-15T23:14:31Z</time>
      </trkpt>
      <trkpt lat="45.87271" lon="6.76011">
        <ele>1523</ele>
        <time>2019-08-15T23:14:47Z</time>
      </trkpt>
      <trkpt lat="45.8726" lon="6.76017">
        <ele>1521</ele>
        <time>2019-08-15T23:15:03Z</time>
      </trkpt>
      <trkpt lat="45.87241" lon="6.76038">
        <ele>1519</ele>
        <time>2019-08-15T23:15:35Z</time>
      </trkpt>
      <trkpt lat="45.87219" lon="6.76072">
        <ele>1516</ele>
        <time>2019-08-15T23:16:18Z</time>
      </trkpt>
      <trkpt lat="45.87203" lon="6.76084">
        <ele>1513</ele>
        <time>2019-08-15T23:16:42Z</time>
      </trkpt>
      <trkpt lat="45.872" lon="6.76094">
        <ele>1512</ele>
        <time>2019-08-15T23:16:52Z</time>
      </trkpt>
      <trkpt lat="45.87198" lon="6.76102">
        <ele>1512</ele>
        <time>2019-08-15T23:17:00Z</time>
      </trkpt>
      <trkpt lat="45.87197" lon="6.76127">
        <ele>1512</ele>
        <time>2019-08-15T23:17:24Z</time>
      </trkpt>
      <trkpt lat="45.87195" lon="6.76139">
        <ele>1512</ele>
        <time>2019-08-15T23:17:35Z</time>
      </trkpt>
      <trkpt lat="45.87191" lon="6.76145">
        <ele>1511</ele>
        <time>2019-08-15T23:17:43Z</time>
      </trkpt>
      <trkpt lat="45.87184" lon="6.76153">
        <ele>1509</ele>
        <time>2019-08-15T23:17:55Z</time>
      </trkpt>
      <trkpt lat="45.87177" lon="6.76156">
        <ele>1507</ele>
        <time>2019-08-15T23:18:04Z</time>
      </trkpt>
      <trkpt lat="45.87168" lon="6.76154">
        <ele>1504</ele>
        <time>2019-08-15T23:18:17Z</time>
      </trkpt>
      <trkpt lat="45.87152" lon="6.76165">
        <ele>1500</ele>
        <time>2019-08-15T23:18:40Z</time>
      </trkpt>
      <trkpt lat="45.87144" lon="6.76185">
        <ele>1498</ele>
        <time>2019-08-15T23:19:02Z</time>
      </trkpt>
      <trkpt lat="45.87142" lon="6.76203">
        <ele>1497</ele>
        <time>2019-08-15T23:19:19Z</time>
      </trkpt>
      <trkpt lat="45.8714" lon="6.76207">
        <ele>1497</ele>
        <time>2019-08-15T23:19:23Z</time>
      </trkpt>
      <trkpt lat="45.87137" lon="6.7621">
        <ele>1496</ele>
        <time>2019-08-15T23:19:28Z</time>
      </trkpt>
      <trkpt lat="45.87128" lon="6.7621">
        <ele>1493</ele>
        <time>2019-08-15T23:19:40Z</time>
      </trkpt>
      <trkpt lat="45.87098" lon="6.76202">
        <ele>1485</ele>
        <time>2019-08-15T23:20:21Z</time>
      </trkpt>
      <trkpt lat="45.87073" lon="6.76188">
        <ele>1477</ele>
        <time>2019-08-15T23:20:57Z</time>
      </trkpt>
      <trkpt lat="45.87061" lon="6.76183">
        <ele>1473</ele>
        <time>2019-08-15T23:21:13Z</time>
      </trkpt>
      <trkpt lat="45.87053" lon="6.76178">
        <ele>1470</ele>
        <time>2019-08-15T23:21:25Z</time>
      </trkpt>
      <trkpt lat="45.87047" lon="6.7617">
        <ele>1467</ele>
        <time>2019-08-15T23:21:36Z</time>
      </trkpt>
      <trkpt lat="45.87037" lon="6.76149">
        <ele>1463</ele>
        <time>2019-08-15T23:21:59Z</time>
      </trkpt>
      <trkpt lat="45.87011" lon="6.76123">
        <ele>1454</ele>
        <time>2019-08-15T23:22:42Z</time>
      </trkpt>
      <trkpt lat="45.87006" lon="6.76121">
        <ele>1452</ele>
        <time>2019-08-15T23:22:49Z</time>
      </trkpt>
      <trkpt lat="45.87" lon="6.76123">
        <ele>1450</ele>
        <time>2019-08-15T23:22:57Z</time>
      </trkpt>
      <trkpt lat="45.86993" lon="6.76129">
        <ele>1449</ele>
        <time>2019-08-15T23:23:08Z</time>
      </trkpt>
      <trkpt lat="45.86988" lon="6.76142">
        <ele>1449</ele>
        <time>2019-08-15T23:23:22Z</time>
      </trkpt>
      <trkpt lat="45.86982" lon="6.7618">
        <ele>1450</ele>
        <time>2019-08-15T23:23:58Z</time>
      </trkpt>
      <trkpt lat="45.86976" lon="6.76218">
        <ele>1452</ele>
        <time>2019-08-15T23:24:34Z</time>
      </trkpt>
      <trkpt lat="45.86972" lon="6.76229">
        <ele>1452</ele>
        <time>2019-08-15T23:24:45Z</time>
      </trkpt>
      <trkpt lat="45.86965" lon="6.76229">
        <ele>1451</ele>
        <time>2019-08-15T23:24:55Z</time>
      </trkpt>
      <trkpt lat="45.86958" lon="6.76223">
        <ele>1449</ele>
        <time>2019-08-15T23:25:06Z</time>
      </trkpt>
      <trkpt lat="45.86945" lon="6.76161">
        <ele>1441</ele>
        <time>2019-08-15T23:26:06Z</time>
      </trkpt>
      <trkpt lat="45.86935" lon="6.76137">
        <ele>1438</ele>
        <time>2019-08-15T23:26:32Z</time>
      </trkpt>
      <trkpt lat="45.86917" lon="6.76122">
        <ele>1433</ele>
        <time>2019-08-15T23:27:00Z</time>
      </trkpt>
      <trkpt lat="45.86902" lon="6.76109">
        <ele>1430</ele>
        <time>2019-08-15T23:27:23Z</time>
      </trkpt>
      <trkpt lat="45.86869" lon="6.76091">
        <ele>1424</ele>
        <time>2019-08-15T23:28:10Z</time>
      </trkpt>
      <trkpt lat="45.86837" lon="6.76073">
        <ele>1418</ele>
        <time>2019-08-15T23:28:56Z</time>
      </trkpt>
      <trkpt lat="45.86824" lon="6.76056">
        <ele>1416</ele>
        <time>2019-08-15T23:29:19Z</time>
      </trkpt>
      <trkpt lat="45.86808" lon="6.76053">
        <ele>1415</ele>
        <time>2019-08-15T23:29:41Z</time>
      </trkpt>
      <trkpt lat="45.86787" lon="6.76032">
        <ele>1413</ele>
        <time>2019-08-15T23:30:15Z</time>
      </trkpt>
      <trkpt lat="45.86782" lon="6.7602">
        <ele>1412</ele>
        <time>2019-08-15T23:30:28Z</time>
      </trkpt>
      <trkpt lat="45.86764" lon="6.76019">
        <ele>1411</ele>
        <time>2019-08-15T23:30:52Z</time>
      </trkpt>
      <trkpt lat="45.86738" lon="6.76032">
        <ele>1410</ele>
        <time>2019-08-15T23:31:29Z</time>
      </trkpt>
      <trkpt lat="45.86717" lon="6.76048">
        <ele>1409</ele>
        <time>2019-08-15T23:32:01Z</time>
      </trkpt>
      <trkpt lat="45.86691" lon="6.76047">
        <ele>1406</ele>
        <time>2019-08-15T23:32:35Z</time>
      </trkpt>
      <trkpt lat="45.8668" lon="6.76055">
        <ele>1406</ele>
        <time>2019-08-15T23:32:52Z</time>
      </trkpt>
      <trkpt lat="45.86673" lon="6.76054">
        <ele>1405</ele>
        <time>2019-08-15T23:33:01Z</time>
      </trkpt>
      <trkpt lat="45.86669" lon="6.7605">
        <ele>1404</ele>
        <time>2019-08-15T23:33:08Z</time>
      </trkpt>
      <trkpt lat="45.86663" lon="6.76017">
        <ele>1403</ele>
        <time>2019-08-15T23:33:39Z</time>
      </trkpt>
      <trkpt lat="45.8665" lon="6.75974">
        <ele>1397</ele>
        <time>2019-08-15T23:34:23Z</time>
      </trkpt>
      <trkpt lat="45.86642" lon="6.75962">
        <ele>1394</ele>
        <time>2019-08-15T23:34:38Z</time>
      </trkpt>
      <trkpt lat="45.86627" lon="6.75929">
        <ele>1388</ele>
        <time>2019-08-15T23:35:15Z</time>
      </trkpt>
      <trkpt lat="45.86618" lon="6.75874">
        <ele>1381</ele>
        <time>2019-08-15T23:36:07Z</time>
      </trkpt>
      <trkpt lat="45.86612" lon="6.75858">
        <ele>1378</ele>
        <time>2019-08-15T23:36:24Z</time>
      </trkpt>
      <trkpt lat="45.8659" lon="6.75854">
        <ele>1372</ele>
        <time>2019-08-15T23:36:54Z</time>
      </trkpt>
      <trkpt lat="45.86569" lon="6.7584">
        <ele>1369</ele>
        <time>2019-08-15T23:37:25Z</time>
      </trkpt>
      <trkpt lat="45.86568" lon="6.75821">
        <ele>1366</ele>
        <time>2019-08-15T23:37:43Z</time>
      </trkpt>
      <trkpt lat="45.86571" lon="6.75793">
        <ele>1361</ele>
        <time>2019-08-15T23:38:09Z</time>
      </trkpt>
      <trkpt lat="45.8658" lon="6.7575">
        <ele>1354</ele>
        <time>2019-08-15T23:38:51Z</time>
      </trkpt>
      <trkpt lat="45.86577" lon="6.75712">
        <ele>1349</ele>
        <time>2019-08-15T23:39:26Z</time>
      </trkpt>
      <trkpt lat="45.86568" lon="6.75682">
        <ele>1345</ele>
        <time>2019-08-15T23:39:57Z</time>
      </trkpt>
      <trkpt lat="45.86529" lon="6.75649">
        <ele>1336</ele>
        <time>2019-08-15T23:40:57Z</time>
      </trkpt>
      <trkpt lat="45.86515" lon="6.75637">
        <ele>1332</ele>
        <time>2019-08-15T23:41:19Z</time>
      </trkpt>
      <trkpt lat="45.86512" lon="6.7563">
        <ele>1331</ele>
        <time>2019-08-15T23:41:26Z</time>
      </trkpt>
      <trkpt lat="45.86514" lon="6.75615">
        <ele>1329</ele>
        <time>2019-08-15T23:41:40Z</time>
      </trkpt>
      <trkpt lat="45.86506" lon="6.75605">
        <ele>1327</ele>
        <time>2019-08-15T23:41:55Z</time>
      </trkpt>
      <trkpt lat="45.86495" lon="6.75575">
        <ele>1321</ele>
        <time>2019-08-15T23:42:26Z</time>
      </trkpt>
      <trkpt lat="45.86494" lon="6.7557">
        <ele>1320</ele>
        <time>2019-08-15T23:42:31Z</time>
      </trkpt>
      <trkpt lat="45.86484" lon="6.7557">
        <ele>1318</ele>
        <time>2019-08-15T23:42:44Z</time>
      </trkpt>
      <trkpt lat="45.86475" lon="6.75565">
        <ele>1315</ele>
        <time>2019-08-15T23:42:57Z</time>
      </trkpt>
      <trkpt lat="45.86466" lon="6.75553">
        <ele>1310</ele>
        <time>2019-08-15T23:43:14Z</time>
      </trkpt>
      <trkpt lat="45.86461" lon="6.75551">
        <ele>1309</ele>
        <time>2019-08-15T23:43:21Z</time>
      </trkpt>
      <trkpt lat="45.8644" lon="6.75553">
        <ele>1303</ele>
        <time>2019-08-15T23:43:49Z</time>
      </trkpt>
      <trkpt lat="45.86422" lon="6.7555">
        <ele>1297</ele>
        <time>2019-08-15T23:44:13Z</time>
      </trkpt>
      <trkpt lat="45.86409" lon="6.75565">
        <ele>1297</ele>
        <time>2019-08-15T23:44:35Z</time>
      </trkpt>
      <trkpt lat="45.86391" lon="6.75591">
        <ele>1297</ele>
        <time>2019-08-15T23:45:09Z</time>
      </trkpt>
      <trkpt lat="45.86382" lon="6.7562">
        <ele>1299</ele>
        <time>2019-08-15T23:45:39Z</time>
      </trkpt>
      <trkpt lat="45.86377" lon="6.75633">
        <ele>1300</ele>
        <time>2019-08-15T23:45:52Z</time>
      </trkpt>
      <trkpt lat="45.86373" lon="6.75654">
        <ele>1302</ele>
        <time>2019-08-15T23:46:13Z</time>
      </trkpt>
      <trkpt lat="45.86368" lon="6.7567">
        <ele>1302</ele>
        <time>2019-08-15T23:46:29Z</time>
      </trkpt>
      <trkpt lat="45.86361" lon="6.75718">
        <ele>1305</ele>
        <time>2019-08-15T23:47:15Z</time>
      </trkpt>
      <trkpt lat="45.86359" lon="6.75747">
        <ele>1307</ele>
        <time>2019-08-15T23:47:42Z</time>
      </trkpt>
      <trkpt lat="45.8636" lon="6.75774">
        <ele>1310</ele>
        <time>2019-08-15T23:48:07Z</time>
      </trkpt>
      <trkpt lat="45.86354" lon="6.75792">
        <ele>1309</ele>
        <time>2019-08-15T23:48:25Z</time>
      </trkpt>
      <trkpt lat="45.86352" lon="6.75802">
        <ele>1308</ele>
        <time>2019-08-15T23:48:35Z</time>
      </trkpt>
      <trkpt lat="45.86345" lon="6.75805">
        <ele>1305</ele>
        <time>2019-08-15T23:48:45Z</time>
      </trkpt>
      <trkpt lat="45.86337" lon="6.75804">
        <ele>1301</ele>
        <time>2019-08-15T23:48:55Z</time>
      </trkpt>
      <trkpt lat="45.86332" lon="6.75805">
        <ele>1300</ele>
        <time>2019-08-15T23:49:02Z</time>
      </trkpt>
      <trkpt lat="45.86318" lon="6.75813">
        <ele>1308</ele>
        <time>2019-08-15T23:49:22Z</time>
      </trkpt>
      <trkpt lat="45.86314" lon="6.7582">
        <ele>1310</ele>
        <time>2019-08-15T23:49:31Z</time>
      </trkpt>
      <trkpt lat="45.86304" lon="6.75821">
        <ele>1315</ele>
        <time>2019-08-15T23:49:44Z</time>
      </trkpt>
      <trkpt lat="45.86303" lon="6.758">
        <ele>1313</ele>
        <time>2019-08-15T23:50:04Z</time>
      </trkpt>
      <trkpt lat="45.86293" lon="6.75818">
        <ele>1320</ele>
        <time>2019-08-15T23:50:25Z</time>
      </trkpt>
      <trkpt lat="45.86288" lon="6.75837">
        <ele>1324</ele>
        <time>2019-08-15T23:50:44Z</time>
      </trkpt>
      <trkpt lat="45.86279" lon="6.75853">
        <ele>1329</ele>
        <time>2019-08-15T23:51:03Z</time>
      </trkpt>
      <trkpt lat="45.86273" lon="6.75863">
        <ele>1332</ele>
        <time>2019-08-15T23:51:15Z</time>
      </trkpt>
      <trkpt lat="45.86266" lon="6.7587">
        <ele>1336</ele>
        <time>2019-08-15T23:51:27Z</time>
      </trkpt>
      <trkpt lat="45.8626" lon="6.75876">
        <ele>1339</ele>
        <time>2019-08-15T23:51:36Z</time>
      </trkpt>
      <trkpt lat="45.86252" lon="6.7589">
        <ele>1343</ele>
        <time>2019-08-15T23:51:53Z</time>
      </trkpt>
      <trkpt lat="45.86254" lon="6.75901">
        <ele>1342</ele>
        <time>2019-08-15T23:52:04Z</time>
      </trkpt>
      <trkpt lat="45.86245" lon="6.75903">
        <ele>1345</ele>
        <time>2019-08-15T23:52:16Z</time>
      </trkpt>
      <trkpt lat="45.86239" lon="6.75898">
        <ele>1347</ele>
        <time>2019-08-15T23:52:25Z</time>
      </trkpt>
      <trkpt lat="45.86238" lon="6.75885">
        <ele>1347</ele>
        <time>2019-08-15T23:52:37Z</time>
      </trkpt>
      <trkpt lat="45.86232" lon="6.75877">
        <ele>1348</ele>
        <time>2019-08-15T23:52:48Z</time>
      </trkpt>
      <trkpt lat="45.86234" lon="6.75856">
        <ele>1347</ele>
        <time>2019-08-15T23:53:08Z</time>
      </trkpt>
      <trkpt lat="45.86234" lon="6.7582">
        <ele>1345</ele>
        <time>2019-08-15T23:53:41Z</time>
      </trkpt>
      <trkpt lat="45.86223" lon="6.758">
        <ele>1346</ele>
        <time>2019-08-15T23:54:05Z</time>
      </trkpt>
      <trkpt lat="45.86217" lon="6.75789">
        <ele>1346</ele>
        <time>2019-08-15T23:54:18Z</time>
      </trkpt>
      <trkpt lat="45.86212" lon="6.75749">
        <ele>1343</ele>
        <time>2019-08-15T23:54:56Z</time>
      </trkpt>
      <trkpt lat="45.86203" lon="6.75716">
        <ele>1342</ele>
        <time>2019-08-15T23:55:29Z</time>
      </trkpt>
      <trkpt lat="45.86197" lon="6.75689">
        <ele>1340</ele>
        <time>2019-08-15T23:55:55Z</time>
      </trkpt>
      <trkpt lat="45.86189" lon="6.75668">
        <ele>1339</ele>
        <time>2019-08-15T23:56:17Z</time>
      </trkpt>
      <trkpt lat="45.86187" lon="6.75646">
        <ele>1337</ele>
        <time>2019-08-15T23:56:38Z</time>
      </trkpt>
      <trkpt lat="45.86181" lon="6.75614">
        <ele>1334</ele>
        <time>2019-08-15T23:57:09Z</time>
      </trkpt>
      <trkpt lat="45.86181" lon="6.75588">
        <ele>1331</ele>
        <time>2019-08-15T23:57:33Z</time>
      </trkpt>
      <trkpt lat="45.86174" lon="6.75572">
        <ele>1330</ele>
        <time>2019-08-15T23:57:51Z</time>
      </trkpt>
      <trkpt lat="45.86174" lon="6.75553">
        <ele>1327</ele>
        <time>2019-08-15T23:58:08Z</time>
      </trkpt>
      <trkpt lat="45.86165" lon="6.75518">
        <ele>1325</ele>
        <time>2019-08-15T23:58:43Z</time>
      </trkpt>
      <trkpt lat="45.86159" lon="6.75502">
        <ele>1325</ele>
        <time>2019-08-15T23:59:00Z</time>
      </trkpt>
      <trkpt lat="45.86156" lon="6.75482">
        <ele>1323</ele>
        <time>2019-08-15T23:59:19Z</time>
      </trkpt>
      <trkpt lat="45.86154" lon="6.75452">
        <ele>1321</ele>
        <time>2019-08-15T23:59:47Z</time>
      </trkpt>
      <trkpt lat="45.86158" lon="6.75427">
        <ele>1317</ele>
        <time>2019-08-16T00:00:11Z</time>
      </trkpt>
      <trkpt lat="45.86159" lon="6.75376">
        <ele>1309</ele>
        <time>2019-08-16T00:00:58Z</time>
      </trkpt>
      <trkpt lat="45.86161" lon="6.75326">
        <ele>1300</ele>
        <time>2019-08-16T00:01:45Z</time>
      </trkpt>
      <trkpt lat="45.86157" lon="6.75306">
        <ele>1300</ele>
        <time>2019-08-16T00:02:04Z</time>
      </trkpt>
      <trkpt lat="45.8615" lon="6.75292">
        <ele>1302</ele>
        <time>2019-08-16T00:02:20Z</time>
      </trkpt>
      <trkpt lat="45.86139" lon="6.7528">
        <ele>1306</ele>
        <time>2019-08-16T00:02:38Z</time>
      </trkpt>
      <trkpt lat="45.86134" lon="6.75272">
        <ele>1308</ele>
        <time>2019-08-16T00:02:48Z</time>
      </trkpt>
      <trkpt lat="45.86134" lon="6.75264">
        <ele>1308</ele>
        <time>2019-08-16T00:02:56Z</time>
      </trkpt>
      <trkpt lat="45.86136" lon="6.75251">
        <ele>1306</ele>
        <time>2019-08-16T00:03:08Z</time>
      </trkpt>
      <trkpt lat="45.8614" lon="6.75232">
        <ele>1302</ele>
        <time>2019-08-16T00:03:27Z</time>
      </trkpt>
      <trkpt lat="45.86149" lon="6.75201">
        <ele>1295</ele>
        <time>2019-08-16T00:03:58Z</time>
      </trkpt>
      <trkpt lat="45.86159" lon="6.75169">
        <ele>1286</ele>
        <time>2019-08-16T00:04:30Z</time>
      </trkpt>
      <trkpt lat="45.86163" lon="6.75111">
        <ele>1280</ele>
        <time>2019-08-16T00:05:25Z</time>
      </trkpt>
      <trkpt lat="45.86162" lon="6.75094">
        <ele>1280</ele>
        <time>2019-08-16T00:05:40Z</time>
      </trkpt>
      <trkpt lat="45.86156" lon="6.75085">
        <ele>1283</ele>
        <time>2019-08-16T00:05:52Z</time>
      </trkpt>
      <trkpt lat="45.86146" lon="6.75056">
        <ele>1285</ele>
        <time>2019-08-16T00:06:22Z</time>
      </trkpt>
      <trkpt lat="45.86145" lon="6.75026">
        <ele>1282</ele>
        <time>2019-08-16T00:06:50Z</time>
      </trkpt>
      <trkpt lat="45.86141" lon="6.75011">
        <ele>1282</ele>
        <time>2019-08-16T00:07:05Z</time>
      </trkpt>
      <trkpt lat="45.8614" lon="6.7497">
        <ele>1277</ele>
        <time>2019-08-16T00:07:43Z</time>
      </trkpt>
      <trkpt lat="45.86135" lon="6.74946">
        <ele>1277</ele>
        <time>2019-08-16T00:08:06Z</time>
      </trkpt>
      <trkpt lat="45.8611" lon="6.74906">
        <ele>1285</ele>
        <time>2019-08-16T00:08:56Z</time>
      </trkpt>
      <trkpt lat="45.86101" lon="6.74896">
        <ele>1289</ele>
        <time>2019-08-16T00:09:11Z</time>
      </trkpt>
      <trkpt lat="45.86095" lon="6.74878">
        <ele>1291</ele>
        <time>2019-08-16T00:09:30Z</time>
      </trkpt>
      <trkpt lat="45.86089" lon="6.74858">
        <ele>1294</ele>
        <time>2019-08-16T00:09:50Z</time>
      </trkpt>
      <trkpt lat="45.86089" lon="6.74847">
        <ele>1293</ele>
        <time>2019-08-16T00:10:00Z</time>
      </trkpt>
      <trkpt lat="45.86095" lon="6.74788">
        <ele>1292</ele>
        <time>2019-08-16T00:10:56Z</time>
      </trkpt>
      <trkpt lat="45.86104" lon="6.74743">
        <ele>1288</ele>
        <time>2019-08-16T00:11:39Z</time>
      </trkpt>
      <trkpt lat="45.8613" lon="6.74684">
        <ele>1273</ele>
        <time>2019-08-16T00:12:44Z</time>
      </trkpt>
      <trkpt lat="45.86141" lon="6.74644">
        <ele>1270</ele>
        <time>2019-08-16T00:13:24Z</time>
      </trkpt>
      <trkpt lat="45.86145" lon="6.74615">
        <ele>1273</ele>
        <time>2019-08-16T00:13:52Z</time>
      </trkpt>
      <trkpt lat="45.86145" lon="6.74575">
        <ele>1281</ele>
        <time>2019-08-16T00:14:29Z</time>
      </trkpt>
      <trkpt lat="45.86145" lon="6.74559">
        <ele>1284</ele>
        <time>2019-08-16T00:14:44Z</time>
      </trkpt>
      <trkpt lat="45.86156" lon="6.74521">
        <ele>1283</ele>
        <time>2019-08-16T00:15:22Z</time>
      </trkpt>
      <trkpt lat="45.86168" lon="6.74504">
        <ele>1278</ele>
        <time>2019-08-16T00:15:44Z</time>
      </trkpt>
      <trkpt lat="45.86174" lon="6.74471">
        <ele>1273</ele>
        <time>2019-08-16T00:16:16Z</time>
      </trkpt>
      <trkpt lat="45.86173" lon="6.74451">
        <ele>1273</ele>
        <time>2019-08-16T00:16:35Z</time>
      </trkpt>
      <trkpt lat="45.86148" lon="6.74413">
        <ele>1286</ele>
        <time>2019-08-16T00:17:23Z</time>
      </trkpt>
      <trkpt lat="45.86132" lon="6.74378">
        <ele>1283</ele>
        <time>2019-08-16T00:18:02Z</time>
      </trkpt>
      <trkpt lat="45.8612" lon="6.74366">
        <ele>1286</ele>
        <time>2019-08-16T00:18:22Z</time>
      </trkpt>
      <trkpt lat="45.86115" lon="6.74342">
        <ele>1281</ele>
        <time>2019-08-16T00:18:45Z</time>
      </trkpt>
      <trkpt lat="45.86101" lon="6.74326">
        <ele>1283</ele>
        <time>2019-08-16T00:19:09Z</time>
      </trkpt>
      <trkpt lat="45.86086" lon="6.74296">
        <ele>1281</ele>
        <time>2019-08-16T00:19:43Z</time>
      </trkpt>
      <trkpt lat="45.86063" lon="6.74261">
        <ele>1280</ele>
        <time>2019-08-16T00:20:28Z</time>
      </trkpt>
      <trkpt lat="45.86039" lon="6.74222">
        <ele>1282</ele>
        <time>2019-08-16T00:21:16Z</time>
      </trkpt>
      <trkpt lat="45.8603" lon="6.74199">
        <ele>1281</ele>
        <time>2019-08-16T00:21:41Z</time>
      </trkpt>
      <trkpt lat="45.86014" lon="6.74151">
        <ele>1276</ele>
        <time>2019-08-16T00:22:30Z</time>
      </trkpt>
      <trkpt lat="45.86" lon="6.74107">
        <ele>1269</ele>
        <time>2019-08-16T00:23:15Z</time>
      </trkpt>
      <trkpt lat="45.8599" lon="6.74067">
        <ele>1263</ele>
        <time>2019-08-16T00:23:55Z</time>
      </trkpt>
      <trkpt lat="45.85986" lon="6.74023">
        <ele>1252</ele>
        <time>2019-08-16T00:24:36Z</time>
      </trkpt>
      <trkpt lat="45.85978" lon="6.73995">
        <ele>1248</ele>
        <time>2019-08-16T00:25:04Z</time>
      </trkpt>
      <trkpt lat="45.85969" lon="6.73948">
        <ele>1238</ele>
        <time>2019-08-16T00:25:49Z</time>
      </trkpt>
      <trkpt lat="45.85955" lon="6.73927">
        <ele>1239</ele>
        <time>2019-08-16T00:26:16Z</time>
      </trkpt>
      <trkpt lat="45.85942" lon="6.73901">
        <ele>1237</ele>
        <time>2019-08-16T00:26:46Z</time>
      </trkpt>
      <trkpt lat="45.8594" lon="6.73879">
        <ele>1233</ele>
        <time>2019-08-16T00:27:07Z</time>
      </trkpt>
      <trkpt lat="45.85924" lon="6.7383">
        <ele>1229</ele>
        <time>2019-08-16T00:27:57Z</time>
      </trkpt>
      <trkpt lat="45.85921" lon="6.73748">
        <ele>1218</ele>
        <time>2019-08-16T00:29:13Z</time>
      </trkpt>
      <trkpt lat="45.85923" lon="6.73726">
        <ele>1216</ele>
        <time>2019-08-16T00:29:34Z</time>
      </trkpt>
      <trkpt lat="45.8594" lon="6.73704">
        <ele>1212</ele>
        <time>2019-08-16T00:30:05Z</time>
      </trkpt>
      <trkpt lat="45.85947" lon="6.73681">
        <ele>1210</ele>
        <time>2019-08-16T00:30:28Z</time>
      </trkpt>
      <trkpt lat="45.85949" lon="6.73674">
        <ele>1210</ele>
        <time>2019-08-16T00:30:35Z</time>
      </trkpt>
      <trkpt lat="45.8595" lon="6.73637">
        <ele>1207</ele>
        <time>2019-08-16T00:31:09Z</time>
      </trkpt>
      <trkpt lat="45.85949" lon="6.73619">
        <ele>1206</ele>
        <time>2019-08-16T00:31:26Z</time>
      </trkpt>
      <trkpt lat="45.85951" lon="6.73614">
        <ele>1205</ele>
        <time>2019-08-16T00:31:32Z</time>
      </trkpt>
      <trkpt lat="45.85968" lon="6.73574">
        <ele>1202</ele>
        <time>2019-08-16T00:32:15Z</time>
      </trkpt>
      <trkpt lat="45.85979" lon="6.73555">
        <ele>1201</ele>
        <time>2019-08-16T00:32:38Z</time>
      </trkpt>
      <trkpt lat="45.85997" lon="6.73539">
        <ele>1201</ele>
        <time>2019-08-16T00:33:06Z</time>
      </trkpt>
      <trkpt lat="45.8599" lon="6.73523">
        <ele>1199</ele>
        <time>2019-08-16T00:33:24Z</time>
      </trkpt>
      <trkpt lat="45.85985" lon="6.73518">
        <ele>1198</ele>
        <time>2019-08-16T00:33:32Z</time>
      </trkpt>
      <trkpt lat="45.85961" lon="6.73528">
        <ele>1195</ele>
        <time>2019-08-16T00:34:05Z</time>
      </trkpt>
      <trkpt lat="45.85951" lon="6.73534">
        <ele>1195</ele>
        <time>2019-08-16T00:34:20Z</time>
      </trkpt>
      <trkpt lat="45.85941" lon="6.73541">
        <ele>1195</ele>
        <time>2019-08-16T00:34:35Z</time>
      </trkpt>
      <trkpt lat="45.85936" lon="6.7354">
        <ele>1194</ele>
        <time>2019-08-16T00:34:41Z</time>
      </trkpt>
      <trkpt lat="45.85915" lon="6.73544">
        <ele>1192</ele>
        <time>2019-08-16T00:35:10Z</time>
      </trkpt>
      <trkpt lat="45.85889" lon="6.73547">
        <ele>1187</ele>
        <time>2019-08-16T00:35:44Z</time>
      </trkpt>
      <trkpt lat="45.85863" lon="6.73552">
        <ele>1183</ele>
        <time>2019-08-16T00:36:19Z</time>
      </trkpt>
      <trkpt lat="45.85837" lon="6.73557">
        <ele>1179</ele>
        <time>2019-08-16T00:36:54Z</time>
      </trkpt>
      <trkpt lat="45.85828" lon="6.73558">
        <ele>1177</ele>
        <time>2019-08-16T00:37:07Z</time>
      </trkpt>
      <trkpt lat="45.8579" lon="6.73548">
        <ele>1165</ele>
        <time>2019-08-16T00:37:58Z</time>
      </trkpt>
      <trkpt lat="45.85771" lon="6.73539">
        <ele>1157</ele>
        <time>2019-08-16T00:38:25Z</time>
      </trkpt>
      <trkpt lat="45.85743" lon="6.73546">
        <ele>1154</ele>
        <time>2019-08-16T00:39:03Z</time>
      </trkpt>
      <trkpt lat="45.85718" lon="6.73548">
        <ele>1148</ele>
        <time>2019-08-16T00:39:36Z</time>
      </trkpt>
      <trkpt lat="45.85692" lon="6.73567">
        <ele>1153</ele>
        <time>2019-08-16T00:40:15Z</time>
      </trkpt>
      <trkpt lat="45.85644" lon="6.73571">
        <ele>1141</ele>
        <time>2019-08-16T00:41:19Z</time>
      </trkpt>
      <trkpt lat="45.85625" lon="6.7357">
        <ele>1134</ele>
        <time>2019-08-16T00:41:45Z</time>
      </trkpt>
      <trkpt lat="45.85605" lon="6.73574">
        <ele>1129</ele>
        <time>2019-08-16T00:42:12Z</time>
      </trkpt>
      <trkpt lat="45.85579" lon="6.73574">
        <ele>1121</ele>
        <time>2019-08-16T00:42:46Z</time>
      </trkpt>
      <trkpt lat="45.85546" lon="6.73562">
        <ele>1111</ele>
        <time>2019-08-16T00:43:32Z</time>
      </trkpt>
      <trkpt lat="45.85518" lon="6.73559">
        <ele>1105</ele>
        <time>2019-08-16T00:44:09Z</time>
      </trkpt>
      <trkpt lat="45.85504" lon="6.73555">
        <ele>1101</ele>
        <time>2019-08-16T00:44:28Z</time>
      </trkpt>
      <trkpt lat="45.85482" lon="6.73526">
        <ele>1087</ele>
        <time>2019-08-16T00:45:08Z</time>
      </trkpt>
      <trkpt lat="45.85465" lon="6.73477">
        <ele>1073</ele>
        <time>2019-08-16T00:45:59Z</time>
      </trkpt>
      <trkpt lat="45.85461" lon="6.73452">
        <ele>1069</ele>
        <time>2019-08-16T00:46:23Z</time>
      </trkpt>
      <trkpt lat="45.85456" lon="6.73431">
        <ele>1066</ele>
        <time>2019-08-16T00:46:43Z</time>
      </trkpt>
      <trkpt lat="45.8541" lon="6.7341">
        <ele>1056</ele>
        <time>2019-08-16T00:47:48Z</time>
      </trkpt>
      <trkpt lat="45.8538" lon="6.73398">
        <ele>1056</ele>
        <time>2019-08-16T00:48:29Z</time>
      </trkpt>
      <trkpt lat="45.8537" lon="6.73387">
        <ele>1056</ele>
        <time>2019-08-16T00:48:46Z</time>
      </trkpt>
      <trkpt lat="45.85365" lon="6.73366">
        <ele>1056</ele>
        <time>2019-08-16T00:49:07Z</time>
      </trkpt>
      <trkpt lat="45.85324" lon="6.73371">
        <ele>1056</ele>
        <time>2019-08-16T00:50:02Z</time>
      </trkpt>
      <trkpt lat="45.85318" lon="6.73375">
        <ele>1055</ele>
        <time>2019-08-16T00:50:11Z</time>
      </trkpt>
      <trkpt lat="45.85313" lon="6.73379">
        <ele>1055</ele>
        <time>2019-08-16T00:50:18Z</time>
      </trkpt>
      <trkpt lat="45.85309" lon="6.73389">
        <ele>1054</ele>
        <time>2019-08-16T00:50:29Z</time>
      </trkpt>
      <trkpt lat="45.85289" lon="6.73407">
        <ele>1051</ele>
        <time>2019-08-16T00:51:00Z</time>
      </trkpt>
      <trkpt lat="45.85275" lon="6.73424">
        <ele>1051</ele>
        <time>2019-08-16T00:51:25Z</time>
      </trkpt>
      <trkpt lat="45.85272" lon="6.73429">
        <ele>1051</ele>
        <time>2019-08-16T00:51:31Z</time>
      </trkpt>
      <trkpt lat="45.85269" lon="6.73434">
        <ele>1051</ele>
        <time>2019-08-16T00:51:37Z</time>
      </trkpt>
      <trkpt lat="45.85225" lon="6.73493">
        <ele>1053</ele>
        <time>2019-08-16T00:52:57Z</time>
      </trkpt>
      <trkpt lat="45.8521" lon="6.73504">
        <ele>1054</ele>
        <time>2019-08-16T00:53:20Z</time>
      </trkpt>
      <trkpt lat="45.85199" lon="6.73509">
        <ele>1055</ele>
        <time>2019-08-16T00:53:35Z</time>
      </trkpt>
      <trkpt lat="45.85172" lon="6.73511">
        <ele>1054</ele>
        <time>2019-08-16T00:54:11Z</time>
      </trkpt>
      <trkpt lat="45.85138" lon="6.7351">
        <ele>1054</ele>
        <time>2019-08-16T00:54:57Z</time>
      </trkpt>
      <trkpt lat="45.8511" lon="6.73507">
        <ele>1054</ele>
        <time>2019-08-16T00:55:34Z</time>
      </trkpt>
      <trkpt lat="45.85091" lon="6.73507">
        <ele>1055</ele>
        <time>2019-08-16T00:56:00Z</time>
      </trkpt>
      <trkpt lat="45.85057" lon="6.73519">
        <ele>1059</ele>
        <time>2019-08-16T00:56:46Z</time>
      </trkpt>
      <trkpt lat="45.85031" lon="6.73529">
        <ele>1063</ele>
        <time>2019-08-16T00:57:22Z</time>
      </trkpt>
      <trkpt lat="45.85001" lon="6.73548">
        <ele>1067</ele>
        <time>2019-08-16T00:58:06Z</time>
      </trkpt>
      <trkpt lat="45.84961" lon="6.73565">
        <ele>1070</ele>
        <time>2019-08-16T00:59:02Z</time>
      </trkpt>
      <trkpt lat="45.84921" lon="6.73583">
        <ele>1073</ele>
        <time>2019-08-16T00:59:58Z</time>
      </trkpt>
      <trkpt lat="45.84895" lon="6.73587">
        <ele>1074</ele>
        <time>2019-08-16T01:00:33Z</time>
      </trkpt>
      <trkpt lat="45.84894" lon="6.73588">
        <ele>1074</ele>
        <time>2019-08-16T01:00:34Z</time>
      </trkpt>
      <trkpt lat="45.84868" lon="6.73593">
        <ele>1075</ele>
        <time>2019-08-16T01:01:09Z</time>
      </trkpt>
      <trkpt lat="45.84847" lon="6.73591">
        <ele>1075</ele>
        <time>2019-08-16T01:01:37Z</time>
      </trkpt>
      <trkpt lat="45.84829" lon="6.73612">
        <ele>1079</ele>
        <time>2019-08-16T01:02:08Z</time>
      </trkpt>
      <trkpt lat="45.84815" lon="6.73635">
        <ele>1086</ele>
        <time>2019-08-16T01:02:37Z</time>
      </trkpt>
      <trkpt lat="45.84809" lon="6.73656">
        <ele>1090</ele>
        <time>2019-08-16T01:02:58Z</time>
      </trkpt>
      <trkpt lat="45.84806" lon="6.73673">
        <ele>1094</ele>
        <time>2019-08-16T01:03:14Z</time>
      </trkpt>
      <trkpt lat="45.84801" lon="6.73684">
        <ele>1096</ele>
        <time>2019-08-16T01:03:26Z</time>
      </trkpt>
      <trkpt lat="45.8479" lon="6.73692">
        <ele>1100</ele>
        <time>2019-08-16T01:03:43Z</time>
      </trkpt>
      <trkpt lat="45.84764" lon="6.73707">
        <ele>1106</ele>
        <time>2019-08-16T01:04:20Z</time>
      </trkpt>
      <trkpt lat="45.84742" lon="6.73719">
        <ele>1111</ele>
        <time>2019-08-16T01:04:51Z</time>
      </trkpt>
      <trkpt lat="45.84712" lon="6.7373">
        <ele>1114</ele>
        <time>2019-08-16T01:05:33Z</time>
      </trkpt>
      <trkpt lat="45.84701" lon="6.73732">
        <ele>1115</ele>
        <time>2019-08-16T01:05:48Z</time>
      </trkpt>
      <trkpt lat="45.84692" lon="6.73751">
        <ele>1117</ele>
        <time>2019-08-16T01:06:09Z</time>
      </trkpt>
      <trkpt lat="45.84686" lon="6.73757">
        <ele>1118</ele>
        <time>2019-08-16T01:06:19Z</time>
      </trkpt>
      <trkpt lat="45.84679" lon="6.73761">
        <ele>1119</ele>
        <time>2019-08-16T01:06:29Z</time>
      </trkpt>
      <trkpt lat="45.84667" lon="6.73753">
        <ele>1118</ele>
        <time>2019-08-16T01:06:46Z</time>
      </trkpt>
      <trkpt lat="45.84661" lon="6.73751">
        <ele>1119</ele>
        <time>2019-08-16T01:06:55Z</time>
      </trkpt>
      <trkpt lat="45.84652" lon="6.73759">
        <ele>1121</ele>
        <time>2019-08-16T01:07:09Z</time>
      </trkpt>
      <trkpt lat="45.84647" lon="6.73774">
        <ele>1123</ele>
        <time>2019-08-16T01:07:24Z</time>
      </trkpt>
      <trkpt lat="45.84632" lon="6.73834">
        <ele>1132</ele>
        <time>2019-08-16T01:08:23Z</time>
      </trkpt>
      <trkpt lat="45.84616" lon="6.73894">
        <ele>1139</ele>
        <time>2019-08-16T01:09:23Z</time>
      </trkpt>
      <trkpt lat="45.84602" lon="6.73935">
        <ele>1142</ele>
        <time>2019-08-16T01:10:06Z</time>
      </trkpt>
      <trkpt lat="45.84589" lon="6.73935">
        <ele>1140</ele>
        <time>2019-08-16T01:10:23Z</time>
      </trkpt>
      <trkpt lat="45.84582" lon="6.73918">
        <ele>1139</ele>
        <time>2019-08-16T01:10:41Z</time>
      </trkpt>
      <trkpt lat="45.84581" lon="6.73913">
        <ele>1139</ele>
        <time>2019-08-16T01:10:46Z</time>
      </trkpt>
      <trkpt lat="45.84581" lon="6.73913">
        <ele>1139</ele>
        <time>2019-08-16T01:10:46Z</time>
      </trkpt>
      <trkpt lat="45.84583" lon="6.73903">
        <ele>1137</ele>
        <time>2019-08-16T01:10:56Z</time>
      </trkpt>
      <trkpt lat="45.84581" lon="6.7388">
        <ele>1137</ele>
        <time>2019-08-16T01:11:17Z</time>
      </trkpt>
      <trkpt lat="45.84574" lon="6.73842">
        <ele>1138</ele>
        <time>2019-08-16T01:11:54Z</time>
      </trkpt>
      <trkpt lat="45.84571" lon="6.7378">
        <ele>1134</ele>
        <time>2019-08-16T01:12:52Z</time>
      </trkpt>
      <trkpt lat="45.8457" lon="6.73735">
        <ele>1130</ele>
        <time>2019-08-16T01:13:34Z</time>
      </trkpt>
      <trkpt lat="45.84567" lon="6.73702">
        <ele>1129</ele>
        <time>2019-08-16T01:14:04Z</time>
      </trkpt>
      <trkpt lat="45.84558" lon="6.73681">
        <ele>1131</ele>
        <time>2019-08-16T01:14:27Z</time>
      </trkpt>
      <trkpt lat="45.8456" lon="6.73661">
        <ele>1128</ele>
        <time>2019-08-16T01:14:46Z</time>
      </trkpt>
      <trkpt lat="45.84563" lon="6.73639">
        <ele>1123</ele>
        <time>2019-08-16T01:15:07Z</time>
      </trkpt>
      <trkpt lat="45.84559" lon="6.7363">
        <ele>1124</ele>
        <time>2019-08-16T01:15:17Z</time>
      </trkpt>
      <trkpt lat="45.84559" lon="6.73614">
        <ele>1122</ele>
        <time>2019-08-16T01:15:32Z</time>
      </trkpt>
      <trkpt lat="45.84568" lon="6.73546">
        <ele>1108</ele>
        <time>2019-08-16T01:16:36Z</time>
      </trkpt>
      <trkpt lat="45.8457" lon="6.73525">
        <ele>1103</ele>
        <time>2019-08-16T01:16:56Z</time>
      </trkpt>
      <trkpt lat="45.84576" lon="6.73521">
        <ele>1101</ele>
        <time>2019-08-16T01:17:05Z</time>
      </trkpt>
      <trkpt lat="45.84583" lon="6.73516">
        <ele>1098</ele>
        <time>2019-08-16T01:17:15Z</time>
      </trkpt>
      <trkpt lat="45.8458" lon="6.73509">
        <ele>1097</ele>
        <time>2019-08-16T01:17:23Z</time>
      </trkpt>
      <trkpt lat="45.84579" lon="6.735">
        <ele>1096</ele>
        <time>2019-08-16T01:17:31Z</time>
      </trkpt>
      <trkpt lat="45.8459" lon="6.73495">
        <ele>1092</ele>
        <time>2019-08-16T01:17:47Z</time>
      </trkpt>
      <trkpt lat="45.84601" lon="6.73492">
        <ele>1089</ele>
        <time>2019-08-16T01:18:02Z</time>
      </trkpt>
      <trkpt lat="45.84602" lon="6.73484">
        <ele>1086</ele>
        <time>2019-08-16T01:18:09Z</time>
      </trkpt>
      <trkpt lat="45.84597" lon="6.73481">
        <ele>1087</ele>
        <time>2019-08-16T01:18:16Z</time>
      </trkpt>
      <trkpt lat="45.84592" lon="6.73476">
        <ele>1086</ele>
        <time>2019-08-16T01:18:24Z</time>
      </trkpt>
      <trkpt lat="45.84588" lon="6.73439">
        <ele>1075</ele>
        <time>2019-08-16T01:18:59Z</time>
      </trkpt>
      <trkpt lat="45.84585" lon="6.73419">
        <ele>1070</ele>
        <time>2019-08-16T01:19:18Z</time>
      </trkpt>
      <trkpt lat="45.84586" lon="6.73407">
        <ele>1067</ele>
        <time>2019-08-16T01:19:30Z</time>
      </trkpt>
      <trkpt lat="45.84578" lon="6.73367">
        <ele>1059</ele>
        <time>2019-08-16T01:20:08Z</time>
      </trkpt>
      <trkpt lat="45.84574" lon="6.73362">
        <ele>1058</ele>
        <time>2019-08-16T01:20:15Z</time>
      </trkpt>
      <trkpt lat="45.84551" lon="6.73358">
        <ele>1056</ele>
        <time>2019-08-16T01:20:46Z</time>
      </trkpt>
      <trkpt lat="45.84528" lon="6.73349">
        <ele>1053</ele>
        <time>2019-08-16T01:21:18Z</time>
      </trkpt>
      <trkpt lat="45.84505" lon="6.73337">
        <ele>1049</ele>
        <time>2019-08-16T01:21:51Z</time>
      </trkpt>
      <trkpt lat="45.84436" lon="6.73293">
        <ele>1041</ele>
        <time>2019-08-16T01:23:31Z</time>
      </trkpt>
      <trkpt lat="45.84427" lon="6.73281">
        <ele>1039</ele>
        <time>2019-08-16T01:23:48Z</time>
      </trkpt>
      <trkpt lat="45.84419" lon="6.7326">
        <ele>1034</ele>
        <time>2019-08-16T01:24:10Z</time>
      </trkpt>
      <trkpt lat="45.84417" lon="6.73243">
        <ele>1032</ele>
        <time>2019-08-16T01:24:26Z</time>
      </trkpt>
      <trkpt lat="45.84417" lon="6.73231">
        <ele>1031</ele>
        <time>2019-08-16T01:24:37Z</time>
      </trkpt>
      <trkpt lat="45.8442" lon="6.7322">
        <ele>1030</ele>
        <time>2019-08-16T01:24:48Z</time>
      </trkpt>
      <trkpt lat="45.8443" lon="6.73201">
        <ele>1030</ele>
        <time>2019-08-16T01:25:10Z</time>
      </trkpt>
      <trkpt lat="45.8443" lon="6.73193">
        <ele>1029</ele>
        <time>2019-08-16T01:25:18Z</time>
      </trkpt>
      <trkpt lat="45.8443" lon="6.73188">
        <ele>1029</ele>
        <time>2019-08-16T01:25:22Z</time>
      </trkpt>
      <trkpt lat="45.84428" lon="6.73164">
        <ele>1027</ele>
        <time>2019-08-16T01:25:45Z</time>
      </trkpt>
      <trkpt lat="45.84419" lon="6.73115">
        <ele>1025</ele>
        <time>2019-08-16T01:26:32Z</time>
      </trkpt>
      <trkpt lat="45.84407" lon="6.73067">
        <ele>1022</ele>
        <time>2019-08-16T01:27:19Z</time>
      </trkpt>
      <trkpt lat="45.84404" lon="6.73054">
        <ele>1022</ele>
        <time>2019-08-16T01:27:32Z</time>
      </trkpt>
      <trkpt lat="45.84383" lon="6.73034">
        <ele>1021</ele>
        <time>2019-08-16T01:28:06Z</time>
      </trkpt>
      <trkpt lat="45.84379" lon="6.73025">
        <ele>1021</ele>
        <time>2019-08-16T01:28:16Z</time>
      </trkpt>
      <trkpt lat="45.8438" lon="6.72974">
        <ele>1019</ele>
        <time>2019-08-16T01:29:03Z</time>
      </trkpt>
      <trkpt lat="45.84377" lon="6.72957">
        <ele>1018</ele>
        <time>2019-08-16T01:29:19Z</time>
      </trkpt>
      <trkpt lat="45.84366" lon="6.72914">
        <ele>1016</ele>
        <time>2019-08-16T01:30:02Z</time>
      </trkpt>
      <trkpt lat="45.84361" lon="6.72902">
        <ele>1016</ele>
        <time>2019-08-16T01:30:15Z</time>
      </trkpt>
      <trkpt lat="45.84341" lon="6.72877">
        <ele>1014</ele>
        <time>2019-08-16T01:30:50Z</time>
      </trkpt>
      <trkpt lat="45.84335" lon="6.72862">
        <ele>1013</ele>
        <time>2019-08-16T01:31:07Z</time>
      </trkpt>
      <trkpt lat="45.84332" lon="6.72841">
        <ele>1012</ele>
        <time>2019-08-16T01:31:26Z</time>
      </trkpt>
      <trkpt lat="45.84332" lon="6.72825">
        <ele>1013</ele>
        <time>2019-08-16T01:31:41Z</time>
      </trkpt>
      <trkpt lat="45.84327" lon="6.72784">
        <ele>1018</ele>
        <time>2019-08-16T01:32:20Z</time>
      </trkpt>
      <trkpt lat="45.84328" lon="6.72775">
        <ele>1019</ele>
        <time>2019-08-16T01:32:28Z</time>
      </trkpt>
      <trkpt lat="45.84332" lon="6.7277">
        <ele>1020</ele>
        <time>2019-08-16T01:32:36Z</time>
      </trkpt>
      <trkpt lat="45.84337" lon="6.72769">
        <ele>1020</ele>
        <time>2019-08-16T01:32:42Z</time>
      </trkpt>
      <trkpt lat="45.84352" lon="6.72767">
        <ele>1021</ele>
        <time>2019-08-16T01:33:02Z</time>
      </trkpt>
      <trkpt lat="45.84368" lon="6.72762">
        <ele>1023</ele>
        <time>2019-08-16T01:33:24Z</time>
      </trkpt>
      <trkpt lat="45.84383" lon="6.72756">
        <ele>1024</ele>
        <time>2019-08-16T01:33:45Z</time>
      </trkpt>
      <trkpt lat="45.84407" lon="6.7274">
        <ele>1029</ele>
        <time>2019-08-16T01:34:20Z</time>
      </trkpt>
      <trkpt lat="45.84419" lon="6.72728">
        <ele>1033</ele>
        <time>2019-08-16T01:34:40Z</time>
      </trkpt>
      <trkpt lat="45.84424" lon="6.72723">
        <ele>1034</ele>
        <time>2019-08-16T01:34:48Z</time>
      </trkpt>
      <trkpt lat="45.84427" lon="6.72713">
        <ele>1037</ele>
        <time>2019-08-16T01:34:58Z</time>
      </trkpt>
      <trkpt lat="45.84424" lon="6.72704">
        <ele>1039</ele>
        <time>2019-08-16T01:35:07Z</time>
      </trkpt>
      <trkpt lat="45.84415" lon="6.72687">
        <ele>1043</ele>
        <time>2019-08-16T01:35:27Z</time>
      </trkpt>
      <trkpt lat="45.84403" lon="6.72671">
        <ele>1046</ele>
        <time>2019-08-16T01:35:49Z</time>
      </trkpt>
      <trkpt lat="45.84382" lon="6.72655">
        <ele>1050</ele>
        <time>2019-08-16T01:36:21Z</time>
      </trkpt>
      <trkpt lat="45.84374" lon="6.72655">
        <ele>1049</ele>
        <time>2019-08-16T01:36:31Z</time>
      </trkpt>
      <trkpt lat="45.84356" lon="6.72658">
        <ele>1046</ele>
        <time>2019-08-16T01:36:56Z</time>
      </trkpt>
      <trkpt lat="45.84347" lon="6.72656">
        <ele>1045</ele>
        <time>2019-08-16T01:37:08Z</time>
      </trkpt>
      <trkpt lat="45.84321" lon="6.72623">
        <ele>1054</ele>
        <time>2019-08-16T01:37:54Z</time>
      </trkpt>
      <trkpt lat="45.84304" lon="6.72613">
        <ele>1057</ele>
        <time>2019-08-16T01:38:19Z</time>
      </trkpt>
      <trkpt lat="45.84297" lon="6.72608">
        <ele>1058</ele>
        <time>2019-08-16T01:38:29Z</time>
      </trkpt>
      <trkpt lat="45.84273" lon="6.72594">
        <ele>1062</ele>
        <time>2019-08-16T01:39:04Z</time>
      </trkpt>
      <trkpt lat="45.84253" lon="6.72596">
        <ele>1061</ele>
        <time>2019-08-16T01:39:30Z</time>
      </trkpt>
      <trkpt lat="45.84234" lon="6.72591">
        <ele>1063</ele>
        <time>2019-08-16T01:39:56Z</time>
      </trkpt>
      <trkpt lat="45.84224" lon="6.7258">
        <ele>1068</ele>
        <time>2019-08-16T01:40:13Z</time>
      </trkpt>
      <trkpt lat="45.84202" lon="6.72584">
        <ele>1066</ele>
        <time>2019-08-16T01:40:43Z</time>
      </trkpt>
      <trkpt lat="45.84189" lon="6.7258">
        <ele>1069</ele>
        <time>2019-08-16T01:41:00Z</time>
      </trkpt>
      <trkpt lat="45.84177" lon="6.72565">
        <ele>1077</ele>
        <time>2019-08-16T01:41:22Z</time>
      </trkpt>
      <trkpt lat="45.84156" lon="6.7255">
        <ele>1085</ele>
        <time>2019-08-16T01:41:53Z</time>
      </trkpt>
      <trkpt lat="45.84139" lon="6.72558">
        <ele>1080</ele>
        <time>2019-08-16T01:42:17Z</time>
      </trkpt>
      <trkpt lat="45.84124" lon="6.72546">
        <ele>1085</ele>
        <time>2019-08-16T01:42:40Z</time>
      </trkpt>
      <trkpt lat="45.84098" lon="6.72552">
        <ele>1081</ele>
        <time>2019-08-16T01:43:15Z</time>
      </trkpt>
      <trkpt lat="45.84066" lon="6.72542">
        <ele>1082</ele>
        <time>2019-08-16T01:43:59Z</time>
      </trkpt>
      <trkpt lat="45.84052" lon="6.72529">
        <ele>1086</ele>
        <time>2019-08-16T01:44:21Z</time>
      </trkpt>
      <trkpt lat="45.84026" lon="6.72517">
        <ele>1086</ele>
        <time>2019-08-16T01:44:57Z</time>
      </trkpt>
      <trkpt lat="45.84017" lon="6.72501">
        <ele>1090</ele>
        <time>2019-08-16T01:45:16Z</time>
      </trkpt>
      <trkpt lat="45.83986" lon="6.72502">
        <ele>1083</ele>
        <time>2019-08-16T01:45:58Z</time>
      </trkpt>
      <trkpt lat="45.83965" lon="6.72501">
        <ele>1078</ele>
        <time>2019-08-16T01:46:26Z</time>
      </trkpt>
      <trkpt lat="45.83955" lon="6.72505">
        <ele>1075</ele>
        <time>2019-08-16T01:46:40Z</time>
      </trkpt>
      <trkpt lat="45.83946" lon="6.72514">
        <ele>1072</ele>
        <time>2019-08-16T01:46:54Z</time>
      </trkpt>
      <trkpt lat="45.83924" lon="6.72527">
        <ele>1066</ele>
        <time>2019-08-16T01:47:26Z</time>
      </trkpt>
      <trkpt lat="45.83908" lon="6.72522">
        <ele>1064</ele>
        <time>2019-08-16T01:47:48Z</time>
      </trkpt>
      <trkpt lat="45.83904" lon="6.72506">
        <ele>1066</ele>
        <time>2019-08-16T01:48:04Z</time>
      </trkpt>
      <trkpt lat="45.83909" lon="6.7248">
        <ele>1073</ele>
        <time>2019-08-16T01:48:29Z</time>
      </trkpt>
      <trkpt lat="45.83905" lon="6.72466">
        <ele>1077</ele>
        <time>2019-08-16T01:48:43Z</time>
      </trkpt>
      <trkpt lat="45.839" lon="6.72448">
        <ele>1082</ele>
        <time>2019-08-16T01:49:01Z</time>
      </trkpt>
      <trkpt lat="45.83897" lon="6.72431">
        <ele>1086</ele>
        <time>2019-08-16T01:49:17Z</time>
      </trkpt>
      <trkpt lat="45.83881" lon="6.72418">
        <ele>1086</ele>
        <time>2019-08-16T01:49:42Z</time>
      </trkpt>
      <trkpt lat="45.83881" lon="6.72418">
        <ele>1086</ele>
        <time>2019-08-16T01:49:42Z</time>
      </trkpt>
      <trkpt lat="45.83878" lon="6.72444">
        <ele>1079</ele>
        <time>2019-08-16T01:50:06Z</time>
      </trkpt>
      <trkpt lat="45.83871" lon="6.72467">
        <ele>1072</ele>
        <time>2019-08-16T01:50:29Z</time>
      </trkpt>
      <trkpt lat="45.83861" lon="6.72491">
        <ele>1065</ele>
        <time>2019-08-16T01:50:55Z</time>
      </trkpt>
      <trkpt lat="45.83841" lon="6.72516">
        <ele>1060</ele>
        <time>2019-08-16T01:51:31Z</time>
      </trkpt>
      <trkpt lat="45.83835" lon="6.72517">
        <ele>1059</ele>
        <time>2019-08-16T01:51:39Z</time>
      </trkpt>
      <trkpt lat="45.83827" lon="6.72516">
        <ele>1059</ele>
        <time>2019-08-16T01:51:50Z</time>
      </trkpt>
      <trkpt lat="45.83816" lon="6.72517">
        <ele>1058</ele>
        <time>2019-08-16T01:52:04Z</time>
      </trkpt>
      <trkpt lat="45.83805" lon="6.72526">
        <ele>1057</ele>
        <time>2019-08-16T01:52:21Z</time>
      </trkpt>
      <trkpt lat="45.83799" lon="6.72525">
        <ele>1057</ele>
        <time>2019-08-16T01:52:29Z</time>
      </trkpt>
      <trkpt lat="45.83794" lon="6.72516">
        <ele>1057</ele>
        <time>2019-08-16T01:52:40Z</time>
      </trkpt>
      <trkpt lat="45.83784" lon="6.72488">
        <ele>1060</ele>
        <time>2019-08-16T01:53:09Z</time>
      </trkpt>
      <trkpt lat="45.83772" lon="6.72477">
        <ele>1061</ele>
        <time>2019-08-16T01:53:28Z</time>
      </trkpt>
      <trkpt lat="45.83756" lon="6.72478">
        <ele>1060</ele>
        <time>2019-08-16T01:53:50Z</time>
      </trkpt>
      <trkpt lat="45.83745" lon="6.72481">
        <ele>1059</ele>
        <time>2019-08-16T01:54:05Z</time>
      </trkpt>
      <trkpt lat="45.83723" lon="6.72491">
        <ele>1056</ele>
        <time>2019-08-16T01:54:35Z</time>
      </trkpt>
      <trkpt lat="45.83694" lon="6.72499">
        <ele>1054</ele>
        <time>2019-08-16T01:55:15Z</time>
      </trkpt>
      <trkpt lat="45.83655" lon="6.72508">
        <ele>1053</ele>
        <time>2019-08-16T01:56:07Z</time>
      </trkpt>
      <trkpt lat="45.83631" lon="6.72515">
        <ele>1055</ele>
        <time>2019-08-16T01:56:40Z</time>
      </trkpt>
      <trkpt lat="45.83626" lon="6.72517">
        <ele>1055</ele>
        <time>2019-08-16T01:56:47Z</time>
      </trkpt>
      <trkpt lat="45.83592" lon="6.72529">
        <ele>1058</ele>
        <time>2019-08-16T01:57:34Z</time>
      </trkpt>
      <trkpt lat="45.83535" lon="6.72548">
        <ele>1061</ele>
        <time>2019-08-16T01:58:52Z</time>
      </trkpt>
      <trkpt lat="45.83511" lon="6.72555">
        <ele>1061</ele>
        <time>2019-08-16T01:59:25Z</time>
      </trkpt>
      <trkpt lat="45.83501" lon="6.72556">
        <ele>1061</ele>
        <time>2019-08-16T01:59:38Z</time>
      </trkpt>
      <trkpt lat="45.8347" lon="6.72549">
        <ele>1062</ele>
        <time>2019-08-16T02:00:20Z</time>
      </trkpt>
      <trkpt lat="45.83447" lon="6.72541">
        <ele>1062</ele>
        <time>2019-08-16T02:00:51Z</time>
      </trkpt>
      <trkpt lat="45.83438" lon="6.72535">
        <ele>1063</ele>
        <time>2019-08-16T02:01:05Z</time>
      </trkpt>
      <trkpt lat="45.83432" lon="6.7254">
        <ele>1062</ele>
        <time>2019-08-16T02:01:14Z</time>
      </trkpt>
      <trkpt lat="45.83422" lon="6.72545">
        <ele>1062</ele>
        <time>2019-08-16T02:01:28Z</time>
      </trkpt>
      <trkpt lat="45.83394" lon="6.72556">
        <ele>1061</ele>
        <time>2019-08-16T02:02:07Z</time>
      </trkpt>
      <trkpt lat="45.83387" lon="6.72558">
        <ele>1061</ele>
        <time>2019-08-16T02:02:16Z</time>
      </trkpt>
      <trkpt lat="45.83384" lon="6.72564">
        <ele>1061</ele>
        <time>2019-08-16T02:02:23Z</time>
      </trkpt>
      <trkpt lat="45.83378" lon="6.72572">
        <ele>1059</ele>
        <time>2019-08-16T02:02:34Z</time>
      </trkpt>
      <trkpt lat="45.83339" lon="6.72584">
        <ele>1059</ele>
        <time>2019-08-16T02:03:27Z</time>
      </trkpt>
      <trkpt lat="45.83329" lon="6.72589">
        <ele>1059</ele>
        <time>2019-08-16T02:03:41Z</time>
      </trkpt>
      <trkpt lat="45.8332" lon="6.72598">
        <ele>1060</ele>
        <time>2019-08-16T02:03:56Z</time>
      </trkpt>
      <trkpt lat="45.83311" lon="6.72614">
        <ele>1060</ele>
        <time>2019-08-16T02:04:15Z</time>
      </trkpt>
      <trkpt lat="45.83304" lon="6.72629">
        <ele>1060</ele>
        <time>2019-08-16T02:04:32Z</time>
      </trkpt>
      <trkpt lat="45.83301" lon="6.72643">
        <ele>1060</ele>
        <time>2019-08-16T02:04:46Z</time>
      </trkpt>
      <trkpt lat="45.833" lon="6.7267">
        <ele>1059</ele>
        <time>2019-08-16T02:05:11Z</time>
      </trkpt>
      <trkpt lat="45.83281" lon="6.72667">
        <ele>1060</ele>
        <time>2019-08-16T02:05:36Z</time>
      </trkpt>
      <trkpt lat="45.83261" lon="6.72648">
        <ele>1063</ele>
        <time>2019-08-16T02:06:08Z</time>
      </trkpt>
      <trkpt lat="45.83254" lon="6.72647">
        <ele>1063</ele>
        <time>2019-08-16T02:06:18Z</time>
      </trkpt>
      <trkpt lat="45.83232" lon="6.72642">
        <ele>1067</ele>
        <time>2019-08-16T02:06:47Z</time>
      </trkpt>
      <trkpt lat="45.83217" lon="6.7264">
        <ele>1069</ele>
        <time>2019-08-16T02:07:08Z</time>
      </trkpt>
      <trkpt lat="45.83204" lon="6.72636">
        <ele>1071</ele>
        <time>2019-08-16T02:07:25Z</time>
      </trkpt>
      <trkpt lat="45.83198" lon="6.72636">
        <ele>1072</ele>
        <time>2019-08-16T02:07:33Z</time>
      </trkpt>
      <trkpt lat="45.83182" lon="6.7263">
        <ele>1074</ele>
        <time>2019-08-16T02:07:55Z</time>
      </trkpt>
      <trkpt lat="45.83166" lon="6.72617">
        <ele>1075</ele>
        <time>2019-08-16T02:08:20Z</time>
      </trkpt>
      <trkpt lat="45.83155" lon="6.7261">
        <ele>1075</ele>
        <time>2019-08-16T02:08:36Z</time>
      </trkpt>
      <trkpt lat="45.83139" lon="6.72605">
        <ele>1076</ele>
        <time>2019-08-16T02:08:58Z</time>
      </trkpt>
      <trkpt lat="45.83103" lon="6.72609">
        <ele>1080</ele>
        <time>2019-08-16T02:09:46Z</time>
      </trkpt>
      <trkpt lat="45.8308" lon="6.72611">
        <ele>1081</ele>
        <time>2019-08-16T02:10:17Z</time>
      </trkpt>
      <trkpt lat="45.83066" lon="6.72618">
        <ele>1083</ele>
        <time>2019-08-16T02:10:36Z</time>
      </trkpt>
      <trkpt lat="45.8306" lon="6.7262">
        <ele>1083</ele>
        <time>2019-08-16T02:10:45Z</time>
      </trkpt>
      <trkpt lat="45.83039" lon="6.72613">
        <ele>1084</ele>
        <time>2019-08-16T02:11:13Z</time>
      </trkpt>
      <trkpt lat="45.83008" lon="6.72623">
        <ele>1086</ele>
        <time>2019-08-16T02:11:56Z</time>
      </trkpt>
      <trkpt lat="45.82983" lon="6.7263">
        <ele>1089</ele>
        <time>2019-08-16T02:12:30Z</time>
      </trkpt>
      <trkpt lat="45.82975" lon="6.72637">
        <ele>1090</ele>
        <time>2019-08-16T02:12:42Z</time>
      </trkpt>
      <trkpt lat="45.82967" lon="6.72632">
        <ele>1090</ele>
        <time>2019-08-16T02:12:54Z</time>
      </trkpt>
      <trkpt lat="45.82962" lon="6.72623">
        <ele>1089</ele>
        <time>2019-08-16T02:13:05Z</time>
      </trkpt>
      <trkpt lat="45.82946" lon="6.72617">
        <ele>1089</ele>
        <time>2019-08-16T02:13:27Z</time>
      </trkpt>
      <trkpt lat="45.82925" lon="6.7262">
        <ele>1091</ele>
        <time>2019-08-16T02:13:55Z</time>
      </trkpt>
      <trkpt lat="45.82909" lon="6.72628">
        <ele>1094</ele>
        <time>2019-08-16T02:14:18Z</time>
      </trkpt>
      <trkpt lat="45.82902" lon="6.72634">
        <ele>1096</ele>
        <time>2019-08-16T02:14:28Z</time>
      </trkpt>
      <trkpt lat="45.82919" lon="6.72631">
        <ele>1093</ele>
        <time>2019-08-16T02:14:51Z</time>
      </trkpt>
      <trkpt lat="45.82919" lon="6.7264">
        <ele>1094</ele>
        <time>2019-08-16T02:15:00Z</time>
      </trkpt>
      <trkpt lat="45.82908" lon="6.72645">
        <ele>1096</ele>
        <time>2019-08-16T02:15:15Z</time>
      </trkpt>
      <trkpt lat="45.82883" lon="6.72639">
        <ele>1099</ele>
        <time>2019-08-16T02:15:49Z</time>
      </trkpt>
      <trkpt lat="45.82892" lon="6.72646">
        <ele>1099</ele>
        <time>2019-08-16T02:16:03Z</time>
      </trkpt>
      <trkpt lat="45.82883" lon="6.72648">
        <ele>1101</ele>
        <time>2019-08-16T02:16:15Z</time>
      </trkpt>
      <trkpt lat="45.82859" lon="6.72641">
        <ele>1103</ele>
        <time>2019-08-16T02:16:47Z</time>
      </trkpt>
      <trkpt lat="45.82845" lon="6.72633">
        <ele>1104</ele>
        <time>2019-08-16T02:17:07Z</time>
      </trkpt>
      <trkpt lat="45.8282" lon="6.72599">
        <ele>1101</ele>
        <time>2019-08-16T02:17:53Z</time>
      </trkpt>
      <trkpt lat="45.82809" lon="6.72585">
        <ele>1101</ele>
        <time>2019-08-16T02:18:13Z</time>
      </trkpt>
      <trkpt lat="45.82797" lon="6.72577">
        <ele>1103</ele>
        <time>2019-08-16T02:18:31Z</time>
      </trkpt>
      <trkpt lat="45.82787" lon="6.72567">
        <ele>1104</ele>
        <time>2019-08-16T02:18:47Z</time>
      </trkpt>
      <trkpt lat="45.82773" lon="6.72567">
        <ele>1106</ele>
        <time>2019-08-16T02:19:06Z</time>
      </trkpt>
      <trkpt lat="45.82769" lon="6.72559">
        <ele>1106</ele>
        <time>2019-08-16T02:19:15Z</time>
      </trkpt>
      <trkpt lat="45.82757" lon="6.7256">
        <ele>1108</ele>
        <time>2019-08-16T02:19:31Z</time>
      </trkpt>
      <trkpt lat="45.82762" lon="6.72578">
        <ele>1110</ele>
        <time>2019-08-16T02:19:49Z</time>
      </trkpt>
      <trkpt lat="45.8275" lon="6.72578">
        <ele>1112</ele>
        <time>2019-08-16T02:20:05Z</time>
      </trkpt>
      <trkpt lat="45.82745" lon="6.72563">
        <ele>1110</ele>
        <time>2019-08-16T02:20:20Z</time>
      </trkpt>
      <trkpt lat="45.82724" lon="6.72577">
        <ele>1114</ele>
        <time>2019-08-16T02:20:51Z</time>
      </trkpt>
      <trkpt lat="45.82715" lon="6.72593">
        <ele>1118</ele>
        <time>2019-08-16T02:21:10Z</time>
      </trkpt>
      <trkpt lat="45.82702" lon="6.72591">
        <ele>1118</ele>
        <time>2019-08-16T02:21:28Z</time>
      </trkpt>
      <trkpt lat="45.82687" lon="6.72594">
        <ele>1120</ele>
        <time>2019-08-16T02:21:48Z</time>
      </trkpt>
      <trkpt lat="45.82648" lon="6.72604">
        <ele>1123</ele>
        <time>2019-08-16T02:22:41Z</time>
      </trkpt>
      <trkpt lat="45.82638" lon="6.72596">
        <ele>1121</ele>
        <time>2019-08-16T02:22:56Z</time>
      </trkpt>
      <trkpt lat="45.82613" lon="6.7259">
        <ele>1119</ele>
        <time>2019-08-16T02:23:30Z</time>
      </trkpt>
      <trkpt lat="45.82604" lon="6.72594">
        <ele>1120</ele>
        <time>2019-08-16T02:23:43Z</time>
      </trkpt>
      <trkpt lat="45.82582" lon="6.72617">
        <ele>1126</ele>
        <time>2019-08-16T02:24:19Z</time>
      </trkpt>
      <trkpt lat="45.82532" lon="6.72623">
        <ele>1128</ele>
        <time>2019-08-16T02:25:26Z</time>
      </trkpt>
      <trkpt lat="45.82506" lon="6.72627">
        <ele>1129</ele>
        <time>2019-08-16T02:26:01Z</time>
      </trkpt>
      <trkpt lat="45.82462" lon="6.72617">
        <ele>1132</ele>
        <time>2019-08-16T02:27:00Z</time>
      </trkpt>
      <trkpt lat="45.82447" lon="6.72607">
        <ele>1131</ele>
        <time>2019-08-16T02:27:22Z</time>
      </trkpt>
      <trkpt lat="45.82434" lon="6.726">
        <ele>1131</ele>
        <time>2019-08-16T02:27:41Z</time>
      </trkpt>
      <trkpt lat="45.82415" lon="6.7258">
        <ele>1129</ele>
        <time>2019-08-16T02:28:12Z</time>
      </trkpt>
      <trkpt lat="45.82399" lon="6.72573">
        <ele>1130</ele>
        <time>2019-08-16T02:28:35Z</time>
      </trkpt>
      <trkpt lat="45.8238" lon="6.72566">
        <ele>1131</ele>
        <time>2019-08-16T02:29:01Z</time>
      </trkpt>
      <trkpt lat="45.82362" lon="6.72559">
        <ele>1132</ele>
        <time>2019-08-16T02:29:26Z</time>
      </trkpt>
      <trkpt lat="45.8233" lon="6.7257">
        <ele>1137</ele>
        <time>2019-08-16T02:30:10Z</time>
      </trkpt>
      <trkpt lat="45.82301" lon="6.72566">
        <ele>1138</ele>
        <time>2019-08-16T02:30:48Z</time>
      </trkpt>
      <trkpt lat="45.8228" lon="6.72528">
        <ele>1133</ele>
        <time>2019-08-16T02:31:34Z</time>
      </trkpt>
      <trkpt lat="45.82263" lon="6.72515">
        <ele>1132</ele>
        <time>2019-08-16T02:31:59Z</time>
      </trkpt>
      <trkpt lat="45.82252" lon="6.72509">
        <ele>1131</ele>
        <time>2019-08-16T02:32:15Z</time>
      </trkpt>
      <trkpt lat="45.82231" lon="6.72509">
        <ele>1132</ele>
        <time>2019-08-16T02:32:43Z</time>
      </trkpt>
      <trkpt lat="45.82205" lon="6.72526">
        <ele>1134</ele>
        <time>2019-08-16T02:33:21Z</time>
      </trkpt>
      <trkpt lat="45.82177" lon="6.72568">
        <ele>1138</ele>
        <time>2019-08-16T02:34:15Z</time>
      </trkpt>
      <trkpt lat="45.82155" lon="6.7259">
        <ele>1140</ele>
        <time>2019-08-16T02:34:51Z</time>
      </trkpt>
      <trkpt lat="45.82114" lon="6.72608">
        <ele>1140</ele>
        <time>2019-08-16T02:35:48Z</time>
      </trkpt>
      <trkpt lat="45.82096" lon="6.72617">
        <ele>1139</ele>
        <time>2019-08-16T02:36:14Z</time>
      </trkpt>
      <trkpt lat="45.82092" lon="6.72616">
        <ele>1139</ele>
        <time>2019-08-16T02:36:19Z</time>
      </trkpt>
      <trkpt lat="45.82078" lon="6.72618">
        <ele>1139</ele>
        <time>2019-08-16T02:36:38Z</time>
      </trkpt>
      <trkpt lat="45.82067" lon="6.72625">
        <ele>1140</ele>
        <time>2019-08-16T02:36:54Z</time>
      </trkpt>
      <trkpt lat="45.82052" lon="6.7264">
        <ele>1141</ele>
        <time>2019-08-16T02:37:18Z</time>
      </trkpt>
      <trkpt lat="45.82038" lon="6.72662">
        <ele>1142</ele>
        <time>2019-08-16T02:37:46Z</time>
      </trkpt>
      <trkpt lat="45.82029" lon="6.7267">
        <ele>1143</ele>
        <time>2019-08-16T02:38:00Z</time>
      </trkpt>
      <trkpt lat="45.81991" lon="6.72694">
        <ele>1144</ele>
        <time>2019-08-16T02:38:55Z</time>
      </trkpt>
      <trkpt lat="45.81979" lon="6.72699">
        <ele>1145</ele>
        <time>2019-08-16T02:39:12Z</time>
      </trkpt>
      <trkpt lat="45.81963" lon="6.72705">
        <ele>1145</ele>
        <time>2019-08-16T02:39:34Z</time>
      </trkpt>
      <trkpt lat="45.81948" lon="6.72709">
        <ele>1145</ele>
        <time>2019-08-16T02:39:55Z</time>
      </trkpt>
      <trkpt lat="45.81943" lon="6.72708">
        <ele>1144</ele>
        <time>2019-08-16T02:40:01Z</time>
      </trkpt>
      <trkpt lat="45.81912" lon="6.72708">
        <ele>1144</ele>
        <time>2019-08-16T02:40:43Z</time>
      </trkpt>
      <trkpt lat="45.81884" lon="6.72721">
        <ele>1145</ele>
        <time>2019-08-16T02:41:22Z</time>
      </trkpt>
      <trkpt lat="45.81872" lon="6.72725">
        <ele>1145</ele>
        <time>2019-08-16T02:41:38Z</time>
      </trkpt>
      <trkpt lat="45.81836" lon="6.72736">
        <ele>1146</ele>
        <time>2019-08-16T02:42:28Z</time>
      </trkpt>
      <trkpt lat="45.81801" lon="6.72742">
        <ele>1148</ele>
        <time>2019-08-16T02:43:15Z</time>
      </trkpt>
      <trkpt lat="45.81788" lon="6.72745">
        <ele>1149</ele>
        <time>2019-08-16T02:43:32Z</time>
      </trkpt>
      <trkpt lat="45.81761" lon="6.72754">
        <ele>1151</ele>
        <time>2019-08-16T02:44:09Z</time>
      </trkpt>
      <trkpt lat="45.81737" lon="6.72759">
        <ele>1153</ele>
        <time>2019-08-16T02:44:41Z</time>
      </trkpt>
      <trkpt lat="45.81714" lon="6.72761">
        <ele>1155</ele>
        <time>2019-08-16T02:45:12Z</time>
      </trkpt>
      <trkpt lat="45.81704" lon="6.72757">
        <ele>1155</ele>
        <time>2019-08-16T02:45:26Z</time>
      </trkpt>
      <trkpt lat="45.81686" lon="6.72745">
        <ele>1156</ele>
        <time>2019-08-16T02:45:53Z</time>
      </trkpt>
      <trkpt lat="45.81674" lon="6.72735">
        <ele>1156</ele>
        <time>2019-08-16T02:46:11Z</time>
      </trkpt>
      <trkpt lat="45.81655" lon="6.7271">
        <ele>1156</ele>
        <time>2019-08-16T02:46:45Z</time>
      </trkpt>
      <trkpt lat="45.81642" lon="6.72702">
        <ele>1157</ele>
        <time>2019-08-16T02:47:04Z</time>
      </trkpt>
      <trkpt lat="45.8164" lon="6.72689">
        <ele>1156</ele>
        <time>2019-08-16T02:47:17Z</time>
      </trkpt>
      <trkpt lat="45.8164" lon="6.72669">
        <ele>1156</ele>
        <time>2019-08-16T02:47:35Z</time>
      </trkpt>
      <trkpt lat="45.81629" lon="6.72659">
        <ele>1156</ele>
        <time>2019-08-16T02:47:53Z</time>
      </trkpt>
      <trkpt lat="45.81613" lon="6.72646">
        <ele>1158</ele>
        <time>2019-08-16T02:48:17Z</time>
      </trkpt>
      <trkpt lat="45.81586" lon="6.72627">
        <ele>1159</ele>
        <time>2019-08-16T02:48:57Z</time>
      </trkpt>
      <trkpt lat="45.81566" lon="6.72619">
        <ele>1161</ele>
        <time>2019-08-16T02:49:25Z</time>
      </trkpt>
      <trkpt lat="45.81533" lon="6.72612">
        <ele>1162</ele>
        <time>2019-08-16T02:50:10Z</time>
      </trkpt>
      <trkpt lat="45.81504" lon="6.726">
        <ele>1163</ele>
        <time>2019-08-16T02:50:50Z</time>
      </trkpt>
      <trkpt lat="45.8145" lon="6.72615">
        <ele>1164</ele>
        <time>2019-08-16T02:52:03Z</time>
      </trkpt>
      <trkpt lat="45.8143" lon="6.72626">
        <ele>1163</ele>
        <time>2019-08-16T02:52:32Z</time>
      </trkpt>
      <trkpt lat="45.81415" lon="6.72651">
        <ele>1163</ele>
        <time>2019-08-16T02:53:03Z</time>
      </trkpt>
      <trkpt lat="45.81396" lon="6.72672">
        <ele>1163</ele>
        <time>2019-08-16T02:53:35Z</time>
      </trkpt>
      <trkpt lat="45.81381" lon="6.72681">
        <ele>1163</ele>
        <time>2019-08-16T02:53:56Z</time>
      </trkpt>
      <trkpt lat="45.81352" lon="6.72679">
        <ele>1164</ele>
        <time>2019-08-16T02:54:35Z</time>
      </trkpt>
      <trkpt lat="45.81328" lon="6.72673">
        <ele>1163</ele>
        <time>2019-08-16T02:55:08Z</time>
      </trkpt>
      <trkpt lat="45.81303" lon="6.72678">
        <ele>1164</ele>
        <time>2019-08-16T02:55:41Z</time>
      </trkpt>
      <trkpt lat="45.81275" lon="6.7268">
        <ele>1165</ele>
        <time>2019-08-16T02:56:19Z</time>
      </trkpt>
      <trkpt lat="45.81255" lon="6.72681">
        <ele>1165</ele>
        <time>2019-08-16T02:56:45Z</time>
      </trkpt>
      <trkpt lat="45.81233" lon="6.72682">
        <ele>1165</ele>
        <time>2019-08-16T02:57:15Z</time>
      </trkpt>
      <trkpt lat="45.81211" lon="6.72681">
        <ele>1164</ele>
        <time>2019-08-16T02:57:44Z</time>
      </trkpt>
      <trkpt lat="45.81189" lon="6.72682">
        <ele>1164</ele>
        <time>2019-08-16T02:58:13Z</time>
      </trkpt>
      <trkpt lat="45.81145" lon="6.72691">
        <ele>1164</ele>
        <time>2019-08-16T02:59:13Z</time>
      </trkpt>
      <trkpt lat="45.81134" lon="6.727">
        <ele>1164</ele>
        <time>2019-08-16T02:59:30Z</time>
      </trkpt>
      <trkpt lat="45.81117" lon="6.7271">
        <ele>1164</ele>
        <time>2019-08-16T02:59:54Z</time>
      </trkpt>
      <trkpt lat="45.81098" lon="6.72709">
        <ele>1164</ele>
        <time>2019-08-16T03:00:20Z</time>
      </trkpt>
      <trkpt lat="45.81101" lon="6.72741">
        <ele>1164</ele>
        <time>2019-08-16T03:00:50Z</time>
      </trkpt>
      <trkpt lat="45.81081" lon="6.72751">
        <ele>1164</ele>
        <time>2019-08-16T03:01:18Z</time>
      </trkpt>
      <trkpt lat="45.81057" lon="6.72746">
        <ele>1165</ele>
        <time>2019-08-16T03:01:50Z</time>
      </trkpt>
      <trkpt lat="45.81032" lon="6.72737">
        <ele>1166</ele>
        <time>2019-08-16T03:02:25Z</time>
      </trkpt>
      <trkpt lat="45.81006" lon="6.72729">
        <ele>1167</ele>
        <time>2019-08-16T03:03:00Z</time>
      </trkpt>
      <trkpt lat="45.80974" lon="6.72715">
        <ele>1168</ele>
        <time>2019-08-16T03:03:45Z</time>
      </trkpt>
      <trkpt lat="45.80956" lon="6.72704">
        <ele>1168</ele>
        <time>2019-08-16T03:04:11Z</time>
      </trkpt>
      <trkpt lat="45.80937" lon="6.72716">
        <ele>1168</ele>
        <time>2019-08-16T03:04:39Z</time>
      </trkpt>
      <trkpt lat="45.80911" lon="6.72728">
        <ele>1170</ele>
        <time>2019-08-16T03:05:15Z</time>
      </trkpt>
      <trkpt lat="45.80889" lon="6.72727">
        <ele>1171</ele>
        <time>2019-08-16T03:05:44Z</time>
      </trkpt>
      <trkpt lat="45.80866" lon="6.72716">
        <ele>1172</ele>
        <time>2019-08-16T03:06:17Z</time>
      </trkpt>
      <trkpt lat="45.80866" lon="6.72716">
        <ele>1172</ele>
        <time>2019-08-16T03:06:17Z</time>
      </trkpt>
      <trkpt lat="45.8084" lon="6.72688">
        <ele>1172</ele>
        <time>2019-08-16T03:07:00Z</time>
      </trkpt>
      <trkpt lat="45.8082" lon="6.72669">
        <ele>1172</ele>
        <time>2019-08-16T03:07:32Z</time>
      </trkpt>
      <trkpt lat="45.80784" lon="6.72645">
        <ele>1174</ele>
        <time>2019-08-16T03:08:25Z</time>
      </trkpt>
      <trkpt lat="45.8076" lon="6.72632">
        <ele>1175</ele>
        <time>2019-08-16T03:08:59Z</time>
      </trkpt>
      <trkpt lat="45.80737" lon="6.7262">
        <ele>1175</ele>
        <time>2019-08-16T03:09:32Z</time>
      </trkpt>
      <trkpt lat="45.80714" lon="6.72606">
        <ele>1174</ele>
        <time>2019-08-16T03:10:05Z</time>
      </trkpt>
      <trkpt lat="45.80706" lon="6.72598">
        <ele>1173</ele>
        <time>2019-08-16T03:10:18Z</time>
      </trkpt>
      <trkpt lat="45.80704" lon="6.72595">
        <ele>1173</ele>
        <time>2019-08-16T03:10:22Z</time>
      </trkpt>
      <trkpt lat="45.80691" lon="6.72594">
        <ele>1172</ele>
        <time>2019-08-16T03:10:40Z</time>
      </trkpt>
      <trkpt lat="45.80673" lon="6.72581">
        <ele>1171</ele>
        <time>2019-08-16T03:11:06Z</time>
      </trkpt>
      <trkpt lat="45.80648" lon="6.72565">
        <ele>1171</ele>
        <time>2019-08-16T03:11:43Z</time>
      </trkpt>
      <trkpt lat="45.80622" lon="6.72551">
        <ele>1172</ele>
        <time>2019-08-16T03:12:20Z</time>
      </trkpt>
      <trkpt lat="45.80591" lon="6.72533">
        <ele>1173</ele>
        <time>2019-08-16T03:13:05Z</time>
      </trkpt>
      <trkpt lat="45.80561" lon="6.72514">
        <ele>1175</ele>
        <time>2019-08-16T03:13:48Z</time>
      </trkpt>
      <trkpt lat="45.80528" lon="6.725">
        <ele>1176</ele>
        <time>2019-08-16T03:14:34Z</time>
      </trkpt>
      <trkpt lat="45.80495" lon="6.72486">
        <ele>1177</ele>
        <time>2019-08-16T03:15:20Z</time>
      </trkpt>
      <trkpt lat="45.80463" lon="6.72487">
        <ele>1177</ele>
        <time>2019-08-16T03:16:03Z</time>
      </trkpt>
      <trkpt lat="45.80432" lon="6.72489">
        <ele>1178</ele>
        <time>2019-08-16T03:16:44Z</time>
      </trkpt>
      <trkpt lat="45.80422" lon="6.72484">
        <ele>1178</ele>
        <time>2019-08-16T03:16:59Z</time>
      </trkpt>
      <trkpt lat="45.80398" lon="6.72476">
        <ele>1178</ele>
        <time>2019-08-16T03:17:31Z</time>
      </trkpt>
      <trkpt lat="45.80372" lon="6.72456">
        <ele>1178</ele>
        <time>2019-08-16T03:18:11Z</time>
      </trkpt>
      <trkpt lat="45.80347" lon="6.72436">
        <ele>1178</ele>
        <time>2019-08-16T03:18:49Z</time>
      </trkpt>
      <trkpt lat="45.80319" lon="6.72447">
        <ele>1178</ele>
        <time>2019-08-16T03:19:28Z</time>
      </trkpt>
      <trkpt lat="45.80305" lon="6.72463">
        <ele>1179</ele>
        <time>2019-08-16T03:19:52Z</time>
      </trkpt>
      <trkpt lat="45.8029" lon="6.72472">
        <ele>1179</ele>
        <time>2019-08-16T03:20:13Z</time>
      </trkpt>
      <trkpt lat="45.80276" lon="6.72473">
        <ele>1179</ele>
        <time>2019-08-16T03:20:32Z</time>
      </trkpt>
      <trkpt lat="45.80256" lon="6.72465">
        <ele>1179</ele>
        <time>2019-08-16T03:21:00Z</time>
      </trkpt>
      <trkpt lat="45.80251" lon="6.72456">
        <ele>1178</ele>
        <time>2019-08-16T03:21:10Z</time>
      </trkpt>
      <trkpt lat="45.80243" lon="6.72462">
        <ele>1179</ele>
        <time>2019-08-16T03:21:22Z</time>
      </trkpt>
      <trkpt lat="45.80243" lon="6.72462">
        <ele>1179</ele>
        <time>2019-08-16T03:21:23Z</time>
      </trkpt>
      <trkpt lat="45.80231" lon="6.72458">
        <ele>1180</ele>
        <time>2019-08-16T03:21:39Z</time>
      </trkpt>
      <trkpt lat="45.80208" lon="6.72454">
        <ele>1181</ele>
        <time>2019-08-16T03:22:10Z</time>
      </trkpt>
      <trkpt lat="45.80186" lon="6.72452">
        <ele>1182</ele>
        <time>2019-08-16T03:22:39Z</time>
      </trkpt>
      <trkpt lat="45.80177" lon="6.72449">
        <ele>1182</ele>
        <time>2019-08-16T03:22:52Z</time>
      </trkpt>
      <trkpt lat="45.80165" lon="6.72451">
        <ele>1183</ele>
        <time>2019-08-16T03:23:08Z</time>
      </trkpt>
      <trkpt lat="45.80158" lon="6.7245">
        <ele>1183</ele>
        <time>2019-08-16T03:23:17Z</time>
      </trkpt>
      <trkpt lat="45.80108" lon="6.72434">
        <ele>1185</ele>
        <time>2019-08-16T03:24:26Z</time>
      </trkpt>
      <trkpt lat="45.8009" lon="6.72428">
        <ele>1185</ele>
        <time>2019-08-16T03:24:50Z</time>
      </trkpt>
      <trkpt lat="45.80082" lon="6.72423">
        <ele>1185</ele>
        <time>2019-08-16T03:25:02Z</time>
      </trkpt>
      <trkpt lat="45.80073" lon="6.7242">
        <ele>1186</ele>
        <time>2019-08-16T03:25:14Z</time>
      </trkpt>
      <trkpt lat="45.80062" lon="6.72416">
        <ele>1186</ele>
        <time>2019-08-16T03:25:29Z</time>
      </trkpt>
      <trkpt lat="45.80055" lon="6.72412">
        <ele>1186</ele>
        <time>2019-08-16T03:25:39Z</time>
      </trkpt>
      <trkpt lat="45.8005" lon="6.72408">
        <ele>1186</ele>
        <time>2019-08-16T03:25:47Z</time>
      </trkpt>
      <trkpt lat="45.80045" lon="6.72412">
        <ele>1186</ele>
        <time>2019-08-16T03:25:55Z</time>
      </trkpt>
      <trkpt lat="45.80032" lon="6.72413">
        <ele>1186</ele>
        <time>2019-08-16T03:26:12Z</time>
      </trkpt>
      <trkpt lat="45.8001" lon="6.72409">
        <ele>1187</ele>
        <time>2019-08-16T03:26:42Z</time>
      </trkpt>
      <trkpt lat="45.80002" lon="6.72406">
        <ele>1187</ele>
        <time>2019-08-16T03:26:53Z</time>
      </trkpt>
      <trkpt lat="45.79982" lon="6.72396">
        <ele>1190</ele>
        <time>2019-08-16T03:27:21Z</time>
      </trkpt>
      <trkpt lat="45.79969" lon="6.72388">
        <ele>1192</ele>
        <time>2019-08-16T03:27:40Z</time>
      </trkpt>
      <trkpt lat="45.79964" lon="6.72383">
        <ele>1193</ele>
        <time>2019-08-16T03:27:48Z</time>
      </trkpt>
      <trkpt lat="45.79959" lon="6.72365">
        <ele>1192</ele>
        <time>2019-08-16T03:28:06Z</time>
      </trkpt>
      <trkpt lat="45.79945" lon="6.72332">
        <ele>1189</ele>
        <time>2019-08-16T03:28:42Z</time>
      </trkpt>
      <trkpt lat="45.79931" lon="6.723">
        <ele>1190</ele>
        <time>2019-08-16T03:29:17Z</time>
      </trkpt>
      <trkpt lat="45.79845" lon="6.72211">
        <ele>1190</ele>
        <time>2019-08-16T03:31:39Z</time>
      </trkpt>
      <trkpt lat="45.79811" lon="6.72175">
        <ele>1188</ele>
        <time>2019-08-16T03:32:35Z</time>
      </trkpt>
      <trkpt lat="45.7975" lon="6.72113">
        <ele>1190</ele>
        <time>2019-08-16T03:34:15Z</time>
      </trkpt>
      <trkpt lat="45.79725" lon="6.72088">
        <ele>1190</ele>
        <time>2019-08-16T03:34:55Z</time>
      </trkpt>
      <trkpt lat="45.79697" lon="6.72069">
        <ele>1190</ele>
        <time>2019-08-16T03:35:37Z</time>
      </trkpt>
      <trkpt lat="45.79691" lon="6.72064">
        <ele>1190</ele>
        <time>2019-08-16T03:35:46Z</time>
      </trkpt>
      <trkpt lat="45.7967" lon="6.7205">
        <ele>1190</ele>
        <time>2019-08-16T03:36:17Z</time>
      </trkpt>
      <trkpt lat="45.79594" lon="6.71983">
        <ele>1195</ele>
        <time>2019-08-16T03:38:16Z</time>
      </trkpt>
      <trkpt lat="45.79556" lon="6.7195">
        <ele>1202</ele>
        <time>2019-08-16T03:39:15Z</time>
      </trkpt>
      <trkpt lat="45.79556" lon="6.7195">
        <ele>1202</ele>
        <time>2019-08-16T03:39:15Z</time>
      </trkpt>
      <trkpt lat="45.79526" lon="6.71927">
        <ele>1207</ele>
        <time>2019-08-16T03:40:01Z</time>
      </trkpt>
      <trkpt lat="45.79461" lon="6.7188">
        <ele>1212</ele>
        <time>2019-08-16T03:41:38Z</time>
      </trkpt>
      <trkpt lat="45.79449" lon="6.71865">
        <ele>1211</ele>
        <time>2019-08-16T03:41:59Z</time>
      </trkpt>
      <trkpt lat="45.79426" lon="6.71854">
        <ele>1212</ele>
        <time>2019-08-16T03:42:31Z</time>
      </trkpt>
      <trkpt lat="45.79403" lon="6.71842">
        <ele>1215</ele>
        <time>2019-08-16T03:43:04Z</time>
      </trkpt>
      <trkpt lat="45.7937" lon="6.71849">
        <ele>1230</ele>
        <time>2019-08-16T03:43:49Z</time>
      </trkpt>
      <trkpt lat="45.79345" lon="6.71835">
        <ele>1234</ele>
        <time>2019-08-16T03:44:24Z</time>
      </trkpt>
      <trkpt lat="45.79292" lon="6.71768">
        <ele>1233</ele>
        <time>2019-08-16T03:45:59Z</time>
      </trkpt>
      <trkpt lat="45.79276" lon="6.71741">
        <ele>1225</ele>
        <time>2019-08-16T03:46:32Z</time>
      </trkpt>
      <trkpt lat="45.7927" lon="6.71734">
        <ele>1226</ele>
        <time>2019-08-16T03:46:42Z</time>
      </trkpt>
      <trkpt lat="45.79243" lon="6.71708">
        <ele>1227</ele>
        <time>2019-08-16T03:47:25Z</time>
      </trkpt>
      <trkpt lat="45.79232" lon="6.71696">
        <ele>1228</ele>
        <time>2019-08-16T03:47:44Z</time>
      </trkpt>
      <trkpt lat="45.79209" lon="6.71675">
        <ele>1229</ele>
        <time>2019-08-16T03:48:20Z</time>
      </trkpt>
      <trkpt lat="45.79187" lon="6.71646">
        <ele>1227</ele>
        <time>2019-08-16T03:49:00Z</time>
      </trkpt>
      <trkpt lat="45.79165" lon="6.71616">
        <ele>1224</ele>
        <time>2019-08-16T03:49:41Z</time>
      </trkpt>
      <trkpt lat="45.79159" lon="6.71614">
        <ele>1226</ele>
        <time>2019-08-16T03:49:49Z</time>
      </trkpt>
      <trkpt lat="45.79153" lon="6.71608">
        <ele>1226</ele>
        <time>2019-08-16T03:49:59Z</time>
      </trkpt>
      <trkpt lat="45.79139" lon="6.71588">
        <ele>1225</ele>
        <time>2019-08-16T03:50:25Z</time>
      </trkpt>
      <trkpt lat="45.79116" lon="6.71567">
        <ele>1229</ele>
        <time>2019-08-16T03:51:01Z</time>
      </trkpt>
      <trkpt lat="45.79091" lon="6.7155">
        <ele>1232</ele>
        <time>2019-08-16T03:51:38Z</time>
      </trkpt>
      <trkpt lat="45.79065" lon="6.71534">
        <ele>1240</ele>
        <time>2019-08-16T03:52:16Z</time>
      </trkpt>
      <trkpt lat="45.79046" lon="6.71518">
        <ele>1246</ele>
        <time>2019-08-16T03:52:45Z</time>
      </trkpt>
      <trkpt lat="45.79" lon="6.71486">
        <ele>1259</ele>
        <time>2019-08-16T03:53:54Z</time>
      </trkpt>
      <trkpt lat="45.78975" lon="6.71464">
        <ele>1261</ele>
        <time>2019-08-16T03:54:33Z</time>
      </trkpt>
      <trkpt lat="45.78951" lon="6.71453">
        <ele>1266</ele>
        <time>2019-08-16T03:55:06Z</time>
      </trkpt>
      <trkpt lat="45.78929" lon="6.71441">
        <ele>1270</ele>
        <time>2019-08-16T03:55:38Z</time>
      </trkpt>
      <trkpt lat="45.78865" lon="6.71413">
        <ele>1284</ele>
        <time>2019-08-16T03:57:07Z</time>
      </trkpt>
      <trkpt lat="45.78833" lon="6.71398">
        <ele>1290</ele>
        <time>2019-08-16T03:57:52Z</time>
      </trkpt>
      <trkpt lat="45.78778" lon="6.7136">
        <ele>1294</ele>
        <time>2019-08-16T03:59:13Z</time>
      </trkpt>
      <trkpt lat="45.78751" lon="6.7134">
        <ele>1296</ele>
        <time>2019-08-16T03:59:54Z</time>
      </trkpt>
      <trkpt lat="45.7871" lon="6.71323">
        <ele>1310</ele>
        <time>2019-08-16T04:00:51Z</time>
      </trkpt>
      <trkpt lat="45.78688" lon="6.71308">
        <ele>1314</ele>
        <time>2019-08-16T04:01:23Z</time>
      </trkpt>
      <trkpt lat="45.78665" lon="6.71293">
        <ele>1318</ele>
        <time>2019-08-16T04:01:57Z</time>
      </trkpt>
      <trkpt lat="45.78604" lon="6.7128">
        <ele>1334</ele>
        <time>2019-08-16T04:03:19Z</time>
      </trkpt>
      <trkpt lat="45.7857" lon="6.71278">
        <ele>1343</ele>
        <time>2019-08-16T04:04:05Z</time>
      </trkpt>
      <trkpt lat="45.78539" lon="6.71269">
        <ele>1345</ele>
        <time>2019-08-16T04:04:47Z</time>
      </trkpt>
      <trkpt lat="45.78508" lon="6.71261">
        <ele>1348</ele>
        <time>2019-08-16T04:05:29Z</time>
      </trkpt>
      <trkpt lat="45.7848" lon="6.71256">
        <ele>1351</ele>
        <time>2019-08-16T04:06:07Z</time>
      </trkpt>
      <trkpt lat="45.78456" lon="6.71262">
        <ele>1357</ele>
        <time>2019-08-16T04:06:39Z</time>
      </trkpt>
      <trkpt lat="45.78424" lon="6.71297">
        <ele>1369</ele>
        <time>2019-08-16T04:07:33Z</time>
      </trkpt>
      <trkpt lat="45.78383" lon="6.71315">
        <ele>1377</ele>
        <time>2019-08-16T04:08:30Z</time>
      </trkpt>
      <trkpt lat="45.78359" lon="6.71364">
        <ele>1380</ele>
        <time>2019-08-16T04:09:26Z</time>
      </trkpt>
      <trkpt lat="45.78335" lon="6.71412">
        <ele>1378</ele>
        <time>2019-08-16T04:10:21Z</time>
      </trkpt>
      <trkpt lat="45.78285" lon="6.71483">
        <ele>1387</ele>
        <time>2019-08-16T04:11:55Z</time>
      </trkpt>
      <trkpt lat="45.78264" lon="6.71512">
        <ele>1390</ele>
        <time>2019-08-16T04:12:34Z</time>
      </trkpt>
      <trkpt lat="45.78222" lon="6.71514">
        <ele>1394</ele>
        <time>2019-08-16T04:13:30Z</time>
      </trkpt>
      <trkpt lat="45.782" lon="6.71528">
        <ele>1397</ele>
        <time>2019-08-16T04:14:02Z</time>
      </trkpt>
      <trkpt lat="45.78179" lon="6.71541">
        <ele>1400</ele>
        <time>2019-08-16T04:14:32Z</time>
      </trkpt>
      <trkpt lat="45.78167" lon="6.71544">
        <ele>1401</ele>
        <time>2019-08-16T04:14:49Z</time>
      </trkpt>
      <trkpt lat="45.78155" lon="6.71548">
        <ele>1403</ele>
        <time>2019-08-16T04:15:05Z</time>
      </trkpt>
      <trkpt lat="45.7814" lon="6.71544">
        <ele>1404</ele>
        <time>2019-08-16T04:15:25Z</time>
      </trkpt>
      <trkpt lat="45.78101" lon="6.71525">
        <ele>1409</ele>
        <time>2019-08-16T04:16:20Z</time>
      </trkpt>
      <trkpt lat="45.78061" lon="6.71506">
        <ele>1415</ele>
        <time>2019-08-16T04:17:17Z</time>
      </trkpt>
      <trkpt lat="45.78061" lon="6.71506">
        <ele>1415</ele>
        <time>2019-08-16T04:17:17Z</time>
      </trkpt>
      <trkpt lat="45.78017" lon="6.71499">
        <ele>1422</ele>
        <time>2019-08-16T04:18:16Z</time>
      </trkpt>
      <trkpt lat="45.77989" lon="6.71488">
        <ele>1430</ele>
        <time>2019-08-16T04:18:55Z</time>
      </trkpt>
      <trkpt lat="45.77972" lon="6.71469">
        <ele>1437</ele>
        <time>2019-08-16T04:19:23Z</time>
      </trkpt>
      <trkpt lat="45.77961" lon="6.71468">
        <ele>1439</ele>
        <time>2019-08-16T04:19:38Z</time>
      </trkpt>
      <trkpt lat="45.77947" lon="6.71477">
        <ele>1440</ele>
        <time>2019-08-16T04:19:58Z</time>
      </trkpt>
      <trkpt lat="45.77924" lon="6.71488">
        <ele>1443</ele>
        <time>2019-08-16T04:20:31Z</time>
      </trkpt>
      <trkpt lat="45.77871" lon="6.71487">
        <ele>1450</ele>
        <time>2019-08-16T04:21:42Z</time>
      </trkpt>
      <trkpt lat="45.77846" lon="6.71482">
        <ele>1454</ele>
        <time>2019-08-16T04:22:15Z</time>
      </trkpt>
      <trkpt lat="45.7783" lon="6.71467">
        <ele>1459</ele>
        <time>2019-08-16T04:22:41Z</time>
      </trkpt>
      <trkpt lat="45.77821" lon="6.71453">
        <ele>1464</ele>
        <time>2019-08-16T04:22:58Z</time>
      </trkpt>
      <trkpt lat="45.77817" lon="6.71441">
        <ele>1468</ele>
        <time>2019-08-16T04:23:11Z</time>
      </trkpt>
      <trkpt lat="45.77809" lon="6.71423">
        <ele>1474</ele>
        <time>2019-08-16T04:23:31Z</time>
      </trkpt>
      <trkpt lat="45.77791" lon="6.71423">
        <ele>1479</ele>
        <time>2019-08-16T04:23:55Z</time>
      </trkpt>
      <trkpt lat="45.77755" lon="6.71438">
        <ele>1485</ele>
        <time>2019-08-16T04:24:45Z</time>
      </trkpt>
      <trkpt lat="45.77719" lon="6.71453">
        <ele>1494</ele>
        <time>2019-08-16T04:25:35Z</time>
      </trkpt>
      <trkpt lat="45.77688" lon="6.71484">
        <ele>1496</ele>
        <time>2019-08-16T04:26:25Z</time>
      </trkpt>
      <trkpt lat="45.77674" lon="6.71491">
        <ele>1498</ele>
        <time>2019-08-16T04:26:45Z</time>
      </trkpt>
      <trkpt lat="45.77651" lon="6.71492">
        <ele>1506</ele>
        <time>2019-08-16T04:27:16Z</time>
      </trkpt>
      <trkpt lat="45.77622" lon="6.71501">
        <ele>1513</ele>
        <time>2019-08-16T04:27:55Z</time>
      </trkpt>
      <trkpt lat="45.77593" lon="6.71511">
        <ele>1522</ele>
        <time>2019-08-16T04:28:35Z</time>
      </trkpt>
      <trkpt lat="45.77573" lon="6.71523">
        <ele>1528</ele>
        <time>2019-08-16T04:29:04Z</time>
      </trkpt>
      <trkpt lat="45.7753" lon="6.71536">
        <ele>1541</ele>
        <time>2019-08-16T04:30:03Z</time>
      </trkpt>
      <trkpt lat="45.7753" lon="6.71561">
        <ele>1531</ele>
        <time>2019-08-16T04:30:26Z</time>
      </trkpt>
      <trkpt lat="45.77509" lon="6.71587">
        <ele>1526</ele>
        <time>2019-08-16T04:31:03Z</time>
      </trkpt>
      <trkpt lat="45.7748" lon="6.71586">
        <ele>1531</ele>
        <time>2019-08-16T04:31:42Z</time>
      </trkpt>
      <trkpt lat="45.77451" lon="6.71585">
        <ele>1536</ele>
        <time>2019-08-16T04:32:20Z</time>
      </trkpt>
      <trkpt lat="45.77425" lon="6.71593">
        <ele>1539</ele>
        <time>2019-08-16T04:32:56Z</time>
      </trkpt>
      <trkpt lat="45.77405" lon="6.71594">
        <ele>1540</ele>
        <time>2019-08-16T04:33:23Z</time>
      </trkpt>
      <trkpt lat="45.77396" lon="6.71595">
        <ele>1540</ele>
        <time>2019-08-16T04:33:35Z</time>
      </trkpt>
      <trkpt lat="45.77373" lon="6.71593">
        <ele>1541</ele>
        <time>2019-08-16T04:34:05Z</time>
      </trkpt>
      <trkpt lat="45.77353" lon="6.71594">
        <ele>1541</ele>
        <time>2019-08-16T04:34:32Z</time>
      </trkpt>
      <trkpt lat="45.77342" lon="6.71592">
        <ele>1541</ele>
        <time>2019-08-16T04:34:47Z</time>
      </trkpt>
      <trkpt lat="45.77312" lon="6.71581">
        <ele>1546</ele>
        <time>2019-08-16T04:35:28Z</time>
      </trkpt>
      <trkpt lat="45.77287" lon="6.71573">
        <ele>1551</ele>
        <time>2019-08-16T04:36:02Z</time>
      </trkpt>
      <trkpt lat="45.77271" lon="6.7157">
        <ele>1553</ele>
        <time>2019-08-16T04:36:24Z</time>
      </trkpt>
      <trkpt lat="45.77253" lon="6.71571">
        <ele>1554</ele>
        <time>2019-08-16T04:36:48Z</time>
      </trkpt>
      <trkpt lat="45.77215" lon="6.71577">
        <ele>1552</ele>
        <time>2019-08-16T04:37:39Z</time>
      </trkpt>
      <trkpt lat="45.77195" lon="6.71579">
        <ele>1552</ele>
        <time>2019-08-16T04:38:06Z</time>
      </trkpt>
      <trkpt lat="45.77168" lon="6.71574">
        <ele>1553</ele>
        <time>2019-08-16T04:38:42Z</time>
      </trkpt>
      <trkpt lat="45.7716" lon="6.71571">
        <ele>1553</ele>
        <time>2019-08-16T04:38:53Z</time>
      </trkpt>
      <trkpt lat="45.77152" lon="6.71565">
        <ele>1554</ele>
        <time>2019-08-16T04:39:05Z</time>
      </trkpt>
      <trkpt lat="45.77147" lon="6.71558">
        <ele>1555</ele>
        <time>2019-08-16T04:39:14Z</time>
      </trkpt>
      <trkpt lat="45.77143" lon="6.7155">
        <ele>1556</ele>
        <time>2019-08-16T04:39:24Z</time>
      </trkpt>
      <trkpt lat="45.77138" lon="6.71545">
        <ele>1557</ele>
        <time>2019-08-16T04:39:32Z</time>
      </trkpt>
      <trkpt lat="45.77086" lon="6.71537">
        <ele>1552</ele>
        <time>2019-08-16T04:40:42Z</time>
      </trkpt>
      <trkpt lat="45.77072" lon="6.71531">
        <ele>1551</ele>
        <time>2019-08-16T04:41:01Z</time>
      </trkpt>
      <trkpt lat="45.7705" lon="6.71518">
        <ele>1551</ele>
        <time>2019-08-16T04:41:33Z</time>
      </trkpt>
      <trkpt lat="45.77037" lon="6.71509">
        <ele>1550</ele>
        <time>2019-08-16T04:41:52Z</time>
      </trkpt>
      <trkpt lat="45.77012" lon="6.71489">
        <ele>1552</ele>
        <time>2019-08-16T04:42:30Z</time>
      </trkpt>
      <trkpt lat="45.77004" lon="6.71484">
        <ele>1552</ele>
        <time>2019-08-16T04:42:42Z</time>
      </trkpt>
      <trkpt lat="45.76992" lon="6.71481">
        <ele>1553</ele>
        <time>2019-08-16T04:42:58Z</time>
      </trkpt>
      <trkpt lat="45.76961" lon="6.71477">
        <ele>1556</ele>
        <time>2019-08-16T04:43:40Z</time>
      </trkpt>
      <trkpt lat="45.76924" lon="6.7147">
        <ele>1559</ele>
        <time>2019-08-16T04:44:30Z</time>
      </trkpt>
      <trkpt lat="45.76912" lon="6.71466">
        <ele>1560</ele>
        <time>2019-08-16T04:44:46Z</time>
      </trkpt>
      <trkpt lat="45.76888" lon="6.71456">
        <ele>1561</ele>
        <time>2019-08-16T04:45:19Z</time>
      </trkpt>
      <trkpt lat="45.76864" lon="6.71447">
        <ele>1561</ele>
        <time>2019-08-16T04:45:52Z</time>
      </trkpt>
      <trkpt lat="45.76825" lon="6.71423">
        <ele>1561</ele>
        <time>2019-08-16T04:46:49Z</time>
      </trkpt>
      <trkpt lat="45.76783" lon="6.71405">
        <ele>1564</ele>
        <time>2019-08-16T04:47:48Z</time>
      </trkpt>
      <trkpt lat="45.7676" lon="6.71386">
        <ele>1565</ele>
        <time>2019-08-16T04:48:23Z</time>
      </trkpt>
      <trkpt lat="45.76686" lon="6.71321">
        <ele>1567</ele>
        <time>2019-08-16T04:50:19Z</time>
      </trkpt>
      <trkpt lat="45.76681" lon="6.71316">
        <ele>1568</ele>
        <time>2019-08-16T04:50:27Z</time>
      </trkpt>
      <trkpt lat="45.76591" lon="6.71289">
        <ele>1574</ele>
        <time>2019-08-16T04:52:30Z</time>
      </trkpt>
      <trkpt lat="45.76556" lon="6.71278">
        <ele>1577</ele>
        <time>2019-08-16T04:53:17Z</time>
      </trkpt>
      <trkpt lat="45.76534" lon="6.71268">
        <ele>1580</ele>
        <time>2019-08-16T04:53:48Z</time>
      </trkpt>
      <trkpt lat="45.76511" lon="6.71262">
        <ele>1582</ele>
        <time>2019-08-16T04:54:19Z</time>
      </trkpt>
      <trkpt lat="45.76488" lon="6.71255">
        <ele>1584</ele>
        <time>2019-08-16T04:54:51Z</time>
      </trkpt>
      <trkpt lat="45.76466" lon="6.71241">
        <ele>1587</ele>
        <time>2019-08-16T04:55:23Z</time>
      </trkpt>
      <trkpt lat="45.76457" lon="6.71237">
        <ele>1588</ele>
        <time>2019-08-16T04:55:36Z</time>
      </trkpt>
      <trkpt lat="45.76433" lon="6.71235">
        <ele>1588</ele>
        <time>2019-08-16T04:56:08Z</time>
      </trkpt>
      <trkpt lat="45.76423" lon="6.71232">
        <ele>1589</ele>
        <time>2019-08-16T04:56:21Z</time>
      </trkpt>
      <trkpt lat="45.76379" lon="6.71212">
        <ele>1594</ele>
        <time>2019-08-16T04:57:23Z</time>
      </trkpt>
      <trkpt lat="45.76356" lon="6.71198">
        <ele>1595</ele>
        <time>2019-08-16T04:57:56Z</time>
      </trkpt>
      <trkpt lat="45.76334" lon="6.71193">
        <ele>1595</ele>
        <time>2019-08-16T04:58:26Z</time>
      </trkpt>
      <trkpt lat="45.76293" lon="6.71178">
        <ele>1599</ele>
        <time>2019-08-16T04:59:22Z</time>
      </trkpt>
      <trkpt lat="45.76282" lon="6.7117">
        <ele>1600</ele>
        <time>2019-08-16T04:59:39Z</time>
      </trkpt>
      <trkpt lat="45.7625" lon="6.71153">
        <ele>1605</ele>
        <time>2019-08-16T05:00:24Z</time>
      </trkpt>
      <trkpt lat="45.76212" lon="6.71135">
        <ele>1613</ele>
        <time>2019-08-16T05:01:18Z</time>
      </trkpt>
      <trkpt lat="45.76195" lon="6.71135">
        <ele>1616</ele>
        <time>2019-08-16T05:01:40Z</time>
      </trkpt>
      <trkpt lat="45.76156" lon="6.71129">
        <ele>1623</ele>
        <time>2019-08-16T05:02:33Z</time>
      </trkpt>
      <trkpt lat="45.76145" lon="6.71126">
        <ele>1625</ele>
        <time>2019-08-16T05:02:48Z</time>
      </trkpt>
      <trkpt lat="45.76135" lon="6.71119">
        <ele>1627</ele>
        <time>2019-08-16T05:03:03Z</time>
      </trkpt>
      <trkpt lat="45.7612" lon="6.71106">
        <ele>1629</ele>
        <time>2019-08-16T05:03:26Z</time>
      </trkpt>
      <trkpt lat="45.76111" lon="6.71099">
        <ele>1630</ele>
        <time>2019-08-16T05:03:40Z</time>
      </trkpt>
      <trkpt lat="45.76097" lon="6.71096">
        <ele>1632</ele>
        <time>2019-08-16T05:03:59Z</time>
      </trkpt>
      <trkpt lat="45.76075" lon="6.71097">
        <ele>1637</ele>
        <time>2019-08-16T05:04:28Z</time>
      </trkpt>
      <trkpt lat="45.76027" lon="6.71123">
        <ele>1650</ele>
        <time>2019-08-16T05:05:36Z</time>
      </trkpt>
      <trkpt lat="45.76019" lon="6.71124">
        <ele>1651</ele>
        <time>2019-08-16T05:05:47Z</time>
      </trkpt>
      <trkpt lat="45.76008" lon="6.7112">
        <ele>1654</ele>
        <time>2019-08-16T05:06:02Z</time>
      </trkpt>
      <trkpt lat="45.75989" lon="6.7111">
        <ele>1658</ele>
        <time>2019-08-16T05:06:29Z</time>
      </trkpt>
      <trkpt lat="45.75949" lon="6.71082">
        <ele>1667</ele>
        <time>2019-08-16T05:07:29Z</time>
      </trkpt>
      <trkpt lat="45.75934" lon="6.71067">
        <ele>1672</ele>
        <time>2019-08-16T05:07:53Z</time>
      </trkpt>
      <trkpt lat="45.75923" lon="6.71058">
        <ele>1676</ele>
        <time>2019-08-16T05:08:10Z</time>
      </trkpt>
      <trkpt lat="45.75914" lon="6.71052">
        <ele>1679</ele>
        <time>2019-08-16T05:08:23Z</time>
      </trkpt>
      <trkpt lat="45.75898" lon="6.71044">
        <ele>1683</ele>
        <time>2019-08-16T05:08:46Z</time>
      </trkpt>
      <trkpt lat="45.75891" lon="6.71045">
        <ele>1684</ele>
        <time>2019-08-16T05:08:55Z</time>
      </trkpt>
      <trkpt lat="45.75888" lon="6.71047">
        <ele>1685</ele>
        <time>2019-08-16T05:09:00Z</time>
      </trkpt>
      <trkpt lat="45.75884" lon="6.71053">
        <ele>1685</ele>
        <time>2019-08-16T05:09:07Z</time>
      </trkpt>
      <trkpt lat="45.7588" lon="6.71063">
        <ele>1684</ele>
        <time>2019-08-16T05:09:18Z</time>
      </trkpt>
      <trkpt lat="45.75875" lon="6.71067">
        <ele>1685</ele>
        <time>2019-08-16T05:09:26Z</time>
      </trkpt>
      <trkpt lat="45.75867" lon="6.71069">
        <ele>1686</ele>
        <time>2019-08-16T05:09:37Z</time>
      </trkpt>
      <trkpt lat="45.75862" lon="6.71071">
        <ele>1687</ele>
        <time>2019-08-16T05:09:43Z</time>
      </trkpt>
      <trkpt lat="45.75856" lon="6.71077">
        <ele>1688</ele>
        <time>2019-08-16T05:09:53Z</time>
      </trkpt>
      <trkpt lat="45.75851" lon="6.7108">
        <ele>1689</ele>
        <time>2019-08-16T05:10:00Z</time>
      </trkpt>
      <trkpt lat="45.75842" lon="6.71078">
        <ele>1691</ele>
        <time>2019-08-16T05:10:13Z</time>
      </trkpt>
      <trkpt lat="45.75833" lon="6.71074">
        <ele>1693</ele>
        <time>2019-08-16T05:10:25Z</time>
      </trkpt>
      <trkpt lat="45.75828" lon="6.71072">
        <ele>1694</ele>
        <time>2019-08-16T05:10:32Z</time>
      </trkpt>
      <trkpt lat="45.7582" lon="6.71071">
        <ele>1696</ele>
        <time>2019-08-16T05:10:43Z</time>
      </trkpt>
      <trkpt lat="45.75815" lon="6.71072">
        <ele>1696</ele>
        <time>2019-08-16T05:10:50Z</time>
      </trkpt>
      <trkpt lat="45.75807" lon="6.71076">
        <ele>1698</ele>
        <time>2019-08-16T05:11:01Z</time>
      </trkpt>
      <trkpt lat="45.75804" lon="6.71079">
        <ele>1698</ele>
        <time>2019-08-16T05:11:06Z</time>
      </trkpt>
      <trkpt lat="45.75803" lon="6.71091">
        <ele>1697</ele>
        <time>2019-08-16T05:11:17Z</time>
      </trkpt>
      <trkpt lat="45.75801" lon="6.71098">
        <ele>1697</ele>
        <time>2019-08-16T05:11:24Z</time>
      </trkpt>
      <trkpt lat="45.75797" lon="6.71107">
        <ele>1697</ele>
        <time>2019-08-16T05:11:34Z</time>
      </trkpt>
      <trkpt lat="45.75791" lon="6.7111">
        <ele>1698</ele>
        <time>2019-08-16T05:11:43Z</time>
      </trkpt>
      <trkpt lat="45.75785" lon="6.71109">
        <ele>1699</ele>
        <time>2019-08-16T05:11:51Z</time>
      </trkpt>
      <trkpt lat="45.7578" lon="6.71106">
        <ele>1700</ele>
        <time>2019-08-16T05:11:58Z</time>
      </trkpt>
      <trkpt lat="45.75762" lon="6.71091">
        <ele>1705</ele>
        <time>2019-08-16T05:12:26Z</time>
      </trkpt>
      <trkpt lat="45.75741" lon="6.71068">
        <ele>1708</ele>
        <time>2019-08-16T05:13:01Z</time>
      </trkpt>
      <trkpt lat="45.75722" lon="6.71058">
        <ele>1708</ele>
        <time>2019-08-16T05:13:28Z</time>
      </trkpt>
      <trkpt lat="45.75712" lon="6.71047">
        <ele>1709</ele>
        <time>2019-08-16T05:13:45Z</time>
      </trkpt>
      <trkpt lat="45.75707" lon="6.71043">
        <ele>1709</ele>
        <time>2019-08-16T05:13:52Z</time>
      </trkpt>
      <trkpt lat="45.75703" lon="6.71037">
        <ele>1710</ele>
        <time>2019-08-16T05:14:00Z</time>
      </trkpt>
      <trkpt lat="45.75696" lon="6.71021">
        <ele>1713</ele>
        <time>2019-08-16T05:14:18Z</time>
      </trkpt>
      <trkpt lat="45.75687" lon="6.71019">
        <ele>1714</ele>
        <time>2019-08-16T05:14:30Z</time>
      </trkpt>
      <trkpt lat="45.75682" lon="6.71014">
        <ele>1715</ele>
        <time>2019-08-16T05:14:38Z</time>
      </trkpt>
      <trkpt lat="45.75684" lon="6.70999">
        <ele>1718</ele>
        <time>2019-08-16T05:14:52Z</time>
      </trkpt>
      <trkpt lat="45.75671" lon="6.70988">
        <ele>1722</ele>
        <time>2019-08-16T05:15:12Z</time>
      </trkpt>
      <trkpt lat="45.75672" lon="6.70984">
        <ele>1722</ele>
        <time>2019-08-16T05:15:16Z</time>
      </trkpt>
      <trkpt lat="45.75668" lon="6.70982">
        <ele>1723</ele>
        <time>2019-08-16T05:15:22Z</time>
      </trkpt>
      <trkpt lat="45.75661" lon="6.70957">
        <ele>1729</ele>
        <time>2019-08-16T05:15:47Z</time>
      </trkpt>
      <trkpt lat="45.75652" lon="6.70926">
        <ele>1737</ele>
        <time>2019-08-16T05:16:18Z</time>
      </trkpt>
      <trkpt lat="45.7563" lon="6.70882">
        <ele>1745</ele>
        <time>2019-08-16T05:17:09Z</time>
      </trkpt>
      <trkpt lat="45.75608" lon="6.70855">
        <ele>1754</ele>
        <time>2019-08-16T05:17:47Z</time>
      </trkpt>
      <trkpt lat="45.75586" lon="6.70827">
        <ele>1765</ele>
        <time>2019-08-16T05:18:27Z</time>
      </trkpt>
      <trkpt lat="45.75559" lon="6.70806">
        <ele>1772</ele>
        <time>2019-08-16T05:19:08Z</time>
      </trkpt>
      <trkpt lat="45.7554" lon="6.70819">
        <ele>1772</ele>
        <time>2019-08-16T05:19:36Z</time>
      </trkpt>
      <trkpt lat="45.7551" lon="6.70806">
        <ele>1778</ele>
        <time>2019-08-16T05:20:17Z</time>
      </trkpt>
      <trkpt lat="45.75475" lon="6.70788">
        <ele>1790</ele>
        <time>2019-08-16T05:21:07Z</time>
      </trkpt>
      <trkpt lat="45.75455" lon="6.70789">
        <ele>1796</ele>
        <time>2019-08-16T05:21:34Z</time>
      </trkpt>
      <trkpt lat="45.75446" lon="6.70794">
        <ele>1797</ele>
        <time>2019-08-16T05:21:47Z</time>
      </trkpt>
      <trkpt lat="45.75437" lon="6.70804">
        <ele>1798</ele>
        <time>2019-08-16T05:22:02Z</time>
      </trkpt>
      <trkpt lat="45.75421" lon="6.70814">
        <ele>1801</ele>
        <time>2019-08-16T05:22:25Z</time>
      </trkpt>
      <trkpt lat="45.75402" lon="6.70838">
        <ele>1805</ele>
        <time>2019-08-16T05:22:59Z</time>
      </trkpt>
      <trkpt lat="45.75387" lon="6.70864">
        <ele>1807</ele>
        <time>2019-08-16T05:23:30Z</time>
      </trkpt>
      <trkpt lat="45.75377" lon="6.70872">
        <ele>1810</ele>
        <time>2019-08-16T05:23:46Z</time>
      </trkpt>
      <trkpt lat="45.75365" lon="6.70874">
        <ele>1815</ele>
        <time>2019-08-16T05:24:02Z</time>
      </trkpt>
      <trkpt lat="45.75359" lon="6.7089">
        <ele>1816</ele>
        <time>2019-08-16T05:24:19Z</time>
      </trkpt>
      <trkpt lat="45.75351" lon="6.70901">
        <ele>1819</ele>
        <time>2019-08-16T05:24:33Z</time>
      </trkpt>
      <trkpt lat="45.75341" lon="6.70904">
        <ele>1824</ele>
        <time>2019-08-16T05:24:47Z</time>
      </trkpt>
      <trkpt lat="45.75327" lon="6.70906">
        <ele>1830</ele>
        <time>2019-08-16T05:25:06Z</time>
      </trkpt>
      <trkpt lat="45.75321" lon="6.70924">
        <ele>1832</ele>
        <time>2019-08-16T05:25:24Z</time>
      </trkpt>
      <trkpt lat="45.75315" lon="6.70932">
        <ele>1834</ele>
        <time>2019-08-16T05:25:35Z</time>
      </trkpt>
      <trkpt lat="45.75309" lon="6.70931">
        <ele>1837</ele>
        <time>2019-08-16T05:25:43Z</time>
      </trkpt>
      <trkpt lat="45.75301" lon="6.70939">
        <ele>1839</ele>
        <time>2019-08-16T05:25:56Z</time>
      </trkpt>
      <trkpt lat="45.7529" lon="6.70945">
        <ele>1844</ele>
        <time>2019-08-16T05:26:12Z</time>
      </trkpt>
      <trkpt lat="45.75277" lon="6.70944">
        <ele>1850</ele>
        <time>2019-08-16T05:26:30Z</time>
      </trkpt>
      <trkpt lat="45.75263" lon="6.70941">
        <ele>1857</ele>
        <time>2019-08-16T05:26:48Z</time>
      </trkpt>
      <trkpt lat="45.75252" lon="6.70936">
        <ele>1863</ele>
        <time>2019-08-16T05:27:04Z</time>
      </trkpt>
      <trkpt lat="45.7525" lon="6.7093">
        <ele>1865</ele>
        <time>2019-08-16T05:27:10Z</time>
      </trkpt>
      <trkpt lat="45.75244" lon="6.7093">
        <ele>1868</ele>
        <time>2019-08-16T05:27:18Z</time>
      </trkpt>
      <trkpt lat="45.75238" lon="6.70937">
        <ele>1869</ele>
        <time>2019-08-16T05:27:28Z</time>
      </trkpt>
      <trkpt lat="45.75228" lon="6.70943">
        <ele>1873</ele>
        <time>2019-08-16T05:27:43Z</time>
      </trkpt>
      <trkpt lat="45.75218" lon="6.70946">
        <ele>1877</ele>
        <time>2019-08-16T05:27:56Z</time>
      </trkpt>
      <trkpt lat="45.75215" lon="6.70955">
        <ele>1877</ele>
        <time>2019-08-16T05:28:06Z</time>
      </trkpt>
      <trkpt lat="45.75208" lon="6.70956">
        <ele>1880</ele>
        <time>2019-08-16T05:28:15Z</time>
      </trkpt>
      <trkpt lat="45.75197" lon="6.70953">
        <ele>1885</ele>
        <time>2019-08-16T05:28:30Z</time>
      </trkpt>
      <trkpt lat="45.75186" lon="6.70953">
        <ele>1890</ele>
        <time>2019-08-16T05:28:45Z</time>
      </trkpt>
      <trkpt lat="45.75171" lon="6.70963">
        <ele>1895</ele>
        <time>2019-08-16T05:29:07Z</time>
      </trkpt>
      <trkpt lat="45.75146" lon="6.70976">
        <ele>1903</ele>
        <time>2019-08-16T05:29:42Z</time>
      </trkpt>
      <trkpt lat="45.75122" lon="6.70989">
        <ele>1909</ele>
        <time>2019-08-16T05:30:17Z</time>
      </trkpt>
      <trkpt lat="45.75111" lon="6.70997">
        <ele>1911</ele>
        <time>2019-08-16T05:30:33Z</time>
      </trkpt>
      <trkpt lat="45.7509" lon="6.71019">
        <ele>1914</ele>
        <time>2019-08-16T05:31:08Z</time>
      </trkpt>
      <trkpt lat="45.7507" lon="6.71031">
        <ele>1919</ele>
        <time>2019-08-16T05:31:37Z</time>
      </trkpt>
      <trkpt lat="45.75042" lon="6.71046">
        <ele>1926</ele>
        <time>2019-08-16T05:32:17Z</time>
      </trkpt>
      <trkpt lat="45.75032" lon="6.71077">
        <ele>1922</ele>
        <time>2019-08-16T05:32:48Z</time>
      </trkpt>
      <trkpt lat="45.7502" lon="6.71101">
        <ele>1922</ele>
        <time>2019-08-16T05:33:16Z</time>
      </trkpt>
      <trkpt lat="45.75012" lon="6.71136">
        <ele>1921</ele>
        <time>2019-08-16T05:33:50Z</time>
      </trkpt>
      <trkpt lat="45.74996" lon="6.71159">
        <ele>1921</ele>
        <time>2019-08-16T05:34:20Z</time>
      </trkpt>
      <trkpt lat="45.74981" lon="6.71201">
        <ele>1923</ele>
        <time>2019-08-16T05:35:04Z</time>
      </trkpt>
      <trkpt lat="45.74958" lon="6.71224">
        <ele>1926</ele>
        <time>2019-08-16T05:35:42Z</time>
      </trkpt>
      <trkpt lat="45.74948" lon="6.71243">
        <ele>1925</ele>
        <time>2019-08-16T05:36:04Z</time>
      </trkpt>
      <trkpt lat="45.74936" lon="6.71291">
        <ele>1922</ele>
        <time>2019-08-16T05:36:51Z</time>
      </trkpt>
      <trkpt lat="45.74926" lon="6.71314">
        <ele>1921</ele>
        <time>2019-08-16T05:37:17Z</time>
      </trkpt>
      <trkpt lat="45.74909" lon="6.71343">
        <ele>1922</ele>
        <time>2019-08-16T05:37:52Z</time>
      </trkpt>
      <trkpt lat="45.74891" lon="6.71371">
        <ele>1925</ele>
        <time>2019-08-16T05:38:27Z</time>
      </trkpt>
      <trkpt lat="45.74875" lon="6.71395">
        <ele>1926</ele>
        <time>2019-08-16T05:38:58Z</time>
      </trkpt>
      <trkpt lat="45.74859" lon="6.71419">
        <ele>1927</ele>
        <time>2019-08-16T05:39:29Z</time>
      </trkpt>
      <trkpt lat="45.74823" lon="6.71432">
        <ele>1931</ele>
        <time>2019-08-16T05:40:19Z</time>
      </trkpt>
      <trkpt lat="45.74802" lon="6.71447">
        <ele>1933</ele>
        <time>2019-08-16T05:40:50Z</time>
      </trkpt>
      <trkpt lat="45.74787" lon="6.71451">
        <ele>1934</ele>
        <time>2019-08-16T05:41:10Z</time>
      </trkpt>
      <trkpt lat="45.74766" lon="6.71467">
        <ele>1936</ele>
        <time>2019-08-16T05:41:42Z</time>
      </trkpt>
      <trkpt lat="45.74764" lon="6.71477">
        <ele>1936</ele>
        <time>2019-08-16T05:41:52Z</time>
      </trkpt>
      <trkpt lat="45.74765" lon="6.71487">
        <ele>1935</ele>
        <time>2019-08-16T05:42:01Z</time>
      </trkpt>
      <trkpt lat="45.74772" lon="6.71489">
        <ele>1934</ele>
        <time>2019-08-16T05:42:11Z</time>
      </trkpt>
      <trkpt lat="45.74775" lon="6.71493">
        <ele>1934</ele>
        <time>2019-08-16T05:42:16Z</time>
      </trkpt>
      <trkpt lat="45.74768" lon="6.71501">
        <ele>1934</ele>
        <time>2019-08-16T05:42:28Z</time>
      </trkpt>
      <trkpt lat="45.74754" lon="6.71513">
        <ele>1936</ele>
        <time>2019-08-16T05:42:50Z</time>
      </trkpt>
      <trkpt lat="45.74729" lon="6.71525">
        <ele>1940</ele>
        <time>2019-08-16T05:43:25Z</time>
      </trkpt>
      <trkpt lat="45.74717" lon="6.71546">
        <ele>1943</ele>
        <time>2019-08-16T05:43:50Z</time>
      </trkpt>
      <trkpt lat="45.7471" lon="6.71575">
        <ele>1945</ele>
        <time>2019-08-16T05:44:19Z</time>
      </trkpt>
      <trkpt lat="45.74692" lon="6.71624">
        <ele>1952</ele>
        <time>2019-08-16T05:45:11Z</time>
      </trkpt>
      <trkpt lat="45.7469" lon="6.71645">
        <ele>1955</ele>
        <time>2019-08-16T05:45:30Z</time>
      </trkpt>
      <trkpt lat="45.74674" lon="6.71684">
        <ele>1962</ele>
        <time>2019-08-16T05:46:12Z</time>
      </trkpt>
      <trkpt lat="45.74659" lon="6.71726">
        <ele>1970</ele>
        <time>2019-08-16T05:46:56Z</time>
      </trkpt>
      <trkpt lat="45.74655" lon="6.71739">
        <ele>1973</ele>
        <time>2019-08-16T05:47:10Z</time>
      </trkpt>
      <trkpt lat="45.74664" lon="6.71786">
        <ele>1974</ele>
        <time>2019-08-16T05:47:55Z</time>
      </trkpt>
      <trkpt lat="45.74665" lon="6.71806">
        <ele>1976</ele>
        <time>2019-08-16T05:48:14Z</time>
      </trkpt>
      <trkpt lat="45.74658" lon="6.71811">
        <ele>1979</ele>
        <time>2019-08-16T05:48:24Z</time>
      </trkpt>
      <trkpt lat="45.74652" lon="6.71801">
        <ele>1980</ele>
        <time>2019-08-16T05:48:36Z</time>
      </trkpt>
      <trkpt lat="45.74641" lon="6.71793">
        <ele>1983</ele>
        <time>2019-08-16T05:48:53Z</time>
      </trkpt>
      <trkpt lat="45.74635" lon="6.71782">
        <ele>1984</ele>
        <time>2019-08-16T05:49:06Z</time>
      </trkpt>
      <trkpt lat="45.74628" lon="6.71772">
        <ele>1986</ele>
        <time>2019-08-16T05:49:19Z</time>
      </trkpt>
      <trkpt lat="45.74617" lon="6.71764">
        <ele>1989</ele>
        <time>2019-08-16T05:49:35Z</time>
      </trkpt>
      <trkpt lat="45.74606" lon="6.71745">
        <ele>1991</ele>
        <time>2019-08-16T05:49:58Z</time>
      </trkpt>
      <trkpt lat="45.74582" lon="6.71726">
        <ele>1998</ele>
        <time>2019-08-16T05:50:35Z</time>
      </trkpt>
      <trkpt lat="45.74571" lon="6.71718">
        <ele>2003</ele>
        <time>2019-08-16T05:50:52Z</time>
      </trkpt>
      <trkpt lat="45.74554" lon="6.71711">
        <ele>2012</ele>
        <time>2019-08-16T05:51:15Z</time>
      </trkpt>
      <trkpt lat="45.74537" lon="6.7171">
        <ele>2021</ele>
        <time>2019-08-16T05:51:38Z</time>
      </trkpt>
      <trkpt lat="45.7453" lon="6.71697">
        <ele>2024</ele>
        <time>2019-08-16T05:51:53Z</time>
      </trkpt>
      <trkpt lat="45.74526" lon="6.71681">
        <ele>2025</ele>
        <time>2019-08-16T05:52:09Z</time>
      </trkpt>
      <trkpt lat="45.74524" lon="6.71663">
        <ele>2025</ele>
        <time>2019-08-16T05:52:26Z</time>
      </trkpt>
      <trkpt lat="45.74521" lon="6.71634">
        <ele>2026</ele>
        <time>2019-08-16T05:52:53Z</time>
      </trkpt>
      <trkpt lat="45.74521" lon="6.71609">
        <ele>2024</ele>
        <time>2019-08-16T05:53:16Z</time>
      </trkpt>
      <trkpt lat="45.7452" lon="6.71603">
        <ele>2025</ele>
        <time>2019-08-16T05:53:22Z</time>
      </trkpt>
      <trkpt lat="45.74515" lon="6.71603">
        <ele>2028</ele>
        <time>2019-08-16T05:53:29Z</time>
      </trkpt>
      <trkpt lat="45.74509" lon="6.71612">
        <ele>2031</ele>
        <time>2019-08-16T05:53:40Z</time>
      </trkpt>
      <trkpt lat="45.74497" lon="6.71637">
        <ele>2038</ele>
        <time>2019-08-16T05:54:09Z</time>
      </trkpt>
      <trkpt lat="45.74496" lon="6.71641">
        <ele>2039</ele>
        <time>2019-08-16T05:54:13Z</time>
      </trkpt>
      <trkpt lat="45.74492" lon="6.71643">
        <ele>2040</ele>
        <time>2019-08-16T05:54:18Z</time>
      </trkpt>
      <trkpt lat="45.74488" lon="6.71636">
        <ele>2040</ele>
        <time>2019-08-16T05:54:27Z</time>
      </trkpt>
      <trkpt lat="45.74484" lon="6.71616">
        <ele>2040</ele>
        <time>2019-08-16T05:54:46Z</time>
      </trkpt>
      <trkpt lat="45.74479" lon="6.71606">
        <ele>2041</ele>
        <time>2019-08-16T05:54:58Z</time>
      </trkpt>
      <trkpt lat="45.74471" lon="6.71604">
        <ele>2042</ele>
        <time>2019-08-16T05:55:08Z</time>
      </trkpt>
      <trkpt lat="45.74442" lon="6.71602">
        <ele>2048</ele>
        <time>2019-08-16T05:55:47Z</time>
      </trkpt>
      <trkpt lat="45.74418" lon="6.71597">
        <ele>2053</ele>
        <time>2019-08-16T05:56:20Z</time>
      </trkpt>
      <trkpt lat="45.74401" lon="6.71583">
        <ele>2056</ele>
        <time>2019-08-16T05:56:46Z</time>
      </trkpt>
      <trkpt lat="45.74392" lon="6.71573">
        <ele>2057</ele>
        <time>2019-08-16T05:57:01Z</time>
      </trkpt>
      <trkpt lat="45.74367" lon="6.7156">
        <ele>2062</ele>
        <time>2019-08-16T05:57:36Z</time>
      </trkpt>
      <trkpt lat="45.74319" lon="6.71555">
        <ele>2072</ele>
        <time>2019-08-16T05:58:41Z</time>
      </trkpt>
      <trkpt lat="45.74289" lon="6.71547">
        <ele>2077</ele>
        <time>2019-08-16T05:59:21Z</time>
      </trkpt>
      <trkpt lat="45.74276" lon="6.71537">
        <ele>2078</ele>
        <time>2019-08-16T05:59:41Z</time>
      </trkpt>
      <trkpt lat="45.74261" lon="6.71511">
        <ele>2079</ele>
        <time>2019-08-16T06:00:12Z</time>
      </trkpt>
      <trkpt lat="45.74236" lon="6.71478">
        <ele>2082</ele>
        <time>2019-08-16T06:00:58Z</time>
      </trkpt>
      <trkpt lat="45.74198" lon="6.71458">
        <ele>2089</ele>
        <time>2019-08-16T06:01:52Z</time>
      </trkpt>
      <trkpt lat="45.74175" lon="6.71431">
        <ele>2089</ele>
        <time>2019-08-16T06:02:32Z</time>
      </trkpt>
      <trkpt lat="45.74153" lon="6.71404">
        <ele>2091</ele>
        <time>2019-08-16T06:03:10Z</time>
      </trkpt>
      <trkpt lat="45.74112" lon="6.71379">
        <ele>2100</ele>
        <time>2019-08-16T06:04:10Z</time>
      </trkpt>
      <trkpt lat="45.74091" lon="6.71375">
        <ele>2104</ele>
        <time>2019-08-16T06:04:38Z</time>
      </trkpt>
      <trkpt lat="45.74068" lon="6.71361">
        <ele>2108</ele>
        <time>2019-08-16T06:05:11Z</time>
      </trkpt>
      <trkpt lat="45.74058" lon="6.71343">
        <ele>2108</ele>
        <time>2019-08-16T06:05:33Z</time>
      </trkpt>
      <trkpt lat="45.74051" lon="6.71319">
        <ele>2109</ele>
        <time>2019-08-16T06:05:57Z</time>
      </trkpt>
      <trkpt lat="45.74021" lon="6.713">
        <ele>2116</ele>
        <time>2019-08-16T06:06:41Z</time>
      </trkpt>
      <trkpt lat="45.73987" lon="6.71279">
        <ele>2123</ele>
        <time>2019-08-16T06:07:30Z</time>
      </trkpt>
      <trkpt lat="45.73982" lon="6.71256">
        <ele>2124</ele>
        <time>2019-08-16T06:07:53Z</time>
      </trkpt>
      <trkpt lat="45.7395" lon="6.71216">
        <ele>2135</ele>
        <time>2019-08-16T06:08:49Z</time>
      </trkpt>
      <trkpt lat="45.73919" lon="6.7116">
        <ele>2145</ele>
        <time>2019-08-16T06:09:56Z</time>
      </trkpt>
      <trkpt lat="45.73902" lon="6.71139">
        <ele>2156</ele>
        <time>2019-08-16T06:10:26Z</time>
      </trkpt>
      <trkpt lat="45.7389" lon="6.71098">
        <ele>2173</ele>
        <time>2019-08-16T06:11:07Z</time>
      </trkpt>
      <trkpt lat="45.73877" lon="6.71074">
        <ele>2180</ele>
        <time>2019-08-16T06:11:35Z</time>
      </trkpt>
      <trkpt lat="45.73829" lon="6.70995">
        <ele>2200</ele>
        <time>2019-08-16T06:13:13Z</time>
      </trkpt>
      <trkpt lat="45.73804" lon="6.70993">
        <ele>2207</ele>
        <time>2019-08-16T06:13:46Z</time>
      </trkpt>
      <trkpt lat="45.73805" lon="6.70979">
        <ele>2211</ele>
        <time>2019-08-16T06:14:00Z</time>
      </trkpt>
      <trkpt lat="45.73808" lon="6.70968">
        <ele>2215</ele>
        <time>2019-08-16T06:14:11Z</time>
      </trkpt>
      <trkpt lat="45.73797" lon="6.7095">
        <ele>2222</ele>
        <time>2019-08-16T06:14:33Z</time>
      </trkpt>
      <trkpt lat="45.73784" lon="6.70934">
        <ele>2227</ele>
        <time>2019-08-16T06:14:56Z</time>
      </trkpt>
      <trkpt lat="45.73784" lon="6.70909">
        <ele>2233</ele>
        <time>2019-08-16T06:15:19Z</time>
      </trkpt>
      <trkpt lat="45.73769" lon="6.70885">
        <ele>2237</ele>
        <time>2019-08-16T06:15:49Z</time>
      </trkpt>
      <trkpt lat="45.73758" lon="6.70866">
        <ele>2241</ele>
        <time>2019-08-16T06:16:12Z</time>
      </trkpt>
      <trkpt lat="45.73785" lon="6.70812">
        <ele>2248</ele>
        <time>2019-08-16T06:17:14Z</time>
      </trkpt>
      <trkpt lat="45.73766" lon="6.70785">
        <ele>2253</ele>
        <time>2019-08-16T06:17:50Z</time>
      </trkpt>
      <trkpt lat="45.73739" lon="6.70767">
        <ele>2260</ele>
        <time>2019-08-16T06:18:29Z</time>
      </trkpt>
      <trkpt lat="45.73701" lon="6.7077">
        <ele>2268</ele>
        <time>2019-08-16T06:19:20Z</time>
      </trkpt>
      <trkpt lat="45.73678" lon="6.70775">
        <ele>2273</ele>
        <time>2019-08-16T06:19:51Z</time>
      </trkpt>
      <trkpt lat="45.73654" lon="6.70774">
        <ele>2279</ele>
        <time>2019-08-16T06:20:23Z</time>
      </trkpt>
      <trkpt lat="45.73628" lon="6.70754">
        <ele>2291</ele>
        <time>2019-08-16T06:21:03Z</time>
      </trkpt>
      <trkpt lat="45.73601" lon="6.70735">
        <ele>2302</ele>
        <time>2019-08-16T06:21:43Z</time>
      </trkpt>
      <trkpt lat="45.73578" lon="6.70709">
        <ele>2315</ele>
        <time>2019-08-16T06:22:22Z</time>
      </trkpt>
      <trkpt lat="45.73555" lon="6.70683">
        <ele>2324</ele>
        <time>2019-08-16T06:23:01Z</time>
      </trkpt>
      <trkpt lat="45.73534" lon="6.70673">
        <ele>2328</ele>
        <time>2019-08-16T06:23:30Z</time>
      </trkpt>
      <trkpt lat="45.73523" lon="6.70668">
        <ele>2329</ele>
        <time>2019-08-16T06:23:46Z</time>
      </trkpt>
      <trkpt lat="45.73513" lon="6.70667">
        <ele>2329</ele>
        <time>2019-08-16T06:23:59Z</time>
      </trkpt>
      <trkpt lat="45.73505" lon="6.70659">
        <ele>2330</ele>
        <time>2019-08-16T06:24:12Z</time>
      </trkpt>
      <trkpt lat="45.7349" lon="6.70687">
        <ele>2329</ele>
        <time>2019-08-16T06:24:45Z</time>
      </trkpt>
      <trkpt lat="45.73471" lon="6.70713">
        <ele>2327</ele>
        <time>2019-08-16T06:25:20Z</time>
      </trkpt>
      <trkpt lat="45.73451" lon="6.70739">
        <ele>2326</ele>
        <time>2019-08-16T06:25:56Z</time>
      </trkpt>
      <trkpt lat="45.73434" lon="6.70772">
        <ele>2333</ele>
        <time>2019-08-16T06:26:34Z</time>
      </trkpt>
      <trkpt lat="45.73418" lon="6.70806">
        <ele>2345</ele>
        <time>2019-08-16T06:27:13Z</time>
      </trkpt>
      <trkpt lat="45.73404" lon="6.70826">
        <ele>2352</ele>
        <time>2019-08-16T06:27:39Z</time>
      </trkpt>
      <trkpt lat="45.73386" lon="6.70846">
        <ele>2357</ele>
        <time>2019-08-16T06:28:09Z</time>
      </trkpt>
      <trkpt lat="45.73347" lon="6.70866">
        <ele>2364</ele>
        <time>2019-08-16T06:29:05Z</time>
      </trkpt>
      <trkpt lat="45.73331" lon="6.70875">
        <ele>2368</ele>
        <time>2019-08-16T06:29:28Z</time>
      </trkpt>
      <trkpt lat="45.73314" lon="6.70864">
        <ele>2366</ele>
        <time>2019-08-16T06:29:52Z</time>
      </trkpt>
      <trkpt lat="45.73297" lon="6.70848">
        <ele>2362</ele>
        <time>2019-08-16T06:30:20Z</time>
      </trkpt>
      <trkpt lat="45.73278" lon="6.70849">
        <ele>2367</ele>
        <time>2019-08-16T06:30:45Z</time>
      </trkpt>
      <trkpt lat="45.73258" lon="6.70837">
        <ele>2367</ele>
        <time>2019-08-16T06:31:14Z</time>
      </trkpt>
      <trkpt lat="45.73243" lon="6.70829">
        <ele>2366</ele>
        <time>2019-08-16T06:31:35Z</time>
      </trkpt>
      <trkpt lat="45.73226" lon="6.70833">
        <ele>2369</ele>
        <time>2019-08-16T06:31:58Z</time>
      </trkpt>
      <trkpt lat="45.73213" lon="6.70829">
        <ele>2369</ele>
        <time>2019-08-16T06:32:16Z</time>
      </trkpt>
      <trkpt lat="45.73162" lon="6.70841">
        <ele>2379</ele>
        <time>2019-08-16T06:33:25Z</time>
      </trkpt>
      <trkpt lat="45.7315" lon="6.70836">
        <ele>2378</ele>
        <time>2019-08-16T06:33:42Z</time>
      </trkpt>
      <trkpt lat="45.73128" lon="6.70851">
        <ele>2385</ele>
        <time>2019-08-16T06:34:14Z</time>
      </trkpt>
      <trkpt lat="45.73101" lon="6.7085">
        <ele>2386</ele>
        <time>2019-08-16T06:34:50Z</time>
      </trkpt>
      <trkpt lat="45.73091" lon="6.70858">
        <ele>2391</ele>
        <time>2019-08-16T06:35:05Z</time>
      </trkpt>
      <trkpt lat="45.73086" lon="6.70867">
        <ele>2395</ele>
        <time>2019-08-16T06:35:16Z</time>
      </trkpt>
      <trkpt lat="45.73085" lon="6.70884">
        <ele>2402</ele>
        <time>2019-08-16T06:35:32Z</time>
      </trkpt>
      <trkpt lat="45.73076" lon="6.70894">
        <ele>2406</ele>
        <time>2019-08-16T06:35:47Z</time>
      </trkpt>
      <trkpt lat="45.7307" lon="6.70907">
        <ele>2411</ele>
        <time>2019-08-16T06:36:02Z</time>
      </trkpt>
      <trkpt lat="45.73059" lon="6.70911">
        <ele>2411</ele>
        <time>2019-08-16T06:36:17Z</time>
      </trkpt>
      <trkpt lat="45.73047" lon="6.70902">
        <ele>2406</ele>
        <time>2019-08-16T06:36:35Z</time>
      </trkpt>
      <trkpt lat="45.73018" lon="6.70923">
        <ele>2409</ele>
        <time>2019-08-16T06:37:18Z</time>
      </trkpt>
      <trkpt lat="45.73009" lon="6.70938">
        <ele>2412</ele>
        <time>2019-08-16T06:37:37Z</time>
      </trkpt>
      <trkpt lat="45.72995" lon="6.70937">
        <ele>2409</ele>
        <time>2019-08-16T06:37:55Z</time>
      </trkpt>
      <trkpt lat="45.72989" lon="6.70943">
        <ele>2410</ele>
        <time>2019-08-16T06:38:05Z</time>
      </trkpt>
      <trkpt lat="45.72979" lon="6.7097">
        <ele>2416</ele>
        <time>2019-08-16T06:38:34Z</time>
      </trkpt>
      <trkpt lat="45.72964" lon="6.70984">
        <ele>2418</ele>
        <time>2019-08-16T06:38:58Z</time>
      </trkpt>
      <trkpt lat="45.72959" lon="6.71007">
        <ele>2424</ele>
        <time>2019-08-16T06:39:20Z</time>
      </trkpt>
      <trkpt lat="45.72951" lon="6.7102">
        <ele>2426</ele>
        <time>2019-08-16T06:39:36Z</time>
      </trkpt>
      <trkpt lat="45.7294" lon="6.71027">
        <ele>2427</ele>
        <time>2019-08-16T06:39:52Z</time>
      </trkpt>
      <trkpt lat="45.72914" lon="6.71025">
        <ele>2421</ele>
        <time>2019-08-16T06:40:27Z</time>
      </trkpt>
      <trkpt lat="45.72888" lon="6.71022">
        <ele>2415</ele>
        <time>2019-08-16T06:41:02Z</time>
      </trkpt>
      <trkpt lat="45.72867" lon="6.71031">
        <ele>2414</ele>
        <time>2019-08-16T06:41:31Z</time>
      </trkpt>
      <trkpt lat="45.7284" lon="6.71027">
        <ele>2407</ele>
        <time>2019-08-16T06:42:07Z</time>
      </trkpt>
      <trkpt lat="45.72825" lon="6.71034">
        <ele>2406</ele>
        <time>2019-08-16T06:42:28Z</time>
      </trkpt>
      <trkpt lat="45.72809" lon="6.71039">
        <ele>2405</ele>
        <time>2019-08-16T06:42:50Z</time>
      </trkpt>
      <trkpt lat="45.72804" lon="6.71052">
        <ele>2408</ele>
        <time>2019-08-16T06:43:04Z</time>
      </trkpt>
      <trkpt lat="45.72801" lon="6.71076">
        <ele>2414</ele>
        <time>2019-08-16T06:43:27Z</time>
      </trkpt>
      <trkpt lat="45.72798" lon="6.7108">
        <ele>2415</ele>
        <time>2019-08-16T06:43:32Z</time>
      </trkpt>
      <trkpt lat="45.72788" lon="6.71094">
        <ele>2418</ele>
        <time>2019-08-16T06:43:51Z</time>
      </trkpt>
      <trkpt lat="45.72756" lon="6.71108">
        <ele>2416</ele>
        <time>2019-08-16T06:44:36Z</time>
      </trkpt>
      <trkpt lat="45.72742" lon="6.71122">
        <ele>2417</ele>
        <time>2019-08-16T06:44:58Z</time>
      </trkpt>
      <trkpt lat="45.72728" lon="6.71125">
        <ele>2415</ele>
        <time>2019-08-16T06:45:17Z</time>
      </trkpt>
      <trkpt lat="45.72706" lon="6.71134">
        <ele>2413</ele>
        <time>2019-08-16T06:45:48Z</time>
      </trkpt>
      <trkpt lat="45.72698" lon="6.71144">
        <ele>2414</ele>
        <time>2019-08-16T06:46:02Z</time>
      </trkpt>
      <trkpt lat="45.72691" lon="6.71163">
        <ele>2418</ele>
        <time>2019-08-16T06:46:22Z</time>
      </trkpt>
      <trkpt lat="45.72675" lon="6.71199">
        <ele>2422</ele>
        <time>2019-08-16T06:47:02Z</time>
      </trkpt>
      <trkpt lat="45.72666" lon="6.71219">
        <ele>2423</ele>
        <time>2019-08-16T06:47:24Z</time>
      </trkpt>
      <trkpt lat="45.72654" lon="6.71226">
        <ele>2422</ele>
        <time>2019-08-16T06:47:41Z</time>
      </trkpt>
      <trkpt lat="45.72649" lon="6.71233">
        <ele>2422</ele>
        <time>2019-08-16T06:47:50Z</time>
      </trkpt>
      <trkpt lat="45.7263" lon="6.71229">
        <ele>2416</ele>
        <time>2019-08-16T06:48:16Z</time>
      </trkpt>
      <trkpt lat="45.72624" lon="6.71232">
        <ele>2415</ele>
        <time>2019-08-16T06:48:25Z</time>
      </trkpt>
      <trkpt lat="45.72616" lon="6.71257">
        <ele>2419</ele>
        <time>2019-08-16T06:48:50Z</time>
      </trkpt>
      <trkpt lat="45.72601" lon="6.71263">
        <ele>2417</ele>
        <time>2019-08-16T06:49:11Z</time>
      </trkpt>
      <trkpt lat="45.72591" lon="6.71269">
        <ele>2416</ele>
        <time>2019-08-16T06:49:25Z</time>
      </trkpt>
      <trkpt lat="45.72582" lon="6.7128">
        <ele>2416</ele>
        <time>2019-08-16T06:49:41Z</time>
      </trkpt>
      <trkpt lat="45.7258" lon="6.71309">
        <ele>2423</ele>
        <time>2019-08-16T06:50:08Z</time>
      </trkpt>
      <trkpt lat="45.72573" lon="6.71322">
        <ele>2425</ele>
        <time>2019-08-16T06:50:24Z</time>
      </trkpt>
      <trkpt lat="45.72565" lon="6.71332">
        <ele>2425</ele>
        <time>2019-08-16T06:50:38Z</time>
      </trkpt>
      <trkpt lat="45.72564" lon="6.71356">
        <ele>2431</ele>
        <time>2019-08-16T06:51:00Z</time>
      </trkpt>
      <trkpt lat="45.72552" lon="6.71376">
        <ele>2432</ele>
        <time>2019-08-16T06:51:25Z</time>
      </trkpt>
      <trkpt lat="45.72551" lon="6.71382">
        <ele>2433</ele>
        <time>2019-08-16T06:51:31Z</time>
      </trkpt>
      <trkpt lat="45.72555" lon="6.71404">
        <ele>2438</ele>
        <time>2019-08-16T06:51:52Z</time>
      </trkpt>
      <trkpt lat="45.72553" lon="6.71438">
        <ele>2445</ele>
        <time>2019-08-16T06:52:24Z</time>
      </trkpt>
      <trkpt lat="45.72544" lon="6.71459">
        <ele>2446</ele>
        <time>2019-08-16T06:52:46Z</time>
      </trkpt>
      <trkpt lat="45.7254" lon="6.71469">
        <ele>2447</ele>
        <time>2019-08-16T06:52:57Z</time>
      </trkpt>
      <trkpt lat="45.72538" lon="6.71498">
        <ele>2452</ele>
        <time>2019-08-16T06:53:24Z</time>
      </trkpt>
      <trkpt lat="45.7254" lon="6.71517">
        <ele>2457</ele>
        <time>2019-08-16T06:53:42Z</time>
      </trkpt>
      <trkpt lat="45.72548" lon="6.71541">
        <ele>2465</ele>
        <time>2019-08-16T06:54:07Z</time>
      </trkpt>
      <trkpt lat="45.72552" lon="6.71562">
        <ele>2470</ele>
        <time>2019-08-16T06:54:27Z</time>
      </trkpt>
      <trkpt lat="45.7255" lon="6.71582">
        <ele>2474</ele>
        <time>2019-08-16T06:54:46Z</time>
      </trkpt>
      <trkpt lat="45.72545" lon="6.71594">
        <ele>2476</ele>
        <time>2019-08-16T06:54:59Z</time>
      </trkpt>
      <trkpt lat="45.72549" lon="6.71608">
        <ele>2479</ele>
        <time>2019-08-16T06:55:13Z</time>
      </trkpt>
      <trkpt lat="45.72544" lon="6.71616">
        <ele>2480</ele>
        <time>2019-08-16T06:55:23Z</time>
      </trkpt>
      <trkpt lat="45.72534" lon="6.71608">
        <ele>2477</ele>
        <time>2019-08-16T06:55:39Z</time>
      </trkpt>
      <trkpt lat="45.72528" lon="6.7161">
        <ele>2477</ele>
        <time>2019-08-16T06:55:47Z</time>
      </trkpt>
      <trkpt lat="45.72523" lon="6.71618">
        <ele>2478</ele>
        <time>2019-08-16T06:55:57Z</time>
      </trkpt>
      <trkpt lat="45.72512" lon="6.71645">
        <ele>2482</ele>
        <time>2019-08-16T06:56:26Z</time>
      </trkpt>
      <trkpt lat="45.72501" lon="6.71667">
        <ele>2486</ele>
        <time>2019-08-16T06:56:51Z</time>
      </trkpt>
      <trkpt lat="45.72468" lon="6.71674">
        <ele>2483</ele>
        <time>2019-08-16T06:57:36Z</time>
      </trkpt>
      <trkpt lat="45.72452" lon="6.71684">
        <ele>2483</ele>
        <time>2019-08-16T06:57:59Z</time>
      </trkpt>
      <trkpt lat="45.7243" lon="6.717">
        <ele>2482</ele>
        <time>2019-08-16T06:58:32Z</time>
      </trkpt>
      <trkpt lat="45.72417" lon="6.71706">
        <ele>2481</ele>
        <time>2019-08-16T06:58:50Z</time>
      </trkpt>
      <trkpt lat="45.72406" lon="6.71719">
        <ele>2481</ele>
        <time>2019-08-16T06:59:09Z</time>
      </trkpt>
      <trkpt lat="45.72402" lon="6.71721">
        <ele>2481</ele>
        <time>2019-08-16T06:59:15Z</time>
      </trkpt>
      <trkpt lat="45.7238" lon="6.71717">
        <ele>2476</ele>
        <time>2019-08-16T06:59:44Z</time>
      </trkpt>
      <trkpt lat="45.72361" lon="6.71711">
        <ele>2472</ele>
        <time>2019-08-16T07:00:10Z</time>
      </trkpt>
      <trkpt lat="45.7235" lon="6.71709">
        <ele>2470</ele>
        <time>2019-08-16T07:00:25Z</time>
      </trkpt>
      <trkpt lat="45.72339" lon="6.7171">
        <ele>2469</ele>
        <time>2019-08-16T07:00:40Z</time>
      </trkpt>
      <trkpt lat="45.7232" lon="6.71714">
        <ele>2465</ele>
        <time>2019-08-16T07:01:05Z</time>
      </trkpt>
      <trkpt lat="45.72283" lon="6.7172">
        <ele>2456</ele>
        <time>2019-08-16T07:01:55Z</time>
      </trkpt>
      <trkpt lat="45.72253" lon="6.7173">
        <ele>2450</ele>
        <time>2019-08-16T07:02:36Z</time>
      </trkpt>
      <trkpt lat="45.72237" lon="6.71739">
        <ele>2447</ele>
        <time>2019-08-16T07:02:59Z</time>
      </trkpt>
      <trkpt lat="45.72219" lon="6.71748">
        <ele>2443</ele>
        <time>2019-08-16T07:03:25Z</time>
      </trkpt>
      <trkpt lat="45.72204" lon="6.71745">
        <ele>2439</ele>
        <time>2019-08-16T07:03:45Z</time>
      </trkpt>
      <trkpt lat="45.72192" lon="6.71745">
        <ele>2436</ele>
        <time>2019-08-16T07:04:01Z</time>
      </trkpt>
      <trkpt lat="45.72189" lon="6.71738">
        <ele>2435</ele>
        <time>2019-08-16T07:04:08Z</time>
      </trkpt>
      <trkpt lat="45.7219" lon="6.71724">
        <ele>2434</ele>
        <time>2019-08-16T07:04:22Z</time>
      </trkpt>
      <trkpt lat="45.72196" lon="6.71716">
        <ele>2435</ele>
        <time>2019-08-16T07:04:33Z</time>
      </trkpt>
      <trkpt lat="45.72202" lon="6.71712">
        <ele>2436</ele>
        <time>2019-08-16T07:04:41Z</time>
      </trkpt>
      <trkpt lat="45.72206" lon="6.71702">
        <ele>2436</ele>
        <time>2019-08-16T07:04:52Z</time>
      </trkpt>
      <trkpt lat="45.72211" lon="6.71666">
        <ele>2435</ele>
        <time>2019-08-16T07:05:26Z</time>
      </trkpt>
      <trkpt lat="45.72211" lon="6.71652">
        <ele>2435</ele>
        <time>2019-08-16T07:05:39Z</time>
      </trkpt>
      <trkpt lat="45.72208" lon="6.71638">
        <ele>2435</ele>
        <time>2019-08-16T07:05:53Z</time>
      </trkpt>
      <trkpt lat="45.72205" lon="6.71618">
        <ele>2435</ele>
        <time>2019-08-16T07:06:12Z</time>
      </trkpt>
      <trkpt lat="45.72197" lon="6.71605">
        <ele>2433</ele>
        <time>2019-08-16T07:06:28Z</time>
      </trkpt>
      <trkpt lat="45.72185" lon="6.71593">
        <ele>2430</ele>
        <time>2019-08-16T07:06:48Z</time>
      </trkpt>
      <trkpt lat="45.72171" lon="6.71584">
        <ele>2427</ele>
        <time>2019-08-16T07:07:08Z</time>
      </trkpt>
      <trkpt lat="45.72138" lon="6.71567">
        <ele>2421</ele>
        <time>2019-08-16T07:07:55Z</time>
      </trkpt>
      <trkpt lat="45.72118" lon="6.71555">
        <ele>2419</ele>
        <time>2019-08-16T07:08:24Z</time>
      </trkpt>
      <trkpt lat="45.72105" lon="6.71544">
        <ele>2417</ele>
        <time>2019-08-16T07:08:44Z</time>
      </trkpt>
      <trkpt lat="45.72087" lon="6.71513">
        <ele>2417</ele>
        <time>2019-08-16T07:09:22Z</time>
      </trkpt>
      <trkpt lat="45.72081" lon="6.71496">
        <ele>2418</ele>
        <time>2019-08-16T07:09:39Z</time>
      </trkpt>
      <trkpt lat="45.72073" lon="6.71482">
        <ele>2417</ele>
        <time>2019-08-16T07:09:56Z</time>
      </trkpt>
      <trkpt lat="45.72063" lon="6.7146">
        <ele>2416</ele>
        <time>2019-08-16T07:10:21Z</time>
      </trkpt>
      <trkpt lat="45.72051" lon="6.71452">
        <ele>2413</ele>
        <time>2019-08-16T07:10:38Z</time>
      </trkpt>
      <trkpt lat="45.72028" lon="6.71455">
        <ele>2408</ele>
        <time>2019-08-16T07:11:09Z</time>
      </trkpt>
      <trkpt lat="45.71985" lon="6.71477">
        <ele>2400</ele>
        <time>2019-08-16T07:12:10Z</time>
      </trkpt>
      <trkpt lat="45.71966" lon="6.71496">
        <ele>2401</ele>
        <time>2019-08-16T07:12:41Z</time>
      </trkpt>
      <trkpt lat="45.7194" lon="6.71498">
        <ele>2403</ele>
        <time>2019-08-16T07:13:16Z</time>
      </trkpt>
      <trkpt lat="45.71914" lon="6.71499">
        <ele>2405</ele>
        <time>2019-08-16T07:13:50Z</time>
      </trkpt>
      <trkpt lat="45.71892" lon="6.71484">
        <ele>2407</ele>
        <time>2019-08-16T07:14:23Z</time>
      </trkpt>
      <trkpt lat="45.71868" lon="6.71468">
        <ele>2411</ele>
        <time>2019-08-16T07:14:58Z</time>
      </trkpt>
      <trkpt lat="45.71827" lon="6.71453">
        <ele>2418</ele>
        <time>2019-08-16T07:15:55Z</time>
      </trkpt>
      <trkpt lat="45.71819" lon="6.71451">
        <ele>2420</ele>
        <time>2019-08-16T07:16:06Z</time>
      </trkpt>
      <trkpt lat="45.71808" lon="6.7144">
        <ele>2423</ele>
        <time>2019-08-16T07:16:24Z</time>
      </trkpt>
      <trkpt lat="45.718" lon="6.71433">
        <ele>2426</ele>
        <time>2019-08-16T07:16:36Z</time>
      </trkpt>
      <trkpt lat="45.71826" lon="6.71436">
        <ele>2420</ele>
        <time>2019-08-16T07:17:11Z</time>
      </trkpt>
      <trkpt lat="45.7181" lon="6.71408">
        <ele>2425</ele>
        <time>2019-08-16T07:17:45Z</time>
      </trkpt>
      <trkpt lat="45.71768" lon="6.71359">
        <ele>2440</ele>
        <time>2019-08-16T07:18:57Z</time>
      </trkpt>
      <trkpt lat="45.71755" lon="6.71344">
        <ele>2447</ele>
        <time>2019-08-16T07:19:19Z</time>
      </trkpt>
      <trkpt lat="45.71745" lon="6.7135">
        <ele>2448</ele>
        <time>2019-08-16T07:19:34Z</time>
      </trkpt>
      <trkpt lat="45.71726" lon="6.71337">
        <ele>2449</ele>
        <time>2019-08-16T07:20:02Z</time>
      </trkpt>
      <trkpt lat="45.71693" lon="6.71268">
        <ele>2453</ele>
        <time>2019-08-16T07:21:20Z</time>
      </trkpt>
      <trkpt lat="45.71677" lon="6.71235">
        <ele>2457</ele>
        <time>2019-08-16T07:21:57Z</time>
      </trkpt>
      <trkpt lat="45.71669" lon="6.712">
        <ele>2452</ele>
        <time>2019-08-16T07:22:31Z</time>
      </trkpt>
      <trkpt lat="45.7166" lon="6.71185">
        <ele>2450</ele>
        <time>2019-08-16T07:22:50Z</time>
      </trkpt>
      <trkpt lat="45.71627" lon="6.71169">
        <ele>2453</ele>
        <time>2019-08-16T07:23:36Z</time>
      </trkpt>
      <trkpt lat="45.71605" lon="6.7114">
        <ele>2452</ele>
        <time>2019-08-16T07:24:16Z</time>
      </trkpt>
      <trkpt lat="45.71571" lon="6.71111">
        <ele>2460</ele>
        <time>2019-08-16T07:25:09Z</time>
      </trkpt>
      <trkpt lat="45.7151" lon="6.71078">
        <ele>2480</ele>
        <time>2019-08-16T07:26:36Z</time>
      </trkpt>
      <trkpt lat="45.71489" lon="6.71067">
        <ele>2483</ele>
        <time>2019-08-16T07:27:06Z</time>
      </trkpt>
      <trkpt lat="45.71446" lon="6.71058">
        <ele>2492</ele>
        <time>2019-08-16T07:28:04Z</time>
      </trkpt>
      <trkpt lat="45.7143" lon="6.71056">
        <ele>2496</ele>
        <time>2019-08-16T07:28:25Z</time>
      </trkpt>
      <trkpt lat="45.71451" lon="6.71046">
        <ele>2489</ele>
        <time>2019-08-16T07:28:55Z</time>
      </trkpt>
      <trkpt lat="45.71438" lon="6.71033">
        <ele>2492</ele>
        <time>2019-08-16T07:29:16Z</time>
      </trkpt>
      <trkpt lat="45.71425" lon="6.71018">
        <ele>2496</ele>
        <time>2019-08-16T07:29:38Z</time>
      </trkpt>
      <trkpt lat="45.71406" lon="6.70994">
        <ele>2497</ele>
        <time>2019-08-16T07:30:12Z</time>
      </trkpt>
      <trkpt lat="45.71383" lon="6.70974">
        <ele>2493</ele>
        <time>2019-08-16T07:30:48Z</time>
      </trkpt>
      <trkpt lat="45.71359" lon="6.70951">
        <ele>2493</ele>
        <time>2019-08-16T07:31:27Z</time>
      </trkpt>
      <trkpt lat="45.71332" lon="6.70927">
        <ele>2499</ele>
        <time>2019-08-16T07:32:09Z</time>
      </trkpt>
      <trkpt lat="45.71303" lon="6.7091">
        <ele>2499</ele>
        <time>2019-08-16T07:32:51Z</time>
      </trkpt>
      <trkpt lat="45.71281" lon="6.70896">
        <ele>2500</ele>
        <time>2019-08-16T07:33:23Z</time>
      </trkpt>
      <trkpt lat="45.71265" lon="6.70896">
        <ele>2502</ele>
        <time>2019-08-16T07:33:44Z</time>
      </trkpt>
      <trkpt lat="45.71243" lon="6.70878">
        <ele>2503</ele>
        <time>2019-08-16T07:34:18Z</time>
      </trkpt>
      <trkpt lat="45.71229" lon="6.70846">
        <ele>2503</ele>
        <time>2019-08-16T07:34:53Z</time>
      </trkpt>
      <trkpt lat="45.71214" lon="6.70813">
        <ele>2497</ele>
        <time>2019-08-16T07:35:30Z</time>
      </trkpt>
      <trkpt lat="45.71203" lon="6.70782">
        <ele>2491</ele>
        <time>2019-08-16T07:36:02Z</time>
      </trkpt>
      <trkpt lat="45.71192" lon="6.70751">
        <ele>2488</ele>
        <time>2019-08-16T07:36:35Z</time>
      </trkpt>
      <trkpt lat="45.71177" lon="6.70721">
        <ele>2485</ele>
        <time>2019-08-16T07:37:09Z</time>
      </trkpt>
      <trkpt lat="45.71158" lon="6.7068">
        <ele>2479</ele>
        <time>2019-08-16T07:37:55Z</time>
      </trkpt>
      <trkpt lat="45.71137" lon="6.70632">
        <ele>2465</ele>
        <time>2019-08-16T07:38:48Z</time>
      </trkpt>
      <trkpt lat="45.71118" lon="6.70576">
        <ele>2460</ele>
        <time>2019-08-16T07:39:46Z</time>
      </trkpt>
      <trkpt lat="45.71107" lon="6.70555">
        <ele>2460</ele>
        <time>2019-08-16T07:40:10Z</time>
      </trkpt>
      <trkpt lat="45.71098" lon="6.70538">
        <ele>2462</ele>
        <time>2019-08-16T07:40:30Z</time>
      </trkpt>
      <trkpt lat="45.71069" lon="6.70499">
        <ele>2465</ele>
        <time>2019-08-16T07:41:23Z</time>
      </trkpt>
      <trkpt lat="45.71053" lon="6.70469">
        <ele>2453</ele>
        <time>2019-08-16T07:41:58Z</time>
      </trkpt>
      <trkpt lat="45.71048" lon="6.70425">
        <ele>2443</ele>
        <time>2019-08-16T07:42:40Z</time>
      </trkpt>
      <trkpt lat="45.71036" lon="6.70373">
        <ele>2428</ele>
        <time>2019-08-16T07:43:31Z</time>
      </trkpt>
      <trkpt lat="45.71024" lon="6.70326">
        <ele>2419</ele>
        <time>2019-08-16T07:44:18Z</time>
      </trkpt>
      <trkpt lat="45.71018" lon="6.70287">
        <ele>2409</ele>
        <time>2019-08-16T07:44:55Z</time>
      </trkpt>
      <trkpt lat="45.71013" lon="6.70248">
        <ele>2399</ele>
        <time>2019-08-16T07:45:32Z</time>
      </trkpt>
      <trkpt lat="45.71007" lon="6.70228">
        <ele>2398</ele>
        <time>2019-08-16T07:45:52Z</time>
      </trkpt>
      <trkpt lat="45.71002" lon="6.70245">
        <ele>2405</ele>
        <time>2019-08-16T07:46:09Z</time>
      </trkpt>
      <trkpt lat="45.70998" lon="6.7023">
        <ele>2402</ele>
        <time>2019-08-16T07:46:24Z</time>
      </trkpt>
      <trkpt lat="45.70998" lon="6.70209">
        <ele>2398</ele>
        <time>2019-08-16T07:46:44Z</time>
      </trkpt>
      <trkpt lat="45.70991" lon="6.70177">
        <ele>2391</ele>
        <time>2019-08-16T07:47:15Z</time>
      </trkpt>
      <trkpt lat="45.70982" lon="6.70148">
        <ele>2384</ele>
        <time>2019-08-16T07:47:45Z</time>
      </trkpt>
      <trkpt lat="45.70974" lon="6.70117">
        <ele>2379</ele>
        <time>2019-08-16T07:48:15Z</time>
      </trkpt>
      <trkpt lat="45.70969" lon="6.70086">
        <ele>2375</ele>
        <time>2019-08-16T07:48:45Z</time>
      </trkpt>
      <trkpt lat="45.70961" lon="6.70059">
        <ele>2378</ele>
        <time>2019-08-16T07:49:12Z</time>
      </trkpt>
      <trkpt lat="45.70953" lon="6.70039">
        <ele>2381</ele>
        <time>2019-08-16T07:49:34Z</time>
      </trkpt>
      <trkpt lat="45.70943" lon="6.70008">
        <ele>2386</ele>
        <time>2019-08-16T07:50:06Z</time>
      </trkpt>
      <trkpt lat="45.70938" lon="6.69992">
        <ele>2388</ele>
        <time>2019-08-16T07:50:22Z</time>
      </trkpt>
      <trkpt lat="45.70942" lon="6.69971">
        <ele>2387</ele>
        <time>2019-08-16T07:50:42Z</time>
      </trkpt>
      <trkpt lat="45.70944" lon="6.69981">
        <ele>2386</ele>
        <time>2019-08-16T07:50:52Z</time>
      </trkpt>
      <trkpt lat="45.70946" lon="6.69991">
        <ele>2385</ele>
        <time>2019-08-16T07:51:02Z</time>
      </trkpt>
      <trkpt lat="45.7095" lon="6.70006">
        <ele>2383</ele>
        <time>2019-08-16T07:51:17Z</time>
      </trkpt>
      <trkpt lat="45.70954" lon="6.70014">
        <ele>2382</ele>
        <time>2019-08-16T07:51:26Z</time>
      </trkpt>
      <trkpt lat="45.70954" lon="6.7">
        <ele>2382</ele>
        <time>2019-08-16T07:51:39Z</time>
      </trkpt>
      <trkpt lat="45.70955" lon="6.69983">
        <ele>2382</ele>
        <time>2019-08-16T07:51:55Z</time>
      </trkpt>
      <trkpt lat="45.70956" lon="6.69972">
        <ele>2382</ele>
        <time>2019-08-16T07:52:05Z</time>
      </trkpt>
      <trkpt lat="45.70959" lon="6.69958">
        <ele>2381</ele>
        <time>2019-08-16T07:52:19Z</time>
      </trkpt>
      <trkpt lat="45.70963" lon="6.69941">
        <ele>2379</ele>
        <time>2019-08-16T07:52:35Z</time>
      </trkpt>
      <trkpt lat="45.70962" lon="6.6993">
        <ele>2380</ele>
        <time>2019-08-16T07:52:46Z</time>
      </trkpt>
      <trkpt lat="45.70963" lon="6.69917">
        <ele>2379</ele>
        <time>2019-08-16T07:52:58Z</time>
      </trkpt>
      <trkpt lat="45.70968" lon="6.69895">
        <ele>2373</ele>
        <time>2019-08-16T07:53:19Z</time>
      </trkpt>
      <trkpt lat="45.70969" lon="6.69891">
        <ele>2372</ele>
        <time>2019-08-16T07:53:23Z</time>
      </trkpt>
      <trkpt lat="45.70975" lon="6.6988">
        <ele>2368</ele>
        <time>2019-08-16T07:53:36Z</time>
      </trkpt>
      <trkpt lat="45.70978" lon="6.6987">
        <ele>2365</ele>
        <time>2019-08-16T07:53:47Z</time>
      </trkpt>
      <trkpt lat="45.70981" lon="6.69857">
        <ele>2362</ele>
        <time>2019-08-16T07:53:59Z</time>
      </trkpt>
      <trkpt lat="45.7098" lon="6.69851">
        <ele>2362</ele>
        <time>2019-08-16T07:54:05Z</time>
      </trkpt>
      <trkpt lat="45.70977" lon="6.69847">
        <ele>2362</ele>
        <time>2019-08-16T07:54:11Z</time>
      </trkpt>
      <trkpt lat="45.70971" lon="6.69844">
        <ele>2364</ele>
        <time>2019-08-16T07:54:19Z</time>
      </trkpt>
      <trkpt lat="45.70966" lon="6.6984">
        <ele>2364</ele>
        <time>2019-08-16T07:54:27Z</time>
      </trkpt>
      <trkpt lat="45.70964" lon="6.6983">
        <ele>2363</ele>
        <time>2019-08-16T07:54:36Z</time>
      </trkpt>
      <trkpt lat="45.70962" lon="6.69813">
        <ele>2361</ele>
        <time>2019-08-16T07:54:52Z</time>
      </trkpt>
      <trkpt lat="45.70961" lon="6.69788">
        <ele>2356</ele>
        <time>2019-08-16T07:55:16Z</time>
      </trkpt>
      <trkpt lat="45.70962" lon="6.69771">
        <ele>2353</ele>
        <time>2019-08-16T07:55:32Z</time>
      </trkpt>
      <trkpt lat="45.70964" lon="6.69745">
        <ele>2348</ele>
        <time>2019-08-16T07:55:56Z</time>
      </trkpt>
      <trkpt lat="45.70968" lon="6.69703">
        <ele>2346</ele>
        <time>2019-08-16T07:56:36Z</time>
      </trkpt>
      <trkpt lat="45.70968" lon="6.6968">
        <ele>2345</ele>
        <time>2019-08-16T07:56:57Z</time>
      </trkpt>
      <trkpt lat="45.70971" lon="6.69665">
        <ele>2344</ele>
        <time>2019-08-16T07:57:12Z</time>
      </trkpt>
      <trkpt lat="45.70972" lon="6.69647">
        <ele>2342</ele>
        <time>2019-08-16T07:57:28Z</time>
      </trkpt>
      <trkpt lat="45.70973" lon="6.69633">
        <ele>2340</ele>
        <time>2019-08-16T07:57:41Z</time>
      </trkpt>
      <trkpt lat="45.70976" lon="6.69614">
        <ele>2338</ele>
        <time>2019-08-16T07:58:00Z</time>
      </trkpt>
      <trkpt lat="45.70977" lon="6.696">
        <ele>2336</ele>
        <time>2019-08-16T07:58:13Z</time>
      </trkpt>
      <trkpt lat="45.70977" lon="6.69594">
        <ele>2336</ele>
        <time>2019-08-16T07:58:18Z</time>
      </trkpt>
      <trkpt lat="45.70972" lon="6.69583">
        <ele>2335</ele>
        <time>2019-08-16T07:58:31Z</time>
      </trkpt>
      <trkpt lat="45.70967" lon="6.69577">
        <ele>2333</ele>
        <time>2019-08-16T07:58:39Z</time>
      </trkpt>
      <trkpt lat="45.70967" lon="6.69577">
        <ele>2333</ele>
        <time>2019-08-16T07:58:39Z</time>
      </trkpt>
      <trkpt lat="45.70975" lon="6.69578">
        <ele>2333</ele>
        <time>2019-08-16T07:58:50Z</time>
      </trkpt>
      <trkpt lat="45.70985" lon="6.69589">
        <ele>2335</ele>
        <time>2019-08-16T07:59:07Z</time>
      </trkpt>
      <trkpt lat="45.70994" lon="6.69607">
        <ele>2335</ele>
        <time>2019-08-16T07:59:27Z</time>
      </trkpt>
      <trkpt lat="45.71001" lon="6.69577">
        <ele>2332</ele>
        <time>2019-08-16T07:59:57Z</time>
      </trkpt>
      <trkpt lat="45.71012" lon="6.69554">
        <ele>2324</ele>
        <time>2019-08-16T08:00:23Z</time>
      </trkpt>
      <trkpt lat="45.71018" lon="6.69535">
        <ele>2320</ele>
        <time>2019-08-16T08:00:42Z</time>
      </trkpt>
      <trkpt lat="45.7103" lon="6.69521">
        <ele>2316</ele>
        <time>2019-08-16T08:01:03Z</time>
      </trkpt>
      <trkpt lat="45.71058" lon="6.69517">
        <ele>2313</ele>
        <time>2019-08-16T08:01:40Z</time>
      </trkpt>
      <trkpt lat="45.71083" lon="6.69511">
        <ele>2310</ele>
        <time>2019-08-16T08:02:14Z</time>
      </trkpt>
      <trkpt lat="45.71097" lon="6.69511">
        <ele>2309</ele>
        <time>2019-08-16T08:02:33Z</time>
      </trkpt>
      <trkpt lat="45.71101" lon="6.69498">
        <ele>2309</ele>
        <time>2019-08-16T08:02:46Z</time>
      </trkpt>
      <trkpt lat="45.71112" lon="6.69487">
        <ele>2308</ele>
        <time>2019-08-16T08:03:04Z</time>
      </trkpt>
      <trkpt lat="45.71142" lon="6.6946">
        <ele>2306</ele>
        <time>2019-08-16T08:03:51Z</time>
      </trkpt>
      <trkpt lat="45.71154" lon="6.69442">
        <ele>2307</ele>
        <time>2019-08-16T08:04:15Z</time>
      </trkpt>
      <trkpt lat="45.71154" lon="6.69411">
        <ele>2308</ele>
        <time>2019-08-16T08:04:44Z</time>
      </trkpt>
      <trkpt lat="45.71147" lon="6.69391">
        <ele>2309</ele>
        <time>2019-08-16T08:05:04Z</time>
      </trkpt>
      <trkpt lat="45.71129" lon="6.69368">
        <ele>2308</ele>
        <time>2019-08-16T08:05:37Z</time>
      </trkpt>
      <trkpt lat="45.71112" lon="6.69351">
        <ele>2305</ele>
        <time>2019-08-16T08:06:04Z</time>
      </trkpt>
      <trkpt lat="45.71084" lon="6.6933">
        <ele>2298</ele>
        <time>2019-08-16T08:06:46Z</time>
      </trkpt>
      <trkpt lat="45.71069" lon="6.69313">
        <ele>2297</ele>
        <time>2019-08-16T08:07:12Z</time>
      </trkpt>
      <trkpt lat="45.71056" lon="6.6928">
        <ele>2297</ele>
        <time>2019-08-16T08:07:47Z</time>
      </trkpt>
      <trkpt lat="45.71039" lon="6.69255">
        <ele>2294</ele>
        <time>2019-08-16T08:08:20Z</time>
      </trkpt>
      <trkpt lat="45.71023" lon="6.69224">
        <ele>2291</ele>
        <time>2019-08-16T08:08:56Z</time>
      </trkpt>
      <trkpt lat="45.71018" lon="6.69192">
        <ele>2291</ele>
        <time>2019-08-16T08:09:26Z</time>
      </trkpt>
      <trkpt lat="45.71003" lon="6.69145">
        <ele>2285</ele>
        <time>2019-08-16T08:10:14Z</time>
      </trkpt>
      <trkpt lat="45.71003" lon="6.69074">
        <ele>2283</ele>
        <time>2019-08-16T08:11:21Z</time>
      </trkpt>
      <trkpt lat="45.71" lon="6.69037">
        <ele>2279</ele>
        <time>2019-08-16T08:11:55Z</time>
      </trkpt>
      <trkpt lat="45.7099" lon="6.69002">
        <ele>2273</ele>
        <time>2019-08-16T08:12:30Z</time>
      </trkpt>
      <trkpt lat="45.70971" lon="6.68975">
        <ele>2268</ele>
        <time>2019-08-16T08:13:06Z</time>
      </trkpt>
      <trkpt lat="45.70965" lon="6.6894">
        <ele>2267</ele>
        <time>2019-08-16T08:13:40Z</time>
      </trkpt>
      <trkpt lat="45.70957" lon="6.68894">
        <ele>2266</ele>
        <time>2019-08-16T08:14:24Z</time>
      </trkpt>
      <trkpt lat="45.70924" lon="6.68845">
        <ele>2257</ele>
        <time>2019-08-16T08:15:27Z</time>
      </trkpt>
      <trkpt lat="45.70912" lon="6.68824">
        <ele>2254</ele>
        <time>2019-08-16T08:15:53Z</time>
      </trkpt>
      <trkpt lat="45.70898" lon="6.68798">
        <ele>2250</ele>
        <time>2019-08-16T08:16:23Z</time>
      </trkpt>
      <trkpt lat="45.70882" lon="6.68759">
        <ele>2245</ele>
        <time>2019-08-16T08:17:05Z</time>
      </trkpt>
      <trkpt lat="45.70868" lon="6.68736">
        <ele>2241</ele>
        <time>2019-08-16T08:17:34Z</time>
      </trkpt>
      <trkpt lat="45.70852" lon="6.687">
        <ele>2237</ele>
        <time>2019-08-16T08:18:14Z</time>
      </trkpt>
      <trkpt lat="45.70839" lon="6.68678">
        <ele>2232</ele>
        <time>2019-08-16T08:18:40Z</time>
      </trkpt>
      <trkpt lat="45.70818" lon="6.68648">
        <ele>2225</ele>
        <time>2019-08-16T08:19:20Z</time>
      </trkpt>
      <trkpt lat="45.708" lon="6.68612">
        <ele>2219</ele>
        <time>2019-08-16T08:20:01Z</time>
      </trkpt>
      <trkpt lat="45.70775" lon="6.68579">
        <ele>2211</ele>
        <time>2019-08-16T08:20:47Z</time>
      </trkpt>
      <trkpt lat="45.70759" lon="6.68557">
        <ele>2206</ele>
        <time>2019-08-16T08:21:16Z</time>
      </trkpt>
      <trkpt lat="45.70738" lon="6.68533">
        <ele>2201</ele>
        <time>2019-08-16T08:21:52Z</time>
      </trkpt>
      <trkpt lat="45.70717" lon="6.68516">
        <ele>2196</ele>
        <time>2019-08-16T08:22:24Z</time>
      </trkpt>
      <trkpt lat="45.70706" lon="6.68501">
        <ele>2194</ele>
        <time>2019-08-16T08:22:45Z</time>
      </trkpt>
      <trkpt lat="45.70702" lon="6.68483">
        <ele>2194</ele>
        <time>2019-08-16T08:23:02Z</time>
      </trkpt>
      <trkpt lat="45.70689" lon="6.68454">
        <ele>2191</ele>
        <time>2019-08-16T08:23:34Z</time>
      </trkpt>
      <trkpt lat="45.70684" lon="6.68425">
        <ele>2191</ele>
        <time>2019-08-16T08:24:02Z</time>
      </trkpt>
      <trkpt lat="45.70686" lon="6.68403">
        <ele>2194</ele>
        <time>2019-08-16T08:24:23Z</time>
      </trkpt>
      <trkpt lat="45.70669" lon="6.68385">
        <ele>2190</ele>
        <time>2019-08-16T08:24:51Z</time>
      </trkpt>
      <trkpt lat="45.70649" lon="6.68358">
        <ele>2186</ele>
        <time>2019-08-16T08:25:28Z</time>
      </trkpt>
      <trkpt lat="45.70624" lon="6.68332">
        <ele>2179</ele>
        <time>2019-08-16T08:26:09Z</time>
      </trkpt>
      <trkpt lat="45.70594" lon="6.68314">
        <ele>2169</ele>
        <time>2019-08-16T08:26:52Z</time>
      </trkpt>
      <trkpt lat="45.70578" lon="6.68306">
        <ele>2165</ele>
        <time>2019-08-16T08:27:15Z</time>
      </trkpt>
      <trkpt lat="45.70547" lon="6.68281">
        <ele>2161</ele>
        <time>2019-08-16T08:28:02Z</time>
      </trkpt>
      <trkpt lat="45.70516" lon="6.68273">
        <ele>2154</ele>
        <time>2019-08-16T08:28:45Z</time>
      </trkpt>
      <trkpt lat="45.70487" lon="6.68285">
        <ele>2144</ele>
        <time>2019-08-16T08:29:25Z</time>
      </trkpt>
      <trkpt lat="45.70475" lon="6.68294">
        <ele>2139</ele>
        <time>2019-08-16T08:29:43Z</time>
      </trkpt>
      <trkpt lat="45.70459" lon="6.68307">
        <ele>2133</ele>
        <time>2019-08-16T08:30:07Z</time>
      </trkpt>
      <trkpt lat="45.70441" lon="6.68311">
        <ele>2127</ele>
        <time>2019-08-16T08:30:32Z</time>
      </trkpt>
      <trkpt lat="45.70427" lon="6.68312">
        <ele>2123</ele>
        <time>2019-08-16T08:30:50Z</time>
      </trkpt>
      <trkpt lat="45.70428" lon="6.68326">
        <ele>2123</ele>
        <time>2019-08-16T08:31:04Z</time>
      </trkpt>
      <trkpt lat="45.70416" lon="6.68321">
        <ele>2120</ele>
        <time>2019-08-16T08:31:20Z</time>
      </trkpt>
      <trkpt lat="45.7041" lon="6.6832">
        <ele>2117</ele>
        <time>2019-08-16T08:31:28Z</time>
      </trkpt>
      <trkpt lat="45.70412" lon="6.68335">
        <ele>2118</ele>
        <time>2019-08-16T08:31:43Z</time>
      </trkpt>
      <trkpt lat="45.704" lon="6.6833">
        <ele>2113</ele>
        <time>2019-08-16T08:31:59Z</time>
      </trkpt>
      <trkpt lat="45.70396" lon="6.68328">
        <ele>2111</ele>
        <time>2019-08-16T08:32:05Z</time>
      </trkpt>
      <trkpt lat="45.70397" lon="6.68339">
        <ele>2111</ele>
        <time>2019-08-16T08:32:15Z</time>
      </trkpt>
      <trkpt lat="45.70396" lon="6.68346">
        <ele>2110</ele>
        <time>2019-08-16T08:32:22Z</time>
      </trkpt>
      <trkpt lat="45.70395" lon="6.6835">
        <ele>2109</ele>
        <time>2019-08-16T08:32:26Z</time>
      </trkpt>
      <trkpt lat="45.70392" lon="6.68352">
        <ele>2107</ele>
        <time>2019-08-16T08:32:30Z</time>
      </trkpt>
      <trkpt lat="45.70389" lon="6.68353">
        <ele>2106</ele>
        <time>2019-08-16T08:32:34Z</time>
      </trkpt>
      <trkpt lat="45.70385" lon="6.6835">
        <ele>2104</ele>
        <time>2019-08-16T08:32:40Z</time>
      </trkpt>
      <trkpt lat="45.70379" lon="6.68339">
        <ele>2103</ele>
        <time>2019-08-16T08:32:53Z</time>
      </trkpt>
      <trkpt lat="45.70365" lon="6.68308">
        <ele>2097</ele>
        <time>2019-08-16T08:33:28Z</time>
      </trkpt>
      <trkpt lat="45.70355" lon="6.68315">
        <ele>2092</ele>
        <time>2019-08-16T08:33:43Z</time>
      </trkpt>
      <trkpt lat="45.70346" lon="6.68309">
        <ele>2088</ele>
        <time>2019-08-16T08:33:56Z</time>
      </trkpt>
      <trkpt lat="45.70337" lon="6.6832">
        <ele>2084</ele>
        <time>2019-08-16T08:34:12Z</time>
      </trkpt>
      <trkpt lat="45.70332" lon="6.68331">
        <ele>2082</ele>
        <time>2019-08-16T08:34:24Z</time>
      </trkpt>
      <trkpt lat="45.70325" lon="6.68323">
        <ele>2079</ele>
        <time>2019-08-16T08:34:36Z</time>
      </trkpt>
      <trkpt lat="45.70323" lon="6.68321">
        <ele>2078</ele>
        <time>2019-08-16T08:34:39Z</time>
      </trkpt>
      <trkpt lat="45.7032" lon="6.68303">
        <ele>2077</ele>
        <time>2019-08-16T08:34:56Z</time>
      </trkpt>
      <trkpt lat="45.70314" lon="6.68287">
        <ele>2073</ele>
        <time>2019-08-16T08:35:13Z</time>
      </trkpt>
      <trkpt lat="45.70307" lon="6.68295">
        <ele>2071</ele>
        <time>2019-08-16T08:35:25Z</time>
      </trkpt>
      <trkpt lat="45.703" lon="6.68309">
        <ele>2068</ele>
        <time>2019-08-16T08:35:41Z</time>
      </trkpt>
      <trkpt lat="45.70294" lon="6.68312">
        <ele>2066</ele>
        <time>2019-08-16T08:35:50Z</time>
      </trkpt>
      <trkpt lat="45.70287" lon="6.68298">
        <ele>2062</ele>
        <time>2019-08-16T08:36:06Z</time>
      </trkpt>
      <trkpt lat="45.70286" lon="6.68284">
        <ele>2061</ele>
        <time>2019-08-16T08:36:19Z</time>
      </trkpt>
      <trkpt lat="45.70285" lon="6.68265">
        <ele>2060</ele>
        <time>2019-08-16T08:36:37Z</time>
      </trkpt>
      <trkpt lat="45.70286" lon="6.68257">
        <ele>2060</ele>
        <time>2019-08-16T08:36:44Z</time>
      </trkpt>
      <trkpt lat="45.7029" lon="6.68249">
        <ele>2061</ele>
        <time>2019-08-16T08:36:53Z</time>
      </trkpt>
      <trkpt lat="45.70292" lon="6.68222">
        <ele>2056</ele>
        <time>2019-08-16T08:37:19Z</time>
      </trkpt>
      <trkpt lat="45.70316" lon="6.68174">
        <ele>2060</ele>
        <time>2019-08-16T08:38:14Z</time>
      </trkpt>
      <trkpt lat="45.70315" lon="6.68158">
        <ele>2057</ele>
        <time>2019-08-16T08:38:29Z</time>
      </trkpt>
      <trkpt lat="45.70316" lon="6.68135">
        <ele>2056</ele>
        <time>2019-08-16T08:38:50Z</time>
      </trkpt>
      <trkpt lat="45.70317" lon="6.68126">
        <ele>2056</ele>
        <time>2019-08-16T08:38:59Z</time>
      </trkpt>
      <trkpt lat="45.70302" lon="6.68093">
        <ele>2044</ele>
        <time>2019-08-16T08:39:35Z</time>
      </trkpt>
      <trkpt lat="45.703" lon="6.68076">
        <ele>2043</ele>
        <time>2019-08-16T08:39:51Z</time>
      </trkpt>
      <trkpt lat="45.70296" lon="6.68071">
        <ele>2042</ele>
        <time>2019-08-16T08:39:59Z</time>
      </trkpt>
      <trkpt lat="45.70291" lon="6.68074">
        <ele>2038</ele>
        <time>2019-08-16T08:40:06Z</time>
      </trkpt>
      <trkpt lat="45.70289" lon="6.68084">
        <ele>2035</ele>
        <time>2019-08-16T08:40:15Z</time>
      </trkpt>
      <trkpt lat="45.70296" lon="6.68102">
        <ele>2041</ele>
        <time>2019-08-16T08:40:35Z</time>
      </trkpt>
      <trkpt lat="45.70295" lon="6.68121">
        <ele>2043</ele>
        <time>2019-08-16T08:40:52Z</time>
      </trkpt>
      <trkpt lat="45.70283" lon="6.68153">
        <ele>2039</ele>
        <time>2019-08-16T08:41:26Z</time>
      </trkpt>
      <trkpt lat="45.70239" lon="6.68191">
        <ele>2025</ele>
        <time>2019-08-16T08:42:35Z</time>
      </trkpt>
      <trkpt lat="45.70224" lon="6.68197">
        <ele>2021</ele>
        <time>2019-08-16T08:42:56Z</time>
      </trkpt>
      <trkpt lat="45.70207" lon="6.68219">
        <ele>2020</ele>
        <time>2019-08-16T08:43:26Z</time>
      </trkpt>
      <trkpt lat="45.70199" lon="6.68227">
        <ele>2019</ele>
        <time>2019-08-16T08:43:39Z</time>
      </trkpt>
      <trkpt lat="45.70173" lon="6.68218">
        <ele>2008</ele>
        <time>2019-08-16T08:44:15Z</time>
      </trkpt>
      <trkpt lat="45.70166" lon="6.68219">
        <ele>2006</ele>
        <time>2019-08-16T08:44:24Z</time>
      </trkpt>
      <trkpt lat="45.70145" lon="6.68247">
        <ele>2003</ele>
        <time>2019-08-16T08:45:03Z</time>
      </trkpt>
      <trkpt lat="45.70132" lon="6.68269">
        <ele>1996</ele>
        <time>2019-08-16T08:45:29Z</time>
      </trkpt>
      <trkpt lat="45.70126" lon="6.68269">
        <ele>1994</ele>
        <time>2019-08-16T08:45:37Z</time>
      </trkpt>
      <trkpt lat="45.70125" lon="6.68256">
        <ele>1995</ele>
        <time>2019-08-16T08:45:50Z</time>
      </trkpt>
      <trkpt lat="45.70139" lon="6.6823">
        <ele>1998</ele>
        <time>2019-08-16T08:46:20Z</time>
      </trkpt>
      <trkpt lat="45.70147" lon="6.68212">
        <ele>1998</ele>
        <time>2019-08-16T08:46:40Z</time>
      </trkpt>
      <trkpt lat="45.70155" lon="6.68191">
        <ele>1998</ele>
        <time>2019-08-16T08:47:02Z</time>
      </trkpt>
      <trkpt lat="45.70166" lon="6.68171">
        <ele>1998</ele>
        <time>2019-08-16T08:47:26Z</time>
      </trkpt>
      <trkpt lat="45.70168" lon="6.68163">
        <ele>1997</ele>
        <time>2019-08-16T08:47:34Z</time>
      </trkpt>
      <trkpt lat="45.70164" lon="6.68154">
        <ele>1993</ele>
        <time>2019-08-16T08:47:44Z</time>
      </trkpt>
      <trkpt lat="45.7015" lon="6.68158">
        <ele>1990</ele>
        <time>2019-08-16T08:48:03Z</time>
      </trkpt>
      <trkpt lat="45.70134" lon="6.68165">
        <ele>1987</ele>
        <time>2019-08-16T08:48:25Z</time>
      </trkpt>
      <trkpt lat="45.70126" lon="6.68182">
        <ele>1987</ele>
        <time>2019-08-16T08:48:44Z</time>
      </trkpt>
      <trkpt lat="45.70115" lon="6.68184">
        <ele>1983</ele>
        <time>2019-08-16T08:48:59Z</time>
      </trkpt>
      <trkpt lat="45.70119" lon="6.68156">
        <ele>1981</ele>
        <time>2019-08-16T08:49:26Z</time>
      </trkpt>
      <trkpt lat="45.7012" lon="6.68139">
        <ele>1978</ele>
        <time>2019-08-16T08:49:42Z</time>
      </trkpt>
      <trkpt lat="45.70143" lon="6.68105">
        <ele>1977</ele>
        <time>2019-08-16T08:50:26Z</time>
      </trkpt>
      <trkpt lat="45.70147" lon="6.68086">
        <ele>1974</ele>
        <time>2019-08-16T08:50:44Z</time>
      </trkpt>
      <trkpt lat="45.70138" lon="6.68087">
        <ele>1973</ele>
        <time>2019-08-16T08:50:56Z</time>
      </trkpt>
      <trkpt lat="45.70122" lon="6.68099">
        <ele>1972</ele>
        <time>2019-08-16T08:51:21Z</time>
      </trkpt>
      <trkpt lat="45.70112" lon="6.68093">
        <ele>1969</ele>
        <time>2019-08-16T08:51:35Z</time>
      </trkpt>
      <trkpt lat="45.70092" lon="6.68089">
        <ele>1965</ele>
        <time>2019-08-16T08:52:02Z</time>
      </trkpt>
      <trkpt lat="45.70073" lon="6.68088">
        <ele>1961</ele>
        <time>2019-08-16T08:52:27Z</time>
      </trkpt>
      <trkpt lat="45.70047" lon="6.68096">
        <ele>1955</ele>
        <time>2019-08-16T08:53:03Z</time>
      </trkpt>
      <trkpt lat="45.70041" lon="6.68107">
        <ele>1954</ele>
        <time>2019-08-16T08:53:16Z</time>
      </trkpt>
      <trkpt lat="45.70034" lon="6.68139">
        <ele>1953</ele>
        <time>2019-08-16T08:53:47Z</time>
      </trkpt>
      <trkpt lat="45.70025" lon="6.68135">
        <ele>1950</ele>
        <time>2019-08-16T08:54:00Z</time>
      </trkpt>
      <trkpt lat="45.70023" lon="6.68099">
        <ele>1949</ele>
        <time>2019-08-16T08:54:33Z</time>
      </trkpt>
      <trkpt lat="45.70026" lon="6.68076">
        <ele>1948</ele>
        <time>2019-08-16T08:54:55Z</time>
      </trkpt>
      <trkpt lat="45.70026" lon="6.68033">
        <ele>1942</ele>
        <time>2019-08-16T08:55:35Z</time>
      </trkpt>
      <trkpt lat="45.7002" lon="6.68012">
        <ele>1938</ele>
        <time>2019-08-16T08:55:56Z</time>
      </trkpt>
      <trkpt lat="45.70001" lon="6.67997">
        <ele>1932</ele>
        <time>2019-08-16T08:56:25Z</time>
      </trkpt>
      <trkpt lat="45.69982" lon="6.67978">
        <ele>1926</ele>
        <time>2019-08-16T08:56:56Z</time>
      </trkpt>
      <trkpt lat="45.6997" lon="6.67987">
        <ele>1923</ele>
        <time>2019-08-16T08:57:14Z</time>
      </trkpt>
      <trkpt lat="45.69956" lon="6.67972">
        <ele>1918</ele>
        <time>2019-08-16T08:57:38Z</time>
      </trkpt>
      <trkpt lat="45.69944" lon="6.67954">
        <ele>1913</ele>
        <time>2019-08-16T08:58:01Z</time>
      </trkpt>
      <trkpt lat="45.69944" lon="6.67941">
        <ele>1912</ele>
        <time>2019-08-16T08:58:13Z</time>
      </trkpt>
      <trkpt lat="45.69955" lon="6.67916">
        <ele>1914</ele>
        <time>2019-08-16T08:58:41Z</time>
      </trkpt>
      <trkpt lat="45.69931" lon="6.679">
        <ele>1907</ele>
        <time>2019-08-16T08:59:16Z</time>
      </trkpt>
      <trkpt lat="45.69901" lon="6.6791">
        <ele>1898</ele>
        <time>2019-08-16T08:59:57Z</time>
      </trkpt>
      <trkpt lat="45.69882" lon="6.67928">
        <ele>1893</ele>
        <time>2019-08-16T09:00:27Z</time>
      </trkpt>
      <trkpt lat="45.69872" lon="6.67908">
        <ele>1889</ele>
        <time>2019-08-16T09:00:50Z</time>
      </trkpt>
      <trkpt lat="45.69856" lon="6.67897">
        <ele>1884</ele>
        <time>2019-08-16T09:01:14Z</time>
      </trkpt>
      <trkpt lat="45.69841" lon="6.67866">
        <ele>1878</ele>
        <time>2019-08-16T09:01:49Z</time>
      </trkpt>
      <trkpt lat="45.69825" lon="6.67844">
        <ele>1871</ele>
        <time>2019-08-16T09:02:19Z</time>
      </trkpt>
      <trkpt lat="45.69805" lon="6.67817">
        <ele>1866</ele>
        <time>2019-08-16T09:02:55Z</time>
      </trkpt>
      <trkpt lat="45.69784" lon="6.67809">
        <ele>1860</ele>
        <time>2019-08-16T09:03:24Z</time>
      </trkpt>
      <trkpt lat="45.6976" lon="6.67801">
        <ele>1852</ele>
        <time>2019-08-16T09:03:57Z</time>
      </trkpt>
      <trkpt lat="45.69742" lon="6.67781">
        <ele>1847</ele>
        <time>2019-08-16T09:04:28Z</time>
      </trkpt>
      <trkpt lat="45.69727" lon="6.67755">
        <ele>1843</ele>
        <time>2019-08-16T09:04:59Z</time>
      </trkpt>
      <trkpt lat="45.69718" lon="6.67732">
        <ele>1842</ele>
        <time>2019-08-16T09:05:24Z</time>
      </trkpt>
      <trkpt lat="45.69696" lon="6.67719">
        <ele>1837</ele>
        <time>2019-08-16T09:05:55Z</time>
      </trkpt>
      <trkpt lat="45.69675" lon="6.677">
        <ele>1831</ele>
        <time>2019-08-16T09:06:29Z</time>
      </trkpt>
      <trkpt lat="45.69653" lon="6.67675">
        <ele>1827</ele>
        <time>2019-08-16T09:07:06Z</time>
      </trkpt>
      <trkpt lat="45.69638" lon="6.6765">
        <ele>1826</ele>
        <time>2019-08-16T09:07:37Z</time>
      </trkpt>
      <trkpt lat="45.69627" lon="6.67622">
        <ele>1825</ele>
        <time>2019-08-16T09:08:07Z</time>
      </trkpt>
      <trkpt lat="45.69622" lon="6.67588">
        <ele>1825</ele>
        <time>2019-08-16T09:08:39Z</time>
      </trkpt>
      <trkpt lat="45.69619" lon="6.67574">
        <ele>1824</ele>
        <time>2019-08-16T09:08:53Z</time>
      </trkpt>
      <trkpt lat="45.69597" lon="6.67558">
        <ele>1821</ele>
        <time>2019-08-16T09:09:26Z</time>
      </trkpt>
      <trkpt lat="45.69593" lon="6.67555">
        <ele>1820</ele>
        <time>2019-08-16T09:09:32Z</time>
      </trkpt>
      <trkpt lat="45.69579" lon="6.67534">
        <ele>1818</ele>
        <time>2019-08-16T09:09:59Z</time>
      </trkpt>
      <trkpt lat="45.69562" lon="6.67506">
        <ele>1817</ele>
        <time>2019-08-16T09:10:33Z</time>
      </trkpt>
      <trkpt lat="45.69542" lon="6.67473">
        <ele>1816</ele>
        <time>2019-08-16T09:11:14Z</time>
      </trkpt>
      <trkpt lat="45.69525" lon="6.67455">
        <ele>1815</ele>
        <time>2019-08-16T09:11:42Z</time>
      </trkpt>
      <trkpt lat="45.69515" lon="6.67441">
        <ele>1814</ele>
        <time>2019-08-16T09:12:01Z</time>
      </trkpt>
      <trkpt lat="45.69515" lon="6.67441">
        <ele>1814</ele>
        <time>2019-08-16T09:12:01Z</time>
      </trkpt>
      <trkpt lat="45.69513" lon="6.67435">
        <ele>1813</ele>
        <time>2019-08-16T09:12:07Z</time>
      </trkpt>
      <trkpt lat="45.69512" lon="6.67434">
        <ele>1813</ele>
        <time>2019-08-16T09:12:09Z</time>
      </trkpt>
      <trkpt lat="45.69506" lon="6.67426">
        <ele>1813</ele>
        <time>2019-08-16T09:12:20Z</time>
      </trkpt>
      <trkpt lat="45.69504" lon="6.67419">
        <ele>1812</ele>
        <time>2019-08-16T09:12:27Z</time>
      </trkpt>
      <trkpt lat="45.69501" lon="6.67413">
        <ele>1812</ele>
        <time>2019-08-16T09:12:34Z</time>
      </trkpt>
      <trkpt lat="45.69494" lon="6.67413">
        <ele>1812</ele>
        <time>2019-08-16T09:12:43Z</time>
      </trkpt>
      <trkpt lat="45.69485" lon="6.67417">
        <ele>1813</ele>
        <time>2019-08-16T09:12:56Z</time>
      </trkpt>
      <trkpt lat="45.69473" lon="6.67422">
        <ele>1814</ele>
        <time>2019-08-16T09:13:12Z</time>
      </trkpt>
      <trkpt lat="45.6946" lon="6.67423">
        <ele>1815</ele>
        <time>2019-08-16T09:13:30Z</time>
      </trkpt>
      <trkpt lat="45.69455" lon="6.67417">
        <ele>1815</ele>
        <time>2019-08-16T09:13:38Z</time>
      </trkpt>
      <trkpt lat="45.69451" lon="6.67401">
        <ele>1815</ele>
        <time>2019-08-16T09:13:54Z</time>
      </trkpt>
      <trkpt lat="45.69445" lon="6.67392">
        <ele>1815</ele>
        <time>2019-08-16T09:14:06Z</time>
      </trkpt>
      <trkpt lat="45.6944" lon="6.67384">
        <ele>1815</ele>
        <time>2019-08-16T09:14:16Z</time>
      </trkpt>
      <trkpt lat="45.69437" lon="6.6737">
        <ele>1815</ele>
        <time>2019-08-16T09:14:29Z</time>
      </trkpt>
      <trkpt lat="45.69428" lon="6.67344">
        <ele>1814</ele>
        <time>2019-08-16T09:14:57Z</time>
      </trkpt>
      <trkpt lat="45.69422" lon="6.67327">
        <ele>1814</ele>
        <time>2019-08-16T09:15:14Z</time>
      </trkpt>
      <trkpt lat="45.69415" lon="6.67321">
        <ele>1814</ele>
        <time>2019-08-16T09:15:25Z</time>
      </trkpt>
      <trkpt lat="45.69404" lon="6.67317">
        <ele>1815</ele>
        <time>2019-08-16T09:15:40Z</time>
      </trkpt>
      <trkpt lat="45.69395" lon="6.67311">
        <ele>1815</ele>
        <time>2019-08-16T09:15:54Z</time>
      </trkpt>
      <trkpt lat="45.6939" lon="6.67299">
        <ele>1815</ele>
        <time>2019-08-16T09:16:07Z</time>
      </trkpt>
      <trkpt lat="45.69389" lon="6.67294">
        <ele>1815</ele>
        <time>2019-08-16T09:16:11Z</time>
      </trkpt>
      <trkpt lat="45.69387" lon="6.6729">
        <ele>1815</ele>
        <time>2019-08-16T09:16:16Z</time>
      </trkpt>
      <trkpt lat="45.69382" lon="6.67272">
        <ele>1815</ele>
        <time>2019-08-16T09:16:34Z</time>
      </trkpt>
      <trkpt lat="45.69383" lon="6.67253">
        <ele>1815</ele>
        <time>2019-08-16T09:16:52Z</time>
      </trkpt>
      <trkpt lat="45.69383" lon="6.67234">
        <ele>1814</ele>
        <time>2019-08-16T09:17:10Z</time>
      </trkpt>
      <trkpt lat="45.69381" lon="6.67214">
        <ele>1814</ele>
        <time>2019-08-16T09:17:28Z</time>
      </trkpt>
      <trkpt lat="45.69377" lon="6.67193">
        <ele>1814</ele>
        <time>2019-08-16T09:17:49Z</time>
      </trkpt>
      <trkpt lat="45.69375" lon="6.67179">
        <ele>1813</ele>
        <time>2019-08-16T09:18:02Z</time>
      </trkpt>
      <trkpt lat="45.69373" lon="6.67156">
        <ele>1813</ele>
        <time>2019-08-16T09:18:24Z</time>
      </trkpt>
      <trkpt lat="45.69373" lon="6.67137">
        <ele>1812</ele>
        <time>2019-08-16T09:18:41Z</time>
      </trkpt>
      <trkpt lat="45.69371" lon="6.67125">
        <ele>1812</ele>
        <time>2019-08-16T09:18:53Z</time>
      </trkpt>
      <trkpt lat="45.69368" lon="6.67118">
        <ele>1812</ele>
        <time>2019-08-16T09:19:00Z</time>
      </trkpt>
      <trkpt lat="45.69359" lon="6.67105">
        <ele>1813</ele>
        <time>2019-08-16T09:19:17Z</time>
      </trkpt>
      <trkpt lat="45.69351" lon="6.67088">
        <ele>1814</ele>
        <time>2019-08-16T09:19:37Z</time>
      </trkpt>
      <trkpt lat="45.69345" lon="6.67067">
        <ele>1815</ele>
        <time>2019-08-16T09:19:58Z</time>
      </trkpt>
      <trkpt lat="45.69339" lon="6.67054">
        <ele>1815</ele>
        <time>2019-08-16T09:20:12Z</time>
      </trkpt>
      <trkpt lat="45.69331" lon="6.67047">
        <ele>1816</ele>
        <time>2019-08-16T09:20:25Z</time>
      </trkpt>
      <trkpt lat="45.6932" lon="6.67034">
        <ele>1818</ele>
        <time>2019-08-16T09:20:44Z</time>
      </trkpt>
      <trkpt lat="45.69311" lon="6.67018">
        <ele>1819</ele>
        <time>2019-08-16T09:21:03Z</time>
      </trkpt>
      <trkpt lat="45.69306" lon="6.67005">
        <ele>1819</ele>
        <time>2019-08-16T09:21:17Z</time>
      </trkpt>
      <trkpt lat="45.69302" lon="6.66993">
        <ele>1820</ele>
        <time>2019-08-16T09:21:29Z</time>
      </trkpt>
      <trkpt lat="45.69316" lon="6.66933">
        <ele>1818</ele>
        <time>2019-08-16T09:22:28Z</time>
      </trkpt>
      <trkpt lat="45.69329" lon="6.66874">
        <ele>1817</ele>
        <time>2019-08-16T09:23:26Z</time>
      </trkpt>
      <trkpt lat="45.69316" lon="6.66867">
        <ele>1817</ele>
        <time>2019-08-16T09:23:44Z</time>
      </trkpt>
      <trkpt lat="45.69305" lon="6.6684">
        <ele>1817</ele>
        <time>2019-08-16T09:24:13Z</time>
      </trkpt>
      <trkpt lat="45.69291" lon="6.66802">
        <ele>1819</ele>
        <time>2019-08-16T09:24:54Z</time>
      </trkpt>
      <trkpt lat="45.69267" lon="6.66779">
        <ele>1822</ele>
        <time>2019-08-16T09:25:32Z</time>
      </trkpt>
      <trkpt lat="45.69257" lon="6.6676">
        <ele>1825</ele>
        <time>2019-08-16T09:25:54Z</time>
      </trkpt>
      <trkpt lat="45.69237" lon="6.66741">
        <ele>1827</ele>
        <time>2019-08-16T09:26:26Z</time>
      </trkpt>
      <trkpt lat="45.69234" lon="6.66706">
        <ele>1830</ele>
        <time>2019-08-16T09:26:59Z</time>
      </trkpt>
      <trkpt lat="45.69247" lon="6.66683">
        <ele>1832</ele>
        <time>2019-08-16T09:27:27Z</time>
      </trkpt>
      <trkpt lat="45.69253" lon="6.66642">
        <ele>1835</ele>
        <time>2019-08-16T09:28:06Z</time>
      </trkpt>
      <trkpt lat="45.69276" lon="6.66603">
        <ele>1835</ele>
        <time>2019-08-16T09:28:53Z</time>
      </trkpt>
      <trkpt lat="45.69263" lon="6.66569">
        <ele>1840</ele>
        <time>2019-08-16T09:29:29Z</time>
      </trkpt>
      <trkpt lat="45.6925" lon="6.66554">
        <ele>1844</ele>
        <time>2019-08-16T09:29:52Z</time>
      </trkpt>
      <trkpt lat="45.69236" lon="6.66559">
        <ele>1845</ele>
        <time>2019-08-16T09:30:11Z</time>
      </trkpt>
      <trkpt lat="45.69214" lon="6.66595">
        <ele>1843</ele>
        <time>2019-08-16T09:30:56Z</time>
      </trkpt>
      <trkpt lat="45.69176" lon="6.66603">
        <ele>1846</ele>
        <time>2019-08-16T09:31:47Z</time>
      </trkpt>
      <trkpt lat="45.69162" lon="6.66596">
        <ele>1849</ele>
        <time>2019-08-16T09:32:07Z</time>
      </trkpt>
      <trkpt lat="45.69162" lon="6.66591">
        <ele>1849</ele>
        <time>2019-08-16T09:32:11Z</time>
      </trkpt>
      <trkpt lat="45.69159" lon="6.66578">
        <ele>1851</ele>
        <time>2019-08-16T09:32:24Z</time>
      </trkpt>
      <trkpt lat="45.69174" lon="6.66522">
        <ele>1853</ele>
        <time>2019-08-16T09:33:20Z</time>
      </trkpt>
      <trkpt lat="45.69174" lon="6.66473">
        <ele>1859</ele>
        <time>2019-08-16T09:34:06Z</time>
      </trkpt>
      <trkpt lat="45.69169" lon="6.66441">
        <ele>1866</ele>
        <time>2019-08-16T09:34:36Z</time>
      </trkpt>
      <trkpt lat="45.6914" lon="6.66391">
        <ele>1875</ele>
        <time>2019-08-16T09:35:37Z</time>
      </trkpt>
      <trkpt lat="45.69131" lon="6.66367">
        <ele>1878</ele>
        <time>2019-08-16T09:36:02Z</time>
      </trkpt>
      <trkpt lat="45.69132" lon="6.66319">
        <ele>1881</ele>
        <time>2019-08-16T09:36:47Z</time>
      </trkpt>
      <trkpt lat="45.69125" lon="6.66287">
        <ele>1882</ele>
        <time>2019-08-16T09:37:18Z</time>
      </trkpt>
      <trkpt lat="45.69119" lon="6.66254">
        <ele>1882</ele>
        <time>2019-08-16T09:37:50Z</time>
      </trkpt>
      <trkpt lat="45.69111" lon="6.66213">
        <ele>1882</ele>
        <time>2019-08-16T09:38:30Z</time>
      </trkpt>
      <trkpt lat="45.69102" lon="6.66171">
        <ele>1881</ele>
        <time>2019-08-16T09:39:11Z</time>
      </trkpt>
      <trkpt lat="45.69092" lon="6.66113">
        <ele>1882</ele>
        <time>2019-08-16T09:40:06Z</time>
      </trkpt>
      <trkpt lat="45.69075" lon="6.66064">
        <ele>1883</ele>
        <time>2019-08-16T09:40:57Z</time>
      </trkpt>
      <trkpt lat="45.69057" lon="6.66033">
        <ele>1885</ele>
        <time>2019-08-16T09:41:35Z</time>
      </trkpt>
      <trkpt lat="45.69031" lon="6.66014">
        <ele>1884</ele>
        <time>2019-08-16T09:42:14Z</time>
      </trkpt>
      <trkpt lat="45.69015" lon="6.65999">
        <ele>1883</ele>
        <time>2019-08-16T09:42:39Z</time>
      </trkpt>
      <trkpt lat="45.68988" lon="6.65953">
        <ele>1887</ele>
        <time>2019-08-16T09:43:35Z</time>
      </trkpt>
      <trkpt lat="45.6897" lon="6.65918">
        <ele>1890</ele>
        <time>2019-08-16T09:44:16Z</time>
      </trkpt>
      <trkpt lat="45.68951" lon="6.65884">
        <ele>1889</ele>
        <time>2019-08-16T09:44:56Z</time>
      </trkpt>
      <trkpt lat="45.68949" lon="6.65858">
        <ele>1889</ele>
        <time>2019-08-16T09:45:21Z</time>
      </trkpt>
      <trkpt lat="45.68937" lon="6.65806">
        <ele>1888</ele>
        <time>2019-08-16T09:46:12Z</time>
      </trkpt>
      <trkpt lat="45.68912" lon="6.65766">
        <ele>1885</ele>
        <time>2019-08-16T09:47:02Z</time>
      </trkpt>
      <trkpt lat="45.68898" lon="6.65742">
        <ele>1885</ele>
        <time>2019-08-16T09:47:31Z</time>
      </trkpt>
      <trkpt lat="45.68878" lon="6.65747">
        <ele>1886</ele>
        <time>2019-08-16T09:47:58Z</time>
      </trkpt>
      <trkpt lat="45.6886" lon="6.65757">
        <ele>1886</ele>
        <time>2019-08-16T09:48:24Z</time>
      </trkpt>
      <trkpt lat="45.68826" lon="6.65758">
        <ele>1888</ele>
        <time>2019-08-16T09:49:09Z</time>
      </trkpt>
      <trkpt lat="45.6879" lon="6.65756">
        <ele>1892</ele>
        <time>2019-08-16T09:49:57Z</time>
      </trkpt>
      <trkpt lat="45.68773" lon="6.65755">
        <ele>1895</ele>
        <time>2019-08-16T09:50:20Z</time>
      </trkpt>
      <trkpt lat="45.68753" lon="6.65736">
        <ele>1896</ele>
        <time>2019-08-16T09:50:52Z</time>
      </trkpt>
      <trkpt lat="45.68747" lon="6.65734">
        <ele>1897</ele>
        <time>2019-08-16T09:51:00Z</time>
      </trkpt>
      <trkpt lat="45.68743" lon="6.65729">
        <ele>1898</ele>
        <time>2019-08-16T09:51:07Z</time>
      </trkpt>
      <trkpt lat="45.68739" lon="6.65722">
        <ele>1898</ele>
        <time>2019-08-16T09:51:16Z</time>
      </trkpt>
      <trkpt lat="45.68733" lon="6.65718">
        <ele>1899</ele>
        <time>2019-08-16T09:51:25Z</time>
      </trkpt>
      <trkpt lat="45.68731" lon="6.65714">
        <ele>1900</ele>
        <time>2019-08-16T09:51:29Z</time>
      </trkpt>
      <trkpt lat="45.68731" lon="6.65711">
        <ele>1900</ele>
        <time>2019-08-16T09:51:32Z</time>
      </trkpt>
      <trkpt lat="45.68729" lon="6.6571">
        <ele>1900</ele>
        <time>2019-08-16T09:51:35Z</time>
      </trkpt>
      <trkpt lat="45.68723" lon="6.6571">
        <ele>1901</ele>
        <time>2019-08-16T09:51:43Z</time>
      </trkpt>
      <trkpt lat="45.68718" lon="6.65706">
        <ele>1902</ele>
        <time>2019-08-16T09:51:51Z</time>
      </trkpt>
      <trkpt lat="45.68712" lon="6.657">
        <ele>1904</ele>
        <time>2019-08-16T09:52:00Z</time>
      </trkpt>
      <trkpt lat="45.68699" lon="6.65697">
        <ele>1906</ele>
        <time>2019-08-16T09:52:18Z</time>
      </trkpt>
      <trkpt lat="45.68688" lon="6.6569">
        <ele>1909</ele>
        <time>2019-08-16T09:52:34Z</time>
      </trkpt>
      <trkpt lat="45.68675" lon="6.65683">
        <ele>1912</ele>
        <time>2019-08-16T09:52:53Z</time>
      </trkpt>
      <trkpt lat="45.68664" lon="6.65679">
        <ele>1914</ele>
        <time>2019-08-16T09:53:08Z</time>
      </trkpt>
      <trkpt lat="45.68656" lon="6.65673">
        <ele>1916</ele>
        <time>2019-08-16T09:53:20Z</time>
      </trkpt>
      <trkpt lat="45.6864" lon="6.65675">
        <ele>1920</ele>
        <time>2019-08-16T09:53:41Z</time>
      </trkpt>
      <trkpt lat="45.68632" lon="6.65679">
        <ele>1922</ele>
        <time>2019-08-16T09:53:52Z</time>
      </trkpt>
      <trkpt lat="45.68625" lon="6.6569">
        <ele>1924</ele>
        <time>2019-08-16T09:54:06Z</time>
      </trkpt>
      <trkpt lat="45.68621" lon="6.65692">
        <ele>1925</ele>
        <time>2019-08-16T09:54:12Z</time>
      </trkpt>
      <trkpt lat="45.68611" lon="6.65693">
        <ele>1928</ele>
        <time>2019-08-16T09:54:25Z</time>
      </trkpt>
      <trkpt lat="45.68609" lon="6.65689">
        <ele>1928</ele>
        <time>2019-08-16T09:54:30Z</time>
      </trkpt>
      <trkpt lat="45.68599" lon="6.6569">
        <ele>1930</ele>
        <time>2019-08-16T09:54:43Z</time>
      </trkpt>
      <trkpt lat="45.686" lon="6.65683">
        <ele>1930</ele>
        <time>2019-08-16T09:54:50Z</time>
      </trkpt>
      <trkpt lat="45.68599" lon="6.6568">
        <ele>1930</ele>
        <time>2019-08-16T09:54:53Z</time>
      </trkpt>
      <trkpt lat="45.68596" lon="6.65679">
        <ele>1931</ele>
        <time>2019-08-16T09:54:57Z</time>
      </trkpt>
      <trkpt lat="45.68593" lon="6.65681">
        <ele>1931</ele>
        <time>2019-08-16T09:55:02Z</time>
      </trkpt>
      <trkpt lat="45.68591" lon="6.65685">
        <ele>1932</ele>
        <time>2019-08-16T09:55:06Z</time>
      </trkpt>
      <trkpt lat="45.68571" lon="6.65689">
        <ele>1938</ele>
        <time>2019-08-16T09:55:33Z</time>
      </trkpt>
      <trkpt lat="45.6855" lon="6.6569">
        <ele>1945</ele>
        <time>2019-08-16T09:56:01Z</time>
      </trkpt>
      <trkpt lat="45.68542" lon="6.65689">
        <ele>1948</ele>
        <time>2019-08-16T09:56:12Z</time>
      </trkpt>
      <trkpt lat="45.68538" lon="6.65684">
        <ele>1949</ele>
        <time>2019-08-16T09:56:19Z</time>
      </trkpt>
      <trkpt lat="45.68535" lon="6.6568">
        <ele>1950</ele>
        <time>2019-08-16T09:56:24Z</time>
      </trkpt>
      <trkpt lat="45.6853" lon="6.65679">
        <ele>1951</ele>
        <time>2019-08-16T09:56:31Z</time>
      </trkpt>
      <trkpt lat="45.68526" lon="6.6568">
        <ele>1953</ele>
        <time>2019-08-16T09:56:37Z</time>
      </trkpt>
      <trkpt lat="45.68523" lon="6.65682">
        <ele>1954</ele>
        <time>2019-08-16T09:56:41Z</time>
      </trkpt>
      <trkpt lat="45.68521" lon="6.65679">
        <ele>1954</ele>
        <time>2019-08-16T09:56:45Z</time>
      </trkpt>
      <trkpt lat="45.68517" lon="6.65677">
        <ele>1955</ele>
        <time>2019-08-16T09:56:51Z</time>
      </trkpt>
      <trkpt lat="45.68512" lon="6.65669">
        <ele>1957</ele>
        <time>2019-08-16T09:57:01Z</time>
      </trkpt>
      <trkpt lat="45.68504" lon="6.65658">
        <ele>1961</ele>
        <time>2019-08-16T09:57:15Z</time>
      </trkpt>
      <trkpt lat="45.68496" lon="6.65657">
        <ele>1964</ele>
        <time>2019-08-16T09:57:26Z</time>
      </trkpt>
      <trkpt lat="45.68495" lon="6.65652">
        <ele>1965</ele>
        <time>2019-08-16T09:57:31Z</time>
      </trkpt>
      <trkpt lat="45.68496" lon="6.65647">
        <ele>1966</ele>
        <time>2019-08-16T09:57:36Z</time>
      </trkpt>
      <trkpt lat="45.68504" lon="6.65643">
        <ele>1964</ele>
        <time>2019-08-16T09:57:47Z</time>
      </trkpt>
      <trkpt lat="45.68514" lon="6.65637">
        <ele>1962</ele>
        <time>2019-08-16T09:58:02Z</time>
      </trkpt>
      <trkpt lat="45.68518" lon="6.65632">
        <ele>1961</ele>
        <time>2019-08-16T09:58:09Z</time>
      </trkpt>
      <trkpt lat="45.68513" lon="6.65621">
        <ele>1965</ele>
        <time>2019-08-16T09:58:21Z</time>
      </trkpt>
      <trkpt lat="45.68506" lon="6.65615">
        <ele>1969</ele>
        <time>2019-08-16T09:58:32Z</time>
      </trkpt>
      <trkpt lat="45.68495" lon="6.65611">
        <ele>1973</ele>
        <time>2019-08-16T09:58:47Z</time>
      </trkpt>
      <trkpt lat="45.68481" lon="6.65609">
        <ele>1978</ele>
        <time>2019-08-16T09:59:06Z</time>
      </trkpt>
      <trkpt lat="45.68476" lon="6.65604">
        <ele>1981</ele>
        <time>2019-08-16T09:59:14Z</time>
      </trkpt>
      <trkpt lat="45.68468" lon="6.65593">
        <ele>1985</ele>
        <time>2019-08-16T09:59:29Z</time>
      </trkpt>
      <trkpt lat="45.68471" lon="6.65591">
        <ele>1985</ele>
        <time>2019-08-16T09:59:33Z</time>
      </trkpt>
      <trkpt lat="45.68478" lon="6.6559">
        <ele>1983</ele>
        <time>2019-08-16T09:59:42Z</time>
      </trkpt>
      <trkpt lat="45.68485" lon="6.65585">
        <ele>1981</ele>
        <time>2019-08-16T09:59:53Z</time>
      </trkpt>
      <trkpt lat="45.68492" lon="6.65578">
        <ele>1981</ele>
        <time>2019-08-16T10:00:04Z</time>
      </trkpt>
      <trkpt lat="45.68497" lon="6.65572">
        <ele>1981</ele>
        <time>2019-08-16T10:00:13Z</time>
      </trkpt>
      <trkpt lat="45.68498" lon="6.65569">
        <ele>1982</ele>
        <time>2019-08-16T10:00:16Z</time>
      </trkpt>
      <trkpt lat="45.68498" lon="6.65566">
        <ele>1983</ele>
        <time>2019-08-16T10:00:19Z</time>
      </trkpt>
      <trkpt lat="45.68485" lon="6.65562">
        <ele>1988</ele>
        <time>2019-08-16T10:00:37Z</time>
      </trkpt>
      <trkpt lat="45.68476" lon="6.65557">
        <ele>1992</ele>
        <time>2019-08-16T10:00:50Z</time>
      </trkpt>
      <trkpt lat="45.68466" lon="6.65543">
        <ele>1999</ele>
        <time>2019-08-16T10:01:08Z</time>
      </trkpt>
      <trkpt lat="45.68465" lon="6.65539">
        <ele>2001</ele>
        <time>2019-08-16T10:01:12Z</time>
      </trkpt>
      <trkpt lat="45.6847" lon="6.65539">
        <ele>1999</ele>
        <time>2019-08-16T10:01:19Z</time>
      </trkpt>
      <trkpt lat="45.68478" lon="6.65536">
        <ele>1998</ele>
        <time>2019-08-16T10:01:30Z</time>
      </trkpt>
      <trkpt lat="45.68485" lon="6.65531">
        <ele>1997</ele>
        <time>2019-08-16T10:01:40Z</time>
      </trkpt>
      <trkpt lat="45.68492" lon="6.65523">
        <ele>1998</ele>
        <time>2019-08-16T10:01:52Z</time>
      </trkpt>
      <trkpt lat="45.68495" lon="6.65516">
        <ele>1999</ele>
        <time>2019-08-16T10:02:00Z</time>
      </trkpt>
      <trkpt lat="45.68496" lon="6.65509">
        <ele>2001</ele>
        <time>2019-08-16T10:02:07Z</time>
      </trkpt>
      <trkpt lat="45.68488" lon="6.65505">
        <ele>2005</ele>
        <time>2019-08-16T10:02:18Z</time>
      </trkpt>
      <trkpt lat="45.68483" lon="6.65503">
        <ele>2006</ele>
        <time>2019-08-16T10:02:25Z</time>
      </trkpt>
      <trkpt lat="45.68475" lon="6.65494">
        <ele>2011</ele>
        <time>2019-08-16T10:02:38Z</time>
      </trkpt>
      <trkpt lat="45.68469" lon="6.65489">
        <ele>2013</ele>
        <time>2019-08-16T10:02:48Z</time>
      </trkpt>
      <trkpt lat="45.68461" lon="6.65478">
        <ele>2018</ele>
        <time>2019-08-16T10:03:02Z</time>
      </trkpt>
      <trkpt lat="45.68458" lon="6.65473">
        <ele>2019</ele>
        <time>2019-08-16T10:03:09Z</time>
      </trkpt>
      <trkpt lat="45.68449" lon="6.65463">
        <ele>2023</ele>
        <time>2019-08-16T10:03:24Z</time>
      </trkpt>
      <trkpt lat="45.68435" lon="6.65445">
        <ele>2030</ele>
        <time>2019-08-16T10:03:49Z</time>
      </trkpt>
      <trkpt lat="45.68429" lon="6.65439">
        <ele>2032</ele>
        <time>2019-08-16T10:03:59Z</time>
      </trkpt>
      <trkpt lat="45.68429" lon="6.65431">
        <ele>2033</ele>
        <time>2019-08-16T10:04:06Z</time>
      </trkpt>
      <trkpt lat="45.68432" lon="6.65428">
        <ele>2033</ele>
        <time>2019-08-16T10:04:11Z</time>
      </trkpt>
      <trkpt lat="45.68435" lon="6.65412">
        <ele>2036</ele>
        <time>2019-08-16T10:04:26Z</time>
      </trkpt>
      <trkpt lat="45.68437" lon="6.65399">
        <ele>2037</ele>
        <time>2019-08-16T10:04:39Z</time>
      </trkpt>
      <trkpt lat="45.68433" lon="6.65384">
        <ele>2039</ele>
        <time>2019-08-16T10:04:54Z</time>
      </trkpt>
      <trkpt lat="45.68428" lon="6.65324">
        <ele>2047</ele>
        <time>2019-08-16T10:05:50Z</time>
      </trkpt>
      <trkpt lat="45.68406" lon="6.65267">
        <ele>2055</ele>
        <time>2019-08-16T10:06:51Z</time>
      </trkpt>
      <trkpt lat="45.68399" lon="6.65241">
        <ele>2057</ele>
        <time>2019-08-16T10:07:17Z</time>
      </trkpt>
      <trkpt lat="45.68388" lon="6.65245">
        <ele>2058</ele>
        <time>2019-08-16T10:07:32Z</time>
      </trkpt>
      <trkpt lat="45.68368" lon="6.65255">
        <ele>2059</ele>
        <time>2019-08-16T10:08:00Z</time>
      </trkpt>
      <trkpt lat="45.68355" lon="6.65248">
        <ele>2060</ele>
        <time>2019-08-16T10:08:19Z</time>
      </trkpt>
      <trkpt lat="45.68326" lon="6.65221">
        <ele>2062</ele>
        <time>2019-08-16T10:09:05Z</time>
      </trkpt>
      <trkpt lat="45.68316" lon="6.65197">
        <ele>2062</ele>
        <time>2019-08-16T10:09:31Z</time>
      </trkpt>
      <trkpt lat="45.68291" lon="6.65182">
        <ele>2062</ele>
        <time>2019-08-16T10:10:07Z</time>
      </trkpt>
      <trkpt lat="45.68257" lon="6.65196">
        <ele>2065</ele>
        <time>2019-08-16T10:10:54Z</time>
      </trkpt>
      <trkpt lat="45.68232" lon="6.65194">
        <ele>2066</ele>
        <time>2019-08-16T10:11:28Z</time>
      </trkpt>
      <trkpt lat="45.68195" lon="6.65195">
        <ele>2068</ele>
        <time>2019-08-16T10:12:17Z</time>
      </trkpt>
      <trkpt lat="45.68172" lon="6.65196">
        <ele>2069</ele>
        <time>2019-08-16T10:12:48Z</time>
      </trkpt>
      <trkpt lat="45.68128" lon="6.6517">
        <ele>2067</ele>
        <time>2019-08-16T10:13:51Z</time>
      </trkpt>
      <trkpt lat="45.68105" lon="6.65175">
        <ele>2071</ele>
        <time>2019-08-16T10:14:22Z</time>
      </trkpt>
      <trkpt lat="45.68085" lon="6.65164">
        <ele>2070</ele>
        <time>2019-08-16T10:14:51Z</time>
      </trkpt>
      <trkpt lat="45.68068" lon="6.65131">
        <ele>2065</ele>
        <time>2019-08-16T10:15:29Z</time>
      </trkpt>
      <trkpt lat="45.68032" lon="6.65105">
        <ele>2062</ele>
        <time>2019-08-16T10:16:23Z</time>
      </trkpt>
      <trkpt lat="45.68029" lon="6.6508">
        <ele>2057</ele>
        <time>2019-08-16T10:16:47Z</time>
      </trkpt>
      <trkpt lat="45.68034" lon="6.65059">
        <ele>2054</ele>
        <time>2019-08-16T10:17:07Z</time>
      </trkpt>
      <trkpt lat="45.68034" lon="6.65033">
        <ele>2051</ele>
        <time>2019-08-16T10:17:32Z</time>
      </trkpt>
      <trkpt lat="45.68022" lon="6.64982">
        <ele>2044</ele>
        <time>2019-08-16T10:18:22Z</time>
      </trkpt>
      <trkpt lat="45.68013" lon="6.64966">
        <ele>2042</ele>
        <time>2019-08-16T10:18:41Z</time>
      </trkpt>
      <trkpt lat="45.68011" lon="6.64941">
        <ele>2039</ele>
        <time>2019-08-16T10:19:04Z</time>
      </trkpt>
      <trkpt lat="45.67996" lon="6.6493">
        <ele>2038</ele>
        <time>2019-08-16T10:19:27Z</time>
      </trkpt>
      <trkpt lat="45.6799" lon="6.64911">
        <ele>2034</ele>
        <time>2019-08-16T10:19:46Z</time>
      </trkpt>
      <trkpt lat="45.67989" lon="6.64902">
        <ele>2032</ele>
        <time>2019-08-16T10:19:55Z</time>
      </trkpt>
      <trkpt lat="45.67978" lon="6.64889">
        <ele>2029</ele>
        <time>2019-08-16T10:20:14Z</time>
      </trkpt>
      <trkpt lat="45.67972" lon="6.64866">
        <ele>2024</ele>
        <time>2019-08-16T10:20:37Z</time>
      </trkpt>
      <trkpt lat="45.67968" lon="6.64858">
        <ele>2023</ele>
        <time>2019-08-16T10:20:46Z</time>
      </trkpt>
      <trkpt lat="45.67965" lon="6.6483">
        <ele>2018</ele>
        <time>2019-08-16T10:21:12Z</time>
      </trkpt>
      <trkpt lat="45.67961" lon="6.64818">
        <ele>2017</ele>
        <time>2019-08-16T10:21:25Z</time>
      </trkpt>
      <trkpt lat="45.67978" lon="6.64795">
        <ele>2013</ele>
        <time>2019-08-16T10:21:56Z</time>
      </trkpt>
      <trkpt lat="45.67996" lon="6.64773">
        <ele>2007</ele>
        <time>2019-08-16T10:22:28Z</time>
      </trkpt>
      <trkpt lat="45.68013" lon="6.64782">
        <ele>2007</ele>
        <time>2019-08-16T10:22:52Z</time>
      </trkpt>
      <trkpt lat="45.68017" lon="6.64767">
        <ele>2004</ele>
        <time>2019-08-16T10:23:07Z</time>
      </trkpt>
      <trkpt lat="45.68011" lon="6.64757">
        <ele>2003</ele>
        <time>2019-08-16T10:23:19Z</time>
      </trkpt>
      <trkpt lat="45.68" lon="6.64754">
        <ele>2004</ele>
        <time>2019-08-16T10:23:34Z</time>
      </trkpt>
      <trkpt lat="45.67995" lon="6.64743">
        <ele>2003</ele>
        <time>2019-08-16T10:23:46Z</time>
      </trkpt>
      <trkpt lat="45.68003" lon="6.64729">
        <ele>2000</ele>
        <time>2019-08-16T10:24:03Z</time>
      </trkpt>
      <trkpt lat="45.68001" lon="6.64717">
        <ele>1998</ele>
        <time>2019-08-16T10:24:15Z</time>
      </trkpt>
      <trkpt lat="45.67976" lon="6.64693">
        <ele>2000</ele>
        <time>2019-08-16T10:24:55Z</time>
      </trkpt>
      <trkpt lat="45.67941" lon="6.64671">
        <ele>2004</ele>
        <time>2019-08-16T10:25:46Z</time>
      </trkpt>
      <trkpt lat="45.6792" lon="6.64674">
        <ele>2009</ele>
        <time>2019-08-16T10:26:14Z</time>
      </trkpt>
      <trkpt lat="45.6791" lon="6.6468">
        <ele>2011</ele>
        <time>2019-08-16T10:26:28Z</time>
      </trkpt>
      <trkpt lat="45.679" lon="6.64678">
        <ele>2013</ele>
        <time>2019-08-16T10:26:42Z</time>
      </trkpt>
      <trkpt lat="45.67895" lon="6.64658">
        <ele>2012</ele>
        <time>2019-08-16T10:27:02Z</time>
      </trkpt>
      <trkpt lat="45.67876" lon="6.64656">
        <ele>2015</ele>
        <time>2019-08-16T10:27:27Z</time>
      </trkpt>
      <trkpt lat="45.67856" lon="6.64621">
        <ele>2019</ele>
        <time>2019-08-16T10:28:09Z</time>
      </trkpt>
      <trkpt lat="45.67846" lon="6.64583">
        <ele>2022</ele>
        <time>2019-08-16T10:28:47Z</time>
      </trkpt>
      <trkpt lat="45.67818" lon="6.6455">
        <ele>2030</ele>
        <time>2019-08-16T10:29:36Z</time>
      </trkpt>
      <trkpt lat="45.6781" lon="6.64538">
        <ele>2033</ele>
        <time>2019-08-16T10:29:51Z</time>
      </trkpt>
      <trkpt lat="45.67812" lon="6.64523">
        <ele>2033</ele>
        <time>2019-08-16T10:30:05Z</time>
      </trkpt>
      <trkpt lat="45.67805" lon="6.64491">
        <ele>2037</ele>
        <time>2019-08-16T10:30:36Z</time>
      </trkpt>
      <trkpt lat="45.67795" lon="6.64476">
        <ele>2041</ele>
        <time>2019-08-16T10:30:56Z</time>
      </trkpt>
      <trkpt lat="45.67776" lon="6.6447">
        <ele>2045</ele>
        <time>2019-08-16T10:31:22Z</time>
      </trkpt>
      <trkpt lat="45.67749" lon="6.64471">
        <ele>2051</ele>
        <time>2019-08-16T10:31:58Z</time>
      </trkpt>
      <trkpt lat="45.67696" lon="6.645">
        <ele>2052</ele>
        <time>2019-08-16T10:33:14Z</time>
      </trkpt>
      <trkpt lat="45.67674" lon="6.64497">
        <ele>2054</ele>
        <time>2019-08-16T10:33:43Z</time>
      </trkpt>
      <trkpt lat="45.67665" lon="6.64487">
        <ele>2054</ele>
        <time>2019-08-16T10:33:58Z</time>
      </trkpt>
      <trkpt lat="45.67644" lon="6.64463">
        <ele>2048</ele>
        <time>2019-08-16T10:34:34Z</time>
      </trkpt>
      <trkpt lat="45.67626" lon="6.64456">
        <ele>2044</ele>
        <time>2019-08-16T10:34:59Z</time>
      </trkpt>
      <trkpt lat="45.6762" lon="6.64424">
        <ele>2039</ele>
        <time>2019-08-16T10:35:30Z</time>
      </trkpt>
      <trkpt lat="45.67611" lon="6.64418">
        <ele>2037</ele>
        <time>2019-08-16T10:35:43Z</time>
      </trkpt>
      <trkpt lat="45.67601" lon="6.64431">
        <ele>2036</ele>
        <time>2019-08-16T10:36:01Z</time>
      </trkpt>
      <trkpt lat="45.6757" lon="6.64465">
        <ele>2033</ele>
        <time>2019-08-16T10:36:53Z</time>
      </trkpt>
      <trkpt lat="45.6756" lon="6.6445">
        <ele>2030</ele>
        <time>2019-08-16T10:37:13Z</time>
      </trkpt>
      <trkpt lat="45.6757" lon="6.64406">
        <ele>2026</ele>
        <time>2019-08-16T10:37:56Z</time>
      </trkpt>
      <trkpt lat="45.67576" lon="6.6435">
        <ele>2019</ele>
        <time>2019-08-16T10:38:49Z</time>
      </trkpt>
      <trkpt lat="45.67546" lon="6.64404">
        <ele>2021</ele>
        <time>2019-08-16T10:39:53Z</time>
      </trkpt>
      <trkpt lat="45.67525" lon="6.64444">
        <ele>2024</ele>
        <time>2019-08-16T10:40:40Z</time>
      </trkpt>
      <trkpt lat="45.67511" lon="6.64437">
        <ele>2020</ele>
        <time>2019-08-16T10:40:59Z</time>
      </trkpt>
      <trkpt lat="45.67498" lon="6.6446">
        <ele>2023</ele>
        <time>2019-08-16T10:41:27Z</time>
      </trkpt>
      <trkpt lat="45.67483" lon="6.64451">
        <ele>2025</ele>
        <time>2019-08-16T10:41:49Z</time>
      </trkpt>
      <trkpt lat="45.67481" lon="6.64411">
        <ele>2018</ele>
        <time>2019-08-16T10:42:26Z</time>
      </trkpt>
      <trkpt lat="45.67469" lon="6.64361">
        <ele>2011</ele>
        <time>2019-08-16T10:43:15Z</time>
      </trkpt>
      <trkpt lat="45.67462" lon="6.64347">
        <ele>2009</ele>
        <time>2019-08-16T10:43:31Z</time>
      </trkpt>
      <trkpt lat="45.67442" lon="6.64331">
        <ele>2008</ele>
        <time>2019-08-16T10:44:02Z</time>
      </trkpt>
      <trkpt lat="45.67421" lon="6.64313">
        <ele>2004</ele>
        <time>2019-08-16T10:44:35Z</time>
      </trkpt>
      <trkpt lat="45.67391" lon="6.64299">
        <ele>2008</ele>
        <time>2019-08-16T10:45:17Z</time>
      </trkpt>
      <trkpt lat="45.67375" lon="6.64288">
        <ele>2009</ele>
        <time>2019-08-16T10:45:40Z</time>
      </trkpt>
      <trkpt lat="45.67337" lon="6.64275">
        <ele>2015</ele>
        <time>2019-08-16T10:46:33Z</time>
      </trkpt>
      <trkpt lat="45.67327" lon="6.64265">
        <ele>2013</ele>
        <time>2019-08-16T10:46:49Z</time>
      </trkpt>
      <trkpt lat="45.67285" lon="6.64257">
        <ele>2016</ele>
        <time>2019-08-16T10:47:45Z</time>
      </trkpt>
      <trkpt lat="45.67262" lon="6.64255">
        <ele>2018</ele>
        <time>2019-08-16T10:48:16Z</time>
      </trkpt>
      <trkpt lat="45.6722" lon="6.64242">
        <ele>2014</ele>
        <time>2019-08-16T10:49:13Z</time>
      </trkpt>
      <trkpt lat="45.67199" lon="6.64229">
        <ele>2009</ele>
        <time>2019-08-16T10:49:44Z</time>
      </trkpt>
      <trkpt lat="45.67178" lon="6.64215">
        <ele>2004</ele>
        <time>2019-08-16T10:50:15Z</time>
      </trkpt>
      <trkpt lat="45.67171" lon="6.64208">
        <ele>2002</ele>
        <time>2019-08-16T10:50:26Z</time>
      </trkpt>
      <trkpt lat="45.67134" lon="6.64188">
        <ele>1998</ele>
        <time>2019-08-16T10:51:19Z</time>
      </trkpt>
      <trkpt lat="45.6713" lon="6.6417">
        <ele>1992</ele>
        <time>2019-08-16T10:51:37Z</time>
      </trkpt>
      <trkpt lat="45.67122" lon="6.64147">
        <ele>1985</ele>
        <time>2019-08-16T10:52:01Z</time>
      </trkpt>
      <trkpt lat="45.67126" lon="6.64131">
        <ele>1979</ele>
        <time>2019-08-16T10:52:17Z</time>
      </trkpt>
      <trkpt lat="45.67111" lon="6.64118">
        <ele>1977</ele>
        <time>2019-08-16T10:52:40Z</time>
      </trkpt>
      <trkpt lat="45.67081" lon="6.64114">
        <ele>1981</ele>
        <time>2019-08-16T10:53:20Z</time>
      </trkpt>
      <trkpt lat="45.6707" lon="6.64117">
        <ele>1987</ele>
        <time>2019-08-16T10:53:35Z</time>
      </trkpt>
      <trkpt lat="45.67054" lon="6.64108">
        <ele>1991</ele>
        <time>2019-08-16T10:53:58Z</time>
      </trkpt>
      <trkpt lat="45.67042" lon="6.64061">
        <ele>1982</ele>
        <time>2019-08-16T10:54:45Z</time>
      </trkpt>
      <trkpt lat="45.67031" lon="6.6402">
        <ele>1973</ele>
        <time>2019-08-16T10:55:26Z</time>
      </trkpt>
      <trkpt lat="45.67015" lon="6.63989">
        <ele>1970</ele>
        <time>2019-08-16T10:56:02Z</time>
      </trkpt>
      <trkpt lat="45.67" lon="6.63959">
        <ele>1967</ele>
        <time>2019-08-16T10:56:36Z</time>
      </trkpt>
      <trkpt lat="45.66978" lon="6.63936">
        <ele>1971</ele>
        <time>2019-08-16T10:57:12Z</time>
      </trkpt>
      <trkpt lat="45.66936" lon="6.63919">
        <ele>1987</ele>
        <time>2019-08-16T10:58:11Z</time>
      </trkpt>
      <trkpt lat="45.66927" lon="6.63904">
        <ele>1987</ele>
        <time>2019-08-16T10:58:29Z</time>
      </trkpt>
      <trkpt lat="45.6692" lon="6.63885">
        <ele>1985</ele>
        <time>2019-08-16T10:58:49Z</time>
      </trkpt>
      <trkpt lat="45.66909" lon="6.63873">
        <ele>1986</ele>
        <time>2019-08-16T10:59:07Z</time>
      </trkpt>
      <trkpt lat="45.66905" lon="6.63857">
        <ele>1982</ele>
        <time>2019-08-16T10:59:23Z</time>
      </trkpt>
      <trkpt lat="45.66907" lon="6.63824">
        <ele>1974</ele>
        <time>2019-08-16T10:59:54Z</time>
      </trkpt>
      <trkpt lat="45.6688" lon="6.63789">
        <ele>1975</ele>
        <time>2019-08-16T11:00:43Z</time>
      </trkpt>
      <trkpt lat="45.6686" lon="6.63749">
        <ele>1974</ele>
        <time>2019-08-16T11:01:29Z</time>
      </trkpt>
      <trkpt lat="45.66835" lon="6.63726">
        <ele>1977</ele>
        <time>2019-08-16T11:02:08Z</time>
      </trkpt>
      <trkpt lat="45.66803" lon="6.63743">
        <ele>1975</ele>
        <time>2019-08-16T11:02:54Z</time>
      </trkpt>
      <trkpt lat="45.66789" lon="6.63769">
        <ele>1976</ele>
        <time>2019-08-16T11:03:25Z</time>
      </trkpt>
      <trkpt lat="45.66776" lon="6.63796">
        <ele>1976</ele>
        <time>2019-08-16T11:03:55Z</time>
      </trkpt>
      <trkpt lat="45.66764" lon="6.63798">
        <ele>1973</ele>
        <time>2019-08-16T11:04:11Z</time>
      </trkpt>
      <trkpt lat="45.66756" lon="6.6381">
        <ele>1972</ele>
        <time>2019-08-16T11:04:27Z</time>
      </trkpt>
      <trkpt lat="45.66749" lon="6.63808">
        <ele>1971</ele>
        <time>2019-08-16T11:04:36Z</time>
      </trkpt>
      <trkpt lat="45.66739" lon="6.63795">
        <ele>1968</ele>
        <time>2019-08-16T11:04:54Z</time>
      </trkpt>
      <trkpt lat="45.66703" lon="6.63796">
        <ele>1959</ele>
        <time>2019-08-16T11:05:42Z</time>
      </trkpt>
      <trkpt lat="45.66695" lon="6.63801">
        <ele>1958</ele>
        <time>2019-08-16T11:05:54Z</time>
      </trkpt>
      <trkpt lat="45.6669" lon="6.63812">
        <ele>1958</ele>
        <time>2019-08-16T11:06:06Z</time>
      </trkpt>
      <trkpt lat="45.66669" lon="6.6382">
        <ele>1955</ele>
        <time>2019-08-16T11:06:35Z</time>
      </trkpt>
      <trkpt lat="45.66656" lon="6.63834">
        <ele>1955</ele>
        <time>2019-08-16T11:06:57Z</time>
      </trkpt>
      <trkpt lat="45.66641" lon="6.63804">
        <ele>1948</ele>
        <time>2019-08-16T11:07:31Z</time>
      </trkpt>
      <trkpt lat="45.66636" lon="6.63766">
        <ele>1942</ele>
        <time>2019-08-16T11:08:07Z</time>
      </trkpt>
      <trkpt lat="45.66646" lon="6.63715">
        <ele>1937</ele>
        <time>2019-08-16T11:08:57Z</time>
      </trkpt>
      <trkpt lat="45.66639" lon="6.63705">
        <ele>1934</ele>
        <time>2019-08-16T11:09:10Z</time>
      </trkpt>
      <trkpt lat="45.66646" lon="6.63698">
        <ele>1935</ele>
        <time>2019-08-16T11:09:21Z</time>
      </trkpt>
      <trkpt lat="45.66642" lon="6.63669">
        <ele>1931</ele>
        <time>2019-08-16T11:09:49Z</time>
      </trkpt>
      <trkpt lat="45.66633" lon="6.63664">
        <ele>1928</ele>
        <time>2019-08-16T11:10:02Z</time>
      </trkpt>
      <trkpt lat="45.66627" lon="6.63688">
        <ele>1929</ele>
        <time>2019-08-16T11:10:26Z</time>
      </trkpt>
      <trkpt lat="45.66611" lon="6.63722">
        <ele>1931</ele>
        <time>2019-08-16T11:11:04Z</time>
      </trkpt>
      <trkpt lat="45.66597" lon="6.63735">
        <ele>1930</ele>
        <time>2019-08-16T11:11:26Z</time>
      </trkpt>
      <trkpt lat="45.6658" lon="6.63726">
        <ele>1925</ele>
        <time>2019-08-16T11:11:50Z</time>
      </trkpt>
      <trkpt lat="45.6656" lon="6.63698">
        <ele>1915</ele>
        <time>2019-08-16T11:12:28Z</time>
      </trkpt>
      <trkpt lat="45.6653" lon="6.63682">
        <ele>1905</ele>
        <time>2019-08-16T11:13:10Z</time>
      </trkpt>
      <trkpt lat="45.6652" lon="6.63679">
        <ele>1902</ele>
        <time>2019-08-16T11:13:24Z</time>
      </trkpt>
      <trkpt lat="45.66508" lon="6.63687">
        <ele>1901</ele>
        <time>2019-08-16T11:13:42Z</time>
      </trkpt>
      <trkpt lat="45.66503" lon="6.63648">
        <ele>1892</ele>
        <time>2019-08-16T11:14:19Z</time>
      </trkpt>
      <trkpt lat="45.66477" lon="6.63668">
        <ele>1888</ele>
        <time>2019-08-16T11:14:58Z</time>
      </trkpt>
      <trkpt lat="45.66487" lon="6.63621">
        <ele>1883</ele>
        <time>2019-08-16T11:15:44Z</time>
      </trkpt>
      <trkpt lat="45.66512" lon="6.63579">
        <ele>1882</ele>
        <time>2019-08-16T11:16:35Z</time>
      </trkpt>
      <trkpt lat="45.66473" lon="6.6358">
        <ele>1872</ele>
        <time>2019-08-16T11:17:27Z</time>
      </trkpt>
      <trkpt lat="45.66447" lon="6.63631">
        <ele>1873</ele>
        <time>2019-08-16T11:18:26Z</time>
      </trkpt>
      <trkpt lat="45.66406" lon="6.63655">
        <ele>1865</ele>
        <time>2019-08-16T11:19:25Z</time>
      </trkpt>
      <trkpt lat="45.66369" lon="6.63685">
        <ele>1863</ele>
        <time>2019-08-16T11:20:22Z</time>
      </trkpt>
      <trkpt lat="45.66344" lon="6.63706">
        <ele>1860</ele>
        <time>2019-08-16T11:21:01Z</time>
      </trkpt>
      <trkpt lat="45.6632" lon="6.6373">
        <ele>1858</ele>
        <time>2019-08-16T11:21:40Z</time>
      </trkpt>
      <trkpt lat="45.66296" lon="6.63754">
        <ele>1855</ele>
        <time>2019-08-16T11:22:19Z</time>
      </trkpt>
      <trkpt lat="45.66281" lon="6.63756">
        <ele>1850</ele>
        <time>2019-08-16T11:22:39Z</time>
      </trkpt>
      <trkpt lat="45.66293" lon="6.63722">
        <ele>1848</ele>
        <time>2019-08-16T11:23:15Z</time>
      </trkpt>
      <trkpt lat="45.66305" lon="6.63687">
        <ele>1845</ele>
        <time>2019-08-16T11:23:51Z</time>
      </trkpt>
      <trkpt lat="45.66291" lon="6.63678">
        <ele>1838</ele>
        <time>2019-08-16T11:24:11Z</time>
      </trkpt>
      <trkpt lat="45.66257" lon="6.63692">
        <ele>1830</ele>
        <time>2019-08-16T11:24:59Z</time>
      </trkpt>
      <trkpt lat="45.66233" lon="6.63729">
        <ele>1830</ele>
        <time>2019-08-16T11:25:46Z</time>
      </trkpt>
      <trkpt lat="45.66213" lon="6.63759">
        <ele>1828</ele>
        <time>2019-08-16T11:26:24Z</time>
      </trkpt>
      <trkpt lat="45.66182" lon="6.63796">
        <ele>1821</ele>
        <time>2019-08-16T11:27:18Z</time>
      </trkpt>
      <trkpt lat="45.66165" lon="6.63811">
        <ele>1815</ele>
        <time>2019-08-16T11:27:45Z</time>
      </trkpt>
      <trkpt lat="45.66165" lon="6.63836">
        <ele>1818</ele>
        <time>2019-08-16T11:28:08Z</time>
      </trkpt>
      <trkpt lat="45.66158" lon="6.63845">
        <ele>1817</ele>
        <time>2019-08-16T11:28:21Z</time>
      </trkpt>
      <trkpt lat="45.66145" lon="6.63884">
        <ele>1822</ele>
        <time>2019-08-16T11:29:01Z</time>
      </trkpt>
      <trkpt lat="45.6614" lon="6.63887">
        <ele>1821</ele>
        <time>2019-08-16T11:29:08Z</time>
      </trkpt>
      <trkpt lat="45.66135" lon="6.63877">
        <ele>1817</ele>
        <time>2019-08-16T11:29:20Z</time>
      </trkpt>
      <trkpt lat="45.66126" lon="6.63876">
        <ele>1814</ele>
        <time>2019-08-16T11:29:32Z</time>
      </trkpt>
      <trkpt lat="45.66121" lon="6.63884">
        <ele>1815</ele>
        <time>2019-08-16T11:29:42Z</time>
      </trkpt>
      <trkpt lat="45.6611" lon="6.63884">
        <ele>1811</ele>
        <time>2019-08-16T11:29:56Z</time>
      </trkpt>
      <trkpt lat="45.66093" lon="6.63893">
        <ele>1808</ele>
        <time>2019-08-16T11:30:21Z</time>
      </trkpt>
      <trkpt lat="45.66069" lon="6.63911">
        <ele>1808</ele>
        <time>2019-08-16T11:30:57Z</time>
      </trkpt>
      <trkpt lat="45.66056" lon="6.63914">
        <ele>1807</ele>
        <time>2019-08-16T11:31:14Z</time>
      </trkpt>
      <trkpt lat="45.66037" lon="6.63911">
        <ele>1803</ele>
        <time>2019-08-16T11:31:40Z</time>
      </trkpt>
      <trkpt lat="45.66021" lon="6.63915">
        <ele>1802</ele>
        <time>2019-08-16T11:32:02Z</time>
      </trkpt>
      <trkpt lat="45.66011" lon="6.6391">
        <ele>1798</ele>
        <time>2019-08-16T11:32:16Z</time>
      </trkpt>
      <trkpt lat="45.6599" lon="6.63917">
        <ele>1798</ele>
        <time>2019-08-16T11:32:44Z</time>
      </trkpt>
      <trkpt lat="45.65974" lon="6.63907">
        <ele>1793</ele>
        <time>2019-08-16T11:33:08Z</time>
      </trkpt>
      <trkpt lat="45.65962" lon="6.63904">
        <ele>1791</ele>
        <time>2019-08-16T11:33:24Z</time>
      </trkpt>
      <trkpt lat="45.65944" lon="6.63919">
        <ele>1795</ele>
        <time>2019-08-16T11:33:52Z</time>
      </trkpt>
      <trkpt lat="45.65933" lon="6.63924">
        <ele>1795</ele>
        <time>2019-08-16T11:34:07Z</time>
      </trkpt>
      <trkpt lat="45.65903" lon="6.63918">
        <ele>1790</ele>
        <time>2019-08-16T11:34:48Z</time>
      </trkpt>
      <trkpt lat="45.65879" lon="6.63946">
        <ele>1799</ele>
        <time>2019-08-16T11:35:29Z</time>
      </trkpt>
      <trkpt lat="45.65873" lon="6.63946">
        <ele>1798</ele>
        <time>2019-08-16T11:35:37Z</time>
      </trkpt>
      <trkpt lat="45.65859" lon="6.63958">
        <ele>1802</ele>
        <time>2019-08-16T11:35:59Z</time>
      </trkpt>
      <trkpt lat="45.65844" lon="6.63957">
        <ele>1800</ele>
        <time>2019-08-16T11:36:19Z</time>
      </trkpt>
      <trkpt lat="45.65828" lon="6.63969">
        <ele>1804</ele>
        <time>2019-08-16T11:36:43Z</time>
      </trkpt>
      <trkpt lat="45.658" lon="6.63973">
        <ele>1802</ele>
        <time>2019-08-16T11:37:20Z</time>
      </trkpt>
      <trkpt lat="45.65788" lon="6.63988">
        <ele>1806</ele>
        <time>2019-08-16T11:37:42Z</time>
      </trkpt>
      <trkpt lat="45.65776" lon="6.63987">
        <ele>1803</ele>
        <time>2019-08-16T11:37:58Z</time>
      </trkpt>
      <trkpt lat="45.65765" lon="6.63993">
        <ele>1804</ele>
        <time>2019-08-16T11:38:13Z</time>
      </trkpt>
      <trkpt lat="45.65731" lon="6.64001">
        <ele>1801</ele>
        <time>2019-08-16T11:38:59Z</time>
      </trkpt>
      <trkpt lat="45.65722" lon="6.64017">
        <ele>1805</ele>
        <time>2019-08-16T11:39:19Z</time>
      </trkpt>
      <trkpt lat="45.65698" lon="6.6402">
        <ele>1801</ele>
        <time>2019-08-16T11:39:51Z</time>
      </trkpt>
      <trkpt lat="45.6569" lon="6.64026">
        <ele>1802</ele>
        <time>2019-08-16T11:40:03Z</time>
      </trkpt>
      <trkpt lat="45.65687" lon="6.64038">
        <ele>1805</ele>
        <time>2019-08-16T11:40:15Z</time>
      </trkpt>
      <trkpt lat="45.6568" lon="6.64047">
        <ele>1806</ele>
        <time>2019-08-16T11:40:27Z</time>
      </trkpt>
      <trkpt lat="45.65669" lon="6.6408">
        <ele>1814</ele>
        <time>2019-08-16T11:41:01Z</time>
      </trkpt>
      <trkpt lat="45.65664" lon="6.64083">
        <ele>1813</ele>
        <time>2019-08-16T11:41:09Z</time>
      </trkpt>
      <trkpt lat="45.65659" lon="6.64093">
        <ele>1815</ele>
        <time>2019-08-16T11:41:20Z</time>
      </trkpt>
      <trkpt lat="45.65653" lon="6.64095">
        <ele>1814</ele>
        <time>2019-08-16T11:41:28Z</time>
      </trkpt>
      <trkpt lat="45.65634" lon="6.64118">
        <ele>1816</ele>
        <time>2019-08-16T11:42:01Z</time>
      </trkpt>
      <trkpt lat="45.65635" lon="6.6412">
        <ele>1817</ele>
        <time>2019-08-16T11:42:04Z</time>
      </trkpt>
      <trkpt lat="45.65629" lon="6.6413">
        <ele>1818</ele>
        <time>2019-08-16T11:42:16Z</time>
      </trkpt>
      <trkpt lat="45.65628" lon="6.64142">
        <ele>1821</ele>
        <time>2019-08-16T11:42:27Z</time>
      </trkpt>
      <trkpt lat="45.65609" lon="6.64143">
        <ele>1818</ele>
        <time>2019-08-16T11:42:53Z</time>
      </trkpt>
      <trkpt lat="45.65587" lon="6.64163">
        <ele>1819</ele>
        <time>2019-08-16T11:43:28Z</time>
      </trkpt>
      <trkpt lat="45.65566" lon="6.64184">
        <ele>1824</ele>
        <time>2019-08-16T11:44:02Z</time>
      </trkpt>
      <trkpt lat="45.65549" lon="6.64188">
        <ele>1825</ele>
        <time>2019-08-16T11:44:25Z</time>
      </trkpt>
      <trkpt lat="45.65538" lon="6.64196">
        <ele>1826</ele>
        <time>2019-08-16T11:44:41Z</time>
      </trkpt>
      <trkpt lat="45.65532" lon="6.64212">
        <ele>1831</ele>
        <time>2019-08-16T11:44:58Z</time>
      </trkpt>
      <trkpt lat="45.65505" lon="6.64214">
        <ele>1830</ele>
        <time>2019-08-16T11:45:34Z</time>
      </trkpt>
      <trkpt lat="45.65502" lon="6.6422">
        <ele>1831</ele>
        <time>2019-08-16T11:45:41Z</time>
      </trkpt>
      <trkpt lat="45.65478" lon="6.64224">
        <ele>1834</ele>
        <time>2019-08-16T11:46:13Z</time>
      </trkpt>
      <trkpt lat="45.65466" lon="6.64225">
        <ele>1835</ele>
        <time>2019-08-16T11:46:29Z</time>
      </trkpt>
      <trkpt lat="45.65467" lon="6.64233">
        <ele>1837</ele>
        <time>2019-08-16T11:46:37Z</time>
      </trkpt>
      <trkpt lat="45.65457" lon="6.64245">
        <ele>1842</ele>
        <time>2019-08-16T11:46:54Z</time>
      </trkpt>
      <trkpt lat="45.65442" lon="6.64257">
        <ele>1847</ele>
        <time>2019-08-16T11:47:17Z</time>
      </trkpt>
      <trkpt lat="45.65426" lon="6.64262">
        <ele>1850</ele>
        <time>2019-08-16T11:47:39Z</time>
      </trkpt>
      <trkpt lat="45.65414" lon="6.6427">
        <ele>1854</ele>
        <time>2019-08-16T11:47:57Z</time>
      </trkpt>
      <trkpt lat="45.65411" lon="6.64279">
        <ele>1858</ele>
        <time>2019-08-16T11:48:06Z</time>
      </trkpt>
      <trkpt lat="45.6541" lon="6.64293">
        <ele>1864</ele>
        <time>2019-08-16T11:48:19Z</time>
      </trkpt>
      <trkpt lat="45.654" lon="6.64292">
        <ele>1866</ele>
        <time>2019-08-16T11:48:33Z</time>
      </trkpt>
      <trkpt lat="45.65397" lon="6.64286">
        <ele>1865</ele>
        <time>2019-08-16T11:48:39Z</time>
      </trkpt>
      <trkpt lat="45.65392" lon="6.64276">
        <ele>1862</ele>
        <time>2019-08-16T11:48:51Z</time>
      </trkpt>
      <trkpt lat="45.65378" lon="6.64289">
        <ele>1871</ele>
        <time>2019-08-16T11:49:13Z</time>
      </trkpt>
      <trkpt lat="45.65376" lon="6.64295">
        <ele>1873</ele>
        <time>2019-08-16T11:49:19Z</time>
      </trkpt>
      <trkpt lat="45.65379" lon="6.64299">
        <ele>1874</ele>
        <time>2019-08-16T11:49:25Z</time>
      </trkpt>
      <trkpt lat="45.65377" lon="6.64303">
        <ele>1876</ele>
        <time>2019-08-16T11:49:29Z</time>
      </trkpt>
      <trkpt lat="45.65366" lon="6.64303">
        <ele>1879</ele>
        <time>2019-08-16T11:49:44Z</time>
      </trkpt>
      <trkpt lat="45.65372" lon="6.64321">
        <ele>1883</ele>
        <time>2019-08-16T11:50:03Z</time>
      </trkpt>
      <trkpt lat="45.65357" lon="6.64306">
        <ele>1882</ele>
        <time>2019-08-16T11:50:27Z</time>
      </trkpt>
      <trkpt lat="45.65349" lon="6.64309">
        <ele>1885</ele>
        <time>2019-08-16T11:50:38Z</time>
      </trkpt>
      <trkpt lat="45.65359" lon="6.6432">
        <ele>1886</ele>
        <time>2019-08-16T11:50:55Z</time>
      </trkpt>
      <trkpt lat="45.65362" lon="6.64335">
        <ele>1891</ele>
        <time>2019-08-16T11:51:10Z</time>
      </trkpt>
      <trkpt lat="45.65349" lon="6.64325">
        <ele>1890</ele>
        <time>2019-08-16T11:51:29Z</time>
      </trkpt>
      <trkpt lat="45.65347" lon="6.64327">
        <ele>1892</ele>
        <time>2019-08-16T11:51:33Z</time>
      </trkpt>
      <trkpt lat="45.65366" lon="6.64367">
        <ele>1904</ele>
        <time>2019-08-16T11:52:18Z</time>
      </trkpt>
      <trkpt lat="45.65369" lon="6.64372">
        <ele>1905</ele>
        <time>2019-08-16T11:52:24Z</time>
      </trkpt>
      <trkpt lat="45.65357" lon="6.64367">
        <ele>1906</ele>
        <time>2019-08-16T11:52:40Z</time>
      </trkpt>
      <trkpt lat="45.65342" lon="6.64363">
        <ele>1907</ele>
        <time>2019-08-16T11:53:01Z</time>
      </trkpt>
      <trkpt lat="45.65332" lon="6.64354">
        <ele>1906</ele>
        <time>2019-08-16T11:53:17Z</time>
      </trkpt>
      <trkpt lat="45.65345" lon="6.64376">
        <ele>1912</ele>
        <time>2019-08-16T11:53:43Z</time>
      </trkpt>
      <trkpt lat="45.65352" lon="6.64383">
        <ele>1914</ele>
        <time>2019-08-16T11:53:55Z</time>
      </trkpt>
      <trkpt lat="45.65348" lon="6.64385">
        <ele>1915</ele>
        <time>2019-08-16T11:54:01Z</time>
      </trkpt>
      <trkpt lat="45.65334" lon="6.64382">
        <ele>1917</ele>
        <time>2019-08-16T11:54:19Z</time>
      </trkpt>
      <trkpt lat="45.65327" lon="6.64382">
        <ele>1920</ele>
        <time>2019-08-16T11:54:29Z</time>
      </trkpt>
      <trkpt lat="45.65316" lon="6.64373">
        <ele>1920</ele>
        <time>2019-08-16T11:54:46Z</time>
      </trkpt>
      <trkpt lat="45.65302" lon="6.64369">
        <ele>1924</ele>
        <time>2019-08-16T11:55:05Z</time>
      </trkpt>
      <trkpt lat="45.65276" lon="6.6438">
        <ele>1937</ele>
        <time>2019-08-16T11:55:41Z</time>
      </trkpt>
      <trkpt lat="45.65264" lon="6.64355">
        <ele>1935</ele>
        <time>2019-08-16T11:56:09Z</time>
      </trkpt>
      <trkpt lat="45.65246" lon="6.64314">
        <ele>1933</ele>
        <time>2019-08-16T11:56:54Z</time>
      </trkpt>
      <trkpt lat="45.65238" lon="6.64294">
        <ele>1932</ele>
        <time>2019-08-16T11:57:16Z</time>
      </trkpt>
      <trkpt lat="45.65209" lon="6.64264">
        <ele>1943</ele>
        <time>2019-08-16T11:58:04Z</time>
      </trkpt>
      <trkpt lat="45.65189" lon="6.64245">
        <ele>1951</ele>
        <time>2019-08-16T11:58:36Z</time>
      </trkpt>
      <trkpt lat="45.65169" lon="6.64226">
        <ele>1958</ele>
        <time>2019-08-16T11:59:08Z</time>
      </trkpt>
      <trkpt lat="45.65168" lon="6.64231">
        <ele>1960</ele>
        <time>2019-08-16T11:59:13Z</time>
      </trkpt>
      <trkpt lat="45.65164" lon="6.64232">
        <ele>1962</ele>
        <time>2019-08-16T11:59:18Z</time>
      </trkpt>
      <trkpt lat="45.65157" lon="6.64226">
        <ele>1963</ele>
        <time>2019-08-16T11:59:29Z</time>
      </trkpt>
      <trkpt lat="45.65148" lon="6.64225">
        <ele>1965</ele>
        <time>2019-08-16T11:59:41Z</time>
      </trkpt>
      <trkpt lat="45.65142" lon="6.64216">
        <ele>1964</ele>
        <time>2019-08-16T11:59:53Z</time>
      </trkpt>
      <trkpt lat="45.65126" lon="6.64207">
        <ele>1967</ele>
        <time>2019-08-16T12:00:15Z</time>
      </trkpt>
      <trkpt lat="45.65117" lon="6.64194">
        <ele>1968</ele>
        <time>2019-08-16T12:00:33Z</time>
      </trkpt>
      <trkpt lat="45.65115" lon="6.64194">
        <ele>1968</ele>
        <time>2019-08-16T12:00:35Z</time>
      </trkpt>
      <trkpt lat="45.65113" lon="6.6419">
        <ele>1968</ele>
        <time>2019-08-16T12:00:40Z</time>
      </trkpt>
      <trkpt lat="45.65111" lon="6.64184">
        <ele>1968</ele>
        <time>2019-08-16T12:00:46Z</time>
      </trkpt>
      <trkpt lat="45.6511" lon="6.64173">
        <ele>1966</ele>
        <time>2019-08-16T12:00:56Z</time>
      </trkpt>
      <trkpt lat="45.65108" lon="6.64164">
        <ele>1966</ele>
        <time>2019-08-16T12:01:05Z</time>
      </trkpt>
      <trkpt lat="45.65102" lon="6.64151">
        <ele>1966</ele>
        <time>2019-08-16T12:01:20Z</time>
      </trkpt>
      <trkpt lat="45.65093" lon="6.64143">
        <ele>1969</ele>
        <time>2019-08-16T12:01:34Z</time>
      </trkpt>
      <trkpt lat="45.65083" lon="6.6414">
        <ele>1973</ele>
        <time>2019-08-16T12:01:47Z</time>
      </trkpt>
      <trkpt lat="45.65072" lon="6.64143">
        <ele>1975</ele>
        <time>2019-08-16T12:02:02Z</time>
      </trkpt>
      <trkpt lat="45.65062" lon="6.64148">
        <ele>1977</ele>
        <time>2019-08-16T12:02:17Z</time>
      </trkpt>
      <trkpt lat="45.65047" lon="6.64157">
        <ele>1980</ele>
        <time>2019-08-16T12:02:38Z</time>
      </trkpt>
      <trkpt lat="45.65026" lon="6.64179">
        <ele>1986</ele>
        <time>2019-08-16T12:03:13Z</time>
      </trkpt>
      <trkpt lat="45.65011" lon="6.64191">
        <ele>1989</ele>
        <time>2019-08-16T12:03:36Z</time>
      </trkpt>
      <trkpt lat="45.65006" lon="6.64191">
        <ele>1990</ele>
        <time>2019-08-16T12:03:43Z</time>
      </trkpt>
      <trkpt lat="45.64969" lon="6.642">
        <ele>1996</ele>
        <time>2019-08-16T12:04:33Z</time>
      </trkpt>
      <trkpt lat="45.64966" lon="6.64205">
        <ele>1997</ele>
        <time>2019-08-16T12:04:39Z</time>
      </trkpt>
      <trkpt lat="45.64944" lon="6.64213">
        <ele>2002</ele>
        <time>2019-08-16T12:05:09Z</time>
      </trkpt>
      <trkpt lat="45.6494" lon="6.64221">
        <ele>2003</ele>
        <time>2019-08-16T12:05:18Z</time>
      </trkpt>
      <trkpt lat="45.64923" lon="6.64232">
        <ele>2007</ele>
        <time>2019-08-16T12:05:43Z</time>
      </trkpt>
      <trkpt lat="45.64921" lon="6.64234">
        <ele>2008</ele>
        <time>2019-08-16T12:05:46Z</time>
      </trkpt>
      <trkpt lat="45.64906" lon="6.64225">
        <ele>2009</ele>
        <time>2019-08-16T12:06:08Z</time>
      </trkpt>
      <trkpt lat="45.64896" lon="6.64227">
        <ele>2012</ele>
        <time>2019-08-16T12:06:22Z</time>
      </trkpt>
      <trkpt lat="45.64888" lon="6.64241">
        <ele>2015</ele>
        <time>2019-08-16T12:06:38Z</time>
      </trkpt>
      <trkpt lat="45.64874" lon="6.64239">
        <ele>2017</ele>
        <time>2019-08-16T12:06:57Z</time>
      </trkpt>
      <trkpt lat="45.64849" lon="6.64244">
        <ele>2022</ele>
        <time>2019-08-16T12:07:31Z</time>
      </trkpt>
      <trkpt lat="45.6484" lon="6.64252">
        <ele>2025</ele>
        <time>2019-08-16T12:07:45Z</time>
      </trkpt>
      <trkpt lat="45.64832" lon="6.64268">
        <ele>2029</ele>
        <time>2019-08-16T12:08:03Z</time>
      </trkpt>
      <trkpt lat="45.64822" lon="6.64274">
        <ele>2033</ele>
        <time>2019-08-16T12:08:18Z</time>
      </trkpt>
      <trkpt lat="45.64813" lon="6.64285">
        <ele>2037</ele>
        <time>2019-08-16T12:08:34Z</time>
      </trkpt>
      <trkpt lat="45.64794" lon="6.64294">
        <ele>2045</ele>
        <time>2019-08-16T12:09:00Z</time>
      </trkpt>
      <trkpt lat="45.64787" lon="6.6429">
        <ele>2046</ele>
        <time>2019-08-16T12:09:10Z</time>
      </trkpt>
      <trkpt lat="45.64784" lon="6.6431">
        <ele>2052</ele>
        <time>2019-08-16T12:09:30Z</time>
      </trkpt>
      <trkpt lat="45.64785" lon="6.64319">
        <ele>2054</ele>
        <time>2019-08-16T12:09:38Z</time>
      </trkpt>
      <trkpt lat="45.64781" lon="6.6432">
        <ele>2055</ele>
        <time>2019-08-16T12:09:43Z</time>
      </trkpt>
      <trkpt lat="45.64801" lon="6.64366">
        <ele>2062</ele>
        <time>2019-08-16T12:10:34Z</time>
      </trkpt>
      <trkpt lat="45.64807" lon="6.644">
        <ele>2070</ele>
        <time>2019-08-16T12:11:07Z</time>
      </trkpt>
      <trkpt lat="45.64803" lon="6.64405">
        <ele>2074</ele>
        <time>2019-08-16T12:11:14Z</time>
      </trkpt>
      <trkpt lat="45.64798" lon="6.64428">
        <ele>2083</ele>
        <time>2019-08-16T12:11:36Z</time>
      </trkpt>
      <trkpt lat="45.64814" lon="6.64476">
        <ele>2093</ele>
        <time>2019-08-16T12:12:26Z</time>
      </trkpt>
      <trkpt lat="45.64822" lon="6.64484">
        <ele>2093</ele>
        <time>2019-08-16T12:12:39Z</time>
      </trkpt>
      <trkpt lat="45.64827" lon="6.6449">
        <ele>2093</ele>
        <time>2019-08-16T12:12:48Z</time>
      </trkpt>
      <trkpt lat="45.64842" lon="6.64519">
        <ele>2096</ele>
        <time>2019-08-16T12:13:21Z</time>
      </trkpt>
      <trkpt lat="45.64858" lon="6.64539">
        <ele>2096</ele>
        <time>2019-08-16T12:13:50Z</time>
      </trkpt>
      <trkpt lat="45.64854" lon="6.64549">
        <ele>2100</ele>
        <time>2019-08-16T12:14:00Z</time>
      </trkpt>
      <trkpt lat="45.64855" lon="6.64567">
        <ele>2104</ele>
        <time>2019-08-16T12:14:17Z</time>
      </trkpt>
      <trkpt lat="45.64852" lon="6.64573">
        <ele>2106</ele>
        <time>2019-08-16T12:14:24Z</time>
      </trkpt>
      <trkpt lat="45.64859" lon="6.64593">
        <ele>2109</ele>
        <time>2019-08-16T12:14:45Z</time>
      </trkpt>
      <trkpt lat="45.64864" lon="6.64592">
        <ele>2108</ele>
        <time>2019-08-16T12:14:52Z</time>
      </trkpt>
      <trkpt lat="45.64871" lon="6.6459">
        <ele>2106</ele>
        <time>2019-08-16T12:15:01Z</time>
      </trkpt>
      <trkpt lat="45.64874" lon="6.64602">
        <ele>2108</ele>
        <time>2019-08-16T12:15:13Z</time>
      </trkpt>
      <trkpt lat="45.64875" lon="6.64605">
        <ele>2109</ele>
        <time>2019-08-16T12:15:16Z</time>
      </trkpt>
      <trkpt lat="45.64862" lon="6.64617">
        <ele>2114</ele>
        <time>2019-08-16T12:15:37Z</time>
      </trkpt>
      <trkpt lat="45.64857" lon="6.64634">
        <ele>2119</ele>
        <time>2019-08-16T12:15:54Z</time>
      </trkpt>
      <trkpt lat="45.64836" lon="6.6465">
        <ele>2125</ele>
        <time>2019-08-16T12:16:26Z</time>
      </trkpt>
      <trkpt lat="45.64833" lon="6.64649">
        <ele>2126</ele>
        <time>2019-08-16T12:16:30Z</time>
      </trkpt>
      <trkpt lat="45.64821" lon="6.64667">
        <ele>2131</ele>
        <time>2019-08-16T12:16:53Z</time>
      </trkpt>
      <trkpt lat="45.64815" lon="6.64667">
        <ele>2132</ele>
        <time>2019-08-16T12:17:01Z</time>
      </trkpt>
      <trkpt lat="45.6481" lon="6.64674">
        <ele>2134</ele>
        <time>2019-08-16T12:17:10Z</time>
      </trkpt>
      <trkpt lat="45.6479" lon="6.64687">
        <ele>2140</ele>
        <time>2019-08-16T12:17:40Z</time>
      </trkpt>
      <trkpt lat="45.64768" lon="6.64691">
        <ele>2144</ele>
        <time>2019-08-16T12:18:09Z</time>
      </trkpt>
      <trkpt lat="45.64761" lon="6.64701">
        <ele>2148</ele>
        <time>2019-08-16T12:18:23Z</time>
      </trkpt>
      <trkpt lat="45.6476" lon="6.64713">
        <ele>2151</ele>
        <time>2019-08-16T12:18:34Z</time>
      </trkpt>
      <trkpt lat="45.64751" lon="6.64724">
        <ele>2155</ele>
        <time>2019-08-16T12:18:50Z</time>
      </trkpt>
      <trkpt lat="45.64735" lon="6.64714">
        <ele>2156</ele>
        <time>2019-08-16T12:19:13Z</time>
      </trkpt>
      <trkpt lat="45.64722" lon="6.64696">
        <ele>2155</ele>
        <time>2019-08-16T12:19:37Z</time>
      </trkpt>
      <trkpt lat="45.64703" lon="6.64685">
        <ele>2158</ele>
        <time>2019-08-16T12:20:04Z</time>
      </trkpt>
      <trkpt lat="45.64704" lon="6.64692">
        <ele>2159</ele>
        <time>2019-08-16T12:20:11Z</time>
      </trkpt>
      <trkpt lat="45.64698" lon="6.64695">
        <ele>2161</ele>
        <time>2019-08-16T12:20:20Z</time>
      </trkpt>
      <trkpt lat="45.6469" lon="6.64679">
        <ele>2160</ele>
        <time>2019-08-16T12:20:38Z</time>
      </trkpt>
      <trkpt lat="45.64679" lon="6.64678">
        <ele>2163</ele>
        <time>2019-08-16T12:20:53Z</time>
      </trkpt>
      <trkpt lat="45.64675" lon="6.64661">
        <ele>2161</ele>
        <time>2019-08-16T12:21:09Z</time>
      </trkpt>
      <trkpt lat="45.6467" lon="6.64659">
        <ele>2162</ele>
        <time>2019-08-16T12:21:16Z</time>
      </trkpt>
      <trkpt lat="45.64653" lon="6.64683">
        <ele>2169</ele>
        <time>2019-08-16T12:21:48Z</time>
      </trkpt>
      <trkpt lat="45.64634" lon="6.64686">
        <ele>2172</ele>
        <time>2019-08-16T12:22:14Z</time>
      </trkpt>
      <trkpt lat="45.64625" lon="6.64682">
        <ele>2172</ele>
        <time>2019-08-16T12:22:26Z</time>
      </trkpt>
      <trkpt lat="45.64611" lon="6.64684">
        <ele>2174</ele>
        <time>2019-08-16T12:22:45Z</time>
      </trkpt>
      <trkpt lat="45.64593" lon="6.647">
        <ele>2182</ele>
        <time>2019-08-16T12:23:13Z</time>
      </trkpt>
      <trkpt lat="45.64585" lon="6.64698">
        <ele>2182</ele>
        <time>2019-08-16T12:23:24Z</time>
      </trkpt>
      <trkpt lat="45.64581" lon="6.64703">
        <ele>2185</ele>
        <time>2019-08-16T12:23:31Z</time>
      </trkpt>
      <trkpt lat="45.64582" lon="6.64714">
        <ele>2188</ele>
        <time>2019-08-16T12:23:42Z</time>
      </trkpt>
      <trkpt lat="45.64594" lon="6.64737">
        <ele>2193</ele>
        <time>2019-08-16T12:24:08Z</time>
      </trkpt>
      <trkpt lat="45.64594" lon="6.64748">
        <ele>2197</ele>
        <time>2019-08-16T12:24:19Z</time>
      </trkpt>
      <trkpt lat="45.646" lon="6.64751">
        <ele>2196</ele>
        <time>2019-08-16T12:24:27Z</time>
      </trkpt>
      <trkpt lat="45.64608" lon="6.64774">
        <ele>2202</ele>
        <time>2019-08-16T12:24:51Z</time>
      </trkpt>
      <trkpt lat="45.64629" lon="6.64803">
        <ele>2207</ele>
        <time>2019-08-16T12:25:30Z</time>
      </trkpt>
      <trkpt lat="45.6464" lon="6.64835">
        <ele>2214</ele>
        <time>2019-08-16T12:26:03Z</time>
      </trkpt>
      <trkpt lat="45.64659" lon="6.64871">
        <ele>2224</ele>
        <time>2019-08-16T12:26:45Z</time>
      </trkpt>
      <trkpt lat="45.64662" lon="6.64884">
        <ele>2228</ele>
        <time>2019-08-16T12:26:58Z</time>
      </trkpt>
      <trkpt lat="45.6468" lon="6.64903">
        <ele>2231</ele>
        <time>2019-08-16T12:27:28Z</time>
      </trkpt>
      <trkpt lat="45.64694" lon="6.64925">
        <ele>2237</ele>
        <time>2019-08-16T12:27:56Z</time>
      </trkpt>
      <trkpt lat="45.64715" lon="6.64959">
        <ele>2243</ele>
        <time>2019-08-16T12:28:38Z</time>
      </trkpt>
      <trkpt lat="45.64717" lon="6.64979">
        <ele>2248</ele>
        <time>2019-08-16T12:28:57Z</time>
      </trkpt>
      <trkpt lat="45.64722" lon="6.64982">
        <ele>2248</ele>
        <time>2019-08-16T12:29:04Z</time>
      </trkpt>
      <trkpt lat="45.6472" lon="6.64986">
        <ele>2250</ele>
        <time>2019-08-16T12:29:09Z</time>
      </trkpt>
      <trkpt lat="45.64715" lon="6.64985">
        <ele>2251</ele>
        <time>2019-08-16T12:29:15Z</time>
      </trkpt>
      <trkpt lat="45.64708" lon="6.65011">
        <ele>2260</ele>
        <time>2019-08-16T12:29:41Z</time>
      </trkpt>
      <trkpt lat="45.64712" lon="6.65049">
        <ele>2268</ele>
        <time>2019-08-16T12:30:17Z</time>
      </trkpt>
      <trkpt lat="45.64702" lon="6.65105">
        <ele>2283</ele>
        <time>2019-08-16T12:31:11Z</time>
      </trkpt>
      <trkpt lat="45.64706" lon="6.65114">
        <ele>2284</ele>
        <time>2019-08-16T12:31:21Z</time>
      </trkpt>
      <trkpt lat="45.64706" lon="6.65126">
        <ele>2287</ele>
        <time>2019-08-16T12:31:32Z</time>
      </trkpt>
      <trkpt lat="45.64691" lon="6.65132">
        <ele>2291</ele>
        <time>2019-08-16T12:31:53Z</time>
      </trkpt>
      <trkpt lat="45.64689" lon="6.65129">
        <ele>2291</ele>
        <time>2019-08-16T12:31:57Z</time>
      </trkpt>
      <trkpt lat="45.64678" lon="6.65141">
        <ele>2296</ele>
        <time>2019-08-16T12:32:16Z</time>
      </trkpt>
      <trkpt lat="45.64673" lon="6.65155">
        <ele>2300</ele>
        <time>2019-08-16T12:32:30Z</time>
      </trkpt>
      <trkpt lat="45.6466" lon="6.65156">
        <ele>2305</ele>
        <time>2019-08-16T12:32:48Z</time>
      </trkpt>
      <trkpt lat="45.64654" lon="6.65158">
        <ele>2309</ele>
        <time>2019-08-16T12:32:56Z</time>
      </trkpt>
      <trkpt lat="45.64651" lon="6.65172">
        <ele>2314</ele>
        <time>2019-08-16T12:33:09Z</time>
      </trkpt>
      <trkpt lat="45.64644" lon="6.65176">
        <ele>2318</ele>
        <time>2019-08-16T12:33:19Z</time>
      </trkpt>
      <trkpt lat="45.64643" lon="6.65182">
        <ele>2320</ele>
        <time>2019-08-16T12:33:25Z</time>
      </trkpt>
      <trkpt lat="45.6465" lon="6.65189">
        <ele>2317</ele>
        <time>2019-08-16T12:33:37Z</time>
      </trkpt>
      <trkpt lat="45.64646" lon="6.65194">
        <ele>2320</ele>
        <time>2019-08-16T12:33:44Z</time>
      </trkpt>
      <trkpt lat="45.64641" lon="6.65191">
        <ele>2322</ele>
        <time>2019-08-16T12:33:51Z</time>
      </trkpt>
      <trkpt lat="45.64637" lon="6.65197">
        <ele>2325</ele>
        <time>2019-08-16T12:33:59Z</time>
      </trkpt>
      <trkpt lat="45.64644" lon="6.65201">
        <ele>2322</ele>
        <time>2019-08-16T12:34:09Z</time>
      </trkpt>
      <trkpt lat="45.64644" lon="6.65213">
        <ele>2324</ele>
        <time>2019-08-16T12:34:20Z</time>
      </trkpt>
      <trkpt lat="45.64637" lon="6.65241">
        <ele>2330</ele>
        <time>2019-08-16T12:34:48Z</time>
      </trkpt>
      <trkpt lat="45.64634" lon="6.6527">
        <ele>2337</ele>
        <time>2019-08-16T12:35:15Z</time>
      </trkpt>
      <trkpt lat="45.6463" lon="6.6528">
        <ele>2340</ele>
        <time>2019-08-16T12:35:26Z</time>
      </trkpt>
      <trkpt lat="45.64621" lon="6.65297">
        <ele>2345</ele>
        <time>2019-08-16T12:35:46Z</time>
      </trkpt>
      <trkpt lat="45.6462" lon="6.65317">
        <ele>2350</ele>
        <time>2019-08-16T12:36:04Z</time>
      </trkpt>
      <trkpt lat="45.64612" lon="6.65319">
        <ele>2351</ele>
        <time>2019-08-16T12:36:15Z</time>
      </trkpt>
      <trkpt lat="45.64613" lon="6.65322">
        <ele>2352</ele>
        <time>2019-08-16T12:36:18Z</time>
      </trkpt>
      <trkpt lat="45.64611" lon="6.65372">
        <ele>2376</ele>
        <time>2019-08-16T12:37:05Z</time>
      </trkpt>
      <trkpt lat="45.6457" lon="6.6539">
        <ele>2386</ele>
        <time>2019-08-16T12:38:02Z</time>
      </trkpt>
      <trkpt lat="45.64543" lon="6.65377">
        <ele>2384</ele>
        <time>2019-08-16T12:38:40Z</time>
      </trkpt>
      <trkpt lat="45.64521" lon="6.65385">
        <ele>2389</ele>
        <time>2019-08-16T12:39:11Z</time>
      </trkpt>
      <trkpt lat="45.64498" lon="6.65392">
        <ele>2392</ele>
        <time>2019-08-16T12:39:42Z</time>
      </trkpt>
      <trkpt lat="45.64493" lon="6.65396">
        <ele>2394</ele>
        <time>2019-08-16T12:39:50Z</time>
      </trkpt>
      <trkpt lat="45.64498" lon="6.65404">
        <ele>2394</ele>
        <time>2019-08-16T12:40:00Z</time>
      </trkpt>
      <trkpt lat="45.645" lon="6.65414">
        <ele>2396</ele>
        <time>2019-08-16T12:40:09Z</time>
      </trkpt>
      <trkpt lat="45.64488" lon="6.65425">
        <ele>2400</ele>
        <time>2019-08-16T12:40:28Z</time>
      </trkpt>
      <trkpt lat="45.64493" lon="6.65433">
        <ele>2402</ele>
        <time>2019-08-16T12:40:38Z</time>
      </trkpt>
      <trkpt lat="45.64506" lon="6.65437">
        <ele>2403</ele>
        <time>2019-08-16T12:40:56Z</time>
      </trkpt>
      <trkpt lat="45.64514" lon="6.65432">
        <ele>2402</ele>
        <time>2019-08-16T12:41:08Z</time>
      </trkpt>
      <trkpt lat="45.64524" lon="6.65436">
        <ele>2404</ele>
        <time>2019-08-16T12:41:22Z</time>
      </trkpt>
      <trkpt lat="45.64518" lon="6.65442">
        <ele>2406</ele>
        <time>2019-08-16T12:41:31Z</time>
      </trkpt>
      <trkpt lat="45.64512" lon="6.65442">
        <ele>2405</ele>
        <time>2019-08-16T12:41:39Z</time>
      </trkpt>
      <trkpt lat="45.64513" lon="6.65444">
        <ele>2406</ele>
        <time>2019-08-16T12:41:42Z</time>
      </trkpt>
      <trkpt lat="45.64519" lon="6.65448">
        <ele>2408</ele>
        <time>2019-08-16T12:41:51Z</time>
      </trkpt>
      <trkpt lat="45.64521" lon="6.65446">
        <ele>2408</ele>
        <time>2019-08-16T12:41:54Z</time>
      </trkpt>
      <trkpt lat="45.64525" lon="6.65454">
        <ele>2412</ele>
        <time>2019-08-16T12:42:03Z</time>
      </trkpt>
      <trkpt lat="45.6453" lon="6.65453">
        <ele>2412</ele>
        <time>2019-08-16T12:42:10Z</time>
      </trkpt>
      <trkpt lat="45.6453" lon="6.65461">
        <ele>2416</ele>
        <time>2019-08-16T12:42:17Z</time>
      </trkpt>
      <trkpt lat="45.64522" lon="6.65472">
        <ele>2418</ele>
        <time>2019-08-16T12:42:32Z</time>
      </trkpt>
      <trkpt lat="45.64523" lon="6.65477">
        <ele>2421</ele>
        <time>2019-08-16T12:42:37Z</time>
      </trkpt>
      <trkpt lat="45.6453" lon="6.65477">
        <ele>2422</ele>
        <time>2019-08-16T12:42:46Z</time>
      </trkpt>
      <trkpt lat="45.6453" lon="6.65492">
        <ele>2429</ele>
        <time>2019-08-16T12:43:00Z</time>
      </trkpt>
      <trkpt lat="45.64524" lon="6.65501">
        <ele>2430</ele>
        <time>2019-08-16T12:43:12Z</time>
      </trkpt>
      <trkpt lat="45.64524" lon="6.65517">
        <ele>2436</ele>
        <time>2019-08-16T12:43:27Z</time>
      </trkpt>
      <trkpt lat="45.64519" lon="6.65531">
        <ele>2440</ele>
        <time>2019-08-16T12:43:41Z</time>
      </trkpt>
      <trkpt lat="45.64515" lon="6.65557">
        <ele>2447</ele>
        <time>2019-08-16T12:44:06Z</time>
      </trkpt>
      <trkpt lat="45.64511" lon="6.65568">
        <ele>2450</ele>
        <time>2019-08-16T12:44:18Z</time>
      </trkpt>
      <trkpt lat="45.64501" lon="6.65576">
        <ele>2448</ele>
        <time>2019-08-16T12:44:33Z</time>
      </trkpt>
      <trkpt lat="45.64486" lon="6.65573">
        <ele>2449</ele>
        <time>2019-08-16T12:44:53Z</time>
      </trkpt>
      <trkpt lat="45.6449" lon="6.6558">
        <ele>2451</ele>
        <time>2019-08-16T12:45:02Z</time>
      </trkpt>
      <trkpt lat="45.64486" lon="6.65582">
        <ele>2452</ele>
        <time>2019-08-16T12:45:07Z</time>
      </trkpt>
      <trkpt lat="45.64486" lon="6.65591">
        <ele>2454</ele>
        <time>2019-08-16T12:45:16Z</time>
      </trkpt>
      <trkpt lat="45.64487" lon="6.65596">
        <ele>2455</ele>
        <time>2019-08-16T12:45:21Z</time>
      </trkpt>
      <trkpt lat="45.64498" lon="6.65605">
        <ele>2456</ele>
        <time>2019-08-16T12:45:37Z</time>
      </trkpt>
      <trkpt lat="45.64493" lon="6.65608">
        <ele>2457</ele>
        <time>2019-08-16T12:45:45Z</time>
      </trkpt>
      <trkpt lat="45.64502" lon="6.65618">
        <ele>2460</ele>
        <time>2019-08-16T12:46:00Z</time>
      </trkpt>
      <trkpt lat="45.6449" lon="6.65633">
        <ele>2464</ele>
        <time>2019-08-16T12:46:21Z</time>
      </trkpt>
      <trkpt lat="45.64502" lon="6.65645">
        <ele>2466</ele>
        <time>2019-08-16T12:46:41Z</time>
      </trkpt>
      <trkpt lat="45.64503" lon="6.65652">
        <ele>2469</ele>
        <time>2019-08-16T12:46:47Z</time>
      </trkpt>
      <trkpt lat="45.64501" lon="6.65655">
        <ele>2468</ele>
        <time>2019-08-16T12:46:51Z</time>
      </trkpt>
      <trkpt lat="45.64505" lon="6.65666">
        <ele>2473</ele>
        <time>2019-08-16T12:47:03Z</time>
      </trkpt>
      <trkpt lat="45.64501" lon="6.65683">
        <ele>2467</ele>
        <time>2019-08-16T12:47:20Z</time>
      </trkpt>
      <trkpt lat="45.64495" lon="6.65692">
        <ele>2465</ele>
        <time>2019-08-16T12:47:31Z</time>
      </trkpt>
      <trkpt lat="45.64492" lon="6.65703">
        <ele>2461</ele>
        <time>2019-08-16T12:47:42Z</time>
      </trkpt>
      <trkpt lat="45.64486" lon="6.65713">
        <ele>2458</ele>
        <time>2019-08-16T12:47:54Z</time>
      </trkpt>
      <trkpt lat="45.64489" lon="6.65719">
        <ele>2457</ele>
        <time>2019-08-16T12:48:01Z</time>
      </trkpt>
      <trkpt lat="45.64494" lon="6.65725">
        <ele>2456</ele>
        <time>2019-08-16T12:48:10Z</time>
      </trkpt>
      <trkpt lat="45.64495" lon="6.65729">
        <ele>2455</ele>
        <time>2019-08-16T12:48:14Z</time>
      </trkpt>
      <trkpt lat="45.64483" lon="6.65734">
        <ele>2452</ele>
        <time>2019-08-16T12:48:31Z</time>
      </trkpt>
      <trkpt lat="45.64492" lon="6.65746">
        <ele>2450</ele>
        <time>2019-08-16T12:48:47Z</time>
      </trkpt>
      <trkpt lat="45.64494" lon="6.65753">
        <ele>2448</ele>
        <time>2019-08-16T12:48:54Z</time>
      </trkpt>
      <trkpt lat="45.64493" lon="6.65762">
        <ele>2444</ele>
        <time>2019-08-16T12:49:03Z</time>
      </trkpt>
      <trkpt lat="45.64496" lon="6.65768">
        <ele>2443</ele>
        <time>2019-08-16T12:49:10Z</time>
      </trkpt>
      <trkpt lat="45.64502" lon="6.65777">
        <ele>2441</ele>
        <time>2019-08-16T12:49:21Z</time>
      </trkpt>
      <trkpt lat="45.64492" lon="6.65777">
        <ele>2439</ele>
        <time>2019-08-16T12:49:35Z</time>
      </trkpt>
      <trkpt lat="45.64486" lon="6.65776">
        <ele>2438</ele>
        <time>2019-08-16T12:49:43Z</time>
      </trkpt>
      <trkpt lat="45.6448" lon="6.65778">
        <ele>2436</ele>
        <time>2019-08-16T12:49:51Z</time>
      </trkpt>
      <trkpt lat="45.64477" lon="6.65785">
        <ele>2433</ele>
        <time>2019-08-16T12:49:58Z</time>
      </trkpt>
      <trkpt lat="45.64468" lon="6.65784">
        <ele>2432</ele>
        <time>2019-08-16T12:50:11Z</time>
      </trkpt>
      <trkpt lat="45.64465" lon="6.65788">
        <ele>2430</ele>
        <time>2019-08-16T12:50:16Z</time>
      </trkpt>
      <trkpt lat="45.64467" lon="6.65798">
        <ele>2427</ele>
        <time>2019-08-16T12:50:26Z</time>
      </trkpt>
      <trkpt lat="45.64473" lon="6.65806">
        <ele>2425</ele>
        <time>2019-08-16T12:50:37Z</time>
      </trkpt>
      <trkpt lat="45.6447" lon="6.65807">
        <ele>2425</ele>
        <time>2019-08-16T12:50:41Z</time>
      </trkpt>
      <trkpt lat="45.64459" lon="6.65802">
        <ele>2425</ele>
        <time>2019-08-16T12:50:56Z</time>
      </trkpt>
      <trkpt lat="45.64457" lon="6.65809">
        <ele>2422</ele>
        <time>2019-08-16T12:51:03Z</time>
      </trkpt>
      <trkpt lat="45.64452" lon="6.65811">
        <ele>2420</ele>
        <time>2019-08-16T12:51:10Z</time>
      </trkpt>
      <trkpt lat="45.64452" lon="6.65828">
        <ele>2414</ele>
        <time>2019-08-16T12:51:26Z</time>
      </trkpt>
      <trkpt lat="45.64443" lon="6.65837">
        <ele>2410</ele>
        <time>2019-08-16T12:51:41Z</time>
      </trkpt>
      <trkpt lat="45.64441" lon="6.65853">
        <ele>2406</ele>
        <time>2019-08-16T12:51:56Z</time>
      </trkpt>
      <trkpt lat="45.64434" lon="6.6586">
        <ele>2403</ele>
        <time>2019-08-16T12:52:07Z</time>
      </trkpt>
      <trkpt lat="45.6443" lon="6.65889">
        <ele>2394</ele>
        <time>2019-08-16T12:52:35Z</time>
      </trkpt>
      <trkpt lat="45.64427" lon="6.65905">
        <ele>2390</ele>
        <time>2019-08-16T12:52:50Z</time>
      </trkpt>
      <trkpt lat="45.64423" lon="6.65918">
        <ele>2386</ele>
        <time>2019-08-16T12:53:03Z</time>
      </trkpt>
      <trkpt lat="45.64417" lon="6.65948">
        <ele>2380</ele>
        <time>2019-08-16T12:53:33Z</time>
      </trkpt>
      <trkpt lat="45.64414" lon="6.65955">
        <ele>2379</ele>
        <time>2019-08-16T12:53:40Z</time>
      </trkpt>
      <trkpt lat="45.64414" lon="6.65968">
        <ele>2377</ele>
        <time>2019-08-16T12:53:52Z</time>
      </trkpt>
      <trkpt lat="45.64419" lon="6.65984">
        <ele>2374</ele>
        <time>2019-08-16T12:54:09Z</time>
      </trkpt>
      <trkpt lat="45.64417" lon="6.66001">
        <ele>2371</ele>
        <time>2019-08-16T12:54:25Z</time>
      </trkpt>
      <trkpt lat="45.6442" lon="6.66011">
        <ele>2370</ele>
        <time>2019-08-16T12:54:35Z</time>
      </trkpt>
      <trkpt lat="45.64417" lon="6.66027">
        <ele>2367</ele>
        <time>2019-08-16T12:54:50Z</time>
      </trkpt>
      <trkpt lat="45.64421" lon="6.66045">
        <ele>2364</ele>
        <time>2019-08-16T12:55:08Z</time>
      </trkpt>
      <trkpt lat="45.64416" lon="6.66053">
        <ele>2363</ele>
        <time>2019-08-16T12:55:18Z</time>
      </trkpt>
      <trkpt lat="45.6441" lon="6.66067">
        <ele>2360</ele>
        <time>2019-08-16T12:55:33Z</time>
      </trkpt>
      <trkpt lat="45.64408" lon="6.66082">
        <ele>2358</ele>
        <time>2019-08-16T12:55:48Z</time>
      </trkpt>
      <trkpt lat="45.64403" lon="6.66094">
        <ele>2356</ele>
        <time>2019-08-16T12:56:01Z</time>
      </trkpt>
      <trkpt lat="45.644" lon="6.66114">
        <ele>2354</ele>
        <time>2019-08-16T12:56:20Z</time>
      </trkpt>
      <trkpt lat="45.644" lon="6.66125">
        <ele>2352</ele>
        <time>2019-08-16T12:56:30Z</time>
      </trkpt>
      <trkpt lat="45.64397" lon="6.66135">
        <ele>2351</ele>
        <time>2019-08-16T12:56:40Z</time>
      </trkpt>
      <trkpt lat="45.6439" lon="6.66145">
        <ele>2349</ele>
        <time>2019-08-16T12:56:53Z</time>
      </trkpt>
      <trkpt lat="45.64384" lon="6.66159">
        <ele>2347</ele>
        <time>2019-08-16T12:57:09Z</time>
      </trkpt>
      <trkpt lat="45.64382" lon="6.66168">
        <ele>2345</ele>
        <time>2019-08-16T12:57:17Z</time>
      </trkpt>
      <trkpt lat="45.64385" lon="6.66177">
        <ele>2345</ele>
        <time>2019-08-16T12:57:27Z</time>
      </trkpt>
      <trkpt lat="45.64375" lon="6.6619">
        <ele>2342</ele>
        <time>2019-08-16T12:57:45Z</time>
      </trkpt>
      <trkpt lat="45.64368" lon="6.66197">
        <ele>2341</ele>
        <time>2019-08-16T12:57:56Z</time>
      </trkpt>
      <trkpt lat="45.64362" lon="6.66208">
        <ele>2339</ele>
        <time>2019-08-16T12:58:09Z</time>
      </trkpt>
      <trkpt lat="45.64356" lon="6.66217">
        <ele>2338</ele>
        <time>2019-08-16T12:58:21Z</time>
      </trkpt>
      <trkpt lat="45.64341" lon="6.66228">
        <ele>2334</ele>
        <time>2019-08-16T12:58:43Z</time>
      </trkpt>
      <trkpt lat="45.64336" lon="6.6623">
        <ele>2334</ele>
        <time>2019-08-16T12:58:50Z</time>
      </trkpt>
      <trkpt lat="45.64325" lon="6.66229">
        <ele>2332</ele>
        <time>2019-08-16T12:59:05Z</time>
      </trkpt>
      <trkpt lat="45.64308" lon="6.66241">
        <ele>2327</ele>
        <time>2019-08-16T12:59:30Z</time>
      </trkpt>
      <trkpt lat="45.64302" lon="6.6625">
        <ele>2325</ele>
        <time>2019-08-16T12:59:42Z</time>
      </trkpt>
      <trkpt lat="45.6429" lon="6.66262">
        <ele>2322</ele>
        <time>2019-08-16T13:00:01Z</time>
      </trkpt>
      <trkpt lat="45.64276" lon="6.66268">
        <ele>2319</ele>
        <time>2019-08-16T13:00:21Z</time>
      </trkpt>
      <trkpt lat="45.64268" lon="6.66273">
        <ele>2317</ele>
        <time>2019-08-16T13:00:33Z</time>
      </trkpt>
      <trkpt lat="45.64255" lon="6.66277">
        <ele>2314</ele>
        <time>2019-08-16T13:00:50Z</time>
      </trkpt>
      <trkpt lat="45.64247" lon="6.66276">
        <ele>2313</ele>
        <time>2019-08-16T13:01:01Z</time>
      </trkpt>
      <trkpt lat="45.64238" lon="6.66275">
        <ele>2310</ele>
        <time>2019-08-16T13:01:13Z</time>
      </trkpt>
      <trkpt lat="45.64227" lon="6.6626">
        <ele>2308</ele>
        <time>2019-08-16T13:01:33Z</time>
      </trkpt>
      <trkpt lat="45.64223" lon="6.66257">
        <ele>2307</ele>
        <time>2019-08-16T13:01:39Z</time>
      </trkpt>
      <trkpt lat="45.64217" lon="6.66269">
        <ele>2304</ele>
        <time>2019-08-16T13:01:53Z</time>
      </trkpt>
      <trkpt lat="45.64211" lon="6.66287">
        <ele>2301</ele>
        <time>2019-08-16T13:02:12Z</time>
      </trkpt>
      <trkpt lat="45.64209" lon="6.66298">
        <ele>2299</ele>
        <time>2019-08-16T13:02:22Z</time>
      </trkpt>
      <trkpt lat="45.64205" lon="6.66296">
        <ele>2298</ele>
        <time>2019-08-16T13:02:28Z</time>
      </trkpt>
      <trkpt lat="45.64195" lon="6.66293">
        <ele>2296</ele>
        <time>2019-08-16T13:02:42Z</time>
      </trkpt>
      <trkpt lat="45.64189" lon="6.66297">
        <ele>2293</ele>
        <time>2019-08-16T13:02:50Z</time>
      </trkpt>
      <trkpt lat="45.64182" lon="6.663">
        <ele>2291</ele>
        <time>2019-08-16T13:03:00Z</time>
      </trkpt>
      <trkpt lat="45.64169" lon="6.66298">
        <ele>2287</ele>
        <time>2019-08-16T13:03:18Z</time>
      </trkpt>
      <trkpt lat="45.64151" lon="6.66289">
        <ele>2282</ele>
        <time>2019-08-16T13:03:43Z</time>
      </trkpt>
      <trkpt lat="45.64134" lon="6.66281">
        <ele>2276</ele>
        <time>2019-08-16T13:04:07Z</time>
      </trkpt>
      <trkpt lat="45.64124" lon="6.66277">
        <ele>2273</ele>
        <time>2019-08-16T13:04:21Z</time>
      </trkpt>
      <trkpt lat="45.64116" lon="6.66277">
        <ele>2270</ele>
        <time>2019-08-16T13:04:32Z</time>
      </trkpt>
      <trkpt lat="45.64103" lon="6.66268">
        <ele>2267</ele>
        <time>2019-08-16T13:04:51Z</time>
      </trkpt>
      <trkpt lat="45.64094" lon="6.66264">
        <ele>2264</ele>
        <time>2019-08-16T13:05:03Z</time>
      </trkpt>
      <trkpt lat="45.64088" lon="6.66264">
        <ele>2261</ele>
        <time>2019-08-16T13:05:11Z</time>
      </trkpt>
      <trkpt lat="45.64081" lon="6.6627">
        <ele>2259</ele>
        <time>2019-08-16T13:05:22Z</time>
      </trkpt>
      <trkpt lat="45.64076" lon="6.6627">
        <ele>2257</ele>
        <time>2019-08-16T13:05:29Z</time>
      </trkpt>
      <trkpt lat="45.64069" lon="6.66273">
        <ele>2255</ele>
        <time>2019-08-16T13:05:39Z</time>
      </trkpt>
      <trkpt lat="45.64065" lon="6.66271">
        <ele>2254</ele>
        <time>2019-08-16T13:05:44Z</time>
      </trkpt>
      <trkpt lat="45.64054" lon="6.66272">
        <ele>2251</ele>
        <time>2019-08-16T13:05:59Z</time>
      </trkpt>
      <trkpt lat="45.64048" lon="6.66267">
        <ele>2250</ele>
        <time>2019-08-16T13:06:08Z</time>
      </trkpt>
      <trkpt lat="45.6404" lon="6.66268">
        <ele>2247</ele>
        <time>2019-08-16T13:06:19Z</time>
      </trkpt>
      <trkpt lat="45.64031" lon="6.66276">
        <ele>2245</ele>
        <time>2019-08-16T13:06:33Z</time>
      </trkpt>
      <trkpt lat="45.64022" lon="6.6628">
        <ele>2242</ele>
        <time>2019-08-16T13:06:46Z</time>
      </trkpt>
      <trkpt lat="45.64004" lon="6.66279">
        <ele>2237</ele>
        <time>2019-08-16T13:07:10Z</time>
      </trkpt>
      <trkpt lat="45.63989" lon="6.66277">
        <ele>2234</ele>
        <time>2019-08-16T13:07:30Z</time>
      </trkpt>
      <trkpt lat="45.63982" lon="6.66281">
        <ele>2232</ele>
        <time>2019-08-16T13:07:40Z</time>
      </trkpt>
      <trkpt lat="45.63968" lon="6.66275">
        <ele>2230</ele>
        <time>2019-08-16T13:07:59Z</time>
      </trkpt>
      <trkpt lat="45.63962" lon="6.66282">
        <ele>2228</ele>
        <time>2019-08-16T13:08:10Z</time>
      </trkpt>
      <trkpt lat="45.6395" lon="6.66279">
        <ele>2226</ele>
        <time>2019-08-16T13:08:26Z</time>
      </trkpt>
      <trkpt lat="45.63943" lon="6.66278">
        <ele>2224</ele>
        <time>2019-08-16T13:08:35Z</time>
      </trkpt>
      <trkpt lat="45.63934" lon="6.66284">
        <ele>2222</ele>
        <time>2019-08-16T13:08:49Z</time>
      </trkpt>
      <trkpt lat="45.63926" lon="6.6629">
        <ele>2221</ele>
        <time>2019-08-16T13:09:01Z</time>
      </trkpt>
      <trkpt lat="45.63902" lon="6.6629">
        <ele>2217</ele>
        <time>2019-08-16T13:09:33Z</time>
      </trkpt>
      <trkpt lat="45.63894" lon="6.66293">
        <ele>2216</ele>
        <time>2019-08-16T13:09:44Z</time>
      </trkpt>
      <trkpt lat="45.63887" lon="6.66305">
        <ele>2215</ele>
        <time>2019-08-16T13:09:58Z</time>
      </trkpt>
      <trkpt lat="45.63877" lon="6.66312">
        <ele>2214</ele>
        <time>2019-08-16T13:10:13Z</time>
      </trkpt>
      <trkpt lat="45.63863" lon="6.66313">
        <ele>2212</ele>
        <time>2019-08-16T13:10:32Z</time>
      </trkpt>
      <trkpt lat="45.63859" lon="6.66309">
        <ele>2212</ele>
        <time>2019-08-16T13:10:38Z</time>
      </trkpt>
      <trkpt lat="45.63852" lon="6.66304">
        <ele>2211</ele>
        <time>2019-08-16T13:10:49Z</time>
      </trkpt>
      <trkpt lat="45.63848" lon="6.66304">
        <ele>2210</ele>
        <time>2019-08-16T13:10:54Z</time>
      </trkpt>
      <trkpt lat="45.63845" lon="6.66301">
        <ele>2210</ele>
        <time>2019-08-16T13:10:59Z</time>
      </trkpt>
      <trkpt lat="45.63836" lon="6.66292">
        <ele>2208</ele>
        <time>2019-08-16T13:11:14Z</time>
      </trkpt>
      <trkpt lat="45.63832" lon="6.66292">
        <ele>2208</ele>
        <time>2019-08-16T13:11:19Z</time>
      </trkpt>
      <trkpt lat="45.63825" lon="6.66287">
        <ele>2206</ele>
        <time>2019-08-16T13:11:30Z</time>
      </trkpt>
      <trkpt lat="45.63819" lon="6.66284">
        <ele>2205</ele>
        <time>2019-08-16T13:11:38Z</time>
      </trkpt>
      <trkpt lat="45.63808" lon="6.66287">
        <ele>2203</ele>
        <time>2019-08-16T13:11:53Z</time>
      </trkpt>
      <trkpt lat="45.63803" lon="6.66286">
        <ele>2202</ele>
        <time>2019-08-16T13:12:00Z</time>
      </trkpt>
      <trkpt lat="45.63795" lon="6.66285">
        <ele>2201</ele>
        <time>2019-08-16T13:12:10Z</time>
      </trkpt>
      <trkpt lat="45.63779" lon="6.66275">
        <ele>2196</ele>
        <time>2019-08-16T13:12:34Z</time>
      </trkpt>
      <trkpt lat="45.63773" lon="6.66269">
        <ele>2194</ele>
        <time>2019-08-16T13:12:44Z</time>
      </trkpt>
      <trkpt lat="45.63769" lon="6.66269">
        <ele>2193</ele>
        <time>2019-08-16T13:12:49Z</time>
      </trkpt>
      <trkpt lat="45.63765" lon="6.66269">
        <ele>2192</ele>
        <time>2019-08-16T13:12:54Z</time>
      </trkpt>
      <trkpt lat="45.63762" lon="6.66259">
        <ele>2190</ele>
        <time>2019-08-16T13:13:04Z</time>
      </trkpt>
      <trkpt lat="45.63759" lon="6.66256">
        <ele>2188</ele>
        <time>2019-08-16T13:13:09Z</time>
      </trkpt>
      <trkpt lat="45.6375" lon="6.66255">
        <ele>2186</ele>
        <time>2019-08-16T13:13:21Z</time>
      </trkpt>
      <trkpt lat="45.63741" lon="6.66249">
        <ele>2183</ele>
        <time>2019-08-16T13:13:35Z</time>
      </trkpt>
      <trkpt lat="45.63723" lon="6.66236">
        <ele>2180</ele>
        <time>2019-08-16T13:14:01Z</time>
      </trkpt>
      <trkpt lat="45.6371" lon="6.66223">
        <ele>2177</ele>
        <time>2019-08-16T13:14:23Z</time>
      </trkpt>
      <trkpt lat="45.63702" lon="6.66218">
        <ele>2175</ele>
        <time>2019-08-16T13:14:34Z</time>
      </trkpt>
      <trkpt lat="45.63693" lon="6.66209">
        <ele>2172</ele>
        <time>2019-08-16T13:14:49Z</time>
      </trkpt>
      <trkpt lat="45.63687" lon="6.66203">
        <ele>2170</ele>
        <time>2019-08-16T13:14:59Z</time>
      </trkpt>
      <trkpt lat="45.63681" lon="6.66202">
        <ele>2169</ele>
        <time>2019-08-16T13:15:07Z</time>
      </trkpt>
      <trkpt lat="45.63674" lon="6.66205">
        <ele>2167</ele>
        <time>2019-08-16T13:15:17Z</time>
      </trkpt>
      <trkpt lat="45.63666" lon="6.66204">
        <ele>2165</ele>
        <time>2019-08-16T13:15:27Z</time>
      </trkpt>
      <trkpt lat="45.63663" lon="6.66195">
        <ele>2164</ele>
        <time>2019-08-16T13:15:37Z</time>
      </trkpt>
      <trkpt lat="45.63658" lon="6.66191">
        <ele>2163</ele>
        <time>2019-08-16T13:15:44Z</time>
      </trkpt>
      <trkpt lat="45.63647" lon="6.66189">
        <ele>2161</ele>
        <time>2019-08-16T13:15:59Z</time>
      </trkpt>
      <trkpt lat="45.63636" lon="6.6619">
        <ele>2160</ele>
        <time>2019-08-16T13:16:14Z</time>
      </trkpt>
      <trkpt lat="45.63627" lon="6.66192">
        <ele>2159</ele>
        <time>2019-08-16T13:16:26Z</time>
      </trkpt>
      <trkpt lat="45.6362" lon="6.66195">
        <ele>2158</ele>
        <time>2019-08-16T13:16:36Z</time>
      </trkpt>
      <trkpt lat="45.6361" lon="6.66197">
        <ele>2157</ele>
        <time>2019-08-16T13:16:49Z</time>
      </trkpt>
      <trkpt lat="45.63602" lon="6.66194">
        <ele>2156</ele>
        <time>2019-08-16T13:17:00Z</time>
      </trkpt>
      <trkpt lat="45.63593" lon="6.66195">
        <ele>2155</ele>
        <time>2019-08-16T13:17:12Z</time>
      </trkpt>
      <trkpt lat="45.63589" lon="6.66192">
        <ele>2154</ele>
        <time>2019-08-16T13:17:18Z</time>
      </trkpt>
      <trkpt lat="45.63581" lon="6.66191">
        <ele>2153</ele>
        <time>2019-08-16T13:17:29Z</time>
      </trkpt>
      <trkpt lat="45.6357" lon="6.66202">
        <ele>2151</ele>
        <time>2019-08-16T13:17:47Z</time>
      </trkpt>
      <trkpt lat="45.63555" lon="6.66217">
        <ele>2148</ele>
        <time>2019-08-16T13:18:11Z</time>
      </trkpt>
      <trkpt lat="45.63548" lon="6.66228">
        <ele>2147</ele>
        <time>2019-08-16T13:18:25Z</time>
      </trkpt>
      <trkpt lat="45.63544" lon="6.66235">
        <ele>2146</ele>
        <time>2019-08-16T13:18:34Z</time>
      </trkpt>
      <trkpt lat="45.63538" lon="6.66236">
        <ele>2144</ele>
        <time>2019-08-16T13:18:42Z</time>
      </trkpt>
      <trkpt lat="45.63532" lon="6.66245">
        <ele>2143</ele>
        <time>2019-08-16T13:18:53Z</time>
      </trkpt>
      <trkpt lat="45.63524" lon="6.6625">
        <ele>2141</ele>
        <time>2019-08-16T13:19:05Z</time>
      </trkpt>
      <trkpt lat="45.63515" lon="6.66261">
        <ele>2142</ele>
        <time>2019-08-16T13:19:21Z</time>
      </trkpt>
      <trkpt lat="45.63511" lon="6.66263">
        <ele>2141</ele>
        <time>2019-08-16T13:19:26Z</time>
      </trkpt>
      <trkpt lat="45.63504" lon="6.66267">
        <ele>2141</ele>
        <time>2019-08-16T13:19:36Z</time>
      </trkpt>
      <trkpt lat="45.63497" lon="6.66277">
        <ele>2141</ele>
        <time>2019-08-16T13:19:50Z</time>
      </trkpt>
      <trkpt lat="45.63491" lon="6.66282">
        <ele>2141</ele>
        <time>2019-08-16T13:19:59Z</time>
      </trkpt>
      <trkpt lat="45.63484" lon="6.6629">
        <ele>2140</ele>
        <time>2019-08-16T13:20:11Z</time>
      </trkpt>
      <trkpt lat="45.63476" lon="6.66301">
        <ele>2141</ele>
        <time>2019-08-16T13:20:26Z</time>
      </trkpt>
      <trkpt lat="45.63469" lon="6.66306">
        <ele>2139</ele>
        <time>2019-08-16T13:20:36Z</time>
      </trkpt>
      <trkpt lat="45.63463" lon="6.66309">
        <ele>2138</ele>
        <time>2019-08-16T13:20:45Z</time>
      </trkpt>
      <trkpt lat="45.63452" lon="6.66322">
        <ele>2137</ele>
        <time>2019-08-16T13:21:04Z</time>
      </trkpt>
      <trkpt lat="45.63444" lon="6.66332">
        <ele>2137</ele>
        <time>2019-08-16T13:21:18Z</time>
      </trkpt>
      <trkpt lat="45.63429" lon="6.66342">
        <ele>2132</ele>
        <time>2019-08-16T13:21:40Z</time>
      </trkpt>
      <trkpt lat="45.6342" lon="6.66343">
        <ele>2129</ele>
        <time>2019-08-16T13:21:52Z</time>
      </trkpt>
      <trkpt lat="45.63418" lon="6.66347">
        <ele>2129</ele>
        <time>2019-08-16T13:21:56Z</time>
      </trkpt>
      <trkpt lat="45.63408" lon="6.6635">
        <ele>2125</ele>
        <time>2019-08-16T13:22:10Z</time>
      </trkpt>
      <trkpt lat="45.63399" lon="6.66351">
        <ele>2121</ele>
        <time>2019-08-16T13:22:22Z</time>
      </trkpt>
      <trkpt lat="45.63395" lon="6.66354">
        <ele>2119</ele>
        <time>2019-08-16T13:22:28Z</time>
      </trkpt>
      <trkpt lat="45.63393" lon="6.66354">
        <ele>2118</ele>
        <time>2019-08-16T13:22:31Z</time>
      </trkpt>
      <trkpt lat="45.63393" lon="6.66346">
        <ele>2118</ele>
        <time>2019-08-16T13:22:38Z</time>
      </trkpt>
      <trkpt lat="45.63392" lon="6.6634">
        <ele>2117</ele>
        <time>2019-08-16T13:22:44Z</time>
      </trkpt>
      <trkpt lat="45.63388" lon="6.66341">
        <ele>2115</ele>
        <time>2019-08-16T13:22:49Z</time>
      </trkpt>
      <trkpt lat="45.63383" lon="6.66345">
        <ele>2113</ele>
        <time>2019-08-16T13:22:57Z</time>
      </trkpt>
      <trkpt lat="45.63378" lon="6.66353">
        <ele>2111</ele>
        <time>2019-08-16T13:23:07Z</time>
      </trkpt>
      <trkpt lat="45.63373" lon="6.66364">
        <ele>2109</ele>
        <time>2019-08-16T13:23:19Z</time>
      </trkpt>
      <trkpt lat="45.63369" lon="6.66374">
        <ele>2108</ele>
        <time>2019-08-16T13:23:30Z</time>
      </trkpt>
      <trkpt lat="45.63363" lon="6.66394">
        <ele>2105</ele>
        <time>2019-08-16T13:23:50Z</time>
      </trkpt>
      <trkpt lat="45.63361" lon="6.66401">
        <ele>2104</ele>
        <time>2019-08-16T13:23:57Z</time>
      </trkpt>
      <trkpt lat="45.63354" lon="6.66417">
        <ele>2100</ele>
        <time>2019-08-16T13:24:15Z</time>
      </trkpt>
      <trkpt lat="45.63351" lon="6.66423">
        <ele>2098</ele>
        <time>2019-08-16T13:24:22Z</time>
      </trkpt>
      <trkpt lat="45.63347" lon="6.66424">
        <ele>2096</ele>
        <time>2019-08-16T13:24:27Z</time>
      </trkpt>
      <trkpt lat="45.63344" lon="6.66412">
        <ele>2095</ele>
        <time>2019-08-16T13:24:39Z</time>
      </trkpt>
      <trkpt lat="45.6334" lon="6.6641">
        <ele>2093</ele>
        <time>2019-08-16T13:24:45Z</time>
      </trkpt>
      <trkpt lat="45.63336" lon="6.66414">
        <ele>2091</ele>
        <time>2019-08-16T13:24:51Z</time>
      </trkpt>
      <trkpt lat="45.63328" lon="6.66417">
        <ele>2087</ele>
        <time>2019-08-16T13:25:02Z</time>
      </trkpt>
      <trkpt lat="45.63318" lon="6.66418">
        <ele>2084</ele>
        <time>2019-08-16T13:25:16Z</time>
      </trkpt>
      <trkpt lat="45.63316" lon="6.66428">
        <ele>2083</ele>
        <time>2019-08-16T13:25:26Z</time>
      </trkpt>
      <trkpt lat="45.63304" lon="6.66448">
        <ele>2077</ele>
        <time>2019-08-16T13:25:50Z</time>
      </trkpt>
      <trkpt lat="45.63303" lon="6.66458">
        <ele>2076</ele>
        <time>2019-08-16T13:26:00Z</time>
      </trkpt>
      <trkpt lat="45.63292" lon="6.66464">
        <ele>2072</ele>
        <time>2019-08-16T13:26:15Z</time>
      </trkpt>
      <trkpt lat="45.63294" lon="6.66475">
        <ele>2071</ele>
        <time>2019-08-16T13:26:26Z</time>
      </trkpt>
      <trkpt lat="45.63288" lon="6.66477">
        <ele>2069</ele>
        <time>2019-08-16T13:26:34Z</time>
      </trkpt>
      <trkpt lat="45.63286" lon="6.66484">
        <ele>2067</ele>
        <time>2019-08-16T13:26:41Z</time>
      </trkpt>
      <trkpt lat="45.63286" lon="6.66491">
        <ele>2067</ele>
        <time>2019-08-16T13:26:48Z</time>
      </trkpt>
      <trkpt lat="45.63283" lon="6.66492">
        <ele>2065</ele>
        <time>2019-08-16T13:26:52Z</time>
      </trkpt>
      <trkpt lat="45.63273" lon="6.6649">
        <ele>2062</ele>
        <time>2019-08-16T13:27:05Z</time>
      </trkpt>
      <trkpt lat="45.63266" lon="6.66486">
        <ele>2060</ele>
        <time>2019-08-16T13:27:15Z</time>
      </trkpt>
      <trkpt lat="45.63262" lon="6.66486">
        <ele>2058</ele>
        <time>2019-08-16T13:27:21Z</time>
      </trkpt>
      <trkpt lat="45.6326" lon="6.66494">
        <ele>2057</ele>
        <time>2019-08-16T13:27:29Z</time>
      </trkpt>
      <trkpt lat="45.63256" lon="6.66497">
        <ele>2055</ele>
        <time>2019-08-16T13:27:35Z</time>
      </trkpt>
      <trkpt lat="45.63252" lon="6.66512">
        <ele>2052</ele>
        <time>2019-08-16T13:27:50Z</time>
      </trkpt>
      <trkpt lat="45.63247" lon="6.6652">
        <ele>2050</ele>
        <time>2019-08-16T13:28:00Z</time>
      </trkpt>
      <trkpt lat="45.63243" lon="6.66524">
        <ele>2050</ele>
        <time>2019-08-16T13:28:06Z</time>
      </trkpt>
      <trkpt lat="45.63239" lon="6.66536">
        <ele>2049</ele>
        <time>2019-08-16T13:28:19Z</time>
      </trkpt>
      <trkpt lat="45.6324" lon="6.66555">
        <ele>2047</ele>
        <time>2019-08-16T13:28:36Z</time>
      </trkpt>
      <trkpt lat="45.6324" lon="6.66575">
        <ele>2045</ele>
        <time>2019-08-16T13:28:55Z</time>
      </trkpt>
      <trkpt lat="45.63233" lon="6.66589">
        <ele>2043</ele>
        <time>2019-08-16T13:29:11Z</time>
      </trkpt>
      <trkpt lat="45.6323" lon="6.66605">
        <ele>2042</ele>
        <time>2019-08-16T13:29:27Z</time>
      </trkpt>
      <trkpt lat="45.63227" lon="6.66616">
        <ele>2041</ele>
        <time>2019-08-16T13:29:38Z</time>
      </trkpt>
      <trkpt lat="45.63225" lon="6.66652">
        <ele>2037</ele>
        <time>2019-08-16T13:30:11Z</time>
      </trkpt>
      <trkpt lat="45.63219" lon="6.66673">
        <ele>2035</ele>
        <time>2019-08-16T13:30:32Z</time>
      </trkpt>
      <trkpt lat="45.63224" lon="6.66681">
        <ele>2034</ele>
        <time>2019-08-16T13:30:42Z</time>
      </trkpt>
      <trkpt lat="45.63234" lon="6.66691">
        <ele>2034</ele>
        <time>2019-08-16T13:30:59Z</time>
      </trkpt>
      <trkpt lat="45.63233" lon="6.66705">
        <ele>2032</ele>
        <time>2019-08-16T13:31:12Z</time>
      </trkpt>
      <trkpt lat="45.63215" lon="6.66746">
        <ele>2026</ele>
        <time>2019-08-16T13:31:57Z</time>
      </trkpt>
      <trkpt lat="45.63197" lon="6.66787">
        <ele>2021</ele>
        <time>2019-08-16T13:32:42Z</time>
      </trkpt>
      <trkpt lat="45.63198" lon="6.66824">
        <ele>2017</ele>
        <time>2019-08-16T13:33:17Z</time>
      </trkpt>
      <trkpt lat="45.63197" lon="6.66833">
        <ele>2016</ele>
        <time>2019-08-16T13:33:25Z</time>
      </trkpt>
      <trkpt lat="45.63192" lon="6.66892">
        <ele>2009</ele>
        <time>2019-08-16T13:34:21Z</time>
      </trkpt>
      <trkpt lat="45.632" lon="6.66917">
        <ele>2006</ele>
        <time>2019-08-16T13:34:46Z</time>
      </trkpt>
      <trkpt lat="45.63234" lon="6.66937">
        <ele>2001</ele>
        <time>2019-08-16T13:35:35Z</time>
      </trkpt>
      <trkpt lat="45.63257" lon="6.66958">
        <ele>1997</ele>
        <time>2019-08-16T13:36:12Z</time>
      </trkpt>
      <trkpt lat="45.63275" lon="6.6697">
        <ele>1996</ele>
        <time>2019-08-16T13:36:38Z</time>
      </trkpt>
      <trkpt lat="45.63277" lon="6.66977">
        <ele>1994</ele>
        <time>2019-08-16T13:36:45Z</time>
      </trkpt>
      <trkpt lat="45.63268" lon="6.66991">
        <ele>1990</ele>
        <time>2019-08-16T13:37:03Z</time>
      </trkpt>
      <trkpt lat="45.6324" lon="6.67007">
        <ele>1984</ele>
        <time>2019-08-16T13:37:43Z</time>
      </trkpt>
      <trkpt lat="45.63218" lon="6.67024">
        <ele>1979</ele>
        <time>2019-08-16T13:38:17Z</time>
      </trkpt>
      <trkpt lat="45.63224" lon="6.6704">
        <ele>1974</ele>
        <time>2019-08-16T13:38:34Z</time>
      </trkpt>
      <trkpt lat="45.63247" lon="6.67053">
        <ele>1972</ele>
        <time>2019-08-16T13:39:07Z</time>
      </trkpt>
      <trkpt lat="45.6327" lon="6.67066">
        <ele>1970</ele>
        <time>2019-08-16T13:39:40Z</time>
      </trkpt>
      <trkpt lat="45.63284" lon="6.67071">
        <ele>1970</ele>
        <time>2019-08-16T13:39:59Z</time>
      </trkpt>
      <trkpt lat="45.63323" lon="6.67078">
        <ele>1971</ele>
        <time>2019-08-16T13:40:51Z</time>
      </trkpt>
      <trkpt lat="45.63343" lon="6.67088">
        <ele>1972</ele>
        <time>2019-08-16T13:41:20Z</time>
      </trkpt>
      <trkpt lat="45.63366" lon="6.67127">
        <ele>1965</ele>
        <time>2019-08-16T13:42:07Z</time>
      </trkpt>
      <trkpt lat="45.63389" lon="6.67167">
        <ele>1959</ele>
        <time>2019-08-16T13:42:56Z</time>
      </trkpt>
      <trkpt lat="45.63403" lon="6.67222">
        <ele>1947</ele>
        <time>2019-08-16T13:43:50Z</time>
      </trkpt>
      <trkpt lat="45.63422" lon="6.67286">
        <ele>1942</ele>
        <time>2019-08-16T13:44:55Z</time>
      </trkpt>
      <trkpt lat="45.63422" lon="6.67305">
        <ele>1939</ele>
        <time>2019-08-16T13:45:13Z</time>
      </trkpt>
      <trkpt lat="45.63411" lon="6.67328">
        <ele>1933</ele>
        <time>2019-08-16T13:45:39Z</time>
      </trkpt>
      <trkpt lat="45.63408" lon="6.67361">
        <ele>1932</ele>
        <time>2019-08-16T13:46:10Z</time>
      </trkpt>
      <trkpt lat="45.63404" lon="6.6738">
        <ele>1931</ele>
        <time>2019-08-16T13:46:28Z</time>
      </trkpt>
      <trkpt lat="45.63397" lon="6.67389">
        <ele>1929</ele>
        <time>2019-08-16T13:46:41Z</time>
      </trkpt>
      <trkpt lat="45.63374" lon="6.67405">
        <ele>1923</ele>
        <time>2019-08-16T13:47:15Z</time>
      </trkpt>
      <trkpt lat="45.63354" lon="6.67406">
        <ele>1918</ele>
        <time>2019-08-16T13:47:42Z</time>
      </trkpt>
      <trkpt lat="45.6334" lon="6.67425">
        <ele>1915</ele>
        <time>2019-08-16T13:48:08Z</time>
      </trkpt>
      <trkpt lat="45.63331" lon="6.67449">
        <ele>1915</ele>
        <time>2019-08-16T13:48:33Z</time>
      </trkpt>
      <trkpt lat="45.63329" lon="6.67451">
        <ele>1914</ele>
        <time>2019-08-16T13:48:36Z</time>
      </trkpt>
      <trkpt lat="45.63319" lon="6.67453">
        <ele>1912</ele>
        <time>2019-08-16T13:48:50Z</time>
      </trkpt>
      <trkpt lat="45.63308" lon="6.67461">
        <ele>1910</ele>
        <time>2019-08-16T13:49:06Z</time>
      </trkpt>
      <trkpt lat="45.63294" lon="6.67468">
        <ele>1907</ele>
        <time>2019-08-16T13:49:26Z</time>
      </trkpt>
      <trkpt lat="45.63276" lon="6.67476">
        <ele>1903</ele>
        <time>2019-08-16T13:49:51Z</time>
      </trkpt>
      <trkpt lat="45.63269" lon="6.67492">
        <ele>1902</ele>
        <time>2019-08-16T13:50:09Z</time>
      </trkpt>
      <trkpt lat="45.63257" lon="6.67507">
        <ele>1901</ele>
        <time>2019-08-16T13:50:30Z</time>
      </trkpt>
      <trkpt lat="45.63235" lon="6.67517">
        <ele>1898</ele>
        <time>2019-08-16T13:51:01Z</time>
      </trkpt>
      <trkpt lat="45.63206" lon="6.67522">
        <ele>1893</ele>
        <time>2019-08-16T13:51:40Z</time>
      </trkpt>
      <trkpt lat="45.63184" lon="6.67528">
        <ele>1889</ele>
        <time>2019-08-16T13:52:10Z</time>
      </trkpt>
      <trkpt lat="45.63153" lon="6.67533">
        <ele>1883</ele>
        <time>2019-08-16T13:52:51Z</time>
      </trkpt>
      <trkpt lat="45.63141" lon="6.67537">
        <ele>1880</ele>
        <time>2019-08-16T13:53:08Z</time>
      </trkpt>
      <trkpt lat="45.6313" lon="6.67548">
        <ele>1879</ele>
        <time>2019-08-16T13:53:26Z</time>
      </trkpt>
      <trkpt lat="45.6312" lon="6.67552">
        <ele>1877</ele>
        <time>2019-08-16T13:53:40Z</time>
      </trkpt>
      <trkpt lat="45.6311" lon="6.67559">
        <ele>1875</ele>
        <time>2019-08-16T13:53:54Z</time>
      </trkpt>
      <trkpt lat="45.63101" lon="6.67568">
        <ele>1874</ele>
        <time>2019-08-16T13:54:09Z</time>
      </trkpt>
      <trkpt lat="45.63096" lon="6.6757">
        <ele>1873</ele>
        <time>2019-08-16T13:54:16Z</time>
      </trkpt>
      <trkpt lat="45.63093" lon="6.67568">
        <ele>1872</ele>
        <time>2019-08-16T13:54:20Z</time>
      </trkpt>
      <trkpt lat="45.63094" lon="6.67559">
        <ele>1871</ele>
        <time>2019-08-16T13:54:29Z</time>
      </trkpt>
      <trkpt lat="45.63101" lon="6.67546">
        <ele>1871</ele>
        <time>2019-08-16T13:54:44Z</time>
      </trkpt>
      <trkpt lat="45.63104" lon="6.67536">
        <ele>1871</ele>
        <time>2019-08-16T13:54:54Z</time>
      </trkpt>
      <trkpt lat="45.6311" lon="6.67518">
        <ele>1870</ele>
        <time>2019-08-16T13:55:13Z</time>
      </trkpt>
      <trkpt lat="45.6311" lon="6.67503">
        <ele>1867</ele>
        <time>2019-08-16T13:55:27Z</time>
      </trkpt>
      <trkpt lat="45.63112" lon="6.67482">
        <ele>1867</ele>
        <time>2019-08-16T13:55:47Z</time>
      </trkpt>
      <trkpt lat="45.63116" lon="6.67455">
        <ele>1867</ele>
        <time>2019-08-16T13:56:12Z</time>
      </trkpt>
      <trkpt lat="45.6311" lon="6.67452">
        <ele>1866</ele>
        <time>2019-08-16T13:56:21Z</time>
      </trkpt>
      <trkpt lat="45.63101" lon="6.67457">
        <ele>1864</ele>
        <time>2019-08-16T13:56:34Z</time>
      </trkpt>
      <trkpt lat="45.63085" lon="6.67476">
        <ele>1860</ele>
        <time>2019-08-16T13:57:02Z</time>
      </trkpt>
      <trkpt lat="45.63074" lon="6.67485">
        <ele>1859</ele>
        <time>2019-08-16T13:57:18Z</time>
      </trkpt>
      <trkpt lat="45.63053" lon="6.67507">
        <ele>1855</ele>
        <time>2019-08-16T13:57:53Z</time>
      </trkpt>
      <trkpt lat="45.63034" lon="6.6752">
        <ele>1853</ele>
        <time>2019-08-16T13:58:21Z</time>
      </trkpt>
      <trkpt lat="45.63015" lon="6.67536">
        <ele>1850</ele>
        <time>2019-08-16T13:58:51Z</time>
      </trkpt>
      <trkpt lat="45.62997" lon="6.67542">
        <ele>1846</ele>
        <time>2019-08-16T13:59:15Z</time>
      </trkpt>
      <trkpt lat="45.62982" lon="6.6755">
        <ele>1844</ele>
        <time>2019-08-16T13:59:37Z</time>
      </trkpt>
      <trkpt lat="45.62962" lon="6.67552">
        <ele>1842</ele>
        <time>2019-08-16T14:00:04Z</time>
      </trkpt>
      <trkpt lat="45.62942" lon="6.67561">
        <ele>1839</ele>
        <time>2019-08-16T14:00:32Z</time>
      </trkpt>
      <trkpt lat="45.62928" lon="6.67564">
        <ele>1837</ele>
        <time>2019-08-16T14:00:50Z</time>
      </trkpt>
      <trkpt lat="45.62915" lon="6.6757">
        <ele>1835</ele>
        <time>2019-08-16T14:01:09Z</time>
      </trkpt>
      <trkpt lat="45.62897" lon="6.67566">
        <ele>1832</ele>
        <time>2019-08-16T14:01:33Z</time>
      </trkpt>
      <trkpt lat="45.62888" lon="6.67566">
        <ele>1831</ele>
        <time>2019-08-16T14:01:45Z</time>
      </trkpt>
      <trkpt lat="45.62875" lon="6.67573">
        <ele>1827</ele>
        <time>2019-08-16T14:02:04Z</time>
      </trkpt>
      <trkpt lat="45.62854" lon="6.67577">
        <ele>1823</ele>
        <time>2019-08-16T14:02:32Z</time>
      </trkpt>
      <trkpt lat="45.6283" lon="6.67585">
        <ele>1817</ele>
        <time>2019-08-16T14:03:05Z</time>
      </trkpt>
      <trkpt lat="45.62815" lon="6.67595">
        <ele>1816</ele>
        <time>2019-08-16T14:03:27Z</time>
      </trkpt>
      <trkpt lat="45.62793" lon="6.67601">
        <ele>1813</ele>
        <time>2019-08-16T14:03:57Z</time>
      </trkpt>
      <trkpt lat="45.62784" lon="6.67607">
        <ele>1812</ele>
        <time>2019-08-16T14:04:10Z</time>
      </trkpt>
      <trkpt lat="45.62776" lon="6.67608">
        <ele>1811</ele>
        <time>2019-08-16T14:04:21Z</time>
      </trkpt>
      <trkpt lat="45.62766" lon="6.67617">
        <ele>1809</ele>
        <time>2019-08-16T14:04:36Z</time>
      </trkpt>
      <trkpt lat="45.6274" lon="6.67623">
        <ele>1805</ele>
        <time>2019-08-16T14:05:12Z</time>
      </trkpt>
      <trkpt lat="45.62712" lon="6.67636">
        <ele>1800</ele>
        <time>2019-08-16T14:05:51Z</time>
      </trkpt>
      <trkpt lat="45.62691" lon="6.67644">
        <ele>1795</ele>
        <time>2019-08-16T14:06:20Z</time>
      </trkpt>
      <trkpt lat="45.62672" lon="6.6765">
        <ele>1790</ele>
        <time>2019-08-16T14:06:46Z</time>
      </trkpt>
      <trkpt lat="45.62662" lon="6.67659">
        <ele>1786</ele>
        <time>2019-08-16T14:07:02Z</time>
      </trkpt>
      <trkpt lat="45.62643" lon="6.67675">
        <ele>1784</ele>
        <time>2019-08-16T14:07:31Z</time>
      </trkpt>
      <trkpt lat="45.62619" lon="6.67689">
        <ele>1783</ele>
        <time>2019-08-16T14:08:06Z</time>
      </trkpt>
      <trkpt lat="45.62599" lon="6.67693">
        <ele>1780</ele>
        <time>2019-08-16T14:08:33Z</time>
      </trkpt>
      <trkpt lat="45.62585" lon="6.67696">
        <ele>1779</ele>
        <time>2019-08-16T14:08:51Z</time>
      </trkpt>
      <trkpt lat="45.62568" lon="6.67713">
        <ele>1777</ele>
        <time>2019-08-16T14:09:19Z</time>
      </trkpt>
      <trkpt lat="45.62553" lon="6.67728">
        <ele>1775</ele>
        <time>2019-08-16T14:09:44Z</time>
      </trkpt>
      <trkpt lat="45.62545" lon="6.67731">
        <ele>1774</ele>
        <time>2019-08-16T14:09:55Z</time>
      </trkpt>
      <trkpt lat="45.62531" lon="6.67734">
        <ele>1771</ele>
        <time>2019-08-16T14:10:13Z</time>
      </trkpt>
      <trkpt lat="45.62512" lon="6.67748">
        <ele>1767</ele>
        <time>2019-08-16T14:10:42Z</time>
      </trkpt>
      <trkpt lat="45.62493" lon="6.67762">
        <ele>1764</ele>
        <time>2019-08-16T14:11:10Z</time>
      </trkpt>
      <trkpt lat="45.62484" lon="6.67773">
        <ele>1763</ele>
        <time>2019-08-16T14:11:26Z</time>
      </trkpt>
      <trkpt lat="45.62471" lon="6.67791">
        <ele>1761</ele>
        <time>2019-08-16T14:11:50Z</time>
      </trkpt>
      <trkpt lat="45.62461" lon="6.67799">
        <ele>1759</ele>
        <time>2019-08-16T14:12:06Z</time>
      </trkpt>
      <trkpt lat="45.62432" lon="6.67816">
        <ele>1754</ele>
        <time>2019-08-16T14:12:48Z</time>
      </trkpt>
      <trkpt lat="45.62403" lon="6.67833">
        <ele>1748</ele>
        <time>2019-08-16T14:13:29Z</time>
      </trkpt>
      <trkpt lat="45.62365" lon="6.67861">
        <ele>1747</ele>
        <time>2019-08-16T14:14:26Z</time>
      </trkpt>
      <trkpt lat="45.62336" lon="6.67881">
        <ele>1745</ele>
        <time>2019-08-16T14:15:09Z</time>
      </trkpt>
      <trkpt lat="45.62322" lon="6.67886">
        <ele>1744</ele>
        <time>2019-08-16T14:15:29Z</time>
      </trkpt>
      <trkpt lat="45.62305" lon="6.67884">
        <ele>1742</ele>
        <time>2019-08-16T14:15:51Z</time>
      </trkpt>
      <trkpt lat="45.62286" lon="6.6789">
        <ele>1741</ele>
        <time>2019-08-16T14:16:17Z</time>
      </trkpt>
      <trkpt lat="45.62271" lon="6.67893">
        <ele>1740</ele>
        <time>2019-08-16T14:16:38Z</time>
      </trkpt>
      <trkpt lat="45.62234" lon="6.67893">
        <ele>1736</ele>
        <time>2019-08-16T14:17:27Z</time>
      </trkpt>
      <trkpt lat="45.62213" lon="6.67895">
        <ele>1734</ele>
        <time>2019-08-16T14:17:55Z</time>
      </trkpt>
      <trkpt lat="45.62193" lon="6.67884">
        <ele>1730</ele>
        <time>2019-08-16T14:18:24Z</time>
      </trkpt>
      <trkpt lat="45.62153" lon="6.67882">
        <ele>1725</ele>
        <time>2019-08-16T14:19:17Z</time>
      </trkpt>
      <trkpt lat="45.62143" lon="6.67876">
        <ele>1722</ele>
        <time>2019-08-16T14:19:32Z</time>
      </trkpt>
      <trkpt lat="45.62134" lon="6.67869">
        <ele>1720</ele>
        <time>2019-08-16T14:19:45Z</time>
      </trkpt>
      <trkpt lat="45.62124" lon="6.67867">
        <ele>1718</ele>
        <time>2019-08-16T14:19:59Z</time>
      </trkpt>
      <trkpt lat="45.62112" lon="6.67871">
        <ele>1717</ele>
        <time>2019-08-16T14:20:15Z</time>
      </trkpt>
      <trkpt lat="45.62083" lon="6.67885">
        <ele>1714</ele>
        <time>2019-08-16T14:20:56Z</time>
      </trkpt>
      <trkpt lat="45.62075" lon="6.67879">
        <ele>1712</ele>
        <time>2019-08-16T14:21:08Z</time>
      </trkpt>
      <trkpt lat="45.62065" lon="6.67864">
        <ele>1709</ele>
        <time>2019-08-16T14:21:27Z</time>
      </trkpt>
      <trkpt lat="45.6205" lon="6.67848">
        <ele>1705</ele>
        <time>2019-08-16T14:21:52Z</time>
      </trkpt>
      <trkpt lat="45.62045" lon="6.6784">
        <ele>1703</ele>
        <time>2019-08-16T14:22:02Z</time>
      </trkpt>
      <trkpt lat="45.6204" lon="6.67837">
        <ele>1702</ele>
        <time>2019-08-16T14:22:10Z</time>
      </trkpt>
      <trkpt lat="45.62035" lon="6.67841">
        <ele>1701</ele>
        <time>2019-08-16T14:22:17Z</time>
      </trkpt>
      <trkpt lat="45.6203" lon="6.67854">
        <ele>1701</ele>
        <time>2019-08-16T14:22:31Z</time>
      </trkpt>
      <trkpt lat="45.6202" lon="6.67866">
        <ele>1701</ele>
        <time>2019-08-16T14:22:48Z</time>
      </trkpt>
      <trkpt lat="45.62007" lon="6.67876">
        <ele>1699</ele>
        <time>2019-08-16T14:23:08Z</time>
      </trkpt>
      <trkpt lat="45.6197" lon="6.67883">
        <ele>1697</ele>
        <time>2019-08-16T14:23:58Z</time>
      </trkpt>
      <trkpt lat="45.61962" lon="6.67885">
        <ele>1697</ele>
        <time>2019-08-16T14:24:09Z</time>
      </trkpt>
      <trkpt lat="45.61951" lon="6.67882">
        <ele>1696</ele>
        <time>2019-08-16T14:24:24Z</time>
      </trkpt>
      <trkpt lat="45.61936" lon="6.67874">
        <ele>1694</ele>
        <time>2019-08-16T14:24:45Z</time>
      </trkpt>
      <trkpt lat="45.61924" lon="6.67866">
        <ele>1692</ele>
        <time>2019-08-16T14:25:03Z</time>
      </trkpt>
      <trkpt lat="45.61903" lon="6.6786">
        <ele>1691</ele>
        <time>2019-08-16T14:25:31Z</time>
      </trkpt>
      <trkpt lat="45.61885" lon="6.67848">
        <ele>1688</ele>
        <time>2019-08-16T14:25:58Z</time>
      </trkpt>
      <trkpt lat="45.61867" lon="6.67844">
        <ele>1687</ele>
        <time>2019-08-16T14:26:22Z</time>
      </trkpt>
      <trkpt lat="45.61843" lon="6.6784">
        <ele>1685</ele>
        <time>2019-08-16T14:26:54Z</time>
      </trkpt>
      <trkpt lat="45.6183" lon="6.67837">
        <ele>1684</ele>
        <time>2019-08-16T14:27:12Z</time>
      </trkpt>
      <trkpt lat="45.61812" lon="6.6784">
        <ele>1682</ele>
        <time>2019-08-16T14:27:36Z</time>
      </trkpt>
      <trkpt lat="45.61787" lon="6.6784">
        <ele>1679</ele>
        <time>2019-08-16T14:28:10Z</time>
      </trkpt>
      <trkpt lat="45.61774" lon="6.67848">
        <ele>1679</ele>
        <time>2019-08-16T14:28:28Z</time>
      </trkpt>
      <trkpt lat="45.61759" lon="6.67846">
        <ele>1677</ele>
        <time>2019-08-16T14:28:49Z</time>
      </trkpt>
      <trkpt lat="45.61746" lon="6.67844">
        <ele>1675</ele>
        <time>2019-08-16T14:29:06Z</time>
      </trkpt>
      <trkpt lat="45.61732" lon="6.6785">
        <ele>1674</ele>
        <time>2019-08-16T14:29:26Z</time>
      </trkpt>
      <trkpt lat="45.61718" lon="6.67853">
        <ele>1672</ele>
        <time>2019-08-16T14:29:44Z</time>
      </trkpt>
      <trkpt lat="45.61705" lon="6.67858">
        <ele>1671</ele>
        <time>2019-08-16T14:30:02Z</time>
      </trkpt>
      <trkpt lat="45.61695" lon="6.67861">
        <ele>1670</ele>
        <time>2019-08-16T14:30:16Z</time>
      </trkpt>
      <trkpt lat="45.61686" lon="6.67858">
        <ele>1668</ele>
        <time>2019-08-16T14:30:28Z</time>
      </trkpt>
      <trkpt lat="45.61675" lon="6.67853">
        <ele>1666</ele>
        <time>2019-08-16T14:30:44Z</time>
      </trkpt>
      <trkpt lat="45.61658" lon="6.67854">
        <ele>1664</ele>
        <time>2019-08-16T14:31:06Z</time>
      </trkpt>
      <trkpt lat="45.6164" lon="6.67852">
        <ele>1661</ele>
        <time>2019-08-16T14:31:31Z</time>
      </trkpt>
      <trkpt lat="45.61628" lon="6.67853">
        <ele>1660</ele>
        <time>2019-08-16T14:31:47Z</time>
      </trkpt>
      <trkpt lat="45.61613" lon="6.67857">
        <ele>1658</ele>
        <time>2019-08-16T14:32:07Z</time>
      </trkpt>
      <trkpt lat="45.61598" lon="6.67868">
        <ele>1656</ele>
        <time>2019-08-16T14:32:29Z</time>
      </trkpt>
      <trkpt lat="45.61573" lon="6.67884">
        <ele>1654</ele>
        <time>2019-08-16T14:33:06Z</time>
      </trkpt>
      <trkpt lat="45.61552" lon="6.67896">
        <ele>1652</ele>
        <time>2019-08-16T14:33:36Z</time>
      </trkpt>
      <trkpt lat="45.61536" lon="6.67899">
        <ele>1651</ele>
        <time>2019-08-16T14:33:58Z</time>
      </trkpt>
      <trkpt lat="45.61519" lon="6.67898">
        <ele>1649</ele>
        <time>2019-08-16T14:34:20Z</time>
      </trkpt>
      <trkpt lat="45.61501" lon="6.679">
        <ele>1647</ele>
        <time>2019-08-16T14:34:44Z</time>
      </trkpt>
      <trkpt lat="45.61477" lon="6.67908">
        <ele>1646</ele>
        <time>2019-08-16T14:35:17Z</time>
      </trkpt>
      <trkpt lat="45.61461" lon="6.67913">
        <ele>1646</ele>
        <time>2019-08-16T14:35:39Z</time>
      </trkpt>
      <trkpt lat="45.61436" lon="6.67927">
        <ele>1646</ele>
        <time>2019-08-16T14:36:15Z</time>
      </trkpt>
      <trkpt lat="45.61424" lon="6.67933">
        <ele>1646</ele>
        <time>2019-08-16T14:36:32Z</time>
      </trkpt>
      <trkpt lat="45.61387" lon="6.67931">
        <ele>1643</ele>
        <time>2019-08-16T14:37:21Z</time>
      </trkpt>
      <trkpt lat="45.61347" lon="6.67922">
        <ele>1639</ele>
        <time>2019-08-16T14:38:15Z</time>
      </trkpt>
      <trkpt lat="45.61331" lon="6.67919">
        <ele>1637</ele>
        <time>2019-08-16T14:38:37Z</time>
      </trkpt>
      <trkpt lat="45.61311" lon="6.67925">
        <ele>1637</ele>
        <time>2019-08-16T14:39:04Z</time>
      </trkpt>
      <trkpt lat="45.61298" lon="6.67932">
        <ele>1637</ele>
        <time>2019-08-16T14:39:23Z</time>
      </trkpt>
      <trkpt lat="45.61281" lon="6.67934">
        <ele>1636</ele>
        <time>2019-08-16T14:39:46Z</time>
      </trkpt>
      <trkpt lat="45.61261" lon="6.67942">
        <ele>1635</ele>
        <time>2019-08-16T14:40:13Z</time>
      </trkpt>
      <trkpt lat="45.61246" lon="6.67949">
        <ele>1635</ele>
        <time>2019-08-16T14:40:34Z</time>
      </trkpt>
      <trkpt lat="45.61222" lon="6.67955">
        <ele>1634</ele>
        <time>2019-08-16T14:41:07Z</time>
      </trkpt>
      <trkpt lat="45.61202" lon="6.67958">
        <ele>1633</ele>
        <time>2019-08-16T14:41:34Z</time>
      </trkpt>
      <trkpt lat="45.61186" lon="6.67954">
        <ele>1631</ele>
        <time>2019-08-16T14:41:55Z</time>
      </trkpt>
      <trkpt lat="45.61151" lon="6.67936">
        <ele>1627</ele>
        <time>2019-08-16T14:42:45Z</time>
      </trkpt>
      <trkpt lat="45.61133" lon="6.67922">
        <ele>1625</ele>
        <time>2019-08-16T14:43:12Z</time>
      </trkpt>
      <trkpt lat="45.61119" lon="6.67906">
        <ele>1623</ele>
        <time>2019-08-16T14:43:36Z</time>
      </trkpt>
      <trkpt lat="45.61103" lon="6.67893">
        <ele>1622</ele>
        <time>2019-08-16T14:44:01Z</time>
      </trkpt>
      <trkpt lat="45.61058" lon="6.67877">
        <ele>1620</ele>
        <time>2019-08-16T14:45:03Z</time>
      </trkpt>
      <trkpt lat="45.61042" lon="6.67871">
        <ele>1619</ele>
        <time>2019-08-16T14:45:25Z</time>
      </trkpt>
      <trkpt lat="45.61023" lon="6.67867">
        <ele>1618</ele>
        <time>2019-08-16T14:45:50Z</time>
      </trkpt>
      <trkpt lat="45.61009" lon="6.67864">
        <ele>1618</ele>
        <time>2019-08-16T14:46:09Z</time>
      </trkpt>
      <trkpt lat="45.60995" lon="6.67853">
        <ele>1616</ele>
        <time>2019-08-16T14:46:31Z</time>
      </trkpt>
      <trkpt lat="45.60981" lon="6.67846">
        <ele>1617</ele>
        <time>2019-08-16T14:46:50Z</time>
      </trkpt>
      <trkpt lat="45.6097" lon="6.67833">
        <ele>1617</ele>
        <time>2019-08-16T14:47:09Z</time>
      </trkpt>
      <trkpt lat="45.60945" lon="6.67798">
        <ele>1617</ele>
        <time>2019-08-16T14:47:56Z</time>
      </trkpt>
      <trkpt lat="45.60932" lon="6.67775">
        <ele>1616</ele>
        <time>2019-08-16T14:48:24Z</time>
      </trkpt>
      <trkpt lat="45.60922" lon="6.67748">
        <ele>1614</ele>
        <time>2019-08-16T14:48:52Z</time>
      </trkpt>
      <trkpt lat="45.60908" lon="6.67715">
        <ele>1612</ele>
        <time>2019-08-16T14:49:28Z</time>
      </trkpt>
      <trkpt lat="45.60898" lon="6.67704">
        <ele>1612</ele>
        <time>2019-08-16T14:49:45Z</time>
      </trkpt>
      <trkpt lat="45.6088" lon="6.67694">
        <ele>1612</ele>
        <time>2019-08-16T14:50:11Z</time>
      </trkpt>
      <trkpt lat="45.60868" lon="6.67684">
        <ele>1612</ele>
        <time>2019-08-16T14:50:29Z</time>
      </trkpt>
      <trkpt lat="45.60852" lon="6.67671">
        <ele>1611</ele>
        <time>2019-08-16T14:50:54Z</time>
      </trkpt>
      <trkpt lat="45.60828" lon="6.67664">
        <ele>1611</ele>
        <time>2019-08-16T14:51:27Z</time>
      </trkpt>
      <trkpt lat="45.60817" lon="6.67655">
        <ele>1609</ele>
        <time>2019-08-16T14:51:44Z</time>
      </trkpt>
      <trkpt lat="45.60804" lon="6.67652">
        <ele>1609</ele>
        <time>2019-08-16T14:52:01Z</time>
      </trkpt>
      <trkpt lat="45.60781" lon="6.67654">
        <ele>1608</ele>
        <time>2019-08-16T14:52:32Z</time>
      </trkpt>
      <trkpt lat="45.60773" lon="6.67659">
        <ele>1609</ele>
        <time>2019-08-16T14:52:44Z</time>
      </trkpt>
      <trkpt lat="45.60765" lon="6.67661">
        <ele>1609</ele>
        <time>2019-08-16T14:52:54Z</time>
      </trkpt>
      <trkpt lat="45.60758" lon="6.6766">
        <ele>1608</ele>
        <time>2019-08-16T14:53:04Z</time>
      </trkpt>
      <trkpt lat="45.60733" lon="6.67646">
        <ele>1606</ele>
        <time>2019-08-16T14:53:40Z</time>
      </trkpt>
      <trkpt lat="45.60721" lon="6.67642">
        <ele>1606</ele>
        <time>2019-08-16T14:53:56Z</time>
      </trkpt>
      <trkpt lat="45.60686" lon="6.67632">
        <ele>1604</ele>
        <time>2019-08-16T14:54:44Z</time>
      </trkpt>
      <trkpt lat="45.6067" lon="6.67631">
        <ele>1603</ele>
        <time>2019-08-16T14:55:05Z</time>
      </trkpt>
      <trkpt lat="45.60643" lon="6.67629">
        <ele>1602</ele>
        <time>2019-08-16T14:55:41Z</time>
      </trkpt>
      <trkpt lat="45.60613" lon="6.67634">
        <ele>1601</ele>
        <time>2019-08-16T14:56:21Z</time>
      </trkpt>
      <trkpt lat="45.60585" lon="6.67646">
        <ele>1603</ele>
        <time>2019-08-16T14:57:00Z</time>
      </trkpt>
      <trkpt lat="45.60554" lon="6.67647">
        <ele>1604</ele>
        <time>2019-08-16T14:57:42Z</time>
      </trkpt>
      <trkpt lat="45.60523" lon="6.67648">
        <ele>1605</ele>
        <time>2019-08-16T14:58:23Z</time>
      </trkpt>
      <trkpt lat="45.60463" lon="6.6763">
        <ele>1601</ele>
        <time>2019-08-16T14:59:45Z</time>
      </trkpt>
      <trkpt lat="45.60433" lon="6.67621">
        <ele>1600</ele>
        <time>2019-08-16T15:00:26Z</time>
      </trkpt>
      <trkpt lat="45.60407" lon="6.67604">
        <ele>1596</ele>
        <time>2019-08-16T15:01:04Z</time>
      </trkpt>
      <trkpt lat="45.60382" lon="6.67587">
        <ele>1592</ele>
        <time>2019-08-16T15:01:41Z</time>
      </trkpt>
      <trkpt lat="45.60347" lon="6.6757">
        <ele>1589</ele>
        <time>2019-08-16T15:02:30Z</time>
      </trkpt>
      <trkpt lat="45.60322" lon="6.67566">
        <ele>1592</ele>
        <time>2019-08-16T15:03:04Z</time>
      </trkpt>
      <trkpt lat="45.60298" lon="6.67561">
        <ele>1595</ele>
        <time>2019-08-16T15:03:36Z</time>
      </trkpt>
      <trkpt lat="45.60274" lon="6.67547">
        <ele>1594</ele>
        <time>2019-08-16T15:04:11Z</time>
      </trkpt>
      <trkpt lat="45.60269" lon="6.67543">
        <ele>1593</ele>
        <time>2019-08-16T15:04:19Z</time>
      </trkpt>
      <trkpt lat="45.60244" lon="6.67518">
        <ele>1586</ele>
        <time>2019-08-16T15:04:59Z</time>
      </trkpt>
      <trkpt lat="45.60208" lon="6.67503">
        <ele>1585</ele>
        <time>2019-08-16T15:05:49Z</time>
      </trkpt>
      <trkpt lat="45.6017" lon="6.67496">
        <ele>1590</ele>
        <time>2019-08-16T15:06:40Z</time>
      </trkpt>
      <trkpt lat="45.60133" lon="6.67488">
        <ele>1593</ele>
        <time>2019-08-16T15:07:30Z</time>
      </trkpt>
      <trkpt lat="45.60108" lon="6.67484">
        <ele>1594</ele>
        <time>2019-08-16T15:08:04Z</time>
      </trkpt>
      <trkpt lat="45.60084" lon="6.6748">
        <ele>1596</ele>
        <time>2019-08-16T15:08:36Z</time>
      </trkpt>
      <trkpt lat="45.60074" lon="6.6748">
        <ele>1597</ele>
        <time>2019-08-16T15:08:50Z</time>
      </trkpt>
      <trkpt lat="45.6006" lon="6.67461">
        <ele>1590</ele>
        <time>2019-08-16T15:09:15Z</time>
      </trkpt>
      <trkpt lat="45.60044" lon="6.67468">
        <ele>1594</ele>
        <time>2019-08-16T15:09:38Z</time>
      </trkpt>
      <trkpt lat="45.60018" lon="6.67464">
        <ele>1594</ele>
        <time>2019-08-16T15:10:13Z</time>
      </trkpt>
      <trkpt lat="45.59992" lon="6.6746">
        <ele>1593</ele>
        <time>2019-08-16T15:10:47Z</time>
      </trkpt>
      <trkpt lat="45.59956" lon="6.67473">
        <ele>1597</ele>
        <time>2019-08-16T15:11:37Z</time>
      </trkpt>
      <trkpt lat="45.59926" lon="6.67503">
        <ele>1606</ele>
        <time>2019-08-16T15:12:26Z</time>
      </trkpt>
      <trkpt lat="45.59903" lon="6.6751">
        <ele>1607</ele>
        <time>2019-08-16T15:12:57Z</time>
      </trkpt>
      <trkpt lat="45.59872" lon="6.6751">
        <ele>1603</ele>
        <time>2019-08-16T15:13:39Z</time>
      </trkpt>
      <trkpt lat="45.59861" lon="6.67517">
        <ele>1604</ele>
        <time>2019-08-16T15:13:55Z</time>
      </trkpt>
      <trkpt lat="45.59859" lon="6.67534">
        <ele>1610</ele>
        <time>2019-08-16T15:14:11Z</time>
      </trkpt>
      <trkpt lat="45.59832" lon="6.67574">
        <ele>1620</ele>
        <time>2019-08-16T15:15:03Z</time>
      </trkpt>
      <trkpt lat="45.59828" lon="6.67594">
        <ele>1626</ele>
        <time>2019-08-16T15:15:22Z</time>
      </trkpt>
      <trkpt lat="45.59808" lon="6.67603">
        <ele>1625</ele>
        <time>2019-08-16T15:15:50Z</time>
      </trkpt>
      <trkpt lat="45.59798" lon="6.67612">
        <ele>1626</ele>
        <time>2019-08-16T15:16:06Z</time>
      </trkpt>
      <trkpt lat="45.59786" lon="6.67613">
        <ele>1624</ele>
        <time>2019-08-16T15:16:22Z</time>
      </trkpt>
      <trkpt lat="45.59768" lon="6.67588">
        <ele>1615</ele>
        <time>2019-08-16T15:16:55Z</time>
      </trkpt>
      <trkpt lat="45.59744" lon="6.6757">
        <ele>1607</ele>
        <time>2019-08-16T15:17:32Z</time>
      </trkpt>
      <trkpt lat="45.59716" lon="6.67572">
        <ele>1602</ele>
        <time>2019-08-16T15:18:09Z</time>
      </trkpt>
      <trkpt lat="45.59712" lon="6.67569">
        <ele>1601</ele>
        <time>2019-08-16T15:18:15Z</time>
      </trkpt>
      <trkpt lat="45.59694" lon="6.67596">
        <ele>1604</ele>
        <time>2019-08-16T15:18:50Z</time>
      </trkpt>
      <trkpt lat="45.59691" lon="6.67607">
        <ele>1607</ele>
        <time>2019-08-16T15:19:01Z</time>
      </trkpt>
      <trkpt lat="45.59686" lon="6.67608">
        <ele>1606</ele>
        <time>2019-08-16T15:19:08Z</time>
      </trkpt>
      <trkpt lat="45.59651" lon="6.67596">
        <ele>1595</ele>
        <time>2019-08-16T15:19:56Z</time>
      </trkpt>
      <trkpt lat="45.59639" lon="6.67605">
        <ele>1595</ele>
        <time>2019-08-16T15:20:14Z</time>
      </trkpt>
      <trkpt lat="45.59624" lon="6.67636">
        <ele>1601</ele>
        <time>2019-08-16T15:20:49Z</time>
      </trkpt>
      <trkpt lat="45.59607" lon="6.67656">
        <ele>1604</ele>
        <time>2019-08-16T15:21:18Z</time>
      </trkpt>
      <trkpt lat="45.59574" lon="6.67651">
        <ele>1596</ele>
        <time>2019-08-16T15:22:03Z</time>
      </trkpt>
      <trkpt lat="45.59533" lon="6.67674">
        <ele>1600</ele>
        <time>2019-08-16T15:23:01Z</time>
      </trkpt>
      <trkpt lat="45.59516" lon="6.67675">
        <ele>1599</ele>
        <time>2019-08-16T15:23:24Z</time>
      </trkpt>
      <trkpt lat="45.59507" lon="6.67682">
        <ele>1600</ele>
        <time>2019-08-16T15:23:38Z</time>
      </trkpt>
      <trkpt lat="45.59484" lon="6.67681">
        <ele>1598</ele>
        <time>2019-08-16T15:24:08Z</time>
      </trkpt>
      <trkpt lat="45.59469" lon="6.6769">
        <ele>1600</ele>
        <time>2019-08-16T15:24:30Z</time>
      </trkpt>
      <trkpt lat="45.5944" lon="6.67671">
        <ele>1593</ele>
        <time>2019-08-16T15:25:13Z</time>
      </trkpt>
      <trkpt lat="45.59408" lon="6.67682">
        <ele>1595</ele>
        <time>2019-08-16T15:25:57Z</time>
      </trkpt>
      <trkpt lat="45.59382" lon="6.6768">
        <ele>1593</ele>
        <time>2019-08-16T15:26:31Z</time>
      </trkpt>
      <trkpt lat="45.59355" lon="6.67678">
        <ele>1591</ele>
        <time>2019-08-16T15:27:07Z</time>
      </trkpt>
      <trkpt lat="45.5933" lon="6.67681">
        <ele>1591</ele>
        <time>2019-08-16T15:27:41Z</time>
      </trkpt>
      <trkpt lat="45.59306" lon="6.67683">
        <ele>1589</ele>
        <time>2019-08-16T15:28:13Z</time>
      </trkpt>
      <trkpt lat="45.59283" lon="6.67698">
        <ele>1589</ele>
        <time>2019-08-16T15:28:47Z</time>
      </trkpt>
      <trkpt lat="45.5926" lon="6.67713">
        <ele>1589</ele>
        <time>2019-08-16T15:29:20Z</time>
      </trkpt>
      <trkpt lat="45.59198" lon="6.67706">
        <ele>1581</ele>
        <time>2019-08-16T15:30:43Z</time>
      </trkpt>
      <trkpt lat="45.59165" lon="6.67709">
        <ele>1578</ele>
        <time>2019-08-16T15:31:28Z</time>
      </trkpt>
      <trkpt lat="45.5915" lon="6.67803">
        <ele>1573</ele>
        <time>2019-08-16T15:32:58Z</time>
      </trkpt>
      <trkpt lat="45.59144" lon="6.67833">
        <ele>1571</ele>
        <time>2019-08-16T15:33:27Z</time>
      </trkpt>
      <trkpt lat="45.59099" lon="6.67894">
        <ele>1556</ele>
        <time>2019-08-16T15:34:50Z</time>
      </trkpt>
      <trkpt lat="45.59077" lon="6.67924">
        <ele>1550</ele>
        <time>2019-08-16T15:35:30Z</time>
      </trkpt>
      <trkpt lat="45.59063" lon="6.67936">
        <ele>1547</ele>
        <time>2019-08-16T15:35:52Z</time>
      </trkpt>
      <trkpt lat="45.59063" lon="6.67936">
        <ele>1547</ele>
        <time>2019-08-16T15:35:52Z</time>
      </trkpt>
      <trkpt lat="45.59057" lon="6.67939">
        <ele>1545</ele>
        <time>2019-08-16T15:36:00Z</time>
      </trkpt>
      <trkpt lat="45.59042" lon="6.67944">
        <ele>1541</ele>
        <time>2019-08-16T15:36:21Z</time>
      </trkpt>
      <trkpt lat="45.59028" lon="6.67951">
        <ele>1537</ele>
        <time>2019-08-16T15:36:41Z</time>
      </trkpt>
      <trkpt lat="45.59013" lon="6.67965">
        <ele>1535</ele>
        <time>2019-08-16T15:37:05Z</time>
      </trkpt>
      <trkpt lat="45.59002" lon="6.67974">
        <ele>1532</ele>
        <time>2019-08-16T15:37:22Z</time>
      </trkpt>
      <trkpt lat="45.58993" lon="6.6799">
        <ele>1532</ele>
        <time>2019-08-16T15:37:41Z</time>
      </trkpt>
      <trkpt lat="45.58984" lon="6.6801">
        <ele>1531</ele>
        <time>2019-08-16T15:38:03Z</time>
      </trkpt>
      <trkpt lat="45.58977" lon="6.68035">
        <ele>1530</ele>
        <time>2019-08-16T15:38:28Z</time>
      </trkpt>
      <trkpt lat="45.58965" lon="6.68065">
        <ele>1527</ele>
        <time>2019-08-16T15:39:00Z</time>
      </trkpt>
      <trkpt lat="45.58952" lon="6.68095">
        <ele>1526</ele>
        <time>2019-08-16T15:39:33Z</time>
      </trkpt>
      <trkpt lat="45.58945" lon="6.68116">
        <ele>1525</ele>
        <time>2019-08-16T15:39:55Z</time>
      </trkpt>
      <trkpt lat="45.58939" lon="6.68141">
        <ele>1525</ele>
        <time>2019-08-16T15:40:20Z</time>
      </trkpt>
      <trkpt lat="45.58934" lon="6.68154">
        <ele>1524</ele>
        <time>2019-08-16T15:40:34Z</time>
      </trkpt>
      <trkpt lat="45.58921" lon="6.68168">
        <ele>1522</ele>
        <time>2019-08-16T15:40:55Z</time>
      </trkpt>
      <trkpt lat="45.58902" lon="6.68195">
        <ele>1518</ele>
        <time>2019-08-16T15:41:31Z</time>
      </trkpt>
      <trkpt lat="45.58891" lon="6.68212">
        <ele>1516</ele>
        <time>2019-08-16T15:41:53Z</time>
      </trkpt>
      <trkpt lat="45.58883" lon="6.68231">
        <ele>1514</ele>
        <time>2019-08-16T15:42:13Z</time>
      </trkpt>
      <trkpt lat="45.58881" lon="6.68234">
        <ele>1514</ele>
        <time>2019-08-16T15:42:17Z</time>
      </trkpt>
      <trkpt lat="45.58859" lon="6.68253">
        <ele>1510</ele>
        <time>2019-08-16T15:42:52Z</time>
      </trkpt>
      <trkpt lat="45.58833" lon="6.68267">
        <ele>1506</ele>
        <time>2019-08-16T15:43:29Z</time>
      </trkpt>
      <trkpt lat="45.58813" lon="6.68276">
        <ele>1504</ele>
        <time>2019-08-16T15:43:57Z</time>
      </trkpt>
      <trkpt lat="45.58791" lon="6.68281">
        <ele>1501</ele>
        <time>2019-08-16T15:44:26Z</time>
      </trkpt>
      <trkpt lat="45.5878" lon="6.68288">
        <ele>1499</ele>
        <time>2019-08-16T15:44:42Z</time>
      </trkpt>
      <trkpt lat="45.58768" lon="6.683">
        <ele>1497</ele>
        <time>2019-08-16T15:45:02Z</time>
      </trkpt>
      <trkpt lat="45.58758" lon="6.68309">
        <ele>1496</ele>
        <time>2019-08-16T15:45:18Z</time>
      </trkpt>
      <trkpt lat="45.58717" lon="6.68324">
        <ele>1487</ele>
        <time>2019-08-16T15:46:14Z</time>
      </trkpt>
      <trkpt lat="45.58697" lon="6.68323">
        <ele>1483</ele>
        <time>2019-08-16T15:46:41Z</time>
      </trkpt>
      <trkpt lat="45.58665" lon="6.68332">
        <ele>1476</ele>
        <time>2019-08-16T15:47:24Z</time>
      </trkpt>
      <trkpt lat="45.58632" lon="6.68341">
        <ele>1468</ele>
        <time>2019-08-16T15:48:09Z</time>
      </trkpt>
      <trkpt lat="45.58532" lon="6.6847">
        <ele>1453</ele>
        <time>2019-08-16T15:51:09Z</time>
      </trkpt>
      <trkpt lat="45.58489" lon="6.68482">
        <ele>1440</ele>
        <time>2019-08-16T15:52:07Z</time>
      </trkpt>
      <trkpt lat="45.58469" lon="6.68519">
        <ele>1437</ele>
        <time>2019-08-16T15:52:51Z</time>
      </trkpt>
      <trkpt lat="45.5845" lon="6.68555">
        <ele>1434</ele>
        <time>2019-08-16T15:53:33Z</time>
      </trkpt>
      <trkpt lat="45.58392" lon="6.68618">
        <ele>1417</ele>
        <time>2019-08-16T15:55:10Z</time>
      </trkpt>
      <trkpt lat="45.58392" lon="6.68638">
        <ele>1418</ele>
        <time>2019-08-16T15:55:29Z</time>
      </trkpt>
      <trkpt lat="45.58383" lon="6.68635">
        <ele>1415</ele>
        <time>2019-08-16T15:55:41Z</time>
      </trkpt>
      <trkpt lat="45.58325" lon="6.68577">
        <ele>1390</ele>
        <time>2019-08-16T15:57:16Z</time>
      </trkpt>
      <trkpt lat="45.5832" lon="6.68532">
        <ele>1388</ele>
        <time>2019-08-16T15:57:59Z</time>
      </trkpt>
      <trkpt lat="45.58308" lon="6.68581">
        <ele>1385</ele>
        <time>2019-08-16T15:58:47Z</time>
      </trkpt>
      <trkpt lat="45.58296" lon="6.68631">
        <ele>1383</ele>
        <time>2019-08-16T15:59:36Z</time>
      </trkpt>
      <trkpt lat="45.5824" lon="6.6867">
        <ele>1361</ele>
        <time>2019-08-16T16:00:59Z</time>
      </trkpt>
      <trkpt lat="45.5821" lon="6.68718">
        <ele>1346</ele>
        <time>2019-08-16T16:02:00Z</time>
      </trkpt>
      <trkpt lat="45.58213" lon="6.68729">
        <ele>1347</ele>
        <time>2019-08-16T16:02:11Z</time>
      </trkpt>
      <trkpt lat="45.58224" lon="6.68757">
        <ele>1353</ele>
        <time>2019-08-16T16:02:41Z</time>
      </trkpt>
      <trkpt lat="45.58228" lon="6.68777">
        <ele>1356</ele>
        <time>2019-08-16T16:03:00Z</time>
      </trkpt>
      <trkpt lat="45.58234" lon="6.68804">
        <ele>1359</ele>
        <time>2019-08-16T16:03:26Z</time>
      </trkpt>
      <trkpt lat="45.58232" lon="6.68815">
        <ele>1358</ele>
        <time>2019-08-16T16:03:37Z</time>
      </trkpt>
      <trkpt lat="45.58228" lon="6.68823">
        <ele>1357</ele>
        <time>2019-08-16T16:03:46Z</time>
      </trkpt>
      <trkpt lat="45.58223" lon="6.68827">
        <ele>1354</ele>
        <time>2019-08-16T16:03:54Z</time>
      </trkpt>
      <trkpt lat="45.5821" lon="6.68827">
        <ele>1348</ele>
        <time>2019-08-16T16:04:11Z</time>
      </trkpt>
      <trkpt lat="45.58189" lon="6.68834">
        <ele>1339</ele>
        <time>2019-08-16T16:04:40Z</time>
      </trkpt>
      <trkpt lat="45.58159" lon="6.68846">
        <ele>1329</ele>
        <time>2019-08-16T16:05:22Z</time>
      </trkpt>
      <trkpt lat="45.5814" lon="6.68864">
        <ele>1328</ele>
        <time>2019-08-16T16:05:52Z</time>
      </trkpt>
      <trkpt lat="45.58119" lon="6.68879">
        <ele>1325</ele>
        <time>2019-08-16T16:06:23Z</time>
      </trkpt>
      <trkpt lat="45.58082" lon="6.68914">
        <ele>1323</ele>
        <time>2019-08-16T16:07:23Z</time>
      </trkpt>
      <trkpt lat="45.5808" lon="6.6891">
        <ele>1321</ele>
        <time>2019-08-16T16:07:27Z</time>
      </trkpt>
      <trkpt lat="45.58075" lon="6.68908">
        <ele>1319</ele>
        <time>2019-08-16T16:07:34Z</time>
      </trkpt>
      <trkpt lat="45.5807" lon="6.68911">
        <ele>1318</ele>
        <time>2019-08-16T16:07:41Z</time>
      </trkpt>
      <trkpt lat="45.58062" lon="6.68919">
        <ele>1317</ele>
        <time>2019-08-16T16:07:54Z</time>
      </trkpt>
      <trkpt lat="45.58052" lon="6.68931">
        <ele>1317</ele>
        <time>2019-08-16T16:08:12Z</time>
      </trkpt>
      <trkpt lat="45.58031" lon="6.68946">
        <ele>1312</ele>
        <time>2019-08-16T16:08:43Z</time>
      </trkpt>
      <trkpt lat="45.58003" lon="6.68964">
        <ele>1305</ele>
        <time>2019-08-16T16:09:24Z</time>
      </trkpt>
      <trkpt lat="45.57982" lon="6.68982">
        <ele>1300</ele>
        <time>2019-08-16T16:09:57Z</time>
      </trkpt>
      <trkpt lat="45.57975" lon="6.68992">
        <ele>1299</ele>
        <time>2019-08-16T16:10:10Z</time>
      </trkpt>
      <trkpt lat="45.5796" lon="6.69023">
        <ele>1295</ele>
        <time>2019-08-16T16:10:45Z</time>
      </trkpt>
      <trkpt lat="45.57946" lon="6.69055">
        <ele>1290</ele>
        <time>2019-08-16T16:11:20Z</time>
      </trkpt>
      <trkpt lat="45.57926" lon="6.69073">
        <ele>1281</ele>
        <time>2019-08-16T16:11:52Z</time>
      </trkpt>
      <trkpt lat="45.57905" lon="6.69092">
        <ele>1273</ele>
        <time>2019-08-16T16:12:25Z</time>
      </trkpt>
      <trkpt lat="45.57899" lon="6.69121">
        <ele>1271</ele>
        <time>2019-08-16T16:12:53Z</time>
      </trkpt>
      <trkpt lat="45.57896" lon="6.69151">
        <ele>1270</ele>
        <time>2019-08-16T16:13:22Z</time>
      </trkpt>
      <trkpt lat="45.57875" lon="6.6918">
        <ele>1263</ele>
        <time>2019-08-16T16:14:01Z</time>
      </trkpt>
      <trkpt lat="45.57864" lon="6.69213">
        <ele>1261</ele>
        <time>2019-08-16T16:14:35Z</time>
      </trkpt>
      <trkpt lat="45.57831" lon="6.69279">
        <ele>1255</ele>
        <time>2019-08-16T16:15:51Z</time>
      </trkpt>
      <trkpt lat="45.57822" lon="6.69288">
        <ele>1253</ele>
        <time>2019-08-16T16:16:05Z</time>
      </trkpt>
      <trkpt lat="45.57794" lon="6.69288">
        <ele>1247</ele>
        <time>2019-08-16T16:16:43Z</time>
      </trkpt>
      <trkpt lat="45.57766" lon="6.69275">
        <ele>1240</ele>
        <time>2019-08-16T16:17:22Z</time>
      </trkpt>
      <trkpt lat="45.57753" lon="6.69272">
        <ele>1237</ele>
        <time>2019-08-16T16:17:39Z</time>
      </trkpt>
      <trkpt lat="45.5773" lon="6.69263">
        <ele>1231</ele>
        <time>2019-08-16T16:18:11Z</time>
      </trkpt>
      <trkpt lat="45.57699" lon="6.69264">
        <ele>1224</ele>
        <time>2019-08-16T16:18:53Z</time>
      </trkpt>
      <trkpt lat="45.57686" lon="6.69255">
        <ele>1221</ele>
        <time>2019-08-16T16:19:12Z</time>
      </trkpt>
      <trkpt lat="45.57669" lon="6.69281">
        <ele>1219</ele>
        <time>2019-08-16T16:19:45Z</time>
      </trkpt>
      <trkpt lat="45.57661" lon="6.69291">
        <ele>1218</ele>
        <time>2019-08-16T16:19:59Z</time>
      </trkpt>
      <trkpt lat="45.57652" lon="6.69295">
        <ele>1216</ele>
        <time>2019-08-16T16:20:12Z</time>
      </trkpt>
      <trkpt lat="45.57639" lon="6.69329">
        <ele>1214</ele>
        <time>2019-08-16T16:20:48Z</time>
      </trkpt>
      <trkpt lat="45.57619" lon="6.69341">
        <ele>1210</ele>
        <time>2019-08-16T16:21:17Z</time>
      </trkpt>
      <trkpt lat="45.57614" lon="6.69344">
        <ele>1209</ele>
        <time>2019-08-16T16:21:24Z</time>
      </trkpt>
      <trkpt lat="45.57608" lon="6.69324">
        <ele>1207</ele>
        <time>2019-08-16T16:21:45Z</time>
      </trkpt>
      <trkpt lat="45.57599" lon="6.69305">
        <ele>1204</ele>
        <time>2019-08-16T16:22:06Z</time>
      </trkpt>
      <trkpt lat="45.57595" lon="6.69298">
        <ele>1203</ele>
        <time>2019-08-16T16:22:15Z</time>
      </trkpt>
      <trkpt lat="45.57594" lon="6.69289">
        <ele>1202</ele>
        <time>2019-08-16T16:22:23Z</time>
      </trkpt>
      <trkpt lat="45.57592" lon="6.69266">
        <ele>1200</ele>
        <time>2019-08-16T16:22:45Z</time>
      </trkpt>
      <trkpt lat="45.57588" lon="6.69263">
        <ele>1199</ele>
        <time>2019-08-16T16:22:51Z</time>
      </trkpt>
      <trkpt lat="45.57584" lon="6.69265">
        <ele>1198</ele>
        <time>2019-08-16T16:22:56Z</time>
      </trkpt>
      <trkpt lat="45.57575" lon="6.69273">
        <ele>1197</ele>
        <time>2019-08-16T16:23:11Z</time>
      </trkpt>
      <trkpt lat="45.57571" lon="6.69279">
        <ele>1196</ele>
        <time>2019-08-16T16:23:18Z</time>
      </trkpt>
      <trkpt lat="45.57565" lon="6.69283">
        <ele>1196</ele>
        <time>2019-08-16T16:23:27Z</time>
      </trkpt>
      <trkpt lat="45.57571" lon="6.69244">
        <ele>1194</ele>
        <time>2019-08-16T16:24:04Z</time>
      </trkpt>
      <trkpt lat="45.57554" lon="6.69228">
        <ele>1189</ele>
        <time>2019-08-16T16:24:32Z</time>
      </trkpt>
      <trkpt lat="45.57536" lon="6.69239">
        <ele>1187</ele>
        <time>2019-08-16T16:24:58Z</time>
      </trkpt>
      <trkpt lat="45.57532" lon="6.69231">
        <ele>1185</ele>
        <time>2019-08-16T16:25:07Z</time>
      </trkpt>
      <trkpt lat="45.57523" lon="6.69264">
        <ele>1187</ele>
        <time>2019-08-16T16:25:40Z</time>
      </trkpt>
      <trkpt lat="45.57522" lon="6.69292">
        <ele>1188</ele>
        <time>2019-08-16T16:26:06Z</time>
      </trkpt>
      <trkpt lat="45.57525" lon="6.69309">
        <ele>1190</ele>
        <time>2019-08-16T16:26:23Z</time>
      </trkpt>
      <trkpt lat="45.57532" lon="6.69328">
        <ele>1192</ele>
        <time>2019-08-16T16:26:43Z</time>
      </trkpt>
      <trkpt lat="45.57547" lon="6.69356">
        <ele>1194</ele>
        <time>2019-08-16T16:27:16Z</time>
      </trkpt>
      <trkpt lat="45.57553" lon="6.69367">
        <ele>1195</ele>
        <time>2019-08-16T16:27:29Z</time>
      </trkpt>
      <trkpt lat="45.57488" lon="6.69367">
        <ele>1181</ele>
        <time>2019-08-16T16:28:55Z</time>
      </trkpt>
      <trkpt lat="45.57448" lon="6.69363">
        <ele>1170</ele>
        <time>2019-08-16T16:29:49Z</time>
      </trkpt>
      <trkpt lat="45.57423" lon="6.69308">
        <ele>1163</ele>
        <time>2019-08-16T16:30:50Z</time>
      </trkpt>
      <trkpt lat="45.57408" lon="6.69304">
        <ele>1159</ele>
        <time>2019-08-16T16:31:10Z</time>
      </trkpt>
      <trkpt lat="45.57404" lon="6.69312">
        <ele>1158</ele>
        <time>2019-08-16T16:31:20Z</time>
      </trkpt>
      <trkpt lat="45.57395" lon="6.69363">
        <ele>1154</ele>
        <time>2019-08-16T16:32:09Z</time>
      </trkpt>
      <trkpt lat="45.57389" lon="6.69368">
        <ele>1152</ele>
        <time>2019-08-16T16:32:18Z</time>
      </trkpt>
      <trkpt lat="45.57359" lon="6.69348">
        <ele>1143</ele>
        <time>2019-08-16T16:33:02Z</time>
      </trkpt>
      <trkpt lat="45.57346" lon="6.69324">
        <ele>1141</ele>
        <time>2019-08-16T16:33:31Z</time>
      </trkpt>
      <trkpt lat="45.57331" lon="6.69322">
        <ele>1136</ele>
        <time>2019-08-16T16:33:51Z</time>
      </trkpt>
      <trkpt lat="45.57308" lon="6.6932">
        <ele>1129</ele>
        <time>2019-08-16T16:34:21Z</time>
      </trkpt>
      <trkpt lat="45.57288" lon="6.69287">
        <ele>1125</ele>
        <time>2019-08-16T16:35:02Z</time>
      </trkpt>
      <trkpt lat="45.57267" lon="6.69277">
        <ele>1119</ele>
        <time>2019-08-16T16:35:32Z</time>
      </trkpt>
      <trkpt lat="45.5725" lon="6.69293">
        <ele>1112</ele>
        <time>2019-08-16T16:35:59Z</time>
      </trkpt>
      <trkpt lat="45.57231" lon="6.69345">
        <ele>1100</ele>
        <time>2019-08-16T16:36:54Z</time>
      </trkpt>
      <trkpt lat="45.57228" lon="6.6938">
        <ele>1094</ele>
        <time>2019-08-16T16:37:27Z</time>
      </trkpt>
      <trkpt lat="45.57224" lon="6.69415">
        <ele>1088</ele>
        <time>2019-08-16T16:38:00Z</time>
      </trkpt>
      <trkpt lat="45.57229" lon="6.69465">
        <ele>1082</ele>
        <time>2019-08-16T16:38:47Z</time>
      </trkpt>
      <trkpt lat="45.57234" lon="6.69516">
        <ele>1075</ele>
        <time>2019-08-16T16:39:35Z</time>
      </trkpt>
      <trkpt lat="45.57252" lon="6.6957">
        <ele>1070</ele>
        <time>2019-08-16T16:40:31Z</time>
      </trkpt>
      <trkpt lat="45.57256" lon="6.69584">
        <ele>1068</ele>
        <time>2019-08-16T16:40:45Z</time>
      </trkpt>
      <trkpt lat="45.5728" lon="6.69617">
        <ele>1068</ele>
        <time>2019-08-16T16:41:29Z</time>
      </trkpt>
      <trkpt lat="45.57289" lon="6.69629">
        <ele>1068</ele>
        <time>2019-08-16T16:41:46Z</time>
      </trkpt>
      <trkpt lat="45.57302" lon="6.69638">
        <ele>1071</ele>
        <time>2019-08-16T16:42:05Z</time>
      </trkpt>
      <trkpt lat="45.57309" lon="6.6965">
        <ele>1070</ele>
        <time>2019-08-16T16:42:20Z</time>
      </trkpt>
      <trkpt lat="45.5731" lon="6.69671">
        <ele>1066</ele>
        <time>2019-08-16T16:42:39Z</time>
      </trkpt>
      <trkpt lat="45.573" lon="6.69646">
        <ele>1068</ele>
        <time>2019-08-16T16:43:06Z</time>
      </trkpt>
      <trkpt lat="45.57285" lon="6.69669">
        <ele>1057</ele>
        <time>2019-08-16T16:43:36Z</time>
      </trkpt>
      <trkpt lat="45.57296" lon="6.69733">
        <ele>1050</ele>
        <time>2019-08-16T16:44:37Z</time>
      </trkpt>
      <trkpt lat="45.57314" lon="6.6976">
        <ele>1053</ele>
        <time>2019-08-16T16:45:12Z</time>
      </trkpt>
      <trkpt lat="45.57313" lon="6.69783">
        <ele>1050</ele>
        <time>2019-08-16T16:45:34Z</time>
      </trkpt>
      <trkpt lat="45.57301" lon="6.69803">
        <ele>1044</ele>
        <time>2019-08-16T16:45:58Z</time>
      </trkpt>
      <trkpt lat="45.57294" lon="6.69828">
        <ele>1039</ele>
        <time>2019-08-16T16:46:23Z</time>
      </trkpt>
      <trkpt lat="45.5731" lon="6.69858">
        <ele>1042</ele>
        <time>2019-08-16T16:46:59Z</time>
      </trkpt>
      <trkpt lat="45.5728" lon="6.69842">
        <ele>1033</ele>
        <time>2019-08-16T16:47:41Z</time>
      </trkpt>
      <trkpt lat="45.5727" lon="6.69828">
        <ele>1030</ele>
        <time>2019-08-16T16:48:00Z</time>
      </trkpt>
      <trkpt lat="45.57253" lon="6.69844">
        <ele>1023</ele>
        <time>2019-08-16T16:48:27Z</time>
      </trkpt>
      <trkpt lat="45.5724" lon="6.69873">
        <ele>1017</ele>
        <time>2019-08-16T16:48:59Z</time>
      </trkpt>
      <trkpt lat="45.57266" lon="6.6992">
        <ele>1022</ele>
        <time>2019-08-16T16:49:55Z</time>
      </trkpt>
      <trkpt lat="45.5726" lon="6.69931">
        <ele>1019</ele>
        <time>2019-08-16T16:50:08Z</time>
      </trkpt>
      <trkpt lat="45.5725" lon="6.69929">
        <ele>1016</ele>
        <time>2019-08-16T16:50:22Z</time>
      </trkpt>
      <trkpt lat="45.5724" lon="6.69944">
        <ele>1011</ele>
        <time>2019-08-16T16:50:41Z</time>
      </trkpt>
      <trkpt lat="45.57212" lon="6.69984">
        <ele>996</ele>
        <time>2019-08-16T16:51:34Z</time>
      </trkpt>
      <trkpt lat="45.57206" lon="6.70034">
        <ele>990</ele>
        <time>2019-08-16T16:52:21Z</time>
      </trkpt>
      <trkpt lat="45.572" lon="6.70084">
        <ele>983</ele>
        <time>2019-08-16T16:53:09Z</time>
      </trkpt>
      <trkpt lat="45.57202" lon="6.70116">
        <ele>981</ele>
        <time>2019-08-16T16:53:39Z</time>
      </trkpt>
      <trkpt lat="45.57203" lon="6.70149">
        <ele>978</ele>
        <time>2019-08-16T16:54:10Z</time>
      </trkpt>
      <trkpt lat="45.57216" lon="6.70204">
        <ele>979</ele>
        <time>2019-08-16T16:55:04Z</time>
      </trkpt>
      <trkpt lat="45.5723" lon="6.70258">
        <ele>981</ele>
        <time>2019-08-16T16:55:58Z</time>
      </trkpt>
      <trkpt lat="45.57226" lon="6.70301">
        <ele>973</ele>
        <time>2019-08-16T16:56:38Z</time>
      </trkpt>
      <trkpt lat="45.57223" lon="6.70344">
        <ele>964</ele>
        <time>2019-08-16T16:57:19Z</time>
      </trkpt>
      <trkpt lat="45.57243" lon="6.70394">
        <ele>962</ele>
        <time>2019-08-16T16:58:12Z</time>
      </trkpt>
      <trkpt lat="45.57262" lon="6.70444">
        <ele>957</ele>
        <time>2019-08-16T16:59:05Z</time>
      </trkpt>
      <trkpt lat="45.5728" lon="6.70476">
        <ele>956</ele>
        <time>2019-08-16T16:59:44Z</time>
      </trkpt>
      <trkpt lat="45.57298" lon="6.70508">
        <ele>957</ele>
        <time>2019-08-16T17:00:22Z</time>
      </trkpt>
      <trkpt lat="45.57285" lon="6.70541">
        <ele>944</ele>
        <time>2019-08-16T17:00:58Z</time>
      </trkpt>
      <trkpt lat="45.57273" lon="6.70575">
        <ele>932</ele>
        <time>2019-08-16T17:01:33Z</time>
      </trkpt>
      <trkpt lat="45.57264" lon="6.70601">
        <ele>925</ele>
        <time>2019-08-16T17:02:00Z</time>
      </trkpt>
      <trkpt lat="45.57277" lon="6.70635">
        <ele>928</ele>
        <time>2019-08-16T17:02:36Z</time>
      </trkpt>
      <trkpt lat="45.57271" lon="6.70663">
        <ele>923</ele>
        <time>2019-08-16T17:03:04Z</time>
      </trkpt>
      <trkpt lat="45.57274" lon="6.70679">
        <ele>923</ele>
        <time>2019-08-16T17:03:19Z</time>
      </trkpt>
      <trkpt lat="45.57267" lon="6.70694">
        <ele>918</ele>
        <time>2019-08-16T17:03:36Z</time>
      </trkpt>
      <trkpt lat="45.57255" lon="6.70657">
        <ele>917</ele>
        <time>2019-08-16T17:04:14Z</time>
      </trkpt>
      <trkpt lat="45.57242" lon="6.70635">
        <ele>912</ele>
        <time>2019-08-16T17:04:41Z</time>
      </trkpt>
      <trkpt lat="45.57215" lon="6.7063">
        <ele>900</ele>
        <time>2019-08-16T17:05:17Z</time>
      </trkpt>
      <trkpt lat="45.57207" lon="6.70621">
        <ele>897</ele>
        <time>2019-08-16T17:05:31Z</time>
      </trkpt>
      <trkpt lat="45.57205" lon="6.70655">
        <ele>895</ele>
        <time>2019-08-16T17:06:03Z</time>
      </trkpt>
      <trkpt lat="45.57202" lon="6.70688">
        <ele>891</ele>
        <time>2019-08-16T17:06:34Z</time>
      </trkpt>
      <trkpt lat="45.57203" lon="6.70735">
        <ele>889</ele>
        <time>2019-08-16T17:07:18Z</time>
      </trkpt>
      <trkpt lat="45.57204" lon="6.70781">
        <ele>885</ele>
        <time>2019-08-16T17:08:01Z</time>
      </trkpt>
      <trkpt lat="45.57169" lon="6.70775">
        <ele>874</ele>
        <time>2019-08-16T17:08:48Z</time>
      </trkpt>
      <trkpt lat="45.57134" lon="6.70768">
        <ele>860</ele>
        <time>2019-08-16T17:09:35Z</time>
      </trkpt>
      <trkpt lat="45.57106" lon="6.70788">
        <ele>848</ele>
        <time>2019-08-16T17:10:17Z</time>
      </trkpt>
      <trkpt lat="45.57091" lon="6.70818">
        <ele>841</ele>
        <time>2019-08-16T17:10:51Z</time>
      </trkpt>
      <trkpt lat="45.57093" lon="6.70851">
        <ele>840</ele>
        <time>2019-08-16T17:11:22Z</time>
      </trkpt>
      <trkpt lat="45.57094" lon="6.70884">
        <ele>836</ele>
        <time>2019-08-16T17:11:53Z</time>
      </trkpt>
      <trkpt lat="45.57103" lon="6.70916">
        <ele>835</ele>
        <time>2019-08-16T17:12:25Z</time>
      </trkpt>
      <trkpt lat="45.57105" lon="6.70936">
        <ele>834</ele>
        <time>2019-08-16T17:12:44Z</time>
      </trkpt>
      <trkpt lat="45.57106" lon="6.70995">
        <ele>830</ele>
        <time>2019-08-16T17:13:39Z</time>
      </trkpt>
      <trkpt lat="45.57103" lon="6.71011">
        <ele>828</ele>
        <time>2019-08-16T17:13:55Z</time>
      </trkpt>
      <trkpt lat="45.57097" lon="6.71017">
        <ele>826</ele>
        <time>2019-08-16T17:14:05Z</time>
      </trkpt>
      <trkpt lat="45.57091" lon="6.71027">
        <ele>824</ele>
        <time>2019-08-16T17:14:17Z</time>
      </trkpt>
      <trkpt lat="45.57049" lon="6.71072">
        <ele>814</ele>
        <time>2019-08-16T17:15:27Z</time>
      </trkpt>
      <trkpt lat="45.5709" lon="6.71078">
        <ele>820</ele>
        <time>2019-08-16T17:16:22Z</time>
      </trkpt>
      <trkpt lat="45.57071" lon="6.71111">
        <ele>814</ele>
        <time>2019-08-16T17:17:02Z</time>
      </trkpt>
      <trkpt lat="45.57052" lon="6.71144">
        <ele>808</ele>
        <time>2019-08-16T17:17:42Z</time>
      </trkpt>
      <trkpt lat="45.57009" lon="6.71204">
        <ele>796</ele>
        <time>2019-08-16T17:19:02Z</time>
      </trkpt>
      <trkpt lat="45.56989" lon="6.71224">
        <ele>791</ele>
        <time>2019-08-16T17:19:35Z</time>
      </trkpt>
      <trkpt lat="45.56942" lon="6.71248">
        <ele>782</ele>
        <time>2019-08-16T17:20:41Z</time>
      </trkpt>
      <trkpt lat="45.5692" lon="6.71253">
        <ele>778</ele>
        <time>2019-08-16T17:21:11Z</time>
      </trkpt>
      <trkpt lat="45.56915" lon="6.71247">
        <ele>777</ele>
        <time>2019-08-16T17:21:20Z</time>
      </trkpt>
      <trkpt lat="45.56915" lon="6.71239">
        <ele>777</ele>
        <time>2019-08-16T17:21:27Z</time>
      </trkpt>
      <trkpt lat="45.56917" lon="6.71233">
        <ele>778</ele>
        <time>2019-08-16T17:21:33Z</time>
      </trkpt>
      <trkpt lat="45.56913" lon="6.71205">
        <ele>779</ele>
        <time>2019-08-16T17:22:00Z</time>
      </trkpt>
      <trkpt lat="45.56901" lon="6.7121">
        <ele>777</ele>
        <time>2019-08-16T17:22:17Z</time>
      </trkpt>
      <trkpt lat="45.56902" lon="6.7122">
        <ele>777</ele>
        <time>2019-08-16T17:22:26Z</time>
      </trkpt>
      <trkpt lat="45.56901" lon="6.71247">
        <ele>775</ele>
        <time>2019-08-16T17:22:51Z</time>
      </trkpt>
      <trkpt lat="45.56894" lon="6.71274">
        <ele>774</ele>
        <time>2019-08-16T17:23:18Z</time>
      </trkpt>
      <trkpt lat="45.56893" lon="6.71287">
        <ele>774</ele>
        <time>2019-08-16T17:23:30Z</time>
      </trkpt>
      <trkpt lat="45.56916" lon="6.71374">
        <ele>776</ele>
        <time>2019-08-16T17:24:57Z</time>
      </trkpt>
      <trkpt lat="45.56924" lon="6.71408">
        <ele>775</ele>
        <time>2019-08-16T17:25:31Z</time>
      </trkpt>
      <trkpt lat="45.56916" lon="6.71423">
        <ele>773</ele>
        <time>2019-08-16T17:25:48Z</time>
      </trkpt>
      <trkpt lat="45.56914" lon="6.71435">
        <ele>772</ele>
        <time>2019-08-16T17:26:00Z</time>
      </trkpt>
      <trkpt lat="45.56914" lon="6.71446">
        <ele>771</ele>
        <time>2019-08-16T17:26:10Z</time>
      </trkpt>
      <trkpt lat="45.56918" lon="6.71461">
        <ele>771</ele>
        <time>2019-08-16T17:26:25Z</time>
      </trkpt>
      <trkpt lat="45.56927" lon="6.71477">
        <ele>771</ele>
        <time>2019-08-16T17:26:44Z</time>
      </trkpt>
      <trkpt lat="45.56941" lon="6.71489">
        <ele>771</ele>
        <time>2019-08-16T17:27:06Z</time>
      </trkpt>
      <trkpt lat="45.56955" lon="6.71507">
        <ele>771</ele>
        <time>2019-08-16T17:27:31Z</time>
      </trkpt>
      <trkpt lat="45.56966" lon="6.71529">
        <ele>771</ele>
        <time>2019-08-16T17:27:57Z</time>
      </trkpt>
      <trkpt lat="45.56977" lon="6.71558">
        <ele>770</ele>
        <time>2019-08-16T17:28:27Z</time>
      </trkpt>
      <trkpt lat="45.56982" lon="6.71586">
        <ele>769</ele>
        <time>2019-08-16T17:28:54Z</time>
      </trkpt>
      <trkpt lat="45.56983" lon="6.71619">
        <ele>767</ele>
        <time>2019-08-16T17:29:25Z</time>
      </trkpt>
      <trkpt lat="45.56984" lon="6.71645">
        <ele>765</ele>
        <time>2019-08-16T17:29:50Z</time>
      </trkpt>
      <trkpt lat="45.56983" lon="6.71655">
        <ele>764</ele>
        <time>2019-08-16T17:29:59Z</time>
      </trkpt>
      <trkpt lat="45.56972" lon="6.71686">
        <ele>758</ele>
        <time>2019-08-16T17:30:31Z</time>
      </trkpt>
      <trkpt lat="45.56967" lon="6.71688">
        <ele>756</ele>
        <time>2019-08-16T17:30:38Z</time>
      </trkpt>
      <trkpt lat="45.56948" lon="6.71675">
        <ele>755</ele>
        <time>2019-08-16T17:31:07Z</time>
      </trkpt>
      <trkpt lat="45.56927" lon="6.71657">
        <ele>754</ele>
        <time>2019-08-16T17:31:39Z</time>
      </trkpt>
      <trkpt lat="45.56911" lon="6.7164">
        <ele>753</ele>
        <time>2019-08-16T17:32:06Z</time>
      </trkpt>
      <trkpt lat="45.56896" lon="6.71617">
        <ele>753</ele>
        <time>2019-08-16T17:32:35Z</time>
      </trkpt>
      <trkpt lat="45.56861" lon="6.71554">
        <ele>754</ele>
        <time>2019-08-16T17:33:50Z</time>
      </trkpt>
      <trkpt lat="45.56851" lon="6.71533">
        <ele>754</ele>
        <time>2019-08-16T17:34:14Z</time>
      </trkpt>
      <trkpt lat="45.56843" lon="6.71533">
        <ele>753</ele>
        <time>2019-08-16T17:34:25Z</time>
      </trkpt>
      <trkpt lat="45.56828" lon="6.71523">
        <ele>750</ele>
        <time>2019-08-16T17:34:47Z</time>
      </trkpt>
      <trkpt lat="45.56805" lon="6.71483">
        <ele>747</ele>
        <time>2019-08-16T17:35:35Z</time>
      </trkpt>
      <trkpt lat="45.56777" lon="6.71454">
        <ele>740</ele>
        <time>2019-08-16T17:36:21Z</time>
      </trkpt>
      <trkpt lat="45.5677" lon="6.71474">
        <ele>737</ele>
        <time>2019-08-16T17:36:42Z</time>
      </trkpt>
      <trkpt lat="45.56761" lon="6.71465">
        <ele>735</ele>
        <time>2019-08-16T17:36:57Z</time>
      </trkpt>
      <trkpt lat="45.5674" lon="6.71472">
        <ele>730</ele>
        <time>2019-08-16T17:37:26Z</time>
      </trkpt>
      <trkpt lat="45.56714" lon="6.7148">
        <ele>728</ele>
        <time>2019-08-16T17:38:01Z</time>
      </trkpt>
      <trkpt lat="45.56708" lon="6.71489">
        <ele>727</ele>
        <time>2019-08-16T17:38:13Z</time>
      </trkpt>
      <trkpt lat="45.5667" lon="6.71517">
        <ele>725</ele>
        <time>2019-08-16T17:39:10Z</time>
      </trkpt>
      <trkpt lat="45.56659" lon="6.71524">
        <ele>729</ele>
        <time>2019-08-16T17:39:26Z</time>
      </trkpt>
      <trkpt lat="45.56654" lon="6.71529">
        <ele>732</ele>
        <time>2019-08-16T17:39:34Z</time>
      </trkpt>
      <trkpt lat="45.56659" lon="6.71581">
        <ele>733</ele>
        <time>2019-08-16T17:40:23Z</time>
      </trkpt>
      <trkpt lat="45.56649" lon="6.71629">
        <ele>742</ele>
        <time>2019-08-16T17:41:10Z</time>
      </trkpt>
      <trkpt lat="45.56642" lon="6.71634">
        <ele>746</ele>
        <time>2019-08-16T17:41:20Z</time>
      </trkpt>
      <trkpt lat="45.56637" lon="6.71662">
        <ele>750</ele>
        <time>2019-08-16T17:41:47Z</time>
      </trkpt>
      <trkpt lat="45.5663" lon="6.71715">
        <ele>756</ele>
        <time>2019-08-16T17:42:38Z</time>
      </trkpt>
      <trkpt lat="45.56622" lon="6.71698">
        <ele>759</ele>
        <time>2019-08-16T17:42:57Z</time>
      </trkpt>
      <trkpt lat="45.56617" lon="6.71641">
        <ele>759</ele>
        <time>2019-08-16T17:43:50Z</time>
      </trkpt>
      <trkpt lat="45.56604" lon="6.7162">
        <ele>765</ele>
        <time>2019-08-16T17:44:17Z</time>
      </trkpt>
      <trkpt lat="45.56578" lon="6.71571">
        <ele>775</ele>
        <time>2019-08-16T17:45:14Z</time>
      </trkpt>
      <trkpt lat="45.56567" lon="6.7153">
        <ele>772</ele>
        <time>2019-08-16T17:45:55Z</time>
      </trkpt>
      <trkpt lat="45.56558" lon="6.71526">
        <ele>774</ele>
        <time>2019-08-16T17:46:08Z</time>
      </trkpt>
      <trkpt lat="45.5655" lon="6.71546">
        <ele>779</ele>
        <time>2019-08-16T17:46:29Z</time>
      </trkpt>
      <trkpt lat="45.56545" lon="6.71589">
        <ele>787</ele>
        <time>2019-08-16T17:47:10Z</time>
      </trkpt>
      <trkpt lat="45.56524" lon="6.71577">
        <ele>791</ele>
        <time>2019-08-16T17:47:40Z</time>
      </trkpt>
      <trkpt lat="45.56497" lon="6.71572">
        <ele>797</ele>
        <time>2019-08-16T17:48:16Z</time>
      </trkpt>
      <trkpt lat="45.56474" lon="6.71585">
        <ele>803</ele>
        <time>2019-08-16T17:48:49Z</time>
      </trkpt>
      <trkpt lat="45.56458" lon="6.71597">
        <ele>808</ele>
        <time>2019-08-16T17:49:14Z</time>
      </trkpt>
      <trkpt lat="45.56427" lon="6.71606">
        <ele>816</ele>
        <time>2019-08-16T17:49:56Z</time>
      </trkpt>
      <trkpt lat="45.56397" lon="6.71614">
        <ele>824</ele>
        <time>2019-08-16T17:50:37Z</time>
      </trkpt>
      <trkpt lat="45.56312" lon="6.71588">
        <ele>841</ele>
        <time>2019-08-16T17:52:33Z</time>
      </trkpt>
      <trkpt lat="45.56283" lon="6.71594">
        <ele>851</ele>
        <time>2019-08-16T17:53:12Z</time>
      </trkpt>
      <trkpt lat="45.56265" lon="6.71626">
        <ele>859</ele>
        <time>2019-08-16T17:53:50Z</time>
      </trkpt>
      <trkpt lat="45.56253" lon="6.71632">
        <ele>863</ele>
        <time>2019-08-16T17:54:07Z</time>
      </trkpt>
      <trkpt lat="45.56254" lon="6.71655">
        <ele>864</ele>
        <time>2019-08-16T17:54:28Z</time>
      </trkpt>
      <trkpt lat="45.56269" lon="6.71701">
        <ele>869</ele>
        <time>2019-08-16T17:55:16Z</time>
      </trkpt>
      <trkpt lat="45.56243" lon="6.71679">
        <ele>871</ele>
        <time>2019-08-16T17:55:56Z</time>
      </trkpt>
      <trkpt lat="45.56226" lon="6.71696">
        <ele>880</ele>
        <time>2019-08-16T17:56:24Z</time>
      </trkpt>
      <trkpt lat="45.5623" lon="6.71732">
        <ele>886</ele>
        <time>2019-08-16T17:56:58Z</time>
      </trkpt>
      <trkpt lat="45.56225" lon="6.71765">
        <ele>894</ele>
        <time>2019-08-16T17:57:29Z</time>
      </trkpt>
      <trkpt lat="45.56194" lon="6.718">
        <ele>908</ele>
        <time>2019-08-16T17:58:22Z</time>
      </trkpt>
      <trkpt lat="45.5613" lon="6.71824">
        <ele>931</ele>
        <time>2019-08-16T17:59:51Z</time>
      </trkpt>
      <trkpt lat="45.56105" lon="6.71813">
        <ele>936</ele>
        <time>2019-08-16T18:00:25Z</time>
      </trkpt>
      <trkpt lat="45.56104" lon="6.71868">
        <ele>953</ele>
        <time>2019-08-16T18:01:17Z</time>
      </trkpt>
      <trkpt lat="45.56122" lon="6.71912">
        <ele>962</ele>
        <time>2019-08-16T18:02:04Z</time>
      </trkpt>
      <trkpt lat="45.56133" lon="6.71937">
        <ele>967</ele>
        <time>2019-08-16T18:02:32Z</time>
      </trkpt>
      <trkpt lat="45.56127" lon="6.71958">
        <ele>976</ele>
        <time>2019-08-16T18:02:53Z</time>
      </trkpt>
      <trkpt lat="45.56144" lon="6.72012">
        <ele>983</ele>
        <time>2019-08-16T18:03:49Z</time>
      </trkpt>
      <trkpt lat="45.56141" lon="6.7203">
        <ele>988</ele>
        <time>2019-08-16T18:04:06Z</time>
      </trkpt>
      <trkpt lat="45.56145" lon="6.72047">
        <ele>989</ele>
        <time>2019-08-16T18:04:23Z</time>
      </trkpt>
      <trkpt lat="45.5613" lon="6.72102">
        <ele>1007</ele>
        <time>2019-08-16T18:05:18Z</time>
      </trkpt>
      <trkpt lat="45.56131" lon="6.72138">
        <ele>1012</ele>
        <time>2019-08-16T18:05:51Z</time>
      </trkpt>
      <trkpt lat="45.56132" lon="6.72173">
        <ele>1016</ele>
        <time>2019-08-16T18:06:24Z</time>
      </trkpt>
      <trkpt lat="45.56138" lon="6.72207">
        <ele>1018</ele>
        <time>2019-08-16T18:06:57Z</time>
      </trkpt>
      <trkpt lat="45.56109" lon="6.72199">
        <ele>1031</ele>
        <time>2019-08-16T18:07:36Z</time>
      </trkpt>
      <trkpt lat="45.56118" lon="6.72231">
        <ele>1030</ele>
        <time>2019-08-16T18:08:09Z</time>
      </trkpt>
      <trkpt lat="45.56127" lon="6.72263">
        <ele>1031</ele>
        <time>2019-08-16T18:08:41Z</time>
      </trkpt>
      <trkpt lat="45.56121" lon="6.72322">
        <ele>1041</ele>
        <time>2019-08-16T18:09:36Z</time>
      </trkpt>
      <trkpt lat="45.56136" lon="6.72353">
        <ele>1038</ele>
        <time>2019-08-16T18:10:12Z</time>
      </trkpt>
      <trkpt lat="45.56133" lon="6.72372">
        <ele>1040</ele>
        <time>2019-08-16T18:10:30Z</time>
      </trkpt>
      <trkpt lat="45.56126" lon="6.72432">
        <ele>1048</ele>
        <time>2019-08-16T18:11:27Z</time>
      </trkpt>
      <trkpt lat="45.56134" lon="6.72491">
        <ele>1054</ele>
        <time>2019-08-16T18:12:23Z</time>
      </trkpt>
      <trkpt lat="45.56156" lon="6.72531">
        <ele>1052</ele>
        <time>2019-08-16T18:13:10Z</time>
      </trkpt>
      <trkpt lat="45.56161" lon="6.72547">
        <ele>1053</ele>
        <time>2019-08-16T18:13:27Z</time>
      </trkpt>
      <trkpt lat="45.56161" lon="6.72582">
        <ele>1060</ele>
        <time>2019-08-16T18:13:59Z</time>
      </trkpt>
      <trkpt lat="45.5616" lon="6.72616">
        <ele>1065</ele>
        <time>2019-08-16T18:14:31Z</time>
      </trkpt>
      <trkpt lat="45.56153" lon="6.7264">
        <ele>1070</ele>
        <time>2019-08-16T18:14:56Z</time>
      </trkpt>
      <trkpt lat="45.56159" lon="6.72673">
        <ele>1073</ele>
        <time>2019-08-16T18:15:27Z</time>
      </trkpt>
      <trkpt lat="45.56133" lon="6.72633">
        <ele>1076</ele>
        <time>2019-08-16T18:16:18Z</time>
      </trkpt>
      <trkpt lat="45.56131" lon="6.72675">
        <ele>1081</ele>
        <time>2019-08-16T18:16:58Z</time>
      </trkpt>
      <trkpt lat="45.56139" lon="6.72717">
        <ele>1083</ele>
        <time>2019-08-16T18:17:38Z</time>
      </trkpt>
      <trkpt lat="45.56157" lon="6.72801">
        <ele>1086</ele>
        <time>2019-08-16T18:19:00Z</time>
      </trkpt>
      <trkpt lat="45.56165" lon="6.72856">
        <ele>1086</ele>
        <time>2019-08-16T18:19:53Z</time>
      </trkpt>
      <trkpt lat="45.56146" lon="6.72871">
        <ele>1090</ele>
        <time>2019-08-16T18:20:22Z</time>
      </trkpt>
      <trkpt lat="45.56118" lon="6.72883">
        <ele>1097</ele>
        <time>2019-08-16T18:21:01Z</time>
      </trkpt>
      <trkpt lat="45.56089" lon="6.72894">
        <ele>1104</ele>
        <time>2019-08-16T18:21:41Z</time>
      </trkpt>
      <trkpt lat="45.56091" lon="6.72929">
        <ele>1106</ele>
        <time>2019-08-16T18:22:14Z</time>
      </trkpt>
      <trkpt lat="45.56093" lon="6.72963">
        <ele>1110</ele>
        <time>2019-08-16T18:22:46Z</time>
      </trkpt>
      <trkpt lat="45.56089" lon="6.73017">
        <ele>1118</ele>
        <time>2019-08-16T18:23:36Z</time>
      </trkpt>
      <trkpt lat="45.56084" lon="6.73071">
        <ele>1128</ele>
        <time>2019-08-16T18:24:27Z</time>
      </trkpt>
      <trkpt lat="45.56093" lon="6.73131">
        <ele>1134</ele>
        <time>2019-08-16T18:25:25Z</time>
      </trkpt>
      <trkpt lat="45.56094" lon="6.73188">
        <ele>1144</ele>
        <time>2019-08-16T18:26:18Z</time>
      </trkpt>
      <trkpt lat="45.56131" lon="6.73294">
        <ele>1147</ele>
        <time>2019-08-16T18:28:09Z</time>
      </trkpt>
      <trkpt lat="45.56149" lon="6.73347">
        <ele>1149</ele>
        <time>2019-08-16T18:29:04Z</time>
      </trkpt>
      <trkpt lat="45.56133" lon="6.73401">
        <ele>1162</ele>
        <time>2019-08-16T18:29:58Z</time>
      </trkpt>
      <trkpt lat="45.56117" lon="6.73455">
        <ele>1171</ele>
        <time>2019-08-16T18:30:53Z</time>
      </trkpt>
      <trkpt lat="45.561" lon="6.73509">
        <ele>1179</ele>
        <time>2019-08-16T18:31:48Z</time>
      </trkpt>
      <trkpt lat="45.56084" lon="6.73563">
        <ele>1189</ele>
        <time>2019-08-16T18:32:43Z</time>
      </trkpt>
      <trkpt lat="45.56069" lon="6.73517">
        <ele>1190</ele>
        <time>2019-08-16T18:33:31Z</time>
      </trkpt>
      <trkpt lat="45.56043" lon="6.73472">
        <ele>1195</ele>
        <time>2019-08-16T18:34:25Z</time>
      </trkpt>
      <trkpt lat="45.56039" lon="6.73462">
        <ele>1196</ele>
        <time>2019-08-16T18:34:36Z</time>
      </trkpt>
      <trkpt lat="45.56035" lon="6.73404">
        <ele>1195</ele>
        <time>2019-08-16T18:35:30Z</time>
      </trkpt>
      <trkpt lat="45.56026" lon="6.73408">
        <ele>1198</ele>
        <time>2019-08-16T18:35:43Z</time>
      </trkpt>
      <trkpt lat="45.56021" lon="6.73442">
        <ele>1201</ele>
        <time>2019-08-16T18:36:15Z</time>
      </trkpt>
      <trkpt lat="45.56016" lon="6.73476">
        <ele>1203</ele>
        <time>2019-08-16T18:36:48Z</time>
      </trkpt>
      <trkpt lat="45.56013" lon="6.73518">
        <ele>1205</ele>
        <time>2019-08-16T18:37:27Z</time>
      </trkpt>
      <trkpt lat="45.56015" lon="6.73574">
        <ele>1207</ele>
        <time>2019-08-16T18:38:20Z</time>
      </trkpt>
      <trkpt lat="45.56017" lon="6.73587">
        <ele>1207</ele>
        <time>2019-08-16T18:38:32Z</time>
      </trkpt>
      <trkpt lat="45.55988" lon="6.73594">
        <ele>1212</ele>
        <time>2019-08-16T18:39:11Z</time>
      </trkpt>
      <trkpt lat="45.55982" lon="6.73589">
        <ele>1213</ele>
        <time>2019-08-16T18:39:21Z</time>
      </trkpt>
      <trkpt lat="45.55968" lon="6.73579">
        <ele>1215</ele>
        <time>2019-08-16T18:39:42Z</time>
      </trkpt>
      <trkpt lat="45.5597" lon="6.73569">
        <ele>1214</ele>
        <time>2019-08-16T18:39:51Z</time>
      </trkpt>
      <trkpt lat="45.55935" lon="6.73545">
        <ele>1220</ele>
        <time>2019-08-16T18:40:43Z</time>
      </trkpt>
      <trkpt lat="45.55924" lon="6.73535">
        <ele>1222</ele>
        <time>2019-08-16T18:41:01Z</time>
      </trkpt>
      <trkpt lat="45.5591" lon="6.73525">
        <ele>1226</ele>
        <time>2019-08-16T18:41:21Z</time>
      </trkpt>
      <trkpt lat="45.55899" lon="6.73512">
        <ele>1231</ele>
        <time>2019-08-16T18:41:40Z</time>
      </trkpt>
      <trkpt lat="45.55882" lon="6.73488">
        <ele>1238</ele>
        <time>2019-08-16T18:42:12Z</time>
      </trkpt>
      <trkpt lat="45.5587" lon="6.73464">
        <ele>1244</ele>
        <time>2019-08-16T18:42:40Z</time>
      </trkpt>
      <trkpt lat="45.55868" lon="6.73462">
        <ele>1245</ele>
        <time>2019-08-16T18:42:43Z</time>
      </trkpt>
      <trkpt lat="45.55862" lon="6.7346">
        <ele>1248</ele>
        <time>2019-08-16T18:42:51Z</time>
      </trkpt>
      <trkpt lat="45.55859" lon="6.73463">
        <ele>1249</ele>
        <time>2019-08-16T18:42:56Z</time>
      </trkpt>
      <trkpt lat="45.55859" lon="6.73468">
        <ele>1249</ele>
        <time>2019-08-16T18:43:01Z</time>
      </trkpt>
      <trkpt lat="45.55859" lon="6.73473">
        <ele>1249</ele>
        <time>2019-08-16T18:43:06Z</time>
      </trkpt>
      <trkpt lat="45.5586" lon="6.73475">
        <ele>1248</ele>
        <time>2019-08-16T18:43:08Z</time>
      </trkpt>
      <trkpt lat="45.5586" lon="6.7348">
        <ele>1248</ele>
        <time>2019-08-16T18:43:13Z</time>
      </trkpt>
      <trkpt lat="45.55856" lon="6.73482">
        <ele>1249</ele>
        <time>2019-08-16T18:43:18Z</time>
      </trkpt>
      <trkpt lat="45.55851" lon="6.73478">
        <ele>1252</ele>
        <time>2019-08-16T18:43:26Z</time>
      </trkpt>
      <trkpt lat="45.55843" lon="6.73476">
        <ele>1255</ele>
        <time>2019-08-16T18:43:37Z</time>
      </trkpt>
      <trkpt lat="45.55837" lon="6.73482">
        <ele>1258</ele>
        <time>2019-08-16T18:43:46Z</time>
      </trkpt>
      <trkpt lat="45.55823" lon="6.73484">
        <ele>1264</ele>
        <time>2019-08-16T18:44:05Z</time>
      </trkpt>
      <trkpt lat="45.55813" lon="6.73479">
        <ele>1269</ele>
        <time>2019-08-16T18:44:19Z</time>
      </trkpt>
      <trkpt lat="45.55802" lon="6.73488">
        <ele>1273</ele>
        <time>2019-08-16T18:44:36Z</time>
      </trkpt>
      <trkpt lat="45.55777" lon="6.73505">
        <ele>1284</ele>
        <time>2019-08-16T18:45:13Z</time>
      </trkpt>
      <trkpt lat="45.55762" lon="6.73529">
        <ele>1286</ele>
        <time>2019-08-16T18:45:43Z</time>
      </trkpt>
      <trkpt lat="45.55741" lon="6.73548">
        <ele>1291</ele>
        <time>2019-08-16T18:46:17Z</time>
      </trkpt>
      <trkpt lat="45.55724" lon="6.73566">
        <ele>1295</ele>
        <time>2019-08-16T18:46:45Z</time>
      </trkpt>
      <trkpt lat="45.55703" lon="6.73588">
        <ele>1300</ele>
        <time>2019-08-16T18:47:20Z</time>
      </trkpt>
      <trkpt lat="45.55667" lon="6.7361">
        <ele>1311</ele>
        <time>2019-08-16T18:48:12Z</time>
      </trkpt>
      <trkpt lat="45.55646" lon="6.73627">
        <ele>1314</ele>
        <time>2019-08-16T18:48:44Z</time>
      </trkpt>
      <trkpt lat="45.55618" lon="6.73641">
        <ele>1321</ele>
        <time>2019-08-16T18:49:24Z</time>
      </trkpt>
      <trkpt lat="45.55611" lon="6.73642">
        <ele>1323</ele>
        <time>2019-08-16T18:49:33Z</time>
      </trkpt>
      <trkpt lat="45.55607" lon="6.73642">
        <ele>1325</ele>
        <time>2019-08-16T18:49:38Z</time>
      </trkpt>
      <trkpt lat="45.55592" lon="6.73648">
        <ele>1328</ele>
        <time>2019-08-16T18:49:59Z</time>
      </trkpt>
      <trkpt lat="45.55556" lon="6.73662">
        <ele>1339</ele>
        <time>2019-08-16T18:50:49Z</time>
      </trkpt>
      <trkpt lat="45.55465" lon="6.7371">
        <ele>1370</ele>
        <time>2019-08-16T18:52:58Z</time>
      </trkpt>
      <trkpt lat="45.55453" lon="6.73717">
        <ele>1375</ele>
        <time>2019-08-16T18:53:16Z</time>
      </trkpt>
      <trkpt lat="45.55445" lon="6.73748">
        <ele>1376</ele>
        <time>2019-08-16T18:53:46Z</time>
      </trkpt>
      <trkpt lat="45.5544" lon="6.73776">
        <ele>1381</ele>
        <time>2019-08-16T18:54:13Z</time>
      </trkpt>
      <trkpt lat="45.55442" lon="6.73839">
        <ele>1386</ele>
        <time>2019-08-16T18:55:12Z</time>
      </trkpt>
      <trkpt lat="45.55446" lon="6.73861">
        <ele>1384</ele>
        <time>2019-08-16T18:55:34Z</time>
      </trkpt>
      <trkpt lat="45.55442" lon="6.73883">
        <ele>1385</ele>
        <time>2019-08-16T18:55:55Z</time>
      </trkpt>
      <trkpt lat="45.55426" lon="6.73904">
        <ele>1392</ele>
        <time>2019-08-16T18:56:24Z</time>
      </trkpt>
      <trkpt lat="45.55392" lon="6.73926">
        <ele>1401</ele>
        <time>2019-08-16T18:57:14Z</time>
      </trkpt>
      <trkpt lat="45.5536" lon="6.73942">
        <ele>1407</ele>
        <time>2019-08-16T18:57:59Z</time>
      </trkpt>
      <trkpt lat="45.55325" lon="6.73965">
        <ele>1413</ele>
        <time>2019-08-16T18:58:50Z</time>
      </trkpt>
      <trkpt lat="45.55294" lon="6.73985">
        <ele>1420</ele>
        <time>2019-08-16T18:59:36Z</time>
      </trkpt>
      <trkpt lat="45.55273" lon="6.74004">
        <ele>1424</ele>
        <time>2019-08-16T19:00:09Z</time>
      </trkpt>
      <trkpt lat="45.55253" lon="6.74028">
        <ele>1423</ele>
        <time>2019-08-16T19:00:44Z</time>
      </trkpt>
      <trkpt lat="45.55238" lon="6.74041">
        <ele>1424</ele>
        <time>2019-08-16T19:01:07Z</time>
      </trkpt>
      <trkpt lat="45.55226" lon="6.74048">
        <ele>1426</ele>
        <time>2019-08-16T19:01:25Z</time>
      </trkpt>
      <trkpt lat="45.55201" lon="6.74068">
        <ele>1429</ele>
        <time>2019-08-16T19:02:03Z</time>
      </trkpt>
      <trkpt lat="45.55164" lon="6.74095">
        <ele>1435</ele>
        <time>2019-08-16T19:02:58Z</time>
      </trkpt>
      <trkpt lat="45.55109" lon="6.74118">
        <ele>1445</ele>
        <time>2019-08-16T19:04:15Z</time>
      </trkpt>
      <trkpt lat="45.55071" lon="6.74138">
        <ele>1453</ele>
        <time>2019-08-16T19:05:09Z</time>
      </trkpt>
      <trkpt lat="45.55047" lon="6.74154">
        <ele>1458</ele>
        <time>2019-08-16T19:05:44Z</time>
      </trkpt>
      <trkpt lat="45.55028" lon="6.74168">
        <ele>1461</ele>
        <time>2019-08-16T19:06:13Z</time>
      </trkpt>
      <trkpt lat="45.55001" lon="6.74185">
        <ele>1466</ele>
        <time>2019-08-16T19:06:52Z</time>
      </trkpt>
      <trkpt lat="45.5499" lon="6.74202">
        <ele>1465</ele>
        <time>2019-08-16T19:07:14Z</time>
      </trkpt>
      <trkpt lat="45.54986" lon="6.74203">
        <ele>1467</ele>
        <time>2019-08-16T19:07:19Z</time>
      </trkpt>
      <trkpt lat="45.54983" lon="6.74197">
        <ele>1469</ele>
        <time>2019-08-16T19:07:26Z</time>
      </trkpt>
      <trkpt lat="45.54987" lon="6.74188">
        <ele>1470</ele>
        <time>2019-08-16T19:07:36Z</time>
      </trkpt>
      <trkpt lat="45.5499" lon="6.74168">
        <ele>1475</ele>
        <time>2019-08-16T19:07:55Z</time>
      </trkpt>
      <trkpt lat="45.5499" lon="6.74156">
        <ele>1478</ele>
        <time>2019-08-16T19:08:06Z</time>
      </trkpt>
      <trkpt lat="45.54995" lon="6.74142">
        <ele>1479</ele>
        <time>2019-08-16T19:08:21Z</time>
      </trkpt>
      <trkpt lat="45.54987" lon="6.74139">
        <ele>1483</ele>
        <time>2019-08-16T19:08:32Z</time>
      </trkpt>
      <trkpt lat="45.54989" lon="6.7413">
        <ele>1485</ele>
        <time>2019-08-16T19:08:41Z</time>
      </trkpt>
      <trkpt lat="45.54984" lon="6.7414">
        <ele>1484</ele>
        <time>2019-08-16T19:08:52Z</time>
      </trkpt>
      <trkpt lat="45.54973" lon="6.74169">
        <ele>1481</ele>
        <time>2019-08-16T19:09:23Z</time>
      </trkpt>
      <trkpt lat="45.54961" lon="6.74198">
        <ele>1478</ele>
        <time>2019-08-16T19:09:55Z</time>
      </trkpt>
      <trkpt lat="45.54936" lon="6.74226">
        <ele>1478</ele>
        <time>2019-08-16T19:10:37Z</time>
      </trkpt>
      <trkpt lat="45.54919" lon="6.74253">
        <ele>1475</ele>
        <time>2019-08-16T19:11:11Z</time>
      </trkpt>
      <trkpt lat="45.54902" lon="6.74279">
        <ele>1466</ele>
        <time>2019-08-16T19:11:44Z</time>
      </trkpt>
      <trkpt lat="45.54883" lon="6.74299">
        <ele>1460</ele>
        <time>2019-08-16T19:12:16Z</time>
      </trkpt>
      <trkpt lat="45.54864" lon="6.74319">
        <ele>1455</ele>
        <time>2019-08-16T19:12:47Z</time>
      </trkpt>
      <trkpt lat="45.54834" lon="6.74314">
        <ele>1465</ele>
        <time>2019-08-16T19:13:27Z</time>
      </trkpt>
      <trkpt lat="45.54795" lon="6.74318">
        <ele>1468</ele>
        <time>2019-08-16T19:14:20Z</time>
      </trkpt>
      <trkpt lat="45.54761" lon="6.74339">
        <ele>1463</ele>
        <time>2019-08-16T19:15:09Z</time>
      </trkpt>
      <trkpt lat="45.54731" lon="6.74356">
        <ele>1466</ele>
        <time>2019-08-16T19:15:52Z</time>
      </trkpt>
      <trkpt lat="45.54701" lon="6.74372">
        <ele>1472</ele>
        <time>2019-08-16T19:16:35Z</time>
      </trkpt>
      <trkpt lat="45.54663" lon="6.7441">
        <ele>1473</ele>
        <time>2019-08-16T19:17:37Z</time>
      </trkpt>
      <trkpt lat="45.54659" lon="6.74427">
        <ele>1469</ele>
        <time>2019-08-16T19:17:54Z</time>
      </trkpt>
      <trkpt lat="45.5463" lon="6.74446">
        <ele>1483</ele>
        <time>2019-08-16T19:18:36Z</time>
      </trkpt>
      <trkpt lat="45.546" lon="6.74464">
        <ele>1497</ele>
        <time>2019-08-16T19:19:20Z</time>
      </trkpt>
      <trkpt lat="45.54578" lon="6.74508">
        <ele>1493</ele>
        <time>2019-08-16T19:20:10Z</time>
      </trkpt>
      <trkpt lat="45.54577" lon="6.74527">
        <ele>1483</ele>
        <time>2019-08-16T19:20:28Z</time>
      </trkpt>
      <trkpt lat="45.54595" lon="6.74543">
        <ele>1460</ele>
        <time>2019-08-16T19:20:56Z</time>
      </trkpt>
      <trkpt lat="45.54597" lon="6.74562">
        <ele>1447</ele>
        <time>2019-08-16T19:21:14Z</time>
      </trkpt>
      <trkpt lat="45.54567" lon="6.74607">
        <ele>1442</ele>
        <time>2019-08-16T19:22:12Z</time>
      </trkpt>
      <trkpt lat="45.54564" lon="6.7462">
        <ele>1435</ele>
        <time>2019-08-16T19:22:25Z</time>
      </trkpt>
      <trkpt lat="45.54553" lon="6.74623">
        <ele>1441</ele>
        <time>2019-08-16T19:22:40Z</time>
      </trkpt>
      <trkpt lat="45.54549" lon="6.74639">
        <ele>1432</ele>
        <time>2019-08-16T19:22:56Z</time>
      </trkpt>
      <trkpt lat="45.54531" lon="6.74646">
        <ele>1440</ele>
        <time>2019-08-16T19:23:21Z</time>
      </trkpt>
      <trkpt lat="45.54535" lon="6.74658">
        <ele>1428</ele>
        <time>2019-08-16T19:23:33Z</time>
      </trkpt>
      <trkpt lat="45.54515" lon="6.74684">
        <ele>1422</ele>
        <time>2019-08-16T19:24:09Z</time>
      </trkpt>
      <trkpt lat="45.54497" lon="6.74687">
        <ele>1432</ele>
        <time>2019-08-16T19:24:33Z</time>
      </trkpt>
      <trkpt lat="45.54481" lon="6.74705">
        <ele>1430</ele>
        <time>2019-08-16T19:25:01Z</time>
      </trkpt>
      <trkpt lat="45.54477" lon="6.74725">
        <ele>1419</ele>
        <time>2019-08-16T19:25:20Z</time>
      </trkpt>
      <trkpt lat="45.54486" lon="6.7475">
        <ele>1393</ele>
        <time>2019-08-16T19:25:46Z</time>
      </trkpt>
      <trkpt lat="45.5447" lon="6.74775">
        <ele>1386</ele>
        <time>2019-08-16T19:26:18Z</time>
      </trkpt>
      <trkpt lat="45.54454" lon="6.74799">
        <ele>1380</ele>
        <time>2019-08-16T19:26:49Z</time>
      </trkpt>
      <trkpt lat="45.54437" lon="6.74819">
        <ele>1377</ele>
        <time>2019-08-16T19:27:18Z</time>
      </trkpt>
      <trkpt lat="45.54413" lon="6.74842">
        <ele>1376</ele>
        <time>2019-08-16T19:27:57Z</time>
      </trkpt>
      <trkpt lat="45.54389" lon="6.74864">
        <ele>1368</ele>
        <time>2019-08-16T19:28:35Z</time>
      </trkpt>
      <trkpt lat="45.54371" lon="6.74878">
        <ele>1365</ele>
        <time>2019-08-16T19:29:02Z</time>
      </trkpt>
      <trkpt lat="45.5436" lon="6.74855">
        <ele>1386</ele>
        <time>2019-08-16T19:29:28Z</time>
      </trkpt>
      <trkpt lat="45.54349" lon="6.74862">
        <ele>1385</ele>
        <time>2019-08-16T19:29:44Z</time>
      </trkpt>
      <trkpt lat="45.54343" lon="6.74885">
        <ele>1370</ele>
        <time>2019-08-16T19:30:07Z</time>
      </trkpt>
      <trkpt lat="45.54331" lon="6.74886">
        <ele>1375</ele>
        <time>2019-08-16T19:30:23Z</time>
      </trkpt>
      <trkpt lat="45.54322" lon="6.74894">
        <ele>1376</ele>
        <time>2019-08-16T19:30:37Z</time>
      </trkpt>
      <trkpt lat="45.54311" lon="6.74899">
        <ele>1380</ele>
        <time>2019-08-16T19:30:53Z</time>
      </trkpt>
      <trkpt lat="45.54307" lon="6.74912">
        <ele>1373</ele>
        <time>2019-08-16T19:31:06Z</time>
      </trkpt>
      <trkpt lat="45.54317" lon="6.74913">
        <ele>1365</ele>
        <time>2019-08-16T19:31:20Z</time>
      </trkpt>
      <trkpt lat="45.54314" lon="6.74942">
        <ele>1346</ele>
        <time>2019-08-16T19:31:47Z</time>
      </trkpt>
      <trkpt lat="45.54299" lon="6.74989">
        <ele>1321</ele>
        <time>2019-08-16T19:32:35Z</time>
      </trkpt>
      <trkpt lat="45.54279" lon="6.75017">
        <ele>1314</ele>
        <time>2019-08-16T19:33:13Z</time>
      </trkpt>
      <trkpt lat="45.54242" lon="6.7504">
        <ele>1322</ele>
        <time>2019-08-16T19:34:06Z</time>
      </trkpt>
      <trkpt lat="45.54216" lon="6.75078">
        <ele>1318</ele>
        <time>2019-08-16T19:34:56Z</time>
      </trkpt>
      <trkpt lat="45.5418" lon="6.75112">
        <ele>1324</ele>
        <time>2019-08-16T19:35:54Z</time>
      </trkpt>
      <trkpt lat="45.54166" lon="6.75135">
        <ele>1319</ele>
        <time>2019-08-16T19:36:22Z</time>
      </trkpt>
      <trkpt lat="45.54168" lon="6.75142">
        <ele>1313</ele>
        <time>2019-08-16T19:36:29Z</time>
      </trkpt>
      <trkpt lat="45.5416" lon="6.7516">
        <ele>1307</ele>
        <time>2019-08-16T19:36:49Z</time>
      </trkpt>
      <trkpt lat="45.54117" lon="6.75173">
        <ele>1328</ele>
        <time>2019-08-16T19:37:48Z</time>
      </trkpt>
      <trkpt lat="45.54122" lon="6.7519">
        <ele>1316</ele>
        <time>2019-08-16T19:38:05Z</time>
      </trkpt>
      <trkpt lat="45.54115" lon="6.75237">
        <ele>1297</ele>
        <time>2019-08-16T19:38:50Z</time>
      </trkpt>
      <trkpt lat="45.54092" lon="6.75315">
        <ele>1274</ele>
        <time>2019-08-16T19:40:09Z</time>
      </trkpt>
      <trkpt lat="45.54076" lon="6.75367">
        <ele>1261</ele>
        <time>2019-08-16T19:41:02Z</time>
      </trkpt>
      <trkpt lat="45.54037" lon="6.75397">
        <ele>1264</ele>
        <time>2019-08-16T19:42:01Z</time>
      </trkpt>
      <trkpt lat="45.54001" lon="6.75447">
        <ele>1260</ele>
        <time>2019-08-16T19:43:08Z</time>
      </trkpt>
      <trkpt lat="45.53971" lon="6.75455">
        <ele>1269</ele>
        <time>2019-08-16T19:43:49Z</time>
      </trkpt>
      <trkpt lat="45.53951" lon="6.75525">
        <ele>1257</ele>
        <time>2019-08-16T19:45:00Z</time>
      </trkpt>
      <trkpt lat="45.53938" lon="6.75578">
        <ele>1252</ele>
        <time>2019-08-16T19:45:52Z</time>
      </trkpt>
      <trkpt lat="45.53913" lon="6.7559">
        <ele>1254</ele>
        <time>2019-08-16T19:46:27Z</time>
      </trkpt>
      <trkpt lat="45.53888" lon="6.75602">
        <ele>1260</ele>
        <time>2019-08-16T19:47:03Z</time>
      </trkpt>
      <trkpt lat="45.53863" lon="6.75611">
        <ele>1265</ele>
        <time>2019-08-16T19:47:37Z</time>
      </trkpt>
      <trkpt lat="45.53837" lon="6.75621">
        <ele>1270</ele>
        <time>2019-08-16T19:48:13Z</time>
      </trkpt>
      <trkpt lat="45.53832" lon="6.75637">
        <ele>1269</ele>
        <time>2019-08-16T19:48:29Z</time>
      </trkpt>
      <trkpt lat="45.53818" lon="6.75655">
        <ele>1273</ele>
        <time>2019-08-16T19:48:54Z</time>
      </trkpt>
      <trkpt lat="45.53815" lon="6.7568">
        <ele>1272</ele>
        <time>2019-08-16T19:49:18Z</time>
      </trkpt>
      <trkpt lat="45.53796" lon="6.75703">
        <ele>1280</ele>
        <time>2019-08-16T19:49:51Z</time>
      </trkpt>
      <trkpt lat="45.53801" lon="6.75748">
        <ele>1278</ele>
        <time>2019-08-16T19:50:34Z</time>
      </trkpt>
      <trkpt lat="45.53797" lon="6.75811">
        <ele>1283</ele>
        <time>2019-08-16T19:51:33Z</time>
      </trkpt>
      <trkpt lat="45.53804" lon="6.75872">
        <ele>1287</ele>
        <time>2019-08-16T19:52:31Z</time>
      </trkpt>
      <trkpt lat="45.5382" lon="6.7591">
        <ele>1288</ele>
        <time>2019-08-16T19:53:12Z</time>
      </trkpt>
      <trkpt lat="45.53825" lon="6.75956">
        <ele>1289</ele>
        <time>2019-08-16T19:53:56Z</time>
      </trkpt>
      <trkpt lat="45.5382" lon="6.75984">
        <ele>1292</ele>
        <time>2019-08-16T19:54:23Z</time>
      </trkpt>
      <trkpt lat="45.53818" lon="6.75996">
        <ele>1293</ele>
        <time>2019-08-16T19:54:34Z</time>
      </trkpt>
      <trkpt lat="45.53815" lon="6.76003">
        <ele>1294</ele>
        <time>2019-08-16T19:54:42Z</time>
      </trkpt>
      <trkpt lat="45.53807" lon="6.76008">
        <ele>1295</ele>
        <time>2019-08-16T19:54:54Z</time>
      </trkpt>
      <trkpt lat="45.53795" lon="6.76033">
        <ele>1300</ele>
        <time>2019-08-16T19:55:22Z</time>
      </trkpt>
      <trkpt lat="45.53778" lon="6.76076">
        <ele>1305</ele>
        <time>2019-08-16T19:56:08Z</time>
      </trkpt>
      <trkpt lat="45.5376" lon="6.76099">
        <ele>1308</ele>
        <time>2019-08-16T19:56:40Z</time>
      </trkpt>
      <trkpt lat="45.53741" lon="6.76121">
        <ele>1313</ele>
        <time>2019-08-16T19:57:13Z</time>
      </trkpt>
      <trkpt lat="45.5371" lon="6.76143">
        <ele>1323</ele>
        <time>2019-08-16T19:57:59Z</time>
      </trkpt>
      <trkpt lat="45.53679" lon="6.76165">
        <ele>1331</ele>
        <time>2019-08-16T19:58:45Z</time>
      </trkpt>
      <trkpt lat="45.53649" lon="6.76203">
        <ele>1341</ele>
        <time>2019-08-16T19:59:39Z</time>
      </trkpt>
      <trkpt lat="45.53618" lon="6.76242">
        <ele>1349</ele>
        <time>2019-08-16T20:00:34Z</time>
      </trkpt>
      <trkpt lat="45.53598" lon="6.76285">
        <ele>1353</ele>
        <time>2019-08-16T20:01:22Z</time>
      </trkpt>
      <trkpt lat="45.53579" lon="6.76328">
        <ele>1356</ele>
        <time>2019-08-16T20:02:10Z</time>
      </trkpt>
      <trkpt lat="45.53552" lon="6.76376">
        <ele>1370</ele>
        <time>2019-08-16T20:03:07Z</time>
      </trkpt>
      <trkpt lat="45.53526" lon="6.76424">
        <ele>1376</ele>
        <time>2019-08-16T20:04:04Z</time>
      </trkpt>
      <trkpt lat="45.535" lon="6.76466">
        <ele>1380</ele>
        <time>2019-08-16T20:04:57Z</time>
      </trkpt>
      <trkpt lat="45.53474" lon="6.76508">
        <ele>1391</ele>
        <time>2019-08-16T20:05:49Z</time>
      </trkpt>
      <trkpt lat="45.53459" lon="6.76563">
        <ele>1393</ele>
        <time>2019-08-16T20:06:44Z</time>
      </trkpt>
      <trkpt lat="45.53443" lon="6.76619">
        <ele>1394</ele>
        <time>2019-08-16T20:07:41Z</time>
      </trkpt>
      <trkpt lat="45.53424" lon="6.7665">
        <ele>1395</ele>
        <time>2019-08-16T20:08:19Z</time>
      </trkpt>
      <trkpt lat="45.53405" lon="6.76682">
        <ele>1399</ele>
        <time>2019-08-16T20:08:58Z</time>
      </trkpt>
      <trkpt lat="45.53364" lon="6.76721">
        <ele>1413</ele>
        <time>2019-08-16T20:10:04Z</time>
      </trkpt>
      <trkpt lat="45.5334" lon="6.7674">
        <ele>1417</ele>
        <time>2019-08-16T20:10:41Z</time>
      </trkpt>
      <trkpt lat="45.5332" lon="6.76745">
        <ele>1425</ele>
        <time>2019-08-16T20:11:08Z</time>
      </trkpt>
      <trkpt lat="45.53308" lon="6.7676">
        <ele>1429</ele>
        <time>2019-08-16T20:11:29Z</time>
      </trkpt>
      <trkpt lat="45.53303" lon="6.76785">
        <ele>1431</ele>
        <time>2019-08-16T20:11:53Z</time>
      </trkpt>
      <trkpt lat="45.53295" lon="6.76806">
        <ele>1435</ele>
        <time>2019-08-16T20:12:16Z</time>
      </trkpt>
      <trkpt lat="45.53296" lon="6.76822">
        <ele>1434</ele>
        <time>2019-08-16T20:12:31Z</time>
      </trkpt>
      <trkpt lat="45.53302" lon="6.76836">
        <ele>1430</ele>
        <time>2019-08-16T20:12:46Z</time>
      </trkpt>
      <trkpt lat="45.5331" lon="6.76852">
        <ele>1425</ele>
        <time>2019-08-16T20:13:04Z</time>
      </trkpt>
      <trkpt lat="45.53307" lon="6.76872">
        <ele>1427</ele>
        <time>2019-08-16T20:13:24Z</time>
      </trkpt>
      <trkpt lat="45.53302" lon="6.76899">
        <ele>1430</ele>
        <time>2019-08-16T20:13:50Z</time>
      </trkpt>
      <trkpt lat="45.53292" lon="6.76917">
        <ele>1435</ele>
        <time>2019-08-16T20:14:11Z</time>
      </trkpt>
      <trkpt lat="45.53273" lon="6.76974">
        <ele>1439</ele>
        <time>2019-08-16T20:15:10Z</time>
      </trkpt>
      <trkpt lat="45.5325" lon="6.77016">
        <ele>1442</ele>
        <time>2019-08-16T20:16:00Z</time>
      </trkpt>
      <trkpt lat="45.53237" lon="6.77044">
        <ele>1447</ele>
        <time>2019-08-16T20:16:31Z</time>
      </trkpt>
      <trkpt lat="45.53223" lon="6.77073">
        <ele>1452</ele>
        <time>2019-08-16T20:17:04Z</time>
      </trkpt>
      <trkpt lat="45.53215" lon="6.77146">
        <ele>1453</ele>
        <time>2019-08-16T20:18:13Z</time>
      </trkpt>
      <trkpt lat="45.53205" lon="6.77191">
        <ele>1453</ele>
        <time>2019-08-16T20:18:58Z</time>
      </trkpt>
      <trkpt lat="45.53165" lon="6.77267">
        <ele>1451</ele>
        <time>2019-08-16T20:20:26Z</time>
      </trkpt>
      <trkpt lat="45.53136" lon="6.773">
        <ele>1458</ele>
        <time>2019-08-16T20:21:16Z</time>
      </trkpt>
      <trkpt lat="45.53135" lon="6.77341">
        <ele>1455</ele>
        <time>2019-08-16T20:21:54Z</time>
      </trkpt>
      <trkpt lat="45.53134" lon="6.77396">
        <ele>1454</ele>
        <time>2019-08-16T20:22:46Z</time>
      </trkpt>
      <trkpt lat="45.5312" lon="6.77417">
        <ele>1454</ele>
        <time>2019-08-16T20:23:13Z</time>
      </trkpt>
      <trkpt lat="45.53083" lon="6.77406">
        <ele>1459</ele>
        <time>2019-08-16T20:24:03Z</time>
      </trkpt>
      <trkpt lat="45.53061" lon="6.77413">
        <ele>1467</ele>
        <time>2019-08-16T20:24:33Z</time>
      </trkpt>
      <trkpt lat="45.53027" lon="6.77452">
        <ele>1474</ele>
        <time>2019-08-16T20:25:31Z</time>
      </trkpt>
      <trkpt lat="45.5301" lon="6.77454">
        <ele>1479</ele>
        <time>2019-08-16T20:25:54Z</time>
      </trkpt>
      <trkpt lat="45.52994" lon="6.77482">
        <ele>1478</ele>
        <time>2019-08-16T20:26:28Z</time>
      </trkpt>
      <trkpt lat="45.52978" lon="6.77509">
        <ele>1479</ele>
        <time>2019-08-16T20:27:01Z</time>
      </trkpt>
      <trkpt lat="45.52964" lon="6.77546">
        <ele>1477</ele>
        <time>2019-08-16T20:27:40Z</time>
      </trkpt>
      <trkpt lat="45.52949" lon="6.77584">
        <ele>1473</ele>
        <time>2019-08-16T20:28:21Z</time>
      </trkpt>
      <trkpt lat="45.52929" lon="6.77684">
        <ele>1468</ele>
        <time>2019-08-16T20:29:58Z</time>
      </trkpt>
      <trkpt lat="45.52926" lon="6.77699">
        <ele>1468</ele>
        <time>2019-08-16T20:30:13Z</time>
      </trkpt>
      <trkpt lat="45.52918" lon="6.77745">
        <ele>1466</ele>
        <time>2019-08-16T20:30:57Z</time>
      </trkpt>
      <trkpt lat="45.52912" lon="6.77789">
        <ele>1468</ele>
        <time>2019-08-16T20:31:39Z</time>
      </trkpt>
      <trkpt lat="45.52902" lon="6.7782">
        <ele>1470</ele>
        <time>2019-08-16T20:32:11Z</time>
      </trkpt>
      <trkpt lat="45.52884" lon="6.77846">
        <ele>1475</ele>
        <time>2019-08-16T20:32:45Z</time>
      </trkpt>
      <trkpt lat="45.52832" lon="6.77938">
        <ele>1481</ele>
        <time>2019-08-16T20:34:36Z</time>
      </trkpt>
      <trkpt lat="45.52819" lon="6.77983">
        <ele>1484</ele>
        <time>2019-08-16T20:35:21Z</time>
      </trkpt>
      <trkpt lat="45.52835" lon="6.7808">
        <ele>1482</ele>
        <time>2019-08-16T20:36:54Z</time>
      </trkpt>
      <trkpt lat="45.52843" lon="6.78128">
        <ele>1479</ele>
        <time>2019-08-16T20:37:41Z</time>
      </trkpt>
      <trkpt lat="45.52825" lon="6.78172">
        <ele>1480</ele>
        <time>2019-08-16T20:38:28Z</time>
      </trkpt>
      <trkpt lat="45.52807" lon="6.78216">
        <ele>1481</ele>
        <time>2019-08-16T20:39:16Z</time>
      </trkpt>
      <trkpt lat="45.52759" lon="6.78324">
        <ele>1485</ele>
        <time>2019-08-16T20:41:15Z</time>
      </trkpt>
      <trkpt lat="45.52735" lon="6.78377">
        <ele>1491</ele>
        <time>2019-08-16T20:42:14Z</time>
      </trkpt>
      <trkpt lat="45.52714" lon="6.78436">
        <ele>1497</ele>
        <time>2019-08-16T20:43:16Z</time>
      </trkpt>
      <trkpt lat="45.52714" lon="6.78463">
        <ele>1498</ele>
        <time>2019-08-16T20:43:42Z</time>
      </trkpt>
      <trkpt lat="45.52403" lon="6.78599">
        <ele>1548</ele>
        <time>2019-08-16T20:50:56Z</time>
      </trkpt>
      <trkpt lat="45.52399" lon="6.78606">
        <ele>1548</ele>
        <time>2019-08-16T20:51:04Z</time>
      </trkpt>
      <trkpt lat="45.524" lon="6.78616">
        <ele>1547</ele>
        <time>2019-08-16T20:51:13Z</time>
      </trkpt>
      <trkpt lat="45.52402" lon="6.78632">
        <ele>1546</ele>
        <time>2019-08-16T20:51:29Z</time>
      </trkpt>
      <trkpt lat="45.5241" lon="6.78649">
        <ele>1545</ele>
        <time>2019-08-16T20:51:48Z</time>
      </trkpt>
      <trkpt lat="45.52419" lon="6.78692">
        <ele>1543</ele>
        <time>2019-08-16T20:52:30Z</time>
      </trkpt>
      <trkpt lat="45.52428" lon="6.78735">
        <ele>1541</ele>
        <time>2019-08-16T20:53:12Z</time>
      </trkpt>
      <trkpt lat="45.52437" lon="6.78792">
        <ele>1541</ele>
        <time>2019-08-16T20:54:06Z</time>
      </trkpt>
      <trkpt lat="45.52436" lon="6.78815">
        <ele>1542</ele>
        <time>2019-08-16T20:54:28Z</time>
      </trkpt>
      <trkpt lat="45.52439" lon="6.78842">
        <ele>1542</ele>
        <time>2019-08-16T20:54:53Z</time>
      </trkpt>
      <trkpt lat="45.52449" lon="6.78879">
        <ele>1540</ele>
        <time>2019-08-16T20:55:31Z</time>
      </trkpt>
      <trkpt lat="45.52459" lon="6.78917">
        <ele>1539</ele>
        <time>2019-08-16T20:56:08Z</time>
      </trkpt>
      <trkpt lat="45.52477" lon="6.79039">
        <ele>1529</ele>
        <time>2019-08-16T20:58:05Z</time>
      </trkpt>
      <trkpt lat="45.52449" lon="6.79078">
        <ele>1531</ele>
        <time>2019-08-16T20:58:57Z</time>
      </trkpt>
      <trkpt lat="45.52465" lon="6.79079">
        <ele>1529</ele>
        <time>2019-08-16T20:59:19Z</time>
      </trkpt>
      <trkpt lat="45.52484" lon="6.79099">
        <ele>1527</ele>
        <time>2019-08-16T20:59:50Z</time>
      </trkpt>
      <trkpt lat="45.52484" lon="6.79132">
        <ele>1527</ele>
        <time>2019-08-16T21:00:21Z</time>
      </trkpt>
      <trkpt lat="45.52478" lon="6.79169">
        <ele>1527</ele>
        <time>2019-08-16T21:00:56Z</time>
      </trkpt>
      <trkpt lat="45.5247" lon="6.79196">
        <ele>1528</ele>
        <time>2019-08-16T21:01:24Z</time>
      </trkpt>
      <trkpt lat="45.52466" lon="6.7921">
        <ele>1528</ele>
        <time>2019-08-16T21:01:38Z</time>
      </trkpt>
      <trkpt lat="45.52462" lon="6.79219">
        <ele>1529</ele>
        <time>2019-08-16T21:01:48Z</time>
      </trkpt>
      <trkpt lat="45.52451" lon="6.79245">
        <ele>1529</ele>
        <time>2019-08-16T21:02:16Z</time>
      </trkpt>
      <trkpt lat="45.52436" lon="6.79265">
        <ele>1530</ele>
        <time>2019-08-16T21:02:44Z</time>
      </trkpt>
      <trkpt lat="45.52417" lon="6.79295">
        <ele>1530</ele>
        <time>2019-08-16T21:03:22Z</time>
      </trkpt>
      <trkpt lat="45.52404" lon="6.79345">
        <ele>1531</ele>
        <time>2019-08-16T21:04:11Z</time>
      </trkpt>
      <trkpt lat="45.52421" lon="6.79349">
        <ele>1531</ele>
        <time>2019-08-16T21:04:34Z</time>
      </trkpt>
      <trkpt lat="45.52426" lon="6.79389">
        <ele>1533</ele>
        <time>2019-08-16T21:05:12Z</time>
      </trkpt>
      <trkpt lat="45.52431" lon="6.79428">
        <ele>1536</ele>
        <time>2019-08-16T21:05:50Z</time>
      </trkpt>
      <trkpt lat="45.52413" lon="6.79457">
        <ele>1535</ele>
        <time>2019-08-16T21:06:26Z</time>
      </trkpt>
      <trkpt lat="45.52395" lon="6.79486">
        <ele>1536</ele>
        <time>2019-08-16T21:07:02Z</time>
      </trkpt>
      <trkpt lat="45.52378" lon="6.7951">
        <ele>1536</ele>
        <time>2019-08-16T21:07:34Z</time>
      </trkpt>
      <trkpt lat="45.5236" lon="6.79535">
        <ele>1535</ele>
        <time>2019-08-16T21:08:07Z</time>
      </trkpt>
      <trkpt lat="45.52357" lon="6.79587">
        <ele>1536</ele>
        <time>2019-08-16T21:08:56Z</time>
      </trkpt>
      <trkpt lat="45.52354" lon="6.79639">
        <ele>1534</ele>
        <time>2019-08-16T21:09:45Z</time>
      </trkpt>
      <trkpt lat="45.52343" lon="6.79684">
        <ele>1533</ele>
        <time>2019-08-16T21:10:30Z</time>
      </trkpt>
      <trkpt lat="45.52333" lon="6.7973">
        <ele>1533</ele>
        <time>2019-08-16T21:11:15Z</time>
      </trkpt>
      <trkpt lat="45.52335" lon="6.7976">
        <ele>1534</ele>
        <time>2019-08-16T21:11:43Z</time>
      </trkpt>
      <trkpt lat="45.52337" lon="6.79783">
        <ele>1535</ele>
        <time>2019-08-16T21:12:04Z</time>
      </trkpt>
      <trkpt lat="45.52323" lon="6.79817">
        <ele>1535</ele>
        <time>2019-08-16T21:12:41Z</time>
      </trkpt>
      <trkpt lat="45.5231" lon="6.79851">
        <ele>1536</ele>
        <time>2019-08-16T21:13:17Z</time>
      </trkpt>
      <trkpt lat="45.52277" lon="6.79863">
        <ele>1535</ele>
        <time>2019-08-16T21:14:03Z</time>
      </trkpt>
      <trkpt lat="45.52245" lon="6.79875">
        <ele>1535</ele>
        <time>2019-08-16T21:14:47Z</time>
      </trkpt>
      <trkpt lat="45.52208" lon="6.7989">
        <ele>1536</ele>
        <time>2019-08-16T21:15:38Z</time>
      </trkpt>
      <trkpt lat="45.52171" lon="6.79905">
        <ele>1537</ele>
        <time>2019-08-16T21:16:30Z</time>
      </trkpt>
      <trkpt lat="45.52125" lon="6.79991">
        <ele>1539</ele>
        <time>2019-08-16T21:18:11Z</time>
      </trkpt>
      <trkpt lat="45.52097" lon="6.80022">
        <ele>1539</ele>
        <time>2019-08-16T21:18:58Z</time>
      </trkpt>
      <trkpt lat="45.5209" lon="6.80053">
        <ele>1540</ele>
        <time>2019-08-16T21:19:29Z</time>
      </trkpt>
      <trkpt lat="45.52082" lon="6.80083">
        <ele>1541</ele>
        <time>2019-08-16T21:19:59Z</time>
      </trkpt>
      <trkpt lat="45.5206" lon="6.8013">
        <ele>1542</ele>
        <time>2019-08-16T21:20:51Z</time>
      </trkpt>
      <trkpt lat="45.52042" lon="6.8024">
        <ele>1546</ele>
        <time>2019-08-16T21:22:37Z</time>
      </trkpt>
      <trkpt lat="45.52033" lon="6.80295">
        <ele>1548</ele>
        <time>2019-08-16T21:23:30Z</time>
      </trkpt>
      <trkpt lat="45.52017" lon="6.8029">
        <ele>1548</ele>
        <time>2019-08-16T21:23:52Z</time>
      </trkpt>
      <trkpt lat="45.52002" lon="6.80283">
        <ele>1547</ele>
        <time>2019-08-16T21:24:13Z</time>
      </trkpt>
      <trkpt lat="45.52001" lon="6.80283">
        <ele>1547</ele>
        <time>2019-08-16T21:24:14Z</time>
      </trkpt>
      <trkpt lat="45.52" lon="6.80283">
        <ele>1547</ele>
        <time>2019-08-16T21:24:15Z</time>
      </trkpt>
      <trkpt lat="45.51947" lon="6.80261">
        <ele>1547</ele>
        <time>2019-08-16T21:25:29Z</time>
      </trkpt>
      <trkpt lat="45.51918" lon="6.80251">
        <ele>1547</ele>
        <time>2019-08-16T21:26:09Z</time>
      </trkpt>
      <trkpt lat="45.51883" lon="6.80248">
        <ele>1547</ele>
        <time>2019-08-16T21:26:56Z</time>
      </trkpt>
      <trkpt lat="45.51861" lon="6.80243">
        <ele>1547</ele>
        <time>2019-08-16T21:27:25Z</time>
      </trkpt>
      <trkpt lat="45.51863" lon="6.80283">
        <ele>1548</ele>
        <time>2019-08-16T21:28:03Z</time>
      </trkpt>
      <trkpt lat="45.51865" lon="6.80322">
        <ele>1549</ele>
        <time>2019-08-16T21:28:40Z</time>
      </trkpt>
      <trkpt lat="45.51865" lon="6.80366">
        <ele>1551</ele>
        <time>2019-08-16T21:29:21Z</time>
      </trkpt>
      <trkpt lat="45.51866" lon="6.8041">
        <ele>1553</ele>
        <time>2019-08-16T21:30:02Z</time>
      </trkpt>
      <trkpt lat="45.51861" lon="6.80474">
        <ele>1557</ele>
        <time>2019-08-16T21:31:02Z</time>
      </trkpt>
      <trkpt lat="45.51861" lon="6.8049">
        <ele>1557</ele>
        <time>2019-08-16T21:31:17Z</time>
      </trkpt>
      <trkpt lat="45.51846" lon="6.80531">
        <ele>1559</ele>
        <time>2019-08-16T21:32:00Z</time>
      </trkpt>
      <trkpt lat="45.51831" lon="6.80571">
        <ele>1561</ele>
        <time>2019-08-16T21:32:43Z</time>
      </trkpt>
      <trkpt lat="45.51815" lon="6.80575">
        <ele>1567</ele>
        <time>2019-08-16T21:33:04Z</time>
      </trkpt>
      <trkpt lat="45.518" lon="6.80612">
        <ele>1571</ele>
        <time>2019-08-16T21:33:44Z</time>
      </trkpt>
      <trkpt lat="45.51785" lon="6.80648">
        <ele>1574</ele>
        <time>2019-08-16T21:34:24Z</time>
      </trkpt>
      <trkpt lat="45.51777" lon="6.80691">
        <ele>1576</ele>
        <time>2019-08-16T21:35:05Z</time>
      </trkpt>
      <trkpt lat="45.51763" lon="6.80723">
        <ele>1579</ele>
        <time>2019-08-16T21:35:40Z</time>
      </trkpt>
      <trkpt lat="45.51764" lon="6.80753">
        <ele>1579</ele>
        <time>2019-08-16T21:36:08Z</time>
      </trkpt>
      <trkpt lat="45.51758" lon="6.80783">
        <ele>1581</ele>
        <time>2019-08-16T21:36:38Z</time>
      </trkpt>
      <trkpt lat="45.51729" lon="6.80827">
        <ele>1590</ele>
        <time>2019-08-16T21:37:34Z</time>
      </trkpt>
      <trkpt lat="45.51714" lon="6.80877">
        <ele>1595</ele>
        <time>2019-08-16T21:38:25Z</time>
      </trkpt>
      <trkpt lat="45.51699" lon="6.80899">
        <ele>1599</ele>
        <time>2019-08-16T21:38:54Z</time>
      </trkpt>
      <trkpt lat="45.5166" lon="6.80992">
        <ele>1610</ele>
        <time>2019-08-16T21:40:35Z</time>
      </trkpt>
      <trkpt lat="45.51648" lon="6.81008">
        <ele>1616</ele>
        <time>2019-08-16T21:40:57Z</time>
      </trkpt>
      <trkpt lat="45.51639" lon="6.81046">
        <ele>1620</ele>
        <time>2019-08-16T21:41:34Z</time>
      </trkpt>
      <trkpt lat="45.51639" lon="6.81071">
        <ele>1621</ele>
        <time>2019-08-16T21:41:58Z</time>
      </trkpt>
      <trkpt lat="45.51627" lon="6.8111">
        <ele>1626</ele>
        <time>2019-08-16T21:42:38Z</time>
      </trkpt>
      <trkpt lat="45.51616" lon="6.8115">
        <ele>1631</ele>
        <time>2019-08-16T21:43:18Z</time>
      </trkpt>
      <trkpt lat="45.51597" lon="6.81176">
        <ele>1636</ele>
        <time>2019-08-16T21:43:53Z</time>
      </trkpt>
      <trkpt lat="45.51597" lon="6.81187">
        <ele>1637</ele>
        <time>2019-08-16T21:44:03Z</time>
      </trkpt>
      <trkpt lat="45.51597" lon="6.81199">
        <ele>1638</ele>
        <time>2019-08-16T21:44:14Z</time>
      </trkpt>
      <trkpt lat="45.51595" lon="6.81226">
        <ele>1641</ele>
        <time>2019-08-16T21:44:40Z</time>
      </trkpt>
      <trkpt lat="45.51595" lon="6.81252">
        <ele>1643</ele>
        <time>2019-08-16T21:45:04Z</time>
      </trkpt>
      <trkpt lat="45.51574" lon="6.81289">
        <ele>1652</ele>
        <time>2019-08-16T21:45:49Z</time>
      </trkpt>
      <trkpt lat="45.51565" lon="6.8133">
        <ele>1659</ele>
        <time>2019-08-16T21:46:29Z</time>
      </trkpt>
      <trkpt lat="45.51562" lon="6.81348">
        <ele>1662</ele>
        <time>2019-08-16T21:46:46Z</time>
      </trkpt>
      <trkpt lat="45.51561" lon="6.81367">
        <ele>1665</ele>
        <time>2019-08-16T21:47:04Z</time>
      </trkpt>
      <trkpt lat="45.5155" lon="6.81389">
        <ele>1670</ele>
        <time>2019-08-16T21:47:29Z</time>
      </trkpt>
      <trkpt lat="45.51555" lon="6.81398">
        <ele>1670</ele>
        <time>2019-08-16T21:47:40Z</time>
      </trkpt>
      <trkpt lat="45.51549" lon="6.81436">
        <ele>1675</ele>
        <time>2019-08-16T21:48:16Z</time>
      </trkpt>
      <trkpt lat="45.51554" lon="6.81466">
        <ele>1677</ele>
        <time>2019-08-16T21:48:45Z</time>
      </trkpt>
      <trkpt lat="45.51546" lon="6.81483">
        <ele>1680</ele>
        <time>2019-08-16T21:49:04Z</time>
      </trkpt>
      <trkpt lat="45.5153" lon="6.81496">
        <ele>1685</ele>
        <time>2019-08-16T21:49:29Z</time>
      </trkpt>
      <trkpt lat="45.51522" lon="6.8151">
        <ele>1689</ele>
        <time>2019-08-16T21:49:46Z</time>
      </trkpt>
      <trkpt lat="45.51514" lon="6.81525">
        <ele>1692</ele>
        <time>2019-08-16T21:50:03Z</time>
      </trkpt>
      <trkpt lat="45.51511" lon="6.81551">
        <ele>1695</ele>
        <time>2019-08-16T21:50:28Z</time>
      </trkpt>
      <trkpt lat="45.51495" lon="6.81602">
        <ele>1703</ele>
        <time>2019-08-16T21:51:20Z</time>
      </trkpt>
      <trkpt lat="45.51483" lon="6.81626">
        <ele>1708</ele>
        <time>2019-08-16T21:51:48Z</time>
      </trkpt>
      <trkpt lat="45.5146" lon="6.81639">
        <ele>1718</ele>
        <time>2019-08-16T21:52:21Z</time>
      </trkpt>
      <trkpt lat="45.51436" lon="6.81651">
        <ele>1727</ele>
        <time>2019-08-16T21:52:55Z</time>
      </trkpt>
      <trkpt lat="45.51434" lon="6.81659">
        <ele>1729</ele>
        <time>2019-08-16T21:53:03Z</time>
      </trkpt>
      <trkpt lat="45.51429" lon="6.81687">
        <ele>1732</ele>
        <time>2019-08-16T21:53:30Z</time>
      </trkpt>
      <trkpt lat="45.51418" lon="6.81707">
        <ele>1736</ele>
        <time>2019-08-16T21:53:54Z</time>
      </trkpt>
      <trkpt lat="45.51419" lon="6.81739">
        <ele>1736</ele>
        <time>2019-08-16T21:54:24Z</time>
      </trkpt>
      <trkpt lat="45.51403" lon="6.81723">
        <ele>1741</ele>
        <time>2019-08-16T21:54:50Z</time>
      </trkpt>
      <trkpt lat="45.51383" lon="6.81769">
        <ele>1748</ele>
        <time>2019-08-16T21:55:40Z</time>
      </trkpt>
      <trkpt lat="45.51373" lon="6.81794">
        <ele>1752</ele>
        <time>2019-08-16T21:56:07Z</time>
      </trkpt>
      <trkpt lat="45.51378" lon="6.81824">
        <ele>1750</ele>
        <time>2019-08-16T21:56:36Z</time>
      </trkpt>
      <trkpt lat="45.5137" lon="6.81877">
        <ele>1755</ele>
        <time>2019-08-16T21:57:27Z</time>
      </trkpt>
      <trkpt lat="45.51363" lon="6.81931">
        <ele>1761</ele>
        <time>2019-08-16T21:58:18Z</time>
      </trkpt>
      <trkpt lat="45.51362" lon="6.81989">
        <ele>1765</ele>
        <time>2019-08-16T21:59:12Z</time>
      </trkpt>
      <trkpt lat="45.51359" lon="6.82021">
        <ele>1770</ele>
        <time>2019-08-16T21:59:43Z</time>
      </trkpt>
      <trkpt lat="45.51355" lon="6.82052">
        <ele>1775</ele>
        <time>2019-08-16T22:00:12Z</time>
      </trkpt>
      <trkpt lat="45.51353" lon="6.82103">
        <ele>1783</ele>
        <time>2019-08-16T22:01:00Z</time>
      </trkpt>
      <trkpt lat="45.51352" lon="6.82154">
        <ele>1794</ele>
        <time>2019-08-16T22:01:47Z</time>
      </trkpt>
      <trkpt lat="45.51359" lon="6.82273">
        <ele>1812</ele>
        <time>2019-08-16T22:03:39Z</time>
      </trkpt>
      <trkpt lat="45.51363" lon="6.82332">
        <ele>1819</ele>
        <time>2019-08-16T22:04:35Z</time>
      </trkpt>
      <trkpt lat="45.51363" lon="6.82369">
        <ele>1826</ele>
        <time>2019-08-16T22:05:09Z</time>
      </trkpt>
      <trkpt lat="45.51364" lon="6.82407">
        <ele>1833</ele>
        <time>2019-08-16T22:05:45Z</time>
      </trkpt>
      <trkpt lat="45.51363" lon="6.82448">
        <ele>1840</ele>
        <time>2019-08-16T22:06:23Z</time>
      </trkpt>
      <trkpt lat="45.51363" lon="6.8249">
        <ele>1846</ele>
        <time>2019-08-16T22:07:02Z</time>
      </trkpt>
      <trkpt lat="45.51367" lon="6.82579">
        <ele>1867</ele>
        <time>2019-08-16T22:08:26Z</time>
      </trkpt>
      <trkpt lat="45.51367" lon="6.8263">
        <ele>1889</ele>
        <time>2019-08-16T22:09:13Z</time>
      </trkpt>
      <trkpt lat="45.51374" lon="6.8266">
        <ele>1896</ele>
        <time>2019-08-16T22:09:43Z</time>
      </trkpt>
      <trkpt lat="45.51411" lon="6.827">
        <ele>1883</ele>
        <time>2019-08-16T22:10:45Z</time>
      </trkpt>
      <trkpt lat="45.51429" lon="6.82719">
        <ele>1877</ele>
        <time>2019-08-16T22:11:15Z</time>
      </trkpt>
      <trkpt lat="45.51432" lon="6.82733">
        <ele>1881</ele>
        <time>2019-08-16T22:11:29Z</time>
      </trkpt>
      <trkpt lat="45.51435" lon="6.8275">
        <ele>1886</ele>
        <time>2019-08-16T22:11:45Z</time>
      </trkpt>
      <trkpt lat="45.51423" lon="6.82772">
        <ele>1901</ele>
        <time>2019-08-16T22:12:11Z</time>
      </trkpt>
      <trkpt lat="45.51424" lon="6.82819">
        <ele>1909</ele>
        <time>2019-08-16T22:12:55Z</time>
      </trkpt>
      <trkpt lat="45.51429" lon="6.82843">
        <ele>1905</ele>
        <time>2019-08-16T22:13:18Z</time>
      </trkpt>
      <trkpt lat="45.51417" lon="6.82877">
        <ele>1912</ele>
        <time>2019-08-16T22:13:54Z</time>
      </trkpt>
      <trkpt lat="45.51388" lon="6.82919">
        <ele>1921</ele>
        <time>2019-08-16T22:14:49Z</time>
      </trkpt>
      <trkpt lat="45.51359" lon="6.82962">
        <ele>1928</ele>
        <time>2019-08-16T22:15:45Z</time>
      </trkpt>
      <trkpt lat="45.5136" lon="6.82996">
        <ele>1921</ele>
        <time>2019-08-16T22:16:17Z</time>
      </trkpt>
      <trkpt lat="45.51346" lon="6.83034">
        <ele>1924</ele>
        <time>2019-08-16T22:16:57Z</time>
      </trkpt>
      <trkpt lat="45.51325" lon="6.83044">
        <ele>1933</ele>
        <time>2019-08-16T22:17:26Z</time>
      </trkpt>
      <trkpt lat="45.51303" lon="6.83053">
        <ele>1940</ele>
        <time>2019-08-16T22:17:57Z</time>
      </trkpt>
      <trkpt lat="45.51278" lon="6.83083">
        <ele>1943</ele>
        <time>2019-08-16T22:18:41Z</time>
      </trkpt>
      <trkpt lat="45.51258" lon="6.83122">
        <ele>1944</ele>
        <time>2019-08-16T22:19:26Z</time>
      </trkpt>
      <trkpt lat="45.51238" lon="6.8316">
        <ele>1946</ele>
        <time>2019-08-16T22:20:10Z</time>
      </trkpt>
      <trkpt lat="45.51194" lon="6.83181">
        <ele>1956</ele>
        <time>2019-08-16T22:21:12Z</time>
      </trkpt>
      <trkpt lat="45.51176" lon="6.83229">
        <ele>1954</ele>
        <time>2019-08-16T22:22:03Z</time>
      </trkpt>
      <trkpt lat="45.51143" lon="6.83239">
        <ele>1965</ele>
        <time>2019-08-16T22:22:48Z</time>
      </trkpt>
      <trkpt lat="45.51117" lon="6.83261">
        <ele>1974</ele>
        <time>2019-08-16T22:23:28Z</time>
      </trkpt>
      <trkpt lat="45.51052" lon="6.83285">
        <ele>1998</ele>
        <time>2019-08-16T22:24:58Z</time>
      </trkpt>
      <trkpt lat="45.51019" lon="6.83297">
        <ele>2009</ele>
        <time>2019-08-16T22:25:43Z</time>
      </trkpt>
      <trkpt lat="45.51003" lon="6.83318">
        <ele>2011</ele>
        <time>2019-08-16T22:26:12Z</time>
      </trkpt>
      <trkpt lat="45.51003" lon="6.8334">
        <ele>2008</ele>
        <time>2019-08-16T22:26:33Z</time>
      </trkpt>
      <trkpt lat="45.50988" lon="6.8337">
        <ele>2009</ele>
        <time>2019-08-16T22:27:07Z</time>
      </trkpt>
      <trkpt lat="45.50942" lon="6.83393">
        <ele>2016</ele>
        <time>2019-08-16T22:28:13Z</time>
      </trkpt>
      <trkpt lat="45.50939" lon="6.83404">
        <ele>2015</ele>
        <time>2019-08-16T22:28:24Z</time>
      </trkpt>
      <trkpt lat="45.50908" lon="6.83422">
        <ele>2018</ele>
        <time>2019-08-16T22:29:08Z</time>
      </trkpt>
      <trkpt lat="45.50902" lon="6.83413">
        <ele>2020</ele>
        <time>2019-08-16T22:29:20Z</time>
      </trkpt>
      <trkpt lat="45.50891" lon="6.83415">
        <ele>2022</ele>
        <time>2019-08-16T22:29:35Z</time>
      </trkpt>
      <trkpt lat="45.50852" lon="6.83443">
        <ele>2026</ele>
        <time>2019-08-16T22:30:33Z</time>
      </trkpt>
      <trkpt lat="45.50817" lon="6.83449">
        <ele>2032</ele>
        <time>2019-08-16T22:31:20Z</time>
      </trkpt>
      <trkpt lat="45.50788" lon="6.83465">
        <ele>2035</ele>
        <time>2019-08-16T22:32:01Z</time>
      </trkpt>
      <trkpt lat="45.50767" lon="6.83456">
        <ele>2040</ele>
        <time>2019-08-16T22:32:31Z</time>
      </trkpt>
      <trkpt lat="45.50731" lon="6.83462">
        <ele>2045</ele>
        <time>2019-08-16T22:33:19Z</time>
      </trkpt>
      <trkpt lat="45.50695" lon="6.83467">
        <ele>2050</ele>
        <time>2019-08-16T22:34:07Z</time>
      </trkpt>
      <trkpt lat="45.50678" lon="6.83458">
        <ele>2054</ele>
        <time>2019-08-16T22:34:32Z</time>
      </trkpt>
      <trkpt lat="45.5066" lon="6.83459">
        <ele>2057</ele>
        <time>2019-08-16T22:34:56Z</time>
      </trkpt>
      <trkpt lat="45.50645" lon="6.8348">
        <ele>2058</ele>
        <time>2019-08-16T22:35:24Z</time>
      </trkpt>
      <trkpt lat="45.50622" lon="6.83494">
        <ele>2061</ele>
        <time>2019-08-16T22:35:57Z</time>
      </trkpt>
      <trkpt lat="45.506" lon="6.83507">
        <ele>2064</ele>
        <time>2019-08-16T22:36:29Z</time>
      </trkpt>
      <trkpt lat="45.50603" lon="6.83531">
        <ele>2064</ele>
        <time>2019-08-16T22:36:52Z</time>
      </trkpt>
      <trkpt lat="45.50602" lon="6.83559">
        <ele>2064</ele>
        <time>2019-08-16T22:37:18Z</time>
      </trkpt>
      <trkpt lat="45.50577" lon="6.83583">
        <ele>2069</ele>
        <time>2019-08-16T22:37:58Z</time>
      </trkpt>
      <trkpt lat="45.50574" lon="6.8359">
        <ele>2071</ele>
        <time>2019-08-16T22:38:06Z</time>
      </trkpt>
      <trkpt lat="45.50575" lon="6.83601">
        <ele>2072</ele>
        <time>2019-08-16T22:38:16Z</time>
      </trkpt>
      <trkpt lat="45.50582" lon="6.83618">
        <ele>2073</ele>
        <time>2019-08-16T22:38:34Z</time>
      </trkpt>
      <trkpt lat="45.50586" lon="6.83636">
        <ele>2075</ele>
        <time>2019-08-16T22:38:52Z</time>
      </trkpt>
      <trkpt lat="45.50593" lon="6.83649">
        <ele>2076</ele>
        <time>2019-08-16T22:39:07Z</time>
      </trkpt>
      <trkpt lat="45.50594" lon="6.83682">
        <ele>2081</ele>
        <time>2019-08-16T22:39:38Z</time>
      </trkpt>
      <trkpt lat="45.50593" lon="6.83693">
        <ele>2083</ele>
        <time>2019-08-16T22:39:49Z</time>
      </trkpt>
      <trkpt lat="45.50581" lon="6.83687">
        <ele>2084</ele>
        <time>2019-08-16T22:40:06Z</time>
      </trkpt>
      <trkpt lat="45.50575" lon="6.837">
        <ele>2087</ele>
        <time>2019-08-16T22:40:20Z</time>
      </trkpt>
      <trkpt lat="45.50575" lon="6.83704">
        <ele>2087</ele>
        <time>2019-08-16T22:40:24Z</time>
      </trkpt>
      <trkpt lat="45.50563" lon="6.83707">
        <ele>2089</ele>
        <time>2019-08-16T22:40:40Z</time>
      </trkpt>
      <trkpt lat="45.50562" lon="6.83715">
        <ele>2090</ele>
        <time>2019-08-16T22:40:48Z</time>
      </trkpt>
      <trkpt lat="45.50547" lon="6.83714">
        <ele>2091</ele>
        <time>2019-08-16T22:41:08Z</time>
      </trkpt>
      <trkpt lat="45.50543" lon="6.83719">
        <ele>2092</ele>
        <time>2019-08-16T22:41:15Z</time>
      </trkpt>
      <trkpt lat="45.50531" lon="6.83723">
        <ele>2093</ele>
        <time>2019-08-16T22:41:31Z</time>
      </trkpt>
      <trkpt lat="45.50528" lon="6.83711">
        <ele>2092</ele>
        <time>2019-08-16T22:41:43Z</time>
      </trkpt>
      <trkpt lat="45.50514" lon="6.83712">
        <ele>2093</ele>
        <time>2019-08-16T22:42:02Z</time>
      </trkpt>
      <trkpt lat="45.50507" lon="6.83705">
        <ele>2093</ele>
        <time>2019-08-16T22:42:13Z</time>
      </trkpt>
      <trkpt lat="45.50486" lon="6.83703">
        <ele>2093</ele>
        <time>2019-08-16T22:42:42Z</time>
      </trkpt>
      <trkpt lat="45.50478" lon="6.83698">
        <ele>2093</ele>
        <time>2019-08-16T22:42:53Z</time>
      </trkpt>
      <trkpt lat="45.50461" lon="6.83704">
        <ele>2094</ele>
        <time>2019-08-16T22:43:17Z</time>
      </trkpt>
      <trkpt lat="45.50451" lon="6.83701">
        <ele>2094</ele>
        <time>2019-08-16T22:43:30Z</time>
      </trkpt>
      <trkpt lat="45.50419" lon="6.83709">
        <ele>2095</ele>
        <time>2019-08-16T22:44:14Z</time>
      </trkpt>
      <trkpt lat="45.50403" lon="6.83706">
        <ele>2094</ele>
        <time>2019-08-16T22:44:35Z</time>
      </trkpt>
      <trkpt lat="45.50373" lon="6.83712">
        <ele>2094</ele>
        <time>2019-08-16T22:45:16Z</time>
      </trkpt>
      <trkpt lat="45.50331" lon="6.83714">
        <ele>2094</ele>
        <time>2019-08-16T22:46:12Z</time>
      </trkpt>
      <trkpt lat="45.50291" lon="6.83715">
        <ele>2094</ele>
        <time>2019-08-16T22:47:05Z</time>
      </trkpt>
      <trkpt lat="45.50207" lon="6.838">
        <ele>2097</ele>
        <time>2019-08-16T22:49:22Z</time>
      </trkpt>
      <trkpt lat="45.50179" lon="6.83828">
        <ele>2096</ele>
        <time>2019-08-16T22:50:08Z</time>
      </trkpt>
      <trkpt lat="45.5015" lon="6.83854">
        <ele>2095</ele>
        <time>2019-08-16T22:50:54Z</time>
      </trkpt>
      <trkpt lat="45.50127" lon="6.83862">
        <ele>2095</ele>
        <time>2019-08-16T22:51:25Z</time>
      </trkpt>
      <trkpt lat="45.50037" lon="6.83841">
        <ele>2096</ele>
        <time>2019-08-16T22:53:27Z</time>
      </trkpt>
      <trkpt lat="45.49998" lon="6.83826">
        <ele>2098</ele>
        <time>2019-08-16T22:54:21Z</time>
      </trkpt>
      <trkpt lat="45.49959" lon="6.83826">
        <ele>2097</ele>
        <time>2019-08-16T22:55:13Z</time>
      </trkpt>
      <trkpt lat="45.49921" lon="6.83825">
        <ele>2097</ele>
        <time>2019-08-16T22:56:04Z</time>
      </trkpt>
      <trkpt lat="45.4989" lon="6.8384">
        <ele>2096</ele>
        <time>2019-08-16T22:56:47Z</time>
      </trkpt>
      <trkpt lat="45.4986" lon="6.83854">
        <ele>2097</ele>
        <time>2019-08-16T22:57:29Z</time>
      </trkpt>
      <trkpt lat="45.49846" lon="6.83868">
        <ele>2097</ele>
        <time>2019-08-16T22:57:52Z</time>
      </trkpt>
      <trkpt lat="45.49828" lon="6.83876">
        <ele>2097</ele>
        <time>2019-08-16T22:58:17Z</time>
      </trkpt>
      <trkpt lat="45.49812" lon="6.83899">
        <ele>2099</ele>
        <time>2019-08-16T22:58:48Z</time>
      </trkpt>
      <trkpt lat="45.49782" lon="6.83913">
        <ele>2099</ele>
        <time>2019-08-16T22:59:30Z</time>
      </trkpt>
      <trkpt lat="45.49757" lon="6.83939">
        <ele>2101</ele>
        <time>2019-08-16T23:00:11Z</time>
      </trkpt>
      <trkpt lat="45.49732" lon="6.83964">
        <ele>2104</ele>
        <time>2019-08-16T23:00:52Z</time>
      </trkpt>
      <trkpt lat="45.49696" lon="6.83984">
        <ele>2105</ele>
        <time>2019-08-16T23:01:43Z</time>
      </trkpt>
      <trkpt lat="45.49637" lon="6.84019">
        <ele>2108</ele>
        <time>2019-08-16T23:03:09Z</time>
      </trkpt>
      <trkpt lat="45.49617" lon="6.84022">
        <ele>2108</ele>
        <time>2019-08-16T23:03:36Z</time>
      </trkpt>
      <trkpt lat="45.49503" lon="6.84098">
        <ele>2112</ele>
        <time>2019-08-16T23:06:24Z</time>
      </trkpt>
      <trkpt lat="45.49488" lon="6.84114">
        <ele>2114</ele>
        <time>2019-08-16T23:06:48Z</time>
      </trkpt>
      <trkpt lat="45.49422" lon="6.84122">
        <ele>2118</ele>
        <time>2019-08-16T23:08:17Z</time>
      </trkpt>
      <trkpt lat="45.49389" lon="6.84126">
        <ele>2120</ele>
        <time>2019-08-16T23:09:01Z</time>
      </trkpt>
      <trkpt lat="45.49348" lon="6.84137">
        <ele>2123</ele>
        <time>2019-08-16T23:09:57Z</time>
      </trkpt>
      <trkpt lat="45.49303" lon="6.84147">
        <ele>2127</ele>
        <time>2019-08-16T23:10:58Z</time>
      </trkpt>
      <trkpt lat="45.4929" lon="6.84118">
        <ele>2121</ele>
        <time>2019-08-16T23:11:30Z</time>
      </trkpt>
      <trkpt lat="45.49281" lon="6.84133">
        <ele>2125</ele>
        <time>2019-08-16T23:11:48Z</time>
      </trkpt>
      <trkpt lat="45.49277" lon="6.84148">
        <ele>2128</ele>
        <time>2019-08-16T23:12:03Z</time>
      </trkpt>
      <trkpt lat="45.49276" lon="6.84175">
        <ele>2133</ele>
        <time>2019-08-16T23:12:29Z</time>
      </trkpt>
      <trkpt lat="45.49282" lon="6.84188">
        <ele>2134</ele>
        <time>2019-08-16T23:12:43Z</time>
      </trkpt>
      <trkpt lat="45.49278" lon="6.84202">
        <ele>2136</ele>
        <time>2019-08-16T23:12:57Z</time>
      </trkpt>
      <trkpt lat="45.49272" lon="6.84227">
        <ele>2139</ele>
        <time>2019-08-16T23:13:22Z</time>
      </trkpt>
      <trkpt lat="45.49259" lon="6.84241">
        <ele>2140</ele>
        <time>2019-08-16T23:13:44Z</time>
      </trkpt>
      <trkpt lat="45.49247" lon="6.84242">
        <ele>2140</ele>
        <time>2019-08-16T23:14:00Z</time>
      </trkpt>
      <trkpt lat="45.49238" lon="6.84257">
        <ele>2142</ele>
        <time>2019-08-16T23:14:18Z</time>
      </trkpt>
      <trkpt lat="45.49227" lon="6.84286">
        <ele>2146</ele>
        <time>2019-08-16T23:14:49Z</time>
      </trkpt>
      <trkpt lat="45.49219" lon="6.84296">
        <ele>2148</ele>
        <time>2019-08-16T23:15:03Z</time>
      </trkpt>
      <trkpt lat="45.49207" lon="6.84316">
        <ele>2150</ele>
        <time>2019-08-16T23:15:28Z</time>
      </trkpt>
      <trkpt lat="45.49188" lon="6.84322">
        <ele>2150</ele>
        <time>2019-08-16T23:15:54Z</time>
      </trkpt>
      <trkpt lat="45.49151" lon="6.84348">
        <ele>2155</ele>
        <time>2019-08-16T23:16:49Z</time>
      </trkpt>
      <trkpt lat="45.49139" lon="6.8435">
        <ele>2156</ele>
        <time>2019-08-16T23:17:05Z</time>
      </trkpt>
      <trkpt lat="45.49134" lon="6.84358">
        <ele>2158</ele>
        <time>2019-08-16T23:17:15Z</time>
      </trkpt>
      <trkpt lat="45.49133" lon="6.84365">
        <ele>2160</ele>
        <time>2019-08-16T23:17:22Z</time>
      </trkpt>
      <trkpt lat="45.49118" lon="6.84358">
        <ele>2158</ele>
        <time>2019-08-16T23:17:43Z</time>
      </trkpt>
      <trkpt lat="45.49106" lon="6.84361">
        <ele>2159</ele>
        <time>2019-08-16T23:17:59Z</time>
      </trkpt>
      <trkpt lat="45.49102" lon="6.84364">
        <ele>2160</ele>
        <time>2019-08-16T23:18:05Z</time>
      </trkpt>
      <trkpt lat="45.49096" lon="6.84364">
        <ele>2160</ele>
        <time>2019-08-16T23:18:13Z</time>
      </trkpt>
      <trkpt lat="45.49089" lon="6.8436">
        <ele>2159</ele>
        <time>2019-08-16T23:18:23Z</time>
      </trkpt>
      <trkpt lat="45.49082" lon="6.84363">
        <ele>2160</ele>
        <time>2019-08-16T23:18:33Z</time>
      </trkpt>
      <trkpt lat="45.49072" lon="6.84359">
        <ele>2162</ele>
        <time>2019-08-16T23:18:47Z</time>
      </trkpt>
      <trkpt lat="45.49066" lon="6.84359">
        <ele>2164</ele>
        <time>2019-08-16T23:18:55Z</time>
      </trkpt>
      <trkpt lat="45.4906" lon="6.84355">
        <ele>2164</ele>
        <time>2019-08-16T23:19:04Z</time>
      </trkpt>
      <trkpt lat="45.49052" lon="6.84357">
        <ele>2167</ele>
        <time>2019-08-16T23:19:14Z</time>
      </trkpt>
      <trkpt lat="45.49039" lon="6.84347">
        <ele>2168</ele>
        <time>2019-08-16T23:19:34Z</time>
      </trkpt>
      <trkpt lat="45.4902" lon="6.84307">
        <ele>2165</ele>
        <time>2019-08-16T23:20:19Z</time>
      </trkpt>
      <trkpt lat="45.48998" lon="6.84281">
        <ele>2165</ele>
        <time>2019-08-16T23:20:57Z</time>
      </trkpt>
      <trkpt lat="45.48996" lon="6.8427">
        <ele>2164</ele>
        <time>2019-08-16T23:21:08Z</time>
      </trkpt>
      <trkpt lat="45.48993" lon="6.84264">
        <ele>2163</ele>
        <time>2019-08-16T23:21:15Z</time>
      </trkpt>
      <trkpt lat="45.48982" lon="6.84263">
        <ele>2166</ele>
        <time>2019-08-16T23:21:30Z</time>
      </trkpt>
      <trkpt lat="45.48956" lon="6.84275">
        <ele>2175</ele>
        <time>2019-08-16T23:22:06Z</time>
      </trkpt>
      <trkpt lat="45.48925" lon="6.84287">
        <ele>2185</ele>
        <time>2019-08-16T23:22:49Z</time>
      </trkpt>
      <trkpt lat="45.48894" lon="6.84299">
        <ele>2189</ele>
        <time>2019-08-16T23:23:32Z</time>
      </trkpt>
      <trkpt lat="45.48877" lon="6.8431">
        <ele>2191</ele>
        <time>2019-08-16T23:23:57Z</time>
      </trkpt>
      <trkpt lat="45.48855" lon="6.84339">
        <ele>2198</ele>
        <time>2019-08-16T23:24:37Z</time>
      </trkpt>
      <trkpt lat="45.48816" lon="6.84355">
        <ele>2204</ele>
        <time>2019-08-16T23:25:31Z</time>
      </trkpt>
      <trkpt lat="45.48797" lon="6.84359">
        <ele>2205</ele>
        <time>2019-08-16T23:25:57Z</time>
      </trkpt>
      <trkpt lat="45.48778" lon="6.8437">
        <ele>2210</ele>
        <time>2019-08-16T23:26:24Z</time>
      </trkpt>
      <trkpt lat="45.48764" lon="6.8437">
        <ele>2210</ele>
        <time>2019-08-16T23:26:43Z</time>
      </trkpt>
      <trkpt lat="45.48712" lon="6.84386">
        <ele>2213</ele>
        <time>2019-08-16T23:27:54Z</time>
      </trkpt>
      <trkpt lat="45.48691" lon="6.84399">
        <ele>2217</ele>
        <time>2019-08-16T23:28:24Z</time>
      </trkpt>
      <trkpt lat="45.48677" lon="6.84393">
        <ele>2213</ele>
        <time>2019-08-16T23:28:44Z</time>
      </trkpt>
      <trkpt lat="45.48667" lon="6.84392">
        <ele>2211</ele>
        <time>2019-08-16T23:28:57Z</time>
      </trkpt>
      <trkpt lat="45.48661" lon="6.84396">
        <ele>2211</ele>
        <time>2019-08-16T23:29:06Z</time>
      </trkpt>
      <trkpt lat="45.48658" lon="6.8441">
        <ele>2216</ele>
        <time>2019-08-16T23:29:20Z</time>
      </trkpt>
      <trkpt lat="45.48651" lon="6.84416">
        <ele>2217</ele>
        <time>2019-08-16T23:29:30Z</time>
      </trkpt>
      <trkpt lat="45.4864" lon="6.84422">
        <ele>2216</ele>
        <time>2019-08-16T23:29:46Z</time>
      </trkpt>
      <trkpt lat="45.48629" lon="6.84431">
        <ele>2215</ele>
        <time>2019-08-16T23:30:03Z</time>
      </trkpt>
      <trkpt lat="45.48618" lon="6.84424">
        <ele>2210</ele>
        <time>2019-08-16T23:30:19Z</time>
      </trkpt>
      <trkpt lat="45.48608" lon="6.84428">
        <ele>2209</ele>
        <time>2019-08-16T23:30:33Z</time>
      </trkpt>
      <trkpt lat="45.48603" lon="6.84442">
        <ele>2210</ele>
        <time>2019-08-16T23:30:48Z</time>
      </trkpt>
      <trkpt lat="45.48611" lon="6.8445">
        <ele>2214</ele>
        <time>2019-08-16T23:31:01Z</time>
      </trkpt>
      <trkpt lat="45.48621" lon="6.84453">
        <ele>2217</ele>
        <time>2019-08-16T23:31:14Z</time>
      </trkpt>
      <trkpt lat="45.48628" lon="6.84467">
        <ele>2223</ele>
        <time>2019-08-16T23:31:30Z</time>
      </trkpt>
      <trkpt lat="45.4863" lon="6.84501">
        <ele>2231</ele>
        <time>2019-08-16T23:32:02Z</time>
      </trkpt>
      <trkpt lat="45.48617" lon="6.84523">
        <ele>2230</ele>
        <time>2019-08-16T23:32:29Z</time>
      </trkpt>
      <trkpt lat="45.48606" lon="6.84537">
        <ele>2230</ele>
        <time>2019-08-16T23:32:49Z</time>
      </trkpt>
      <trkpt lat="45.4859" lon="6.84555">
        <ele>2229</ele>
        <time>2019-08-16T23:33:16Z</time>
      </trkpt>
      <trkpt lat="45.48538" lon="6.84597">
        <ele>2231</ele>
        <time>2019-08-16T23:34:36Z</time>
      </trkpt>
      <trkpt lat="45.48512" lon="6.84619">
        <ele>2235</ele>
        <time>2019-08-16T23:35:16Z</time>
      </trkpt>
      <trkpt lat="45.48502" lon="6.84617">
        <ele>2233</ele>
        <time>2019-08-16T23:35:30Z</time>
      </trkpt>
      <trkpt lat="45.48488" lon="6.84619">
        <ele>2234</ele>
        <time>2019-08-16T23:35:49Z</time>
      </trkpt>
      <trkpt lat="45.48484" lon="6.84627">
        <ele>2237</ele>
        <time>2019-08-16T23:35:58Z</time>
      </trkpt>
      <trkpt lat="45.48467" lon="6.84628">
        <ele>2237</ele>
        <time>2019-08-16T23:36:20Z</time>
      </trkpt>
      <trkpt lat="45.48431" lon="6.84649">
        <ele>2245</ele>
        <time>2019-08-16T23:37:12Z</time>
      </trkpt>
      <trkpt lat="45.48402" lon="6.84661">
        <ele>2251</ele>
        <time>2019-08-16T23:37:53Z</time>
      </trkpt>
      <trkpt lat="45.4837" lon="6.84663">
        <ele>2253</ele>
        <time>2019-08-16T23:38:35Z</time>
      </trkpt>
      <trkpt lat="45.48349" lon="6.84685">
        <ele>2262</ele>
        <time>2019-08-16T23:39:10Z</time>
      </trkpt>
      <trkpt lat="45.4832" lon="6.847">
        <ele>2267</ele>
        <time>2019-08-16T23:39:51Z</time>
      </trkpt>
      <trkpt lat="45.48291" lon="6.84716">
        <ele>2271</ele>
        <time>2019-08-16T23:40:33Z</time>
      </trkpt>
      <trkpt lat="45.48266" lon="6.84728">
        <ele>2274</ele>
        <time>2019-08-16T23:41:08Z</time>
      </trkpt>
      <trkpt lat="45.4824" lon="6.84741">
        <ele>2277</ele>
        <time>2019-08-16T23:41:45Z</time>
      </trkpt>
      <trkpt lat="45.48214" lon="6.84755">
        <ele>2282</ele>
        <time>2019-08-16T23:42:22Z</time>
      </trkpt>
      <trkpt lat="45.48188" lon="6.84769">
        <ele>2287</ele>
        <time>2019-08-16T23:42:59Z</time>
      </trkpt>
      <trkpt lat="45.48155" lon="6.84767">
        <ele>2286</ele>
        <time>2019-08-16T23:43:43Z</time>
      </trkpt>
      <trkpt lat="45.48128" lon="6.84778">
        <ele>2290</ele>
        <time>2019-08-16T23:44:20Z</time>
      </trkpt>
      <trkpt lat="45.48101" lon="6.8479">
        <ele>2294</ele>
        <time>2019-08-16T23:44:58Z</time>
      </trkpt>
      <trkpt lat="45.48074" lon="6.84815">
        <ele>2301</ele>
        <time>2019-08-16T23:45:41Z</time>
      </trkpt>
      <trkpt lat="45.4806" lon="6.84838">
        <ele>2308</ele>
        <time>2019-08-16T23:46:10Z</time>
      </trkpt>
      <trkpt lat="45.48046" lon="6.84868">
        <ele>2314</ele>
        <time>2019-08-16T23:46:43Z</time>
      </trkpt>
      <trkpt lat="45.48032" lon="6.84899">
        <ele>2319</ele>
        <time>2019-08-16T23:47:18Z</time>
      </trkpt>
      <trkpt lat="45.48006" lon="6.84925">
        <ele>2319</ele>
        <time>2019-08-16T23:48:00Z</time>
      </trkpt>
      <trkpt lat="45.4798" lon="6.84952">
        <ele>2322</ele>
        <time>2019-08-16T23:48:43Z</time>
      </trkpt>
      <trkpt lat="45.47958" lon="6.84968">
        <ele>2325</ele>
        <time>2019-08-16T23:49:16Z</time>
      </trkpt>
      <trkpt lat="45.47936" lon="6.84985">
        <ele>2326</ele>
        <time>2019-08-16T23:49:50Z</time>
      </trkpt>
      <trkpt lat="45.4791" lon="6.84994">
        <ele>2326</ele>
        <time>2019-08-16T23:50:25Z</time>
      </trkpt>
      <trkpt lat="45.47884" lon="6.85003">
        <ele>2326</ele>
        <time>2019-08-16T23:51:01Z</time>
      </trkpt>
      <trkpt lat="45.47852" lon="6.85004">
        <ele>2326</ele>
        <time>2019-08-16T23:51:44Z</time>
      </trkpt>
      <trkpt lat="45.4782" lon="6.85005">
        <ele>2327</ele>
        <time>2019-08-16T23:52:26Z</time>
      </trkpt>
      <trkpt lat="45.47789" lon="6.85026">
        <ele>2329</ele>
        <time>2019-08-16T23:53:12Z</time>
      </trkpt>
      <trkpt lat="45.47759" lon="6.85047">
        <ele>2330</ele>
        <time>2019-08-16T23:53:57Z</time>
      </trkpt>
      <trkpt lat="45.4774" lon="6.85046">
        <ele>2331</ele>
        <time>2019-08-16T23:54:22Z</time>
      </trkpt>
      <trkpt lat="45.47713" lon="6.85049">
        <ele>2331</ele>
        <time>2019-08-16T23:54:58Z</time>
      </trkpt>
      <trkpt lat="45.47686" lon="6.85052">
        <ele>2331</ele>
        <time>2019-08-16T23:55:34Z</time>
      </trkpt>
      <trkpt lat="45.47618" lon="6.85057">
        <ele>2332</ele>
        <time>2019-08-16T23:57:05Z</time>
      </trkpt>
      <trkpt lat="45.47586" lon="6.85063">
        <ele>2332</ele>
        <time>2019-08-16T23:57:48Z</time>
      </trkpt>
      <trkpt lat="45.47553" lon="6.85074">
        <ele>2334</ele>
        <time>2019-08-16T23:58:34Z</time>
      </trkpt>
      <trkpt lat="45.4752" lon="6.85085">
        <ele>2336</ele>
        <time>2019-08-16T23:59:19Z</time>
      </trkpt>
      <trkpt lat="45.47488" lon="6.85086">
        <ele>2338</ele>
        <time>2019-08-17T00:00:02Z</time>
      </trkpt>
      <trkpt lat="45.47449" lon="6.85095">
        <ele>2339</ele>
        <time>2019-08-17T00:00:54Z</time>
      </trkpt>
      <trkpt lat="45.4741" lon="6.85104">
        <ele>2339</ele>
        <time>2019-08-17T00:01:47Z</time>
      </trkpt>
      <trkpt lat="45.47339" lon="6.85134">
        <ele>2341</ele>
        <time>2019-08-17T00:03:26Z</time>
      </trkpt>
      <trkpt lat="45.47303" lon="6.85148">
        <ele>2342</ele>
        <time>2019-08-17T00:04:16Z</time>
      </trkpt>
      <trkpt lat="45.47284" lon="6.85176">
        <ele>2341</ele>
        <time>2019-08-17T00:04:52Z</time>
      </trkpt>
      <trkpt lat="45.47265" lon="6.85203">
        <ele>2342</ele>
        <time>2019-08-17T00:05:28Z</time>
      </trkpt>
      <trkpt lat="45.47231" lon="6.85236">
        <ele>2343</ele>
        <time>2019-08-17T00:06:23Z</time>
      </trkpt>
      <trkpt lat="45.47164" lon="6.85304">
        <ele>2350</ele>
        <time>2019-08-17T00:08:12Z</time>
      </trkpt>
      <trkpt lat="45.47131" lon="6.85337">
        <ele>2354</ele>
        <time>2019-08-17T00:09:06Z</time>
      </trkpt>
      <trkpt lat="45.47108" lon="6.85353">
        <ele>2355</ele>
        <time>2019-08-17T00:09:40Z</time>
      </trkpt>
      <trkpt lat="45.47085" lon="6.85369">
        <ele>2355</ele>
        <time>2019-08-17T00:10:15Z</time>
      </trkpt>
      <trkpt lat="45.47065" lon="6.8539">
        <ele>2358</ele>
        <time>2019-08-17T00:10:48Z</time>
      </trkpt>
      <trkpt lat="45.47033" lon="6.85426">
        <ele>2360</ele>
        <time>2019-08-17T00:11:42Z</time>
      </trkpt>
      <trkpt lat="45.47" lon="6.85463">
        <ele>2362</ele>
        <time>2019-08-17T00:12:38Z</time>
      </trkpt>
      <trkpt lat="45.46976" lon="6.85478">
        <ele>2366</ele>
        <time>2019-08-17T00:13:13Z</time>
      </trkpt>
      <trkpt lat="45.46909" lon="6.85488">
        <ele>2379</ele>
        <time>2019-08-17T00:14:43Z</time>
      </trkpt>
      <trkpt lat="45.46888" lon="6.85533">
        <ele>2385</ele>
        <time>2019-08-17T00:15:34Z</time>
      </trkpt>
      <trkpt lat="45.46866" lon="6.85542">
        <ele>2392</ele>
        <time>2019-08-17T00:16:04Z</time>
      </trkpt>
      <trkpt lat="45.46838" lon="6.85493">
        <ele>2396</ele>
        <time>2019-08-17T00:17:03Z</time>
      </trkpt>
      <trkpt lat="45.46799" lon="6.85488">
        <ele>2400</ele>
        <time>2019-08-17T00:17:55Z</time>
      </trkpt>
      <trkpt lat="45.46701" lon="6.85563">
        <ele>2410</ele>
        <time>2019-08-17T00:20:24Z</time>
      </trkpt>
      <trkpt lat="45.46669" lon="6.85587">
        <ele>2414</ele>
        <time>2019-08-17T00:21:12Z</time>
      </trkpt>
      <trkpt lat="45.46592" lon="6.85577">
        <ele>2431</ele>
        <time>2019-08-17T00:22:55Z</time>
      </trkpt>
      <trkpt lat="45.46553" lon="6.85572">
        <ele>2438</ele>
        <time>2019-08-17T00:23:48Z</time>
      </trkpt>
      <trkpt lat="45.46531" lon="6.85583">
        <ele>2447</ele>
        <time>2019-08-17T00:24:19Z</time>
      </trkpt>
      <trkpt lat="45.46508" lon="6.85595">
        <ele>2455</ele>
        <time>2019-08-17T00:24:51Z</time>
      </trkpt>
      <trkpt lat="45.46491" lon="6.85595">
        <ele>2459</ele>
        <time>2019-08-17T00:25:14Z</time>
      </trkpt>
      <trkpt lat="45.46477" lon="6.85594">
        <ele>2462</ele>
        <time>2019-08-17T00:25:33Z</time>
      </trkpt>
      <trkpt lat="45.46445" lon="6.85594">
        <ele>2470</ele>
        <time>2019-08-17T00:26:15Z</time>
      </trkpt>
      <trkpt lat="45.46419" lon="6.85588">
        <ele>2476</ele>
        <time>2019-08-17T00:26:51Z</time>
      </trkpt>
      <trkpt lat="45.46392" lon="6.85582">
        <ele>2484</ele>
        <time>2019-08-17T00:27:27Z</time>
      </trkpt>
      <trkpt lat="45.46372" lon="6.85559">
        <ele>2486</ele>
        <time>2019-08-17T00:28:01Z</time>
      </trkpt>
      <trkpt lat="45.46341" lon="6.85543">
        <ele>2492</ele>
        <time>2019-08-17T00:28:45Z</time>
      </trkpt>
      <trkpt lat="45.46297" lon="6.85541">
        <ele>2498</ele>
        <time>2019-08-17T00:29:44Z</time>
      </trkpt>
      <trkpt lat="45.46253" lon="6.85539">
        <ele>2501</ele>
        <time>2019-08-17T00:30:43Z</time>
      </trkpt>
      <trkpt lat="45.46222" lon="6.85546">
        <ele>2503</ele>
        <time>2019-08-17T00:31:25Z</time>
      </trkpt>
      <trkpt lat="45.46192" lon="6.85553">
        <ele>2504</ele>
        <time>2019-08-17T00:32:05Z</time>
      </trkpt>
      <trkpt lat="45.46166" lon="6.85585">
        <ele>2508</ele>
        <time>2019-08-17T00:32:51Z</time>
      </trkpt>
      <trkpt lat="45.46158" lon="6.85601">
        <ele>2510</ele>
        <time>2019-08-17T00:33:10Z</time>
      </trkpt>
      <trkpt lat="45.46149" lon="6.85614">
        <ele>2512</ele>
        <time>2019-08-17T00:33:27Z</time>
      </trkpt>
      <trkpt lat="45.46144" lon="6.85647">
        <ele>2515</ele>
        <time>2019-08-17T00:33:58Z</time>
      </trkpt>
      <trkpt lat="45.4613" lon="6.85666">
        <ele>2516</ele>
        <time>2019-08-17T00:34:24Z</time>
      </trkpt>
      <trkpt lat="45.4613" lon="6.85666">
        <ele>2516</ele>
        <time>2019-08-17T00:34:24Z</time>
      </trkpt>
      <trkpt lat="45.46102" lon="6.85668">
        <ele>2515</ele>
        <time>2019-08-17T00:35:01Z</time>
      </trkpt>
      <trkpt lat="45.46065" lon="6.85677">
        <ele>2515</ele>
        <time>2019-08-17T00:35:52Z</time>
      </trkpt>
      <trkpt lat="45.46039" lon="6.85685">
        <ele>2518</ele>
        <time>2019-08-17T00:36:27Z</time>
      </trkpt>
      <trkpt lat="45.4601" lon="6.85696">
        <ele>2520</ele>
        <time>2019-08-17T00:37:07Z</time>
      </trkpt>
      <trkpt lat="45.45982" lon="6.85701">
        <ele>2523</ele>
        <time>2019-08-17T00:37:45Z</time>
      </trkpt>
      <trkpt lat="45.45958" lon="6.85711">
        <ele>2525</ele>
        <time>2019-08-17T00:38:18Z</time>
      </trkpt>
      <trkpt lat="45.45947" lon="6.85745">
        <ele>2527</ele>
        <time>2019-08-17T00:38:53Z</time>
      </trkpt>
      <trkpt lat="45.45938" lon="6.85783">
        <ele>2533</ele>
        <time>2019-08-17T00:39:31Z</time>
      </trkpt>
      <trkpt lat="45.45918" lon="6.85831">
        <ele>2544</ele>
        <time>2019-08-17T00:40:23Z</time>
      </trkpt>
      <trkpt lat="45.45896" lon="6.85862">
        <ele>2551</ele>
        <time>2019-08-17T00:41:04Z</time>
      </trkpt>
      <trkpt lat="45.45909" lon="6.85872">
        <ele>2550</ele>
        <time>2019-08-17T00:41:24Z</time>
      </trkpt>
      <trkpt lat="45.45874" lon="6.85902">
        <ele>2556</ele>
        <time>2019-08-17T00:42:18Z</time>
      </trkpt>
      <trkpt lat="45.45853" lon="6.85944">
        <ele>2562</ele>
        <time>2019-08-17T00:43:07Z</time>
      </trkpt>
      <trkpt lat="45.45849" lon="6.8596">
        <ele>2564</ele>
        <time>2019-08-17T00:43:23Z</time>
      </trkpt>
      <trkpt lat="45.45845" lon="6.85991">
        <ele>2569</ele>
        <time>2019-08-17T00:43:52Z</time>
      </trkpt>
      <trkpt lat="45.45833" lon="6.86013">
        <ele>2572</ele>
        <time>2019-08-17T00:44:18Z</time>
      </trkpt>
      <trkpt lat="45.4582" lon="6.86024">
        <ele>2575</ele>
        <time>2019-08-17T00:44:38Z</time>
      </trkpt>
      <trkpt lat="45.45815" lon="6.8604">
        <ele>2578</ele>
        <time>2019-08-17T00:44:55Z</time>
      </trkpt>
      <trkpt lat="45.45825" lon="6.86107">
        <ele>2588</ele>
        <time>2019-08-17T00:45:59Z</time>
      </trkpt>
      <trkpt lat="45.45812" lon="6.86143">
        <ele>2595</ele>
        <time>2019-08-17T00:46:37Z</time>
      </trkpt>
      <trkpt lat="45.45778" lon="6.86154">
        <ele>2599</ele>
        <time>2019-08-17T00:47:23Z</time>
      </trkpt>
      <trkpt lat="45.4575" lon="6.86158">
        <ele>2601</ele>
        <time>2019-08-17T00:48:01Z</time>
      </trkpt>
      <trkpt lat="45.45734" lon="6.8614">
        <ele>2603</ele>
        <time>2019-08-17T00:48:28Z</time>
      </trkpt>
      <trkpt lat="45.45718" lon="6.861">
        <ele>2602</ele>
        <time>2019-08-17T00:49:11Z</time>
      </trkpt>
      <trkpt lat="45.45702" lon="6.86081">
        <ele>2603</ele>
        <time>2019-08-17T00:49:39Z</time>
      </trkpt>
      <trkpt lat="45.45676" lon="6.86068">
        <ele>2607</ele>
        <time>2019-08-17T00:50:16Z</time>
      </trkpt>
      <trkpt lat="45.45651" lon="6.86056">
        <ele>2611</ele>
        <time>2019-08-17T00:50:51Z</time>
      </trkpt>
      <trkpt lat="45.4563" lon="6.86051">
        <ele>2616</ele>
        <time>2019-08-17T00:51:19Z</time>
      </trkpt>
      <trkpt lat="45.45624" lon="6.86055">
        <ele>2618</ele>
        <time>2019-08-17T00:51:28Z</time>
      </trkpt>
      <trkpt lat="45.4561" lon="6.86079">
        <ele>2624</ele>
        <time>2019-08-17T00:51:57Z</time>
      </trkpt>
      <trkpt lat="45.45616" lon="6.86111">
        <ele>2626</ele>
        <time>2019-08-17T00:52:28Z</time>
      </trkpt>
      <trkpt lat="45.45633" lon="6.86127">
        <ele>2624</ele>
        <time>2019-08-17T00:52:56Z</time>
      </trkpt>
      <trkpt lat="45.45629" lon="6.8618">
        <ele>2631</ele>
        <time>2019-08-17T00:53:45Z</time>
      </trkpt>
      <trkpt lat="45.45636" lon="6.86216">
        <ele>2635</ele>
        <time>2019-08-17T00:54:20Z</time>
      </trkpt>
      <trkpt lat="45.45642" lon="6.86255">
        <ele>2640</ele>
        <time>2019-08-17T00:54:58Z</time>
      </trkpt>
      <trkpt lat="45.45641" lon="6.86283">
        <ele>2644</ele>
        <time>2019-08-17T00:55:24Z</time>
      </trkpt>
      <trkpt lat="45.4564" lon="6.86306">
        <ele>2648</ele>
        <time>2019-08-17T00:55:46Z</time>
      </trkpt>
      <trkpt lat="45.45629" lon="6.86339">
        <ele>2653</ele>
        <time>2019-08-17T00:56:20Z</time>
      </trkpt>
      <trkpt lat="45.45617" lon="6.86372">
        <ele>2654</ele>
        <time>2019-08-17T00:56:55Z</time>
      </trkpt>
      <trkpt lat="45.45621" lon="6.86382">
        <ele>2655</ele>
        <time>2019-08-17T00:57:05Z</time>
      </trkpt>
      <trkpt lat="45.45626" lon="6.86415">
        <ele>2658</ele>
        <time>2019-08-17T00:57:37Z</time>
      </trkpt>
      <trkpt lat="45.45623" lon="6.86446">
        <ele>2656</ele>
        <time>2019-08-17T00:58:06Z</time>
      </trkpt>
      <trkpt lat="45.45592" lon="6.86554">
        <ele>2645</ele>
        <time>2019-08-17T00:59:56Z</time>
      </trkpt>
      <trkpt lat="45.4559" lon="6.8657">
        <ele>2644</ele>
        <time>2019-08-17T01:00:11Z</time>
      </trkpt>
      <trkpt lat="45.45601" lon="6.86625">
        <ele>2642</ele>
        <time>2019-08-17T01:01:04Z</time>
      </trkpt>
      <trkpt lat="45.45601" lon="6.86647">
        <ele>2640</ele>
        <time>2019-08-17T01:01:25Z</time>
      </trkpt>
      <trkpt lat="45.45566" lon="6.86766">
        <ele>2625</ele>
        <time>2019-08-17T01:03:26Z</time>
      </trkpt>
      <trkpt lat="45.4556" lon="6.86818">
        <ele>2617</ele>
        <time>2019-08-17T01:04:15Z</time>
      </trkpt>
      <trkpt lat="45.45579" lon="6.86851">
        <ele>2614</ele>
        <time>2019-08-17T01:04:55Z</time>
      </trkpt>
      <trkpt lat="45.45594" lon="6.86899">
        <ele>2608</ele>
        <time>2019-08-17T01:05:44Z</time>
      </trkpt>
      <trkpt lat="45.45596" lon="6.86922">
        <ele>2605</ele>
        <time>2019-08-17T01:06:06Z</time>
      </trkpt>
      <trkpt lat="45.45584" lon="6.86959">
        <ele>2593</ele>
        <time>2019-08-17T01:06:44Z</time>
      </trkpt>
      <trkpt lat="45.45605" lon="6.8699">
        <ele>2592</ele>
        <time>2019-08-17T01:07:24Z</time>
      </trkpt>
      <trkpt lat="45.45608" lon="6.87003">
        <ele>2591</ele>
        <time>2019-08-17T01:07:37Z</time>
      </trkpt>
      <trkpt lat="45.456" lon="6.87045">
        <ele>2582</ele>
        <time>2019-08-17T01:08:18Z</time>
      </trkpt>
      <trkpt lat="45.45604" lon="6.87087">
        <ele>2578</ele>
        <time>2019-08-17T01:08:58Z</time>
      </trkpt>
      <trkpt lat="45.45598" lon="6.87145">
        <ele>2578</ele>
        <time>2019-08-17T01:09:52Z</time>
      </trkpt>
      <trkpt lat="45.45583" lon="6.87182">
        <ele>2574</ele>
        <time>2019-08-17T01:10:32Z</time>
      </trkpt>
      <trkpt lat="45.45556" lon="6.87207">
        <ele>2570</ele>
        <time>2019-08-17T01:11:15Z</time>
      </trkpt>
      <trkpt lat="45.45529" lon="6.87245">
        <ele>2564</ele>
        <time>2019-08-17T01:12:06Z</time>
      </trkpt>
      <trkpt lat="45.45524" lon="6.87296">
        <ele>2560</ele>
        <time>2019-08-17T01:12:54Z</time>
      </trkpt>
      <trkpt lat="45.45519" lon="6.87346">
        <ele>2555</ele>
        <time>2019-08-17T01:13:42Z</time>
      </trkpt>
      <trkpt lat="45.455" lon="6.87402">
        <ele>2545</ele>
        <time>2019-08-17T01:14:40Z</time>
      </trkpt>
      <trkpt lat="45.45478" lon="6.87443">
        <ele>2540</ele>
        <time>2019-08-17T01:15:28Z</time>
      </trkpt>
      <trkpt lat="45.45472" lon="6.875">
        <ele>2539</ele>
        <time>2019-08-17T01:16:22Z</time>
      </trkpt>
      <trkpt lat="45.45465" lon="6.87557">
        <ele>2533</ele>
        <time>2019-08-17T01:17:16Z</time>
      </trkpt>
      <trkpt lat="45.45474" lon="6.87576">
        <ele>2533</ele>
        <time>2019-08-17T01:17:38Z</time>
      </trkpt>
      <trkpt lat="45.45477" lon="6.87607">
        <ele>2531</ele>
        <time>2019-08-17T01:18:07Z</time>
      </trkpt>
      <trkpt lat="45.4547" lon="6.87621">
        <ele>2528</ele>
        <time>2019-08-17T01:18:23Z</time>
      </trkpt>
      <trkpt lat="45.45491" lon="6.87675">
        <ele>2529</ele>
        <time>2019-08-17T01:19:21Z</time>
      </trkpt>
      <trkpt lat="45.45495" lon="6.87699">
        <ele>2528</ele>
        <time>2019-08-17T01:19:44Z</time>
      </trkpt>
      <trkpt lat="45.45499" lon="6.87725">
        <ele>2526</ele>
        <time>2019-08-17T01:20:09Z</time>
      </trkpt>
      <trkpt lat="45.4552" lon="6.87788">
        <ele>2523</ele>
        <time>2019-08-17T01:21:14Z</time>
      </trkpt>
      <trkpt lat="45.45523" lon="6.8785">
        <ele>2514</ele>
        <time>2019-08-17T01:22:12Z</time>
      </trkpt>
      <trkpt lat="45.45549" lon="6.87903">
        <ele>2511</ele>
        <time>2019-08-17T01:23:13Z</time>
      </trkpt>
      <trkpt lat="45.45553" lon="6.87923">
        <ele>2509</ele>
        <time>2019-08-17T01:23:32Z</time>
      </trkpt>
      <trkpt lat="45.45549" lon="6.87971">
        <ele>2502</ele>
        <time>2019-08-17T01:24:18Z</time>
      </trkpt>
      <trkpt lat="45.45519" lon="6.88058">
        <ele>2487</ele>
        <time>2019-08-17T01:25:48Z</time>
      </trkpt>
      <trkpt lat="45.45505" lon="6.88102">
        <ele>2480</ele>
        <time>2019-08-17T01:26:34Z</time>
      </trkpt>
      <trkpt lat="45.45506" lon="6.88117">
        <ele>2479</ele>
        <time>2019-08-17T01:26:48Z</time>
      </trkpt>
      <trkpt lat="45.45522" lon="6.88163">
        <ele>2479</ele>
        <time>2019-08-17T01:27:36Z</time>
      </trkpt>
      <trkpt lat="45.45524" lon="6.88184">
        <ele>2477</ele>
        <time>2019-08-17T01:27:56Z</time>
      </trkpt>
      <trkpt lat="45.45517" lon="6.88223">
        <ele>2471</ele>
        <time>2019-08-17T01:28:33Z</time>
      </trkpt>
      <trkpt lat="45.45529" lon="6.88254">
        <ele>2471</ele>
        <time>2019-08-17T01:29:06Z</time>
      </trkpt>
      <trkpt lat="45.4554" lon="6.88285">
        <ele>2471</ele>
        <time>2019-08-17T01:29:39Z</time>
      </trkpt>
      <trkpt lat="45.45544" lon="6.88325">
        <ele>2467</ele>
        <time>2019-08-17T01:30:17Z</time>
      </trkpt>
      <trkpt lat="45.45548" lon="6.88365">
        <ele>2464</ele>
        <time>2019-08-17T01:30:55Z</time>
      </trkpt>
      <trkpt lat="45.45553" lon="6.8839">
        <ele>2461</ele>
        <time>2019-08-17T01:31:19Z</time>
      </trkpt>
      <trkpt lat="45.4556" lon="6.88422">
        <ele>2459</ele>
        <time>2019-08-17T01:31:50Z</time>
      </trkpt>
      <trkpt lat="45.4556" lon="6.88441">
        <ele>2456</ele>
        <time>2019-08-17T01:32:08Z</time>
      </trkpt>
      <trkpt lat="45.45554" lon="6.88464">
        <ele>2452</ele>
        <time>2019-08-17T01:32:31Z</time>
      </trkpt>
      <trkpt lat="45.45563" lon="6.88502">
        <ele>2448</ele>
        <time>2019-08-17T01:33:09Z</time>
      </trkpt>
      <trkpt lat="45.45563" lon="6.88531">
        <ele>2444</ele>
        <time>2019-08-17T01:33:36Z</time>
      </trkpt>
      <trkpt lat="45.45571" lon="6.88575">
        <ele>2439</ele>
        <time>2019-08-17T01:34:18Z</time>
      </trkpt>
      <trkpt lat="45.45558" lon="6.886">
        <ele>2434</ele>
        <time>2019-08-17T01:34:47Z</time>
      </trkpt>
      <trkpt lat="45.45559" lon="6.88623">
        <ele>2431</ele>
        <time>2019-08-17T01:35:09Z</time>
      </trkpt>
      <trkpt lat="45.45569" lon="6.88677">
        <ele>2424</ele>
        <time>2019-08-17T01:36:01Z</time>
      </trkpt>
      <trkpt lat="45.4558" lon="6.88731">
        <ele>2414</ele>
        <time>2019-08-17T01:36:54Z</time>
      </trkpt>
      <trkpt lat="45.45588" lon="6.88754">
        <ele>2410</ele>
        <time>2019-08-17T01:37:18Z</time>
      </trkpt>
      <trkpt lat="45.456" lon="6.88764">
        <ele>2409</ele>
        <time>2019-08-17T01:37:36Z</time>
      </trkpt>
      <trkpt lat="45.45601" lon="6.88778">
        <ele>2405</ele>
        <time>2019-08-17T01:37:50Z</time>
      </trkpt>
      <trkpt lat="45.45615" lon="6.88804">
        <ele>2399</ele>
        <time>2019-08-17T01:38:20Z</time>
      </trkpt>
      <trkpt lat="45.45634" lon="6.88827">
        <ele>2395</ele>
        <time>2019-08-17T01:38:54Z</time>
      </trkpt>
      <trkpt lat="45.45683" lon="6.88912">
        <ele>2381</ele>
        <time>2019-08-17T01:40:37Z</time>
      </trkpt>
      <trkpt lat="45.45707" lon="6.88954">
        <ele>2368</ele>
        <time>2019-08-17T01:41:27Z</time>
      </trkpt>
      <trkpt lat="45.45747" lon="6.88983">
        <ele>2362</ele>
        <time>2019-08-17T01:42:27Z</time>
      </trkpt>
      <trkpt lat="45.45766" lon="6.89008">
        <ele>2355</ele>
        <time>2019-08-17T01:43:02Z</time>
      </trkpt>
      <trkpt lat="45.45779" lon="6.89043">
        <ele>2346</ele>
        <time>2019-08-17T01:43:39Z</time>
      </trkpt>
      <trkpt lat="45.45783" lon="6.89069">
        <ele>2339</ele>
        <time>2019-08-17T01:44:04Z</time>
      </trkpt>
      <trkpt lat="45.45801" lon="6.89109">
        <ele>2328</ele>
        <time>2019-08-17T01:44:48Z</time>
      </trkpt>
      <trkpt lat="45.45818" lon="6.8915">
        <ele>2317</ele>
        <time>2019-08-17T01:45:33Z</time>
      </trkpt>
      <trkpt lat="45.45851" lon="6.89182">
        <ele>2309</ele>
        <time>2019-08-17T01:46:26Z</time>
      </trkpt>
      <trkpt lat="45.45876" lon="6.8919">
        <ele>2307</ele>
        <time>2019-08-17T01:47:00Z</time>
      </trkpt>
      <trkpt lat="45.45901" lon="6.89198">
        <ele>2305</ele>
        <time>2019-08-17T01:47:34Z</time>
      </trkpt>
      <trkpt lat="45.45935" lon="6.89233">
        <ele>2293</ele>
        <time>2019-08-17T01:48:30Z</time>
      </trkpt>
      <trkpt lat="45.45969" lon="6.89268">
        <ele>2282</ele>
        <time>2019-08-17T01:49:26Z</time>
      </trkpt>
      <trkpt lat="45.46045" lon="6.89282">
        <ele>2278</ele>
        <time>2019-08-17T01:51:09Z</time>
      </trkpt>
      <trkpt lat="45.46072" lon="6.89287">
        <ele>2276</ele>
        <time>2019-08-17T01:51:45Z</time>
      </trkpt>
      <trkpt lat="45.46104" lon="6.89308">
        <ele>2268</ele>
        <time>2019-08-17T01:52:32Z</time>
      </trkpt>
      <trkpt lat="45.46125" lon="6.89328">
        <ele>2261</ele>
        <time>2019-08-17T01:53:06Z</time>
      </trkpt>
      <trkpt lat="45.46145" lon="6.89347">
        <ele>2253</ele>
        <time>2019-08-17T01:53:38Z</time>
      </trkpt>
      <trkpt lat="45.46211" lon="6.89345">
        <ele>2251</ele>
        <time>2019-08-17T01:55:06Z</time>
      </trkpt>
      <trkpt lat="45.46245" lon="6.89344">
        <ele>2249</ele>
        <time>2019-08-17T01:55:51Z</time>
      </trkpt>
      <trkpt lat="45.46287" lon="6.89372">
        <ele>2236</ele>
        <time>2019-08-17T01:56:53Z</time>
      </trkpt>
      <trkpt lat="45.46325" lon="6.89359">
        <ele>2238</ele>
        <time>2019-08-17T01:57:45Z</time>
      </trkpt>
      <trkpt lat="45.46338" lon="6.89382">
        <ele>2231</ele>
        <time>2019-08-17T01:58:13Z</time>
      </trkpt>
      <trkpt lat="45.4633" lon="6.8944">
        <ele>2215</ele>
        <time>2019-08-17T01:59:08Z</time>
      </trkpt>
      <trkpt lat="45.46333" lon="6.8945">
        <ele>2213</ele>
        <time>2019-08-17T01:59:18Z</time>
      </trkpt>
      <trkpt lat="45.46398" lon="6.89512">
        <ele>2199</ele>
        <time>2019-08-17T02:01:03Z</time>
      </trkpt>
      <trkpt lat="45.4643" lon="6.89543">
        <ele>2193</ele>
        <time>2019-08-17T02:01:54Z</time>
      </trkpt>
      <trkpt lat="45.4648" lon="6.89633">
        <ele>2175</ele>
        <time>2019-08-17T02:03:42Z</time>
      </trkpt>
      <trkpt lat="45.46506" lon="6.89668">
        <ele>2169</ele>
        <time>2019-08-17T02:04:29Z</time>
      </trkpt>
      <trkpt lat="45.46579" lon="6.89722">
        <ele>2154</ele>
        <time>2019-08-17T02:06:19Z</time>
      </trkpt>
      <trkpt lat="45.46599" lon="6.89746">
        <ele>2146</ele>
        <time>2019-08-17T02:06:54Z</time>
      </trkpt>
      <trkpt lat="45.4661" lon="6.89772">
        <ele>2139</ele>
        <time>2019-08-17T02:07:23Z</time>
      </trkpt>
      <trkpt lat="45.46622" lon="6.89825">
        <ele>2125</ele>
        <time>2019-08-17T02:08:15Z</time>
      </trkpt>
      <trkpt lat="45.46614" lon="6.89867">
        <ele>2114</ele>
        <time>2019-08-17T02:08:55Z</time>
      </trkpt>
      <trkpt lat="45.46605" lon="6.89909">
        <ele>2103</ele>
        <time>2019-08-17T02:09:36Z</time>
      </trkpt>
      <trkpt lat="45.46613" lon="6.89931">
        <ele>2101</ele>
        <time>2019-08-17T02:10:00Z</time>
      </trkpt>
      <trkpt lat="45.46616" lon="6.89976">
        <ele>2095</ele>
        <time>2019-08-17T02:10:42Z</time>
      </trkpt>
      <trkpt lat="45.46611" lon="6.89983">
        <ele>2093</ele>
        <time>2019-08-17T02:10:51Z</time>
      </trkpt>
      <trkpt lat="45.46626" lon="6.90021">
        <ele>2092</ele>
        <time>2019-08-17T02:11:32Z</time>
      </trkpt>
      <trkpt lat="45.46636" lon="6.9005">
        <ele>2092</ele>
        <time>2019-08-17T02:12:02Z</time>
      </trkpt>
      <trkpt lat="45.46677" lon="6.90126">
        <ele>2092</ele>
        <time>2019-08-17T02:13:32Z</time>
      </trkpt>
      <trkpt lat="45.46702" lon="6.90171">
        <ele>2093</ele>
        <time>2019-08-17T02:14:26Z</time>
      </trkpt>
      <trkpt lat="45.46716" lon="6.90199">
        <ele>2095</ele>
        <time>2019-08-17T02:14:58Z</time>
      </trkpt>
      <trkpt lat="45.46728" lon="6.9022">
        <ele>2096</ele>
        <time>2019-08-17T02:15:23Z</time>
      </trkpt>
      <trkpt lat="45.46731" lon="6.90227">
        <ele>2097</ele>
        <time>2019-08-17T02:15:31Z</time>
      </trkpt>
      <trkpt lat="45.46742" lon="6.90245">
        <ele>2097</ele>
        <time>2019-08-17T02:15:53Z</time>
      </trkpt>
      <trkpt lat="45.46762" lon="6.903">
        <ele>2098</ele>
        <time>2019-08-17T02:16:51Z</time>
      </trkpt>
      <trkpt lat="45.46771" lon="6.90329">
        <ele>2099</ele>
        <time>2019-08-17T02:17:21Z</time>
      </trkpt>
      <trkpt lat="45.4678" lon="6.90359">
        <ele>2099</ele>
        <time>2019-08-17T02:17:52Z</time>
      </trkpt>
      <trkpt lat="45.46781" lon="6.90375">
        <ele>2098</ele>
        <time>2019-08-17T02:18:07Z</time>
      </trkpt>
      <trkpt lat="45.46778" lon="6.90376">
        <ele>2098</ele>
        <time>2019-08-17T02:18:11Z</time>
      </trkpt>
      <trkpt lat="45.46775" lon="6.90378">
        <ele>2097</ele>
        <time>2019-08-17T02:18:15Z</time>
      </trkpt>
      <trkpt lat="45.46772" lon="6.90388">
        <ele>2096</ele>
        <time>2019-08-17T02:18:25Z</time>
      </trkpt>
      <trkpt lat="45.46773" lon="6.90393">
        <ele>2096</ele>
        <time>2019-08-17T02:18:30Z</time>
      </trkpt>
      <trkpt lat="45.46775" lon="6.90397">
        <ele>2096</ele>
        <time>2019-08-17T02:18:35Z</time>
      </trkpt>
      <trkpt lat="45.46778" lon="6.904">
        <ele>2097</ele>
        <time>2019-08-17T02:18:40Z</time>
      </trkpt>
      <trkpt lat="45.46782" lon="6.90401">
        <ele>2097</ele>
        <time>2019-08-17T02:18:45Z</time>
      </trkpt>
      <trkpt lat="45.46785" lon="6.90417">
        <ele>2097</ele>
        <time>2019-08-17T02:19:01Z</time>
      </trkpt>
      <trkpt lat="45.46813" lon="6.90482">
        <ele>2100</ele>
        <time>2019-08-17T02:20:12Z</time>
      </trkpt>
      <trkpt lat="45.46824" lon="6.90495">
        <ele>2102</ele>
        <time>2019-08-17T02:20:31Z</time>
      </trkpt>
      <trkpt lat="45.46856" lon="6.90589">
        <ele>2095</ele>
        <time>2019-08-17T02:22:09Z</time>
      </trkpt>
      <trkpt lat="45.46857" lon="6.90593">
        <ele>2095</ele>
        <time>2019-08-17T02:22:13Z</time>
      </trkpt>
      <trkpt lat="45.46863" lon="6.90597">
        <ele>2095</ele>
        <time>2019-08-17T02:22:22Z</time>
      </trkpt>
      <trkpt lat="45.46866" lon="6.90606">
        <ele>2095</ele>
        <time>2019-08-17T02:22:31Z</time>
      </trkpt>
      <trkpt lat="45.46873" lon="6.90617">
        <ele>2095</ele>
        <time>2019-08-17T02:22:45Z</time>
      </trkpt>
      <trkpt lat="45.46879" lon="6.90622">
        <ele>2095</ele>
        <time>2019-08-17T02:22:54Z</time>
      </trkpt>
      <trkpt lat="45.46889" lon="6.90624">
        <ele>2095</ele>
        <time>2019-08-17T02:23:08Z</time>
      </trkpt>
      <trkpt lat="45.46897" lon="6.90623">
        <ele>2096</ele>
        <time>2019-08-17T02:23:18Z</time>
      </trkpt>
      <trkpt lat="45.46903" lon="6.90619">
        <ele>2096</ele>
        <time>2019-08-17T02:23:27Z</time>
      </trkpt>
      <trkpt lat="45.46906" lon="6.90613">
        <ele>2097</ele>
        <time>2019-08-17T02:23:34Z</time>
      </trkpt>
      <trkpt lat="45.4691" lon="6.90639">
        <ele>2096</ele>
        <time>2019-08-17T02:23:59Z</time>
      </trkpt>
      <trkpt lat="45.46911" lon="6.90644">
        <ele>2095</ele>
        <time>2019-08-17T02:24:04Z</time>
      </trkpt>
      <trkpt lat="45.46916" lon="6.90654">
        <ele>2095</ele>
        <time>2019-08-17T02:24:15Z</time>
      </trkpt>
      <trkpt lat="45.4692" lon="6.9066">
        <ele>2095</ele>
        <time>2019-08-17T02:24:23Z</time>
      </trkpt>
      <trkpt lat="45.46924" lon="6.90662">
        <ele>2094</ele>
        <time>2019-08-17T02:24:29Z</time>
      </trkpt>
      <trkpt lat="45.46939" lon="6.90657">
        <ele>2095</ele>
        <time>2019-08-17T02:24:49Z</time>
      </trkpt>
      <trkpt lat="45.46957" lon="6.90659">
        <ele>2095</ele>
        <time>2019-08-17T02:25:13Z</time>
      </trkpt>
      <trkpt lat="45.46994" lon="6.90681">
        <ele>2094</ele>
        <time>2019-08-17T02:26:07Z</time>
      </trkpt>
      <trkpt lat="45.47003" lon="6.90692">
        <ele>2093</ele>
        <time>2019-08-17T02:26:23Z</time>
      </trkpt>
      <trkpt lat="45.47001" lon="6.90712">
        <ele>2092</ele>
        <time>2019-08-17T02:26:42Z</time>
      </trkpt>
      <trkpt lat="45.46991" lon="6.90717">
        <ele>2091</ele>
        <time>2019-08-17T02:26:56Z</time>
      </trkpt>
      <trkpt lat="45.46993" lon="6.90724">
        <ele>2091</ele>
        <time>2019-08-17T02:27:03Z</time>
      </trkpt>
      <trkpt lat="45.46994" lon="6.90731">
        <ele>2090</ele>
        <time>2019-08-17T02:27:10Z</time>
      </trkpt>
      <trkpt lat="45.46989" lon="6.90731">
        <ele>2091</ele>
        <time>2019-08-17T02:27:16Z</time>
      </trkpt>
      <trkpt lat="45.46985" lon="6.90735">
        <ele>2090</ele>
        <time>2019-08-17T02:27:23Z</time>
      </trkpt>
      <trkpt lat="45.46983" lon="6.90741">
        <ele>2090</ele>
        <time>2019-08-17T02:27:29Z</time>
      </trkpt>
      <trkpt lat="45.46983" lon="6.90747">
        <ele>2090</ele>
        <time>2019-08-17T02:27:35Z</time>
      </trkpt>
      <trkpt lat="45.46983" lon="6.90752">
        <ele>2089</ele>
        <time>2019-08-17T02:27:39Z</time>
      </trkpt>
      <trkpt lat="45.46986" lon="6.90757">
        <ele>2090</ele>
        <time>2019-08-17T02:27:45Z</time>
      </trkpt>
      <trkpt lat="45.4699" lon="6.9076">
        <ele>2089</ele>
        <time>2019-08-17T02:27:51Z</time>
      </trkpt>
      <trkpt lat="45.46989" lon="6.90767">
        <ele>2090</ele>
        <time>2019-08-17T02:27:58Z</time>
      </trkpt>
      <trkpt lat="45.46985" lon="6.90779">
        <ele>2090</ele>
        <time>2019-08-17T02:28:11Z</time>
      </trkpt>
      <trkpt lat="45.46979" lon="6.90788">
        <ele>2091</ele>
        <time>2019-08-17T02:28:22Z</time>
      </trkpt>
      <trkpt lat="45.46965" lon="6.90796">
        <ele>2092</ele>
        <time>2019-08-17T02:28:42Z</time>
      </trkpt>
      <trkpt lat="45.46945" lon="6.90779">
        <ele>2092</ele>
        <time>2019-08-17T02:29:13Z</time>
      </trkpt>
      <trkpt lat="45.46926" lon="6.90762">
        <ele>2092</ele>
        <time>2019-08-17T02:29:43Z</time>
      </trkpt>
      <trkpt lat="45.46919" lon="6.90759">
        <ele>2092</ele>
        <time>2019-08-17T02:29:53Z</time>
      </trkpt>
      <trkpt lat="45.46905" lon="6.9076">
        <ele>2091</ele>
        <time>2019-08-17T02:30:12Z</time>
      </trkpt>
      <trkpt lat="45.46897" lon="6.90767">
        <ele>2092</ele>
        <time>2019-08-17T02:30:24Z</time>
      </trkpt>
      <trkpt lat="45.46879" lon="6.90788">
        <ele>2092</ele>
        <time>2019-08-17T02:30:55Z</time>
      </trkpt>
      <trkpt lat="45.46875" lon="6.90794">
        <ele>2092</ele>
        <time>2019-08-17T02:31:03Z</time>
      </trkpt>
      <trkpt lat="45.46857" lon="6.90835">
        <ele>2093</ele>
        <time>2019-08-17T02:31:48Z</time>
      </trkpt>
      <trkpt lat="45.46838" lon="6.90875">
        <ele>2095</ele>
        <time>2019-08-17T02:32:34Z</time>
      </trkpt>
      <trkpt lat="45.46819" lon="6.90914">
        <ele>2097</ele>
        <time>2019-08-17T02:33:18Z</time>
      </trkpt>
      <trkpt lat="45.46802" lon="6.90949">
        <ele>2098</ele>
        <time>2019-08-17T02:33:58Z</time>
      </trkpt>
      <trkpt lat="45.46788" lon="6.90974">
        <ele>2099</ele>
        <time>2019-08-17T02:34:28Z</time>
      </trkpt>
      <trkpt lat="45.46774" lon="6.90999">
        <ele>2100</ele>
        <time>2019-08-17T02:34:58Z</time>
      </trkpt>
      <trkpt lat="45.46761" lon="6.90983">
        <ele>2097</ele>
        <time>2019-08-17T02:35:21Z</time>
      </trkpt>
      <trkpt lat="45.46753" lon="6.90981">
        <ele>2096</ele>
        <time>2019-08-17T02:35:31Z</time>
      </trkpt>
      <trkpt lat="45.46738" lon="6.90969">
        <ele>2096</ele>
        <time>2019-08-17T02:35:54Z</time>
      </trkpt>
      <trkpt lat="45.46714" lon="6.90943">
        <ele>2094</ele>
        <time>2019-08-17T02:36:35Z</time>
      </trkpt>
      <trkpt lat="45.46696" lon="6.90926">
        <ele>2093</ele>
        <time>2019-08-17T02:37:03Z</time>
      </trkpt>
      <trkpt lat="45.46675" lon="6.90912">
        <ele>2092</ele>
        <time>2019-08-17T02:37:34Z</time>
      </trkpt>
      <trkpt lat="45.46654" lon="6.90898">
        <ele>2092</ele>
        <time>2019-08-17T02:38:05Z</time>
      </trkpt>
      <trkpt lat="45.46631" lon="6.90889">
        <ele>2092</ele>
        <time>2019-08-17T02:38:37Z</time>
      </trkpt>
      <trkpt lat="45.46596" lon="6.90876">
        <ele>2092</ele>
        <time>2019-08-17T02:39:25Z</time>
      </trkpt>
      <trkpt lat="45.46585" lon="6.90883">
        <ele>2093</ele>
        <time>2019-08-17T02:39:41Z</time>
      </trkpt>
      <trkpt lat="45.46569" lon="6.90922">
        <ele>2098</ele>
        <time>2019-08-17T02:40:24Z</time>
      </trkpt>
      <trkpt lat="45.46558" lon="6.90931">
        <ele>2100</ele>
        <time>2019-08-17T02:40:41Z</time>
      </trkpt>
      <trkpt lat="45.46525" lon="6.90924">
        <ele>2100</ele>
        <time>2019-08-17T02:41:25Z</time>
      </trkpt>
      <trkpt lat="45.46496" lon="6.90912">
        <ele>2099</ele>
        <time>2019-08-17T02:42:06Z</time>
      </trkpt>
      <trkpt lat="45.46469" lon="6.90893">
        <ele>2103</ele>
        <time>2019-08-17T02:42:46Z</time>
      </trkpt>
      <trkpt lat="45.46453" lon="6.90871">
        <ele>2103</ele>
        <time>2019-08-17T02:43:15Z</time>
      </trkpt>
      <trkpt lat="45.46438" lon="6.90847">
        <ele>2100</ele>
        <time>2019-08-17T02:43:45Z</time>
      </trkpt>
      <trkpt lat="45.46417" lon="6.90824">
        <ele>2098</ele>
        <time>2019-08-17T02:44:21Z</time>
      </trkpt>
      <trkpt lat="45.46406" lon="6.90786">
        <ele>2098</ele>
        <time>2019-08-17T02:44:59Z</time>
      </trkpt>
      <trkpt lat="45.46393" lon="6.90751">
        <ele>2097</ele>
        <time>2019-08-17T02:45:36Z</time>
      </trkpt>
      <trkpt lat="45.46389" lon="6.90719">
        <ele>2095</ele>
        <time>2019-08-17T02:46:07Z</time>
      </trkpt>
      <trkpt lat="45.46398" lon="6.9066">
        <ele>2088</ele>
        <time>2019-08-17T02:47:03Z</time>
      </trkpt>
      <trkpt lat="45.46399" lon="6.90657">
        <ele>2087</ele>
        <time>2019-08-17T02:47:06Z</time>
      </trkpt>
      <trkpt lat="45.46416" lon="6.90623">
        <ele>2085</ele>
        <time>2019-08-17T02:47:45Z</time>
      </trkpt>
      <trkpt lat="45.4643" lon="6.90583">
        <ele>2085</ele>
        <time>2019-08-17T02:48:27Z</time>
      </trkpt>
      <trkpt lat="45.46436" lon="6.90557">
        <ele>2085</ele>
        <time>2019-08-17T02:48:53Z</time>
      </trkpt>
      <trkpt lat="45.46437" lon="6.90536">
        <ele>2085</ele>
        <time>2019-08-17T02:49:13Z</time>
      </trkpt>
      <trkpt lat="45.46429" lon="6.90527">
        <ele>2085</ele>
        <time>2019-08-17T02:49:26Z</time>
      </trkpt>
      <trkpt lat="45.46418" lon="6.90521">
        <ele>2085</ele>
        <time>2019-08-17T02:49:42Z</time>
      </trkpt>
      <trkpt lat="45.46392" lon="6.9051">
        <ele>2085</ele>
        <time>2019-08-17T02:50:18Z</time>
      </trkpt>
      <trkpt lat="45.46375" lon="6.90492">
        <ele>2085</ele>
        <time>2019-08-17T02:50:46Z</time>
      </trkpt>
      <trkpt lat="45.46365" lon="6.90444">
        <ele>2085</ele>
        <time>2019-08-17T02:51:33Z</time>
      </trkpt>
      <trkpt lat="45.46357" lon="6.90414">
        <ele>2085</ele>
        <time>2019-08-17T02:52:03Z</time>
      </trkpt>
      <trkpt lat="45.46357" lon="6.90385">
        <ele>2085</ele>
        <time>2019-08-17T02:52:30Z</time>
      </trkpt>
      <trkpt lat="45.46357" lon="6.90348">
        <ele>2085</ele>
        <time>2019-08-17T02:53:05Z</time>
      </trkpt>
      <trkpt lat="45.4635" lon="6.90321">
        <ele>2085</ele>
        <time>2019-08-17T02:53:32Z</time>
      </trkpt>
      <trkpt lat="45.46344" lon="6.90299">
        <ele>2085</ele>
        <time>2019-08-17T02:53:54Z</time>
      </trkpt>
      <trkpt lat="45.46336" lon="6.90261">
        <ele>2085</ele>
        <time>2019-08-17T02:54:31Z</time>
      </trkpt>
      <trkpt lat="45.46329" lon="6.90234">
        <ele>2085</ele>
        <time>2019-08-17T02:54:58Z</time>
      </trkpt>
      <trkpt lat="45.46324" lon="6.90218">
        <ele>2085</ele>
        <time>2019-08-17T02:55:15Z</time>
      </trkpt>
      <trkpt lat="45.46324" lon="6.9021">
        <ele>2085</ele>
        <time>2019-08-17T02:55:22Z</time>
      </trkpt>
      <trkpt lat="45.46324" lon="6.90206">
        <ele>2085</ele>
        <time>2019-08-17T02:55:26Z</time>
      </trkpt>
      <trkpt lat="45.46318" lon="6.90195">
        <ele>2086</ele>
        <time>2019-08-17T02:55:39Z</time>
      </trkpt>
      <trkpt lat="45.46305" lon="6.90182">
        <ele>2086</ele>
        <time>2019-08-17T02:56:00Z</time>
      </trkpt>
      <trkpt lat="45.46293" lon="6.90159">
        <ele>2087</ele>
        <time>2019-08-17T02:56:27Z</time>
      </trkpt>
      <trkpt lat="45.46292" lon="6.90124">
        <ele>2087</ele>
        <time>2019-08-17T02:57:00Z</time>
      </trkpt>
      <trkpt lat="45.46294" lon="6.90105">
        <ele>2087</ele>
        <time>2019-08-17T02:57:18Z</time>
      </trkpt>
      <trkpt lat="45.46283" lon="6.90092">
        <ele>2088</ele>
        <time>2019-08-17T02:57:37Z</time>
      </trkpt>
      <trkpt lat="45.46301" lon="6.90077">
        <ele>2087</ele>
        <time>2019-08-17T02:58:05Z</time>
      </trkpt>
      <trkpt lat="45.46314" lon="6.90057">
        <ele>2088</ele>
        <time>2019-08-17T02:58:30Z</time>
      </trkpt>
      <trkpt lat="45.46346" lon="6.89994">
        <ele>2090</ele>
        <time>2019-08-17T02:59:43Z</time>
      </trkpt>
      <trkpt lat="45.46383" lon="6.89953">
        <ele>2091</ele>
        <time>2019-08-17T03:00:45Z</time>
      </trkpt>
      <trkpt lat="45.46437" lon="6.89923">
        <ele>2090</ele>
        <time>2019-08-17T03:02:03Z</time>
      </trkpt>
      <trkpt lat="45.46454" lon="6.89894">
        <ele>2093</ele>
        <time>2019-08-17T03:02:38Z</time>
      </trkpt>
      <trkpt lat="45.46476" lon="6.89878">
        <ele>2096</ele>
        <time>2019-08-17T03:03:11Z</time>
      </trkpt>
      <trkpt lat="45.46502" lon="6.8988">
        <ele>2096</ele>
        <time>2019-08-17T03:03:46Z</time>
      </trkpt>
      <trkpt lat="45.46541" lon="6.89894">
        <ele>2097</ele>
        <time>2019-08-17T03:04:39Z</time>
      </trkpt>
      <trkpt lat="45.46571" lon="6.89924">
        <ele>2095</ele>
        <time>2019-08-17T03:05:28Z</time>
      </trkpt>
      <trkpt lat="45.46587" lon="6.89962">
        <ele>2092</ele>
        <time>2019-08-17T03:06:10Z</time>
      </trkpt>
      <trkpt lat="45.46603" lon="6.89968">
        <ele>2094</ele>
        <time>2019-08-17T03:06:32Z</time>
      </trkpt>
      <trkpt lat="45.46604" lon="6.89967">
        <ele>2094</ele>
        <time>2019-08-17T03:06:34Z</time>
      </trkpt>
      <trkpt lat="45.46588" lon="6.89933">
        <ele>2096</ele>
        <time>2019-08-17T03:07:12Z</time>
      </trkpt>
      <trkpt lat="45.46569" lon="6.89907">
        <ele>2098</ele>
        <time>2019-08-17T03:07:47Z</time>
      </trkpt>
      <trkpt lat="45.46546" lon="6.89886">
        <ele>2100</ele>
        <time>2019-08-17T03:08:23Z</time>
      </trkpt>
      <trkpt lat="45.46511" lon="6.89871">
        <ele>2099</ele>
        <time>2019-08-17T03:09:12Z</time>
      </trkpt>
      <trkpt lat="45.46477" lon="6.89863">
        <ele>2099</ele>
        <time>2019-08-17T03:09:58Z</time>
      </trkpt>
      <trkpt lat="45.4644" lon="6.89864">
        <ele>2098</ele>
        <time>2019-08-17T03:10:48Z</time>
      </trkpt>
      <trkpt lat="45.46424" lon="6.89868">
        <ele>2097</ele>
        <time>2019-08-17T03:11:09Z</time>
      </trkpt>
      <trkpt lat="45.46393" lon="6.89879">
        <ele>2097</ele>
        <time>2019-08-17T03:11:52Z</time>
      </trkpt>
      <trkpt lat="45.46365" lon="6.89889">
        <ele>2097</ele>
        <time>2019-08-17T03:12:30Z</time>
      </trkpt>
      <trkpt lat="45.46309" lon="6.89896">
        <ele>2098</ele>
        <time>2019-08-17T03:13:45Z</time>
      </trkpt>
      <trkpt lat="45.46296" lon="6.89899">
        <ele>2098</ele>
        <time>2019-08-17T03:14:03Z</time>
      </trkpt>
      <trkpt lat="45.46282" lon="6.89907">
        <ele>2098</ele>
        <time>2019-08-17T03:14:23Z</time>
      </trkpt>
      <trkpt lat="45.46265" lon="6.89923">
        <ele>2097</ele>
        <time>2019-08-17T03:14:50Z</time>
      </trkpt>
      <trkpt lat="45.46242" lon="6.89948">
        <ele>2096</ele>
        <time>2019-08-17T03:15:29Z</time>
      </trkpt>
      <trkpt lat="45.46219" lon="6.89973">
        <ele>2094</ele>
        <time>2019-08-17T03:16:08Z</time>
      </trkpt>
      <trkpt lat="45.4619" lon="6.90006">
        <ele>2091</ele>
        <time>2019-08-17T03:16:57Z</time>
      </trkpt>
      <trkpt lat="45.46161" lon="6.90038">
        <ele>2091</ele>
        <time>2019-08-17T03:17:46Z</time>
      </trkpt>
      <trkpt lat="45.46147" lon="6.90047">
        <ele>2092</ele>
        <time>2019-08-17T03:18:06Z</time>
      </trkpt>
      <trkpt lat="45.46124" lon="6.90056">
        <ele>2093</ele>
        <time>2019-08-17T03:18:38Z</time>
      </trkpt>
      <trkpt lat="45.46112" lon="6.90057">
        <ele>2094</ele>
        <time>2019-08-17T03:18:54Z</time>
      </trkpt>
      <trkpt lat="45.46095" lon="6.90053">
        <ele>2095</ele>
        <time>2019-08-17T03:19:17Z</time>
      </trkpt>
      <trkpt lat="45.46085" lon="6.90049">
        <ele>2095</ele>
        <time>2019-08-17T03:19:31Z</time>
      </trkpt>
      <trkpt lat="45.46069" lon="6.9004">
        <ele>2096</ele>
        <time>2019-08-17T03:19:54Z</time>
      </trkpt>
      <trkpt lat="45.46042" lon="6.9002">
        <ele>2097</ele>
        <time>2019-08-17T03:20:35Z</time>
      </trkpt>
      <trkpt lat="45.46037" lon="6.90015">
        <ele>2097</ele>
        <time>2019-08-17T03:20:43Z</time>
      </trkpt>
      <trkpt lat="45.4598" lon="6.89971">
        <ele>2100</ele>
        <time>2019-08-17T03:22:09Z</time>
      </trkpt>
      <trkpt lat="45.45969" lon="6.89963">
        <ele>2101</ele>
        <time>2019-08-17T03:22:26Z</time>
      </trkpt>
      <trkpt lat="45.45933" lon="6.89939">
        <ele>2103</ele>
        <time>2019-08-17T03:23:19Z</time>
      </trkpt>
      <trkpt lat="45.45916" lon="6.89929">
        <ele>2103</ele>
        <time>2019-08-17T03:23:43Z</time>
      </trkpt>
      <trkpt lat="45.45892" lon="6.89918">
        <ele>2104</ele>
        <time>2019-08-17T03:24:17Z</time>
      </trkpt>
      <trkpt lat="45.45849" lon="6.89907">
        <ele>2107</ele>
        <time>2019-08-17T03:25:15Z</time>
      </trkpt>
      <trkpt lat="45.45848" lon="6.89912">
        <ele>2107</ele>
        <time>2019-08-17T03:25:20Z</time>
      </trkpt>
      <trkpt lat="45.45845" lon="6.89916">
        <ele>2107</ele>
        <time>2019-08-17T03:25:26Z</time>
      </trkpt>
      <trkpt lat="45.45842" lon="6.89918">
        <ele>2108</ele>
        <time>2019-08-17T03:25:30Z</time>
      </trkpt>
      <trkpt lat="45.45836" lon="6.89919">
        <ele>2108</ele>
        <time>2019-08-17T03:25:38Z</time>
      </trkpt>
      <trkpt lat="45.45833" lon="6.89931">
        <ele>2110</ele>
        <time>2019-08-17T03:25:50Z</time>
      </trkpt>
      <trkpt lat="45.45833" lon="6.89958">
        <ele>2115</ele>
        <time>2019-08-17T03:26:15Z</time>
      </trkpt>
      <trkpt lat="45.4584" lon="6.89975">
        <ele>2117</ele>
        <time>2019-08-17T03:26:34Z</time>
      </trkpt>
      <trkpt lat="45.4585" lon="6.89984">
        <ele>2117</ele>
        <time>2019-08-17T03:26:50Z</time>
      </trkpt>
      <trkpt lat="45.45872" lon="6.89996">
        <ele>2115</ele>
        <time>2019-08-17T03:27:21Z</time>
      </trkpt>
      <trkpt lat="45.45889" lon="6.90008">
        <ele>2114</ele>
        <time>2019-08-17T03:27:46Z</time>
      </trkpt>
      <trkpt lat="45.45904" lon="6.90025">
        <ele>2114</ele>
        <time>2019-08-17T03:28:12Z</time>
      </trkpt>
      <trkpt lat="45.45915" lon="6.90044">
        <ele>2115</ele>
        <time>2019-08-17T03:28:35Z</time>
      </trkpt>
      <trkpt lat="45.45923" lon="6.90067">
        <ele>2116</ele>
        <time>2019-08-17T03:28:59Z</time>
      </trkpt>
      <trkpt lat="45.45927" lon="6.90091">
        <ele>2118</ele>
        <time>2019-08-17T03:29:22Z</time>
      </trkpt>
      <trkpt lat="45.45928" lon="6.90117">
        <ele>2117</ele>
        <time>2019-08-17T03:29:47Z</time>
      </trkpt>
      <trkpt lat="45.45924" lon="6.90139">
        <ele>2118</ele>
        <time>2019-08-17T03:30:08Z</time>
      </trkpt>
      <trkpt lat="45.45917" lon="6.90157">
        <ele>2119</ele>
        <time>2019-08-17T03:30:27Z</time>
      </trkpt>
      <trkpt lat="45.45906" lon="6.90171">
        <ele>2121</ele>
        <time>2019-08-17T03:30:47Z</time>
      </trkpt>
      <trkpt lat="45.45895" lon="6.90179">
        <ele>2123</ele>
        <time>2019-08-17T03:31:03Z</time>
      </trkpt>
      <trkpt lat="45.4588" lon="6.90184">
        <ele>2125</ele>
        <time>2019-08-17T03:31:24Z</time>
      </trkpt>
      <trkpt lat="45.45869" lon="6.90183">
        <ele>2127</ele>
        <time>2019-08-17T03:31:38Z</time>
      </trkpt>
      <trkpt lat="45.45856" lon="6.90179">
        <ele>2130</ele>
        <time>2019-08-17T03:31:56Z</time>
      </trkpt>
      <trkpt lat="45.45832" lon="6.90162">
        <ele>2134</ele>
        <time>2019-08-17T03:32:32Z</time>
      </trkpt>
      <trkpt lat="45.45817" lon="6.90146">
        <ele>2135</ele>
        <time>2019-08-17T03:32:57Z</time>
      </trkpt>
      <trkpt lat="45.45796" lon="6.90185">
        <ele>2134</ele>
        <time>2019-08-17T03:33:43Z</time>
      </trkpt>
      <trkpt lat="45.45775" lon="6.90207">
        <ele>2135</ele>
        <time>2019-08-17T03:34:18Z</time>
      </trkpt>
      <trkpt lat="45.45768" lon="6.90209">
        <ele>2136</ele>
        <time>2019-08-17T03:34:27Z</time>
      </trkpt>
      <trkpt lat="45.45757" lon="6.90212">
        <ele>2136</ele>
        <time>2019-08-17T03:34:42Z</time>
      </trkpt>
      <trkpt lat="45.45737" lon="6.90212">
        <ele>2137</ele>
        <time>2019-08-17T03:35:09Z</time>
      </trkpt>
      <trkpt lat="45.45721" lon="6.90212">
        <ele>2138</ele>
        <time>2019-08-17T03:35:30Z</time>
      </trkpt>
      <trkpt lat="45.45715" lon="6.90221">
        <ele>2138</ele>
        <time>2019-08-17T03:35:42Z</time>
      </trkpt>
      <trkpt lat="45.45702" lon="6.90228">
        <ele>2139</ele>
        <time>2019-08-17T03:36:00Z</time>
      </trkpt>
      <trkpt lat="45.45692" lon="6.90232">
        <ele>2140</ele>
        <time>2019-08-17T03:36:14Z</time>
      </trkpt>
      <trkpt lat="45.4568" lon="6.90237">
        <ele>2140</ele>
        <time>2019-08-17T03:36:31Z</time>
      </trkpt>
      <trkpt lat="45.45662" lon="6.90236">
        <ele>2141</ele>
        <time>2019-08-17T03:36:55Z</time>
      </trkpt>
      <trkpt lat="45.4564" lon="6.90234">
        <ele>2141</ele>
        <time>2019-08-17T03:37:24Z</time>
      </trkpt>
      <trkpt lat="45.45615" lon="6.90231">
        <ele>2141</ele>
        <time>2019-08-17T03:37:58Z</time>
      </trkpt>
      <trkpt lat="45.45597" lon="6.90231">
        <ele>2142</ele>
        <time>2019-08-17T03:38:22Z</time>
      </trkpt>
      <trkpt lat="45.45576" lon="6.90234">
        <ele>2143</ele>
        <time>2019-08-17T03:38:50Z</time>
      </trkpt>
      <trkpt lat="45.45524" lon="6.90237">
        <ele>2148</ele>
        <time>2019-08-17T03:40:00Z</time>
      </trkpt>
      <trkpt lat="45.45497" lon="6.90238">
        <ele>2151</ele>
        <time>2019-08-17T03:40:36Z</time>
      </trkpt>
      <trkpt lat="45.45452" lon="6.90252">
        <ele>2155</ele>
        <time>2019-08-17T03:41:37Z</time>
      </trkpt>
      <trkpt lat="45.45425" lon="6.90259">
        <ele>2158</ele>
        <time>2019-08-17T03:42:14Z</time>
      </trkpt>
      <trkpt lat="45.4535" lon="6.90301">
        <ele>2169</ele>
        <time>2019-08-17T03:44:01Z</time>
      </trkpt>
      <trkpt lat="45.45316" lon="6.9032">
        <ele>2174</ele>
        <time>2019-08-17T03:44:50Z</time>
      </trkpt>
      <trkpt lat="45.45282" lon="6.90354">
        <ele>2182</ele>
        <time>2019-08-17T03:45:45Z</time>
      </trkpt>
      <trkpt lat="45.45248" lon="6.90389">
        <ele>2189</ele>
        <time>2019-08-17T03:46:41Z</time>
      </trkpt>
      <trkpt lat="45.45213" lon="6.90423">
        <ele>2196</ele>
        <time>2019-08-17T03:47:38Z</time>
      </trkpt>
      <trkpt lat="45.45179" lon="6.90457">
        <ele>2201</ele>
        <time>2019-08-17T03:48:33Z</time>
      </trkpt>
      <trkpt lat="45.45145" lon="6.90492">
        <ele>2204</ele>
        <time>2019-08-17T03:49:29Z</time>
      </trkpt>
      <trkpt lat="45.4511" lon="6.90526">
        <ele>2204</ele>
        <time>2019-08-17T03:50:26Z</time>
      </trkpt>
      <trkpt lat="45.451" lon="6.90572">
        <ele>2208</ele>
        <time>2019-08-17T03:51:11Z</time>
      </trkpt>
      <trkpt lat="45.45092" lon="6.90597">
        <ele>2211</ele>
        <time>2019-08-17T03:51:37Z</time>
      </trkpt>
      <trkpt lat="45.45082" lon="6.90635">
        <ele>2216</ele>
        <time>2019-08-17T03:52:15Z</time>
      </trkpt>
      <trkpt lat="45.45062" lon="6.90685">
        <ele>2222</ele>
        <time>2019-08-17T03:53:08Z</time>
      </trkpt>
      <trkpt lat="45.44999" lon="6.90831">
        <ele>2247</ele>
        <time>2019-08-17T03:55:49Z</time>
      </trkpt>
      <trkpt lat="45.44978" lon="6.90879">
        <ele>2254</ele>
        <time>2019-08-17T03:56:42Z</time>
      </trkpt>
      <trkpt lat="45.44849" lon="6.91168">
        <ele>2291</ele>
        <time>2019-08-17T04:02:03Z</time>
      </trkpt>
      <trkpt lat="45.44828" lon="6.91216">
        <ele>2297</ele>
        <time>2019-08-17T04:02:56Z</time>
      </trkpt>
      <trkpt lat="45.44827" lon="6.91243">
        <ele>2304</ele>
        <time>2019-08-17T04:03:21Z</time>
      </trkpt>
      <trkpt lat="45.44812" lon="6.91274">
        <ele>2304</ele>
        <time>2019-08-17T04:03:56Z</time>
      </trkpt>
      <trkpt lat="45.44797" lon="6.91305">
        <ele>2305</ele>
        <time>2019-08-17T04:04:31Z</time>
      </trkpt>
      <trkpt lat="45.44796" lon="6.91333">
        <ele>2310</ele>
        <time>2019-08-17T04:04:58Z</time>
      </trkpt>
      <trkpt lat="45.44772" lon="6.91371">
        <ele>2309</ele>
        <time>2019-08-17T04:05:45Z</time>
      </trkpt>
      <trkpt lat="45.44765" lon="6.91416">
        <ele>2315</ele>
        <time>2019-08-17T04:06:29Z</time>
      </trkpt>
      <trkpt lat="45.44757" lon="6.9146">
        <ele>2324</ele>
        <time>2019-08-17T04:07:11Z</time>
      </trkpt>
      <trkpt lat="45.44734" lon="6.91481">
        <ele>2320</ele>
        <time>2019-08-17T04:07:48Z</time>
      </trkpt>
      <trkpt lat="45.44711" lon="6.91502">
        <ele>2317</ele>
        <time>2019-08-17T04:08:24Z</time>
      </trkpt>
      <trkpt lat="45.44708" lon="6.91521">
        <ele>2324</ele>
        <time>2019-08-17T04:08:42Z</time>
      </trkpt>
      <trkpt lat="45.44689" lon="6.91546">
        <ele>2328</ele>
        <time>2019-08-17T04:09:17Z</time>
      </trkpt>
      <trkpt lat="45.4469" lon="6.91571">
        <ele>2340</ele>
        <time>2019-08-17T04:09:40Z</time>
      </trkpt>
      <trkpt lat="45.44685" lon="6.91583">
        <ele>2344</ele>
        <time>2019-08-17T04:09:53Z</time>
      </trkpt>
      <trkpt lat="45.44652" lon="6.9161">
        <ele>2343</ele>
        <time>2019-08-17T04:10:44Z</time>
      </trkpt>
      <trkpt lat="45.44619" lon="6.91637">
        <ele>2344</ele>
        <time>2019-08-17T04:11:35Z</time>
      </trkpt>
      <trkpt lat="45.44606" lon="6.91677">
        <ele>2358</ele>
        <time>2019-08-17T04:12:16Z</time>
      </trkpt>
      <trkpt lat="45.44616" lon="6.91697">
        <ele>2369</ele>
        <time>2019-08-17T04:12:39Z</time>
      </trkpt>
      <trkpt lat="45.44609" lon="6.9171">
        <ele>2373</ele>
        <time>2019-08-17T04:12:54Z</time>
      </trkpt>
      <trkpt lat="45.44583" lon="6.91732">
        <ele>2378</ele>
        <time>2019-08-17T04:13:35Z</time>
      </trkpt>
      <trkpt lat="45.4457" lon="6.91734">
        <ele>2378</ele>
        <time>2019-08-17T04:13:52Z</time>
      </trkpt>
      <trkpt lat="45.4455" lon="6.91747">
        <ele>2384</ele>
        <time>2019-08-17T04:14:22Z</time>
      </trkpt>
      <trkpt lat="45.44521" lon="6.91775">
        <ele>2393</ele>
        <time>2019-08-17T04:15:08Z</time>
      </trkpt>
      <trkpt lat="45.44491" lon="6.91817">
        <ele>2404</ele>
        <time>2019-08-17T04:16:04Z</time>
      </trkpt>
      <trkpt lat="45.44475" lon="6.91855">
        <ele>2415</ele>
        <time>2019-08-17T04:16:46Z</time>
      </trkpt>
      <trkpt lat="45.44458" lon="6.91893">
        <ele>2421</ele>
        <time>2019-08-17T04:17:28Z</time>
      </trkpt>
      <trkpt lat="45.44403" lon="6.91995">
        <ele>2430</ele>
        <time>2019-08-17T04:19:29Z</time>
      </trkpt>
      <trkpt lat="45.44398" lon="6.92013">
        <ele>2433</ele>
        <time>2019-08-17T04:19:47Z</time>
      </trkpt>
      <trkpt lat="45.44377" lon="6.92018">
        <ele>2435</ele>
        <time>2019-08-17T04:20:15Z</time>
      </trkpt>
      <trkpt lat="45.44369" lon="6.9204">
        <ele>2438</ele>
        <time>2019-08-17T04:20:38Z</time>
      </trkpt>
      <trkpt lat="45.44336" lon="6.92048">
        <ele>2441</ele>
        <time>2019-08-17T04:21:23Z</time>
      </trkpt>
      <trkpt lat="45.44334" lon="6.92075">
        <ele>2444</ele>
        <time>2019-08-17T04:21:48Z</time>
      </trkpt>
      <trkpt lat="45.44315" lon="6.92079">
        <ele>2450</ele>
        <time>2019-08-17T04:22:14Z</time>
      </trkpt>
      <trkpt lat="45.44314" lon="6.92091">
        <ele>2451</ele>
        <time>2019-08-17T04:22:25Z</time>
      </trkpt>
      <trkpt lat="45.44324" lon="6.9211">
        <ele>2450</ele>
        <time>2019-08-17T04:22:48Z</time>
      </trkpt>
      <trkpt lat="45.44322" lon="6.92118">
        <ele>2452</ele>
        <time>2019-08-17T04:22:56Z</time>
      </trkpt>
      <trkpt lat="45.44225" lon="6.92165">
        <ele>2475</ele>
        <time>2019-08-17T04:25:12Z</time>
      </trkpt>
      <trkpt lat="45.44193" lon="6.9218">
        <ele>2483</ele>
        <time>2019-08-17T04:25:57Z</time>
      </trkpt>
      <trkpt lat="45.44167" lon="6.92202">
        <ele>2487</ele>
        <time>2019-08-17T04:26:38Z</time>
      </trkpt>
      <trkpt lat="45.44124" lon="6.92217">
        <ele>2494</ele>
        <time>2019-08-17T04:27:37Z</time>
      </trkpt>
      <trkpt lat="45.44111" lon="6.92212">
        <ele>2497</ele>
        <time>2019-08-17T04:27:55Z</time>
      </trkpt>
      <trkpt lat="45.44105" lon="6.92205">
        <ele>2498</ele>
        <time>2019-08-17T04:28:05Z</time>
      </trkpt>
      <trkpt lat="45.4409" lon="6.92187">
        <ele>2503</ele>
        <time>2019-08-17T04:28:31Z</time>
      </trkpt>
      <trkpt lat="45.44075" lon="6.92182">
        <ele>2506</ele>
        <time>2019-08-17T04:28:52Z</time>
      </trkpt>
      <trkpt lat="45.44047" lon="6.9219">
        <ele>2510</ele>
        <time>2019-08-17T04:29:30Z</time>
      </trkpt>
      <trkpt lat="45.44037" lon="6.92186">
        <ele>2512</ele>
        <time>2019-08-17T04:29:44Z</time>
      </trkpt>
      <trkpt lat="45.44034" lon="6.9217">
        <ele>2513</ele>
        <time>2019-08-17T04:29:59Z</time>
      </trkpt>
      <trkpt lat="45.44019" lon="6.92166">
        <ele>2516</ele>
        <time>2019-08-17T04:30:20Z</time>
      </trkpt>
      <trkpt lat="45.43985" lon="6.92139">
        <ele>2521</ele>
        <time>2019-08-17T04:31:11Z</time>
      </trkpt>
      <trkpt lat="45.43871" lon="6.92013">
        <ele>2533</ele>
        <time>2019-08-17T04:34:24Z</time>
      </trkpt>
      <trkpt lat="45.43842" lon="6.91981">
        <ele>2538</ele>
        <time>2019-08-17T04:35:13Z</time>
      </trkpt>
      <trkpt lat="45.43818" lon="6.91967">
        <ele>2541</ele>
        <time>2019-08-17T04:35:48Z</time>
      </trkpt>
      <trkpt lat="45.43809" lon="6.91961">
        <ele>2542</ele>
        <time>2019-08-17T04:36:01Z</time>
      </trkpt>
      <trkpt lat="45.43797" lon="6.91939">
        <ele>2544</ele>
        <time>2019-08-17T04:36:27Z</time>
      </trkpt>
      <trkpt lat="45.43776" lon="6.91917">
        <ele>2548</ele>
        <time>2019-08-17T04:37:02Z</time>
      </trkpt>
      <trkpt lat="45.43765" lon="6.91913">
        <ele>2549</ele>
        <time>2019-08-17T04:37:17Z</time>
      </trkpt>
      <trkpt lat="45.43758" lon="6.91896">
        <ele>2550</ele>
        <time>2019-08-17T04:37:35Z</time>
      </trkpt>
      <trkpt lat="45.43734" lon="6.91873">
        <ele>2554</ele>
        <time>2019-08-17T04:38:14Z</time>
      </trkpt>
      <trkpt lat="45.43722" lon="6.91836">
        <ele>2555</ele>
        <time>2019-08-17T04:38:52Z</time>
      </trkpt>
      <trkpt lat="45.43666" lon="6.91778">
        <ele>2555</ele>
        <time>2019-08-17T04:40:24Z</time>
      </trkpt>
      <trkpt lat="45.43638" lon="6.91749">
        <ele>2559</ele>
        <time>2019-08-17T04:41:11Z</time>
      </trkpt>
      <trkpt lat="45.43627" lon="6.91726">
        <ele>2558</ele>
        <time>2019-08-17T04:41:37Z</time>
      </trkpt>
      <trkpt lat="45.43618" lon="6.9168">
        <ele>2552</ele>
        <time>2019-08-17T04:42:21Z</time>
      </trkpt>
      <trkpt lat="45.43606" lon="6.91656">
        <ele>2552</ele>
        <time>2019-08-17T04:42:49Z</time>
      </trkpt>
      <trkpt lat="45.43587" lon="6.91632">
        <ele>2553</ele>
        <time>2019-08-17T04:43:23Z</time>
      </trkpt>
      <trkpt lat="45.43568" lon="6.91608">
        <ele>2554</ele>
        <time>2019-08-17T04:43:57Z</time>
      </trkpt>
      <trkpt lat="45.43531" lon="6.91595">
        <ele>2564</ele>
        <time>2019-08-17T04:44:48Z</time>
      </trkpt>
      <trkpt lat="45.43497" lon="6.91613">
        <ele>2578</ele>
        <time>2019-08-17T04:45:36Z</time>
      </trkpt>
      <trkpt lat="45.43429" lon="6.91593">
        <ele>2588</ele>
        <time>2019-08-17T04:47:09Z</time>
      </trkpt>
      <trkpt lat="45.43395" lon="6.91583">
        <ele>2592</ele>
        <time>2019-08-17T04:47:55Z</time>
      </trkpt>
      <trkpt lat="45.4332" lon="6.91575">
        <ele>2607</ele>
        <time>2019-08-17T04:49:35Z</time>
      </trkpt>
      <trkpt lat="45.43283" lon="6.91571">
        <ele>2613</ele>
        <time>2019-08-17T04:50:25Z</time>
      </trkpt>
      <trkpt lat="45.43208" lon="6.91562">
        <ele>2621</ele>
        <time>2019-08-17T04:52:05Z</time>
      </trkpt>
      <trkpt lat="45.43188" lon="6.91548">
        <ele>2622</ele>
        <time>2019-08-17T04:52:35Z</time>
      </trkpt>
      <trkpt lat="45.43181" lon="6.91494">
        <ele>2623</ele>
        <time>2019-08-17T04:53:26Z</time>
      </trkpt>
      <trkpt lat="45.43161" lon="6.91474">
        <ele>2629</ele>
        <time>2019-08-17T04:53:59Z</time>
      </trkpt>
      <trkpt lat="45.43141" lon="6.91453">
        <ele>2634</ele>
        <time>2019-08-17T04:54:32Z</time>
      </trkpt>
      <trkpt lat="45.43136" lon="6.91402">
        <ele>2641</ele>
        <time>2019-08-17T04:55:20Z</time>
      </trkpt>
      <trkpt lat="45.43102" lon="6.91359">
        <ele>2646</ele>
        <time>2019-08-17T04:56:21Z</time>
      </trkpt>
      <trkpt lat="45.43119" lon="6.91319">
        <ele>2653</ele>
        <time>2019-08-17T04:57:05Z</time>
      </trkpt>
      <trkpt lat="45.43106" lon="6.91306">
        <ele>2653</ele>
        <time>2019-08-17T04:57:26Z</time>
      </trkpt>
      <trkpt lat="45.43066" lon="6.91284">
        <ele>2655</ele>
        <time>2019-08-17T04:58:23Z</time>
      </trkpt>
      <trkpt lat="45.43036" lon="6.91301">
        <ele>2656</ele>
        <time>2019-08-17T04:59:06Z</time>
      </trkpt>
      <trkpt lat="45.43009" lon="6.91294">
        <ele>2658</ele>
        <time>2019-08-17T04:59:43Z</time>
      </trkpt>
      <trkpt lat="45.43008" lon="6.91274">
        <ele>2659</ele>
        <time>2019-08-17T05:00:02Z</time>
      </trkpt>
      <trkpt lat="45.42949" lon="6.9123">
        <ele>2666</ele>
        <time>2019-08-17T05:01:31Z</time>
      </trkpt>
      <trkpt lat="45.42911" lon="6.91209">
        <ele>2671</ele>
        <time>2019-08-17T05:02:25Z</time>
      </trkpt>
      <trkpt lat="45.42895" lon="6.91193">
        <ele>2675</ele>
        <time>2019-08-17T05:02:51Z</time>
      </trkpt>
      <trkpt lat="45.42869" lon="6.91156">
        <ele>2683</ele>
        <time>2019-08-17T05:03:40Z</time>
      </trkpt>
      <trkpt lat="45.42852" lon="6.91132">
        <ele>2687</ele>
        <time>2019-08-17T05:04:12Z</time>
      </trkpt>
      <trkpt lat="45.42848" lon="6.91094">
        <ele>2691</ele>
        <time>2019-08-17T05:04:48Z</time>
      </trkpt>
      <trkpt lat="45.42851" lon="6.91068">
        <ele>2693</ele>
        <time>2019-08-17T05:05:13Z</time>
      </trkpt>
      <trkpt lat="45.42839" lon="6.91035">
        <ele>2697</ele>
        <time>2019-08-17T05:05:48Z</time>
      </trkpt>
      <trkpt lat="45.42814" lon="6.91039">
        <ele>2699</ele>
        <time>2019-08-17T05:06:21Z</time>
      </trkpt>
      <trkpt lat="45.42779" lon="6.91025">
        <ele>2704</ele>
        <time>2019-08-17T05:07:10Z</time>
      </trkpt>
      <trkpt lat="45.42744" lon="6.91024">
        <ele>2708</ele>
        <time>2019-08-17T05:07:56Z</time>
      </trkpt>
      <trkpt lat="45.42709" lon="6.91036">
        <ele>2714</ele>
        <time>2019-08-17T05:08:44Z</time>
      </trkpt>
      <trkpt lat="45.42694" lon="6.91031">
        <ele>2716</ele>
        <time>2019-08-17T05:09:05Z</time>
      </trkpt>
      <trkpt lat="45.42665" lon="6.90992">
        <ele>2718</ele>
        <time>2019-08-17T05:09:58Z</time>
      </trkpt>
      <trkpt lat="45.42635" lon="6.90954">
        <ele>2723</ele>
        <time>2019-08-17T05:10:52Z</time>
      </trkpt>
      <trkpt lat="45.42577" lon="6.90878">
        <ele>2731</ele>
        <time>2019-08-17T05:12:37Z</time>
      </trkpt>
      <trkpt lat="45.42573" lon="6.90862">
        <ele>2732</ele>
        <time>2019-08-17T05:12:53Z</time>
      </trkpt>
      <trkpt lat="45.42545" lon="6.90843">
        <ele>2736</ele>
        <time>2019-08-17T05:13:34Z</time>
      </trkpt>
      <trkpt lat="45.42517" lon="6.90823">
        <ele>2739</ele>
        <time>2019-08-17T05:14:16Z</time>
      </trkpt>
      <trkpt lat="45.42484" lon="6.90833">
        <ele>2741</ele>
        <time>2019-08-17T05:15:01Z</time>
      </trkpt>
      <trkpt lat="45.42454" lon="6.90806">
        <ele>2741</ele>
        <time>2019-08-17T05:15:48Z</time>
      </trkpt>
      <trkpt lat="45.42369" lon="6.90672">
        <ele>2738</ele>
        <time>2019-08-17T05:18:38Z</time>
      </trkpt>
      <trkpt lat="45.42353" lon="6.90649">
        <ele>2739</ele>
        <time>2019-08-17T05:19:08Z</time>
      </trkpt>
      <trkpt lat="45.42337" lon="6.9064">
        <ele>2739</ele>
        <time>2019-08-17T05:19:31Z</time>
      </trkpt>
      <trkpt lat="45.42324" lon="6.9062">
        <ele>2739</ele>
        <time>2019-08-17T05:19:56Z</time>
      </trkpt>
      <trkpt lat="45.42274" lon="6.90578">
        <ele>2738</ele>
        <time>2019-08-17T05:21:14Z</time>
      </trkpt>
      <trkpt lat="45.42252" lon="6.90549">
        <ele>2738</ele>
        <time>2019-08-17T05:21:54Z</time>
      </trkpt>
      <trkpt lat="45.42239" lon="6.90518">
        <ele>2738</ele>
        <time>2019-08-17T05:22:28Z</time>
      </trkpt>
      <trkpt lat="45.42225" lon="6.90487">
        <ele>2740</ele>
        <time>2019-08-17T05:23:02Z</time>
      </trkpt>
      <trkpt lat="45.42219" lon="6.90465">
        <ele>2743</ele>
        <time>2019-08-17T05:23:24Z</time>
      </trkpt>
      <trkpt lat="45.42205" lon="6.90445">
        <ele>2743</ele>
        <time>2019-08-17T05:23:51Z</time>
      </trkpt>
      <trkpt lat="45.42151" lon="6.90411">
        <ele>2739</ele>
        <time>2019-08-17T05:25:10Z</time>
      </trkpt>
      <trkpt lat="45.42132" lon="6.90406">
        <ele>2740</ele>
        <time>2019-08-17T05:25:35Z</time>
      </trkpt>
      <trkpt lat="45.421" lon="6.90407">
        <ele>2740</ele>
        <time>2019-08-17T05:26:18Z</time>
      </trkpt>
      <trkpt lat="45.42064" lon="6.90445">
        <ele>2740</ele>
        <time>2019-08-17T05:27:18Z</time>
      </trkpt>
      <trkpt lat="45.42036" lon="6.90456">
        <ele>2742</ele>
        <time>2019-08-17T05:27:57Z</time>
      </trkpt>
      <trkpt lat="45.4201" lon="6.90452">
        <ele>2742</ele>
        <time>2019-08-17T05:28:31Z</time>
      </trkpt>
      <trkpt lat="45.41996" lon="6.90441">
        <ele>2741</ele>
        <time>2019-08-17T05:28:53Z</time>
      </trkpt>
      <trkpt lat="45.41932" lon="6.90448">
        <ele>2743</ele>
        <time>2019-08-17T05:30:18Z</time>
      </trkpt>
      <trkpt lat="45.419" lon="6.90451">
        <ele>2744</ele>
        <time>2019-08-17T05:31:01Z</time>
      </trkpt>
      <trkpt lat="45.41874" lon="6.90444">
        <ele>2743</ele>
        <time>2019-08-17T05:31:37Z</time>
      </trkpt>
      <trkpt lat="45.41818" lon="6.90395">
        <ele>2734</ele>
        <time>2019-08-17T05:33:04Z</time>
      </trkpt>
      <trkpt lat="45.41776" lon="6.90381">
        <ele>2731</ele>
        <time>2019-08-17T05:34:02Z</time>
      </trkpt>
      <trkpt lat="45.41748" lon="6.90393">
        <ele>2732</ele>
        <time>2019-08-17T05:34:41Z</time>
      </trkpt>
      <trkpt lat="45.41717" lon="6.90383">
        <ele>2724</ele>
        <time>2019-08-17T05:35:23Z</time>
      </trkpt>
      <trkpt lat="45.41689" lon="6.904">
        <ele>2724</ele>
        <time>2019-08-17T05:36:04Z</time>
      </trkpt>
      <trkpt lat="45.41666" lon="6.90407">
        <ele>2722</ele>
        <time>2019-08-17T05:36:35Z</time>
      </trkpt>
      <trkpt lat="45.41643" lon="6.90414">
        <ele>2720</ele>
        <time>2019-08-17T05:37:07Z</time>
      </trkpt>
      <trkpt lat="45.41613" lon="6.90405">
        <ele>2711</ele>
        <time>2019-08-17T05:37:48Z</time>
      </trkpt>
      <trkpt lat="45.41583" lon="6.90395">
        <ele>2703</ele>
        <time>2019-08-17T05:38:29Z</time>
      </trkpt>
      <trkpt lat="45.41569" lon="6.90428">
        <ele>2709</ele>
        <time>2019-08-17T05:39:05Z</time>
      </trkpt>
      <trkpt lat="45.41547" lon="6.90432">
        <ele>2706</ele>
        <time>2019-08-17T05:39:34Z</time>
      </trkpt>
      <trkpt lat="45.41475" lon="6.90432">
        <ele>2693</ele>
        <time>2019-08-17T05:41:10Z</time>
      </trkpt>
      <trkpt lat="45.41439" lon="6.90432">
        <ele>2686</ele>
        <time>2019-08-17T05:41:59Z</time>
      </trkpt>
      <trkpt lat="45.41406" lon="6.90422">
        <ele>2678</ele>
        <time>2019-08-17T05:42:44Z</time>
      </trkpt>
      <trkpt lat="45.4134" lon="6.904">
        <ele>2669</ele>
        <time>2019-08-17T05:44:14Z</time>
      </trkpt>
      <trkpt lat="45.41306" lon="6.9039">
        <ele>2668</ele>
        <time>2019-08-17T05:45:00Z</time>
      </trkpt>
      <trkpt lat="45.41282" lon="6.90373">
        <ele>2666</ele>
        <time>2019-08-17T05:45:36Z</time>
      </trkpt>
      <trkpt lat="45.41258" lon="6.90357">
        <ele>2663</ele>
        <time>2019-08-17T05:46:11Z</time>
      </trkpt>
      <trkpt lat="45.41208" lon="6.90285">
        <ele>2654</ele>
        <time>2019-08-17T05:47:46Z</time>
      </trkpt>
      <trkpt lat="45.41186" lon="6.90245">
        <ele>2651</ele>
        <time>2019-08-17T05:48:34Z</time>
      </trkpt>
      <trkpt lat="45.41172" lon="6.90207">
        <ele>2650</ele>
        <time>2019-08-17T05:49:14Z</time>
      </trkpt>
      <trkpt lat="45.41177" lon="6.90145">
        <ele>2647</ele>
        <time>2019-08-17T05:50:13Z</time>
      </trkpt>
      <trkpt lat="45.4117" lon="6.90113">
        <ele>2645</ele>
        <time>2019-08-17T05:50:44Z</time>
      </trkpt>
      <trkpt lat="45.41163" lon="6.9008">
        <ele>2644</ele>
        <time>2019-08-17T05:51:16Z</time>
      </trkpt>
      <trkpt lat="45.41128" lon="6.90051">
        <ele>2641</ele>
        <time>2019-08-17T05:52:10Z</time>
      </trkpt>
      <trkpt lat="45.41094" lon="6.90022">
        <ele>2641</ele>
        <time>2019-08-17T05:53:03Z</time>
      </trkpt>
      <trkpt lat="45.41055" lon="6.90016">
        <ele>2636</ele>
        <time>2019-08-17T05:53:56Z</time>
      </trkpt>
      <trkpt lat="45.41027" lon="6.90061">
        <ele>2632</ele>
        <time>2019-08-17T05:54:52Z</time>
      </trkpt>
      <trkpt lat="45.40983" lon="6.90071">
        <ele>2627</ele>
        <time>2019-08-17T05:55:51Z</time>
      </trkpt>
      <trkpt lat="45.40947" lon="6.90096">
        <ele>2623</ele>
        <time>2019-08-17T05:56:45Z</time>
      </trkpt>
      <trkpt lat="45.40933" lon="6.90099">
        <ele>2621</ele>
        <time>2019-08-17T05:57:04Z</time>
      </trkpt>
      <trkpt lat="45.40909" lon="6.90091">
        <ele>2616</ele>
        <time>2019-08-17T05:57:37Z</time>
      </trkpt>
      <trkpt lat="45.40885" lon="6.90084">
        <ele>2611</ele>
        <time>2019-08-17T05:58:09Z</time>
      </trkpt>
      <trkpt lat="45.4087" lon="6.9005">
        <ele>2604</ele>
        <time>2019-08-17T05:58:47Z</time>
      </trkpt>
      <trkpt lat="45.40873" lon="6.9003">
        <ele>2602</ele>
        <time>2019-08-17T05:59:06Z</time>
      </trkpt>
      <trkpt lat="45.40882" lon="6.90017">
        <ele>2602</ele>
        <time>2019-08-17T05:59:23Z</time>
      </trkpt>
      <trkpt lat="45.40915" lon="6.89998">
        <ele>2605</ele>
        <time>2019-08-17T06:00:11Z</time>
      </trkpt>
      <trkpt lat="45.40924" lon="6.89986">
        <ele>2607</ele>
        <time>2019-08-17T06:00:27Z</time>
      </trkpt>
      <trkpt lat="45.40907" lon="6.89975">
        <ele>2602</ele>
        <time>2019-08-17T06:00:52Z</time>
      </trkpt>
      <trkpt lat="45.40885" lon="6.89979">
        <ele>2598</ele>
        <time>2019-08-17T06:01:22Z</time>
      </trkpt>
      <trkpt lat="45.40888" lon="6.89946">
        <ele>2595</ele>
        <time>2019-08-17T06:01:53Z</time>
      </trkpt>
      <trkpt lat="45.40876" lon="6.89929">
        <ele>2590</ele>
        <time>2019-08-17T06:02:15Z</time>
      </trkpt>
      <trkpt lat="45.40873" lon="6.89918">
        <ele>2588</ele>
        <time>2019-08-17T06:02:26Z</time>
      </trkpt>
      <trkpt lat="45.40875" lon="6.89909">
        <ele>2588</ele>
        <time>2019-08-17T06:02:35Z</time>
      </trkpt>
      <trkpt lat="45.40882" lon="6.89907">
        <ele>2590</ele>
        <time>2019-08-17T06:02:45Z</time>
      </trkpt>
      <trkpt lat="45.40878" lon="6.89881">
        <ele>2587</ele>
        <time>2019-08-17T06:03:10Z</time>
      </trkpt>
      <trkpt lat="45.40869" lon="6.89863">
        <ele>2585</ele>
        <time>2019-08-17T06:03:30Z</time>
      </trkpt>
      <trkpt lat="45.4087" lon="6.89828">
        <ele>2583</ele>
        <time>2019-08-17T06:04:03Z</time>
      </trkpt>
      <trkpt lat="45.40871" lon="6.89794">
        <ele>2582</ele>
        <time>2019-08-17T06:04:35Z</time>
      </trkpt>
      <trkpt lat="45.40867" lon="6.89769">
        <ele>2580</ele>
        <time>2019-08-17T06:04:59Z</time>
      </trkpt>
      <trkpt lat="45.4086" lon="6.89751">
        <ele>2578</ele>
        <time>2019-08-17T06:05:18Z</time>
      </trkpt>
      <trkpt lat="45.40823" lon="6.89724">
        <ele>2574</ele>
        <time>2019-08-17T06:06:14Z</time>
      </trkpt>
      <trkpt lat="45.40787" lon="6.89696">
        <ele>2573</ele>
        <time>2019-08-17T06:07:09Z</time>
      </trkpt>
      <trkpt lat="45.4075" lon="6.89669">
        <ele>2571</ele>
        <time>2019-08-17T06:08:04Z</time>
      </trkpt>
      <trkpt lat="45.40678" lon="6.89614">
        <ele>2571</ele>
        <time>2019-08-17T06:09:53Z</time>
      </trkpt>
      <trkpt lat="45.40641" lon="6.89586">
        <ele>2570</ele>
        <time>2019-08-17T06:10:49Z</time>
      </trkpt>
      <trkpt lat="45.40618" lon="6.89566">
        <ele>2570</ele>
        <time>2019-08-17T06:11:25Z</time>
      </trkpt>
      <trkpt lat="45.40595" lon="6.89547">
        <ele>2569</ele>
        <time>2019-08-17T06:12:00Z</time>
      </trkpt>
      <trkpt lat="45.40567" lon="6.89516">
        <ele>2569</ele>
        <time>2019-08-17T06:12:48Z</time>
      </trkpt>
      <trkpt lat="45.4054" lon="6.89485">
        <ele>2569</ele>
        <time>2019-08-17T06:13:34Z</time>
      </trkpt>
      <trkpt lat="45.405" lon="6.8946">
        <ele>2566</ele>
        <time>2019-08-17T06:14:32Z</time>
      </trkpt>
      <trkpt lat="45.40459" lon="6.89435">
        <ele>2563</ele>
        <time>2019-08-17T06:15:32Z</time>
      </trkpt>
      <trkpt lat="45.40431" lon="6.89353">
        <ele>2561</ele>
        <time>2019-08-17T06:16:57Z</time>
      </trkpt>
      <trkpt lat="45.40435" lon="6.89314">
        <ele>2563</ele>
        <time>2019-08-17T06:17:34Z</time>
      </trkpt>
      <trkpt lat="45.40421" lon="6.89268">
        <ele>2561</ele>
        <time>2019-08-17T06:18:21Z</time>
      </trkpt>
      <trkpt lat="45.40407" lon="6.89222">
        <ele>2562</ele>
        <time>2019-08-17T06:19:08Z</time>
      </trkpt>
      <trkpt lat="45.40359" lon="6.89071">
        <ele>2563</ele>
        <time>2019-08-17T06:21:44Z</time>
      </trkpt>
      <trkpt lat="45.40343" lon="6.8902">
        <ele>2561</ele>
        <time>2019-08-17T06:22:36Z</time>
      </trkpt>
      <trkpt lat="45.40328" lon="6.8897">
        <ele>2562</ele>
        <time>2019-08-17T06:23:27Z</time>
      </trkpt>
      <trkpt lat="45.40312" lon="6.88919">
        <ele>2566</ele>
        <time>2019-08-17T06:24:19Z</time>
      </trkpt>
      <trkpt lat="45.40289" lon="6.88865">
        <ele>2569</ele>
        <time>2019-08-17T06:25:18Z</time>
      </trkpt>
      <trkpt lat="45.40267" lon="6.8881">
        <ele>2570</ele>
        <time>2019-08-17T06:26:18Z</time>
      </trkpt>
      <trkpt lat="45.40256" lon="6.8878">
        <ele>2571</ele>
        <time>2019-08-17T06:26:49Z</time>
      </trkpt>
      <trkpt lat="45.40244" lon="6.88767">
        <ele>2569</ele>
        <time>2019-08-17T06:27:09Z</time>
      </trkpt>
      <trkpt lat="45.40189" lon="6.88663">
        <ele>2567</ele>
        <time>2019-08-17T06:29:11Z</time>
      </trkpt>
      <trkpt lat="45.40172" lon="6.88634">
        <ele>2567</ele>
        <time>2019-08-17T06:29:47Z</time>
      </trkpt>
      <trkpt lat="45.40131" lon="6.88615">
        <ele>2566</ele>
        <time>2019-08-17T06:30:44Z</time>
      </trkpt>
      <trkpt lat="45.40117" lon="6.88617">
        <ele>2564</ele>
        <time>2019-08-17T06:31:03Z</time>
      </trkpt>
      <trkpt lat="45.401" lon="6.88628">
        <ele>2561</ele>
        <time>2019-08-17T06:31:28Z</time>
      </trkpt>
      <trkpt lat="45.40053" lon="6.88642">
        <ele>2560</ele>
        <time>2019-08-17T06:32:32Z</time>
      </trkpt>
      <trkpt lat="45.40038" lon="6.8864">
        <ele>2562</ele>
        <time>2019-08-17T06:32:52Z</time>
      </trkpt>
      <trkpt lat="45.40021" lon="6.8865">
        <ele>2561</ele>
        <time>2019-08-17T06:33:17Z</time>
      </trkpt>
      <trkpt lat="45.40002" lon="6.8866">
        <ele>2561</ele>
        <time>2019-08-17T06:33:44Z</time>
      </trkpt>
      <trkpt lat="45.39987" lon="6.88678">
        <ele>2558</ele>
        <time>2019-08-17T06:34:10Z</time>
      </trkpt>
      <trkpt lat="45.39978" lon="6.88687">
        <ele>2556</ele>
        <time>2019-08-17T06:34:25Z</time>
      </trkpt>
      <trkpt lat="45.39976" lon="6.88692">
        <ele>2556</ele>
        <time>2019-08-17T06:34:30Z</time>
      </trkpt>
      <trkpt lat="45.39972" lon="6.88697">
        <ele>2555</ele>
        <time>2019-08-17T06:34:37Z</time>
      </trkpt>
      <trkpt lat="45.39968" lon="6.88696">
        <ele>2554</ele>
        <time>2019-08-17T06:34:43Z</time>
      </trkpt>
      <trkpt lat="45.3995" lon="6.88685">
        <ele>2553</ele>
        <time>2019-08-17T06:35:09Z</time>
      </trkpt>
      <trkpt lat="45.39942" lon="6.88674">
        <ele>2553</ele>
        <time>2019-08-17T06:35:24Z</time>
      </trkpt>
      <trkpt lat="45.39932" lon="6.88671">
        <ele>2552</ele>
        <time>2019-08-17T06:35:37Z</time>
      </trkpt>
      <trkpt lat="45.39919" lon="6.88656">
        <ele>2552</ele>
        <time>2019-08-17T06:36:00Z</time>
      </trkpt>
      <trkpt lat="45.39876" lon="6.88621">
        <ele>2541</ele>
        <time>2019-08-17T06:37:06Z</time>
      </trkpt>
      <trkpt lat="45.39867" lon="6.88613">
        <ele>2538</ele>
        <time>2019-08-17T06:37:20Z</time>
      </trkpt>
      <trkpt lat="45.39864" lon="6.88614">
        <ele>2537</ele>
        <time>2019-08-17T06:37:24Z</time>
      </trkpt>
      <trkpt lat="45.39856" lon="6.88608">
        <ele>2534</ele>
        <time>2019-08-17T06:37:36Z</time>
      </trkpt>
      <trkpt lat="45.39851" lon="6.88596">
        <ele>2534</ele>
        <time>2019-08-17T06:37:49Z</time>
      </trkpt>
      <trkpt lat="45.39845" lon="6.88593">
        <ele>2531</ele>
        <time>2019-08-17T06:37:58Z</time>
      </trkpt>
      <trkpt lat="45.39831" lon="6.88578">
        <ele>2526</ele>
        <time>2019-08-17T06:38:21Z</time>
      </trkpt>
      <trkpt lat="45.39824" lon="6.88556">
        <ele>2525</ele>
        <time>2019-08-17T06:38:44Z</time>
      </trkpt>
      <trkpt lat="45.39821" lon="6.8855">
        <ele>2524</ele>
        <time>2019-08-17T06:38:50Z</time>
      </trkpt>
      <trkpt lat="45.39816" lon="6.88527">
        <ele>2524</ele>
        <time>2019-08-17T06:39:13Z</time>
      </trkpt>
      <trkpt lat="45.39796" lon="6.88474">
        <ele>2519</ele>
        <time>2019-08-17T06:40:09Z</time>
      </trkpt>
      <trkpt lat="45.39776" lon="6.88421">
        <ele>2512</ele>
        <time>2019-08-17T06:41:06Z</time>
      </trkpt>
      <trkpt lat="45.39757" lon="6.88391">
        <ele>2502</ele>
        <time>2019-08-17T06:41:44Z</time>
      </trkpt>
      <trkpt lat="45.39738" lon="6.88362">
        <ele>2495</ele>
        <time>2019-08-17T06:42:21Z</time>
      </trkpt>
      <trkpt lat="45.39725" lon="6.88333">
        <ele>2490</ele>
        <time>2019-08-17T06:42:53Z</time>
      </trkpt>
      <trkpt lat="45.39714" lon="6.88296">
        <ele>2485</ele>
        <time>2019-08-17T06:43:31Z</time>
      </trkpt>
      <trkpt lat="45.39713" lon="6.88302">
        <ele>2485</ele>
        <time>2019-08-17T06:43:36Z</time>
      </trkpt>
      <trkpt lat="45.39714" lon="6.88311">
        <ele>2486</ele>
        <time>2019-08-17T06:43:45Z</time>
      </trkpt>
      <trkpt lat="45.39715" lon="6.88313">
        <ele>2486</ele>
        <time>2019-08-17T06:43:47Z</time>
      </trkpt>
      <trkpt lat="45.39715" lon="6.88322">
        <ele>2487</ele>
        <time>2019-08-17T06:43:56Z</time>
      </trkpt>
      <trkpt lat="45.39713" lon="6.88326">
        <ele>2486</ele>
        <time>2019-08-17T06:44:00Z</time>
      </trkpt>
      <trkpt lat="45.39718" lon="6.88341">
        <ele>2488</ele>
        <time>2019-08-17T06:44:16Z</time>
      </trkpt>
      <trkpt lat="45.39721" lon="6.88352">
        <ele>2489</ele>
        <time>2019-08-17T06:44:27Z</time>
      </trkpt>
      <trkpt lat="45.39718" lon="6.88371">
        <ele>2488</ele>
        <time>2019-08-17T06:44:45Z</time>
      </trkpt>
      <trkpt lat="45.39716" lon="6.88373">
        <ele>2488</ele>
        <time>2019-08-17T06:44:48Z</time>
      </trkpt>
      <trkpt lat="45.39708" lon="6.88372">
        <ele>2485</ele>
        <time>2019-08-17T06:44:59Z</time>
      </trkpt>
      <trkpt lat="45.39701" lon="6.88374">
        <ele>2483</ele>
        <time>2019-08-17T06:45:09Z</time>
      </trkpt>
      <trkpt lat="45.39699" lon="6.88379">
        <ele>2483</ele>
        <time>2019-08-17T06:45:14Z</time>
      </trkpt>
      <trkpt lat="45.39698" lon="6.88376">
        <ele>2482</ele>
        <time>2019-08-17T06:45:17Z</time>
      </trkpt>
      <trkpt lat="45.39695" lon="6.8835">
        <ele>2481</ele>
        <time>2019-08-17T06:45:42Z</time>
      </trkpt>
      <trkpt lat="45.39693" lon="6.88345">
        <ele>2480</ele>
        <time>2019-08-17T06:45:47Z</time>
      </trkpt>
      <trkpt lat="45.39689" lon="6.88338">
        <ele>2479</ele>
        <time>2019-08-17T06:45:56Z</time>
      </trkpt>
      <trkpt lat="45.39685" lon="6.88335">
        <ele>2478</ele>
        <time>2019-08-17T06:46:02Z</time>
      </trkpt>
      <trkpt lat="45.39683" lon="6.88332">
        <ele>2477</ele>
        <time>2019-08-17T06:46:06Z</time>
      </trkpt>
      <trkpt lat="45.39678" lon="6.88328">
        <ele>2475</ele>
        <time>2019-08-17T06:46:13Z</time>
      </trkpt>
      <trkpt lat="45.39676" lon="6.88322">
        <ele>2474</ele>
        <time>2019-08-17T06:46:20Z</time>
      </trkpt>
      <trkpt lat="45.3967" lon="6.88313">
        <ele>2472</ele>
        <time>2019-08-17T06:46:31Z</time>
      </trkpt>
      <trkpt lat="45.39657" lon="6.8829">
        <ele>2468</ele>
        <time>2019-08-17T06:46:59Z</time>
      </trkpt>
      <trkpt lat="45.39653" lon="6.8827">
        <ele>2467</ele>
        <time>2019-08-17T06:47:18Z</time>
      </trkpt>
      <trkpt lat="45.39652" lon="6.88268">
        <ele>2466</ele>
        <time>2019-08-17T06:47:21Z</time>
      </trkpt>
      <trkpt lat="45.39644" lon="6.88237">
        <ele>2463</ele>
        <time>2019-08-17T06:47:52Z</time>
      </trkpt>
      <trkpt lat="45.39642" lon="6.88241">
        <ele>2463</ele>
        <time>2019-08-17T06:47:56Z</time>
      </trkpt>
      <trkpt lat="45.39639" lon="6.88243">
        <ele>2463</ele>
        <time>2019-08-17T06:48:01Z</time>
      </trkpt>
      <trkpt lat="45.39637" lon="6.88226">
        <ele>2461</ele>
        <time>2019-08-17T06:48:17Z</time>
      </trkpt>
      <trkpt lat="45.39635" lon="6.88215">
        <ele>2460</ele>
        <time>2019-08-17T06:48:27Z</time>
      </trkpt>
      <trkpt lat="45.39633" lon="6.88214">
        <ele>2459</ele>
        <time>2019-08-17T06:48:30Z</time>
      </trkpt>
      <trkpt lat="45.39631" lon="6.88215">
        <ele>2459</ele>
        <time>2019-08-17T06:48:33Z</time>
      </trkpt>
      <trkpt lat="45.39628" lon="6.88215">
        <ele>2459</ele>
        <time>2019-08-17T06:48:37Z</time>
      </trkpt>
      <trkpt lat="45.39627" lon="6.88212">
        <ele>2458</ele>
        <time>2019-08-17T06:48:40Z</time>
      </trkpt>
      <trkpt lat="45.39627" lon="6.88207">
        <ele>2457</ele>
        <time>2019-08-17T06:48:45Z</time>
      </trkpt>
      <trkpt lat="45.39629" lon="6.88198">
        <ele>2457</ele>
        <time>2019-08-17T06:48:54Z</time>
      </trkpt>
      <trkpt lat="45.39623" lon="6.88176">
        <ele>2453</ele>
        <time>2019-08-17T06:49:16Z</time>
      </trkpt>
      <trkpt lat="45.39624" lon="6.88164">
        <ele>2452</ele>
        <time>2019-08-17T06:49:27Z</time>
      </trkpt>
      <trkpt lat="45.39621" lon="6.88159">
        <ele>2450</ele>
        <time>2019-08-17T06:49:33Z</time>
      </trkpt>
      <trkpt lat="45.39618" lon="6.88126">
        <ele>2442</ele>
        <time>2019-08-17T06:50:04Z</time>
      </trkpt>
      <trkpt lat="45.39612" lon="6.88138">
        <ele>2443</ele>
        <time>2019-08-17T06:50:18Z</time>
      </trkpt>
      <trkpt lat="45.3961" lon="6.88101">
        <ele>2435</ele>
        <time>2019-08-17T06:50:53Z</time>
      </trkpt>
      <trkpt lat="45.39609" lon="6.88065">
        <ele>2428</ele>
        <time>2019-08-17T06:51:27Z</time>
      </trkpt>
      <trkpt lat="45.39596" lon="6.88033">
        <ele>2420</ele>
        <time>2019-08-17T06:52:01Z</time>
      </trkpt>
      <trkpt lat="45.39584" lon="6.88001">
        <ele>2412</ele>
        <time>2019-08-17T06:52:35Z</time>
      </trkpt>
      <trkpt lat="45.39583" lon="6.87978">
        <ele>2411</ele>
        <time>2019-08-17T06:52:57Z</time>
      </trkpt>
      <trkpt lat="45.39567" lon="6.8795">
        <ele>2411</ele>
        <time>2019-08-17T06:53:31Z</time>
      </trkpt>
      <trkpt lat="45.39564" lon="6.87935">
        <ele>2410</ele>
        <time>2019-08-17T06:53:45Z</time>
      </trkpt>
      <trkpt lat="45.39556" lon="6.87917">
        <ele>2409</ele>
        <time>2019-08-17T06:54:05Z</time>
      </trkpt>
      <trkpt lat="45.39547" lon="6.87881">
        <ele>2406</ele>
        <time>2019-08-17T06:54:41Z</time>
      </trkpt>
      <trkpt lat="45.39542" lon="6.87849">
        <ele>2404</ele>
        <time>2019-08-17T06:55:12Z</time>
      </trkpt>
      <trkpt lat="45.39541" lon="6.87849">
        <ele>2404</ele>
        <time>2019-08-17T06:55:13Z</time>
      </trkpt>
      <trkpt lat="45.39538" lon="6.87856">
        <ele>2405</ele>
        <time>2019-08-17T06:55:21Z</time>
      </trkpt>
      <trkpt lat="45.39532" lon="6.87859">
        <ele>2405</ele>
        <time>2019-08-17T06:55:29Z</time>
      </trkpt>
      <trkpt lat="45.39524" lon="6.87853">
        <ele>2404</ele>
        <time>2019-08-17T06:55:42Z</time>
      </trkpt>
      <trkpt lat="45.39518" lon="6.8786">
        <ele>2404</ele>
        <time>2019-08-17T06:55:52Z</time>
      </trkpt>
      <trkpt lat="45.39507" lon="6.87855">
        <ele>2404</ele>
        <time>2019-08-17T06:56:07Z</time>
      </trkpt>
      <trkpt lat="45.39496" lon="6.87818">
        <ele>2403</ele>
        <time>2019-08-17T06:56:45Z</time>
      </trkpt>
      <trkpt lat="45.39486" lon="6.8778">
        <ele>2403</ele>
        <time>2019-08-17T06:57:23Z</time>
      </trkpt>
      <trkpt lat="45.3947" lon="6.87749">
        <ele>2404</ele>
        <time>2019-08-17T06:57:59Z</time>
      </trkpt>
      <trkpt lat="45.39467" lon="6.8771">
        <ele>2403</ele>
        <time>2019-08-17T06:58:36Z</time>
      </trkpt>
      <trkpt lat="45.39454" lon="6.87681">
        <ele>2402</ele>
        <time>2019-08-17T06:59:08Z</time>
      </trkpt>
      <trkpt lat="45.39442" lon="6.87651">
        <ele>2401</ele>
        <time>2019-08-17T06:59:40Z</time>
      </trkpt>
      <trkpt lat="45.3938" lon="6.87566">
        <ele>2397</ele>
        <time>2019-08-17T07:01:35Z</time>
      </trkpt>
      <trkpt lat="45.39352" lon="6.87536">
        <ele>2396</ele>
        <time>2019-08-17T07:02:22Z</time>
      </trkpt>
      <trkpt lat="45.39349" lon="6.87512">
        <ele>2394</ele>
        <time>2019-08-17T07:02:45Z</time>
      </trkpt>
      <trkpt lat="45.39344" lon="6.87504">
        <ele>2393</ele>
        <time>2019-08-17T07:02:55Z</time>
      </trkpt>
      <trkpt lat="45.39344" lon="6.8749">
        <ele>2392</ele>
        <time>2019-08-17T07:03:08Z</time>
      </trkpt>
      <trkpt lat="45.39337" lon="6.87435">
        <ele>2391</ele>
        <time>2019-08-17T07:04:00Z</time>
      </trkpt>
      <trkpt lat="45.39344" lon="6.87407">
        <ele>2389</ele>
        <time>2019-08-17T07:04:28Z</time>
      </trkpt>
      <trkpt lat="45.39346" lon="6.8735">
        <ele>2386</ele>
        <time>2019-08-17T07:05:22Z</time>
      </trkpt>
      <trkpt lat="45.39346" lon="6.8729">
        <ele>2384</ele>
        <time>2019-08-17T07:06:18Z</time>
      </trkpt>
      <trkpt lat="45.39338" lon="6.87272">
        <ele>2384</ele>
        <time>2019-08-17T07:06:38Z</time>
      </trkpt>
      <trkpt lat="45.3934" lon="6.87217">
        <ele>2381</ele>
        <time>2019-08-17T07:07:30Z</time>
      </trkpt>
      <trkpt lat="45.39334" lon="6.87186">
        <ele>2378</ele>
        <time>2019-08-17T07:08:00Z</time>
      </trkpt>
      <trkpt lat="45.39328" lon="6.87154">
        <ele>2378</ele>
        <time>2019-08-17T07:08:31Z</time>
      </trkpt>
      <trkpt lat="45.39328" lon="6.87057">
        <ele>2375</ele>
        <time>2019-08-17T07:10:02Z</time>
      </trkpt>
      <trkpt lat="45.39328" lon="6.87008">
        <ele>2373</ele>
        <time>2019-08-17T07:10:48Z</time>
      </trkpt>
      <trkpt lat="45.39333" lon="6.86965">
        <ele>2369</ele>
        <time>2019-08-17T07:11:28Z</time>
      </trkpt>
      <trkpt lat="45.39339" lon="6.86921">
        <ele>2367</ele>
        <time>2019-08-17T07:12:10Z</time>
      </trkpt>
      <trkpt lat="45.39343" lon="6.86878">
        <ele>2365</ele>
        <time>2019-08-17T07:12:51Z</time>
      </trkpt>
      <trkpt lat="45.39348" lon="6.86834">
        <ele>2363</ele>
        <time>2019-08-17T07:13:33Z</time>
      </trkpt>
      <trkpt lat="45.39347" lon="6.86783">
        <ele>2358</ele>
        <time>2019-08-17T07:14:21Z</time>
      </trkpt>
      <trkpt lat="45.39343" lon="6.86732">
        <ele>2353</ele>
        <time>2019-08-17T07:15:09Z</time>
      </trkpt>
      <trkpt lat="45.39342" lon="6.86677">
        <ele>2348</ele>
        <time>2019-08-17T07:16:00Z</time>
      </trkpt>
      <trkpt lat="45.39352" lon="6.86635">
        <ele>2342</ele>
        <time>2019-08-17T07:16:42Z</time>
      </trkpt>
      <trkpt lat="45.39342" lon="6.86604">
        <ele>2337</ele>
        <time>2019-08-17T07:17:14Z</time>
      </trkpt>
      <trkpt lat="45.39331" lon="6.86572">
        <ele>2333</ele>
        <time>2019-08-17T07:17:47Z</time>
      </trkpt>
      <trkpt lat="45.39329" lon="6.86538">
        <ele>2332</ele>
        <time>2019-08-17T07:18:19Z</time>
      </trkpt>
      <trkpt lat="45.39326" lon="6.86504">
        <ele>2331</ele>
        <time>2019-08-17T07:18:51Z</time>
      </trkpt>
      <trkpt lat="45.39316" lon="6.8642">
        <ele>2332</ele>
        <time>2019-08-17T07:20:11Z</time>
      </trkpt>
      <trkpt lat="45.39311" lon="6.86377">
        <ele>2331</ele>
        <time>2019-08-17T07:20:52Z</time>
      </trkpt>
      <trkpt lat="45.39295" lon="6.86258">
        <ele>2333</ele>
        <time>2019-08-17T07:22:45Z</time>
      </trkpt>
      <trkpt lat="45.39286" lon="6.86198">
        <ele>2334</ele>
        <time>2019-08-17T07:23:43Z</time>
      </trkpt>
      <trkpt lat="45.39286" lon="6.86144">
        <ele>2333</ele>
        <time>2019-08-17T07:24:34Z</time>
      </trkpt>
      <trkpt lat="45.39286" lon="6.8609">
        <ele>2332</ele>
        <time>2019-08-17T07:25:24Z</time>
      </trkpt>
      <trkpt lat="45.39285" lon="6.85992">
        <ele>2326</ele>
        <time>2019-08-17T07:26:56Z</time>
      </trkpt>
      <trkpt lat="45.39285" lon="6.85947">
        <ele>2324</ele>
        <time>2019-08-17T07:27:38Z</time>
      </trkpt>
      <trkpt lat="45.39287" lon="6.85803">
        <ele>2313</ele>
        <time>2019-08-17T07:29:53Z</time>
      </trkpt>
      <trkpt lat="45.39288" lon="6.8575">
        <ele>2307</ele>
        <time>2019-08-17T07:30:43Z</time>
      </trkpt>
      <trkpt lat="45.39285" lon="6.85703">
        <ele>2304</ele>
        <time>2019-08-17T07:31:27Z</time>
      </trkpt>
      <trkpt lat="45.39282" lon="6.85656">
        <ele>2302</ele>
        <time>2019-08-17T07:32:11Z</time>
      </trkpt>
      <trkpt lat="45.39276" lon="6.856">
        <ele>2301</ele>
        <time>2019-08-17T07:33:04Z</time>
      </trkpt>
      <trkpt lat="45.3927" lon="6.85544">
        <ele>2300</ele>
        <time>2019-08-17T07:33:57Z</time>
      </trkpt>
      <trkpt lat="45.39273" lon="6.85513">
        <ele>2297</ele>
        <time>2019-08-17T07:34:27Z</time>
      </trkpt>
      <trkpt lat="45.39276" lon="6.85481">
        <ele>2296</ele>
        <time>2019-08-17T07:34:57Z</time>
      </trkpt>
      <trkpt lat="45.39266" lon="6.85414">
        <ele>2297</ele>
        <time>2019-08-17T07:36:01Z</time>
      </trkpt>
      <trkpt lat="45.3926" lon="6.85398">
        <ele>2298</ele>
        <time>2019-08-17T07:36:18Z</time>
      </trkpt>
      <trkpt lat="45.3927" lon="6.85368">
        <ele>2296</ele>
        <time>2019-08-17T07:36:49Z</time>
      </trkpt>
      <trkpt lat="45.39281" lon="6.85338">
        <ele>2293</ele>
        <time>2019-08-17T07:37:21Z</time>
      </trkpt>
      <trkpt lat="45.39272" lon="6.85286">
        <ele>2289</ele>
        <time>2019-08-17T07:38:11Z</time>
      </trkpt>
      <trkpt lat="45.39255" lon="6.85266">
        <ele>2289</ele>
        <time>2019-08-17T07:38:41Z</time>
      </trkpt>
      <trkpt lat="45.39242" lon="6.85228">
        <ele>2287</ele>
        <time>2019-08-17T07:39:20Z</time>
      </trkpt>
      <trkpt lat="45.3923" lon="6.85126">
        <ele>2276</ele>
        <time>2019-08-17T07:40:57Z</time>
      </trkpt>
      <trkpt lat="45.39224" lon="6.85075">
        <ele>2269</ele>
        <time>2019-08-17T07:41:46Z</time>
      </trkpt>
      <trkpt lat="45.39208" lon="6.85052">
        <ele>2270</ele>
        <time>2019-08-17T07:42:16Z</time>
      </trkpt>
      <trkpt lat="45.392" lon="6.85008">
        <ele>2264</ele>
        <time>2019-08-17T07:42:59Z</time>
      </trkpt>
      <trkpt lat="45.3919" lon="6.84979">
        <ele>2262</ele>
        <time>2019-08-17T07:43:29Z</time>
      </trkpt>
      <trkpt lat="45.3918" lon="6.8495">
        <ele>2259</ele>
        <time>2019-08-17T07:43:59Z</time>
      </trkpt>
      <trkpt lat="45.39174" lon="6.84919">
        <ele>2256</ele>
        <time>2019-08-17T07:44:29Z</time>
      </trkpt>
      <trkpt lat="45.39167" lon="6.84889">
        <ele>2253</ele>
        <time>2019-08-17T07:44:59Z</time>
      </trkpt>
      <trkpt lat="45.39156" lon="6.8486">
        <ele>2252</ele>
        <time>2019-08-17T07:45:30Z</time>
      </trkpt>
      <trkpt lat="45.39145" lon="6.84831">
        <ele>2250</ele>
        <time>2019-08-17T07:46:01Z</time>
      </trkpt>
      <trkpt lat="45.39118" lon="6.84788">
        <ele>2248</ele>
        <time>2019-08-17T07:46:55Z</time>
      </trkpt>
      <trkpt lat="45.39092" lon="6.84745">
        <ele>2244</ele>
        <time>2019-08-17T07:47:48Z</time>
      </trkpt>
      <trkpt lat="45.39036" lon="6.84642">
        <ele>2237</ele>
        <time>2019-08-17T07:49:50Z</time>
      </trkpt>
      <trkpt lat="45.39015" lon="6.84604">
        <ele>2235</ele>
        <time>2019-08-17T07:50:35Z</time>
      </trkpt>
      <trkpt lat="45.39" lon="6.84557">
        <ele>2230</ele>
        <time>2019-08-17T07:51:24Z</time>
      </trkpt>
      <trkpt lat="45.3899" lon="6.845">
        <ele>2226</ele>
        <time>2019-08-17T07:52:19Z</time>
      </trkpt>
      <trkpt lat="45.38977" lon="6.84472">
        <ele>2223</ele>
        <time>2019-08-17T07:52:50Z</time>
      </trkpt>
      <trkpt lat="45.38965" lon="6.84444">
        <ele>2220</ele>
        <time>2019-08-17T07:53:21Z</time>
      </trkpt>
      <trkpt lat="45.38889" lon="6.84315">
        <ele>2212</ele>
        <time>2019-08-17T07:55:59Z</time>
      </trkpt>
      <trkpt lat="45.38863" lon="6.84271">
        <ele>2208</ele>
        <time>2019-08-17T07:56:53Z</time>
      </trkpt>
      <trkpt lat="45.38837" lon="6.84231">
        <ele>2204</ele>
        <time>2019-08-17T07:57:44Z</time>
      </trkpt>
      <trkpt lat="45.3881" lon="6.84191">
        <ele>2205</ele>
        <time>2019-08-17T07:58:36Z</time>
      </trkpt>
      <trkpt lat="45.38763" lon="6.84114">
        <ele>2203</ele>
        <time>2019-08-17T08:00:11Z</time>
      </trkpt>
      <trkpt lat="45.38744" lon="6.84085">
        <ele>2202</ele>
        <time>2019-08-17T08:00:48Z</time>
      </trkpt>
      <trkpt lat="45.38719" lon="6.84053">
        <ele>2200</ele>
        <time>2019-08-17T08:01:33Z</time>
      </trkpt>
      <trkpt lat="45.38693" lon="6.84021">
        <ele>2196</ele>
        <time>2019-08-17T08:02:19Z</time>
      </trkpt>
      <trkpt lat="45.38679" lon="6.83989">
        <ele>2190</ele>
        <time>2019-08-17T08:02:55Z</time>
      </trkpt>
      <trkpt lat="45.38666" lon="6.83956">
        <ele>2185</ele>
        <time>2019-08-17T08:03:30Z</time>
      </trkpt>
      <trkpt lat="45.38638" lon="6.83935">
        <ele>2184</ele>
        <time>2019-08-17T08:04:12Z</time>
      </trkpt>
      <trkpt lat="45.38619" lon="6.83908">
        <ele>2180</ele>
        <time>2019-08-17T08:04:48Z</time>
      </trkpt>
      <trkpt lat="45.386" lon="6.8388">
        <ele>2176</ele>
        <time>2019-08-17T08:05:25Z</time>
      </trkpt>
      <trkpt lat="45.38574" lon="6.83871">
        <ele>2177</ele>
        <time>2019-08-17T08:06:00Z</time>
      </trkpt>
      <trkpt lat="45.38537" lon="6.83839">
        <ele>2175</ele>
        <time>2019-08-17T08:06:58Z</time>
      </trkpt>
      <trkpt lat="45.38486" lon="6.83773">
        <ele>2167</ele>
        <time>2019-08-17T08:08:30Z</time>
      </trkpt>
      <trkpt lat="45.3846" lon="6.8374">
        <ele>2163</ele>
        <time>2019-08-17T08:09:16Z</time>
      </trkpt>
      <trkpt lat="45.38432" lon="6.83717">
        <ele>2160</ele>
        <time>2019-08-17T08:10:00Z</time>
      </trkpt>
      <trkpt lat="45.38405" lon="6.83694">
        <ele>2159</ele>
        <time>2019-08-17T08:10:42Z</time>
      </trkpt>
      <trkpt lat="45.38385" lon="6.83675">
        <ele>2159</ele>
        <time>2019-08-17T08:11:14Z</time>
      </trkpt>
      <trkpt lat="45.38365" lon="6.83657">
        <ele>2159</ele>
        <time>2019-08-17T08:11:45Z</time>
      </trkpt>
      <trkpt lat="45.38342" lon="6.83626">
        <ele>2156</ele>
        <time>2019-08-17T08:12:28Z</time>
      </trkpt>
      <trkpt lat="45.3832" lon="6.83596">
        <ele>2152</ele>
        <time>2019-08-17T08:13:08Z</time>
      </trkpt>
      <trkpt lat="45.38303" lon="6.83594">
        <ele>2153</ele>
        <time>2019-08-17T08:13:31Z</time>
      </trkpt>
      <trkpt lat="45.38297" lon="6.8358">
        <ele>2151</ele>
        <time>2019-08-17T08:13:46Z</time>
      </trkpt>
      <trkpt lat="45.3827" lon="6.83564">
        <ele>2150</ele>
        <time>2019-08-17T08:14:25Z</time>
      </trkpt>
      <trkpt lat="45.38251" lon="6.83546">
        <ele>2147</ele>
        <time>2019-08-17T08:14:56Z</time>
      </trkpt>
      <trkpt lat="45.38229" lon="6.83534">
        <ele>2144</ele>
        <time>2019-08-17T08:15:27Z</time>
      </trkpt>
      <trkpt lat="45.38192" lon="6.83521">
        <ele>2140</ele>
        <time>2019-08-17T08:16:18Z</time>
      </trkpt>
      <trkpt lat="45.3812" lon="6.83494">
        <ele>2138</ele>
        <time>2019-08-17T08:17:57Z</time>
      </trkpt>
      <trkpt lat="45.38084" lon="6.8348">
        <ele>2138</ele>
        <time>2019-08-17T08:18:47Z</time>
      </trkpt>
      <trkpt lat="45.38048" lon="6.83467">
        <ele>2136</ele>
        <time>2019-08-17T08:19:37Z</time>
      </trkpt>
      <trkpt lat="45.37967" lon="6.83449">
        <ele>2132</ele>
        <time>2019-08-17T08:21:26Z</time>
      </trkpt>
      <trkpt lat="45.37927" lon="6.8344">
        <ele>2128</ele>
        <time>2019-08-17T08:22:20Z</time>
      </trkpt>
      <trkpt lat="45.37891" lon="6.83433">
        <ele>2124</ele>
        <time>2019-08-17T08:23:09Z</time>
      </trkpt>
      <trkpt lat="45.37854" lon="6.83426">
        <ele>2119</ele>
        <time>2019-08-17T08:23:59Z</time>
      </trkpt>
      <trkpt lat="45.3779" lon="6.83402">
        <ele>2110</ele>
        <time>2019-08-17T08:25:27Z</time>
      </trkpt>
      <trkpt lat="45.37755" lon="6.83397">
        <ele>2108</ele>
        <time>2019-08-17T08:26:14Z</time>
      </trkpt>
      <trkpt lat="45.37721" lon="6.83407">
        <ele>2105</ele>
        <time>2019-08-17T08:27:00Z</time>
      </trkpt>
      <trkpt lat="45.37684" lon="6.83408">
        <ele>2101</ele>
        <time>2019-08-17T08:27:50Z</time>
      </trkpt>
      <trkpt lat="45.37652" lon="6.83419">
        <ele>2100</ele>
        <time>2019-08-17T08:28:33Z</time>
      </trkpt>
      <trkpt lat="45.37631" lon="6.8344">
        <ele>2105</ele>
        <time>2019-08-17T08:29:08Z</time>
      </trkpt>
      <trkpt lat="45.37611" lon="6.83461">
        <ele>2109</ele>
        <time>2019-08-17T08:29:41Z</time>
      </trkpt>
      <trkpt lat="45.37588" lon="6.8347">
        <ele>2108</ele>
        <time>2019-08-17T08:30:13Z</time>
      </trkpt>
      <trkpt lat="45.37565" lon="6.83479">
        <ele>2108</ele>
        <time>2019-08-17T08:30:45Z</time>
      </trkpt>
      <trkpt lat="45.37515" lon="6.83472">
        <ele>2102</ele>
        <time>2019-08-17T08:31:52Z</time>
      </trkpt>
      <trkpt lat="45.37475" lon="6.83468">
        <ele>2099</ele>
        <time>2019-08-17T08:32:45Z</time>
      </trkpt>
      <trkpt lat="45.37458" lon="6.83481">
        <ele>2100</ele>
        <time>2019-08-17T08:33:11Z</time>
      </trkpt>
      <trkpt lat="45.37419" lon="6.83491">
        <ele>2100</ele>
        <time>2019-08-17T08:34:04Z</time>
      </trkpt>
      <trkpt lat="45.37381" lon="6.83501">
        <ele>2097</ele>
        <time>2019-08-17T08:34:55Z</time>
      </trkpt>
      <trkpt lat="45.37239" lon="6.83606">
        <ele>2103</ele>
        <time>2019-08-17T08:38:29Z</time>
      </trkpt>
      <trkpt lat="45.37228" lon="6.83614">
        <ele>2103</ele>
        <time>2019-08-17T08:38:45Z</time>
      </trkpt>
      <trkpt lat="45.37204" lon="6.8362">
        <ele>2101</ele>
        <time>2019-08-17T08:39:18Z</time>
      </trkpt>
      <trkpt lat="45.37175" lon="6.83632">
        <ele>2099</ele>
        <time>2019-08-17T08:39:58Z</time>
      </trkpt>
      <trkpt lat="45.37137" lon="6.83663">
        <ele>2098</ele>
        <time>2019-08-17T08:40:57Z</time>
      </trkpt>
      <trkpt lat="45.37102" lon="6.83691">
        <ele>2098</ele>
        <time>2019-08-17T08:41:50Z</time>
      </trkpt>
      <trkpt lat="45.37098" lon="6.83693">
        <ele>2098</ele>
        <time>2019-08-17T08:41:56Z</time>
      </trkpt>
      <trkpt lat="45.37081" lon="6.83691">
        <ele>2095</ele>
        <time>2019-08-17T08:42:19Z</time>
      </trkpt>
      <trkpt lat="45.37055" lon="6.83705">
        <ele>2094</ele>
        <time>2019-08-17T08:42:56Z</time>
      </trkpt>
      <trkpt lat="45.37029" lon="6.83718">
        <ele>2093</ele>
        <time>2019-08-17T08:43:32Z</time>
      </trkpt>
      <trkpt lat="45.36965" lon="6.83741">
        <ele>2093</ele>
        <time>2019-08-17T08:45:01Z</time>
      </trkpt>
      <trkpt lat="45.36932" lon="6.83752">
        <ele>2095</ele>
        <time>2019-08-17T08:45:46Z</time>
      </trkpt>
      <trkpt lat="45.36927" lon="6.83752">
        <ele>2095</ele>
        <time>2019-08-17T08:45:52Z</time>
      </trkpt>
      <trkpt lat="45.36891" lon="6.83738">
        <ele>2092</ele>
        <time>2019-08-17T08:46:42Z</time>
      </trkpt>
      <trkpt lat="45.36828" lon="6.83721">
        <ele>2089</ele>
        <time>2019-08-17T08:48:08Z</time>
      </trkpt>
      <trkpt lat="45.36787" lon="6.8374">
        <ele>2091</ele>
        <time>2019-08-17T08:49:05Z</time>
      </trkpt>
      <trkpt lat="45.36755" lon="6.83738">
        <ele>2089</ele>
        <time>2019-08-17T08:49:48Z</time>
      </trkpt>
      <trkpt lat="45.36722" lon="6.83721">
        <ele>2084</ele>
        <time>2019-08-17T08:50:35Z</time>
      </trkpt>
      <trkpt lat="45.36667" lon="6.83725">
        <ele>2081</ele>
        <time>2019-08-17T08:51:48Z</time>
      </trkpt>
      <trkpt lat="45.36644" lon="6.83712">
        <ele>2076</ele>
        <time>2019-08-17T08:52:21Z</time>
      </trkpt>
      <trkpt lat="45.36605" lon="6.83723">
        <ele>2074</ele>
        <time>2019-08-17T08:53:14Z</time>
      </trkpt>
      <trkpt lat="45.36547" lon="6.83701">
        <ele>2068</ele>
        <time>2019-08-17T08:54:35Z</time>
      </trkpt>
      <trkpt lat="45.36526" lon="6.83689">
        <ele>2065</ele>
        <time>2019-08-17T08:55:05Z</time>
      </trkpt>
      <trkpt lat="45.36469" lon="6.83702">
        <ele>2067</ele>
        <time>2019-08-17T08:56:22Z</time>
      </trkpt>
      <trkpt lat="45.36415" lon="6.83708">
        <ele>2067</ele>
        <time>2019-08-17T08:57:34Z</time>
      </trkpt>
      <trkpt lat="45.36282" lon="6.83682">
        <ele>2055</ele>
        <time>2019-08-17T09:00:33Z</time>
      </trkpt>
      <trkpt lat="45.36232" lon="6.83714">
        <ele>2055</ele>
        <time>2019-08-17T09:01:46Z</time>
      </trkpt>
      <trkpt lat="45.36184" lon="6.83762">
        <ele>2052</ele>
        <time>2019-08-17T09:03:05Z</time>
      </trkpt>
      <trkpt lat="45.36151" lon="6.83886">
        <ele>2048</ele>
        <time>2019-08-17T09:05:09Z</time>
      </trkpt>
      <trkpt lat="45.36157" lon="6.83935">
        <ele>2049</ele>
        <time>2019-08-17T09:05:56Z</time>
      </trkpt>
      <trkpt lat="45.36183" lon="6.84032">
        <ele>2055</ele>
        <time>2019-08-17T09:07:33Z</time>
      </trkpt>
      <trkpt lat="45.3618" lon="6.84086">
        <ele>2053</ele>
        <time>2019-08-17T09:08:24Z</time>
      </trkpt>
      <trkpt lat="45.36184" lon="6.84141">
        <ele>2052</ele>
        <time>2019-08-17T09:09:16Z</time>
      </trkpt>
      <trkpt lat="45.3619" lon="6.84184">
        <ele>2054</ele>
        <time>2019-08-17T09:09:57Z</time>
      </trkpt>
      <trkpt lat="45.36186" lon="6.8424">
        <ele>2059</ele>
        <time>2019-08-17T09:10:50Z</time>
      </trkpt>
      <trkpt lat="45.36164" lon="6.84259">
        <ele>2056</ele>
        <time>2019-08-17T09:11:24Z</time>
      </trkpt>
      <trkpt lat="45.36109" lon="6.84146">
        <ele>2059</ele>
        <time>2019-08-17T09:13:33Z</time>
      </trkpt>
      <trkpt lat="45.361" lon="6.84006">
        <ele>2046</ele>
        <time>2019-08-17T09:15:45Z</time>
      </trkpt>
      <trkpt lat="45.36023" lon="6.83678">
        <ele>2025</ele>
        <time>2019-08-17T09:21:09Z</time>
      </trkpt>
      <trkpt lat="45.3606" lon="6.83605">
        <ele>2020</ele>
        <time>2019-08-17T09:22:33Z</time>
      </trkpt>
      <trkpt lat="45.36066" lon="6.83599">
        <ele>2020</ele>
        <time>2019-08-17T09:22:43Z</time>
      </trkpt>
      <trkpt lat="45.36077" lon="6.83581">
        <ele>2020</ele>
        <time>2019-08-17T09:23:05Z</time>
      </trkpt>
      <trkpt lat="45.36077" lon="6.83566">
        <ele>2021</ele>
        <time>2019-08-17T09:23:19Z</time>
      </trkpt>
      <trkpt lat="45.36076" lon="6.83554">
        <ele>2022</ele>
        <time>2019-08-17T09:23:31Z</time>
      </trkpt>
      <trkpt lat="45.3607" lon="6.8355">
        <ele>2022</ele>
        <time>2019-08-17T09:23:40Z</time>
      </trkpt>
      <trkpt lat="45.36055" lon="6.83561">
        <ele>2020</ele>
        <time>2019-08-17T09:24:02Z</time>
      </trkpt>
      <trkpt lat="45.36041" lon="6.83578">
        <ele>2017</ele>
        <time>2019-08-17T09:24:27Z</time>
      </trkpt>
      <trkpt lat="45.36036" lon="6.8358">
        <ele>2017</ele>
        <time>2019-08-17T09:24:34Z</time>
      </trkpt>
      <trkpt lat="45.36026" lon="6.83577">
        <ele>2016</ele>
        <time>2019-08-17T09:24:47Z</time>
      </trkpt>
      <trkpt lat="45.36009" lon="6.83557">
        <ele>2016</ele>
        <time>2019-08-17T09:25:17Z</time>
      </trkpt>
      <trkpt lat="45.35989" lon="6.83528">
        <ele>2018</ele>
        <time>2019-08-17T09:25:55Z</time>
      </trkpt>
      <trkpt lat="45.35981" lon="6.83498">
        <ele>2019</ele>
        <time>2019-08-17T09:26:25Z</time>
      </trkpt>
      <trkpt lat="45.35972" lon="6.8345">
        <ele>2020</ele>
        <time>2019-08-17T09:27:11Z</time>
      </trkpt>
      <trkpt lat="45.35964" lon="6.83428">
        <ele>2019</ele>
        <time>2019-08-17T09:27:35Z</time>
      </trkpt>
      <trkpt lat="45.35951" lon="6.83408">
        <ele>2018</ele>
        <time>2019-08-17T09:28:00Z</time>
      </trkpt>
      <trkpt lat="45.35941" lon="6.8339">
        <ele>2017</ele>
        <time>2019-08-17T09:28:22Z</time>
      </trkpt>
      <trkpt lat="45.35943" lon="6.83371">
        <ele>2018</ele>
        <time>2019-08-17T09:28:40Z</time>
      </trkpt>
      <trkpt lat="45.35951" lon="6.83357">
        <ele>2020</ele>
        <time>2019-08-17T09:28:57Z</time>
      </trkpt>
      <trkpt lat="45.35961" lon="6.83356">
        <ele>2021</ele>
        <time>2019-08-17T09:29:10Z</time>
      </trkpt>
      <trkpt lat="45.35971" lon="6.83357">
        <ele>2022</ele>
        <time>2019-08-17T09:29:23Z</time>
      </trkpt>
      <trkpt lat="45.35988" lon="6.83373">
        <ele>2023</ele>
        <time>2019-08-17T09:29:51Z</time>
      </trkpt>
      <trkpt lat="45.36007" lon="6.83371">
        <ele>2025</ele>
        <time>2019-08-17T09:30:16Z</time>
      </trkpt>
      <trkpt lat="45.36025" lon="6.83368">
        <ele>2026</ele>
        <time>2019-08-17T09:30:40Z</time>
      </trkpt>
      <trkpt lat="45.36041" lon="6.83352">
        <ele>2028</ele>
        <time>2019-08-17T09:31:06Z</time>
      </trkpt>
      <trkpt lat="45.36049" lon="6.83334">
        <ele>2029</ele>
        <time>2019-08-17T09:31:26Z</time>
      </trkpt>
      <trkpt lat="45.36059" lon="6.83316">
        <ele>2033</ele>
        <time>2019-08-17T09:31:48Z</time>
      </trkpt>
      <trkpt lat="45.36074" lon="6.8329">
        <ele>2040</ele>
        <time>2019-08-17T09:32:19Z</time>
      </trkpt>
      <trkpt lat="45.36084" lon="6.83264">
        <ele>2046</ele>
        <time>2019-08-17T09:32:47Z</time>
      </trkpt>
      <trkpt lat="45.36094" lon="6.83266">
        <ele>2046</ele>
        <time>2019-08-17T09:33:01Z</time>
      </trkpt>
      <trkpt lat="45.36097" lon="6.83254">
        <ele>2049</ele>
        <time>2019-08-17T09:33:13Z</time>
      </trkpt>
      <trkpt lat="45.36092" lon="6.83237">
        <ele>2053</ele>
        <time>2019-08-17T09:33:30Z</time>
      </trkpt>
      <trkpt lat="45.36086" lon="6.83221">
        <ele>2058</ele>
        <time>2019-08-17T09:33:47Z</time>
      </trkpt>
      <trkpt lat="45.36086" lon="6.83196">
        <ele>2065</ele>
        <time>2019-08-17T09:34:10Z</time>
      </trkpt>
      <trkpt lat="45.3608" lon="6.83165">
        <ele>2074</ele>
        <time>2019-08-17T09:34:40Z</time>
      </trkpt>
      <trkpt lat="45.36066" lon="6.83174">
        <ele>2069</ele>
        <time>2019-08-17T09:35:01Z</time>
      </trkpt>
      <trkpt lat="45.36061" lon="6.83165">
        <ele>2070</ele>
        <time>2019-08-17T09:35:12Z</time>
      </trkpt>
      <trkpt lat="45.36062" lon="6.83151">
        <ele>2076</ele>
        <time>2019-08-17T09:35:25Z</time>
      </trkpt>
      <trkpt lat="45.36067" lon="6.83143">
        <ele>2080</ele>
        <time>2019-08-17T09:35:35Z</time>
      </trkpt>
      <trkpt lat="45.36085" lon="6.8314">
        <ele>2084</ele>
        <time>2019-08-17T09:35:59Z</time>
      </trkpt>
      <trkpt lat="45.36113" lon="6.83128">
        <ele>2087</ele>
        <time>2019-08-17T09:36:38Z</time>
      </trkpt>
      <trkpt lat="45.36142" lon="6.8312">
        <ele>2088</ele>
        <time>2019-08-17T09:37:18Z</time>
      </trkpt>
      <trkpt lat="45.36161" lon="6.83118">
        <ele>2088</ele>
        <time>2019-08-17T09:37:43Z</time>
      </trkpt>
      <trkpt lat="45.36183" lon="6.83116">
        <ele>2088</ele>
        <time>2019-08-17T09:38:12Z</time>
      </trkpt>
      <trkpt lat="45.36179" lon="6.8311">
        <ele>2090</ele>
        <time>2019-08-17T09:38:20Z</time>
      </trkpt>
      <trkpt lat="45.36168" lon="6.83105">
        <ele>2091</ele>
        <time>2019-08-17T09:38:36Z</time>
      </trkpt>
      <trkpt lat="45.36143" lon="6.83094">
        <ele>2097</ele>
        <time>2019-08-17T09:39:11Z</time>
      </trkpt>
      <trkpt lat="45.36119" lon="6.83096">
        <ele>2099</ele>
        <time>2019-08-17T09:39:43Z</time>
      </trkpt>
      <trkpt lat="45.36093" lon="6.83083">
        <ele>2106</ele>
        <time>2019-08-17T09:40:19Z</time>
      </trkpt>
      <trkpt lat="45.36069" lon="6.83078">
        <ele>2104</ele>
        <time>2019-08-17T09:40:52Z</time>
      </trkpt>
      <trkpt lat="45.36071" lon="6.83071">
        <ele>2106</ele>
        <time>2019-08-17T09:40:59Z</time>
      </trkpt>
      <trkpt lat="45.36088" lon="6.83056">
        <ele>2111</ele>
        <time>2019-08-17T09:41:26Z</time>
      </trkpt>
      <trkpt lat="45.36109" lon="6.83039">
        <ele>2114</ele>
        <time>2019-08-17T09:41:58Z</time>
      </trkpt>
      <trkpt lat="45.36131" lon="6.83022">
        <ele>2118</ele>
        <time>2019-08-17T09:42:31Z</time>
      </trkpt>
      <trkpt lat="45.36146" lon="6.83">
        <ele>2124</ele>
        <time>2019-08-17T09:43:00Z</time>
      </trkpt>
      <trkpt lat="45.3615" lon="6.8299">
        <ele>2127</ele>
        <time>2019-08-17T09:43:11Z</time>
      </trkpt>
      <trkpt lat="45.36146" lon="6.82986">
        <ele>2128</ele>
        <time>2019-08-17T09:43:17Z</time>
      </trkpt>
      <trkpt lat="45.36107" lon="6.82976">
        <ele>2130</ele>
        <time>2019-08-17T09:44:10Z</time>
      </trkpt>
      <trkpt lat="45.36074" lon="6.82977">
        <ele>2126</ele>
        <time>2019-08-17T09:44:54Z</time>
      </trkpt>
      <trkpt lat="45.36045" lon="6.8298">
        <ele>2116</ele>
        <time>2019-08-17T09:45:33Z</time>
      </trkpt>
      <trkpt lat="45.36024" lon="6.82973">
        <ele>2111</ele>
        <time>2019-08-17T09:46:02Z</time>
      </trkpt>
      <trkpt lat="45.36021" lon="6.82965">
        <ele>2112</ele>
        <time>2019-08-17T09:46:10Z</time>
      </trkpt>
      <trkpt lat="45.3603" lon="6.82959">
        <ele>2117</ele>
        <time>2019-08-17T09:46:23Z</time>
      </trkpt>
      <trkpt lat="45.36043" lon="6.8295">
        <ele>2124</ele>
        <time>2019-08-17T09:46:43Z</time>
      </trkpt>
      <trkpt lat="45.36067" lon="6.82918">
        <ele>2144</ele>
        <time>2019-08-17T09:47:27Z</time>
      </trkpt>
      <trkpt lat="45.36081" lon="6.82893">
        <ele>2158</ele>
        <time>2019-08-17T09:47:57Z</time>
      </trkpt>
      <trkpt lat="45.36095" lon="6.82868">
        <ele>2168</ele>
        <time>2019-08-17T09:48:27Z</time>
      </trkpt>
      <trkpt lat="45.36112" lon="6.82857">
        <ele>2172</ele>
        <time>2019-08-17T09:48:52Z</time>
      </trkpt>
      <trkpt lat="45.36114" lon="6.82847">
        <ele>2175</ele>
        <time>2019-08-17T09:49:01Z</time>
      </trkpt>
      <trkpt lat="45.36104" lon="6.82838">
        <ele>2179</ele>
        <time>2019-08-17T09:49:17Z</time>
      </trkpt>
      <trkpt lat="45.36085" lon="6.82839">
        <ele>2179</ele>
        <time>2019-08-17T09:49:42Z</time>
      </trkpt>
      <trkpt lat="45.36064" lon="6.82842">
        <ele>2168</ele>
        <time>2019-08-17T09:50:11Z</time>
      </trkpt>
      <trkpt lat="45.36061" lon="6.82855">
        <ele>2163</ele>
        <time>2019-08-17T09:50:23Z</time>
      </trkpt>
      <trkpt lat="45.36049" lon="6.82865">
        <ele>2153</ele>
        <time>2019-08-17T09:50:42Z</time>
      </trkpt>
      <trkpt lat="45.36031" lon="6.82863">
        <ele>2146</ele>
        <time>2019-08-17T09:51:06Z</time>
      </trkpt>
      <trkpt lat="45.36031" lon="6.82852">
        <ele>2149</ele>
        <time>2019-08-17T09:51:16Z</time>
      </trkpt>
      <trkpt lat="45.36018" lon="6.82818">
        <ele>2155</ele>
        <time>2019-08-17T09:51:53Z</time>
      </trkpt>
      <trkpt lat="45.36019" lon="6.82772">
        <ele>2174</ele>
        <time>2019-08-17T09:52:36Z</time>
      </trkpt>
      <trkpt lat="45.36027" lon="6.82737">
        <ele>2189</ele>
        <time>2019-08-17T09:53:10Z</time>
      </trkpt>
      <trkpt lat="45.36019" lon="6.82689">
        <ele>2202</ele>
        <time>2019-08-17T09:53:57Z</time>
      </trkpt>
      <trkpt lat="45.36034" lon="6.82664">
        <ele>2215</ele>
        <time>2019-08-17T09:54:27Z</time>
      </trkpt>
      <trkpt lat="45.36049" lon="6.82638">
        <ele>2231</ele>
        <time>2019-08-17T09:54:59Z</time>
      </trkpt>
      <trkpt lat="45.3606" lon="6.82602">
        <ele>2248</ele>
        <time>2019-08-17T09:55:36Z</time>
      </trkpt>
      <trkpt lat="45.36082" lon="6.82572">
        <ele>2263</ele>
        <time>2019-08-17T09:56:16Z</time>
      </trkpt>
      <trkpt lat="45.36117" lon="6.82558">
        <ele>2271</ele>
        <time>2019-08-17T09:57:05Z</time>
      </trkpt>
      <trkpt lat="45.36149" lon="6.82536">
        <ele>2284</ele>
        <time>2019-08-17T09:57:52Z</time>
      </trkpt>
      <trkpt lat="45.36177" lon="6.82528">
        <ele>2291</ele>
        <time>2019-08-17T09:58:31Z</time>
      </trkpt>
      <trkpt lat="45.362" lon="6.82525">
        <ele>2296</ele>
        <time>2019-08-17T09:59:01Z</time>
      </trkpt>
      <trkpt lat="45.36223" lon="6.82522">
        <ele>2301</ele>
        <time>2019-08-17T09:59:32Z</time>
      </trkpt>
      <trkpt lat="45.36237" lon="6.82501">
        <ele>2313</ele>
        <time>2019-08-17T09:59:59Z</time>
      </trkpt>
      <trkpt lat="45.36242" lon="6.82481">
        <ele>2319</ele>
        <time>2019-08-17T10:00:19Z</time>
      </trkpt>
      <trkpt lat="45.36248" lon="6.82473">
        <ele>2322</ele>
        <time>2019-08-17T10:00:30Z</time>
      </trkpt>
      <trkpt lat="45.36246" lon="6.82463">
        <ele>2325</ele>
        <time>2019-08-17T10:00:40Z</time>
      </trkpt>
      <trkpt lat="45.36215" lon="6.82454">
        <ele>2326</ele>
        <time>2019-08-17T10:01:22Z</time>
      </trkpt>
      <trkpt lat="45.36209" lon="6.82444">
        <ele>2330</ele>
        <time>2019-08-17T10:01:34Z</time>
      </trkpt>
      <trkpt lat="45.36199" lon="6.82423">
        <ele>2338</ele>
        <time>2019-08-17T10:01:58Z</time>
      </trkpt>
      <trkpt lat="45.36202" lon="6.8242">
        <ele>2339</ele>
        <time>2019-08-17T10:02:03Z</time>
      </trkpt>
      <trkpt lat="45.36213" lon="6.8242">
        <ele>2338</ele>
        <time>2019-08-17T10:02:18Z</time>
      </trkpt>
      <trkpt lat="45.36212" lon="6.82415">
        <ele>2340</ele>
        <time>2019-08-17T10:02:23Z</time>
      </trkpt>
      <trkpt lat="45.36203" lon="6.824">
        <ele>2345</ele>
        <time>2019-08-17T10:02:41Z</time>
      </trkpt>
      <trkpt lat="45.36198" lon="6.82395">
        <ele>2347</ele>
        <time>2019-08-17T10:02:49Z</time>
      </trkpt>
      <trkpt lat="45.36182" lon="6.82394">
        <ele>2349</ele>
        <time>2019-08-17T10:03:11Z</time>
      </trkpt>
      <trkpt lat="45.36174" lon="6.82386">
        <ele>2351</ele>
        <time>2019-08-17T10:03:24Z</time>
      </trkpt>
      <trkpt lat="45.36174" lon="6.82372">
        <ele>2355</ele>
        <time>2019-08-17T10:03:37Z</time>
      </trkpt>
      <trkpt lat="45.36172" lon="6.82346">
        <ele>2363</ele>
        <time>2019-08-17T10:04:01Z</time>
      </trkpt>
      <trkpt lat="45.36171" lon="6.82341">
        <ele>2365</ele>
        <time>2019-08-17T10:04:06Z</time>
      </trkpt>
      <trkpt lat="45.36168" lon="6.82339">
        <ele>2365</ele>
        <time>2019-08-17T10:04:11Z</time>
      </trkpt>
      <trkpt lat="45.3616" lon="6.82342">
        <ele>2365</ele>
        <time>2019-08-17T10:04:22Z</time>
      </trkpt>
      <trkpt lat="45.36147" lon="6.82347">
        <ele>2364</ele>
        <time>2019-08-17T10:04:40Z</time>
      </trkpt>
      <trkpt lat="45.36127" lon="6.82339">
        <ele>2368</ele>
        <time>2019-08-17T10:05:07Z</time>
      </trkpt>
      <trkpt lat="45.36118" lon="6.82337">
        <ele>2369</ele>
        <time>2019-08-17T10:05:20Z</time>
      </trkpt>
      <trkpt lat="45.36118" lon="6.82317">
        <ele>2375</ele>
        <time>2019-08-17T10:05:38Z</time>
      </trkpt>
      <trkpt lat="45.36116" lon="6.82287">
        <ele>2383</ele>
        <time>2019-08-17T10:06:07Z</time>
      </trkpt>
      <trkpt lat="45.36111" lon="6.82263">
        <ele>2390</ele>
        <time>2019-08-17T10:06:30Z</time>
      </trkpt>
      <trkpt lat="45.36119" lon="6.82237">
        <ele>2398</ele>
        <time>2019-08-17T10:06:57Z</time>
      </trkpt>
      <trkpt lat="45.36117" lon="6.82229">
        <ele>2402</ele>
        <time>2019-08-17T10:07:05Z</time>
      </trkpt>
      <trkpt lat="45.36104" lon="6.82226">
        <ele>2403</ele>
        <time>2019-08-17T10:07:22Z</time>
      </trkpt>
      <trkpt lat="45.36092" lon="6.82219">
        <ele>2407</ele>
        <time>2019-08-17T10:07:40Z</time>
      </trkpt>
      <trkpt lat="45.36076" lon="6.82218">
        <ele>2407</ele>
        <time>2019-08-17T10:08:01Z</time>
      </trkpt>
      <trkpt lat="45.36076" lon="6.8221">
        <ele>2410</ele>
        <time>2019-08-17T10:08:08Z</time>
      </trkpt>
      <trkpt lat="45.36063" lon="6.82205">
        <ele>2412</ele>
        <time>2019-08-17T10:08:26Z</time>
      </trkpt>
      <trkpt lat="45.36045" lon="6.82181">
        <ele>2421</ele>
        <time>2019-08-17T10:08:59Z</time>
      </trkpt>
      <trkpt lat="45.3601" lon="6.82165">
        <ele>2426</ele>
        <time>2019-08-17T10:09:48Z</time>
      </trkpt>
      <trkpt lat="45.35982" lon="6.82147">
        <ele>2423</ele>
        <time>2019-08-17T10:10:29Z</time>
      </trkpt>
      <trkpt lat="45.35967" lon="6.8212">
        <ele>2423</ele>
        <time>2019-08-17T10:11:02Z</time>
      </trkpt>
      <trkpt lat="45.3596" lon="6.82103">
        <ele>2425</ele>
        <time>2019-08-17T10:11:20Z</time>
      </trkpt>
      <trkpt lat="45.35957" lon="6.82086">
        <ele>2428</ele>
        <time>2019-08-17T10:11:37Z</time>
      </trkpt>
      <trkpt lat="45.35948" lon="6.82057">
        <ele>2434</ele>
        <time>2019-08-17T10:12:06Z</time>
      </trkpt>
      <trkpt lat="45.35948" lon="6.82039">
        <ele>2437</ele>
        <time>2019-08-17T10:12:23Z</time>
      </trkpt>
      <trkpt lat="45.35952" lon="6.82007">
        <ele>2444</ele>
        <time>2019-08-17T10:12:54Z</time>
      </trkpt>
      <trkpt lat="45.3595" lon="6.81963">
        <ele>2453</ele>
        <time>2019-08-17T10:13:35Z</time>
      </trkpt>
      <trkpt lat="45.35947" lon="6.81959">
        <ele>2454</ele>
        <time>2019-08-17T10:13:40Z</time>
      </trkpt>
      <trkpt lat="45.35938" lon="6.81954">
        <ele>2453</ele>
        <time>2019-08-17T10:13:53Z</time>
      </trkpt>
      <trkpt lat="45.35919" lon="6.81926">
        <ele>2455</ele>
        <time>2019-08-17T10:14:30Z</time>
      </trkpt>
      <trkpt lat="45.35899" lon="6.81899">
        <ele>2459</ele>
        <time>2019-08-17T10:15:07Z</time>
      </trkpt>
      <trkpt lat="45.35887" lon="6.81867">
        <ele>2464</ele>
        <time>2019-08-17T10:15:41Z</time>
      </trkpt>
      <trkpt lat="45.35874" lon="6.81859">
        <ele>2464</ele>
        <time>2019-08-17T10:16:00Z</time>
      </trkpt>
      <trkpt lat="45.35871" lon="6.81846">
        <ele>2466</ele>
        <time>2019-08-17T10:16:12Z</time>
      </trkpt>
      <trkpt lat="45.35867" lon="6.81832">
        <ele>2468</ele>
        <time>2019-08-17T10:16:27Z</time>
      </trkpt>
      <trkpt lat="45.35831" lon="6.81776">
        <ele>2464</ele>
        <time>2019-08-17T10:17:38Z</time>
      </trkpt>
      <trkpt lat="45.35815" lon="6.8175">
        <ele>2463</ele>
        <time>2019-08-17T10:18:10Z</time>
      </trkpt>
      <trkpt lat="45.35779" lon="6.81709">
        <ele>2465</ele>
        <time>2019-08-17T10:19:12Z</time>
      </trkpt>
      <trkpt lat="45.35743" lon="6.81678">
        <ele>2462</ele>
        <time>2019-08-17T10:20:08Z</time>
      </trkpt>
      <trkpt lat="45.35716" lon="6.81645">
        <ele>2467</ele>
        <time>2019-08-17T10:20:55Z</time>
      </trkpt>
      <trkpt lat="45.35702" lon="6.81627">
        <ele>2470</ele>
        <time>2019-08-17T10:21:20Z</time>
      </trkpt>
      <trkpt lat="45.35695" lon="6.81603">
        <ele>2473</ele>
        <time>2019-08-17T10:21:45Z</time>
      </trkpt>
      <trkpt lat="45.35687" lon="6.81553">
        <ele>2479</ele>
        <time>2019-08-17T10:22:33Z</time>
      </trkpt>
      <trkpt lat="45.3567" lon="6.81527">
        <ele>2479</ele>
        <time>2019-08-17T10:23:06Z</time>
      </trkpt>
      <trkpt lat="45.35663" lon="6.81513">
        <ele>2478</ele>
        <time>2019-08-17T10:23:22Z</time>
      </trkpt>
      <trkpt lat="45.35662" lon="6.81495">
        <ele>2480</ele>
        <time>2019-08-17T10:23:39Z</time>
      </trkpt>
      <trkpt lat="45.35658" lon="6.81478">
        <ele>2481</ele>
        <time>2019-08-17T10:23:56Z</time>
      </trkpt>
      <trkpt lat="45.35649" lon="6.81459">
        <ele>2480</ele>
        <time>2019-08-17T10:24:18Z</time>
      </trkpt>
      <trkpt lat="45.35643" lon="6.81435">
        <ele>2480</ele>
        <time>2019-08-17T10:24:41Z</time>
      </trkpt>
      <trkpt lat="45.35643" lon="6.81401">
        <ele>2481</ele>
        <time>2019-08-17T10:25:13Z</time>
      </trkpt>
      <trkpt lat="45.35641" lon="6.81379">
        <ele>2478</ele>
        <time>2019-08-17T10:25:34Z</time>
      </trkpt>
      <trkpt lat="45.35648" lon="6.81344">
        <ele>2479</ele>
        <time>2019-08-17T10:26:08Z</time>
      </trkpt>
      <trkpt lat="45.35663" lon="6.813">
        <ele>2480</ele>
        <time>2019-08-17T10:26:54Z</time>
      </trkpt>
      <trkpt lat="45.35672" lon="6.81256">
        <ele>2478</ele>
        <time>2019-08-17T10:27:37Z</time>
      </trkpt>
      <trkpt lat="45.35678" lon="6.8124">
        <ele>2478</ele>
        <time>2019-08-17T10:27:54Z</time>
      </trkpt>
      <trkpt lat="45.35674" lon="6.81223">
        <ele>2474</ele>
        <time>2019-08-17T10:28:11Z</time>
      </trkpt>
      <trkpt lat="45.35679" lon="6.81195">
        <ele>2473</ele>
        <time>2019-08-17T10:28:38Z</time>
      </trkpt>
      <trkpt lat="45.35693" lon="6.81147">
        <ele>2475</ele>
        <time>2019-08-17T10:29:27Z</time>
      </trkpt>
      <trkpt lat="45.35697" lon="6.81085">
        <ele>2471</ele>
        <time>2019-08-17T10:30:25Z</time>
      </trkpt>
      <trkpt lat="45.35683" lon="6.81041">
        <ele>2463</ele>
        <time>2019-08-17T10:31:10Z</time>
      </trkpt>
      <trkpt lat="45.35698" lon="6.80991">
        <ele>2472</ele>
        <time>2019-08-17T10:32:01Z</time>
      </trkpt>
      <trkpt lat="45.35714" lon="6.80941">
        <ele>2477</ele>
        <time>2019-08-17T10:32:53Z</time>
      </trkpt>
      <trkpt lat="45.35711" lon="6.80894">
        <ele>2472</ele>
        <time>2019-08-17T10:33:37Z</time>
      </trkpt>
      <trkpt lat="45.35716" lon="6.80878">
        <ele>2474</ele>
        <time>2019-08-17T10:33:54Z</time>
      </trkpt>
      <trkpt lat="45.35718" lon="6.8084">
        <ele>2474</ele>
        <time>2019-08-17T10:34:29Z</time>
      </trkpt>
      <trkpt lat="45.35713" lon="6.80789">
        <ele>2473</ele>
        <time>2019-08-17T10:35:18Z</time>
      </trkpt>
      <trkpt lat="45.35701" lon="6.80752">
        <ele>2467</ele>
        <time>2019-08-17T10:35:56Z</time>
      </trkpt>
      <trkpt lat="45.35688" lon="6.80715">
        <ele>2467</ele>
        <time>2019-08-17T10:36:35Z</time>
      </trkpt>
      <trkpt lat="45.35683" lon="6.80674">
        <ele>2475</ele>
        <time>2019-08-17T10:37:14Z</time>
      </trkpt>
      <trkpt lat="45.35685" lon="6.80645">
        <ele>2481</ele>
        <time>2019-08-17T10:37:41Z</time>
      </trkpt>
      <trkpt lat="45.3568" lon="6.80592">
        <ele>2485</ele>
        <time>2019-08-17T10:38:31Z</time>
      </trkpt>
      <trkpt lat="45.35658" lon="6.80524">
        <ele>2477</ele>
        <time>2019-08-17T10:39:41Z</time>
      </trkpt>
      <trkpt lat="45.3565" lon="6.80481">
        <ele>2475</ele>
        <time>2019-08-17T10:40:23Z</time>
      </trkpt>
      <trkpt lat="45.3566" lon="6.80448">
        <ele>2481</ele>
        <time>2019-08-17T10:40:57Z</time>
      </trkpt>
      <trkpt lat="45.35661" lon="6.80397">
        <ele>2479</ele>
        <time>2019-08-17T10:41:45Z</time>
      </trkpt>
      <trkpt lat="45.35664" lon="6.80365">
        <ele>2475</ele>
        <time>2019-08-17T10:42:15Z</time>
      </trkpt>
      <trkpt lat="45.35668" lon="6.80333">
        <ele>2471</ele>
        <time>2019-08-17T10:42:45Z</time>
      </trkpt>
      <trkpt lat="45.35679" lon="6.80298">
        <ele>2473</ele>
        <time>2019-08-17T10:43:21Z</time>
      </trkpt>
      <trkpt lat="45.35686" lon="6.80217">
        <ele>2470</ele>
        <time>2019-08-17T10:44:38Z</time>
      </trkpt>
      <trkpt lat="45.3569" lon="6.80203">
        <ele>2472</ele>
        <time>2019-08-17T10:44:52Z</time>
      </trkpt>
      <trkpt lat="45.35686" lon="6.80196">
        <ele>2470</ele>
        <time>2019-08-17T10:45:00Z</time>
      </trkpt>
      <trkpt lat="45.35689" lon="6.80161">
        <ele>2470</ele>
        <time>2019-08-17T10:45:33Z</time>
      </trkpt>
      <trkpt lat="45.35684" lon="6.80143">
        <ele>2466</ele>
        <time>2019-08-17T10:45:52Z</time>
      </trkpt>
      <trkpt lat="45.35676" lon="6.80099">
        <ele>2458</ele>
        <time>2019-08-17T10:46:34Z</time>
      </trkpt>
      <trkpt lat="45.35669" lon="6.8007">
        <ele>2452</ele>
        <time>2019-08-17T10:47:03Z</time>
      </trkpt>
      <trkpt lat="45.35676" lon="6.80054">
        <ele>2455</ele>
        <time>2019-08-17T10:47:21Z</time>
      </trkpt>
      <trkpt lat="45.35675" lon="6.80039">
        <ele>2454</ele>
        <time>2019-08-17T10:47:35Z</time>
      </trkpt>
      <trkpt lat="45.35664" lon="6.80038">
        <ele>2448</ele>
        <time>2019-08-17T10:47:50Z</time>
      </trkpt>
      <trkpt lat="45.3567" lon="6.80014">
        <ele>2450</ele>
        <time>2019-08-17T10:48:13Z</time>
      </trkpt>
      <trkpt lat="45.35657" lon="6.80001">
        <ele>2444</ele>
        <time>2019-08-17T10:48:35Z</time>
      </trkpt>
      <trkpt lat="45.35638" lon="6.79996">
        <ele>2439</ele>
        <time>2019-08-17T10:49:00Z</time>
      </trkpt>
      <trkpt lat="45.35621" lon="6.80004">
        <ele>2435</ele>
        <time>2019-08-17T10:49:24Z</time>
      </trkpt>
      <trkpt lat="45.35618" lon="6.80004">
        <ele>2434</ele>
        <time>2019-08-17T10:49:28Z</time>
      </trkpt>
      <trkpt lat="45.35609" lon="6.80004">
        <ele>2431</ele>
        <time>2019-08-17T10:49:40Z</time>
      </trkpt>
      <trkpt lat="45.35592" lon="6.80006">
        <ele>2427</ele>
        <time>2019-08-17T10:50:03Z</time>
      </trkpt>
      <trkpt lat="45.35583" lon="6.79994">
        <ele>2424</ele>
        <time>2019-08-17T10:50:20Z</time>
      </trkpt>
      <trkpt lat="45.35567" lon="6.79996">
        <ele>2423</ele>
        <time>2019-08-17T10:50:41Z</time>
      </trkpt>
      <trkpt lat="45.35557" lon="6.8001">
        <ele>2423</ele>
        <time>2019-08-17T10:51:00Z</time>
      </trkpt>
      <trkpt lat="45.35531" lon="6.80016">
        <ele>2421</ele>
        <time>2019-08-17T10:51:35Z</time>
      </trkpt>
      <trkpt lat="45.3552" lon="6.79984">
        <ele>2419</ele>
        <time>2019-08-17T10:52:08Z</time>
      </trkpt>
      <trkpt lat="45.3551" lon="6.79952">
        <ele>2418</ele>
        <time>2019-08-17T10:52:41Z</time>
      </trkpt>
      <trkpt lat="45.3549" lon="6.79938">
        <ele>2419</ele>
        <time>2019-08-17T10:53:11Z</time>
      </trkpt>
      <trkpt lat="45.35471" lon="6.79923">
        <ele>2422</ele>
        <time>2019-08-17T10:53:40Z</time>
      </trkpt>
      <trkpt lat="45.35465" lon="6.79901">
        <ele>2424</ele>
        <time>2019-08-17T10:54:02Z</time>
      </trkpt>
      <trkpt lat="45.35458" lon="6.79906">
        <ele>2425</ele>
        <time>2019-08-17T10:54:12Z</time>
      </trkpt>
      <trkpt lat="45.35451" lon="6.79939">
        <ele>2423</ele>
        <time>2019-08-17T10:54:45Z</time>
      </trkpt>
      <trkpt lat="45.35415" lon="6.79961">
        <ele>2424</ele>
        <time>2019-08-17T10:55:37Z</time>
      </trkpt>
      <trkpt lat="45.35403" lon="6.79985">
        <ele>2421</ele>
        <time>2019-08-17T10:56:05Z</time>
      </trkpt>
      <trkpt lat="45.35378" lon="6.79983">
        <ele>2421</ele>
        <time>2019-08-17T10:56:38Z</time>
      </trkpt>
      <trkpt lat="45.35361" lon="6.79989">
        <ele>2419</ele>
        <time>2019-08-17T10:57:01Z</time>
      </trkpt>
      <trkpt lat="45.35341" lon="6.79989">
        <ele>2418</ele>
        <time>2019-08-17T10:57:28Z</time>
      </trkpt>
      <trkpt lat="45.35319" lon="6.79968">
        <ele>2422</ele>
        <time>2019-08-17T10:58:03Z</time>
      </trkpt>
      <trkpt lat="45.35297" lon="6.79937">
        <ele>2426</ele>
        <time>2019-08-17T10:58:45Z</time>
      </trkpt>
      <trkpt lat="45.35275" lon="6.79906">
        <ele>2428</ele>
        <time>2019-08-17T10:59:26Z</time>
      </trkpt>
      <trkpt lat="45.35253" lon="6.79859">
        <ele>2430</ele>
        <time>2019-08-17T11:00:19Z</time>
      </trkpt>
      <trkpt lat="45.35231" lon="6.79813">
        <ele>2433</ele>
        <time>2019-08-17T11:01:11Z</time>
      </trkpt>
      <trkpt lat="45.35221" lon="6.79775">
        <ele>2437</ele>
        <time>2019-08-17T11:01:49Z</time>
      </trkpt>
      <trkpt lat="45.3521" lon="6.79737">
        <ele>2439</ele>
        <time>2019-08-17T11:02:28Z</time>
      </trkpt>
      <trkpt lat="45.35195" lon="6.79672">
        <ele>2444</ele>
        <time>2019-08-17T11:03:32Z</time>
      </trkpt>
      <trkpt lat="45.35194" lon="6.79644">
        <ele>2446</ele>
        <time>2019-08-17T11:03:58Z</time>
      </trkpt>
      <trkpt lat="45.35182" lon="6.79617">
        <ele>2445</ele>
        <time>2019-08-17T11:04:28Z</time>
      </trkpt>
      <trkpt lat="45.35175" lon="6.79575">
        <ele>2448</ele>
        <time>2019-08-17T11:05:09Z</time>
      </trkpt>
      <trkpt lat="45.35156" lon="6.79549">
        <ele>2450</ele>
        <time>2019-08-17T11:05:44Z</time>
      </trkpt>
      <trkpt lat="45.35143" lon="6.79533">
        <ele>2453</ele>
        <time>2019-08-17T11:06:07Z</time>
      </trkpt>
      <trkpt lat="45.35135" lon="6.79508">
        <ele>2457</ele>
        <time>2019-08-17T11:06:33Z</time>
      </trkpt>
      <trkpt lat="45.35124" lon="6.79493">
        <ele>2459</ele>
        <time>2019-08-17T11:06:53Z</time>
      </trkpt>
      <trkpt lat="45.35116" lon="6.79501">
        <ele>2458</ele>
        <time>2019-08-17T11:07:06Z</time>
      </trkpt>
      <trkpt lat="45.35104" lon="6.79511">
        <ele>2457</ele>
        <time>2019-08-17T11:07:25Z</time>
      </trkpt>
      <trkpt lat="45.35071" lon="6.79529">
        <ele>2459</ele>
        <time>2019-08-17T11:08:12Z</time>
      </trkpt>
      <trkpt lat="45.3506" lon="6.79551">
        <ele>2460</ele>
        <time>2019-08-17T11:08:37Z</time>
      </trkpt>
      <trkpt lat="45.35042" lon="6.79572">
        <ele>2462</ele>
        <time>2019-08-17T11:09:08Z</time>
      </trkpt>
      <trkpt lat="45.35029" lon="6.79572">
        <ele>2466</ele>
        <time>2019-08-17T11:09:25Z</time>
      </trkpt>
      <trkpt lat="45.35026" lon="6.79565">
        <ele>2468</ele>
        <time>2019-08-17T11:09:33Z</time>
      </trkpt>
      <trkpt lat="45.35033" lon="6.79515">
        <ele>2470</ele>
        <time>2019-08-17T11:10:21Z</time>
      </trkpt>
      <trkpt lat="45.35019" lon="6.79523">
        <ele>2473</ele>
        <time>2019-08-17T11:10:41Z</time>
      </trkpt>
      <trkpt lat="45.35" lon="6.79521">
        <ele>2478</ele>
        <time>2019-08-17T11:11:06Z</time>
      </trkpt>
      <trkpt lat="45.35011" lon="6.79498">
        <ele>2477</ele>
        <time>2019-08-17T11:11:33Z</time>
      </trkpt>
      <trkpt lat="45.35021" lon="6.79461">
        <ele>2479</ele>
        <time>2019-08-17T11:12:10Z</time>
      </trkpt>
      <trkpt lat="45.3501" lon="6.79457">
        <ele>2483</ele>
        <time>2019-08-17T11:12:25Z</time>
      </trkpt>
      <trkpt lat="45.34985" lon="6.79464">
        <ele>2486</ele>
        <time>2019-08-17T11:12:59Z</time>
      </trkpt>
      <trkpt lat="45.34983" lon="6.7944">
        <ele>2489</ele>
        <time>2019-08-17T11:13:22Z</time>
      </trkpt>
      <trkpt lat="45.34971" lon="6.79433">
        <ele>2492</ele>
        <time>2019-08-17T11:13:39Z</time>
      </trkpt>
      <trkpt lat="45.34947" lon="6.79443">
        <ele>2493</ele>
        <time>2019-08-17T11:14:12Z</time>
      </trkpt>
      <trkpt lat="45.34932" lon="6.79462">
        <ele>2493</ele>
        <time>2019-08-17T11:14:39Z</time>
      </trkpt>
      <trkpt lat="45.34916" lon="6.7945">
        <ele>2496</ele>
        <time>2019-08-17T11:15:03Z</time>
      </trkpt>
      <trkpt lat="45.349" lon="6.79429">
        <ele>2500</ele>
        <time>2019-08-17T11:15:32Z</time>
      </trkpt>
      <trkpt lat="45.34883" lon="6.79422">
        <ele>2502</ele>
        <time>2019-08-17T11:15:56Z</time>
      </trkpt>
      <trkpt lat="45.3485" lon="6.7943">
        <ele>2505</ele>
        <time>2019-08-17T11:16:41Z</time>
      </trkpt>
      <trkpt lat="45.34823" lon="6.79405">
        <ele>2508</ele>
        <time>2019-08-17T11:17:23Z</time>
      </trkpt>
      <trkpt lat="45.3481" lon="6.79408">
        <ele>2510</ele>
        <time>2019-08-17T11:17:41Z</time>
      </trkpt>
      <trkpt lat="45.34798" lon="6.79445">
        <ele>2512</ele>
        <time>2019-08-17T11:18:19Z</time>
      </trkpt>
      <trkpt lat="45.34795" lon="6.79507">
        <ele>2514</ele>
        <time>2019-08-17T11:19:18Z</time>
      </trkpt>
      <trkpt lat="45.34784" lon="6.79535">
        <ele>2517</ele>
        <time>2019-08-17T11:19:48Z</time>
      </trkpt>
      <trkpt lat="45.34777" lon="6.79565">
        <ele>2520</ele>
        <time>2019-08-17T11:20:17Z</time>
      </trkpt>
      <trkpt lat="45.34777" lon="6.79655">
        <ele>2526</ele>
        <time>2019-08-17T11:21:42Z</time>
      </trkpt>
      <trkpt lat="45.34778" lon="6.797">
        <ele>2527</ele>
        <time>2019-08-17T11:22:24Z</time>
      </trkpt>
      <trkpt lat="45.34786" lon="6.79735">
        <ele>2525</ele>
        <time>2019-08-17T11:22:58Z</time>
      </trkpt>
      <trkpt lat="45.34791" lon="6.79795">
        <ele>2525</ele>
        <time>2019-08-17T11:23:55Z</time>
      </trkpt>
      <trkpt lat="45.34811" lon="6.79836">
        <ele>2521</ele>
        <time>2019-08-17T11:24:42Z</time>
      </trkpt>
      <trkpt lat="45.34815" lon="6.79857">
        <ele>2520</ele>
        <time>2019-08-17T11:25:02Z</time>
      </trkpt>
      <trkpt lat="45.34797" lon="6.7985">
        <ele>2523</ele>
        <time>2019-08-17T11:25:27Z</time>
      </trkpt>
      <trkpt lat="45.34771" lon="6.79834">
        <ele>2530</ele>
        <time>2019-08-17T11:26:05Z</time>
      </trkpt>
      <trkpt lat="45.3475" lon="6.79848">
        <ele>2532</ele>
        <time>2019-08-17T11:26:36Z</time>
      </trkpt>
      <trkpt lat="45.34741" lon="6.79862">
        <ele>2529</ele>
        <time>2019-08-17T11:26:54Z</time>
      </trkpt>
      <trkpt lat="45.34733" lon="6.79871">
        <ele>2527</ele>
        <time>2019-08-17T11:27:07Z</time>
      </trkpt>
      <trkpt lat="45.34724" lon="6.79857">
        <ele>2529</ele>
        <time>2019-08-17T11:27:25Z</time>
      </trkpt>
      <trkpt lat="45.34711" lon="6.79844">
        <ele>2532</ele>
        <time>2019-08-17T11:27:46Z</time>
      </trkpt>
      <trkpt lat="45.34693" lon="6.79821">
        <ele>2536</ele>
        <time>2019-08-17T11:28:19Z</time>
      </trkpt>
      <trkpt lat="45.34665" lon="6.79833">
        <ele>2535</ele>
        <time>2019-08-17T11:28:58Z</time>
      </trkpt>
      <trkpt lat="45.34645" lon="6.79854">
        <ele>2531</ele>
        <time>2019-08-17T11:29:31Z</time>
      </trkpt>
      <trkpt lat="45.34637" lon="6.79841">
        <ele>2536</ele>
        <time>2019-08-17T11:29:47Z</time>
      </trkpt>
      <trkpt lat="45.34619" lon="6.79835">
        <ele>2540</ele>
        <time>2019-08-17T11:30:12Z</time>
      </trkpt>
      <trkpt lat="45.34611" lon="6.79841">
        <ele>2539</ele>
        <time>2019-08-17T11:30:24Z</time>
      </trkpt>
      <trkpt lat="45.34595" lon="6.79843">
        <ele>2540</ele>
        <time>2019-08-17T11:30:45Z</time>
      </trkpt>
      <trkpt lat="45.34563" lon="6.79838">
        <ele>2544</ele>
        <time>2019-08-17T11:31:28Z</time>
      </trkpt>
      <trkpt lat="45.34546" lon="6.79842">
        <ele>2543</ele>
        <time>2019-08-17T11:31:51Z</time>
      </trkpt>
      <trkpt lat="45.34496" lon="6.7983">
        <ele>2550</ele>
        <time>2019-08-17T11:32:59Z</time>
      </trkpt>
      <trkpt lat="45.34482" lon="6.79829">
        <ele>2550</ele>
        <time>2019-08-17T11:33:18Z</time>
      </trkpt>
      <trkpt lat="45.34462" lon="6.79836">
        <ele>2546</ele>
        <time>2019-08-17T11:33:45Z</time>
      </trkpt>
      <trkpt lat="45.34449" lon="6.79841">
        <ele>2544</ele>
        <time>2019-08-17T11:34:03Z</time>
      </trkpt>
      <trkpt lat="45.34426" lon="6.79839">
        <ele>2544</ele>
        <time>2019-08-17T11:34:34Z</time>
      </trkpt>
      <trkpt lat="45.3441" lon="6.79843">
        <ele>2542</ele>
        <time>2019-08-17T11:34:55Z</time>
      </trkpt>
      <trkpt lat="45.34379" lon="6.79844">
        <ele>2541</ele>
        <time>2019-08-17T11:35:37Z</time>
      </trkpt>
      <trkpt lat="45.34368" lon="6.79858">
        <ele>2537</ele>
        <time>2019-08-17T11:35:57Z</time>
      </trkpt>
      <trkpt lat="45.34348" lon="6.79879">
        <ele>2530</ele>
        <time>2019-08-17T11:36:30Z</time>
      </trkpt>
      <trkpt lat="45.34328" lon="6.79884">
        <ele>2529</ele>
        <time>2019-08-17T11:36:57Z</time>
      </trkpt>
      <trkpt lat="45.34305" lon="6.79887">
        <ele>2531</ele>
        <time>2019-08-17T11:37:28Z</time>
      </trkpt>
      <trkpt lat="45.3429" lon="6.79889">
        <ele>2533</ele>
        <time>2019-08-17T11:37:48Z</time>
      </trkpt>
      <trkpt lat="45.34278" lon="6.79911">
        <ele>2529</ele>
        <time>2019-08-17T11:38:14Z</time>
      </trkpt>
      <trkpt lat="45.34274" lon="6.79923">
        <ele>2528</ele>
        <time>2019-08-17T11:38:26Z</time>
      </trkpt>
      <trkpt lat="45.34274" lon="6.79973">
        <ele>2526</ele>
        <time>2019-08-17T11:39:13Z</time>
      </trkpt>
      <trkpt lat="45.34265" lon="6.8">
        <ele>2527</ele>
        <time>2019-08-17T11:39:41Z</time>
      </trkpt>
      <trkpt lat="45.34256" lon="6.80028">
        <ele>2527</ele>
        <time>2019-08-17T11:40:10Z</time>
      </trkpt>
      <trkpt lat="45.34242" lon="6.80044">
        <ele>2530</ele>
        <time>2019-08-17T11:40:34Z</time>
      </trkpt>
      <trkpt lat="45.34233" lon="6.80086">
        <ele>2529</ele>
        <time>2019-08-17T11:41:15Z</time>
      </trkpt>
      <trkpt lat="45.34208" lon="6.80133">
        <ele>2534</ele>
        <time>2019-08-17T11:42:11Z</time>
      </trkpt>
      <trkpt lat="45.34204" lon="6.80162">
        <ele>2533</ele>
        <time>2019-08-17T11:42:38Z</time>
      </trkpt>
      <trkpt lat="45.34166" lon="6.80254">
        <ele>2534</ele>
        <time>2019-08-17T11:44:18Z</time>
      </trkpt>
      <trkpt lat="45.3416" lon="6.80253">
        <ele>2533</ele>
        <time>2019-08-17T11:44:26Z</time>
      </trkpt>
      <trkpt lat="45.34153" lon="6.80249">
        <ele>2534</ele>
        <time>2019-08-17T11:44:36Z</time>
      </trkpt>
      <trkpt lat="45.34147" lon="6.80227">
        <ele>2535</ele>
        <time>2019-08-17T11:44:59Z</time>
      </trkpt>
      <trkpt lat="45.34127" lon="6.80203">
        <ele>2538</ele>
        <time>2019-08-17T11:45:34Z</time>
      </trkpt>
      <trkpt lat="45.34102" lon="6.8019">
        <ele>2540</ele>
        <time>2019-08-17T11:46:09Z</time>
      </trkpt>
      <trkpt lat="45.34095" lon="6.80176">
        <ele>2543</ele>
        <time>2019-08-17T11:46:25Z</time>
      </trkpt>
      <trkpt lat="45.3408" lon="6.80168">
        <ele>2545</ele>
        <time>2019-08-17T11:46:47Z</time>
      </trkpt>
      <trkpt lat="45.34071" lon="6.80107">
        <ele>2550</ele>
        <time>2019-08-17T11:47:45Z</time>
      </trkpt>
      <trkpt lat="45.34066" lon="6.80099">
        <ele>2550</ele>
        <time>2019-08-17T11:47:55Z</time>
      </trkpt>
      <trkpt lat="45.34056" lon="6.80087">
        <ele>2550</ele>
        <time>2019-08-17T11:48:12Z</time>
      </trkpt>
      <trkpt lat="45.34039" lon="6.80086">
        <ele>2548</ele>
        <time>2019-08-17T11:48:35Z</time>
      </trkpt>
      <trkpt lat="45.34032" lon="6.80078">
        <ele>2548</ele>
        <time>2019-08-17T11:48:47Z</time>
      </trkpt>
      <trkpt lat="45.34008" lon="6.80064">
        <ele>2545</ele>
        <time>2019-08-17T11:49:22Z</time>
      </trkpt>
      <trkpt lat="45.33993" lon="6.80047">
        <ele>2542</ele>
        <time>2019-08-17T11:49:47Z</time>
      </trkpt>
      <trkpt lat="45.33973" lon="6.80029">
        <ele>2538</ele>
        <time>2019-08-17T11:50:19Z</time>
      </trkpt>
      <trkpt lat="45.33955" lon="6.80003">
        <ele>2535</ele>
        <time>2019-08-17T11:50:53Z</time>
      </trkpt>
      <trkpt lat="45.33945" lon="6.79975">
        <ele>2535</ele>
        <time>2019-08-17T11:51:23Z</time>
      </trkpt>
      <trkpt lat="45.33937" lon="6.79945">
        <ele>2535</ele>
        <time>2019-08-17T11:51:53Z</time>
      </trkpt>
      <trkpt lat="45.33927" lon="6.79929">
        <ele>2535</ele>
        <time>2019-08-17T11:52:13Z</time>
      </trkpt>
      <trkpt lat="45.33903" lon="6.79902">
        <ele>2533</ele>
        <time>2019-08-17T11:52:54Z</time>
      </trkpt>
      <trkpt lat="45.33872" lon="6.79874">
        <ele>2530</ele>
        <time>2019-08-17T11:53:43Z</time>
      </trkpt>
      <trkpt lat="45.33851" lon="6.79845">
        <ele>2529</ele>
        <time>2019-08-17T11:54:22Z</time>
      </trkpt>
      <trkpt lat="45.33833" lon="6.79814">
        <ele>2531</ele>
        <time>2019-08-17T11:54:59Z</time>
      </trkpt>
      <trkpt lat="45.33829" lon="6.79806">
        <ele>2532</ele>
        <time>2019-08-17T11:55:09Z</time>
      </trkpt>
      <trkpt lat="45.33823" lon="6.79818">
        <ele>2530</ele>
        <time>2019-08-17T11:55:22Z</time>
      </trkpt>
      <trkpt lat="45.33806" lon="6.79819">
        <ele>2530</ele>
        <time>2019-08-17T11:55:45Z</time>
      </trkpt>
      <trkpt lat="45.33786" lon="6.79816">
        <ele>2531</ele>
        <time>2019-08-17T11:56:12Z</time>
      </trkpt>
      <trkpt lat="45.3375" lon="6.7982">
        <ele>2530</ele>
        <time>2019-08-17T11:57:00Z</time>
      </trkpt>
      <trkpt lat="45.33724" lon="6.79842">
        <ele>2538</ele>
        <time>2019-08-17T11:57:41Z</time>
      </trkpt>
      <trkpt lat="45.3371" lon="6.79827">
        <ele>2547</ele>
        <time>2019-08-17T11:58:04Z</time>
      </trkpt>
      <trkpt lat="45.33697" lon="6.79864">
        <ele>2546</ele>
        <time>2019-08-17T11:58:43Z</time>
      </trkpt>
      <trkpt lat="45.33668" lon="6.79891">
        <ele>2551</ele>
        <time>2019-08-17T11:59:29Z</time>
      </trkpt>
      <trkpt lat="45.33633" lon="6.79956">
        <ele>2551</ele>
        <time>2019-08-17T12:00:46Z</time>
      </trkpt>
      <trkpt lat="45.33617" lon="6.79985">
        <ele>2551</ele>
        <time>2019-08-17T12:01:20Z</time>
      </trkpt>
      <trkpt lat="45.33595" lon="6.80042">
        <ele>2553</ele>
        <time>2019-08-17T12:02:21Z</time>
      </trkpt>
      <trkpt lat="45.33588" lon="6.80061">
        <ele>2554</ele>
        <time>2019-08-17T12:02:42Z</time>
      </trkpt>
      <trkpt lat="45.33534" lon="6.80095">
        <ele>2557</ele>
        <time>2019-08-17T12:04:00Z</time>
      </trkpt>
      <trkpt lat="45.33507" lon="6.80101">
        <ele>2559</ele>
        <time>2019-08-17T12:04:37Z</time>
      </trkpt>
      <trkpt lat="45.33484" lon="6.80096">
        <ele>2562</ele>
        <time>2019-08-17T12:05:08Z</time>
      </trkpt>
      <trkpt lat="45.33449" lon="6.80081">
        <ele>2569</ele>
        <time>2019-08-17T12:05:57Z</time>
      </trkpt>
      <trkpt lat="45.33413" lon="6.80066">
        <ele>2574</ele>
        <time>2019-08-17T12:06:47Z</time>
      </trkpt>
      <trkpt lat="45.33378" lon="6.8005">
        <ele>2571</ele>
        <time>2019-08-17T12:07:36Z</time>
      </trkpt>
      <trkpt lat="45.33342" lon="6.80035">
        <ele>2569</ele>
        <time>2019-08-17T12:08:26Z</time>
      </trkpt>
      <trkpt lat="45.33315" lon="6.80018">
        <ele>2568</ele>
        <time>2019-08-17T12:09:05Z</time>
      </trkpt>
      <trkpt lat="45.33288" lon="6.80001">
        <ele>2567</ele>
        <time>2019-08-17T12:09:45Z</time>
      </trkpt>
      <trkpt lat="45.33254" lon="6.79987">
        <ele>2564</ele>
        <time>2019-08-17T12:10:32Z</time>
      </trkpt>
      <trkpt lat="45.33221" lon="6.79973">
        <ele>2564</ele>
        <time>2019-08-17T12:11:18Z</time>
      </trkpt>
      <trkpt lat="45.33157" lon="6.79952">
        <ele>2560</ele>
        <time>2019-08-17T12:12:45Z</time>
      </trkpt>
      <trkpt lat="45.33129" lon="6.79953">
        <ele>2553</ele>
        <time>2019-08-17T12:13:23Z</time>
      </trkpt>
      <trkpt lat="45.33093" lon="6.79917">
        <ele>2559</ele>
        <time>2019-08-17T12:14:22Z</time>
      </trkpt>
      <trkpt lat="45.33058" lon="6.79906">
        <ele>2552</ele>
        <time>2019-08-17T12:15:09Z</time>
      </trkpt>
      <trkpt lat="45.33042" lon="6.79902">
        <ele>2549</ele>
        <time>2019-08-17T12:15:31Z</time>
      </trkpt>
      <trkpt lat="45.33028" lon="6.79894">
        <ele>2548</ele>
        <time>2019-08-17T12:15:51Z</time>
      </trkpt>
      <trkpt lat="45.33015" lon="6.79875">
        <ele>2552</ele>
        <time>2019-08-17T12:16:16Z</time>
      </trkpt>
      <trkpt lat="45.33005" lon="6.79877">
        <ele>2548</ele>
        <time>2019-08-17T12:16:30Z</time>
      </trkpt>
      <trkpt lat="45.3298" lon="6.79868">
        <ele>2543</ele>
        <time>2019-08-17T12:17:04Z</time>
      </trkpt>
      <trkpt lat="45.32965" lon="6.79843">
        <ele>2550</ele>
        <time>2019-08-17T12:17:35Z</time>
      </trkpt>
      <trkpt lat="45.32954" lon="6.79843">
        <ele>2546</ele>
        <time>2019-08-17T12:17:49Z</time>
      </trkpt>
      <trkpt lat="45.32947" lon="6.79851">
        <ele>2539</ele>
        <time>2019-08-17T12:18:01Z</time>
      </trkpt>
      <trkpt lat="45.32915" lon="6.79818">
        <ele>2542</ele>
        <time>2019-08-17T12:18:54Z</time>
      </trkpt>
      <trkpt lat="45.32889" lon="6.79778">
        <ele>2544</ele>
        <time>2019-08-17T12:19:45Z</time>
      </trkpt>
      <trkpt lat="45.32881" lon="6.79756">
        <ele>2549</ele>
        <time>2019-08-17T12:20:09Z</time>
      </trkpt>
      <trkpt lat="45.32863" lon="6.79744">
        <ele>2547</ele>
        <time>2019-08-17T12:20:35Z</time>
      </trkpt>
      <trkpt lat="45.32869" lon="6.79736">
        <ele>2554</ele>
        <time>2019-08-17T12:20:46Z</time>
      </trkpt>
      <trkpt lat="45.32837" lon="6.79713">
        <ele>2554</ele>
        <time>2019-08-17T12:21:34Z</time>
      </trkpt>
      <trkpt lat="45.32841" lon="6.79736">
        <ele>2543</ele>
        <time>2019-08-17T12:21:56Z</time>
      </trkpt>
      <trkpt lat="45.32811" lon="6.79716">
        <ele>2543</ele>
        <time>2019-08-17T12:22:40Z</time>
      </trkpt>
      <trkpt lat="45.32747" lon="6.7971">
        <ele>2522</ele>
        <time>2019-08-17T12:24:06Z</time>
      </trkpt>
      <trkpt lat="45.32715" lon="6.79707">
        <ele>2514</ele>
        <time>2019-08-17T12:24:49Z</time>
      </trkpt>
      <trkpt lat="45.32674" lon="6.79702">
        <ele>2506</ele>
        <time>2019-08-17T12:25:44Z</time>
      </trkpt>
      <trkpt lat="45.32646" lon="6.79703">
        <ele>2498</ele>
        <time>2019-08-17T12:26:21Z</time>
      </trkpt>
      <trkpt lat="45.32615" lon="6.7969">
        <ele>2498</ele>
        <time>2019-08-17T12:27:04Z</time>
      </trkpt>
      <trkpt lat="45.32602" lon="6.79673">
        <ele>2505</ele>
        <time>2019-08-17T12:27:28Z</time>
      </trkpt>
      <trkpt lat="45.32591" lon="6.79687">
        <ele>2494</ele>
        <time>2019-08-17T12:27:47Z</time>
      </trkpt>
      <trkpt lat="45.32561" lon="6.79686">
        <ele>2485</ele>
        <time>2019-08-17T12:28:27Z</time>
      </trkpt>
      <trkpt lat="45.32533" lon="6.79697">
        <ele>2470</ele>
        <time>2019-08-17T12:29:06Z</time>
      </trkpt>
      <trkpt lat="45.32456" lon="6.79689">
        <ele>2460</ele>
        <time>2019-08-17T12:30:49Z</time>
      </trkpt>
      <trkpt lat="45.32422" lon="6.7968">
        <ele>2461</ele>
        <time>2019-08-17T12:31:35Z</time>
      </trkpt>
      <trkpt lat="45.32398" lon="6.79687">
        <ele>2452</ele>
        <time>2019-08-17T12:32:08Z</time>
      </trkpt>
      <trkpt lat="45.3237" lon="6.79684">
        <ele>2445</ele>
        <time>2019-08-17T12:32:46Z</time>
      </trkpt>
      <trkpt lat="45.3236" lon="6.79676">
        <ele>2445</ele>
        <time>2019-08-17T12:33:01Z</time>
      </trkpt>
      <trkpt lat="45.32326" lon="6.79648">
        <ele>2443</ele>
        <time>2019-08-17T12:33:53Z</time>
      </trkpt>
      <trkpt lat="45.32296" lon="6.79618">
        <ele>2438</ele>
        <time>2019-08-17T12:34:42Z</time>
      </trkpt>
      <trkpt lat="45.32287" lon="6.79596">
        <ele>2440</ele>
        <time>2019-08-17T12:35:06Z</time>
      </trkpt>
      <trkpt lat="45.32271" lon="6.79593">
        <ele>2432</ele>
        <time>2019-08-17T12:35:28Z</time>
      </trkpt>
      <trkpt lat="45.3226" lon="6.79592">
        <ele>2426</ele>
        <time>2019-08-17T12:35:42Z</time>
      </trkpt>
      <trkpt lat="45.32261" lon="6.79601">
        <ele>2425</ele>
        <time>2019-08-17T12:35:51Z</time>
      </trkpt>
      <trkpt lat="45.3225" lon="6.79605">
        <ele>2418</ele>
        <time>2019-08-17T12:36:06Z</time>
      </trkpt>
      <trkpt lat="45.32238" lon="6.79601">
        <ele>2413</ele>
        <time>2019-08-17T12:36:23Z</time>
      </trkpt>
      <trkpt lat="45.32237" lon="6.79612">
        <ele>2410</ele>
        <time>2019-08-17T12:36:33Z</time>
      </trkpt>
      <trkpt lat="45.32224" lon="6.79615">
        <ele>2404</ele>
        <time>2019-08-17T12:36:50Z</time>
      </trkpt>
      <trkpt lat="45.32207" lon="6.79606">
        <ele>2399</ele>
        <time>2019-08-17T12:37:15Z</time>
      </trkpt>
      <trkpt lat="45.3221" lon="6.79624">
        <ele>2396</ele>
        <time>2019-08-17T12:37:32Z</time>
      </trkpt>
      <trkpt lat="45.32185" lon="6.79628">
        <ele>2385</ele>
        <time>2019-08-17T12:38:06Z</time>
      </trkpt>
      <trkpt lat="45.32144" lon="6.79615">
        <ele>2372</ele>
        <time>2019-08-17T12:39:02Z</time>
      </trkpt>
      <trkpt lat="45.32114" lon="6.79611">
        <ele>2362</ele>
        <time>2019-08-17T12:39:42Z</time>
      </trkpt>
      <trkpt lat="45.321" lon="6.79592">
        <ele>2360</ele>
        <time>2019-08-17T12:40:08Z</time>
      </trkpt>
      <trkpt lat="45.32056" lon="6.7956">
        <ele>2348</ele>
        <time>2019-08-17T12:41:14Z</time>
      </trkpt>
      <trkpt lat="45.32053" lon="6.79589">
        <ele>2343</ele>
        <time>2019-08-17T12:41:41Z</time>
      </trkpt>
      <trkpt lat="45.32044" lon="6.79582">
        <ele>2341</ele>
        <time>2019-08-17T12:41:55Z</time>
      </trkpt>
      <trkpt lat="45.32035" lon="6.79562">
        <ele>2339</ele>
        <time>2019-08-17T12:42:17Z</time>
      </trkpt>
      <trkpt lat="45.32025" lon="6.79555">
        <ele>2336</ele>
        <time>2019-08-17T12:42:32Z</time>
      </trkpt>
      <trkpt lat="45.32008" lon="6.79544">
        <ele>2330</ele>
        <time>2019-08-17T12:42:57Z</time>
      </trkpt>
      <trkpt lat="45.31999" lon="6.79524">
        <ele>2328</ele>
        <time>2019-08-17T12:43:19Z</time>
      </trkpt>
      <trkpt lat="45.31992" lon="6.79481">
        <ele>2329</ele>
        <time>2019-08-17T12:44:01Z</time>
      </trkpt>
      <trkpt lat="45.31973" lon="6.79466">
        <ele>2322</ele>
        <time>2019-08-17T12:44:30Z</time>
      </trkpt>
      <trkpt lat="45.31962" lon="6.79451">
        <ele>2318</ele>
        <time>2019-08-17T12:44:50Z</time>
      </trkpt>
      <trkpt lat="45.31959" lon="6.79418">
        <ele>2319</ele>
        <time>2019-08-17T12:45:21Z</time>
      </trkpt>
      <trkpt lat="45.31958" lon="6.79389">
        <ele>2319</ele>
        <time>2019-08-17T12:45:48Z</time>
      </trkpt>
      <trkpt lat="45.31945" lon="6.7936">
        <ele>2314</ele>
        <time>2019-08-17T12:46:21Z</time>
      </trkpt>
      <trkpt lat="45.31939" lon="6.79334">
        <ele>2311</ele>
        <time>2019-08-17T12:46:46Z</time>
      </trkpt>
      <trkpt lat="45.31926" lon="6.79332">
        <ele>2305</ele>
        <time>2019-08-17T12:47:04Z</time>
      </trkpt>
      <trkpt lat="45.31923" lon="6.79341">
        <ele>2303</ele>
        <time>2019-08-17T12:47:13Z</time>
      </trkpt>
      <trkpt lat="45.31913" lon="6.79346">
        <ele>2298</ele>
        <time>2019-08-17T12:47:27Z</time>
      </trkpt>
      <trkpt lat="45.31913" lon="6.79295">
        <ele>2299</ele>
        <time>2019-08-17T12:48:15Z</time>
      </trkpt>
      <trkpt lat="45.31905" lon="6.79274">
        <ele>2296</ele>
        <time>2019-08-17T12:48:38Z</time>
      </trkpt>
      <trkpt lat="45.31904" lon="6.79236">
        <ele>2297</ele>
        <time>2019-08-17T12:49:13Z</time>
      </trkpt>
      <trkpt lat="45.31895" lon="6.79206">
        <ele>2297</ele>
        <time>2019-08-17T12:49:44Z</time>
      </trkpt>
      <trkpt lat="45.31875" lon="6.79184">
        <ele>2292</ele>
        <time>2019-08-17T12:50:18Z</time>
      </trkpt>
      <trkpt lat="45.31861" lon="6.79171">
        <ele>2289</ele>
        <time>2019-08-17T12:50:40Z</time>
      </trkpt>
      <trkpt lat="45.31835" lon="6.79161">
        <ele>2281</ele>
        <time>2019-08-17T12:51:16Z</time>
      </trkpt>
      <trkpt lat="45.31826" lon="6.79165">
        <ele>2279</ele>
        <time>2019-08-17T12:51:28Z</time>
      </trkpt>
      <trkpt lat="45.3181" lon="6.7915">
        <ele>2278</ele>
        <time>2019-08-17T12:51:54Z</time>
      </trkpt>
      <trkpt lat="45.31804" lon="6.79153">
        <ele>2277</ele>
        <time>2019-08-17T12:52:03Z</time>
      </trkpt>
      <trkpt lat="45.31779" lon="6.79169">
        <ele>2269</ele>
        <time>2019-08-17T12:52:39Z</time>
      </trkpt>
      <trkpt lat="45.31756" lon="6.79172">
        <ele>2264</ele>
        <time>2019-08-17T12:53:10Z</time>
      </trkpt>
      <trkpt lat="45.31739" lon="6.79192">
        <ele>2260</ele>
        <time>2019-08-17T12:53:39Z</time>
      </trkpt>
      <trkpt lat="45.31702" lon="6.79199">
        <ele>2256</ele>
        <time>2019-08-17T12:54:29Z</time>
      </trkpt>
      <trkpt lat="45.31679" lon="6.79212">
        <ele>2252</ele>
        <time>2019-08-17T12:55:02Z</time>
      </trkpt>
      <trkpt lat="45.31672" lon="6.79203">
        <ele>2253</ele>
        <time>2019-08-17T12:55:15Z</time>
      </trkpt>
      <trkpt lat="45.31641" lon="6.792">
        <ele>2254</ele>
        <time>2019-08-17T12:55:56Z</time>
      </trkpt>
      <trkpt lat="45.31627" lon="6.79188">
        <ele>2257</ele>
        <time>2019-08-17T12:56:18Z</time>
      </trkpt>
      <trkpt lat="45.31605" lon="6.79194">
        <ele>2257</ele>
        <time>2019-08-17T12:56:48Z</time>
      </trkpt>
      <trkpt lat="45.31577" lon="6.7923">
        <ele>2248</ele>
        <time>2019-08-17T12:57:38Z</time>
      </trkpt>
      <trkpt lat="45.3155" lon="6.79265">
        <ele>2238</ele>
        <time>2019-08-17T12:58:27Z</time>
      </trkpt>
      <trkpt lat="45.31522" lon="6.79264">
        <ele>2238</ele>
        <time>2019-08-17T12:59:04Z</time>
      </trkpt>
      <trkpt lat="45.31505" lon="6.79278">
        <ele>2234</ele>
        <time>2019-08-17T12:59:31Z</time>
      </trkpt>
      <trkpt lat="45.3149" lon="6.79275">
        <ele>2234</ele>
        <time>2019-08-17T12:59:51Z</time>
      </trkpt>
      <trkpt lat="45.3145" lon="6.79316">
        <ele>2220</ele>
        <time>2019-08-17T13:00:57Z</time>
      </trkpt>
      <trkpt lat="45.31441" lon="6.79334">
        <ele>2214</ele>
        <time>2019-08-17T13:01:17Z</time>
      </trkpt>
      <trkpt lat="45.31416" lon="6.79351">
        <ele>2209</ele>
        <time>2019-08-17T13:01:54Z</time>
      </trkpt>
      <trkpt lat="45.31391" lon="6.79381">
        <ele>2205</ele>
        <time>2019-08-17T13:02:38Z</time>
      </trkpt>
      <trkpt lat="45.31361" lon="6.79417">
        <ele>2198</ele>
        <time>2019-08-17T13:03:30Z</time>
      </trkpt>
      <trkpt lat="45.31346" lon="6.79405">
        <ele>2200</ele>
        <time>2019-08-17T13:03:53Z</time>
      </trkpt>
      <trkpt lat="45.31334" lon="6.79397">
        <ele>2202</ele>
        <time>2019-08-17T13:04:11Z</time>
      </trkpt>
      <trkpt lat="45.31305" lon="6.79415">
        <ele>2199</ele>
        <time>2019-08-17T13:04:53Z</time>
      </trkpt>
      <trkpt lat="45.31276" lon="6.79424">
        <ele>2200</ele>
        <time>2019-08-17T13:05:33Z</time>
      </trkpt>
      <trkpt lat="45.31262" lon="6.79452">
        <ele>2195</ele>
        <time>2019-08-17T13:06:05Z</time>
      </trkpt>
      <trkpt lat="45.31244" lon="6.79459">
        <ele>2193</ele>
        <time>2019-08-17T13:06:30Z</time>
      </trkpt>
      <trkpt lat="45.31219" lon="6.79461">
        <ele>2192</ele>
        <time>2019-08-17T13:07:03Z</time>
      </trkpt>
      <trkpt lat="45.31204" lon="6.7947">
        <ele>2190</ele>
        <time>2019-08-17T13:07:25Z</time>
      </trkpt>
      <trkpt lat="45.31173" lon="6.79468">
        <ele>2190</ele>
        <time>2019-08-17T13:08:07Z</time>
      </trkpt>
      <trkpt lat="45.31159" lon="6.79428">
        <ele>2200</ele>
        <time>2019-08-17T13:08:49Z</time>
      </trkpt>
      <trkpt lat="45.31139" lon="6.79432">
        <ele>2199</ele>
        <time>2019-08-17T13:09:15Z</time>
      </trkpt>
      <trkpt lat="45.31121" lon="6.79466">
        <ele>2189</ele>
        <time>2019-08-17T13:09:55Z</time>
      </trkpt>
      <trkpt lat="45.31101" lon="6.79489">
        <ele>2182</ele>
        <time>2019-08-17T13:10:30Z</time>
      </trkpt>
      <trkpt lat="45.31093" lon="6.79504">
        <ele>2177</ele>
        <time>2019-08-17T13:10:47Z</time>
      </trkpt>
      <trkpt lat="45.31085" lon="6.79505">
        <ele>2177</ele>
        <time>2019-08-17T13:10:58Z</time>
      </trkpt>
      <trkpt lat="45.3107" lon="6.79473">
        <ele>2189</ele>
        <time>2019-08-17T13:11:34Z</time>
      </trkpt>
      <trkpt lat="45.31059" lon="6.79474">
        <ele>2191</ele>
        <time>2019-08-17T13:11:49Z</time>
      </trkpt>
      <trkpt lat="45.31045" lon="6.79507">
        <ele>2182</ele>
        <time>2019-08-17T13:12:25Z</time>
      </trkpt>
      <trkpt lat="45.31029" lon="6.79532">
        <ele>2178</ele>
        <time>2019-08-17T13:12:57Z</time>
      </trkpt>
      <trkpt lat="45.31013" lon="6.79557">
        <ele>2173</ele>
        <time>2019-08-17T13:13:29Z</time>
      </trkpt>
      <trkpt lat="45.30985" lon="6.79571">
        <ele>2177</ele>
        <time>2019-08-17T13:14:08Z</time>
      </trkpt>
      <trkpt lat="45.30958" lon="6.79596">
        <ele>2177</ele>
        <time>2019-08-17T13:14:51Z</time>
      </trkpt>
      <trkpt lat="45.30926" lon="6.79637">
        <ele>2167</ele>
        <time>2019-08-17T13:15:49Z</time>
      </trkpt>
      <trkpt lat="45.30891" lon="6.79667">
        <ele>2159</ele>
        <time>2019-08-17T13:16:43Z</time>
      </trkpt>
      <trkpt lat="45.30863" lon="6.79676">
        <ele>2160</ele>
        <time>2019-08-17T13:17:21Z</time>
      </trkpt>
      <trkpt lat="45.30837" lon="6.79678">
        <ele>2165</ele>
        <time>2019-08-17T13:17:56Z</time>
      </trkpt>
      <trkpt lat="45.30808" lon="6.79686">
        <ele>2168</ele>
        <time>2019-08-17T13:18:36Z</time>
      </trkpt>
      <trkpt lat="45.30779" lon="6.79694">
        <ele>2169</ele>
        <time>2019-08-17T13:19:15Z</time>
      </trkpt>
      <trkpt lat="45.30758" lon="6.79707">
        <ele>2162</ele>
        <time>2019-08-17T13:19:46Z</time>
      </trkpt>
      <trkpt lat="45.30736" lon="6.7972">
        <ele>2154</ele>
        <time>2019-08-17T13:20:17Z</time>
      </trkpt>
      <trkpt lat="45.30716" lon="6.79733">
        <ele>2147</ele>
        <time>2019-08-17T13:20:47Z</time>
      </trkpt>
      <trkpt lat="45.30679" lon="6.79751">
        <ele>2141</ele>
        <time>2019-08-17T13:21:39Z</time>
      </trkpt>
      <trkpt lat="45.30653" lon="6.79794">
        <ele>2119</ele>
        <time>2019-08-17T13:22:32Z</time>
      </trkpt>
      <trkpt lat="45.30633" lon="6.79814">
        <ele>2113</ele>
        <time>2019-08-17T13:23:05Z</time>
      </trkpt>
      <trkpt lat="45.30613" lon="6.79834">
        <ele>2109</ele>
        <time>2019-08-17T13:23:37Z</time>
      </trkpt>
      <trkpt lat="45.3059" lon="6.79849">
        <ele>2111</ele>
        <time>2019-08-17T13:24:11Z</time>
      </trkpt>
      <trkpt lat="45.30566" lon="6.79864">
        <ele>2108</ele>
        <time>2019-08-17T13:24:46Z</time>
      </trkpt>
      <trkpt lat="45.30542" lon="6.79877">
        <ele>2103</ele>
        <time>2019-08-17T13:25:20Z</time>
      </trkpt>
      <trkpt lat="45.30519" lon="6.79889">
        <ele>2098</ele>
        <time>2019-08-17T13:25:53Z</time>
      </trkpt>
      <trkpt lat="45.30496" lon="6.7988">
        <ele>2104</ele>
        <time>2019-08-17T13:26:25Z</time>
      </trkpt>
      <trkpt lat="45.30466" lon="6.7988">
        <ele>2105</ele>
        <time>2019-08-17T13:27:05Z</time>
      </trkpt>
      <trkpt lat="45.30445" lon="6.79877">
        <ele>2107</ele>
        <time>2019-08-17T13:27:33Z</time>
      </trkpt>
      <trkpt lat="45.30415" lon="6.79899">
        <ele>2099</ele>
        <time>2019-08-17T13:28:18Z</time>
      </trkpt>
      <trkpt lat="45.30392" lon="6.79898">
        <ele>2099</ele>
        <time>2019-08-17T13:28:49Z</time>
      </trkpt>
      <trkpt lat="45.30364" lon="6.79917">
        <ele>2092</ele>
        <time>2019-08-17T13:29:30Z</time>
      </trkpt>
      <trkpt lat="45.30338" lon="6.79924">
        <ele>2089</ele>
        <time>2019-08-17T13:30:06Z</time>
      </trkpt>
      <trkpt lat="45.30317" lon="6.79919">
        <ele>2086</ele>
        <time>2019-08-17T13:30:34Z</time>
      </trkpt>
      <trkpt lat="45.30308" lon="6.79897">
        <ele>2090</ele>
        <time>2019-08-17T13:30:58Z</time>
      </trkpt>
      <trkpt lat="45.30284" lon="6.79867">
        <ele>2091</ele>
        <time>2019-08-17T13:31:41Z</time>
      </trkpt>
      <trkpt lat="45.30263" lon="6.79862">
        <ele>2086</ele>
        <time>2019-08-17T13:32:09Z</time>
      </trkpt>
      <trkpt lat="45.30235" lon="6.79828">
        <ele>2084</ele>
        <time>2019-08-17T13:32:58Z</time>
      </trkpt>
      <trkpt lat="45.30234" lon="6.79793">
        <ele>2090</ele>
        <time>2019-08-17T13:33:31Z</time>
      </trkpt>
      <trkpt lat="45.30217" lon="6.7978">
        <ele>2085</ele>
        <time>2019-08-17T13:33:57Z</time>
      </trkpt>
      <trkpt lat="45.30193" lon="6.79761">
        <ele>2076</ele>
        <time>2019-08-17T13:34:33Z</time>
      </trkpt>
      <trkpt lat="45.30174" lon="6.79709">
        <ele>2077</ele>
        <time>2019-08-17T13:35:28Z</time>
      </trkpt>
      <trkpt lat="45.30154" lon="6.79657">
        <ele>2079</ele>
        <time>2019-08-17T13:36:24Z</time>
      </trkpt>
      <trkpt lat="45.30146" lon="6.79621">
        <ele>2085</ele>
        <time>2019-08-17T13:37:00Z</time>
      </trkpt>
      <trkpt lat="45.30137" lon="6.79586">
        <ele>2089</ele>
        <time>2019-08-17T13:37:35Z</time>
      </trkpt>
      <trkpt lat="45.30138" lon="6.79543">
        <ele>2092</ele>
        <time>2019-08-17T13:38:15Z</time>
      </trkpt>
      <trkpt lat="45.30151" lon="6.79494">
        <ele>2099</ele>
        <time>2019-08-17T13:39:04Z</time>
      </trkpt>
      <trkpt lat="45.30156" lon="6.79457">
        <ele>2100</ele>
        <time>2019-08-17T13:39:39Z</time>
      </trkpt>
      <trkpt lat="45.30161" lon="6.79419">
        <ele>2102</ele>
        <time>2019-08-17T13:40:16Z</time>
      </trkpt>
      <trkpt lat="45.30179" lon="6.7938">
        <ele>2116</ele>
        <time>2019-08-17T13:40:59Z</time>
      </trkpt>
      <trkpt lat="45.30198" lon="6.79341">
        <ele>2134</ele>
        <time>2019-08-17T13:41:44Z</time>
      </trkpt>
      <trkpt lat="45.30198" lon="6.7928">
        <ele>2142</ele>
        <time>2019-08-17T13:42:41Z</time>
      </trkpt>
      <trkpt lat="45.30188" lon="6.79226">
        <ele>2146</ele>
        <time>2019-08-17T13:43:34Z</time>
      </trkpt>
      <trkpt lat="45.30189" lon="6.79187">
        <ele>2157</ele>
        <time>2019-08-17T13:44:10Z</time>
      </trkpt>
      <trkpt lat="45.30165" lon="6.79136">
        <ele>2164</ele>
        <time>2019-08-17T13:45:08Z</time>
      </trkpt>
      <trkpt lat="45.30144" lon="6.79121">
        <ele>2168</ele>
        <time>2019-08-17T13:45:39Z</time>
      </trkpt>
      <trkpt lat="45.3013" lon="6.79092">
        <ele>2177</ele>
        <time>2019-08-17T13:46:12Z</time>
      </trkpt>
      <trkpt lat="45.30106" lon="6.79084">
        <ele>2176</ele>
        <time>2019-08-17T13:46:45Z</time>
      </trkpt>
      <trkpt lat="45.30083" lon="6.79047">
        <ele>2184</ele>
        <time>2019-08-17T13:47:32Z</time>
      </trkpt>
      <trkpt lat="45.3009" lon="6.79008">
        <ele>2197</ele>
        <time>2019-08-17T13:48:09Z</time>
      </trkpt>
      <trkpt lat="45.30083" lon="6.78988">
        <ele>2202</ele>
        <time>2019-08-17T13:48:30Z</time>
      </trkpt>
      <trkpt lat="45.30053" lon="6.7898">
        <ele>2204</ele>
        <time>2019-08-17T13:49:11Z</time>
      </trkpt>
      <trkpt lat="45.30022" lon="6.78972">
        <ele>2206</ele>
        <time>2019-08-17T13:49:53Z</time>
      </trkpt>
      <trkpt lat="45.3" lon="6.78947">
        <ele>2212</ele>
        <time>2019-08-17T13:50:31Z</time>
      </trkpt>
      <trkpt lat="45.29992" lon="6.78919">
        <ele>2218</ele>
        <time>2019-08-17T13:50:59Z</time>
      </trkpt>
      <trkpt lat="45.29963" lon="6.78887">
        <ele>2223</ele>
        <time>2019-08-17T13:51:48Z</time>
      </trkpt>
      <trkpt lat="45.29934" lon="6.78855">
        <ele>2229</ele>
        <time>2019-08-17T13:52:37Z</time>
      </trkpt>
      <trkpt lat="45.29904" lon="6.78847">
        <ele>2237</ele>
        <time>2019-08-17T13:53:18Z</time>
      </trkpt>
      <trkpt lat="45.29889" lon="6.78894">
        <ele>2232</ele>
        <time>2019-08-17T13:54:06Z</time>
      </trkpt>
      <trkpt lat="45.29861" lon="6.78942">
        <ele>2231</ele>
        <time>2019-08-17T13:55:05Z</time>
      </trkpt>
      <trkpt lat="45.29842" lon="6.78924">
        <ele>2241</ele>
        <time>2019-08-17T13:55:35Z</time>
      </trkpt>
      <trkpt lat="45.29823" lon="6.78906">
        <ele>2249</ele>
        <time>2019-08-17T13:56:06Z</time>
      </trkpt>
      <trkpt lat="45.29808" lon="6.78905">
        <ele>2249</ele>
        <time>2019-08-17T13:56:26Z</time>
      </trkpt>
      <trkpt lat="45.29776" lon="6.78884">
        <ele>2255</ele>
        <time>2019-08-17T13:57:13Z</time>
      </trkpt>
      <trkpt lat="45.2976" lon="6.78887">
        <ele>2254</ele>
        <time>2019-08-17T13:57:34Z</time>
      </trkpt>
      <trkpt lat="45.29739" lon="6.78901">
        <ele>2255</ele>
        <time>2019-08-17T13:58:05Z</time>
      </trkpt>
      <trkpt lat="45.29717" lon="6.78914">
        <ele>2262</ele>
        <time>2019-08-17T13:58:37Z</time>
      </trkpt>
      <trkpt lat="45.2969" lon="6.78952">
        <ele>2263</ele>
        <time>2019-08-17T13:59:28Z</time>
      </trkpt>
      <trkpt lat="45.29664" lon="6.78989">
        <ele>2260</ele>
        <time>2019-08-17T14:00:17Z</time>
      </trkpt>
      <trkpt lat="45.29645" lon="6.79036">
        <ele>2253</ele>
        <time>2019-08-17T14:01:08Z</time>
      </trkpt>
      <trkpt lat="45.29635" lon="6.79069">
        <ele>2247</ele>
        <time>2019-08-17T14:01:41Z</time>
      </trkpt>
      <trkpt lat="45.29616" lon="6.79117">
        <ele>2247</ele>
        <time>2019-08-17T14:02:33Z</time>
      </trkpt>
      <trkpt lat="45.29602" lon="6.79143">
        <ele>2248</ele>
        <time>2019-08-17T14:03:04Z</time>
      </trkpt>
      <trkpt lat="45.29588" lon="6.79169">
        <ele>2248</ele>
        <time>2019-08-17T14:03:35Z</time>
      </trkpt>
      <trkpt lat="45.29581" lon="6.79213">
        <ele>2242</ele>
        <time>2019-08-17T14:04:17Z</time>
      </trkpt>
      <trkpt lat="45.29574" lon="6.79257">
        <ele>2234</ele>
        <time>2019-08-17T14:04:59Z</time>
      </trkpt>
      <trkpt lat="45.29564" lon="6.79291">
        <ele>2226</ele>
        <time>2019-08-17T14:05:34Z</time>
      </trkpt>
      <trkpt lat="45.29547" lon="6.79321">
        <ele>2218</ele>
        <time>2019-08-17T14:06:10Z</time>
      </trkpt>
      <trkpt lat="45.29561" lon="6.79348">
        <ele>2208</ele>
        <time>2019-08-17T14:06:42Z</time>
      </trkpt>
      <trkpt lat="45.29518" lon="6.79361">
        <ele>2204</ele>
        <time>2019-08-17T14:07:40Z</time>
      </trkpt>
      <trkpt lat="45.29484" lon="6.79377">
        <ele>2192</ele>
        <time>2019-08-17T14:08:28Z</time>
      </trkpt>
      <trkpt lat="45.29462" lon="6.7938">
        <ele>2184</ele>
        <time>2019-08-17T14:08:57Z</time>
      </trkpt>
      <trkpt lat="45.29438" lon="6.79382">
        <ele>2176</ele>
        <time>2019-08-17T14:09:30Z</time>
      </trkpt>
      <trkpt lat="45.29423" lon="6.79372">
        <ele>2174</ele>
        <time>2019-08-17T14:09:52Z</time>
      </trkpt>
      <trkpt lat="45.29404" lon="6.79341">
        <ele>2174</ele>
        <time>2019-08-17T14:10:30Z</time>
      </trkpt>
      <trkpt lat="45.29395" lon="6.79293">
        <ele>2182</ele>
        <time>2019-08-17T14:11:17Z</time>
      </trkpt>
      <trkpt lat="45.29376" lon="6.79248">
        <ele>2183</ele>
        <time>2019-08-17T14:12:06Z</time>
      </trkpt>
      <trkpt lat="45.29377" lon="6.7922">
        <ele>2195</ele>
        <time>2019-08-17T14:12:32Z</time>
      </trkpt>
      <trkpt lat="45.29355" lon="6.792">
        <ele>2188</ele>
        <time>2019-08-17T14:13:07Z</time>
      </trkpt>
      <trkpt lat="45.29345" lon="6.79182">
        <ele>2188</ele>
        <time>2019-08-17T14:13:29Z</time>
      </trkpt>
      <trkpt lat="45.29254" lon="6.7911">
        <ele>2168</ele>
        <time>2019-08-17T14:15:48Z</time>
      </trkpt>
      <trkpt lat="45.29224" lon="6.79085">
        <ele>2165</ele>
        <time>2019-08-17T14:16:34Z</time>
      </trkpt>
      <trkpt lat="45.29213" lon="6.79045">
        <ele>2174</ele>
        <time>2019-08-17T14:17:15Z</time>
      </trkpt>
      <trkpt lat="45.29144" lon="6.78924">
        <ele>2185</ele>
        <time>2019-08-17T14:19:41Z</time>
      </trkpt>
      <trkpt lat="45.29118" lon="6.78927">
        <ele>2178</ele>
        <time>2019-08-17T14:20:16Z</time>
      </trkpt>
      <trkpt lat="45.2913" lon="6.78901">
        <ele>2188</ele>
        <time>2019-08-17T14:20:45Z</time>
      </trkpt>
      <trkpt lat="45.2911" lon="6.78867">
        <ele>2195</ele>
        <time>2019-08-17T14:21:26Z</time>
      </trkpt>
      <trkpt lat="45.29084" lon="6.78881">
        <ele>2186</ele>
        <time>2019-08-17T14:22:03Z</time>
      </trkpt>
      <trkpt lat="45.29103" lon="6.78829">
        <ele>2205</ele>
        <time>2019-08-17T14:22:59Z</time>
      </trkpt>
      <trkpt lat="45.29063" lon="6.78822">
        <ele>2210</ele>
        <time>2019-08-17T14:23:52Z</time>
      </trkpt>
      <trkpt lat="45.29045" lon="6.78829">
        <ele>2212</ele>
        <time>2019-08-17T14:24:17Z</time>
      </trkpt>
      <trkpt lat="45.29007" lon="6.7886">
        <ele>2210</ele>
        <time>2019-08-17T14:25:16Z</time>
      </trkpt>
      <trkpt lat="45.2901" lon="6.78822">
        <ele>2225</ele>
        <time>2019-08-17T14:25:52Z</time>
      </trkpt>
      <trkpt lat="45.28983" lon="6.78833">
        <ele>2227</ele>
        <time>2019-08-17T14:26:29Z</time>
      </trkpt>
      <trkpt lat="45.28956" lon="6.78844">
        <ele>2231</ele>
        <time>2019-08-17T14:27:07Z</time>
      </trkpt>
      <trkpt lat="45.28979" lon="6.78811">
        <ele>2238</ele>
        <time>2019-08-17T14:27:50Z</time>
      </trkpt>
      <trkpt lat="45.28979" lon="6.78797">
        <ele>2245</ele>
        <time>2019-08-17T14:28:03Z</time>
      </trkpt>
      <trkpt lat="45.29" lon="6.78775">
        <ele>2249</ele>
        <time>2019-08-17T14:28:38Z</time>
      </trkpt>
      <trkpt lat="45.28959" lon="6.78759">
        <ele>2266</ele>
        <time>2019-08-17T14:29:35Z</time>
      </trkpt>
      <trkpt lat="45.28959" lon="6.78746">
        <ele>2272</ele>
        <time>2019-08-17T14:29:47Z</time>
      </trkpt>
      <trkpt lat="45.28934" lon="6.78756">
        <ele>2274</ele>
        <time>2019-08-17T14:30:22Z</time>
      </trkpt>
      <trkpt lat="45.28936" lon="6.7871">
        <ele>2292</ele>
        <time>2019-08-17T14:31:05Z</time>
      </trkpt>
      <trkpt lat="45.28894" lon="6.78726">
        <ele>2289</ele>
        <time>2019-08-17T14:32:03Z</time>
      </trkpt>
      <trkpt lat="45.28876" lon="6.78702">
        <ele>2297</ele>
        <time>2019-08-17T14:32:36Z</time>
      </trkpt>
      <trkpt lat="45.28857" lon="6.78679">
        <ele>2303</ele>
        <time>2019-08-17T14:33:09Z</time>
      </trkpt>
      <trkpt lat="45.28876" lon="6.78658">
        <ele>2312</ele>
        <time>2019-08-17T14:33:41Z</time>
      </trkpt>
      <trkpt lat="45.28856" lon="6.7864">
        <ele>2316</ele>
        <time>2019-08-17T14:34:13Z</time>
      </trkpt>
      <trkpt lat="45.28835" lon="6.78622">
        <ele>2321</ele>
        <time>2019-08-17T14:34:46Z</time>
      </trkpt>
      <trkpt lat="45.28815" lon="6.78596">
        <ele>2327</ele>
        <time>2019-08-17T14:35:22Z</time>
      </trkpt>
      <trkpt lat="45.28795" lon="6.78569">
        <ele>2337</ele>
        <time>2019-08-17T14:35:59Z</time>
      </trkpt>
      <trkpt lat="45.28719" lon="6.7851">
        <ele>2353</ele>
        <time>2019-08-17T14:37:54Z</time>
      </trkpt>
      <trkpt lat="45.28681" lon="6.78492">
        <ele>2354</ele>
        <time>2019-08-17T14:38:48Z</time>
      </trkpt>
      <trkpt lat="45.28648" lon="6.78461">
        <ele>2361</ele>
        <time>2019-08-17T14:39:40Z</time>
      </trkpt>
      <trkpt lat="45.28617" lon="6.78417">
        <ele>2378</ele>
        <time>2019-08-17T14:40:39Z</time>
      </trkpt>
      <trkpt lat="45.28592" lon="6.78393">
        <ele>2384</ele>
        <time>2019-08-17T14:41:19Z</time>
      </trkpt>
      <trkpt lat="45.2856" lon="6.78375">
        <ele>2388</ele>
        <time>2019-08-17T14:42:05Z</time>
      </trkpt>
      <trkpt lat="45.28528" lon="6.78356">
        <ele>2392</ele>
        <time>2019-08-17T14:42:51Z</time>
      </trkpt>
      <trkpt lat="45.28463" lon="6.7831">
        <ele>2405</ele>
        <time>2019-08-17T14:44:28Z</time>
      </trkpt>
      <trkpt lat="45.2843" lon="6.78287">
        <ele>2410</ele>
        <time>2019-08-17T14:45:17Z</time>
      </trkpt>
      <trkpt lat="45.28426" lon="6.78265">
        <ele>2417</ele>
        <time>2019-08-17T14:45:39Z</time>
      </trkpt>
      <trkpt lat="45.28406" lon="6.78247">
        <ele>2420</ele>
        <time>2019-08-17T14:46:10Z</time>
      </trkpt>
      <trkpt lat="45.28379" lon="6.78233">
        <ele>2420</ele>
        <time>2019-08-17T14:46:49Z</time>
      </trkpt>
      <trkpt lat="45.28353" lon="6.78219">
        <ele>2420</ele>
        <time>2019-08-17T14:47:26Z</time>
      </trkpt>
      <trkpt lat="45.2832" lon="6.78191">
        <ele>2424</ele>
        <time>2019-08-17T14:48:17Z</time>
      </trkpt>
      <trkpt lat="45.28287" lon="6.78164">
        <ele>2427</ele>
        <time>2019-08-17T14:49:08Z</time>
      </trkpt>
      <trkpt lat="45.28255" lon="6.78136">
        <ele>2427</ele>
        <time>2019-08-17T14:49:58Z</time>
      </trkpt>
      <trkpt lat="45.28231" lon="6.78125">
        <ele>2420</ele>
        <time>2019-08-17T14:50:32Z</time>
      </trkpt>
      <trkpt lat="45.2822" lon="6.78102">
        <ele>2421</ele>
        <time>2019-08-17T14:50:58Z</time>
      </trkpt>
      <trkpt lat="45.28245" lon="6.78051">
        <ele>2440</ele>
        <time>2019-08-17T14:51:56Z</time>
      </trkpt>
      <trkpt lat="45.28235" lon="6.77975">
        <ele>2447</ele>
        <time>2019-08-17T14:53:09Z</time>
      </trkpt>
      <trkpt lat="45.28225" lon="6.77922">
        <ele>2455</ele>
        <time>2019-08-17T14:54:00Z</time>
      </trkpt>
      <trkpt lat="45.28201" lon="6.77882">
        <ele>2458</ele>
        <time>2019-08-17T14:54:50Z</time>
      </trkpt>
      <trkpt lat="45.28183" lon="6.77839">
        <ele>2467</ele>
        <time>2019-08-17T14:55:37Z</time>
      </trkpt>
      <trkpt lat="45.28148" lon="6.77803">
        <ele>2464</ele>
        <time>2019-08-17T14:56:34Z</time>
      </trkpt>
      <trkpt lat="45.28099" lon="6.77731">
        <ele>2471</ele>
        <time>2019-08-17T14:58:08Z</time>
      </trkpt>
      <trkpt lat="45.28074" lon="6.77695">
        <ele>2472</ele>
        <time>2019-08-17T14:58:56Z</time>
      </trkpt>
      <trkpt lat="45.28026" lon="6.77636">
        <ele>2472</ele>
        <time>2019-08-17T15:00:20Z</time>
      </trkpt>
      <trkpt lat="45.28002" lon="6.77607">
        <ele>2473</ele>
        <time>2019-08-17T15:01:02Z</time>
      </trkpt>
      <trkpt lat="45.27965" lon="6.7758">
        <ele>2470</ele>
        <time>2019-08-17T15:01:58Z</time>
      </trkpt>
      <trkpt lat="45.27927" lon="6.77553">
        <ele>2468</ele>
        <time>2019-08-17T15:02:55Z</time>
      </trkpt>
      <trkpt lat="45.27903" lon="6.77527">
        <ele>2467</ele>
        <time>2019-08-17T15:03:35Z</time>
      </trkpt>
      <trkpt lat="45.2788" lon="6.775">
        <ele>2464</ele>
        <time>2019-08-17T15:04:15Z</time>
      </trkpt>
      <trkpt lat="45.27858" lon="6.7743">
        <ele>2474</ele>
        <time>2019-08-17T15:05:27Z</time>
      </trkpt>
      <trkpt lat="45.2783" lon="6.77397">
        <ele>2469</ele>
        <time>2019-08-17T15:06:15Z</time>
      </trkpt>
      <trkpt lat="45.27802" lon="6.77378">
        <ele>2459</ele>
        <time>2019-08-17T15:06:57Z</time>
      </trkpt>
      <trkpt lat="45.27773" lon="6.77359">
        <ele>2448</ele>
        <time>2019-08-17T15:07:39Z</time>
      </trkpt>
      <trkpt lat="45.27766" lon="6.77386">
        <ele>2435</ele>
        <time>2019-08-17T15:08:06Z</time>
      </trkpt>
      <trkpt lat="45.27744" lon="6.7736">
        <ele>2430</ele>
        <time>2019-08-17T15:08:44Z</time>
      </trkpt>
      <trkpt lat="45.27727" lon="6.77315">
        <ele>2434</ele>
        <time>2019-08-17T15:09:32Z</time>
      </trkpt>
      <trkpt lat="45.27723" lon="6.77287">
        <ele>2439</ele>
        <time>2019-08-17T15:09:59Z</time>
      </trkpt>
      <trkpt lat="45.27663" lon="6.77217">
        <ele>2424</ele>
        <time>2019-08-17T15:11:43Z</time>
      </trkpt>
      <trkpt lat="45.27641" lon="6.77172">
        <ele>2424</ele>
        <time>2019-08-17T15:12:34Z</time>
      </trkpt>
      <trkpt lat="45.27584" lon="6.77097">
        <ele>2414</ele>
        <time>2019-08-17T15:14:18Z</time>
      </trkpt>
      <trkpt lat="45.27555" lon="6.77059">
        <ele>2410</ele>
        <time>2019-08-17T15:15:11Z</time>
      </trkpt>
      <trkpt lat="45.2753" lon="6.77032">
        <ele>2405</ele>
        <time>2019-08-17T15:15:53Z</time>
      </trkpt>
      <trkpt lat="45.27466" lon="6.76979">
        <ele>2397</ele>
        <time>2019-08-17T15:17:31Z</time>
      </trkpt>
      <trkpt lat="45.27437" lon="6.76943">
        <ele>2400</ele>
        <time>2019-08-17T15:18:23Z</time>
      </trkpt>
      <trkpt lat="45.27416" lon="6.76934">
        <ele>2397</ele>
        <time>2019-08-17T15:18:52Z</time>
      </trkpt>
      <trkpt lat="45.27393" lon="6.76949">
        <ele>2394</ele>
        <time>2019-08-17T15:19:26Z</time>
      </trkpt>
      <trkpt lat="45.27367" lon="6.76949">
        <ele>2396</ele>
        <time>2019-08-17T15:20:00Z</time>
      </trkpt>
      <trkpt lat="45.27379" lon="6.76975">
        <ele>2385</ele>
        <time>2019-08-17T15:20:30Z</time>
      </trkpt>
      <trkpt lat="45.27361" lon="6.76993">
        <ele>2377</ele>
        <time>2019-08-17T15:20:59Z</time>
      </trkpt>
      <trkpt lat="45.27335" lon="6.77001">
        <ele>2373</ele>
        <time>2019-08-17T15:21:35Z</time>
      </trkpt>
      <trkpt lat="45.2726" lon="6.77087">
        <ele>2360</ele>
        <time>2019-08-17T15:23:43Z</time>
      </trkpt>
      <trkpt lat="45.2723" lon="6.77112">
        <ele>2365</ele>
        <time>2019-08-17T15:24:30Z</time>
      </trkpt>
      <trkpt lat="45.27215" lon="6.77153">
        <ele>2361</ele>
        <time>2019-08-17T15:25:13Z</time>
      </trkpt>
      <trkpt lat="45.27199" lon="6.77195">
        <ele>2355</ele>
        <time>2019-08-17T15:25:58Z</time>
      </trkpt>
      <trkpt lat="45.27182" lon="6.7723">
        <ele>2351</ele>
        <time>2019-08-17T15:26:38Z</time>
      </trkpt>
      <trkpt lat="45.27166" lon="6.77266">
        <ele>2350</ele>
        <time>2019-08-17T15:27:18Z</time>
      </trkpt>
      <trkpt lat="45.27149" lon="6.77302">
        <ele>2354</ele>
        <time>2019-08-17T15:27:58Z</time>
      </trkpt>
      <trkpt lat="45.27147" lon="6.77352">
        <ele>2348</ele>
        <time>2019-08-17T15:28:45Z</time>
      </trkpt>
      <trkpt lat="45.27144" lon="6.77403">
        <ele>2342</ele>
        <time>2019-08-17T15:29:34Z</time>
      </trkpt>
      <trkpt lat="45.27136" lon="6.77437">
        <ele>2341</ele>
        <time>2019-08-17T15:30:07Z</time>
      </trkpt>
      <trkpt lat="45.27127" lon="6.77472">
        <ele>2339</ele>
        <time>2019-08-17T15:30:42Z</time>
      </trkpt>
      <trkpt lat="45.27104" lon="6.775">
        <ele>2343</ele>
        <time>2019-08-17T15:31:23Z</time>
      </trkpt>
      <trkpt lat="45.27078" lon="6.77534">
        <ele>2350</ele>
        <time>2019-08-17T15:32:10Z</time>
      </trkpt>
      <trkpt lat="45.27056" lon="6.77568">
        <ele>2349</ele>
        <time>2019-08-17T15:32:53Z</time>
      </trkpt>
      <trkpt lat="45.27034" lon="6.77601">
        <ele>2349</ele>
        <time>2019-08-17T15:33:36Z</time>
      </trkpt>
      <trkpt lat="45.27002" lon="6.77605">
        <ele>2354</ele>
        <time>2019-08-17T15:34:19Z</time>
      </trkpt>
      <trkpt lat="45.26971" lon="6.77576">
        <ele>2356</ele>
        <time>2019-08-17T15:35:08Z</time>
      </trkpt>
      <trkpt lat="45.26931" lon="6.77555">
        <ele>2359</ele>
        <time>2019-08-17T15:36:05Z</time>
      </trkpt>
      <trkpt lat="45.26911" lon="6.77537">
        <ele>2362</ele>
        <time>2019-08-17T15:36:37Z</time>
      </trkpt>
      <trkpt lat="45.26891" lon="6.77519">
        <ele>2362</ele>
        <time>2019-08-17T15:37:08Z</time>
      </trkpt>
      <trkpt lat="45.2686" lon="6.77497">
        <ele>2362</ele>
        <time>2019-08-17T15:37:55Z</time>
      </trkpt>
      <trkpt lat="45.26829" lon="6.77475">
        <ele>2361</ele>
        <time>2019-08-17T15:38:41Z</time>
      </trkpt>
      <trkpt lat="45.26793" lon="6.77388">
        <ele>2368</ele>
        <time>2019-08-17T15:40:16Z</time>
      </trkpt>
      <trkpt lat="45.26775" lon="6.77345">
        <ele>2372</ele>
        <time>2019-08-17T15:41:03Z</time>
      </trkpt>
      <trkpt lat="45.26725" lon="6.77248">
        <ele>2377</ele>
        <time>2019-08-17T15:42:56Z</time>
      </trkpt>
      <trkpt lat="45.267" lon="6.772">
        <ele>2375</ele>
        <time>2019-08-17T15:43:52Z</time>
      </trkpt>
      <trkpt lat="45.26691" lon="6.77165">
        <ele>2377</ele>
        <time>2019-08-17T15:44:27Z</time>
      </trkpt>
      <trkpt lat="45.26681" lon="6.7713">
        <ele>2379</ele>
        <time>2019-08-17T15:45:02Z</time>
      </trkpt>
      <trkpt lat="45.26673" lon="6.77077">
        <ele>2386</ele>
        <time>2019-08-17T15:45:53Z</time>
      </trkpt>
      <trkpt lat="45.26664" lon="6.77045">
        <ele>2390</ele>
        <time>2019-08-17T15:46:25Z</time>
      </trkpt>
      <trkpt lat="45.26654" lon="6.77013">
        <ele>2393</ele>
        <time>2019-08-17T15:46:58Z</time>
      </trkpt>
      <trkpt lat="45.26633" lon="6.76963">
        <ele>2395</ele>
        <time>2019-08-17T15:47:53Z</time>
      </trkpt>
      <trkpt lat="45.26611" lon="6.76913">
        <ele>2400</ele>
        <time>2019-08-17T15:48:48Z</time>
      </trkpt>
      <trkpt lat="45.26596" lon="6.76886">
        <ele>2402</ele>
        <time>2019-08-17T15:49:21Z</time>
      </trkpt>
      <trkpt lat="45.26581" lon="6.76859">
        <ele>2404</ele>
        <time>2019-08-17T15:49:53Z</time>
      </trkpt>
      <trkpt lat="45.26556" lon="6.76847">
        <ele>2397</ele>
        <time>2019-08-17T15:50:28Z</time>
      </trkpt>
      <trkpt lat="45.26504" lon="6.76785">
        <ele>2396</ele>
        <time>2019-08-17T15:51:59Z</time>
      </trkpt>
      <trkpt lat="45.26478" lon="6.76755">
        <ele>2398</ele>
        <time>2019-08-17T15:52:43Z</time>
      </trkpt>
      <trkpt lat="45.26454" lon="6.76723">
        <ele>2405</ele>
        <time>2019-08-17T15:53:27Z</time>
      </trkpt>
      <trkpt lat="45.26431" lon="6.76692">
        <ele>2411</ele>
        <time>2019-08-17T15:54:10Z</time>
      </trkpt>
      <trkpt lat="45.26406" lon="6.76678">
        <ele>2410</ele>
        <time>2019-08-17T15:54:46Z</time>
      </trkpt>
      <trkpt lat="45.26371" lon="6.76675">
        <ele>2403</ele>
        <time>2019-08-17T15:55:32Z</time>
      </trkpt>
      <trkpt lat="45.26348" lon="6.76661">
        <ele>2404</ele>
        <time>2019-08-17T15:56:06Z</time>
      </trkpt>
      <trkpt lat="45.26334" lon="6.76637">
        <ele>2403</ele>
        <time>2019-08-17T15:56:35Z</time>
      </trkpt>
      <trkpt lat="45.26334" lon="6.7661">
        <ele>2404</ele>
        <time>2019-08-17T15:57:00Z</time>
      </trkpt>
      <trkpt lat="45.26358" lon="6.7658">
        <ele>2414</ele>
        <time>2019-08-17T15:57:43Z</time>
      </trkpt>
      <trkpt lat="45.26381" lon="6.76551">
        <ele>2422</ele>
        <time>2019-08-17T15:58:24Z</time>
      </trkpt>
      <trkpt lat="45.26404" lon="6.76386">
        <ele>2430</ele>
        <time>2019-08-17T16:01:02Z</time>
      </trkpt>
      <trkpt lat="45.26411" lon="6.76331">
        <ele>2431</ele>
        <time>2019-08-17T16:01:55Z</time>
      </trkpt>
      <trkpt lat="45.26426" lon="6.76248">
        <ele>2439</ele>
        <time>2019-08-17T16:03:15Z</time>
      </trkpt>
      <trkpt lat="45.26434" lon="6.76206">
        <ele>2445</ele>
        <time>2019-08-17T16:03:56Z</time>
      </trkpt>
      <trkpt lat="45.2644" lon="6.76143">
        <ele>2450</ele>
        <time>2019-08-17T16:04:56Z</time>
      </trkpt>
      <trkpt lat="45.26446" lon="6.7608">
        <ele>2457</ele>
        <time>2019-08-17T16:05:55Z</time>
      </trkpt>
      <trkpt lat="45.26444" lon="6.76046">
        <ele>2462</ele>
        <time>2019-08-17T16:06:27Z</time>
      </trkpt>
      <trkpt lat="45.26443" lon="6.76012">
        <ele>2469</ele>
        <time>2019-08-17T16:06:59Z</time>
      </trkpt>
      <trkpt lat="45.2642" lon="6.75991">
        <ele>2465</ele>
        <time>2019-08-17T16:07:36Z</time>
      </trkpt>
      <trkpt lat="45.26394" lon="6.75979">
        <ele>2466</ele>
        <time>2019-08-17T16:08:12Z</time>
      </trkpt>
      <trkpt lat="45.26369" lon="6.75967">
        <ele>2468</ele>
        <time>2019-08-17T16:08:47Z</time>
      </trkpt>
      <trkpt lat="45.26324" lon="6.75985">
        <ele>2452</ele>
        <time>2019-08-17T16:09:50Z</time>
      </trkpt>
      <trkpt lat="45.26304" lon="6.75984">
        <ele>2451</ele>
        <time>2019-08-17T16:10:17Z</time>
      </trkpt>
      <trkpt lat="45.26229" lon="6.75923">
        <ele>2481</ele>
        <time>2019-08-17T16:12:12Z</time>
      </trkpt>
      <trkpt lat="45.26204" lon="6.75916">
        <ele>2483</ele>
        <time>2019-08-17T16:12:46Z</time>
      </trkpt>
      <trkpt lat="45.26173" lon="6.75932">
        <ele>2467</ele>
        <time>2019-08-17T16:13:30Z</time>
      </trkpt>
      <trkpt lat="45.26142" lon="6.75949">
        <ele>2458</ele>
        <time>2019-08-17T16:14:14Z</time>
      </trkpt>
      <trkpt lat="45.2611" lon="6.75961">
        <ele>2458</ele>
        <time>2019-08-17T16:14:58Z</time>
      </trkpt>
      <trkpt lat="45.26079" lon="6.75974">
        <ele>2458</ele>
        <time>2019-08-17T16:15:42Z</time>
      </trkpt>
      <trkpt lat="45.26048" lon="6.75986">
        <ele>2446</ele>
        <time>2019-08-17T16:16:24Z</time>
      </trkpt>
      <trkpt lat="45.2603" lon="6.75959">
        <ele>2447</ele>
        <time>2019-08-17T16:16:59Z</time>
      </trkpt>
      <trkpt lat="45.26026" lon="6.75929">
        <ele>2451</ele>
        <time>2019-08-17T16:17:28Z</time>
      </trkpt>
      <trkpt lat="45.26026" lon="6.75897">
        <ele>2458</ele>
        <time>2019-08-17T16:17:58Z</time>
      </trkpt>
      <trkpt lat="45.26012" lon="6.75863">
        <ele>2460</ele>
        <time>2019-08-17T16:18:35Z</time>
      </trkpt>
      <trkpt lat="45.26001" lon="6.75852">
        <ele>2458</ele>
        <time>2019-08-17T16:18:53Z</time>
      </trkpt>
      <trkpt lat="45.25986" lon="6.75842">
        <ele>2455</ele>
        <time>2019-08-17T16:19:15Z</time>
      </trkpt>
      <trkpt lat="45.25956" lon="6.75836">
        <ele>2448</ele>
        <time>2019-08-17T16:19:56Z</time>
      </trkpt>
      <trkpt lat="45.25927" lon="6.75831">
        <ele>2442</ele>
        <time>2019-08-17T16:20:35Z</time>
      </trkpt>
      <trkpt lat="45.25884" lon="6.75797">
        <ele>2441</ele>
        <time>2019-08-17T16:21:40Z</time>
      </trkpt>
      <trkpt lat="45.25852" lon="6.75785">
        <ele>2433</ele>
        <time>2019-08-17T16:22:24Z</time>
      </trkpt>
      <trkpt lat="45.25847" lon="6.75793">
        <ele>2430</ele>
        <time>2019-08-17T16:22:34Z</time>
      </trkpt>
      <trkpt lat="45.25856" lon="6.75807">
        <ele>2429</ele>
        <time>2019-08-17T16:22:52Z</time>
      </trkpt>
      <trkpt lat="45.2588" lon="6.75829">
        <ele>2430</ele>
        <time>2019-08-17T16:23:30Z</time>
      </trkpt>
      <trkpt lat="45.25904" lon="6.7585">
        <ele>2428</ele>
        <time>2019-08-17T16:24:08Z</time>
      </trkpt>
      <trkpt lat="45.25933" lon="6.75865">
        <ele>2431</ele>
        <time>2019-08-17T16:24:49Z</time>
      </trkpt>
      <trkpt lat="45.25939" lon="6.75876">
        <ele>2429</ele>
        <time>2019-08-17T16:25:02Z</time>
      </trkpt>
      <trkpt lat="45.25922" lon="6.75887">
        <ele>2418</ele>
        <time>2019-08-17T16:25:27Z</time>
      </trkpt>
      <trkpt lat="45.25897" lon="6.75875">
        <ele>2417</ele>
        <time>2019-08-17T16:26:02Z</time>
      </trkpt>
      <trkpt lat="45.25873" lon="6.75862">
        <ele>2416</ele>
        <time>2019-08-17T16:26:37Z</time>
      </trkpt>
      <trkpt lat="45.25847" lon="6.75862">
        <ele>2411</ele>
        <time>2019-08-17T16:27:11Z</time>
      </trkpt>
      <trkpt lat="45.25827" lon="6.75854">
        <ele>2407</ele>
        <time>2019-08-17T16:27:39Z</time>
      </trkpt>
      <trkpt lat="45.25793" lon="6.75823">
        <ele>2399</ele>
        <time>2019-08-17T16:28:33Z</time>
      </trkpt>
      <trkpt lat="45.25776" lon="6.75772">
        <ele>2394</ele>
        <time>2019-08-17T16:29:26Z</time>
      </trkpt>
      <trkpt lat="45.25769" lon="6.75771">
        <ele>2390</ele>
        <time>2019-08-17T16:29:35Z</time>
      </trkpt>
      <trkpt lat="45.25765" lon="6.75805">
        <ele>2386</ele>
        <time>2019-08-17T16:30:08Z</time>
      </trkpt>
      <trkpt lat="45.25761" lon="6.75838">
        <ele>2383</ele>
        <time>2019-08-17T16:30:39Z</time>
      </trkpt>
      <trkpt lat="45.25769" lon="6.75882">
        <ele>2381</ele>
        <time>2019-08-17T16:31:22Z</time>
      </trkpt>
      <trkpt lat="45.25788" lon="6.75927">
        <ele>2378</ele>
        <time>2019-08-17T16:32:11Z</time>
      </trkpt>
      <trkpt lat="45.25826" lon="6.75934">
        <ele>2383</ele>
        <time>2019-08-17T16:33:02Z</time>
      </trkpt>
      <trkpt lat="45.25864" lon="6.75941">
        <ele>2388</ele>
        <time>2019-08-17T16:33:53Z</time>
      </trkpt>
      <trkpt lat="45.25876" lon="6.7595">
        <ele>2387</ele>
        <time>2019-08-17T16:34:12Z</time>
      </trkpt>
      <trkpt lat="45.25881" lon="6.75969">
        <ele>2382</ele>
        <time>2019-08-17T16:34:31Z</time>
      </trkpt>
      <trkpt lat="45.25871" lon="6.75981">
        <ele>2377</ele>
        <time>2019-08-17T16:34:48Z</time>
      </trkpt>
      <trkpt lat="45.25834" lon="6.75969">
        <ele>2372</ele>
        <time>2019-08-17T16:35:39Z</time>
      </trkpt>
      <trkpt lat="45.25778" lon="6.75985">
        <ele>2362</ele>
        <time>2019-08-17T16:36:55Z</time>
      </trkpt>
      <trkpt lat="45.25748" lon="6.7598">
        <ele>2360</ele>
        <time>2019-08-17T16:37:35Z</time>
      </trkpt>
      <trkpt lat="45.25722" lon="6.75969">
        <ele>2356</ele>
        <time>2019-08-17T16:38:11Z</time>
      </trkpt>
      <trkpt lat="45.25695" lon="6.75959">
        <ele>2350</ele>
        <time>2019-08-17T16:38:49Z</time>
      </trkpt>
      <trkpt lat="45.25684" lon="6.75939">
        <ele>2349</ele>
        <time>2019-08-17T16:39:13Z</time>
      </trkpt>
      <trkpt lat="45.25679" lon="6.75906">
        <ele>2350</ele>
        <time>2019-08-17T16:39:44Z</time>
      </trkpt>
      <trkpt lat="45.25674" lon="6.75872">
        <ele>2350</ele>
        <time>2019-08-17T16:40:17Z</time>
      </trkpt>
      <trkpt lat="45.25646" lon="6.75831">
        <ele>2339</ele>
        <time>2019-08-17T16:41:11Z</time>
      </trkpt>
      <trkpt lat="45.25618" lon="6.75809">
        <ele>2324</ele>
        <time>2019-08-17T16:41:53Z</time>
      </trkpt>
      <trkpt lat="45.25593" lon="6.7579">
        <ele>2310</ele>
        <time>2019-08-17T16:42:31Z</time>
      </trkpt>
      <trkpt lat="45.25599" lon="6.7578">
        <ele>2311</ele>
        <time>2019-08-17T16:42:43Z</time>
      </trkpt>
      <trkpt lat="45.25629" lon="6.75774">
        <ele>2322</ele>
        <time>2019-08-17T16:43:24Z</time>
      </trkpt>
      <trkpt lat="45.25647" lon="6.75783">
        <ele>2330</ele>
        <time>2019-08-17T16:43:49Z</time>
      </trkpt>
      <trkpt lat="45.25656" lon="6.75795">
        <ele>2336</ele>
        <time>2019-08-17T16:44:06Z</time>
      </trkpt>
      <trkpt lat="45.25651" lon="6.7578">
        <ele>2331</ele>
        <time>2019-08-17T16:44:21Z</time>
      </trkpt>
      <trkpt lat="45.25648" lon="6.75769">
        <ele>2328</ele>
        <time>2019-08-17T16:44:32Z</time>
      </trkpt>
      <trkpt lat="45.25635" lon="6.75759">
        <ele>2321</ele>
        <time>2019-08-17T16:44:52Z</time>
      </trkpt>
      <trkpt lat="45.25593" lon="6.75754">
        <ele>2304</ele>
        <time>2019-08-17T16:45:48Z</time>
      </trkpt>
      <trkpt lat="45.25609" lon="6.75745">
        <ele>2308</ele>
        <time>2019-08-17T16:46:11Z</time>
      </trkpt>
      <trkpt lat="45.25634" lon="6.75742">
        <ele>2317</ele>
        <time>2019-08-17T16:46:45Z</time>
      </trkpt>
      <trkpt lat="45.25656" lon="6.75721">
        <ele>2320</ele>
        <time>2019-08-17T16:47:20Z</time>
      </trkpt>
      <trkpt lat="45.25678" lon="6.75701">
        <ele>2327</ele>
        <time>2019-08-17T16:47:55Z</time>
      </trkpt>
      <trkpt lat="45.25683" lon="6.75684">
        <ele>2327</ele>
        <time>2019-08-17T16:48:12Z</time>
      </trkpt>
      <trkpt lat="45.25659" lon="6.75686">
        <ele>2311</ele>
        <time>2019-08-17T16:48:45Z</time>
      </trkpt>
      <trkpt lat="45.2568" lon="6.75633">
        <ele>2307</ele>
        <time>2019-08-17T16:49:42Z</time>
      </trkpt>
      <trkpt lat="45.25702" lon="6.7558">
        <ele>2307</ele>
        <time>2019-08-17T16:50:39Z</time>
      </trkpt>
      <trkpt lat="45.25694" lon="6.75525">
        <ele>2288</ele>
        <time>2019-08-17T16:51:32Z</time>
      </trkpt>
      <trkpt lat="45.25682" lon="6.7548">
        <ele>2275</ele>
        <time>2019-08-17T16:52:17Z</time>
      </trkpt>
      <trkpt lat="45.2566" lon="6.75438">
        <ele>2267</ele>
        <time>2019-08-17T16:53:07Z</time>
      </trkpt>
      <trkpt lat="45.25627" lon="6.75409">
        <ele>2249</ele>
        <time>2019-08-17T16:53:58Z</time>
      </trkpt>
      <trkpt lat="45.25615" lon="6.75355">
        <ele>2236</ele>
        <time>2019-08-17T16:54:52Z</time>
      </trkpt>
      <trkpt lat="45.25619" lon="6.75298">
        <ele>2228</ele>
        <time>2019-08-17T16:55:45Z</time>
      </trkpt>
      <trkpt lat="45.25637" lon="6.75272">
        <ele>2233</ele>
        <time>2019-08-17T16:56:20Z</time>
      </trkpt>
      <trkpt lat="45.25665" lon="6.75258">
        <ele>2245</ele>
        <time>2019-08-17T16:56:59Z</time>
      </trkpt>
      <trkpt lat="45.25692" lon="6.75243">
        <ele>2250</ele>
        <time>2019-08-17T16:57:38Z</time>
      </trkpt>
      <trkpt lat="45.25694" lon="6.75223">
        <ele>2247</ele>
        <time>2019-08-17T16:57:57Z</time>
      </trkpt>
      <trkpt lat="45.25695" lon="6.75208">
        <ele>2245</ele>
        <time>2019-08-17T16:58:11Z</time>
      </trkpt>
      <trkpt lat="45.25675" lon="6.75185">
        <ele>2230</ele>
        <time>2019-08-17T16:58:45Z</time>
      </trkpt>
      <trkpt lat="45.25655" lon="6.75162">
        <ele>2213</ele>
        <time>2019-08-17T16:59:20Z</time>
      </trkpt>
      <trkpt lat="45.25657" lon="6.75117">
        <ele>2209</ele>
        <time>2019-08-17T17:00:02Z</time>
      </trkpt>
      <trkpt lat="45.25664" lon="6.75082">
        <ele>2210</ele>
        <time>2019-08-17T17:00:36Z</time>
      </trkpt>
      <trkpt lat="45.25687" lon="6.75049">
        <ele>2230</ele>
        <time>2019-08-17T17:01:20Z</time>
      </trkpt>
      <trkpt lat="45.2571" lon="6.75017">
        <ele>2247</ele>
        <time>2019-08-17T17:02:03Z</time>
      </trkpt>
      <trkpt lat="45.25693" lon="6.74989">
        <ele>2239</ele>
        <time>2019-08-17T17:02:38Z</time>
      </trkpt>
      <trkpt lat="45.25677" lon="6.74961">
        <ele>2234</ele>
        <time>2019-08-17T17:03:11Z</time>
      </trkpt>
      <trkpt lat="45.25653" lon="6.7491">
        <ele>2230</ele>
        <time>2019-08-17T17:04:09Z</time>
      </trkpt>
      <trkpt lat="45.2563" lon="6.74858">
        <ele>2234</ele>
        <time>2019-08-17T17:05:07Z</time>
      </trkpt>
      <trkpt lat="45.25613" lon="6.74803">
        <ele>2238</ele>
        <time>2019-08-17T17:06:03Z</time>
      </trkpt>
      <trkpt lat="45.25597" lon="6.74748">
        <ele>2236</ele>
        <time>2019-08-17T17:06:59Z</time>
      </trkpt>
      <trkpt lat="45.25594" lon="6.74713">
        <ele>2236</ele>
        <time>2019-08-17T17:07:32Z</time>
      </trkpt>
      <trkpt lat="45.25591" lon="6.74679">
        <ele>2236</ele>
        <time>2019-08-17T17:08:04Z</time>
      </trkpt>
      <trkpt lat="45.25608" lon="6.74646">
        <ele>2246</ele>
        <time>2019-08-17T17:08:43Z</time>
      </trkpt>
      <trkpt lat="45.25635" lon="6.74611">
        <ele>2258</ele>
        <time>2019-08-17T17:09:32Z</time>
      </trkpt>
      <trkpt lat="45.25694" lon="6.74553">
        <ele>2279</ele>
        <time>2019-08-17T17:11:07Z</time>
      </trkpt>
      <trkpt lat="45.25696" lon="6.74524">
        <ele>2281</ele>
        <time>2019-08-17T17:11:35Z</time>
      </trkpt>
      <trkpt lat="45.25685" lon="6.74514">
        <ele>2278</ele>
        <time>2019-08-17T17:11:52Z</time>
      </trkpt>
      <trkpt lat="45.25644" lon="6.74492">
        <ele>2270</ele>
        <time>2019-08-17T17:12:51Z</time>
      </trkpt>
      <trkpt lat="45.25602" lon="6.74471">
        <ele>2265</ele>
        <time>2019-08-17T17:13:50Z</time>
      </trkpt>
      <trkpt lat="45.25584" lon="6.74452">
        <ele>2266</ele>
        <time>2019-08-17T17:14:20Z</time>
      </trkpt>
      <trkpt lat="45.25565" lon="6.74433">
        <ele>2264</ele>
        <time>2019-08-17T17:14:51Z</time>
      </trkpt>
      <trkpt lat="45.25548" lon="6.74407">
        <ele>2263</ele>
        <time>2019-08-17T17:15:24Z</time>
      </trkpt>
      <trkpt lat="45.2553" lon="6.74381">
        <ele>2261</ele>
        <time>2019-08-17T17:15:59Z</time>
      </trkpt>
      <trkpt lat="45.2552" lon="6.74351">
        <ele>2263</ele>
        <time>2019-08-17T17:16:30Z</time>
      </trkpt>
      <trkpt lat="45.2551" lon="6.74321">
        <ele>2263</ele>
        <time>2019-08-17T17:17:01Z</time>
      </trkpt>
      <trkpt lat="45.25501" lon="6.74285">
        <ele>2264</ele>
        <time>2019-08-17T17:17:37Z</time>
      </trkpt>
      <trkpt lat="45.25493" lon="6.74249">
        <ele>2266</ele>
        <time>2019-08-17T17:18:12Z</time>
      </trkpt>
      <trkpt lat="45.25462" lon="6.74205">
        <ele>2262</ele>
        <time>2019-08-17T17:19:11Z</time>
      </trkpt>
      <trkpt lat="45.25431" lon="6.7416">
        <ele>2261</ele>
        <time>2019-08-17T17:20:10Z</time>
      </trkpt>
      <trkpt lat="45.25405" lon="6.74146">
        <ele>2255</ele>
        <time>2019-08-17T17:20:47Z</time>
      </trkpt>
      <trkpt lat="45.2537" lon="6.74141">
        <ele>2241</ele>
        <time>2019-08-17T17:21:34Z</time>
      </trkpt>
      <trkpt lat="45.25339" lon="6.74112">
        <ele>2236</ele>
        <time>2019-08-17T17:22:24Z</time>
      </trkpt>
      <trkpt lat="45.25311" lon="6.74062">
        <ele>2232</ele>
        <time>2019-08-17T17:23:24Z</time>
      </trkpt>
      <trkpt lat="45.25304" lon="6.74004">
        <ele>2237</ele>
        <time>2019-08-17T17:24:19Z</time>
      </trkpt>
      <trkpt lat="45.25296" lon="6.73947">
        <ele>2235</ele>
        <time>2019-08-17T17:25:13Z</time>
      </trkpt>
      <trkpt lat="45.25293" lon="6.73898">
        <ele>2238</ele>
        <time>2019-08-17T17:26:00Z</time>
      </trkpt>
      <trkpt lat="45.2529" lon="6.73849">
        <ele>2243</ele>
        <time>2019-08-17T17:26:46Z</time>
      </trkpt>
      <trkpt lat="45.25261" lon="6.73814">
        <ele>2238</ele>
        <time>2019-08-17T17:27:37Z</time>
      </trkpt>
      <trkpt lat="45.2521" lon="6.73755">
        <ele>2242</ele>
        <time>2019-08-17T17:29:04Z</time>
      </trkpt>
      <trkpt lat="45.25188" lon="6.7373">
        <ele>2243</ele>
        <time>2019-08-17T17:29:42Z</time>
      </trkpt>
      <trkpt lat="45.25167" lon="6.73715">
        <ele>2241</ele>
        <time>2019-08-17T17:30:13Z</time>
      </trkpt>
      <trkpt lat="45.25151" lon="6.73709">
        <ele>2238</ele>
        <time>2019-08-17T17:30:35Z</time>
      </trkpt>
      <trkpt lat="45.25141" lon="6.73696">
        <ele>2239</ele>
        <time>2019-08-17T17:30:54Z</time>
      </trkpt>
      <trkpt lat="45.25118" lon="6.73674">
        <ele>2238</ele>
        <time>2019-08-17T17:31:31Z</time>
      </trkpt>
      <trkpt lat="45.25095" lon="6.7361">
        <ele>2241</ele>
        <time>2019-08-17T17:32:38Z</time>
      </trkpt>
      <trkpt lat="45.25087" lon="6.73573">
        <ele>2241</ele>
        <time>2019-08-17T17:33:14Z</time>
      </trkpt>
      <trkpt lat="45.25084" lon="6.73524">
        <ele>2237</ele>
        <time>2019-08-17T17:34:01Z</time>
      </trkpt>
      <trkpt lat="45.25085" lon="6.73504">
        <ele>2237</ele>
        <time>2019-08-17T17:34:19Z</time>
      </trkpt>
      <trkpt lat="45.2509" lon="6.73483">
        <ele>2239</ele>
        <time>2019-08-17T17:34:40Z</time>
      </trkpt>
      <trkpt lat="45.25092" lon="6.73461">
        <ele>2239</ele>
        <time>2019-08-17T17:35:01Z</time>
      </trkpt>
      <trkpt lat="45.2509" lon="6.73439">
        <ele>2238</ele>
        <time>2019-08-17T17:35:22Z</time>
      </trkpt>
      <trkpt lat="45.25091" lon="6.73413">
        <ele>2239</ele>
        <time>2019-08-17T17:35:46Z</time>
      </trkpt>
      <trkpt lat="45.25087" lon="6.73387">
        <ele>2239</ele>
        <time>2019-08-17T17:36:11Z</time>
      </trkpt>
      <trkpt lat="45.25083" lon="6.73359">
        <ele>2239</ele>
        <time>2019-08-17T17:36:38Z</time>
      </trkpt>
      <trkpt lat="45.25078" lon="6.73319">
        <ele>2239</ele>
        <time>2019-08-17T17:37:16Z</time>
      </trkpt>
      <trkpt lat="45.25079" lon="6.73303">
        <ele>2239</ele>
        <time>2019-08-17T17:37:32Z</time>
      </trkpt>
      <trkpt lat="45.25075" lon="6.73287">
        <ele>2239</ele>
        <time>2019-08-17T17:37:47Z</time>
      </trkpt>
      <trkpt lat="45.25075" lon="6.73269">
        <ele>2239</ele>
        <time>2019-08-17T17:38:04Z</time>
      </trkpt>
      <trkpt lat="45.25071" lon="6.73255">
        <ele>2238</ele>
        <time>2019-08-17T17:38:19Z</time>
      </trkpt>
      <trkpt lat="45.25069" lon="6.73239">
        <ele>2237</ele>
        <time>2019-08-17T17:38:34Z</time>
      </trkpt>
      <trkpt lat="45.25073" lon="6.73223">
        <ele>2237</ele>
        <time>2019-08-17T17:38:50Z</time>
      </trkpt>
      <trkpt lat="45.25074" lon="6.73207">
        <ele>2236</ele>
        <time>2019-08-17T17:39:05Z</time>
      </trkpt>
      <trkpt lat="45.25076" lon="6.73176">
        <ele>2233</ele>
        <time>2019-08-17T17:39:34Z</time>
      </trkpt>
      <trkpt lat="45.25098" lon="6.73175">
        <ele>2237</ele>
        <time>2019-08-17T17:40:03Z</time>
      </trkpt>
      <trkpt lat="45.25128" lon="6.73179">
        <ele>2241</ele>
        <time>2019-08-17T17:40:44Z</time>
      </trkpt>
      <trkpt lat="45.25161" lon="6.73192">
        <ele>2246</ele>
        <time>2019-08-17T17:41:29Z</time>
      </trkpt>
      <trkpt lat="45.25192" lon="6.732">
        <ele>2246</ele>
        <time>2019-08-17T17:42:11Z</time>
      </trkpt>
      <trkpt lat="45.25216" lon="6.73217">
        <ele>2248</ele>
        <time>2019-08-17T17:42:47Z</time>
      </trkpt>
      <trkpt lat="45.25241" lon="6.73239">
        <ele>2251</ele>
        <time>2019-08-17T17:43:26Z</time>
      </trkpt>
      <trkpt lat="45.25258" lon="6.73243">
        <ele>2252</ele>
        <time>2019-08-17T17:43:49Z</time>
      </trkpt>
      <trkpt lat="45.25285" lon="6.73241">
        <ele>2254</ele>
        <time>2019-08-17T17:44:26Z</time>
      </trkpt>
      <trkpt lat="45.25321" lon="6.73245">
        <ele>2258</ele>
        <time>2019-08-17T17:45:14Z</time>
      </trkpt>
      <trkpt lat="45.25344" lon="6.73241">
        <ele>2260</ele>
        <time>2019-08-17T17:45:45Z</time>
      </trkpt>
      <trkpt lat="45.25368" lon="6.73205">
        <ele>2256</ele>
        <time>2019-08-17T17:46:31Z</time>
      </trkpt>
      <trkpt lat="45.25379" lon="6.73192">
        <ele>2255</ele>
        <time>2019-08-17T17:46:50Z</time>
      </trkpt>
      <trkpt lat="45.254" lon="6.73192">
        <ele>2258</ele>
        <time>2019-08-17T17:47:18Z</time>
      </trkpt>
      <trkpt lat="45.25418" lon="6.73211">
        <ele>2266</ele>
        <time>2019-08-17T17:47:48Z</time>
      </trkpt>
      <trkpt lat="45.25442" lon="6.7322">
        <ele>2272</ele>
        <time>2019-08-17T17:48:21Z</time>
      </trkpt>
      <trkpt lat="45.25463" lon="6.73213">
        <ele>2274</ele>
        <time>2019-08-17T17:48:50Z</time>
      </trkpt>
      <trkpt lat="45.25521" lon="6.73167">
        <ele>2274</ele>
        <time>2019-08-17T17:50:19Z</time>
      </trkpt>
      <trkpt lat="45.2556" lon="6.73139">
        <ele>2280</ele>
        <time>2019-08-17T17:51:17Z</time>
      </trkpt>
      <trkpt lat="45.25591" lon="6.73093">
        <ele>2280</ele>
        <time>2019-08-17T17:52:17Z</time>
      </trkpt>
      <trkpt lat="45.2567" lon="6.73002">
        <ele>2283</ele>
        <time>2019-08-17T17:54:33Z</time>
      </trkpt>
      <trkpt lat="45.25688" lon="6.72982">
        <ele>2283</ele>
        <time>2019-08-17T17:55:03Z</time>
      </trkpt>
      <trkpt lat="45.25715" lon="6.7297">
        <ele>2286</ele>
        <time>2019-08-17T17:55:41Z</time>
      </trkpt>
      <trkpt lat="45.25757" lon="6.72949">
        <ele>2290</ele>
        <time>2019-08-17T17:56:40Z</time>
      </trkpt>
      <trkpt lat="45.2578" lon="6.72942">
        <ele>2293</ele>
        <time>2019-08-17T17:57:12Z</time>
      </trkpt>
      <trkpt lat="45.25803" lon="6.72936">
        <ele>2297</ele>
        <time>2019-08-17T17:57:43Z</time>
      </trkpt>
      <trkpt lat="45.2579" lon="6.72946">
        <ele>2297</ele>
        <time>2019-08-17T17:58:03Z</time>
      </trkpt>
      <trkpt lat="45.25783" lon="6.72954">
        <ele>2297</ele>
        <time>2019-08-17T17:58:15Z</time>
      </trkpt>
      <trkpt lat="45.25764" lon="6.72993">
        <ele>2304</ele>
        <time>2019-08-17T17:58:59Z</time>
      </trkpt>
      <trkpt lat="45.25761" lon="6.7301">
        <ele>2308</ele>
        <time>2019-08-17T17:59:16Z</time>
      </trkpt>
      <trkpt lat="45.25762" lon="6.73033">
        <ele>2314</ele>
        <time>2019-08-17T17:59:37Z</time>
      </trkpt>
      <trkpt lat="45.25752" lon="6.73061">
        <ele>2318</ele>
        <time>2019-08-17T18:00:07Z</time>
      </trkpt>
      <trkpt lat="45.25745" lon="6.73073">
        <ele>2319</ele>
        <time>2019-08-17T18:00:21Z</time>
      </trkpt>
      <trkpt lat="45.25719" lon="6.73084">
        <ele>2315</ele>
        <time>2019-08-17T18:00:58Z</time>
      </trkpt>
      <trkpt lat="45.25711" lon="6.73107">
        <ele>2316</ele>
        <time>2019-08-17T18:01:22Z</time>
      </trkpt>
      <trkpt lat="45.25695" lon="6.73133">
        <ele>2315</ele>
        <time>2019-08-17T18:01:54Z</time>
      </trkpt>
      <trkpt lat="45.25683" lon="6.73154">
        <ele>2315</ele>
        <time>2019-08-17T18:02:20Z</time>
      </trkpt>
      <trkpt lat="45.25711" lon="6.73107">
        <ele>2316</ele>
        <time>2019-08-17T18:03:17Z</time>
      </trkpt>
      <trkpt lat="45.25719" lon="6.73084">
        <ele>2315</ele>
        <time>2019-08-17T18:03:42Z</time>
      </trkpt>
      <trkpt lat="45.25745" lon="6.73073">
        <ele>2319</ele>
        <time>2019-08-17T18:04:18Z</time>
      </trkpt>
      <trkpt lat="45.25752" lon="6.73061">
        <ele>2318</ele>
        <time>2019-08-17T18:04:32Z</time>
      </trkpt>
      <trkpt lat="45.25762" lon="6.73033">
        <ele>2314</ele>
        <time>2019-08-17T18:05:02Z</time>
      </trkpt>
      <trkpt lat="45.25761" lon="6.7301">
        <ele>2308</ele>
        <time>2019-08-17T18:05:24Z</time>
      </trkpt>
      <trkpt lat="45.25764" lon="6.72993">
        <ele>2304</ele>
        <time>2019-08-17T18:05:40Z</time>
      </trkpt>
      <trkpt lat="45.25783" lon="6.72954">
        <ele>2297</ele>
        <time>2019-08-17T18:06:25Z</time>
      </trkpt>
      <trkpt lat="45.2579" lon="6.72946">
        <ele>2297</ele>
        <time>2019-08-17T18:06:37Z</time>
      </trkpt>
      <trkpt lat="45.25803" lon="6.72936">
        <ele>2297</ele>
        <time>2019-08-17T18:06:56Z</time>
      </trkpt>
      <trkpt lat="45.25815" lon="6.72932">
        <ele>2298</ele>
        <time>2019-08-17T18:07:13Z</time>
      </trkpt>
      <trkpt lat="45.25852" lon="6.72914">
        <ele>2302</ele>
        <time>2019-08-17T18:08:05Z</time>
      </trkpt>
      <trkpt lat="45.25888" lon="6.7289">
        <ele>2303</ele>
        <time>2019-08-17T18:08:58Z</time>
      </trkpt>
      <trkpt lat="45.25919" lon="6.72871">
        <ele>2305</ele>
        <time>2019-08-17T18:09:43Z</time>
      </trkpt>
      <trkpt lat="45.2593" lon="6.72853">
        <ele>2302</ele>
        <time>2019-08-17T18:10:05Z</time>
      </trkpt>
      <trkpt lat="45.2594" lon="6.72835">
        <ele>2298</ele>
        <time>2019-08-17T18:10:27Z</time>
      </trkpt>
      <trkpt lat="45.25952" lon="6.72829">
        <ele>2299</ele>
        <time>2019-08-17T18:10:44Z</time>
      </trkpt>
      <trkpt lat="45.25981" lon="6.72832">
        <ele>2306</ele>
        <time>2019-08-17T18:11:23Z</time>
      </trkpt>
      <trkpt lat="45.26007" lon="6.72822">
        <ele>2308</ele>
        <time>2019-08-17T18:11:59Z</time>
      </trkpt>
      <trkpt lat="45.26036" lon="6.72806">
        <ele>2308</ele>
        <time>2019-08-17T18:12:40Z</time>
      </trkpt>
      <trkpt lat="45.26116" lon="6.72759">
        <ele>2313</ele>
        <time>2019-08-17T18:14:36Z</time>
      </trkpt>
      <trkpt lat="45.26138" lon="6.72747">
        <ele>2316</ele>
        <time>2019-08-17T18:15:07Z</time>
      </trkpt>
      <trkpt lat="45.26172" lon="6.72719">
        <ele>2318</ele>
        <time>2019-08-17T18:16:00Z</time>
      </trkpt>
      <trkpt lat="45.26189" lon="6.727">
        <ele>2320</ele>
        <time>2019-08-17T18:16:28Z</time>
      </trkpt>
      <trkpt lat="45.26211" lon="6.72653">
        <ele>2314</ele>
        <time>2019-08-17T18:17:22Z</time>
      </trkpt>
      <trkpt lat="45.26233" lon="6.72615">
        <ele>2312</ele>
        <time>2019-08-17T18:18:08Z</time>
      </trkpt>
      <trkpt lat="45.26243" lon="6.72595">
        <ele>2310</ele>
        <time>2019-08-17T18:18:31Z</time>
      </trkpt>
      <trkpt lat="45.26253" lon="6.72585">
        <ele>2309</ele>
        <time>2019-08-17T18:18:47Z</time>
      </trkpt>
      <trkpt lat="45.26263" lon="6.72585">
        <ele>2309</ele>
        <time>2019-08-17T18:19:00Z</time>
      </trkpt>
      <trkpt lat="45.26278" lon="6.72596">
        <ele>2312</ele>
        <time>2019-08-17T18:19:23Z</time>
      </trkpt>
      <trkpt lat="45.26281" lon="6.72606">
        <ele>2314</ele>
        <time>2019-08-17T18:19:33Z</time>
      </trkpt>
      <trkpt lat="45.26304" lon="6.72612">
        <ele>2314</ele>
        <time>2019-08-17T18:20:04Z</time>
      </trkpt>
      <trkpt lat="45.26316" lon="6.72617">
        <ele>2314</ele>
        <time>2019-08-17T18:20:21Z</time>
      </trkpt>
      <trkpt lat="45.26329" lon="6.72619">
        <ele>2313</ele>
        <time>2019-08-17T18:20:39Z</time>
      </trkpt>
      <trkpt lat="45.26347" lon="6.72624">
        <ele>2314</ele>
        <time>2019-08-17T18:21:03Z</time>
      </trkpt>
      <trkpt lat="45.26353" lon="6.72641">
        <ele>2316</ele>
        <time>2019-08-17T18:21:21Z</time>
      </trkpt>
      <trkpt lat="45.26362" lon="6.7265">
        <ele>2317</ele>
        <time>2019-08-17T18:21:36Z</time>
      </trkpt>
      <trkpt lat="45.2637" lon="6.72653">
        <ele>2318</ele>
        <time>2019-08-17T18:21:47Z</time>
      </trkpt>
      <trkpt lat="45.26374" lon="6.72654">
        <ele>2318</ele>
        <time>2019-08-17T18:21:52Z</time>
      </trkpt>
      <trkpt lat="45.26379" lon="6.72652">
        <ele>2318</ele>
        <time>2019-08-17T18:21:59Z</time>
      </trkpt>
      <trkpt lat="45.26381" lon="6.7265">
        <ele>2318</ele>
        <time>2019-08-17T18:22:02Z</time>
      </trkpt>
      <trkpt lat="45.26382" lon="6.72646">
        <ele>2317</ele>
        <time>2019-08-17T18:22:06Z</time>
      </trkpt>
      <trkpt lat="45.26385" lon="6.72634">
        <ele>2316</ele>
        <time>2019-08-17T18:22:18Z</time>
      </trkpt>
      <trkpt lat="45.26385" lon="6.72624">
        <ele>2315</ele>
        <time>2019-08-17T18:22:28Z</time>
      </trkpt>
      <trkpt lat="45.26382" lon="6.72595">
        <ele>2312</ele>
        <time>2019-08-17T18:22:55Z</time>
      </trkpt>
      <trkpt lat="45.26383" lon="6.72591">
        <ele>2312</ele>
        <time>2019-08-17T18:22:59Z</time>
      </trkpt>
      <trkpt lat="45.26387" lon="6.7259">
        <ele>2312</ele>
        <time>2019-08-17T18:23:04Z</time>
      </trkpt>
      <trkpt lat="45.26389" lon="6.72591">
        <ele>2312</ele>
        <time>2019-08-17T18:23:07Z</time>
      </trkpt>
      <trkpt lat="45.26391" lon="6.72596">
        <ele>2313</ele>
        <time>2019-08-17T18:23:13Z</time>
      </trkpt>
      <trkpt lat="45.26404" lon="6.72605">
        <ele>2314</ele>
        <time>2019-08-17T18:23:32Z</time>
      </trkpt>
      <trkpt lat="45.2641" lon="6.72606">
        <ele>2315</ele>
        <time>2019-08-17T18:23:40Z</time>
      </trkpt>
      <trkpt lat="45.26416" lon="6.72606">
        <ele>2315</ele>
        <time>2019-08-17T18:23:48Z</time>
      </trkpt>
      <trkpt lat="45.26418" lon="6.72606">
        <ele>2315</ele>
        <time>2019-08-17T18:23:51Z</time>
      </trkpt>
      <trkpt lat="45.26422" lon="6.72604">
        <ele>2316</ele>
        <time>2019-08-17T18:23:56Z</time>
      </trkpt>
      <trkpt lat="45.26427" lon="6.72599">
        <ele>2317</ele>
        <time>2019-08-17T18:24:05Z</time>
      </trkpt>
      <trkpt lat="45.2643" lon="6.72597">
        <ele>2317</ele>
        <time>2019-08-17T18:24:09Z</time>
      </trkpt>
      <trkpt lat="45.26433" lon="6.72597">
        <ele>2318</ele>
        <time>2019-08-17T18:24:13Z</time>
      </trkpt>
      <trkpt lat="45.26443" lon="6.726">
        <ele>2320</ele>
        <time>2019-08-17T18:24:27Z</time>
      </trkpt>
      <trkpt lat="45.26454" lon="6.72601">
        <ele>2323</ele>
        <time>2019-08-17T18:24:41Z</time>
      </trkpt>
      <trkpt lat="45.26464" lon="6.726">
        <ele>2325</ele>
        <time>2019-08-17T18:24:55Z</time>
      </trkpt>
      <trkpt lat="45.26474" lon="6.72602">
        <ele>2328</ele>
        <time>2019-08-17T18:25:08Z</time>
      </trkpt>
      <trkpt lat="45.26477" lon="6.72601">
        <ele>2328</ele>
        <time>2019-08-17T18:25:12Z</time>
      </trkpt>
      <trkpt lat="45.26479" lon="6.72598">
        <ele>2329</ele>
        <time>2019-08-17T18:25:16Z</time>
      </trkpt>
      <trkpt lat="45.26481" lon="6.72584">
        <ele>2328</ele>
        <time>2019-08-17T18:25:30Z</time>
      </trkpt>
      <trkpt lat="45.26486" lon="6.72576">
        <ele>2330</ele>
        <time>2019-08-17T18:25:40Z</time>
      </trkpt>
      <trkpt lat="45.26496" lon="6.72554">
        <ele>2333</ele>
        <time>2019-08-17T18:26:04Z</time>
      </trkpt>
      <trkpt lat="45.26496" lon="6.72544">
        <ele>2334</ele>
        <time>2019-08-17T18:26:14Z</time>
      </trkpt>
      <trkpt lat="45.26495" lon="6.72536">
        <ele>2334</ele>
        <time>2019-08-17T18:26:21Z</time>
      </trkpt>
      <trkpt lat="45.26491" lon="6.72517">
        <ele>2334</ele>
        <time>2019-08-17T18:26:40Z</time>
      </trkpt>
      <trkpt lat="45.26491" lon="6.72505">
        <ele>2334</ele>
        <time>2019-08-17T18:26:51Z</time>
      </trkpt>
      <trkpt lat="45.26496" lon="6.72489">
        <ele>2335</ele>
        <time>2019-08-17T18:27:08Z</time>
      </trkpt>
      <trkpt lat="45.26505" lon="6.72466">
        <ele>2336</ele>
        <time>2019-08-17T18:27:32Z</time>
      </trkpt>
      <trkpt lat="45.2651" lon="6.72448">
        <ele>2337</ele>
        <time>2019-08-17T18:27:51Z</time>
      </trkpt>
      <trkpt lat="45.26507" lon="6.7243">
        <ele>2335</ele>
        <time>2019-08-17T18:28:08Z</time>
      </trkpt>
      <trkpt lat="45.26507" lon="6.72418">
        <ele>2334</ele>
        <time>2019-08-17T18:28:19Z</time>
      </trkpt>
      <trkpt lat="45.26509" lon="6.72408">
        <ele>2333</ele>
        <time>2019-08-17T18:28:29Z</time>
      </trkpt>
      <trkpt lat="45.26515" lon="6.72395">
        <ele>2334</ele>
        <time>2019-08-17T18:28:44Z</time>
      </trkpt>
      <trkpt lat="45.26517" lon="6.72384">
        <ele>2334</ele>
        <time>2019-08-17T18:28:54Z</time>
      </trkpt>
      <trkpt lat="45.26518" lon="6.72356">
        <ele>2331</ele>
        <time>2019-08-17T18:29:21Z</time>
      </trkpt>
      <trkpt lat="45.26508" lon="6.72319">
        <ele>2325</ele>
        <time>2019-08-17T18:29:58Z</time>
      </trkpt>
      <trkpt lat="45.26497" lon="6.72287">
        <ele>2320</ele>
        <time>2019-08-17T18:30:31Z</time>
      </trkpt>
      <trkpt lat="45.26496" lon="6.72278">
        <ele>2319</ele>
        <time>2019-08-17T18:30:40Z</time>
      </trkpt>
      <trkpt lat="45.2649" lon="6.72267">
        <ele>2316</ele>
        <time>2019-08-17T18:30:53Z</time>
      </trkpt>
      <trkpt lat="45.26488" lon="6.72251">
        <ele>2314</ele>
        <time>2019-08-17T18:31:08Z</time>
      </trkpt>
      <trkpt lat="45.26482" lon="6.72237">
        <ele>2310</ele>
        <time>2019-08-17T18:31:23Z</time>
      </trkpt>
      <trkpt lat="45.26476" lon="6.7223">
        <ele>2307</ele>
        <time>2019-08-17T18:31:34Z</time>
      </trkpt>
      <trkpt lat="45.26471" lon="6.72204">
        <ele>2303</ele>
        <time>2019-08-17T18:31:59Z</time>
      </trkpt>
      <trkpt lat="45.26471" lon="6.72192">
        <ele>2301</ele>
        <time>2019-08-17T18:32:10Z</time>
      </trkpt>
      <trkpt lat="45.26477" lon="6.72183">
        <ele>2303</ele>
        <time>2019-08-17T18:32:22Z</time>
      </trkpt>
      <trkpt lat="45.26485" lon="6.72164">
        <ele>2304</ele>
        <time>2019-08-17T18:32:43Z</time>
      </trkpt>
      <trkpt lat="45.26497" lon="6.72123">
        <ele>2299</ele>
        <time>2019-08-17T18:33:25Z</time>
      </trkpt>
      <trkpt lat="45.26503" lon="6.72109">
        <ele>2297</ele>
        <time>2019-08-17T18:33:40Z</time>
      </trkpt>
      <trkpt lat="45.26509" lon="6.72106">
        <ele>2300</ele>
        <time>2019-08-17T18:33:48Z</time>
      </trkpt>
      <trkpt lat="45.26516" lon="6.72086">
        <ele>2298</ele>
        <time>2019-08-17T18:34:09Z</time>
      </trkpt>
      <trkpt lat="45.26524" lon="6.7207">
        <ele>2299</ele>
        <time>2019-08-17T18:34:28Z</time>
      </trkpt>
      <trkpt lat="45.26532" lon="6.7206">
        <ele>2301</ele>
        <time>2019-08-17T18:34:42Z</time>
      </trkpt>
      <trkpt lat="45.2654" lon="6.72048">
        <ele>2303</ele>
        <time>2019-08-17T18:34:58Z</time>
      </trkpt>
      <trkpt lat="45.2654" lon="6.72021">
        <ele>2299</ele>
        <time>2019-08-17T18:35:23Z</time>
      </trkpt>
      <trkpt lat="45.26531" lon="6.71993">
        <ele>2290</ele>
        <time>2019-08-17T18:35:52Z</time>
      </trkpt>
      <trkpt lat="45.26518" lon="6.71945">
        <ele>2282</ele>
        <time>2019-08-17T18:36:40Z</time>
      </trkpt>
      <trkpt lat="45.26514" lon="6.71937">
        <ele>2279</ele>
        <time>2019-08-17T18:36:49Z</time>
      </trkpt>
      <trkpt lat="45.26506" lon="6.71911">
        <ele>2274</ele>
        <time>2019-08-17T18:37:16Z</time>
      </trkpt>
      <trkpt lat="45.26504" lon="6.719">
        <ele>2272</ele>
        <time>2019-08-17T18:37:27Z</time>
      </trkpt>
      <trkpt lat="45.26506" lon="6.71891">
        <ele>2274</ele>
        <time>2019-08-17T18:37:36Z</time>
      </trkpt>
      <trkpt lat="45.26515" lon="6.71883">
        <ele>2279</ele>
        <time>2019-08-17T18:37:50Z</time>
      </trkpt>
      <trkpt lat="45.26521" lon="6.71861">
        <ele>2283</ele>
        <time>2019-08-17T18:38:12Z</time>
      </trkpt>
      <trkpt lat="45.26525" lon="6.71842">
        <ele>2285</ele>
        <time>2019-08-17T18:38:31Z</time>
      </trkpt>
      <trkpt lat="45.2652" lon="6.71828">
        <ele>2281</ele>
        <time>2019-08-17T18:38:45Z</time>
      </trkpt>
      <trkpt lat="45.26521" lon="6.71808">
        <ele>2280</ele>
        <time>2019-08-17T18:39:04Z</time>
      </trkpt>
      <trkpt lat="45.26522" lon="6.71786">
        <ele>2279</ele>
        <time>2019-08-17T18:39:25Z</time>
      </trkpt>
      <trkpt lat="45.26524" lon="6.71761">
        <ele>2278</ele>
        <time>2019-08-17T18:39:48Z</time>
      </trkpt>
      <trkpt lat="45.26527" lon="6.71737">
        <ele>2278</ele>
        <time>2019-08-17T18:40:11Z</time>
      </trkpt>
      <trkpt lat="45.2652" lon="6.71709">
        <ele>2272</ele>
        <time>2019-08-17T18:40:39Z</time>
      </trkpt>
      <trkpt lat="45.26515" lon="6.71669">
        <ele>2266</ele>
        <time>2019-08-17T18:41:17Z</time>
      </trkpt>
      <trkpt lat="45.26507" lon="6.71592">
        <ele>2256</ele>
        <time>2019-08-17T18:42:31Z</time>
      </trkpt>
      <trkpt lat="45.26509" lon="6.71568">
        <ele>2258</ele>
        <time>2019-08-17T18:42:53Z</time>
      </trkpt>
      <trkpt lat="45.26502" lon="6.71541">
        <ele>2255</ele>
        <time>2019-08-17T18:43:20Z</time>
      </trkpt>
      <trkpt lat="45.26488" lon="6.71518">
        <ele>2248</ele>
        <time>2019-08-17T18:43:49Z</time>
      </trkpt>
      <trkpt lat="45.26468" lon="6.71493">
        <ele>2240</ele>
        <time>2019-08-17T18:44:24Z</time>
      </trkpt>
      <trkpt lat="45.26457" lon="6.71477">
        <ele>2235</ele>
        <time>2019-08-17T18:44:45Z</time>
      </trkpt>
      <trkpt lat="45.26453" lon="6.71477">
        <ele>2233</ele>
        <time>2019-08-17T18:44:51Z</time>
      </trkpt>
      <trkpt lat="45.26449" lon="6.71473">
        <ele>2231</ele>
        <time>2019-08-17T18:44:57Z</time>
      </trkpt>
      <trkpt lat="45.26446" lon="6.71465">
        <ele>2230</ele>
        <time>2019-08-17T18:45:06Z</time>
      </trkpt>
      <trkpt lat="45.2644" lon="6.7145">
        <ele>2228</ele>
        <time>2019-08-17T18:45:22Z</time>
      </trkpt>
      <trkpt lat="45.26443" lon="6.71438">
        <ele>2231</ele>
        <time>2019-08-17T18:45:34Z</time>
      </trkpt>
      <trkpt lat="45.2645" lon="6.71422">
        <ele>2236</ele>
        <time>2019-08-17T18:45:52Z</time>
      </trkpt>
      <trkpt lat="45.2645" lon="6.71413">
        <ele>2236</ele>
        <time>2019-08-17T18:46:00Z</time>
      </trkpt>
      <trkpt lat="45.26448" lon="6.7141">
        <ele>2234</ele>
        <time>2019-08-17T18:46:04Z</time>
      </trkpt>
      <trkpt lat="45.26439" lon="6.71405">
        <ele>2229</ele>
        <time>2019-08-17T18:46:17Z</time>
      </trkpt>
      <trkpt lat="45.26426" lon="6.71407">
        <ele>2223</ele>
        <time>2019-08-17T18:46:34Z</time>
      </trkpt>
      <trkpt lat="45.26416" lon="6.71413">
        <ele>2219</ele>
        <time>2019-08-17T18:46:49Z</time>
      </trkpt>
      <trkpt lat="45.26411" lon="6.71412">
        <ele>2217</ele>
        <time>2019-08-17T18:46:56Z</time>
      </trkpt>
      <trkpt lat="45.26412" lon="6.71405">
        <ele>2217</ele>
        <time>2019-08-17T18:47:02Z</time>
      </trkpt>
      <trkpt lat="45.26423" lon="6.71379">
        <ele>2219</ele>
        <time>2019-08-17T18:47:31Z</time>
      </trkpt>
      <trkpt lat="45.26423" lon="6.71372">
        <ele>2218</ele>
        <time>2019-08-17T18:47:37Z</time>
      </trkpt>
      <trkpt lat="45.2643" lon="6.7135">
        <ele>2219</ele>
        <time>2019-08-17T18:48:00Z</time>
      </trkpt>
      <trkpt lat="45.26433" lon="6.71339">
        <ele>2219</ele>
        <time>2019-08-17T18:48:11Z</time>
      </trkpt>
      <trkpt lat="45.26433" lon="6.71324">
        <ele>2218</ele>
        <time>2019-08-17T18:48:25Z</time>
      </trkpt>
      <trkpt lat="45.26428" lon="6.71306">
        <ele>2216</ele>
        <time>2019-08-17T18:48:43Z</time>
      </trkpt>
      <trkpt lat="45.26429" lon="6.71292">
        <ele>2216</ele>
        <time>2019-08-17T18:48:57Z</time>
      </trkpt>
      <trkpt lat="45.26429" lon="6.7127">
        <ele>2215</ele>
        <time>2019-08-17T18:49:17Z</time>
      </trkpt>
      <trkpt lat="45.26425" lon="6.71244">
        <ele>2213</ele>
        <time>2019-08-17T18:49:42Z</time>
      </trkpt>
      <trkpt lat="45.26418" lon="6.71239">
        <ele>2212</ele>
        <time>2019-08-17T18:49:53Z</time>
      </trkpt>
      <trkpt lat="45.26412" lon="6.71234">
        <ele>2212</ele>
        <time>2019-08-17T18:50:02Z</time>
      </trkpt>
      <trkpt lat="45.26405" lon="6.71235">
        <ele>2213</ele>
        <time>2019-08-17T18:50:11Z</time>
      </trkpt>
      <trkpt lat="45.26403" lon="6.71238">
        <ele>2213</ele>
        <time>2019-08-17T18:50:15Z</time>
      </trkpt>
      <trkpt lat="45.26398" lon="6.71234">
        <ele>2214</ele>
        <time>2019-08-17T18:50:23Z</time>
      </trkpt>
      <trkpt lat="45.26396" lon="6.71226">
        <ele>2215</ele>
        <time>2019-08-17T18:50:31Z</time>
      </trkpt>
      <trkpt lat="45.26396" lon="6.71205">
        <ele>2216</ele>
        <time>2019-08-17T18:50:51Z</time>
      </trkpt>
      <trkpt lat="45.26387" lon="6.71213">
        <ele>2217</ele>
        <time>2019-08-17T18:51:05Z</time>
      </trkpt>
      <trkpt lat="45.26386" lon="6.71201">
        <ele>2218</ele>
        <time>2019-08-17T18:51:16Z</time>
      </trkpt>
      <trkpt lat="45.26383" lon="6.71194">
        <ele>2219</ele>
        <time>2019-08-17T18:51:24Z</time>
      </trkpt>
      <trkpt lat="45.26373" lon="6.71186">
        <ele>2221</ele>
        <time>2019-08-17T18:51:39Z</time>
      </trkpt>
      <trkpt lat="45.26369" lon="6.71186">
        <ele>2222</ele>
        <time>2019-08-17T18:51:44Z</time>
      </trkpt>
      <trkpt lat="45.26367" lon="6.71189">
        <ele>2222</ele>
        <time>2019-08-17T18:51:48Z</time>
      </trkpt>
      <trkpt lat="45.26362" lon="6.71186">
        <ele>2223</ele>
        <time>2019-08-17T18:51:56Z</time>
      </trkpt>
      <trkpt lat="45.26359" lon="6.71184">
        <ele>2224</ele>
        <time>2019-08-17T18:52:00Z</time>
      </trkpt>
      <trkpt lat="45.2635" lon="6.712">
        <ele>2224</ele>
        <time>2019-08-17T18:52:19Z</time>
      </trkpt>
      <trkpt lat="45.26342" lon="6.712">
        <ele>2225</ele>
        <time>2019-08-17T18:52:30Z</time>
      </trkpt>
      <trkpt lat="45.2633" lon="6.71187">
        <ele>2229</ele>
        <time>2019-08-17T18:52:50Z</time>
      </trkpt>
      <trkpt lat="45.26319" lon="6.71181">
        <ele>2232</ele>
        <time>2019-08-17T18:53:06Z</time>
      </trkpt>
      <trkpt lat="45.26313" lon="6.71172">
        <ele>2234</ele>
        <time>2019-08-17T18:53:17Z</time>
      </trkpt>
      <trkpt lat="45.26294" lon="6.71147">
        <ele>2239</ele>
        <time>2019-08-17T18:53:52Z</time>
      </trkpt>
      <trkpt lat="45.26282" lon="6.71143">
        <ele>2242</ele>
        <time>2019-08-17T18:54:08Z</time>
      </trkpt>
      <trkpt lat="45.26273" lon="6.7114">
        <ele>2243</ele>
        <time>2019-08-17T18:54:21Z</time>
      </trkpt>
      <trkpt lat="45.26264" lon="6.71125">
        <ele>2245</ele>
        <time>2019-08-17T18:54:39Z</time>
      </trkpt>
      <trkpt lat="45.26249" lon="6.71124">
        <ele>2246</ele>
        <time>2019-08-17T18:54:59Z</time>
      </trkpt>
      <trkpt lat="45.26239" lon="6.71115">
        <ele>2247</ele>
        <time>2019-08-17T18:55:15Z</time>
      </trkpt>
      <trkpt lat="45.26222" lon="6.71102">
        <ele>2247</ele>
        <time>2019-08-17T18:55:41Z</time>
      </trkpt>
      <trkpt lat="45.26208" lon="6.71097">
        <ele>2248</ele>
        <time>2019-08-17T18:56:00Z</time>
      </trkpt>
      <trkpt lat="45.26179" lon="6.7108">
        <ele>2251</ele>
        <time>2019-08-17T18:56:42Z</time>
      </trkpt>
      <trkpt lat="45.26165" lon="6.71058">
        <ele>2254</ele>
        <time>2019-08-17T18:57:10Z</time>
      </trkpt>
      <trkpt lat="45.26157" lon="6.71051">
        <ele>2256</ele>
        <time>2019-08-17T18:57:22Z</time>
      </trkpt>
      <trkpt lat="45.26142" lon="6.71043">
        <ele>2260</ele>
        <time>2019-08-17T18:57:44Z</time>
      </trkpt>
      <trkpt lat="45.26116" lon="6.7104">
        <ele>2265</ele>
        <time>2019-08-17T18:58:19Z</time>
      </trkpt>
      <trkpt lat="45.26115" lon="6.71024">
        <ele>2272</ele>
        <time>2019-08-17T18:58:34Z</time>
      </trkpt>
      <trkpt lat="45.2612" lon="6.70982">
        <ele>2285</ele>
        <time>2019-08-17T18:59:14Z</time>
      </trkpt>
      <trkpt lat="45.26107" lon="6.70954">
        <ele>2298</ele>
        <time>2019-08-17T18:59:45Z</time>
      </trkpt>
      <trkpt lat="45.26108" lon="6.7093">
        <ele>2305</ele>
        <time>2019-08-17T19:00:08Z</time>
      </trkpt>
      <trkpt lat="45.26102" lon="6.70913">
        <ele>2312</ele>
        <time>2019-08-17T19:00:26Z</time>
      </trkpt>
      <trkpt lat="45.26102" lon="6.70882">
        <ele>2323</ele>
        <time>2019-08-17T19:00:55Z</time>
      </trkpt>
      <trkpt lat="45.26092" lon="6.70885">
        <ele>2323</ele>
        <time>2019-08-17T19:01:08Z</time>
      </trkpt>
      <trkpt lat="45.26087" lon="6.70875">
        <ele>2326</ele>
        <time>2019-08-17T19:01:20Z</time>
      </trkpt>
      <trkpt lat="45.26082" lon="6.70844">
        <ele>2336</ele>
        <time>2019-08-17T19:01:50Z</time>
      </trkpt>
      <trkpt lat="45.26065" lon="6.70861">
        <ele>2339</ele>
        <time>2019-08-17T19:02:17Z</time>
      </trkpt>
      <trkpt lat="45.26051" lon="6.70885">
        <ele>2339</ele>
        <time>2019-08-17T19:02:47Z</time>
      </trkpt>
      <trkpt lat="45.26035" lon="6.70914">
        <ele>2337</ele>
        <time>2019-08-17T19:03:21Z</time>
      </trkpt>
      <trkpt lat="45.26032" lon="6.70908">
        <ele>2340</ele>
        <time>2019-08-17T19:03:28Z</time>
      </trkpt>
      <trkpt lat="45.26034" lon="6.70891">
        <ele>2345</ele>
        <time>2019-08-17T19:03:44Z</time>
      </trkpt>
      <trkpt lat="45.2602" lon="6.709">
        <ele>2348</ele>
        <time>2019-08-17T19:04:05Z</time>
      </trkpt>
      <trkpt lat="45.26022" lon="6.70871">
        <ele>2357</ele>
        <time>2019-08-17T19:04:32Z</time>
      </trkpt>
      <trkpt lat="45.26017" lon="6.70856">
        <ele>2365</ele>
        <time>2019-08-17T19:04:48Z</time>
      </trkpt>
      <trkpt lat="45.25996" lon="6.70861">
        <ele>2372</ele>
        <time>2019-08-17T19:05:16Z</time>
      </trkpt>
      <trkpt lat="45.25973" lon="6.7088">
        <ele>2368</ele>
        <time>2019-08-17T19:05:52Z</time>
      </trkpt>
      <trkpt lat="45.25973" lon="6.70865">
        <ele>2374</ele>
        <time>2019-08-17T19:06:06Z</time>
      </trkpt>
      <trkpt lat="45.25987" lon="6.7082">
        <ele>2385</ele>
        <time>2019-08-17T19:06:52Z</time>
      </trkpt>
      <trkpt lat="45.25987" lon="6.70774">
        <ele>2390</ele>
        <time>2019-08-17T19:07:35Z</time>
      </trkpt>
      <trkpt lat="45.25987" lon="6.70727">
        <ele>2395</ele>
        <time>2019-08-17T19:08:20Z</time>
      </trkpt>
      <trkpt lat="45.25996" lon="6.70628">
        <ele>2403</ele>
        <time>2019-08-17T19:09:53Z</time>
      </trkpt>
      <trkpt lat="45.26" lon="6.70578">
        <ele>2408</ele>
        <time>2019-08-17T19:10:41Z</time>
      </trkpt>
      <trkpt lat="45.25993" lon="6.7056">
        <ele>2411</ele>
        <time>2019-08-17T19:11:00Z</time>
      </trkpt>
      <trkpt lat="45.25988" lon="6.705">
        <ele>2418</ele>
        <time>2019-08-17T19:11:57Z</time>
      </trkpt>
      <trkpt lat="45.2598" lon="6.7048">
        <ele>2421</ele>
        <time>2019-08-17T19:12:18Z</time>
      </trkpt>
      <trkpt lat="45.25981" lon="6.70449">
        <ele>2425</ele>
        <time>2019-08-17T19:12:47Z</time>
      </trkpt>
      <trkpt lat="45.25976" lon="6.70437">
        <ele>2426</ele>
        <time>2019-08-17T19:13:00Z</time>
      </trkpt>
      <trkpt lat="45.2597" lon="6.70432">
        <ele>2426</ele>
        <time>2019-08-17T19:13:10Z</time>
      </trkpt>
      <trkpt lat="45.25965" lon="6.70433">
        <ele>2426</ele>
        <time>2019-08-17T19:13:17Z</time>
      </trkpt>
      <trkpt lat="45.25944" lon="6.70452">
        <ele>2421</ele>
        <time>2019-08-17T19:13:50Z</time>
      </trkpt>
      <trkpt lat="45.25932" lon="6.70455">
        <ele>2419</ele>
        <time>2019-08-17T19:14:06Z</time>
      </trkpt>
      <trkpt lat="45.25905" lon="6.70415">
        <ele>2419</ele>
        <time>2019-08-17T19:14:58Z</time>
      </trkpt>
      <trkpt lat="45.25875" lon="6.70451">
        <ele>2413</ele>
        <time>2019-08-17T19:15:50Z</time>
      </trkpt>
      <trkpt lat="45.25866" lon="6.70462">
        <ele>2410</ele>
        <time>2019-08-17T19:16:06Z</time>
      </trkpt>
      <trkpt lat="45.25854" lon="6.70471">
        <ele>2407</ele>
        <time>2019-08-17T19:16:24Z</time>
      </trkpt>
      <trkpt lat="45.25847" lon="6.70487">
        <ele>2403</ele>
        <time>2019-08-17T19:16:42Z</time>
      </trkpt>
      <trkpt lat="45.25831" lon="6.70486">
        <ele>2401</ele>
        <time>2019-08-17T19:17:03Z</time>
      </trkpt>
      <trkpt lat="45.25821" lon="6.70476">
        <ele>2402</ele>
        <time>2019-08-17T19:17:20Z</time>
      </trkpt>
      <trkpt lat="45.25806" lon="6.70474">
        <ele>2402</ele>
        <time>2019-08-17T19:17:40Z</time>
      </trkpt>
      <trkpt lat="45.25741" lon="6.70526">
        <ele>2388</ele>
        <time>2019-08-17T19:19:19Z</time>
      </trkpt>
      <trkpt lat="45.25731" lon="6.70536">
        <ele>2387</ele>
        <time>2019-08-17T19:19:36Z</time>
      </trkpt>
      <trkpt lat="45.25696" lon="6.70562">
        <ele>2382</ele>
        <time>2019-08-17T19:20:28Z</time>
      </trkpt>
      <trkpt lat="45.25685" lon="6.70571">
        <ele>2380</ele>
        <time>2019-08-17T19:20:45Z</time>
      </trkpt>
      <trkpt lat="45.25669" lon="6.70574">
        <ele>2379</ele>
        <time>2019-08-17T19:21:07Z</time>
      </trkpt>
      <trkpt lat="45.25649" lon="6.70572">
        <ele>2383</ele>
        <time>2019-08-17T19:21:34Z</time>
      </trkpt>
      <trkpt lat="45.25589" lon="6.70636">
        <ele>2375</ele>
        <time>2019-08-17T19:23:14Z</time>
      </trkpt>
      <trkpt lat="45.2556" lon="6.70667">
        <ele>2377</ele>
        <time>2019-08-17T19:24:02Z</time>
      </trkpt>
      <trkpt lat="45.25534" lon="6.70698">
        <ele>2382</ele>
        <time>2019-08-17T19:24:48Z</time>
      </trkpt>
      <trkpt lat="45.25508" lon="6.70728">
        <ele>2387</ele>
        <time>2019-08-17T19:25:32Z</time>
      </trkpt>
      <trkpt lat="45.25498" lon="6.70787">
        <ele>2385</ele>
        <time>2019-08-17T19:26:29Z</time>
      </trkpt>
      <trkpt lat="45.25489" lon="6.70845">
        <ele>2383</ele>
        <time>2019-08-17T19:27:25Z</time>
      </trkpt>
      <trkpt lat="45.25473" lon="6.70869">
        <ele>2385</ele>
        <time>2019-08-17T19:27:56Z</time>
      </trkpt>
      <trkpt lat="45.25458" lon="6.70892">
        <ele>2386</ele>
        <time>2019-08-17T19:28:26Z</time>
      </trkpt>
      <trkpt lat="45.25426" lon="6.70908">
        <ele>2394</ele>
        <time>2019-08-17T19:29:11Z</time>
      </trkpt>
      <trkpt lat="45.25399" lon="6.70946">
        <ele>2393</ele>
        <time>2019-08-17T19:30:02Z</time>
      </trkpt>
      <trkpt lat="45.25372" lon="6.70948">
        <ele>2397</ele>
        <time>2019-08-17T19:30:38Z</time>
      </trkpt>
      <trkpt lat="45.25344" lon="6.70966">
        <ele>2399</ele>
        <time>2019-08-17T19:31:19Z</time>
      </trkpt>
      <trkpt lat="45.25328" lon="6.7099">
        <ele>2398</ele>
        <time>2019-08-17T19:31:50Z</time>
      </trkpt>
      <trkpt lat="45.25293" lon="6.7102">
        <ele>2400</ele>
        <time>2019-08-17T19:32:44Z</time>
      </trkpt>
      <trkpt lat="45.25277" lon="6.71046">
        <ele>2398</ele>
        <time>2019-08-17T19:33:17Z</time>
      </trkpt>
      <trkpt lat="45.25262" lon="6.71057">
        <ele>2398</ele>
        <time>2019-08-17T19:33:39Z</time>
      </trkpt>
      <trkpt lat="45.25247" lon="6.71086">
        <ele>2393</ele>
        <time>2019-08-17T19:34:13Z</time>
      </trkpt>
      <trkpt lat="45.25234" lon="6.71104">
        <ele>2391</ele>
        <time>2019-08-17T19:34:37Z</time>
      </trkpt>
      <trkpt lat="45.25218" lon="6.71108">
        <ele>2393</ele>
        <time>2019-08-17T19:34:59Z</time>
      </trkpt>
      <trkpt lat="45.25192" lon="6.71132">
        <ele>2390</ele>
        <time>2019-08-17T19:35:40Z</time>
      </trkpt>
      <trkpt lat="45.25169" lon="6.71171">
        <ele>2384</ele>
        <time>2019-08-17T19:36:28Z</time>
      </trkpt>
      <trkpt lat="45.25146" lon="6.7121">
        <ele>2387</ele>
        <time>2019-08-17T19:37:16Z</time>
      </trkpt>
      <trkpt lat="45.25133" lon="6.71243">
        <ele>2387</ele>
        <time>2019-08-17T19:37:51Z</time>
      </trkpt>
      <trkpt lat="45.25119" lon="6.71277">
        <ele>2391</ele>
        <time>2019-08-17T19:38:28Z</time>
      </trkpt>
      <trkpt lat="45.25116" lon="6.71318">
        <ele>2392</ele>
        <time>2019-08-17T19:39:07Z</time>
      </trkpt>
      <trkpt lat="45.25122" lon="6.71342">
        <ele>2389</ele>
        <time>2019-08-17T19:39:31Z</time>
      </trkpt>
      <trkpt lat="45.25118" lon="6.71397">
        <ele>2381</ele>
        <time>2019-08-17T19:40:23Z</time>
      </trkpt>
      <trkpt lat="45.25087" lon="6.71412">
        <ele>2384</ele>
        <time>2019-08-17T19:41:07Z</time>
      </trkpt>
      <trkpt lat="45.25063" lon="6.71439">
        <ele>2375</ele>
        <time>2019-08-17T19:41:48Z</time>
      </trkpt>
      <trkpt lat="45.25044" lon="6.71472">
        <ele>2363</ele>
        <time>2019-08-17T19:42:28Z</time>
      </trkpt>
      <trkpt lat="45.25019" lon="6.71464">
        <ele>2370</ele>
        <time>2019-08-17T19:43:02Z</time>
      </trkpt>
      <trkpt lat="45.25018" lon="6.71477">
        <ele>2365</ele>
        <time>2019-08-17T19:43:14Z</time>
      </trkpt>
      <trkpt lat="45.25001" lon="6.71464">
        <ele>2372</ele>
        <time>2019-08-17T19:43:40Z</time>
      </trkpt>
      <trkpt lat="45.24999" lon="6.715">
        <ele>2359</ele>
        <time>2019-08-17T19:44:14Z</time>
      </trkpt>
      <trkpt lat="45.24991" lon="6.71498">
        <ele>2358</ele>
        <time>2019-08-17T19:44:25Z</time>
      </trkpt>
      <trkpt lat="45.2497" lon="6.71507">
        <ele>2349</ele>
        <time>2019-08-17T19:44:54Z</time>
      </trkpt>
      <trkpt lat="45.24968" lon="6.71519">
        <ele>2340</ele>
        <time>2019-08-17T19:45:06Z</time>
      </trkpt>
      <trkpt lat="45.2494" lon="6.7152">
        <ele>2339</ele>
        <time>2019-08-17T19:45:43Z</time>
      </trkpt>
      <trkpt lat="45.24912" lon="6.7152">
        <ele>2338</ele>
        <time>2019-08-17T19:46:20Z</time>
      </trkpt>
      <trkpt lat="45.24881" lon="6.71527">
        <ele>2330</ele>
        <time>2019-08-17T19:47:02Z</time>
      </trkpt>
      <trkpt lat="45.24866" lon="6.71527">
        <ele>2328</ele>
        <time>2019-08-17T19:47:22Z</time>
      </trkpt>
      <trkpt lat="45.24847" lon="6.71532">
        <ele>2323</ele>
        <time>2019-08-17T19:47:48Z</time>
      </trkpt>
      <trkpt lat="45.24823" lon="6.71529">
        <ele>2320</ele>
        <time>2019-08-17T19:48:20Z</time>
      </trkpt>
      <trkpt lat="45.24799" lon="6.71525">
        <ele>2318</ele>
        <time>2019-08-17T19:48:52Z</time>
      </trkpt>
      <trkpt lat="45.24693" lon="6.71519">
        <ele>2305</ele>
        <time>2019-08-17T19:51:14Z</time>
      </trkpt>
      <trkpt lat="45.24657" lon="6.71517">
        <ele>2303</ele>
        <time>2019-08-17T19:52:02Z</time>
      </trkpt>
      <trkpt lat="45.24635" lon="6.71507">
        <ele>2310</ele>
        <time>2019-08-17T19:52:33Z</time>
      </trkpt>
      <trkpt lat="45.24613" lon="6.71498">
        <ele>2316</ele>
        <time>2019-08-17T19:53:03Z</time>
      </trkpt>
      <trkpt lat="45.24547" lon="6.7152">
        <ele>2302</ele>
        <time>2019-08-17T19:54:34Z</time>
      </trkpt>
      <trkpt lat="45.24523" lon="6.71522">
        <ele>2299</ele>
        <time>2019-08-17T19:55:06Z</time>
      </trkpt>
      <trkpt lat="45.24499" lon="6.71523">
        <ele>2296</ele>
        <time>2019-08-17T19:55:38Z</time>
      </trkpt>
      <trkpt lat="45.24476" lon="6.71515">
        <ele>2294</ele>
        <time>2019-08-17T19:56:10Z</time>
      </trkpt>
      <trkpt lat="45.24444" lon="6.71522">
        <ele>2287</ele>
        <time>2019-08-17T19:56:53Z</time>
      </trkpt>
      <trkpt lat="45.24423" lon="6.71508">
        <ele>2288</ele>
        <time>2019-08-17T19:57:24Z</time>
      </trkpt>
      <trkpt lat="45.24402" lon="6.71493">
        <ele>2292</ele>
        <time>2019-08-17T19:57:55Z</time>
      </trkpt>
      <trkpt lat="45.24369" lon="6.71522">
        <ele>2285</ele>
        <time>2019-08-17T19:58:47Z</time>
      </trkpt>
      <trkpt lat="45.2433" lon="6.71549">
        <ele>2282</ele>
        <time>2019-08-17T19:59:45Z</time>
      </trkpt>
      <trkpt lat="45.24311" lon="6.71578">
        <ele>2277</ele>
        <time>2019-08-17T20:00:22Z</time>
      </trkpt>
      <trkpt lat="45.24311" lon="6.71597">
        <ele>2269</ele>
        <time>2019-08-17T20:00:40Z</time>
      </trkpt>
      <trkpt lat="45.24301" lon="6.71612">
        <ele>2264</ele>
        <time>2019-08-17T20:00:59Z</time>
      </trkpt>
      <trkpt lat="45.24285" lon="6.71612">
        <ele>2266</ele>
        <time>2019-08-17T20:01:21Z</time>
      </trkpt>
      <trkpt lat="45.24216" lon="6.71604">
        <ele>2273</ele>
        <time>2019-08-17T20:02:53Z</time>
      </trkpt>
      <trkpt lat="45.24202" lon="6.71596">
        <ele>2276</ele>
        <time>2019-08-17T20:03:13Z</time>
      </trkpt>
      <trkpt lat="45.24177" lon="6.71597">
        <ele>2276</ele>
        <time>2019-08-17T20:03:46Z</time>
      </trkpt>
      <trkpt lat="45.24153" lon="6.71597">
        <ele>2275</ele>
        <time>2019-08-17T20:04:19Z</time>
      </trkpt>
      <trkpt lat="45.24112" lon="6.7161">
        <ele>2269</ele>
        <time>2019-08-17T20:05:15Z</time>
      </trkpt>
      <trkpt lat="45.24086" lon="6.71608">
        <ele>2269</ele>
        <time>2019-08-17T20:05:49Z</time>
      </trkpt>
      <trkpt lat="45.2406" lon="6.71605">
        <ele>2270</ele>
        <time>2019-08-17T20:06:24Z</time>
      </trkpt>
      <trkpt lat="45.24034" lon="6.71612">
        <ele>2268</ele>
        <time>2019-08-17T20:06:59Z</time>
      </trkpt>
      <trkpt lat="45.24007" lon="6.71619">
        <ele>2265</ele>
        <time>2019-08-17T20:07:36Z</time>
      </trkpt>
      <trkpt lat="45.23964" lon="6.7162">
        <ele>2267</ele>
        <time>2019-08-17T20:08:33Z</time>
      </trkpt>
      <trkpt lat="45.23936" lon="6.71627">
        <ele>2266</ele>
        <time>2019-08-17T20:09:11Z</time>
      </trkpt>
      <trkpt lat="45.23899" lon="6.71617">
        <ele>2271</ele>
        <time>2019-08-17T20:10:02Z</time>
      </trkpt>
      <trkpt lat="45.23862" lon="6.71606">
        <ele>2275</ele>
        <time>2019-08-17T20:10:52Z</time>
      </trkpt>
      <trkpt lat="45.23831" lon="6.71594">
        <ele>2278</ele>
        <time>2019-08-17T20:11:35Z</time>
      </trkpt>
      <trkpt lat="45.238" lon="6.71582">
        <ele>2282</ele>
        <time>2019-08-17T20:12:18Z</time>
      </trkpt>
      <trkpt lat="45.23764" lon="6.71601">
        <ele>2278</ele>
        <time>2019-08-17T20:13:09Z</time>
      </trkpt>
      <trkpt lat="45.23721" lon="6.71586">
        <ele>2283</ele>
        <time>2019-08-17T20:14:08Z</time>
      </trkpt>
      <trkpt lat="45.23695" lon="6.71565">
        <ele>2287</ele>
        <time>2019-08-17T20:14:48Z</time>
      </trkpt>
      <trkpt lat="45.23663" lon="6.7152">
        <ele>2292</ele>
        <time>2019-08-17T20:15:48Z</time>
      </trkpt>
      <trkpt lat="45.23648" lon="6.71509">
        <ele>2295</ele>
        <time>2019-08-17T20:16:11Z</time>
      </trkpt>
      <trkpt lat="45.23624" lon="6.71393">
        <ele>2298</ele>
        <time>2019-08-17T20:18:04Z</time>
      </trkpt>
      <trkpt lat="45.23621" lon="6.71364">
        <ele>2298</ele>
        <time>2019-08-17T20:18:32Z</time>
      </trkpt>
      <trkpt lat="45.23631" lon="6.7128">
        <ele>2301</ele>
        <time>2019-08-17T20:19:52Z</time>
      </trkpt>
      <trkpt lat="45.23635" lon="6.71238">
        <ele>2301</ele>
        <time>2019-08-17T20:20:32Z</time>
      </trkpt>
      <trkpt lat="45.2365" lon="6.71202">
        <ele>2305</ele>
        <time>2019-08-17T20:21:11Z</time>
      </trkpt>
      <trkpt lat="45.23657" lon="6.71164">
        <ele>2306</ele>
        <time>2019-08-17T20:21:48Z</time>
      </trkpt>
      <trkpt lat="45.23654" lon="6.71127">
        <ele>2306</ele>
        <time>2019-08-17T20:22:23Z</time>
      </trkpt>
      <trkpt lat="45.23643" lon="6.71092">
        <ele>2304</ele>
        <time>2019-08-17T20:22:59Z</time>
      </trkpt>
      <trkpt lat="45.2364" lon="6.71063">
        <ele>2302</ele>
        <time>2019-08-17T20:23:27Z</time>
      </trkpt>
      <trkpt lat="45.23658" lon="6.70961">
        <ele>2310</ele>
        <time>2019-08-17T20:25:05Z</time>
      </trkpt>
      <trkpt lat="45.23667" lon="6.7091">
        <ele>2318</ele>
        <time>2019-08-17T20:25:55Z</time>
      </trkpt>
      <trkpt lat="45.23667" lon="6.70882">
        <ele>2321</ele>
        <time>2019-08-17T20:26:21Z</time>
      </trkpt>
      <trkpt lat="45.23662" lon="6.70847">
        <ele>2322</ele>
        <time>2019-08-17T20:26:55Z</time>
      </trkpt>
      <trkpt lat="45.23657" lon="6.70812">
        <ele>2324</ele>
        <time>2019-08-17T20:27:28Z</time>
      </trkpt>
      <trkpt lat="45.23683" lon="6.7073">
        <ele>2345</ele>
        <time>2019-08-17T20:28:53Z</time>
      </trkpt>
      <trkpt lat="45.23683" lon="6.70701">
        <ele>2350</ele>
        <time>2019-08-17T20:29:20Z</time>
      </trkpt>
      <trkpt lat="45.23677" lon="6.70678">
        <ele>2352</ele>
        <time>2019-08-17T20:29:43Z</time>
      </trkpt>
      <trkpt lat="45.2366" lon="6.70682">
        <ele>2347</ele>
        <time>2019-08-17T20:30:06Z</time>
      </trkpt>
      <trkpt lat="45.23643" lon="6.70674">
        <ele>2342</ele>
        <time>2019-08-17T20:30:30Z</time>
      </trkpt>
      <trkpt lat="45.23623" lon="6.70633">
        <ele>2342</ele>
        <time>2019-08-17T20:31:17Z</time>
      </trkpt>
      <trkpt lat="45.23603" lon="6.70592">
        <ele>2343</ele>
        <time>2019-08-17T20:32:04Z</time>
      </trkpt>
      <trkpt lat="45.23591" lon="6.70557">
        <ele>2347</ele>
        <time>2019-08-17T20:32:40Z</time>
      </trkpt>
      <trkpt lat="45.23578" lon="6.70522">
        <ele>2352</ele>
        <time>2019-08-17T20:33:17Z</time>
      </trkpt>
      <trkpt lat="45.23561" lon="6.705">
        <ele>2352</ele>
        <time>2019-08-17T20:33:48Z</time>
      </trkpt>
      <trkpt lat="45.23545" lon="6.70478">
        <ele>2352</ele>
        <time>2019-08-17T20:34:18Z</time>
      </trkpt>
      <trkpt lat="45.23514" lon="6.70453">
        <ele>2349</ele>
        <time>2019-08-17T20:35:05Z</time>
      </trkpt>
      <trkpt lat="45.23482" lon="6.70427">
        <ele>2344</ele>
        <time>2019-08-17T20:35:55Z</time>
      </trkpt>
      <trkpt lat="45.23415" lon="6.70337">
        <ele>2335</ele>
        <time>2019-08-17T20:37:58Z</time>
      </trkpt>
      <trkpt lat="45.23392" lon="6.70285">
        <ele>2333</ele>
        <time>2019-08-17T20:38:55Z</time>
      </trkpt>
      <trkpt lat="45.23373" lon="6.70193">
        <ele>2333</ele>
        <time>2019-08-17T20:40:25Z</time>
      </trkpt>
      <trkpt lat="45.2337" lon="6.70139">
        <ele>2332</ele>
        <time>2019-08-17T20:41:16Z</time>
      </trkpt>
      <trkpt lat="45.23379" lon="6.70098">
        <ele>2333</ele>
        <time>2019-08-17T20:41:57Z</time>
      </trkpt>
      <trkpt lat="45.23389" lon="6.70057">
        <ele>2326</ele>
        <time>2019-08-17T20:42:38Z</time>
      </trkpt>
      <trkpt lat="45.23408" lon="6.70032">
        <ele>2327</ele>
        <time>2019-08-17T20:43:12Z</time>
      </trkpt>
      <trkpt lat="45.23443" lon="6.69965">
        <ele>2334</ele>
        <time>2019-08-17T20:44:30Z</time>
      </trkpt>
      <trkpt lat="45.23451" lon="6.69929">
        <ele>2335</ele>
        <time>2019-08-17T20:45:06Z</time>
      </trkpt>
      <trkpt lat="45.2344" lon="6.69876">
        <ele>2332</ele>
        <time>2019-08-17T20:45:58Z</time>
      </trkpt>
      <trkpt lat="45.23427" lon="6.69843">
        <ele>2327</ele>
        <time>2019-08-17T20:46:33Z</time>
      </trkpt>
      <trkpt lat="45.23401" lon="6.69802">
        <ele>2320</ele>
        <time>2019-08-17T20:47:25Z</time>
      </trkpt>
      <trkpt lat="45.23375" lon="6.69761">
        <ele>2316</ele>
        <time>2019-08-17T20:48:17Z</time>
      </trkpt>
      <trkpt lat="45.23356" lon="6.6974">
        <ele>2309</ele>
        <time>2019-08-17T20:48:49Z</time>
      </trkpt>
      <trkpt lat="45.2334" lon="6.6971">
        <ele>2304</ele>
        <time>2019-08-17T20:49:25Z</time>
      </trkpt>
      <trkpt lat="45.23338" lon="6.69648">
        <ele>2310</ele>
        <time>2019-08-17T20:50:23Z</time>
      </trkpt>
      <trkpt lat="45.23337" lon="6.69586">
        <ele>2317</ele>
        <time>2019-08-17T20:51:21Z</time>
      </trkpt>
      <trkpt lat="45.23323" lon="6.69557">
        <ele>2310</ele>
        <time>2019-08-17T20:51:54Z</time>
      </trkpt>
      <trkpt lat="45.23298" lon="6.69543">
        <ele>2297</ele>
        <time>2019-08-17T20:52:30Z</time>
      </trkpt>
      <trkpt lat="45.23281" lon="6.69484">
        <ele>2294</ele>
        <time>2019-08-17T20:53:30Z</time>
      </trkpt>
      <trkpt lat="45.23263" lon="6.69506">
        <ele>2284</ele>
        <time>2019-08-17T20:54:02Z</time>
      </trkpt>
      <trkpt lat="45.23233" lon="6.69469">
        <ele>2268</ele>
        <time>2019-08-17T20:54:55Z</time>
      </trkpt>
      <trkpt lat="45.23228" lon="6.69436">
        <ele>2263</ele>
        <time>2019-08-17T20:55:26Z</time>
      </trkpt>
      <trkpt lat="45.23223" lon="6.69403">
        <ele>2257</ele>
        <time>2019-08-17T20:55:58Z</time>
      </trkpt>
      <trkpt lat="45.23204" lon="6.69439">
        <ele>2247</ele>
        <time>2019-08-17T20:56:40Z</time>
      </trkpt>
      <trkpt lat="45.23184" lon="6.69474">
        <ele>2236</ele>
        <time>2019-08-17T20:57:23Z</time>
      </trkpt>
      <trkpt lat="45.23164" lon="6.69433">
        <ele>2220</ele>
        <time>2019-08-17T20:58:10Z</time>
      </trkpt>
      <trkpt lat="45.23149" lon="6.69482">
        <ele>2213</ele>
        <time>2019-08-17T20:59:00Z</time>
      </trkpt>
      <trkpt lat="45.23149" lon="6.69444">
        <ele>2210</ele>
        <time>2019-08-17T20:59:36Z</time>
      </trkpt>
      <trkpt lat="45.23149" lon="6.69406">
        <ele>2207</ele>
        <time>2019-08-17T21:00:11Z</time>
      </trkpt>
      <trkpt lat="45.23156" lon="6.69374">
        <ele>2206</ele>
        <time>2019-08-17T21:00:43Z</time>
      </trkpt>
      <trkpt lat="45.23155" lon="6.69352">
        <ele>2202</ele>
        <time>2019-08-17T21:01:04Z</time>
      </trkpt>
      <trkpt lat="45.23135" lon="6.69361">
        <ele>2190</ele>
        <time>2019-08-17T21:01:32Z</time>
      </trkpt>
      <trkpt lat="45.23121" lon="6.69386">
        <ele>2184</ele>
        <time>2019-08-17T21:02:02Z</time>
      </trkpt>
      <trkpt lat="45.23118" lon="6.69354">
        <ele>2177</ele>
        <time>2019-08-17T21:02:32Z</time>
      </trkpt>
      <trkpt lat="45.23115" lon="6.69322">
        <ele>2171</ele>
        <time>2019-08-17T21:03:02Z</time>
      </trkpt>
      <trkpt lat="45.23098" lon="6.69336">
        <ele>2162</ele>
        <time>2019-08-17T21:03:28Z</time>
      </trkpt>
      <trkpt lat="45.23078" lon="6.69329">
        <ele>2148</ele>
        <time>2019-08-17T21:03:56Z</time>
      </trkpt>
      <trkpt lat="45.23064" lon="6.69348">
        <ele>2142</ele>
        <time>2019-08-17T21:04:22Z</time>
      </trkpt>
      <trkpt lat="45.23053" lon="6.69396">
        <ele>2141</ele>
        <time>2019-08-17T21:05:09Z</time>
      </trkpt>
      <trkpt lat="45.23043" lon="6.69417">
        <ele>2137</ele>
        <time>2019-08-17T21:05:33Z</time>
      </trkpt>
      <trkpt lat="45.23016" lon="6.69435">
        <ele>2121</ele>
        <time>2019-08-17T21:06:13Z</time>
      </trkpt>
      <trkpt lat="45.22996" lon="6.6943">
        <ele>2109</ele>
        <time>2019-08-17T21:06:40Z</time>
      </trkpt>
      <trkpt lat="45.22984" lon="6.694">
        <ele>2100</ele>
        <time>2019-08-17T21:07:12Z</time>
      </trkpt>
      <trkpt lat="45.22981" lon="6.69366">
        <ele>2096</ele>
        <time>2019-08-17T21:07:45Z</time>
      </trkpt>
      <trkpt lat="45.2295" lon="6.69321">
        <ele>2078</ele>
        <time>2019-08-17T21:08:44Z</time>
      </trkpt>
      <trkpt lat="45.22925" lon="6.6927">
        <ele>2066</ele>
        <time>2019-08-17T21:09:42Z</time>
      </trkpt>
      <trkpt lat="45.22863" lon="6.69189">
        <ele>2047</ele>
        <time>2019-08-17T21:11:35Z</time>
      </trkpt>
      <trkpt lat="45.22832" lon="6.69148">
        <ele>2035</ele>
        <time>2019-08-17T21:12:31Z</time>
      </trkpt>
      <trkpt lat="45.22815" lon="6.6911">
        <ele>2027</ele>
        <time>2019-08-17T21:13:13Z</time>
      </trkpt>
      <trkpt lat="45.22799" lon="6.69073">
        <ele>2022</ele>
        <time>2019-08-17T21:13:54Z</time>
      </trkpt>
      <trkpt lat="45.22738" lon="6.69038">
        <ele>2001</ele>
        <time>2019-08-17T21:15:22Z</time>
      </trkpt>
      <trkpt lat="45.22718" lon="6.69019">
        <ele>1994</ele>
        <time>2019-08-17T21:15:54Z</time>
      </trkpt>
      <trkpt lat="45.22704" lon="6.68993">
        <ele>1990</ele>
        <time>2019-08-17T21:16:25Z</time>
      </trkpt>
      <trkpt lat="45.22691" lon="6.68959">
        <ele>1986</ele>
        <time>2019-08-17T21:17:01Z</time>
      </trkpt>
      <trkpt lat="45.22691" lon="6.68923">
        <ele>1988</ele>
        <time>2019-08-17T21:17:35Z</time>
      </trkpt>
      <trkpt lat="45.22681" lon="6.68898">
        <ele>1986</ele>
        <time>2019-08-17T21:18:02Z</time>
      </trkpt>
      <trkpt lat="45.22661" lon="6.68882">
        <ele>1978</ele>
        <time>2019-08-17T21:18:33Z</time>
      </trkpt>
      <trkpt lat="45.22644" lon="6.68855">
        <ele>1972</ele>
        <time>2019-08-17T21:19:07Z</time>
      </trkpt>
      <trkpt lat="45.22575" lon="6.68715">
        <ele>1959</ele>
        <time>2019-08-17T21:21:47Z</time>
      </trkpt>
      <trkpt lat="45.22551" lon="6.68669">
        <ele>1953</ele>
        <time>2019-08-17T21:22:41Z</time>
      </trkpt>
      <trkpt lat="45.22503" lon="6.68594">
        <ele>1930</ele>
        <time>2019-08-17T21:24:16Z</time>
      </trkpt>
      <trkpt lat="45.22479" lon="6.68556">
        <ele>1922</ele>
        <time>2019-08-17T21:25:04Z</time>
      </trkpt>
      <trkpt lat="45.22458" lon="6.68519">
        <ele>1916</ele>
        <time>2019-08-17T21:25:49Z</time>
      </trkpt>
      <trkpt lat="45.22438" lon="6.68483">
        <ele>1907</ele>
        <time>2019-08-17T21:26:32Z</time>
      </trkpt>
      <trkpt lat="45.22427" lon="6.68439">
        <ele>1904</ele>
        <time>2019-08-17T21:27:16Z</time>
      </trkpt>
      <trkpt lat="45.22415" lon="6.68395">
        <ele>1897</ele>
        <time>2019-08-17T21:28:00Z</time>
      </trkpt>
      <trkpt lat="45.22409" lon="6.68338">
        <ele>1897</ele>
        <time>2019-08-17T21:28:55Z</time>
      </trkpt>
      <trkpt lat="45.22391" lon="6.68279">
        <ele>1888</ele>
        <time>2019-08-17T21:29:55Z</time>
      </trkpt>
      <trkpt lat="45.22385" lon="6.68258">
        <ele>1886</ele>
        <time>2019-08-17T21:30:16Z</time>
      </trkpt>
      <trkpt lat="45.2238" lon="6.68219">
        <ele>1887</ele>
        <time>2019-08-17T21:30:54Z</time>
      </trkpt>
      <trkpt lat="45.22375" lon="6.68181">
        <ele>1888</ele>
        <time>2019-08-17T21:31:30Z</time>
      </trkpt>
      <trkpt lat="45.22367" lon="6.68151">
        <ele>1885</ele>
        <time>2019-08-17T21:32:00Z</time>
      </trkpt>
      <trkpt lat="45.22358" lon="6.68121">
        <ele>1880</ele>
        <time>2019-08-17T21:32:31Z</time>
      </trkpt>
      <trkpt lat="45.22338" lon="6.6801">
        <ele>1873</ele>
        <time>2019-08-17T21:34:18Z</time>
      </trkpt>
      <trkpt lat="45.22339" lon="6.67963">
        <ele>1876</ele>
        <time>2019-08-17T21:35:03Z</time>
      </trkpt>
      <trkpt lat="45.22347" lon="6.67937">
        <ele>1881</ele>
        <time>2019-08-17T21:35:29Z</time>
      </trkpt>
      <trkpt lat="45.22366" lon="6.67907">
        <ele>1893</ele>
        <time>2019-08-17T21:36:07Z</time>
      </trkpt>
      <trkpt lat="45.22385" lon="6.67876">
        <ele>1905</ele>
        <time>2019-08-17T21:36:46Z</time>
      </trkpt>
      <trkpt lat="45.224" lon="6.67877">
        <ele>1914</ele>
        <time>2019-08-17T21:37:06Z</time>
      </trkpt>
      <trkpt lat="45.22414" lon="6.67846">
        <ele>1922</ele>
        <time>2019-08-17T21:37:40Z</time>
      </trkpt>
      <trkpt lat="45.22415" lon="6.67802">
        <ele>1923</ele>
        <time>2019-08-17T21:38:22Z</time>
      </trkpt>
      <trkpt lat="45.22399" lon="6.67741">
        <ele>1915</ele>
        <time>2019-08-17T21:39:23Z</time>
      </trkpt>
      <trkpt lat="45.224" lon="6.67701">
        <ele>1909</ele>
        <time>2019-08-17T21:40:01Z</time>
      </trkpt>
      <trkpt lat="45.22409" lon="6.67673">
        <ele>1908</ele>
        <time>2019-08-17T21:40:30Z</time>
      </trkpt>
      <trkpt lat="45.2243" lon="6.67646">
        <ele>1911</ele>
        <time>2019-08-17T21:41:07Z</time>
      </trkpt>
      <trkpt lat="45.22436" lon="6.67617">
        <ele>1910</ele>
        <time>2019-08-17T21:41:36Z</time>
      </trkpt>
      <trkpt lat="45.22413" lon="6.67569">
        <ele>1896</ele>
        <time>2019-08-17T21:42:30Z</time>
      </trkpt>
      <trkpt lat="45.22415" lon="6.67534">
        <ele>1895</ele>
        <time>2019-08-17T21:43:03Z</time>
      </trkpt>
      <trkpt lat="45.22427" lon="6.67497">
        <ele>1897</ele>
        <time>2019-08-17T21:43:42Z</time>
      </trkpt>
      <trkpt lat="45.22438" lon="6.67459">
        <ele>1895</ele>
        <time>2019-08-17T21:44:20Z</time>
      </trkpt>
      <trkpt lat="45.22449" lon="6.6742">
        <ele>1891</ele>
        <time>2019-08-17T21:45:00Z</time>
      </trkpt>
      <trkpt lat="45.22475" lon="6.67413">
        <ele>1894</ele>
        <time>2019-08-17T21:45:35Z</time>
      </trkpt>
      <trkpt lat="45.225" lon="6.67402">
        <ele>1896</ele>
        <time>2019-08-17T21:46:10Z</time>
      </trkpt>
      <trkpt lat="45.22517" lon="6.674">
        <ele>1896</ele>
        <time>2019-08-17T21:46:33Z</time>
      </trkpt>
      <trkpt lat="45.22553" lon="6.67397">
        <ele>1896</ele>
        <time>2019-08-17T21:47:21Z</time>
      </trkpt>
      <trkpt lat="45.22576" lon="6.67391">
        <ele>1895</ele>
        <time>2019-08-17T21:47:52Z</time>
      </trkpt>
      <trkpt lat="45.226" lon="6.67384">
        <ele>1893</ele>
        <time>2019-08-17T21:48:25Z</time>
      </trkpt>
      <trkpt lat="45.22641" lon="6.67399">
        <ele>1893</ele>
        <time>2019-08-17T21:49:21Z</time>
      </trkpt>
      <trkpt lat="45.22682" lon="6.67413">
        <ele>1893</ele>
        <time>2019-08-17T21:50:18Z</time>
      </trkpt>
      <trkpt lat="45.22715" lon="6.67445">
        <ele>1896</ele>
        <time>2019-08-17T21:51:11Z</time>
      </trkpt>
      <trkpt lat="45.22748" lon="6.67477">
        <ele>1899</ele>
        <time>2019-08-17T21:52:04Z</time>
      </trkpt>
      <trkpt lat="45.22774" lon="6.67494">
        <ele>1901</ele>
        <time>2019-08-17T21:52:42Z</time>
      </trkpt>
      <trkpt lat="45.22798" lon="6.67512">
        <ele>1904</ele>
        <time>2019-08-17T21:53:19Z</time>
      </trkpt>
      <trkpt lat="45.22823" lon="6.67526">
        <ele>1906</ele>
        <time>2019-08-17T21:53:54Z</time>
      </trkpt>
      <trkpt lat="45.22823" lon="6.67521">
        <ele>1905</ele>
        <time>2019-08-17T21:53:59Z</time>
      </trkpt>
      <trkpt lat="45.22823" lon="6.67516">
        <ele>1903</ele>
        <time>2019-08-17T21:54:04Z</time>
      </trkpt>
      <trkpt lat="45.22821" lon="6.67505">
        <ele>1901</ele>
        <time>2019-08-17T21:54:15Z</time>
      </trkpt>
      <trkpt lat="45.22816" lon="6.67486">
        <ele>1899</ele>
        <time>2019-08-17T21:54:34Z</time>
      </trkpt>
      <trkpt lat="45.228" lon="6.67445">
        <ele>1896</ele>
        <time>2019-08-17T21:55:18Z</time>
      </trkpt>
      <trkpt lat="45.22785" lon="6.67403">
        <ele>1892</ele>
        <time>2019-08-17T21:56:02Z</time>
      </trkpt>
      <trkpt lat="45.22768" lon="6.67378">
        <ele>1889</ele>
        <time>2019-08-17T21:56:35Z</time>
      </trkpt>
      <trkpt lat="45.22752" lon="6.67346">
        <ele>1885</ele>
        <time>2019-08-17T21:57:11Z</time>
      </trkpt>
      <trkpt lat="45.22737" lon="6.67314">
        <ele>1887</ele>
        <time>2019-08-17T21:57:48Z</time>
      </trkpt>
      <trkpt lat="45.22734" lon="6.67264">
        <ele>1894</ele>
        <time>2019-08-17T21:58:35Z</time>
      </trkpt>
      <trkpt lat="45.22727" lon="6.67234">
        <ele>1899</ele>
        <time>2019-08-17T21:59:04Z</time>
      </trkpt>
      <trkpt lat="45.22711" lon="6.67213">
        <ele>1900</ele>
        <time>2019-08-17T21:59:34Z</time>
      </trkpt>
      <trkpt lat="45.22701" lon="6.67161">
        <ele>1911</ele>
        <time>2019-08-17T22:00:24Z</time>
      </trkpt>
      <trkpt lat="45.22673" lon="6.67162">
        <ele>1901</ele>
        <time>2019-08-17T22:01:02Z</time>
      </trkpt>
      <trkpt lat="45.2266" lon="6.67143">
        <ele>1902</ele>
        <time>2019-08-17T22:01:26Z</time>
      </trkpt>
      <trkpt lat="45.22626" lon="6.67118">
        <ele>1897</ele>
        <time>2019-08-17T22:02:18Z</time>
      </trkpt>
      <trkpt lat="45.22605" lon="6.67079">
        <ele>1900</ele>
        <time>2019-08-17T22:03:04Z</time>
      </trkpt>
      <trkpt lat="45.22585" lon="6.67039">
        <ele>1905</ele>
        <time>2019-08-17T22:03:50Z</time>
      </trkpt>
      <trkpt lat="45.22555" lon="6.67008">
        <ele>1900</ele>
        <time>2019-08-17T22:04:39Z</time>
      </trkpt>
      <trkpt lat="45.22524" lon="6.66977">
        <ele>1892</ele>
        <time>2019-08-17T22:05:30Z</time>
      </trkpt>
      <trkpt lat="45.22515" lon="6.66924">
        <ele>1896</ele>
        <time>2019-08-17T22:06:21Z</time>
      </trkpt>
      <trkpt lat="45.22504" lon="6.66906">
        <ele>1892</ele>
        <time>2019-08-17T22:06:44Z</time>
      </trkpt>
      <trkpt lat="45.22512" lon="6.66845">
        <ele>1899</ele>
        <time>2019-08-17T22:07:42Z</time>
      </trkpt>
      <trkpt lat="45.22498" lon="6.66832">
        <ele>1893</ele>
        <time>2019-08-17T22:08:04Z</time>
      </trkpt>
      <trkpt lat="45.22488" lon="6.66798">
        <ele>1899</ele>
        <time>2019-08-17T22:08:39Z</time>
      </trkpt>
      <trkpt lat="45.22463" lon="6.66778">
        <ele>1899</ele>
        <time>2019-08-17T22:09:17Z</time>
      </trkpt>
      <trkpt lat="45.22444" lon="6.66774">
        <ele>1896</ele>
        <time>2019-08-17T22:09:43Z</time>
      </trkpt>
      <trkpt lat="45.224" lon="6.66792">
        <ele>1881</ele>
        <time>2019-08-17T22:10:44Z</time>
      </trkpt>
      <trkpt lat="45.22393" lon="6.66799">
        <ele>1878</ele>
        <time>2019-08-17T22:10:55Z</time>
      </trkpt>
      <trkpt lat="45.2238" lon="6.668">
        <ele>1877</ele>
        <time>2019-08-17T22:11:13Z</time>
      </trkpt>
      <trkpt lat="45.22362" lon="6.66806">
        <ele>1873</ele>
        <time>2019-08-17T22:11:37Z</time>
      </trkpt>
      <trkpt lat="45.2234" lon="6.66781">
        <ele>1877</ele>
        <time>2019-08-17T22:12:15Z</time>
      </trkpt>
      <trkpt lat="45.22301" lon="6.66763">
        <ele>1871</ele>
        <time>2019-08-17T22:13:10Z</time>
      </trkpt>
      <trkpt lat="45.22286" lon="6.66736">
        <ele>1871</ele>
        <time>2019-08-17T22:13:42Z</time>
      </trkpt>
      <trkpt lat="45.22278" lon="6.66716">
        <ele>1871</ele>
        <time>2019-08-17T22:14:04Z</time>
      </trkpt>
      <trkpt lat="45.22266" lon="6.66697">
        <ele>1870</ele>
        <time>2019-08-17T22:14:28Z</time>
      </trkpt>
      <trkpt lat="45.22252" lon="6.667">
        <ele>1865</ele>
        <time>2019-08-17T22:14:47Z</time>
      </trkpt>
      <trkpt lat="45.22223" lon="6.66657">
        <ele>1855</ele>
        <time>2019-08-17T22:15:42Z</time>
      </trkpt>
      <trkpt lat="45.22193" lon="6.66615">
        <ele>1844</ele>
        <time>2019-08-17T22:16:39Z</time>
      </trkpt>
      <trkpt lat="45.22173" lon="6.66614">
        <ele>1833</ele>
        <time>2019-08-17T22:17:05Z</time>
      </trkpt>
      <trkpt lat="45.22147" lon="6.66679">
        <ele>1808</ele>
        <time>2019-08-17T22:18:16Z</time>
      </trkpt>
      <trkpt lat="45.22143" lon="6.66644">
        <ele>1809</ele>
        <time>2019-08-17T22:18:49Z</time>
      </trkpt>
      <trkpt lat="45.22095" lon="6.66741">
        <ele>1771</ele>
        <time>2019-08-17T22:20:40Z</time>
      </trkpt>
      <trkpt lat="45.2207" lon="6.6679">
        <ele>1759</ele>
        <time>2019-08-17T22:21:37Z</time>
      </trkpt>
      <trkpt lat="45.22036" lon="6.66693">
        <ele>1731</ele>
        <time>2019-08-17T22:23:19Z</time>
      </trkpt>
      <trkpt lat="45.22019" lon="6.66644">
        <ele>1723</ele>
        <time>2019-08-17T22:24:10Z</time>
      </trkpt>
      <trkpt lat="45.21986" lon="6.66645">
        <ele>1701</ele>
        <time>2019-08-17T22:24:55Z</time>
      </trkpt>
      <trkpt lat="45.2196" lon="6.66682">
        <ele>1681</ele>
        <time>2019-08-17T22:25:44Z</time>
      </trkpt>
      <trkpt lat="45.21933" lon="6.66638">
        <ele>1670</ele>
        <time>2019-08-17T22:26:38Z</time>
      </trkpt>
      <trkpt lat="45.21903" lon="6.66626">
        <ele>1654</ele>
        <time>2019-08-17T22:27:20Z</time>
      </trkpt>
      <trkpt lat="45.21881" lon="6.66608">
        <ele>1645</ele>
        <time>2019-08-17T22:27:54Z</time>
      </trkpt>
      <trkpt lat="45.21859" lon="6.6659">
        <ele>1635</ele>
        <time>2019-08-17T22:28:28Z</time>
      </trkpt>
      <trkpt lat="45.21828" lon="6.66556">
        <ele>1624</ele>
        <time>2019-08-17T22:29:20Z</time>
      </trkpt>
      <trkpt lat="45.21798" lon="6.66522">
        <ele>1616</ele>
        <time>2019-08-17T22:30:11Z</time>
      </trkpt>
      <trkpt lat="45.21706" lon="6.6652">
        <ele>1570</ele>
        <time>2019-08-17T22:32:14Z</time>
      </trkpt>
      <trkpt lat="45.21671" lon="6.66519">
        <ele>1554</ele>
        <time>2019-08-17T22:33:01Z</time>
      </trkpt>
      <trkpt lat="45.21647" lon="6.66509">
        <ele>1545</ele>
        <time>2019-08-17T22:33:34Z</time>
      </trkpt>
      <trkpt lat="45.21623" lon="6.66499">
        <ele>1534</ele>
        <time>2019-08-17T22:34:08Z</time>
      </trkpt>
      <trkpt lat="45.21601" lon="6.66465">
        <ele>1522</ele>
        <time>2019-08-17T22:34:51Z</time>
      </trkpt>
      <trkpt lat="45.2158" lon="6.6643">
        <ele>1509</ele>
        <time>2019-08-17T22:35:34Z</time>
      </trkpt>
      <trkpt lat="45.21559" lon="6.66448">
        <ele>1497</ele>
        <time>2019-08-17T22:36:07Z</time>
      </trkpt>
      <trkpt lat="45.21538" lon="6.66467">
        <ele>1486</ele>
        <time>2019-08-17T22:36:40Z</time>
      </trkpt>
      <trkpt lat="45.21515" lon="6.66464">
        <ele>1472</ele>
        <time>2019-08-17T22:37:11Z</time>
      </trkpt>
      <trkpt lat="45.21492" lon="6.66462">
        <ele>1459</ele>
        <time>2019-08-17T22:37:42Z</time>
      </trkpt>
      <trkpt lat="45.21425" lon="6.66492">
        <ele>1431</ele>
        <time>2019-08-17T22:39:16Z</time>
      </trkpt>
      <trkpt lat="45.21391" lon="6.66507">
        <ele>1419</ele>
        <time>2019-08-17T22:40:03Z</time>
      </trkpt>
      <trkpt lat="45.21424" lon="6.66362">
        <ele>1396</ele>
        <time>2019-08-17T22:42:26Z</time>
      </trkpt>
      <trkpt lat="45.21434" lon="6.66314">
        <ele>1394</ele>
        <time>2019-08-17T22:43:13Z</time>
      </trkpt>
      <trkpt lat="45.21379" lon="6.66262">
        <ele>1370</ele>
        <time>2019-08-17T22:44:42Z</time>
      </trkpt>
      <trkpt lat="45.21351" lon="6.66236">
        <ele>1366</ele>
        <time>2019-08-17T22:45:26Z</time>
      </trkpt>
      <trkpt lat="45.21332" lon="6.66258">
        <ele>1352</ele>
        <time>2019-08-17T22:45:59Z</time>
      </trkpt>
      <trkpt lat="45.21312" lon="6.6628">
        <ele>1343</ele>
        <time>2019-08-17T22:46:33Z</time>
      </trkpt>
      <trkpt lat="45.21289" lon="6.66283">
        <ele>1335</ele>
        <time>2019-08-17T22:47:03Z</time>
      </trkpt>
      <trkpt lat="45.21266" lon="6.66286">
        <ele>1328</ele>
        <time>2019-08-17T22:47:34Z</time>
      </trkpt>
      <trkpt lat="45.2124" lon="6.66281">
        <ele>1319</ele>
        <time>2019-08-17T22:48:09Z</time>
      </trkpt>
      <trkpt lat="45.21213" lon="6.66277">
        <ele>1309</ele>
        <time>2019-08-17T22:48:46Z</time>
      </trkpt>
      <trkpt lat="45.21175" lon="6.66274">
        <ele>1295</ele>
        <time>2019-08-17T22:49:36Z</time>
      </trkpt>
      <trkpt lat="45.21137" lon="6.66271">
        <ele>1280</ele>
        <time>2019-08-17T22:50:27Z</time>
      </trkpt>
      <trkpt lat="45.21118" lon="6.66272">
        <ele>1273</ele>
        <time>2019-08-17T22:50:52Z</time>
      </trkpt>
      <trkpt lat="45.21086" lon="6.66279">
        <ele>1261</ele>
        <time>2019-08-17T22:51:36Z</time>
      </trkpt>
      <trkpt lat="45.21075" lon="6.6629">
        <ele>1257</ele>
        <time>2019-08-17T22:51:54Z</time>
      </trkpt>
      <trkpt lat="45.21039" lon="6.66282">
        <ele>1246</ele>
        <time>2019-08-17T22:52:42Z</time>
      </trkpt>
      <trkpt lat="45.2102" lon="6.66286">
        <ele>1240</ele>
        <time>2019-08-17T22:53:08Z</time>
      </trkpt>
      <trkpt lat="45.20998" lon="6.6631">
        <ele>1232</ele>
        <time>2019-08-17T22:53:45Z</time>
      </trkpt>
      <trkpt lat="45.20967" lon="6.66309">
        <ele>1222</ele>
        <time>2019-08-17T22:54:26Z</time>
      </trkpt>
      <trkpt lat="45.20945" lon="6.6632">
        <ele>1215</ele>
        <time>2019-08-17T22:54:57Z</time>
      </trkpt>
      <trkpt lat="45.20923" lon="6.66331">
        <ele>1208</ele>
        <time>2019-08-17T22:55:29Z</time>
      </trkpt>
      <trkpt lat="45.20895" lon="6.6633">
        <ele>1199</ele>
        <time>2019-08-17T22:56:06Z</time>
      </trkpt>
      <trkpt lat="45.20877" lon="6.6634">
        <ele>1194</ele>
        <time>2019-08-17T22:56:32Z</time>
      </trkpt>
      <trkpt lat="45.20852" lon="6.66342">
        <ele>1185</ele>
        <time>2019-08-17T22:57:05Z</time>
      </trkpt>
      <trkpt lat="45.20821" lon="6.66352">
        <ele>1176</ele>
        <time>2019-08-17T22:57:48Z</time>
      </trkpt>
      <trkpt lat="45.20798" lon="6.66365">
        <ele>1171</ele>
        <time>2019-08-17T22:58:21Z</time>
      </trkpt>
      <trkpt lat="45.20786" lon="6.66385">
        <ele>1170</ele>
        <time>2019-08-17T22:58:45Z</time>
      </trkpt>
      <trkpt lat="45.20771" lon="6.66399">
        <ele>1167</ele>
        <time>2019-08-17T22:59:09Z</time>
      </trkpt>
      <trkpt lat="45.20742" lon="6.66408">
        <ele>1160</ele>
        <time>2019-08-17T22:59:49Z</time>
      </trkpt>
      <trkpt lat="45.20726" lon="6.66416">
        <ele>1156</ele>
        <time>2019-08-17T23:00:12Z</time>
      </trkpt>
      <trkpt lat="45.20709" lon="6.66433">
        <ele>1153</ele>
        <time>2019-08-17T23:00:39Z</time>
      </trkpt>
      <trkpt lat="45.20699" lon="6.66429">
        <ele>1149</ele>
        <time>2019-08-17T23:00:53Z</time>
      </trkpt>
      <trkpt lat="45.20693" lon="6.6642">
        <ele>1147</ele>
        <time>2019-08-17T23:01:05Z</time>
      </trkpt>
      <trkpt lat="45.20694" lon="6.66406">
        <ele>1148</ele>
        <time>2019-08-17T23:01:18Z</time>
      </trkpt>
      <trkpt lat="45.20701" lon="6.66396">
        <ele>1150</ele>
        <time>2019-08-17T23:01:31Z</time>
      </trkpt>
      <trkpt lat="45.20709" lon="6.6638">
        <ele>1151</ele>
        <time>2019-08-17T23:01:50Z</time>
      </trkpt>
      <trkpt lat="45.20708" lon="6.66367">
        <ele>1151</ele>
        <time>2019-08-17T23:02:02Z</time>
      </trkpt>
      <trkpt lat="45.20699" lon="6.66354">
        <ele>1149</ele>
        <time>2019-08-17T23:02:19Z</time>
      </trkpt>
      <trkpt lat="45.20679" lon="6.6635">
        <ele>1147</ele>
        <time>2019-08-17T23:02:46Z</time>
      </trkpt>
      <trkpt lat="45.20664" lon="6.6636">
        <ele>1144</ele>
        <time>2019-08-17T23:03:08Z</time>
      </trkpt>
      <trkpt lat="45.20639" lon="6.66384">
        <ele>1138</ele>
        <time>2019-08-17T23:03:48Z</time>
      </trkpt>
      <trkpt lat="45.20627" lon="6.66413">
        <ele>1134</ele>
        <time>2019-08-17T23:04:20Z</time>
      </trkpt>
      <trkpt lat="45.20607" lon="6.66433">
        <ele>1129</ele>
        <time>2019-08-17T23:04:53Z</time>
      </trkpt>
      <trkpt lat="45.20591" lon="6.66443">
        <ele>1125</ele>
        <time>2019-08-17T23:05:16Z</time>
      </trkpt>
      <trkpt lat="45.20581" lon="6.6645">
        <ele>1123</ele>
        <time>2019-08-17T23:05:31Z</time>
      </trkpt>
      <trkpt lat="45.20568" lon="6.66457">
        <ele>1121</ele>
        <time>2019-08-17T23:05:50Z</time>
      </trkpt>
      <trkpt lat="45.20548" lon="6.66471">
        <ele>1117</ele>
        <time>2019-08-17T23:06:19Z</time>
      </trkpt>
      <trkpt lat="45.20533" lon="6.66489">
        <ele>1114</ele>
        <time>2019-08-17T23:06:46Z</time>
      </trkpt>
      <trkpt lat="45.20506" lon="6.66527">
        <ele>1109</ele>
        <time>2019-08-17T23:07:36Z</time>
      </trkpt>
      <trkpt lat="45.2049" lon="6.66549">
        <ele>1106</ele>
        <time>2019-08-17T23:08:06Z</time>
      </trkpt>
      <trkpt lat="45.20494" lon="6.66567">
        <ele>1105</ele>
        <time>2019-08-17T23:08:24Z</time>
      </trkpt>
      <trkpt lat="45.20497" lon="6.66603">
        <ele>1103</ele>
        <time>2019-08-17T23:08:58Z</time>
      </trkpt>
      <trkpt lat="45.20497" lon="6.66613">
        <ele>1102</ele>
        <time>2019-08-17T23:09:07Z</time>
      </trkpt>
      <trkpt lat="45.20494" lon="6.66622">
        <ele>1101</ele>
        <time>2019-08-17T23:09:17Z</time>
      </trkpt>
      <trkpt lat="45.20487" lon="6.66636">
        <ele>1100</ele>
        <time>2019-08-17T23:09:33Z</time>
      </trkpt>
      <trkpt lat="45.20459" lon="6.66657">
        <ele>1097</ele>
        <time>2019-08-17T23:10:15Z</time>
      </trkpt>
      <trkpt lat="45.20418" lon="6.66683">
        <ele>1092</ele>
        <time>2019-08-17T23:11:15Z</time>
      </trkpt>
      <trkpt lat="45.20414" lon="6.66688">
        <ele>1091</ele>
        <time>2019-08-17T23:11:22Z</time>
      </trkpt>
      <trkpt lat="45.20392" lon="6.66711">
        <ele>1087</ele>
        <time>2019-08-17T23:11:58Z</time>
      </trkpt>
      <trkpt lat="45.20402" lon="6.66753">
        <ele>1085</ele>
        <time>2019-08-17T23:12:40Z</time>
      </trkpt>
      <trkpt lat="45.20402" lon="6.66762">
        <ele>1084</ele>
        <time>2019-08-17T23:12:49Z</time>
      </trkpt>
      <trkpt lat="45.20398" lon="6.66776">
        <ele>1083</ele>
        <time>2019-08-17T23:13:03Z</time>
      </trkpt>
      <trkpt lat="45.20392" lon="6.66794">
        <ele>1082</ele>
        <time>2019-08-17T23:13:22Z</time>
      </trkpt>
      <trkpt lat="45.20373" lon="6.6681">
        <ele>1080</ele>
        <time>2019-08-17T23:13:51Z</time>
      </trkpt>
      <trkpt lat="45.2036" lon="6.6683">
        <ele>1078</ele>
        <time>2019-08-17T23:14:17Z</time>
      </trkpt>
      <trkpt lat="45.20356" lon="6.66843">
        <ele>1077</ele>
        <time>2019-08-17T23:14:30Z</time>
      </trkpt>
      <trkpt lat="45.20356" lon="6.66853">
        <ele>1077</ele>
        <time>2019-08-17T23:14:39Z</time>
      </trkpt>
      <trkpt lat="45.20358" lon="6.66863">
        <ele>1076</ele>
        <time>2019-08-17T23:14:49Z</time>
      </trkpt>
      <trkpt lat="45.20356" lon="6.66894">
        <ele>1074</ele>
        <time>2019-08-17T23:15:18Z</time>
      </trkpt>
      <trkpt lat="45.20342" lon="6.66931">
        <ele>1071</ele>
        <time>2019-08-17T23:15:58Z</time>
      </trkpt>
      <trkpt lat="45.20325" lon="6.6696">
        <ele>1069</ele>
        <time>2019-08-17T23:16:33Z</time>
      </trkpt>
      <trkpt lat="45.20307" lon="6.66988">
        <ele>1067</ele>
        <time>2019-08-17T23:17:09Z</time>
      </trkpt>
      <trkpt lat="45.2032" lon="6.67001">
        <ele>1067</ele>
        <time>2019-08-17T23:17:30Z</time>
      </trkpt>
      <trkpt lat="45.20298" lon="6.67027">
        <ele>1066</ele>
        <time>2019-08-17T23:18:08Z</time>
      </trkpt>
      <trkpt lat="45.20266" lon="6.67062">
        <ele>1064</ele>
        <time>2019-08-17T23:19:02Z</time>
      </trkpt>
      <trkpt lat="45.20262" lon="6.67068">
        <ele>1064</ele>
        <time>2019-08-17T23:19:10Z</time>
      </trkpt>
      <trkpt lat="45.20235" lon="6.67104">
        <ele>1065</ele>
        <time>2019-08-17T23:20:00Z</time>
      </trkpt>
      <trkpt lat="45.20232" lon="6.671">
        <ele>1065</ele>
        <time>2019-08-17T23:20:05Z</time>
      </trkpt>
      <trkpt lat="45.20228" lon="6.67099">
        <ele>1065</ele>
        <time>2019-08-17T23:20:10Z</time>
      </trkpt>
      <trkpt lat="45.20223" lon="6.671">
        <ele>1065</ele>
        <time>2019-08-17T23:20:17Z</time>
      </trkpt>
      <trkpt lat="45.20219" lon="6.67103">
        <ele>1065</ele>
        <time>2019-08-17T23:20:23Z</time>
      </trkpt>
      <trkpt lat="45.20216" lon="6.67115">
        <ele>1066</ele>
        <time>2019-08-17T23:20:35Z</time>
      </trkpt>
      <trkpt lat="45.20217" lon="6.6712">
        <ele>1066</ele>
        <time>2019-08-17T23:20:40Z</time>
      </trkpt>
      <trkpt lat="45.20206" lon="6.67126">
        <ele>1066</ele>
        <time>2019-08-17T23:20:56Z</time>
      </trkpt>
      <trkpt lat="45.20199" lon="6.67135">
        <ele>1067</ele>
        <time>2019-08-17T23:21:08Z</time>
      </trkpt>
      <trkpt lat="45.20189" lon="6.67158">
        <ele>1067</ele>
        <time>2019-08-17T23:21:34Z</time>
      </trkpt>
      <trkpt lat="45.2018" lon="6.67194">
        <ele>1069</ele>
        <time>2019-08-17T23:22:10Z</time>
      </trkpt>
      <trkpt lat="45.20171" lon="6.67219">
        <ele>1070</ele>
        <time>2019-08-17T23:22:36Z</time>
      </trkpt>
      <trkpt lat="45.20165" lon="6.67243">
        <ele>1071</ele>
        <time>2019-08-17T23:23:00Z</time>
      </trkpt>
      <trkpt lat="45.20154" lon="6.67267">
        <ele>1072</ele>
        <time>2019-08-17T23:23:27Z</time>
      </trkpt>
      <trkpt lat="45.20168" lon="6.6729">
        <ele>1072</ele>
        <time>2019-08-17T23:23:56Z</time>
      </trkpt>
      <trkpt lat="45.20144" lon="6.67315">
        <ele>1074</ele>
        <time>2019-08-17T23:24:35Z</time>
      </trkpt>
      <trkpt lat="45.20154" lon="6.67332">
        <ele>1074</ele>
        <time>2019-08-17T23:24:56Z</time>
      </trkpt>
      <trkpt lat="45.20163" lon="6.67356">
        <ele>1074</ele>
        <time>2019-08-17T23:25:22Z</time>
      </trkpt>
      <trkpt lat="45.20174" lon="6.67422">
        <ele>1078</ele>
        <time>2019-08-17T23:26:25Z</time>
      </trkpt>
      <trkpt lat="45.20179" lon="6.67439">
        <ele>1078</ele>
        <time>2019-08-17T23:26:43Z</time>
      </trkpt>
      <trkpt lat="45.20175" lon="6.67453">
        <ele>1079</ele>
        <time>2019-08-17T23:26:57Z</time>
      </trkpt>
      <trkpt lat="45.20162" lon="6.67485">
        <ele>1081</ele>
        <time>2019-08-17T23:27:32Z</time>
      </trkpt>
      <trkpt lat="45.20154" lon="6.67501">
        <ele>1081</ele>
        <time>2019-08-17T23:27:50Z</time>
      </trkpt>
      <trkpt lat="45.20134" lon="6.67533">
        <ele>1083</ele>
        <time>2019-08-17T23:28:30Z</time>
      </trkpt>
      <trkpt lat="45.20119" lon="6.67565">
        <ele>1085</ele>
        <time>2019-08-17T23:29:07Z</time>
      </trkpt>
      <trkpt lat="45.2011" lon="6.67591">
        <ele>1087</ele>
        <time>2019-08-17T23:29:34Z</time>
      </trkpt>
      <trkpt lat="45.20095" lon="6.67623">
        <ele>1090</ele>
        <time>2019-08-17T23:30:10Z</time>
      </trkpt>
      <trkpt lat="45.20081" lon="6.67655">
        <ele>1093</ele>
        <time>2019-08-17T23:30:45Z</time>
      </trkpt>
      <trkpt lat="45.20083" lon="6.6768">
        <ele>1094</ele>
        <time>2019-08-17T23:31:09Z</time>
      </trkpt>
      <trkpt lat="45.20083" lon="6.67696">
        <ele>1095</ele>
        <time>2019-08-17T23:31:24Z</time>
      </trkpt>
      <trkpt lat="45.20079" lon="6.67719">
        <ele>1097</ele>
        <time>2019-08-17T23:31:46Z</time>
      </trkpt>
      <trkpt lat="45.20077" lon="6.67739">
        <ele>1099</ele>
        <time>2019-08-17T23:32:05Z</time>
      </trkpt>
      <trkpt lat="45.20082" lon="6.67747">
        <ele>1098</ele>
        <time>2019-08-17T23:32:15Z</time>
      </trkpt>
      <trkpt lat="45.20091" lon="6.67758">
        <ele>1098</ele>
        <time>2019-08-17T23:32:31Z</time>
      </trkpt>
      <trkpt lat="45.20091" lon="6.67823">
        <ele>1102</ele>
        <time>2019-08-17T23:33:32Z</time>
      </trkpt>
      <trkpt lat="45.20092" lon="6.67852">
        <ele>1104</ele>
        <time>2019-08-17T23:34:00Z</time>
      </trkpt>
      <trkpt lat="45.20096" lon="6.67894">
        <ele>1106</ele>
        <time>2019-08-17T23:34:39Z</time>
      </trkpt>
      <trkpt lat="45.20101" lon="6.67921">
        <ele>1108</ele>
        <time>2019-08-17T23:35:06Z</time>
      </trkpt>
      <trkpt lat="45.20103" lon="6.67949">
        <ele>1111</ele>
        <time>2019-08-17T23:35:32Z</time>
      </trkpt>
      <trkpt lat="45.20096" lon="6.67992">
        <ele>1117</ele>
        <time>2019-08-17T23:36:14Z</time>
      </trkpt>
      <trkpt lat="45.2009" lon="6.68022">
        <ele>1121</ele>
        <time>2019-08-17T23:36:43Z</time>
      </trkpt>
      <trkpt lat="45.20085" lon="6.68033">
        <ele>1123</ele>
        <time>2019-08-17T23:36:55Z</time>
      </trkpt>
      <trkpt lat="45.20075" lon="6.68039">
        <ele>1128</ele>
        <time>2019-08-17T23:37:10Z</time>
      </trkpt>
      <trkpt lat="45.20063" lon="6.6804">
        <ele>1133</ele>
        <time>2019-08-17T23:37:26Z</time>
      </trkpt>
      <trkpt lat="45.20055" lon="6.68036">
        <ele>1135</ele>
        <time>2019-08-17T23:37:37Z</time>
      </trkpt>
      <trkpt lat="45.2005" lon="6.68025">
        <ele>1135</ele>
        <time>2019-08-17T23:37:49Z</time>
      </trkpt>
      <trkpt lat="45.20043" lon="6.67999">
        <ele>1133</ele>
        <time>2019-08-17T23:38:16Z</time>
      </trkpt>
      <trkpt lat="45.20038" lon="6.67961">
        <ele>1129</ele>
        <time>2019-08-17T23:38:52Z</time>
      </trkpt>
      <trkpt lat="45.20034" lon="6.67924">
        <ele>1124</ele>
        <time>2019-08-17T23:39:27Z</time>
      </trkpt>
      <trkpt lat="45.20023" lon="6.67877">
        <ele>1121</ele>
        <time>2019-08-17T23:40:14Z</time>
      </trkpt>
      <trkpt lat="45.20018" lon="6.67826">
        <ele>1116</ele>
        <time>2019-08-17T23:41:02Z</time>
      </trkpt>
      <trkpt lat="45.20005" lon="6.67776">
        <ele>1115</ele>
        <time>2019-08-17T23:41:52Z</time>
      </trkpt>
      <trkpt lat="45.19992" lon="6.67737">
        <ele>1118</ele>
        <time>2019-08-17T23:42:33Z</time>
      </trkpt>
      <trkpt lat="45.19946" lon="6.67609">
        <ele>1122</ele>
        <time>2019-08-17T23:44:48Z</time>
      </trkpt>
      <trkpt lat="45.1993" lon="6.67582">
        <ele>1120</ele>
        <time>2019-08-17T23:45:21Z</time>
      </trkpt>
      <trkpt lat="45.19916" lon="6.6757">
        <ele>1122</ele>
        <time>2019-08-17T23:45:43Z</time>
      </trkpt>
      <trkpt lat="45.19899" lon="6.67564">
        <ele>1127</ele>
        <time>2019-08-17T23:46:06Z</time>
      </trkpt>
      <trkpt lat="45.19879" lon="6.67564">
        <ele>1133</ele>
        <time>2019-08-17T23:46:33Z</time>
      </trkpt>
      <trkpt lat="45.19864" lon="6.67553">
        <ele>1135</ele>
        <time>2019-08-17T23:46:56Z</time>
      </trkpt>
      <trkpt lat="45.19845" lon="6.67544">
        <ele>1137</ele>
        <time>2019-08-17T23:47:22Z</time>
      </trkpt>
      <trkpt lat="45.19811" lon="6.6754">
        <ele>1142</ele>
        <time>2019-08-17T23:48:08Z</time>
      </trkpt>
      <trkpt lat="45.19783" lon="6.67551">
        <ele>1148</ele>
        <time>2019-08-17T23:48:47Z</time>
      </trkpt>
      <trkpt lat="45.19762" lon="6.67551">
        <ele>1150</ele>
        <time>2019-08-17T23:49:15Z</time>
      </trkpt>
      <trkpt lat="45.19752" lon="6.67547">
        <ele>1150</ele>
        <time>2019-08-17T23:49:28Z</time>
      </trkpt>
      <trkpt lat="45.19739" lon="6.67543">
        <ele>1155</ele>
        <time>2019-08-17T23:49:46Z</time>
      </trkpt>
      <trkpt lat="45.19722" lon="6.67521">
        <ele>1159</ele>
        <time>2019-08-17T23:50:17Z</time>
      </trkpt>
      <trkpt lat="45.19711" lon="6.67495">
        <ele>1162</ele>
        <time>2019-08-17T23:50:45Z</time>
      </trkpt>
      <trkpt lat="45.19707" lon="6.67461">
        <ele>1161</ele>
        <time>2019-08-17T23:51:18Z</time>
      </trkpt>
      <trkpt lat="45.19703" lon="6.67428">
        <ele>1161</ele>
        <time>2019-08-17T23:51:49Z</time>
      </trkpt>
      <trkpt lat="45.19682" lon="6.67359">
        <ele>1160</ele>
        <time>2019-08-17T23:53:00Z</time>
      </trkpt>
      <trkpt lat="45.19662" lon="6.67329">
        <ele>1162</ele>
        <time>2019-08-17T23:53:39Z</time>
      </trkpt>
      <trkpt lat="45.19643" lon="6.67311">
        <ele>1163</ele>
        <time>2019-08-17T23:54:09Z</time>
      </trkpt>
      <trkpt lat="45.19615" lon="6.6729">
        <ele>1166</ele>
        <time>2019-08-17T23:54:52Z</time>
      </trkpt>
      <trkpt lat="45.19588" lon="6.6727">
        <ele>1170</ele>
        <time>2019-08-17T23:55:32Z</time>
      </trkpt>
      <trkpt lat="45.19584" lon="6.67274">
        <ele>1173</ele>
        <time>2019-08-17T23:55:39Z</time>
      </trkpt>
      <trkpt lat="45.19577" lon="6.67274">
        <ele>1174</ele>
        <time>2019-08-17T23:55:48Z</time>
      </trkpt>
      <trkpt lat="45.19542" lon="6.67268">
        <ele>1177</ele>
        <time>2019-08-17T23:56:35Z</time>
      </trkpt>
      <trkpt lat="45.19525" lon="6.67259">
        <ele>1176</ele>
        <time>2019-08-17T23:56:59Z</time>
      </trkpt>
      <trkpt lat="45.19511" lon="6.67248">
        <ele>1174</ele>
        <time>2019-08-17T23:57:21Z</time>
      </trkpt>
      <trkpt lat="45.195" lon="6.67228">
        <ele>1173</ele>
        <time>2019-08-17T23:57:45Z</time>
      </trkpt>
      <trkpt lat="45.1949" lon="6.67208">
        <ele>1173</ele>
        <time>2019-08-17T23:58:08Z</time>
      </trkpt>
      <trkpt lat="45.19486" lon="6.67203">
        <ele>1174</ele>
        <time>2019-08-17T23:58:15Z</time>
      </trkpt>
      <trkpt lat="45.1948" lon="6.67199">
        <ele>1176</ele>
        <time>2019-08-17T23:58:24Z</time>
      </trkpt>
      <trkpt lat="45.19475" lon="6.672">
        <ele>1178</ele>
        <time>2019-08-17T23:58:30Z</time>
      </trkpt>
      <trkpt lat="45.19469" lon="6.67206">
        <ele>1181</ele>
        <time>2019-08-17T23:58:40Z</time>
      </trkpt>
      <trkpt lat="45.19467" lon="6.67215">
        <ele>1183</ele>
        <time>2019-08-17T23:58:49Z</time>
      </trkpt>
      <trkpt lat="45.1947" lon="6.6723">
        <ele>1184</ele>
        <time>2019-08-17T23:59:04Z</time>
      </trkpt>
      <trkpt lat="45.19478" lon="6.67247">
        <ele>1183</ele>
        <time>2019-08-17T23:59:23Z</time>
      </trkpt>
      <trkpt lat="45.19455" lon="6.6724">
        <ele>1190</ele>
        <time>2019-08-17T23:59:54Z</time>
      </trkpt>
      <trkpt lat="45.19433" lon="6.67199">
        <ele>1194</ele>
        <time>2019-08-18T00:00:43Z</time>
      </trkpt>
      <trkpt lat="45.19417" lon="6.67181">
        <ele>1199</ele>
        <time>2019-08-18T00:01:10Z</time>
      </trkpt>
      <trkpt lat="45.19405" lon="6.67129">
        <ele>1203</ele>
        <time>2019-08-18T00:02:01Z</time>
      </trkpt>
      <trkpt lat="45.19393" lon="6.67078">
        <ele>1208</ele>
        <time>2019-08-18T00:02:52Z</time>
      </trkpt>
      <trkpt lat="45.19377" lon="6.6705">
        <ele>1215</ele>
        <time>2019-08-18T00:03:26Z</time>
      </trkpt>
      <trkpt lat="45.19362" lon="6.67022">
        <ele>1222</ele>
        <time>2019-08-18T00:03:59Z</time>
      </trkpt>
      <trkpt lat="45.19357" lon="6.6697">
        <ele>1219</ele>
        <time>2019-08-18T00:04:48Z</time>
      </trkpt>
      <trkpt lat="45.19353" lon="6.66918">
        <ele>1214</ele>
        <time>2019-08-18T00:05:38Z</time>
      </trkpt>
      <trkpt lat="45.19348" lon="6.66885">
        <ele>1213</ele>
        <time>2019-08-18T00:06:09Z</time>
      </trkpt>
      <trkpt lat="45.19342" lon="6.66851">
        <ele>1212</ele>
        <time>2019-08-18T00:06:42Z</time>
      </trkpt>
      <trkpt lat="45.19329" lon="6.6679">
        <ele>1206</ele>
        <time>2019-08-18T00:07:42Z</time>
      </trkpt>
      <trkpt lat="45.1932" lon="6.66762">
        <ele>1204</ele>
        <time>2019-08-18T00:08:11Z</time>
      </trkpt>
      <trkpt lat="45.19286" lon="6.66744">
        <ele>1221</ele>
        <time>2019-08-18T00:09:00Z</time>
      </trkpt>
      <trkpt lat="45.19283" lon="6.66736">
        <ele>1220</ele>
        <time>2019-08-18T00:09:08Z</time>
      </trkpt>
      <trkpt lat="45.19274" lon="6.66709">
        <ele>1220</ele>
        <time>2019-08-18T00:09:36Z</time>
      </trkpt>
      <trkpt lat="45.19267" lon="6.66697">
        <ele>1221</ele>
        <time>2019-08-18T00:09:51Z</time>
      </trkpt>
      <trkpt lat="45.19264" lon="6.66699">
        <ele>1223</ele>
        <time>2019-08-18T00:09:55Z</time>
      </trkpt>
      <trkpt lat="45.19267" lon="6.66717">
        <ele>1226</ele>
        <time>2019-08-18T00:10:13Z</time>
      </trkpt>
      <trkpt lat="45.19273" lon="6.66737">
        <ele>1227</ele>
        <time>2019-08-18T00:10:33Z</time>
      </trkpt>
      <trkpt lat="45.19282" lon="6.66761">
        <ele>1227</ele>
        <time>2019-08-18T00:10:59Z</time>
      </trkpt>
      <trkpt lat="45.1929" lon="6.66801">
        <ele>1232</ele>
        <time>2019-08-18T00:11:38Z</time>
      </trkpt>
      <trkpt lat="45.19289" lon="6.66809">
        <ele>1235</ele>
        <time>2019-08-18T00:11:45Z</time>
      </trkpt>
      <trkpt lat="45.19279" lon="6.66808">
        <ele>1241</ele>
        <time>2019-08-18T00:11:59Z</time>
      </trkpt>
      <trkpt lat="45.19264" lon="6.66799">
        <ele>1247</ele>
        <time>2019-08-18T00:12:21Z</time>
      </trkpt>
      <trkpt lat="45.19254" lon="6.66787">
        <ele>1250</ele>
        <time>2019-08-18T00:12:38Z</time>
      </trkpt>
      <trkpt lat="45.19245" lon="6.66765">
        <ele>1251</ele>
        <time>2019-08-18T00:13:02Z</time>
      </trkpt>
      <trkpt lat="45.19227" lon="6.66711">
        <ele>1248</ele>
        <time>2019-08-18T00:13:58Z</time>
      </trkpt>
      <trkpt lat="45.19221" lon="6.667">
        <ele>1248</ele>
        <time>2019-08-18T00:14:11Z</time>
      </trkpt>
      <trkpt lat="45.19211" lon="6.66687">
        <ele>1249</ele>
        <time>2019-08-18T00:14:29Z</time>
      </trkpt>
      <trkpt lat="45.19152" lon="6.66644">
        <ele>1263</ele>
        <time>2019-08-18T00:15:58Z</time>
      </trkpt>
      <trkpt lat="45.19133" lon="6.66632">
        <ele>1271</ele>
        <time>2019-08-18T00:16:26Z</time>
      </trkpt>
      <trkpt lat="45.1912" lon="6.66633">
        <ele>1280</ele>
        <time>2019-08-18T00:16:43Z</time>
      </trkpt>
      <trkpt lat="45.19109" lon="6.66631">
        <ele>1286</ele>
        <time>2019-08-18T00:16:58Z</time>
      </trkpt>
      <trkpt lat="45.19091" lon="6.66624">
        <ele>1295</ele>
        <time>2019-08-18T00:17:23Z</time>
      </trkpt>
      <trkpt lat="45.19077" lon="6.66612">
        <ele>1300</ele>
        <time>2019-08-18T00:17:44Z</time>
      </trkpt>
      <trkpt lat="45.19074" lon="6.66591">
        <ele>1297</ele>
        <time>2019-08-18T00:18:05Z</time>
      </trkpt>
      <trkpt lat="45.19079" lon="6.66543">
        <ele>1289</ele>
        <time>2019-08-18T00:18:50Z</time>
      </trkpt>
      <trkpt lat="45.19081" lon="6.66532">
        <ele>1287</ele>
        <time>2019-08-18T00:19:01Z</time>
      </trkpt>
      <trkpt lat="45.1908" lon="6.6648">
        <ele>1282</ele>
        <time>2019-08-18T00:19:50Z</time>
      </trkpt>
      <trkpt lat="45.19073" lon="6.66459">
        <ele>1283</ele>
        <time>2019-08-18T00:20:12Z</time>
      </trkpt>
      <trkpt lat="45.19057" lon="6.66426">
        <ele>1288</ele>
        <time>2019-08-18T00:20:49Z</time>
      </trkpt>
      <trkpt lat="45.1904" lon="6.66394">
        <ele>1292</ele>
        <time>2019-08-18T00:21:27Z</time>
      </trkpt>
      <trkpt lat="45.19026" lon="6.66362">
        <ele>1293</ele>
        <time>2019-08-18T00:22:02Z</time>
      </trkpt>
      <trkpt lat="45.19009" lon="6.66343">
        <ele>1298</ele>
        <time>2019-08-18T00:22:31Z</time>
      </trkpt>
      <trkpt lat="45.1899" lon="6.66326">
        <ele>1304</ele>
        <time>2019-08-18T00:23:01Z</time>
      </trkpt>
      <trkpt lat="45.18943" lon="6.66288">
        <ele>1320</ele>
        <time>2019-08-18T00:24:14Z</time>
      </trkpt>
      <trkpt lat="45.18929" lon="6.66279">
        <ele>1324</ele>
        <time>2019-08-18T00:24:34Z</time>
      </trkpt>
      <trkpt lat="45.18919" lon="6.66265">
        <ele>1324</ele>
        <time>2019-08-18T00:24:53Z</time>
      </trkpt>
      <trkpt lat="45.18911" lon="6.66247">
        <ele>1322</ele>
        <time>2019-08-18T00:25:13Z</time>
      </trkpt>
      <trkpt lat="45.18905" lon="6.66236">
        <ele>1322</ele>
        <time>2019-08-18T00:25:26Z</time>
      </trkpt>
      <trkpt lat="45.18893" lon="6.66231">
        <ele>1326</ele>
        <time>2019-08-18T00:25:43Z</time>
      </trkpt>
      <trkpt lat="45.18882" lon="6.66225">
        <ele>1330</ele>
        <time>2019-08-18T00:25:58Z</time>
      </trkpt>
      <trkpt lat="45.18872" lon="6.66217">
        <ele>1332</ele>
        <time>2019-08-18T00:26:14Z</time>
      </trkpt>
      <trkpt lat="45.18857" lon="6.66207">
        <ele>1336</ele>
        <time>2019-08-18T00:26:36Z</time>
      </trkpt>
      <trkpt lat="45.18842" lon="6.66198">
        <ele>1339</ele>
        <time>2019-08-18T00:26:57Z</time>
      </trkpt>
      <trkpt lat="45.18829" lon="6.66194">
        <ele>1344</ele>
        <time>2019-08-18T00:27:15Z</time>
      </trkpt>
      <trkpt lat="45.18818" lon="6.66189">
        <ele>1347</ele>
        <time>2019-08-18T00:27:31Z</time>
      </trkpt>
      <trkpt lat="45.18808" lon="6.66177">
        <ele>1346</ele>
        <time>2019-08-18T00:27:48Z</time>
      </trkpt>
      <trkpt lat="45.18804" lon="6.66185">
        <ele>1351</ele>
        <time>2019-08-18T00:27:57Z</time>
      </trkpt>
      <trkpt lat="45.18796" lon="6.66182">
        <ele>1354</ele>
        <time>2019-08-18T00:28:08Z</time>
      </trkpt>
      <trkpt lat="45.1879" lon="6.66168">
        <ele>1350</ele>
        <time>2019-08-18T00:28:24Z</time>
      </trkpt>
      <trkpt lat="45.18773" lon="6.6611">
        <ele>1341</ele>
        <time>2019-08-18T00:29:23Z</time>
      </trkpt>
      <trkpt lat="45.18758" lon="6.66073">
        <ele>1339</ele>
        <time>2019-08-18T00:30:03Z</time>
      </trkpt>
      <trkpt lat="45.18742" lon="6.66036">
        <ele>1338</ele>
        <time>2019-08-18T00:30:44Z</time>
      </trkpt>
      <trkpt lat="45.18728" lon="6.66009">
        <ele>1339</ele>
        <time>2019-08-18T00:31:15Z</time>
      </trkpt>
      <trkpt lat="45.18715" lon="6.65982">
        <ele>1338</ele>
        <time>2019-08-18T00:31:46Z</time>
      </trkpt>
      <trkpt lat="45.18687" lon="6.65954">
        <ele>1346</ele>
        <time>2019-08-18T00:32:32Z</time>
      </trkpt>
      <trkpt lat="45.18652" lon="6.65927">
        <ele>1356</ele>
        <time>2019-08-18T00:33:25Z</time>
      </trkpt>
      <trkpt lat="45.18633" lon="6.65903">
        <ele>1357</ele>
        <time>2019-08-18T00:33:59Z</time>
      </trkpt>
      <trkpt lat="45.18615" lon="6.65878">
        <ele>1358</ele>
        <time>2019-08-18T00:34:33Z</time>
      </trkpt>
      <trkpt lat="45.18589" lon="6.65861">
        <ele>1362</ele>
        <time>2019-08-18T00:35:11Z</time>
      </trkpt>
      <trkpt lat="45.18578" lon="6.65857">
        <ele>1365</ele>
        <time>2019-08-18T00:35:26Z</time>
      </trkpt>
      <trkpt lat="45.18571" lon="6.6586">
        <ele>1369</ele>
        <time>2019-08-18T00:35:36Z</time>
      </trkpt>
      <trkpt lat="45.18569" lon="6.65869">
        <ele>1373</ele>
        <time>2019-08-18T00:35:45Z</time>
      </trkpt>
      <trkpt lat="45.18578" lon="6.65881">
        <ele>1374</ele>
        <time>2019-08-18T00:36:01Z</time>
      </trkpt>
      <trkpt lat="45.18611" lon="6.6591">
        <ele>1369</ele>
        <time>2019-08-18T00:36:53Z</time>
      </trkpt>
      <trkpt lat="45.1864" lon="6.65958">
        <ele>1370</ele>
        <time>2019-08-18T00:37:52Z</time>
      </trkpt>
      <trkpt lat="45.1867" lon="6.66001">
        <ele>1368</ele>
        <time>2019-08-18T00:38:49Z</time>
      </trkpt>
      <trkpt lat="45.18681" lon="6.66035">
        <ele>1372</ele>
        <time>2019-08-18T00:39:24Z</time>
      </trkpt>
      <trkpt lat="45.18686" lon="6.66069">
        <ele>1378</ele>
        <time>2019-08-18T00:39:57Z</time>
      </trkpt>
      <trkpt lat="45.18691" lon="6.66105">
        <ele>1385</ele>
        <time>2019-08-18T00:40:32Z</time>
      </trkpt>
      <trkpt lat="45.18691" lon="6.66119">
        <ele>1389</ele>
        <time>2019-08-18T00:40:45Z</time>
      </trkpt>
      <trkpt lat="45.18685" lon="6.66121">
        <ele>1392</ele>
        <time>2019-08-18T00:40:53Z</time>
      </trkpt>
      <trkpt lat="45.18679" lon="6.66112">
        <ele>1393</ele>
        <time>2019-08-18T00:41:05Z</time>
      </trkpt>
      <trkpt lat="45.18675" lon="6.66097">
        <ele>1392</ele>
        <time>2019-08-18T00:41:20Z</time>
      </trkpt>
      <trkpt lat="45.18672" lon="6.66065">
        <ele>1385</ele>
        <time>2019-08-18T00:41:50Z</time>
      </trkpt>
      <trkpt lat="45.18658" lon="6.66035">
        <ele>1384</ele>
        <time>2019-08-18T00:42:24Z</time>
      </trkpt>
      <trkpt lat="45.18641" lon="6.66019">
        <ele>1388</ele>
        <time>2019-08-18T00:42:51Z</time>
      </trkpt>
      <trkpt lat="45.18617" lon="6.66004">
        <ele>1395</ele>
        <time>2019-08-18T00:43:26Z</time>
      </trkpt>
      <trkpt lat="45.18593" lon="6.65989">
        <ele>1402</ele>
        <time>2019-08-18T00:44:01Z</time>
      </trkpt>
      <trkpt lat="45.1859" lon="6.65986">
        <ele>1402</ele>
        <time>2019-08-18T00:44:06Z</time>
      </trkpt>
      <trkpt lat="45.18561" lon="6.65964">
        <ele>1408</ele>
        <time>2019-08-18T00:44:50Z</time>
      </trkpt>
      <trkpt lat="45.18519" lon="6.65933">
        <ele>1415</ele>
        <time>2019-08-18T00:45:53Z</time>
      </trkpt>
      <trkpt lat="45.18515" lon="6.65935">
        <ele>1417</ele>
        <time>2019-08-18T00:45:59Z</time>
      </trkpt>
      <trkpt lat="45.18515" lon="6.65935">
        <ele>1417</ele>
        <time>2019-08-18T00:45:59Z</time>
      </trkpt>
      <trkpt lat="45.18502" lon="6.65923">
        <ele>1418</ele>
        <time>2019-08-18T00:46:19Z</time>
      </trkpt>
      <trkpt lat="45.18496" lon="6.65916">
        <ele>1418</ele>
        <time>2019-08-18T00:46:30Z</time>
      </trkpt>
      <trkpt lat="45.18463" lon="6.6588">
        <ele>1423</ele>
        <time>2019-08-18T00:47:25Z</time>
      </trkpt>
      <trkpt lat="45.18443" lon="6.65861">
        <ele>1428</ele>
        <time>2019-08-18T00:47:57Z</time>
      </trkpt>
      <trkpt lat="45.18423" lon="6.65842">
        <ele>1432</ele>
        <time>2019-08-18T00:48:30Z</time>
      </trkpt>
      <trkpt lat="45.18399" lon="6.65824">
        <ele>1439</ele>
        <time>2019-08-18T00:49:06Z</time>
      </trkpt>
      <trkpt lat="45.18375" lon="6.65806">
        <ele>1447</ele>
        <time>2019-08-18T00:49:42Z</time>
      </trkpt>
      <trkpt lat="45.18318" lon="6.65739">
        <ele>1460</ele>
        <time>2019-08-18T00:51:21Z</time>
      </trkpt>
      <trkpt lat="45.18308" lon="6.6572">
        <ele>1459</ele>
        <time>2019-08-18T00:51:43Z</time>
      </trkpt>
      <trkpt lat="45.18272" lon="6.65692">
        <ele>1462</ele>
        <time>2019-08-18T00:52:38Z</time>
      </trkpt>
      <trkpt lat="45.18246" lon="6.65681">
        <ele>1464</ele>
        <time>2019-08-18T00:53:14Z</time>
      </trkpt>
      <trkpt lat="45.18237" lon="6.65678">
        <ele>1462</ele>
        <time>2019-08-18T00:53:26Z</time>
      </trkpt>
      <trkpt lat="45.18207" lon="6.65693">
        <ele>1464</ele>
        <time>2019-08-18T00:54:09Z</time>
      </trkpt>
      <trkpt lat="45.18179" lon="6.65711">
        <ele>1469</ele>
        <time>2019-08-18T00:54:50Z</time>
      </trkpt>
      <trkpt lat="45.18144" lon="6.65731">
        <ele>1476</ele>
        <time>2019-08-18T00:55:40Z</time>
      </trkpt>
      <trkpt lat="45.1813" lon="6.65741">
        <ele>1480</ele>
        <time>2019-08-18T00:56:01Z</time>
      </trkpt>
      <trkpt lat="45.18125" lon="6.65753">
        <ele>1485</ele>
        <time>2019-08-18T00:56:14Z</time>
      </trkpt>
      <trkpt lat="45.18097" lon="6.65752">
        <ele>1485</ele>
        <time>2019-08-18T00:56:52Z</time>
      </trkpt>
      <trkpt lat="45.18087" lon="6.65755">
        <ele>1487</ele>
        <time>2019-08-18T00:57:05Z</time>
      </trkpt>
      <trkpt lat="45.18083" lon="6.65761">
        <ele>1489</ele>
        <time>2019-08-18T00:57:13Z</time>
      </trkpt>
      <trkpt lat="45.18075" lon="6.65754">
        <ele>1488</ele>
        <time>2019-08-18T00:57:26Z</time>
      </trkpt>
      <trkpt lat="45.18068" lon="6.65748">
        <ele>1488</ele>
        <time>2019-08-18T00:57:37Z</time>
      </trkpt>
      <trkpt lat="45.1805" lon="6.65734">
        <ele>1486</ele>
        <time>2019-08-18T00:58:04Z</time>
      </trkpt>
      <trkpt lat="45.18037" lon="6.65727">
        <ele>1487</ele>
        <time>2019-08-18T00:58:22Z</time>
      </trkpt>
      <trkpt lat="45.1802" lon="6.65722">
        <ele>1489</ele>
        <time>2019-08-18T00:58:46Z</time>
      </trkpt>
      <trkpt lat="45.18007" lon="6.65716">
        <ele>1490</ele>
        <time>2019-08-18T00:59:04Z</time>
      </trkpt>
      <trkpt lat="45.17984" lon="6.6571">
        <ele>1489</ele>
        <time>2019-08-18T00:59:35Z</time>
      </trkpt>
      <trkpt lat="45.17976" lon="6.65712">
        <ele>1490</ele>
        <time>2019-08-18T00:59:46Z</time>
      </trkpt>
      <trkpt lat="45.17969" lon="6.65719">
        <ele>1492</ele>
        <time>2019-08-18T00:59:57Z</time>
      </trkpt>
      <trkpt lat="45.17961" lon="6.65733">
        <ele>1495</ele>
        <time>2019-08-18T01:00:14Z</time>
      </trkpt>
      <trkpt lat="45.17954" lon="6.65741">
        <ele>1497</ele>
        <time>2019-08-18T01:00:26Z</time>
      </trkpt>
      <trkpt lat="45.1794" lon="6.6575">
        <ele>1498</ele>
        <time>2019-08-18T01:00:47Z</time>
      </trkpt>
      <trkpt lat="45.17924" lon="6.65755">
        <ele>1498</ele>
        <time>2019-08-18T01:01:09Z</time>
      </trkpt>
      <trkpt lat="45.1791" lon="6.65759">
        <ele>1500</ele>
        <time>2019-08-18T01:01:28Z</time>
      </trkpt>
      <trkpt lat="45.17883" lon="6.65764">
        <ele>1507</ele>
        <time>2019-08-18T01:02:04Z</time>
      </trkpt>
      <trkpt lat="45.1787" lon="6.65769">
        <ele>1511</ele>
        <time>2019-08-18T01:02:22Z</time>
      </trkpt>
      <trkpt lat="45.17855" lon="6.65781">
        <ele>1516</ele>
        <time>2019-08-18T01:02:45Z</time>
      </trkpt>
      <trkpt lat="45.17845" lon="6.65793">
        <ele>1519</ele>
        <time>2019-08-18T01:03:02Z</time>
      </trkpt>
      <trkpt lat="45.17833" lon="6.6581">
        <ele>1522</ele>
        <time>2019-08-18T01:03:25Z</time>
      </trkpt>
      <trkpt lat="45.17825" lon="6.65814">
        <ele>1524</ele>
        <time>2019-08-18T01:03:36Z</time>
      </trkpt>
      <trkpt lat="45.1782" lon="6.65813">
        <ele>1525</ele>
        <time>2019-08-18T01:03:43Z</time>
      </trkpt>
      <trkpt lat="45.17816" lon="6.65809">
        <ele>1525</ele>
        <time>2019-08-18T01:03:50Z</time>
      </trkpt>
      <trkpt lat="45.1781" lon="6.65802">
        <ele>1526</ele>
        <time>2019-08-18T01:04:00Z</time>
      </trkpt>
      <trkpt lat="45.17808" lon="6.65783">
        <ele>1526</ele>
        <time>2019-08-18T01:04:18Z</time>
      </trkpt>
      <trkpt lat="45.17807" lon="6.65763">
        <ele>1525</ele>
        <time>2019-08-18T01:04:37Z</time>
      </trkpt>
      <trkpt lat="45.17809" lon="6.65738">
        <ele>1524</ele>
        <time>2019-08-18T01:05:01Z</time>
      </trkpt>
      <trkpt lat="45.1781" lon="6.65717">
        <ele>1525</ele>
        <time>2019-08-18T01:05:20Z</time>
      </trkpt>
      <trkpt lat="45.17813" lon="6.657">
        <ele>1524</ele>
        <time>2019-08-18T01:05:37Z</time>
      </trkpt>
      <trkpt lat="45.17815" lon="6.65679">
        <ele>1525</ele>
        <time>2019-08-18T01:05:57Z</time>
      </trkpt>
      <trkpt lat="45.1782" lon="6.65664">
        <ele>1523</ele>
        <time>2019-08-18T01:06:13Z</time>
      </trkpt>
      <trkpt lat="45.17827" lon="6.65654">
        <ele>1521</ele>
        <time>2019-08-18T01:06:26Z</time>
      </trkpt>
      <trkpt lat="45.17832" lon="6.65643">
        <ele>1518</ele>
        <time>2019-08-18T01:06:38Z</time>
      </trkpt>
      <trkpt lat="45.17836" lon="6.65634">
        <ele>1516</ele>
        <time>2019-08-18T01:06:48Z</time>
      </trkpt>
      <trkpt lat="45.17837" lon="6.65616">
        <ele>1514</ele>
        <time>2019-08-18T01:07:05Z</time>
      </trkpt>
      <trkpt lat="45.17835" lon="6.65608">
        <ele>1514</ele>
        <time>2019-08-18T01:07:13Z</time>
      </trkpt>
      <trkpt lat="45.17828" lon="6.65602">
        <ele>1515</ele>
        <time>2019-08-18T01:07:24Z</time>
      </trkpt>
      <trkpt lat="45.17816" lon="6.65601">
        <ele>1518</ele>
        <time>2019-08-18T01:07:40Z</time>
      </trkpt>
      <trkpt lat="45.178" lon="6.6559">
        <ele>1521</ele>
        <time>2019-08-18T01:08:04Z</time>
      </trkpt>
      <trkpt lat="45.17791" lon="6.6559">
        <ele>1523</ele>
        <time>2019-08-18T01:08:16Z</time>
      </trkpt>
      <trkpt lat="45.17778" lon="6.65595">
        <ele>1527</ele>
        <time>2019-08-18T01:08:34Z</time>
      </trkpt>
      <trkpt lat="45.17768" lon="6.65595">
        <ele>1530</ele>
        <time>2019-08-18T01:08:47Z</time>
      </trkpt>
      <trkpt lat="45.17758" lon="6.65587">
        <ele>1531</ele>
        <time>2019-08-18T01:09:02Z</time>
      </trkpt>
      <trkpt lat="45.1775" lon="6.65576">
        <ele>1530</ele>
        <time>2019-08-18T01:09:17Z</time>
      </trkpt>
      <trkpt lat="45.17745" lon="6.65574">
        <ele>1530</ele>
        <time>2019-08-18T01:09:24Z</time>
      </trkpt>
      <trkpt lat="45.17742" lon="6.65577">
        <ele>1532</ele>
        <time>2019-08-18T01:09:29Z</time>
      </trkpt>
      <trkpt lat="45.17743" lon="6.65586">
        <ele>1535</ele>
        <time>2019-08-18T01:09:38Z</time>
      </trkpt>
      <trkpt lat="45.17755" lon="6.65607">
        <ele>1535</ele>
        <time>2019-08-18T01:10:03Z</time>
      </trkpt>
      <trkpt lat="45.17763" lon="6.65622">
        <ele>1534</ele>
        <time>2019-08-18T01:10:21Z</time>
      </trkpt>
      <trkpt lat="45.17766" lon="6.65635">
        <ele>1535</ele>
        <time>2019-08-18T01:10:34Z</time>
      </trkpt>
      <trkpt lat="45.17762" lon="6.65648">
        <ele>1538</ele>
        <time>2019-08-18T01:10:47Z</time>
      </trkpt>
      <trkpt lat="45.17755" lon="6.65658">
        <ele>1541</ele>
        <time>2019-08-18T01:11:00Z</time>
      </trkpt>
      <trkpt lat="45.17741" lon="6.65657">
        <ele>1543</ele>
        <time>2019-08-18T01:11:19Z</time>
      </trkpt>
      <trkpt lat="45.17723" lon="6.65658">
        <ele>1547</ele>
        <time>2019-08-18T01:11:43Z</time>
      </trkpt>
      <trkpt lat="45.1771" lon="6.65657">
        <ele>1549</ele>
        <time>2019-08-18T01:12:00Z</time>
      </trkpt>
      <trkpt lat="45.17694" lon="6.65648">
        <ele>1551</ele>
        <time>2019-08-18T01:12:23Z</time>
      </trkpt>
      <trkpt lat="45.17685" lon="6.65636">
        <ele>1551</ele>
        <time>2019-08-18T01:12:40Z</time>
      </trkpt>
      <trkpt lat="45.17657" lon="6.6559">
        <ele>1550</ele>
        <time>2019-08-18T01:13:37Z</time>
      </trkpt>
      <trkpt lat="45.17626" lon="6.65551">
        <ele>1545</ele>
        <time>2019-08-18T01:14:32Z</time>
      </trkpt>
      <trkpt lat="45.17592" lon="6.65532">
        <ele>1548</ele>
        <time>2019-08-18T01:15:21Z</time>
      </trkpt>
      <trkpt lat="45.17567" lon="6.65511">
        <ele>1548</ele>
        <time>2019-08-18T01:16:00Z</time>
      </trkpt>
      <trkpt lat="45.17542" lon="6.6549">
        <ele>1547</ele>
        <time>2019-08-18T01:16:39Z</time>
      </trkpt>
      <trkpt lat="45.17523" lon="6.65469">
        <ele>1545</ele>
        <time>2019-08-18T01:17:11Z</time>
      </trkpt>
      <trkpt lat="45.17504" lon="6.65448">
        <ele>1544</ele>
        <time>2019-08-18T01:17:43Z</time>
      </trkpt>
      <trkpt lat="45.17481" lon="6.65439">
        <ele>1546</ele>
        <time>2019-08-18T01:18:15Z</time>
      </trkpt>
      <trkpt lat="45.17433" lon="6.65417">
        <ele>1550</ele>
        <time>2019-08-18T01:19:22Z</time>
      </trkpt>
      <trkpt lat="45.17411" lon="6.65408">
        <ele>1553</ele>
        <time>2019-08-18T01:19:53Z</time>
      </trkpt>
      <trkpt lat="45.17402" lon="6.65395">
        <ele>1554</ele>
        <time>2019-08-18T01:20:10Z</time>
      </trkpt>
      <trkpt lat="45.17401" lon="6.65384">
        <ele>1553</ele>
        <time>2019-08-18T01:20:20Z</time>
      </trkpt>
      <trkpt lat="45.17374" lon="6.65352">
        <ele>1555</ele>
        <time>2019-08-18T01:21:07Z</time>
      </trkpt>
      <trkpt lat="45.17358" lon="6.6533">
        <ele>1555</ele>
        <time>2019-08-18T01:21:37Z</time>
      </trkpt>
      <trkpt lat="45.17353" lon="6.65324">
        <ele>1556</ele>
        <time>2019-08-18T01:21:46Z</time>
      </trkpt>
      <trkpt lat="45.17343" lon="6.65314">
        <ele>1558</ele>
        <time>2019-08-18T01:22:02Z</time>
      </trkpt>
      <trkpt lat="45.1733" lon="6.65304">
        <ele>1560</ele>
        <time>2019-08-18T01:22:22Z</time>
      </trkpt>
      <trkpt lat="45.17317" lon="6.65287">
        <ele>1561</ele>
        <time>2019-08-18T01:22:45Z</time>
      </trkpt>
      <trkpt lat="45.17328" lon="6.65268">
        <ele>1559</ele>
        <time>2019-08-18T01:23:08Z</time>
      </trkpt>
      <trkpt lat="45.17308" lon="6.65241">
        <ele>1558</ele>
        <time>2019-08-18T01:23:45Z</time>
      </trkpt>
      <trkpt lat="45.173" lon="6.65227">
        <ele>1556</ele>
        <time>2019-08-18T01:24:02Z</time>
      </trkpt>
      <trkpt lat="45.17298" lon="6.65214">
        <ele>1554</ele>
        <time>2019-08-18T01:24:15Z</time>
      </trkpt>
      <trkpt lat="45.17293" lon="6.65209">
        <ele>1554</ele>
        <time>2019-08-18T01:24:23Z</time>
      </trkpt>
      <trkpt lat="45.17269" lon="6.65195">
        <ele>1555</ele>
        <time>2019-08-18T01:24:57Z</time>
      </trkpt>
      <trkpt lat="45.17258" lon="6.65188">
        <ele>1556</ele>
        <time>2019-08-18T01:25:14Z</time>
      </trkpt>
      <trkpt lat="45.1726" lon="6.65175">
        <ele>1554</ele>
        <time>2019-08-18T01:25:26Z</time>
      </trkpt>
      <trkpt lat="45.17268" lon="6.6515">
        <ele>1548</ele>
        <time>2019-08-18T01:25:52Z</time>
      </trkpt>
      <trkpt lat="45.1721" lon="6.65137">
        <ele>1558</ele>
        <time>2019-08-18T01:27:10Z</time>
      </trkpt>
      <trkpt lat="45.17194" lon="6.65132">
        <ele>1561</ele>
        <time>2019-08-18T01:27:32Z</time>
      </trkpt>
      <trkpt lat="45.17153" lon="6.65091">
        <ele>1564</ele>
        <time>2019-08-18T01:28:39Z</time>
      </trkpt>
      <trkpt lat="45.17122" lon="6.65069">
        <ele>1567</ele>
        <time>2019-08-18T01:29:25Z</time>
      </trkpt>
      <trkpt lat="45.17097" lon="6.65062">
        <ele>1571</ele>
        <time>2019-08-18T01:29:59Z</time>
      </trkpt>
      <trkpt lat="45.1707" lon="6.65046">
        <ele>1572</ele>
        <time>2019-08-18T01:30:38Z</time>
      </trkpt>
      <trkpt lat="45.17044" lon="6.65028">
        <ele>1573</ele>
        <time>2019-08-18T01:31:17Z</time>
      </trkpt>
      <trkpt lat="45.17015" lon="6.65005">
        <ele>1574</ele>
        <time>2019-08-18T01:32:01Z</time>
      </trkpt>
      <trkpt lat="45.17006" lon="6.65003">
        <ele>1575</ele>
        <time>2019-08-18T01:32:13Z</time>
      </trkpt>
      <trkpt lat="45.16999" lon="6.6501">
        <ele>1578</ele>
        <time>2019-08-18T01:32:25Z</time>
      </trkpt>
      <trkpt lat="45.16999" lon="6.65019">
        <ele>1580</ele>
        <time>2019-08-18T01:32:33Z</time>
      </trkpt>
      <trkpt lat="45.17004" lon="6.65029">
        <ele>1581</ele>
        <time>2019-08-18T01:32:45Z</time>
      </trkpt>
      <trkpt lat="45.17028" lon="6.65047">
        <ele>1580</ele>
        <time>2019-08-18T01:33:21Z</time>
      </trkpt>
      <trkpt lat="45.17038" lon="6.65065">
        <ele>1582</ele>
        <time>2019-08-18T01:33:43Z</time>
      </trkpt>
      <trkpt lat="45.17042" lon="6.65088">
        <ele>1587</ele>
        <time>2019-08-18T01:34:05Z</time>
      </trkpt>
      <trkpt lat="45.17044" lon="6.65116">
        <ele>1590</ele>
        <time>2019-08-18T01:34:31Z</time>
      </trkpt>
      <trkpt lat="45.17046" lon="6.65132">
        <ele>1592</ele>
        <time>2019-08-18T01:34:47Z</time>
      </trkpt>
      <trkpt lat="45.17053" lon="6.65149">
        <ele>1593</ele>
        <time>2019-08-18T01:35:05Z</time>
      </trkpt>
      <trkpt lat="45.17062" lon="6.65161">
        <ele>1593</ele>
        <time>2019-08-18T01:35:22Z</time>
      </trkpt>
      <trkpt lat="45.17069" lon="6.6517">
        <ele>1593</ele>
        <time>2019-08-18T01:35:34Z</time>
      </trkpt>
      <trkpt lat="45.17069" lon="6.65179">
        <ele>1595</ele>
        <time>2019-08-18T01:35:43Z</time>
      </trkpt>
      <trkpt lat="45.17066" lon="6.65183">
        <ele>1596</ele>
        <time>2019-08-18T01:35:48Z</time>
      </trkpt>
      <trkpt lat="45.1706" lon="6.65181">
        <ele>1597</ele>
        <time>2019-08-18T01:35:57Z</time>
      </trkpt>
      <trkpt lat="45.17049" lon="6.65163">
        <ele>1596</ele>
        <time>2019-08-18T01:36:19Z</time>
      </trkpt>
      <trkpt lat="45.17041" lon="6.65146">
        <ele>1595</ele>
        <time>2019-08-18T01:36:38Z</time>
      </trkpt>
      <trkpt lat="45.17022" lon="6.65117">
        <ele>1594</ele>
        <time>2019-08-18T01:37:15Z</time>
      </trkpt>
      <trkpt lat="45.17003" lon="6.65088">
        <ele>1592</ele>
        <time>2019-08-18T01:37:53Z</time>
      </trkpt>
      <trkpt lat="45.16977" lon="6.65058">
        <ele>1592</ele>
        <time>2019-08-18T01:38:37Z</time>
      </trkpt>
      <trkpt lat="45.16962" lon="6.65045">
        <ele>1593</ele>
        <time>2019-08-18T01:39:01Z</time>
      </trkpt>
      <trkpt lat="45.16943" lon="6.65031">
        <ele>1595</ele>
        <time>2019-08-18T01:39:29Z</time>
      </trkpt>
      <trkpt lat="45.16918" lon="6.65022">
        <ele>1599</ele>
        <time>2019-08-18T01:40:04Z</time>
      </trkpt>
      <trkpt lat="45.16881" lon="6.65027">
        <ele>1606</ele>
        <time>2019-08-18T01:40:53Z</time>
      </trkpt>
      <trkpt lat="45.16837" lon="6.65022">
        <ele>1611</ele>
        <time>2019-08-18T01:41:52Z</time>
      </trkpt>
      <trkpt lat="45.16796" lon="6.65011">
        <ele>1617</ele>
        <time>2019-08-18T01:42:48Z</time>
      </trkpt>
      <trkpt lat="45.16781" lon="6.65008">
        <ele>1619</ele>
        <time>2019-08-18T01:43:08Z</time>
      </trkpt>
      <trkpt lat="45.16765" lon="6.65004">
        <ele>1621</ele>
        <time>2019-08-18T01:43:30Z</time>
      </trkpt>
      <trkpt lat="45.16747" lon="6.64995">
        <ele>1623</ele>
        <time>2019-08-18T01:43:55Z</time>
      </trkpt>
      <trkpt lat="45.16737" lon="6.64984">
        <ele>1623</ele>
        <time>2019-08-18T01:44:12Z</time>
      </trkpt>
      <trkpt lat="45.16714" lon="6.64943">
        <ele>1621</ele>
        <time>2019-08-18T01:45:02Z</time>
      </trkpt>
      <trkpt lat="45.16704" lon="6.64939">
        <ele>1623</ele>
        <time>2019-08-18T01:45:15Z</time>
      </trkpt>
      <trkpt lat="45.16696" lon="6.64941">
        <ele>1625</ele>
        <time>2019-08-18T01:45:26Z</time>
      </trkpt>
      <trkpt lat="45.16687" lon="6.6492">
        <ele>1624</ele>
        <time>2019-08-18T01:45:49Z</time>
      </trkpt>
      <trkpt lat="45.1668" lon="6.64907">
        <ele>1623</ele>
        <time>2019-08-18T01:46:05Z</time>
      </trkpt>
      <trkpt lat="45.16667" lon="6.64894">
        <ele>1625</ele>
        <time>2019-08-18T01:46:26Z</time>
      </trkpt>
      <trkpt lat="45.16649" lon="6.64889">
        <ele>1628</ele>
        <time>2019-08-18T01:46:51Z</time>
      </trkpt>
      <trkpt lat="45.16635" lon="6.64896">
        <ele>1631</ele>
        <time>2019-08-18T01:47:10Z</time>
      </trkpt>
      <trkpt lat="45.16624" lon="6.64909">
        <ele>1634</ele>
        <time>2019-08-18T01:47:29Z</time>
      </trkpt>
      <trkpt lat="45.16612" lon="6.64931">
        <ele>1640</ele>
        <time>2019-08-18T01:47:56Z</time>
      </trkpt>
      <trkpt lat="45.16601" lon="6.64939">
        <ele>1643</ele>
        <time>2019-08-18T01:48:12Z</time>
      </trkpt>
      <trkpt lat="45.16593" lon="6.64942">
        <ele>1644</ele>
        <time>2019-08-18T01:48:23Z</time>
      </trkpt>
      <trkpt lat="45.16584" lon="6.64941">
        <ele>1646</ele>
        <time>2019-08-18T01:48:35Z</time>
      </trkpt>
      <trkpt lat="45.16576" lon="6.64934">
        <ele>1647</ele>
        <time>2019-08-18T01:48:48Z</time>
      </trkpt>
      <trkpt lat="45.16572" lon="6.64925">
        <ele>1648</ele>
        <time>2019-08-18T01:48:58Z</time>
      </trkpt>
      <trkpt lat="45.16568" lon="6.64911">
        <ele>1647</ele>
        <time>2019-08-18T01:49:12Z</time>
      </trkpt>
      <trkpt lat="45.1657" lon="6.64893">
        <ele>1645</ele>
        <time>2019-08-18T01:49:29Z</time>
      </trkpt>
      <trkpt lat="45.16575" lon="6.64876">
        <ele>1642</ele>
        <time>2019-08-18T01:49:46Z</time>
      </trkpt>
      <trkpt lat="45.16585" lon="6.64857">
        <ele>1637</ele>
        <time>2019-08-18T01:50:09Z</time>
      </trkpt>
      <trkpt lat="45.16584" lon="6.64842">
        <ele>1636</ele>
        <time>2019-08-18T01:50:23Z</time>
      </trkpt>
      <trkpt lat="45.1658" lon="6.64834">
        <ele>1637</ele>
        <time>2019-08-18T01:50:32Z</time>
      </trkpt>
      <trkpt lat="45.16572" lon="6.6483">
        <ele>1638</ele>
        <time>2019-08-18T01:50:43Z</time>
      </trkpt>
      <trkpt lat="45.16561" lon="6.64831">
        <ele>1641</ele>
        <time>2019-08-18T01:50:58Z</time>
      </trkpt>
      <trkpt lat="45.16549" lon="6.64836">
        <ele>1645</ele>
        <time>2019-08-18T01:51:15Z</time>
      </trkpt>
      <trkpt lat="45.16538" lon="6.64837">
        <ele>1647</ele>
        <time>2019-08-18T01:51:30Z</time>
      </trkpt>
      <trkpt lat="45.16525" lon="6.64835">
        <ele>1650</ele>
        <time>2019-08-18T01:51:47Z</time>
      </trkpt>
      <trkpt lat="45.16513" lon="6.64826">
        <ele>1651</ele>
        <time>2019-08-18T01:52:05Z</time>
      </trkpt>
      <trkpt lat="45.16499" lon="6.64811">
        <ele>1651</ele>
        <time>2019-08-18T01:52:29Z</time>
      </trkpt>
      <trkpt lat="45.16475" lon="6.64777">
        <ele>1650</ele>
        <time>2019-08-18T01:53:14Z</time>
      </trkpt>
      <trkpt lat="45.16458" lon="6.64758">
        <ele>1650</ele>
        <time>2019-08-18T01:53:43Z</time>
      </trkpt>
      <trkpt lat="45.16444" lon="6.64742">
        <ele>1651</ele>
        <time>2019-08-18T01:54:07Z</time>
      </trkpt>
      <trkpt lat="45.16411" lon="6.64718">
        <ele>1656</ele>
        <time>2019-08-18T01:54:56Z</time>
      </trkpt>
      <trkpt lat="45.16392" lon="6.64709">
        <ele>1657</ele>
        <time>2019-08-18T01:55:23Z</time>
      </trkpt>
      <trkpt lat="45.16374" lon="6.64698">
        <ele>1657</ele>
        <time>2019-08-18T01:55:49Z</time>
      </trkpt>
      <trkpt lat="45.16353" lon="6.64689">
        <ele>1657</ele>
        <time>2019-08-18T01:56:18Z</time>
      </trkpt>
      <trkpt lat="45.1634" lon="6.64685">
        <ele>1658</ele>
        <time>2019-08-18T01:56:36Z</time>
      </trkpt>
      <trkpt lat="45.16328" lon="6.64686">
        <ele>1659</ele>
        <time>2019-08-18T01:56:52Z</time>
      </trkpt>
      <trkpt lat="45.16299" lon="6.64665">
        <ele>1654</ele>
        <time>2019-08-18T01:57:36Z</time>
      </trkpt>
      <trkpt lat="45.1627" lon="6.64644">
        <ele>1654</ele>
        <time>2019-08-18T01:58:19Z</time>
      </trkpt>
      <trkpt lat="45.16269" lon="6.64622">
        <ele>1653</ele>
        <time>2019-08-18T01:58:40Z</time>
      </trkpt>
      <trkpt lat="45.16268" lon="6.64577">
        <ele>1653</ele>
        <time>2019-08-18T01:59:22Z</time>
      </trkpt>
      <trkpt lat="45.16248" lon="6.64551">
        <ele>1655</ele>
        <time>2019-08-18T01:59:58Z</time>
      </trkpt>
      <trkpt lat="45.16227" lon="6.64526">
        <ele>1659</ele>
        <time>2019-08-18T02:00:35Z</time>
      </trkpt>
      <trkpt lat="45.16212" lon="6.64474">
        <ele>1672</ele>
        <time>2019-08-18T02:01:28Z</time>
      </trkpt>
      <trkpt lat="45.16187" lon="6.64441">
        <ele>1680</ele>
        <time>2019-08-18T02:02:13Z</time>
      </trkpt>
      <trkpt lat="45.16114" lon="6.64429">
        <ele>1679</ele>
        <time>2019-08-18T02:03:51Z</time>
      </trkpt>
      <trkpt lat="45.16077" lon="6.64423">
        <ele>1679</ele>
        <time>2019-08-18T02:04:41Z</time>
      </trkpt>
      <trkpt lat="45.16003" lon="6.64378">
        <ele>1692</ele>
        <time>2019-08-18T02:06:29Z</time>
      </trkpt>
      <trkpt lat="45.15966" lon="6.64356">
        <ele>1698</ele>
        <time>2019-08-18T02:07:22Z</time>
      </trkpt>
      <trkpt lat="45.15936" lon="6.64327">
        <ele>1707</ele>
        <time>2019-08-18T02:08:11Z</time>
      </trkpt>
      <trkpt lat="45.15845" lon="6.64243">
        <ele>1736</ele>
        <time>2019-08-18T02:10:35Z</time>
      </trkpt>
      <trkpt lat="45.15815" lon="6.64215">
        <ele>1750</ele>
        <time>2019-08-18T02:11:23Z</time>
      </trkpt>
      <trkpt lat="45.1578" lon="6.64199">
        <ele>1754</ele>
        <time>2019-08-18T02:12:12Z</time>
      </trkpt>
      <trkpt lat="45.15744" lon="6.64184">
        <ele>1758</ele>
        <time>2019-08-18T02:13:03Z</time>
      </trkpt>
      <trkpt lat="45.15674" lon="6.64153">
        <ele>1773</ele>
        <time>2019-08-18T02:14:40Z</time>
      </trkpt>
      <trkpt lat="45.15639" lon="6.64142">
        <ele>1780</ele>
        <time>2019-08-18T02:15:28Z</time>
      </trkpt>
      <trkpt lat="45.15616" lon="6.64119">
        <ele>1792</ele>
        <time>2019-08-18T02:16:06Z</time>
      </trkpt>
      <trkpt lat="45.15599" lon="6.6411">
        <ele>1797</ele>
        <time>2019-08-18T02:16:30Z</time>
      </trkpt>
      <trkpt lat="45.15579" lon="6.6411">
        <ele>1798</ele>
        <time>2019-08-18T02:16:57Z</time>
      </trkpt>
      <trkpt lat="45.15552" lon="6.64119">
        <ele>1795</ele>
        <time>2019-08-18T02:17:34Z</time>
      </trkpt>
      <trkpt lat="45.15461" lon="6.64115">
        <ele>1805</ele>
        <time>2019-08-18T02:19:35Z</time>
      </trkpt>
      <trkpt lat="45.15434" lon="6.64114">
        <ele>1810</ele>
        <time>2019-08-18T02:20:11Z</time>
      </trkpt>
      <trkpt lat="45.15432" lon="6.64101">
        <ele>1814</ele>
        <time>2019-08-18T02:20:24Z</time>
      </trkpt>
      <trkpt lat="45.15448" lon="6.64057">
        <ele>1827</ele>
        <time>2019-08-18T02:21:10Z</time>
      </trkpt>
      <trkpt lat="45.15455" lon="6.64052">
        <ele>1829</ele>
        <time>2019-08-18T02:21:21Z</time>
      </trkpt>
      <trkpt lat="45.1547" lon="6.64051">
        <ele>1829</ele>
        <time>2019-08-18T02:21:41Z</time>
      </trkpt>
      <trkpt lat="45.15477" lon="6.64042">
        <ele>1832</ele>
        <time>2019-08-18T02:21:53Z</time>
      </trkpt>
      <trkpt lat="45.15482" lon="6.64028">
        <ele>1839</ele>
        <time>2019-08-18T02:22:08Z</time>
      </trkpt>
      <trkpt lat="45.15454" lon="6.64008">
        <ele>1846</ele>
        <time>2019-08-18T02:22:50Z</time>
      </trkpt>
      <trkpt lat="45.15426" lon="6.63988">
        <ele>1853</ele>
        <time>2019-08-18T02:23:32Z</time>
      </trkpt>
      <trkpt lat="45.15401" lon="6.63979">
        <ele>1856</ele>
        <time>2019-08-18T02:24:06Z</time>
      </trkpt>
      <trkpt lat="45.15374" lon="6.63974">
        <ele>1856</ele>
        <time>2019-08-18T02:24:43Z</time>
      </trkpt>
      <trkpt lat="45.15334" lon="6.63954">
        <ele>1860</ele>
        <time>2019-08-18T02:25:39Z</time>
      </trkpt>
      <trkpt lat="45.15318" lon="6.63935">
        <ele>1862</ele>
        <time>2019-08-18T02:26:07Z</time>
      </trkpt>
      <trkpt lat="45.15306" lon="6.63916">
        <ele>1863</ele>
        <time>2019-08-18T02:26:31Z</time>
      </trkpt>
      <trkpt lat="45.15279" lon="6.63876">
        <ele>1870</ele>
        <time>2019-08-18T02:27:23Z</time>
      </trkpt>
      <trkpt lat="45.15264" lon="6.63848">
        <ele>1876</ele>
        <time>2019-08-18T02:27:56Z</time>
      </trkpt>
      <trkpt lat="45.15259" lon="6.63841">
        <ele>1877</ele>
        <time>2019-08-18T02:28:06Z</time>
      </trkpt>
      <trkpt lat="45.15252" lon="6.63834">
        <ele>1878</ele>
        <time>2019-08-18T02:28:17Z</time>
      </trkpt>
      <trkpt lat="45.15241" lon="6.6383">
        <ele>1877</ele>
        <time>2019-08-18T02:28:32Z</time>
      </trkpt>
      <trkpt lat="45.15217" lon="6.63814">
        <ele>1879</ele>
        <time>2019-08-18T02:29:08Z</time>
      </trkpt>
      <trkpt lat="45.15193" lon="6.63799">
        <ele>1880</ele>
        <time>2019-08-18T02:29:43Z</time>
      </trkpt>
      <trkpt lat="45.15168" lon="6.63776">
        <ele>1881</ele>
        <time>2019-08-18T02:30:22Z</time>
      </trkpt>
      <trkpt lat="45.15146" lon="6.63748">
        <ele>1890</ele>
        <time>2019-08-18T02:31:02Z</time>
      </trkpt>
      <trkpt lat="45.15122" lon="6.63713">
        <ele>1901</ele>
        <time>2019-08-18T02:31:48Z</time>
      </trkpt>
      <trkpt lat="45.15102" lon="6.63711">
        <ele>1900</ele>
        <time>2019-08-18T02:32:15Z</time>
      </trkpt>
      <trkpt lat="45.15108" lon="6.63738">
        <ele>1894</ele>
        <time>2019-08-18T02:32:41Z</time>
      </trkpt>
      <trkpt lat="45.151" lon="6.63732">
        <ele>1896</ele>
        <time>2019-08-18T02:32:53Z</time>
      </trkpt>
      <trkpt lat="45.15091" lon="6.63725">
        <ele>1897</ele>
        <time>2019-08-18T02:33:07Z</time>
      </trkpt>
      <trkpt lat="45.1508" lon="6.63718">
        <ele>1898</ele>
        <time>2019-08-18T02:33:23Z</time>
      </trkpt>
      <trkpt lat="45.15064" lon="6.63705">
        <ele>1905</ele>
        <time>2019-08-18T02:33:48Z</time>
      </trkpt>
      <trkpt lat="45.15043" lon="6.63679">
        <ele>1910</ele>
        <time>2019-08-18T02:34:25Z</time>
      </trkpt>
      <trkpt lat="45.15023" lon="6.63633">
        <ele>1916</ele>
        <time>2019-08-18T02:35:16Z</time>
      </trkpt>
      <trkpt lat="45.1501" lon="6.63602">
        <ele>1916</ele>
        <time>2019-08-18T02:35:50Z</time>
      </trkpt>
      <trkpt lat="45.14998" lon="6.63571">
        <ele>1916</ele>
        <time>2019-08-18T02:36:23Z</time>
      </trkpt>
      <trkpt lat="45.14989" lon="6.63553">
        <ele>1920</ele>
        <time>2019-08-18T02:36:44Z</time>
      </trkpt>
      <trkpt lat="45.14953" lon="6.63509">
        <ele>1922</ele>
        <time>2019-08-18T02:37:47Z</time>
      </trkpt>
      <trkpt lat="45.14938" lon="6.63479">
        <ele>1918</ele>
        <time>2019-08-18T02:38:22Z</time>
      </trkpt>
      <trkpt lat="45.14908" lon="6.63464">
        <ele>1915</ele>
        <time>2019-08-18T02:39:04Z</time>
      </trkpt>
      <trkpt lat="45.14874" lon="6.63454">
        <ele>1919</ele>
        <time>2019-08-18T02:39:51Z</time>
      </trkpt>
      <trkpt lat="45.14863" lon="6.63444">
        <ele>1919</ele>
        <time>2019-08-18T02:40:08Z</time>
      </trkpt>
      <trkpt lat="45.14817" lon="6.63376">
        <ele>1919</ele>
        <time>2019-08-18T02:41:37Z</time>
      </trkpt>
      <trkpt lat="45.14794" lon="6.63342">
        <ele>1920</ele>
        <time>2019-08-18T02:42:21Z</time>
      </trkpt>
      <trkpt lat="45.1478" lon="6.63277">
        <ele>1922</ele>
        <time>2019-08-18T02:43:25Z</time>
      </trkpt>
      <trkpt lat="45.14768" lon="6.63246">
        <ele>1922</ele>
        <time>2019-08-18T02:43:58Z</time>
      </trkpt>
      <trkpt lat="45.14746" lon="6.63234">
        <ele>1924</ele>
        <time>2019-08-18T02:44:30Z</time>
      </trkpt>
      <trkpt lat="45.14731" lon="6.63225">
        <ele>1928</ele>
        <time>2019-08-18T02:44:51Z</time>
      </trkpt>
      <trkpt lat="45.14714" lon="6.63228">
        <ele>1932</ele>
        <time>2019-08-18T02:45:14Z</time>
      </trkpt>
      <trkpt lat="45.14706" lon="6.6322">
        <ele>1934</ele>
        <time>2019-08-18T02:45:27Z</time>
      </trkpt>
      <trkpt lat="45.14706" lon="6.6321">
        <ele>1934</ele>
        <time>2019-08-18T02:45:37Z</time>
      </trkpt>
      <trkpt lat="45.14712" lon="6.63206">
        <ele>1933</ele>
        <time>2019-08-18T02:45:46Z</time>
      </trkpt>
      <trkpt lat="45.14736" lon="6.63196">
        <ele>1928</ele>
        <time>2019-08-18T02:46:19Z</time>
      </trkpt>
      <trkpt lat="45.14737" lon="6.63185">
        <ele>1929</ele>
        <time>2019-08-18T02:46:29Z</time>
      </trkpt>
      <trkpt lat="45.14735" lon="6.63175">
        <ele>1930</ele>
        <time>2019-08-18T02:46:39Z</time>
      </trkpt>
      <trkpt lat="45.14729" lon="6.63168">
        <ele>1931</ele>
        <time>2019-08-18T02:46:50Z</time>
      </trkpt>
      <trkpt lat="45.14719" lon="6.63171">
        <ele>1933</ele>
        <time>2019-08-18T02:47:03Z</time>
      </trkpt>
      <trkpt lat="45.14714" lon="6.63167">
        <ele>1934</ele>
        <time>2019-08-18T02:47:11Z</time>
      </trkpt>
      <trkpt lat="45.1471" lon="6.63158">
        <ele>1936</ele>
        <time>2019-08-18T02:47:21Z</time>
      </trkpt>
      <trkpt lat="45.14708" lon="6.63138">
        <ele>1938</ele>
        <time>2019-08-18T02:47:40Z</time>
      </trkpt>
      <trkpt lat="45.14697" lon="6.63104">
        <ele>1942</ele>
        <time>2019-08-18T02:48:15Z</time>
      </trkpt>
      <trkpt lat="45.14697" lon="6.63071">
        <ele>1946</ele>
        <time>2019-08-18T02:48:46Z</time>
      </trkpt>
      <trkpt lat="45.14685" lon="6.63027">
        <ele>1954</ele>
        <time>2019-08-18T02:49:31Z</time>
      </trkpt>
      <trkpt lat="45.14681" lon="6.63003">
        <ele>1958</ele>
        <time>2019-08-18T02:49:54Z</time>
      </trkpt>
      <trkpt lat="45.14689" lon="6.62962">
        <ele>1969</ele>
        <time>2019-08-18T02:50:34Z</time>
      </trkpt>
      <trkpt lat="45.14688" lon="6.6295">
        <ele>1972</ele>
        <time>2019-08-18T02:50:45Z</time>
      </trkpt>
      <trkpt lat="45.14679" lon="6.62947">
        <ele>1972</ele>
        <time>2019-08-18T02:50:58Z</time>
      </trkpt>
      <trkpt lat="45.1466" lon="6.62951">
        <ele>1973</ele>
        <time>2019-08-18T02:51:23Z</time>
      </trkpt>
      <trkpt lat="45.14629" lon="6.62954">
        <ele>1979</ele>
        <time>2019-08-18T02:52:05Z</time>
      </trkpt>
      <trkpt lat="45.14622" lon="6.62954">
        <ele>1981</ele>
        <time>2019-08-18T02:52:14Z</time>
      </trkpt>
      <trkpt lat="45.14615" lon="6.62956">
        <ele>1982</ele>
        <time>2019-08-18T02:52:24Z</time>
      </trkpt>
      <trkpt lat="45.14612" lon="6.62953">
        <ele>1983</ele>
        <time>2019-08-18T02:52:28Z</time>
      </trkpt>
      <trkpt lat="45.14613" lon="6.62947">
        <ele>1985</ele>
        <time>2019-08-18T02:52:34Z</time>
      </trkpt>
      <trkpt lat="45.14616" lon="6.62939">
        <ele>1987</ele>
        <time>2019-08-18T02:52:43Z</time>
      </trkpt>
      <trkpt lat="45.14667" lon="6.62886">
        <ele>1990</ele>
        <time>2019-08-18T02:54:07Z</time>
      </trkpt>
      <trkpt lat="45.14671" lon="6.62879">
        <ele>1992</ele>
        <time>2019-08-18T02:54:16Z</time>
      </trkpt>
      <trkpt lat="45.14671" lon="6.62874">
        <ele>1994</ele>
        <time>2019-08-18T02:54:20Z</time>
      </trkpt>
      <trkpt lat="45.14669" lon="6.62869">
        <ele>1995</ele>
        <time>2019-08-18T02:54:26Z</time>
      </trkpt>
      <trkpt lat="45.14664" lon="6.62869">
        <ele>1996</ele>
        <time>2019-08-18T02:54:32Z</time>
      </trkpt>
      <trkpt lat="45.14658" lon="6.62874">
        <ele>1996</ele>
        <time>2019-08-18T02:54:42Z</time>
      </trkpt>
      <trkpt lat="45.1465" lon="6.62876">
        <ele>1998</ele>
        <time>2019-08-18T02:54:53Z</time>
      </trkpt>
      <trkpt lat="45.14632" lon="6.62875">
        <ele>2004</ele>
        <time>2019-08-18T02:55:17Z</time>
      </trkpt>
      <trkpt lat="45.14621" lon="6.62878">
        <ele>2006</ele>
        <time>2019-08-18T02:55:32Z</time>
      </trkpt>
      <trkpt lat="45.14617" lon="6.62877">
        <ele>2008</ele>
        <time>2019-08-18T02:55:37Z</time>
      </trkpt>
      <trkpt lat="45.14617" lon="6.62871">
        <ele>2010</ele>
        <time>2019-08-18T02:55:43Z</time>
      </trkpt>
      <trkpt lat="45.14618" lon="6.62864">
        <ele>2012</ele>
        <time>2019-08-18T02:55:49Z</time>
      </trkpt>
      <trkpt lat="45.14651" lon="6.62818">
        <ele>2015</ele>
        <time>2019-08-18T02:56:51Z</time>
      </trkpt>
      <trkpt lat="45.14656" lon="6.62796">
        <ele>2017</ele>
        <time>2019-08-18T02:57:13Z</time>
      </trkpt>
      <trkpt lat="45.14651" lon="6.62782">
        <ele>2022</ele>
        <time>2019-08-18T02:57:28Z</time>
      </trkpt>
      <trkpt lat="45.1464" lon="6.62763">
        <ele>2031</ele>
        <time>2019-08-18T02:57:51Z</time>
      </trkpt>
      <trkpt lat="45.14633" lon="6.62723">
        <ele>2042</ele>
        <time>2019-08-18T02:58:30Z</time>
      </trkpt>
      <trkpt lat="45.14624" lon="6.62691">
        <ele>2050</ele>
        <time>2019-08-18T02:59:02Z</time>
      </trkpt>
      <trkpt lat="45.14615" lon="6.62659">
        <ele>2057</ele>
        <time>2019-08-18T02:59:34Z</time>
      </trkpt>
      <trkpt lat="45.14601" lon="6.62638">
        <ele>2062</ele>
        <time>2019-08-18T03:00:02Z</time>
      </trkpt>
      <trkpt lat="45.14589" lon="6.62607">
        <ele>2065</ele>
        <time>2019-08-18T03:00:35Z</time>
      </trkpt>
      <trkpt lat="45.14576" lon="6.62576">
        <ele>2069</ele>
        <time>2019-08-18T03:01:09Z</time>
      </trkpt>
      <trkpt lat="45.14556" lon="6.62558">
        <ele>2077</ele>
        <time>2019-08-18T03:01:40Z</time>
      </trkpt>
      <trkpt lat="45.14542" lon="6.62537">
        <ele>2081</ele>
        <time>2019-08-18T03:02:08Z</time>
      </trkpt>
      <trkpt lat="45.14521" lon="6.62513">
        <ele>2083</ele>
        <time>2019-08-18T03:02:44Z</time>
      </trkpt>
      <trkpt lat="45.14501" lon="6.62489">
        <ele>2083</ele>
        <time>2019-08-18T03:03:19Z</time>
      </trkpt>
      <trkpt lat="45.14465" lon="6.62433">
        <ele>2094</ele>
        <time>2019-08-18T03:04:30Z</time>
      </trkpt>
      <trkpt lat="45.14457" lon="6.62406">
        <ele>2096</ele>
        <time>2019-08-18T03:04:57Z</time>
      </trkpt>
      <trkpt lat="45.1445" lon="6.62399">
        <ele>2098</ele>
        <time>2019-08-18T03:05:09Z</time>
      </trkpt>
      <trkpt lat="45.14446" lon="6.62402">
        <ele>2098</ele>
        <time>2019-08-18T03:05:15Z</time>
      </trkpt>
      <trkpt lat="45.14444" lon="6.62411">
        <ele>2098</ele>
        <time>2019-08-18T03:05:24Z</time>
      </trkpt>
      <trkpt lat="45.14443" lon="6.62424">
        <ele>2099</ele>
        <time>2019-08-18T03:05:36Z</time>
      </trkpt>
      <trkpt lat="45.1444" lon="6.6243">
        <ele>2100</ele>
        <time>2019-08-18T03:05:43Z</time>
      </trkpt>
      <trkpt lat="45.14433" lon="6.62431">
        <ele>2102</ele>
        <time>2019-08-18T03:05:52Z</time>
      </trkpt>
      <trkpt lat="45.14427" lon="6.62427">
        <ele>2103</ele>
        <time>2019-08-18T03:06:01Z</time>
      </trkpt>
      <trkpt lat="45.14412" lon="6.62405">
        <ele>2104</ele>
        <time>2019-08-18T03:06:30Z</time>
      </trkpt>
      <trkpt lat="45.14407" lon="6.62384">
        <ele>2103</ele>
        <time>2019-08-18T03:06:51Z</time>
      </trkpt>
      <trkpt lat="45.14379" lon="6.62345">
        <ele>2107</ele>
        <time>2019-08-18T03:07:43Z</time>
      </trkpt>
      <trkpt lat="45.14378" lon="6.6232">
        <ele>2106</ele>
        <time>2019-08-18T03:08:07Z</time>
      </trkpt>
      <trkpt lat="45.14369" lon="6.62314">
        <ele>2108</ele>
        <time>2019-08-18T03:08:20Z</time>
      </trkpt>
      <trkpt lat="45.14358" lon="6.62298">
        <ele>2109</ele>
        <time>2019-08-18T03:08:41Z</time>
      </trkpt>
      <trkpt lat="45.14351" lon="6.62292">
        <ele>2110</ele>
        <time>2019-08-18T03:08:52Z</time>
      </trkpt>
      <trkpt lat="45.14344" lon="6.62292">
        <ele>2111</ele>
        <time>2019-08-18T03:09:01Z</time>
      </trkpt>
      <trkpt lat="45.14337" lon="6.623">
        <ele>2113</ele>
        <time>2019-08-18T03:09:13Z</time>
      </trkpt>
      <trkpt lat="45.14331" lon="6.62301">
        <ele>2114</ele>
        <time>2019-08-18T03:09:22Z</time>
      </trkpt>
      <trkpt lat="45.14323" lon="6.62298">
        <ele>2117</ele>
        <time>2019-08-18T03:09:33Z</time>
      </trkpt>
      <trkpt lat="45.14318" lon="6.62292">
        <ele>2118</ele>
        <time>2019-08-18T03:09:41Z</time>
      </trkpt>
      <trkpt lat="45.14318" lon="6.62288">
        <ele>2118</ele>
        <time>2019-08-18T03:09:45Z</time>
      </trkpt>
      <trkpt lat="45.14308" lon="6.62269">
        <ele>2118</ele>
        <time>2019-08-18T03:10:07Z</time>
      </trkpt>
      <trkpt lat="45.14304" lon="6.62263">
        <ele>2119</ele>
        <time>2019-08-18T03:10:15Z</time>
      </trkpt>
      <trkpt lat="45.14298" lon="6.62257">
        <ele>2120</ele>
        <time>2019-08-18T03:10:25Z</time>
      </trkpt>
      <trkpt lat="45.14285" lon="6.62247">
        <ele>2122</ele>
        <time>2019-08-18T03:10:45Z</time>
      </trkpt>
      <trkpt lat="45.14277" lon="6.62238">
        <ele>2124</ele>
        <time>2019-08-18T03:10:58Z</time>
      </trkpt>
      <trkpt lat="45.1427" lon="6.62227">
        <ele>2124</ele>
        <time>2019-08-18T03:11:12Z</time>
      </trkpt>
      <trkpt lat="45.14251" lon="6.62199">
        <ele>2125</ele>
        <time>2019-08-18T03:11:49Z</time>
      </trkpt>
      <trkpt lat="45.14248" lon="6.62193">
        <ele>2125</ele>
        <time>2019-08-18T03:11:56Z</time>
      </trkpt>
      <trkpt lat="45.14244" lon="6.62188">
        <ele>2125</ele>
        <time>2019-08-18T03:12:03Z</time>
      </trkpt>
      <trkpt lat="45.14235" lon="6.62183">
        <ele>2127</ele>
        <time>2019-08-18T03:12:16Z</time>
      </trkpt>
      <trkpt lat="45.14231" lon="6.62181">
        <ele>2127</ele>
        <time>2019-08-18T03:12:21Z</time>
      </trkpt>
      <trkpt lat="45.14227" lon="6.6218">
        <ele>2128</ele>
        <time>2019-08-18T03:12:27Z</time>
      </trkpt>
      <trkpt lat="45.14222" lon="6.6218">
        <ele>2129</ele>
        <time>2019-08-18T03:12:34Z</time>
      </trkpt>
      <trkpt lat="45.14202" lon="6.62185">
        <ele>2134</ele>
        <time>2019-08-18T03:13:01Z</time>
      </trkpt>
      <trkpt lat="45.14184" lon="6.62191">
        <ele>2139</ele>
        <time>2019-08-18T03:13:25Z</time>
      </trkpt>
      <trkpt lat="45.14171" lon="6.62194">
        <ele>2143</ele>
        <time>2019-08-18T03:13:43Z</time>
      </trkpt>
      <trkpt lat="45.14163" lon="6.62194">
        <ele>2145</ele>
        <time>2019-08-18T03:13:54Z</time>
      </trkpt>
      <trkpt lat="45.14155" lon="6.62193">
        <ele>2147</ele>
        <time>2019-08-18T03:14:04Z</time>
      </trkpt>
      <trkpt lat="45.14146" lon="6.6219">
        <ele>2149</ele>
        <time>2019-08-18T03:14:17Z</time>
      </trkpt>
      <trkpt lat="45.1413" lon="6.62182">
        <ele>2152</ele>
        <time>2019-08-18T03:14:39Z</time>
      </trkpt>
      <trkpt lat="45.14111" lon="6.62173">
        <ele>2156</ele>
        <time>2019-08-18T03:15:06Z</time>
      </trkpt>
      <trkpt lat="45.14106" lon="6.62172">
        <ele>2157</ele>
        <time>2019-08-18T03:15:13Z</time>
      </trkpt>
      <trkpt lat="45.14099" lon="6.62173">
        <ele>2159</ele>
        <time>2019-08-18T03:15:22Z</time>
      </trkpt>
      <trkpt lat="45.14076" lon="6.62171">
        <ele>2166</ele>
        <time>2019-08-18T03:15:53Z</time>
      </trkpt>
      <trkpt lat="45.14063" lon="6.62168">
        <ele>2170</ele>
        <time>2019-08-18T03:16:10Z</time>
      </trkpt>
      <trkpt lat="45.14054" lon="6.62162">
        <ele>2171</ele>
        <time>2019-08-18T03:16:24Z</time>
      </trkpt>
      <trkpt lat="45.14048" lon="6.62161">
        <ele>2173</ele>
        <time>2019-08-18T03:16:32Z</time>
      </trkpt>
      <trkpt lat="45.14042" lon="6.62162">
        <ele>2176</ele>
        <time>2019-08-18T03:16:40Z</time>
      </trkpt>
      <trkpt lat="45.14038" lon="6.62164">
        <ele>2178</ele>
        <time>2019-08-18T03:16:45Z</time>
      </trkpt>
      <trkpt lat="45.14033" lon="6.62175">
        <ele>2182</ele>
        <time>2019-08-18T03:16:58Z</time>
      </trkpt>
      <trkpt lat="45.1403" lon="6.62176">
        <ele>2183</ele>
        <time>2019-08-18T03:17:02Z</time>
      </trkpt>
      <trkpt lat="45.14025" lon="6.62169">
        <ele>2184</ele>
        <time>2019-08-18T03:17:11Z</time>
      </trkpt>
      <trkpt lat="45.1402" lon="6.6216">
        <ele>2183</ele>
        <time>2019-08-18T03:17:22Z</time>
      </trkpt>
      <trkpt lat="45.13997" lon="6.62142">
        <ele>2185</ele>
        <time>2019-08-18T03:17:57Z</time>
      </trkpt>
      <trkpt lat="45.13992" lon="6.62139">
        <ele>2186</ele>
        <time>2019-08-18T03:18:04Z</time>
      </trkpt>
      <trkpt lat="45.13984" lon="6.62128">
        <ele>2185</ele>
        <time>2019-08-18T03:18:19Z</time>
      </trkpt>
      <trkpt lat="45.13981" lon="6.62124">
        <ele>2184</ele>
        <time>2019-08-18T03:18:25Z</time>
      </trkpt>
      <trkpt lat="45.13977" lon="6.62121">
        <ele>2185</ele>
        <time>2019-08-18T03:18:31Z</time>
      </trkpt>
      <trkpt lat="45.13974" lon="6.62119">
        <ele>2185</ele>
        <time>2019-08-18T03:18:35Z</time>
      </trkpt>
      <trkpt lat="45.13957" lon="6.62119">
        <ele>2190</ele>
        <time>2019-08-18T03:18:58Z</time>
      </trkpt>
      <trkpt lat="45.13951" lon="6.62118">
        <ele>2192</ele>
        <time>2019-08-18T03:19:06Z</time>
      </trkpt>
      <trkpt lat="45.13945" lon="6.62114">
        <ele>2193</ele>
        <time>2019-08-18T03:19:15Z</time>
      </trkpt>
      <trkpt lat="45.13941" lon="6.62111">
        <ele>2194</ele>
        <time>2019-08-18T03:19:21Z</time>
      </trkpt>
      <trkpt lat="45.13938" lon="6.62108">
        <ele>2194</ele>
        <time>2019-08-18T03:19:26Z</time>
      </trkpt>
      <trkpt lat="45.13934" lon="6.62104">
        <ele>2194</ele>
        <time>2019-08-18T03:19:32Z</time>
      </trkpt>
      <trkpt lat="45.13924" lon="6.62098">
        <ele>2196</ele>
        <time>2019-08-18T03:19:47Z</time>
      </trkpt>
      <trkpt lat="45.13909" lon="6.62089">
        <ele>2199</ele>
        <time>2019-08-18T03:20:09Z</time>
      </trkpt>
      <trkpt lat="45.13888" lon="6.62079">
        <ele>2203</ele>
        <time>2019-08-18T03:20:38Z</time>
      </trkpt>
      <trkpt lat="45.13869" lon="6.62072">
        <ele>2208</ele>
        <time>2019-08-18T03:21:04Z</time>
      </trkpt>
      <trkpt lat="45.13866" lon="6.6207">
        <ele>2208</ele>
        <time>2019-08-18T03:21:09Z</time>
      </trkpt>
      <trkpt lat="45.13863" lon="6.62067">
        <ele>2209</ele>
        <time>2019-08-18T03:21:14Z</time>
      </trkpt>
      <trkpt lat="45.13859" lon="6.62063">
        <ele>2209</ele>
        <time>2019-08-18T03:21:20Z</time>
      </trkpt>
      <trkpt lat="45.13854" lon="6.62055">
        <ele>2209</ele>
        <time>2019-08-18T03:21:30Z</time>
      </trkpt>
      <trkpt lat="45.13845" lon="6.62046">
        <ele>2211</ele>
        <time>2019-08-18T03:21:45Z</time>
      </trkpt>
      <trkpt lat="45.13841" lon="6.62044">
        <ele>2211</ele>
        <time>2019-08-18T03:21:51Z</time>
      </trkpt>
      <trkpt lat="45.13836" lon="6.62042">
        <ele>2213</ele>
        <time>2019-08-18T03:21:57Z</time>
      </trkpt>
      <trkpt lat="45.13832" lon="6.62042">
        <ele>2214</ele>
        <time>2019-08-18T03:22:03Z</time>
      </trkpt>
      <trkpt lat="45.13829" lon="6.62041">
        <ele>2215</ele>
        <time>2019-08-18T03:22:07Z</time>
      </trkpt>
      <trkpt lat="45.13827" lon="6.62039">
        <ele>2215</ele>
        <time>2019-08-18T03:22:10Z</time>
      </trkpt>
      <trkpt lat="45.13816" lon="6.62014">
        <ele>2214</ele>
        <time>2019-08-18T03:22:38Z</time>
      </trkpt>
      <trkpt lat="45.13812" lon="6.62011">
        <ele>2215</ele>
        <time>2019-08-18T03:22:44Z</time>
      </trkpt>
      <trkpt lat="45.13802" lon="6.62009">
        <ele>2217</ele>
        <time>2019-08-18T03:22:57Z</time>
      </trkpt>
      <trkpt lat="45.13789" lon="6.62007">
        <ele>2221</ele>
        <time>2019-08-18T03:23:15Z</time>
      </trkpt>
      <trkpt lat="45.13777" lon="6.62002">
        <ele>2223</ele>
        <time>2019-08-18T03:23:32Z</time>
      </trkpt>
      <trkpt lat="45.13767" lon="6.61998">
        <ele>2225</ele>
        <time>2019-08-18T03:23:45Z</time>
      </trkpt>
      <trkpt lat="45.13751" lon="6.61998">
        <ele>2229</ele>
        <time>2019-08-18T03:24:07Z</time>
      </trkpt>
      <trkpt lat="45.13748" lon="6.61998">
        <ele>2230</ele>
        <time>2019-08-18T03:24:11Z</time>
      </trkpt>
      <trkpt lat="45.13742" lon="6.61994">
        <ele>2230</ele>
        <time>2019-08-18T03:24:20Z</time>
      </trkpt>
      <trkpt lat="45.13739" lon="6.61992">
        <ele>2230</ele>
        <time>2019-08-18T03:24:24Z</time>
      </trkpt>
      <trkpt lat="45.13723" lon="6.61992">
        <ele>2233</ele>
        <time>2019-08-18T03:24:45Z</time>
      </trkpt>
      <trkpt lat="45.13702" lon="6.61994">
        <ele>2237</ele>
        <time>2019-08-18T03:25:14Z</time>
      </trkpt>
      <trkpt lat="45.13697" lon="6.61995">
        <ele>2239</ele>
        <time>2019-08-18T03:25:20Z</time>
      </trkpt>
      <trkpt lat="45.13691" lon="6.61997">
        <ele>2240</ele>
        <time>2019-08-18T03:25:28Z</time>
      </trkpt>
      <trkpt lat="45.13688" lon="6.61999">
        <ele>2242</ele>
        <time>2019-08-18T03:25:33Z</time>
      </trkpt>
      <trkpt lat="45.13684" lon="6.62001">
        <ele>2243</ele>
        <time>2019-08-18T03:25:39Z</time>
      </trkpt>
      <trkpt lat="45.13682" lon="6.62001">
        <ele>2243</ele>
        <time>2019-08-18T03:25:41Z</time>
      </trkpt>
      <trkpt lat="45.13679" lon="6.62">
        <ele>2244</ele>
        <time>2019-08-18T03:25:45Z</time>
      </trkpt>
      <trkpt lat="45.13672" lon="6.61995">
        <ele>2243</ele>
        <time>2019-08-18T03:25:56Z</time>
      </trkpt>
      <trkpt lat="45.13668" lon="6.61993">
        <ele>2243</ele>
        <time>2019-08-18T03:26:01Z</time>
      </trkpt>
      <trkpt lat="45.13665" lon="6.61993">
        <ele>2244</ele>
        <time>2019-08-18T03:26:05Z</time>
      </trkpt>
      <trkpt lat="45.13661" lon="6.61993">
        <ele>2244</ele>
        <time>2019-08-18T03:26:11Z</time>
      </trkpt>
      <trkpt lat="45.13649" lon="6.61998">
        <ele>2248</ele>
        <time>2019-08-18T03:26:28Z</time>
      </trkpt>
      <trkpt lat="45.13636" lon="6.62007">
        <ele>2252</ele>
        <time>2019-08-18T03:26:47Z</time>
      </trkpt>
      <trkpt lat="45.13622" lon="6.6201">
        <ele>2255</ele>
        <time>2019-08-18T03:27:06Z</time>
      </trkpt>
      <trkpt lat="45.13619" lon="6.62011">
        <ele>2256</ele>
        <time>2019-08-18T03:27:10Z</time>
      </trkpt>
      <trkpt lat="45.13614" lon="6.62016">
        <ele>2258</ele>
        <time>2019-08-18T03:27:18Z</time>
      </trkpt>
      <trkpt lat="45.13611" lon="6.6202">
        <ele>2259</ele>
        <time>2019-08-18T03:27:23Z</time>
      </trkpt>
      <trkpt lat="45.1359" lon="6.62031">
        <ele>2265</ele>
        <time>2019-08-18T03:27:53Z</time>
      </trkpt>
      <trkpt lat="45.13586" lon="6.62032">
        <ele>2266</ele>
        <time>2019-08-18T03:27:59Z</time>
      </trkpt>
      <trkpt lat="45.13581" lon="6.62031">
        <ele>2266</ele>
        <time>2019-08-18T03:28:06Z</time>
      </trkpt>
      <trkpt lat="45.13571" lon="6.62025">
        <ele>2267</ele>
        <time>2019-08-18T03:28:20Z</time>
      </trkpt>
      <trkpt lat="45.13543" lon="6.62012">
        <ele>2271</ele>
        <time>2019-08-18T03:28:59Z</time>
      </trkpt>
      <trkpt lat="45.13508" lon="6.61988">
        <ele>2272</ele>
        <time>2019-08-18T03:29:51Z</time>
      </trkpt>
      <trkpt lat="45.13504" lon="6.61985">
        <ele>2272</ele>
        <time>2019-08-18T03:29:57Z</time>
      </trkpt>
      <trkpt lat="45.13499" lon="6.61983">
        <ele>2273</ele>
        <time>2019-08-18T03:30:04Z</time>
      </trkpt>
      <trkpt lat="45.13494" lon="6.61981">
        <ele>2273</ele>
        <time>2019-08-18T03:30:11Z</time>
      </trkpt>
      <trkpt lat="45.13485" lon="6.6198">
        <ele>2276</ele>
        <time>2019-08-18T03:30:23Z</time>
      </trkpt>
      <trkpt lat="45.13469" lon="6.61981">
        <ele>2280</ele>
        <time>2019-08-18T03:30:45Z</time>
      </trkpt>
      <trkpt lat="45.13451" lon="6.61981">
        <ele>2285</ele>
        <time>2019-08-18T03:31:09Z</time>
      </trkpt>
      <trkpt lat="45.13445" lon="6.6198">
        <ele>2287</ele>
        <time>2019-08-18T03:31:17Z</time>
      </trkpt>
      <trkpt lat="45.13439" lon="6.61978">
        <ele>2288</ele>
        <time>2019-08-18T03:31:25Z</time>
      </trkpt>
      <trkpt lat="45.13435" lon="6.61975">
        <ele>2289</ele>
        <time>2019-08-18T03:31:31Z</time>
      </trkpt>
      <trkpt lat="45.1342" lon="6.6196">
        <ele>2290</ele>
        <time>2019-08-18T03:31:55Z</time>
      </trkpt>
      <trkpt lat="45.13407" lon="6.61944">
        <ele>2290</ele>
        <time>2019-08-18T03:32:18Z</time>
      </trkpt>
      <trkpt lat="45.13405" lon="6.61941">
        <ele>2290</ele>
        <time>2019-08-18T03:32:22Z</time>
      </trkpt>
      <trkpt lat="45.13396" lon="6.61936">
        <ele>2290</ele>
        <time>2019-08-18T03:32:35Z</time>
      </trkpt>
      <trkpt lat="45.13385" lon="6.61932">
        <ele>2291</ele>
        <time>2019-08-18T03:32:50Z</time>
      </trkpt>
      <trkpt lat="45.13369" lon="6.61931">
        <ele>2294</ele>
        <time>2019-08-18T03:33:12Z</time>
      </trkpt>
      <trkpt lat="45.13363" lon="6.61931">
        <ele>2295</ele>
        <time>2019-08-18T03:33:20Z</time>
      </trkpt>
      <trkpt lat="45.13355" lon="6.61937">
        <ele>2297</ele>
        <time>2019-08-18T03:33:32Z</time>
      </trkpt>
      <trkpt lat="45.13322" lon="6.61949">
        <ele>2303</ele>
        <time>2019-08-18T03:34:17Z</time>
      </trkpt>
      <trkpt lat="45.13314" lon="6.61952">
        <ele>2304</ele>
        <time>2019-08-18T03:34:28Z</time>
      </trkpt>
      <trkpt lat="45.13309" lon="6.61956">
        <ele>2305</ele>
        <time>2019-08-18T03:34:36Z</time>
      </trkpt>
      <trkpt lat="45.13299" lon="6.61965">
        <ele>2307</ele>
        <time>2019-08-18T03:34:52Z</time>
      </trkpt>
      <trkpt lat="45.13276" lon="6.61979">
        <ele>2310</ele>
        <time>2019-08-18T03:35:25Z</time>
      </trkpt>
      <trkpt lat="45.1327" lon="6.61981">
        <ele>2310</ele>
        <time>2019-08-18T03:35:33Z</time>
      </trkpt>
      <trkpt lat="45.13242" lon="6.61983">
        <ele>2312</ele>
        <time>2019-08-18T03:36:11Z</time>
      </trkpt>
      <trkpt lat="45.13236" lon="6.61983">
        <ele>2313</ele>
        <time>2019-08-18T03:36:19Z</time>
      </trkpt>
      <trkpt lat="45.13231" lon="6.61982">
        <ele>2313</ele>
        <time>2019-08-18T03:36:26Z</time>
      </trkpt>
      <trkpt lat="45.13225" lon="6.6198">
        <ele>2313</ele>
        <time>2019-08-18T03:36:34Z</time>
      </trkpt>
      <trkpt lat="45.13217" lon="6.61979">
        <ele>2313</ele>
        <time>2019-08-18T03:36:44Z</time>
      </trkpt>
      <trkpt lat="45.13212" lon="6.61978">
        <ele>2313</ele>
        <time>2019-08-18T03:36:51Z</time>
      </trkpt>
      <trkpt lat="45.13209" lon="6.61977">
        <ele>2314</ele>
        <time>2019-08-18T03:36:55Z</time>
      </trkpt>
      <trkpt lat="45.13204" lon="6.61973">
        <ele>2313</ele>
        <time>2019-08-18T03:37:03Z</time>
      </trkpt>
      <trkpt lat="45.13194" lon="6.61964">
        <ele>2313</ele>
        <time>2019-08-18T03:37:19Z</time>
      </trkpt>
      <trkpt lat="45.13171" lon="6.6195">
        <ele>2313</ele>
        <time>2019-08-18T03:37:52Z</time>
      </trkpt>
      <trkpt lat="45.13166" lon="6.61946">
        <ele>2313</ele>
        <time>2019-08-18T03:38:00Z</time>
      </trkpt>
      <trkpt lat="45.13162" lon="6.61942">
        <ele>2313</ele>
        <time>2019-08-18T03:38:06Z</time>
      </trkpt>
      <trkpt lat="45.13145" lon="6.61916">
        <ele>2313</ele>
        <time>2019-08-18T03:38:40Z</time>
      </trkpt>
      <trkpt lat="45.13138" lon="6.61907">
        <ele>2314</ele>
        <time>2019-08-18T03:38:52Z</time>
      </trkpt>
      <trkpt lat="45.13128" lon="6.61897">
        <ele>2315</ele>
        <time>2019-08-18T03:39:09Z</time>
      </trkpt>
      <trkpt lat="45.13109" lon="6.61881">
        <ele>2316</ele>
        <time>2019-08-18T03:39:38Z</time>
      </trkpt>
      <trkpt lat="45.13093" lon="6.6187">
        <ele>2318</ele>
        <time>2019-08-18T03:40:02Z</time>
      </trkpt>
      <trkpt lat="45.13074" lon="6.61859">
        <ele>2320</ele>
        <time>2019-08-18T03:40:29Z</time>
      </trkpt>
      <trkpt lat="45.13044" lon="6.61848">
        <ele>2324</ele>
        <time>2019-08-18T03:41:11Z</time>
      </trkpt>
      <trkpt lat="45.13031" lon="6.61846">
        <ele>2325</ele>
        <time>2019-08-18T03:41:28Z</time>
      </trkpt>
      <trkpt lat="45.13017" lon="6.61846">
        <ele>2327</ele>
        <time>2019-08-18T03:41:47Z</time>
      </trkpt>
      <trkpt lat="45.13009" lon="6.61847">
        <ele>2329</ele>
        <time>2019-08-18T03:41:57Z</time>
      </trkpt>
      <trkpt lat="45.13005" lon="6.61847">
        <ele>2329</ele>
        <time>2019-08-18T03:42:03Z</time>
      </trkpt>
      <trkpt lat="45.12993" lon="6.61851">
        <ele>2331</ele>
        <time>2019-08-18T03:42:19Z</time>
      </trkpt>
      <trkpt lat="45.12981" lon="6.61853">
        <ele>2333</ele>
        <time>2019-08-18T03:42:35Z</time>
      </trkpt>
      <trkpt lat="45.12978" lon="6.61853">
        <ele>2333</ele>
        <time>2019-08-18T03:42:39Z</time>
      </trkpt>
      <trkpt lat="45.12975" lon="6.61851">
        <ele>2333</ele>
        <time>2019-08-18T03:42:44Z</time>
      </trkpt>
      <trkpt lat="45.12973" lon="6.61851">
        <ele>2333</ele>
        <time>2019-08-18T03:42:47Z</time>
      </trkpt>
      <trkpt lat="45.1297" lon="6.61851">
        <ele>2334</ele>
        <time>2019-08-18T03:42:51Z</time>
      </trkpt>
      <trkpt lat="45.12955" lon="6.61854">
        <ele>2336</ele>
        <time>2019-08-18T03:43:11Z</time>
      </trkpt>
      <trkpt lat="45.12942" lon="6.61855">
        <ele>2337</ele>
        <time>2019-08-18T03:43:28Z</time>
      </trkpt>
      <trkpt lat="45.12928" lon="6.61855">
        <ele>2339</ele>
        <time>2019-08-18T03:43:47Z</time>
      </trkpt>
      <trkpt lat="45.12907" lon="6.61853">
        <ele>2341</ele>
        <time>2019-08-18T03:44:15Z</time>
      </trkpt>
      <trkpt lat="45.12904" lon="6.61852">
        <ele>2341</ele>
        <time>2019-08-18T03:44:19Z</time>
      </trkpt>
      <trkpt lat="45.12899" lon="6.61849">
        <ele>2341</ele>
        <time>2019-08-18T03:44:26Z</time>
      </trkpt>
      <trkpt lat="45.12881" lon="6.61836">
        <ele>2339</ele>
        <time>2019-08-18T03:44:53Z</time>
      </trkpt>
      <trkpt lat="45.12861" lon="6.61814">
        <ele>2338</ele>
        <time>2019-08-18T03:45:27Z</time>
      </trkpt>
      <trkpt lat="45.12857" lon="6.6181">
        <ele>2338</ele>
        <time>2019-08-18T03:45:33Z</time>
      </trkpt>
      <trkpt lat="45.12851" lon="6.61807">
        <ele>2338</ele>
        <time>2019-08-18T03:45:42Z</time>
      </trkpt>
      <trkpt lat="45.12846" lon="6.61807">
        <ele>2339</ele>
        <time>2019-08-18T03:45:49Z</time>
      </trkpt>
      <trkpt lat="45.12843" lon="6.61805">
        <ele>2339</ele>
        <time>2019-08-18T03:45:53Z</time>
      </trkpt>
      <trkpt lat="45.12841" lon="6.61804">
        <ele>2339</ele>
        <time>2019-08-18T03:45:56Z</time>
      </trkpt>
      <trkpt lat="45.12835" lon="6.61795">
        <ele>2338</ele>
        <time>2019-08-18T03:46:08Z</time>
      </trkpt>
      <trkpt lat="45.12833" lon="6.61791">
        <ele>2338</ele>
        <time>2019-08-18T03:46:12Z</time>
      </trkpt>
      <trkpt lat="45.12833" lon="6.61789">
        <ele>2338</ele>
        <time>2019-08-18T03:46:14Z</time>
      </trkpt>
      <trkpt lat="45.12831" lon="6.61786">
        <ele>2337</ele>
        <time>2019-08-18T03:46:18Z</time>
      </trkpt>
      <trkpt lat="45.12812" lon="6.61773">
        <ele>2339</ele>
        <time>2019-08-18T03:46:46Z</time>
      </trkpt>
      <trkpt lat="45.12794" lon="6.61761">
        <ele>2341</ele>
        <time>2019-08-18T03:47:13Z</time>
      </trkpt>
      <trkpt lat="45.12789" lon="6.61759">
        <ele>2342</ele>
        <time>2019-08-18T03:47:20Z</time>
      </trkpt>
      <trkpt lat="45.12787" lon="6.61758">
        <ele>2342</ele>
        <time>2019-08-18T03:47:22Z</time>
      </trkpt>
      <trkpt lat="45.12785" lon="6.61756">
        <ele>2342</ele>
        <time>2019-08-18T03:47:26Z</time>
      </trkpt>
      <trkpt lat="45.12781" lon="6.61752">
        <ele>2342</ele>
        <time>2019-08-18T03:47:32Z</time>
      </trkpt>
      <trkpt lat="45.1277" lon="6.61739">
        <ele>2343</ele>
        <time>2019-08-18T03:47:51Z</time>
      </trkpt>
      <trkpt lat="45.12751" lon="6.61714">
        <ele>2344</ele>
        <time>2019-08-18T03:48:26Z</time>
      </trkpt>
      <trkpt lat="45.12736" lon="6.61694">
        <ele>2348</ele>
        <time>2019-08-18T03:48:53Z</time>
      </trkpt>
      <trkpt lat="45.12721" lon="6.61668">
        <ele>2350</ele>
        <time>2019-08-18T03:49:25Z</time>
      </trkpt>
      <trkpt lat="45.12706" lon="6.61643">
        <ele>2350</ele>
        <time>2019-08-18T03:49:56Z</time>
      </trkpt>
      <trkpt lat="45.12688" lon="6.6162">
        <ele>2351</ele>
        <time>2019-08-18T03:50:28Z</time>
      </trkpt>
      <trkpt lat="45.12678" lon="6.61607">
        <ele>2351</ele>
        <time>2019-08-18T03:50:46Z</time>
      </trkpt>
      <trkpt lat="45.12653" lon="6.61587">
        <ele>2355</ele>
        <time>2019-08-18T03:51:25Z</time>
      </trkpt>
      <trkpt lat="45.12639" lon="6.61575">
        <ele>2358</ele>
        <time>2019-08-18T03:51:47Z</time>
      </trkpt>
      <trkpt lat="45.12614" lon="6.61551">
        <ele>2362</ele>
        <time>2019-08-18T03:52:27Z</time>
      </trkpt>
      <trkpt lat="45.1261" lon="6.61547">
        <ele>2362</ele>
        <time>2019-08-18T03:52:33Z</time>
      </trkpt>
      <trkpt lat="45.12608" lon="6.61544">
        <ele>2363</ele>
        <time>2019-08-18T03:52:37Z</time>
      </trkpt>
      <trkpt lat="45.12604" lon="6.61533">
        <ele>2362</ele>
        <time>2019-08-18T03:52:49Z</time>
      </trkpt>
      <trkpt lat="45.126" lon="6.61528">
        <ele>2362</ele>
        <time>2019-08-18T03:52:56Z</time>
      </trkpt>
      <trkpt lat="45.12599" lon="6.61526">
        <ele>2362</ele>
        <time>2019-08-18T03:52:58Z</time>
      </trkpt>
      <trkpt lat="45.12591" lon="6.61521">
        <ele>2364</ele>
        <time>2019-08-18T03:53:10Z</time>
      </trkpt>
      <trkpt lat="45.12588" lon="6.61518">
        <ele>2365</ele>
        <time>2019-08-18T03:53:15Z</time>
      </trkpt>
      <trkpt lat="45.12586" lon="6.61515">
        <ele>2365</ele>
        <time>2019-08-18T03:53:19Z</time>
      </trkpt>
      <trkpt lat="45.12582" lon="6.61506">
        <ele>2365</ele>
        <time>2019-08-18T03:53:29Z</time>
      </trkpt>
      <trkpt lat="45.12579" lon="6.61502">
        <ele>2365</ele>
        <time>2019-08-18T03:53:34Z</time>
      </trkpt>
      <trkpt lat="45.12576" lon="6.61501">
        <ele>2366</ele>
        <time>2019-08-18T03:53:38Z</time>
      </trkpt>
      <trkpt lat="45.12571" lon="6.61496">
        <ele>2367</ele>
        <time>2019-08-18T03:53:47Z</time>
      </trkpt>
      <trkpt lat="45.12569" lon="6.61494">
        <ele>2367</ele>
        <time>2019-08-18T03:53:50Z</time>
      </trkpt>
      <trkpt lat="45.12567" lon="6.6149">
        <ele>2367</ele>
        <time>2019-08-18T03:53:54Z</time>
      </trkpt>
      <trkpt lat="45.12566" lon="6.61487">
        <ele>2367</ele>
        <time>2019-08-18T03:53:58Z</time>
      </trkpt>
      <trkpt lat="45.12551" lon="6.61478">
        <ele>2371</ele>
        <time>2019-08-18T03:54:19Z</time>
      </trkpt>
      <trkpt lat="45.12548" lon="6.61475">
        <ele>2371</ele>
        <time>2019-08-18T03:54:24Z</time>
      </trkpt>
      <trkpt lat="45.12545" lon="6.61474">
        <ele>2372</ele>
        <time>2019-08-18T03:54:28Z</time>
      </trkpt>
      <trkpt lat="45.12544" lon="6.61473">
        <ele>2372</ele>
        <time>2019-08-18T03:54:30Z</time>
      </trkpt>
      <trkpt lat="45.12542" lon="6.61474">
        <ele>2373</ele>
        <time>2019-08-18T03:54:33Z</time>
      </trkpt>
      <trkpt lat="45.1254" lon="6.61475">
        <ele>2374</ele>
        <time>2019-08-18T03:54:36Z</time>
      </trkpt>
      <trkpt lat="45.12538" lon="6.61474">
        <ele>2374</ele>
        <time>2019-08-18T03:54:38Z</time>
      </trkpt>
      <trkpt lat="45.12535" lon="6.61472">
        <ele>2375</ele>
        <time>2019-08-18T03:54:43Z</time>
      </trkpt>
      <trkpt lat="45.12533" lon="6.61468">
        <ele>2375</ele>
        <time>2019-08-18T03:54:47Z</time>
      </trkpt>
      <trkpt lat="45.12528" lon="6.61457">
        <ele>2375</ele>
        <time>2019-08-18T03:55:00Z</time>
      </trkpt>
      <trkpt lat="45.12525" lon="6.61453">
        <ele>2375</ele>
        <time>2019-08-18T03:55:05Z</time>
      </trkpt>
      <trkpt lat="45.12523" lon="6.61451">
        <ele>2375</ele>
        <time>2019-08-18T03:55:09Z</time>
      </trkpt>
      <trkpt lat="45.12522" lon="6.61448">
        <ele>2375</ele>
        <time>2019-08-18T03:55:12Z</time>
      </trkpt>
      <trkpt lat="45.12521" lon="6.61446">
        <ele>2375</ele>
        <time>2019-08-18T03:55:14Z</time>
      </trkpt>
      <trkpt lat="45.12522" lon="6.61444">
        <ele>2375</ele>
        <time>2019-08-18T03:55:16Z</time>
      </trkpt>
      <trkpt lat="45.12521" lon="6.61442">
        <ele>2375</ele>
        <time>2019-08-18T03:55:19Z</time>
      </trkpt>
      <trkpt lat="45.12509" lon="6.61432">
        <ele>2376</ele>
        <time>2019-08-18T03:55:37Z</time>
      </trkpt>
      <trkpt lat="45.12506" lon="6.61427">
        <ele>2376</ele>
        <time>2019-08-18T03:55:43Z</time>
      </trkpt>
      <trkpt lat="45.125" lon="6.61413">
        <ele>2376</ele>
        <time>2019-08-18T03:55:59Z</time>
      </trkpt>
      <trkpt lat="45.12499" lon="6.61408">
        <ele>2376</ele>
        <time>2019-08-18T03:56:04Z</time>
      </trkpt>
      <trkpt lat="45.12498" lon="6.61405">
        <ele>2376</ele>
        <time>2019-08-18T03:56:07Z</time>
      </trkpt>
      <trkpt lat="45.12499" lon="6.61398">
        <ele>2376</ele>
        <time>2019-08-18T03:56:14Z</time>
      </trkpt>
      <trkpt lat="45.12499" lon="6.61397">
        <ele>2376</ele>
        <time>2019-08-18T03:56:14Z</time>
      </trkpt>
      <trkpt lat="45.12479" lon="6.61364">
        <ele>2380</ele>
        <time>2019-08-18T03:56:55Z</time>
      </trkpt>
      <trkpt lat="45.1247" lon="6.61349">
        <ele>2381</ele>
        <time>2019-08-18T03:57:14Z</time>
      </trkpt>
      <trkpt lat="45.12464" lon="6.61333">
        <ele>2380</ele>
        <time>2019-08-18T03:57:31Z</time>
      </trkpt>
      <trkpt lat="45.12462" lon="6.61328">
        <ele>2381</ele>
        <time>2019-08-18T03:57:36Z</time>
      </trkpt>
      <trkpt lat="45.12462" lon="6.61302">
        <ele>2379</ele>
        <time>2019-08-18T03:58:01Z</time>
      </trkpt>
      <trkpt lat="45.12462" lon="6.61299">
        <ele>2379</ele>
        <time>2019-08-18T03:58:04Z</time>
      </trkpt>
      <trkpt lat="45.1246" lon="6.61294">
        <ele>2379</ele>
        <time>2019-08-18T03:58:09Z</time>
      </trkpt>
      <trkpt lat="45.12459" lon="6.61288">
        <ele>2379</ele>
        <time>2019-08-18T03:58:15Z</time>
      </trkpt>
      <trkpt lat="45.12459" lon="6.61285">
        <ele>2379</ele>
        <time>2019-08-18T03:58:18Z</time>
      </trkpt>
      <trkpt lat="45.12458" lon="6.61281">
        <ele>2379</ele>
        <time>2019-08-18T03:58:22Z</time>
      </trkpt>
      <trkpt lat="45.12459" lon="6.61278">
        <ele>2378</ele>
        <time>2019-08-18T03:58:25Z</time>
      </trkpt>
      <trkpt lat="45.12458" lon="6.61275">
        <ele>2378</ele>
        <time>2019-08-18T03:58:28Z</time>
      </trkpt>
      <trkpt lat="45.12456" lon="6.61273">
        <ele>2379</ele>
        <time>2019-08-18T03:58:31Z</time>
      </trkpt>
      <trkpt lat="45.12454" lon="6.61271">
        <ele>2379</ele>
        <time>2019-08-18T03:58:35Z</time>
      </trkpt>
      <trkpt lat="45.12451" lon="6.61263">
        <ele>2380</ele>
        <time>2019-08-18T03:58:43Z</time>
      </trkpt>
      <trkpt lat="45.12449" lon="6.61261">
        <ele>2380</ele>
        <time>2019-08-18T03:58:46Z</time>
      </trkpt>
      <trkpt lat="45.12447" lon="6.6126">
        <ele>2380</ele>
        <time>2019-08-18T03:58:49Z</time>
      </trkpt>
      <trkpt lat="45.12437" lon="6.61259">
        <ele>2383</ele>
        <time>2019-08-18T03:59:03Z</time>
      </trkpt>
      <trkpt lat="45.12433" lon="6.61258">
        <ele>2384</ele>
        <time>2019-08-18T03:59:08Z</time>
      </trkpt>
      <trkpt lat="45.12431" lon="6.61257">
        <ele>2384</ele>
        <time>2019-08-18T03:59:11Z</time>
      </trkpt>
      <trkpt lat="45.12429" lon="6.61254">
        <ele>2385</ele>
        <time>2019-08-18T03:59:15Z</time>
      </trkpt>
      <trkpt lat="45.12427" lon="6.61251">
        <ele>2385</ele>
        <time>2019-08-18T03:59:19Z</time>
      </trkpt>
      <trkpt lat="45.12424" lon="6.61239">
        <ele>2385</ele>
        <time>2019-08-18T03:59:31Z</time>
      </trkpt>
      <trkpt lat="45.12423" lon="6.61234">
        <ele>2385</ele>
        <time>2019-08-18T03:59:35Z</time>
      </trkpt>
      <trkpt lat="45.12423" lon="6.61231">
        <ele>2385</ele>
        <time>2019-08-18T03:59:38Z</time>
      </trkpt>
      <trkpt lat="45.12423" lon="6.61227">
        <ele>2385</ele>
        <time>2019-08-18T03:59:42Z</time>
      </trkpt>
      <trkpt lat="45.12422" lon="6.61222">
        <ele>2385</ele>
        <time>2019-08-18T03:59:47Z</time>
      </trkpt>
      <trkpt lat="45.12422" lon="6.61217">
        <ele>2385</ele>
        <time>2019-08-18T03:59:52Z</time>
      </trkpt>
      <trkpt lat="45.12405" lon="6.61167">
        <ele>2389</ele>
        <time>2019-08-18T04:00:44Z</time>
      </trkpt>
      <trkpt lat="45.12403" lon="6.6116">
        <ele>2390</ele>
        <time>2019-08-18T04:00:51Z</time>
      </trkpt>
      <trkpt lat="45.12397" lon="6.6113">
        <ele>2390</ele>
        <time>2019-08-18T04:01:20Z</time>
      </trkpt>
      <trkpt lat="45.12396" lon="6.61119">
        <ele>2390</ele>
        <time>2019-08-18T04:01:31Z</time>
      </trkpt>
      <trkpt lat="45.12394" lon="6.61113">
        <ele>2390</ele>
        <time>2019-08-18T04:01:37Z</time>
      </trkpt>
      <trkpt lat="45.12389" lon="6.61093">
        <ele>2391</ele>
        <time>2019-08-18T04:01:57Z</time>
      </trkpt>
      <trkpt lat="45.1238" lon="6.61067">
        <ele>2393</ele>
        <time>2019-08-18T04:02:24Z</time>
      </trkpt>
      <trkpt lat="45.12378" lon="6.61062">
        <ele>2393</ele>
        <time>2019-08-18T04:02:30Z</time>
      </trkpt>
      <trkpt lat="45.12374" lon="6.61033">
        <ele>2392</ele>
        <time>2019-08-18T04:02:58Z</time>
      </trkpt>
      <trkpt lat="45.12373" lon="6.61024">
        <ele>2392</ele>
        <time>2019-08-18T04:03:06Z</time>
      </trkpt>
      <trkpt lat="45.12369" lon="6.61016">
        <ele>2393</ele>
        <time>2019-08-18T04:03:15Z</time>
      </trkpt>
      <trkpt lat="45.12357" lon="6.60995">
        <ele>2396</ele>
        <time>2019-08-18T04:03:41Z</time>
      </trkpt>
      <trkpt lat="45.1235" lon="6.60985">
        <ele>2398</ele>
        <time>2019-08-18T04:03:54Z</time>
      </trkpt>
      <trkpt lat="45.12342" lon="6.60976">
        <ele>2400</ele>
        <time>2019-08-18T04:04:08Z</time>
      </trkpt>
      <trkpt lat="45.1233" lon="6.60961">
        <ele>2402</ele>
        <time>2019-08-18T04:04:29Z</time>
      </trkpt>
      <trkpt lat="45.12324" lon="6.60955">
        <ele>2402</ele>
        <time>2019-08-18T04:04:39Z</time>
      </trkpt>
      <trkpt lat="45.12321" lon="6.60955">
        <ele>2403</ele>
        <time>2019-08-18T04:04:43Z</time>
      </trkpt>
      <trkpt lat="45.12318" lon="6.60953">
        <ele>2403</ele>
        <time>2019-08-18T04:04:47Z</time>
      </trkpt>
      <trkpt lat="45.12311" lon="6.60948">
        <ele>2404</ele>
        <time>2019-08-18T04:04:58Z</time>
      </trkpt>
      <trkpt lat="45.12301" lon="6.60943">
        <ele>2406</ele>
        <time>2019-08-18T04:05:12Z</time>
      </trkpt>
      <trkpt lat="45.12297" lon="6.60938">
        <ele>2406</ele>
        <time>2019-08-18T04:05:19Z</time>
      </trkpt>
      <trkpt lat="45.12294" lon="6.60933">
        <ele>2406</ele>
        <time>2019-08-18T04:05:25Z</time>
      </trkpt>
      <trkpt lat="45.1229" lon="6.60926">
        <ele>2407</ele>
        <time>2019-08-18T04:05:34Z</time>
      </trkpt>
      <trkpt lat="45.12288" lon="6.60919">
        <ele>2406</ele>
        <time>2019-08-18T04:05:41Z</time>
      </trkpt>
      <trkpt lat="45.12285" lon="6.60909">
        <ele>2407</ele>
        <time>2019-08-18T04:05:51Z</time>
      </trkpt>
      <trkpt lat="45.12285" lon="6.60904">
        <ele>2407</ele>
        <time>2019-08-18T04:05:56Z</time>
      </trkpt>
      <trkpt lat="45.12282" lon="6.60894">
        <ele>2408</ele>
        <time>2019-08-18T04:06:06Z</time>
      </trkpt>
      <trkpt lat="45.12275" lon="6.60873">
        <ele>2410</ele>
        <time>2019-08-18T04:06:28Z</time>
      </trkpt>
      <trkpt lat="45.12271" lon="6.60866">
        <ele>2411</ele>
        <time>2019-08-18T04:06:36Z</time>
      </trkpt>
      <trkpt lat="45.12268" lon="6.60861">
        <ele>2412</ele>
        <time>2019-08-18T04:06:42Z</time>
      </trkpt>
      <trkpt lat="45.12254" lon="6.60845">
        <ele>2416</ele>
        <time>2019-08-18T04:07:06Z</time>
      </trkpt>
      <trkpt lat="45.12252" lon="6.60842">
        <ele>2416</ele>
        <time>2019-08-18T04:07:10Z</time>
      </trkpt>
      <trkpt lat="45.12247" lon="6.60828">
        <ele>2418</ele>
        <time>2019-08-18T04:07:25Z</time>
      </trkpt>
      <trkpt lat="45.12245" lon="6.60817">
        <ele>2418</ele>
        <time>2019-08-18T04:07:36Z</time>
      </trkpt>
      <trkpt lat="45.12243" lon="6.60813">
        <ele>2418</ele>
        <time>2019-08-18T04:07:40Z</time>
      </trkpt>
      <trkpt lat="45.12237" lon="6.608">
        <ele>2419</ele>
        <time>2019-08-18T04:07:55Z</time>
      </trkpt>
      <trkpt lat="45.12223" lon="6.60785">
        <ele>2421</ele>
        <time>2019-08-18T04:08:19Z</time>
      </trkpt>
      <trkpt lat="45.12218" lon="6.60781">
        <ele>2422</ele>
        <time>2019-08-18T04:08:26Z</time>
      </trkpt>
      <trkpt lat="45.12215" lon="6.60777">
        <ele>2422</ele>
        <time>2019-08-18T04:08:32Z</time>
      </trkpt>
      <trkpt lat="45.12213" lon="6.60774">
        <ele>2422</ele>
        <time>2019-08-18T04:08:36Z</time>
      </trkpt>
      <trkpt lat="45.12208" lon="6.60764">
        <ele>2422</ele>
        <time>2019-08-18T04:08:47Z</time>
      </trkpt>
      <trkpt lat="45.12207" lon="6.60761">
        <ele>2423</ele>
        <time>2019-08-18T04:08:50Z</time>
      </trkpt>
      <trkpt lat="45.12204" lon="6.60759">
        <ele>2423</ele>
        <time>2019-08-18T04:08:55Z</time>
      </trkpt>
      <trkpt lat="45.12198" lon="6.60751">
        <ele>2423</ele>
        <time>2019-08-18T04:09:06Z</time>
      </trkpt>
      <trkpt lat="45.12197" lon="6.60749">
        <ele>2423</ele>
        <time>2019-08-18T04:09:08Z</time>
      </trkpt>
      <trkpt lat="45.12194" lon="6.60747">
        <ele>2424</ele>
        <time>2019-08-18T04:09:12Z</time>
      </trkpt>
      <trkpt lat="45.12177" lon="6.60736">
        <ele>2426</ele>
        <time>2019-08-18T04:09:37Z</time>
      </trkpt>
      <trkpt lat="45.12166" lon="6.6073">
        <ele>2428</ele>
        <time>2019-08-18T04:09:53Z</time>
      </trkpt>
      <trkpt lat="45.12161" lon="6.60729">
        <ele>2428</ele>
        <time>2019-08-18T04:10:00Z</time>
      </trkpt>
      <trkpt lat="45.12147" lon="6.60723">
        <ele>2430</ele>
        <time>2019-08-18T04:10:19Z</time>
      </trkpt>
      <trkpt lat="45.12138" lon="6.60719">
        <ele>2431</ele>
        <time>2019-08-18T04:10:32Z</time>
      </trkpt>
      <trkpt lat="45.12134" lon="6.60718">
        <ele>2432</ele>
        <time>2019-08-18T04:10:37Z</time>
      </trkpt>
      <trkpt lat="45.12132" lon="6.60718">
        <ele>2432</ele>
        <time>2019-08-18T04:10:40Z</time>
      </trkpt>
      <trkpt lat="45.12128" lon="6.6072">
        <ele>2433</ele>
        <time>2019-08-18T04:10:46Z</time>
      </trkpt>
      <trkpt lat="45.1212" lon="6.60721">
        <ele>2433</ele>
        <time>2019-08-18T04:10:56Z</time>
      </trkpt>
      <trkpt lat="45.12115" lon="6.6072">
        <ele>2434</ele>
        <time>2019-08-18T04:11:03Z</time>
      </trkpt>
      <trkpt lat="45.1211" lon="6.60718">
        <ele>2435</ele>
        <time>2019-08-18T04:11:10Z</time>
      </trkpt>
      <trkpt lat="45.121" lon="6.60712">
        <ele>2436</ele>
        <time>2019-08-18T04:11:25Z</time>
      </trkpt>
      <trkpt lat="45.12089" lon="6.60703">
        <ele>2437</ele>
        <time>2019-08-18T04:11:41Z</time>
      </trkpt>
      <trkpt lat="45.1208" lon="6.607">
        <ele>2438</ele>
        <time>2019-08-18T04:11:54Z</time>
      </trkpt>
      <trkpt lat="45.12072" lon="6.60699">
        <ele>2438</ele>
        <time>2019-08-18T04:12:05Z</time>
      </trkpt>
      <trkpt lat="45.12064" lon="6.60699">
        <ele>2438</ele>
        <time>2019-08-18T04:12:15Z</time>
      </trkpt>
      <trkpt lat="45.12066" lon="6.60691">
        <ele>2439</ele>
        <time>2019-08-18T04:12:23Z</time>
      </trkpt>
      <trkpt lat="45.1207" lon="6.60687">
        <ele>2439</ele>
        <time>2019-08-18T04:12:30Z</time>
      </trkpt>
      <trkpt lat="45.12073" lon="6.60685">
        <ele>2439</ele>
        <time>2019-08-18T04:12:34Z</time>
      </trkpt>
      <trkpt lat="45.12077" lon="6.60683">
        <ele>2439</ele>
        <time>2019-08-18T04:12:40Z</time>
      </trkpt>
      <trkpt lat="45.12101" lon="6.60678">
        <ele>2437</ele>
        <time>2019-08-18T04:13:12Z</time>
      </trkpt>
      <trkpt lat="45.12116" lon="6.60672">
        <ele>2435</ele>
        <time>2019-08-18T04:13:33Z</time>
      </trkpt>
      <trkpt lat="45.12148" lon="6.60654">
        <ele>2433</ele>
        <time>2019-08-18T04:14:19Z</time>
      </trkpt>
      <trkpt lat="45.12153" lon="6.60649">
        <ele>2433</ele>
        <time>2019-08-18T04:14:27Z</time>
      </trkpt>
      <trkpt lat="45.12161" lon="6.60635">
        <ele>2433</ele>
        <time>2019-08-18T04:14:44Z</time>
      </trkpt>
      <trkpt lat="45.12163" lon="6.60627">
        <ele>2433</ele>
        <time>2019-08-18T04:14:52Z</time>
      </trkpt>
      <trkpt lat="45.12163" lon="6.6062">
        <ele>2433</ele>
        <time>2019-08-18T04:14:59Z</time>
      </trkpt>
      <trkpt lat="45.12161" lon="6.60607">
        <ele>2435</ele>
        <time>2019-08-18T04:15:11Z</time>
      </trkpt>
      <trkpt lat="45.12159" lon="6.60594">
        <ele>2436</ele>
        <time>2019-08-18T04:15:24Z</time>
      </trkpt>
      <trkpt lat="45.12152" lon="6.60569">
        <ele>2439</ele>
        <time>2019-08-18T04:15:49Z</time>
      </trkpt>
      <trkpt lat="45.12151" lon="6.60562">
        <ele>2439</ele>
        <time>2019-08-18T04:15:56Z</time>
      </trkpt>
      <trkpt lat="45.12151" lon="6.60553">
        <ele>2440</ele>
        <time>2019-08-18T04:16:04Z</time>
      </trkpt>
      <trkpt lat="45.12153" lon="6.60534">
        <ele>2440</ele>
        <time>2019-08-18T04:16:22Z</time>
      </trkpt>
      <trkpt lat="45.12153" lon="6.60531">
        <ele>2440</ele>
        <time>2019-08-18T04:16:25Z</time>
      </trkpt>
      <trkpt lat="45.12155" lon="6.60526">
        <ele>2440</ele>
        <time>2019-08-18T04:16:31Z</time>
      </trkpt>
      <trkpt lat="45.12156" lon="6.60519">
        <ele>2440</ele>
        <time>2019-08-18T04:16:37Z</time>
      </trkpt>
      <trkpt lat="45.12164" lon="6.60503">
        <ele>2439</ele>
        <time>2019-08-18T04:16:56Z</time>
      </trkpt>
      <trkpt lat="45.1217" lon="6.60491">
        <ele>2439</ele>
        <time>2019-08-18T04:17:10Z</time>
      </trkpt>
      <trkpt lat="45.12179" lon="6.60471">
        <ele>2441</ele>
        <time>2019-08-18T04:17:32Z</time>
      </trkpt>
      <trkpt lat="45.12181" lon="6.60464">
        <ele>2441</ele>
        <time>2019-08-18T04:17:39Z</time>
      </trkpt>
      <trkpt lat="45.12183" lon="6.6046">
        <ele>2442</ele>
        <time>2019-08-18T04:17:44Z</time>
      </trkpt>
      <trkpt lat="45.12186" lon="6.60457">
        <ele>2442</ele>
        <time>2019-08-18T04:17:49Z</time>
      </trkpt>
      <trkpt lat="45.12194" lon="6.60439">
        <ele>2444</ele>
        <time>2019-08-18T04:18:09Z</time>
      </trkpt>
      <trkpt lat="45.12196" lon="6.60436">
        <ele>2444</ele>
        <time>2019-08-18T04:18:12Z</time>
      </trkpt>
      <trkpt lat="45.12197" lon="6.60432">
        <ele>2445</ele>
        <time>2019-08-18T04:18:16Z</time>
      </trkpt>
      <trkpt lat="45.12202" lon="6.60421">
        <ele>2446</ele>
        <time>2019-08-18T04:18:29Z</time>
      </trkpt>
      <trkpt lat="45.12204" lon="6.60416">
        <ele>2447</ele>
        <time>2019-08-18T04:18:34Z</time>
      </trkpt>
      <trkpt lat="45.12213" lon="6.60406">
        <ele>2448</ele>
        <time>2019-08-18T04:18:49Z</time>
      </trkpt>
      <trkpt lat="45.12216" lon="6.60402">
        <ele>2449</ele>
        <time>2019-08-18T04:18:55Z</time>
      </trkpt>
      <trkpt lat="45.1222" lon="6.604">
        <ele>2449</ele>
        <time>2019-08-18T04:19:01Z</time>
      </trkpt>
      <trkpt lat="45.12223" lon="6.604">
        <ele>2448</ele>
        <time>2019-08-18T04:19:05Z</time>
      </trkpt>
      <trkpt lat="45.12225" lon="6.604">
        <ele>2448</ele>
        <time>2019-08-18T04:19:07Z</time>
      </trkpt>
      <trkpt lat="45.12239" lon="6.60385">
        <ele>2449</ele>
        <time>2019-08-18T04:19:31Z</time>
      </trkpt>
      <trkpt lat="45.1225" lon="6.60372">
        <ele>2450</ele>
        <time>2019-08-18T04:19:50Z</time>
      </trkpt>
      <trkpt lat="45.1226" lon="6.60352">
        <ele>2453</ele>
        <time>2019-08-18T04:20:13Z</time>
      </trkpt>
      <trkpt lat="45.12273" lon="6.60332">
        <ele>2456</ele>
        <time>2019-08-18T04:20:38Z</time>
      </trkpt>
      <trkpt lat="45.12292" lon="6.603">
        <ele>2462</ele>
        <time>2019-08-18T04:21:18Z</time>
      </trkpt>
      <trkpt lat="45.12294" lon="6.60297">
        <ele>2463</ele>
        <time>2019-08-18T04:21:22Z</time>
      </trkpt>
      <trkpt lat="45.123" lon="6.60294">
        <ele>2463</ele>
        <time>2019-08-18T04:21:30Z</time>
      </trkpt>
      <trkpt lat="45.12301" lon="6.60293">
        <ele>2463</ele>
        <time>2019-08-18T04:21:32Z</time>
      </trkpt>
      <trkpt lat="45.12305" lon="6.60287">
        <ele>2464</ele>
        <time>2019-08-18T04:21:40Z</time>
      </trkpt>
      <trkpt lat="45.1231" lon="6.6028">
        <ele>2465</ele>
        <time>2019-08-18T04:21:49Z</time>
      </trkpt>
      <trkpt lat="45.12313" lon="6.60277">
        <ele>2466</ele>
        <time>2019-08-18T04:21:54Z</time>
      </trkpt>
      <trkpt lat="45.12315" lon="6.60275">
        <ele>2466</ele>
        <time>2019-08-18T04:21:57Z</time>
      </trkpt>
      <trkpt lat="45.12319" lon="6.60273">
        <ele>2466</ele>
        <time>2019-08-18T04:22:03Z</time>
      </trkpt>
      <trkpt lat="45.12326" lon="6.60271">
        <ele>2466</ele>
        <time>2019-08-18T04:22:12Z</time>
      </trkpt>
      <trkpt lat="45.12329" lon="6.60269">
        <ele>2466</ele>
        <time>2019-08-18T04:22:17Z</time>
      </trkpt>
      <trkpt lat="45.1233" lon="6.60266">
        <ele>2467</ele>
        <time>2019-08-18T04:22:20Z</time>
      </trkpt>
      <trkpt lat="45.12331" lon="6.60262">
        <ele>2467</ele>
        <time>2019-08-18T04:22:24Z</time>
      </trkpt>
      <trkpt lat="45.12331" lon="6.60251">
        <ele>2469</ele>
        <time>2019-08-18T04:22:34Z</time>
      </trkpt>
      <trkpt lat="45.12331" lon="6.60248">
        <ele>2469</ele>
        <time>2019-08-18T04:22:37Z</time>
      </trkpt>
      <trkpt lat="45.12334" lon="6.60244">
        <ele>2469</ele>
        <time>2019-08-18T04:22:43Z</time>
      </trkpt>
      <trkpt lat="45.12337" lon="6.60241">
        <ele>2469</ele>
        <time>2019-08-18T04:22:48Z</time>
      </trkpt>
      <trkpt lat="45.12341" lon="6.60212">
        <ele>2468</ele>
        <time>2019-08-18T04:23:15Z</time>
      </trkpt>
      <trkpt lat="45.12344" lon="6.60201">
        <ele>2467</ele>
        <time>2019-08-18T04:23:26Z</time>
      </trkpt>
      <trkpt lat="45.12342" lon="6.6016">
        <ele>2467</ele>
        <time>2019-08-18T04:24:05Z</time>
      </trkpt>
      <trkpt lat="45.12342" lon="6.60157">
        <ele>2467</ele>
        <time>2019-08-18T04:24:08Z</time>
      </trkpt>
      <trkpt lat="45.12345" lon="6.60147">
        <ele>2467</ele>
        <time>2019-08-18T04:24:18Z</time>
      </trkpt>
      <trkpt lat="45.12345" lon="6.60144">
        <ele>2467</ele>
        <time>2019-08-18T04:24:21Z</time>
      </trkpt>
      <trkpt lat="45.12342" lon="6.60137">
        <ele>2468</ele>
        <time>2019-08-18T04:24:29Z</time>
      </trkpt>
      <trkpt lat="45.1234" lon="6.60131">
        <ele>2469</ele>
        <time>2019-08-18T04:24:35Z</time>
      </trkpt>
      <trkpt lat="45.12339" lon="6.60115">
        <ele>2470</ele>
        <time>2019-08-18T04:24:50Z</time>
      </trkpt>
      <trkpt lat="45.1234" lon="6.6011">
        <ele>2471</ele>
        <time>2019-08-18T04:24:55Z</time>
      </trkpt>
      <trkpt lat="45.12339" lon="6.60105">
        <ele>2471</ele>
        <time>2019-08-18T04:25:00Z</time>
      </trkpt>
      <trkpt lat="45.12338" lon="6.60099">
        <ele>2472</ele>
        <time>2019-08-18T04:25:06Z</time>
      </trkpt>
      <trkpt lat="45.12336" lon="6.60096">
        <ele>2472</ele>
        <time>2019-08-18T04:25:10Z</time>
      </trkpt>
      <trkpt lat="45.12334" lon="6.60095">
        <ele>2473</ele>
        <time>2019-08-18T04:25:12Z</time>
      </trkpt>
      <trkpt lat="45.12333" lon="6.60093">
        <ele>2473</ele>
        <time>2019-08-18T04:25:15Z</time>
      </trkpt>
      <trkpt lat="45.12333" lon="6.60089">
        <ele>2474</ele>
        <time>2019-08-18T04:25:18Z</time>
      </trkpt>
      <trkpt lat="45.12333" lon="6.60087">
        <ele>2474</ele>
        <time>2019-08-18T04:25:20Z</time>
      </trkpt>
      <trkpt lat="45.12334" lon="6.60083">
        <ele>2474</ele>
        <time>2019-08-18T04:25:24Z</time>
      </trkpt>
      <trkpt lat="45.12336" lon="6.6008">
        <ele>2474</ele>
        <time>2019-08-18T04:25:28Z</time>
      </trkpt>
      <trkpt lat="45.12337" lon="6.60078">
        <ele>2475</ele>
        <time>2019-08-18T04:25:31Z</time>
      </trkpt>
      <trkpt lat="45.12341" lon="6.60076">
        <ele>2474</ele>
        <time>2019-08-18T04:25:36Z</time>
      </trkpt>
      <trkpt lat="45.12346" lon="6.6007">
        <ele>2475</ele>
        <time>2019-08-18T04:25:45Z</time>
      </trkpt>
      <trkpt lat="45.12346" lon="6.60069">
        <ele>2475</ele>
        <time>2019-08-18T04:25:46Z</time>
      </trkpt>
      <trkpt lat="45.12345" lon="6.60068">
        <ele>2476</ele>
        <time>2019-08-18T04:25:48Z</time>
      </trkpt>
      <trkpt lat="45.12342" lon="6.60067">
        <ele>2476</ele>
        <time>2019-08-18T04:25:52Z</time>
      </trkpt>
      <trkpt lat="45.12341" lon="6.60065">
        <ele>2477</ele>
        <time>2019-08-18T04:25:54Z</time>
      </trkpt>
      <trkpt lat="45.12344" lon="6.60058">
        <ele>2478</ele>
        <time>2019-08-18T04:26:02Z</time>
      </trkpt>
      <trkpt lat="45.12345" lon="6.60054">
        <ele>2479</ele>
        <time>2019-08-18T04:26:06Z</time>
      </trkpt>
      <trkpt lat="45.12354" lon="6.60042">
        <ele>2480</ele>
        <time>2019-08-18T04:26:22Z</time>
      </trkpt>
      <trkpt lat="45.12355" lon="6.6004">
        <ele>2481</ele>
        <time>2019-08-18T04:26:24Z</time>
      </trkpt>
      <trkpt lat="45.12355" lon="6.60039">
        <ele>2481</ele>
        <time>2019-08-18T04:26:25Z</time>
      </trkpt>
      <trkpt lat="45.12354" lon="6.60038">
        <ele>2481</ele>
        <time>2019-08-18T04:26:27Z</time>
      </trkpt>
      <trkpt lat="45.12343" lon="6.60029">
        <ele>2486</ele>
        <time>2019-08-18T04:26:44Z</time>
      </trkpt>
      <trkpt lat="45.12342" lon="6.60027">
        <ele>2486</ele>
        <time>2019-08-18T04:26:46Z</time>
      </trkpt>
      <trkpt lat="45.12342" lon="6.60024">
        <ele>2487</ele>
        <time>2019-08-18T04:26:49Z</time>
      </trkpt>
      <trkpt lat="45.12343" lon="6.60022">
        <ele>2488</ele>
        <time>2019-08-18T04:26:51Z</time>
      </trkpt>
      <trkpt lat="45.12343" lon="6.60018">
        <ele>2489</ele>
        <time>2019-08-18T04:26:55Z</time>
      </trkpt>
      <trkpt lat="45.12341" lon="6.60007">
        <ele>2492</ele>
        <time>2019-08-18T04:27:06Z</time>
      </trkpt>
      <trkpt lat="45.1234" lon="6.60004">
        <ele>2493</ele>
        <time>2019-08-18T04:27:09Z</time>
      </trkpt>
      <trkpt lat="45.12341" lon="6.59998">
        <ele>2494</ele>
        <time>2019-08-18T04:27:15Z</time>
      </trkpt>
      <trkpt lat="45.12342" lon="6.59995">
        <ele>2494</ele>
        <time>2019-08-18T04:27:18Z</time>
      </trkpt>
      <trkpt lat="45.12341" lon="6.59998">
        <ele>2494</ele>
        <time>2019-08-18T04:27:21Z</time>
      </trkpt>
      <trkpt lat="45.1234" lon="6.60004">
        <ele>2493</ele>
        <time>2019-08-18T04:27:27Z</time>
      </trkpt>
      <trkpt lat="45.12341" lon="6.60009">
        <ele>2491</ele>
        <time>2019-08-18T04:27:32Z</time>
      </trkpt>
      <trkpt lat="45.12343" lon="6.60018">
        <ele>2489</ele>
        <time>2019-08-18T04:27:41Z</time>
      </trkpt>
      <trkpt lat="45.12343" lon="6.60022">
        <ele>2488</ele>
        <time>2019-08-18T04:27:44Z</time>
      </trkpt>
      <trkpt lat="45.12342" lon="6.60024">
        <ele>2487</ele>
        <time>2019-08-18T04:27:47Z</time>
      </trkpt>
      <trkpt lat="45.12342" lon="6.60027">
        <ele>2486</ele>
        <time>2019-08-18T04:27:50Z</time>
      </trkpt>
      <trkpt lat="45.12343" lon="6.60029">
        <ele>2486</ele>
        <time>2019-08-18T04:27:52Z</time>
      </trkpt>
      <trkpt lat="45.12344" lon="6.6003">
        <ele>2485</ele>
        <time>2019-08-18T04:27:53Z</time>
      </trkpt>
      <trkpt lat="45.12355" lon="6.60039">
        <ele>2481</ele>
        <time>2019-08-18T04:28:10Z</time>
      </trkpt>
      <trkpt lat="45.12355" lon="6.6004">
        <ele>2481</ele>
        <time>2019-08-18T04:28:11Z</time>
      </trkpt>
      <trkpt lat="45.12347" lon="6.60051">
        <ele>2479</ele>
        <time>2019-08-18T04:28:26Z</time>
      </trkpt>
      <trkpt lat="45.12345" lon="6.60054">
        <ele>2479</ele>
        <time>2019-08-18T04:28:30Z</time>
      </trkpt>
      <trkpt lat="45.12344" lon="6.60058">
        <ele>2478</ele>
        <time>2019-08-18T04:28:34Z</time>
      </trkpt>
      <trkpt lat="45.12341" lon="6.60065">
        <ele>2477</ele>
        <time>2019-08-18T04:28:42Z</time>
      </trkpt>
      <trkpt lat="45.12342" lon="6.60067">
        <ele>2476</ele>
        <time>2019-08-18T04:28:44Z</time>
      </trkpt>
      <trkpt lat="45.12346" lon="6.60069">
        <ele>2475</ele>
        <time>2019-08-18T04:28:50Z</time>
      </trkpt>
      <trkpt lat="45.12346" lon="6.6007">
        <ele>2475</ele>
        <time>2019-08-18T04:28:51Z</time>
      </trkpt>
      <trkpt lat="45.12341" lon="6.60076">
        <ele>2474</ele>
        <time>2019-08-18T04:28:59Z</time>
      </trkpt>
      <trkpt lat="45.12339" lon="6.60077">
        <ele>2474</ele>
        <time>2019-08-18T04:29:02Z</time>
      </trkpt>
      <trkpt lat="45.12337" lon="6.60078">
        <ele>2475</ele>
        <time>2019-08-18T04:29:05Z</time>
      </trkpt>
      <trkpt lat="45.12334" lon="6.60083">
        <ele>2474</ele>
        <time>2019-08-18T04:29:11Z</time>
      </trkpt>
      <trkpt lat="45.12333" lon="6.60087">
        <ele>2474</ele>
        <time>2019-08-18T04:29:15Z</time>
      </trkpt>
      <trkpt lat="45.12333" lon="6.60091">
        <ele>2474</ele>
        <time>2019-08-18T04:29:19Z</time>
      </trkpt>
      <trkpt lat="45.12333" lon="6.60093">
        <ele>2473</ele>
        <time>2019-08-18T04:29:21Z</time>
      </trkpt>
      <trkpt lat="45.12334" lon="6.60095">
        <ele>2473</ele>
        <time>2019-08-18T04:29:23Z</time>
      </trkpt>
      <trkpt lat="45.12336" lon="6.60096">
        <ele>2472</ele>
        <time>2019-08-18T04:29:26Z</time>
      </trkpt>
      <trkpt lat="45.12338" lon="6.60099">
        <ele>2472</ele>
        <time>2019-08-18T04:29:30Z</time>
      </trkpt>
      <trkpt lat="45.12339" lon="6.60105">
        <ele>2471</ele>
        <time>2019-08-18T04:29:36Z</time>
      </trkpt>
      <trkpt lat="45.1234" lon="6.6011">
        <ele>2471</ele>
        <time>2019-08-18T04:29:41Z</time>
      </trkpt>
      <trkpt lat="45.12339" lon="6.60115">
        <ele>2470</ele>
        <time>2019-08-18T04:29:46Z</time>
      </trkpt>
      <trkpt lat="45.1234" lon="6.60131">
        <ele>2469</ele>
        <time>2019-08-18T04:30:01Z</time>
      </trkpt>
      <trkpt lat="45.12345" lon="6.60144">
        <ele>2467</ele>
        <time>2019-08-18T04:30:15Z</time>
      </trkpt>
      <trkpt lat="45.12345" lon="6.60147">
        <ele>2467</ele>
        <time>2019-08-18T04:30:17Z</time>
      </trkpt>
      <trkpt lat="45.12344" lon="6.60151">
        <ele>2467</ele>
        <time>2019-08-18T04:30:21Z</time>
      </trkpt>
      <trkpt lat="45.12342" lon="6.60157">
        <ele>2467</ele>
        <time>2019-08-18T04:30:28Z</time>
      </trkpt>
      <trkpt lat="45.12344" lon="6.60198">
        <ele>2467</ele>
        <time>2019-08-18T04:31:06Z</time>
      </trkpt>
      <trkpt lat="45.12344" lon="6.60201">
        <ele>2467</ele>
        <time>2019-08-18T04:31:09Z</time>
      </trkpt>
      <trkpt lat="45.12341" lon="6.60212">
        <ele>2468</ele>
        <time>2019-08-18T04:31:20Z</time>
      </trkpt>
      <trkpt lat="45.12338" lon="6.60234">
        <ele>2468</ele>
        <time>2019-08-18T04:31:41Z</time>
      </trkpt>
      <trkpt lat="45.12337" lon="6.60241">
        <ele>2469</ele>
        <time>2019-08-18T04:31:48Z</time>
      </trkpt>
      <trkpt lat="45.12334" lon="6.60244">
        <ele>2469</ele>
        <time>2019-08-18T04:31:53Z</time>
      </trkpt>
      <trkpt lat="45.12331" lon="6.60248">
        <ele>2469</ele>
        <time>2019-08-18T04:31:59Z</time>
      </trkpt>
      <trkpt lat="45.12331" lon="6.60262">
        <ele>2467</ele>
        <time>2019-08-18T04:32:12Z</time>
      </trkpt>
      <trkpt lat="45.1233" lon="6.60266">
        <ele>2467</ele>
        <time>2019-08-18T04:32:16Z</time>
      </trkpt>
      <trkpt lat="45.12329" lon="6.60269">
        <ele>2466</ele>
        <time>2019-08-18T04:32:19Z</time>
      </trkpt>
      <trkpt lat="45.12326" lon="6.60271">
        <ele>2466</ele>
        <time>2019-08-18T04:32:23Z</time>
      </trkpt>
      <trkpt lat="45.12319" lon="6.60273">
        <ele>2466</ele>
        <time>2019-08-18T04:32:33Z</time>
      </trkpt>
      <trkpt lat="45.12315" lon="6.60275">
        <ele>2466</ele>
        <time>2019-08-18T04:32:38Z</time>
      </trkpt>
      <trkpt lat="45.12313" lon="6.60277">
        <ele>2466</ele>
        <time>2019-08-18T04:32:42Z</time>
      </trkpt>
      <trkpt lat="45.1231" lon="6.6028">
        <ele>2465</ele>
        <time>2019-08-18T04:32:47Z</time>
      </trkpt>
      <trkpt lat="45.12305" lon="6.60287">
        <ele>2464</ele>
        <time>2019-08-18T04:32:56Z</time>
      </trkpt>
      <trkpt lat="45.12301" lon="6.60293">
        <ele>2463</ele>
        <time>2019-08-18T04:33:04Z</time>
      </trkpt>
      <trkpt lat="45.12295" lon="6.60296">
        <ele>2463</ele>
        <time>2019-08-18T04:33:12Z</time>
      </trkpt>
      <trkpt lat="45.12294" lon="6.60297">
        <ele>2463</ele>
        <time>2019-08-18T04:33:14Z</time>
      </trkpt>
      <trkpt lat="45.12282" lon="6.60317">
        <ele>2459</ele>
        <time>2019-08-18T04:33:39Z</time>
      </trkpt>
      <trkpt lat="45.12273" lon="6.60332">
        <ele>2456</ele>
        <time>2019-08-18T04:33:57Z</time>
      </trkpt>
      <trkpt lat="45.1226" lon="6.60352">
        <ele>2453</ele>
        <time>2019-08-18T04:34:23Z</time>
      </trkpt>
      <trkpt lat="45.1225" lon="6.60372">
        <ele>2450</ele>
        <time>2019-08-18T04:34:46Z</time>
      </trkpt>
      <trkpt lat="45.12229" lon="6.60396">
        <ele>2448</ele>
        <time>2019-08-18T04:35:22Z</time>
      </trkpt>
      <trkpt lat="45.12225" lon="6.604">
        <ele>2448</ele>
        <time>2019-08-18T04:35:28Z</time>
      </trkpt>
      <trkpt lat="45.1222" lon="6.604">
        <ele>2449</ele>
        <time>2019-08-18T04:35:35Z</time>
      </trkpt>
      <trkpt lat="45.12216" lon="6.60402">
        <ele>2449</ele>
        <time>2019-08-18T04:35:41Z</time>
      </trkpt>
      <trkpt lat="45.12209" lon="6.6041">
        <ele>2448</ele>
        <time>2019-08-18T04:35:53Z</time>
      </trkpt>
      <trkpt lat="45.12204" lon="6.60416">
        <ele>2447</ele>
        <time>2019-08-18T04:36:01Z</time>
      </trkpt>
      <trkpt lat="45.12197" lon="6.60432">
        <ele>2445</ele>
        <time>2019-08-18T04:36:19Z</time>
      </trkpt>
      <trkpt lat="45.12196" lon="6.60436">
        <ele>2444</ele>
        <time>2019-08-18T04:36:23Z</time>
      </trkpt>
      <trkpt lat="45.12194" lon="6.60439">
        <ele>2444</ele>
        <time>2019-08-18T04:36:27Z</time>
      </trkpt>
      <trkpt lat="45.12186" lon="6.60457">
        <ele>2442</ele>
        <time>2019-08-18T04:36:47Z</time>
      </trkpt>
      <trkpt lat="45.12183" lon="6.6046">
        <ele>2442</ele>
        <time>2019-08-18T04:36:52Z</time>
      </trkpt>
      <trkpt lat="45.12181" lon="6.60464">
        <ele>2441</ele>
        <time>2019-08-18T04:36:57Z</time>
      </trkpt>
      <trkpt lat="45.12179" lon="6.60471">
        <ele>2441</ele>
        <time>2019-08-18T04:37:04Z</time>
      </trkpt>
      <trkpt lat="45.12176" lon="6.60478">
        <ele>2440</ele>
        <time>2019-08-18T04:37:11Z</time>
      </trkpt>
      <trkpt lat="45.12158" lon="6.60515">
        <ele>2440</ele>
        <time>2019-08-18T04:37:54Z</time>
      </trkpt>
      <trkpt lat="45.12156" lon="6.60519">
        <ele>2440</ele>
        <time>2019-08-18T04:37:58Z</time>
      </trkpt>
      <trkpt lat="45.12155" lon="6.60526">
        <ele>2440</ele>
        <time>2019-08-18T04:38:05Z</time>
      </trkpt>
      <trkpt lat="45.12154" lon="6.60528">
        <ele>2440</ele>
        <time>2019-08-18T04:38:07Z</time>
      </trkpt>
      <trkpt lat="45.12153" lon="6.60531">
        <ele>2440</ele>
        <time>2019-08-18T04:38:11Z</time>
      </trkpt>
      <trkpt lat="45.12151" lon="6.60553">
        <ele>2440</ele>
        <time>2019-08-18T04:38:31Z</time>
      </trkpt>
      <trkpt lat="45.12151" lon="6.60562">
        <ele>2439</ele>
        <time>2019-08-18T04:38:40Z</time>
      </trkpt>
      <trkpt lat="45.12152" lon="6.60569">
        <ele>2439</ele>
        <time>2019-08-18T04:38:47Z</time>
      </trkpt>
      <trkpt lat="45.12153" lon="6.60574">
        <ele>2438</ele>
        <time>2019-08-18T04:38:52Z</time>
      </trkpt>
      <trkpt lat="45.12155" lon="6.6058">
        <ele>2438</ele>
        <time>2019-08-18T04:38:58Z</time>
      </trkpt>
      <trkpt lat="45.12158" lon="6.60589">
        <ele>2437</ele>
        <time>2019-08-18T04:39:07Z</time>
      </trkpt>
      <trkpt lat="45.12161" lon="6.60607">
        <ele>2435</ele>
        <time>2019-08-18T04:39:25Z</time>
      </trkpt>
      <trkpt lat="45.12163" lon="6.6062">
        <ele>2433</ele>
        <time>2019-08-18T04:39:37Z</time>
      </trkpt>
      <trkpt lat="45.12163" lon="6.60627">
        <ele>2433</ele>
        <time>2019-08-18T04:39:44Z</time>
      </trkpt>
      <trkpt lat="45.12161" lon="6.60635">
        <ele>2433</ele>
        <time>2019-08-18T04:39:52Z</time>
      </trkpt>
      <trkpt lat="45.12157" lon="6.60642">
        <ele>2433</ele>
        <time>2019-08-18T04:40:00Z</time>
      </trkpt>
      <trkpt lat="45.12153" lon="6.60649">
        <ele>2433</ele>
        <time>2019-08-18T04:40:09Z</time>
      </trkpt>
      <trkpt lat="45.12148" lon="6.60654">
        <ele>2433</ele>
        <time>2019-08-18T04:40:17Z</time>
      </trkpt>
      <trkpt lat="45.12131" lon="6.60663">
        <ele>2434</ele>
        <time>2019-08-18T04:40:41Z</time>
      </trkpt>
      <trkpt lat="45.12116" lon="6.60672">
        <ele>2435</ele>
        <time>2019-08-18T04:41:03Z</time>
      </trkpt>
      <trkpt lat="45.12101" lon="6.60678">
        <ele>2437</ele>
        <time>2019-08-18T04:41:24Z</time>
      </trkpt>
      <trkpt lat="45.12082" lon="6.60682">
        <ele>2439</ele>
        <time>2019-08-18T04:41:49Z</time>
      </trkpt>
      <trkpt lat="45.12077" lon="6.60683">
        <ele>2439</ele>
        <time>2019-08-18T04:41:56Z</time>
      </trkpt>
      <trkpt lat="45.12073" lon="6.60685">
        <ele>2439</ele>
        <time>2019-08-18T04:42:02Z</time>
      </trkpt>
      <trkpt lat="45.1207" lon="6.60687">
        <ele>2439</ele>
        <time>2019-08-18T04:42:06Z</time>
      </trkpt>
      <trkpt lat="45.12066" lon="6.60691">
        <ele>2439</ele>
        <time>2019-08-18T04:42:13Z</time>
      </trkpt>
      <trkpt lat="45.12064" lon="6.60699">
        <ele>2438</ele>
        <time>2019-08-18T04:42:21Z</time>
      </trkpt>
      <trkpt lat="45.12044" lon="6.60695">
        <ele>2439</ele>
        <time>2019-08-18T04:42:47Z</time>
      </trkpt>
      <trkpt lat="45.12036" lon="6.60694">
        <ele>2439</ele>
        <time>2019-08-18T04:42:58Z</time>
      </trkpt>
      <trkpt lat="45.12031" lon="6.60694">
        <ele>2439</ele>
        <time>2019-08-18T04:43:05Z</time>
      </trkpt>
      <trkpt lat="45.12025" lon="6.60694">
        <ele>2439</ele>
        <time>2019-08-18T04:43:13Z</time>
      </trkpt>
      <trkpt lat="45.12021" lon="6.60696">
        <ele>2439</ele>
        <time>2019-08-18T04:43:19Z</time>
      </trkpt>
      <trkpt lat="45.12017" lon="6.60698">
        <ele>2439</ele>
        <time>2019-08-18T04:43:24Z</time>
      </trkpt>
      <trkpt lat="45.12013" lon="6.60698">
        <ele>2439</ele>
        <time>2019-08-18T04:43:30Z</time>
      </trkpt>
      <trkpt lat="45.11995" lon="6.60697">
        <ele>2439</ele>
        <time>2019-08-18T04:43:54Z</time>
      </trkpt>
      <trkpt lat="45.11989" lon="6.60695">
        <ele>2438</ele>
        <time>2019-08-18T04:44:02Z</time>
      </trkpt>
      <trkpt lat="45.11985" lon="6.60692">
        <ele>2438</ele>
        <time>2019-08-18T04:44:08Z</time>
      </trkpt>
      <trkpt lat="45.1198" lon="6.60688">
        <ele>2438</ele>
        <time>2019-08-18T04:44:16Z</time>
      </trkpt>
      <trkpt lat="45.11977" lon="6.60685">
        <ele>2438</ele>
        <time>2019-08-18T04:44:20Z</time>
      </trkpt>
      <trkpt lat="45.11975" lon="6.60679">
        <ele>2438</ele>
        <time>2019-08-18T04:44:27Z</time>
      </trkpt>
      <trkpt lat="45.11973" lon="6.60678">
        <ele>2438</ele>
        <time>2019-08-18T04:44:29Z</time>
      </trkpt>
      <trkpt lat="45.1197" lon="6.60679">
        <ele>2437</ele>
        <time>2019-08-18T04:44:34Z</time>
      </trkpt>
      <trkpt lat="45.11965" lon="6.60681">
        <ele>2437</ele>
        <time>2019-08-18T04:44:41Z</time>
      </trkpt>
      <trkpt lat="45.1196" lon="6.60681">
        <ele>2436</ele>
        <time>2019-08-18T04:44:47Z</time>
      </trkpt>
      <trkpt lat="45.11951" lon="6.60684">
        <ele>2435</ele>
        <time>2019-08-18T04:45:00Z</time>
      </trkpt>
      <trkpt lat="45.1194" lon="6.60687">
        <ele>2434</ele>
        <time>2019-08-18T04:45:14Z</time>
      </trkpt>
      <trkpt lat="45.11933" lon="6.60694">
        <ele>2432</ele>
        <time>2019-08-18T04:45:26Z</time>
      </trkpt>
      <trkpt lat="45.11929" lon="6.60701">
        <ele>2431</ele>
        <time>2019-08-18T04:45:34Z</time>
      </trkpt>
      <trkpt lat="45.11929" lon="6.60728">
        <ele>2427</ele>
        <time>2019-08-18T04:46:00Z</time>
      </trkpt>
      <trkpt lat="45.11929" lon="6.60736">
        <ele>2426</ele>
        <time>2019-08-18T04:46:07Z</time>
      </trkpt>
      <trkpt lat="45.11933" lon="6.60745">
        <ele>2425</ele>
        <time>2019-08-18T04:46:17Z</time>
      </trkpt>
      <trkpt lat="45.11934" lon="6.60761">
        <ele>2423</ele>
        <time>2019-08-18T04:46:33Z</time>
      </trkpt>
      <trkpt lat="45.11937" lon="6.60773">
        <ele>2422</ele>
        <time>2019-08-18T04:46:45Z</time>
      </trkpt>
      <trkpt lat="45.11939" lon="6.60781">
        <ele>2422</ele>
        <time>2019-08-18T04:46:52Z</time>
      </trkpt>
      <trkpt lat="45.11947" lon="6.60797">
        <ele>2421</ele>
        <time>2019-08-18T04:47:11Z</time>
      </trkpt>
      <trkpt lat="45.11952" lon="6.6081">
        <ele>2420</ele>
        <time>2019-08-18T04:47:25Z</time>
      </trkpt>
      <trkpt lat="45.11955" lon="6.60819">
        <ele>2420</ele>
        <time>2019-08-18T04:47:34Z</time>
      </trkpt>
      <trkpt lat="45.11956" lon="6.60825">
        <ele>2419</ele>
        <time>2019-08-18T04:47:40Z</time>
      </trkpt>
      <trkpt lat="45.11956" lon="6.60832">
        <ele>2419</ele>
        <time>2019-08-18T04:47:47Z</time>
      </trkpt>
      <trkpt lat="45.11955" lon="6.60836">
        <ele>2418</ele>
        <time>2019-08-18T04:47:51Z</time>
      </trkpt>
      <trkpt lat="45.11948" lon="6.60841">
        <ele>2417</ele>
        <time>2019-08-18T04:48:01Z</time>
      </trkpt>
      <trkpt lat="45.11942" lon="6.60847">
        <ele>2415</ele>
        <time>2019-08-18T04:48:11Z</time>
      </trkpt>
      <trkpt lat="45.11938" lon="6.60851">
        <ele>2414</ele>
        <time>2019-08-18T04:48:17Z</time>
      </trkpt>
      <trkpt lat="45.1193" lon="6.60847">
        <ele>2412</ele>
        <time>2019-08-18T04:48:29Z</time>
      </trkpt>
      <trkpt lat="45.11919" lon="6.60848">
        <ele>2409</ele>
        <time>2019-08-18T04:48:43Z</time>
      </trkpt>
      <trkpt lat="45.11909" lon="6.60852">
        <ele>2408</ele>
        <time>2019-08-18T04:48:57Z</time>
      </trkpt>
      <trkpt lat="45.11904" lon="6.60866">
        <ele>2407</ele>
        <time>2019-08-18T04:49:12Z</time>
      </trkpt>
      <trkpt lat="45.11898" lon="6.60883">
        <ele>2406</ele>
        <time>2019-08-18T04:49:30Z</time>
      </trkpt>
      <trkpt lat="45.11892" lon="6.60906">
        <ele>2405</ele>
        <time>2019-08-18T04:49:53Z</time>
      </trkpt>
      <trkpt lat="45.11889" lon="6.60913">
        <ele>2404</ele>
        <time>2019-08-18T04:50:01Z</time>
      </trkpt>
      <trkpt lat="45.11878" lon="6.60918">
        <ele>2403</ele>
        <time>2019-08-18T04:50:16Z</time>
      </trkpt>
      <trkpt lat="45.11854" lon="6.60932">
        <ele>2401</ele>
        <time>2019-08-18T04:50:51Z</time>
      </trkpt>
      <trkpt lat="45.11846" lon="6.60937">
        <ele>2401</ele>
        <time>2019-08-18T04:51:03Z</time>
      </trkpt>
      <trkpt lat="45.11841" lon="6.60938">
        <ele>2400</ele>
        <time>2019-08-18T04:51:09Z</time>
      </trkpt>
      <trkpt lat="45.1182" lon="6.60935">
        <ele>2396</ele>
        <time>2019-08-18T04:51:37Z</time>
      </trkpt>
      <trkpt lat="45.11807" lon="6.60934">
        <ele>2394</ele>
        <time>2019-08-18T04:51:55Z</time>
      </trkpt>
      <trkpt lat="45.11802" lon="6.60937">
        <ele>2393</ele>
        <time>2019-08-18T04:52:02Z</time>
      </trkpt>
      <trkpt lat="45.11796" lon="6.60944">
        <ele>2393</ele>
        <time>2019-08-18T04:52:12Z</time>
      </trkpt>
      <trkpt lat="45.11793" lon="6.60947">
        <ele>2393</ele>
        <time>2019-08-18T04:52:17Z</time>
      </trkpt>
      <trkpt lat="45.11782" lon="6.60947">
        <ele>2391</ele>
        <time>2019-08-18T04:52:32Z</time>
      </trkpt>
      <trkpt lat="45.11771" lon="6.6095">
        <ele>2389</ele>
        <time>2019-08-18T04:52:47Z</time>
      </trkpt>
      <trkpt lat="45.11758" lon="6.60955">
        <ele>2387</ele>
        <time>2019-08-18T04:53:05Z</time>
      </trkpt>
      <trkpt lat="45.11748" lon="6.60956">
        <ele>2385</ele>
        <time>2019-08-18T04:53:18Z</time>
      </trkpt>
      <trkpt lat="45.11736" lon="6.60961">
        <ele>2384</ele>
        <time>2019-08-18T04:53:35Z</time>
      </trkpt>
      <trkpt lat="45.11709" lon="6.6097">
        <ele>2383</ele>
        <time>2019-08-18T04:54:12Z</time>
      </trkpt>
      <trkpt lat="45.11701" lon="6.60975">
        <ele>2383</ele>
        <time>2019-08-18T04:54:24Z</time>
      </trkpt>
      <trkpt lat="45.11694" lon="6.60974">
        <ele>2382</ele>
        <time>2019-08-18T04:54:33Z</time>
      </trkpt>
      <trkpt lat="45.11682" lon="6.60972">
        <ele>2381</ele>
        <time>2019-08-18T04:54:49Z</time>
      </trkpt>
      <trkpt lat="45.1167" lon="6.60966">
        <ele>2379</ele>
        <time>2019-08-18T04:55:06Z</time>
      </trkpt>
      <trkpt lat="45.11661" lon="6.60961">
        <ele>2378</ele>
        <time>2019-08-18T04:55:19Z</time>
      </trkpt>
      <trkpt lat="45.11648" lon="6.60957">
        <ele>2377</ele>
        <time>2019-08-18T04:55:37Z</time>
      </trkpt>
      <trkpt lat="45.1164" lon="6.60954">
        <ele>2377</ele>
        <time>2019-08-18T04:55:48Z</time>
      </trkpt>
      <trkpt lat="45.11632" lon="6.60947">
        <ele>2376</ele>
        <time>2019-08-18T04:56:00Z</time>
      </trkpt>
      <trkpt lat="45.11627" lon="6.60944">
        <ele>2375</ele>
        <time>2019-08-18T04:56:08Z</time>
      </trkpt>
      <trkpt lat="45.11618" lon="6.60945">
        <ele>2375</ele>
        <time>2019-08-18T04:56:20Z</time>
      </trkpt>
      <trkpt lat="45.11609" lon="6.60947">
        <ele>2375</ele>
        <time>2019-08-18T04:56:32Z</time>
      </trkpt>
      <trkpt lat="45.11602" lon="6.60946">
        <ele>2375</ele>
        <time>2019-08-18T04:56:41Z</time>
      </trkpt>
      <trkpt lat="45.11586" lon="6.60945">
        <ele>2374</ele>
        <time>2019-08-18T04:57:03Z</time>
      </trkpt>
      <trkpt lat="45.11576" lon="6.60942">
        <ele>2373</ele>
        <time>2019-08-18T04:57:16Z</time>
      </trkpt>
      <trkpt lat="45.11563" lon="6.60938">
        <ele>2371</ele>
        <time>2019-08-18T04:57:34Z</time>
      </trkpt>
      <trkpt lat="45.11556" lon="6.60937">
        <ele>2370</ele>
        <time>2019-08-18T04:57:43Z</time>
      </trkpt>
      <trkpt lat="45.11546" lon="6.60935">
        <ele>2369</ele>
        <time>2019-08-18T04:57:57Z</time>
      </trkpt>
      <trkpt lat="45.11534" lon="6.60931">
        <ele>2367</ele>
        <time>2019-08-18T04:58:13Z</time>
      </trkpt>
      <trkpt lat="45.11527" lon="6.60929">
        <ele>2366</ele>
        <time>2019-08-18T04:58:23Z</time>
      </trkpt>
      <trkpt lat="45.11522" lon="6.60931">
        <ele>2366</ele>
        <time>2019-08-18T04:58:30Z</time>
      </trkpt>
      <trkpt lat="45.11515" lon="6.60932">
        <ele>2366</ele>
        <time>2019-08-18T04:58:39Z</time>
      </trkpt>
      <trkpt lat="45.11512" lon="6.60931">
        <ele>2365</ele>
        <time>2019-08-18T04:58:43Z</time>
      </trkpt>
      <trkpt lat="45.11508" lon="6.60932">
        <ele>2365</ele>
        <time>2019-08-18T04:58:49Z</time>
      </trkpt>
      <trkpt lat="45.11502" lon="6.60932">
        <ele>2364</ele>
        <time>2019-08-18T04:58:57Z</time>
      </trkpt>
      <trkpt lat="45.11498" lon="6.60931">
        <ele>2364</ele>
        <time>2019-08-18T04:59:02Z</time>
      </trkpt>
      <trkpt lat="45.11493" lon="6.60925">
        <ele>2363</ele>
        <time>2019-08-18T04:59:11Z</time>
      </trkpt>
      <trkpt lat="45.11481" lon="6.60914">
        <ele>2360</ele>
        <time>2019-08-18T04:59:30Z</time>
      </trkpt>
      <trkpt lat="45.11475" lon="6.60908">
        <ele>2359</ele>
        <time>2019-08-18T04:59:40Z</time>
      </trkpt>
      <trkpt lat="45.11466" lon="6.60904">
        <ele>2358</ele>
        <time>2019-08-18T04:59:52Z</time>
      </trkpt>
      <trkpt lat="45.11457" lon="6.60901">
        <ele>2357</ele>
        <time>2019-08-18T05:00:05Z</time>
      </trkpt>
      <trkpt lat="45.11447" lon="6.60899">
        <ele>2355</ele>
        <time>2019-08-18T05:00:18Z</time>
      </trkpt>
      <trkpt lat="45.1144" lon="6.60897">
        <ele>2354</ele>
        <time>2019-08-18T05:00:28Z</time>
      </trkpt>
      <trkpt lat="45.11432" lon="6.60891">
        <ele>2352</ele>
        <time>2019-08-18T05:00:40Z</time>
      </trkpt>
      <trkpt lat="45.11425" lon="6.60884">
        <ele>2351</ele>
        <time>2019-08-18T05:00:51Z</time>
      </trkpt>
      <trkpt lat="45.11422" lon="6.60879">
        <ele>2350</ele>
        <time>2019-08-18T05:00:57Z</time>
      </trkpt>
      <trkpt lat="45.11419" lon="6.60873">
        <ele>2350</ele>
        <time>2019-08-18T05:01:04Z</time>
      </trkpt>
      <trkpt lat="45.11414" lon="6.60866">
        <ele>2349</ele>
        <time>2019-08-18T05:01:14Z</time>
      </trkpt>
      <trkpt lat="45.1141" lon="6.60862">
        <ele>2348</ele>
        <time>2019-08-18T05:01:20Z</time>
      </trkpt>
      <trkpt lat="45.11405" lon="6.60851">
        <ele>2346</ele>
        <time>2019-08-18T05:01:33Z</time>
      </trkpt>
      <trkpt lat="45.11401" lon="6.60846">
        <ele>2346</ele>
        <time>2019-08-18T05:01:40Z</time>
      </trkpt>
      <trkpt lat="45.11395" lon="6.6084">
        <ele>2344</ele>
        <time>2019-08-18T05:01:49Z</time>
      </trkpt>
      <trkpt lat="45.1139" lon="6.60835">
        <ele>2344</ele>
        <time>2019-08-18T05:01:58Z</time>
      </trkpt>
      <trkpt lat="45.11381" lon="6.6083">
        <ele>2342</ele>
        <time>2019-08-18T05:02:11Z</time>
      </trkpt>
      <trkpt lat="45.11377" lon="6.60826">
        <ele>2341</ele>
        <time>2019-08-18T05:02:17Z</time>
      </trkpt>
      <trkpt lat="45.11371" lon="6.60812">
        <ele>2339</ele>
        <time>2019-08-18T05:02:33Z</time>
      </trkpt>
      <trkpt lat="45.11368" lon="6.60806">
        <ele>2338</ele>
        <time>2019-08-18T05:02:39Z</time>
      </trkpt>
      <trkpt lat="45.11358" lon="6.60788">
        <ele>2335</ele>
        <time>2019-08-18T05:03:01Z</time>
      </trkpt>
      <trkpt lat="45.11354" lon="6.6078">
        <ele>2334</ele>
        <time>2019-08-18T05:03:10Z</time>
      </trkpt>
      <trkpt lat="45.1135" lon="6.60774">
        <ele>2333</ele>
        <time>2019-08-18T05:03:18Z</time>
      </trkpt>
      <trkpt lat="45.11344" lon="6.60769">
        <ele>2331</ele>
        <time>2019-08-18T05:03:27Z</time>
      </trkpt>
      <trkpt lat="45.11339" lon="6.60765">
        <ele>2329</ele>
        <time>2019-08-18T05:03:35Z</time>
      </trkpt>
      <trkpt lat="45.11333" lon="6.60753">
        <ele>2327</ele>
        <time>2019-08-18T05:03:49Z</time>
      </trkpt>
      <trkpt lat="45.11328" lon="6.60744">
        <ele>2327</ele>
        <time>2019-08-18T05:04:00Z</time>
      </trkpt>
      <trkpt lat="45.11313" lon="6.60719">
        <ele>2324</ele>
        <time>2019-08-18T05:04:30Z</time>
      </trkpt>
      <trkpt lat="45.11308" lon="6.6071">
        <ele>2324</ele>
        <time>2019-08-18T05:04:41Z</time>
      </trkpt>
      <trkpt lat="45.11306" lon="6.60706">
        <ele>2323</ele>
        <time>2019-08-18T05:04:46Z</time>
      </trkpt>
      <trkpt lat="45.11305" lon="6.60695">
        <ele>2322</ele>
        <time>2019-08-18T05:04:56Z</time>
      </trkpt>
      <trkpt lat="45.11304" lon="6.6069">
        <ele>2322</ele>
        <time>2019-08-18T05:05:01Z</time>
      </trkpt>
      <trkpt lat="45.11298" lon="6.60678">
        <ele>2320</ele>
        <time>2019-08-18T05:05:15Z</time>
      </trkpt>
      <trkpt lat="45.11296" lon="6.60673">
        <ele>2320</ele>
        <time>2019-08-18T05:05:21Z</time>
      </trkpt>
      <trkpt lat="45.11286" lon="6.60657">
        <ele>2319</ele>
        <time>2019-08-18T05:05:41Z</time>
      </trkpt>
      <trkpt lat="45.11278" lon="6.60649">
        <ele>2318</ele>
        <time>2019-08-18T05:05:54Z</time>
      </trkpt>
      <trkpt lat="45.11272" lon="6.60646">
        <ele>2317</ele>
        <time>2019-08-18T05:06:02Z</time>
      </trkpt>
      <trkpt lat="45.11267" lon="6.6064">
        <ele>2317</ele>
        <time>2019-08-18T05:06:11Z</time>
      </trkpt>
      <trkpt lat="45.11257" lon="6.60632">
        <ele>2315</ele>
        <time>2019-08-18T05:06:26Z</time>
      </trkpt>
      <trkpt lat="45.11249" lon="6.60627">
        <ele>2314</ele>
        <time>2019-08-18T05:06:38Z</time>
      </trkpt>
      <trkpt lat="45.1124" lon="6.60624">
        <ele>2313</ele>
        <time>2019-08-18T05:06:50Z</time>
      </trkpt>
      <trkpt lat="45.1123" lon="6.60625">
        <ele>2313</ele>
        <time>2019-08-18T05:07:04Z</time>
      </trkpt>
      <trkpt lat="45.11219" lon="6.60625">
        <ele>2313</ele>
        <time>2019-08-18T05:07:18Z</time>
      </trkpt>
      <trkpt lat="45.11214" lon="6.60623">
        <ele>2312</ele>
        <time>2019-08-18T05:07:25Z</time>
      </trkpt>
      <trkpt lat="45.11206" lon="6.60621">
        <ele>2312</ele>
        <time>2019-08-18T05:07:36Z</time>
      </trkpt>
      <trkpt lat="45.112" lon="6.60618">
        <ele>2311</ele>
        <time>2019-08-18T05:07:45Z</time>
      </trkpt>
      <trkpt lat="45.11195" lon="6.60616">
        <ele>2310</ele>
        <time>2019-08-18T05:07:52Z</time>
      </trkpt>
      <trkpt lat="45.11191" lon="6.60616">
        <ele>2310</ele>
        <time>2019-08-18T05:07:57Z</time>
      </trkpt>
      <trkpt lat="45.11186" lon="6.60614">
        <ele>2310</ele>
        <time>2019-08-18T05:08:04Z</time>
      </trkpt>
      <trkpt lat="45.11182" lon="6.60612">
        <ele>2309</ele>
        <time>2019-08-18T05:08:09Z</time>
      </trkpt>
      <trkpt lat="45.11176" lon="6.60612">
        <ele>2309</ele>
        <time>2019-08-18T05:08:17Z</time>
      </trkpt>
      <trkpt lat="45.1117" lon="6.60611">
        <ele>2308</ele>
        <time>2019-08-18T05:08:26Z</time>
      </trkpt>
      <trkpt lat="45.11161" lon="6.60612">
        <ele>2308</ele>
        <time>2019-08-18T05:08:38Z</time>
      </trkpt>
      <trkpt lat="45.11155" lon="6.60612">
        <ele>2307</ele>
        <time>2019-08-18T05:08:46Z</time>
      </trkpt>
      <trkpt lat="45.11146" lon="6.60606">
        <ele>2305</ele>
        <time>2019-08-18T05:08:59Z</time>
      </trkpt>
      <trkpt lat="45.11125" lon="6.60597">
        <ele>2301</ele>
        <time>2019-08-18T05:09:28Z</time>
      </trkpt>
      <trkpt lat="45.11123" lon="6.60595">
        <ele>2301</ele>
        <time>2019-08-18T05:09:31Z</time>
      </trkpt>
      <trkpt lat="45.11121" lon="6.60595">
        <ele>2301</ele>
        <time>2019-08-18T05:09:34Z</time>
      </trkpt>
      <trkpt lat="45.11118" lon="6.60599">
        <ele>2301</ele>
        <time>2019-08-18T05:09:40Z</time>
      </trkpt>
      <trkpt lat="45.11117" lon="6.60601">
        <ele>2301</ele>
        <time>2019-08-18T05:09:42Z</time>
      </trkpt>
      <trkpt lat="45.11114" lon="6.60602">
        <ele>2301</ele>
        <time>2019-08-18T05:09:46Z</time>
      </trkpt>
      <trkpt lat="45.11109" lon="6.60602">
        <ele>2301</ele>
        <time>2019-08-18T05:09:53Z</time>
      </trkpt>
      <trkpt lat="45.11103" lon="6.60596">
        <ele>2299</ele>
        <time>2019-08-18T05:10:02Z</time>
      </trkpt>
      <trkpt lat="45.11099" lon="6.60595">
        <ele>2298</ele>
        <time>2019-08-18T05:10:08Z</time>
      </trkpt>
      <trkpt lat="45.11091" lon="6.60594">
        <ele>2297</ele>
        <time>2019-08-18T05:10:19Z</time>
      </trkpt>
      <trkpt lat="45.11077" lon="6.60586">
        <ele>2293</ele>
        <time>2019-08-18T05:10:39Z</time>
      </trkpt>
      <trkpt lat="45.11069" lon="6.60579">
        <ele>2290</ele>
        <time>2019-08-18T05:10:51Z</time>
      </trkpt>
      <trkpt lat="45.11057" lon="6.60575">
        <ele>2286</ele>
        <time>2019-08-18T05:11:08Z</time>
      </trkpt>
      <trkpt lat="45.11054" lon="6.60574">
        <ele>2285</ele>
        <time>2019-08-18T05:11:12Z</time>
      </trkpt>
      <trkpt lat="45.11042" lon="6.60575">
        <ele>2282</ele>
        <time>2019-08-18T05:11:28Z</time>
      </trkpt>
      <trkpt lat="45.11039" lon="6.60576">
        <ele>2281</ele>
        <time>2019-08-18T05:11:32Z</time>
      </trkpt>
      <trkpt lat="45.11036" lon="6.6058">
        <ele>2281</ele>
        <time>2019-08-18T05:11:37Z</time>
      </trkpt>
      <trkpt lat="45.11028" lon="6.60584">
        <ele>2279</ele>
        <time>2019-08-18T05:11:49Z</time>
      </trkpt>
      <trkpt lat="45.11022" lon="6.60585">
        <ele>2278</ele>
        <time>2019-08-18T05:11:57Z</time>
      </trkpt>
      <trkpt lat="45.11016" lon="6.60582">
        <ele>2275</ele>
        <time>2019-08-18T05:12:05Z</time>
      </trkpt>
      <trkpt lat="45.11004" lon="6.60582">
        <ele>2272</ele>
        <time>2019-08-18T05:12:21Z</time>
      </trkpt>
      <trkpt lat="45.10998" lon="6.60583">
        <ele>2270</ele>
        <time>2019-08-18T05:12:29Z</time>
      </trkpt>
      <trkpt lat="45.10989" lon="6.60582">
        <ele>2267</ele>
        <time>2019-08-18T05:12:41Z</time>
      </trkpt>
      <trkpt lat="45.10983" lon="6.60581">
        <ele>2265</ele>
        <time>2019-08-18T05:12:50Z</time>
      </trkpt>
      <trkpt lat="45.10975" lon="6.60583">
        <ele>2262</ele>
        <time>2019-08-18T05:13:00Z</time>
      </trkpt>
      <trkpt lat="45.10971" lon="6.60584">
        <ele>2261</ele>
        <time>2019-08-18T05:13:06Z</time>
      </trkpt>
      <trkpt lat="45.10967" lon="6.60583">
        <ele>2259</ele>
        <time>2019-08-18T05:13:11Z</time>
      </trkpt>
      <trkpt lat="45.10965" lon="6.60583">
        <ele>2259</ele>
        <time>2019-08-18T05:13:14Z</time>
      </trkpt>
      <trkpt lat="45.1096" lon="6.60581">
        <ele>2257</ele>
        <time>2019-08-18T05:13:21Z</time>
      </trkpt>
      <trkpt lat="45.10951" lon="6.60579">
        <ele>2253</ele>
        <time>2019-08-18T05:13:33Z</time>
      </trkpt>
      <trkpt lat="45.10942" lon="6.60579">
        <ele>2250</ele>
        <time>2019-08-18T05:13:45Z</time>
      </trkpt>
      <trkpt lat="45.10937" lon="6.60578">
        <ele>2248</ele>
        <time>2019-08-18T05:13:52Z</time>
      </trkpt>
      <trkpt lat="45.10934" lon="6.6058">
        <ele>2248</ele>
        <time>2019-08-18T05:13:56Z</time>
      </trkpt>
      <trkpt lat="45.10923" lon="6.60583">
        <ele>2244</ele>
        <time>2019-08-18T05:14:11Z</time>
      </trkpt>
      <trkpt lat="45.10915" lon="6.60585">
        <ele>2242</ele>
        <time>2019-08-18T05:14:22Z</time>
      </trkpt>
      <trkpt lat="45.10911" lon="6.60587">
        <ele>2241</ele>
        <time>2019-08-18T05:14:28Z</time>
      </trkpt>
      <trkpt lat="45.10908" lon="6.6059">
        <ele>2241</ele>
        <time>2019-08-18T05:14:33Z</time>
      </trkpt>
      <trkpt lat="45.10904" lon="6.60592">
        <ele>2240</ele>
        <time>2019-08-18T05:14:38Z</time>
      </trkpt>
      <trkpt lat="45.10901" lon="6.60592">
        <ele>2239</ele>
        <time>2019-08-18T05:14:42Z</time>
      </trkpt>
      <trkpt lat="45.10897" lon="6.60591">
        <ele>2237</ele>
        <time>2019-08-18T05:14:48Z</time>
      </trkpt>
      <trkpt lat="45.10889" lon="6.60593">
        <ele>2235</ele>
        <time>2019-08-18T05:14:58Z</time>
      </trkpt>
      <trkpt lat="45.10886" lon="6.60592">
        <ele>2234</ele>
        <time>2019-08-18T05:15:03Z</time>
      </trkpt>
      <trkpt lat="45.10883" lon="6.60593">
        <ele>2233</ele>
        <time>2019-08-18T05:15:07Z</time>
      </trkpt>
      <trkpt lat="45.10878" lon="6.60595">
        <ele>2232</ele>
        <time>2019-08-18T05:15:14Z</time>
      </trkpt>
      <trkpt lat="45.10871" lon="6.60596">
        <ele>2229</ele>
        <time>2019-08-18T05:15:23Z</time>
      </trkpt>
      <trkpt lat="45.10863" lon="6.60599">
        <ele>2227</ele>
        <time>2019-08-18T05:15:34Z</time>
      </trkpt>
      <trkpt lat="45.10857" lon="6.60603">
        <ele>2226</ele>
        <time>2019-08-18T05:15:43Z</time>
      </trkpt>
      <trkpt lat="45.10849" lon="6.60608">
        <ele>2224</ele>
        <time>2019-08-18T05:15:55Z</time>
      </trkpt>
      <trkpt lat="45.1084" lon="6.6061">
        <ele>2221</ele>
        <time>2019-08-18T05:16:07Z</time>
      </trkpt>
      <trkpt lat="45.1083" lon="6.60611">
        <ele>2218</ele>
        <time>2019-08-18T05:16:20Z</time>
      </trkpt>
      <trkpt lat="45.10822" lon="6.60611">
        <ele>2217</ele>
        <time>2019-08-18T05:16:31Z</time>
      </trkpt>
      <trkpt lat="45.10818" lon="6.60608">
        <ele>2216</ele>
        <time>2019-08-18T05:16:37Z</time>
      </trkpt>
      <trkpt lat="45.10812" lon="6.60607">
        <ele>2215</ele>
        <time>2019-08-18T05:16:45Z</time>
      </trkpt>
      <trkpt lat="45.10809" lon="6.60608">
        <ele>2214</ele>
        <time>2019-08-18T05:16:49Z</time>
      </trkpt>
      <trkpt lat="45.10804" lon="6.60614">
        <ele>2214</ele>
        <time>2019-08-18T05:16:58Z</time>
      </trkpt>
      <trkpt lat="45.10799" lon="6.60618">
        <ele>2214</ele>
        <time>2019-08-18T05:17:05Z</time>
      </trkpt>
      <trkpt lat="45.10793" lon="6.60622">
        <ele>2213</ele>
        <time>2019-08-18T05:17:14Z</time>
      </trkpt>
      <trkpt lat="45.10784" lon="6.60633">
        <ele>2213</ele>
        <time>2019-08-18T05:17:30Z</time>
      </trkpt>
      <trkpt lat="45.10778" lon="6.6064">
        <ele>2212</ele>
        <time>2019-08-18T05:17:40Z</time>
      </trkpt>
      <trkpt lat="45.10762" lon="6.60649">
        <ele>2209</ele>
        <time>2019-08-18T05:18:03Z</time>
      </trkpt>
      <trkpt lat="45.10753" lon="6.6065">
        <ele>2207</ele>
        <time>2019-08-18T05:18:15Z</time>
      </trkpt>
      <trkpt lat="45.10748" lon="6.60648">
        <ele>2207</ele>
        <time>2019-08-18T05:18:22Z</time>
      </trkpt>
      <trkpt lat="45.10746" lon="6.60642">
        <ele>2207</ele>
        <time>2019-08-18T05:18:29Z</time>
      </trkpt>
      <trkpt lat="45.10744" lon="6.60637">
        <ele>2206</ele>
        <time>2019-08-18T05:18:34Z</time>
      </trkpt>
      <trkpt lat="45.10735" lon="6.60629">
        <ele>2206</ele>
        <time>2019-08-18T05:18:48Z</time>
      </trkpt>
      <trkpt lat="45.10725" lon="6.60622">
        <ele>2206</ele>
        <time>2019-08-18T05:19:03Z</time>
      </trkpt>
      <trkpt lat="45.10718" lon="6.60618">
        <ele>2206</ele>
        <time>2019-08-18T05:19:13Z</time>
      </trkpt>
      <trkpt lat="45.10708" lon="6.60615">
        <ele>2205</ele>
        <time>2019-08-18T05:19:27Z</time>
      </trkpt>
      <trkpt lat="45.107" lon="6.60613">
        <ele>2205</ele>
        <time>2019-08-18T05:19:38Z</time>
      </trkpt>
      <trkpt lat="45.10688" lon="6.60613">
        <ele>2205</ele>
        <time>2019-08-18T05:19:54Z</time>
      </trkpt>
      <trkpt lat="45.10679" lon="6.60611">
        <ele>2205</ele>
        <time>2019-08-18T05:20:06Z</time>
      </trkpt>
      <trkpt lat="45.10676" lon="6.60607">
        <ele>2205</ele>
        <time>2019-08-18T05:20:11Z</time>
      </trkpt>
      <trkpt lat="45.10661" lon="6.60601">
        <ele>2205</ele>
        <time>2019-08-18T05:20:32Z</time>
      </trkpt>
      <trkpt lat="45.1065" lon="6.60598">
        <ele>2206</ele>
        <time>2019-08-18T05:20:47Z</time>
      </trkpt>
      <trkpt lat="45.10646" lon="6.60597">
        <ele>2206</ele>
        <time>2019-08-18T05:20:53Z</time>
      </trkpt>
      <trkpt lat="45.10638" lon="6.60598">
        <ele>2206</ele>
        <time>2019-08-18T05:21:03Z</time>
      </trkpt>
      <trkpt lat="45.10626" lon="6.60595">
        <ele>2207</ele>
        <time>2019-08-18T05:21:20Z</time>
      </trkpt>
      <trkpt lat="45.10619" lon="6.60595">
        <ele>2208</ele>
        <time>2019-08-18T05:21:29Z</time>
      </trkpt>
      <trkpt lat="45.10615" lon="6.60596">
        <ele>2208</ele>
        <time>2019-08-18T05:21:34Z</time>
      </trkpt>
      <trkpt lat="45.10611" lon="6.60596">
        <ele>2208</ele>
        <time>2019-08-18T05:21:40Z</time>
      </trkpt>
      <trkpt lat="45.10608" lon="6.60598">
        <ele>2208</ele>
        <time>2019-08-18T05:21:44Z</time>
      </trkpt>
      <trkpt lat="45.106" lon="6.60599">
        <ele>2208</ele>
        <time>2019-08-18T05:21:55Z</time>
      </trkpt>
      <trkpt lat="45.10593" lon="6.60599">
        <ele>2208</ele>
        <time>2019-08-18T05:22:04Z</time>
      </trkpt>
      <trkpt lat="45.10582" lon="6.60606">
        <ele>2208</ele>
        <time>2019-08-18T05:22:20Z</time>
      </trkpt>
      <trkpt lat="45.10575" lon="6.60613">
        <ele>2207</ele>
        <time>2019-08-18T05:22:32Z</time>
      </trkpt>
      <trkpt lat="45.1057" lon="6.60616">
        <ele>2206</ele>
        <time>2019-08-18T05:22:39Z</time>
      </trkpt>
      <trkpt lat="45.10565" lon="6.6062">
        <ele>2206</ele>
        <time>2019-08-18T05:22:47Z</time>
      </trkpt>
      <trkpt lat="45.10553" lon="6.60627">
        <ele>2205</ele>
        <time>2019-08-18T05:23:04Z</time>
      </trkpt>
      <trkpt lat="45.10545" lon="6.6063">
        <ele>2205</ele>
        <time>2019-08-18T05:23:15Z</time>
      </trkpt>
      <trkpt lat="45.10532" lon="6.60633">
        <ele>2204</ele>
        <time>2019-08-18T05:23:32Z</time>
      </trkpt>
      <trkpt lat="45.10521" lon="6.60634">
        <ele>2204</ele>
        <time>2019-08-18T05:23:47Z</time>
      </trkpt>
      <trkpt lat="45.105" lon="6.60631">
        <ele>2206</ele>
        <time>2019-08-18T05:24:15Z</time>
      </trkpt>
      <trkpt lat="45.10492" lon="6.60632">
        <ele>2205</ele>
        <time>2019-08-18T05:24:26Z</time>
      </trkpt>
      <trkpt lat="45.10487" lon="6.60636">
        <ele>2205</ele>
        <time>2019-08-18T05:24:34Z</time>
      </trkpt>
      <trkpt lat="45.1047" lon="6.60642">
        <ele>2203</ele>
        <time>2019-08-18T05:24:57Z</time>
      </trkpt>
      <trkpt lat="45.10462" lon="6.60643">
        <ele>2203</ele>
        <time>2019-08-18T05:25:08Z</time>
      </trkpt>
      <trkpt lat="45.10459" lon="6.60646">
        <ele>2202</ele>
        <time>2019-08-18T05:25:13Z</time>
      </trkpt>
      <trkpt lat="45.10455" lon="6.60649">
        <ele>2202</ele>
        <time>2019-08-18T05:25:19Z</time>
      </trkpt>
      <trkpt lat="45.10447" lon="6.60652">
        <ele>2201</ele>
        <time>2019-08-18T05:25:30Z</time>
      </trkpt>
      <trkpt lat="45.10436" lon="6.60655">
        <ele>2200</ele>
        <time>2019-08-18T05:25:45Z</time>
      </trkpt>
      <trkpt lat="45.10427" lon="6.60656">
        <ele>2200</ele>
        <time>2019-08-18T05:25:57Z</time>
      </trkpt>
      <trkpt lat="45.10419" lon="6.60654">
        <ele>2201</ele>
        <time>2019-08-18T05:26:08Z</time>
      </trkpt>
      <trkpt lat="45.1041" lon="6.60647">
        <ele>2203</ele>
        <time>2019-08-18T05:26:21Z</time>
      </trkpt>
      <trkpt lat="45.10402" lon="6.60643">
        <ele>2204</ele>
        <time>2019-08-18T05:26:33Z</time>
      </trkpt>
      <trkpt lat="45.10392" lon="6.60642">
        <ele>2204</ele>
        <time>2019-08-18T05:26:46Z</time>
      </trkpt>
      <trkpt lat="45.10381" lon="6.60643">
        <ele>2204</ele>
        <time>2019-08-18T05:27:01Z</time>
      </trkpt>
      <trkpt lat="45.10366" lon="6.60644">
        <ele>2204</ele>
        <time>2019-08-18T05:27:21Z</time>
      </trkpt>
      <trkpt lat="45.1036" lon="6.60647">
        <ele>2203</ele>
        <time>2019-08-18T05:27:29Z</time>
      </trkpt>
      <trkpt lat="45.10352" lon="6.60649">
        <ele>2203</ele>
        <time>2019-08-18T05:27:40Z</time>
      </trkpt>
      <trkpt lat="45.10348" lon="6.6065">
        <ele>2203</ele>
        <time>2019-08-18T05:27:46Z</time>
      </trkpt>
      <trkpt lat="45.10345" lon="6.60653">
        <ele>2202</ele>
        <time>2019-08-18T05:27:50Z</time>
      </trkpt>
      <trkpt lat="45.10343" lon="6.60659">
        <ele>2200</ele>
        <time>2019-08-18T05:27:57Z</time>
      </trkpt>
      <trkpt lat="45.10341" lon="6.60662">
        <ele>2199</ele>
        <time>2019-08-18T05:28:01Z</time>
      </trkpt>
      <trkpt lat="45.10337" lon="6.60666">
        <ele>2198</ele>
        <time>2019-08-18T05:28:07Z</time>
      </trkpt>
      <trkpt lat="45.10332" lon="6.60666">
        <ele>2198</ele>
        <time>2019-08-18T05:28:14Z</time>
      </trkpt>
      <trkpt lat="45.10321" lon="6.60663">
        <ele>2198</ele>
        <time>2019-08-18T05:28:29Z</time>
      </trkpt>
      <trkpt lat="45.10308" lon="6.6066">
        <ele>2198</ele>
        <time>2019-08-18T05:28:46Z</time>
      </trkpt>
      <trkpt lat="45.10299" lon="6.60661">
        <ele>2197</ele>
        <time>2019-08-18T05:28:58Z</time>
      </trkpt>
      <trkpt lat="45.10289" lon="6.6066">
        <ele>2197</ele>
        <time>2019-08-18T05:29:12Z</time>
      </trkpt>
      <trkpt lat="45.10278" lon="6.60657">
        <ele>2197</ele>
        <time>2019-08-18T05:29:27Z</time>
      </trkpt>
      <trkpt lat="45.10266" lon="6.60659">
        <ele>2196</ele>
        <time>2019-08-18T05:29:43Z</time>
      </trkpt>
      <trkpt lat="45.10255" lon="6.6066">
        <ele>2195</ele>
        <time>2019-08-18T05:29:58Z</time>
      </trkpt>
      <trkpt lat="45.10248" lon="6.60658">
        <ele>2195</ele>
        <time>2019-08-18T05:30:07Z</time>
      </trkpt>
      <trkpt lat="45.10232" lon="6.60657">
        <ele>2194</ele>
        <time>2019-08-18T05:30:28Z</time>
      </trkpt>
      <trkpt lat="45.1021" lon="6.60657">
        <ele>2192</ele>
        <time>2019-08-18T05:30:58Z</time>
      </trkpt>
      <trkpt lat="45.10199" lon="6.60654">
        <ele>2192</ele>
        <time>2019-08-18T05:31:13Z</time>
      </trkpt>
      <trkpt lat="45.1019" lon="6.60652">
        <ele>2192</ele>
        <time>2019-08-18T05:31:25Z</time>
      </trkpt>
      <trkpt lat="45.10186" lon="6.60657">
        <ele>2190</ele>
        <time>2019-08-18T05:31:32Z</time>
      </trkpt>
      <trkpt lat="45.10181" lon="6.60655">
        <ele>2190</ele>
        <time>2019-08-18T05:31:39Z</time>
      </trkpt>
      <trkpt lat="45.10165" lon="6.60655">
        <ele>2189</ele>
        <time>2019-08-18T05:32:00Z</time>
      </trkpt>
      <trkpt lat="45.10156" lon="6.60655">
        <ele>2189</ele>
        <time>2019-08-18T05:32:12Z</time>
      </trkpt>
      <trkpt lat="45.10146" lon="6.60657">
        <ele>2188</ele>
        <time>2019-08-18T05:32:26Z</time>
      </trkpt>
      <trkpt lat="45.10137" lon="6.60659">
        <ele>2187</ele>
        <time>2019-08-18T05:32:38Z</time>
      </trkpt>
      <trkpt lat="45.10132" lon="6.60657">
        <ele>2187</ele>
        <time>2019-08-18T05:32:45Z</time>
      </trkpt>
      <trkpt lat="45.1012" lon="6.60656">
        <ele>2187</ele>
        <time>2019-08-18T05:33:01Z</time>
      </trkpt>
      <trkpt lat="45.10112" lon="6.60655">
        <ele>2187</ele>
        <time>2019-08-18T05:33:12Z</time>
      </trkpt>
      <trkpt lat="45.10084" lon="6.60655">
        <ele>2186</ele>
        <time>2019-08-18T05:33:49Z</time>
      </trkpt>
      <trkpt lat="45.10072" lon="6.60655">
        <ele>2185</ele>
        <time>2019-08-18T05:34:05Z</time>
      </trkpt>
      <trkpt lat="45.10066" lon="6.60654">
        <ele>2184</ele>
        <time>2019-08-18T05:34:13Z</time>
      </trkpt>
      <trkpt lat="45.10059" lon="6.60656">
        <ele>2184</ele>
        <time>2019-08-18T05:34:23Z</time>
      </trkpt>
      <trkpt lat="45.10052" lon="6.60653">
        <ele>2183</ele>
        <time>2019-08-18T05:34:32Z</time>
      </trkpt>
      <trkpt lat="45.10044" lon="6.60655">
        <ele>2182</ele>
        <time>2019-08-18T05:34:43Z</time>
      </trkpt>
      <trkpt lat="45.10038" lon="6.60654">
        <ele>2182</ele>
        <time>2019-08-18T05:34:51Z</time>
      </trkpt>
      <trkpt lat="45.1003" lon="6.60653">
        <ele>2181</ele>
        <time>2019-08-18T05:35:02Z</time>
      </trkpt>
      <trkpt lat="45.10023" lon="6.60649">
        <ele>2181</ele>
        <time>2019-08-18T05:35:12Z</time>
      </trkpt>
      <trkpt lat="45.10018" lon="6.60649">
        <ele>2181</ele>
        <time>2019-08-18T05:35:19Z</time>
      </trkpt>
      <trkpt lat="45.1001" lon="6.60647">
        <ele>2180</ele>
        <time>2019-08-18T05:35:30Z</time>
      </trkpt>
      <trkpt lat="45.10007" lon="6.60647">
        <ele>2180</ele>
        <time>2019-08-18T05:35:34Z</time>
      </trkpt>
      <trkpt lat="45.10001" lon="6.60651">
        <ele>2179</ele>
        <time>2019-08-18T05:35:42Z</time>
      </trkpt>
      <trkpt lat="45.09994" lon="6.60652">
        <ele>2178</ele>
        <time>2019-08-18T05:35:52Z</time>
      </trkpt>
      <trkpt lat="45.09973" lon="6.60651">
        <ele>2177</ele>
        <time>2019-08-18T05:36:20Z</time>
      </trkpt>
      <trkpt lat="45.09956" lon="6.60653">
        <ele>2176</ele>
        <time>2019-08-18T05:36:43Z</time>
      </trkpt>
      <trkpt lat="45.09941" lon="6.60652">
        <ele>2175</ele>
        <time>2019-08-18T05:37:03Z</time>
      </trkpt>
      <trkpt lat="45.09932" lon="6.60655">
        <ele>2175</ele>
        <time>2019-08-18T05:37:15Z</time>
      </trkpt>
      <trkpt lat="45.09909" lon="6.60666">
        <ele>2173</ele>
        <time>2019-08-18T05:37:47Z</time>
      </trkpt>
      <trkpt lat="45.09895" lon="6.60671">
        <ele>2172</ele>
        <time>2019-08-18T05:38:07Z</time>
      </trkpt>
      <trkpt lat="45.09883" lon="6.60674">
        <ele>2171</ele>
        <time>2019-08-18T05:38:23Z</time>
      </trkpt>
      <trkpt lat="45.0987" lon="6.60674">
        <ele>2171</ele>
        <time>2019-08-18T05:38:40Z</time>
      </trkpt>
      <trkpt lat="45.09861" lon="6.60675">
        <ele>2171</ele>
        <time>2019-08-18T05:38:52Z</time>
      </trkpt>
      <trkpt lat="45.09851" lon="6.60679">
        <ele>2170</ele>
        <time>2019-08-18T05:39:06Z</time>
      </trkpt>
      <trkpt lat="45.09843" lon="6.60678">
        <ele>2170</ele>
        <time>2019-08-18T05:39:17Z</time>
      </trkpt>
      <trkpt lat="45.09833" lon="6.60679">
        <ele>2170</ele>
        <time>2019-08-18T05:39:30Z</time>
      </trkpt>
      <trkpt lat="45.09802" lon="6.60691">
        <ele>2168</ele>
        <time>2019-08-18T05:40:13Z</time>
      </trkpt>
      <trkpt lat="45.09792" lon="6.60691">
        <ele>2168</ele>
        <time>2019-08-18T05:40:26Z</time>
      </trkpt>
      <trkpt lat="45.09785" lon="6.60694">
        <ele>2168</ele>
        <time>2019-08-18T05:40:36Z</time>
      </trkpt>
      <trkpt lat="45.09774" lon="6.607">
        <ele>2167</ele>
        <time>2019-08-18T05:40:52Z</time>
      </trkpt>
      <trkpt lat="45.09731" lon="6.60714">
        <ele>2165</ele>
        <time>2019-08-18T05:41:51Z</time>
      </trkpt>
      <trkpt lat="45.09723" lon="6.60718">
        <ele>2165</ele>
        <time>2019-08-18T05:42:02Z</time>
      </trkpt>
      <trkpt lat="45.09717" lon="6.60717">
        <ele>2165</ele>
        <time>2019-08-18T05:42:10Z</time>
      </trkpt>
      <trkpt lat="45.09707" lon="6.60716">
        <ele>2164</ele>
        <time>2019-08-18T05:42:24Z</time>
      </trkpt>
      <trkpt lat="45.09698" lon="6.60717">
        <ele>2164</ele>
        <time>2019-08-18T05:42:36Z</time>
      </trkpt>
      <trkpt lat="45.09693" lon="6.60716">
        <ele>2163</ele>
        <time>2019-08-18T05:42:42Z</time>
      </trkpt>
      <trkpt lat="45.09685" lon="6.60718">
        <ele>2163</ele>
        <time>2019-08-18T05:42:53Z</time>
      </trkpt>
      <trkpt lat="45.09673" lon="6.60715">
        <ele>2162</ele>
        <time>2019-08-18T05:43:09Z</time>
      </trkpt>
      <trkpt lat="45.09662" lon="6.60716">
        <ele>2162</ele>
        <time>2019-08-18T05:43:24Z</time>
      </trkpt>
      <trkpt lat="45.09649" lon="6.60714">
        <ele>2161</ele>
        <time>2019-08-18T05:43:42Z</time>
      </trkpt>
      <trkpt lat="45.09637" lon="6.60715">
        <ele>2161</ele>
        <time>2019-08-18T05:43:58Z</time>
      </trkpt>
      <trkpt lat="45.0962" lon="6.6072">
        <ele>2160</ele>
        <time>2019-08-18T05:44:21Z</time>
      </trkpt>
      <trkpt lat="45.09617" lon="6.60721">
        <ele>2159</ele>
        <time>2019-08-18T05:44:25Z</time>
      </trkpt>
      <trkpt lat="45.09609" lon="6.6072">
        <ele>2159</ele>
        <time>2019-08-18T05:44:36Z</time>
      </trkpt>
      <trkpt lat="45.09598" lon="6.60721">
        <ele>2158</ele>
        <time>2019-08-18T05:44:50Z</time>
      </trkpt>
      <trkpt lat="45.09587" lon="6.60726">
        <ele>2158</ele>
        <time>2019-08-18T05:45:06Z</time>
      </trkpt>
      <trkpt lat="45.09579" lon="6.60727">
        <ele>2157</ele>
        <time>2019-08-18T05:45:17Z</time>
      </trkpt>
      <trkpt lat="45.09556" lon="6.60726">
        <ele>2157</ele>
        <time>2019-08-18T05:45:47Z</time>
      </trkpt>
      <trkpt lat="45.0955" lon="6.60726">
        <ele>2157</ele>
        <time>2019-08-18T05:45:55Z</time>
      </trkpt>
      <trkpt lat="45.09543" lon="6.6073">
        <ele>2157</ele>
        <time>2019-08-18T05:46:05Z</time>
      </trkpt>
      <trkpt lat="45.09535" lon="6.60732">
        <ele>2157</ele>
        <time>2019-08-18T05:46:16Z</time>
      </trkpt>
      <trkpt lat="45.09524" lon="6.60731">
        <ele>2156</ele>
        <time>2019-08-18T05:46:31Z</time>
      </trkpt>
      <trkpt lat="45.09515" lon="6.60728">
        <ele>2156</ele>
        <time>2019-08-18T05:46:43Z</time>
      </trkpt>
      <trkpt lat="45.09503" lon="6.60721">
        <ele>2155</ele>
        <time>2019-08-18T05:47:01Z</time>
      </trkpt>
      <trkpt lat="45.09496" lon="6.60713">
        <ele>2154</ele>
        <time>2019-08-18T05:47:13Z</time>
      </trkpt>
      <trkpt lat="45.09491" lon="6.60713">
        <ele>2154</ele>
        <time>2019-08-18T05:47:19Z</time>
      </trkpt>
      <trkpt lat="45.09486" lon="6.60708">
        <ele>2153</ele>
        <time>2019-08-18T05:47:27Z</time>
      </trkpt>
      <trkpt lat="45.09471" lon="6.60706">
        <ele>2151</ele>
        <time>2019-08-18T05:47:47Z</time>
      </trkpt>
      <trkpt lat="45.09459" lon="6.60704">
        <ele>2150</ele>
        <time>2019-08-18T05:48:04Z</time>
      </trkpt>
      <trkpt lat="45.09447" lon="6.60697">
        <ele>2148</ele>
        <time>2019-08-18T05:48:21Z</time>
      </trkpt>
      <trkpt lat="45.09439" lon="6.60694">
        <ele>2146</ele>
        <time>2019-08-18T05:48:32Z</time>
      </trkpt>
      <trkpt lat="45.09427" lon="6.60697">
        <ele>2145</ele>
        <time>2019-08-18T05:48:48Z</time>
      </trkpt>
      <trkpt lat="45.09409" lon="6.60687">
        <ele>2141</ele>
        <time>2019-08-18T05:49:14Z</time>
      </trkpt>
      <trkpt lat="45.094" lon="6.60685">
        <ele>2139</ele>
        <time>2019-08-18T05:49:26Z</time>
      </trkpt>
      <trkpt lat="45.09393" lon="6.60688">
        <ele>2139</ele>
        <time>2019-08-18T05:49:36Z</time>
      </trkpt>
      <trkpt lat="45.09378" lon="6.60682">
        <ele>2135</ele>
        <time>2019-08-18T05:49:57Z</time>
      </trkpt>
      <trkpt lat="45.09371" lon="6.60686">
        <ele>2134</ele>
        <time>2019-08-18T05:50:07Z</time>
      </trkpt>
      <trkpt lat="45.09365" lon="6.60682">
        <ele>2133</ele>
        <time>2019-08-18T05:50:16Z</time>
      </trkpt>
      <trkpt lat="45.0936" lon="6.60681">
        <ele>2132</ele>
        <time>2019-08-18T05:50:22Z</time>
      </trkpt>
      <trkpt lat="45.09352" lon="6.60681">
        <ele>2131</ele>
        <time>2019-08-18T05:50:33Z</time>
      </trkpt>
      <trkpt lat="45.09347" lon="6.60684">
        <ele>2130</ele>
        <time>2019-08-18T05:50:40Z</time>
      </trkpt>
      <trkpt lat="45.09342" lon="6.60688">
        <ele>2129</ele>
        <time>2019-08-18T05:50:48Z</time>
      </trkpt>
      <trkpt lat="45.09334" lon="6.6069">
        <ele>2128</ele>
        <time>2019-08-18T05:50:59Z</time>
      </trkpt>
      <trkpt lat="45.09321" lon="6.60687">
        <ele>2127</ele>
        <time>2019-08-18T05:51:16Z</time>
      </trkpt>
      <trkpt lat="45.09312" lon="6.60693">
        <ele>2126</ele>
        <time>2019-08-18T05:51:30Z</time>
      </trkpt>
      <trkpt lat="45.09307" lon="6.60694">
        <ele>2125</ele>
        <time>2019-08-18T05:51:36Z</time>
      </trkpt>
      <trkpt lat="45.09302" lon="6.60686">
        <ele>2125</ele>
        <time>2019-08-18T05:51:46Z</time>
      </trkpt>
      <trkpt lat="45.09295" lon="6.60686">
        <ele>2124</ele>
        <time>2019-08-18T05:51:56Z</time>
      </trkpt>
      <trkpt lat="45.09276" lon="6.60684">
        <ele>2122</ele>
        <time>2019-08-18T05:52:21Z</time>
      </trkpt>
      <trkpt lat="45.09269" lon="6.60679">
        <ele>2122</ele>
        <time>2019-08-18T05:52:32Z</time>
      </trkpt>
      <trkpt lat="45.09257" lon="6.60677">
        <ele>2121</ele>
        <time>2019-08-18T05:52:48Z</time>
      </trkpt>
      <trkpt lat="45.09243" lon="6.60672">
        <ele>2118</ele>
        <time>2019-08-18T05:53:07Z</time>
      </trkpt>
      <trkpt lat="45.09222" lon="6.60662">
        <ele>2113</ele>
        <time>2019-08-18T05:53:37Z</time>
      </trkpt>
      <trkpt lat="45.09215" lon="6.6066">
        <ele>2112</ele>
        <time>2019-08-18T05:53:46Z</time>
      </trkpt>
      <trkpt lat="45.092" lon="6.60664">
        <ele>2107</ele>
        <time>2019-08-18T05:54:07Z</time>
      </trkpt>
      <trkpt lat="45.0919" lon="6.60661">
        <ele>2104</ele>
        <time>2019-08-18T05:54:20Z</time>
      </trkpt>
      <trkpt lat="45.09182" lon="6.60654">
        <ele>2103</ele>
        <time>2019-08-18T05:54:33Z</time>
      </trkpt>
      <trkpt lat="45.09181" lon="6.60648">
        <ele>2104</ele>
        <time>2019-08-18T05:54:39Z</time>
      </trkpt>
      <trkpt lat="45.09181" lon="6.60637">
        <ele>2106</ele>
        <time>2019-08-18T05:54:49Z</time>
      </trkpt>
      <trkpt lat="45.09179" lon="6.6063">
        <ele>2106</ele>
        <time>2019-08-18T05:54:56Z</time>
      </trkpt>
      <trkpt lat="45.09178" lon="6.60623">
        <ele>2107</ele>
        <time>2019-08-18T05:55:03Z</time>
      </trkpt>
      <trkpt lat="45.0918" lon="6.60616">
        <ele>2109</ele>
        <time>2019-08-18T05:55:10Z</time>
      </trkpt>
      <trkpt lat="45.09179" lon="6.60608">
        <ele>2110</ele>
        <time>2019-08-18T05:55:18Z</time>
      </trkpt>
      <trkpt lat="45.09174" lon="6.606">
        <ele>2110</ele>
        <time>2019-08-18T05:55:28Z</time>
      </trkpt>
      <trkpt lat="45.09169" lon="6.60594">
        <ele>2109</ele>
        <time>2019-08-18T05:55:36Z</time>
      </trkpt>
      <trkpt lat="45.09167" lon="6.60585">
        <ele>2110</ele>
        <time>2019-08-18T05:55:45Z</time>
      </trkpt>
      <trkpt lat="45.09166" lon="6.6058">
        <ele>2111</ele>
        <time>2019-08-18T05:55:50Z</time>
      </trkpt>
      <trkpt lat="45.0916" lon="6.60577">
        <ele>2110</ele>
        <time>2019-08-18T05:55:59Z</time>
      </trkpt>
      <trkpt lat="45.09161" lon="6.60586">
        <ele>2107</ele>
        <time>2019-08-18T05:56:07Z</time>
      </trkpt>
      <trkpt lat="45.09155" lon="6.60584">
        <ele>2105</ele>
        <time>2019-08-18T05:56:15Z</time>
      </trkpt>
      <trkpt lat="45.0915" lon="6.60579">
        <ele>2105</ele>
        <time>2019-08-18T05:56:24Z</time>
      </trkpt>
      <trkpt lat="45.09147" lon="6.60578">
        <ele>2104</ele>
        <time>2019-08-18T05:56:28Z</time>
      </trkpt>
      <trkpt lat="45.09148" lon="6.60586">
        <ele>2101</ele>
        <time>2019-08-18T05:56:35Z</time>
      </trkpt>
      <trkpt lat="45.09148" lon="6.60601">
        <ele>2099</ele>
        <time>2019-08-18T05:56:49Z</time>
      </trkpt>
      <trkpt lat="45.09148" lon="6.60609">
        <ele>2098</ele>
        <time>2019-08-18T05:56:57Z</time>
      </trkpt>
      <trkpt lat="45.09145" lon="6.60608">
        <ele>2097</ele>
        <time>2019-08-18T05:57:01Z</time>
      </trkpt>
      <trkpt lat="45.09143" lon="6.60615">
        <ele>2095</ele>
        <time>2019-08-18T05:57:08Z</time>
      </trkpt>
      <trkpt lat="45.09138" lon="6.60606">
        <ele>2094</ele>
        <time>2019-08-18T05:57:19Z</time>
      </trkpt>
      <trkpt lat="45.09137" lon="6.60619">
        <ele>2091</ele>
        <time>2019-08-18T05:57:31Z</time>
      </trkpt>
      <trkpt lat="45.09132" lon="6.60614">
        <ele>2090</ele>
        <time>2019-08-18T05:57:40Z</time>
      </trkpt>
      <trkpt lat="45.09126" lon="6.60611">
        <ele>2088</ele>
        <time>2019-08-18T05:57:48Z</time>
      </trkpt>
      <trkpt lat="45.09125" lon="6.6062">
        <ele>2086</ele>
        <time>2019-08-18T05:57:57Z</time>
      </trkpt>
      <trkpt lat="45.0912" lon="6.60618">
        <ele>2084</ele>
        <time>2019-08-18T05:58:04Z</time>
      </trkpt>
      <trkpt lat="45.09119" lon="6.60628">
        <ele>2082</ele>
        <time>2019-08-18T05:58:13Z</time>
      </trkpt>
      <trkpt lat="45.09111" lon="6.60626">
        <ele>2078</ele>
        <time>2019-08-18T05:58:24Z</time>
      </trkpt>
      <trkpt lat="45.09104" lon="6.60621">
        <ele>2076</ele>
        <time>2019-08-18T05:58:34Z</time>
      </trkpt>
      <trkpt lat="45.09102" lon="6.60631">
        <ele>2073</ele>
        <time>2019-08-18T05:58:44Z</time>
      </trkpt>
      <trkpt lat="45.09097" lon="6.60631">
        <ele>2071</ele>
        <time>2019-08-18T05:58:51Z</time>
      </trkpt>
      <trkpt lat="45.09091" lon="6.60627">
        <ele>2069</ele>
        <time>2019-08-18T05:59:00Z</time>
      </trkpt>
      <trkpt lat="45.09084" lon="6.60635">
        <ele>2064</ele>
        <time>2019-08-18T05:59:12Z</time>
      </trkpt>
      <trkpt lat="45.09082" lon="6.60641">
        <ele>2062</ele>
        <time>2019-08-18T05:59:18Z</time>
      </trkpt>
      <trkpt lat="45.09084" lon="6.60649">
        <ele>2062</ele>
        <time>2019-08-18T05:59:26Z</time>
      </trkpt>
      <trkpt lat="45.09084" lon="6.60657">
        <ele>2060</ele>
        <time>2019-08-18T05:59:33Z</time>
      </trkpt>
      <trkpt lat="45.09081" lon="6.6066">
        <ele>2059</ele>
        <time>2019-08-18T05:59:38Z</time>
      </trkpt>
      <trkpt lat="45.09077" lon="6.60662">
        <ele>2057</ele>
        <time>2019-08-18T05:59:44Z</time>
      </trkpt>
      <trkpt lat="45.09069" lon="6.60659">
        <ele>2055</ele>
        <time>2019-08-18T05:59:55Z</time>
      </trkpt>
      <trkpt lat="45.09066" lon="6.6066">
        <ele>2054</ele>
        <time>2019-08-18T05:59:59Z</time>
      </trkpt>
      <trkpt lat="45.09061" lon="6.60671">
        <ele>2052</ele>
        <time>2019-08-18T06:00:12Z</time>
      </trkpt>
      <trkpt lat="45.09056" lon="6.60678">
        <ele>2051</ele>
        <time>2019-08-18T06:00:21Z</time>
      </trkpt>
      <trkpt lat="45.09036" lon="6.60676">
        <ele>2045</ele>
        <time>2019-08-18T06:00:48Z</time>
      </trkpt>
      <trkpt lat="45.09028" lon="6.60679">
        <ele>2043</ele>
        <time>2019-08-18T06:00:59Z</time>
      </trkpt>
      <trkpt lat="45.09014" lon="6.60676">
        <ele>2038</ele>
        <time>2019-08-18T06:01:18Z</time>
      </trkpt>
      <trkpt lat="45.09003" lon="6.60675">
        <ele>2035</ele>
        <time>2019-08-18T06:01:32Z</time>
      </trkpt>
      <trkpt lat="45.08991" lon="6.60672">
        <ele>2032</ele>
        <time>2019-08-18T06:01:49Z</time>
      </trkpt>
      <trkpt lat="45.08957" lon="6.60667">
        <ele>2024</ele>
        <time>2019-08-18T06:02:34Z</time>
      </trkpt>
      <trkpt lat="45.08952" lon="6.60665">
        <ele>2023</ele>
        <time>2019-08-18T06:02:41Z</time>
      </trkpt>
      <trkpt lat="45.0894" lon="6.60668">
        <ele>2020</ele>
        <time>2019-08-18T06:02:57Z</time>
      </trkpt>
      <trkpt lat="45.08935" lon="6.60668">
        <ele>2019</ele>
        <time>2019-08-18T06:03:04Z</time>
      </trkpt>
      <trkpt lat="45.08931" lon="6.60663">
        <ele>2018</ele>
        <time>2019-08-18T06:03:11Z</time>
      </trkpt>
      <trkpt lat="45.08925" lon="6.60654">
        <ele>2017</ele>
        <time>2019-08-18T06:03:23Z</time>
      </trkpt>
      <trkpt lat="45.08924" lon="6.60654">
        <ele>2017</ele>
        <time>2019-08-18T06:03:24Z</time>
      </trkpt>
      <trkpt lat="45.08922" lon="6.60653">
        <ele>2016</ele>
        <time>2019-08-18T06:03:27Z</time>
      </trkpt>
      <trkpt lat="45.08912" lon="6.60659">
        <ele>2014</ele>
        <time>2019-08-18T06:03:41Z</time>
      </trkpt>
      <trkpt lat="45.08905" lon="6.60662">
        <ele>2012</ele>
        <time>2019-08-18T06:03:51Z</time>
      </trkpt>
      <trkpt lat="45.08881" lon="6.60668">
        <ele>2006</ele>
        <time>2019-08-18T06:04:24Z</time>
      </trkpt>
      <trkpt lat="45.08876" lon="6.60671">
        <ele>2005</ele>
        <time>2019-08-18T06:04:31Z</time>
      </trkpt>
      <trkpt lat="45.08868" lon="6.60682">
        <ele>2003</ele>
        <time>2019-08-18T06:04:46Z</time>
      </trkpt>
      <trkpt lat="45.08863" lon="6.60686">
        <ele>2002</ele>
        <time>2019-08-18T06:04:54Z</time>
      </trkpt>
      <trkpt lat="45.08857" lon="6.60688">
        <ele>2000</ele>
        <time>2019-08-18T06:05:02Z</time>
      </trkpt>
      <trkpt lat="45.08854" lon="6.6069">
        <ele>1999</ele>
        <time>2019-08-18T06:05:06Z</time>
      </trkpt>
      <trkpt lat="45.08853" lon="6.60691">
        <ele>1999</ele>
        <time>2019-08-18T06:05:08Z</time>
      </trkpt>
      <trkpt lat="45.08849" lon="6.60696">
        <ele>1998</ele>
        <time>2019-08-18T06:05:15Z</time>
      </trkpt>
      <trkpt lat="45.08845" lon="6.60699">
        <ele>1997</ele>
        <time>2019-08-18T06:05:21Z</time>
      </trkpt>
      <trkpt lat="45.0883" lon="6.6071">
        <ele>1994</ele>
        <time>2019-08-18T06:05:44Z</time>
      </trkpt>
      <trkpt lat="45.08819" lon="6.60721">
        <ele>1992</ele>
        <time>2019-08-18T06:06:02Z</time>
      </trkpt>
      <trkpt lat="45.08816" lon="6.60724">
        <ele>1992</ele>
        <time>2019-08-18T06:06:06Z</time>
      </trkpt>
      <trkpt lat="45.08808" lon="6.60741">
        <ele>1991</ele>
        <time>2019-08-18T06:06:26Z</time>
      </trkpt>
      <trkpt lat="45.08805" lon="6.60743">
        <ele>1990</ele>
        <time>2019-08-18T06:06:30Z</time>
      </trkpt>
      <trkpt lat="45.08795" lon="6.60747">
        <ele>1989</ele>
        <time>2019-08-18T06:06:44Z</time>
      </trkpt>
      <trkpt lat="45.08784" lon="6.60749">
        <ele>1987</ele>
        <time>2019-08-18T06:06:59Z</time>
      </trkpt>
      <trkpt lat="45.08778" lon="6.6075">
        <ele>1986</ele>
        <time>2019-08-18T06:07:07Z</time>
      </trkpt>
      <trkpt lat="45.08758" lon="6.6076">
        <ele>1983</ele>
        <time>2019-08-18T06:07:35Z</time>
      </trkpt>
      <trkpt lat="45.08745" lon="6.60766">
        <ele>1980</ele>
        <time>2019-08-18T06:07:53Z</time>
      </trkpt>
      <trkpt lat="45.08732" lon="6.60771">
        <ele>1977</ele>
        <time>2019-08-18T06:08:11Z</time>
      </trkpt>
      <trkpt lat="45.08724" lon="6.60772">
        <ele>1976</ele>
        <time>2019-08-18T06:08:22Z</time>
      </trkpt>
      <trkpt lat="45.08717" lon="6.60774">
        <ele>1974</ele>
        <time>2019-08-18T06:08:32Z</time>
      </trkpt>
      <trkpt lat="45.08711" lon="6.60776">
        <ele>1973</ele>
        <time>2019-08-18T06:08:40Z</time>
      </trkpt>
      <trkpt lat="45.08701" lon="6.60781">
        <ele>1971</ele>
        <time>2019-08-18T06:08:54Z</time>
      </trkpt>
      <trkpt lat="45.08698" lon="6.60783">
        <ele>1970</ele>
        <time>2019-08-18T06:08:58Z</time>
      </trkpt>
      <trkpt lat="45.08694" lon="6.60783">
        <ele>1969</ele>
        <time>2019-08-18T06:09:04Z</time>
      </trkpt>
      <trkpt lat="45.08673" lon="6.60775">
        <ele>1965</ele>
        <time>2019-08-18T06:09:33Z</time>
      </trkpt>
      <trkpt lat="45.08667" lon="6.60772">
        <ele>1964</ele>
        <time>2019-08-18T06:09:41Z</time>
      </trkpt>
      <trkpt lat="45.08663" lon="6.60766">
        <ele>1963</ele>
        <time>2019-08-18T06:09:49Z</time>
      </trkpt>
      <trkpt lat="45.08657" lon="6.60762">
        <ele>1962</ele>
        <time>2019-08-18T06:09:58Z</time>
      </trkpt>
      <trkpt lat="45.08652" lon="6.60759">
        <ele>1961</ele>
        <time>2019-08-18T06:10:05Z</time>
      </trkpt>
      <trkpt lat="45.08643" lon="6.60758">
        <ele>1958</ele>
        <time>2019-08-18T06:10:17Z</time>
      </trkpt>
      <trkpt lat="45.0863" lon="6.60756">
        <ele>1955</ele>
        <time>2019-08-18T06:10:35Z</time>
      </trkpt>
      <trkpt lat="45.08609" lon="6.60752">
        <ele>1949</ele>
        <time>2019-08-18T06:11:03Z</time>
      </trkpt>
      <trkpt lat="45.08597" lon="6.60747">
        <ele>1946</ele>
        <time>2019-08-18T06:11:20Z</time>
      </trkpt>
      <trkpt lat="45.08594" lon="6.60745">
        <ele>1945</ele>
        <time>2019-08-18T06:11:24Z</time>
      </trkpt>
      <trkpt lat="45.08588" lon="6.60735">
        <ele>1945</ele>
        <time>2019-08-18T06:11:36Z</time>
      </trkpt>
      <trkpt lat="45.08587" lon="6.60733">
        <ele>1944</ele>
        <time>2019-08-18T06:11:39Z</time>
      </trkpt>
      <trkpt lat="45.08577" lon="6.60736">
        <ele>1941</ele>
        <time>2019-08-18T06:11:52Z</time>
      </trkpt>
      <trkpt lat="45.08573" lon="6.60733">
        <ele>1940</ele>
        <time>2019-08-18T06:11:58Z</time>
      </trkpt>
      <trkpt lat="45.08572" lon="6.60732">
        <ele>1940</ele>
        <time>2019-08-18T06:12:00Z</time>
      </trkpt>
      <trkpt lat="45.08571" lon="6.6073">
        <ele>1940</ele>
        <time>2019-08-18T06:12:02Z</time>
      </trkpt>
      <trkpt lat="45.08568" lon="6.60722">
        <ele>1940</ele>
        <time>2019-08-18T06:12:11Z</time>
      </trkpt>
      <trkpt lat="45.08565" lon="6.6072">
        <ele>1939</ele>
        <time>2019-08-18T06:12:15Z</time>
      </trkpt>
      <trkpt lat="45.08562" lon="6.60722">
        <ele>1938</ele>
        <time>2019-08-18T06:12:20Z</time>
      </trkpt>
      <trkpt lat="45.08558" lon="6.60728">
        <ele>1937</ele>
        <time>2019-08-18T06:12:27Z</time>
      </trkpt>
      <trkpt lat="45.08555" lon="6.60729">
        <ele>1936</ele>
        <time>2019-08-18T06:12:32Z</time>
      </trkpt>
      <trkpt lat="45.08554" lon="6.60729">
        <ele>1935</ele>
        <time>2019-08-18T06:12:33Z</time>
      </trkpt>
      <trkpt lat="45.08553" lon="6.60727">
        <ele>1935</ele>
        <time>2019-08-18T06:12:35Z</time>
      </trkpt>
      <trkpt lat="45.0855" lon="6.60725">
        <ele>1935</ele>
        <time>2019-08-18T06:12:40Z</time>
      </trkpt>
      <trkpt lat="45.08549" lon="6.60724">
        <ele>1935</ele>
        <time>2019-08-18T06:12:41Z</time>
      </trkpt>
      <trkpt lat="45.08544" lon="6.60713">
        <ele>1934</ele>
        <time>2019-08-18T06:12:54Z</time>
      </trkpt>
      <trkpt lat="45.08544" lon="6.60711">
        <ele>1935</ele>
        <time>2019-08-18T06:12:55Z</time>
      </trkpt>
      <trkpt lat="45.08542" lon="6.6071">
        <ele>1934</ele>
        <time>2019-08-18T06:12:58Z</time>
      </trkpt>
      <trkpt lat="45.08538" lon="6.60709">
        <ele>1933</ele>
        <time>2019-08-18T06:13:04Z</time>
      </trkpt>
      <trkpt lat="45.08533" lon="6.60705">
        <ele>1932</ele>
        <time>2019-08-18T06:13:11Z</time>
      </trkpt>
      <trkpt lat="45.0853" lon="6.60703">
        <ele>1932</ele>
        <time>2019-08-18T06:13:16Z</time>
      </trkpt>
      <trkpt lat="45.08523" lon="6.60713">
        <ele>1929</ele>
        <time>2019-08-18T06:13:29Z</time>
      </trkpt>
      <trkpt lat="45.08521" lon="6.60717">
        <ele>1928</ele>
        <time>2019-08-18T06:13:34Z</time>
      </trkpt>
      <trkpt lat="45.08519" lon="6.60718">
        <ele>1927</ele>
        <time>2019-08-18T06:13:37Z</time>
      </trkpt>
      <trkpt lat="45.08517" lon="6.6072">
        <ele>1926</ele>
        <time>2019-08-18T06:13:40Z</time>
      </trkpt>
      <trkpt lat="45.08513" lon="6.60731">
        <ele>1923</ele>
        <time>2019-08-18T06:13:51Z</time>
      </trkpt>
      <trkpt lat="45.08513" lon="6.60732">
        <ele>1923</ele>
        <time>2019-08-18T06:13:52Z</time>
      </trkpt>
      <trkpt lat="45.08512" lon="6.60733">
        <ele>1923</ele>
        <time>2019-08-18T06:13:54Z</time>
      </trkpt>
      <trkpt lat="45.0851" lon="6.60733">
        <ele>1922</ele>
        <time>2019-08-18T06:13:57Z</time>
      </trkpt>
      <trkpt lat="45.08509" lon="6.60733">
        <ele>1922</ele>
        <time>2019-08-18T06:13:58Z</time>
      </trkpt>
      <trkpt lat="45.08508" lon="6.60731">
        <ele>1922</ele>
        <time>2019-08-18T06:14:00Z</time>
      </trkpt>
      <trkpt lat="45.08507" lon="6.6073">
        <ele>1922</ele>
        <time>2019-08-18T06:14:02Z</time>
      </trkpt>
      <trkpt lat="45.08507" lon="6.60711">
        <ele>1925</ele>
        <time>2019-08-18T06:14:20Z</time>
      </trkpt>
      <trkpt lat="45.08505" lon="6.60707">
        <ele>1925</ele>
        <time>2019-08-18T06:14:24Z</time>
      </trkpt>
      <trkpt lat="45.08497" lon="6.60699">
        <ele>1925</ele>
        <time>2019-08-18T06:14:38Z</time>
      </trkpt>
      <trkpt lat="45.08492" lon="6.60697">
        <ele>1925</ele>
        <time>2019-08-18T06:14:44Z</time>
      </trkpt>
      <trkpt lat="45.08484" lon="6.60697">
        <ele>1926</ele>
        <time>2019-08-18T06:14:55Z</time>
      </trkpt>
      <trkpt lat="45.08482" lon="6.60696">
        <ele>1926</ele>
        <time>2019-08-18T06:14:58Z</time>
      </trkpt>
      <trkpt lat="45.0848" lon="6.60697">
        <ele>1926</ele>
        <time>2019-08-18T06:15:01Z</time>
      </trkpt>
      <trkpt lat="45.08479" lon="6.60697">
        <ele>1926</ele>
        <time>2019-08-18T06:15:02Z</time>
      </trkpt>
      <trkpt lat="45.08477" lon="6.60708">
        <ele>1925</ele>
        <time>2019-08-18T06:15:13Z</time>
      </trkpt>
      <trkpt lat="45.08476" lon="6.60721">
        <ele>1922</ele>
        <time>2019-08-18T06:15:25Z</time>
      </trkpt>
      <trkpt lat="45.08477" lon="6.6074">
        <ele>1919</ele>
        <time>2019-08-18T06:15:43Z</time>
      </trkpt>
      <trkpt lat="45.08476" lon="6.60744">
        <ele>1918</ele>
        <time>2019-08-18T06:15:47Z</time>
      </trkpt>
      <trkpt lat="45.08469" lon="6.60756">
        <ele>1917</ele>
        <time>2019-08-18T06:16:02Z</time>
      </trkpt>
      <trkpt lat="45.08461" lon="6.6077">
        <ele>1916</ele>
        <time>2019-08-18T06:16:19Z</time>
      </trkpt>
      <trkpt lat="45.08455" lon="6.60782">
        <ele>1915</ele>
        <time>2019-08-18T06:16:33Z</time>
      </trkpt>
      <trkpt lat="45.08447" lon="6.60802">
        <ele>1913</ele>
        <time>2019-08-18T06:16:54Z</time>
      </trkpt>
      <trkpt lat="45.08446" lon="6.60804">
        <ele>1913</ele>
        <time>2019-08-18T06:16:57Z</time>
      </trkpt>
      <trkpt lat="45.08443" lon="6.60806">
        <ele>1912</ele>
        <time>2019-08-18T06:17:01Z</time>
      </trkpt>
      <trkpt lat="45.08434" lon="6.60818">
        <ele>1910</ele>
        <time>2019-08-18T06:17:18Z</time>
      </trkpt>
      <trkpt lat="45.08429" lon="6.60827">
        <ele>1908</ele>
        <time>2019-08-18T06:17:28Z</time>
      </trkpt>
      <trkpt lat="45.08384" lon="6.60916">
        <ele>1905</ele>
        <time>2019-08-18T06:19:11Z</time>
      </trkpt>
      <trkpt lat="45.08379" lon="6.60924">
        <ele>1905</ele>
        <time>2019-08-18T06:19:22Z</time>
      </trkpt>
      <trkpt lat="45.08357" lon="6.60952">
        <ele>1905</ele>
        <time>2019-08-18T06:20:01Z</time>
      </trkpt>
      <trkpt lat="45.08334" lon="6.6098">
        <ele>1903</ele>
        <time>2019-08-18T06:20:41Z</time>
      </trkpt>
      <trkpt lat="45.08308" lon="6.61006">
        <ele>1901</ele>
        <time>2019-08-18T06:21:24Z</time>
      </trkpt>
      <trkpt lat="45.08281" lon="6.61033">
        <ele>1900</ele>
        <time>2019-08-18T06:22:08Z</time>
      </trkpt>
      <trkpt lat="45.08262" lon="6.61047">
        <ele>1898</ele>
        <time>2019-08-18T06:22:37Z</time>
      </trkpt>
      <trkpt lat="45.08227" lon="6.61049">
        <ele>1896</ele>
        <time>2019-08-18T06:23:23Z</time>
      </trkpt>
      <trkpt lat="45.08199" lon="6.61055">
        <ele>1894</ele>
        <time>2019-08-18T06:24:01Z</time>
      </trkpt>
      <trkpt lat="45.08172" lon="6.6106">
        <ele>1892</ele>
        <time>2019-08-18T06:24:37Z</time>
      </trkpt>
      <trkpt lat="45.08138" lon="6.61053">
        <ele>1892</ele>
        <time>2019-08-18T06:25:23Z</time>
      </trkpt>
      <trkpt lat="45.08107" lon="6.61052">
        <ele>1891</ele>
        <time>2019-08-18T06:26:05Z</time>
      </trkpt>
      <trkpt lat="45.08096" lon="6.61056">
        <ele>1890</ele>
        <time>2019-08-18T06:26:20Z</time>
      </trkpt>
      <trkpt lat="45.08089" lon="6.61066">
        <ele>1888</ele>
        <time>2019-08-18T06:26:33Z</time>
      </trkpt>
      <trkpt lat="45.08079" lon="6.61083">
        <ele>1885</ele>
        <time>2019-08-18T06:26:54Z</time>
      </trkpt>
      <trkpt lat="45.08062" lon="6.61097">
        <ele>1882</ele>
        <time>2019-08-18T06:27:20Z</time>
      </trkpt>
      <trkpt lat="45.08023" lon="6.61112">
        <ele>1876</ele>
        <time>2019-08-18T06:28:14Z</time>
      </trkpt>
      <trkpt lat="45.08007" lon="6.61119">
        <ele>1874</ele>
        <time>2019-08-18T06:28:37Z</time>
      </trkpt>
      <trkpt lat="45.07967" lon="6.61122">
        <ele>1869</ele>
        <time>2019-08-18T06:29:30Z</time>
      </trkpt>
      <trkpt lat="45.07963" lon="6.61123">
        <ele>1869</ele>
        <time>2019-08-18T06:29:35Z</time>
      </trkpt>
      <trkpt lat="45.07937" lon="6.61147">
        <ele>1862</ele>
        <time>2019-08-18T06:30:17Z</time>
      </trkpt>
      <trkpt lat="45.0793" lon="6.61153">
        <ele>1860</ele>
        <time>2019-08-18T06:30:28Z</time>
      </trkpt>
      <trkpt lat="45.0792" lon="6.61155">
        <ele>1858</ele>
        <time>2019-08-18T06:30:41Z</time>
      </trkpt>
      <trkpt lat="45.07867" lon="6.61149">
        <ele>1852</ele>
        <time>2019-08-18T06:31:52Z</time>
      </trkpt>
      <trkpt lat="45.07859" lon="6.6115">
        <ele>1851</ele>
        <time>2019-08-18T06:32:03Z</time>
      </trkpt>
      <trkpt lat="45.07813" lon="6.61136">
        <ele>1850</ele>
        <time>2019-08-18T06:33:06Z</time>
      </trkpt>
      <trkpt lat="45.07801" lon="6.61131">
        <ele>1851</ele>
        <time>2019-08-18T06:33:22Z</time>
      </trkpt>
      <trkpt lat="45.07785" lon="6.61139">
        <ele>1848</ele>
        <time>2019-08-18T06:33:45Z</time>
      </trkpt>
      <trkpt lat="45.07759" lon="6.6114">
        <ele>1848</ele>
        <time>2019-08-18T06:34:20Z</time>
      </trkpt>
      <trkpt lat="45.07703" lon="6.61172">
        <ele>1850</ele>
        <time>2019-08-18T06:35:40Z</time>
      </trkpt>
      <trkpt lat="45.07689" lon="6.61181">
        <ele>1852</ele>
        <time>2019-08-18T06:36:01Z</time>
      </trkpt>
      <trkpt lat="45.07679" lon="6.61224">
        <ele>1844</ele>
        <time>2019-08-18T06:36:43Z</time>
      </trkpt>
      <trkpt lat="45.07666" lon="6.61249">
        <ele>1841</ele>
        <time>2019-08-18T06:37:13Z</time>
      </trkpt>
      <trkpt lat="45.07669" lon="6.61285">
        <ele>1836</ele>
        <time>2019-08-18T06:37:47Z</time>
      </trkpt>
      <trkpt lat="45.07664" lon="6.61312">
        <ele>1834</ele>
        <time>2019-08-18T06:38:13Z</time>
      </trkpt>
      <trkpt lat="45.07639" lon="6.61359">
        <ele>1832</ele>
        <time>2019-08-18T06:39:09Z</time>
      </trkpt>
      <trkpt lat="45.07608" lon="6.61402">
        <ele>1829</ele>
        <time>2019-08-18T06:40:07Z</time>
      </trkpt>
      <trkpt lat="45.07601" lon="6.6141">
        <ele>1828</ele>
        <time>2019-08-18T06:40:19Z</time>
      </trkpt>
      <trkpt lat="45.07592" lon="6.61415">
        <ele>1829</ele>
        <time>2019-08-18T06:40:31Z</time>
      </trkpt>
      <trkpt lat="45.0758" lon="6.61414">
        <ele>1831</ele>
        <time>2019-08-18T06:40:47Z</time>
      </trkpt>
      <trkpt lat="45.07564" lon="6.61407">
        <ele>1834</ele>
        <time>2019-08-18T06:41:10Z</time>
      </trkpt>
      <trkpt lat="45.07553" lon="6.61405">
        <ele>1835</ele>
        <time>2019-08-18T06:41:25Z</time>
      </trkpt>
      <trkpt lat="45.07532" lon="6.61406">
        <ele>1837</ele>
        <time>2019-08-18T06:41:53Z</time>
      </trkpt>
      <trkpt lat="45.07515" lon="6.61402">
        <ele>1839</ele>
        <time>2019-08-18T06:42:16Z</time>
      </trkpt>
      <trkpt lat="45.07505" lon="6.61397">
        <ele>1841</ele>
        <time>2019-08-18T06:42:30Z</time>
      </trkpt>
      <trkpt lat="45.07493" lon="6.61394">
        <ele>1844</ele>
        <time>2019-08-18T06:42:46Z</time>
      </trkpt>
      <trkpt lat="45.07459" lon="6.61467">
        <ele>1834</ele>
        <time>2019-08-18T06:44:08Z</time>
      </trkpt>
      <trkpt lat="45.07441" lon="6.61503">
        <ele>1828</ele>
        <time>2019-08-18T06:44:50Z</time>
      </trkpt>
      <trkpt lat="45.07434" lon="6.61507">
        <ele>1829</ele>
        <time>2019-08-18T06:45:00Z</time>
      </trkpt>
      <trkpt lat="45.07409" lon="6.61514">
        <ele>1834</ele>
        <time>2019-08-18T06:45:34Z</time>
      </trkpt>
      <trkpt lat="45.07389" lon="6.61519">
        <ele>1839</ele>
        <time>2019-08-18T06:46:01Z</time>
      </trkpt>
      <trkpt lat="45.07372" lon="6.6152">
        <ele>1845</ele>
        <time>2019-08-18T06:46:24Z</time>
      </trkpt>
      <trkpt lat="45.07364" lon="6.61523">
        <ele>1847</ele>
        <time>2019-08-18T06:46:35Z</time>
      </trkpt>
      <trkpt lat="45.07359" lon="6.6153">
        <ele>1846</ele>
        <time>2019-08-18T06:46:44Z</time>
      </trkpt>
      <trkpt lat="45.07351" lon="6.61568">
        <ele>1839</ele>
        <time>2019-08-18T06:47:22Z</time>
      </trkpt>
      <trkpt lat="45.07344" lon="6.6159">
        <ele>1836</ele>
        <time>2019-08-18T06:47:44Z</time>
      </trkpt>
      <trkpt lat="45.07333" lon="6.61614">
        <ele>1835</ele>
        <time>2019-08-18T06:48:11Z</time>
      </trkpt>
      <trkpt lat="45.07308" lon="6.6165">
        <ele>1833</ele>
        <time>2019-08-18T06:48:59Z</time>
      </trkpt>
      <trkpt lat="45.07292" lon="6.61683">
        <ele>1828</ele>
        <time>2019-08-18T06:49:37Z</time>
      </trkpt>
      <trkpt lat="45.07284" lon="6.61692">
        <ele>1827</ele>
        <time>2019-08-18T06:49:50Z</time>
      </trkpt>
      <trkpt lat="45.07278" lon="6.61695">
        <ele>1828</ele>
        <time>2019-08-18T06:49:59Z</time>
      </trkpt>
      <trkpt lat="45.07272" lon="6.61695">
        <ele>1829</ele>
        <time>2019-08-18T06:50:07Z</time>
      </trkpt>
      <trkpt lat="45.07268" lon="6.61698">
        <ele>1829</ele>
        <time>2019-08-18T06:50:13Z</time>
      </trkpt>
      <trkpt lat="45.07238" lon="6.61729">
        <ele>1829</ele>
        <time>2019-08-18T06:51:02Z</time>
      </trkpt>
      <trkpt lat="45.07214" lon="6.61763">
        <ele>1827</ele>
        <time>2019-08-18T06:51:48Z</time>
      </trkpt>
      <trkpt lat="45.07211" lon="6.61769">
        <ele>1827</ele>
        <time>2019-08-18T06:51:55Z</time>
      </trkpt>
      <trkpt lat="45.07204" lon="6.61792">
        <ele>1823</ele>
        <time>2019-08-18T06:52:18Z</time>
      </trkpt>
      <trkpt lat="45.072" lon="6.61799">
        <ele>1822</ele>
        <time>2019-08-18T06:52:27Z</time>
      </trkpt>
      <trkpt lat="45.07183" lon="6.61809">
        <ele>1823</ele>
        <time>2019-08-18T06:52:51Z</time>
      </trkpt>
      <trkpt lat="45.07178" lon="6.61814">
        <ele>1823</ele>
        <time>2019-08-18T06:53:00Z</time>
      </trkpt>
      <trkpt lat="45.07174" lon="6.61821">
        <ele>1822</ele>
        <time>2019-08-18T06:53:08Z</time>
      </trkpt>
      <trkpt lat="45.07165" lon="6.61861">
        <ele>1813</ele>
        <time>2019-08-18T06:53:48Z</time>
      </trkpt>
      <trkpt lat="45.07164" lon="6.61866">
        <ele>1812</ele>
        <time>2019-08-18T06:53:52Z</time>
      </trkpt>
      <trkpt lat="45.0716" lon="6.6187">
        <ele>1812</ele>
        <time>2019-08-18T06:53:59Z</time>
      </trkpt>
      <trkpt lat="45.07141" lon="6.61875">
        <ele>1818</ele>
        <time>2019-08-18T06:54:25Z</time>
      </trkpt>
      <trkpt lat="45.07135" lon="6.61878">
        <ele>1819</ele>
        <time>2019-08-18T06:54:33Z</time>
      </trkpt>
      <trkpt lat="45.07131" lon="6.61883">
        <ele>1819</ele>
        <time>2019-08-18T06:54:40Z</time>
      </trkpt>
      <trkpt lat="45.07128" lon="6.61889">
        <ele>1818</ele>
        <time>2019-08-18T06:54:47Z</time>
      </trkpt>
      <trkpt lat="45.07117" lon="6.6192">
        <ele>1810</ele>
        <time>2019-08-18T06:55:20Z</time>
      </trkpt>
      <trkpt lat="45.07107" lon="6.61943">
        <ele>1806</ele>
        <time>2019-08-18T06:55:45Z</time>
      </trkpt>
      <trkpt lat="45.07094" lon="6.61967">
        <ele>1802</ele>
        <time>2019-08-18T06:56:14Z</time>
      </trkpt>
      <trkpt lat="45.07089" lon="6.61972">
        <ele>1802</ele>
        <time>2019-08-18T06:56:22Z</time>
      </trkpt>
      <trkpt lat="45.0708" lon="6.61978">
        <ele>1803</ele>
        <time>2019-08-18T06:56:35Z</time>
      </trkpt>
      <trkpt lat="45.07075" lon="6.61983">
        <ele>1803</ele>
        <time>2019-08-18T06:56:44Z</time>
      </trkpt>
      <trkpt lat="45.07071" lon="6.61989">
        <ele>1803</ele>
        <time>2019-08-18T06:56:51Z</time>
      </trkpt>
      <trkpt lat="45.07066" lon="6.62006">
        <ele>1799</ele>
        <time>2019-08-18T06:57:09Z</time>
      </trkpt>
      <trkpt lat="45.07063" lon="6.62011">
        <ele>1799</ele>
        <time>2019-08-18T06:57:15Z</time>
      </trkpt>
      <trkpt lat="45.07055" lon="6.62019">
        <ele>1800</ele>
        <time>2019-08-18T06:57:28Z</time>
      </trkpt>
      <trkpt lat="45.07049" lon="6.62025">
        <ele>1800</ele>
        <time>2019-08-18T06:57:38Z</time>
      </trkpt>
      <trkpt lat="45.07042" lon="6.62027">
        <ele>1802</ele>
        <time>2019-08-18T06:57:47Z</time>
      </trkpt>
      <trkpt lat="45.07029" lon="6.62037">
        <ele>1804</ele>
        <time>2019-08-18T06:58:07Z</time>
      </trkpt>
      <trkpt lat="45.07026" lon="6.62042">
        <ele>1804</ele>
        <time>2019-08-18T06:58:13Z</time>
      </trkpt>
      <trkpt lat="45.07023" lon="6.62052">
        <ele>1801</ele>
        <time>2019-08-18T06:58:23Z</time>
      </trkpt>
      <trkpt lat="45.07018" lon="6.62082">
        <ele>1794</ele>
        <time>2019-08-18T06:58:53Z</time>
      </trkpt>
      <trkpt lat="45.07017" lon="6.6209">
        <ele>1792</ele>
        <time>2019-08-18T06:59:00Z</time>
      </trkpt>
      <trkpt lat="45.0702" lon="6.62102">
        <ele>1789</ele>
        <time>2019-08-18T06:59:12Z</time>
      </trkpt>
      <trkpt lat="45.07019" lon="6.62121">
        <ele>1787</ele>
        <time>2019-08-18T06:59:30Z</time>
      </trkpt>
      <trkpt lat="45.07019" lon="6.62148">
        <ele>1782</ele>
        <time>2019-08-18T06:59:56Z</time>
      </trkpt>
      <trkpt lat="45.07021" lon="6.62162">
        <ele>1779</ele>
        <time>2019-08-18T07:00:09Z</time>
      </trkpt>
      <trkpt lat="45.07023" lon="6.6217">
        <ele>1778</ele>
        <time>2019-08-18T07:00:17Z</time>
      </trkpt>
      <trkpt lat="45.07032" lon="6.62187">
        <ele>1774</ele>
        <time>2019-08-18T07:00:37Z</time>
      </trkpt>
      <trkpt lat="45.07038" lon="6.62197">
        <ele>1772</ele>
        <time>2019-08-18T07:00:49Z</time>
      </trkpt>
      <trkpt lat="45.07039" lon="6.62205">
        <ele>1772</ele>
        <time>2019-08-18T07:00:57Z</time>
      </trkpt>
      <trkpt lat="45.0704" lon="6.62212">
        <ele>1771</ele>
        <time>2019-08-18T07:01:04Z</time>
      </trkpt>
      <trkpt lat="45.07039" lon="6.6222">
        <ele>1771</ele>
        <time>2019-08-18T07:01:11Z</time>
      </trkpt>
      <trkpt lat="45.07036" lon="6.62229">
        <ele>1771</ele>
        <time>2019-08-18T07:01:21Z</time>
      </trkpt>
      <trkpt lat="45.0703" lon="6.62238">
        <ele>1771</ele>
        <time>2019-08-18T07:01:33Z</time>
      </trkpt>
      <trkpt lat="45.07021" lon="6.62258">
        <ele>1772</ele>
        <time>2019-08-18T07:01:55Z</time>
      </trkpt>
      <trkpt lat="45.07016" lon="6.62271">
        <ele>1772</ele>
        <time>2019-08-18T07:02:09Z</time>
      </trkpt>
      <trkpt lat="45.07014" lon="6.62268">
        <ele>1773</ele>
        <time>2019-08-18T07:02:13Z</time>
      </trkpt>
      <trkpt lat="45.07012" lon="6.62266">
        <ele>1773</ele>
        <time>2019-08-18T07:02:16Z</time>
      </trkpt>
      <trkpt lat="45.07009" lon="6.62265">
        <ele>1774</ele>
        <time>2019-08-18T07:02:20Z</time>
      </trkpt>
      <trkpt lat="45.07006" lon="6.62265">
        <ele>1774</ele>
        <time>2019-08-18T07:02:24Z</time>
      </trkpt>
      <trkpt lat="45.06981" lon="6.62292">
        <ele>1777</ele>
        <time>2019-08-18T07:03:06Z</time>
      </trkpt>
      <trkpt lat="45.06977" lon="6.62291">
        <ele>1777</ele>
        <time>2019-08-18T07:03:11Z</time>
      </trkpt>
      <trkpt lat="45.06971" lon="6.62286">
        <ele>1779</ele>
        <time>2019-08-18T07:03:21Z</time>
      </trkpt>
      <trkpt lat="45.06957" lon="6.62269">
        <ele>1782</ele>
        <time>2019-08-18T07:03:45Z</time>
      </trkpt>
      <trkpt lat="45.06912" lon="6.62234">
        <ele>1795</ele>
        <time>2019-08-18T07:04:54Z</time>
      </trkpt>
      <trkpt lat="45.06878" lon="6.62209">
        <ele>1805</ele>
        <time>2019-08-18T07:05:45Z</time>
      </trkpt>
      <trkpt lat="45.06853" lon="6.62188">
        <ele>1812</ele>
        <time>2019-08-18T07:06:24Z</time>
      </trkpt>
      <trkpt lat="45.0684" lon="6.62178">
        <ele>1816</ele>
        <time>2019-08-18T07:06:44Z</time>
      </trkpt>
      <trkpt lat="45.06818" lon="6.62149">
        <ele>1829</ele>
        <time>2019-08-18T07:07:24Z</time>
      </trkpt>
      <trkpt lat="45.06791" lon="6.62126">
        <ele>1840</ele>
        <time>2019-08-18T07:08:06Z</time>
      </trkpt>
      <trkpt lat="45.06781" lon="6.62114">
        <ele>1844</ele>
        <time>2019-08-18T07:08:23Z</time>
      </trkpt>
      <trkpt lat="45.06777" lon="6.62112">
        <ele>1845</ele>
        <time>2019-08-18T07:08:29Z</time>
      </trkpt>
      <trkpt lat="45.06766" lon="6.62095">
        <ele>1849</ele>
        <time>2019-08-18T07:08:51Z</time>
      </trkpt>
      <trkpt lat="45.06761" lon="6.62091">
        <ele>1849</ele>
        <time>2019-08-18T07:08:58Z</time>
      </trkpt>
      <trkpt lat="45.06753" lon="6.62099">
        <ele>1850</ele>
        <time>2019-08-18T07:09:11Z</time>
      </trkpt>
      <trkpt lat="45.06751" lon="6.6211">
        <ele>1850</ele>
        <time>2019-08-18T07:09:22Z</time>
      </trkpt>
      <trkpt lat="45.06751" lon="6.62135">
        <ele>1850</ele>
        <time>2019-08-18T07:09:46Z</time>
      </trkpt>
      <trkpt lat="45.06749" lon="6.62172">
        <ele>1849</ele>
        <time>2019-08-18T07:10:21Z</time>
      </trkpt>
      <trkpt lat="45.06743" lon="6.62205">
        <ele>1848</ele>
        <time>2019-08-18T07:10:53Z</time>
      </trkpt>
      <trkpt lat="45.06737" lon="6.62213">
        <ele>1851</ele>
        <time>2019-08-18T07:11:04Z</time>
      </trkpt>
      <trkpt lat="45.06704" lon="6.62239">
        <ele>1863</ele>
        <time>2019-08-18T07:11:54Z</time>
      </trkpt>
      <trkpt lat="45.06685" lon="6.62244">
        <ele>1871</ele>
        <time>2019-08-18T07:12:20Z</time>
      </trkpt>
      <trkpt lat="45.06683" lon="6.6224">
        <ele>1873</ele>
        <time>2019-08-18T07:12:25Z</time>
      </trkpt>
      <trkpt lat="45.06699" lon="6.62213">
        <ele>1872</ele>
        <time>2019-08-18T07:12:58Z</time>
      </trkpt>
      <trkpt lat="45.06716" lon="6.62191">
        <ele>1867</ele>
        <time>2019-08-18T07:13:28Z</time>
      </trkpt>
      <trkpt lat="45.06712" lon="6.62156">
        <ele>1875</ele>
        <time>2019-08-18T07:14:02Z</time>
      </trkpt>
      <trkpt lat="45.06709" lon="6.62154">
        <ele>1877</ele>
        <time>2019-08-18T07:14:06Z</time>
      </trkpt>
      <trkpt lat="45.06698" lon="6.62176">
        <ele>1881</ele>
        <time>2019-08-18T07:14:32Z</time>
      </trkpt>
      <trkpt lat="45.0667" lon="6.62194">
        <ele>1893</ele>
        <time>2019-08-18T07:15:13Z</time>
      </trkpt>
      <trkpt lat="45.06674" lon="6.62187">
        <ele>1893</ele>
        <time>2019-08-18T07:15:21Z</time>
      </trkpt>
      <trkpt lat="45.06685" lon="6.62163">
        <ele>1892</ele>
        <time>2019-08-18T07:15:48Z</time>
      </trkpt>
      <trkpt lat="45.06688" lon="6.62154">
        <ele>1892</ele>
        <time>2019-08-18T07:15:58Z</time>
      </trkpt>
      <trkpt lat="45.06685" lon="6.62131">
        <ele>1897</ele>
        <time>2019-08-18T07:16:20Z</time>
      </trkpt>
      <trkpt lat="45.0668" lon="6.62126">
        <ele>1902</ele>
        <time>2019-08-18T07:16:28Z</time>
      </trkpt>
      <trkpt lat="45.06665" lon="6.62157">
        <ele>1907</ele>
        <time>2019-08-18T07:17:03Z</time>
      </trkpt>
      <trkpt lat="45.06627" lon="6.62183">
        <ele>1920</ele>
        <time>2019-08-18T07:18:00Z</time>
      </trkpt>
      <trkpt lat="45.0662" lon="6.62193">
        <ele>1921</ele>
        <time>2019-08-18T07:18:13Z</time>
      </trkpt>
      <trkpt lat="45.06624" lon="6.62173">
        <ele>1925</ele>
        <time>2019-08-18T07:18:32Z</time>
      </trkpt>
      <trkpt lat="45.06636" lon="6.62147">
        <ele>1925</ele>
        <time>2019-08-18T07:19:02Z</time>
      </trkpt>
      <trkpt lat="45.06649" lon="6.62118">
        <ele>1923</ele>
        <time>2019-08-18T07:19:34Z</time>
      </trkpt>
      <trkpt lat="45.06651" lon="6.621">
        <ele>1925</ele>
        <time>2019-08-18T07:19:51Z</time>
      </trkpt>
      <trkpt lat="45.06648" lon="6.62082">
        <ele>1930</ele>
        <time>2019-08-18T07:20:09Z</time>
      </trkpt>
      <trkpt lat="45.06643" lon="6.62054">
        <ele>1930</ele>
        <time>2019-08-18T07:20:36Z</time>
      </trkpt>
      <trkpt lat="45.06627" lon="6.62088">
        <ele>1942</ele>
        <time>2019-08-18T07:21:14Z</time>
      </trkpt>
      <trkpt lat="45.06618" lon="6.62044">
        <ele>1946</ele>
        <time>2019-08-18T07:21:58Z</time>
      </trkpt>
      <trkpt lat="45.06604" lon="6.62018">
        <ele>1954</ele>
        <time>2019-08-18T07:22:28Z</time>
      </trkpt>
      <trkpt lat="45.06586" lon="6.6201">
        <ele>1967</ele>
        <time>2019-08-18T07:22:54Z</time>
      </trkpt>
      <trkpt lat="45.06571" lon="6.61987">
        <ele>1978</ele>
        <time>2019-08-18T07:23:23Z</time>
      </trkpt>
      <trkpt lat="45.06567" lon="6.61949">
        <ele>1979</ele>
        <time>2019-08-18T07:23:59Z</time>
      </trkpt>
      <trkpt lat="45.06567" lon="6.61929">
        <ele>1977</ele>
        <time>2019-08-18T07:24:18Z</time>
      </trkpt>
      <trkpt lat="45.06558" lon="6.61942">
        <ele>1985</ele>
        <time>2019-08-18T07:24:35Z</time>
      </trkpt>
      <trkpt lat="45.0655" lon="6.61962">
        <ele>1993</ele>
        <time>2019-08-18T07:24:57Z</time>
      </trkpt>
      <trkpt lat="45.06546" lon="6.62042">
        <ele>1995</ele>
        <time>2019-08-18T07:26:13Z</time>
      </trkpt>
      <trkpt lat="45.06548" lon="6.62076">
        <ele>1991</ele>
        <time>2019-08-18T07:26:45Z</time>
      </trkpt>
      <trkpt lat="45.06539" lon="6.62093">
        <ele>1993</ele>
        <time>2019-08-18T07:27:05Z</time>
      </trkpt>
      <trkpt lat="45.06494" lon="6.62116">
        <ele>2009</ele>
        <time>2019-08-18T07:28:09Z</time>
      </trkpt>
      <trkpt lat="45.06485" lon="6.62149">
        <ele>2000</ele>
        <time>2019-08-18T07:28:42Z</time>
      </trkpt>
      <trkpt lat="45.06469" lon="6.62155">
        <ele>2003</ele>
        <time>2019-08-18T07:29:04Z</time>
      </trkpt>
      <trkpt lat="45.0645" lon="6.6216">
        <ele>2008</ele>
        <time>2019-08-18T07:29:30Z</time>
      </trkpt>
      <trkpt lat="45.06425" lon="6.6215">
        <ele>2020</ele>
        <time>2019-08-18T07:30:04Z</time>
      </trkpt>
      <trkpt lat="45.06389" lon="6.6215">
        <ele>2037</ele>
        <time>2019-08-18T07:30:52Z</time>
      </trkpt>
      <trkpt lat="45.06343" lon="6.62176">
        <ele>2049</ele>
        <time>2019-08-18T07:31:59Z</time>
      </trkpt>
      <trkpt lat="45.06332" lon="6.62185">
        <ele>2053</ele>
        <time>2019-08-18T07:32:16Z</time>
      </trkpt>
      <trkpt lat="45.06326" lon="6.62194">
        <ele>2056</ele>
        <time>2019-08-18T07:32:27Z</time>
      </trkpt>
      <trkpt lat="45.06322" lon="6.62204">
        <ele>2057</ele>
        <time>2019-08-18T07:32:38Z</time>
      </trkpt>
      <trkpt lat="45.06319" lon="6.62215">
        <ele>2058</ele>
        <time>2019-08-18T07:32:49Z</time>
      </trkpt>
      <trkpt lat="45.06319" lon="6.62222">
        <ele>2057</ele>
        <time>2019-08-18T07:32:56Z</time>
      </trkpt>
      <trkpt lat="45.0632" lon="6.62227">
        <ele>2055</ele>
        <time>2019-08-18T07:33:01Z</time>
      </trkpt>
      <trkpt lat="45.06325" lon="6.62235">
        <ele>2051</ele>
        <time>2019-08-18T07:33:11Z</time>
      </trkpt>
      <trkpt lat="45.06329" lon="6.62242">
        <ele>2048</ele>
        <time>2019-08-18T07:33:19Z</time>
      </trkpt>
      <trkpt lat="45.06333" lon="6.62244">
        <ele>2045</ele>
        <time>2019-08-18T07:33:25Z</time>
      </trkpt>
      <trkpt lat="45.06333" lon="6.62246">
        <ele>2045</ele>
        <time>2019-08-18T07:33:27Z</time>
      </trkpt>
      <trkpt lat="45.0633" lon="6.62246">
        <ele>2047</ele>
        <time>2019-08-18T07:33:31Z</time>
      </trkpt>
      <trkpt lat="45.06326" lon="6.62245">
        <ele>2049</ele>
        <time>2019-08-18T07:33:36Z</time>
      </trkpt>
      <trkpt lat="45.06321" lon="6.6224">
        <ele>2053</ele>
        <time>2019-08-18T07:33:44Z</time>
      </trkpt>
      <trkpt lat="45.06314" lon="6.62231">
        <ele>2059</ele>
        <time>2019-08-18T07:33:57Z</time>
      </trkpt>
      <trkpt lat="45.0631" lon="6.62223">
        <ele>2062</ele>
        <time>2019-08-18T07:34:06Z</time>
      </trkpt>
      <trkpt lat="45.06309" lon="6.62223">
        <ele>2063</ele>
        <time>2019-08-18T07:34:08Z</time>
      </trkpt>
      <trkpt lat="45.06309" lon="6.62226">
        <ele>2063</ele>
        <time>2019-08-18T07:34:10Z</time>
      </trkpt>
      <trkpt lat="45.06318" lon="6.62261">
        <ele>2055</ele>
        <time>2019-08-18T07:34:45Z</time>
      </trkpt>
      <trkpt lat="45.06319" lon="6.62264">
        <ele>2054</ele>
        <time>2019-08-18T07:34:49Z</time>
      </trkpt>
      <trkpt lat="45.06327" lon="6.62268">
        <ele>2050</ele>
        <time>2019-08-18T07:35:00Z</time>
      </trkpt>
      <trkpt lat="45.06332" lon="6.62273">
        <ele>2048</ele>
        <time>2019-08-18T07:35:08Z</time>
      </trkpt>
      <trkpt lat="45.06333" lon="6.62277">
        <ele>2047</ele>
        <time>2019-08-18T07:35:12Z</time>
      </trkpt>
      <trkpt lat="45.06333" lon="6.62279">
        <ele>2048</ele>
        <time>2019-08-18T07:35:14Z</time>
      </trkpt>
      <trkpt lat="45.06332" lon="6.62279">
        <ele>2048</ele>
        <time>2019-08-18T07:35:15Z</time>
      </trkpt>
      <trkpt lat="45.06324" lon="6.62275">
        <ele>2053</ele>
        <time>2019-08-18T07:35:27Z</time>
      </trkpt>
      <trkpt lat="45.06318" lon="6.62277">
        <ele>2057</ele>
        <time>2019-08-18T07:35:35Z</time>
      </trkpt>
      <trkpt lat="45.06312" lon="6.62277">
        <ele>2060</ele>
        <time>2019-08-18T07:35:43Z</time>
      </trkpt>
      <trkpt lat="45.06297" lon="6.62271">
        <ele>2069</ele>
        <time>2019-08-18T07:36:04Z</time>
      </trkpt>
      <trkpt lat="45.06294" lon="6.62269">
        <ele>2070</ele>
        <time>2019-08-18T07:36:08Z</time>
      </trkpt>
      <trkpt lat="45.06291" lon="6.62258">
        <ele>2071</ele>
        <time>2019-08-18T07:36:19Z</time>
      </trkpt>
      <trkpt lat="45.06289" lon="6.62255">
        <ele>2072</ele>
        <time>2019-08-18T07:36:23Z</time>
      </trkpt>
      <trkpt lat="45.06289" lon="6.62252">
        <ele>2072</ele>
        <time>2019-08-18T07:36:26Z</time>
      </trkpt>
      <trkpt lat="45.06291" lon="6.62248">
        <ele>2071</ele>
        <time>2019-08-18T07:36:31Z</time>
      </trkpt>
      <trkpt lat="45.06291" lon="6.62244">
        <ele>2071</ele>
        <time>2019-08-18T07:36:34Z</time>
      </trkpt>
      <trkpt lat="45.0629" lon="6.62232">
        <ele>2074</ele>
        <time>2019-08-18T07:36:46Z</time>
      </trkpt>
      <trkpt lat="45.06287" lon="6.62224">
        <ele>2077</ele>
        <time>2019-08-18T07:36:54Z</time>
      </trkpt>
      <trkpt lat="45.06286" lon="6.62217">
        <ele>2079</ele>
        <time>2019-08-18T07:37:01Z</time>
      </trkpt>
      <trkpt lat="45.06285" lon="6.62215">
        <ele>2080</ele>
        <time>2019-08-18T07:37:03Z</time>
      </trkpt>
      <trkpt lat="45.06283" lon="6.62217">
        <ele>2080</ele>
        <time>2019-08-18T07:37:07Z</time>
      </trkpt>
      <trkpt lat="45.06282" lon="6.62224">
        <ele>2080</ele>
        <time>2019-08-18T07:37:13Z</time>
      </trkpt>
      <trkpt lat="45.0628" lon="6.62238">
        <ele>2079</ele>
        <time>2019-08-18T07:37:27Z</time>
      </trkpt>
      <trkpt lat="45.06274" lon="6.62253">
        <ele>2081</ele>
        <time>2019-08-18T07:37:43Z</time>
      </trkpt>
      <trkpt lat="45.06275" lon="6.62272">
        <ele>2082</ele>
        <time>2019-08-18T07:38:01Z</time>
      </trkpt>
      <trkpt lat="45.06279" lon="6.62293">
        <ele>2081</ele>
        <time>2019-08-18T07:38:21Z</time>
      </trkpt>
      <trkpt lat="45.0628" lon="6.62302">
        <ele>2082</ele>
        <time>2019-08-18T07:38:30Z</time>
      </trkpt>
      <trkpt lat="45.06284" lon="6.62312">
        <ele>2080</ele>
        <time>2019-08-18T07:38:41Z</time>
      </trkpt>
      <trkpt lat="45.06288" lon="6.6232">
        <ele>2078</ele>
        <time>2019-08-18T07:38:50Z</time>
      </trkpt>
      <trkpt lat="45.06296" lon="6.62325">
        <ele>2074</ele>
        <time>2019-08-18T07:39:02Z</time>
      </trkpt>
      <trkpt lat="45.06298" lon="6.62327">
        <ele>2073</ele>
        <time>2019-08-18T07:39:05Z</time>
      </trkpt>
      <trkpt lat="45.06301" lon="6.62339">
        <ele>2072</ele>
        <time>2019-08-18T07:39:17Z</time>
      </trkpt>
      <trkpt lat="45.06302" lon="6.62352">
        <ele>2071</ele>
        <time>2019-08-18T07:39:29Z</time>
      </trkpt>
      <trkpt lat="45.06296" lon="6.6237">
        <ele>2074</ele>
        <time>2019-08-18T07:39:48Z</time>
      </trkpt>
      <trkpt lat="45.0629" lon="6.62388">
        <ele>2076</ele>
        <time>2019-08-18T07:40:07Z</time>
      </trkpt>
      <trkpt lat="45.06277" lon="6.62407">
        <ele>2082</ele>
        <time>2019-08-18T07:40:32Z</time>
      </trkpt>
      <trkpt lat="45.0627" lon="6.62414">
        <ele>2084</ele>
        <time>2019-08-18T07:40:43Z</time>
      </trkpt>
      <trkpt lat="45.06265" lon="6.62416">
        <ele>2086</ele>
        <time>2019-08-18T07:40:50Z</time>
      </trkpt>
      <trkpt lat="45.06261" lon="6.62418">
        <ele>2088</ele>
        <time>2019-08-18T07:40:56Z</time>
      </trkpt>
      <trkpt lat="45.06257" lon="6.62418">
        <ele>2090</ele>
        <time>2019-08-18T07:41:01Z</time>
      </trkpt>
      <trkpt lat="45.06253" lon="6.62423">
        <ele>2091</ele>
        <time>2019-08-18T07:41:08Z</time>
      </trkpt>
      <trkpt lat="45.06247" lon="6.62432">
        <ele>2092</ele>
        <time>2019-08-18T07:41:20Z</time>
      </trkpt>
      <trkpt lat="45.06241" lon="6.62442">
        <ele>2092</ele>
        <time>2019-08-18T07:41:32Z</time>
      </trkpt>
      <trkpt lat="45.06239" lon="6.62451">
        <ele>2091</ele>
        <time>2019-08-18T07:41:41Z</time>
      </trkpt>
      <trkpt lat="45.06238" lon="6.62456">
        <ele>2091</ele>
        <time>2019-08-18T07:41:46Z</time>
      </trkpt>
      <trkpt lat="45.06233" lon="6.62463">
        <ele>2091</ele>
        <time>2019-08-18T07:41:55Z</time>
      </trkpt>
      <trkpt lat="45.06228" lon="6.62469">
        <ele>2091</ele>
        <time>2019-08-18T07:42:04Z</time>
      </trkpt>
      <trkpt lat="45.06215" lon="6.62477">
        <ele>2093</ele>
        <time>2019-08-18T07:42:23Z</time>
      </trkpt>
      <trkpt lat="45.06209" lon="6.62479">
        <ele>2094</ele>
        <time>2019-08-18T07:42:31Z</time>
      </trkpt>
      <trkpt lat="45.06205" lon="6.6248">
        <ele>2095</ele>
        <time>2019-08-18T07:42:37Z</time>
      </trkpt>
      <trkpt lat="45.06202" lon="6.62484">
        <ele>2095</ele>
        <time>2019-08-18T07:42:42Z</time>
      </trkpt>
      <trkpt lat="45.06199" lon="6.62485">
        <ele>2096</ele>
        <time>2019-08-18T07:42:46Z</time>
      </trkpt>
      <trkpt lat="45.06194" lon="6.62485">
        <ele>2097</ele>
        <time>2019-08-18T07:42:53Z</time>
      </trkpt>
      <trkpt lat="45.06179" lon="6.62497">
        <ele>2098</ele>
        <time>2019-08-18T07:43:16Z</time>
      </trkpt>
      <trkpt lat="45.0617" lon="6.62504">
        <ele>2099</ele>
        <time>2019-08-18T07:43:30Z</time>
      </trkpt>
      <trkpt lat="45.06165" lon="6.62505">
        <ele>2100</ele>
        <time>2019-08-18T07:43:37Z</time>
      </trkpt>
      <trkpt lat="45.06161" lon="6.62506">
        <ele>2101</ele>
        <time>2019-08-18T07:43:42Z</time>
      </trkpt>
      <trkpt lat="45.06145" lon="6.62523">
        <ele>2103</ele>
        <time>2019-08-18T07:44:09Z</time>
      </trkpt>
      <trkpt lat="45.06138" lon="6.62527">
        <ele>2105</ele>
        <time>2019-08-18T07:44:19Z</time>
      </trkpt>
      <trkpt lat="45.06128" lon="6.62529">
        <ele>2107</ele>
        <time>2019-08-18T07:44:32Z</time>
      </trkpt>
      <trkpt lat="45.06121" lon="6.62535">
        <ele>2108</ele>
        <time>2019-08-18T07:44:43Z</time>
      </trkpt>
      <trkpt lat="45.06119" lon="6.62536">
        <ele>2109</ele>
        <time>2019-08-18T07:44:46Z</time>
      </trkpt>
      <trkpt lat="45.06117" lon="6.62536">
        <ele>2109</ele>
        <time>2019-08-18T07:44:49Z</time>
      </trkpt>
      <trkpt lat="45.0611" lon="6.62532">
        <ele>2112</ele>
        <time>2019-08-18T07:44:59Z</time>
      </trkpt>
      <trkpt lat="45.06108" lon="6.62532">
        <ele>2113</ele>
        <time>2019-08-18T07:45:01Z</time>
      </trkpt>
      <trkpt lat="45.06106" lon="6.62534">
        <ele>2113</ele>
        <time>2019-08-18T07:45:05Z</time>
      </trkpt>
      <trkpt lat="45.06105" lon="6.62542">
        <ele>2112</ele>
        <time>2019-08-18T07:45:12Z</time>
      </trkpt>
      <trkpt lat="45.0608" lon="6.62562">
        <ele>2116</ele>
        <time>2019-08-18T07:45:51Z</time>
      </trkpt>
      <trkpt lat="45.06062" lon="6.62569">
        <ele>2119</ele>
        <time>2019-08-18T07:46:16Z</time>
      </trkpt>
      <trkpt lat="45.06056" lon="6.62571">
        <ele>2120</ele>
        <time>2019-08-18T07:46:24Z</time>
      </trkpt>
      <trkpt lat="45.06051" lon="6.6257">
        <ele>2122</ele>
        <time>2019-08-18T07:46:30Z</time>
      </trkpt>
      <trkpt lat="45.06048" lon="6.62571">
        <ele>2122</ele>
        <time>2019-08-18T07:46:35Z</time>
      </trkpt>
      <trkpt lat="45.06035" lon="6.62577">
        <ele>2124</ele>
        <time>2019-08-18T07:46:53Z</time>
      </trkpt>
      <trkpt lat="45.06027" lon="6.62583">
        <ele>2125</ele>
        <time>2019-08-18T07:47:05Z</time>
      </trkpt>
      <trkpt lat="45.0602" lon="6.62594">
        <ele>2125</ele>
        <time>2019-08-18T07:47:19Z</time>
      </trkpt>
      <trkpt lat="45.06016" lon="6.626">
        <ele>2126</ele>
        <time>2019-08-18T07:47:27Z</time>
      </trkpt>
      <trkpt lat="45.06008" lon="6.62607">
        <ele>2127</ele>
        <time>2019-08-18T07:47:39Z</time>
      </trkpt>
      <trkpt lat="45.06004" lon="6.6261">
        <ele>2127</ele>
        <time>2019-08-18T07:47:45Z</time>
      </trkpt>
      <trkpt lat="45.06002" lon="6.6261">
        <ele>2128</ele>
        <time>2019-08-18T07:47:48Z</time>
      </trkpt>
      <trkpt lat="45.05999" lon="6.62609">
        <ele>2129</ele>
        <time>2019-08-18T07:47:52Z</time>
      </trkpt>
      <trkpt lat="45.05996" lon="6.6261">
        <ele>2129</ele>
        <time>2019-08-18T07:47:56Z</time>
      </trkpt>
      <trkpt lat="45.05994" lon="6.6261">
        <ele>2129</ele>
        <time>2019-08-18T07:47:59Z</time>
      </trkpt>
      <trkpt lat="45.05987" lon="6.62606">
        <ele>2130</ele>
        <time>2019-08-18T07:48:09Z</time>
      </trkpt>
      <trkpt lat="45.0598" lon="6.62603">
        <ele>2130</ele>
        <time>2019-08-18T07:48:19Z</time>
      </trkpt>
      <trkpt lat="45.05965" lon="6.62602">
        <ele>2131</ele>
        <time>2019-08-18T07:48:39Z</time>
      </trkpt>
      <trkpt lat="45.05957" lon="6.62601">
        <ele>2132</ele>
        <time>2019-08-18T07:48:49Z</time>
      </trkpt>
      <trkpt lat="45.05949" lon="6.62602">
        <ele>2132</ele>
        <time>2019-08-18T07:49:00Z</time>
      </trkpt>
      <trkpt lat="45.05944" lon="6.62602">
        <ele>2132</ele>
        <time>2019-08-18T07:49:07Z</time>
      </trkpt>
      <trkpt lat="45.05938" lon="6.62599">
        <ele>2133</ele>
        <time>2019-08-18T07:49:15Z</time>
      </trkpt>
      <trkpt lat="45.05932" lon="6.62595">
        <ele>2133</ele>
        <time>2019-08-18T07:49:24Z</time>
      </trkpt>
      <trkpt lat="45.05928" lon="6.62595">
        <ele>2133</ele>
        <time>2019-08-18T07:49:29Z</time>
      </trkpt>
      <trkpt lat="45.05923" lon="6.62597">
        <ele>2133</ele>
        <time>2019-08-18T07:49:36Z</time>
      </trkpt>
      <trkpt lat="45.05918" lon="6.62596">
        <ele>2134</ele>
        <time>2019-08-18T07:49:43Z</time>
      </trkpt>
      <trkpt lat="45.05906" lon="6.62596">
        <ele>2135</ele>
        <time>2019-08-18T07:49:59Z</time>
      </trkpt>
      <trkpt lat="45.05887" lon="6.62593">
        <ele>2137</ele>
        <time>2019-08-18T07:50:25Z</time>
      </trkpt>
      <trkpt lat="45.05854" lon="6.62594">
        <ele>2140</ele>
        <time>2019-08-18T07:51:09Z</time>
      </trkpt>
      <trkpt lat="45.05843" lon="6.62601">
        <ele>2141</ele>
        <time>2019-08-18T07:51:25Z</time>
      </trkpt>
      <trkpt lat="45.05831" lon="6.62609">
        <ele>2142</ele>
        <time>2019-08-18T07:51:43Z</time>
      </trkpt>
      <trkpt lat="45.05818" lon="6.62621">
        <ele>2144</ele>
        <time>2019-08-18T07:52:03Z</time>
      </trkpt>
      <trkpt lat="45.05809" lon="6.62627">
        <ele>2146</ele>
        <time>2019-08-18T07:52:16Z</time>
      </trkpt>
      <trkpt lat="45.05784" lon="6.62642">
        <ele>2150</ele>
        <time>2019-08-18T07:52:53Z</time>
      </trkpt>
      <trkpt lat="45.05772" lon="6.62649">
        <ele>2152</ele>
        <time>2019-08-18T07:53:10Z</time>
      </trkpt>
      <trkpt lat="45.05761" lon="6.62654">
        <ele>2154</ele>
        <time>2019-08-18T07:53:25Z</time>
      </trkpt>
      <trkpt lat="45.05754" lon="6.62659">
        <ele>2155</ele>
        <time>2019-08-18T07:53:36Z</time>
      </trkpt>
      <trkpt lat="45.05745" lon="6.62669">
        <ele>2156</ele>
        <time>2019-08-18T07:53:51Z</time>
      </trkpt>
      <trkpt lat="45.05734" lon="6.62683">
        <ele>2160</ele>
        <time>2019-08-18T07:54:11Z</time>
      </trkpt>
      <trkpt lat="45.05727" lon="6.62688">
        <ele>2162</ele>
        <time>2019-08-18T07:54:21Z</time>
      </trkpt>
      <trkpt lat="45.05721" lon="6.62697">
        <ele>2164</ele>
        <time>2019-08-18T07:54:33Z</time>
      </trkpt>
      <trkpt lat="45.05715" lon="6.62704">
        <ele>2165</ele>
        <time>2019-08-18T07:54:43Z</time>
      </trkpt>
      <trkpt lat="45.0571" lon="6.6271">
        <ele>2166</ele>
        <time>2019-08-18T07:54:52Z</time>
      </trkpt>
      <trkpt lat="45.05708" lon="6.62724">
        <ele>2167</ele>
        <time>2019-08-18T07:55:06Z</time>
      </trkpt>
      <trkpt lat="45.05707" lon="6.62731">
        <ele>2168</ele>
        <time>2019-08-18T07:55:12Z</time>
      </trkpt>
      <trkpt lat="45.05703" lon="6.62735">
        <ele>2169</ele>
        <time>2019-08-18T07:55:19Z</time>
      </trkpt>
      <trkpt lat="45.05699" lon="6.62749">
        <ele>2170</ele>
        <time>2019-08-18T07:55:33Z</time>
      </trkpt>
      <trkpt lat="45.05697" lon="6.62762">
        <ele>2172</ele>
        <time>2019-08-18T07:55:46Z</time>
      </trkpt>
      <trkpt lat="45.05693" lon="6.62776">
        <ele>2175</ele>
        <time>2019-08-18T07:56:00Z</time>
      </trkpt>
      <trkpt lat="45.05686" lon="6.62795">
        <ele>2178</ele>
        <time>2019-08-18T07:56:20Z</time>
      </trkpt>
      <trkpt lat="45.05676" lon="6.62812">
        <ele>2181</ele>
        <time>2019-08-18T07:56:41Z</time>
      </trkpt>
      <trkpt lat="45.05664" lon="6.62829">
        <ele>2184</ele>
        <time>2019-08-18T07:57:04Z</time>
      </trkpt>
      <trkpt lat="45.05651" lon="6.62841">
        <ele>2187</ele>
        <time>2019-08-18T07:57:24Z</time>
      </trkpt>
      <trkpt lat="45.05639" lon="6.62855">
        <ele>2189</ele>
        <time>2019-08-18T07:57:45Z</time>
      </trkpt>
      <trkpt lat="45.05625" lon="6.62878">
        <ele>2192</ele>
        <time>2019-08-18T07:58:14Z</time>
      </trkpt>
      <trkpt lat="45.05608" lon="6.62904">
        <ele>2194</ele>
        <time>2019-08-18T07:58:47Z</time>
      </trkpt>
      <trkpt lat="45.05596" lon="6.62917">
        <ele>2194</ele>
        <time>2019-08-18T07:59:07Z</time>
      </trkpt>
      <trkpt lat="45.05589" lon="6.62931">
        <ele>2194</ele>
        <time>2019-08-18T07:59:23Z</time>
      </trkpt>
      <trkpt lat="45.05579" lon="6.62942">
        <ele>2194</ele>
        <time>2019-08-18T07:59:40Z</time>
      </trkpt>
      <trkpt lat="45.05569" lon="6.62947">
        <ele>2195</ele>
        <time>2019-08-18T07:59:55Z</time>
      </trkpt>
      <trkpt lat="45.0556" lon="6.62955">
        <ele>2195</ele>
        <time>2019-08-18T08:00:09Z</time>
      </trkpt>
      <trkpt lat="45.05546" lon="6.62961">
        <ele>2194</ele>
        <time>2019-08-18T08:00:28Z</time>
      </trkpt>
      <trkpt lat="45.0553" lon="6.62964">
        <ele>2194</ele>
        <time>2019-08-18T08:00:50Z</time>
      </trkpt>
      <trkpt lat="45.0552" lon="6.6297">
        <ele>2194</ele>
        <time>2019-08-18T08:01:04Z</time>
      </trkpt>
      <trkpt lat="45.05512" lon="6.62979">
        <ele>2193</ele>
        <time>2019-08-18T08:01:18Z</time>
      </trkpt>
      <trkpt lat="45.05489" lon="6.63022">
        <ele>2192</ele>
        <time>2019-08-18T08:02:09Z</time>
      </trkpt>
      <trkpt lat="45.05471" lon="6.63042">
        <ele>2192</ele>
        <time>2019-08-18T08:02:39Z</time>
      </trkpt>
      <trkpt lat="45.05466" lon="6.63053">
        <ele>2193</ele>
        <time>2019-08-18T08:02:52Z</time>
      </trkpt>
      <trkpt lat="45.05461" lon="6.63057">
        <ele>2193</ele>
        <time>2019-08-18T08:02:59Z</time>
      </trkpt>
      <trkpt lat="45.05455" lon="6.63059">
        <ele>2193</ele>
        <time>2019-08-18T08:03:07Z</time>
      </trkpt>
      <trkpt lat="45.05445" lon="6.63068">
        <ele>2194</ele>
        <time>2019-08-18T08:03:23Z</time>
      </trkpt>
      <trkpt lat="45.05416" lon="6.63085">
        <ele>2196</ele>
        <time>2019-08-18T08:04:05Z</time>
      </trkpt>
      <trkpt lat="45.05387" lon="6.63103">
        <ele>2195</ele>
        <time>2019-08-18T08:04:47Z</time>
      </trkpt>
      <trkpt lat="45.05349" lon="6.63111">
        <ele>2193</ele>
        <time>2019-08-18T08:05:39Z</time>
      </trkpt>
      <trkpt lat="45.05273" lon="6.63129">
        <ele>2186</ele>
        <time>2019-08-18T08:07:22Z</time>
      </trkpt>
      <trkpt lat="45.05235" lon="6.63138">
        <ele>2182</ele>
        <time>2019-08-18T08:08:13Z</time>
      </trkpt>
      <trkpt lat="45.05159" lon="6.63143">
        <ele>2175</ele>
        <time>2019-08-18T08:09:54Z</time>
      </trkpt>
      <trkpt lat="45.05138" lon="6.63159">
        <ele>2173</ele>
        <time>2019-08-18T08:10:26Z</time>
      </trkpt>
      <trkpt lat="45.05108" lon="6.63158">
        <ele>2170</ele>
        <time>2019-08-18T08:11:06Z</time>
      </trkpt>
      <trkpt lat="45.05067" lon="6.63159">
        <ele>2166</ele>
        <time>2019-08-18T08:12:01Z</time>
      </trkpt>
      <trkpt lat="45.05029" lon="6.6316">
        <ele>2164</ele>
        <time>2019-08-18T08:12:52Z</time>
      </trkpt>
      <trkpt lat="45.04993" lon="6.6317">
        <ele>2161</ele>
        <time>2019-08-18T08:13:41Z</time>
      </trkpt>
      <trkpt lat="45.04957" lon="6.6318">
        <ele>2161</ele>
        <time>2019-08-18T08:14:30Z</time>
      </trkpt>
      <trkpt lat="45.04892" lon="6.63186">
        <ele>2158</ele>
        <time>2019-08-18T08:15:57Z</time>
      </trkpt>
      <trkpt lat="45.0486" lon="6.63189">
        <ele>2155</ele>
        <time>2019-08-18T08:16:39Z</time>
      </trkpt>
      <trkpt lat="45.0483" lon="6.63187">
        <ele>2153</ele>
        <time>2019-08-18T08:17:20Z</time>
      </trkpt>
      <trkpt lat="45.04799" lon="6.63185">
        <ele>2149</ele>
        <time>2019-08-18T08:18:01Z</time>
      </trkpt>
      <trkpt lat="45.04688" lon="6.632">
        <ele>2138</ele>
        <time>2019-08-18T08:20:30Z</time>
      </trkpt>
      <trkpt lat="45.04675" lon="6.63205">
        <ele>2137</ele>
        <time>2019-08-18T08:20:48Z</time>
      </trkpt>
      <trkpt lat="45.04644" lon="6.63205">
        <ele>2134</ele>
        <time>2019-08-18T08:21:29Z</time>
      </trkpt>
      <trkpt lat="45.04613" lon="6.63206">
        <ele>2131</ele>
        <time>2019-08-18T08:22:10Z</time>
      </trkpt>
      <trkpt lat="45.04582" lon="6.63196">
        <ele>2128</ele>
        <time>2019-08-18T08:22:53Z</time>
      </trkpt>
      <trkpt lat="45.04551" lon="6.63187">
        <ele>2124</ele>
        <time>2019-08-18T08:23:35Z</time>
      </trkpt>
      <trkpt lat="45.04507" lon="6.63191">
        <ele>2119</ele>
        <time>2019-08-18T08:24:34Z</time>
      </trkpt>
      <trkpt lat="45.04498" lon="6.63193">
        <ele>2119</ele>
        <time>2019-08-18T08:24:46Z</time>
      </trkpt>
      <trkpt lat="45.04483" lon="6.63202">
        <ele>2117</ele>
        <time>2019-08-18T08:25:08Z</time>
      </trkpt>
      <trkpt lat="45.04473" lon="6.63206">
        <ele>2116</ele>
        <time>2019-08-18T08:25:22Z</time>
      </trkpt>
      <trkpt lat="45.04464" lon="6.63207">
        <ele>2116</ele>
        <time>2019-08-18T08:25:34Z</time>
      </trkpt>
      <trkpt lat="45.04448" lon="6.63211">
        <ele>2114</ele>
        <time>2019-08-18T08:25:55Z</time>
      </trkpt>
      <trkpt lat="45.04438" lon="6.6321">
        <ele>2113</ele>
        <time>2019-08-18T08:26:09Z</time>
      </trkpt>
      <trkpt lat="45.0441" lon="6.63235">
        <ele>2109</ele>
        <time>2019-08-18T08:26:53Z</time>
      </trkpt>
      <trkpt lat="45.04383" lon="6.6326">
        <ele>2105</ele>
        <time>2019-08-18T08:27:36Z</time>
      </trkpt>
      <trkpt lat="45.04359" lon="6.6328">
        <ele>2102</ele>
        <time>2019-08-18T08:28:13Z</time>
      </trkpt>
      <trkpt lat="45.04336" lon="6.63301">
        <ele>2100</ele>
        <time>2019-08-18T08:28:50Z</time>
      </trkpt>
      <trkpt lat="45.04228" lon="6.6345">
        <ele>2082</ele>
        <time>2019-08-18T08:32:11Z</time>
      </trkpt>
      <trkpt lat="45.04201" lon="6.63488">
        <ele>2080</ele>
        <time>2019-08-18T08:33:02Z</time>
      </trkpt>
      <trkpt lat="45.04191" lon="6.63517">
        <ele>2080</ele>
        <time>2019-08-18T08:33:32Z</time>
      </trkpt>
      <trkpt lat="45.04182" lon="6.6354">
        <ele>2079</ele>
        <time>2019-08-18T08:33:57Z</time>
      </trkpt>
      <trkpt lat="45.04177" lon="6.63542">
        <ele>2078</ele>
        <time>2019-08-18T08:34:04Z</time>
      </trkpt>
      <trkpt lat="45.04128" lon="6.63592">
        <ele>2067</ele>
        <time>2019-08-18T08:35:25Z</time>
      </trkpt>
      <trkpt lat="45.04115" lon="6.63622">
        <ele>2068</ele>
        <time>2019-08-18T08:35:58Z</time>
      </trkpt>
      <trkpt lat="45.0409" lon="6.63637">
        <ele>2065</ele>
        <time>2019-08-18T08:36:34Z</time>
      </trkpt>
      <trkpt lat="45.04069" lon="6.63665">
        <ele>2065</ele>
        <time>2019-08-18T08:37:13Z</time>
      </trkpt>
      <trkpt lat="45.04039" lon="6.63686">
        <ele>2061</ele>
        <time>2019-08-18T08:37:57Z</time>
      </trkpt>
      <trkpt lat="45.04008" lon="6.63708">
        <ele>2060</ele>
        <time>2019-08-18T08:38:43Z</time>
      </trkpt>
      <trkpt lat="45.03917" lon="6.63738">
        <ele>2058</ele>
        <time>2019-08-18T08:40:48Z</time>
      </trkpt>
      <trkpt lat="45.03914" lon="6.6373">
        <ele>2054</ele>
        <time>2019-08-18T08:40:57Z</time>
      </trkpt>
      <trkpt lat="45.03893" lon="6.6375">
        <ele>2055</ele>
        <time>2019-08-18T08:41:30Z</time>
      </trkpt>
      <trkpt lat="45.03877" lon="6.63755">
        <ele>2052</ele>
        <time>2019-08-18T08:41:52Z</time>
      </trkpt>
      <trkpt lat="45.03889" lon="6.63734">
        <ele>2048</ele>
        <time>2019-08-18T08:42:18Z</time>
      </trkpt>
      <trkpt lat="45.03896" lon="6.63712">
        <ele>2043</ele>
        <time>2019-08-18T08:42:41Z</time>
      </trkpt>
      <trkpt lat="45.03891" lon="6.63698">
        <ele>2036</ele>
        <time>2019-08-18T08:42:55Z</time>
      </trkpt>
      <trkpt lat="45.03907" lon="6.63669">
        <ele>2031</ele>
        <time>2019-08-18T08:43:30Z</time>
      </trkpt>
      <trkpt lat="45.03871" lon="6.63682">
        <ele>2025</ele>
        <time>2019-08-18T08:44:20Z</time>
      </trkpt>
      <trkpt lat="45.03886" lon="6.63639">
        <ele>2015</ele>
        <time>2019-08-18T08:45:05Z</time>
      </trkpt>
      <trkpt lat="45.03883" lon="6.63635">
        <ele>2013</ele>
        <time>2019-08-18T08:45:10Z</time>
      </trkpt>
      <trkpt lat="45.03863" lon="6.63648">
        <ele>2012</ele>
        <time>2019-08-18T08:45:40Z</time>
      </trkpt>
      <trkpt lat="45.03865" lon="6.63611">
        <ele>2002</ele>
        <time>2019-08-18T08:46:15Z</time>
      </trkpt>
      <trkpt lat="45.0386" lon="6.63606">
        <ele>2000</ele>
        <time>2019-08-18T08:46:23Z</time>
      </trkpt>
      <trkpt lat="45.03854" lon="6.63614">
        <ele>2001</ele>
        <time>2019-08-18T08:46:34Z</time>
      </trkpt>
      <trkpt lat="45.03839" lon="6.63605">
        <ele>1996</ele>
        <time>2019-08-18T08:46:56Z</time>
      </trkpt>
      <trkpt lat="45.03823" lon="6.63636">
        <ele>1998</ele>
        <time>2019-08-18T08:47:32Z</time>
      </trkpt>
      <trkpt lat="45.03815" lon="6.63636">
        <ele>1995</ele>
        <time>2019-08-18T08:47:42Z</time>
      </trkpt>
      <trkpt lat="45.03799" lon="6.63596">
        <ele>1981</ele>
        <time>2019-08-18T08:48:26Z</time>
      </trkpt>
      <trkpt lat="45.03801" lon="6.63574">
        <ele>1976</ele>
        <time>2019-08-18T08:48:47Z</time>
      </trkpt>
      <trkpt lat="45.03798" lon="6.63558">
        <ele>1970</ele>
        <time>2019-08-18T08:49:02Z</time>
      </trkpt>
      <trkpt lat="45.03777" lon="6.63579">
        <ele>1969</ele>
        <time>2019-08-18T08:49:37Z</time>
      </trkpt>
      <trkpt lat="45.03764" lon="6.63605">
        <ele>1969</ele>
        <time>2019-08-18T08:50:07Z</time>
      </trkpt>
      <trkpt lat="45.03737" lon="6.63594">
        <ele>1957</ele>
        <time>2019-08-18T08:50:44Z</time>
      </trkpt>
      <trkpt lat="45.03725" lon="6.63568">
        <ele>1946</ele>
        <time>2019-08-18T08:51:13Z</time>
      </trkpt>
      <trkpt lat="45.03731" lon="6.63538">
        <ele>1942</ele>
        <time>2019-08-18T08:51:43Z</time>
      </trkpt>
      <trkpt lat="45.03726" lon="6.63515">
        <ele>1935</ele>
        <time>2019-08-18T08:52:06Z</time>
      </trkpt>
      <trkpt lat="45.03717" lon="6.63522">
        <ele>1934</ele>
        <time>2019-08-18T08:52:19Z</time>
      </trkpt>
      <trkpt lat="45.03702" lon="6.63517">
        <ele>1928</ele>
        <time>2019-08-18T08:52:40Z</time>
      </trkpt>
      <trkpt lat="45.03683" lon="6.63525">
        <ele>1923</ele>
        <time>2019-08-18T08:53:06Z</time>
      </trkpt>
      <trkpt lat="45.03677" lon="6.63499">
        <ele>1917</ele>
        <time>2019-08-18T08:53:32Z</time>
      </trkpt>
      <trkpt lat="45.03655" lon="6.63467">
        <ele>1903</ele>
        <time>2019-08-18T08:54:14Z</time>
      </trkpt>
      <trkpt lat="45.03656" lon="6.63492">
        <ele>1909</ele>
        <time>2019-08-18T08:54:38Z</time>
      </trkpt>
      <trkpt lat="45.03649" lon="6.63522">
        <ele>1912</ele>
        <time>2019-08-18T08:55:08Z</time>
      </trkpt>
      <trkpt lat="45.03647" lon="6.63521">
        <ele>1911</ele>
        <time>2019-08-18T08:55:10Z</time>
      </trkpt>
      <trkpt lat="45.03644" lon="6.63518">
        <ele>1910</ele>
        <time>2019-08-18T08:55:15Z</time>
      </trkpt>
      <trkpt lat="45.03641" lon="6.63477">
        <ele>1901</ele>
        <time>2019-08-18T08:55:54Z</time>
      </trkpt>
      <trkpt lat="45.03632" lon="6.63454">
        <ele>1893</ele>
        <time>2019-08-18T08:56:19Z</time>
      </trkpt>
      <trkpt lat="45.03635" lon="6.63436">
        <ele>1890</ele>
        <time>2019-08-18T08:56:36Z</time>
      </trkpt>
      <trkpt lat="45.03638" lon="6.63434">
        <ele>1890</ele>
        <time>2019-08-18T08:56:41Z</time>
      </trkpt>
      <trkpt lat="45.03641" lon="6.63425">
        <ele>1889</ele>
        <time>2019-08-18T08:56:50Z</time>
      </trkpt>
      <trkpt lat="45.03659" lon="6.63416">
        <ele>1892</ele>
        <time>2019-08-18T08:57:16Z</time>
      </trkpt>
      <trkpt lat="45.03685" lon="6.63409">
        <ele>1895</ele>
        <time>2019-08-18T08:57:51Z</time>
      </trkpt>
      <trkpt lat="45.03699" lon="6.63405">
        <ele>1897</ele>
        <time>2019-08-18T08:58:10Z</time>
      </trkpt>
      <trkpt lat="45.03704" lon="6.63403">
        <ele>1898</ele>
        <time>2019-08-18T08:58:17Z</time>
      </trkpt>
      <trkpt lat="45.03706" lon="6.634">
        <ele>1898</ele>
        <time>2019-08-18T08:58:21Z</time>
      </trkpt>
      <trkpt lat="45.03705" lon="6.63394">
        <ele>1896</ele>
        <time>2019-08-18T08:58:27Z</time>
      </trkpt>
      <trkpt lat="45.03703" lon="6.63392">
        <ele>1895</ele>
        <time>2019-08-18T08:58:30Z</time>
      </trkpt>
      <trkpt lat="45.03699" lon="6.63389">
        <ele>1894</ele>
        <time>2019-08-18T08:58:36Z</time>
      </trkpt>
      <trkpt lat="45.03677" lon="6.63385">
        <ele>1888</ele>
        <time>2019-08-18T08:59:06Z</time>
      </trkpt>
      <trkpt lat="45.03664" lon="6.63384">
        <ele>1885</ele>
        <time>2019-08-18T08:59:23Z</time>
      </trkpt>
      <trkpt lat="45.03654" lon="6.63382">
        <ele>1882</ele>
        <time>2019-08-18T08:59:36Z</time>
      </trkpt>
      <trkpt lat="45.03649" lon="6.63379">
        <ele>1880</ele>
        <time>2019-08-18T08:59:44Z</time>
      </trkpt>
      <trkpt lat="45.03646" lon="6.63375">
        <ele>1878</ele>
        <time>2019-08-18T08:59:49Z</time>
      </trkpt>
      <trkpt lat="45.03644" lon="6.63365">
        <ele>1875</ele>
        <time>2019-08-18T08:59:59Z</time>
      </trkpt>
      <trkpt lat="45.03644" lon="6.63348">
        <ele>1871</ele>
        <time>2019-08-18T09:00:15Z</time>
      </trkpt>
      <trkpt lat="45.03644" lon="6.63338">
        <ele>1869</ele>
        <time>2019-08-18T09:00:24Z</time>
      </trkpt>
      <trkpt lat="45.03645" lon="6.6333">
        <ele>1868</ele>
        <time>2019-08-18T09:00:32Z</time>
      </trkpt>
      <trkpt lat="45.03654" lon="6.63318">
        <ele>1873</ele>
        <time>2019-08-18T09:00:49Z</time>
      </trkpt>
      <trkpt lat="45.03656" lon="6.63311">
        <ele>1875</ele>
        <time>2019-08-18T09:00:56Z</time>
      </trkpt>
      <trkpt lat="45.03653" lon="6.63299">
        <ele>1877</ele>
        <time>2019-08-18T09:01:08Z</time>
      </trkpt>
      <trkpt lat="45.03649" lon="6.63295">
        <ele>1877</ele>
        <time>2019-08-18T09:01:14Z</time>
      </trkpt>
      <trkpt lat="45.03631" lon="6.63291">
        <ele>1873</ele>
        <time>2019-08-18T09:01:39Z</time>
      </trkpt>
      <trkpt lat="45.03621" lon="6.63291">
        <ele>1870</ele>
        <time>2019-08-18T09:01:52Z</time>
      </trkpt>
      <trkpt lat="45.03615" lon="6.63289">
        <ele>1869</ele>
        <time>2019-08-18T09:02:00Z</time>
      </trkpt>
      <trkpt lat="45.03605" lon="6.63284">
        <ele>1867</ele>
        <time>2019-08-18T09:02:14Z</time>
      </trkpt>
      <trkpt lat="45.03593" lon="6.63281">
        <ele>1865</ele>
        <time>2019-08-18T09:02:31Z</time>
      </trkpt>
      <trkpt lat="45.03563" lon="6.63281">
        <ele>1858</ele>
        <time>2019-08-18T09:03:11Z</time>
      </trkpt>
      <trkpt lat="45.03544" lon="6.63282">
        <ele>1854</ele>
        <time>2019-08-18T09:03:36Z</time>
      </trkpt>
      <trkpt lat="45.03528" lon="6.63285">
        <ele>1850</ele>
        <time>2019-08-18T09:03:58Z</time>
      </trkpt>
      <trkpt lat="45.03521" lon="6.63288">
        <ele>1848</ele>
        <time>2019-08-18T09:04:07Z</time>
      </trkpt>
      <trkpt lat="45.03516" lon="6.63291">
        <ele>1847</ele>
        <time>2019-08-18T09:04:15Z</time>
      </trkpt>
      <trkpt lat="45.03508" lon="6.63291">
        <ele>1845</ele>
        <time>2019-08-18T09:04:25Z</time>
      </trkpt>
      <trkpt lat="45.035" lon="6.63292">
        <ele>1843</ele>
        <time>2019-08-18T09:04:36Z</time>
      </trkpt>
      <trkpt lat="45.0349" lon="6.63291">
        <ele>1842</ele>
        <time>2019-08-18T09:04:49Z</time>
      </trkpt>
      <trkpt lat="45.03464" lon="6.63277">
        <ele>1839</ele>
        <time>2019-08-18T09:05:26Z</time>
      </trkpt>
      <trkpt lat="45.03458" lon="6.63273">
        <ele>1839</ele>
        <time>2019-08-18T09:05:35Z</time>
      </trkpt>
      <trkpt lat="45.03408" lon="6.63269">
        <ele>1831</ele>
        <time>2019-08-18T09:06:42Z</time>
      </trkpt>
      <trkpt lat="45.03372" lon="6.63268">
        <ele>1830</ele>
        <time>2019-08-18T09:07:30Z</time>
      </trkpt>
      <trkpt lat="45.03353" lon="6.63261">
        <ele>1830</ele>
        <time>2019-08-18T09:07:56Z</time>
      </trkpt>
      <trkpt lat="45.03341" lon="6.6326">
        <ele>1829</ele>
        <time>2019-08-18T09:08:12Z</time>
      </trkpt>
      <trkpt lat="45.03322" lon="6.63265">
        <ele>1826</ele>
        <time>2019-08-18T09:08:38Z</time>
      </trkpt>
      <trkpt lat="45.03297" lon="6.63258">
        <ele>1820</ele>
        <time>2019-08-18T09:09:12Z</time>
      </trkpt>
      <trkpt lat="45.03267" lon="6.63241">
        <ele>1809</ele>
        <time>2019-08-18T09:09:55Z</time>
      </trkpt>
      <trkpt lat="45.03241" lon="6.6321">
        <ele>1797</ele>
        <time>2019-08-18T09:10:41Z</time>
      </trkpt>
      <trkpt lat="45.03219" lon="6.63189">
        <ele>1789</ele>
        <time>2019-08-18T09:11:16Z</time>
      </trkpt>
      <trkpt lat="45.03201" lon="6.63183">
        <ele>1784</ele>
        <time>2019-08-18T09:11:41Z</time>
      </trkpt>
      <trkpt lat="45.03174" lon="6.6318">
        <ele>1777</ele>
        <time>2019-08-18T09:12:17Z</time>
      </trkpt>
      <trkpt lat="45.03162" lon="6.63174">
        <ele>1774</ele>
        <time>2019-08-18T09:12:34Z</time>
      </trkpt>
      <trkpt lat="45.03161" lon="6.63184">
        <ele>1775</ele>
        <time>2019-08-18T09:12:43Z</time>
      </trkpt>
      <trkpt lat="45.0314" lon="6.63169">
        <ele>1769</ele>
        <time>2019-08-18T09:13:15Z</time>
      </trkpt>
      <trkpt lat="45.03138" lon="6.63183">
        <ele>1772</ele>
        <time>2019-08-18T09:13:28Z</time>
      </trkpt>
      <trkpt lat="45.03115" lon="6.63145">
        <ele>1767</ele>
        <time>2019-08-18T09:14:16Z</time>
      </trkpt>
      <trkpt lat="45.03112" lon="6.63137">
        <ele>1768</ele>
        <time>2019-08-18T09:14:24Z</time>
      </trkpt>
      <trkpt lat="45.03117" lon="6.63121">
        <ele>1771</ele>
        <time>2019-08-18T09:14:41Z</time>
      </trkpt>
      <trkpt lat="45.0312" lon="6.63105">
        <ele>1773</ele>
        <time>2019-08-18T09:14:56Z</time>
      </trkpt>
      <trkpt lat="45.03127" lon="6.63089">
        <ele>1776</ele>
        <time>2019-08-18T09:15:14Z</time>
      </trkpt>
      <trkpt lat="45.03136" lon="6.63076">
        <ele>1779</ele>
        <time>2019-08-18T09:15:31Z</time>
      </trkpt>
      <trkpt lat="45.03119" lon="6.63077">
        <ele>1779</ele>
        <time>2019-08-18T09:15:54Z</time>
      </trkpt>
      <trkpt lat="45.0308" lon="6.63099">
        <ele>1773</ele>
        <time>2019-08-18T09:16:50Z</time>
      </trkpt>
      <trkpt lat="45.03065" lon="6.6312">
        <ele>1768</ele>
        <time>2019-08-18T09:17:18Z</time>
      </trkpt>
      <trkpt lat="45.03063" lon="6.63144">
        <ele>1762</ele>
        <time>2019-08-18T09:17:41Z</time>
      </trkpt>
      <trkpt lat="45.03066" lon="6.63174">
        <ele>1759</ele>
        <time>2019-08-18T09:18:09Z</time>
      </trkpt>
      <trkpt lat="45.03056" lon="6.63176">
        <ele>1759</ele>
        <time>2019-08-18T09:18:23Z</time>
      </trkpt>
      <trkpt lat="45.03047" lon="6.63176">
        <ele>1758</ele>
        <time>2019-08-18T09:18:35Z</time>
      </trkpt>
      <trkpt lat="45.03037" lon="6.63171">
        <ele>1756</ele>
        <time>2019-08-18T09:18:49Z</time>
      </trkpt>
      <trkpt lat="45.03024" lon="6.63168">
        <ele>1754</ele>
        <time>2019-08-18T09:19:07Z</time>
      </trkpt>
      <trkpt lat="45.0301" lon="6.63166">
        <ele>1753</ele>
        <time>2019-08-18T09:19:25Z</time>
      </trkpt>
      <trkpt lat="45.02971" lon="6.63174">
        <ele>1753</ele>
        <time>2019-08-18T09:20:18Z</time>
      </trkpt>
      <trkpt lat="45.02949" lon="6.63178">
        <ele>1754</ele>
        <time>2019-08-18T09:20:48Z</time>
      </trkpt>
      <trkpt lat="45.02931" lon="6.6318">
        <ele>1753</ele>
        <time>2019-08-18T09:21:12Z</time>
      </trkpt>
      <trkpt lat="45.02918" lon="6.63183">
        <ele>1753</ele>
        <time>2019-08-18T09:21:29Z</time>
      </trkpt>
      <trkpt lat="45.02903" lon="6.63191">
        <ele>1753</ele>
        <time>2019-08-18T09:21:51Z</time>
      </trkpt>
      <trkpt lat="45.0289" lon="6.632">
        <ele>1753</ele>
        <time>2019-08-18T09:22:10Z</time>
      </trkpt>
      <trkpt lat="45.0285" lon="6.63238">
        <ele>1747</ele>
        <time>2019-08-18T09:23:14Z</time>
      </trkpt>
      <trkpt lat="45.02839" lon="6.63244">
        <ele>1745</ele>
        <time>2019-08-18T09:23:30Z</time>
      </trkpt>
      <trkpt lat="45.02821" lon="6.6325">
        <ele>1741</ele>
        <time>2019-08-18T09:23:55Z</time>
      </trkpt>
      <trkpt lat="45.028" lon="6.63256">
        <ele>1739</ele>
        <time>2019-08-18T09:24:23Z</time>
      </trkpt>
      <trkpt lat="45.0278" lon="6.63259">
        <ele>1736</ele>
        <time>2019-08-18T09:24:50Z</time>
      </trkpt>
      <trkpt lat="45.02763" lon="6.63263">
        <ele>1732</ele>
        <time>2019-08-18T09:25:13Z</time>
      </trkpt>
      <trkpt lat="45.02749" lon="6.63268">
        <ele>1729</ele>
        <time>2019-08-18T09:25:32Z</time>
      </trkpt>
      <trkpt lat="45.02735" lon="6.63275">
        <ele>1729</ele>
        <time>2019-08-18T09:25:52Z</time>
      </trkpt>
      <trkpt lat="45.02726" lon="6.63281">
        <ele>1728</ele>
        <time>2019-08-18T09:26:05Z</time>
      </trkpt>
      <trkpt lat="45.02704" lon="6.63285">
        <ele>1726</ele>
        <time>2019-08-18T09:26:35Z</time>
      </trkpt>
      <trkpt lat="45.02689" lon="6.63292">
        <ele>1724</ele>
        <time>2019-08-18T09:26:56Z</time>
      </trkpt>
      <trkpt lat="45.0268" lon="6.633">
        <ele>1722</ele>
        <time>2019-08-18T09:27:10Z</time>
      </trkpt>
      <trkpt lat="45.02673" lon="6.63309">
        <ele>1720</ele>
        <time>2019-08-18T09:27:23Z</time>
      </trkpt>
      <trkpt lat="45.02665" lon="6.63318">
        <ele>1718</ele>
        <time>2019-08-18T09:27:37Z</time>
      </trkpt>
      <trkpt lat="45.02647" lon="6.63335">
        <ele>1713</ele>
        <time>2019-08-18T09:28:05Z</time>
      </trkpt>
      <trkpt lat="45.02628" lon="6.63353">
        <ele>1709</ele>
        <time>2019-08-18T09:28:36Z</time>
      </trkpt>
      <trkpt lat="45.02617" lon="6.6336">
        <ele>1706</ele>
        <time>2019-08-18T09:28:52Z</time>
      </trkpt>
      <trkpt lat="45.026" lon="6.63369">
        <ele>1701</ele>
        <time>2019-08-18T09:29:16Z</time>
      </trkpt>
      <trkpt lat="45.02538" lon="6.634">
        <ele>1685</ele>
        <time>2019-08-18T09:30:44Z</time>
      </trkpt>
      <trkpt lat="45.02533" lon="6.63402">
        <ele>1684</ele>
        <time>2019-08-18T09:30:51Z</time>
      </trkpt>
      <trkpt lat="45.02519" lon="6.63406">
        <ele>1682</ele>
        <time>2019-08-18T09:31:10Z</time>
      </trkpt>
      <trkpt lat="45.02504" lon="6.63409">
        <ele>1679</ele>
        <time>2019-08-18T09:31:30Z</time>
      </trkpt>
      <trkpt lat="45.0249" lon="6.63411">
        <ele>1677</ele>
        <time>2019-08-18T09:31:49Z</time>
      </trkpt>
      <trkpt lat="45.0248" lon="6.6341">
        <ele>1675</ele>
        <time>2019-08-18T09:32:02Z</time>
      </trkpt>
      <trkpt lat="45.02468" lon="6.63405">
        <ele>1674</ele>
        <time>2019-08-18T09:32:19Z</time>
      </trkpt>
      <trkpt lat="45.02453" lon="6.63402">
        <ele>1671</ele>
        <time>2019-08-18T09:32:39Z</time>
      </trkpt>
      <trkpt lat="45.0244" lon="6.63402">
        <ele>1669</ele>
        <time>2019-08-18T09:32:57Z</time>
      </trkpt>
      <trkpt lat="45.02423" lon="6.63408">
        <ele>1666</ele>
        <time>2019-08-18T09:33:20Z</time>
      </trkpt>
      <trkpt lat="45.02407" lon="6.63417">
        <ele>1664</ele>
        <time>2019-08-18T09:33:43Z</time>
      </trkpt>
      <trkpt lat="45.02394" lon="6.6342">
        <ele>1662</ele>
        <time>2019-08-18T09:34:01Z</time>
      </trkpt>
      <trkpt lat="45.02385" lon="6.63421">
        <ele>1661</ele>
        <time>2019-08-18T09:34:13Z</time>
      </trkpt>
      <trkpt lat="45.02378" lon="6.63418">
        <ele>1660</ele>
        <time>2019-08-18T09:34:22Z</time>
      </trkpt>
      <trkpt lat="45.02365" lon="6.6341">
        <ele>1659</ele>
        <time>2019-08-18T09:34:41Z</time>
      </trkpt>
      <trkpt lat="45.02344" lon="6.63402">
        <ele>1656</ele>
        <time>2019-08-18T09:35:10Z</time>
      </trkpt>
      <trkpt lat="45.02331" lon="6.63399">
        <ele>1655</ele>
        <time>2019-08-18T09:35:28Z</time>
      </trkpt>
      <trkpt lat="45.02317" lon="6.63397">
        <ele>1653</ele>
        <time>2019-08-18T09:35:47Z</time>
      </trkpt>
      <trkpt lat="45.02312" lon="6.63394">
        <ele>1653</ele>
        <time>2019-08-18T09:35:54Z</time>
      </trkpt>
      <trkpt lat="45.02304" lon="6.63383">
        <ele>1652</ele>
        <time>2019-08-18T09:36:09Z</time>
      </trkpt>
      <trkpt lat="45.02297" lon="6.63377">
        <ele>1651</ele>
        <time>2019-08-18T09:36:20Z</time>
      </trkpt>
      <trkpt lat="45.02286" lon="6.63371">
        <ele>1649</ele>
        <time>2019-08-18T09:36:35Z</time>
      </trkpt>
      <trkpt lat="45.02276" lon="6.63373">
        <ele>1648</ele>
        <time>2019-08-18T09:36:49Z</time>
      </trkpt>
      <trkpt lat="45.02262" lon="6.6338">
        <ele>1647</ele>
        <time>2019-08-18T09:37:09Z</time>
      </trkpt>
      <trkpt lat="45.02247" lon="6.63389">
        <ele>1645</ele>
        <time>2019-08-18T09:37:30Z</time>
      </trkpt>
      <trkpt lat="45.02239" lon="6.63394">
        <ele>1644</ele>
        <time>2019-08-18T09:37:42Z</time>
      </trkpt>
      <trkpt lat="45.02232" lon="6.63394">
        <ele>1643</ele>
        <time>2019-08-18T09:37:51Z</time>
      </trkpt>
      <trkpt lat="45.02215" lon="6.63386">
        <ele>1641</ele>
        <time>2019-08-18T09:38:15Z</time>
      </trkpt>
      <trkpt lat="45.02198" lon="6.63378">
        <ele>1639</ele>
        <time>2019-08-18T09:38:39Z</time>
      </trkpt>
      <trkpt lat="45.02168" lon="6.63352">
        <ele>1635</ele>
        <time>2019-08-18T09:39:26Z</time>
      </trkpt>
      <trkpt lat="45.02163" lon="6.63342">
        <ele>1635</ele>
        <time>2019-08-18T09:39:38Z</time>
      </trkpt>
      <trkpt lat="45.0216" lon="6.63328">
        <ele>1634</ele>
        <time>2019-08-18T09:39:52Z</time>
      </trkpt>
      <trkpt lat="45.0216" lon="6.63308">
        <ele>1634</ele>
        <time>2019-08-18T09:40:10Z</time>
      </trkpt>
      <trkpt lat="45.02159" lon="6.63282">
        <ele>1633</ele>
        <time>2019-08-18T09:40:35Z</time>
      </trkpt>
      <trkpt lat="45.0216" lon="6.63251">
        <ele>1632</ele>
        <time>2019-08-18T09:41:04Z</time>
      </trkpt>
      <trkpt lat="45.02157" lon="6.63242">
        <ele>1632</ele>
        <time>2019-08-18T09:41:14Z</time>
      </trkpt>
      <trkpt lat="45.02153" lon="6.63237">
        <ele>1631</ele>
        <time>2019-08-18T09:41:21Z</time>
      </trkpt>
      <trkpt lat="45.02143" lon="6.63233">
        <ele>1630</ele>
        <time>2019-08-18T09:41:35Z</time>
      </trkpt>
      <trkpt lat="45.02135" lon="6.63233">
        <ele>1629</ele>
        <time>2019-08-18T09:41:45Z</time>
      </trkpt>
      <trkpt lat="45.02124" lon="6.63236">
        <ele>1628</ele>
        <time>2019-08-18T09:42:00Z</time>
      </trkpt>
      <trkpt lat="45.02114" lon="6.63236">
        <ele>1627</ele>
        <time>2019-08-18T09:42:14Z</time>
      </trkpt>
      <trkpt lat="45.02104" lon="6.63229">
        <ele>1626</ele>
        <time>2019-08-18T09:42:29Z</time>
      </trkpt>
      <trkpt lat="45.02098" lon="6.6322">
        <ele>1625</ele>
        <time>2019-08-18T09:42:40Z</time>
      </trkpt>
      <trkpt lat="45.02095" lon="6.63209">
        <ele>1625</ele>
        <time>2019-08-18T09:42:51Z</time>
      </trkpt>
      <trkpt lat="45.02095" lon="6.63196">
        <ele>1625</ele>
        <time>2019-08-18T09:43:04Z</time>
      </trkpt>
      <trkpt lat="45.02094" lon="6.63185">
        <ele>1624</ele>
        <time>2019-08-18T09:43:14Z</time>
      </trkpt>
      <trkpt lat="45.02086" lon="6.6317">
        <ele>1623</ele>
        <time>2019-08-18T09:43:32Z</time>
      </trkpt>
      <trkpt lat="45.02082" lon="6.63161">
        <ele>1623</ele>
        <time>2019-08-18T09:43:42Z</time>
      </trkpt>
      <trkpt lat="45.02081" lon="6.6315">
        <ele>1623</ele>
        <time>2019-08-18T09:43:52Z</time>
      </trkpt>
      <trkpt lat="45.02079" lon="6.63138">
        <ele>1622</ele>
        <time>2019-08-18T09:44:04Z</time>
      </trkpt>
      <trkpt lat="45.02074" lon="6.63121">
        <ele>1621</ele>
        <time>2019-08-18T09:44:21Z</time>
      </trkpt>
      <trkpt lat="45.02061" lon="6.63092">
        <ele>1620</ele>
        <time>2019-08-18T09:44:54Z</time>
      </trkpt>
      <trkpt lat="45.02057" lon="6.63077">
        <ele>1619</ele>
        <time>2019-08-18T09:45:09Z</time>
      </trkpt>
      <trkpt lat="45.02056" lon="6.63074">
        <ele>1619</ele>
        <time>2019-08-18T09:45:12Z</time>
      </trkpt>
      <trkpt lat="45.02054" lon="6.63058">
        <ele>1618</ele>
        <time>2019-08-18T09:45:27Z</time>
      </trkpt>
      <trkpt lat="45.02052" lon="6.63049">
        <ele>1618</ele>
        <time>2019-08-18T09:45:36Z</time>
      </trkpt>
      <trkpt lat="45.0205" lon="6.63045">
        <ele>1618</ele>
        <time>2019-08-18T09:45:41Z</time>
      </trkpt>
      <trkpt lat="45.02033" lon="6.63038">
        <ele>1616</ele>
        <time>2019-08-18T09:46:04Z</time>
      </trkpt>
      <trkpt lat="45.02008" lon="6.63032">
        <ele>1614</ele>
        <time>2019-08-18T09:46:38Z</time>
      </trkpt>
      <trkpt lat="45.01996" lon="6.63031">
        <ele>1613</ele>
        <time>2019-08-18T09:46:54Z</time>
      </trkpt>
      <trkpt lat="45.01989" lon="6.62996">
        <ele>1612</ele>
        <time>2019-08-18T09:47:29Z</time>
      </trkpt>
      <trkpt lat="45.01989" lon="6.62983">
        <ele>1611</ele>
        <time>2019-08-18T09:47:41Z</time>
      </trkpt>
      <trkpt lat="45.01991" lon="6.62964">
        <ele>1610</ele>
        <time>2019-08-18T09:47:59Z</time>
      </trkpt>
      <trkpt lat="45.01994" lon="6.62944">
        <ele>1609</ele>
        <time>2019-08-18T09:48:18Z</time>
      </trkpt>
      <trkpt lat="45.01998" lon="6.62924">
        <ele>1608</ele>
        <time>2019-08-18T09:48:38Z</time>
      </trkpt>
      <trkpt lat="45.02005" lon="6.62897">
        <ele>1608</ele>
        <time>2019-08-18T09:49:05Z</time>
      </trkpt>
      <trkpt lat="45.02008" lon="6.62883">
        <ele>1608</ele>
        <time>2019-08-18T09:49:19Z</time>
      </trkpt>
      <trkpt lat="45.02009" lon="6.62871">
        <ele>1608</ele>
        <time>2019-08-18T09:49:30Z</time>
      </trkpt>
      <trkpt lat="45.02008" lon="6.62856">
        <ele>1608</ele>
        <time>2019-08-18T09:49:44Z</time>
      </trkpt>
      <trkpt lat="45.02005" lon="6.62838">
        <ele>1607</ele>
        <time>2019-08-18T09:50:02Z</time>
      </trkpt>
      <trkpt lat="45.02002" lon="6.62826">
        <ele>1607</ele>
        <time>2019-08-18T09:50:14Z</time>
      </trkpt>
      <trkpt lat="45.01997" lon="6.62811">
        <ele>1607</ele>
        <time>2019-08-18T09:50:29Z</time>
      </trkpt>
      <trkpt lat="45.01991" lon="6.62796">
        <ele>1607</ele>
        <time>2019-08-18T09:50:46Z</time>
      </trkpt>
      <trkpt lat="45.01986" lon="6.62782">
        <ele>1607</ele>
        <time>2019-08-18T09:51:01Z</time>
      </trkpt>
      <trkpt lat="45.0198" lon="6.62762">
        <ele>1606</ele>
        <time>2019-08-18T09:51:21Z</time>
      </trkpt>
      <trkpt lat="45.01973" lon="6.62743">
        <ele>1606</ele>
        <time>2019-08-18T09:51:41Z</time>
      </trkpt>
      <trkpt lat="45.01965" lon="6.62718">
        <ele>1606</ele>
        <time>2019-08-18T09:52:07Z</time>
      </trkpt>
      <trkpt lat="45.01961" lon="6.62704">
        <ele>1606</ele>
        <time>2019-08-18T09:52:21Z</time>
      </trkpt>
      <trkpt lat="45.0196" lon="6.62693">
        <ele>1606</ele>
        <time>2019-08-18T09:52:32Z</time>
      </trkpt>
      <trkpt lat="45.01959" lon="6.62683">
        <ele>1607</ele>
        <time>2019-08-18T09:52:41Z</time>
      </trkpt>
      <trkpt lat="45.01956" lon="6.62671">
        <ele>1607</ele>
        <time>2019-08-18T09:52:53Z</time>
      </trkpt>
      <trkpt lat="45.01952" lon="6.62658">
        <ele>1606</ele>
        <time>2019-08-18T09:53:07Z</time>
      </trkpt>
      <trkpt lat="45.01917" lon="6.62573">
        <ele>1602</ele>
        <time>2019-08-18T09:54:40Z</time>
      </trkpt>
      <trkpt lat="45.0191" lon="6.62557">
        <ele>1601</ele>
        <time>2019-08-18T09:54:57Z</time>
      </trkpt>
      <trkpt lat="45.01907" lon="6.62554">
        <ele>1601</ele>
        <time>2019-08-18T09:55:02Z</time>
      </trkpt>
      <trkpt lat="45.01899" lon="6.62541">
        <ele>1600</ele>
        <time>2019-08-18T09:55:18Z</time>
      </trkpt>
      <trkpt lat="45.01895" lon="6.62535">
        <ele>1599</ele>
        <time>2019-08-18T09:55:26Z</time>
      </trkpt>
      <trkpt lat="45.01891" lon="6.62524">
        <ele>1599</ele>
        <time>2019-08-18T09:55:38Z</time>
      </trkpt>
      <trkpt lat="45.01889" lon="6.62518">
        <ele>1598</ele>
        <time>2019-08-18T09:55:44Z</time>
      </trkpt>
      <trkpt lat="45.01875" lon="6.62454">
        <ele>1598</ele>
        <time>2019-08-18T09:56:47Z</time>
      </trkpt>
      <trkpt lat="45.01871" lon="6.62428">
        <ele>1598</ele>
        <time>2019-08-18T09:57:12Z</time>
      </trkpt>
      <trkpt lat="45.01859" lon="6.62386">
        <ele>1597</ele>
        <time>2019-08-18T09:57:55Z</time>
      </trkpt>
      <trkpt lat="45.01853" lon="6.62367">
        <ele>1596</ele>
        <time>2019-08-18T09:58:15Z</time>
      </trkpt>
      <trkpt lat="45.01851" lon="6.62354">
        <ele>1596</ele>
        <time>2019-08-18T09:58:27Z</time>
      </trkpt>
      <trkpt lat="45.0185" lon="6.62338">
        <ele>1595</ele>
        <time>2019-08-18T09:58:42Z</time>
      </trkpt>
      <trkpt lat="45.01849" lon="6.62326">
        <ele>1595</ele>
        <time>2019-08-18T09:58:54Z</time>
      </trkpt>
      <trkpt lat="45.01846" lon="6.62312">
        <ele>1594</ele>
        <time>2019-08-18T09:59:08Z</time>
      </trkpt>
      <trkpt lat="45.01841" lon="6.62296">
        <ele>1594</ele>
        <time>2019-08-18T09:59:24Z</time>
      </trkpt>
      <trkpt lat="45.01835" lon="6.62281">
        <ele>1593</ele>
        <time>2019-08-18T09:59:40Z</time>
      </trkpt>
      <trkpt lat="45.01791" lon="6.62196">
        <ele>1589</ele>
        <time>2019-08-18T10:01:20Z</time>
      </trkpt>
      <trkpt lat="45.01785" lon="6.62187">
        <ele>1588</ele>
        <time>2019-08-18T10:01:31Z</time>
      </trkpt>
      <trkpt lat="45.01785" lon="6.62122">
        <ele>1589</ele>
        <time>2019-08-18T10:02:33Z</time>
      </trkpt>
      <trkpt lat="45.01786" lon="6.62075">
        <ele>1589</ele>
        <time>2019-08-18T10:03:17Z</time>
      </trkpt>
      <trkpt lat="45.01796" lon="6.61967">
        <ele>1588</ele>
        <time>2019-08-18T10:05:00Z</time>
      </trkpt>
      <trkpt lat="45.01796" lon="6.6196">
        <ele>1588</ele>
        <time>2019-08-18T10:05:07Z</time>
      </trkpt>
      <trkpt lat="45.01811" lon="6.61838">
        <ele>1589</ele>
        <time>2019-08-18T10:07:03Z</time>
      </trkpt>
      <trkpt lat="45.01816" lon="6.61798">
        <ele>1589</ele>
        <time>2019-08-18T10:07:42Z</time>
      </trkpt>
      <trkpt lat="45.01823" lon="6.61757">
        <ele>1589</ele>
        <time>2019-08-18T10:08:21Z</time>
      </trkpt>
      <trkpt lat="45.01825" lon="6.61752">
        <ele>1590</ele>
        <time>2019-08-18T10:08:27Z</time>
      </trkpt>
      <trkpt lat="45.01792" lon="6.61744">
        <ele>1588</ele>
        <time>2019-08-18T10:09:12Z</time>
      </trkpt>
      <trkpt lat="45.01789" lon="6.61743">
        <ele>1588</ele>
        <time>2019-08-18T10:09:16Z</time>
      </trkpt>
      <trkpt lat="45.01787" lon="6.61743">
        <ele>1588</ele>
        <time>2019-08-18T10:09:18Z</time>
      </trkpt>
      <trkpt lat="45.0178" lon="6.61743">
        <ele>1587</ele>
        <time>2019-08-18T10:09:28Z</time>
      </trkpt>
      <trkpt lat="45.01774" lon="6.61744">
        <ele>1587</ele>
        <time>2019-08-18T10:09:36Z</time>
      </trkpt>
      <trkpt lat="45.01772" lon="6.61744">
        <ele>1587</ele>
        <time>2019-08-18T10:09:38Z</time>
      </trkpt>
      <trkpt lat="45.01769" lon="6.61746">
        <ele>1587</ele>
        <time>2019-08-18T10:09:43Z</time>
      </trkpt>
      <trkpt lat="45.01761" lon="6.61749">
        <ele>1587</ele>
        <time>2019-08-18T10:09:54Z</time>
      </trkpt>
      <trkpt lat="45.01747" lon="6.61755">
        <ele>1586</ele>
        <time>2019-08-18T10:10:13Z</time>
      </trkpt>
      <trkpt lat="45.01696" lon="6.61774">
        <ele>1587</ele>
        <time>2019-08-18T10:11:24Z</time>
      </trkpt>
      <trkpt lat="45.01688" lon="6.61776">
        <ele>1588</ele>
        <time>2019-08-18T10:11:35Z</time>
      </trkpt>
      <trkpt lat="45.01678" lon="6.61776">
        <ele>1588</ele>
        <time>2019-08-18T10:11:48Z</time>
      </trkpt>
      <trkpt lat="45.01661" lon="6.61774">
        <ele>1588</ele>
        <time>2019-08-18T10:12:11Z</time>
      </trkpt>
      <trkpt lat="45.01646" lon="6.6177">
        <ele>1589</ele>
        <time>2019-08-18T10:12:31Z</time>
      </trkpt>
      <trkpt lat="45.01629" lon="6.61767">
        <ele>1589</ele>
        <time>2019-08-18T10:12:54Z</time>
      </trkpt>
      <trkpt lat="45.0161" lon="6.61765">
        <ele>1589</ele>
        <time>2019-08-18T10:13:19Z</time>
      </trkpt>
      <trkpt lat="45.01597" lon="6.61764">
        <ele>1590</ele>
        <time>2019-08-18T10:13:37Z</time>
      </trkpt>
      <trkpt lat="45.01589" lon="6.61761">
        <ele>1590</ele>
        <time>2019-08-18T10:13:48Z</time>
      </trkpt>
      <trkpt lat="45.01587" lon="6.61758">
        <ele>1590</ele>
        <time>2019-08-18T10:13:52Z</time>
      </trkpt>
      <trkpt lat="45.01583" lon="6.61755">
        <ele>1590</ele>
        <time>2019-08-18T10:13:58Z</time>
      </trkpt>
      <trkpt lat="45.01578" lon="6.61748">
        <ele>1591</ele>
        <time>2019-08-18T10:14:07Z</time>
      </trkpt>
      <trkpt lat="45.01565" lon="6.61741">
        <ele>1593</ele>
        <time>2019-08-18T10:14:26Z</time>
      </trkpt>
      <trkpt lat="45.01563" lon="6.61738">
        <ele>1593</ele>
        <time>2019-08-18T10:14:30Z</time>
      </trkpt>
      <trkpt lat="45.0156" lon="6.61738">
        <ele>1594</ele>
        <time>2019-08-18T10:14:34Z</time>
      </trkpt>
      <trkpt lat="45.01555" lon="6.61737">
        <ele>1595</ele>
        <time>2019-08-18T10:14:40Z</time>
      </trkpt>
      <trkpt lat="45.01553" lon="6.61735">
        <ele>1595</ele>
        <time>2019-08-18T10:14:44Z</time>
      </trkpt>
      <trkpt lat="45.01548" lon="6.61728">
        <ele>1596</ele>
        <time>2019-08-18T10:14:53Z</time>
      </trkpt>
      <trkpt lat="45.01543" lon="6.6172">
        <ele>1596</ele>
        <time>2019-08-18T10:15:03Z</time>
      </trkpt>
      <trkpt lat="45.01539" lon="6.61716">
        <ele>1597</ele>
        <time>2019-08-18T10:15:10Z</time>
      </trkpt>
      <trkpt lat="45.01535" lon="6.61714">
        <ele>1598</ele>
        <time>2019-08-18T10:15:15Z</time>
      </trkpt>
      <trkpt lat="45.01527" lon="6.61708">
        <ele>1599</ele>
        <time>2019-08-18T10:15:27Z</time>
      </trkpt>
      <trkpt lat="45.01514" lon="6.617">
        <ele>1601</ele>
        <time>2019-08-18T10:15:46Z</time>
      </trkpt>
      <trkpt lat="45.01496" lon="6.61692">
        <ele>1604</ele>
        <time>2019-08-18T10:16:11Z</time>
      </trkpt>
      <trkpt lat="45.0149" lon="6.61689">
        <ele>1605</ele>
        <time>2019-08-18T10:16:20Z</time>
      </trkpt>
      <trkpt lat="45.01485" lon="6.61692">
        <ele>1606</ele>
        <time>2019-08-18T10:16:27Z</time>
      </trkpt>
      <trkpt lat="45.01475" lon="6.61696">
        <ele>1609</ele>
        <time>2019-08-18T10:16:41Z</time>
      </trkpt>
      <trkpt lat="45.01471" lon="6.61697">
        <ele>1610</ele>
        <time>2019-08-18T10:16:46Z</time>
      </trkpt>
      <trkpt lat="45.01459" lon="6.61695">
        <ele>1613</ele>
        <time>2019-08-18T10:17:03Z</time>
      </trkpt>
      <trkpt lat="45.0145" lon="6.61694">
        <ele>1615</ele>
        <time>2019-08-18T10:17:15Z</time>
      </trkpt>
      <trkpt lat="45.01441" lon="6.61695">
        <ele>1617</ele>
        <time>2019-08-18T10:17:27Z</time>
      </trkpt>
      <trkpt lat="45.01433" lon="6.61697">
        <ele>1619</ele>
        <time>2019-08-18T10:17:37Z</time>
      </trkpt>
      <trkpt lat="45.01423" lon="6.61702">
        <ele>1621</ele>
        <time>2019-08-18T10:17:52Z</time>
      </trkpt>
      <trkpt lat="45.01415" lon="6.61705">
        <ele>1623</ele>
        <time>2019-08-18T10:18:03Z</time>
      </trkpt>
      <trkpt lat="45.01404" lon="6.61709">
        <ele>1626</ele>
        <time>2019-08-18T10:18:18Z</time>
      </trkpt>
      <trkpt lat="45.01398" lon="6.61714">
        <ele>1628</ele>
        <time>2019-08-18T10:18:27Z</time>
      </trkpt>
      <trkpt lat="45.01392" lon="6.6172">
        <ele>1630</ele>
        <time>2019-08-18T10:18:37Z</time>
      </trkpt>
      <trkpt lat="45.01386" lon="6.61721">
        <ele>1631</ele>
        <time>2019-08-18T10:18:45Z</time>
      </trkpt>
      <trkpt lat="45.01376" lon="6.61719">
        <ele>1634</ele>
        <time>2019-08-18T10:18:58Z</time>
      </trkpt>
      <trkpt lat="45.01358" lon="6.61717">
        <ele>1639</ele>
        <time>2019-08-18T10:19:23Z</time>
      </trkpt>
      <trkpt lat="45.01352" lon="6.61718">
        <ele>1641</ele>
        <time>2019-08-18T10:19:31Z</time>
      </trkpt>
      <trkpt lat="45.01326" lon="6.6173">
        <ele>1648</ele>
        <time>2019-08-18T10:20:07Z</time>
      </trkpt>
      <trkpt lat="45.01317" lon="6.61736">
        <ele>1650</ele>
        <time>2019-08-18T10:20:20Z</time>
      </trkpt>
      <trkpt lat="45.01298" lon="6.61755">
        <ele>1655</ele>
        <time>2019-08-18T10:20:51Z</time>
      </trkpt>
      <trkpt lat="45.01285" lon="6.61766">
        <ele>1659</ele>
        <time>2019-08-18T10:21:12Z</time>
      </trkpt>
      <trkpt lat="45.01271" lon="6.61772">
        <ele>1663</ele>
        <time>2019-08-18T10:21:31Z</time>
      </trkpt>
      <trkpt lat="45.01256" lon="6.61775">
        <ele>1668</ele>
        <time>2019-08-18T10:21:51Z</time>
      </trkpt>
      <trkpt lat="45.0124" lon="6.61771">
        <ele>1674</ele>
        <time>2019-08-18T10:22:13Z</time>
      </trkpt>
      <trkpt lat="45.01236" lon="6.6177">
        <ele>1676</ele>
        <time>2019-08-18T10:22:19Z</time>
      </trkpt>
      <trkpt lat="45.01231" lon="6.6178">
        <ele>1677</ele>
        <time>2019-08-18T10:22:30Z</time>
      </trkpt>
      <trkpt lat="45.01223" lon="6.61818">
        <ele>1678</ele>
        <time>2019-08-18T10:23:07Z</time>
      </trkpt>
      <trkpt lat="45.01242" lon="6.6187">
        <ele>1674</ele>
        <time>2019-08-18T10:24:03Z</time>
      </trkpt>
      <trkpt lat="45.01262" lon="6.61922">
        <ele>1670</ele>
        <time>2019-08-18T10:24:59Z</time>
      </trkpt>
      <trkpt lat="45.01238" lon="6.61955">
        <ele>1680</ele>
        <time>2019-08-18T10:25:43Z</time>
      </trkpt>
      <trkpt lat="45.01235" lon="6.62004">
        <ele>1681</ele>
        <time>2019-08-18T10:26:30Z</time>
      </trkpt>
      <trkpt lat="45.01217" lon="6.6206">
        <ele>1693</ele>
        <time>2019-08-18T10:27:28Z</time>
      </trkpt>
      <trkpt lat="45.01237" lon="6.62093">
        <ele>1684</ele>
        <time>2019-08-18T10:28:09Z</time>
      </trkpt>
      <trkpt lat="45.01258" lon="6.62127">
        <ele>1678</ele>
        <time>2019-08-18T10:28:51Z</time>
      </trkpt>
      <trkpt lat="45.01283" lon="6.62218">
        <ele>1678</ele>
        <time>2019-08-18T10:30:23Z</time>
      </trkpt>
      <trkpt lat="45.01295" lon="6.62264">
        <ele>1676</ele>
        <time>2019-08-18T10:31:10Z</time>
      </trkpt>
      <trkpt lat="45.01292" lon="6.62305">
        <ele>1679</ele>
        <time>2019-08-18T10:31:48Z</time>
      </trkpt>
      <trkpt lat="45.01266" lon="6.62382">
        <ele>1692</ele>
        <time>2019-08-18T10:33:09Z</time>
      </trkpt>
      <trkpt lat="45.01254" lon="6.62421">
        <ele>1698</ele>
        <time>2019-08-18T10:33:49Z</time>
      </trkpt>
      <trkpt lat="45.01281" lon="6.62445">
        <ele>1688</ele>
        <time>2019-08-18T10:34:32Z</time>
      </trkpt>
      <trkpt lat="45.01309" lon="6.62468">
        <ele>1678</ele>
        <time>2019-08-18T10:35:15Z</time>
      </trkpt>
      <trkpt lat="45.01303" lon="6.62579">
        <ele>1698</ele>
        <time>2019-08-18T10:37:00Z</time>
      </trkpt>
      <trkpt lat="45.01332" lon="6.62603">
        <ele>1686</ele>
        <time>2019-08-18T10:37:45Z</time>
      </trkpt>
      <trkpt lat="45.01331" lon="6.62636">
        <ele>1688</ele>
        <time>2019-08-18T10:38:16Z</time>
      </trkpt>
      <trkpt lat="45.01317" lon="6.62681">
        <ele>1697</ele>
        <time>2019-08-18T10:39:02Z</time>
      </trkpt>
      <trkpt lat="45.01304" lon="6.62726">
        <ele>1704</ele>
        <time>2019-08-18T10:39:48Z</time>
      </trkpt>
      <trkpt lat="45.0131" lon="6.62755">
        <ele>1702</ele>
        <time>2019-08-18T10:40:17Z</time>
      </trkpt>
      <trkpt lat="45.01338" lon="6.62793">
        <ele>1696</ele>
        <time>2019-08-18T10:41:08Z</time>
      </trkpt>
      <trkpt lat="45.01376" lon="6.62798">
        <ele>1682</ele>
        <time>2019-08-18T10:41:59Z</time>
      </trkpt>
      <trkpt lat="45.01387" lon="6.62847">
        <ele>1683</ele>
        <time>2019-08-18T10:42:48Z</time>
      </trkpt>
      <trkpt lat="45.01398" lon="6.62897">
        <ele>1679</ele>
        <time>2019-08-18T10:43:37Z</time>
      </trkpt>
      <trkpt lat="45.01366" lon="6.62939">
        <ele>1698</ele>
        <time>2019-08-18T10:44:36Z</time>
      </trkpt>
      <trkpt lat="45.01367" lon="6.62957">
        <ele>1699</ele>
        <time>2019-08-18T10:44:53Z</time>
      </trkpt>
      <trkpt lat="45.01385" lon="6.63014">
        <ele>1695</ele>
        <time>2019-08-18T10:45:51Z</time>
      </trkpt>
      <trkpt lat="45.01408" lon="6.6302">
        <ele>1684</ele>
        <time>2019-08-18T10:46:23Z</time>
      </trkpt>
      <trkpt lat="45.01432" lon="6.63051">
        <ele>1678</ele>
        <time>2019-08-18T10:47:06Z</time>
      </trkpt>
      <trkpt lat="45.01456" lon="6.63081">
        <ele>1672</ele>
        <time>2019-08-18T10:47:49Z</time>
      </trkpt>
      <trkpt lat="45.01464" lon="6.63143">
        <ele>1678</ele>
        <time>2019-08-18T10:48:48Z</time>
      </trkpt>
      <trkpt lat="45.01475" lon="6.63184">
        <ele>1676</ele>
        <time>2019-08-18T10:49:30Z</time>
      </trkpt>
      <trkpt lat="45.01476" lon="6.63357">
        <ele>1673</ele>
        <time>2019-08-18T10:52:13Z</time>
      </trkpt>
      <trkpt lat="45.01476" lon="6.63415">
        <ele>1671</ele>
        <time>2019-08-18T10:53:08Z</time>
      </trkpt>
      <trkpt lat="45.01462" lon="6.63508">
        <ele>1675</ele>
        <time>2019-08-18T10:54:37Z</time>
      </trkpt>
      <trkpt lat="45.01454" lon="6.63555">
        <ele>1681</ele>
        <time>2019-08-18T10:55:23Z</time>
      </trkpt>
      <trkpt lat="45.01465" lon="6.63585">
        <ele>1674</ele>
        <time>2019-08-18T10:55:55Z</time>
      </trkpt>
      <trkpt lat="45.01476" lon="6.63616">
        <ele>1663</ele>
        <time>2019-08-18T10:56:27Z</time>
      </trkpt>
      <trkpt lat="45.01458" lon="6.63643">
        <ele>1673</ele>
        <time>2019-08-18T10:57:02Z</time>
      </trkpt>
      <trkpt lat="45.01455" lon="6.63678">
        <ele>1672</ele>
        <time>2019-08-18T10:57:36Z</time>
      </trkpt>
      <trkpt lat="45.01462" lon="6.6367">
        <ele>1667</ele>
        <time>2019-08-18T10:57:48Z</time>
      </trkpt>
      <trkpt lat="45.01465" lon="6.63656">
        <ele>1666</ele>
        <time>2019-08-18T10:58:02Z</time>
      </trkpt>
      <trkpt lat="45.01476" lon="6.63643">
        <ele>1660</ele>
        <time>2019-08-18T10:58:21Z</time>
      </trkpt>
      <trkpt lat="45.01486" lon="6.6364">
        <ele>1653</ele>
        <time>2019-08-18T10:58:34Z</time>
      </trkpt>
      <trkpt lat="45.0148" lon="6.63653">
        <ele>1655</ele>
        <time>2019-08-18T10:58:49Z</time>
      </trkpt>
      <trkpt lat="45.01478" lon="6.63665">
        <ele>1656</ele>
        <time>2019-08-18T10:59:01Z</time>
      </trkpt>
      <trkpt lat="45.01476" lon="6.63669">
        <ele>1657</ele>
        <time>2019-08-18T10:59:05Z</time>
      </trkpt>
      <trkpt lat="45.01471" lon="6.63672">
        <ele>1660</ele>
        <time>2019-08-18T10:59:12Z</time>
      </trkpt>
      <trkpt lat="45.01468" lon="6.63673">
        <ele>1662</ele>
        <time>2019-08-18T10:59:17Z</time>
      </trkpt>
      <trkpt lat="45.01467" lon="6.63678">
        <ele>1663</ele>
        <time>2019-08-18T10:59:21Z</time>
      </trkpt>
      <trkpt lat="45.01468" lon="6.6369">
        <ele>1661</ele>
        <time>2019-08-18T10:59:33Z</time>
      </trkpt>
      <trkpt lat="45.01465" lon="6.63702">
        <ele>1662</ele>
        <time>2019-08-18T10:59:45Z</time>
      </trkpt>
      <trkpt lat="45.01463" lon="6.63708">
        <ele>1663</ele>
        <time>2019-08-18T10:59:51Z</time>
      </trkpt>
      <trkpt lat="45.01462" lon="6.63741">
        <ele>1662</ele>
        <time>2019-08-18T11:00:22Z</time>
      </trkpt>
      <trkpt lat="45.0146" lon="6.63756">
        <ele>1662</ele>
        <time>2019-08-18T11:00:37Z</time>
      </trkpt>
      <trkpt lat="45.01455" lon="6.63773">
        <ele>1664</ele>
        <time>2019-08-18T11:00:54Z</time>
      </trkpt>
      <trkpt lat="45.01447" lon="6.63787">
        <ele>1668</ele>
        <time>2019-08-18T11:01:11Z</time>
      </trkpt>
      <trkpt lat="45.01441" lon="6.63801">
        <ele>1671</ele>
        <time>2019-08-18T11:01:26Z</time>
      </trkpt>
      <trkpt lat="45.0144" lon="6.63813">
        <ele>1670</ele>
        <time>2019-08-18T11:01:38Z</time>
      </trkpt>
      <trkpt lat="45.01441" lon="6.63825">
        <ele>1668</ele>
        <time>2019-08-18T11:01:49Z</time>
      </trkpt>
      <trkpt lat="45.01443" lon="6.63834">
        <ele>1665</ele>
        <time>2019-08-18T11:01:58Z</time>
      </trkpt>
      <trkpt lat="45.01443" lon="6.63844">
        <ele>1663</ele>
        <time>2019-08-18T11:02:08Z</time>
      </trkpt>
      <trkpt lat="45.01443" lon="6.63855">
        <ele>1660</ele>
        <time>2019-08-18T11:02:18Z</time>
      </trkpt>
      <trkpt lat="45.0144" lon="6.63864">
        <ele>1660</ele>
        <time>2019-08-18T11:02:27Z</time>
      </trkpt>
      <trkpt lat="45.01433" lon="6.63876">
        <ele>1662</ele>
        <time>2019-08-18T11:02:42Z</time>
      </trkpt>
      <trkpt lat="45.01427" lon="6.63895">
        <ele>1661</ele>
        <time>2019-08-18T11:03:02Z</time>
      </trkpt>
      <trkpt lat="45.01422" lon="6.63916">
        <ele>1659</ele>
        <time>2019-08-18T11:03:23Z</time>
      </trkpt>
      <trkpt lat="45.0142" lon="6.6393">
        <ele>1658</ele>
        <time>2019-08-18T11:03:36Z</time>
      </trkpt>
      <trkpt lat="45.01421" lon="6.63939">
        <ele>1656</ele>
        <time>2019-08-18T11:03:45Z</time>
      </trkpt>
      <trkpt lat="45.01423" lon="6.63947">
        <ele>1654</ele>
        <time>2019-08-18T11:03:53Z</time>
      </trkpt>
      <trkpt lat="45.01426" lon="6.63954">
        <ele>1651</ele>
        <time>2019-08-18T11:04:00Z</time>
      </trkpt>
      <trkpt lat="45.01427" lon="6.6396">
        <ele>1650</ele>
        <time>2019-08-18T11:04:06Z</time>
      </trkpt>
      <trkpt lat="45.0142" lon="6.63995">
        <ele>1649</ele>
        <time>2019-08-18T11:04:40Z</time>
      </trkpt>
      <trkpt lat="45.01413" lon="6.64018">
        <ele>1650</ele>
        <time>2019-08-18T11:05:04Z</time>
      </trkpt>
      <trkpt lat="45.01411" lon="6.64029">
        <ele>1650</ele>
        <time>2019-08-18T11:05:15Z</time>
      </trkpt>
      <trkpt lat="45.01409" lon="6.64055">
        <ele>1647</ele>
        <time>2019-08-18T11:05:39Z</time>
      </trkpt>
      <trkpt lat="45.01406" lon="6.64064">
        <ele>1648</ele>
        <time>2019-08-18T11:05:49Z</time>
      </trkpt>
      <trkpt lat="45.01404" lon="6.64078">
        <ele>1647</ele>
        <time>2019-08-18T11:06:02Z</time>
      </trkpt>
      <trkpt lat="45.01402" lon="6.64088">
        <ele>1646</ele>
        <time>2019-08-18T11:06:12Z</time>
      </trkpt>
      <trkpt lat="45.01397" lon="6.641">
        <ele>1647</ele>
        <time>2019-08-18T11:06:25Z</time>
      </trkpt>
      <trkpt lat="45.0139" lon="6.64118">
        <ele>1647</ele>
        <time>2019-08-18T11:06:45Z</time>
      </trkpt>
      <trkpt lat="45.01382" lon="6.64147">
        <ele>1645</ele>
        <time>2019-08-18T11:07:14Z</time>
      </trkpt>
      <trkpt lat="45.01375" lon="6.64179">
        <ele>1641</ele>
        <time>2019-08-18T11:07:46Z</time>
      </trkpt>
      <trkpt lat="45.01373" lon="6.64184">
        <ele>1640</ele>
        <time>2019-08-18T11:07:51Z</time>
      </trkpt>
      <trkpt lat="45.01365" lon="6.64185">
        <ele>1643</ele>
        <time>2019-08-18T11:08:02Z</time>
      </trkpt>
      <trkpt lat="45.01351" lon="6.64189">
        <ele>1646</ele>
        <time>2019-08-18T11:08:21Z</time>
      </trkpt>
      <trkpt lat="45.01347" lon="6.6419">
        <ele>1647</ele>
        <time>2019-08-18T11:08:26Z</time>
      </trkpt>
      <trkpt lat="45.01341" lon="6.64186">
        <ele>1650</ele>
        <time>2019-08-18T11:08:35Z</time>
      </trkpt>
      <trkpt lat="45.01328" lon="6.6417">
        <ele>1656</ele>
        <time>2019-08-18T11:08:58Z</time>
      </trkpt>
      <trkpt lat="45.01312" lon="6.64156">
        <ele>1663</ele>
        <time>2019-08-18T11:09:23Z</time>
      </trkpt>
      <trkpt lat="45.01297" lon="6.64146">
        <ele>1669</ele>
        <time>2019-08-18T11:09:45Z</time>
      </trkpt>
      <trkpt lat="45.01287" lon="6.64143">
        <ele>1671</ele>
        <time>2019-08-18T11:09:59Z</time>
      </trkpt>
      <trkpt lat="45.01278" lon="6.64146">
        <ele>1671</ele>
        <time>2019-08-18T11:10:11Z</time>
      </trkpt>
      <trkpt lat="45.01273" lon="6.64154">
        <ele>1670</ele>
        <time>2019-08-18T11:10:21Z</time>
      </trkpt>
      <trkpt lat="45.01265" lon="6.64172">
        <ele>1668</ele>
        <time>2019-08-18T11:10:41Z</time>
      </trkpt>
      <trkpt lat="45.01258" lon="6.64195">
        <ele>1668</ele>
        <time>2019-08-18T11:11:05Z</time>
      </trkpt>
      <trkpt lat="45.01255" lon="6.64216">
        <ele>1668</ele>
        <time>2019-08-18T11:11:25Z</time>
      </trkpt>
      <trkpt lat="45.01254" lon="6.64233">
        <ele>1668</ele>
        <time>2019-08-18T11:11:41Z</time>
      </trkpt>
      <trkpt lat="45.01254" lon="6.64256">
        <ele>1667</ele>
        <time>2019-08-18T11:12:03Z</time>
      </trkpt>
      <trkpt lat="45.01256" lon="6.64278">
        <ele>1666</ele>
        <time>2019-08-18T11:12:24Z</time>
      </trkpt>
      <trkpt lat="45.01261" lon="6.64301">
        <ele>1663</ele>
        <time>2019-08-18T11:12:47Z</time>
      </trkpt>
      <trkpt lat="45.01261" lon="6.64315">
        <ele>1662</ele>
        <time>2019-08-18T11:13:00Z</time>
      </trkpt>
      <trkpt lat="45.01259" lon="6.64324">
        <ele>1663</ele>
        <time>2019-08-18T11:13:09Z</time>
      </trkpt>
      <trkpt lat="45.01253" lon="6.64332">
        <ele>1665</ele>
        <time>2019-08-18T11:13:20Z</time>
      </trkpt>
      <trkpt lat="45.01241" lon="6.64347">
        <ele>1665</ele>
        <time>2019-08-18T11:13:41Z</time>
      </trkpt>
      <trkpt lat="45.01234" lon="6.64349">
        <ele>1667</ele>
        <time>2019-08-18T11:13:51Z</time>
      </trkpt>
      <trkpt lat="45.01222" lon="6.64348">
        <ele>1672</ele>
        <time>2019-08-18T11:14:07Z</time>
      </trkpt>
      <trkpt lat="45.01218" lon="6.64347">
        <ele>1673</ele>
        <time>2019-08-18T11:14:12Z</time>
      </trkpt>
      <trkpt lat="45.01214" lon="6.64351">
        <ele>1674</ele>
        <time>2019-08-18T11:14:19Z</time>
      </trkpt>
      <trkpt lat="45.01209" lon="6.64362">
        <ele>1672</ele>
        <time>2019-08-18T11:14:31Z</time>
      </trkpt>
      <trkpt lat="45.01199" lon="6.64378">
        <ele>1671</ele>
        <time>2019-08-18T11:14:51Z</time>
      </trkpt>
      <trkpt lat="45.01186" lon="6.64392">
        <ele>1671</ele>
        <time>2019-08-18T11:15:13Z</time>
      </trkpt>
      <trkpt lat="45.01168" lon="6.64409">
        <ele>1672</ele>
        <time>2019-08-18T11:15:42Z</time>
      </trkpt>
      <trkpt lat="45.01154" lon="6.64419">
        <ele>1671</ele>
        <time>2019-08-18T11:16:03Z</time>
      </trkpt>
      <trkpt lat="45.01141" lon="6.64423">
        <ele>1671</ele>
        <time>2019-08-18T11:16:21Z</time>
      </trkpt>
      <trkpt lat="45.01131" lon="6.64426">
        <ele>1672</ele>
        <time>2019-08-18T11:16:34Z</time>
      </trkpt>
      <trkpt lat="45.01128" lon="6.6443">
        <ele>1671</ele>
        <time>2019-08-18T11:16:40Z</time>
      </trkpt>
      <trkpt lat="45.01114" lon="6.64454">
        <ele>1666</ele>
        <time>2019-08-18T11:17:09Z</time>
      </trkpt>
      <trkpt lat="45.01095" lon="6.64496">
        <ele>1659</ele>
        <time>2019-08-18T11:17:56Z</time>
      </trkpt>
      <trkpt lat="45.01092" lon="6.64499">
        <ele>1659</ele>
        <time>2019-08-18T11:18:01Z</time>
      </trkpt>
      <trkpt lat="45.01088" lon="6.64499">
        <ele>1659</ele>
        <time>2019-08-18T11:18:06Z</time>
      </trkpt>
      <trkpt lat="45.01083" lon="6.64497">
        <ele>1661</ele>
        <time>2019-08-18T11:18:13Z</time>
      </trkpt>
      <trkpt lat="45.01075" lon="6.64489">
        <ele>1662</ele>
        <time>2019-08-18T11:18:26Z</time>
      </trkpt>
      <trkpt lat="45.01063" lon="6.64477">
        <ele>1665</ele>
        <time>2019-08-18T11:18:46Z</time>
      </trkpt>
      <trkpt lat="45.01057" lon="6.64469">
        <ele>1666</ele>
        <time>2019-08-18T11:18:57Z</time>
      </trkpt>
      <trkpt lat="45.01053" lon="6.64461">
        <ele>1667</ele>
        <time>2019-08-18T11:19:06Z</time>
      </trkpt>
      <trkpt lat="45.01048" lon="6.64451">
        <ele>1669</ele>
        <time>2019-08-18T11:19:18Z</time>
      </trkpt>
      <trkpt lat="45.0104" lon="6.64441">
        <ele>1670</ele>
        <time>2019-08-18T11:19:32Z</time>
      </trkpt>
      <trkpt lat="45.01032" lon="6.64433">
        <ele>1671</ele>
        <time>2019-08-18T11:19:45Z</time>
      </trkpt>
      <trkpt lat="45.0102" lon="6.64425">
        <ele>1671</ele>
        <time>2019-08-18T11:20:03Z</time>
      </trkpt>
      <trkpt lat="45.01003" lon="6.64418">
        <ele>1670</ele>
        <time>2019-08-18T11:20:26Z</time>
      </trkpt>
      <trkpt lat="45.00998" lon="6.64416">
        <ele>1670</ele>
        <time>2019-08-18T11:20:33Z</time>
      </trkpt>
      <trkpt lat="45.00994" lon="6.64416">
        <ele>1670</ele>
        <time>2019-08-18T11:20:39Z</time>
      </trkpt>
      <trkpt lat="45.0099" lon="6.6442">
        <ele>1670</ele>
        <time>2019-08-18T11:20:45Z</time>
      </trkpt>
      <trkpt lat="45.00987" lon="6.64424">
        <ele>1670</ele>
        <time>2019-08-18T11:20:51Z</time>
      </trkpt>
      <trkpt lat="45.00983" lon="6.64448">
        <ele>1668</ele>
        <time>2019-08-18T11:21:14Z</time>
      </trkpt>
      <trkpt lat="45.00979" lon="6.64463">
        <ele>1667</ele>
        <time>2019-08-18T11:21:29Z</time>
      </trkpt>
      <trkpt lat="45.00972" lon="6.64483">
        <ele>1666</ele>
        <time>2019-08-18T11:21:50Z</time>
      </trkpt>
      <trkpt lat="45.00965" lon="6.64497">
        <ele>1666</ele>
        <time>2019-08-18T11:22:06Z</time>
      </trkpt>
      <trkpt lat="45.00963" lon="6.64506">
        <ele>1666</ele>
        <time>2019-08-18T11:22:15Z</time>
      </trkpt>
      <trkpt lat="45.00962" lon="6.64519">
        <ele>1667</ele>
        <time>2019-08-18T11:22:28Z</time>
      </trkpt>
      <trkpt lat="45.00967" lon="6.64528">
        <ele>1666</ele>
        <time>2019-08-18T11:22:38Z</time>
      </trkpt>
      <trkpt lat="45.00989" lon="6.64586">
        <ele>1659</ele>
        <time>2019-08-18T11:23:41Z</time>
      </trkpt>
      <trkpt lat="45.00996" lon="6.64605">
        <ele>1656</ele>
        <time>2019-08-18T11:24:01Z</time>
      </trkpt>
      <trkpt lat="45.00999" lon="6.64621">
        <ele>1655</ele>
        <time>2019-08-18T11:24:16Z</time>
      </trkpt>
      <trkpt lat="45.01003" lon="6.64634">
        <ele>1653</ele>
        <time>2019-08-18T11:24:30Z</time>
      </trkpt>
      <trkpt lat="45.01011" lon="6.64649">
        <ele>1652</ele>
        <time>2019-08-18T11:24:47Z</time>
      </trkpt>
      <trkpt lat="45.01007" lon="6.64658">
        <ele>1652</ele>
        <time>2019-08-18T11:24:57Z</time>
      </trkpt>
      <trkpt lat="45.00999" lon="6.64654">
        <ele>1653</ele>
        <time>2019-08-18T11:25:09Z</time>
      </trkpt>
      <trkpt lat="45.00994" lon="6.64657">
        <ele>1655</ele>
        <time>2019-08-18T11:25:16Z</time>
      </trkpt>
      <trkpt lat="45.00991" lon="6.64667">
        <ele>1656</ele>
        <time>2019-08-18T11:25:26Z</time>
      </trkpt>
      <trkpt lat="45.00989" lon="6.64677">
        <ele>1656</ele>
        <time>2019-08-18T11:25:36Z</time>
      </trkpt>
      <trkpt lat="45.00984" lon="6.64678">
        <ele>1658</ele>
        <time>2019-08-18T11:25:43Z</time>
      </trkpt>
      <trkpt lat="45.00981" lon="6.64672">
        <ele>1660</ele>
        <time>2019-08-18T11:25:50Z</time>
      </trkpt>
      <trkpt lat="45.00977" lon="6.64678">
        <ele>1661</ele>
        <time>2019-08-18T11:25:58Z</time>
      </trkpt>
      <trkpt lat="45.00974" lon="6.64685">
        <ele>1662</ele>
        <time>2019-08-18T11:26:05Z</time>
      </trkpt>
      <trkpt lat="45.0097" lon="6.64676">
        <ele>1665</ele>
        <time>2019-08-18T11:26:15Z</time>
      </trkpt>
      <trkpt lat="45.00966" lon="6.64673">
        <ele>1668</ele>
        <time>2019-08-18T11:26:21Z</time>
      </trkpt>
      <trkpt lat="45.00959" lon="6.64679">
        <ele>1670</ele>
        <time>2019-08-18T11:26:32Z</time>
      </trkpt>
      <trkpt lat="45.00951" lon="6.64683">
        <ele>1673</ele>
        <time>2019-08-18T11:26:44Z</time>
      </trkpt>
      <trkpt lat="45.00945" lon="6.64673">
        <ele>1678</ele>
        <time>2019-08-18T11:26:56Z</time>
      </trkpt>
      <trkpt lat="45.00932" lon="6.64679">
        <ele>1683</ele>
        <time>2019-08-18T11:27:14Z</time>
      </trkpt>
      <trkpt lat="45.00925" lon="6.64686">
        <ele>1686</ele>
        <time>2019-08-18T11:27:26Z</time>
      </trkpt>
      <trkpt lat="45.00918" lon="6.64682">
        <ele>1690</ele>
        <time>2019-08-18T11:27:36Z</time>
      </trkpt>
      <trkpt lat="45.00914" lon="6.64672">
        <ele>1694</ele>
        <time>2019-08-18T11:27:47Z</time>
      </trkpt>
      <trkpt lat="45.00903" lon="6.64688">
        <ele>1698</ele>
        <time>2019-08-18T11:28:08Z</time>
      </trkpt>
      <trkpt lat="45.00891" lon="6.64668">
        <ele>1709</ele>
        <time>2019-08-18T11:28:32Z</time>
      </trkpt>
      <trkpt lat="45.00882" lon="6.64688">
        <ele>1710</ele>
        <time>2019-08-18T11:28:55Z</time>
      </trkpt>
      <trkpt lat="45.00871" lon="6.6469">
        <ele>1717</ele>
        <time>2019-08-18T11:29:10Z</time>
      </trkpt>
      <trkpt lat="45.00861" lon="6.64707">
        <ele>1719</ele>
        <time>2019-08-18T11:29:30Z</time>
      </trkpt>
      <trkpt lat="45.00849" lon="6.64754">
        <ele>1714</ele>
        <time>2019-08-18T11:30:18Z</time>
      </trkpt>
      <trkpt lat="45.00837" lon="6.64792">
        <ele>1700</ele>
        <time>2019-08-18T11:30:57Z</time>
      </trkpt>
      <trkpt lat="45.00817" lon="6.64843">
        <ele>1684</ele>
        <time>2019-08-18T11:31:52Z</time>
      </trkpt>
      <trkpt lat="45.00813" lon="6.64847">
        <ele>1684</ele>
        <time>2019-08-18T11:31:58Z</time>
      </trkpt>
      <trkpt lat="45.00811" lon="6.64854">
        <ele>1682</ele>
        <time>2019-08-18T11:32:05Z</time>
      </trkpt>
      <trkpt lat="45.00808" lon="6.64865">
        <ele>1679</ele>
        <time>2019-08-18T11:32:17Z</time>
      </trkpt>
      <trkpt lat="45.00803" lon="6.64876">
        <ele>1677</ele>
        <time>2019-08-18T11:32:29Z</time>
      </trkpt>
      <trkpt lat="45.00799" lon="6.64881">
        <ele>1677</ele>
        <time>2019-08-18T11:32:36Z</time>
      </trkpt>
      <trkpt lat="45.00794" lon="6.64897">
        <ele>1673</ele>
        <time>2019-08-18T11:32:53Z</time>
      </trkpt>
      <trkpt lat="45.0079" lon="6.64911">
        <ele>1669</ele>
        <time>2019-08-18T11:33:07Z</time>
      </trkpt>
      <trkpt lat="45.0079" lon="6.64916">
        <ele>1667</ele>
        <time>2019-08-18T11:33:12Z</time>
      </trkpt>
      <trkpt lat="45.00788" lon="6.6492">
        <ele>1667</ele>
        <time>2019-08-18T11:33:16Z</time>
      </trkpt>
      <trkpt lat="45.00787" lon="6.64925">
        <ele>1666</ele>
        <time>2019-08-18T11:33:21Z</time>
      </trkpt>
      <trkpt lat="45.00785" lon="6.64929">
        <ele>1666</ele>
        <time>2019-08-18T11:33:26Z</time>
      </trkpt>
      <trkpt lat="45.00788" lon="6.6493">
        <ele>1664</ele>
        <time>2019-08-18T11:33:30Z</time>
      </trkpt>
      <trkpt lat="45.00804" lon="6.64918">
        <ele>1658</ele>
        <time>2019-08-18T11:33:54Z</time>
      </trkpt>
      <trkpt lat="45.00811" lon="6.64913">
        <ele>1655</ele>
        <time>2019-08-18T11:34:04Z</time>
      </trkpt>
      <trkpt lat="45.00816" lon="6.64912">
        <ele>1652</ele>
        <time>2019-08-18T11:34:11Z</time>
      </trkpt>
      <trkpt lat="45.00824" lon="6.64908">
        <ele>1649</ele>
        <time>2019-08-18T11:34:22Z</time>
      </trkpt>
      <trkpt lat="45.0083" lon="6.64904">
        <ele>1647</ele>
        <time>2019-08-18T11:34:31Z</time>
      </trkpt>
      <trkpt lat="45.00833" lon="6.64903">
        <ele>1646</ele>
        <time>2019-08-18T11:34:35Z</time>
      </trkpt>
      <trkpt lat="45.00838" lon="6.64901">
        <ele>1645</ele>
        <time>2019-08-18T11:34:42Z</time>
      </trkpt>
      <trkpt lat="45.00847" lon="6.64895">
        <ele>1645</ele>
        <time>2019-08-18T11:34:56Z</time>
      </trkpt>
      <trkpt lat="45.00853" lon="6.6489">
        <ele>1645</ele>
        <time>2019-08-18T11:35:05Z</time>
      </trkpt>
      <trkpt lat="45.00877" lon="6.64877">
        <ele>1642</ele>
        <time>2019-08-18T11:35:39Z</time>
      </trkpt>
      <trkpt lat="45.00889" lon="6.64869">
        <ele>1641</ele>
        <time>2019-08-18T11:35:57Z</time>
      </trkpt>
      <trkpt lat="45.00896" lon="6.64868">
        <ele>1638</ele>
        <time>2019-08-18T11:36:06Z</time>
      </trkpt>
      <trkpt lat="45.00904" lon="6.64865">
        <ele>1636</ele>
        <time>2019-08-18T11:36:17Z</time>
      </trkpt>
      <trkpt lat="45.00908" lon="6.64865">
        <ele>1635</ele>
        <time>2019-08-18T11:36:23Z</time>
      </trkpt>
      <trkpt lat="45.0091" lon="6.64869">
        <ele>1632</ele>
        <time>2019-08-18T11:36:27Z</time>
      </trkpt>
      <trkpt lat="45.0091" lon="6.64875">
        <ele>1631</ele>
        <time>2019-08-18T11:36:33Z</time>
      </trkpt>
      <trkpt lat="45.00906" lon="6.64892">
        <ele>1626</ele>
        <time>2019-08-18T11:36:50Z</time>
      </trkpt>
      <trkpt lat="45.00902" lon="6.64918">
        <ele>1619</ele>
        <time>2019-08-18T11:37:15Z</time>
      </trkpt>
      <trkpt lat="45.00901" lon="6.64951">
        <ele>1614</ele>
        <time>2019-08-18T11:37:46Z</time>
      </trkpt>
      <trkpt lat="45.00901" lon="6.64961">
        <ele>1612</ele>
        <time>2019-08-18T11:37:56Z</time>
      </trkpt>
      <trkpt lat="45.00899" lon="6.6497">
        <ele>1611</ele>
        <time>2019-08-18T11:38:05Z</time>
      </trkpt>
      <trkpt lat="45.00899" lon="6.64972">
        <ele>1610</ele>
        <time>2019-08-18T11:38:06Z</time>
      </trkpt>
      <trkpt lat="45.00897" lon="6.64976">
        <ele>1610</ele>
        <time>2019-08-18T11:38:11Z</time>
      </trkpt>
      <trkpt lat="45.00895" lon="6.64978">
        <ele>1610</ele>
        <time>2019-08-18T11:38:14Z</time>
      </trkpt>
      <trkpt lat="45.00894" lon="6.64982">
        <ele>1609</ele>
        <time>2019-08-18T11:38:18Z</time>
      </trkpt>
      <trkpt lat="45.00892" lon="6.64986">
        <ele>1609</ele>
        <time>2019-08-18T11:38:23Z</time>
      </trkpt>
      <trkpt lat="45.00892" lon="6.64996">
        <ele>1607</ele>
        <time>2019-08-18T11:38:32Z</time>
      </trkpt>
      <trkpt lat="45.00892" lon="6.65007">
        <ele>1605</ele>
        <time>2019-08-18T11:38:43Z</time>
      </trkpt>
      <trkpt lat="45.00886" lon="6.65046">
        <ele>1601</ele>
        <time>2019-08-18T11:39:20Z</time>
      </trkpt>
      <trkpt lat="45.0088" lon="6.65058">
        <ele>1600</ele>
        <time>2019-08-18T11:39:34Z</time>
      </trkpt>
      <trkpt lat="45.00859" lon="6.65083">
        <ele>1597</ele>
        <time>2019-08-18T11:40:11Z</time>
      </trkpt>
      <trkpt lat="45.00837" lon="6.65106">
        <ele>1594</ele>
        <time>2019-08-18T11:40:47Z</time>
      </trkpt>
      <trkpt lat="45.00816" lon="6.65129">
        <ele>1593</ele>
        <time>2019-08-18T11:41:23Z</time>
      </trkpt>
      <trkpt lat="45.00796" lon="6.6516">
        <ele>1588</ele>
        <time>2019-08-18T11:42:02Z</time>
      </trkpt>
      <trkpt lat="45.0075" lon="6.6522">
        <ele>1580</ele>
        <time>2019-08-18T11:43:26Z</time>
      </trkpt>
      <trkpt lat="45.00725" lon="6.65255">
        <ele>1577</ele>
        <time>2019-08-18T11:44:13Z</time>
      </trkpt>
      <trkpt lat="45.00683" lon="6.65309">
        <ele>1571</ele>
        <time>2019-08-18T11:45:29Z</time>
      </trkpt>
      <trkpt lat="45.00663" lon="6.65333">
        <ele>1567</ele>
        <time>2019-08-18T11:46:04Z</time>
      </trkpt>
      <trkpt lat="45.00641" lon="6.65351">
        <ele>1566</ele>
        <time>2019-08-18T11:46:38Z</time>
      </trkpt>
      <trkpt lat="45.00618" lon="6.65366">
        <ele>1566</ele>
        <time>2019-08-18T11:47:11Z</time>
      </trkpt>
      <trkpt lat="45.00592" lon="6.65377">
        <ele>1567</ele>
        <time>2019-08-18T11:47:48Z</time>
      </trkpt>
      <trkpt lat="45.00564" lon="6.6539">
        <ele>1567</ele>
        <time>2019-08-18T11:48:27Z</time>
      </trkpt>
      <trkpt lat="45.00534" lon="6.65404">
        <ele>1568</ele>
        <time>2019-08-18T11:49:09Z</time>
      </trkpt>
      <trkpt lat="45.0047" lon="6.65441">
        <ele>1567</ele>
        <time>2019-08-18T11:50:41Z</time>
      </trkpt>
      <trkpt lat="45.00445" lon="6.65455">
        <ele>1567</ele>
        <time>2019-08-18T11:51:17Z</time>
      </trkpt>
      <trkpt lat="45.00429" lon="6.65461">
        <ele>1567</ele>
        <time>2019-08-18T11:51:39Z</time>
      </trkpt>
      <trkpt lat="45.00412" lon="6.65464">
        <ele>1569</ele>
        <time>2019-08-18T11:52:02Z</time>
      </trkpt>
      <trkpt lat="45.00398" lon="6.65467">
        <ele>1569</ele>
        <time>2019-08-18T11:52:21Z</time>
      </trkpt>
      <trkpt lat="45.00383" lon="6.65473">
        <ele>1568</ele>
        <time>2019-08-18T11:52:42Z</time>
      </trkpt>
      <trkpt lat="45.00368" lon="6.65481">
        <ele>1567</ele>
        <time>2019-08-18T11:53:03Z</time>
      </trkpt>
      <trkpt lat="45.00349" lon="6.65496">
        <ele>1563</ele>
        <time>2019-08-18T11:53:32Z</time>
      </trkpt>
      <trkpt lat="45.0033" lon="6.65515">
        <ele>1560</ele>
        <time>2019-08-18T11:54:03Z</time>
      </trkpt>
      <trkpt lat="45.0031" lon="6.65536">
        <ele>1559</ele>
        <time>2019-08-18T11:54:37Z</time>
      </trkpt>
      <trkpt lat="45.00294" lon="6.65555">
        <ele>1557</ele>
        <time>2019-08-18T11:55:04Z</time>
      </trkpt>
      <trkpt lat="45.00289" lon="6.65565">
        <ele>1556</ele>
        <time>2019-08-18T11:55:16Z</time>
      </trkpt>
      <trkpt lat="45.00285" lon="6.65583">
        <ele>1553</ele>
        <time>2019-08-18T11:55:34Z</time>
      </trkpt>
      <trkpt lat="45.00282" lon="6.65609">
        <ele>1548</ele>
        <time>2019-08-18T11:55:59Z</time>
      </trkpt>
      <trkpt lat="45.00279" lon="6.65643">
        <ele>1542</ele>
        <time>2019-08-18T11:56:31Z</time>
      </trkpt>
      <trkpt lat="45.0028" lon="6.65679">
        <ele>1536</ele>
        <time>2019-08-18T11:57:05Z</time>
      </trkpt>
      <trkpt lat="45.0028" lon="6.65696">
        <ele>1533</ele>
        <time>2019-08-18T11:57:21Z</time>
      </trkpt>
      <trkpt lat="45.0029" lon="6.65709">
        <ele>1529</ele>
        <time>2019-08-18T11:57:39Z</time>
      </trkpt>
      <trkpt lat="45.00308" lon="6.6573">
        <ele>1522</ele>
        <time>2019-08-18T11:58:10Z</time>
      </trkpt>
      <trkpt lat="45.00324" lon="6.65753">
        <ele>1515</ele>
        <time>2019-08-18T11:58:41Z</time>
      </trkpt>
      <trkpt lat="45.00334" lon="6.65768">
        <ele>1511</ele>
        <time>2019-08-18T11:59:00Z</time>
      </trkpt>
      <trkpt lat="45.00343" lon="6.65785">
        <ele>1507</ele>
        <time>2019-08-18T11:59:20Z</time>
      </trkpt>
      <trkpt lat="45.0035" lon="6.658">
        <ele>1504</ele>
        <time>2019-08-18T11:59:37Z</time>
      </trkpt>
      <trkpt lat="45.00355" lon="6.65813">
        <ele>1502</ele>
        <time>2019-08-18T11:59:51Z</time>
      </trkpt>
      <trkpt lat="45.00359" lon="6.65829">
        <ele>1500</ele>
        <time>2019-08-18T12:00:07Z</time>
      </trkpt>
      <trkpt lat="45.00387" lon="6.65885">
        <ele>1495</ele>
        <time>2019-08-18T12:01:12Z</time>
      </trkpt>
      <trkpt lat="45.00397" lon="6.659">
        <ele>1494</ele>
        <time>2019-08-18T12:01:31Z</time>
      </trkpt>
      <trkpt lat="45.00393" lon="6.65905">
        <ele>1494</ele>
        <time>2019-08-18T12:01:38Z</time>
      </trkpt>
      <trkpt lat="45.00379" lon="6.65911">
        <ele>1493</ele>
        <time>2019-08-18T12:01:58Z</time>
      </trkpt>
      <trkpt lat="45.0037" lon="6.65914">
        <ele>1492</ele>
        <time>2019-08-18T12:02:10Z</time>
      </trkpt>
      <trkpt lat="45.00359" lon="6.65925">
        <ele>1491</ele>
        <time>2019-08-18T12:02:28Z</time>
      </trkpt>
      <trkpt lat="45.00357" lon="6.65926">
        <ele>1491</ele>
        <time>2019-08-18T12:02:31Z</time>
      </trkpt>
      <trkpt lat="45.00344" lon="6.65929">
        <ele>1490</ele>
        <time>2019-08-18T12:02:49Z</time>
      </trkpt>
      <trkpt lat="45.00334" lon="6.6593">
        <ele>1489</ele>
        <time>2019-08-18T12:03:02Z</time>
      </trkpt>
      <trkpt lat="45.00324" lon="6.65933">
        <ele>1492</ele>
        <time>2019-08-18T12:03:16Z</time>
      </trkpt>
      <trkpt lat="45.00313" lon="6.65939">
        <ele>1494</ele>
        <time>2019-08-18T12:03:31Z</time>
      </trkpt>
      <trkpt lat="45.00305" lon="6.65948">
        <ele>1496</ele>
        <time>2019-08-18T12:03:45Z</time>
      </trkpt>
      <trkpt lat="45.00297" lon="6.65961">
        <ele>1497</ele>
        <time>2019-08-18T12:04:01Z</time>
      </trkpt>
      <trkpt lat="45.00291" lon="6.6598">
        <ele>1497</ele>
        <time>2019-08-18T12:04:21Z</time>
      </trkpt>
      <trkpt lat="45.00283" lon="6.66012">
        <ele>1495</ele>
        <time>2019-08-18T12:04:53Z</time>
      </trkpt>
      <trkpt lat="45.00281" lon="6.66028">
        <ele>1494</ele>
        <time>2019-08-18T12:05:08Z</time>
      </trkpt>
      <trkpt lat="45.0028" lon="6.66045">
        <ele>1492</ele>
        <time>2019-08-18T12:05:24Z</time>
      </trkpt>
      <trkpt lat="45.0028" lon="6.66082">
        <ele>1488</ele>
        <time>2019-08-18T12:05:59Z</time>
      </trkpt>
      <trkpt lat="45.0028" lon="6.66088">
        <ele>1487</ele>
        <time>2019-08-18T12:06:05Z</time>
      </trkpt>
      <trkpt lat="45.00281" lon="6.66095">
        <ele>1487</ele>
        <time>2019-08-18T12:06:12Z</time>
      </trkpt>
      <trkpt lat="45.00284" lon="6.66111">
        <ele>1486</ele>
        <time>2019-08-18T12:06:27Z</time>
      </trkpt>
      <trkpt lat="45.00284" lon="6.66124">
        <ele>1486</ele>
        <time>2019-08-18T12:06:40Z</time>
      </trkpt>
      <trkpt lat="45.00283" lon="6.66129">
        <ele>1486</ele>
        <time>2019-08-18T12:06:45Z</time>
      </trkpt>
      <trkpt lat="45.00295" lon="6.66121">
        <ele>1486</ele>
        <time>2019-08-18T12:07:02Z</time>
      </trkpt>
      <trkpt lat="45.00318" lon="6.66098">
        <ele>1486</ele>
        <time>2019-08-18T12:07:40Z</time>
      </trkpt>
      <trkpt lat="45.00329" lon="6.6609">
        <ele>1485</ele>
        <time>2019-08-18T12:07:56Z</time>
      </trkpt>
      <trkpt lat="45.00354" lon="6.66085">
        <ele>1486</ele>
        <time>2019-08-18T12:08:30Z</time>
      </trkpt>
      <trkpt lat="45.00362" lon="6.66083">
        <ele>1486</ele>
        <time>2019-08-18T12:08:41Z</time>
      </trkpt>
      <trkpt lat="45.00366" lon="6.66084">
        <ele>1487</ele>
        <time>2019-08-18T12:08:46Z</time>
      </trkpt>
      <trkpt lat="45.00369" lon="6.66086">
        <ele>1487</ele>
        <time>2019-08-18T12:08:51Z</time>
      </trkpt>
      <trkpt lat="45.0037" lon="6.66095">
        <ele>1487</ele>
        <time>2019-08-18T12:08:59Z</time>
      </trkpt>
      <trkpt lat="45.00372" lon="6.6611">
        <ele>1488</ele>
        <time>2019-08-18T12:09:14Z</time>
      </trkpt>
      <trkpt lat="45.00366" lon="6.66156">
        <ele>1490</ele>
        <time>2019-08-18T12:09:58Z</time>
      </trkpt>
      <trkpt lat="45.00364" lon="6.66167">
        <ele>1490</ele>
        <time>2019-08-18T12:10:09Z</time>
      </trkpt>
      <trkpt lat="45.00361" lon="6.66178">
        <ele>1491</ele>
        <time>2019-08-18T12:10:20Z</time>
      </trkpt>
      <trkpt lat="45.00356" lon="6.66189">
        <ele>1491</ele>
        <time>2019-08-18T12:10:32Z</time>
      </trkpt>
      <trkpt lat="45.00353" lon="6.66195">
        <ele>1492</ele>
        <time>2019-08-18T12:10:39Z</time>
      </trkpt>
      <trkpt lat="45.00352" lon="6.66205">
        <ele>1492</ele>
        <time>2019-08-18T12:10:48Z</time>
      </trkpt>
      <trkpt lat="45.00354" lon="6.66211">
        <ele>1493</ele>
        <time>2019-08-18T12:10:55Z</time>
      </trkpt>
      <trkpt lat="45.00355" lon="6.66219">
        <ele>1493</ele>
        <time>2019-08-18T12:11:02Z</time>
      </trkpt>
      <trkpt lat="45.00356" lon="6.66228">
        <ele>1494</ele>
        <time>2019-08-18T12:11:11Z</time>
      </trkpt>
      <trkpt lat="45.00353" lon="6.66246">
        <ele>1495</ele>
        <time>2019-08-18T12:11:28Z</time>
      </trkpt>
      <trkpt lat="45.00353" lon="6.66262">
        <ele>1497</ele>
        <time>2019-08-18T12:11:44Z</time>
      </trkpt>
      <trkpt lat="45.00344" lon="6.66289">
        <ele>1499</ele>
        <time>2019-08-18T12:12:12Z</time>
      </trkpt>
      <trkpt lat="45.00339" lon="6.66305">
        <ele>1500</ele>
        <time>2019-08-18T12:12:28Z</time>
      </trkpt>
      <trkpt lat="45.00332" lon="6.66319">
        <ele>1500</ele>
        <time>2019-08-18T12:12:44Z</time>
      </trkpt>
      <trkpt lat="45.00321" lon="6.66353">
        <ele>1504</ele>
        <time>2019-08-18T12:13:20Z</time>
      </trkpt>
      <trkpt lat="45.00312" lon="6.66377">
        <ele>1507</ele>
        <time>2019-08-18T12:13:45Z</time>
      </trkpt>
      <trkpt lat="45.00309" lon="6.66388">
        <ele>1509</ele>
        <time>2019-08-18T12:13:56Z</time>
      </trkpt>
      <trkpt lat="45.00307" lon="6.66398">
        <ele>1511</ele>
        <time>2019-08-18T12:14:06Z</time>
      </trkpt>
      <trkpt lat="45.00306" lon="6.66412">
        <ele>1513</ele>
        <time>2019-08-18T12:14:20Z</time>
      </trkpt>
      <trkpt lat="45.00306" lon="6.66429">
        <ele>1518</ele>
        <time>2019-08-18T12:14:36Z</time>
      </trkpt>
      <trkpt lat="45.00304" lon="6.66441">
        <ele>1520</ele>
        <time>2019-08-18T12:14:47Z</time>
      </trkpt>
      <trkpt lat="45.00298" lon="6.66458">
        <ele>1524</ele>
        <time>2019-08-18T12:15:05Z</time>
      </trkpt>
      <trkpt lat="45.00294" lon="6.66468">
        <ele>1525</ele>
        <time>2019-08-18T12:15:16Z</time>
      </trkpt>
      <trkpt lat="45.00284" lon="6.66476">
        <ele>1525</ele>
        <time>2019-08-18T12:15:31Z</time>
      </trkpt>
      <trkpt lat="45.00277" lon="6.66481">
        <ele>1525</ele>
        <time>2019-08-18T12:15:42Z</time>
      </trkpt>
      <trkpt lat="45.00252" lon="6.6651">
        <ele>1527</ele>
        <time>2019-08-18T12:16:25Z</time>
      </trkpt>
      <trkpt lat="45.00241" lon="6.66522">
        <ele>1528</ele>
        <time>2019-08-18T12:16:43Z</time>
      </trkpt>
      <trkpt lat="45.00234" lon="6.66533">
        <ele>1530</ele>
        <time>2019-08-18T12:16:57Z</time>
      </trkpt>
      <trkpt lat="45.00229" lon="6.66542">
        <ele>1531</ele>
        <time>2019-08-18T12:17:08Z</time>
      </trkpt>
      <trkpt lat="45.0022" lon="6.66554">
        <ele>1533</ele>
        <time>2019-08-18T12:17:25Z</time>
      </trkpt>
      <trkpt lat="45.00216" lon="6.66561">
        <ele>1535</ele>
        <time>2019-08-18T12:17:33Z</time>
      </trkpt>
      <trkpt lat="45.00208" lon="6.66579">
        <ele>1539</ele>
        <time>2019-08-18T12:17:53Z</time>
      </trkpt>
      <trkpt lat="45.00199" lon="6.66605">
        <ele>1544</ele>
        <time>2019-08-18T12:18:21Z</time>
      </trkpt>
      <trkpt lat="45.00192" lon="6.66623">
        <ele>1548</ele>
        <time>2019-08-18T12:18:40Z</time>
      </trkpt>
      <trkpt lat="45.00184" lon="6.66635">
        <ele>1549</ele>
        <time>2019-08-18T12:18:56Z</time>
      </trkpt>
      <trkpt lat="45.00174" lon="6.66646">
        <ele>1550</ele>
        <time>2019-08-18T12:19:12Z</time>
      </trkpt>
      <trkpt lat="45.00167" lon="6.66651">
        <ele>1549</ele>
        <time>2019-08-18T12:19:23Z</time>
      </trkpt>
      <trkpt lat="45.00159" lon="6.66658">
        <ele>1549</ele>
        <time>2019-08-18T12:19:35Z</time>
      </trkpt>
      <trkpt lat="45.00138" lon="6.6668">
        <ele>1552</ele>
        <time>2019-08-18T12:20:10Z</time>
      </trkpt>
      <trkpt lat="45.00136" lon="6.66683">
        <ele>1552</ele>
        <time>2019-08-18T12:20:14Z</time>
      </trkpt>
      <trkpt lat="45.00137" lon="6.66691">
        <ele>1554</ele>
        <time>2019-08-18T12:20:22Z</time>
      </trkpt>
      <trkpt lat="45.0014" lon="6.66694">
        <ele>1556</ele>
        <time>2019-08-18T12:20:27Z</time>
      </trkpt>
      <trkpt lat="45.00144" lon="6.66692">
        <ele>1556</ele>
        <time>2019-08-18T12:20:32Z</time>
      </trkpt>
      <trkpt lat="45.00159" lon="6.6668">
        <ele>1555</ele>
        <time>2019-08-18T12:20:55Z</time>
      </trkpt>
      <trkpt lat="45.00165" lon="6.66677">
        <ele>1556</ele>
        <time>2019-08-18T12:21:04Z</time>
      </trkpt>
      <trkpt lat="45.00176" lon="6.66675">
        <ele>1558</ele>
        <time>2019-08-18T12:21:19Z</time>
      </trkpt>
      <trkpt lat="45.00186" lon="6.66673">
        <ele>1560</ele>
        <time>2019-08-18T12:21:32Z</time>
      </trkpt>
      <trkpt lat="45.00192" lon="6.66673">
        <ele>1561</ele>
        <time>2019-08-18T12:21:40Z</time>
      </trkpt>
      <trkpt lat="45.00196" lon="6.66675">
        <ele>1563</ele>
        <time>2019-08-18T12:21:46Z</time>
      </trkpt>
      <trkpt lat="45.00197" lon="6.66681">
        <ele>1565</ele>
        <time>2019-08-18T12:21:52Z</time>
      </trkpt>
      <trkpt lat="45.00196" lon="6.66684">
        <ele>1566</ele>
        <time>2019-08-18T12:21:55Z</time>
      </trkpt>
      <trkpt lat="45.00193" lon="6.66685">
        <ele>1565</ele>
        <time>2019-08-18T12:21:59Z</time>
      </trkpt>
      <trkpt lat="45.00187" lon="6.66685">
        <ele>1564</ele>
        <time>2019-08-18T12:22:07Z</time>
      </trkpt>
      <trkpt lat="45.00184" lon="6.66686">
        <ele>1563</ele>
        <time>2019-08-18T12:22:11Z</time>
      </trkpt>
      <trkpt lat="45.00178" lon="6.6669">
        <ele>1563</ele>
        <time>2019-08-18T12:22:20Z</time>
      </trkpt>
      <trkpt lat="45.00169" lon="6.66701">
        <ele>1564</ele>
        <time>2019-08-18T12:22:36Z</time>
      </trkpt>
      <trkpt lat="45.00151" lon="6.66725">
        <ele>1567</ele>
        <time>2019-08-18T12:23:09Z</time>
      </trkpt>
      <trkpt lat="45.00147" lon="6.66731">
        <ele>1567</ele>
        <time>2019-08-18T12:23:17Z</time>
      </trkpt>
      <trkpt lat="45.00147" lon="6.66736">
        <ele>1569</ele>
        <time>2019-08-18T12:23:21Z</time>
      </trkpt>
      <trkpt lat="45.00148" lon="6.66739">
        <ele>1570</ele>
        <time>2019-08-18T12:23:24Z</time>
      </trkpt>
      <trkpt lat="45.0015" lon="6.6674">
        <ele>1571</ele>
        <time>2019-08-18T12:23:27Z</time>
      </trkpt>
      <trkpt lat="45.00154" lon="6.6674">
        <ele>1571</ele>
        <time>2019-08-18T12:23:33Z</time>
      </trkpt>
      <trkpt lat="45.00156" lon="6.66739">
        <ele>1572</ele>
        <time>2019-08-18T12:23:35Z</time>
      </trkpt>
      <trkpt lat="45.00162" lon="6.66732">
        <ele>1571</ele>
        <time>2019-08-18T12:23:46Z</time>
      </trkpt>
      <trkpt lat="45.00168" lon="6.66727">
        <ele>1571</ele>
        <time>2019-08-18T12:23:55Z</time>
      </trkpt>
      <trkpt lat="45.00176" lon="6.66723">
        <ele>1572</ele>
        <time>2019-08-18T12:24:06Z</time>
      </trkpt>
      <trkpt lat="45.00188" lon="6.66719">
        <ele>1575</ele>
        <time>2019-08-18T12:24:23Z</time>
      </trkpt>
      <trkpt lat="45.00206" lon="6.66715">
        <ele>1579</ele>
        <time>2019-08-18T12:24:47Z</time>
      </trkpt>
      <trkpt lat="45.00219" lon="6.66712">
        <ele>1582</ele>
        <time>2019-08-18T12:25:05Z</time>
      </trkpt>
      <trkpt lat="45.0023" lon="6.66706">
        <ele>1583</ele>
        <time>2019-08-18T12:25:21Z</time>
      </trkpt>
      <trkpt lat="45.00235" lon="6.66704">
        <ele>1584</ele>
        <time>2019-08-18T12:25:27Z</time>
      </trkpt>
      <trkpt lat="45.00238" lon="6.66706">
        <ele>1585</ele>
        <time>2019-08-18T12:25:32Z</time>
      </trkpt>
      <trkpt lat="45.00238" lon="6.66708">
        <ele>1586</ele>
        <time>2019-08-18T12:25:34Z</time>
      </trkpt>
      <trkpt lat="45.00238" lon="6.66713">
        <ele>1588</ele>
        <time>2019-08-18T12:25:38Z</time>
      </trkpt>
      <trkpt lat="45.00236" lon="6.66716">
        <ele>1588</ele>
        <time>2019-08-18T12:25:42Z</time>
      </trkpt>
      <trkpt lat="45.00232" lon="6.66717">
        <ele>1587</ele>
        <time>2019-08-18T12:25:48Z</time>
      </trkpt>
      <trkpt lat="45.00227" lon="6.6672">
        <ele>1587</ele>
        <time>2019-08-18T12:25:55Z</time>
      </trkpt>
      <trkpt lat="45.00218" lon="6.6673">
        <ele>1587</ele>
        <time>2019-08-18T12:26:10Z</time>
      </trkpt>
      <trkpt lat="45.0021" lon="6.66741">
        <ele>1589</ele>
        <time>2019-08-18T12:26:25Z</time>
      </trkpt>
      <trkpt lat="45.00202" lon="6.66748">
        <ele>1588</ele>
        <time>2019-08-18T12:26:38Z</time>
      </trkpt>
      <trkpt lat="45.00193" lon="6.66759">
        <ele>1589</ele>
        <time>2019-08-18T12:26:54Z</time>
      </trkpt>
      <trkpt lat="45.00186" lon="6.66771">
        <ele>1591</ele>
        <time>2019-08-18T12:27:08Z</time>
      </trkpt>
      <trkpt lat="45.00172" lon="6.66802">
        <ele>1596</ele>
        <time>2019-08-18T12:27:43Z</time>
      </trkpt>
      <trkpt lat="45.00165" lon="6.66815">
        <ele>1598</ele>
        <time>2019-08-18T12:27:58Z</time>
      </trkpt>
      <trkpt lat="45.00159" lon="6.66822">
        <ele>1599</ele>
        <time>2019-08-18T12:28:09Z</time>
      </trkpt>
      <trkpt lat="45.00143" lon="6.66842">
        <ele>1602</ele>
        <time>2019-08-18T12:28:37Z</time>
      </trkpt>
      <trkpt lat="45.00129" lon="6.66857">
        <ele>1604</ele>
        <time>2019-08-18T12:29:01Z</time>
      </trkpt>
      <trkpt lat="45.00111" lon="6.66867">
        <ele>1603</ele>
        <time>2019-08-18T12:29:27Z</time>
      </trkpt>
      <trkpt lat="45.00108" lon="6.66872">
        <ele>1604</ele>
        <time>2019-08-18T12:29:33Z</time>
      </trkpt>
      <trkpt lat="45.00108" lon="6.66876">
        <ele>1605</ele>
        <time>2019-08-18T12:29:37Z</time>
      </trkpt>
      <trkpt lat="45.00112" lon="6.66878">
        <ele>1607</ele>
        <time>2019-08-18T12:29:42Z</time>
      </trkpt>
      <trkpt lat="45.0012" lon="6.66877">
        <ele>1608</ele>
        <time>2019-08-18T12:29:53Z</time>
      </trkpt>
      <trkpt lat="45.00133" lon="6.66872">
        <ele>1610</ele>
        <time>2019-08-18T12:30:11Z</time>
      </trkpt>
      <trkpt lat="45.00147" lon="6.66868">
        <ele>1612</ele>
        <time>2019-08-18T12:30:30Z</time>
      </trkpt>
      <trkpt lat="45.00164" lon="6.66864">
        <ele>1614</ele>
        <time>2019-08-18T12:30:53Z</time>
      </trkpt>
      <trkpt lat="45.00176" lon="6.6686">
        <ele>1617</ele>
        <time>2019-08-18T12:31:09Z</time>
      </trkpt>
      <trkpt lat="45.00191" lon="6.66853">
        <ele>1621</ele>
        <time>2019-08-18T12:31:30Z</time>
      </trkpt>
      <trkpt lat="45.00198" lon="6.66847">
        <ele>1621</ele>
        <time>2019-08-18T12:31:41Z</time>
      </trkpt>
      <trkpt lat="45.00203" lon="6.66841">
        <ele>1621</ele>
        <time>2019-08-18T12:31:50Z</time>
      </trkpt>
      <trkpt lat="45.00209" lon="6.66835">
        <ele>1621</ele>
        <time>2019-08-18T12:32:00Z</time>
      </trkpt>
      <trkpt lat="45.00219" lon="6.66829">
        <ele>1623</ele>
        <time>2019-08-18T12:32:14Z</time>
      </trkpt>
      <trkpt lat="45.00234" lon="6.66817">
        <ele>1625</ele>
        <time>2019-08-18T12:32:37Z</time>
      </trkpt>
      <trkpt lat="45.00241" lon="6.66812">
        <ele>1625</ele>
        <time>2019-08-18T12:32:48Z</time>
      </trkpt>
      <trkpt lat="45.0025" lon="6.66807">
        <ele>1627</ele>
        <time>2019-08-18T12:33:01Z</time>
      </trkpt>
      <trkpt lat="45.00269" lon="6.66797">
        <ele>1629</ele>
        <time>2019-08-18T12:33:28Z</time>
      </trkpt>
      <trkpt lat="45.00282" lon="6.66788">
        <ele>1630</ele>
        <time>2019-08-18T12:33:47Z</time>
      </trkpt>
      <trkpt lat="45.00289" lon="6.66783">
        <ele>1630</ele>
        <time>2019-08-18T12:33:58Z</time>
      </trkpt>
      <trkpt lat="45.00293" lon="6.66782">
        <ele>1631</ele>
        <time>2019-08-18T12:34:03Z</time>
      </trkpt>
      <trkpt lat="45.00295" lon="6.66784">
        <ele>1632</ele>
        <time>2019-08-18T12:34:06Z</time>
      </trkpt>
      <trkpt lat="45.00296" lon="6.66786">
        <ele>1633</ele>
        <time>2019-08-18T12:34:09Z</time>
      </trkpt>
      <trkpt lat="45.00295" lon="6.66789">
        <ele>1634</ele>
        <time>2019-08-18T12:34:12Z</time>
      </trkpt>
      <trkpt lat="45.00294" lon="6.66792">
        <ele>1635</ele>
        <time>2019-08-18T12:34:15Z</time>
      </trkpt>
      <trkpt lat="45.00288" lon="6.66797">
        <ele>1635</ele>
        <time>2019-08-18T12:34:24Z</time>
      </trkpt>
      <trkpt lat="45.00282" lon="6.66804">
        <ele>1636</ele>
        <time>2019-08-18T12:34:35Z</time>
      </trkpt>
      <trkpt lat="45.00265" lon="6.66828">
        <ele>1640</ele>
        <time>2019-08-18T12:35:07Z</time>
      </trkpt>
      <trkpt lat="45.00255" lon="6.66842">
        <ele>1642</ele>
        <time>2019-08-18T12:35:25Z</time>
      </trkpt>
      <trkpt lat="45.00248" lon="6.66854">
        <ele>1643</ele>
        <time>2019-08-18T12:35:40Z</time>
      </trkpt>
      <trkpt lat="45.00239" lon="6.66874">
        <ele>1646</ele>
        <time>2019-08-18T12:36:02Z</time>
      </trkpt>
      <trkpt lat="45.0023" lon="6.66892">
        <ele>1649</ele>
        <time>2019-08-18T12:36:23Z</time>
      </trkpt>
      <trkpt lat="45.00219" lon="6.66909">
        <ele>1651</ele>
        <time>2019-08-18T12:36:45Z</time>
      </trkpt>
      <trkpt lat="45.00189" lon="6.66951">
        <ele>1654</ele>
        <time>2019-08-18T12:37:41Z</time>
      </trkpt>
      <trkpt lat="45.00172" lon="6.66976">
        <ele>1656</ele>
        <time>2019-08-18T12:38:14Z</time>
      </trkpt>
      <trkpt lat="45.00155" lon="6.67004">
        <ele>1658</ele>
        <time>2019-08-18T12:38:49Z</time>
      </trkpt>
      <trkpt lat="45.00147" lon="6.67019">
        <ele>1661</ele>
        <time>2019-08-18T12:39:07Z</time>
      </trkpt>
      <trkpt lat="45.00145" lon="6.67024">
        <ele>1661</ele>
        <time>2019-08-18T12:39:12Z</time>
      </trkpt>
      <trkpt lat="45.00145" lon="6.67028">
        <ele>1663</ele>
        <time>2019-08-18T12:39:16Z</time>
      </trkpt>
      <trkpt lat="45.00146" lon="6.67031">
        <ele>1664</ele>
        <time>2019-08-18T12:39:19Z</time>
      </trkpt>
      <trkpt lat="45.0015" lon="6.67033">
        <ele>1666</ele>
        <time>2019-08-18T12:39:25Z</time>
      </trkpt>
      <trkpt lat="45.00153" lon="6.6703">
        <ele>1666</ele>
        <time>2019-08-18T12:39:30Z</time>
      </trkpt>
      <trkpt lat="45.00158" lon="6.67023">
        <ele>1666</ele>
        <time>2019-08-18T12:39:39Z</time>
      </trkpt>
      <trkpt lat="45.00164" lon="6.67013">
        <ele>1665</ele>
        <time>2019-08-18T12:39:51Z</time>
      </trkpt>
      <trkpt lat="45.00172" lon="6.67004">
        <ele>1665</ele>
        <time>2019-08-18T12:40:05Z</time>
      </trkpt>
      <trkpt lat="45.00182" lon="6.66996">
        <ele>1667</ele>
        <time>2019-08-18T12:40:20Z</time>
      </trkpt>
      <trkpt lat="45.00191" lon="6.66989">
        <ele>1669</ele>
        <time>2019-08-18T12:40:34Z</time>
      </trkpt>
      <trkpt lat="45.00195" lon="6.66989">
        <ele>1670</ele>
        <time>2019-08-18T12:40:39Z</time>
      </trkpt>
      <trkpt lat="45.00197" lon="6.6699">
        <ele>1672</ele>
        <time>2019-08-18T12:40:42Z</time>
      </trkpt>
      <trkpt lat="45.00198" lon="6.66992">
        <ele>1673</ele>
        <time>2019-08-18T12:40:44Z</time>
      </trkpt>
      <trkpt lat="45.00198" lon="6.66995">
        <ele>1674</ele>
        <time>2019-08-18T12:40:47Z</time>
      </trkpt>
      <trkpt lat="45.00197" lon="6.66997">
        <ele>1674</ele>
        <time>2019-08-18T12:40:50Z</time>
      </trkpt>
      <trkpt lat="45.00195" lon="6.67">
        <ele>1674</ele>
        <time>2019-08-18T12:40:53Z</time>
      </trkpt>
      <trkpt lat="45.0019" lon="6.67003">
        <ele>1673</ele>
        <time>2019-08-18T12:41:01Z</time>
      </trkpt>
      <trkpt lat="45.00184" lon="6.67009">
        <ele>1672</ele>
        <time>2019-08-18T12:41:11Z</time>
      </trkpt>
      <trkpt lat="45.00178" lon="6.67018">
        <ele>1673</ele>
        <time>2019-08-18T12:41:22Z</time>
      </trkpt>
      <trkpt lat="45.00169" lon="6.67037">
        <ele>1675</ele>
        <time>2019-08-18T12:41:44Z</time>
      </trkpt>
      <trkpt lat="45.00165" lon="6.6705">
        <ele>1678</ele>
        <time>2019-08-18T12:41:57Z</time>
      </trkpt>
      <trkpt lat="45.00164" lon="6.67055">
        <ele>1679</ele>
        <time>2019-08-18T12:42:02Z</time>
      </trkpt>
      <trkpt lat="45.00165" lon="6.6706">
        <ele>1681</ele>
        <time>2019-08-18T12:42:07Z</time>
      </trkpt>
      <trkpt lat="45.00168" lon="6.67062">
        <ele>1683</ele>
        <time>2019-08-18T12:42:11Z</time>
      </trkpt>
      <trkpt lat="45.00171" lon="6.67062">
        <ele>1685</ele>
        <time>2019-08-18T12:42:15Z</time>
      </trkpt>
      <trkpt lat="45.00172" lon="6.6706">
        <ele>1684</ele>
        <time>2019-08-18T12:42:18Z</time>
      </trkpt>
      <trkpt lat="45.00173" lon="6.67059">
        <ele>1685</ele>
        <time>2019-08-18T12:42:19Z</time>
      </trkpt>
      <trkpt lat="45.00175" lon="6.67048">
        <ele>1682</ele>
        <time>2019-08-18T12:42:30Z</time>
      </trkpt>
      <trkpt lat="45.00179" lon="6.67039">
        <ele>1680</ele>
        <time>2019-08-18T12:42:40Z</time>
      </trkpt>
      <trkpt lat="45.00185" lon="6.67032">
        <ele>1681</ele>
        <time>2019-08-18T12:42:50Z</time>
      </trkpt>
      <trkpt lat="45.00192" lon="6.67025">
        <ele>1682</ele>
        <time>2019-08-18T12:43:02Z</time>
      </trkpt>
      <trkpt lat="45.00204" lon="6.67019">
        <ele>1685</ele>
        <time>2019-08-18T12:43:19Z</time>
      </trkpt>
      <trkpt lat="45.0021" lon="6.67016">
        <ele>1687</ele>
        <time>2019-08-18T12:43:27Z</time>
      </trkpt>
      <trkpt lat="45.00217" lon="6.67009">
        <ele>1688</ele>
        <time>2019-08-18T12:43:39Z</time>
      </trkpt>
      <trkpt lat="45.00227" lon="6.67">
        <ele>1689</ele>
        <time>2019-08-18T12:43:55Z</time>
      </trkpt>
      <trkpt lat="45.00239" lon="6.6699">
        <ele>1691</ele>
        <time>2019-08-18T12:44:13Z</time>
      </trkpt>
      <trkpt lat="45.00249" lon="6.66982">
        <ele>1692</ele>
        <time>2019-08-18T12:44:29Z</time>
      </trkpt>
      <trkpt lat="45.00261" lon="6.66976">
        <ele>1695</ele>
        <time>2019-08-18T12:44:46Z</time>
      </trkpt>
      <trkpt lat="45.00276" lon="6.66967">
        <ele>1698</ele>
        <time>2019-08-18T12:45:07Z</time>
      </trkpt>
      <trkpt lat="45.00287" lon="6.66961">
        <ele>1700</ele>
        <time>2019-08-18T12:45:23Z</time>
      </trkpt>
      <trkpt lat="45.0031" lon="6.66951">
        <ele>1706</ele>
        <time>2019-08-18T12:45:55Z</time>
      </trkpt>
      <trkpt lat="45.00318" lon="6.66946">
        <ele>1707</ele>
        <time>2019-08-18T12:46:07Z</time>
      </trkpt>
      <trkpt lat="45.00328" lon="6.66936">
        <ele>1706</ele>
        <time>2019-08-18T12:46:23Z</time>
      </trkpt>
      <trkpt lat="45.00336" lon="6.66926">
        <ele>1705</ele>
        <time>2019-08-18T12:46:37Z</time>
      </trkpt>
      <trkpt lat="45.00348" lon="6.66913">
        <ele>1706</ele>
        <time>2019-08-18T12:46:58Z</time>
      </trkpt>
      <trkpt lat="45.0036" lon="6.66904">
        <ele>1709</ele>
        <time>2019-08-18T12:47:16Z</time>
      </trkpt>
      <trkpt lat="45.00365" lon="6.669">
        <ele>1710</ele>
        <time>2019-08-18T12:47:23Z</time>
      </trkpt>
      <trkpt lat="45.00369" lon="6.669">
        <ele>1713</ele>
        <time>2019-08-18T12:47:29Z</time>
      </trkpt>
      <trkpt lat="45.0037" lon="6.66901">
        <ele>1714</ele>
        <time>2019-08-18T12:47:30Z</time>
      </trkpt>
      <trkpt lat="45.00372" lon="6.66903">
        <ele>1716</ele>
        <time>2019-08-18T12:47:34Z</time>
      </trkpt>
      <trkpt lat="45.00372" lon="6.66907">
        <ele>1717</ele>
        <time>2019-08-18T12:47:37Z</time>
      </trkpt>
      <trkpt lat="45.00363" lon="6.66915">
        <ele>1715</ele>
        <time>2019-08-18T12:47:52Z</time>
      </trkpt>
      <trkpt lat="45.00355" lon="6.66925">
        <ele>1715</ele>
        <time>2019-08-18T12:48:06Z</time>
      </trkpt>
      <trkpt lat="45.00349" lon="6.66937">
        <ele>1718</ele>
        <time>2019-08-18T12:48:20Z</time>
      </trkpt>
      <trkpt lat="45.00348" lon="6.66946">
        <ele>1722</ele>
        <time>2019-08-18T12:48:28Z</time>
      </trkpt>
      <trkpt lat="45.00344" lon="6.66958">
        <ele>1726</ele>
        <time>2019-08-18T12:48:41Z</time>
      </trkpt>
      <trkpt lat="45.00338" lon="6.66962">
        <ele>1724</ele>
        <time>2019-08-18T12:48:50Z</time>
      </trkpt>
      <trkpt lat="45.00333" lon="6.66964">
        <ele>1722</ele>
        <time>2019-08-18T12:48:57Z</time>
      </trkpt>
      <trkpt lat="45.00321" lon="6.66973">
        <ele>1721</ele>
        <time>2019-08-18T12:49:15Z</time>
      </trkpt>
      <trkpt lat="45.00316" lon="6.66979">
        <ele>1722</ele>
        <time>2019-08-18T12:49:23Z</time>
      </trkpt>
      <trkpt lat="45.00304" lon="6.66996">
        <ele>1724</ele>
        <time>2019-08-18T12:49:46Z</time>
      </trkpt>
      <trkpt lat="45.00293" lon="6.67014">
        <ele>1727</ele>
        <time>2019-08-18T12:50:09Z</time>
      </trkpt>
      <trkpt lat="45.00284" lon="6.67027">
        <ele>1728</ele>
        <time>2019-08-18T12:50:26Z</time>
      </trkpt>
      <trkpt lat="45.00278" lon="6.67038">
        <ele>1730</ele>
        <time>2019-08-18T12:50:39Z</time>
      </trkpt>
      <trkpt lat="45.00267" lon="6.67057">
        <ele>1731</ele>
        <time>2019-08-18T12:51:02Z</time>
      </trkpt>
      <trkpt lat="45.00259" lon="6.67077">
        <ele>1734</ele>
        <time>2019-08-18T12:51:24Z</time>
      </trkpt>
      <trkpt lat="45.00252" lon="6.67098">
        <ele>1737</ele>
        <time>2019-08-18T12:51:46Z</time>
      </trkpt>
      <trkpt lat="45.00246" lon="6.67121">
        <ele>1741</ele>
        <time>2019-08-18T12:52:09Z</time>
      </trkpt>
      <trkpt lat="45.0024" lon="6.6715">
        <ele>1746</ele>
        <time>2019-08-18T12:52:37Z</time>
      </trkpt>
      <trkpt lat="45.00238" lon="6.67188">
        <ele>1755</ele>
        <time>2019-08-18T12:53:13Z</time>
      </trkpt>
      <trkpt lat="45.00237" lon="6.67202">
        <ele>1758</ele>
        <time>2019-08-18T12:53:26Z</time>
      </trkpt>
      <trkpt lat="45.00234" lon="6.67218">
        <ele>1759</ele>
        <time>2019-08-18T12:53:42Z</time>
      </trkpt>
      <trkpt lat="45.00225" lon="6.67252">
        <ele>1758</ele>
        <time>2019-08-18T12:54:16Z</time>
      </trkpt>
      <trkpt lat="45.00223" lon="6.6727">
        <ele>1759</ele>
        <time>2019-08-18T12:54:34Z</time>
      </trkpt>
      <trkpt lat="45.00225" lon="6.67298">
        <ele>1766</ele>
        <time>2019-08-18T12:55:00Z</time>
      </trkpt>
      <trkpt lat="45.00227" lon="6.67313">
        <ele>1771</ele>
        <time>2019-08-18T12:55:14Z</time>
      </trkpt>
      <trkpt lat="45.00231" lon="6.67323">
        <ele>1777</ele>
        <time>2019-08-18T12:55:25Z</time>
      </trkpt>
      <trkpt lat="45.00235" lon="6.67332">
        <ele>1782</ele>
        <time>2019-08-18T12:55:35Z</time>
      </trkpt>
      <trkpt lat="45.00235" lon="6.67339">
        <ele>1782</ele>
        <time>2019-08-18T12:55:42Z</time>
      </trkpt>
      <trkpt lat="45.0023" lon="6.67351">
        <ele>1775</ele>
        <time>2019-08-18T12:55:55Z</time>
      </trkpt>
      <trkpt lat="45.00225" lon="6.67369">
        <ele>1767</ele>
        <time>2019-08-18T12:56:13Z</time>
      </trkpt>
      <trkpt lat="45.00224" lon="6.67385">
        <ele>1763</ele>
        <time>2019-08-18T12:56:29Z</time>
      </trkpt>
      <trkpt lat="45.00226" lon="6.67421">
        <ele>1759</ele>
        <time>2019-08-18T12:57:03Z</time>
      </trkpt>
      <trkpt lat="45.00229" lon="6.67434">
        <ele>1760</ele>
        <time>2019-08-18T12:57:15Z</time>
      </trkpt>
      <trkpt lat="45.00235" lon="6.67454">
        <ele>1762</ele>
        <time>2019-08-18T12:57:36Z</time>
      </trkpt>
      <trkpt lat="45.00239" lon="6.67465">
        <ele>1763</ele>
        <time>2019-08-18T12:57:48Z</time>
      </trkpt>
      <trkpt lat="45.00245" lon="6.67476">
        <ele>1766</ele>
        <time>2019-08-18T12:58:01Z</time>
      </trkpt>
      <trkpt lat="45.00252" lon="6.67487">
        <ele>1770</ele>
        <time>2019-08-18T12:58:15Z</time>
      </trkpt>
      <trkpt lat="45.00262" lon="6.67498">
        <ele>1778</ele>
        <time>2019-08-18T12:58:32Z</time>
      </trkpt>
      <trkpt lat="45.00273" lon="6.67511">
        <ele>1785</ele>
        <time>2019-08-18T12:58:51Z</time>
      </trkpt>
      <trkpt lat="45.00296" lon="6.67534">
        <ele>1797</ele>
        <time>2019-08-18T12:59:28Z</time>
      </trkpt>
      <trkpt lat="45.00306" lon="6.67545">
        <ele>1801</ele>
        <time>2019-08-18T12:59:45Z</time>
      </trkpt>
      <trkpt lat="45.00313" lon="6.67557">
        <ele>1801</ele>
        <time>2019-08-18T13:00:00Z</time>
      </trkpt>
      <trkpt lat="45.00323" lon="6.67577">
        <ele>1799</ele>
        <time>2019-08-18T13:00:23Z</time>
      </trkpt>
      <trkpt lat="45.00326" lon="6.67582">
        <ele>1798</ele>
        <time>2019-08-18T13:00:29Z</time>
      </trkpt>
      <trkpt lat="45.00332" lon="6.67587">
        <ele>1801</ele>
        <time>2019-08-18T13:00:39Z</time>
      </trkpt>
      <trkpt lat="45.00346" lon="6.67592">
        <ele>1810</ele>
        <time>2019-08-18T13:00:58Z</time>
      </trkpt>
      <trkpt lat="45.0035" lon="6.67595">
        <ele>1812</ele>
        <time>2019-08-18T13:01:04Z</time>
      </trkpt>
      <trkpt lat="45.00353" lon="6.676">
        <ele>1813</ele>
        <time>2019-08-18T13:01:10Z</time>
      </trkpt>
      <trkpt lat="45.00359" lon="6.67619">
        <ele>1812</ele>
        <time>2019-08-18T13:01:30Z</time>
      </trkpt>
      <trkpt lat="45.00362" lon="6.67624">
        <ele>1813</ele>
        <time>2019-08-18T13:01:36Z</time>
      </trkpt>
      <trkpt lat="45.00374" lon="6.67635">
        <ele>1818</ele>
        <time>2019-08-18T13:01:55Z</time>
      </trkpt>
      <trkpt lat="45.00377" lon="6.67639">
        <ele>1819</ele>
        <time>2019-08-18T13:02:00Z</time>
      </trkpt>
      <trkpt lat="45.00379" lon="6.67645">
        <ele>1819</ele>
        <time>2019-08-18T13:02:07Z</time>
      </trkpt>
      <trkpt lat="45.00381" lon="6.6766">
        <ele>1816</ele>
        <time>2019-08-18T13:02:21Z</time>
      </trkpt>
      <trkpt lat="45.00385" lon="6.67674">
        <ele>1814</ele>
        <time>2019-08-18T13:02:35Z</time>
      </trkpt>
      <trkpt lat="45.00388" lon="6.6768">
        <ele>1814</ele>
        <time>2019-08-18T13:02:42Z</time>
      </trkpt>
      <trkpt lat="45.00394" lon="6.67691">
        <ele>1815</ele>
        <time>2019-08-18T13:02:55Z</time>
      </trkpt>
      <trkpt lat="45.00407" lon="6.6772">
        <ele>1813</ele>
        <time>2019-08-18T13:03:28Z</time>
      </trkpt>
      <trkpt lat="45.00411" lon="6.67725">
        <ele>1814</ele>
        <time>2019-08-18T13:03:35Z</time>
      </trkpt>
      <trkpt lat="45.00416" lon="6.67731">
        <ele>1815</ele>
        <time>2019-08-18T13:03:44Z</time>
      </trkpt>
      <trkpt lat="45.00447" lon="6.67757">
        <ele>1823</ele>
        <time>2019-08-18T13:04:32Z</time>
      </trkpt>
      <trkpt lat="45.00467" lon="6.67787">
        <ele>1822</ele>
        <time>2019-08-18T13:05:11Z</time>
      </trkpt>
      <trkpt lat="45.00536" lon="6.67843">
        <ele>1835</ele>
        <time>2019-08-18T13:06:57Z</time>
      </trkpt>
      <trkpt lat="45.00562" lon="6.67877">
        <ele>1834</ele>
        <time>2019-08-18T13:07:44Z</time>
      </trkpt>
      <trkpt lat="45.00591" lon="6.67883">
        <ele>1848</ele>
        <time>2019-08-18T13:08:23Z</time>
      </trkpt>
      <trkpt lat="45.00597" lon="6.67891">
        <ele>1848</ele>
        <time>2019-08-18T13:08:34Z</time>
      </trkpt>
      <trkpt lat="45.00644" lon="6.67982">
        <ele>1846</ele>
        <time>2019-08-18T13:10:21Z</time>
      </trkpt>
      <trkpt lat="45.00667" lon="6.68027">
        <ele>1851</ele>
        <time>2019-08-18T13:11:13Z</time>
      </trkpt>
      <trkpt lat="45.00668" lon="6.6806">
        <ele>1848</ele>
        <time>2019-08-18T13:11:44Z</time>
      </trkpt>
      <trkpt lat="45.00669" lon="6.68094">
        <ele>1845</ele>
        <time>2019-08-18T13:12:16Z</time>
      </trkpt>
      <trkpt lat="45.00683" lon="6.68121">
        <ele>1846</ele>
        <time>2019-08-18T13:12:48Z</time>
      </trkpt>
      <trkpt lat="45.00689" lon="6.68139">
        <ele>1845</ele>
        <time>2019-08-18T13:13:07Z</time>
      </trkpt>
      <trkpt lat="45.00697" lon="6.68168">
        <ele>1843</ele>
        <time>2019-08-18T13:13:36Z</time>
      </trkpt>
      <trkpt lat="45.00703" lon="6.6818">
        <ele>1842</ele>
        <time>2019-08-18T13:13:50Z</time>
      </trkpt>
      <trkpt lat="45.00733" lon="6.68213">
        <ele>1844</ele>
        <time>2019-08-18T13:14:41Z</time>
      </trkpt>
      <trkpt lat="45.00762" lon="6.68247">
        <ele>1845</ele>
        <time>2019-08-18T13:15:31Z</time>
      </trkpt>
      <trkpt lat="45.00791" lon="6.68281">
        <ele>1849</ele>
        <time>2019-08-18T13:16:21Z</time>
      </trkpt>
      <trkpt lat="45.00798" lon="6.68301">
        <ele>1848</ele>
        <time>2019-08-18T13:16:42Z</time>
      </trkpt>
      <trkpt lat="45.00814" lon="6.68372">
        <ele>1847</ele>
        <time>2019-08-18T13:17:52Z</time>
      </trkpt>
      <trkpt lat="45.00829" lon="6.68406">
        <ele>1848</ele>
        <time>2019-08-18T13:18:30Z</time>
      </trkpt>
      <trkpt lat="45.00833" lon="6.68441">
        <ele>1847</ele>
        <time>2019-08-18T13:19:04Z</time>
      </trkpt>
      <trkpt lat="45.00817" lon="6.68489">
        <ele>1846</ele>
        <time>2019-08-18T13:19:54Z</time>
      </trkpt>
      <trkpt lat="45.00826" lon="6.68529">
        <ele>1845</ele>
        <time>2019-08-18T13:20:33Z</time>
      </trkpt>
      <trkpt lat="45.00852" lon="6.68563">
        <ele>1846</ele>
        <time>2019-08-18T13:21:21Z</time>
      </trkpt>
      <trkpt lat="45.00878" lon="6.68598">
        <ele>1846</ele>
        <time>2019-08-18T13:22:08Z</time>
      </trkpt>
      <trkpt lat="45.00901" lon="6.68643">
        <ele>1845</ele>
        <time>2019-08-18T13:23:01Z</time>
      </trkpt>
      <trkpt lat="45.00925" lon="6.68689">
        <ele>1846</ele>
        <time>2019-08-18T13:23:55Z</time>
      </trkpt>
      <trkpt lat="45.00939" lon="6.6873">
        <ele>1851</ele>
        <time>2019-08-18T13:24:38Z</time>
      </trkpt>
      <trkpt lat="45.00954" lon="6.6877">
        <ele>1855</ele>
        <time>2019-08-18T13:25:20Z</time>
      </trkpt>
      <trkpt lat="45.00954" lon="6.68801">
        <ele>1856</ele>
        <time>2019-08-18T13:25:50Z</time>
      </trkpt>
      <trkpt lat="45.00952" lon="6.6883">
        <ele>1857</ele>
        <time>2019-08-18T13:26:17Z</time>
      </trkpt>
      <trkpt lat="45.00955" lon="6.68865">
        <ele>1858</ele>
        <time>2019-08-18T13:26:50Z</time>
      </trkpt>
      <trkpt lat="45.00961" lon="6.68902">
        <ele>1859</ele>
        <time>2019-08-18T13:27:26Z</time>
      </trkpt>
      <trkpt lat="45.00971" lon="6.68933">
        <ele>1859</ele>
        <time>2019-08-18T13:27:58Z</time>
      </trkpt>
      <trkpt lat="45.00989" lon="6.68973">
        <ele>1860</ele>
        <time>2019-08-18T13:28:43Z</time>
      </trkpt>
      <trkpt lat="45.01005" lon="6.69009">
        <ele>1861</ele>
        <time>2019-08-18T13:29:23Z</time>
      </trkpt>
      <trkpt lat="45.01014" lon="6.69066">
        <ele>1862</ele>
        <time>2019-08-18T13:30:18Z</time>
      </trkpt>
      <trkpt lat="45.01015" lon="6.69136">
        <ele>1862</ele>
        <time>2019-08-18T13:31:24Z</time>
      </trkpt>
      <trkpt lat="45.01018" lon="6.69198">
        <ele>1865</ele>
        <time>2019-08-18T13:32:23Z</time>
      </trkpt>
      <trkpt lat="45.01008" lon="6.69239">
        <ele>1866</ele>
        <time>2019-08-18T13:33:04Z</time>
      </trkpt>
      <trkpt lat="45.00998" lon="6.6928">
        <ele>1867</ele>
        <time>2019-08-18T13:33:45Z</time>
      </trkpt>
      <trkpt lat="45.01003" lon="6.69342">
        <ele>1871</ele>
        <time>2019-08-18T13:34:44Z</time>
      </trkpt>
      <trkpt lat="45.01017" lon="6.69391">
        <ele>1873</ele>
        <time>2019-08-18T13:35:34Z</time>
      </trkpt>
      <trkpt lat="45.01031" lon="6.6944">
        <ele>1874</ele>
        <time>2019-08-18T13:36:24Z</time>
      </trkpt>
      <trkpt lat="45.01033" lon="6.69508">
        <ele>1876</ele>
        <time>2019-08-18T13:37:28Z</time>
      </trkpt>
      <trkpt lat="45.01034" lon="6.69546">
        <ele>1878</ele>
        <time>2019-08-18T13:38:04Z</time>
      </trkpt>
      <trkpt lat="45.01037" lon="6.69569">
        <ele>1879</ele>
        <time>2019-08-18T13:38:26Z</time>
      </trkpt>
      <trkpt lat="45.01034" lon="6.69587">
        <ele>1880</ele>
        <time>2019-08-18T13:38:43Z</time>
      </trkpt>
      <trkpt lat="45.01007" lon="6.69606">
        <ele>1882</ele>
        <time>2019-08-18T13:39:23Z</time>
      </trkpt>
      <trkpt lat="45.00996" lon="6.69644">
        <ele>1884</ele>
        <time>2019-08-18T13:40:02Z</time>
      </trkpt>
      <trkpt lat="45.00963" lon="6.69674">
        <ele>1894</ele>
        <time>2019-08-18T13:40:54Z</time>
      </trkpt>
      <trkpt lat="45.00931" lon="6.69705">
        <ele>1904</ele>
        <time>2019-08-18T13:41:46Z</time>
      </trkpt>
      <trkpt lat="45.00898" lon="6.69736">
        <ele>1915</ele>
        <time>2019-08-18T13:42:39Z</time>
      </trkpt>
      <trkpt lat="45.00881" lon="6.69773">
        <ele>1918</ele>
        <time>2019-08-18T13:43:21Z</time>
      </trkpt>
      <trkpt lat="45.00865" lon="6.69803">
        <ele>1921</ele>
        <time>2019-08-18T13:43:56Z</time>
      </trkpt>
      <trkpt lat="45.00848" lon="6.69832">
        <ele>1925</ele>
        <time>2019-08-18T13:44:32Z</time>
      </trkpt>
      <trkpt lat="45.00832" lon="6.69855">
        <ele>1928</ele>
        <time>2019-08-18T13:45:02Z</time>
      </trkpt>
      <trkpt lat="45.00808" lon="6.69874">
        <ele>1934</ele>
        <time>2019-08-18T13:45:39Z</time>
      </trkpt>
      <trkpt lat="45.00783" lon="6.69883">
        <ele>1941</ele>
        <time>2019-08-18T13:46:13Z</time>
      </trkpt>
      <trkpt lat="45.00749" lon="6.69917">
        <ele>1947</ele>
        <time>2019-08-18T13:47:09Z</time>
      </trkpt>
      <trkpt lat="45.00716" lon="6.69932">
        <ele>1958</ele>
        <time>2019-08-18T13:47:55Z</time>
      </trkpt>
      <trkpt lat="45.00683" lon="6.69948">
        <ele>1968</ele>
        <time>2019-08-18T13:48:42Z</time>
      </trkpt>
      <trkpt lat="45.00625" lon="6.69992">
        <ele>1976</ele>
        <time>2019-08-18T13:50:09Z</time>
      </trkpt>
      <trkpt lat="45.00596" lon="6.70014">
        <ele>1979</ele>
        <time>2019-08-18T13:50:53Z</time>
      </trkpt>
      <trkpt lat="45.00561" lon="6.70019">
        <ele>1988</ele>
        <time>2019-08-18T13:51:40Z</time>
      </trkpt>
      <trkpt lat="45.00526" lon="6.70024">
        <ele>1997</ele>
        <time>2019-08-18T13:52:27Z</time>
      </trkpt>
      <trkpt lat="45.00472" lon="6.70049">
        <ele>2006</ele>
        <time>2019-08-18T13:53:43Z</time>
      </trkpt>
      <trkpt lat="45.00429" lon="6.70043">
        <ele>2018</ele>
        <time>2019-08-18T13:54:41Z</time>
      </trkpt>
      <trkpt lat="45.00404" lon="6.70066">
        <ele>2021</ele>
        <time>2019-08-18T13:55:21Z</time>
      </trkpt>
      <trkpt lat="45.00388" lon="6.70077">
        <ele>2024</ele>
        <time>2019-08-18T13:55:44Z</time>
      </trkpt>
      <trkpt lat="45.00369" lon="6.70102">
        <ele>2028</ele>
        <time>2019-08-18T13:56:19Z</time>
      </trkpt>
      <trkpt lat="45.00364" lon="6.70117">
        <ele>2028</ele>
        <time>2019-08-18T13:56:35Z</time>
      </trkpt>
      <trkpt lat="45.00298" lon="6.70172">
        <ele>2040</ele>
        <time>2019-08-18T13:58:17Z</time>
      </trkpt>
      <trkpt lat="45.00265" lon="6.70199">
        <ele>2046</ele>
        <time>2019-08-18T13:59:08Z</time>
      </trkpt>
      <trkpt lat="45.0024" lon="6.702">
        <ele>2052</ele>
        <time>2019-08-18T13:59:41Z</time>
      </trkpt>
      <trkpt lat="45.00214" lon="6.7022">
        <ele>2057</ele>
        <time>2019-08-18T14:00:21Z</time>
      </trkpt>
      <trkpt lat="45.00203" lon="6.70236">
        <ele>2057</ele>
        <time>2019-08-18T14:00:42Z</time>
      </trkpt>
      <trkpt lat="45.00201" lon="6.70237">
        <ele>2058</ele>
        <time>2019-08-18T14:00:44Z</time>
      </trkpt>
      <trkpt lat="45.0017" lon="6.70241">
        <ele>2065</ele>
        <time>2019-08-18T14:01:26Z</time>
      </trkpt>
      <trkpt lat="45.00158" lon="6.70272">
        <ele>2067</ele>
        <time>2019-08-18T14:01:59Z</time>
      </trkpt>
      <trkpt lat="45.00119" lon="6.70308">
        <ele>2073</ele>
        <time>2019-08-18T14:03:01Z</time>
      </trkpt>
      <trkpt lat="45.00101" lon="6.70331">
        <ele>2074</ele>
        <time>2019-08-18T14:03:34Z</time>
      </trkpt>
      <trkpt lat="45.0006" lon="6.70344">
        <ele>2081</ele>
        <time>2019-08-18T14:04:30Z</time>
      </trkpt>
      <trkpt lat="45.00041" lon="6.70366">
        <ele>2089</ele>
        <time>2019-08-18T14:05:03Z</time>
      </trkpt>
      <trkpt lat="45.00021" lon="6.70375">
        <ele>2093</ele>
        <time>2019-08-18T14:05:31Z</time>
      </trkpt>
      <trkpt lat="44.99979" lon="6.70389">
        <ele>2101</ele>
        <time>2019-08-18T14:06:28Z</time>
      </trkpt>
      <trkpt lat="44.99937" lon="6.70378">
        <ele>2108</ele>
        <time>2019-08-18T14:07:25Z</time>
      </trkpt>
      <trkpt lat="44.99896" lon="6.70366">
        <ele>2116</ele>
        <time>2019-08-18T14:08:21Z</time>
      </trkpt>
      <trkpt lat="44.99863" lon="6.70397">
        <ele>2126</ele>
        <time>2019-08-18T14:09:14Z</time>
      </trkpt>
      <trkpt lat="44.99831" lon="6.7039">
        <ele>2133</ele>
        <time>2019-08-18T14:09:57Z</time>
      </trkpt>
      <trkpt lat="44.99818" lon="6.70389">
        <ele>2135</ele>
        <time>2019-08-18T14:10:15Z</time>
      </trkpt>
      <trkpt lat="44.99776" lon="6.70375">
        <ele>2140</ele>
        <time>2019-08-18T14:11:12Z</time>
      </trkpt>
      <trkpt lat="44.99743" lon="6.70376">
        <ele>2146</ele>
        <time>2019-08-18T14:11:56Z</time>
      </trkpt>
      <trkpt lat="44.9972" lon="6.70372">
        <ele>2149</ele>
        <time>2019-08-18T14:12:27Z</time>
      </trkpt>
      <trkpt lat="44.9968" lon="6.70383">
        <ele>2156</ele>
        <time>2019-08-18T14:13:22Z</time>
      </trkpt>
      <trkpt lat="44.99637" lon="6.70385">
        <ele>2163</ele>
        <time>2019-08-18T14:14:19Z</time>
      </trkpt>
      <trkpt lat="44.99565" lon="6.70404">
        <ele>2172</ele>
        <time>2019-08-18T14:15:57Z</time>
      </trkpt>
      <trkpt lat="44.99522" lon="6.70401">
        <ele>2179</ele>
        <time>2019-08-18T14:16:54Z</time>
      </trkpt>
      <trkpt lat="44.99462" lon="6.70418">
        <ele>2182</ele>
        <time>2019-08-18T14:18:16Z</time>
      </trkpt>
      <trkpt lat="44.99431" lon="6.70426">
        <ele>2185</ele>
        <time>2019-08-18T14:18:58Z</time>
      </trkpt>
      <trkpt lat="44.99402" lon="6.70448">
        <ele>2190</ele>
        <time>2019-08-18T14:19:42Z</time>
      </trkpt>
      <trkpt lat="44.99296" lon="6.7048">
        <ele>2196</ele>
        <time>2019-08-18T14:22:06Z</time>
      </trkpt>
      <trkpt lat="44.99272" lon="6.70493">
        <ele>2199</ele>
        <time>2019-08-18T14:22:41Z</time>
      </trkpt>
      <trkpt lat="44.99234" lon="6.70502">
        <ele>2202</ele>
        <time>2019-08-18T14:23:32Z</time>
      </trkpt>
      <trkpt lat="44.9921" lon="6.70522">
        <ele>2208</ele>
        <time>2019-08-18T14:24:09Z</time>
      </trkpt>
      <trkpt lat="44.99187" lon="6.70524">
        <ele>2209</ele>
        <time>2019-08-18T14:24:40Z</time>
      </trkpt>
      <trkpt lat="44.99173" lon="6.70528">
        <ele>2211</ele>
        <time>2019-08-18T14:24:59Z</time>
      </trkpt>
      <trkpt lat="44.99137" lon="6.70537">
        <ele>2213</ele>
        <time>2019-08-18T14:25:48Z</time>
      </trkpt>
      <trkpt lat="44.99101" lon="6.70545">
        <ele>2214</ele>
        <time>2019-08-18T14:26:37Z</time>
      </trkpt>
      <trkpt lat="44.99091" lon="6.70553">
        <ele>2215</ele>
        <time>2019-08-18T14:26:52Z</time>
      </trkpt>
      <trkpt lat="44.99047" lon="6.70557">
        <ele>2217</ele>
        <time>2019-08-18T14:27:51Z</time>
      </trkpt>
      <trkpt lat="44.99004" lon="6.70551">
        <ele>2219</ele>
        <time>2019-08-18T14:28:48Z</time>
      </trkpt>
      <trkpt lat="44.9896" lon="6.70545">
        <ele>2224</ele>
        <time>2019-08-18T14:29:47Z</time>
      </trkpt>
      <trkpt lat="44.98916" lon="6.7055">
        <ele>2228</ele>
        <time>2019-08-18T14:30:46Z</time>
      </trkpt>
      <trkpt lat="44.98897" lon="6.7056">
        <ele>2230</ele>
        <time>2019-08-18T14:31:13Z</time>
      </trkpt>
      <trkpt lat="44.98866" lon="6.70562">
        <ele>2234</ele>
        <time>2019-08-18T14:31:55Z</time>
      </trkpt>
      <trkpt lat="44.98835" lon="6.70564">
        <ele>2238</ele>
        <time>2019-08-18T14:32:36Z</time>
      </trkpt>
      <trkpt lat="44.98824" lon="6.70567">
        <ele>2240</ele>
        <time>2019-08-18T14:32:51Z</time>
      </trkpt>
      <trkpt lat="44.98799" lon="6.70586">
        <ele>2244</ele>
        <time>2019-08-18T14:33:29Z</time>
      </trkpt>
      <trkpt lat="44.98771" lon="6.70595">
        <ele>2249</ele>
        <time>2019-08-18T14:34:07Z</time>
      </trkpt>
      <trkpt lat="44.98659" lon="6.70612">
        <ele>2264</ele>
        <time>2019-08-18T14:36:38Z</time>
      </trkpt>
      <trkpt lat="44.98621" lon="6.70618">
        <ele>2267</ele>
        <time>2019-08-18T14:37:29Z</time>
      </trkpt>
      <trkpt lat="44.98578" lon="6.70637">
        <ele>2270</ele>
        <time>2019-08-18T14:38:29Z</time>
      </trkpt>
      <trkpt lat="44.98535" lon="6.70656">
        <ele>2274</ele>
        <time>2019-08-18T14:39:29Z</time>
      </trkpt>
      <trkpt lat="44.98502" lon="6.70664">
        <ele>2278</ele>
        <time>2019-08-18T14:40:14Z</time>
      </trkpt>
      <trkpt lat="44.98468" lon="6.70672">
        <ele>2284</ele>
        <time>2019-08-18T14:41:00Z</time>
      </trkpt>
      <trkpt lat="44.98364" lon="6.70646">
        <ele>2297</ele>
        <time>2019-08-18T14:43:20Z</time>
      </trkpt>
      <trkpt lat="44.98329" lon="6.70637">
        <ele>2301</ele>
        <time>2019-08-18T14:44:08Z</time>
      </trkpt>
      <trkpt lat="44.98248" lon="6.70633">
        <ele>2309</ele>
        <time>2019-08-18T14:45:56Z</time>
      </trkpt>
      <trkpt lat="44.98208" lon="6.70629">
        <ele>2317</ele>
        <time>2019-08-18T14:46:50Z</time>
      </trkpt>
      <trkpt lat="44.98168" lon="6.70624">
        <ele>2325</ele>
        <time>2019-08-18T14:47:43Z</time>
      </trkpt>
      <trkpt lat="44.98154" lon="6.70618">
        <ele>2327</ele>
        <time>2019-08-18T14:48:03Z</time>
      </trkpt>
      <trkpt lat="44.98123" lon="6.70619">
        <ele>2332</ele>
        <time>2019-08-18T14:48:44Z</time>
      </trkpt>
      <trkpt lat="44.98093" lon="6.70621">
        <ele>2337</ele>
        <time>2019-08-18T14:49:24Z</time>
      </trkpt>
      <trkpt lat="44.98062" lon="6.70634">
        <ele>2341</ele>
        <time>2019-08-18T14:50:07Z</time>
      </trkpt>
      <trkpt lat="44.98031" lon="6.70648">
        <ele>2345</ele>
        <time>2019-08-18T14:50:51Z</time>
      </trkpt>
      <trkpt lat="44.98006" lon="6.70663">
        <ele>2347</ele>
        <time>2019-08-18T14:51:27Z</time>
      </trkpt>
      <trkpt lat="44.9798" lon="6.70678">
        <ele>2354</ele>
        <time>2019-08-18T14:52:04Z</time>
      </trkpt>
      <trkpt lat="44.97941" lon="6.70685">
        <ele>2363</ele>
        <time>2019-08-18T14:52:57Z</time>
      </trkpt>
      <trkpt lat="44.97903" lon="6.70693">
        <ele>2371</ele>
        <time>2019-08-18T14:53:48Z</time>
      </trkpt>
      <trkpt lat="44.97865" lon="6.70701">
        <ele>2380</ele>
        <time>2019-08-18T14:54:39Z</time>
      </trkpt>
      <trkpt lat="44.97834" lon="6.70685">
        <ele>2386</ele>
        <time>2019-08-18T14:55:23Z</time>
      </trkpt>
      <trkpt lat="44.97792" lon="6.70683">
        <ele>2398</ele>
        <time>2019-08-18T14:56:20Z</time>
      </trkpt>
      <trkpt lat="44.97754" lon="6.70663">
        <ele>2406</ele>
        <time>2019-08-18T14:57:14Z</time>
      </trkpt>
      <trkpt lat="44.97717" lon="6.70643">
        <ele>2412</ele>
        <time>2019-08-18T14:58:07Z</time>
      </trkpt>
      <trkpt lat="44.97687" lon="6.70637">
        <ele>2418</ele>
        <time>2019-08-18T14:58:47Z</time>
      </trkpt>
      <trkpt lat="44.97656" lon="6.70632">
        <ele>2424</ele>
        <time>2019-08-18T14:59:29Z</time>
      </trkpt>
      <trkpt lat="44.97626" lon="6.70636">
        <ele>2428</ele>
        <time>2019-08-18T15:00:09Z</time>
      </trkpt>
      <trkpt lat="44.97596" lon="6.70639">
        <ele>2433</ele>
        <time>2019-08-18T15:00:49Z</time>
      </trkpt>
      <trkpt lat="44.97585" lon="6.70668">
        <ele>2435</ele>
        <time>2019-08-18T15:01:20Z</time>
      </trkpt>
      <trkpt lat="44.97582" lon="6.70712">
        <ele>2431</ele>
        <time>2019-08-18T15:02:02Z</time>
      </trkpt>
      <trkpt lat="44.97583" lon="6.70739">
        <ele>2430</ele>
        <time>2019-08-18T15:02:27Z</time>
      </trkpt>
      <trkpt lat="44.97595" lon="6.70779">
        <ele>2435</ele>
        <time>2019-08-18T15:03:08Z</time>
      </trkpt>
      <trkpt lat="44.97593" lon="6.70797">
        <ele>2438</ele>
        <time>2019-08-18T15:03:25Z</time>
      </trkpt>
      <trkpt lat="44.97584" lon="6.70828">
        <ele>2443</ele>
        <time>2019-08-18T15:03:57Z</time>
      </trkpt>
      <trkpt lat="44.97575" lon="6.70859">
        <ele>2448</ele>
        <time>2019-08-18T15:04:29Z</time>
      </trkpt>
      <trkpt lat="44.97556" lon="6.70881">
        <ele>2450</ele>
        <time>2019-08-18T15:05:02Z</time>
      </trkpt>
      <trkpt lat="44.9752" lon="6.70905">
        <ele>2452</ele>
        <time>2019-08-18T15:05:55Z</time>
      </trkpt>
      <trkpt lat="44.97454" lon="6.70918">
        <ele>2448</ele>
        <time>2019-08-18T15:07:24Z</time>
      </trkpt>
      <trkpt lat="44.97437" lon="6.70915">
        <ele>2445</ele>
        <time>2019-08-18T15:07:46Z</time>
      </trkpt>
      <trkpt lat="44.97399" lon="6.70927">
        <ele>2444</ele>
        <time>2019-08-18T15:08:38Z</time>
      </trkpt>
      <trkpt lat="44.97365" lon="6.70946">
        <ele>2445</ele>
        <time>2019-08-18T15:09:27Z</time>
      </trkpt>
      <trkpt lat="44.97331" lon="6.70964">
        <ele>2445</ele>
        <time>2019-08-18T15:10:16Z</time>
      </trkpt>
      <trkpt lat="44.97307" lon="6.70997">
        <ele>2446</ele>
        <time>2019-08-18T15:11:00Z</time>
      </trkpt>
      <trkpt lat="44.97294" lon="6.71027">
        <ele>2447</ele>
        <time>2019-08-18T15:11:34Z</time>
      </trkpt>
      <trkpt lat="44.97229" lon="6.71083">
        <ele>2441</ele>
        <time>2019-08-18T15:13:15Z</time>
      </trkpt>
      <trkpt lat="44.97219" lon="6.711">
        <ele>2442</ele>
        <time>2019-08-18T15:13:36Z</time>
      </trkpt>
      <trkpt lat="44.97183" lon="6.71129">
        <ele>2441</ele>
        <time>2019-08-18T15:14:31Z</time>
      </trkpt>
      <trkpt lat="44.97156" lon="6.7114">
        <ele>2441</ele>
        <time>2019-08-18T15:15:09Z</time>
      </trkpt>
      <trkpt lat="44.97126" lon="6.71161">
        <ele>2442</ele>
        <time>2019-08-18T15:15:53Z</time>
      </trkpt>
      <trkpt lat="44.9711" lon="6.71185">
        <ele>2444</ele>
        <time>2019-08-18T15:16:25Z</time>
      </trkpt>
      <trkpt lat="44.97088" lon="6.71198">
        <ele>2445</ele>
        <time>2019-08-18T15:16:56Z</time>
      </trkpt>
      <trkpt lat="44.97065" lon="6.71212">
        <ele>2446</ele>
        <time>2019-08-18T15:17:30Z</time>
      </trkpt>
      <trkpt lat="44.9704" lon="6.71238">
        <ele>2450</ele>
        <time>2019-08-18T15:18:11Z</time>
      </trkpt>
      <trkpt lat="44.97014" lon="6.71264">
        <ele>2456</ele>
        <time>2019-08-18T15:18:54Z</time>
      </trkpt>
      <trkpt lat="44.96991" lon="6.71269">
        <ele>2456</ele>
        <time>2019-08-18T15:19:25Z</time>
      </trkpt>
      <trkpt lat="44.96968" lon="6.71275">
        <ele>2456</ele>
        <time>2019-08-18T15:19:56Z</time>
      </trkpt>
      <trkpt lat="44.96959" lon="6.71284">
        <ele>2458</ele>
        <time>2019-08-18T15:20:11Z</time>
      </trkpt>
      <trkpt lat="44.9696" lon="6.71319">
        <ele>2467</ele>
        <time>2019-08-18T15:20:44Z</time>
      </trkpt>
      <trkpt lat="44.9694" lon="6.71374">
        <ele>2481</ele>
        <time>2019-08-18T15:21:42Z</time>
      </trkpt>
      <trkpt lat="44.9692" lon="6.71429">
        <ele>2496</ele>
        <time>2019-08-18T15:22:41Z</time>
      </trkpt>
      <trkpt lat="44.96902" lon="6.71462">
        <ele>2504</ele>
        <time>2019-08-18T15:23:20Z</time>
      </trkpt>
      <trkpt lat="44.96884" lon="6.71494">
        <ele>2511</ele>
        <time>2019-08-18T15:23:58Z</time>
      </trkpt>
      <trkpt lat="44.96852" lon="6.71533">
        <ele>2509</ele>
        <time>2019-08-18T15:24:55Z</time>
      </trkpt>
      <trkpt lat="44.96819" lon="6.71572">
        <ele>2511</ele>
        <time>2019-08-18T15:25:52Z</time>
      </trkpt>
      <trkpt lat="44.96823" lon="6.71593">
        <ele>2509</ele>
        <time>2019-08-18T15:26:13Z</time>
      </trkpt>
      <trkpt lat="44.96819" lon="6.71597">
        <ele>2508</ele>
        <time>2019-08-18T15:26:19Z</time>
      </trkpt>
      <trkpt lat="44.96841" lon="6.71633">
        <ele>2499</ele>
        <time>2019-08-18T15:27:04Z</time>
      </trkpt>
      <trkpt lat="44.96863" lon="6.71669">
        <ele>2497</ele>
        <time>2019-08-18T15:27:49Z</time>
      </trkpt>
      <trkpt lat="44.96943" lon="6.71852">
        <ele>2466</ele>
        <time>2019-08-18T15:31:12Z</time>
      </trkpt>
      <trkpt lat="44.96963" lon="6.71898">
        <ele>2460</ele>
        <time>2019-08-18T15:32:03Z</time>
      </trkpt>
      <trkpt lat="44.96958" lon="6.71933">
        <ele>2452</ele>
        <time>2019-08-18T15:32:37Z</time>
      </trkpt>
      <trkpt lat="44.96936" lon="6.71975">
        <ele>2441</ele>
        <time>2019-08-18T15:33:26Z</time>
      </trkpt>
      <trkpt lat="44.96951" lon="6.72091">
        <ele>2428</ele>
        <time>2019-08-18T15:35:18Z</time>
      </trkpt>
      <trkpt lat="44.96949" lon="6.72125">
        <ele>2425</ele>
        <time>2019-08-18T15:35:50Z</time>
      </trkpt>
      <trkpt lat="44.9694" lon="6.72159">
        <ele>2421</ele>
        <time>2019-08-18T15:36:24Z</time>
      </trkpt>
      <trkpt lat="44.96923" lon="6.72188">
        <ele>2418</ele>
        <time>2019-08-18T15:37:00Z</time>
      </trkpt>
      <trkpt lat="44.96907" lon="6.72218">
        <ele>2417</ele>
        <time>2019-08-18T15:37:35Z</time>
      </trkpt>
      <trkpt lat="44.96837" lon="6.72231">
        <ele>2408</ele>
        <time>2019-08-18T15:39:09Z</time>
      </trkpt>
      <trkpt lat="44.96802" lon="6.72237">
        <ele>2403</ele>
        <time>2019-08-18T15:39:56Z</time>
      </trkpt>
      <trkpt lat="44.96773" lon="6.72239">
        <ele>2398</ele>
        <time>2019-08-18T15:40:35Z</time>
      </trkpt>
      <trkpt lat="44.96744" lon="6.72241">
        <ele>2393</ele>
        <time>2019-08-18T15:41:14Z</time>
      </trkpt>
      <trkpt lat="44.96701" lon="6.72254">
        <ele>2386</ele>
        <time>2019-08-18T15:42:13Z</time>
      </trkpt>
      <trkpt lat="44.96676" lon="6.72276">
        <ele>2384</ele>
        <time>2019-08-18T15:42:52Z</time>
      </trkpt>
      <trkpt lat="44.96647" lon="6.72287">
        <ele>2379</ele>
        <time>2019-08-18T15:43:32Z</time>
      </trkpt>
      <trkpt lat="44.96619" lon="6.72292">
        <ele>2373</ele>
        <time>2019-08-18T15:44:10Z</time>
      </trkpt>
      <trkpt lat="44.96592" lon="6.72298">
        <ele>2367</ele>
        <time>2019-08-18T15:44:46Z</time>
      </trkpt>
      <trkpt lat="44.96558" lon="6.72311">
        <ele>2360</ele>
        <time>2019-08-18T15:45:33Z</time>
      </trkpt>
      <trkpt lat="44.96537" lon="6.72323">
        <ele>2355</ele>
        <time>2019-08-18T15:46:03Z</time>
      </trkpt>
      <trkpt lat="44.96516" lon="6.72335">
        <ele>2350</ele>
        <time>2019-08-18T15:46:34Z</time>
      </trkpt>
      <trkpt lat="44.96489" lon="6.72335">
        <ele>2345</ele>
        <time>2019-08-18T15:47:10Z</time>
      </trkpt>
      <trkpt lat="44.96461" lon="6.72346">
        <ele>2341</ele>
        <time>2019-08-18T15:47:48Z</time>
      </trkpt>
      <trkpt lat="44.96431" lon="6.72366">
        <ele>2336</ele>
        <time>2019-08-18T15:48:33Z</time>
      </trkpt>
      <trkpt lat="44.96408" lon="6.72374">
        <ele>2332</ele>
        <time>2019-08-18T15:49:04Z</time>
      </trkpt>
      <trkpt lat="44.96379" lon="6.7238">
        <ele>2329</ele>
        <time>2019-08-18T15:49:43Z</time>
      </trkpt>
      <trkpt lat="44.9636" lon="6.72395">
        <ele>2326</ele>
        <time>2019-08-18T15:50:12Z</time>
      </trkpt>
      <trkpt lat="44.96343" lon="6.72419">
        <ele>2322</ele>
        <time>2019-08-18T15:50:44Z</time>
      </trkpt>
      <trkpt lat="44.96327" lon="6.72444">
        <ele>2315</ele>
        <time>2019-08-18T15:51:16Z</time>
      </trkpt>
      <trkpt lat="44.96307" lon="6.72461">
        <ele>2308</ele>
        <time>2019-08-18T15:51:47Z</time>
      </trkpt>
      <trkpt lat="44.96287" lon="6.72479">
        <ele>2302</ele>
        <time>2019-08-18T15:52:19Z</time>
      </trkpt>
      <trkpt lat="44.96275" lon="6.72482">
        <ele>2299</ele>
        <time>2019-08-18T15:52:35Z</time>
      </trkpt>
      <trkpt lat="44.96256" lon="6.72482">
        <ele>2296</ele>
        <time>2019-08-18T15:53:01Z</time>
      </trkpt>
      <trkpt lat="44.96238" lon="6.72483">
        <ele>2292</ele>
        <time>2019-08-18T15:53:25Z</time>
      </trkpt>
      <trkpt lat="44.96223" lon="6.72493">
        <ele>2287</ele>
        <time>2019-08-18T15:53:47Z</time>
      </trkpt>
      <trkpt lat="44.96203" lon="6.72497">
        <ele>2283</ele>
        <time>2019-08-18T15:54:14Z</time>
      </trkpt>
      <trkpt lat="44.96162" lon="6.72511">
        <ele>2275</ele>
        <time>2019-08-18T15:55:10Z</time>
      </trkpt>
      <trkpt lat="44.96121" lon="6.72526">
        <ele>2270</ele>
        <time>2019-08-18T15:56:07Z</time>
      </trkpt>
      <trkpt lat="44.96112" lon="6.72546">
        <ele>2269</ele>
        <time>2019-08-18T15:56:29Z</time>
      </trkpt>
      <trkpt lat="44.96096" lon="6.72568">
        <ele>2267</ele>
        <time>2019-08-18T15:56:59Z</time>
      </trkpt>
      <trkpt lat="44.96078" lon="6.72588">
        <ele>2266</ele>
        <time>2019-08-18T15:57:29Z</time>
      </trkpt>
      <trkpt lat="44.9606" lon="6.72608">
        <ele>2265</ele>
        <time>2019-08-18T15:58:00Z</time>
      </trkpt>
      <trkpt lat="44.96057" lon="6.72618">
        <ele>2265</ele>
        <time>2019-08-18T15:58:10Z</time>
      </trkpt>
      <trkpt lat="44.96052" lon="6.72649">
        <ele>2263</ele>
        <time>2019-08-18T15:58:40Z</time>
      </trkpt>
      <trkpt lat="44.96048" lon="6.72685">
        <ele>2260</ele>
        <time>2019-08-18T15:59:15Z</time>
      </trkpt>
      <trkpt lat="44.96045" lon="6.72695">
        <ele>2259</ele>
        <time>2019-08-18T15:59:25Z</time>
      </trkpt>
      <trkpt lat="44.96033" lon="6.72722">
        <ele>2256</ele>
        <time>2019-08-18T15:59:55Z</time>
      </trkpt>
      <trkpt lat="44.96018" lon="6.7275">
        <ele>2253</ele>
        <time>2019-08-18T16:00:28Z</time>
      </trkpt>
      <trkpt lat="44.96007" lon="6.7276">
        <ele>2251</ele>
        <time>2019-08-18T16:00:46Z</time>
      </trkpt>
      <trkpt lat="44.95996" lon="6.72783">
        <ele>2247</ele>
        <time>2019-08-18T16:01:12Z</time>
      </trkpt>
      <trkpt lat="44.95986" lon="6.72797">
        <ele>2245</ele>
        <time>2019-08-18T16:01:31Z</time>
      </trkpt>
      <trkpt lat="44.9597" lon="6.72808">
        <ele>2244</ele>
        <time>2019-08-18T16:01:54Z</time>
      </trkpt>
      <trkpt lat="44.95964" lon="6.72817">
        <ele>2243</ele>
        <time>2019-08-18T16:02:06Z</time>
      </trkpt>
      <trkpt lat="44.95958" lon="6.72822">
        <ele>2242</ele>
        <time>2019-08-18T16:02:15Z</time>
      </trkpt>
      <trkpt lat="44.95953" lon="6.72829">
        <ele>2242</ele>
        <time>2019-08-18T16:02:25Z</time>
      </trkpt>
      <trkpt lat="44.95944" lon="6.72845">
        <ele>2240</ele>
        <time>2019-08-18T16:02:44Z</time>
      </trkpt>
      <trkpt lat="44.9594" lon="6.72852">
        <ele>2239</ele>
        <time>2019-08-18T16:02:52Z</time>
      </trkpt>
      <trkpt lat="44.95933" lon="6.72857">
        <ele>2238</ele>
        <time>2019-08-18T16:03:03Z</time>
      </trkpt>
      <trkpt lat="44.95929" lon="6.72863">
        <ele>2238</ele>
        <time>2019-08-18T16:03:11Z</time>
      </trkpt>
      <trkpt lat="44.95924" lon="6.72871">
        <ele>2237</ele>
        <time>2019-08-18T16:03:21Z</time>
      </trkpt>
      <trkpt lat="44.95919" lon="6.72876">
        <ele>2236</ele>
        <time>2019-08-18T16:03:29Z</time>
      </trkpt>
      <trkpt lat="44.95912" lon="6.72885">
        <ele>2234</ele>
        <time>2019-08-18T16:03:42Z</time>
      </trkpt>
      <trkpt lat="44.959" lon="6.72891">
        <ele>2233</ele>
        <time>2019-08-18T16:03:59Z</time>
      </trkpt>
      <trkpt lat="44.95883" lon="6.72893">
        <ele>2232</ele>
        <time>2019-08-18T16:04:21Z</time>
      </trkpt>
      <trkpt lat="44.95872" lon="6.72899">
        <ele>2230</ele>
        <time>2019-08-18T16:04:37Z</time>
      </trkpt>
      <trkpt lat="44.95865" lon="6.72897">
        <ele>2230</ele>
        <time>2019-08-18T16:04:47Z</time>
      </trkpt>
      <trkpt lat="44.95859" lon="6.72896">
        <ele>2230</ele>
        <time>2019-08-18T16:04:55Z</time>
      </trkpt>
      <trkpt lat="44.95854" lon="6.729">
        <ele>2229</ele>
        <time>2019-08-18T16:05:02Z</time>
      </trkpt>
      <trkpt lat="44.95847" lon="6.72914">
        <ele>2225</ele>
        <time>2019-08-18T16:05:19Z</time>
      </trkpt>
      <trkpt lat="44.95824" lon="6.72928">
        <ele>2222</ele>
        <time>2019-08-18T16:05:52Z</time>
      </trkpt>
      <trkpt lat="44.95802" lon="6.72942">
        <ele>2219</ele>
        <time>2019-08-18T16:06:24Z</time>
      </trkpt>
      <trkpt lat="44.95781" lon="6.72981">
        <ele>2209</ele>
        <time>2019-08-18T16:07:10Z</time>
      </trkpt>
      <trkpt lat="44.95776" lon="6.73003">
        <ele>2204</ele>
        <time>2019-08-18T16:07:32Z</time>
      </trkpt>
      <trkpt lat="44.95779" lon="6.7303">
        <ele>2197</ele>
        <time>2019-08-18T16:07:58Z</time>
      </trkpt>
      <trkpt lat="44.95785" lon="6.73052">
        <ele>2192</ele>
        <time>2019-08-18T16:08:20Z</time>
      </trkpt>
      <trkpt lat="44.95793" lon="6.73077">
        <ele>2187</ele>
        <time>2019-08-18T16:08:46Z</time>
      </trkpt>
      <trkpt lat="44.95793" lon="6.73082">
        <ele>2185</ele>
        <time>2019-08-18T16:08:51Z</time>
      </trkpt>
      <trkpt lat="44.95783" lon="6.73092">
        <ele>2182</ele>
        <time>2019-08-18T16:09:07Z</time>
      </trkpt>
      <trkpt lat="44.95751" lon="6.73115">
        <ele>2174</ele>
        <time>2019-08-18T16:09:55Z</time>
      </trkpt>
      <trkpt lat="44.9573" lon="6.73153">
        <ele>2164</ele>
        <time>2019-08-18T16:10:41Z</time>
      </trkpt>
      <trkpt lat="44.95708" lon="6.73192">
        <ele>2155</ele>
        <time>2019-08-18T16:11:28Z</time>
      </trkpt>
      <trkpt lat="44.95675" lon="6.73205">
        <ele>2150</ele>
        <time>2019-08-18T16:12:14Z</time>
      </trkpt>
      <trkpt lat="44.95642" lon="6.73218">
        <ele>2147</ele>
        <time>2019-08-18T16:12:59Z</time>
      </trkpt>
      <trkpt lat="44.95603" lon="6.73262">
        <ele>2135</ele>
        <time>2019-08-18T16:14:06Z</time>
      </trkpt>
      <trkpt lat="44.95572" lon="6.73291">
        <ele>2130</ele>
        <time>2019-08-18T16:14:55Z</time>
      </trkpt>
      <trkpt lat="44.95538" lon="6.73294">
        <ele>2128</ele>
        <time>2019-08-18T16:15:41Z</time>
      </trkpt>
      <trkpt lat="44.95518" lon="6.73309">
        <ele>2124</ele>
        <time>2019-08-18T16:16:11Z</time>
      </trkpt>
      <trkpt lat="44.95488" lon="6.73345">
        <ele>2115</ele>
        <time>2019-08-18T16:17:04Z</time>
      </trkpt>
      <trkpt lat="44.95457" lon="6.7338">
        <ele>2108</ele>
        <time>2019-08-18T16:17:57Z</time>
      </trkpt>
      <trkpt lat="44.95427" lon="6.73416">
        <ele>2093</ele>
        <time>2019-08-18T16:18:49Z</time>
      </trkpt>
      <trkpt lat="44.95421" lon="6.73427">
        <ele>2089</ele>
        <time>2019-08-18T16:19:02Z</time>
      </trkpt>
      <trkpt lat="44.95412" lon="6.73446">
        <ele>2084</ele>
        <time>2019-08-18T16:19:24Z</time>
      </trkpt>
      <trkpt lat="44.95393" lon="6.73469">
        <ele>2077</ele>
        <time>2019-08-18T16:19:57Z</time>
      </trkpt>
      <trkpt lat="44.95379" lon="6.7349">
        <ele>2071</ele>
        <time>2019-08-18T16:20:24Z</time>
      </trkpt>
      <trkpt lat="44.95369" lon="6.73511">
        <ele>2065</ele>
        <time>2019-08-18T16:20:48Z</time>
      </trkpt>
      <trkpt lat="44.95364" lon="6.73521">
        <ele>2062</ele>
        <time>2019-08-18T16:21:00Z</time>
      </trkpt>
      <trkpt lat="44.95302" lon="6.73552">
        <ele>2052</ele>
        <time>2019-08-18T16:22:28Z</time>
      </trkpt>
      <trkpt lat="44.9528" lon="6.73555">
        <ele>2051</ele>
        <time>2019-08-18T16:22:57Z</time>
      </trkpt>
      <trkpt lat="44.95249" lon="6.73573">
        <ele>2046</ele>
        <time>2019-08-18T16:23:42Z</time>
      </trkpt>
      <trkpt lat="44.95227" lon="6.73584">
        <ele>2042</ele>
        <time>2019-08-18T16:24:13Z</time>
      </trkpt>
      <trkpt lat="44.95213" lon="6.73585">
        <ele>2042</ele>
        <time>2019-08-18T16:24:32Z</time>
      </trkpt>
      <trkpt lat="44.95201" lon="6.73581">
        <ele>2044</ele>
        <time>2019-08-18T16:24:48Z</time>
      </trkpt>
      <trkpt lat="44.95183" lon="6.73573">
        <ele>2047</ele>
        <time>2019-08-18T16:25:13Z</time>
      </trkpt>
      <trkpt lat="44.95138" lon="6.73572">
        <ele>2048</ele>
        <time>2019-08-18T16:26:13Z</time>
      </trkpt>
      <trkpt lat="44.95115" lon="6.73592">
        <ele>2039</ele>
        <time>2019-08-18T16:26:50Z</time>
      </trkpt>
      <trkpt lat="44.95086" lon="6.73606">
        <ele>2033</ele>
        <time>2019-08-18T16:27:30Z</time>
      </trkpt>
      <trkpt lat="44.95067" lon="6.73626">
        <ele>2026</ele>
        <time>2019-08-18T16:28:02Z</time>
      </trkpt>
      <trkpt lat="44.95044" lon="6.73661">
        <ele>2013</ele>
        <time>2019-08-18T16:28:47Z</time>
      </trkpt>
      <trkpt lat="44.95025" lon="6.73679">
        <ele>2009</ele>
        <time>2019-08-18T16:29:18Z</time>
      </trkpt>
      <trkpt lat="44.95007" lon="6.73698">
        <ele>2004</ele>
        <time>2019-08-18T16:29:48Z</time>
      </trkpt>
      <trkpt lat="44.94972" lon="6.73712">
        <ele>1999</ele>
        <time>2019-08-18T16:30:36Z</time>
      </trkpt>
      <trkpt lat="44.94949" lon="6.73728">
        <ele>1994</ele>
        <time>2019-08-18T16:31:10Z</time>
      </trkpt>
      <trkpt lat="44.94928" lon="6.7374">
        <ele>1990</ele>
        <time>2019-08-18T16:31:41Z</time>
      </trkpt>
      <trkpt lat="44.94907" lon="6.73753">
        <ele>1986</ele>
        <time>2019-08-18T16:32:11Z</time>
      </trkpt>
      <trkpt lat="44.94898" lon="6.73753">
        <ele>1985</ele>
        <time>2019-08-18T16:32:23Z</time>
      </trkpt>
      <trkpt lat="44.94884" lon="6.73752">
        <ele>1985</ele>
        <time>2019-08-18T16:32:42Z</time>
      </trkpt>
      <trkpt lat="44.9486" lon="6.73758">
        <ele>1982</ele>
        <time>2019-08-18T16:33:14Z</time>
      </trkpt>
      <trkpt lat="44.94843" lon="6.73759">
        <ele>1981</ele>
        <time>2019-08-18T16:33:37Z</time>
      </trkpt>
      <trkpt lat="44.9482" lon="6.73766">
        <ele>1978</ele>
        <time>2019-08-18T16:34:09Z</time>
      </trkpt>
      <trkpt lat="44.94809" lon="6.73768">
        <ele>1977</ele>
        <time>2019-08-18T16:34:23Z</time>
      </trkpt>
      <trkpt lat="44.94789" lon="6.73765">
        <ele>1976</ele>
        <time>2019-08-18T16:34:50Z</time>
      </trkpt>
      <trkpt lat="44.94769" lon="6.73762">
        <ele>1975</ele>
        <time>2019-08-18T16:35:17Z</time>
      </trkpt>
      <trkpt lat="44.94749" lon="6.73765">
        <ele>1973</ele>
        <time>2019-08-18T16:35:44Z</time>
      </trkpt>
      <trkpt lat="44.94736" lon="6.73763">
        <ele>1973</ele>
        <time>2019-08-18T16:36:01Z</time>
      </trkpt>
      <trkpt lat="44.94698" lon="6.73768">
        <ele>1970</ele>
        <time>2019-08-18T16:36:52Z</time>
      </trkpt>
      <trkpt lat="44.94684" lon="6.73775">
        <ele>1967</ele>
        <time>2019-08-18T16:37:12Z</time>
      </trkpt>
      <trkpt lat="44.94676" lon="6.73778">
        <ele>1966</ele>
        <time>2019-08-18T16:37:23Z</time>
      </trkpt>
      <trkpt lat="44.94668" lon="6.73778">
        <ele>1966</ele>
        <time>2019-08-18T16:37:34Z</time>
      </trkpt>
      <trkpt lat="44.94661" lon="6.73782">
        <ele>1965</ele>
        <time>2019-08-18T16:37:44Z</time>
      </trkpt>
      <trkpt lat="44.94634" lon="6.73789">
        <ele>1964</ele>
        <time>2019-08-18T16:38:20Z</time>
      </trkpt>
      <trkpt lat="44.94609" lon="6.73798">
        <ele>1962</ele>
        <time>2019-08-18T16:38:55Z</time>
      </trkpt>
      <trkpt lat="44.94579" lon="6.73815">
        <ele>1958</ele>
        <time>2019-08-18T16:39:38Z</time>
      </trkpt>
      <trkpt lat="44.94557" lon="6.73829">
        <ele>1957</ele>
        <time>2019-08-18T16:40:10Z</time>
      </trkpt>
      <trkpt lat="44.94546" lon="6.73834">
        <ele>1957</ele>
        <time>2019-08-18T16:40:26Z</time>
      </trkpt>
      <trkpt lat="44.94532" lon="6.73844">
        <ele>1955</ele>
        <time>2019-08-18T16:40:47Z</time>
      </trkpt>
      <trkpt lat="44.94522" lon="6.73852">
        <ele>1954</ele>
        <time>2019-08-18T16:41:02Z</time>
      </trkpt>
      <trkpt lat="44.94485" lon="6.73858">
        <ele>1955</ele>
        <time>2019-08-18T16:41:52Z</time>
      </trkpt>
      <trkpt lat="44.94453" lon="6.73867">
        <ele>1954</ele>
        <time>2019-08-18T16:42:35Z</time>
      </trkpt>
      <trkpt lat="44.94429" lon="6.73872">
        <ele>1954</ele>
        <time>2019-08-18T16:43:08Z</time>
      </trkpt>
      <trkpt lat="44.94412" lon="6.73882">
        <ele>1953</ele>
        <time>2019-08-18T16:43:32Z</time>
      </trkpt>
      <trkpt lat="44.94404" lon="6.73884">
        <ele>1952</ele>
        <time>2019-08-18T16:43:43Z</time>
      </trkpt>
      <trkpt lat="44.94389" lon="6.73885">
        <ele>1952</ele>
        <time>2019-08-18T16:44:03Z</time>
      </trkpt>
      <trkpt lat="44.94354" lon="6.73906">
        <ele>1950</ele>
        <time>2019-08-18T16:44:54Z</time>
      </trkpt>
      <trkpt lat="44.9434" lon="6.73913">
        <ele>1949</ele>
        <time>2019-08-18T16:45:14Z</time>
      </trkpt>
      <trkpt lat="44.94321" lon="6.73916">
        <ele>1948</ele>
        <time>2019-08-18T16:45:39Z</time>
      </trkpt>
      <trkpt lat="44.94307" lon="6.73911">
        <ele>1948</ele>
        <time>2019-08-18T16:45:58Z</time>
      </trkpt>
      <trkpt lat="44.94297" lon="6.73909">
        <ele>1948</ele>
        <time>2019-08-18T16:46:12Z</time>
      </trkpt>
      <trkpt lat="44.94289" lon="6.73911">
        <ele>1947</ele>
        <time>2019-08-18T16:46:23Z</time>
      </trkpt>
      <trkpt lat="44.94285" lon="6.73911">
        <ele>1947</ele>
        <time>2019-08-18T16:46:28Z</time>
      </trkpt>
      <trkpt lat="44.9427" lon="6.73919">
        <ele>1945</ele>
        <time>2019-08-18T16:46:49Z</time>
      </trkpt>
      <trkpt lat="44.94251" lon="6.7393">
        <ele>1942</ele>
        <time>2019-08-18T16:47:17Z</time>
      </trkpt>
      <trkpt lat="44.94242" lon="6.73933">
        <ele>1940</ele>
        <time>2019-08-18T16:47:29Z</time>
      </trkpt>
      <trkpt lat="44.94227" lon="6.73934">
        <ele>1939</ele>
        <time>2019-08-18T16:47:49Z</time>
      </trkpt>
      <trkpt lat="44.94218" lon="6.73941">
        <ele>1937</ele>
        <time>2019-08-18T16:48:03Z</time>
      </trkpt>
      <trkpt lat="44.94206" lon="6.73956">
        <ele>1933</ele>
        <time>2019-08-18T16:48:24Z</time>
      </trkpt>
      <trkpt lat="44.94195" lon="6.73965">
        <ele>1931</ele>
        <time>2019-08-18T16:48:41Z</time>
      </trkpt>
      <trkpt lat="44.94184" lon="6.73965">
        <ele>1931</ele>
        <time>2019-08-18T16:48:56Z</time>
      </trkpt>
      <trkpt lat="44.94162" lon="6.73968">
        <ele>1929</ele>
        <time>2019-08-18T16:49:25Z</time>
      </trkpt>
      <trkpt lat="44.94132" lon="6.73968">
        <ele>1925</ele>
        <time>2019-08-18T16:50:05Z</time>
      </trkpt>
      <trkpt lat="44.94101" lon="6.73969">
        <ele>1921</ele>
        <time>2019-08-18T16:50:47Z</time>
      </trkpt>
      <trkpt lat="44.94085" lon="6.73971">
        <ele>1919</ele>
        <time>2019-08-18T16:51:08Z</time>
      </trkpt>
      <trkpt lat="44.94076" lon="6.73973">
        <ele>1918</ele>
        <time>2019-08-18T16:51:20Z</time>
      </trkpt>
      <trkpt lat="44.94068" lon="6.73973">
        <ele>1917</ele>
        <time>2019-08-18T16:51:31Z</time>
      </trkpt>
      <trkpt lat="44.94063" lon="6.73968">
        <ele>1918</ele>
        <time>2019-08-18T16:51:39Z</time>
      </trkpt>
      <trkpt lat="44.94057" lon="6.73949">
        <ele>1921</ele>
        <time>2019-08-18T16:51:59Z</time>
      </trkpt>
      <trkpt lat="44.94052" lon="6.73945">
        <ele>1921</ele>
        <time>2019-08-18T16:52:07Z</time>
      </trkpt>
      <trkpt lat="44.94047" lon="6.73943">
        <ele>1921</ele>
        <time>2019-08-18T16:52:14Z</time>
      </trkpt>
      <trkpt lat="44.94038" lon="6.73941">
        <ele>1922</ele>
        <time>2019-08-18T16:52:26Z</time>
      </trkpt>
      <trkpt lat="44.94025" lon="6.73945">
        <ele>1920</ele>
        <time>2019-08-18T16:52:43Z</time>
      </trkpt>
      <trkpt lat="44.94003" lon="6.73968">
        <ele>1914</ele>
        <time>2019-08-18T16:53:20Z</time>
      </trkpt>
      <trkpt lat="44.93994" lon="6.73978">
        <ele>1911</ele>
        <time>2019-08-18T16:53:35Z</time>
      </trkpt>
      <trkpt lat="44.93988" lon="6.7398">
        <ele>1911</ele>
        <time>2019-08-18T16:53:43Z</time>
      </trkpt>
      <trkpt lat="44.93984" lon="6.73981">
        <ele>1911</ele>
        <time>2019-08-18T16:53:49Z</time>
      </trkpt>
      <trkpt lat="44.93977" lon="6.73979">
        <ele>1911</ele>
        <time>2019-08-18T16:53:58Z</time>
      </trkpt>
      <trkpt lat="44.93972" lon="6.7398">
        <ele>1911</ele>
        <time>2019-08-18T16:54:05Z</time>
      </trkpt>
      <trkpt lat="44.93966" lon="6.73983">
        <ele>1910</ele>
        <time>2019-08-18T16:54:14Z</time>
      </trkpt>
      <trkpt lat="44.93945" lon="6.74011">
        <ele>1902</ele>
        <time>2019-08-18T16:54:52Z</time>
      </trkpt>
      <trkpt lat="44.93941" lon="6.74014">
        <ele>1901</ele>
        <time>2019-08-18T16:54:58Z</time>
      </trkpt>
      <trkpt lat="44.93937" lon="6.74016">
        <ele>1900</ele>
        <time>2019-08-18T16:55:04Z</time>
      </trkpt>
      <trkpt lat="44.93932" lon="6.74016">
        <ele>1900</ele>
        <time>2019-08-18T16:55:11Z</time>
      </trkpt>
      <trkpt lat="44.93918" lon="6.74009">
        <ele>1902</ele>
        <time>2019-08-18T16:55:30Z</time>
      </trkpt>
      <trkpt lat="44.93898" lon="6.73992">
        <ele>1906</ele>
        <time>2019-08-18T16:56:02Z</time>
      </trkpt>
      <trkpt lat="44.93875" lon="6.73982">
        <ele>1909</ele>
        <time>2019-08-18T16:56:34Z</time>
      </trkpt>
      <trkpt lat="44.93862" lon="6.73981">
        <ele>1909</ele>
        <time>2019-08-18T16:56:51Z</time>
      </trkpt>
      <trkpt lat="44.93853" lon="6.73983">
        <ele>1908</ele>
        <time>2019-08-18T16:57:03Z</time>
      </trkpt>
      <trkpt lat="44.93832" lon="6.73989">
        <ele>1905</ele>
        <time>2019-08-18T16:57:32Z</time>
      </trkpt>
      <trkpt lat="44.93807" lon="6.74001">
        <ele>1903</ele>
        <time>2019-08-18T16:58:07Z</time>
      </trkpt>
      <trkpt lat="44.93785" lon="6.74015">
        <ele>1901</ele>
        <time>2019-08-18T16:58:39Z</time>
      </trkpt>
      <trkpt lat="44.93762" lon="6.74029">
        <ele>1899</ele>
        <time>2019-08-18T16:59:13Z</time>
      </trkpt>
      <trkpt lat="44.93744" lon="6.74045">
        <ele>1893</ele>
        <time>2019-08-18T16:59:41Z</time>
      </trkpt>
      <trkpt lat="44.93727" lon="6.74064">
        <ele>1884</ele>
        <time>2019-08-18T17:00:10Z</time>
      </trkpt>
      <trkpt lat="44.93699" lon="6.74079">
        <ele>1876</ele>
        <time>2019-08-18T17:00:50Z</time>
      </trkpt>
      <trkpt lat="44.93691" lon="6.74081">
        <ele>1874</ele>
        <time>2019-08-18T17:01:01Z</time>
      </trkpt>
      <trkpt lat="44.93683" lon="6.74078">
        <ele>1874</ele>
        <time>2019-08-18T17:01:12Z</time>
      </trkpt>
      <trkpt lat="44.93676" lon="6.74073">
        <ele>1875</ele>
        <time>2019-08-18T17:01:22Z</time>
      </trkpt>
      <trkpt lat="44.93669" lon="6.74062">
        <ele>1877</ele>
        <time>2019-08-18T17:01:36Z</time>
      </trkpt>
      <trkpt lat="44.93657" lon="6.74032">
        <ele>1880</ele>
        <time>2019-08-18T17:02:09Z</time>
      </trkpt>
      <trkpt lat="44.93647" lon="6.74012">
        <ele>1881</ele>
        <time>2019-08-18T17:02:32Z</time>
      </trkpt>
      <trkpt lat="44.9364" lon="6.73984">
        <ele>1883</ele>
        <time>2019-08-18T17:03:00Z</time>
      </trkpt>
      <trkpt lat="44.9363" lon="6.73956">
        <ele>1883</ele>
        <time>2019-08-18T17:03:30Z</time>
      </trkpt>
      <trkpt lat="44.93613" lon="6.73897">
        <ele>1882</ele>
        <time>2019-08-18T17:04:30Z</time>
      </trkpt>
      <trkpt lat="44.93604" lon="6.73864">
        <ele>1878</ele>
        <time>2019-08-18T17:05:03Z</time>
      </trkpt>
      <trkpt lat="44.93603" lon="6.73847">
        <ele>1878</ele>
        <time>2019-08-18T17:05:19Z</time>
      </trkpt>
      <trkpt lat="44.93591" lon="6.73769">
        <ele>1875</ele>
        <time>2019-08-18T17:06:35Z</time>
      </trkpt>
      <trkpt lat="44.93583" lon="6.73727">
        <ele>1874</ele>
        <time>2019-08-18T17:07:16Z</time>
      </trkpt>
      <trkpt lat="44.93572" lon="6.73707">
        <ele>1874</ele>
        <time>2019-08-18T17:07:40Z</time>
      </trkpt>
      <trkpt lat="44.93536" lon="6.73696">
        <ele>1866</ele>
        <time>2019-08-18T17:08:29Z</time>
      </trkpt>
      <trkpt lat="44.93515" lon="6.7366">
        <ele>1864</ele>
        <time>2019-08-18T17:09:13Z</time>
      </trkpt>
      <trkpt lat="44.93511" lon="6.73646">
        <ele>1864</ele>
        <time>2019-08-18T17:09:27Z</time>
      </trkpt>
      <trkpt lat="44.93489" lon="6.73584">
        <ele>1864</ele>
        <time>2019-08-18T17:10:33Z</time>
      </trkpt>
      <trkpt lat="44.93477" lon="6.73542">
        <ele>1862</ele>
        <time>2019-08-18T17:11:15Z</time>
      </trkpt>
      <trkpt lat="44.93464" lon="6.73506">
        <ele>1860</ele>
        <time>2019-08-18T17:11:54Z</time>
      </trkpt>
      <trkpt lat="44.93452" lon="6.7347">
        <ele>1857</ele>
        <time>2019-08-18T17:12:31Z</time>
      </trkpt>
      <trkpt lat="44.9344" lon="6.73427">
        <ele>1854</ele>
        <time>2019-08-18T17:13:15Z</time>
      </trkpt>
      <trkpt lat="44.93434" lon="6.73388">
        <ele>1853</ele>
        <time>2019-08-18T17:13:53Z</time>
      </trkpt>
      <trkpt lat="44.93429" lon="6.73336">
        <ele>1851</ele>
        <time>2019-08-18T17:14:42Z</time>
      </trkpt>
      <trkpt lat="44.93422" lon="6.73287">
        <ele>1848</ele>
        <time>2019-08-18T17:15:29Z</time>
      </trkpt>
      <trkpt lat="44.9342" lon="6.73268">
        <ele>1847</ele>
        <time>2019-08-18T17:15:48Z</time>
      </trkpt>
      <trkpt lat="44.93422" lon="6.73192">
        <ele>1847</ele>
        <time>2019-08-18T17:16:59Z</time>
      </trkpt>
      <trkpt lat="44.93422" lon="6.73156">
        <ele>1847</ele>
        <time>2019-08-18T17:17:33Z</time>
      </trkpt>
      <trkpt lat="44.93415" lon="6.73126">
        <ele>1847</ele>
        <time>2019-08-18T17:18:03Z</time>
      </trkpt>
      <trkpt lat="44.93401" lon="6.73085">
        <ele>1846</ele>
        <time>2019-08-18T17:18:46Z</time>
      </trkpt>
      <trkpt lat="44.93387" lon="6.73043">
        <ele>1848</ele>
        <time>2019-08-18T17:19:30Z</time>
      </trkpt>
      <trkpt lat="44.93361" lon="6.72961">
        <ele>1850</ele>
        <time>2019-08-18T17:20:55Z</time>
      </trkpt>
      <trkpt lat="44.93348" lon="6.72919">
        <ele>1850</ele>
        <time>2019-08-18T17:21:38Z</time>
      </trkpt>
      <trkpt lat="44.93329" lon="6.72883">
        <ele>1850</ele>
        <time>2019-08-18T17:22:21Z</time>
      </trkpt>
      <trkpt lat="44.93296" lon="6.72833">
        <ele>1849</ele>
        <time>2019-08-18T17:23:25Z</time>
      </trkpt>
      <trkpt lat="44.93289" lon="6.72823">
        <ele>1849</ele>
        <time>2019-08-18T17:23:39Z</time>
      </trkpt>
      <trkpt lat="44.93291" lon="6.72819">
        <ele>1849</ele>
        <time>2019-08-18T17:23:43Z</time>
      </trkpt>
      <trkpt lat="44.93293" lon="6.72814">
        <ele>1850</ele>
        <time>2019-08-18T17:23:49Z</time>
      </trkpt>
      <trkpt lat="44.93294" lon="6.72809">
        <ele>1850</ele>
        <time>2019-08-18T17:23:54Z</time>
      </trkpt>
      <trkpt lat="44.93294" lon="6.72806">
        <ele>1850</ele>
        <time>2019-08-18T17:23:56Z</time>
      </trkpt>
      <trkpt lat="44.93292" lon="6.72799">
        <ele>1850</ele>
        <time>2019-08-18T17:24:04Z</time>
      </trkpt>
      <trkpt lat="44.9329" lon="6.72795">
        <ele>1850</ele>
        <time>2019-08-18T17:24:08Z</time>
      </trkpt>
      <trkpt lat="44.93285" lon="6.72789">
        <ele>1850</ele>
        <time>2019-08-18T17:24:17Z</time>
      </trkpt>
      <trkpt lat="44.93283" lon="6.72788">
        <ele>1850</ele>
        <time>2019-08-18T17:24:20Z</time>
      </trkpt>
      <trkpt lat="44.93286" lon="6.72775">
        <ele>1851</ele>
        <time>2019-08-18T17:24:33Z</time>
      </trkpt>
      <trkpt lat="44.93287" lon="6.72769">
        <ele>1851</ele>
        <time>2019-08-18T17:24:38Z</time>
      </trkpt>
      <trkpt lat="44.93287" lon="6.72764">
        <ele>1851</ele>
        <time>2019-08-18T17:24:43Z</time>
      </trkpt>
      <trkpt lat="44.93285" lon="6.72758">
        <ele>1851</ele>
        <time>2019-08-18T17:24:49Z</time>
      </trkpt>
      <trkpt lat="44.93284" lon="6.72753">
        <ele>1852</ele>
        <time>2019-08-18T17:24:54Z</time>
      </trkpt>
      <trkpt lat="44.93282" lon="6.72747">
        <ele>1852</ele>
        <time>2019-08-18T17:25:01Z</time>
      </trkpt>
      <trkpt lat="44.93279" lon="6.72742">
        <ele>1852</ele>
        <time>2019-08-18T17:25:07Z</time>
      </trkpt>
      <trkpt lat="44.93275" lon="6.72734">
        <ele>1852</ele>
        <time>2019-08-18T17:25:16Z</time>
      </trkpt>
      <trkpt lat="44.93262" lon="6.72713">
        <ele>1852</ele>
        <time>2019-08-18T17:25:42Z</time>
      </trkpt>
      <trkpt lat="44.93249" lon="6.72693">
        <ele>1853</ele>
        <time>2019-08-18T17:26:08Z</time>
      </trkpt>
      <trkpt lat="44.93245" lon="6.7267">
        <ele>1854</ele>
        <time>2019-08-18T17:26:30Z</time>
      </trkpt>
      <trkpt lat="44.93211" lon="6.72569">
        <ele>1855</ele>
        <time>2019-08-18T17:28:16Z</time>
      </trkpt>
      <trkpt lat="44.93195" lon="6.72519">
        <ele>1857</ele>
        <time>2019-08-18T17:29:08Z</time>
      </trkpt>
      <trkpt lat="44.9315" lon="6.72358">
        <ele>1859</ele>
        <time>2019-08-18T17:31:51Z</time>
      </trkpt>
      <trkpt lat="44.93141" lon="6.72323">
        <ele>1859</ele>
        <time>2019-08-18T17:32:27Z</time>
      </trkpt>
      <trkpt lat="44.93121" lon="6.72272">
        <ele>1858</ele>
        <time>2019-08-18T17:33:22Z</time>
      </trkpt>
      <trkpt lat="44.93102" lon="6.7222">
        <ele>1857</ele>
        <time>2019-08-18T17:34:17Z</time>
      </trkpt>
      <trkpt lat="44.93069" lon="6.72148">
        <ele>1853</ele>
        <time>2019-08-18T17:35:38Z</time>
      </trkpt>
      <trkpt lat="44.93052" lon="6.72112">
        <ele>1851</ele>
        <time>2019-08-18T17:36:19Z</time>
      </trkpt>
      <trkpt lat="44.93041" lon="6.72072">
        <ele>1850</ele>
        <time>2019-08-18T17:36:59Z</time>
      </trkpt>
      <trkpt lat="44.93042" lon="6.72067">
        <ele>1850</ele>
        <time>2019-08-18T17:37:04Z</time>
      </trkpt>
      <trkpt lat="44.93041" lon="6.72072">
        <ele>1850</ele>
        <time>2019-08-18T17:37:09Z</time>
      </trkpt>
      <trkpt lat="44.93029" lon="6.72035">
        <ele>1848</ele>
        <time>2019-08-18T17:37:48Z</time>
      </trkpt>
      <trkpt lat="44.93024" lon="6.72021">
        <ele>1847</ele>
        <time>2019-08-18T17:38:03Z</time>
      </trkpt>
      <trkpt lat="44.9302" lon="6.72016">
        <ele>1846</ele>
        <time>2019-08-18T17:38:10Z</time>
      </trkpt>
      <trkpt lat="44.93018" lon="6.72015">
        <ele>1846</ele>
        <time>2019-08-18T17:38:13Z</time>
      </trkpt>
      <trkpt lat="44.93018" lon="6.72019">
        <ele>1846</ele>
        <time>2019-08-18T17:38:16Z</time>
      </trkpt>
      <trkpt lat="44.93019" lon="6.72027">
        <ele>1846</ele>
        <time>2019-08-18T17:38:24Z</time>
      </trkpt>
      <trkpt lat="44.93019" lon="6.72057">
        <ele>1846</ele>
        <time>2019-08-18T17:38:52Z</time>
      </trkpt>
      <trkpt lat="44.93019" lon="6.7206">
        <ele>1847</ele>
        <time>2019-08-18T17:38:55Z</time>
      </trkpt>
      <trkpt lat="44.93017" lon="6.72062">
        <ele>1846</ele>
        <time>2019-08-18T17:38:58Z</time>
      </trkpt>
      <trkpt lat="44.93016" lon="6.72065">
        <ele>1846</ele>
        <time>2019-08-18T17:39:02Z</time>
      </trkpt>
      <trkpt lat="44.93009" lon="6.72045">
        <ele>1845</ele>
        <time>2019-08-18T17:39:23Z</time>
      </trkpt>
      <trkpt lat="44.92997" lon="6.72004">
        <ele>1843</ele>
        <time>2019-08-18T17:40:05Z</time>
      </trkpt>
      <trkpt lat="44.92985" lon="6.71964">
        <ele>1843</ele>
        <time>2019-08-18T17:40:46Z</time>
      </trkpt>
      <trkpt lat="44.92972" lon="6.71923">
        <ele>1841</ele>
        <time>2019-08-18T17:41:28Z</time>
      </trkpt>
      <trkpt lat="44.92962" lon="6.71888">
        <ele>1839</ele>
        <time>2019-08-18T17:42:04Z</time>
      </trkpt>
      <trkpt lat="44.92959" lon="6.71883">
        <ele>1838</ele>
        <time>2019-08-18T17:42:10Z</time>
      </trkpt>
      <trkpt lat="44.92958" lon="6.71881">
        <ele>1838</ele>
        <time>2019-08-18T17:42:12Z</time>
      </trkpt>
      <trkpt lat="44.92956" lon="6.71879">
        <ele>1838</ele>
        <time>2019-08-18T17:42:15Z</time>
      </trkpt>
      <trkpt lat="44.92953" lon="6.71878">
        <ele>1837</ele>
        <time>2019-08-18T17:42:20Z</time>
      </trkpt>
      <trkpt lat="44.9295" lon="6.71877">
        <ele>1837</ele>
        <time>2019-08-18T17:42:24Z</time>
      </trkpt>
      <trkpt lat="44.92949" lon="6.71868">
        <ele>1836</ele>
        <time>2019-08-18T17:42:32Z</time>
      </trkpt>
      <trkpt lat="44.92949" lon="6.7186">
        <ele>1836</ele>
        <time>2019-08-18T17:42:40Z</time>
      </trkpt>
      <trkpt lat="44.92941" lon="6.71813">
        <ele>1832</ele>
        <time>2019-08-18T17:43:26Z</time>
      </trkpt>
      <trkpt lat="44.92933" lon="6.71767">
        <ele>1828</ele>
        <time>2019-08-18T17:44:10Z</time>
      </trkpt>
      <trkpt lat="44.92932" lon="6.71757">
        <ele>1828</ele>
        <time>2019-08-18T17:44:20Z</time>
      </trkpt>
      <trkpt lat="44.92931" lon="6.71749">
        <ele>1827</ele>
        <time>2019-08-18T17:44:27Z</time>
      </trkpt>
      <trkpt lat="44.92931" lon="6.7174">
        <ele>1827</ele>
        <time>2019-08-18T17:44:36Z</time>
      </trkpt>
      <trkpt lat="44.92932" lon="6.71733">
        <ele>1827</ele>
        <time>2019-08-18T17:44:43Z</time>
      </trkpt>
      <trkpt lat="44.92934" lon="6.7172">
        <ele>1826</ele>
        <time>2019-08-18T17:44:55Z</time>
      </trkpt>
      <trkpt lat="44.92927" lon="6.71715">
        <ele>1825</ele>
        <time>2019-08-18T17:45:06Z</time>
      </trkpt>
      <trkpt lat="44.9292" lon="6.71715">
        <ele>1824</ele>
        <time>2019-08-18T17:45:15Z</time>
      </trkpt>
      <trkpt lat="44.92919" lon="6.71705">
        <ele>1823</ele>
        <time>2019-08-18T17:45:25Z</time>
      </trkpt>
      <trkpt lat="44.92918" lon="6.71695">
        <ele>1823</ele>
        <time>2019-08-18T17:45:34Z</time>
      </trkpt>
      <trkpt lat="44.92906" lon="6.71621">
        <ele>1819</ele>
        <time>2019-08-18T17:46:46Z</time>
      </trkpt>
      <trkpt lat="44.92902" lon="6.71589">
        <ele>1817</ele>
        <time>2019-08-18T17:47:17Z</time>
      </trkpt>
      <trkpt lat="44.92891" lon="6.71522">
        <ele>1812</ele>
        <time>2019-08-18T17:48:22Z</time>
      </trkpt>
      <trkpt lat="44.92884" lon="6.7147">
        <ele>1808</ele>
        <time>2019-08-18T17:49:12Z</time>
      </trkpt>
      <trkpt lat="44.92882" lon="6.71462">
        <ele>1808</ele>
        <time>2019-08-18T17:49:20Z</time>
      </trkpt>
      <trkpt lat="44.9288" lon="6.71446">
        <ele>1807</ele>
        <time>2019-08-18T17:49:35Z</time>
      </trkpt>
      <trkpt lat="44.92877" lon="6.71431">
        <ele>1807</ele>
        <time>2019-08-18T17:49:50Z</time>
      </trkpt>
      <trkpt lat="44.92874" lon="6.71415">
        <ele>1806</ele>
        <time>2019-08-18T17:50:05Z</time>
      </trkpt>
      <trkpt lat="44.92853" lon="6.71328">
        <ele>1802</ele>
        <time>2019-08-18T17:51:32Z</time>
      </trkpt>
      <trkpt lat="44.92843" lon="6.71284">
        <ele>1800</ele>
        <time>2019-08-18T17:52:16Z</time>
      </trkpt>
      <trkpt lat="44.92831" lon="6.71252">
        <ele>1797</ele>
        <time>2019-08-18T17:52:50Z</time>
      </trkpt>
      <trkpt lat="44.92801" lon="6.71165">
        <ele>1797</ele>
        <time>2019-08-18T17:54:21Z</time>
      </trkpt>
      <trkpt lat="44.92782" lon="6.7111">
        <ele>1793</ele>
        <time>2019-08-18T17:55:19Z</time>
      </trkpt>
      <trkpt lat="44.92776" lon="6.71112">
        <ele>1793</ele>
        <time>2019-08-18T17:55:28Z</time>
      </trkpt>
      <trkpt lat="44.92758" lon="6.71109">
        <ele>1792</ele>
        <time>2019-08-18T17:55:52Z</time>
      </trkpt>
      <trkpt lat="44.92736" lon="6.71057">
        <ele>1787</ele>
        <time>2019-08-18T17:56:49Z</time>
      </trkpt>
      <trkpt lat="44.92713" lon="6.71005">
        <ele>1784</ele>
        <time>2019-08-18T17:57:47Z</time>
      </trkpt>
      <trkpt lat="44.92694" lon="6.70968">
        <ele>1782</ele>
        <time>2019-08-18T17:58:30Z</time>
      </trkpt>
      <trkpt lat="44.92675" lon="6.70931">
        <ele>1775</ele>
        <time>2019-08-18T17:59:13Z</time>
      </trkpt>
      <trkpt lat="44.92675" lon="6.70916">
        <ele>1773</ele>
        <time>2019-08-18T17:59:27Z</time>
      </trkpt>
      <trkpt lat="44.92662" lon="6.70872">
        <ele>1767</ele>
        <time>2019-08-18T18:00:12Z</time>
      </trkpt>
      <trkpt lat="44.92635" lon="6.70786">
        <ele>1763</ele>
        <time>2019-08-18T18:01:41Z</time>
      </trkpt>
      <trkpt lat="44.92621" lon="6.70756">
        <ele>1761</ele>
        <time>2019-08-18T18:02:15Z</time>
      </trkpt>
      <trkpt lat="44.92621" lon="6.70738">
        <ele>1759</ele>
        <time>2019-08-18T18:02:32Z</time>
      </trkpt>
      <trkpt lat="44.92621" lon="6.70698">
        <ele>1753</ele>
        <time>2019-08-18T18:03:10Z</time>
      </trkpt>
      <trkpt lat="44.92582" lon="6.70634">
        <ele>1746</ele>
        <time>2019-08-18T18:04:30Z</time>
      </trkpt>
      <trkpt lat="44.92547" lon="6.70604">
        <ele>1750</ele>
        <time>2019-08-18T18:05:25Z</time>
      </trkpt>
      <trkpt lat="44.92537" lon="6.70545">
        <ele>1745</ele>
        <time>2019-08-18T18:06:22Z</time>
      </trkpt>
      <trkpt lat="44.92527" lon="6.70486">
        <ele>1741</ele>
        <time>2019-08-18T18:07:19Z</time>
      </trkpt>
      <trkpt lat="44.92472" lon="6.70408">
        <ele>1733</ele>
        <time>2019-08-18T18:09:03Z</time>
      </trkpt>
      <trkpt lat="44.92445" lon="6.70369">
        <ele>1726</ele>
        <time>2019-08-18T18:09:55Z</time>
      </trkpt>
      <trkpt lat="44.92432" lon="6.70362">
        <ele>1726</ele>
        <time>2019-08-18T18:10:13Z</time>
      </trkpt>
      <trkpt lat="44.92376" lon="6.70282">
        <ele>1717</ele>
        <time>2019-08-18T18:12:00Z</time>
      </trkpt>
      <trkpt lat="44.92358" lon="6.70226">
        <ele>1709</ele>
        <time>2019-08-18T18:12:58Z</time>
      </trkpt>
      <trkpt lat="44.9236" lon="6.7021">
        <ele>1705</ele>
        <time>2019-08-18T18:13:13Z</time>
      </trkpt>
      <trkpt lat="44.92369" lon="6.70189">
        <ele>1698</ele>
        <time>2019-08-18T18:13:36Z</time>
      </trkpt>
      <trkpt lat="44.92378" lon="6.70162">
        <ele>1690</ele>
        <time>2019-08-18T18:14:04Z</time>
      </trkpt>
      <trkpt lat="44.92388" lon="6.70129">
        <ele>1682</ele>
        <time>2019-08-18T18:14:38Z</time>
      </trkpt>
      <trkpt lat="44.92382" lon="6.70095">
        <ele>1678</ele>
        <time>2019-08-18T18:15:11Z</time>
      </trkpt>
      <trkpt lat="44.92377" lon="6.70047">
        <ele>1670</ele>
        <time>2019-08-18T18:15:57Z</time>
      </trkpt>
      <trkpt lat="44.92379" lon="6.70022">
        <ele>1665</ele>
        <time>2019-08-18T18:16:21Z</time>
      </trkpt>
      <trkpt lat="44.92373" lon="6.69963">
        <ele>1659</ele>
        <time>2019-08-18T18:17:17Z</time>
      </trkpt>
      <trkpt lat="44.92372" lon="6.6991">
        <ele>1653</ele>
        <time>2019-08-18T18:18:07Z</time>
      </trkpt>
      <trkpt lat="44.9238" lon="6.6984">
        <ele>1643</ele>
        <time>2019-08-18T18:19:14Z</time>
      </trkpt>
      <trkpt lat="44.92387" lon="6.69791">
        <ele>1634</ele>
        <time>2019-08-18T18:20:02Z</time>
      </trkpt>
      <trkpt lat="44.92374" lon="6.69741">
        <ele>1630</ele>
        <time>2019-08-18T18:20:52Z</time>
      </trkpt>
      <trkpt lat="44.92359" lon="6.69725">
        <ele>1630</ele>
        <time>2019-08-18T18:21:17Z</time>
      </trkpt>
      <trkpt lat="44.92341" lon="6.69714">
        <ele>1631</ele>
        <time>2019-08-18T18:21:43Z</time>
      </trkpt>
      <trkpt lat="44.92316" lon="6.6969">
        <ele>1628</ele>
        <time>2019-08-18T18:22:24Z</time>
      </trkpt>
      <trkpt lat="44.92302" lon="6.6969">
        <ele>1630</ele>
        <time>2019-08-18T18:22:42Z</time>
      </trkpt>
      <trkpt lat="44.92287" lon="6.69683">
        <ele>1629</ele>
        <time>2019-08-18T18:23:03Z</time>
      </trkpt>
      <trkpt lat="44.92282" lon="6.6967">
        <ele>1626</ele>
        <time>2019-08-18T18:23:17Z</time>
      </trkpt>
      <trkpt lat="44.92276" lon="6.69631">
        <ele>1619</ele>
        <time>2019-08-18T18:23:55Z</time>
      </trkpt>
      <trkpt lat="44.92299" lon="6.69638">
        <ele>1619</ele>
        <time>2019-08-18T18:24:26Z</time>
      </trkpt>
      <trkpt lat="44.92313" lon="6.69641">
        <ele>1618</ele>
        <time>2019-08-18T18:24:45Z</time>
      </trkpt>
      <trkpt lat="44.92323" lon="6.6962">
        <ele>1614</ele>
        <time>2019-08-18T18:25:09Z</time>
      </trkpt>
      <trkpt lat="44.92345" lon="6.69601">
        <ele>1607</ele>
        <time>2019-08-18T18:25:44Z</time>
      </trkpt>
      <trkpt lat="44.92346" lon="6.69562">
        <ele>1598</ele>
        <time>2019-08-18T18:26:21Z</time>
      </trkpt>
      <trkpt lat="44.9233" lon="6.69526">
        <ele>1593</ele>
        <time>2019-08-18T18:27:01Z</time>
      </trkpt>
      <trkpt lat="44.92282" lon="6.69518">
        <ele>1594</ele>
        <time>2019-08-18T18:28:05Z</time>
      </trkpt>
      <trkpt lat="44.92237" lon="6.69518">
        <ele>1599</ele>
        <time>2019-08-18T18:29:05Z</time>
      </trkpt>
      <trkpt lat="44.9221" lon="6.69487">
        <ele>1597</ele>
        <time>2019-08-18T18:29:52Z</time>
      </trkpt>
      <trkpt lat="44.92175" lon="6.69448">
        <ele>1600</ele>
        <time>2019-08-18T18:30:51Z</time>
      </trkpt>
      <trkpt lat="44.92172" lon="6.69407">
        <ele>1597</ele>
        <time>2019-08-18T18:31:30Z</time>
      </trkpt>
      <trkpt lat="44.92205" lon="6.69295">
        <ele>1584</ele>
        <time>2019-08-18T18:33:25Z</time>
      </trkpt>
      <trkpt lat="44.92214" lon="6.69272">
        <ele>1580</ele>
        <time>2019-08-18T18:33:50Z</time>
      </trkpt>
      <trkpt lat="44.92202" lon="6.69232">
        <ele>1587</ele>
        <time>2019-08-18T18:34:31Z</time>
      </trkpt>
      <trkpt lat="44.9222" lon="6.69183">
        <ele>1574</ele>
        <time>2019-08-18T18:35:23Z</time>
      </trkpt>
      <trkpt lat="44.92216" lon="6.69141">
        <ele>1571</ele>
        <time>2019-08-18T18:36:03Z</time>
      </trkpt>
      <trkpt lat="44.92192" lon="6.69088">
        <ele>1573</ele>
        <time>2019-08-18T18:37:02Z</time>
      </trkpt>
      <trkpt lat="44.92164" lon="6.69063">
        <ele>1579</ele>
        <time>2019-08-18T18:37:46Z</time>
      </trkpt>
      <trkpt lat="44.92136" lon="6.69038">
        <ele>1581</ele>
        <time>2019-08-18T18:38:31Z</time>
      </trkpt>
      <trkpt lat="44.92124" lon="6.68993">
        <ele>1571</ele>
        <time>2019-08-18T18:39:16Z</time>
      </trkpt>
      <trkpt lat="44.92089" lon="6.68958">
        <ele>1572</ele>
        <time>2019-08-18T18:40:13Z</time>
      </trkpt>
      <trkpt lat="44.92055" lon="6.68923">
        <ele>1571</ele>
        <time>2019-08-18T18:41:10Z</time>
      </trkpt>
      <trkpt lat="44.92031" lon="6.68882">
        <ele>1567</ele>
        <time>2019-08-18T18:42:00Z</time>
      </trkpt>
      <trkpt lat="44.92025" lon="6.68845">
        <ele>1558</ele>
        <time>2019-08-18T18:42:36Z</time>
      </trkpt>
      <trkpt lat="44.92002" lon="6.68806">
        <ele>1552</ele>
        <time>2019-08-18T18:43:24Z</time>
      </trkpt>
      <trkpt lat="44.91927" lon="6.68768">
        <ele>1549</ele>
        <time>2019-08-18T18:45:10Z</time>
      </trkpt>
      <trkpt lat="44.9189" lon="6.68736">
        <ele>1539</ele>
        <time>2019-08-18T18:46:08Z</time>
      </trkpt>
      <trkpt lat="44.91891" lon="6.68717">
        <ele>1531</ele>
        <time>2019-08-18T18:46:26Z</time>
      </trkpt>
      <trkpt lat="44.91903" lon="6.68723">
        <ele>1534</ele>
        <time>2019-08-18T18:46:43Z</time>
      </trkpt>
      <trkpt lat="44.91929" lon="6.68736">
        <ele>1536</ele>
        <time>2019-08-18T18:47:20Z</time>
      </trkpt>
      <trkpt lat="44.91927" lon="6.68718">
        <ele>1530</ele>
        <time>2019-08-18T18:47:37Z</time>
      </trkpt>
      <trkpt lat="44.91901" lon="6.68688">
        <ele>1521</ele>
        <time>2019-08-18T18:48:22Z</time>
      </trkpt>
      <trkpt lat="44.91866" lon="6.68674">
        <ele>1514</ele>
        <time>2019-08-18T18:49:10Z</time>
      </trkpt>
      <trkpt lat="44.91826" lon="6.68674">
        <ele>1512</ele>
        <time>2019-08-18T18:50:04Z</time>
      </trkpt>
      <trkpt lat="44.91762" lon="6.68707">
        <ele>1513</ele>
        <time>2019-08-18T18:51:34Z</time>
      </trkpt>
      <trkpt lat="44.9174" lon="6.6869">
        <ele>1508</ele>
        <time>2019-08-18T18:52:08Z</time>
      </trkpt>
      <trkpt lat="44.91723" lon="6.68654">
        <ele>1506</ele>
        <time>2019-08-18T18:52:49Z</time>
      </trkpt>
      <trkpt lat="44.91712" lon="6.68637">
        <ele>1507</ele>
        <time>2019-08-18T18:53:11Z</time>
      </trkpt>
      <trkpt lat="44.91713" lon="6.68618">
        <ele>1505</ele>
        <time>2019-08-18T18:53:29Z</time>
      </trkpt>
      <trkpt lat="44.91715" lon="6.68573">
        <ele>1500</ele>
        <time>2019-08-18T18:54:11Z</time>
      </trkpt>
      <trkpt lat="44.91705" lon="6.68506">
        <ele>1494</ele>
        <time>2019-08-18T18:55:16Z</time>
      </trkpt>
      <trkpt lat="44.9171" lon="6.68465">
        <ele>1483</ele>
        <time>2019-08-18T18:55:55Z</time>
      </trkpt>
      <trkpt lat="44.91693" lon="6.6844">
        <ele>1481</ele>
        <time>2019-08-18T18:56:28Z</time>
      </trkpt>
      <trkpt lat="44.91677" lon="6.68415">
        <ele>1477</ele>
        <time>2019-08-18T18:57:00Z</time>
      </trkpt>
      <trkpt lat="44.91662" lon="6.68407">
        <ele>1477</ele>
        <time>2019-08-18T18:57:21Z</time>
      </trkpt>
      <trkpt lat="44.9163" lon="6.6839">
        <ele>1482</ele>
        <time>2019-08-18T18:58:07Z</time>
      </trkpt>
      <trkpt lat="44.91618" lon="6.68349">
        <ele>1472</ele>
        <time>2019-08-18T18:58:49Z</time>
      </trkpt>
      <trkpt lat="44.91603" lon="6.68334">
        <ele>1471</ele>
        <time>2019-08-18T18:59:13Z</time>
      </trkpt>
      <trkpt lat="44.91584" lon="6.68317">
        <ele>1471</ele>
        <time>2019-08-18T18:59:43Z</time>
      </trkpt>
      <trkpt lat="44.91565" lon="6.68301">
        <ele>1469</ele>
        <time>2019-08-18T19:00:13Z</time>
      </trkpt>
      <trkpt lat="44.91503" lon="6.68231">
        <ele>1456</ele>
        <time>2019-08-18T19:01:59Z</time>
      </trkpt>
      <trkpt lat="44.91472" lon="6.68196">
        <ele>1452</ele>
        <time>2019-08-18T19:02:52Z</time>
      </trkpt>
      <trkpt lat="44.91459" lon="6.68175">
        <ele>1449</ele>
        <time>2019-08-18T19:03:18Z</time>
      </trkpt>
      <trkpt lat="44.9145" lon="6.6816">
        <ele>1447</ele>
        <time>2019-08-18T19:03:37Z</time>
      </trkpt>
      <trkpt lat="44.91446" lon="6.68139">
        <ele>1446</ele>
        <time>2019-08-18T19:03:57Z</time>
      </trkpt>
      <trkpt lat="44.91449" lon="6.68127">
        <ele>1444</ele>
        <time>2019-08-18T19:04:09Z</time>
      </trkpt>
      <trkpt lat="44.91455" lon="6.6812">
        <ele>1443</ele>
        <time>2019-08-18T19:04:20Z</time>
      </trkpt>
      <trkpt lat="44.9147" lon="6.68115">
        <ele>1441</ele>
        <time>2019-08-18T19:04:40Z</time>
      </trkpt>
      <trkpt lat="44.91483" lon="6.68115">
        <ele>1439</ele>
        <time>2019-08-18T19:04:58Z</time>
      </trkpt>
      <trkpt lat="44.91489" lon="6.68105">
        <ele>1437</ele>
        <time>2019-08-18T19:05:10Z</time>
      </trkpt>
      <trkpt lat="44.91483" lon="6.68055">
        <ele>1434</ele>
        <time>2019-08-18T19:05:58Z</time>
      </trkpt>
      <trkpt lat="44.91484" lon="6.68045">
        <ele>1433</ele>
        <time>2019-08-18T19:06:07Z</time>
      </trkpt>
      <trkpt lat="44.91491" lon="6.68039">
        <ele>1432</ele>
        <time>2019-08-18T19:06:18Z</time>
      </trkpt>
      <trkpt lat="44.91502" lon="6.68043">
        <ele>1430</ele>
        <time>2019-08-18T19:06:33Z</time>
      </trkpt>
      <trkpt lat="44.91512" lon="6.68038">
        <ele>1427</ele>
        <time>2019-08-18T19:06:48Z</time>
      </trkpt>
      <trkpt lat="44.91535" lon="6.67986">
        <ele>1418</ele>
        <time>2019-08-18T19:07:46Z</time>
      </trkpt>
      <trkpt lat="44.91541" lon="6.6798">
        <ele>1416</ele>
        <time>2019-08-18T19:07:55Z</time>
      </trkpt>
      <trkpt lat="44.91535" lon="6.67964">
        <ele>1417</ele>
        <time>2019-08-18T19:08:13Z</time>
      </trkpt>
      <trkpt lat="44.91516" lon="6.67955">
        <ele>1421</ele>
        <time>2019-08-18T19:08:39Z</time>
      </trkpt>
      <trkpt lat="44.91504" lon="6.67913">
        <ele>1423</ele>
        <time>2019-08-18T19:09:22Z</time>
      </trkpt>
      <trkpt lat="44.91491" lon="6.67871">
        <ele>1423</ele>
        <time>2019-08-18T19:10:05Z</time>
      </trkpt>
      <trkpt lat="44.91435" lon="6.67769">
        <ele>1428</ele>
        <time>2019-08-18T19:12:07Z</time>
      </trkpt>
      <trkpt lat="44.91412" lon="6.67736">
        <ele>1428</ele>
        <time>2019-08-18T19:12:51Z</time>
      </trkpt>
      <trkpt lat="44.91389" lon="6.67724">
        <ele>1430</ele>
        <time>2019-08-18T19:13:24Z</time>
      </trkpt>
      <trkpt lat="44.91361" lon="6.67718">
        <ele>1432</ele>
        <time>2019-08-18T19:14:02Z</time>
      </trkpt>
      <trkpt lat="44.91334" lon="6.67711">
        <ele>1434</ele>
        <time>2019-08-18T19:14:38Z</time>
      </trkpt>
      <trkpt lat="44.91224" lon="6.67731">
        <ele>1445</ele>
        <time>2019-08-18T19:17:06Z</time>
      </trkpt>
      <trkpt lat="44.91194" lon="6.67729">
        <ele>1449</ele>
        <time>2019-08-18T19:17:46Z</time>
      </trkpt>
      <trkpt lat="44.91162" lon="6.67694">
        <ele>1444</ele>
        <time>2019-08-18T19:18:40Z</time>
      </trkpt>
      <trkpt lat="44.91131" lon="6.67659">
        <ele>1449</ele>
        <time>2019-08-18T19:19:33Z</time>
      </trkpt>
      <trkpt lat="44.91118" lon="6.67628">
        <ele>1446</ele>
        <time>2019-08-18T19:20:07Z</time>
      </trkpt>
      <trkpt lat="44.91099" lon="6.67591">
        <ele>1443</ele>
        <time>2019-08-18T19:20:51Z</time>
      </trkpt>
      <trkpt lat="44.9108" lon="6.67555">
        <ele>1442</ele>
        <time>2019-08-18T19:21:33Z</time>
      </trkpt>
      <trkpt lat="44.91027" lon="6.67496">
        <ele>1449</ele>
        <time>2019-08-18T19:23:03Z</time>
      </trkpt>
      <trkpt lat="44.91001" lon="6.67467">
        <ele>1451</ele>
        <time>2019-08-18T19:23:47Z</time>
      </trkpt>
      <trkpt lat="44.90967" lon="6.67391">
        <ele>1448</ele>
        <time>2019-08-18T19:25:12Z</time>
      </trkpt>
      <trkpt lat="44.9095" lon="6.67354">
        <ele>1443</ele>
        <time>2019-08-18T19:25:54Z</time>
      </trkpt>
      <trkpt lat="44.90922" lon="6.67336">
        <ele>1450</ele>
        <time>2019-08-18T19:26:35Z</time>
      </trkpt>
      <trkpt lat="44.90893" lon="6.67304">
        <ele>1453</ele>
        <time>2019-08-18T19:27:24Z</time>
      </trkpt>
      <trkpt lat="44.90863" lon="6.67273">
        <ele>1456</ele>
        <time>2019-08-18T19:28:14Z</time>
      </trkpt>
      <trkpt lat="44.90834" lon="6.67242">
        <ele>1458</ele>
        <time>2019-08-18T19:29:02Z</time>
      </trkpt>
      <trkpt lat="44.90818" lon="6.67199">
        <ele>1458</ele>
        <time>2019-08-18T19:29:48Z</time>
      </trkpt>
      <trkpt lat="44.90815" lon="6.67152">
        <ele>1451</ele>
        <time>2019-08-18T19:30:33Z</time>
      </trkpt>
      <trkpt lat="44.90811" lon="6.67104">
        <ele>1448</ele>
        <time>2019-08-18T19:31:18Z</time>
      </trkpt>
      <trkpt lat="44.90788" lon="6.67059">
        <ele>1447</ele>
        <time>2019-08-18T19:32:11Z</time>
      </trkpt>
      <trkpt lat="44.90774" lon="6.6705">
        <ele>1449</ele>
        <time>2019-08-18T19:32:31Z</time>
      </trkpt>
      <trkpt lat="44.90767" lon="6.67028">
        <ele>1446</ele>
        <time>2019-08-18T19:32:54Z</time>
      </trkpt>
      <trkpt lat="44.90734" lon="6.67002">
        <ele>1448</ele>
        <time>2019-08-18T19:33:45Z</time>
      </trkpt>
      <trkpt lat="44.90703" lon="6.66971">
        <ele>1450</ele>
        <time>2019-08-18T19:34:35Z</time>
      </trkpt>
      <trkpt lat="44.90671" lon="6.66952">
        <ele>1453</ele>
        <time>2019-08-18T19:35:22Z</time>
      </trkpt>
      <trkpt lat="44.90651" lon="6.6691">
        <ele>1449</ele>
        <time>2019-08-18T19:36:09Z</time>
      </trkpt>
      <trkpt lat="44.90664" lon="6.66887">
        <ele>1440</ele>
        <time>2019-08-18T19:36:37Z</time>
      </trkpt>
      <trkpt lat="44.90671" lon="6.6686">
        <ele>1433</ele>
        <time>2019-08-18T19:37:04Z</time>
      </trkpt>
      <trkpt lat="44.90657" lon="6.66842">
        <ele>1433</ele>
        <time>2019-08-18T19:37:30Z</time>
      </trkpt>
      <trkpt lat="44.90648" lon="6.66827">
        <ele>1432</ele>
        <time>2019-08-18T19:37:48Z</time>
      </trkpt>
      <trkpt lat="44.90647" lon="6.66778">
        <ele>1418</ele>
        <time>2019-08-18T19:38:35Z</time>
      </trkpt>
      <trkpt lat="44.90641" lon="6.66764">
        <ele>1415</ele>
        <time>2019-08-18T19:38:50Z</time>
      </trkpt>
      <trkpt lat="44.90622" lon="6.6674">
        <ele>1411</ele>
        <time>2019-08-18T19:39:24Z</time>
      </trkpt>
      <trkpt lat="44.9061" lon="6.66734">
        <ele>1411</ele>
        <time>2019-08-18T19:39:41Z</time>
      </trkpt>
      <trkpt lat="44.9061" lon="6.66725">
        <ele>1408</ele>
        <time>2019-08-18T19:39:50Z</time>
      </trkpt>
      <trkpt lat="44.90615" lon="6.66716">
        <ele>1404</ele>
        <time>2019-08-18T19:40:00Z</time>
      </trkpt>
      <trkpt lat="44.9063" lon="6.66715">
        <ele>1402</ele>
        <time>2019-08-18T19:40:20Z</time>
      </trkpt>
      <trkpt lat="44.90637" lon="6.66709">
        <ele>1399</ele>
        <time>2019-08-18T19:40:31Z</time>
      </trkpt>
      <trkpt lat="44.90625" lon="6.66685">
        <ele>1393</ele>
        <time>2019-08-18T19:40:59Z</time>
      </trkpt>
      <trkpt lat="44.90611" lon="6.66669">
        <ele>1390</ele>
        <time>2019-08-18T19:41:23Z</time>
      </trkpt>
      <trkpt lat="44.90593" lon="6.66661">
        <ele>1391</ele>
        <time>2019-08-18T19:41:48Z</time>
      </trkpt>
      <trkpt lat="44.90569" lon="6.66639">
        <ele>1391</ele>
        <time>2019-08-18T19:42:27Z</time>
      </trkpt>
      <trkpt lat="44.90547" lon="6.66613">
        <ele>1389</ele>
        <time>2019-08-18T19:43:05Z</time>
      </trkpt>
      <trkpt lat="44.90532" lon="6.66591">
        <ele>1386</ele>
        <time>2019-08-18T19:43:34Z</time>
      </trkpt>
      <trkpt lat="44.90517" lon="6.66574">
        <ele>1383</ele>
        <time>2019-08-18T19:43:59Z</time>
      </trkpt>
      <trkpt lat="44.90507" lon="6.66556">
        <ele>1381</ele>
        <time>2019-08-18T19:44:21Z</time>
      </trkpt>
      <trkpt lat="44.90507" lon="6.66549">
        <ele>1380</ele>
        <time>2019-08-18T19:44:28Z</time>
      </trkpt>
      <trkpt lat="44.90503" lon="6.66515">
        <ele>1375</ele>
        <time>2019-08-18T19:45:00Z</time>
      </trkpt>
      <trkpt lat="44.90488" lon="6.66478">
        <ele>1369</ele>
        <time>2019-08-18T19:45:40Z</time>
      </trkpt>
      <trkpt lat="44.90473" lon="6.66471">
        <ele>1367</ele>
        <time>2019-08-18T19:46:02Z</time>
      </trkpt>
      <trkpt lat="44.90464" lon="6.6646">
        <ele>1365</ele>
        <time>2019-08-18T19:46:17Z</time>
      </trkpt>
      <trkpt lat="44.90452" lon="6.66446">
        <ele>1361</ele>
        <time>2019-08-18T19:46:38Z</time>
      </trkpt>
      <trkpt lat="44.90429" lon="6.6644">
        <ele>1359</ele>
        <time>2019-08-18T19:47:09Z</time>
      </trkpt>
      <trkpt lat="44.90402" lon="6.66437">
        <ele>1356</ele>
        <time>2019-08-18T19:47:46Z</time>
      </trkpt>
      <trkpt lat="44.90385" lon="6.66424">
        <ele>1351</ele>
        <time>2019-08-18T19:48:11Z</time>
      </trkpt>
      <trkpt lat="44.9037" lon="6.66424">
        <ele>1350</ele>
        <time>2019-08-18T19:48:31Z</time>
      </trkpt>
      <trkpt lat="44.90362" lon="6.66434">
        <ele>1353</ele>
        <time>2019-08-18T19:48:46Z</time>
      </trkpt>
      <trkpt lat="44.90348" lon="6.66443">
        <ele>1355</ele>
        <time>2019-08-18T19:49:06Z</time>
      </trkpt>
      <trkpt lat="44.90327" lon="6.66448">
        <ele>1356</ele>
        <time>2019-08-18T19:49:35Z</time>
      </trkpt>
      <trkpt lat="44.90312" lon="6.66421">
        <ele>1350</ele>
        <time>2019-08-18T19:50:07Z</time>
      </trkpt>
      <trkpt lat="44.90303" lon="6.66381">
        <ele>1345</ele>
        <time>2019-08-18T19:50:47Z</time>
      </trkpt>
      <trkpt lat="44.90295" lon="6.66338">
        <ele>1339</ele>
        <time>2019-08-18T19:51:29Z</time>
      </trkpt>
      <trkpt lat="44.90282" lon="6.663">
        <ele>1337</ele>
        <time>2019-08-18T19:52:09Z</time>
      </trkpt>
      <trkpt lat="44.90286" lon="6.66256">
        <ele>1332</ele>
        <time>2019-08-18T19:52:51Z</time>
      </trkpt>
      <trkpt lat="44.90285" lon="6.66223">
        <ele>1328</ele>
        <time>2019-08-18T19:53:22Z</time>
      </trkpt>
      <trkpt lat="44.9028" lon="6.6621">
        <ele>1327</ele>
        <time>2019-08-18T19:53:36Z</time>
      </trkpt>
      <trkpt lat="44.90274" lon="6.66186">
        <ele>1325</ele>
        <time>2019-08-18T19:54:00Z</time>
      </trkpt>
      <trkpt lat="44.90265" lon="6.66142">
        <ele>1321</ele>
        <time>2019-08-18T19:54:43Z</time>
      </trkpt>
      <trkpt lat="44.90265" lon="6.66113">
        <ele>1318</ele>
        <time>2019-08-18T19:55:10Z</time>
      </trkpt>
      <trkpt lat="44.90255" lon="6.66084">
        <ele>1317</ele>
        <time>2019-08-18T19:55:41Z</time>
      </trkpt>
      <trkpt lat="44.90251" lon="6.66062">
        <ele>1315</ele>
        <time>2019-08-18T19:56:02Z</time>
      </trkpt>
      <trkpt lat="44.90248" lon="6.6603">
        <ele>1312</ele>
        <time>2019-08-18T19:56:33Z</time>
      </trkpt>
      <trkpt lat="44.90245" lon="6.66008">
        <ele>1310</ele>
        <time>2019-08-18T19:56:54Z</time>
      </trkpt>
      <trkpt lat="44.90245" lon="6.66008">
        <ele>1310</ele>
        <time>2019-08-18T19:56:54Z</time>
      </trkpt>
      <trkpt lat="44.9024" lon="6.65991">
        <ele>1309</ele>
        <time>2019-08-18T19:57:12Z</time>
      </trkpt>
      <trkpt lat="44.90233" lon="6.65981">
        <ele>1309</ele>
        <time>2019-08-18T19:57:25Z</time>
      </trkpt>
      <trkpt lat="44.90227" lon="6.65971">
        <ele>1308</ele>
        <time>2019-08-18T19:57:37Z</time>
      </trkpt>
      <trkpt lat="44.90228" lon="6.65964">
        <ele>1307</ele>
        <time>2019-08-18T19:57:44Z</time>
      </trkpt>
      <trkpt lat="44.90226" lon="6.65958">
        <ele>1306</ele>
        <time>2019-08-18T19:57:50Z</time>
      </trkpt>
      <trkpt lat="44.90227" lon="6.65943">
        <ele>1304</ele>
        <time>2019-08-18T19:58:04Z</time>
      </trkpt>
      <trkpt lat="44.90222" lon="6.65933">
        <ele>1304</ele>
        <time>2019-08-18T19:58:16Z</time>
      </trkpt>
      <trkpt lat="44.90208" lon="6.65918">
        <ele>1304</ele>
        <time>2019-08-18T19:58:39Z</time>
      </trkpt>
      <trkpt lat="44.90205" lon="6.65911">
        <ele>1303</ele>
        <time>2019-08-18T19:58:47Z</time>
      </trkpt>
      <trkpt lat="44.90204" lon="6.65902">
        <ele>1301</ele>
        <time>2019-08-18T19:58:56Z</time>
      </trkpt>
      <trkpt lat="44.90205" lon="6.65895">
        <ele>1300</ele>
        <time>2019-08-18T19:59:03Z</time>
      </trkpt>
      <trkpt lat="44.90211" lon="6.65891">
        <ele>1298</ele>
        <time>2019-08-18T19:59:11Z</time>
      </trkpt>
      <trkpt lat="44.90206" lon="6.65888">
        <ele>1298</ele>
        <time>2019-08-18T19:59:19Z</time>
      </trkpt>
      <trkpt lat="44.90197" lon="6.65876">
        <ele>1297</ele>
        <time>2019-08-18T19:59:35Z</time>
      </trkpt>
      <trkpt lat="44.90171" lon="6.65832">
        <ele>1294</ele>
        <time>2019-08-18T20:00:29Z</time>
      </trkpt>
      <trkpt lat="44.90136" lon="6.65759">
        <ele>1296</ele>
        <time>2019-08-18T20:01:53Z</time>
      </trkpt>
      <trkpt lat="44.90133" lon="6.65748">
        <ele>1296</ele>
        <time>2019-08-18T20:02:04Z</time>
      </trkpt>
      <trkpt lat="44.90134" lon="6.65701">
        <ele>1293</ele>
        <time>2019-08-18T20:02:48Z</time>
      </trkpt>
      <trkpt lat="44.90139" lon="6.65663">
        <ele>1290</ele>
        <time>2019-08-18T20:03:25Z</time>
      </trkpt>
      <trkpt lat="44.90144" lon="6.65624">
        <ele>1287</ele>
        <time>2019-08-18T20:04:02Z</time>
      </trkpt>
      <trkpt lat="44.90144" lon="6.65545">
        <ele>1285</ele>
        <time>2019-08-18T20:05:17Z</time>
      </trkpt>
      <trkpt lat="44.90146" lon="6.65509">
        <ele>1283</ele>
        <time>2019-08-18T20:05:51Z</time>
      </trkpt>
      <trkpt lat="44.90143" lon="6.65492">
        <ele>1284</ele>
        <time>2019-08-18T20:06:08Z</time>
      </trkpt>
      <trkpt lat="44.90134" lon="6.65459">
        <ele>1285</ele>
        <time>2019-08-18T20:06:41Z</time>
      </trkpt>
      <trkpt lat="44.90129" lon="6.65445">
        <ele>1286</ele>
        <time>2019-08-18T20:06:56Z</time>
      </trkpt>
      <trkpt lat="44.90141" lon="6.65389">
        <ele>1280</ele>
        <time>2019-08-18T20:07:51Z</time>
      </trkpt>
      <trkpt lat="44.90142" lon="6.65382">
        <ele>1280</ele>
        <time>2019-08-18T20:07:58Z</time>
      </trkpt>
      <trkpt lat="44.90129" lon="6.65368">
        <ele>1281</ele>
        <time>2019-08-18T20:08:20Z</time>
      </trkpt>
      <trkpt lat="44.90114" lon="6.65332">
        <ele>1280</ele>
        <time>2019-08-18T20:08:59Z</time>
      </trkpt>
      <trkpt lat="44.90108" lon="6.65318">
        <ele>1280</ele>
        <time>2019-08-18T20:09:15Z</time>
      </trkpt>
      <trkpt lat="44.90093" lon="6.65301">
        <ele>1281</ele>
        <time>2019-08-18T20:09:40Z</time>
      </trkpt>
      <trkpt lat="44.90085" lon="6.65293">
        <ele>1282</ele>
        <time>2019-08-18T20:09:53Z</time>
      </trkpt>
      <trkpt lat="44.90076" lon="6.6527">
        <ele>1283</ele>
        <time>2019-08-18T20:10:18Z</time>
      </trkpt>
      <trkpt lat="44.90066" lon="6.65254">
        <ele>1287</ele>
        <time>2019-08-18T20:10:38Z</time>
      </trkpt>
      <trkpt lat="44.90053" lon="6.65236">
        <ele>1291</ele>
        <time>2019-08-18T20:11:03Z</time>
      </trkpt>
      <trkpt lat="44.90048" lon="6.65222">
        <ele>1292</ele>
        <time>2019-08-18T20:11:18Z</time>
      </trkpt>
      <trkpt lat="44.90049" lon="6.652">
        <ele>1290</ele>
        <time>2019-08-18T20:11:38Z</time>
      </trkpt>
      <trkpt lat="44.90047" lon="6.65193">
        <ele>1290</ele>
        <time>2019-08-18T20:11:46Z</time>
      </trkpt>
      <trkpt lat="44.90043" lon="6.65185">
        <ele>1291</ele>
        <time>2019-08-18T20:11:55Z</time>
      </trkpt>
      <trkpt lat="44.90034" lon="6.65149">
        <ele>1293</ele>
        <time>2019-08-18T20:12:31Z</time>
      </trkpt>
      <trkpt lat="44.90009" lon="6.6507">
        <ele>1301</ele>
        <time>2019-08-18T20:13:53Z</time>
      </trkpt>
      <trkpt lat="44.90001" lon="6.6505">
        <ele>1305</ele>
        <time>2019-08-18T20:14:14Z</time>
      </trkpt>
      <trkpt lat="44.89993" lon="6.64995">
        <ele>1311</ele>
        <time>2019-08-18T20:15:07Z</time>
      </trkpt>
      <trkpt lat="44.89987" lon="6.64978">
        <ele>1309</ele>
        <time>2019-08-18T20:15:25Z</time>
      </trkpt>
      <trkpt lat="44.89969" lon="6.64964">
        <ele>1312</ele>
        <time>2019-08-18T20:15:53Z</time>
      </trkpt>
      <trkpt lat="44.89956" lon="6.64942">
        <ele>1312</ele>
        <time>2019-08-18T20:16:20Z</time>
      </trkpt>
      <trkpt lat="44.89933" lon="6.64926">
        <ele>1316</ele>
        <time>2019-08-18T20:16:54Z</time>
      </trkpt>
      <trkpt lat="44.89919" lon="6.64926">
        <ele>1321</ele>
        <time>2019-08-18T20:17:13Z</time>
      </trkpt>
      <trkpt lat="44.89908" lon="6.64932">
        <ele>1325</ele>
        <time>2019-08-18T20:17:29Z</time>
      </trkpt>
      <trkpt lat="44.89898" lon="6.64926">
        <ele>1327</ele>
        <time>2019-08-18T20:17:43Z</time>
      </trkpt>
      <trkpt lat="44.89888" lon="6.64897">
        <ele>1318</ele>
        <time>2019-08-18T20:18:14Z</time>
      </trkpt>
      <trkpt lat="44.89866" lon="6.64871">
        <ele>1314</ele>
        <time>2019-08-18T20:18:52Z</time>
      </trkpt>
      <trkpt lat="44.89847" lon="6.64846">
        <ele>1311</ele>
        <time>2019-08-18T20:19:27Z</time>
      </trkpt>
      <trkpt lat="44.89838" lon="6.64833">
        <ele>1309</ele>
        <time>2019-08-18T20:19:44Z</time>
      </trkpt>
      <trkpt lat="44.89811" lon="6.64802">
        <ele>1297</ele>
        <time>2019-08-18T20:20:30Z</time>
      </trkpt>
      <trkpt lat="44.8979" lon="6.64782">
        <ele>1288</ele>
        <time>2019-08-18T20:21:04Z</time>
      </trkpt>
      <trkpt lat="44.89791" lon="6.64769">
        <ele>1281</ele>
        <time>2019-08-18T20:21:16Z</time>
      </trkpt>
      <trkpt lat="44.89806" lon="6.64773">
        <ele>1283</ele>
        <time>2019-08-18T20:21:37Z</time>
      </trkpt>
      <trkpt lat="44.89822" lon="6.6479">
        <ele>1291</ele>
        <time>2019-08-18T20:22:03Z</time>
      </trkpt>
      <trkpt lat="44.89837" lon="6.64787">
        <ele>1288</ele>
        <time>2019-08-18T20:22:24Z</time>
      </trkpt>
      <trkpt lat="44.89851" lon="6.64774">
        <ele>1281</ele>
        <time>2019-08-18T20:22:46Z</time>
      </trkpt>
      <trkpt lat="44.89862" lon="6.64758">
        <ele>1274</ele>
        <time>2019-08-18T20:23:07Z</time>
      </trkpt>
      <trkpt lat="44.89869" lon="6.64743">
        <ele>1275</ele>
        <time>2019-08-18T20:23:24Z</time>
      </trkpt>
      <trkpt lat="44.89882" lon="6.64712">
        <ele>1292</ele>
        <time>2019-08-18T20:23:58Z</time>
      </trkpt>
      <trkpt lat="44.89885" lon="6.64703">
        <ele>1297</ele>
        <time>2019-08-18T20:24:07Z</time>
      </trkpt>
      <trkpt lat="44.89888" lon="6.64698">
        <ele>1301</ele>
        <time>2019-08-18T20:24:14Z</time>
      </trkpt>
      <trkpt lat="44.89888" lon="6.64689">
        <ele>1306</ele>
        <time>2019-08-18T20:24:22Z</time>
      </trkpt>
      <trkpt lat="44.89882" lon="6.64672">
        <ele>1313</ele>
        <time>2019-08-18T20:24:40Z</time>
      </trkpt>
      <trkpt lat="44.89869" lon="6.64651">
        <ele>1317</ele>
        <time>2019-08-18T20:25:07Z</time>
      </trkpt>
      <trkpt lat="44.89851" lon="6.64636">
        <ele>1315</ele>
        <time>2019-08-18T20:25:34Z</time>
      </trkpt>
      <trkpt lat="44.89834" lon="6.64621">
        <ele>1314</ele>
        <time>2019-08-18T20:26:01Z</time>
      </trkpt>
      <trkpt lat="44.8982" lon="6.64598">
        <ele>1312</ele>
        <time>2019-08-18T20:26:30Z</time>
      </trkpt>
      <trkpt lat="44.89816" lon="6.64593">
        <ele>1310</ele>
        <time>2019-08-18T20:26:37Z</time>
      </trkpt>
      <trkpt lat="44.8981" lon="6.6459">
        <ele>1307</ele>
        <time>2019-08-18T20:26:45Z</time>
      </trkpt>
      <trkpt lat="44.89799" lon="6.6459">
        <ele>1298</ele>
        <time>2019-08-18T20:27:00Z</time>
      </trkpt>
      <trkpt lat="44.89795" lon="6.6459">
        <ele>1295</ele>
        <time>2019-08-18T20:27:05Z</time>
      </trkpt>
      <trkpt lat="44.89785" lon="6.64581">
        <ele>1289</ele>
        <time>2019-08-18T20:27:21Z</time>
      </trkpt>
      <trkpt lat="44.89783" lon="6.64577">
        <ele>1288</ele>
        <time>2019-08-18T20:27:26Z</time>
      </trkpt>
      <trkpt lat="44.89783" lon="6.64573">
        <ele>1288</ele>
        <time>2019-08-18T20:27:30Z</time>
      </trkpt>
      <trkpt lat="44.89783" lon="6.64571">
        <ele>1289</ele>
        <time>2019-08-18T20:27:32Z</time>
      </trkpt>
      <trkpt lat="44.89787" lon="6.64564">
        <ele>1293</ele>
        <time>2019-08-18T20:27:40Z</time>
      </trkpt>
      <trkpt lat="44.89789" lon="6.64563">
        <ele>1294</ele>
        <time>2019-08-18T20:27:43Z</time>
      </trkpt>
      <trkpt lat="44.89793" lon="6.64563">
        <ele>1297</ele>
        <time>2019-08-18T20:27:48Z</time>
      </trkpt>
      <trkpt lat="44.89796" lon="6.64564">
        <ele>1299</ele>
        <time>2019-08-18T20:27:52Z</time>
      </trkpt>
      <trkpt lat="44.89802" lon="6.6457">
        <ele>1303</ele>
        <time>2019-08-18T20:28:02Z</time>
      </trkpt>
      <trkpt lat="44.89804" lon="6.64571">
        <ele>1305</ele>
        <time>2019-08-18T20:28:05Z</time>
      </trkpt>
      <trkpt lat="44.89807" lon="6.6457">
        <ele>1307</ele>
        <time>2019-08-18T20:28:09Z</time>
      </trkpt>
      <trkpt lat="44.89808" lon="6.6457">
        <ele>1308</ele>
        <time>2019-08-18T20:28:10Z</time>
      </trkpt>
      <trkpt lat="44.89809" lon="6.64568">
        <ele>1309</ele>
        <time>2019-08-18T20:28:13Z</time>
      </trkpt>
      <trkpt lat="44.8981" lon="6.64566">
        <ele>1310</ele>
        <time>2019-08-18T20:28:15Z</time>
      </trkpt>
      <trkpt lat="44.89809" lon="6.64564">
        <ele>1309</ele>
        <time>2019-08-18T20:28:17Z</time>
      </trkpt>
      <trkpt lat="44.89809" lon="6.64562">
        <ele>1309</ele>
        <time>2019-08-18T20:28:19Z</time>
      </trkpt>
      <trkpt lat="44.89779" lon="6.64525">
        <ele>1292</ele>
        <time>2019-08-18T20:29:12Z</time>
      </trkpt>
      <trkpt lat="44.8977" lon="6.64517">
        <ele>1288</ele>
        <time>2019-08-18T20:29:27Z</time>
      </trkpt>
      <trkpt lat="44.8977" lon="6.64513">
        <ele>1288</ele>
        <time>2019-08-18T20:29:30Z</time>
      </trkpt>
      <trkpt lat="44.89773" lon="6.64499">
        <ele>1292</ele>
        <time>2019-08-18T20:29:44Z</time>
      </trkpt>
      <trkpt lat="44.89783" lon="6.64482">
        <ele>1296</ele>
        <time>2019-08-18T20:30:05Z</time>
      </trkpt>
      <trkpt lat="44.89795" lon="6.6445">
        <ele>1299</ele>
        <time>2019-08-18T20:30:39Z</time>
      </trkpt>
      <trkpt lat="44.89807" lon="6.64434">
        <ele>1304</ele>
        <time>2019-08-18T20:31:01Z</time>
      </trkpt>
      <trkpt lat="44.89808" lon="6.6443">
        <ele>1304</ele>
        <time>2019-08-18T20:31:05Z</time>
      </trkpt>
      <trkpt lat="44.89807" lon="6.64426">
        <ele>1303</ele>
        <time>2019-08-18T20:31:09Z</time>
      </trkpt>
      <trkpt lat="44.89805" lon="6.64425">
        <ele>1302</ele>
        <time>2019-08-18T20:31:12Z</time>
      </trkpt>
      <trkpt lat="44.89801" lon="6.64429">
        <ele>1300</ele>
        <time>2019-08-18T20:31:19Z</time>
      </trkpt>
      <trkpt lat="44.89798" lon="6.64437">
        <ele>1299</ele>
        <time>2019-08-18T20:31:27Z</time>
      </trkpt>
      <trkpt lat="44.89792" lon="6.64445">
        <ele>1297</ele>
        <time>2019-08-18T20:31:38Z</time>
      </trkpt>
      <trkpt lat="44.89789" lon="6.64447">
        <ele>1295</ele>
        <time>2019-08-18T20:31:43Z</time>
      </trkpt>
      <trkpt lat="44.89778" lon="6.6444">
        <ele>1288</ele>
        <time>2019-08-18T20:31:59Z</time>
      </trkpt>
      <trkpt lat="44.89771" lon="6.64433">
        <ele>1284</ele>
        <time>2019-08-18T20:32:10Z</time>
      </trkpt>
      <trkpt lat="44.8977" lon="6.64428">
        <ele>1283</ele>
        <time>2019-08-18T20:32:15Z</time>
      </trkpt>
      <trkpt lat="44.89778" lon="6.64391">
        <ele>1284</ele>
        <time>2019-08-18T20:32:52Z</time>
      </trkpt>
      <trkpt lat="44.89785" lon="6.64379">
        <ele>1287</ele>
        <time>2019-08-18T20:33:07Z</time>
      </trkpt>
      <trkpt lat="44.89793" lon="6.64364">
        <ele>1289</ele>
        <time>2019-08-18T20:33:24Z</time>
      </trkpt>
      <trkpt lat="44.89796" lon="6.64363">
        <ele>1291</ele>
        <time>2019-08-18T20:33:28Z</time>
      </trkpt>
      <trkpt lat="44.898" lon="6.64345">
        <ele>1291</ele>
        <time>2019-08-18T20:33:46Z</time>
      </trkpt>
      <trkpt lat="44.89812" lon="6.64337">
        <ele>1297</ele>
        <time>2019-08-18T20:34:04Z</time>
      </trkpt>
      <trkpt lat="44.89815" lon="6.64335">
        <ele>1298</ele>
        <time>2019-08-18T20:34:08Z</time>
      </trkpt>
      <trkpt lat="44.89814" lon="6.64333">
        <ele>1297</ele>
        <time>2019-08-18T20:34:11Z</time>
      </trkpt>
      <trkpt lat="44.89813" lon="6.6433">
        <ele>1297</ele>
        <time>2019-08-18T20:34:14Z</time>
      </trkpt>
      <trkpt lat="44.89813" lon="6.64325">
        <ele>1296</ele>
        <time>2019-08-18T20:34:19Z</time>
      </trkpt>
      <trkpt lat="44.89814" lon="6.64314">
        <ele>1296</ele>
        <time>2019-08-18T20:34:29Z</time>
      </trkpt>
      <trkpt lat="44.89811" lon="6.64313">
        <ele>1294</ele>
        <time>2019-08-18T20:34:33Z</time>
      </trkpt>
      <trkpt lat="44.89811" lon="6.64308">
        <ele>1294</ele>
        <time>2019-08-18T20:34:38Z</time>
      </trkpt>
      <trkpt lat="44.89812" lon="6.64308">
        <ele>1295</ele>
        <time>2019-08-18T20:34:39Z</time>
      </trkpt>
      <trkpt lat="44.89812" lon="6.64305">
        <ele>1294</ele>
        <time>2019-08-18T20:34:42Z</time>
      </trkpt>
      <trkpt lat="44.89813" lon="6.64306">
        <ele>1295</ele>
        <time>2019-08-18T20:34:44Z</time>
      </trkpt>
      <trkpt lat="44.89814" lon="6.64302">
        <ele>1295</ele>
        <time>2019-08-18T20:34:48Z</time>
      </trkpt>
      <trkpt lat="44.89816" lon="6.64303">
        <ele>1296</ele>
        <time>2019-08-18T20:34:50Z</time>
      </trkpt>
      <trkpt lat="44.89817" lon="6.64297">
        <ele>1297</ele>
        <time>2019-08-18T20:34:56Z</time>
      </trkpt>
      <trkpt lat="44.89816" lon="6.64295">
        <ele>1296</ele>
        <time>2019-08-18T20:34:59Z</time>
      </trkpt>
      <trkpt lat="44.89815" lon="6.64287">
        <ele>1295</ele>
        <time>2019-08-18T20:35:06Z</time>
      </trkpt>
      <trkpt lat="44.89811" lon="6.64283">
        <ele>1293</ele>
        <time>2019-08-18T20:35:13Z</time>
      </trkpt>
      <trkpt lat="44.89809" lon="6.64282">
        <ele>1291</ele>
        <time>2019-08-18T20:35:16Z</time>
      </trkpt>
      <trkpt lat="44.89818" lon="6.64253">
        <ele>1294</ele>
        <time>2019-08-18T20:35:46Z</time>
      </trkpt>
      <trkpt lat="44.89817" lon="6.6425">
        <ele>1294</ele>
        <time>2019-08-18T20:35:49Z</time>
      </trkpt>
      <trkpt lat="44.89822" lon="6.64245">
        <ele>1295</ele>
        <time>2019-08-18T20:35:57Z</time>
      </trkpt>
      <trkpt lat="44.89824" lon="6.64242">
        <ele>1295</ele>
        <time>2019-08-18T20:36:01Z</time>
      </trkpt>
      <trkpt lat="44.89838" lon="6.64243">
        <ele>1301</ele>
        <time>2019-08-18T20:36:20Z</time>
      </trkpt>
      <trkpt lat="44.89848" lon="6.64242">
        <ele>1303</ele>
        <time>2019-08-18T20:36:33Z</time>
      </trkpt>
      <trkpt lat="44.89856" lon="6.64241">
        <ele>1304</ele>
        <time>2019-08-18T20:36:44Z</time>
      </trkpt>
      <trkpt lat="44.89861" lon="6.64242">
        <ele>1306</ele>
        <time>2019-08-18T20:36:50Z</time>
      </trkpt>
      <trkpt lat="44.8988" lon="6.64241">
        <ele>1309</ele>
        <time>2019-08-18T20:37:16Z</time>
      </trkpt>
      <trkpt lat="44.89882" lon="6.64201">
        <ele>1299</ele>
        <time>2019-08-18T20:37:54Z</time>
      </trkpt>
      <trkpt lat="44.89883" lon="6.64199">
        <ele>1298</ele>
        <time>2019-08-18T20:37:56Z</time>
      </trkpt>
      <trkpt lat="44.89882" lon="6.64198">
        <ele>1298</ele>
        <time>2019-08-18T20:37:58Z</time>
      </trkpt>
      <trkpt lat="44.89883" lon="6.6418">
        <ele>1293</ele>
        <time>2019-08-18T20:38:15Z</time>
      </trkpt>
      <trkpt lat="44.89884" lon="6.64175">
        <ele>1292</ele>
        <time>2019-08-18T20:38:20Z</time>
      </trkpt>
      <trkpt lat="44.89887" lon="6.6417">
        <ele>1291</ele>
        <time>2019-08-18T20:38:26Z</time>
      </trkpt>
      <trkpt lat="44.89894" lon="6.64153">
        <ele>1290</ele>
        <time>2019-08-18T20:38:44Z</time>
      </trkpt>
      <trkpt lat="44.89897" lon="6.64147">
        <ele>1290</ele>
        <time>2019-08-18T20:38:51Z</time>
      </trkpt>
      <trkpt lat="44.89894" lon="6.64143">
        <ele>1289</ele>
        <time>2019-08-18T20:38:57Z</time>
      </trkpt>
      <trkpt lat="44.8989" lon="6.64138">
        <ele>1288</ele>
        <time>2019-08-18T20:39:04Z</time>
      </trkpt>
      <trkpt lat="44.89889" lon="6.64134">
        <ele>1287</ele>
        <time>2019-08-18T20:39:08Z</time>
      </trkpt>
      <trkpt lat="44.89888" lon="6.64122">
        <ele>1286</ele>
        <time>2019-08-18T20:39:19Z</time>
      </trkpt>
      <trkpt lat="44.89883" lon="6.64123">
        <ele>1285</ele>
        <time>2019-08-18T20:39:26Z</time>
      </trkpt>
      <trkpt lat="44.89877" lon="6.6412">
        <ele>1284</ele>
        <time>2019-08-18T20:39:35Z</time>
      </trkpt>
      <trkpt lat="44.8987" lon="6.64114">
        <ele>1283</ele>
        <time>2019-08-18T20:39:46Z</time>
      </trkpt>
      <trkpt lat="44.89864" lon="6.64104">
        <ele>1281</ele>
        <time>2019-08-18T20:39:58Z</time>
      </trkpt>
      <trkpt lat="44.89856" lon="6.64091">
        <ele>1280</ele>
        <time>2019-08-18T20:40:14Z</time>
      </trkpt>
      <trkpt lat="44.89849" lon="6.64084">
        <ele>1279</ele>
        <time>2019-08-18T20:40:26Z</time>
      </trkpt>
      <trkpt lat="44.89841" lon="6.64083">
        <ele>1278</ele>
        <time>2019-08-18T20:40:36Z</time>
      </trkpt>
      <trkpt lat="44.89803" lon="6.64086">
        <ele>1273</ele>
        <time>2019-08-18T20:41:27Z</time>
      </trkpt>
      <trkpt lat="44.89783" lon="6.64089">
        <ele>1271</ele>
        <time>2019-08-18T20:41:54Z</time>
      </trkpt>
      <trkpt lat="44.89769" lon="6.64088">
        <ele>1269</ele>
        <time>2019-08-18T20:42:13Z</time>
      </trkpt>
      <trkpt lat="44.89767" lon="6.64087">
        <ele>1269</ele>
        <time>2019-08-18T20:42:16Z</time>
      </trkpt>
      <trkpt lat="44.89756" lon="6.64096">
        <ele>1266</ele>
        <time>2019-08-18T20:42:32Z</time>
      </trkpt>
      <trkpt lat="44.89747" lon="6.64102">
        <ele>1264</ele>
        <time>2019-08-18T20:42:46Z</time>
      </trkpt>
      <trkpt lat="44.89737" lon="6.64108">
        <ele>1259</ele>
        <time>2019-08-18T20:43:00Z</time>
      </trkpt>
      <trkpt lat="44.89721" lon="6.6411">
        <ele>1254</ele>
        <time>2019-08-18T20:43:22Z</time>
      </trkpt>
      <trkpt lat="44.89713" lon="6.64104">
        <ele>1252</ele>
        <time>2019-08-18T20:43:34Z</time>
      </trkpt>
      <trkpt lat="44.89708" lon="6.64097">
        <ele>1251</ele>
        <time>2019-08-18T20:43:43Z</time>
      </trkpt>
      <trkpt lat="44.89692" lon="6.64061">
        <ele>1249</ele>
        <time>2019-08-18T20:44:23Z</time>
      </trkpt>
      <trkpt lat="44.89685" lon="6.64048">
        <ele>1248</ele>
        <time>2019-08-18T20:44:39Z</time>
      </trkpt>
      <trkpt lat="44.89674" lon="6.64037">
        <ele>1246</ele>
        <time>2019-08-18T20:44:57Z</time>
      </trkpt>
      <trkpt lat="44.89667" lon="6.64027">
        <ele>1246</ele>
        <time>2019-08-18T20:45:10Z</time>
      </trkpt>
      <trkpt lat="44.8966" lon="6.64018">
        <ele>1245</ele>
        <time>2019-08-18T20:45:23Z</time>
      </trkpt>
      <trkpt lat="44.89653" lon="6.64011">
        <ele>1244</ele>
        <time>2019-08-18T20:45:34Z</time>
      </trkpt>
      <trkpt lat="44.8964" lon="6.64003">
        <ele>1241</ele>
        <time>2019-08-18T20:45:53Z</time>
      </trkpt>
      <trkpt lat="44.89633" lon="6.63996">
        <ele>1239</ele>
        <time>2019-08-18T20:46:05Z</time>
      </trkpt>
      <trkpt lat="44.89626" lon="6.63985">
        <ele>1237</ele>
        <time>2019-08-18T20:46:19Z</time>
      </trkpt>
      <trkpt lat="44.89621" lon="6.63971">
        <ele>1236</ele>
        <time>2019-08-18T20:46:33Z</time>
      </trkpt>
      <trkpt lat="44.89617" lon="6.63953">
        <ele>1235</ele>
        <time>2019-08-18T20:46:51Z</time>
      </trkpt>
      <trkpt lat="44.89613" lon="6.63932">
        <ele>1234</ele>
        <time>2019-08-18T20:47:12Z</time>
      </trkpt>
      <trkpt lat="44.89612" lon="6.63931">
        <ele>1234</ele>
        <time>2019-08-18T20:47:13Z</time>
      </trkpt>
      <trkpt lat="44.89611" lon="6.63931">
        <ele>1234</ele>
        <time>2019-08-18T20:47:15Z</time>
      </trkpt>
      <trkpt lat="44.89605" lon="6.63932">
        <ele>1232</ele>
        <time>2019-08-18T20:47:23Z</time>
      </trkpt>
      <trkpt lat="44.89598" lon="6.63933">
        <ele>1230</ele>
        <time>2019-08-18T20:47:32Z</time>
      </trkpt>
      <trkpt lat="44.89591" lon="6.63935">
        <ele>1227</ele>
        <time>2019-08-18T20:47:42Z</time>
      </trkpt>
      <trkpt lat="44.89587" lon="6.63936">
        <ele>1226</ele>
        <time>2019-08-18T20:47:47Z</time>
      </trkpt>
      <trkpt lat="44.89585" lon="6.63935">
        <ele>1226</ele>
        <time>2019-08-18T20:47:50Z</time>
      </trkpt>
      <trkpt lat="44.89584" lon="6.63933">
        <ele>1225</ele>
        <time>2019-08-18T20:47:52Z</time>
      </trkpt>
      <trkpt lat="44.89582" lon="6.63902">
        <ele>1225</ele>
        <time>2019-08-18T20:48:22Z</time>
      </trkpt>
      <trkpt lat="44.89578" lon="6.63877">
        <ele>1226</ele>
        <time>2019-08-18T20:48:46Z</time>
      </trkpt>
      <trkpt lat="44.89579" lon="6.63875">
        <ele>1226</ele>
        <time>2019-08-18T20:48:48Z</time>
      </trkpt>
      <trkpt lat="44.89578" lon="6.63867">
        <ele>1226</ele>
        <time>2019-08-18T20:48:56Z</time>
      </trkpt>
      <trkpt lat="44.89576" lon="6.63859">
        <ele>1226</ele>
        <time>2019-08-18T20:49:04Z</time>
      </trkpt>
      <trkpt lat="44.89574" lon="6.63853">
        <ele>1227</ele>
        <time>2019-08-18T20:49:10Z</time>
      </trkpt>
      <trkpt lat="44.89572" lon="6.63851">
        <ele>1227</ele>
        <time>2019-08-18T20:49:13Z</time>
      </trkpt>
      <trkpt lat="44.89569" lon="6.63844">
        <ele>1227</ele>
        <time>2019-08-18T20:49:21Z</time>
      </trkpt>
      <trkpt lat="44.89537" lon="6.63755">
        <ele>1223</ele>
        <time>2019-08-18T20:50:56Z</time>
      </trkpt>
      <trkpt lat="44.89535" lon="6.63748">
        <ele>1223</ele>
        <time>2019-08-18T20:51:03Z</time>
      </trkpt>
      <trkpt lat="44.8953" lon="6.63736">
        <ele>1222</ele>
        <time>2019-08-18T20:51:16Z</time>
      </trkpt>
      <trkpt lat="44.89528" lon="6.63731">
        <ele>1221</ele>
        <time>2019-08-18T20:51:21Z</time>
      </trkpt>
      <trkpt lat="44.89527" lon="6.63727">
        <ele>1221</ele>
        <time>2019-08-18T20:51:25Z</time>
      </trkpt>
      <trkpt lat="44.89525" lon="6.63722">
        <ele>1220</ele>
        <time>2019-08-18T20:51:31Z</time>
      </trkpt>
      <trkpt lat="44.89525" lon="6.63717">
        <ele>1220</ele>
        <time>2019-08-18T20:51:35Z</time>
      </trkpt>
      <trkpt lat="44.89527" lon="6.63713">
        <ele>1219</ele>
        <time>2019-08-18T20:51:40Z</time>
      </trkpt>
      <trkpt lat="44.89522" lon="6.63701">
        <ele>1218</ele>
        <time>2019-08-18T20:51:53Z</time>
      </trkpt>
      <trkpt lat="44.8952" lon="6.63696">
        <ele>1218</ele>
        <time>2019-08-18T20:51:59Z</time>
      </trkpt>
      <trkpt lat="44.89519" lon="6.63691">
        <ele>1217</ele>
        <time>2019-08-18T20:52:04Z</time>
      </trkpt>
      <trkpt lat="44.89517" lon="6.63683">
        <ele>1216</ele>
        <time>2019-08-18T20:52:12Z</time>
      </trkpt>
      <trkpt lat="44.89514" lon="6.63684">
        <ele>1216</ele>
        <time>2019-08-18T20:52:16Z</time>
      </trkpt>
      <trkpt lat="44.89511" lon="6.63683">
        <ele>1216</ele>
        <time>2019-08-18T20:52:20Z</time>
      </trkpt>
      <trkpt lat="44.89508" lon="6.63689">
        <ele>1217</ele>
        <time>2019-08-18T20:52:27Z</time>
      </trkpt>
      <trkpt lat="44.89505" lon="6.63692">
        <ele>1217</ele>
        <time>2019-08-18T20:52:32Z</time>
      </trkpt>
      <trkpt lat="44.89502" lon="6.63693">
        <ele>1217</ele>
        <time>2019-08-18T20:52:36Z</time>
      </trkpt>
      <trkpt lat="44.89498" lon="6.63692">
        <ele>1217</ele>
        <time>2019-08-18T20:52:41Z</time>
      </trkpt>
      <trkpt lat="44.89495" lon="6.63689">
        <ele>1217</ele>
        <time>2019-08-18T20:52:46Z</time>
      </trkpt>
      <trkpt lat="44.89494" lon="6.63693">
        <ele>1217</ele>
        <time>2019-08-18T20:52:50Z</time>
      </trkpt>
      <trkpt lat="44.89489" lon="6.637">
        <ele>1218</ele>
        <time>2019-08-18T20:52:59Z</time>
      </trkpt>
      <trkpt lat="44.89481" lon="6.6371">
        <ele>1219</ele>
        <time>2019-08-18T20:53:14Z</time>
      </trkpt>
      <trkpt lat="44.89462" lon="6.63727">
        <ele>1221</ele>
        <time>2019-08-18T20:53:44Z</time>
      </trkpt>
      <trkpt lat="44.89442" lon="6.63741">
        <ele>1222</ele>
        <time>2019-08-18T20:54:14Z</time>
      </trkpt>
      <trkpt lat="44.89426" lon="6.63751">
        <ele>1223</ele>
        <time>2019-08-18T20:54:37Z</time>
      </trkpt>
      <trkpt lat="44.89413" lon="6.63757">
        <ele>1225</ele>
        <time>2019-08-18T20:54:55Z</time>
      </trkpt>
      <trkpt lat="44.89395" lon="6.63763">
        <ele>1226</ele>
        <time>2019-08-18T20:55:20Z</time>
      </trkpt>
      <trkpt lat="44.89368" lon="6.63772">
        <ele>1228</ele>
        <time>2019-08-18T20:55:57Z</time>
      </trkpt>
      <trkpt lat="44.89342" lon="6.63766">
        <ele>1225</ele>
        <time>2019-08-18T20:56:32Z</time>
      </trkpt>
      <trkpt lat="44.8931" lon="6.63762">
        <ele>1225</ele>
        <time>2019-08-18T20:57:15Z</time>
      </trkpt>
      <trkpt lat="44.893" lon="6.63761">
        <ele>1226</ele>
        <time>2019-08-18T20:57:28Z</time>
      </trkpt>
      <trkpt lat="44.89284" lon="6.6375">
        <ele>1223</ele>
        <time>2019-08-18T20:57:52Z</time>
      </trkpt>
      <trkpt lat="44.89281" lon="6.63746">
        <ele>1223</ele>
        <time>2019-08-18T20:57:58Z</time>
      </trkpt>
      <trkpt lat="44.89272" lon="6.63743">
        <ele>1223</ele>
        <time>2019-08-18T20:58:10Z</time>
      </trkpt>
      <trkpt lat="44.89263" lon="6.63739">
        <ele>1223</ele>
        <time>2019-08-18T20:58:22Z</time>
      </trkpt>
      <trkpt lat="44.89261" lon="6.63736">
        <ele>1222</ele>
        <time>2019-08-18T20:58:26Z</time>
      </trkpt>
      <trkpt lat="44.89259" lon="6.63727">
        <ele>1221</ele>
        <time>2019-08-18T20:58:35Z</time>
      </trkpt>
      <trkpt lat="44.89257" lon="6.63724">
        <ele>1221</ele>
        <time>2019-08-18T20:58:39Z</time>
      </trkpt>
      <trkpt lat="44.89254" lon="6.63721">
        <ele>1220</ele>
        <time>2019-08-18T20:58:44Z</time>
      </trkpt>
      <trkpt lat="44.89248" lon="6.63719">
        <ele>1220</ele>
        <time>2019-08-18T20:58:52Z</time>
      </trkpt>
      <trkpt lat="44.89234" lon="6.63717">
        <ele>1221</ele>
        <time>2019-08-18T20:59:11Z</time>
      </trkpt>
      <trkpt lat="44.89215" lon="6.63712">
        <ele>1221</ele>
        <time>2019-08-18T20:59:37Z</time>
      </trkpt>
      <trkpt lat="44.89202" lon="6.63708">
        <ele>1221</ele>
        <time>2019-08-18T20:59:55Z</time>
      </trkpt>
      <trkpt lat="44.8919" lon="6.63701">
        <ele>1220</ele>
        <time>2019-08-18T21:00:12Z</time>
      </trkpt>
      <trkpt lat="44.89174" lon="6.6369">
        <ele>1219</ele>
        <time>2019-08-18T21:00:36Z</time>
      </trkpt>
      <trkpt lat="44.89161" lon="6.63677">
        <ele>1217</ele>
        <time>2019-08-18T21:00:57Z</time>
      </trkpt>
      <trkpt lat="44.89154" lon="6.63678">
        <ele>1217</ele>
        <time>2019-08-18T21:01:06Z</time>
      </trkpt>
      <trkpt lat="44.89138" lon="6.63682">
        <ele>1219</ele>
        <time>2019-08-18T21:01:28Z</time>
      </trkpt>
      <trkpt lat="44.89134" lon="6.63683">
        <ele>1219</ele>
        <time>2019-08-18T21:01:33Z</time>
      </trkpt>
      <trkpt lat="44.89126" lon="6.63683">
        <ele>1219</ele>
        <time>2019-08-18T21:01:44Z</time>
      </trkpt>
      <trkpt lat="44.89118" lon="6.63683">
        <ele>1220</ele>
        <time>2019-08-18T21:01:55Z</time>
      </trkpt>
      <trkpt lat="44.89101" lon="6.6368">
        <ele>1220</ele>
        <time>2019-08-18T21:02:18Z</time>
      </trkpt>
      <trkpt lat="44.89081" lon="6.63674">
        <ele>1219</ele>
        <time>2019-08-18T21:02:45Z</time>
      </trkpt>
      <trkpt lat="44.89064" lon="6.63668">
        <ele>1218</ele>
        <time>2019-08-18T21:03:08Z</time>
      </trkpt>
      <trkpt lat="44.89047" lon="6.6366">
        <ele>1216</ele>
        <time>2019-08-18T21:03:32Z</time>
      </trkpt>
      <trkpt lat="44.8903" lon="6.6365">
        <ele>1215</ele>
        <time>2019-08-18T21:03:57Z</time>
      </trkpt>
      <trkpt lat="44.89013" lon="6.63639">
        <ele>1213</ele>
        <time>2019-08-18T21:04:22Z</time>
      </trkpt>
      <trkpt lat="44.8898" lon="6.63607">
        <ele>1211</ele>
        <time>2019-08-18T21:05:15Z</time>
      </trkpt>
      <trkpt lat="44.88978" lon="6.63605">
        <ele>1211</ele>
        <time>2019-08-18T21:05:18Z</time>
      </trkpt>
      <trkpt lat="44.88971" lon="6.63595">
        <ele>1210</ele>
        <time>2019-08-18T21:05:32Z</time>
      </trkpt>
      <trkpt lat="44.88966" lon="6.63588">
        <ele>1210</ele>
        <time>2019-08-18T21:05:41Z</time>
      </trkpt>
      <trkpt lat="44.88949" lon="6.63556">
        <ele>1209</ele>
        <time>2019-08-18T21:06:19Z</time>
      </trkpt>
      <trkpt lat="44.88945" lon="6.63549">
        <ele>1209</ele>
        <time>2019-08-18T21:06:27Z</time>
      </trkpt>
      <trkpt lat="44.88943" lon="6.63542">
        <ele>1209</ele>
        <time>2019-08-18T21:06:35Z</time>
      </trkpt>
      <trkpt lat="44.88929" lon="6.63502">
        <ele>1208</ele>
        <time>2019-08-18T21:07:17Z</time>
      </trkpt>
      <trkpt lat="44.88919" lon="6.63459">
        <ele>1207</ele>
        <time>2019-08-18T21:08:00Z</time>
      </trkpt>
      <trkpt lat="44.88916" lon="6.63445">
        <ele>1207</ele>
        <time>2019-08-18T21:08:13Z</time>
      </trkpt>
      <trkpt lat="44.88913" lon="6.63442">
        <ele>1208</ele>
        <time>2019-08-18T21:08:18Z</time>
      </trkpt>
      <trkpt lat="44.88912" lon="6.63437">
        <ele>1208</ele>
        <time>2019-08-18T21:08:23Z</time>
      </trkpt>
      <trkpt lat="44.88906" lon="6.63434">
        <ele>1208</ele>
        <time>2019-08-18T21:08:32Z</time>
      </trkpt>
      <trkpt lat="44.88898" lon="6.63427">
        <ele>1209</ele>
        <time>2019-08-18T21:08:44Z</time>
      </trkpt>
      <trkpt lat="44.88893" lon="6.63424">
        <ele>1209</ele>
        <time>2019-08-18T21:08:52Z</time>
      </trkpt>
      <trkpt lat="44.88811" lon="6.63389">
        <ele>1215</ele>
        <time>2019-08-18T21:10:46Z</time>
      </trkpt>
      <trkpt lat="44.88784" lon="6.63377">
        <ele>1216</ele>
        <time>2019-08-18T21:11:24Z</time>
      </trkpt>
      <trkpt lat="44.88774" lon="6.63411">
        <ele>1220</ele>
        <time>2019-08-18T21:11:58Z</time>
      </trkpt>
      <trkpt lat="44.88759" lon="6.63435">
        <ele>1222</ele>
        <time>2019-08-18T21:12:29Z</time>
      </trkpt>
      <trkpt lat="44.88745" lon="6.63459">
        <ele>1224</ele>
        <time>2019-08-18T21:12:58Z</time>
      </trkpt>
      <trkpt lat="44.88698" lon="6.63528">
        <ele>1225</ele>
        <time>2019-08-18T21:14:29Z</time>
      </trkpt>
      <trkpt lat="44.88679" lon="6.63555">
        <ele>1226</ele>
        <time>2019-08-18T21:15:05Z</time>
      </trkpt>
      <trkpt lat="44.88674" lon="6.63573">
        <ele>1226</ele>
        <time>2019-08-18T21:15:23Z</time>
      </trkpt>
      <trkpt lat="44.8866" lon="6.63616">
        <ele>1229</ele>
        <time>2019-08-18T21:16:08Z</time>
      </trkpt>
      <trkpt lat="44.88657" lon="6.63633">
        <ele>1230</ele>
        <time>2019-08-18T21:16:24Z</time>
      </trkpt>
      <trkpt lat="44.88653" lon="6.63639">
        <ele>1230</ele>
        <time>2019-08-18T21:16:32Z</time>
      </trkpt>
      <trkpt lat="44.88637" lon="6.63682">
        <ele>1231</ele>
        <time>2019-08-18T21:17:18Z</time>
      </trkpt>
      <trkpt lat="44.88636" lon="6.63685">
        <ele>1231</ele>
        <time>2019-08-18T21:17:21Z</time>
      </trkpt>
      <trkpt lat="44.8865" lon="6.63701">
        <ele>1232</ele>
        <time>2019-08-18T21:17:45Z</time>
      </trkpt>
      <trkpt lat="44.88644" lon="6.63712">
        <ele>1232</ele>
        <time>2019-08-18T21:17:58Z</time>
      </trkpt>
      <trkpt lat="44.88636" lon="6.63747">
        <ele>1232</ele>
        <time>2019-08-18T21:18:33Z</time>
      </trkpt>
      <trkpt lat="44.88622" lon="6.63788">
        <ele>1232</ele>
        <time>2019-08-18T21:19:16Z</time>
      </trkpt>
      <trkpt lat="44.88606" lon="6.63832">
        <ele>1232</ele>
        <time>2019-08-18T21:20:03Z</time>
      </trkpt>
      <trkpt lat="44.88584" lon="6.63867">
        <ele>1236</ele>
        <time>2019-08-18T21:20:47Z</time>
      </trkpt>
      <trkpt lat="44.88558" lon="6.63889">
        <ele>1236</ele>
        <time>2019-08-18T21:21:27Z</time>
      </trkpt>
      <trkpt lat="44.88554" lon="6.63892">
        <ele>1236</ele>
        <time>2019-08-18T21:21:33Z</time>
      </trkpt>
      <trkpt lat="44.88545" lon="6.63902">
        <ele>1236</ele>
        <time>2019-08-18T21:21:49Z</time>
      </trkpt>
      <trkpt lat="44.88533" lon="6.63919">
        <ele>1236</ele>
        <time>2019-08-18T21:22:11Z</time>
      </trkpt>
      <trkpt lat="44.88534" lon="6.63923">
        <ele>1237</ele>
        <time>2019-08-18T21:22:15Z</time>
      </trkpt>
      <trkpt lat="44.88537" lon="6.63928">
        <ele>1238</ele>
        <time>2019-08-18T21:22:22Z</time>
      </trkpt>
      <trkpt lat="44.88534" lon="6.6394">
        <ele>1239</ele>
        <time>2019-08-18T21:22:34Z</time>
      </trkpt>
      <trkpt lat="44.88523" lon="6.63957">
        <ele>1238</ele>
        <time>2019-08-18T21:22:55Z</time>
      </trkpt>
      <trkpt lat="44.88517" lon="6.63966">
        <ele>1238</ele>
        <time>2019-08-18T21:23:07Z</time>
      </trkpt>
      <trkpt lat="44.88515" lon="6.63974">
        <ele>1238</ele>
        <time>2019-08-18T21:23:15Z</time>
      </trkpt>
      <trkpt lat="44.88517" lon="6.63995">
        <ele>1240</ele>
        <time>2019-08-18T21:23:35Z</time>
      </trkpt>
      <trkpt lat="44.88522" lon="6.64013">
        <ele>1242</ele>
        <time>2019-08-18T21:23:53Z</time>
      </trkpt>
      <trkpt lat="44.8853" lon="6.64048">
        <ele>1244</ele>
        <time>2019-08-18T21:24:28Z</time>
      </trkpt>
      <trkpt lat="44.88532" lon="6.64072">
        <ele>1245</ele>
        <time>2019-08-18T21:24:51Z</time>
      </trkpt>
      <trkpt lat="44.88533" lon="6.64086">
        <ele>1245</ele>
        <time>2019-08-18T21:25:04Z</time>
      </trkpt>
      <trkpt lat="44.88537" lon="6.64118">
        <ele>1246</ele>
        <time>2019-08-18T21:25:35Z</time>
      </trkpt>
      <trkpt lat="44.88537" lon="6.64127">
        <ele>1246</ele>
        <time>2019-08-18T21:25:44Z</time>
      </trkpt>
      <trkpt lat="44.88543" lon="6.64188">
        <ele>1249</ele>
        <time>2019-08-18T21:26:42Z</time>
      </trkpt>
      <trkpt lat="44.88545" lon="6.64201">
        <ele>1250</ele>
        <time>2019-08-18T21:26:54Z</time>
      </trkpt>
      <trkpt lat="44.88543" lon="6.64222">
        <ele>1251</ele>
        <time>2019-08-18T21:27:14Z</time>
      </trkpt>
      <trkpt lat="44.88544" lon="6.64228">
        <ele>1252</ele>
        <time>2019-08-18T21:27:20Z</time>
      </trkpt>
      <trkpt lat="44.88541" lon="6.64234">
        <ele>1252</ele>
        <time>2019-08-18T21:27:27Z</time>
      </trkpt>
      <trkpt lat="44.88537" lon="6.64252">
        <ele>1252</ele>
        <time>2019-08-18T21:27:45Z</time>
      </trkpt>
      <trkpt lat="44.88526" lon="6.64282">
        <ele>1254</ele>
        <time>2019-08-18T21:28:17Z</time>
      </trkpt>
      <trkpt lat="44.88521" lon="6.64289">
        <ele>1254</ele>
        <time>2019-08-18T21:28:26Z</time>
      </trkpt>
      <trkpt lat="44.88515" lon="6.64294">
        <ele>1253</ele>
        <time>2019-08-18T21:28:36Z</time>
      </trkpt>
      <trkpt lat="44.88492" lon="6.64297">
        <ele>1250</ele>
        <time>2019-08-18T21:29:07Z</time>
      </trkpt>
      <trkpt lat="44.88469" lon="6.64301">
        <ele>1250</ele>
        <time>2019-08-18T21:29:37Z</time>
      </trkpt>
      <trkpt lat="44.88461" lon="6.64306">
        <ele>1251</ele>
        <time>2019-08-18T21:29:49Z</time>
      </trkpt>
      <trkpt lat="44.88454" lon="6.64315">
        <ele>1251</ele>
        <time>2019-08-18T21:30:02Z</time>
      </trkpt>
      <trkpt lat="44.88448" lon="6.64342">
        <ele>1251</ele>
        <time>2019-08-18T21:30:29Z</time>
      </trkpt>
      <trkpt lat="44.88443" lon="6.64367">
        <ele>1252</ele>
        <time>2019-08-18T21:30:53Z</time>
      </trkpt>
      <trkpt lat="44.88431" lon="6.64431">
        <ele>1254</ele>
        <time>2019-08-18T21:31:56Z</time>
      </trkpt>
      <trkpt lat="44.88428" lon="6.64444">
        <ele>1254</ele>
        <time>2019-08-18T21:32:09Z</time>
      </trkpt>
      <trkpt lat="44.88424" lon="6.64451">
        <ele>1253</ele>
        <time>2019-08-18T21:32:17Z</time>
      </trkpt>
      <trkpt lat="44.88417" lon="6.64454">
        <ele>1251</ele>
        <time>2019-08-18T21:32:27Z</time>
      </trkpt>
      <trkpt lat="44.88398" lon="6.64461">
        <ele>1258</ele>
        <time>2019-08-18T21:32:53Z</time>
      </trkpt>
      <trkpt lat="44.88389" lon="6.64511">
        <ele>1263</ele>
        <time>2019-08-18T21:33:42Z</time>
      </trkpt>
      <trkpt lat="44.88381" lon="6.64567">
        <ele>1270</ele>
        <time>2019-08-18T21:34:36Z</time>
      </trkpt>
      <trkpt lat="44.88378" lon="6.64592">
        <ele>1272</ele>
        <time>2019-08-18T21:35:00Z</time>
      </trkpt>
      <trkpt lat="44.88369" lon="6.6463">
        <ele>1276</ele>
        <time>2019-08-18T21:35:38Z</time>
      </trkpt>
      <trkpt lat="44.88361" lon="6.64669">
        <ele>1279</ele>
        <time>2019-08-18T21:36:16Z</time>
      </trkpt>
      <trkpt lat="44.88359" lon="6.6471">
        <ele>1278</ele>
        <time>2019-08-18T21:36:55Z</time>
      </trkpt>
      <trkpt lat="44.88367" lon="6.64735">
        <ele>1275</ele>
        <time>2019-08-18T21:37:21Z</time>
      </trkpt>
      <trkpt lat="44.88372" lon="6.64756">
        <ele>1274</ele>
        <time>2019-08-18T21:37:42Z</time>
      </trkpt>
      <trkpt lat="44.8837" lon="6.64768">
        <ele>1275</ele>
        <time>2019-08-18T21:37:54Z</time>
      </trkpt>
      <trkpt lat="44.88364" lon="6.6478">
        <ele>1276</ele>
        <time>2019-08-18T21:38:07Z</time>
      </trkpt>
      <trkpt lat="44.88359" lon="6.64785">
        <ele>1277</ele>
        <time>2019-08-18T21:38:16Z</time>
      </trkpt>
      <trkpt lat="44.88361" lon="6.64763">
        <ele>1276</ele>
        <time>2019-08-18T21:38:37Z</time>
      </trkpt>
      <trkpt lat="44.88356" lon="6.64762">
        <ele>1277</ele>
        <time>2019-08-18T21:38:43Z</time>
      </trkpt>
      <trkpt lat="44.88342" lon="6.64787">
        <ele>1279</ele>
        <time>2019-08-18T21:39:13Z</time>
      </trkpt>
      <trkpt lat="44.8834" lon="6.64801">
        <ele>1279</ele>
        <time>2019-08-18T21:39:27Z</time>
      </trkpt>
      <trkpt lat="44.88334" lon="6.64811">
        <ele>1280</ele>
        <time>2019-08-18T21:39:39Z</time>
      </trkpt>
      <trkpt lat="44.88331" lon="6.64835">
        <ele>1280</ele>
        <time>2019-08-18T21:40:02Z</time>
      </trkpt>
      <trkpt lat="44.88324" lon="6.64841">
        <ele>1283</ele>
        <time>2019-08-18T21:40:13Z</time>
      </trkpt>
      <trkpt lat="44.88315" lon="6.64846">
        <ele>1286</ele>
        <time>2019-08-18T21:40:26Z</time>
      </trkpt>
      <trkpt lat="44.8831" lon="6.64858">
        <ele>1288</ele>
        <time>2019-08-18T21:40:39Z</time>
      </trkpt>
      <trkpt lat="44.8831" lon="6.64921">
        <ele>1286</ele>
        <time>2019-08-18T21:41:39Z</time>
      </trkpt>
      <trkpt lat="44.88307" lon="6.64942">
        <ele>1288</ele>
        <time>2019-08-18T21:41:59Z</time>
      </trkpt>
      <trkpt lat="44.88301" lon="6.64946">
        <ele>1291</ele>
        <time>2019-08-18T21:42:08Z</time>
      </trkpt>
      <trkpt lat="44.88285" lon="6.64916">
        <ele>1296</ele>
        <time>2019-08-18T21:42:44Z</time>
      </trkpt>
      <trkpt lat="44.88269" lon="6.64888">
        <ele>1303</ele>
        <time>2019-08-18T21:43:18Z</time>
      </trkpt>
      <trkpt lat="44.88262" lon="6.64887">
        <ele>1305</ele>
        <time>2019-08-18T21:43:27Z</time>
      </trkpt>
      <trkpt lat="44.88255" lon="6.64905">
        <ele>1307</ele>
        <time>2019-08-18T21:43:46Z</time>
      </trkpt>
      <trkpt lat="44.88245" lon="6.64924">
        <ele>1312</ele>
        <time>2019-08-18T21:44:09Z</time>
      </trkpt>
      <trkpt lat="44.88239" lon="6.64922">
        <ele>1314</ele>
        <time>2019-08-18T21:44:17Z</time>
      </trkpt>
      <trkpt lat="44.88232" lon="6.64914">
        <ele>1317</ele>
        <time>2019-08-18T21:44:29Z</time>
      </trkpt>
      <trkpt lat="44.88228" lon="6.64898">
        <ele>1319</ele>
        <time>2019-08-18T21:44:45Z</time>
      </trkpt>
      <trkpt lat="44.88228" lon="6.64847">
        <ele>1321</ele>
        <time>2019-08-18T21:45:33Z</time>
      </trkpt>
      <trkpt lat="44.88226" lon="6.6484">
        <ele>1322</ele>
        <time>2019-08-18T21:45:40Z</time>
      </trkpt>
      <trkpt lat="44.88221" lon="6.64839">
        <ele>1325</ele>
        <time>2019-08-18T21:45:47Z</time>
      </trkpt>
      <trkpt lat="44.8822" lon="6.6485">
        <ele>1325</ele>
        <time>2019-08-18T21:45:58Z</time>
      </trkpt>
      <trkpt lat="44.88204" lon="6.64892">
        <ele>1330</ele>
        <time>2019-08-18T21:46:43Z</time>
      </trkpt>
      <trkpt lat="44.88201" lon="6.64914">
        <ele>1331</ele>
        <time>2019-08-18T21:47:04Z</time>
      </trkpt>
      <trkpt lat="44.88207" lon="6.64944">
        <ele>1329</ele>
        <time>2019-08-18T21:47:33Z</time>
      </trkpt>
      <trkpt lat="44.88206" lon="6.64977">
        <ele>1331</ele>
        <time>2019-08-18T21:48:05Z</time>
      </trkpt>
      <trkpt lat="44.88198" lon="6.6503">
        <ele>1338</ele>
        <time>2019-08-18T21:48:56Z</time>
      </trkpt>
      <trkpt lat="44.88196" lon="6.65057">
        <ele>1341</ele>
        <time>2019-08-18T21:49:22Z</time>
      </trkpt>
      <trkpt lat="44.8819" lon="6.65086">
        <ele>1346</ele>
        <time>2019-08-18T21:49:50Z</time>
      </trkpt>
      <trkpt lat="44.88186" lon="6.65114">
        <ele>1352</ele>
        <time>2019-08-18T21:50:17Z</time>
      </trkpt>
      <trkpt lat="44.88182" lon="6.65142">
        <ele>1358</ele>
        <time>2019-08-18T21:50:44Z</time>
      </trkpt>
      <trkpt lat="44.88179" lon="6.6518">
        <ele>1366</ele>
        <time>2019-08-18T21:51:20Z</time>
      </trkpt>
      <trkpt lat="44.88173" lon="6.6518">
        <ele>1369</ele>
        <time>2019-08-18T21:51:28Z</time>
      </trkpt>
      <trkpt lat="44.8817" lon="6.65175">
        <ele>1369</ele>
        <time>2019-08-18T21:51:34Z</time>
      </trkpt>
      <trkpt lat="44.88168" lon="6.65157">
        <ele>1366</ele>
        <time>2019-08-18T21:51:52Z</time>
      </trkpt>
      <trkpt lat="44.88158" lon="6.65128">
        <ele>1367</ele>
        <time>2019-08-18T21:52:22Z</time>
      </trkpt>
      <trkpt lat="44.8815" lon="6.65096">
        <ele>1367</ele>
        <time>2019-08-18T21:52:54Z</time>
      </trkpt>
      <trkpt lat="44.88145" lon="6.6506">
        <ele>1366</ele>
        <time>2019-08-18T21:53:29Z</time>
      </trkpt>
      <trkpt lat="44.88138" lon="6.65033">
        <ele>1369</ele>
        <time>2019-08-18T21:53:56Z</time>
      </trkpt>
      <trkpt lat="44.88133" lon="6.65">
        <ele>1370</ele>
        <time>2019-08-18T21:54:28Z</time>
      </trkpt>
      <trkpt lat="44.88131" lon="6.64966">
        <ele>1371</ele>
        <time>2019-08-18T21:55:00Z</time>
      </trkpt>
      <trkpt lat="44.88134" lon="6.64898">
        <ele>1370</ele>
        <time>2019-08-18T21:56:05Z</time>
      </trkpt>
      <trkpt lat="44.88133" lon="6.64847">
        <ele>1373</ele>
        <time>2019-08-18T21:56:53Z</time>
      </trkpt>
      <trkpt lat="44.88139" lon="6.64821">
        <ele>1370</ele>
        <time>2019-08-18T21:57:19Z</time>
      </trkpt>
      <trkpt lat="44.88155" lon="6.64797">
        <ele>1362</ele>
        <time>2019-08-18T21:57:50Z</time>
      </trkpt>
      <trkpt lat="44.88161" lon="6.64772">
        <ele>1361</ele>
        <time>2019-08-18T21:58:15Z</time>
      </trkpt>
      <trkpt lat="44.88161" lon="6.64739">
        <ele>1364</ele>
        <time>2019-08-18T21:58:46Z</time>
      </trkpt>
      <trkpt lat="44.88155" lon="6.64695">
        <ele>1367</ele>
        <time>2019-08-18T21:59:28Z</time>
      </trkpt>
      <trkpt lat="44.88149" lon="6.64651">
        <ele>1367</ele>
        <time>2019-08-18T22:00:11Z</time>
      </trkpt>
      <trkpt lat="44.88144" lon="6.64634">
        <ele>1367</ele>
        <time>2019-08-18T22:00:28Z</time>
      </trkpt>
      <trkpt lat="44.88138" lon="6.64616">
        <ele>1367</ele>
        <time>2019-08-18T22:00:47Z</time>
      </trkpt>
      <trkpt lat="44.88129" lon="6.64592">
        <ele>1366</ele>
        <time>2019-08-18T22:01:13Z</time>
      </trkpt>
      <trkpt lat="44.88109" lon="6.64545">
        <ele>1360</ele>
        <time>2019-08-18T22:02:05Z</time>
      </trkpt>
      <trkpt lat="44.88095" lon="6.64518">
        <ele>1355</ele>
        <time>2019-08-18T22:02:36Z</time>
      </trkpt>
      <trkpt lat="44.88081" lon="6.6449">
        <ele>1352</ele>
        <time>2019-08-18T22:03:09Z</time>
      </trkpt>
      <trkpt lat="44.8807" lon="6.64476">
        <ele>1354</ele>
        <time>2019-08-18T22:03:28Z</time>
      </trkpt>
      <trkpt lat="44.88067" lon="6.64469">
        <ele>1353</ele>
        <time>2019-08-18T22:03:36Z</time>
      </trkpt>
      <trkpt lat="44.88066" lon="6.64462">
        <ele>1353</ele>
        <time>2019-08-18T22:03:43Z</time>
      </trkpt>
      <trkpt lat="44.88068" lon="6.64453">
        <ele>1351</ele>
        <time>2019-08-18T22:03:52Z</time>
      </trkpt>
      <trkpt lat="44.88072" lon="6.6443">
        <ele>1346</ele>
        <time>2019-08-18T22:04:14Z</time>
      </trkpt>
      <trkpt lat="44.8808" lon="6.64376">
        <ele>1337</ele>
        <time>2019-08-18T22:05:06Z</time>
      </trkpt>
      <trkpt lat="44.88081" lon="6.64359">
        <ele>1334</ele>
        <time>2019-08-18T22:05:22Z</time>
      </trkpt>
      <trkpt lat="44.8808" lon="6.64344">
        <ele>1333</ele>
        <time>2019-08-18T22:05:37Z</time>
      </trkpt>
      <trkpt lat="44.88064" lon="6.64259">
        <ele>1326</ele>
        <time>2019-08-18T22:07:00Z</time>
      </trkpt>
      <trkpt lat="44.88056" lon="6.64217">
        <ele>1323</ele>
        <time>2019-08-18T22:07:41Z</time>
      </trkpt>
      <trkpt lat="44.88041" lon="6.64187">
        <ele>1321</ele>
        <time>2019-08-18T22:08:16Z</time>
      </trkpt>
      <trkpt lat="44.88027" lon="6.64156">
        <ele>1318</ele>
        <time>2019-08-18T22:08:51Z</time>
      </trkpt>
      <trkpt lat="44.87997" lon="6.6411">
        <ele>1314</ele>
        <time>2019-08-18T22:09:50Z</time>
      </trkpt>
      <trkpt lat="44.87968" lon="6.64063">
        <ele>1312</ele>
        <time>2019-08-18T22:10:49Z</time>
      </trkpt>
      <trkpt lat="44.87965" lon="6.64032">
        <ele>1309</ele>
        <time>2019-08-18T22:11:18Z</time>
      </trkpt>
      <trkpt lat="44.87908" lon="6.63921">
        <ele>1301</ele>
        <time>2019-08-18T22:13:28Z</time>
      </trkpt>
      <trkpt lat="44.87882" lon="6.63871">
        <ele>1300</ele>
        <time>2019-08-18T22:14:26Z</time>
      </trkpt>
      <trkpt lat="44.87857" lon="6.63833">
        <ele>1298</ele>
        <time>2019-08-18T22:15:15Z</time>
      </trkpt>
      <trkpt lat="44.87833" lon="6.63796">
        <ele>1296</ele>
        <time>2019-08-18T22:16:03Z</time>
      </trkpt>
      <trkpt lat="44.87824" lon="6.63786">
        <ele>1295</ele>
        <time>2019-08-18T22:16:18Z</time>
      </trkpt>
      <trkpt lat="44.87795" lon="6.6375">
        <ele>1291</ele>
        <time>2019-08-18T22:17:10Z</time>
      </trkpt>
      <trkpt lat="44.87773" lon="6.63704">
        <ele>1288</ele>
        <time>2019-08-18T22:18:02Z</time>
      </trkpt>
      <trkpt lat="44.87742" lon="6.63632">
        <ele>1282</ele>
        <time>2019-08-18T22:19:22Z</time>
      </trkpt>
      <trkpt lat="44.87735" lon="6.63617">
        <ele>1281</ele>
        <time>2019-08-18T22:19:39Z</time>
      </trkpt>
      <trkpt lat="44.8772" lon="6.63596">
        <ele>1280</ele>
        <time>2019-08-18T22:20:07Z</time>
      </trkpt>
      <trkpt lat="44.87716" lon="6.63586">
        <ele>1279</ele>
        <time>2019-08-18T22:20:18Z</time>
      </trkpt>
      <trkpt lat="44.87714" lon="6.63569">
        <ele>1278</ele>
        <time>2019-08-18T22:20:34Z</time>
      </trkpt>
      <trkpt lat="44.87719" lon="6.63547">
        <ele>1275</ele>
        <time>2019-08-18T22:20:56Z</time>
      </trkpt>
      <trkpt lat="44.87727" lon="6.63513">
        <ele>1272</ele>
        <time>2019-08-18T22:21:30Z</time>
      </trkpt>
      <trkpt lat="44.8766" lon="6.63453">
        <ele>1270</ele>
        <time>2019-08-18T22:23:16Z</time>
      </trkpt>
      <trkpt lat="44.87641" lon="6.63437">
        <ele>1269</ele>
        <time>2019-08-18T22:23:45Z</time>
      </trkpt>
      <trkpt lat="44.87627" lon="6.63437">
        <ele>1270</ele>
        <time>2019-08-18T22:24:04Z</time>
      </trkpt>
      <trkpt lat="44.87601" lon="6.63443">
        <ele>1271</ele>
        <time>2019-08-18T22:24:39Z</time>
      </trkpt>
      <trkpt lat="44.87523" lon="6.63381">
        <ele>1266</ele>
        <time>2019-08-18T22:26:39Z</time>
      </trkpt>
      <trkpt lat="44.875" lon="6.6334">
        <ele>1265</ele>
        <time>2019-08-18T22:27:28Z</time>
      </trkpt>
      <trkpt lat="44.87493" lon="6.63339">
        <ele>1265</ele>
        <time>2019-08-18T22:27:37Z</time>
      </trkpt>
      <trkpt lat="44.87474" lon="6.63359">
        <ele>1266</ele>
        <time>2019-08-18T22:28:09Z</time>
      </trkpt>
      <trkpt lat="44.87455" lon="6.63375">
        <ele>1267</ele>
        <time>2019-08-18T22:28:39Z</time>
      </trkpt>
      <trkpt lat="44.87435" lon="6.63391">
        <ele>1267</ele>
        <time>2019-08-18T22:29:09Z</time>
      </trkpt>
      <trkpt lat="44.87414" lon="6.63381">
        <ele>1267</ele>
        <time>2019-08-18T22:29:39Z</time>
      </trkpt>
      <trkpt lat="44.8739" lon="6.63371">
        <ele>1269</ele>
        <time>2019-08-18T22:30:12Z</time>
      </trkpt>
      <trkpt lat="44.87364" lon="6.63356">
        <ele>1271</ele>
        <time>2019-08-18T22:30:50Z</time>
      </trkpt>
      <trkpt lat="44.87339" lon="6.63343">
        <ele>1273</ele>
        <time>2019-08-18T22:31:25Z</time>
      </trkpt>
      <trkpt lat="44.87312" lon="6.63313">
        <ele>1279</ele>
        <time>2019-08-18T22:32:11Z</time>
      </trkpt>
      <trkpt lat="44.87286" lon="6.63294">
        <ele>1285</ele>
        <time>2019-08-18T22:32:50Z</time>
      </trkpt>
      <trkpt lat="44.8726" lon="6.63275">
        <ele>1289</ele>
        <time>2019-08-18T22:33:29Z</time>
      </trkpt>
      <trkpt lat="44.87239" lon="6.63267">
        <ele>1293</ele>
        <time>2019-08-18T22:33:58Z</time>
      </trkpt>
      <trkpt lat="44.87223" lon="6.63266">
        <ele>1295</ele>
        <time>2019-08-18T22:34:20Z</time>
      </trkpt>
      <trkpt lat="44.87214" lon="6.63266">
        <ele>1297</ele>
        <time>2019-08-18T22:34:32Z</time>
      </trkpt>
      <trkpt lat="44.87211" lon="6.63268">
        <ele>1297</ele>
        <time>2019-08-18T22:34:36Z</time>
      </trkpt>
      <trkpt lat="44.87206" lon="6.63268">
        <ele>1298</ele>
        <time>2019-08-18T22:34:43Z</time>
      </trkpt>
      <trkpt lat="44.87193" lon="6.63277">
        <ele>1301</ele>
        <time>2019-08-18T22:35:02Z</time>
      </trkpt>
      <trkpt lat="44.87174" lon="6.63286">
        <ele>1305</ele>
        <time>2019-08-18T22:35:29Z</time>
      </trkpt>
      <trkpt lat="44.87158" lon="6.63292">
        <ele>1309</ele>
        <time>2019-08-18T22:35:51Z</time>
      </trkpt>
      <trkpt lat="44.87151" lon="6.63312">
        <ele>1313</ele>
        <time>2019-08-18T22:36:12Z</time>
      </trkpt>
      <trkpt lat="44.87147" lon="6.63333">
        <ele>1316</ele>
        <time>2019-08-18T22:36:33Z</time>
      </trkpt>
      <trkpt lat="44.87142" lon="6.63349">
        <ele>1318</ele>
        <time>2019-08-18T22:36:49Z</time>
      </trkpt>
      <trkpt lat="44.87128" lon="6.63384">
        <ele>1322</ele>
        <time>2019-08-18T22:37:27Z</time>
      </trkpt>
      <trkpt lat="44.87116" lon="6.63425">
        <ele>1325</ele>
        <time>2019-08-18T22:38:09Z</time>
      </trkpt>
      <trkpt lat="44.87085" lon="6.63486">
        <ele>1332</ele>
        <time>2019-08-18T22:39:20Z</time>
      </trkpt>
      <trkpt lat="44.87072" lon="6.63507">
        <ele>1337</ele>
        <time>2019-08-18T22:39:47Z</time>
      </trkpt>
      <trkpt lat="44.87072" lon="6.63544">
        <ele>1334</ele>
        <time>2019-08-18T22:40:22Z</time>
      </trkpt>
      <trkpt lat="44.87066" lon="6.63576">
        <ele>1334</ele>
        <time>2019-08-18T22:40:53Z</time>
      </trkpt>
      <trkpt lat="44.87056" lon="6.63603">
        <ele>1338</ele>
        <time>2019-08-18T22:41:22Z</time>
      </trkpt>
      <trkpt lat="44.87038" lon="6.63639">
        <ele>1347</ele>
        <time>2019-08-18T22:42:03Z</time>
      </trkpt>
      <trkpt lat="44.87042" lon="6.63676">
        <ele>1345</ele>
        <time>2019-08-18T22:42:39Z</time>
      </trkpt>
      <trkpt lat="44.87035" lon="6.63708">
        <ele>1348</ele>
        <time>2019-08-18T22:43:10Z</time>
      </trkpt>
      <trkpt lat="44.87035" lon="6.6373">
        <ele>1348</ele>
        <time>2019-08-18T22:43:31Z</time>
      </trkpt>
      <trkpt lat="44.87027" lon="6.63733">
        <ele>1351</ele>
        <time>2019-08-18T22:43:42Z</time>
      </trkpt>
      <trkpt lat="44.87012" lon="6.63702">
        <ele>1359</ele>
        <time>2019-08-18T22:44:18Z</time>
      </trkpt>
      <trkpt lat="44.87005" lon="6.63682">
        <ele>1363</ele>
        <time>2019-08-18T22:44:39Z</time>
      </trkpt>
      <trkpt lat="44.86999" lon="6.63655">
        <ele>1367</ele>
        <time>2019-08-18T22:45:06Z</time>
      </trkpt>
      <trkpt lat="44.86996" lon="6.63625">
        <ele>1369</ele>
        <time>2019-08-18T22:45:34Z</time>
      </trkpt>
      <trkpt lat="44.86995" lon="6.63581">
        <ele>1371</ele>
        <time>2019-08-18T22:46:16Z</time>
      </trkpt>
      <trkpt lat="44.86993" lon="6.63569">
        <ele>1373</ele>
        <time>2019-08-18T22:46:28Z</time>
      </trkpt>
      <trkpt lat="44.86986" lon="6.63573">
        <ele>1376</ele>
        <time>2019-08-18T22:46:38Z</time>
      </trkpt>
      <trkpt lat="44.86984" lon="6.636">
        <ele>1376</ele>
        <time>2019-08-18T22:47:03Z</time>
      </trkpt>
      <trkpt lat="44.86977" lon="6.6363">
        <ele>1380</ele>
        <time>2019-08-18T22:47:33Z</time>
      </trkpt>
      <trkpt lat="44.86974" lon="6.63671">
        <ele>1381</ele>
        <time>2019-08-18T22:48:12Z</time>
      </trkpt>
      <trkpt lat="44.86974" lon="6.63709">
        <ele>1379</ele>
        <time>2019-08-18T22:48:48Z</time>
      </trkpt>
      <trkpt lat="44.86975" lon="6.63747">
        <ele>1376</ele>
        <time>2019-08-18T22:49:24Z</time>
      </trkpt>
      <trkpt lat="44.86967" lon="6.63754">
        <ele>1380</ele>
        <time>2019-08-18T22:49:37Z</time>
      </trkpt>
      <trkpt lat="44.86945" lon="6.63755">
        <ele>1391</ele>
        <time>2019-08-18T22:50:06Z</time>
      </trkpt>
      <trkpt lat="44.86932" lon="6.63764">
        <ele>1398</ele>
        <time>2019-08-18T22:50:25Z</time>
      </trkpt>
      <trkpt lat="44.86923" lon="6.6378">
        <ele>1403</ele>
        <time>2019-08-18T22:50:45Z</time>
      </trkpt>
      <trkpt lat="44.86919" lon="6.63766">
        <ele>1406</ele>
        <time>2019-08-18T22:50:59Z</time>
      </trkpt>
      <trkpt lat="44.86923" lon="6.63722">
        <ele>1406</ele>
        <time>2019-08-18T22:51:41Z</time>
      </trkpt>
      <trkpt lat="44.8692" lon="6.63701">
        <ele>1410</ele>
        <time>2019-08-18T22:52:01Z</time>
      </trkpt>
      <trkpt lat="44.86921" lon="6.6367">
        <ele>1412</ele>
        <time>2019-08-18T22:52:30Z</time>
      </trkpt>
      <trkpt lat="44.8692" lon="6.63596">
        <ele>1411</ele>
        <time>2019-08-18T22:53:40Z</time>
      </trkpt>
      <trkpt lat="44.86895" lon="6.63575">
        <ele>1421</ele>
        <time>2019-08-18T22:54:19Z</time>
      </trkpt>
      <trkpt lat="44.86889" lon="6.63592">
        <ele>1424</ele>
        <time>2019-08-18T22:54:37Z</time>
      </trkpt>
      <trkpt lat="44.86879" lon="6.63578">
        <ele>1427</ele>
        <time>2019-08-18T22:54:56Z</time>
      </trkpt>
      <trkpt lat="44.86877" lon="6.63601">
        <ele>1430</ele>
        <time>2019-08-18T22:55:18Z</time>
      </trkpt>
      <trkpt lat="44.8685" lon="6.63569">
        <ele>1438</ele>
        <time>2019-08-18T22:56:05Z</time>
      </trkpt>
      <trkpt lat="44.86843" lon="6.63572">
        <ele>1442</ele>
        <time>2019-08-18T22:56:15Z</time>
      </trkpt>
      <trkpt lat="44.86817" lon="6.63603">
        <ele>1456</ele>
        <time>2019-08-18T22:57:00Z</time>
      </trkpt>
      <trkpt lat="44.86845" lon="6.63642">
        <ele>1450</ele>
        <time>2019-08-18T22:57:53Z</time>
      </trkpt>
      <trkpt lat="44.86845" lon="6.63649">
        <ele>1451</ele>
        <time>2019-08-18T22:57:59Z</time>
      </trkpt>
      <trkpt lat="44.86806" lon="6.6363">
        <ele>1463</ele>
        <time>2019-08-18T22:58:54Z</time>
      </trkpt>
      <trkpt lat="44.86805" lon="6.63651">
        <ele>1466</ele>
        <time>2019-08-18T22:59:14Z</time>
      </trkpt>
      <trkpt lat="44.86788" lon="6.63677">
        <ele>1473</ele>
        <time>2019-08-18T22:59:48Z</time>
      </trkpt>
      <trkpt lat="44.86775" lon="6.6366">
        <ele>1477</ele>
        <time>2019-08-18T23:00:11Z</time>
      </trkpt>
      <trkpt lat="44.8677" lon="6.63661">
        <ele>1478</ele>
        <time>2019-08-18T23:00:18Z</time>
      </trkpt>
      <trkpt lat="44.86771" lon="6.63672">
        <ele>1479</ele>
        <time>2019-08-18T23:00:29Z</time>
      </trkpt>
      <trkpt lat="44.8676" lon="6.63663">
        <ele>1482</ele>
        <time>2019-08-18T23:00:46Z</time>
      </trkpt>
      <trkpt lat="44.86756" lon="6.63686">
        <ele>1484</ele>
        <time>2019-08-18T23:01:08Z</time>
      </trkpt>
      <trkpt lat="44.86748" lon="6.63685">
        <ele>1487</ele>
        <time>2019-08-18T23:01:19Z</time>
      </trkpt>
      <trkpt lat="44.86725" lon="6.63697">
        <ele>1494</ele>
        <time>2019-08-18T23:01:51Z</time>
      </trkpt>
      <trkpt lat="44.86694" lon="6.63682">
        <ele>1502</ele>
        <time>2019-08-18T23:02:35Z</time>
      </trkpt>
      <trkpt lat="44.86663" lon="6.63666">
        <ele>1510</ele>
        <time>2019-08-18T23:03:19Z</time>
      </trkpt>
      <trkpt lat="44.86657" lon="6.63703">
        <ele>1513</ele>
        <time>2019-08-18T23:03:55Z</time>
      </trkpt>
      <trkpt lat="44.8665" lon="6.63739">
        <ele>1517</ele>
        <time>2019-08-18T23:04:30Z</time>
      </trkpt>
      <trkpt lat="44.8664" lon="6.63752">
        <ele>1522</ele>
        <time>2019-08-18T23:04:49Z</time>
      </trkpt>
      <trkpt lat="44.8663" lon="6.63808">
        <ele>1535</ele>
        <time>2019-08-18T23:05:43Z</time>
      </trkpt>
      <trkpt lat="44.86634" lon="6.63823">
        <ele>1536</ele>
        <time>2019-08-18T23:05:58Z</time>
      </trkpt>
      <trkpt lat="44.86626" lon="6.63844">
        <ele>1541</ele>
        <time>2019-08-18T23:06:21Z</time>
      </trkpt>
      <trkpt lat="44.86603" lon="6.63878">
        <ele>1552</ele>
        <time>2019-08-18T23:07:05Z</time>
      </trkpt>
      <trkpt lat="44.8658" lon="6.63911">
        <ele>1563</ele>
        <time>2019-08-18T23:07:49Z</time>
      </trkpt>
      <trkpt lat="44.86587" lon="6.63944">
        <ele>1562</ele>
        <time>2019-08-18T23:08:22Z</time>
      </trkpt>
      <trkpt lat="44.86587" lon="6.6399">
        <ele>1563</ele>
        <time>2019-08-18T23:09:05Z</time>
      </trkpt>
      <trkpt lat="44.86564" lon="6.64035">
        <ele>1571</ele>
        <time>2019-08-18T23:09:58Z</time>
      </trkpt>
      <trkpt lat="44.86541" lon="6.64081">
        <ele>1578</ele>
        <time>2019-08-18T23:10:51Z</time>
      </trkpt>
      <trkpt lat="44.86439" lon="6.64271">
        <ele>1585</ele>
        <time>2019-08-18T23:14:36Z</time>
      </trkpt>
      <trkpt lat="44.86413" lon="6.64319">
        <ele>1582</ele>
        <time>2019-08-18T23:15:34Z</time>
      </trkpt>
      <trkpt lat="44.86358" lon="6.64379">
        <ele>1591</ele>
        <time>2019-08-18T23:17:06Z</time>
      </trkpt>
      <trkpt lat="44.86331" lon="6.64409">
        <ele>1594</ele>
        <time>2019-08-18T23:17:52Z</time>
      </trkpt>
      <trkpt lat="44.86309" lon="6.64441">
        <ele>1596</ele>
        <time>2019-08-18T23:18:34Z</time>
      </trkpt>
      <trkpt lat="44.86287" lon="6.64473">
        <ele>1601</ele>
        <time>2019-08-18T23:19:16Z</time>
      </trkpt>
      <trkpt lat="44.86287" lon="6.64512">
        <ele>1592</ele>
        <time>2019-08-18T23:19:53Z</time>
      </trkpt>
      <trkpt lat="44.8624" lon="6.64595">
        <ele>1602</ele>
        <time>2019-08-18T23:21:34Z</time>
      </trkpt>
      <trkpt lat="44.86217" lon="6.64623">
        <ele>1607</ele>
        <time>2019-08-18T23:22:14Z</time>
      </trkpt>
      <trkpt lat="44.86193" lon="6.64651">
        <ele>1610</ele>
        <time>2019-08-18T23:22:56Z</time>
      </trkpt>
      <trkpt lat="44.8617" lon="6.64679">
        <ele>1611</ele>
        <time>2019-08-18T23:23:36Z</time>
      </trkpt>
      <trkpt lat="44.8611" lon="6.64707">
        <ele>1622</ele>
        <time>2019-08-18T23:25:01Z</time>
      </trkpt>
      <trkpt lat="44.8608" lon="6.6472">
        <ele>1627</ele>
        <time>2019-08-18T23:25:43Z</time>
      </trkpt>
      <trkpt lat="44.86062" lon="6.64755">
        <ele>1621</ele>
        <time>2019-08-18T23:26:24Z</time>
      </trkpt>
      <trkpt lat="44.86043" lon="6.64789">
        <ele>1618</ele>
        <time>2019-08-18T23:27:05Z</time>
      </trkpt>
      <trkpt lat="44.86015" lon="6.64799">
        <ele>1625</ele>
        <time>2019-08-18T23:27:43Z</time>
      </trkpt>
      <trkpt lat="44.85989" lon="6.64823">
        <ele>1630</ele>
        <time>2019-08-18T23:28:25Z</time>
      </trkpt>
      <trkpt lat="44.85964" lon="6.64847">
        <ele>1636</ele>
        <time>2019-08-18T23:29:05Z</time>
      </trkpt>
      <trkpt lat="44.85954" lon="6.64883">
        <ele>1630</ele>
        <time>2019-08-18T23:29:41Z</time>
      </trkpt>
      <trkpt lat="44.85944" lon="6.6492">
        <ele>1624</ele>
        <time>2019-08-18T23:30:19Z</time>
      </trkpt>
      <trkpt lat="44.8592" lon="6.64934">
        <ele>1630</ele>
        <time>2019-08-18T23:30:54Z</time>
      </trkpt>
      <trkpt lat="44.85892" lon="6.64932">
        <ele>1639</ele>
        <time>2019-08-18T23:31:31Z</time>
      </trkpt>
      <trkpt lat="44.85865" lon="6.64931">
        <ele>1646</ele>
        <time>2019-08-18T23:32:07Z</time>
      </trkpt>
      <trkpt lat="44.85848" lon="6.64956">
        <ele>1644</ele>
        <time>2019-08-18T23:32:40Z</time>
      </trkpt>
      <trkpt lat="44.8583" lon="6.64982">
        <ele>1643</ele>
        <time>2019-08-18T23:33:14Z</time>
      </trkpt>
      <trkpt lat="44.85814" lon="6.65037">
        <ele>1639</ele>
        <time>2019-08-18T23:34:10Z</time>
      </trkpt>
      <trkpt lat="44.85792" lon="6.65076">
        <ele>1639</ele>
        <time>2019-08-18T23:34:58Z</time>
      </trkpt>
      <trkpt lat="44.8576" lon="6.65092">
        <ele>1645</ele>
        <time>2019-08-18T23:35:43Z</time>
      </trkpt>
      <trkpt lat="44.85727" lon="6.65108">
        <ele>1650</ele>
        <time>2019-08-18T23:36:29Z</time>
      </trkpt>
      <trkpt lat="44.85713" lon="6.6515">
        <ele>1641</ele>
        <time>2019-08-18T23:37:13Z</time>
      </trkpt>
      <trkpt lat="44.85692" lon="6.65168">
        <ele>1641</ele>
        <time>2019-08-18T23:37:46Z</time>
      </trkpt>
      <trkpt lat="44.85661" lon="6.65173">
        <ele>1648</ele>
        <time>2019-08-18T23:38:28Z</time>
      </trkpt>
      <trkpt lat="44.8563" lon="6.65177">
        <ele>1655</ele>
        <time>2019-08-18T23:39:09Z</time>
      </trkpt>
      <trkpt lat="44.85603" lon="6.65204">
        <ele>1654</ele>
        <time>2019-08-18T23:39:54Z</time>
      </trkpt>
      <trkpt lat="44.85575" lon="6.6523">
        <ele>1653</ele>
        <time>2019-08-18T23:40:38Z</time>
      </trkpt>
      <trkpt lat="44.85564" lon="6.65234">
        <ele>1655</ele>
        <time>2019-08-18T23:40:53Z</time>
      </trkpt>
      <trkpt lat="44.85552" lon="6.65237">
        <ele>1656</ele>
        <time>2019-08-18T23:41:10Z</time>
      </trkpt>
      <trkpt lat="44.85532" lon="6.65252">
        <ele>1656</ele>
        <time>2019-08-18T23:41:40Z</time>
      </trkpt>
      <trkpt lat="44.85512" lon="6.65267">
        <ele>1655</ele>
        <time>2019-08-18T23:42:10Z</time>
      </trkpt>
      <trkpt lat="44.8547" lon="6.65274">
        <ele>1661</ele>
        <time>2019-08-18T23:43:07Z</time>
      </trkpt>
      <trkpt lat="44.85429" lon="6.6528">
        <ele>1668</ele>
        <time>2019-08-18T23:44:02Z</time>
      </trkpt>
      <trkpt lat="44.85408" lon="6.65311">
        <ele>1662</ele>
        <time>2019-08-18T23:44:42Z</time>
      </trkpt>
      <trkpt lat="44.85386" lon="6.65342">
        <ele>1657</ele>
        <time>2019-08-18T23:45:24Z</time>
      </trkpt>
      <trkpt lat="44.8536" lon="6.65356">
        <ele>1659</ele>
        <time>2019-08-18T23:46:01Z</time>
      </trkpt>
      <trkpt lat="44.85334" lon="6.6537">
        <ele>1661</ele>
        <time>2019-08-18T23:46:38Z</time>
      </trkpt>
      <trkpt lat="44.8531" lon="6.65374">
        <ele>1666</ele>
        <time>2019-08-18T23:47:10Z</time>
      </trkpt>
      <trkpt lat="44.85286" lon="6.65379">
        <ele>1671</ele>
        <time>2019-08-18T23:47:43Z</time>
      </trkpt>
      <trkpt lat="44.85266" lon="6.65427">
        <ele>1661</ele>
        <time>2019-08-18T23:48:35Z</time>
      </trkpt>
      <trkpt lat="44.85247" lon="6.65475">
        <ele>1656</ele>
        <time>2019-08-18T23:49:27Z</time>
      </trkpt>
      <trkpt lat="44.85236" lon="6.65489">
        <ele>1654</ele>
        <time>2019-08-18T23:49:47Z</time>
      </trkpt>
      <trkpt lat="44.85223" lon="6.65498">
        <ele>1654</ele>
        <time>2019-08-18T23:50:06Z</time>
      </trkpt>
      <trkpt lat="44.85194" lon="6.65506">
        <ele>1659</ele>
        <time>2019-08-18T23:50:46Z</time>
      </trkpt>
      <trkpt lat="44.85159" lon="6.65494">
        <ele>1661</ele>
        <time>2019-08-18T23:51:34Z</time>
      </trkpt>
      <trkpt lat="44.85124" lon="6.65482">
        <ele>1667</ele>
        <time>2019-08-18T23:52:22Z</time>
      </trkpt>
      <trkpt lat="44.8505" lon="6.65522">
        <ele>1678</ele>
        <time>2019-08-18T23:54:08Z</time>
      </trkpt>
      <trkpt lat="44.85033" lon="6.65532">
        <ele>1679</ele>
        <time>2019-08-18T23:54:32Z</time>
      </trkpt>
      <trkpt lat="44.85009" lon="6.65538">
        <ele>1679</ele>
        <time>2019-08-18T23:55:05Z</time>
      </trkpt>
      <trkpt lat="44.84985" lon="6.6555">
        <ele>1680</ele>
        <time>2019-08-18T23:55:39Z</time>
      </trkpt>
      <trkpt lat="44.84934" lon="6.65622">
        <ele>1685</ele>
        <time>2019-08-18T23:57:15Z</time>
      </trkpt>
      <trkpt lat="44.84909" lon="6.65658">
        <ele>1682</ele>
        <time>2019-08-18T23:58:03Z</time>
      </trkpt>
      <trkpt lat="44.84884" lon="6.65677">
        <ele>1685</ele>
        <time>2019-08-18T23:58:41Z</time>
      </trkpt>
      <trkpt lat="44.84858" lon="6.65696">
        <ele>1688</ele>
        <time>2019-08-18T23:59:20Z</time>
      </trkpt>
      <trkpt lat="44.84832" lon="6.65705">
        <ele>1689</ele>
        <time>2019-08-18T23:59:55Z</time>
      </trkpt>
      <trkpt lat="44.84793" lon="6.65708">
        <ele>1692</ele>
        <time>2019-08-19T00:00:47Z</time>
      </trkpt>
      <trkpt lat="44.84768" lon="6.65722">
        <ele>1693</ele>
        <time>2019-08-19T00:01:23Z</time>
      </trkpt>
      <trkpt lat="44.84744" lon="6.65736">
        <ele>1694</ele>
        <time>2019-08-19T00:01:58Z</time>
      </trkpt>
      <trkpt lat="44.84707" lon="6.65744">
        <ele>1700</ele>
        <time>2019-08-19T00:02:48Z</time>
      </trkpt>
      <trkpt lat="44.8467" lon="6.65751">
        <ele>1706</ele>
        <time>2019-08-19T00:03:38Z</time>
      </trkpt>
      <trkpt lat="44.84652" lon="6.6577">
        <ele>1712</ele>
        <time>2019-08-19T00:04:08Z</time>
      </trkpt>
      <trkpt lat="44.84633" lon="6.65789">
        <ele>1716</ele>
        <time>2019-08-19T00:04:39Z</time>
      </trkpt>
      <trkpt lat="44.84587" lon="6.65848">
        <ele>1716</ele>
        <time>2019-08-19T00:06:02Z</time>
      </trkpt>
      <trkpt lat="44.84564" lon="6.65877">
        <ele>1719</ele>
        <time>2019-08-19T00:06:43Z</time>
      </trkpt>
      <trkpt lat="44.84537" lon="6.65888">
        <ele>1719</ele>
        <time>2019-08-19T00:07:21Z</time>
      </trkpt>
      <trkpt lat="44.8451" lon="6.65899">
        <ele>1718</ele>
        <time>2019-08-19T00:07:58Z</time>
      </trkpt>
      <trkpt lat="44.84502" lon="6.65913">
        <ele>1715</ele>
        <time>2019-08-19T00:08:15Z</time>
      </trkpt>
      <trkpt lat="44.84492" lon="6.65932">
        <ele>1718</ele>
        <time>2019-08-19T00:08:37Z</time>
      </trkpt>
      <trkpt lat="44.84464" lon="6.65953">
        <ele>1724</ele>
        <time>2019-08-19T00:09:20Z</time>
      </trkpt>
      <trkpt lat="44.84437" lon="6.65975">
        <ele>1726</ele>
        <time>2019-08-19T00:10:01Z</time>
      </trkpt>
      <trkpt lat="44.84404" lon="6.65992">
        <ele>1726</ele>
        <time>2019-08-19T00:10:48Z</time>
      </trkpt>
      <trkpt lat="44.84376" lon="6.66017">
        <ele>1727</ele>
        <time>2019-08-19T00:11:32Z</time>
      </trkpt>
      <trkpt lat="44.84376" lon="6.66017">
        <ele>1727</ele>
        <time>2019-08-19T00:11:32Z</time>
      </trkpt>
      <trkpt lat="44.8435" lon="6.66018">
        <ele>1727</ele>
        <time>2019-08-19T00:12:07Z</time>
      </trkpt>
      <trkpt lat="44.84337" lon="6.66027">
        <ele>1727</ele>
        <time>2019-08-19T00:12:27Z</time>
      </trkpt>
      <trkpt lat="44.84324" lon="6.66032">
        <ele>1728</ele>
        <time>2019-08-19T00:12:44Z</time>
      </trkpt>
      <trkpt lat="44.84318" lon="6.66031">
        <ele>1729</ele>
        <time>2019-08-19T00:12:53Z</time>
      </trkpt>
      <trkpt lat="44.84299" lon="6.66012">
        <ele>1729</ele>
        <time>2019-08-19T00:13:24Z</time>
      </trkpt>
      <trkpt lat="44.84272" lon="6.66006">
        <ele>1731</ele>
        <time>2019-08-19T00:14:00Z</time>
      </trkpt>
      <trkpt lat="44.84249" lon="6.66004">
        <ele>1733</ele>
        <time>2019-08-19T00:14:31Z</time>
      </trkpt>
      <trkpt lat="44.84225" lon="6.66002">
        <ele>1735</ele>
        <time>2019-08-19T00:15:03Z</time>
      </trkpt>
      <trkpt lat="44.84196" lon="6.66013">
        <ele>1737</ele>
        <time>2019-08-19T00:15:43Z</time>
      </trkpt>
      <trkpt lat="44.84165" lon="6.66017">
        <ele>1739</ele>
        <time>2019-08-19T00:16:25Z</time>
      </trkpt>
      <trkpt lat="44.84165" lon="6.66058">
        <ele>1739</ele>
        <time>2019-08-19T00:17:03Z</time>
      </trkpt>
      <trkpt lat="44.84135" lon="6.66088">
        <ele>1743</ele>
        <time>2019-08-19T00:17:52Z</time>
      </trkpt>
      <trkpt lat="44.84106" lon="6.66118">
        <ele>1751</ele>
        <time>2019-08-19T00:18:40Z</time>
      </trkpt>
      <trkpt lat="44.84098" lon="6.66284">
        <ele>1778</ele>
        <time>2019-08-19T00:21:18Z</time>
      </trkpt>
      <trkpt lat="44.84095" lon="6.6634">
        <ele>1784</ele>
        <time>2019-08-19T00:22:11Z</time>
      </trkpt>
      <trkpt lat="44.84078" lon="6.66397">
        <ele>1793</ele>
        <time>2019-08-19T00:23:10Z</time>
      </trkpt>
      <trkpt lat="44.84061" lon="6.66453">
        <ele>1808</ele>
        <time>2019-08-19T00:24:07Z</time>
      </trkpt>
      <trkpt lat="44.83995" lon="6.66574">
        <ele>1833</ele>
        <time>2019-08-19T00:26:32Z</time>
      </trkpt>
      <trkpt lat="44.83973" lon="6.66615">
        <ele>1847</ele>
        <time>2019-08-19T00:27:20Z</time>
      </trkpt>
      <trkpt lat="44.83956" lon="6.66637">
        <ele>1855</ele>
        <time>2019-08-19T00:27:51Z</time>
      </trkpt>
      <trkpt lat="44.83939" lon="6.6666">
        <ele>1860</ele>
        <time>2019-08-19T00:28:22Z</time>
      </trkpt>
      <trkpt lat="44.83928" lon="6.66689">
        <ele>1862</ele>
        <time>2019-08-19T00:28:54Z</time>
      </trkpt>
      <trkpt lat="44.83917" lon="6.66718">
        <ele>1862</ele>
        <time>2019-08-19T00:29:25Z</time>
      </trkpt>
      <trkpt lat="44.83858" lon="6.66796">
        <ele>1886</ele>
        <time>2019-08-19T00:31:13Z</time>
      </trkpt>
      <trkpt lat="44.83829" lon="6.66834">
        <ele>1891</ele>
        <time>2019-08-19T00:32:05Z</time>
      </trkpt>
      <trkpt lat="44.83771" lon="6.66912">
        <ele>1905</ele>
        <time>2019-08-19T00:33:52Z</time>
      </trkpt>
      <trkpt lat="44.83742" lon="6.66951">
        <ele>1913</ele>
        <time>2019-08-19T00:34:46Z</time>
      </trkpt>
      <trkpt lat="44.83705" lon="6.66978">
        <ele>1929</ele>
        <time>2019-08-19T00:35:41Z</time>
      </trkpt>
      <trkpt lat="44.83631" lon="6.6703">
        <ele>1955</ele>
        <time>2019-08-19T00:37:32Z</time>
      </trkpt>
      <trkpt lat="44.83595" lon="6.67057">
        <ele>1968</ele>
        <time>2019-08-19T00:38:26Z</time>
      </trkpt>
      <trkpt lat="44.83589" lon="6.6708">
        <ele>1968</ele>
        <time>2019-08-19T00:38:49Z</time>
      </trkpt>
      <trkpt lat="44.83479" lon="6.67172">
        <ele>1984</ele>
        <time>2019-08-19T00:41:40Z</time>
      </trkpt>
      <trkpt lat="44.83442" lon="6.67203">
        <ele>1989</ele>
        <time>2019-08-19T00:42:38Z</time>
      </trkpt>
      <trkpt lat="44.83369" lon="6.6721">
        <ele>1998</ele>
        <time>2019-08-19T00:44:15Z</time>
      </trkpt>
      <trkpt lat="44.83332" lon="6.67213">
        <ele>2003</ele>
        <time>2019-08-19T00:45:05Z</time>
      </trkpt>
      <trkpt lat="44.83131" lon="6.67342">
        <ele>2033</ele>
        <time>2019-08-19T00:49:59Z</time>
      </trkpt>
      <trkpt lat="44.83094" lon="6.67366">
        <ele>2042</ele>
        <time>2019-08-19T00:50:54Z</time>
      </trkpt>
      <trkpt lat="44.82983" lon="6.6744">
        <ele>2062</ele>
        <time>2019-08-19T00:53:38Z</time>
      </trkpt>
      <trkpt lat="44.82946" lon="6.67464">
        <ele>2070</ele>
        <time>2019-08-19T00:54:32Z</time>
      </trkpt>
      <trkpt lat="44.82926" lon="6.67489">
        <ele>2072</ele>
        <time>2019-08-19T00:55:08Z</time>
      </trkpt>
      <trkpt lat="44.82905" lon="6.67513">
        <ele>2076</ele>
        <time>2019-08-19T00:55:44Z</time>
      </trkpt>
      <trkpt lat="44.82799" lon="6.6758">
        <ele>2093</ele>
        <time>2019-08-19T00:58:19Z</time>
      </trkpt>
      <trkpt lat="44.82763" lon="6.67602">
        <ele>2104</ele>
        <time>2019-08-19T00:59:11Z</time>
      </trkpt>
      <trkpt lat="44.82761" lon="6.67607">
        <ele>2104</ele>
        <time>2019-08-19T00:59:16Z</time>
      </trkpt>
      <trkpt lat="44.82761" lon="6.67616">
        <ele>2104</ele>
        <time>2019-08-19T00:59:25Z</time>
      </trkpt>
      <trkpt lat="44.82799" lon="6.67669">
        <ele>2101</ele>
        <time>2019-08-19T01:00:36Z</time>
      </trkpt>
      <trkpt lat="44.82814" lon="6.67703">
        <ele>2105</ele>
        <time>2019-08-19T01:01:14Z</time>
      </trkpt>
      <trkpt lat="44.82823" lon="6.6771">
        <ele>2106</ele>
        <time>2019-08-19T01:01:28Z</time>
      </trkpt>
      <trkpt lat="44.82834" lon="6.67717">
        <ele>2106</ele>
        <time>2019-08-19T01:01:44Z</time>
      </trkpt>
      <trkpt lat="44.8283" lon="6.67729">
        <ele>2108</ele>
        <time>2019-08-19T01:01:57Z</time>
      </trkpt>
      <trkpt lat="44.82808" lon="6.67739">
        <ele>2111</ele>
        <time>2019-08-19T01:02:27Z</time>
      </trkpt>
      <trkpt lat="44.8277" lon="6.67751">
        <ele>2115</ele>
        <time>2019-08-19T01:03:19Z</time>
      </trkpt>
      <trkpt lat="44.82757" lon="6.67753">
        <ele>2116</ele>
        <time>2019-08-19T01:03:37Z</time>
      </trkpt>
      <trkpt lat="44.82743" lon="6.67748">
        <ele>2116</ele>
        <time>2019-08-19T01:03:56Z</time>
      </trkpt>
      <trkpt lat="44.82733" lon="6.67764">
        <ele>2119</ele>
        <time>2019-08-19T01:04:16Z</time>
      </trkpt>
      <trkpt lat="44.82714" lon="6.67773">
        <ele>2122</ele>
        <time>2019-08-19T01:04:43Z</time>
      </trkpt>
      <trkpt lat="44.827" lon="6.67783">
        <ele>2124</ele>
        <time>2019-08-19T01:05:04Z</time>
      </trkpt>
      <trkpt lat="44.8269" lon="6.67785">
        <ele>2125</ele>
        <time>2019-08-19T01:05:17Z</time>
      </trkpt>
      <trkpt lat="44.82669" lon="6.67794">
        <ele>2128</ele>
        <time>2019-08-19T01:05:47Z</time>
      </trkpt>
      <trkpt lat="44.82653" lon="6.67805">
        <ele>2130</ele>
        <time>2019-08-19T01:06:10Z</time>
      </trkpt>
      <trkpt lat="44.82607" lon="6.67816">
        <ele>2134</ele>
        <time>2019-08-19T01:07:13Z</time>
      </trkpt>
      <trkpt lat="44.82597" lon="6.6782">
        <ele>2135</ele>
        <time>2019-08-19T01:07:27Z</time>
      </trkpt>
      <trkpt lat="44.82573" lon="6.67811">
        <ele>2136</ele>
        <time>2019-08-19T01:08:00Z</time>
      </trkpt>
      <trkpt lat="44.82564" lon="6.67811">
        <ele>2137</ele>
        <time>2019-08-19T01:08:12Z</time>
      </trkpt>
      <trkpt lat="44.82556" lon="6.67841">
        <ele>2140</ele>
        <time>2019-08-19T01:08:42Z</time>
      </trkpt>
      <trkpt lat="44.82549" lon="6.67852">
        <ele>2142</ele>
        <time>2019-08-19T01:08:56Z</time>
      </trkpt>
      <trkpt lat="44.82532" lon="6.6785">
        <ele>2144</ele>
        <time>2019-08-19T01:09:19Z</time>
      </trkpt>
      <trkpt lat="44.82524" lon="6.67841">
        <ele>2143</ele>
        <time>2019-08-19T01:09:32Z</time>
      </trkpt>
      <trkpt lat="44.82515" lon="6.67827">
        <ele>2143</ele>
        <time>2019-08-19T01:09:50Z</time>
      </trkpt>
      <trkpt lat="44.82508" lon="6.67827">
        <ele>2144</ele>
        <time>2019-08-19T01:10:00Z</time>
      </trkpt>
      <trkpt lat="44.825" lon="6.67838">
        <ele>2146</ele>
        <time>2019-08-19T01:10:15Z</time>
      </trkpt>
      <trkpt lat="44.82493" lon="6.6786">
        <ele>2149</ele>
        <time>2019-08-19T01:10:37Z</time>
      </trkpt>
      <trkpt lat="44.82483" lon="6.67871">
        <ele>2151</ele>
        <time>2019-08-19T01:10:54Z</time>
      </trkpt>
      <trkpt lat="44.82469" lon="6.67863">
        <ele>2152</ele>
        <time>2019-08-19T01:11:15Z</time>
      </trkpt>
      <trkpt lat="44.82454" lon="6.67851">
        <ele>2153</ele>
        <time>2019-08-19T01:11:38Z</time>
      </trkpt>
      <trkpt lat="44.82443" lon="6.67852">
        <ele>2155</ele>
        <time>2019-08-19T01:11:52Z</time>
      </trkpt>
      <trkpt lat="44.8243" lon="6.67865">
        <ele>2158</ele>
        <time>2019-08-19T01:12:14Z</time>
      </trkpt>
      <trkpt lat="44.82423" lon="6.67877">
        <ele>2160</ele>
        <time>2019-08-19T01:12:28Z</time>
      </trkpt>
      <trkpt lat="44.82418" lon="6.67878">
        <ele>2161</ele>
        <time>2019-08-19T01:12:35Z</time>
      </trkpt>
      <trkpt lat="44.82404" lon="6.67855">
        <ele>2159</ele>
        <time>2019-08-19T01:13:04Z</time>
      </trkpt>
      <trkpt lat="44.82398" lon="6.67852">
        <ele>2160</ele>
        <time>2019-08-19T01:13:12Z</time>
      </trkpt>
      <trkpt lat="44.8239" lon="6.67857">
        <ele>2161</ele>
        <time>2019-08-19T01:13:24Z</time>
      </trkpt>
      <trkpt lat="44.82387" lon="6.67879">
        <ele>2163</ele>
        <time>2019-08-19T01:13:45Z</time>
      </trkpt>
      <trkpt lat="44.8239" lon="6.67893">
        <ele>2165</ele>
        <time>2019-08-19T01:13:59Z</time>
      </trkpt>
      <trkpt lat="44.82398" lon="6.67918">
        <ele>2167</ele>
        <time>2019-08-19T01:14:25Z</time>
      </trkpt>
      <trkpt lat="44.82399" lon="6.67936">
        <ele>2170</ele>
        <time>2019-08-19T01:14:42Z</time>
      </trkpt>
      <trkpt lat="44.82393" lon="6.67951">
        <ele>2173</ele>
        <time>2019-08-19T01:14:58Z</time>
      </trkpt>
      <trkpt lat="44.82385" lon="6.67959">
        <ele>2175</ele>
        <time>2019-08-19T01:15:11Z</time>
      </trkpt>
      <trkpt lat="44.82374" lon="6.67957">
        <ele>2176</ele>
        <time>2019-08-19T01:15:26Z</time>
      </trkpt>
      <trkpt lat="44.8235" lon="6.67945">
        <ele>2175</ele>
        <time>2019-08-19T01:16:00Z</time>
      </trkpt>
      <trkpt lat="44.82331" lon="6.6794">
        <ele>2176</ele>
        <time>2019-08-19T01:16:26Z</time>
      </trkpt>
      <trkpt lat="44.82304" lon="6.67944">
        <ele>2180</ele>
        <time>2019-08-19T01:17:02Z</time>
      </trkpt>
      <trkpt lat="44.82262" lon="6.67957">
        <ele>2187</ele>
        <time>2019-08-19T01:18:00Z</time>
      </trkpt>
      <trkpt lat="44.8223" lon="6.67984">
        <ele>2193</ele>
        <time>2019-08-19T01:18:49Z</time>
      </trkpt>
      <trkpt lat="44.82198" lon="6.68003">
        <ele>2196</ele>
        <time>2019-08-19T01:19:36Z</time>
      </trkpt>
      <trkpt lat="44.82187" lon="6.68006">
        <ele>2197</ele>
        <time>2019-08-19T01:19:51Z</time>
      </trkpt>
      <trkpt lat="44.82171" lon="6.67999">
        <ele>2197</ele>
        <time>2019-08-19T01:20:13Z</time>
      </trkpt>
      <trkpt lat="44.82142" lon="6.67994">
        <ele>2199</ele>
        <time>2019-08-19T01:20:52Z</time>
      </trkpt>
      <trkpt lat="44.82116" lon="6.67993">
        <ele>2202</ele>
        <time>2019-08-19T01:21:27Z</time>
      </trkpt>
      <trkpt lat="44.82101" lon="6.68004">
        <ele>2205</ele>
        <time>2019-08-19T01:21:49Z</time>
      </trkpt>
      <trkpt lat="44.82084" lon="6.68011">
        <ele>2208</ele>
        <time>2019-08-19T01:22:13Z</time>
      </trkpt>
      <trkpt lat="44.82068" lon="6.68026">
        <ele>2211</ele>
        <time>2019-08-19T01:22:38Z</time>
      </trkpt>
      <trkpt lat="44.81991" lon="6.68048">
        <ele>2219</ele>
        <time>2019-08-19T01:24:23Z</time>
      </trkpt>
      <trkpt lat="44.81952" lon="6.68059">
        <ele>2226</ele>
        <time>2019-08-19T01:25:16Z</time>
      </trkpt>
      <trkpt lat="44.81927" lon="6.68097">
        <ele>2234</ele>
        <time>2019-08-19T01:26:05Z</time>
      </trkpt>
      <trkpt lat="44.81902" lon="6.68134">
        <ele>2242</ele>
        <time>2019-08-19T01:26:54Z</time>
      </trkpt>
      <trkpt lat="44.81801" lon="6.68222">
        <ele>2269</ele>
        <time>2019-08-19T01:29:32Z</time>
      </trkpt>
      <trkpt lat="44.81768" lon="6.68251">
        <ele>2276</ele>
        <time>2019-08-19T01:30:24Z</time>
      </trkpt>
      <trkpt lat="44.81735" lon="6.68335">
        <ele>2293</ele>
        <time>2019-08-19T01:31:55Z</time>
      </trkpt>
      <trkpt lat="44.81718" lon="6.68377">
        <ele>2303</ele>
        <time>2019-08-19T01:32:41Z</time>
      </trkpt>
      <trkpt lat="44.81664" lon="6.68453">
        <ele>2319</ele>
        <time>2019-08-19T01:34:23Z</time>
      </trkpt>
      <trkpt lat="44.81637" lon="6.68492">
        <ele>2329</ele>
        <time>2019-08-19T01:35:14Z</time>
      </trkpt>
      <trkpt lat="44.81639" lon="6.68509">
        <ele>2332</ele>
        <time>2019-08-19T01:35:31Z</time>
      </trkpt>
      <trkpt lat="44.81631" lon="6.68529">
        <ele>2336</ele>
        <time>2019-08-19T01:35:52Z</time>
      </trkpt>
      <trkpt lat="44.81639" lon="6.68546">
        <ele>2338</ele>
        <time>2019-08-19T01:36:12Z</time>
      </trkpt>
      <trkpt lat="44.81627" lon="6.68604">
        <ele>2348</ele>
        <time>2019-08-19T01:37:09Z</time>
      </trkpt>
      <trkpt lat="44.81614" lon="6.68662">
        <ele>2359</ele>
        <time>2019-08-19T01:38:06Z</time>
      </trkpt>
      <trkpt lat="44.81597" lon="6.68696">
        <ele>2368</ele>
        <time>2019-08-19T01:38:46Z</time>
      </trkpt>
      <trkpt lat="44.81579" lon="6.6873">
        <ele>2378</ele>
        <time>2019-08-19T01:39:26Z</time>
      </trkpt>
      <trkpt lat="44.81499" lon="6.68756">
        <ele>2391</ele>
        <time>2019-08-19T01:41:15Z</time>
      </trkpt>
      <trkpt lat="44.81465" lon="6.68758">
        <ele>2401</ele>
        <time>2019-08-19T01:42:01Z</time>
      </trkpt>
      <trkpt lat="44.81449" lon="6.68748">
        <ele>2402</ele>
        <time>2019-08-19T01:42:24Z</time>
      </trkpt>
      <trkpt lat="44.81406" lon="6.68754">
        <ele>2418</ele>
        <time>2019-08-19T01:43:22Z</time>
      </trkpt>
      <trkpt lat="44.81363" lon="6.6876">
        <ele>2436</ele>
        <time>2019-08-19T01:44:20Z</time>
      </trkpt>
      <trkpt lat="44.81339" lon="6.68742">
        <ele>2441</ele>
        <time>2019-08-19T01:44:56Z</time>
      </trkpt>
      <trkpt lat="44.81315" lon="6.68724">
        <ele>2448</ele>
        <time>2019-08-19T01:45:32Z</time>
      </trkpt>
      <trkpt lat="44.81295" lon="6.68756">
        <ele>2458</ele>
        <time>2019-08-19T01:46:12Z</time>
      </trkpt>
      <trkpt lat="44.81272" lon="6.68765">
        <ele>2467</ele>
        <time>2019-08-19T01:46:44Z</time>
      </trkpt>
      <trkpt lat="44.81249" lon="6.68775">
        <ele>2474</ele>
        <time>2019-08-19T01:47:16Z</time>
      </trkpt>
      <trkpt lat="44.81229" lon="6.68798">
        <ele>2474</ele>
        <time>2019-08-19T01:47:51Z</time>
      </trkpt>
      <trkpt lat="44.81209" lon="6.68821">
        <ele>2469</ele>
        <time>2019-08-19T01:48:25Z</time>
      </trkpt>
      <trkpt lat="44.81194" lon="6.68863">
        <ele>2461</ele>
        <time>2019-08-19T01:49:10Z</time>
      </trkpt>
      <trkpt lat="44.81191" lon="6.68909">
        <ele>2457</ele>
        <time>2019-08-19T01:49:54Z</time>
      </trkpt>
      <trkpt lat="44.81187" lon="6.68954">
        <ele>2453</ele>
        <time>2019-08-19T01:50:37Z</time>
      </trkpt>
      <trkpt lat="44.81171" lon="6.68909">
        <ele>2446</ele>
        <time>2019-08-19T01:51:24Z</time>
      </trkpt>
      <trkpt lat="44.81163" lon="6.6893">
        <ele>2439</ele>
        <time>2019-08-19T01:51:47Z</time>
      </trkpt>
      <trkpt lat="44.81158" lon="6.68909">
        <ele>2438</ele>
        <time>2019-08-19T01:52:08Z</time>
      </trkpt>
      <trkpt lat="44.81142" lon="6.68958">
        <ele>2423</ele>
        <time>2019-08-19T01:52:59Z</time>
      </trkpt>
      <trkpt lat="44.81132" lon="6.68926">
        <ele>2420</ele>
        <time>2019-08-19T01:53:32Z</time>
      </trkpt>
      <trkpt lat="44.81121" lon="6.68895">
        <ele>2419</ele>
        <time>2019-08-19T01:54:05Z</time>
      </trkpt>
      <trkpt lat="44.81084" lon="6.68993">
        <ele>2383</ele>
        <time>2019-08-19T01:55:50Z</time>
      </trkpt>
      <trkpt lat="44.81069" lon="6.69031">
        <ele>2380</ele>
        <time>2019-08-19T01:56:31Z</time>
      </trkpt>
      <trkpt lat="44.8105" lon="6.69054">
        <ele>2374</ele>
        <time>2019-08-19T01:57:04Z</time>
      </trkpt>
      <trkpt lat="44.8103" lon="6.69078">
        <ele>2367</ele>
        <time>2019-08-19T01:57:39Z</time>
      </trkpt>
      <trkpt lat="44.80996" lon="6.69095">
        <ele>2354</ele>
        <time>2019-08-19T01:58:28Z</time>
      </trkpt>
      <trkpt lat="44.80963" lon="6.69112">
        <ele>2344</ele>
        <time>2019-08-19T01:59:14Z</time>
      </trkpt>
      <trkpt lat="44.80943" lon="6.69152">
        <ele>2337</ele>
        <time>2019-08-19T02:00:01Z</time>
      </trkpt>
      <trkpt lat="44.80923" lon="6.69192">
        <ele>2330</ele>
        <time>2019-08-19T02:00:47Z</time>
      </trkpt>
      <trkpt lat="44.80899" lon="6.6922">
        <ele>2323</ele>
        <time>2019-08-19T02:01:29Z</time>
      </trkpt>
      <trkpt lat="44.80876" lon="6.69248">
        <ele>2315</ele>
        <time>2019-08-19T02:02:09Z</time>
      </trkpt>
      <trkpt lat="44.80864" lon="6.69231">
        <ele>2311</ele>
        <time>2019-08-19T02:02:32Z</time>
      </trkpt>
      <trkpt lat="44.80827" lon="6.6926">
        <ele>2298</ele>
        <time>2019-08-19T02:03:28Z</time>
      </trkpt>
      <trkpt lat="44.80786" lon="6.69283">
        <ele>2288</ele>
        <time>2019-08-19T02:04:27Z</time>
      </trkpt>
      <trkpt lat="44.80745" lon="6.69305">
        <ele>2276</ele>
        <time>2019-08-19T02:05:26Z</time>
      </trkpt>
      <trkpt lat="44.80701" lon="6.69388">
        <ele>2266</ele>
        <time>2019-08-19T02:07:04Z</time>
      </trkpt>
      <trkpt lat="44.80679" lon="6.69417">
        <ele>2260</ele>
        <time>2019-08-19T02:07:44Z</time>
      </trkpt>
      <trkpt lat="44.80657" lon="6.69445">
        <ele>2251</ele>
        <time>2019-08-19T02:08:24Z</time>
      </trkpt>
      <trkpt lat="44.80636" lon="6.69467">
        <ele>2244</ele>
        <time>2019-08-19T02:08:59Z</time>
      </trkpt>
      <trkpt lat="44.80618" lon="6.69471">
        <ele>2238</ele>
        <time>2019-08-19T02:09:23Z</time>
      </trkpt>
      <trkpt lat="44.80584" lon="6.69473">
        <ele>2228</ele>
        <time>2019-08-19T02:10:08Z</time>
      </trkpt>
      <trkpt lat="44.80573" lon="6.695">
        <ele>2222</ele>
        <time>2019-08-19T02:10:38Z</time>
      </trkpt>
      <trkpt lat="44.80581" lon="6.69524">
        <ele>2224</ele>
        <time>2019-08-19T02:11:03Z</time>
      </trkpt>
      <trkpt lat="44.80593" lon="6.69569">
        <ele>2227</ele>
        <time>2019-08-19T02:11:48Z</time>
      </trkpt>
      <trkpt lat="44.80581" lon="6.69606">
        <ele>2228</ele>
        <time>2019-08-19T02:12:27Z</time>
      </trkpt>
      <trkpt lat="44.8056" lon="6.6962">
        <ele>2222</ele>
        <time>2019-08-19T02:12:58Z</time>
      </trkpt>
      <trkpt lat="44.80538" lon="6.69634">
        <ele>2215</ele>
        <time>2019-08-19T02:13:30Z</time>
      </trkpt>
      <trkpt lat="44.80537" lon="6.69623">
        <ele>2211</ele>
        <time>2019-08-19T02:13:41Z</time>
      </trkpt>
      <trkpt lat="44.80517" lon="6.69626">
        <ele>2202</ele>
        <time>2019-08-19T02:14:08Z</time>
      </trkpt>
      <trkpt lat="44.80505" lon="6.69614">
        <ele>2194</ele>
        <time>2019-08-19T02:14:27Z</time>
      </trkpt>
      <trkpt lat="44.80513" lon="6.69588">
        <ele>2192</ele>
        <time>2019-08-19T02:14:54Z</time>
      </trkpt>
      <trkpt lat="44.80493" lon="6.69566">
        <ele>2184</ele>
        <time>2019-08-19T02:15:28Z</time>
      </trkpt>
      <trkpt lat="44.80473" lon="6.69543">
        <ele>2177</ele>
        <time>2019-08-19T02:16:02Z</time>
      </trkpt>
      <trkpt lat="44.8047" lon="6.6958">
        <ele>2173</ele>
        <time>2019-08-19T02:16:38Z</time>
      </trkpt>
      <trkpt lat="44.80445" lon="6.69608">
        <ele>2166</ele>
        <time>2019-08-19T02:17:20Z</time>
      </trkpt>
      <trkpt lat="44.80421" lon="6.69636">
        <ele>2157</ele>
        <time>2019-08-19T02:18:02Z</time>
      </trkpt>
      <trkpt lat="44.80417" lon="6.69626">
        <ele>2155</ele>
        <time>2019-08-19T02:18:13Z</time>
      </trkpt>
      <trkpt lat="44.80397" lon="6.69639">
        <ele>2150</ele>
        <time>2019-08-19T02:18:42Z</time>
      </trkpt>
      <trkpt lat="44.80397" lon="6.69639">
        <ele>2150</ele>
        <time>2019-08-19T02:18:42Z</time>
      </trkpt>
      <trkpt lat="44.80391" lon="6.69655">
        <ele>2149</ele>
        <time>2019-08-19T02:18:59Z</time>
      </trkpt>
      <trkpt lat="44.80398" lon="6.69688">
        <ele>2149</ele>
        <time>2019-08-19T02:19:32Z</time>
      </trkpt>
      <trkpt lat="44.80401" lon="6.69729">
        <ele>2143</ele>
        <time>2019-08-19T02:20:11Z</time>
      </trkpt>
      <trkpt lat="44.80406" lon="6.69751">
        <ele>2140</ele>
        <time>2019-08-19T02:20:33Z</time>
      </trkpt>
      <trkpt lat="44.80422" lon="6.6977">
        <ele>2133</ele>
        <time>2019-08-19T02:21:01Z</time>
      </trkpt>
      <trkpt lat="44.80439" lon="6.69778">
        <ele>2141</ele>
        <time>2019-08-19T02:21:24Z</time>
      </trkpt>
      <trkpt lat="44.80462" lon="6.69782">
        <ele>2156</ele>
        <time>2019-08-19T02:21:55Z</time>
      </trkpt>
      <trkpt lat="44.80473" lon="6.69788">
        <ele>2161</ele>
        <time>2019-08-19T02:22:11Z</time>
      </trkpt>
      <trkpt lat="44.80492" lon="6.69806">
        <ele>2164</ele>
        <time>2019-08-19T02:22:42Z</time>
      </trkpt>
      <trkpt lat="44.80508" lon="6.69819">
        <ele>2172</ele>
        <time>2019-08-19T02:23:06Z</time>
      </trkpt>
      <trkpt lat="44.80534" lon="6.69853">
        <ele>2174</ele>
        <time>2019-08-19T02:23:54Z</time>
      </trkpt>
      <trkpt lat="44.80555" lon="6.69867">
        <ele>2177</ele>
        <time>2019-08-19T02:24:25Z</time>
      </trkpt>
      <trkpt lat="44.80568" lon="6.69884">
        <ele>2163</ele>
        <time>2019-08-19T02:24:48Z</time>
      </trkpt>
      <trkpt lat="44.80578" lon="6.69896">
        <ele>2151</ele>
        <time>2019-08-19T02:25:06Z</time>
      </trkpt>
      <trkpt lat="44.80587" lon="6.69911">
        <ele>2131</ele>
        <time>2019-08-19T02:25:24Z</time>
      </trkpt>
      <trkpt lat="44.80596" lon="6.69922">
        <ele>2125</ele>
        <time>2019-08-19T02:25:40Z</time>
      </trkpt>
      <trkpt lat="44.80601" lon="6.69942">
        <ele>2118</ele>
        <time>2019-08-19T02:26:00Z</time>
      </trkpt>
      <trkpt lat="44.80602" lon="6.69956">
        <ele>2111</ele>
        <time>2019-08-19T02:26:14Z</time>
      </trkpt>
      <trkpt lat="44.80608" lon="6.69984">
        <ele>2099</ele>
        <time>2019-08-19T02:26:41Z</time>
      </trkpt>
      <trkpt lat="44.80612" lon="6.70011">
        <ele>2091</ele>
        <time>2019-08-19T02:27:08Z</time>
      </trkpt>
      <trkpt lat="44.80613" lon="6.70044">
        <ele>2088</ele>
        <time>2019-08-19T02:27:39Z</time>
      </trkpt>
      <trkpt lat="44.80616" lon="6.70078">
        <ele>2085</ele>
        <time>2019-08-19T02:28:11Z</time>
      </trkpt>
      <trkpt lat="44.80618" lon="6.70092">
        <ele>2084</ele>
        <time>2019-08-19T02:28:25Z</time>
      </trkpt>
      <trkpt lat="44.80621" lon="6.70103">
        <ele>2083</ele>
        <time>2019-08-19T02:28:36Z</time>
      </trkpt>
      <trkpt lat="44.80619" lon="6.7011">
        <ele>2081</ele>
        <time>2019-08-19T02:28:43Z</time>
      </trkpt>
      <trkpt lat="44.80615" lon="6.70106">
        <ele>2080</ele>
        <time>2019-08-19T02:28:50Z</time>
      </trkpt>
      <trkpt lat="44.80611" lon="6.70095">
        <ele>2080</ele>
        <time>2019-08-19T02:29:01Z</time>
      </trkpt>
      <trkpt lat="44.80602" lon="6.70057">
        <ele>2081</ele>
        <time>2019-08-19T02:29:39Z</time>
      </trkpt>
      <trkpt lat="44.80587" lon="6.70005">
        <ele>2078</ele>
        <time>2019-08-19T02:30:32Z</time>
      </trkpt>
      <trkpt lat="44.8058" lon="6.69987">
        <ele>2082</ele>
        <time>2019-08-19T02:30:52Z</time>
      </trkpt>
      <trkpt lat="44.80575" lon="6.69987">
        <ele>2081</ele>
        <time>2019-08-19T02:30:59Z</time>
      </trkpt>
      <trkpt lat="44.80575" lon="6.69999">
        <ele>2075</ele>
        <time>2019-08-19T02:31:10Z</time>
      </trkpt>
      <trkpt lat="44.80581" lon="6.70018">
        <ele>2074</ele>
        <time>2019-08-19T02:31:30Z</time>
      </trkpt>
      <trkpt lat="44.80584" lon="6.70047">
        <ele>2072</ele>
        <time>2019-08-19T02:31:57Z</time>
      </trkpt>
      <trkpt lat="44.80585" lon="6.70098">
        <ele>2067</ele>
        <time>2019-08-19T02:32:46Z</time>
      </trkpt>
      <trkpt lat="44.8059" lon="6.70142">
        <ele>2062</ele>
        <time>2019-08-19T02:33:28Z</time>
      </trkpt>
      <trkpt lat="44.80591" lon="6.70201">
        <ele>2055</ele>
        <time>2019-08-19T02:34:24Z</time>
      </trkpt>
      <trkpt lat="44.80598" lon="6.70225">
        <ele>2055</ele>
        <time>2019-08-19T02:34:48Z</time>
      </trkpt>
      <trkpt lat="44.80621" lon="6.70251">
        <ele>2059</ele>
        <time>2019-08-19T02:35:28Z</time>
      </trkpt>
      <trkpt lat="44.80629" lon="6.70268">
        <ele>2056</ele>
        <time>2019-08-19T02:35:47Z</time>
      </trkpt>
      <trkpt lat="44.80639" lon="6.70298">
        <ele>2050</ele>
        <time>2019-08-19T02:36:18Z</time>
      </trkpt>
      <trkpt lat="44.8065" lon="6.70311">
        <ele>2049</ele>
        <time>2019-08-19T02:36:37Z</time>
      </trkpt>
      <trkpt lat="44.80664" lon="6.70333">
        <ele>2046</ele>
        <time>2019-08-19T02:37:05Z</time>
      </trkpt>
      <trkpt lat="44.80665" lon="6.70361">
        <ele>2041</ele>
        <time>2019-08-19T02:37:32Z</time>
      </trkpt>
      <trkpt lat="44.8066" lon="6.70379">
        <ele>2037</ele>
        <time>2019-08-19T02:37:50Z</time>
      </trkpt>
      <trkpt lat="44.80656" lon="6.70399">
        <ele>2031</ele>
        <time>2019-08-19T02:38:10Z</time>
      </trkpt>
      <trkpt lat="44.80649" lon="6.70447">
        <ele>2023</ele>
        <time>2019-08-19T02:38:56Z</time>
      </trkpt>
      <trkpt lat="44.80637" lon="6.70486">
        <ele>2016</ele>
        <time>2019-08-19T02:39:37Z</time>
      </trkpt>
      <trkpt lat="44.80626" lon="6.70528">
        <ele>2008</ele>
        <time>2019-08-19T02:40:19Z</time>
      </trkpt>
      <trkpt lat="44.80627" lon="6.70571">
        <ele>2006</ele>
        <time>2019-08-19T02:41:00Z</time>
      </trkpt>
      <trkpt lat="44.80639" lon="6.70622">
        <ele>2004</ele>
        <time>2019-08-19T02:41:51Z</time>
      </trkpt>
      <trkpt lat="44.80654" lon="6.70649">
        <ele>2006</ele>
        <time>2019-08-19T02:42:23Z</time>
      </trkpt>
      <trkpt lat="44.80665" lon="6.70665">
        <ele>2008</ele>
        <time>2019-08-19T02:42:44Z</time>
      </trkpt>
      <trkpt lat="44.80667" lon="6.70697">
        <ele>2006</ele>
        <time>2019-08-19T02:43:15Z</time>
      </trkpt>
      <trkpt lat="44.80661" lon="6.70713">
        <ele>2002</ele>
        <time>2019-08-19T02:43:32Z</time>
      </trkpt>
      <trkpt lat="44.80648" lon="6.70721">
        <ele>1998</ele>
        <time>2019-08-19T02:43:51Z</time>
      </trkpt>
      <trkpt lat="44.80631" lon="6.70737">
        <ele>1993</ele>
        <time>2019-08-19T02:44:18Z</time>
      </trkpt>
      <trkpt lat="44.80615" lon="6.70755">
        <ele>1990</ele>
        <time>2019-08-19T02:44:45Z</time>
      </trkpt>
      <trkpt lat="44.80601" lon="6.7076">
        <ele>1987</ele>
        <time>2019-08-19T02:45:05Z</time>
      </trkpt>
      <trkpt lat="44.80588" lon="6.70756">
        <ele>1984</ele>
        <time>2019-08-19T02:45:22Z</time>
      </trkpt>
      <trkpt lat="44.80587" lon="6.70743">
        <ele>1983</ele>
        <time>2019-08-19T02:45:35Z</time>
      </trkpt>
      <trkpt lat="44.80583" lon="6.70732">
        <ele>1981</ele>
        <time>2019-08-19T02:45:46Z</time>
      </trkpt>
      <trkpt lat="44.80575" lon="6.70733">
        <ele>1979</ele>
        <time>2019-08-19T02:45:57Z</time>
      </trkpt>
      <trkpt lat="44.80567" lon="6.70729">
        <ele>1977</ele>
        <time>2019-08-19T02:46:08Z</time>
      </trkpt>
      <trkpt lat="44.8056" lon="6.7073">
        <ele>1975</ele>
        <time>2019-08-19T02:46:18Z</time>
      </trkpt>
      <trkpt lat="44.80555" lon="6.70723">
        <ele>1973</ele>
        <time>2019-08-19T02:46:27Z</time>
      </trkpt>
      <trkpt lat="44.80554" lon="6.70704">
        <ele>1972</ele>
        <time>2019-08-19T02:46:45Z</time>
      </trkpt>
      <trkpt lat="44.80551" lon="6.70687">
        <ele>1970</ele>
        <time>2019-08-19T02:47:02Z</time>
      </trkpt>
      <trkpt lat="44.80543" lon="6.70678">
        <ele>1968</ele>
        <time>2019-08-19T02:47:16Z</time>
      </trkpt>
      <trkpt lat="44.80535" lon="6.70683">
        <ele>1966</ele>
        <time>2019-08-19T02:47:27Z</time>
      </trkpt>
      <trkpt lat="44.80524" lon="6.70709">
        <ele>1964</ele>
        <time>2019-08-19T02:47:56Z</time>
      </trkpt>
      <trkpt lat="44.80516" lon="6.70725">
        <ele>1962</ele>
        <time>2019-08-19T02:48:14Z</time>
      </trkpt>
      <trkpt lat="44.80504" lon="6.70743">
        <ele>1960</ele>
        <time>2019-08-19T02:48:38Z</time>
      </trkpt>
      <trkpt lat="44.80496" lon="6.70758">
        <ele>1958</ele>
        <time>2019-08-19T02:48:56Z</time>
      </trkpt>
      <trkpt lat="44.80491" lon="6.70777">
        <ele>1956</ele>
        <time>2019-08-19T02:49:15Z</time>
      </trkpt>
      <trkpt lat="44.80484" lon="6.70799">
        <ele>1954</ele>
        <time>2019-08-19T02:49:38Z</time>
      </trkpt>
      <trkpt lat="44.80476" lon="6.70805">
        <ele>1952</ele>
        <time>2019-08-19T02:49:50Z</time>
      </trkpt>
      <trkpt lat="44.80475" lon="6.7083">
        <ele>1952</ele>
        <time>2019-08-19T02:50:13Z</time>
      </trkpt>
      <trkpt lat="44.80472" lon="6.70851">
        <ele>1953</ele>
        <time>2019-08-19T02:50:34Z</time>
      </trkpt>
      <trkpt lat="44.80462" lon="6.70872">
        <ele>1952</ele>
        <time>2019-08-19T02:50:58Z</time>
      </trkpt>
      <trkpt lat="44.80446" lon="6.70877">
        <ele>1949</ele>
        <time>2019-08-19T02:51:19Z</time>
      </trkpt>
      <trkpt lat="44.80427" lon="6.70878">
        <ele>1944</ele>
        <time>2019-08-19T02:51:45Z</time>
      </trkpt>
      <trkpt lat="44.80426" lon="6.70879">
        <ele>1944</ele>
        <time>2019-08-19T02:51:46Z</time>
      </trkpt>
      <trkpt lat="44.80404" lon="6.70874">
        <ele>1939</ele>
        <time>2019-08-19T02:52:16Z</time>
      </trkpt>
      <trkpt lat="44.80385" lon="6.70874">
        <ele>1935</ele>
        <time>2019-08-19T02:52:42Z</time>
      </trkpt>
      <trkpt lat="44.80327" lon="6.7091">
        <ele>1926</ele>
        <time>2019-08-19T02:54:06Z</time>
      </trkpt>
      <trkpt lat="44.80298" lon="6.70928">
        <ele>1922</ele>
        <time>2019-08-19T02:54:48Z</time>
      </trkpt>
      <trkpt lat="44.80275" lon="6.70952">
        <ele>1919</ele>
        <time>2019-08-19T02:55:27Z</time>
      </trkpt>
      <trkpt lat="44.80272" lon="6.70958">
        <ele>1918</ele>
        <time>2019-08-19T02:55:34Z</time>
      </trkpt>
      <trkpt lat="44.80254" lon="6.70983">
        <ele>1916</ele>
        <time>2019-08-19T02:56:07Z</time>
      </trkpt>
      <trkpt lat="44.80239" lon="6.71021">
        <ele>1914</ele>
        <time>2019-08-19T02:56:48Z</time>
      </trkpt>
      <trkpt lat="44.80235" lon="6.71037">
        <ele>1913</ele>
        <time>2019-08-19T02:57:05Z</time>
      </trkpt>
      <trkpt lat="44.80209" lon="6.71066">
        <ele>1909</ele>
        <time>2019-08-19T02:57:49Z</time>
      </trkpt>
      <trkpt lat="44.80189" lon="6.711">
        <ele>1906</ele>
        <time>2019-08-19T02:58:31Z</time>
      </trkpt>
      <trkpt lat="44.80187" lon="6.71102">
        <ele>1905</ele>
        <time>2019-08-19T02:58:34Z</time>
      </trkpt>
      <trkpt lat="44.80164" lon="6.71126">
        <ele>1901</ele>
        <time>2019-08-19T02:59:12Z</time>
      </trkpt>
      <trkpt lat="44.80152" lon="6.71137">
        <ele>1899</ele>
        <time>2019-08-19T02:59:31Z</time>
      </trkpt>
      <trkpt lat="44.80126" lon="6.71161">
        <ele>1895</ele>
        <time>2019-08-19T03:00:13Z</time>
      </trkpt>
      <trkpt lat="44.80118" lon="6.71163">
        <ele>1894</ele>
        <time>2019-08-19T03:00:23Z</time>
      </trkpt>
      <trkpt lat="44.80099" lon="6.71168">
        <ele>1892</ele>
        <time>2019-08-19T03:00:49Z</time>
      </trkpt>
      <trkpt lat="44.80075" lon="6.71186">
        <ele>1887</ele>
        <time>2019-08-19T03:01:26Z</time>
      </trkpt>
      <trkpt lat="44.80069" lon="6.71191">
        <ele>1886</ele>
        <time>2019-08-19T03:01:35Z</time>
      </trkpt>
      <trkpt lat="44.80047" lon="6.7123">
        <ele>1881</ele>
        <time>2019-08-19T03:02:22Z</time>
      </trkpt>
      <trkpt lat="44.80035" lon="6.71261">
        <ele>1877</ele>
        <time>2019-08-19T03:02:55Z</time>
      </trkpt>
      <trkpt lat="44.80023" lon="6.71291">
        <ele>1872</ele>
        <time>2019-08-19T03:03:28Z</time>
      </trkpt>
      <trkpt lat="44.80022" lon="6.71297">
        <ele>1871</ele>
        <time>2019-08-19T03:03:34Z</time>
      </trkpt>
      <trkpt lat="44.80019" lon="6.7133">
        <ele>1866</ele>
        <time>2019-08-19T03:04:05Z</time>
      </trkpt>
      <trkpt lat="44.80018" lon="6.71369">
        <ele>1862</ele>
        <time>2019-08-19T03:04:42Z</time>
      </trkpt>
      <trkpt lat="44.80018" lon="6.71387">
        <ele>1860</ele>
        <time>2019-08-19T03:04:59Z</time>
      </trkpt>
      <trkpt lat="44.80009" lon="6.71412">
        <ele>1857</ele>
        <time>2019-08-19T03:05:26Z</time>
      </trkpt>
      <trkpt lat="44.79995" lon="6.71462">
        <ele>1853</ele>
        <time>2019-08-19T03:06:17Z</time>
      </trkpt>
      <trkpt lat="44.79981" lon="6.71513">
        <ele>1849</ele>
        <time>2019-08-19T03:07:09Z</time>
      </trkpt>
      <trkpt lat="44.79968" lon="6.71557">
        <ele>1846</ele>
        <time>2019-08-19T03:07:54Z</time>
      </trkpt>
      <trkpt lat="44.79956" lon="6.71594">
        <ele>1843</ele>
        <time>2019-08-19T03:08:32Z</time>
      </trkpt>
      <trkpt lat="44.79952" lon="6.71616">
        <ele>1842</ele>
        <time>2019-08-19T03:08:54Z</time>
      </trkpt>
      <trkpt lat="44.79951" lon="6.71619">
        <ele>1842</ele>
        <time>2019-08-19T03:08:57Z</time>
      </trkpt>
      <trkpt lat="44.79949" lon="6.71653">
        <ele>1840</ele>
        <time>2019-08-19T03:09:29Z</time>
      </trkpt>
      <trkpt lat="44.79942" lon="6.71704">
        <ele>1841</ele>
        <time>2019-08-19T03:10:18Z</time>
      </trkpt>
      <trkpt lat="44.79936" lon="6.71717">
        <ele>1841</ele>
        <time>2019-08-19T03:10:33Z</time>
      </trkpt>
      <trkpt lat="44.79927" lon="6.71737">
        <ele>1840</ele>
        <time>2019-08-19T03:10:56Z</time>
      </trkpt>
      <trkpt lat="44.79913" lon="6.71756">
        <ele>1838</ele>
        <time>2019-08-19T03:11:21Z</time>
      </trkpt>
      <trkpt lat="44.79887" lon="6.7179">
        <ele>1839</ele>
        <time>2019-08-19T03:12:09Z</time>
      </trkpt>
      <trkpt lat="44.79877" lon="6.71831">
        <ele>1839</ele>
        <time>2019-08-19T03:12:50Z</time>
      </trkpt>
      <trkpt lat="44.79867" lon="6.71858">
        <ele>1837</ele>
        <time>2019-08-19T03:13:19Z</time>
      </trkpt>
      <trkpt lat="44.79859" lon="6.71873">
        <ele>1836</ele>
        <time>2019-08-19T03:13:36Z</time>
      </trkpt>
      <trkpt lat="44.79857" lon="6.71887">
        <ele>1835</ele>
        <time>2019-08-19T03:13:50Z</time>
      </trkpt>
      <trkpt lat="44.7985" lon="6.71919">
        <ele>1833</ele>
        <time>2019-08-19T03:14:22Z</time>
      </trkpt>
      <trkpt lat="44.79848" lon="6.71955">
        <ele>1831</ele>
        <time>2019-08-19T03:14:56Z</time>
      </trkpt>
      <trkpt lat="44.79835" lon="6.72014">
        <ele>1828</ele>
        <time>2019-08-19T03:15:54Z</time>
      </trkpt>
      <trkpt lat="44.79822" lon="6.72035">
        <ele>1827</ele>
        <time>2019-08-19T03:16:21Z</time>
      </trkpt>
      <trkpt lat="44.79811" lon="6.72055">
        <ele>1826</ele>
        <time>2019-08-19T03:16:45Z</time>
      </trkpt>
      <trkpt lat="44.79798" lon="6.7207">
        <ele>1825</ele>
        <time>2019-08-19T03:17:07Z</time>
      </trkpt>
      <trkpt lat="44.79772" lon="6.72107">
        <ele>1825</ele>
        <time>2019-08-19T03:17:56Z</time>
      </trkpt>
      <trkpt lat="44.79743" lon="6.72132">
        <ele>1822</ele>
        <time>2019-08-19T03:18:42Z</time>
      </trkpt>
      <trkpt lat="44.79714" lon="6.72168">
        <ele>1819</ele>
        <time>2019-08-19T03:19:33Z</time>
      </trkpt>
      <trkpt lat="44.797" lon="6.72196">
        <ele>1817</ele>
        <time>2019-08-19T03:20:06Z</time>
      </trkpt>
      <trkpt lat="44.79685" lon="6.72223">
        <ele>1815</ele>
        <time>2019-08-19T03:20:38Z</time>
      </trkpt>
      <trkpt lat="44.7967" lon="6.72251">
        <ele>1812</ele>
        <time>2019-08-19T03:21:12Z</time>
      </trkpt>
      <trkpt lat="44.7965" lon="6.72266">
        <ele>1810</ele>
        <time>2019-08-19T03:21:42Z</time>
      </trkpt>
      <trkpt lat="44.7963" lon="6.72282">
        <ele>1810</ele>
        <time>2019-08-19T03:22:12Z</time>
      </trkpt>
      <trkpt lat="44.7961" lon="6.723">
        <ele>1810</ele>
        <time>2019-08-19T03:22:44Z</time>
      </trkpt>
      <trkpt lat="44.79604" lon="6.72305">
        <ele>1810</ele>
        <time>2019-08-19T03:22:53Z</time>
      </trkpt>
      <trkpt lat="44.79559" lon="6.72341">
        <ele>1809</ele>
        <time>2019-08-19T03:24:02Z</time>
      </trkpt>
      <trkpt lat="44.79537" lon="6.72366">
        <ele>1809</ele>
        <time>2019-08-19T03:24:40Z</time>
      </trkpt>
      <trkpt lat="44.79527" lon="6.72388">
        <ele>1809</ele>
        <time>2019-08-19T03:25:05Z</time>
      </trkpt>
      <trkpt lat="44.79511" lon="6.72419">
        <ele>1808</ele>
        <time>2019-08-19T03:25:41Z</time>
      </trkpt>
      <trkpt lat="44.79494" lon="6.7245">
        <ele>1808</ele>
        <time>2019-08-19T03:26:18Z</time>
      </trkpt>
      <trkpt lat="44.79473" lon="6.72497">
        <ele>1807</ele>
        <time>2019-08-19T03:27:11Z</time>
      </trkpt>
      <trkpt lat="44.79457" lon="6.72536">
        <ele>1806</ele>
        <time>2019-08-19T03:27:54Z</time>
      </trkpt>
      <trkpt lat="44.79439" lon="6.72577">
        <ele>1803</ele>
        <time>2019-08-19T03:28:39Z</time>
      </trkpt>
      <trkpt lat="44.79417" lon="6.72595">
        <ele>1799</ele>
        <time>2019-08-19T03:29:13Z</time>
      </trkpt>
      <trkpt lat="44.79412" lon="6.72617">
        <ele>1800</ele>
        <time>2019-08-19T03:29:35Z</time>
      </trkpt>
      <trkpt lat="44.79407" lon="6.72637">
        <ele>1800</ele>
        <time>2019-08-19T03:29:55Z</time>
      </trkpt>
      <trkpt lat="44.79372" lon="6.72654">
        <ele>1797</ele>
        <time>2019-08-19T03:30:45Z</time>
      </trkpt>
      <trkpt lat="44.79357" lon="6.72659">
        <ele>1795</ele>
        <time>2019-08-19T03:31:05Z</time>
      </trkpt>
      <trkpt lat="44.79346" lon="6.72662">
        <ele>1793</ele>
        <time>2019-08-19T03:31:20Z</time>
      </trkpt>
      <trkpt lat="44.79323" lon="6.72666">
        <ele>1792</ele>
        <time>2019-08-19T03:31:51Z</time>
      </trkpt>
      <trkpt lat="44.79298" lon="6.72687">
        <ele>1792</ele>
        <time>2019-08-19T03:32:30Z</time>
      </trkpt>
      <trkpt lat="44.7929" lon="6.72711">
        <ele>1789</ele>
        <time>2019-08-19T03:32:55Z</time>
      </trkpt>
      <trkpt lat="44.79288" lon="6.72741">
        <ele>1786</ele>
        <time>2019-08-19T03:33:23Z</time>
      </trkpt>
      <trkpt lat="44.79277" lon="6.72768">
        <ele>1784</ele>
        <time>2019-08-19T03:33:53Z</time>
      </trkpt>
      <trkpt lat="44.79262" lon="6.72793">
        <ele>1781</ele>
        <time>2019-08-19T03:34:24Z</time>
      </trkpt>
      <trkpt lat="44.79249" lon="6.72833">
        <ele>1777</ele>
        <time>2019-08-19T03:35:06Z</time>
      </trkpt>
      <trkpt lat="44.79218" lon="6.72879">
        <ele>1775</ele>
        <time>2019-08-19T03:36:06Z</time>
      </trkpt>
      <trkpt lat="44.79203" lon="6.72903">
        <ele>1773</ele>
        <time>2019-08-19T03:36:36Z</time>
      </trkpt>
      <trkpt lat="44.79183" lon="6.72929">
        <ele>1770</ele>
        <time>2019-08-19T03:37:12Z</time>
      </trkpt>
      <trkpt lat="44.79166" lon="6.72956">
        <ele>1768</ele>
        <time>2019-08-19T03:37:46Z</time>
      </trkpt>
      <trkpt lat="44.79149" lon="6.72983">
        <ele>1766</ele>
        <time>2019-08-19T03:38:21Z</time>
      </trkpt>
      <trkpt lat="44.79124" lon="6.73036">
        <ele>1762</ele>
        <time>2019-08-19T03:39:21Z</time>
      </trkpt>
      <trkpt lat="44.79106" lon="6.73066">
        <ele>1759</ele>
        <time>2019-08-19T03:39:58Z</time>
      </trkpt>
      <trkpt lat="44.79088" lon="6.73097">
        <ele>1756</ele>
        <time>2019-08-19T03:40:36Z</time>
      </trkpt>
      <trkpt lat="44.7906" lon="6.73141">
        <ele>1752</ele>
        <time>2019-08-19T03:41:32Z</time>
      </trkpt>
      <trkpt lat="44.79033" lon="6.73185">
        <ele>1747</ele>
        <time>2019-08-19T03:42:27Z</time>
      </trkpt>
      <trkpt lat="44.79019" lon="6.73216">
        <ele>1746</ele>
        <time>2019-08-19T03:43:02Z</time>
      </trkpt>
      <trkpt lat="44.79011" lon="6.73227">
        <ele>1745</ele>
        <time>2019-08-19T03:43:17Z</time>
      </trkpt>
      <trkpt lat="44.78996" lon="6.73248">
        <ele>1744</ele>
        <time>2019-08-19T03:43:45Z</time>
      </trkpt>
      <trkpt lat="44.78975" lon="6.73262">
        <ele>1743</ele>
        <time>2019-08-19T03:44:16Z</time>
      </trkpt>
      <trkpt lat="44.78932" lon="6.73288">
        <ele>1741</ele>
        <time>2019-08-19T03:45:18Z</time>
      </trkpt>
      <trkpt lat="44.7889" lon="6.73297">
        <ele>1738</ele>
        <time>2019-08-19T03:46:15Z</time>
      </trkpt>
      <trkpt lat="44.78803" lon="6.73307">
        <ele>1733</ele>
        <time>2019-08-19T03:48:12Z</time>
      </trkpt>
      <trkpt lat="44.78767" lon="6.73311">
        <ele>1730</ele>
        <time>2019-08-19T03:49:00Z</time>
      </trkpt>
      <trkpt lat="44.78687" lon="6.73306">
        <ele>1721</ele>
        <time>2019-08-19T03:50:47Z</time>
      </trkpt>
      <trkpt lat="44.78662" lon="6.73307">
        <ele>1719</ele>
        <time>2019-08-19T03:51:20Z</time>
      </trkpt>
      <trkpt lat="44.78635" lon="6.73315">
        <ele>1717</ele>
        <time>2019-08-19T03:51:57Z</time>
      </trkpt>
      <trkpt lat="44.78608" lon="6.73323">
        <ele>1714</ele>
        <time>2019-08-19T03:52:34Z</time>
      </trkpt>
      <trkpt lat="44.78589" lon="6.73336">
        <ele>1713</ele>
        <time>2019-08-19T03:53:02Z</time>
      </trkpt>
      <trkpt lat="44.78561" lon="6.73352">
        <ele>1710</ele>
        <time>2019-08-19T03:53:42Z</time>
      </trkpt>
      <trkpt lat="44.78533" lon="6.73368">
        <ele>1708</ele>
        <time>2019-08-19T03:54:23Z</time>
      </trkpt>
      <trkpt lat="44.7851" lon="6.73382">
        <ele>1706</ele>
        <time>2019-08-19T03:54:56Z</time>
      </trkpt>
      <trkpt lat="44.78486" lon="6.73396">
        <ele>1704</ele>
        <time>2019-08-19T03:55:31Z</time>
      </trkpt>
      <trkpt lat="44.78461" lon="6.73412">
        <ele>1701</ele>
        <time>2019-08-19T03:56:07Z</time>
      </trkpt>
      <trkpt lat="44.78437" lon="6.73428">
        <ele>1699</ele>
        <time>2019-08-19T03:56:43Z</time>
      </trkpt>
      <trkpt lat="44.78389" lon="6.73458">
        <ele>1695</ele>
        <time>2019-08-19T03:57:53Z</time>
      </trkpt>
      <trkpt lat="44.78357" lon="6.73472">
        <ele>1693</ele>
        <time>2019-08-19T03:58:38Z</time>
      </trkpt>
      <trkpt lat="44.7829" lon="6.7349">
        <ele>1688</ele>
        <time>2019-08-19T04:00:09Z</time>
      </trkpt>
      <trkpt lat="44.78267" lon="6.73493">
        <ele>1687</ele>
        <time>2019-08-19T04:00:39Z</time>
      </trkpt>
      <trkpt lat="44.78245" lon="6.73495">
        <ele>1686</ele>
        <time>2019-08-19T04:01:09Z</time>
      </trkpt>
      <trkpt lat="44.78217" lon="6.73496">
        <ele>1685</ele>
        <time>2019-08-19T04:01:46Z</time>
      </trkpt>
      <trkpt lat="44.7819" lon="6.73497">
        <ele>1684</ele>
        <time>2019-08-19T04:02:22Z</time>
      </trkpt>
      <trkpt lat="44.78178" lon="6.73496">
        <ele>1684</ele>
        <time>2019-08-19T04:02:38Z</time>
      </trkpt>
      <trkpt lat="44.78151" lon="6.73493">
        <ele>1683</ele>
        <time>2019-08-19T04:03:14Z</time>
      </trkpt>
      <trkpt lat="44.7814" lon="6.73494">
        <ele>1682</ele>
        <time>2019-08-19T04:03:29Z</time>
      </trkpt>
      <trkpt lat="44.78138" lon="6.73495">
        <ele>1682</ele>
        <time>2019-08-19T04:03:32Z</time>
      </trkpt>
      <trkpt lat="44.78138" lon="6.73498">
        <ele>1682</ele>
        <time>2019-08-19T04:03:35Z</time>
      </trkpt>
      <trkpt lat="44.78143" lon="6.73535">
        <ele>1685</ele>
        <time>2019-08-19T04:04:10Z</time>
      </trkpt>
      <trkpt lat="44.78121" lon="6.73583">
        <ele>1687</ele>
        <time>2019-08-19T04:05:05Z</time>
      </trkpt>
      <trkpt lat="44.78114" lon="6.73601">
        <ele>1688</ele>
        <time>2019-08-19T04:05:24Z</time>
      </trkpt>
      <trkpt lat="44.78106" lon="6.73623">
        <ele>1688</ele>
        <time>2019-08-19T04:05:47Z</time>
      </trkpt>
      <trkpt lat="44.78078" lon="6.73633">
        <ele>1686</ele>
        <time>2019-08-19T04:06:26Z</time>
      </trkpt>
      <trkpt lat="44.78049" lon="6.73642">
        <ele>1684</ele>
        <time>2019-08-19T04:07:06Z</time>
      </trkpt>
      <trkpt lat="44.78025" lon="6.73656">
        <ele>1682</ele>
        <time>2019-08-19T04:07:40Z</time>
      </trkpt>
      <trkpt lat="44.77996" lon="6.73692">
        <ele>1682</ele>
        <time>2019-08-19T04:08:32Z</time>
      </trkpt>
      <trkpt lat="44.77975" lon="6.73733">
        <ele>1684</ele>
        <time>2019-08-19T04:09:20Z</time>
      </trkpt>
      <trkpt lat="44.77963" lon="6.73761">
        <ele>1686</ele>
        <time>2019-08-19T04:09:51Z</time>
      </trkpt>
      <trkpt lat="44.77955" lon="6.73795">
        <ele>1688</ele>
        <time>2019-08-19T04:10:25Z</time>
      </trkpt>
      <trkpt lat="44.77946" lon="6.73829">
        <ele>1690</ele>
        <time>2019-08-19T04:10:59Z</time>
      </trkpt>
      <trkpt lat="44.77916" lon="6.73813">
        <ele>1686</ele>
        <time>2019-08-19T04:11:42Z</time>
      </trkpt>
      <trkpt lat="44.77901" lon="6.73814">
        <ele>1683</ele>
        <time>2019-08-19T04:12:02Z</time>
      </trkpt>
      <trkpt lat="44.77898" lon="6.73833">
        <ele>1684</ele>
        <time>2019-08-19T04:12:20Z</time>
      </trkpt>
      <trkpt lat="44.77894" lon="6.7385">
        <ele>1690</ele>
        <time>2019-08-19T04:12:37Z</time>
      </trkpt>
      <trkpt lat="44.77888" lon="6.7386">
        <ele>1692</ele>
        <time>2019-08-19T04:12:50Z</time>
      </trkpt>
      <trkpt lat="44.77867" lon="6.73882">
        <ele>1699</ele>
        <time>2019-08-19T04:13:25Z</time>
      </trkpt>
      <trkpt lat="44.77836" lon="6.73903">
        <ele>1706</ele>
        <time>2019-08-19T04:14:10Z</time>
      </trkpt>
      <trkpt lat="44.77785" lon="6.73927">
        <ele>1719</ele>
        <time>2019-08-19T04:15:22Z</time>
      </trkpt>
      <trkpt lat="44.77748" lon="6.73947">
        <ele>1727</ele>
        <time>2019-08-19T04:16:15Z</time>
      </trkpt>
      <trkpt lat="44.77678" lon="6.73969">
        <ele>1737</ele>
        <time>2019-08-19T04:17:51Z</time>
      </trkpt>
      <trkpt lat="44.77643" lon="6.73981">
        <ele>1742</ele>
        <time>2019-08-19T04:18:39Z</time>
      </trkpt>
      <trkpt lat="44.77611" lon="6.73994">
        <ele>1747</ele>
        <time>2019-08-19T04:19:23Z</time>
      </trkpt>
      <trkpt lat="44.7758" lon="6.74007">
        <ele>1751</ele>
        <time>2019-08-19T04:20:07Z</time>
      </trkpt>
      <trkpt lat="44.77554" lon="6.74011">
        <ele>1755</ele>
        <time>2019-08-19T04:20:41Z</time>
      </trkpt>
      <trkpt lat="44.77528" lon="6.74016">
        <ele>1758</ele>
        <time>2019-08-19T04:21:16Z</time>
      </trkpt>
      <trkpt lat="44.77513" lon="6.74021">
        <ele>1761</ele>
        <time>2019-08-19T04:21:37Z</time>
      </trkpt>
      <trkpt lat="44.77499" lon="6.74029">
        <ele>1765</ele>
        <time>2019-08-19T04:21:57Z</time>
      </trkpt>
      <trkpt lat="44.77493" lon="6.74031">
        <ele>1765</ele>
        <time>2019-08-19T04:22:05Z</time>
      </trkpt>
      <trkpt lat="44.77456" lon="6.74027">
        <ele>1762</ele>
        <time>2019-08-19T04:22:55Z</time>
      </trkpt>
      <trkpt lat="44.7743" lon="6.74029">
        <ele>1762</ele>
        <time>2019-08-19T04:23:30Z</time>
      </trkpt>
      <trkpt lat="44.77412" lon="6.74026">
        <ele>1760</ele>
        <time>2019-08-19T04:23:54Z</time>
      </trkpt>
      <trkpt lat="44.77399" lon="6.74028">
        <ele>1760</ele>
        <time>2019-08-19T04:24:11Z</time>
      </trkpt>
      <trkpt lat="44.77368" lon="6.74039">
        <ele>1761</ele>
        <time>2019-08-19T04:24:54Z</time>
      </trkpt>
      <trkpt lat="44.77337" lon="6.7405">
        <ele>1762</ele>
        <time>2019-08-19T04:25:37Z</time>
      </trkpt>
      <trkpt lat="44.77324" lon="6.74056">
        <ele>1762</ele>
        <time>2019-08-19T04:25:55Z</time>
      </trkpt>
      <trkpt lat="44.77292" lon="6.74077">
        <ele>1765</ele>
        <time>2019-08-19T04:26:42Z</time>
      </trkpt>
      <trkpt lat="44.77264" lon="6.74092">
        <ele>1767</ele>
        <time>2019-08-19T04:27:22Z</time>
      </trkpt>
      <trkpt lat="44.77189" lon="6.74091">
        <ele>1763</ele>
        <time>2019-08-19T04:29:02Z</time>
      </trkpt>
      <trkpt lat="44.77166" lon="6.74096">
        <ele>1764</ele>
        <time>2019-08-19T04:29:33Z</time>
      </trkpt>
      <trkpt lat="44.77126" lon="6.74122">
        <ele>1764</ele>
        <time>2019-08-19T04:30:32Z</time>
      </trkpt>
      <trkpt lat="44.77085" lon="6.74147">
        <ele>1766</ele>
        <time>2019-08-19T04:31:32Z</time>
      </trkpt>
      <trkpt lat="44.77061" lon="6.74165">
        <ele>1768</ele>
        <time>2019-08-19T04:32:08Z</time>
      </trkpt>
      <trkpt lat="44.77036" lon="6.74184">
        <ele>1769</ele>
        <time>2019-08-19T04:32:46Z</time>
      </trkpt>
      <trkpt lat="44.7702" lon="6.74192">
        <ele>1768</ele>
        <time>2019-08-19T04:33:08Z</time>
      </trkpt>
      <trkpt lat="44.76986" lon="6.74206">
        <ele>1762</ele>
        <time>2019-08-19T04:33:56Z</time>
      </trkpt>
      <trkpt lat="44.76968" lon="6.74218">
        <ele>1759</ele>
        <time>2019-08-19T04:34:22Z</time>
      </trkpt>
      <trkpt lat="44.76953" lon="6.74236">
        <ele>1759</ele>
        <time>2019-08-19T04:34:49Z</time>
      </trkpt>
      <trkpt lat="44.76932" lon="6.74264">
        <ele>1759</ele>
        <time>2019-08-19T04:35:27Z</time>
      </trkpt>
      <trkpt lat="44.76908" lon="6.74304">
        <ele>1759</ele>
        <time>2019-08-19T04:36:17Z</time>
      </trkpt>
      <trkpt lat="44.76883" lon="6.74344">
        <ele>1761</ele>
        <time>2019-08-19T04:37:07Z</time>
      </trkpt>
      <trkpt lat="44.76861" lon="6.74368">
        <ele>1762</ele>
        <time>2019-08-19T04:37:44Z</time>
      </trkpt>
      <trkpt lat="44.76852" lon="6.74375">
        <ele>1762</ele>
        <time>2019-08-19T04:37:58Z</time>
      </trkpt>
      <trkpt lat="44.76846" lon="6.74378">
        <ele>1761</ele>
        <time>2019-08-19T04:38:07Z</time>
      </trkpt>
      <trkpt lat="44.76833" lon="6.74378">
        <ele>1758</ele>
        <time>2019-08-19T04:38:24Z</time>
      </trkpt>
      <trkpt lat="44.76811" lon="6.74373">
        <ele>1751</ele>
        <time>2019-08-19T04:38:54Z</time>
      </trkpt>
      <trkpt lat="44.76766" lon="6.74369">
        <ele>1739</ele>
        <time>2019-08-19T04:39:54Z</time>
      </trkpt>
      <trkpt lat="44.76749" lon="6.74371">
        <ele>1736</ele>
        <time>2019-08-19T04:40:17Z</time>
      </trkpt>
      <trkpt lat="44.76727" lon="6.74377">
        <ele>1727</ele>
        <time>2019-08-19T04:40:46Z</time>
      </trkpt>
      <trkpt lat="44.7671" lon="6.74385">
        <ele>1722</ele>
        <time>2019-08-19T04:41:10Z</time>
      </trkpt>
      <trkpt lat="44.76688" lon="6.74404">
        <ele>1719</ele>
        <time>2019-08-19T04:41:45Z</time>
      </trkpt>
      <trkpt lat="44.76681" lon="6.74413">
        <ele>1719</ele>
        <time>2019-08-19T04:41:57Z</time>
      </trkpt>
      <trkpt lat="44.76672" lon="6.74426">
        <ele>1718</ele>
        <time>2019-08-19T04:42:15Z</time>
      </trkpt>
      <trkpt lat="44.76667" lon="6.74441">
        <ele>1719</ele>
        <time>2019-08-19T04:42:30Z</time>
      </trkpt>
      <trkpt lat="44.76655" lon="6.74491">
        <ele>1727</ele>
        <time>2019-08-19T04:43:20Z</time>
      </trkpt>
      <trkpt lat="44.76644" lon="6.74523">
        <ele>1730</ele>
        <time>2019-08-19T04:43:54Z</time>
      </trkpt>
      <trkpt lat="44.76638" lon="6.74554">
        <ele>1735</ele>
        <time>2019-08-19T04:44:25Z</time>
      </trkpt>
      <trkpt lat="44.76632" lon="6.74569">
        <ele>1736</ele>
        <time>2019-08-19T04:44:41Z</time>
      </trkpt>
      <trkpt lat="44.76613" lon="6.74601">
        <ele>1732</ele>
        <time>2019-08-19T04:45:20Z</time>
      </trkpt>
      <trkpt lat="44.76596" lon="6.74635">
        <ele>1729</ele>
        <time>2019-08-19T04:46:00Z</time>
      </trkpt>
      <trkpt lat="44.76579" lon="6.74668">
        <ele>1726</ele>
        <time>2019-08-19T04:46:38Z</time>
      </trkpt>
      <trkpt lat="44.76575" lon="6.74681">
        <ele>1727</ele>
        <time>2019-08-19T04:46:52Z</time>
      </trkpt>
      <trkpt lat="44.76571" lon="6.74712">
        <ele>1731</ele>
        <time>2019-08-19T04:47:22Z</time>
      </trkpt>
      <trkpt lat="44.76567" lon="6.7472">
        <ele>1731</ele>
        <time>2019-08-19T04:47:31Z</time>
      </trkpt>
      <trkpt lat="44.76562" lon="6.74724">
        <ele>1730</ele>
        <time>2019-08-19T04:47:39Z</time>
      </trkpt>
      <trkpt lat="44.76545" lon="6.74728">
        <ele>1724</ele>
        <time>2019-08-19T04:48:02Z</time>
      </trkpt>
      <trkpt lat="44.76534" lon="6.74734">
        <ele>1721</ele>
        <time>2019-08-19T04:48:17Z</time>
      </trkpt>
      <trkpt lat="44.76499" lon="6.74763">
        <ele>1714</ele>
        <time>2019-08-19T04:49:12Z</time>
      </trkpt>
      <trkpt lat="44.7647" lon="6.74795">
        <ele>1707</ele>
        <time>2019-08-19T04:50:01Z</time>
      </trkpt>
      <trkpt lat="44.76454" lon="6.74832">
        <ele>1707</ele>
        <time>2019-08-19T04:50:42Z</time>
      </trkpt>
      <trkpt lat="44.76448" lon="6.74839">
        <ele>1705</ele>
        <time>2019-08-19T04:50:52Z</time>
      </trkpt>
      <trkpt lat="44.76427" lon="6.74851">
        <ele>1697</ele>
        <time>2019-08-19T04:51:22Z</time>
      </trkpt>
      <trkpt lat="44.76425" lon="6.7485">
        <ele>1696</ele>
        <time>2019-08-19T04:51:25Z</time>
      </trkpt>
      <trkpt lat="44.76422" lon="6.74851">
        <ele>1695</ele>
        <time>2019-08-19T04:51:29Z</time>
      </trkpt>
      <trkpt lat="44.76414" lon="6.74856">
        <ele>1693</ele>
        <time>2019-08-19T04:51:41Z</time>
      </trkpt>
      <trkpt lat="44.76394" lon="6.74864">
        <ele>1690</ele>
        <time>2019-08-19T04:52:09Z</time>
      </trkpt>
      <trkpt lat="44.76368" lon="6.74868">
        <ele>1686</ele>
        <time>2019-08-19T04:52:44Z</time>
      </trkpt>
      <trkpt lat="44.76357" lon="6.74871">
        <ele>1685</ele>
        <time>2019-08-19T04:52:59Z</time>
      </trkpt>
      <trkpt lat="44.76349" lon="6.74863">
        <ele>1681</ele>
        <time>2019-08-19T04:53:12Z</time>
      </trkpt>
      <trkpt lat="44.76327" lon="6.74878">
        <ele>1681</ele>
        <time>2019-08-19T04:53:44Z</time>
      </trkpt>
      <trkpt lat="44.76313" lon="6.74892">
        <ele>1681</ele>
        <time>2019-08-19T04:54:07Z</time>
      </trkpt>
      <trkpt lat="44.76297" lon="6.74925">
        <ele>1685</ele>
        <time>2019-08-19T04:54:45Z</time>
      </trkpt>
      <trkpt lat="44.76292" lon="6.74945">
        <ele>1685</ele>
        <time>2019-08-19T04:55:05Z</time>
      </trkpt>
      <trkpt lat="44.76283" lon="6.75015">
        <ele>1687</ele>
        <time>2019-08-19T04:56:13Z</time>
      </trkpt>
      <trkpt lat="44.76284" lon="6.75022">
        <ele>1688</ele>
        <time>2019-08-19T04:56:19Z</time>
      </trkpt>
      <trkpt lat="44.76294" lon="6.75051">
        <ele>1693</ele>
        <time>2019-08-19T04:56:50Z</time>
      </trkpt>
      <trkpt lat="44.76305" lon="6.7508">
        <ele>1700</ele>
        <time>2019-08-19T04:57:21Z</time>
      </trkpt>
      <trkpt lat="44.76315" lon="6.75104">
        <ele>1704</ele>
        <time>2019-08-19T04:57:47Z</time>
      </trkpt>
      <trkpt lat="44.76322" lon="6.75116">
        <ele>1707</ele>
        <time>2019-08-19T04:58:02Z</time>
      </trkpt>
      <trkpt lat="44.76325" lon="6.75123">
        <ele>1708</ele>
        <time>2019-08-19T04:58:10Z</time>
      </trkpt>
      <trkpt lat="44.76326" lon="6.75133">
        <ele>1708</ele>
        <time>2019-08-19T04:58:19Z</time>
      </trkpt>
      <trkpt lat="44.76324" lon="6.75148">
        <ele>1708</ele>
        <time>2019-08-19T04:58:34Z</time>
      </trkpt>
      <trkpt lat="44.76325" lon="6.75181">
        <ele>1710</ele>
        <time>2019-08-19T04:59:05Z</time>
      </trkpt>
      <trkpt lat="44.76321" lon="6.75222">
        <ele>1713</ele>
        <time>2019-08-19T04:59:44Z</time>
      </trkpt>
      <trkpt lat="44.76317" lon="6.75246">
        <ele>1714</ele>
        <time>2019-08-19T05:00:08Z</time>
      </trkpt>
      <trkpt lat="44.76315" lon="6.75272">
        <ele>1718</ele>
        <time>2019-08-19T05:00:33Z</time>
      </trkpt>
      <trkpt lat="44.76313" lon="6.75295">
        <ele>1721</ele>
        <time>2019-08-19T05:00:55Z</time>
      </trkpt>
      <trkpt lat="44.76309" lon="6.75317">
        <ele>1723</ele>
        <time>2019-08-19T05:01:16Z</time>
      </trkpt>
      <trkpt lat="44.763" lon="6.75344">
        <ele>1725</ele>
        <time>2019-08-19T05:01:44Z</time>
      </trkpt>
      <trkpt lat="44.76285" lon="6.75368">
        <ele>1724</ele>
        <time>2019-08-19T05:02:15Z</time>
      </trkpt>
      <trkpt lat="44.76268" lon="6.75408">
        <ele>1726</ele>
        <time>2019-08-19T05:02:59Z</time>
      </trkpt>
      <trkpt lat="44.76266" lon="6.75416">
        <ele>1727</ele>
        <time>2019-08-19T05:03:07Z</time>
      </trkpt>
      <trkpt lat="44.76268" lon="6.75435">
        <ele>1730</ele>
        <time>2019-08-19T05:03:25Z</time>
      </trkpt>
      <trkpt lat="44.76265" lon="6.75483">
        <ele>1734</ele>
        <time>2019-08-19T05:04:11Z</time>
      </trkpt>
      <trkpt lat="44.76259" lon="6.75504">
        <ele>1735</ele>
        <time>2019-08-19T05:04:32Z</time>
      </trkpt>
      <trkpt lat="44.76257" lon="6.75514">
        <ele>1736</ele>
        <time>2019-08-19T05:04:42Z</time>
      </trkpt>
      <trkpt lat="44.76256" lon="6.75522">
        <ele>1737</ele>
        <time>2019-08-19T05:04:50Z</time>
      </trkpt>
      <trkpt lat="44.76253" lon="6.7553">
        <ele>1737</ele>
        <time>2019-08-19T05:04:58Z</time>
      </trkpt>
      <trkpt lat="44.76248" lon="6.7554">
        <ele>1737</ele>
        <time>2019-08-19T05:05:10Z</time>
      </trkpt>
      <trkpt lat="44.76219" lon="6.7557">
        <ele>1734</ele>
        <time>2019-08-19T05:05:58Z</time>
      </trkpt>
      <trkpt lat="44.76214" lon="6.7558">
        <ele>1735</ele>
        <time>2019-08-19T05:06:09Z</time>
      </trkpt>
      <trkpt lat="44.76209" lon="6.75601">
        <ele>1739</ele>
        <time>2019-08-19T05:06:30Z</time>
      </trkpt>
      <trkpt lat="44.76184" lon="6.7565">
        <ele>1744</ele>
        <time>2019-08-19T05:07:28Z</time>
      </trkpt>
      <trkpt lat="44.76175" lon="6.75671">
        <ele>1746</ele>
        <time>2019-08-19T05:07:51Z</time>
      </trkpt>
      <trkpt lat="44.76166" lon="6.75702">
        <ele>1748</ele>
        <time>2019-08-19T05:08:23Z</time>
      </trkpt>
      <trkpt lat="44.76165" lon="6.75711">
        <ele>1749</ele>
        <time>2019-08-19T05:08:31Z</time>
      </trkpt>
      <trkpt lat="44.76168" lon="6.75773">
        <ele>1760</ele>
        <time>2019-08-19T05:09:30Z</time>
      </trkpt>
      <trkpt lat="44.76158" lon="6.75814">
        <ele>1763</ele>
        <time>2019-08-19T05:10:11Z</time>
      </trkpt>
      <trkpt lat="44.76157" lon="6.7583">
        <ele>1766</ele>
        <time>2019-08-19T05:10:26Z</time>
      </trkpt>
      <trkpt lat="44.76148" lon="6.75865">
        <ele>1767</ele>
        <time>2019-08-19T05:11:02Z</time>
      </trkpt>
      <trkpt lat="44.76143" lon="6.75876">
        <ele>1767</ele>
        <time>2019-08-19T05:11:14Z</time>
      </trkpt>
      <trkpt lat="44.76143" lon="6.75886">
        <ele>1768</ele>
        <time>2019-08-19T05:11:23Z</time>
      </trkpt>
      <trkpt lat="44.76144" lon="6.75899">
        <ele>1770</ele>
        <time>2019-08-19T05:11:36Z</time>
      </trkpt>
      <trkpt lat="44.76142" lon="6.75916">
        <ele>1772</ele>
        <time>2019-08-19T05:11:52Z</time>
      </trkpt>
      <trkpt lat="44.76139" lon="6.75929">
        <ele>1772</ele>
        <time>2019-08-19T05:12:05Z</time>
      </trkpt>
      <trkpt lat="44.76139" lon="6.75938">
        <ele>1773</ele>
        <time>2019-08-19T05:12:14Z</time>
      </trkpt>
      <trkpt lat="44.7614" lon="6.75945">
        <ele>1774</ele>
        <time>2019-08-19T05:12:20Z</time>
      </trkpt>
      <trkpt lat="44.76139" lon="6.75957">
        <ele>1775</ele>
        <time>2019-08-19T05:12:32Z</time>
      </trkpt>
      <trkpt lat="44.76141" lon="6.75961">
        <ele>1777</ele>
        <time>2019-08-19T05:12:37Z</time>
      </trkpt>
      <trkpt lat="44.76144" lon="6.75961">
        <ele>1778</ele>
        <time>2019-08-19T05:12:41Z</time>
      </trkpt>
      <trkpt lat="44.76146" lon="6.75959">
        <ele>1778</ele>
        <time>2019-08-19T05:12:44Z</time>
      </trkpt>
      <trkpt lat="44.76153" lon="6.75931">
        <ele>1778</ele>
        <time>2019-08-19T05:13:12Z</time>
      </trkpt>
      <trkpt lat="44.76163" lon="6.75916">
        <ele>1780</ele>
        <time>2019-08-19T05:13:31Z</time>
      </trkpt>
      <trkpt lat="44.76193" lon="6.7588">
        <ele>1785</ele>
        <time>2019-08-19T05:14:24Z</time>
      </trkpt>
      <trkpt lat="44.76227" lon="6.75857">
        <ele>1794</ele>
        <time>2019-08-19T05:15:14Z</time>
      </trkpt>
      <trkpt lat="44.76241" lon="6.75827">
        <ele>1794</ele>
        <time>2019-08-19T05:15:48Z</time>
      </trkpt>
      <trkpt lat="44.76268" lon="6.75798">
        <ele>1799</ele>
        <time>2019-08-19T05:16:34Z</time>
      </trkpt>
      <trkpt lat="44.76295" lon="6.75768">
        <ele>1802</ele>
        <time>2019-08-19T05:17:20Z</time>
      </trkpt>
      <trkpt lat="44.76317" lon="6.75775">
        <ele>1809</ele>
        <time>2019-08-19T05:17:50Z</time>
      </trkpt>
      <trkpt lat="44.76329" lon="6.75771">
        <ele>1812</ele>
        <time>2019-08-19T05:18:06Z</time>
      </trkpt>
      <trkpt lat="44.76336" lon="6.75771">
        <ele>1813</ele>
        <time>2019-08-19T05:18:15Z</time>
      </trkpt>
      <trkpt lat="44.7635" lon="6.75769">
        <ele>1817</ele>
        <time>2019-08-19T05:18:34Z</time>
      </trkpt>
      <trkpt lat="44.76352" lon="6.75768">
        <ele>1817</ele>
        <time>2019-08-19T05:18:37Z</time>
      </trkpt>
      <trkpt lat="44.76351" lon="6.75788">
        <ele>1821</ele>
        <time>2019-08-19T05:18:56Z</time>
      </trkpt>
      <trkpt lat="44.76351" lon="6.75798">
        <ele>1822</ele>
        <time>2019-08-19T05:19:06Z</time>
      </trkpt>
      <trkpt lat="44.76352" lon="6.75806">
        <ele>1824</ele>
        <time>2019-08-19T05:19:13Z</time>
      </trkpt>
      <trkpt lat="44.76354" lon="6.7581">
        <ele>1825</ele>
        <time>2019-08-19T05:19:18Z</time>
      </trkpt>
      <trkpt lat="44.76353" lon="6.75813">
        <ele>1826</ele>
        <time>2019-08-19T05:19:21Z</time>
      </trkpt>
      <trkpt lat="44.76353" lon="6.75817">
        <ele>1826</ele>
        <time>2019-08-19T05:19:25Z</time>
      </trkpt>
      <trkpt lat="44.76354" lon="6.75821">
        <ele>1827</ele>
        <time>2019-08-19T05:19:29Z</time>
      </trkpt>
      <trkpt lat="44.76357" lon="6.75826">
        <ele>1829</ele>
        <time>2019-08-19T05:19:35Z</time>
      </trkpt>
      <trkpt lat="44.76355" lon="6.75848">
        <ele>1832</ele>
        <time>2019-08-19T05:19:56Z</time>
      </trkpt>
      <trkpt lat="44.7633" lon="6.75918">
        <ele>1836</ele>
        <time>2019-08-19T05:21:10Z</time>
      </trkpt>
      <trkpt lat="44.76322" lon="6.75939">
        <ele>1836</ele>
        <time>2019-08-19T05:21:33Z</time>
      </trkpt>
      <trkpt lat="44.76319" lon="6.7596">
        <ele>1838</ele>
        <time>2019-08-19T05:21:53Z</time>
      </trkpt>
      <trkpt lat="44.76304" lon="6.76007">
        <ele>1839</ele>
        <time>2019-08-19T05:22:42Z</time>
      </trkpt>
      <trkpt lat="44.76289" lon="6.76035">
        <ele>1839</ele>
        <time>2019-08-19T05:23:15Z</time>
      </trkpt>
      <trkpt lat="44.76281" lon="6.76075">
        <ele>1842</ele>
        <time>2019-08-19T05:23:55Z</time>
      </trkpt>
      <trkpt lat="44.76251" lon="6.76156">
        <ele>1846</ele>
        <time>2019-08-19T05:25:21Z</time>
      </trkpt>
      <trkpt lat="44.7625" lon="6.76165">
        <ele>1848</ele>
        <time>2019-08-19T05:25:30Z</time>
      </trkpt>
      <trkpt lat="44.76241" lon="6.76177">
        <ele>1847</ele>
        <time>2019-08-19T05:25:46Z</time>
      </trkpt>
      <trkpt lat="44.76202" lon="6.76222">
        <ele>1846</ele>
        <time>2019-08-19T05:26:54Z</time>
      </trkpt>
      <trkpt lat="44.76186" lon="6.76245">
        <ele>1849</ele>
        <time>2019-08-19T05:27:24Z</time>
      </trkpt>
      <trkpt lat="44.76173" lon="6.76287">
        <ele>1854</ele>
        <time>2019-08-19T05:28:08Z</time>
      </trkpt>
      <trkpt lat="44.76164" lon="6.76307">
        <ele>1855</ele>
        <time>2019-08-19T05:28:30Z</time>
      </trkpt>
      <trkpt lat="44.76161" lon="6.76313">
        <ele>1856</ele>
        <time>2019-08-19T05:28:37Z</time>
      </trkpt>
      <trkpt lat="44.76155" lon="6.76321">
        <ele>1855</ele>
        <time>2019-08-19T05:28:48Z</time>
      </trkpt>
      <trkpt lat="44.76142" lon="6.76329">
        <ele>1853</ele>
        <time>2019-08-19T05:29:07Z</time>
      </trkpt>
      <trkpt lat="44.76135" lon="6.76339">
        <ele>1852</ele>
        <time>2019-08-19T05:29:20Z</time>
      </trkpt>
      <trkpt lat="44.76129" lon="6.76383">
        <ele>1852</ele>
        <time>2019-08-19T05:30:03Z</time>
      </trkpt>
      <trkpt lat="44.76133" lon="6.76412">
        <ele>1854</ele>
        <time>2019-08-19T05:30:31Z</time>
      </trkpt>
      <trkpt lat="44.76131" lon="6.7643">
        <ele>1854</ele>
        <time>2019-08-19T05:30:48Z</time>
      </trkpt>
      <trkpt lat="44.76123" lon="6.76449">
        <ele>1853</ele>
        <time>2019-08-19T05:31:09Z</time>
      </trkpt>
      <trkpt lat="44.76107" lon="6.76477">
        <ele>1852</ele>
        <time>2019-08-19T05:31:43Z</time>
      </trkpt>
      <trkpt lat="44.76098" lon="6.76507">
        <ele>1854</ele>
        <time>2019-08-19T05:32:14Z</time>
      </trkpt>
      <trkpt lat="44.76089" lon="6.76536">
        <ele>1854</ele>
        <time>2019-08-19T05:32:44Z</time>
      </trkpt>
      <trkpt lat="44.76077" lon="6.76555">
        <ele>1854</ele>
        <time>2019-08-19T05:33:08Z</time>
      </trkpt>
      <trkpt lat="44.76057" lon="6.76588">
        <ele>1854</ele>
        <time>2019-08-19T05:33:49Z</time>
      </trkpt>
      <trkpt lat="44.7605" lon="6.76618">
        <ele>1853</ele>
        <time>2019-08-19T05:34:19Z</time>
      </trkpt>
      <trkpt lat="44.76048" lon="6.76629">
        <ele>1853</ele>
        <time>2019-08-19T05:34:30Z</time>
      </trkpt>
      <trkpt lat="44.7605" lon="6.76668">
        <ele>1851</ele>
        <time>2019-08-19T05:35:07Z</time>
      </trkpt>
      <trkpt lat="44.76057" lon="6.76697">
        <ele>1853</ele>
        <time>2019-08-19T05:35:36Z</time>
      </trkpt>
      <trkpt lat="44.76064" lon="6.76712">
        <ele>1853</ele>
        <time>2019-08-19T05:35:53Z</time>
      </trkpt>
      <trkpt lat="44.76073" lon="6.76752">
        <ele>1855</ele>
        <time>2019-08-19T05:36:32Z</time>
      </trkpt>
      <trkpt lat="44.76075" lon="6.76799">
        <ele>1860</ele>
        <time>2019-08-19T05:37:17Z</time>
      </trkpt>
      <trkpt lat="44.76053" lon="6.76871">
        <ele>1862</ele>
        <time>2019-08-19T05:38:31Z</time>
      </trkpt>
      <trkpt lat="44.76036" lon="6.76908">
        <ele>1862</ele>
        <time>2019-08-19T05:39:13Z</time>
      </trkpt>
      <trkpt lat="44.76013" lon="6.76948">
        <ele>1860</ele>
        <time>2019-08-19T05:40:02Z</time>
      </trkpt>
      <trkpt lat="44.75991" lon="6.76976">
        <ele>1860</ele>
        <time>2019-08-19T05:40:41Z</time>
      </trkpt>
      <trkpt lat="44.75987" lon="6.77023">
        <ele>1857</ele>
        <time>2019-08-19T05:41:26Z</time>
      </trkpt>
      <trkpt lat="44.75993" lon="6.77057">
        <ele>1855</ele>
        <time>2019-08-19T05:41:59Z</time>
      </trkpt>
      <trkpt lat="44.76006" lon="6.77089">
        <ele>1852</ele>
        <time>2019-08-19T05:42:34Z</time>
      </trkpt>
      <trkpt lat="44.76027" lon="6.77142">
        <ele>1841</ele>
        <time>2019-08-19T05:43:32Z</time>
      </trkpt>
      <trkpt lat="44.76037" lon="6.77157">
        <ele>1839</ele>
        <time>2019-08-19T05:43:51Z</time>
      </trkpt>
      <trkpt lat="44.76043" lon="6.77176">
        <ele>1834</ele>
        <time>2019-08-19T05:44:11Z</time>
      </trkpt>
      <trkpt lat="44.76061" lon="6.77205">
        <ele>1828</ele>
        <time>2019-08-19T05:44:48Z</time>
      </trkpt>
      <trkpt lat="44.76068" lon="6.77211">
        <ele>1827</ele>
        <time>2019-08-19T05:44:59Z</time>
      </trkpt>
      <trkpt lat="44.76079" lon="6.77232">
        <ele>1823</ele>
        <time>2019-08-19T05:45:23Z</time>
      </trkpt>
      <trkpt lat="44.76089" lon="6.77243">
        <ele>1821</ele>
        <time>2019-08-19T05:45:40Z</time>
      </trkpt>
      <trkpt lat="44.7609" lon="6.77253">
        <ele>1819</ele>
        <time>2019-08-19T05:45:50Z</time>
      </trkpt>
      <trkpt lat="44.76091" lon="6.7726">
        <ele>1818</ele>
        <time>2019-08-19T05:45:57Z</time>
      </trkpt>
      <trkpt lat="44.76085" lon="6.77274">
        <ele>1816</ele>
        <time>2019-08-19T05:46:12Z</time>
      </trkpt>
      <trkpt lat="44.76078" lon="6.77301">
        <ele>1811</ele>
        <time>2019-08-19T05:46:39Z</time>
      </trkpt>
      <trkpt lat="44.76073" lon="6.77354">
        <ele>1804</ele>
        <time>2019-08-19T05:47:30Z</time>
      </trkpt>
      <trkpt lat="44.76069" lon="6.77365">
        <ele>1802</ele>
        <time>2019-08-19T05:47:42Z</time>
      </trkpt>
      <trkpt lat="44.76045" lon="6.77404">
        <ele>1794</ele>
        <time>2019-08-19T05:48:31Z</time>
      </trkpt>
      <trkpt lat="44.76029" lon="6.7744">
        <ele>1790</ele>
        <time>2019-08-19T05:49:11Z</time>
      </trkpt>
      <trkpt lat="44.76017" lon="6.77463">
        <ele>1787</ele>
        <time>2019-08-19T05:49:38Z</time>
      </trkpt>
      <trkpt lat="44.76004" lon="6.77495">
        <ele>1785</ele>
        <time>2019-08-19T05:50:13Z</time>
      </trkpt>
      <trkpt lat="44.75995" lon="6.77525">
        <ele>1781</ele>
        <time>2019-08-19T05:50:44Z</time>
      </trkpt>
      <trkpt lat="44.75994" lon="6.7756">
        <ele>1780</ele>
        <time>2019-08-19T05:51:17Z</time>
      </trkpt>
      <trkpt lat="44.75992" lon="6.77582">
        <ele>1778</ele>
        <time>2019-08-19T05:51:38Z</time>
      </trkpt>
      <trkpt lat="44.75985" lon="6.77597">
        <ele>1773</ele>
        <time>2019-08-19T05:51:55Z</time>
      </trkpt>
      <trkpt lat="44.75979" lon="6.77643">
        <ele>1767</ele>
        <time>2019-08-19T05:52:39Z</time>
      </trkpt>
      <trkpt lat="44.75975" lon="6.77645">
        <ele>1765</ele>
        <time>2019-08-19T05:52:45Z</time>
      </trkpt>
      <trkpt lat="44.75974" lon="6.77644">
        <ele>1765</ele>
        <time>2019-08-19T05:52:46Z</time>
      </trkpt>
      <trkpt lat="44.75971" lon="6.77648">
        <ele>1764</ele>
        <time>2019-08-19T05:52:52Z</time>
      </trkpt>
      <trkpt lat="44.75967" lon="6.77659">
        <ele>1761</ele>
        <time>2019-08-19T05:53:04Z</time>
      </trkpt>
      <trkpt lat="44.75964" lon="6.77663">
        <ele>1760</ele>
        <time>2019-08-19T05:53:09Z</time>
      </trkpt>
      <trkpt lat="44.75961" lon="6.77662">
        <ele>1759</ele>
        <time>2019-08-19T05:53:13Z</time>
      </trkpt>
      <trkpt lat="44.75948" lon="6.77663">
        <ele>1754</ele>
        <time>2019-08-19T05:53:31Z</time>
      </trkpt>
      <trkpt lat="44.75934" lon="6.7767">
        <ele>1748</ele>
        <time>2019-08-19T05:53:51Z</time>
      </trkpt>
      <trkpt lat="44.75923" lon="6.77687">
        <ele>1742</ele>
        <time>2019-08-19T05:54:12Z</time>
      </trkpt>
      <trkpt lat="44.75923" lon="6.777">
        <ele>1740</ele>
        <time>2019-08-19T05:54:25Z</time>
      </trkpt>
      <trkpt lat="44.75929" lon="6.77737">
        <ele>1739</ele>
        <time>2019-08-19T05:55:01Z</time>
      </trkpt>
      <trkpt lat="44.75934" lon="6.77773">
        <ele>1734</ele>
        <time>2019-08-19T05:55:35Z</time>
      </trkpt>
      <trkpt lat="44.75942" lon="6.77803">
        <ele>1731</ele>
        <time>2019-08-19T05:56:06Z</time>
      </trkpt>
      <trkpt lat="44.75951" lon="6.77832">
        <ele>1727</ele>
        <time>2019-08-19T05:56:36Z</time>
      </trkpt>
      <trkpt lat="44.75959" lon="6.77845">
        <ele>1727</ele>
        <time>2019-08-19T05:56:52Z</time>
      </trkpt>
      <trkpt lat="44.7597" lon="6.7787">
        <ele>1722</ele>
        <time>2019-08-19T05:57:20Z</time>
      </trkpt>
      <trkpt lat="44.7598" lon="6.77904">
        <ele>1713</ele>
        <time>2019-08-19T05:57:55Z</time>
      </trkpt>
      <trkpt lat="44.75979" lon="6.77909">
        <ele>1710</ele>
        <time>2019-08-19T05:58:00Z</time>
      </trkpt>
      <trkpt lat="44.75972" lon="6.77904">
        <ele>1711</ele>
        <time>2019-08-19T05:58:10Z</time>
      </trkpt>
      <trkpt lat="44.75962" lon="6.77903">
        <ele>1709</ele>
        <time>2019-08-19T05:58:24Z</time>
      </trkpt>
      <trkpt lat="44.7595" lon="6.77903">
        <ele>1706</ele>
        <time>2019-08-19T05:58:40Z</time>
      </trkpt>
      <trkpt lat="44.75943" lon="6.77917">
        <ele>1700</ele>
        <time>2019-08-19T05:58:56Z</time>
      </trkpt>
      <trkpt lat="44.7594" lon="6.7793">
        <ele>1696</ele>
        <time>2019-08-19T05:59:09Z</time>
      </trkpt>
      <trkpt lat="44.75934" lon="6.7794">
        <ele>1692</ele>
        <time>2019-08-19T05:59:21Z</time>
      </trkpt>
      <trkpt lat="44.75928" lon="6.77968">
        <ele>1685</ele>
        <time>2019-08-19T05:59:49Z</time>
      </trkpt>
      <trkpt lat="44.75925" lon="6.7797">
        <ele>1684</ele>
        <time>2019-08-19T05:59:53Z</time>
      </trkpt>
      <trkpt lat="44.75922" lon="6.77973">
        <ele>1683</ele>
        <time>2019-08-19T05:59:58Z</time>
      </trkpt>
      <trkpt lat="44.75924" lon="6.77978">
        <ele>1682</ele>
        <time>2019-08-19T06:00:04Z</time>
      </trkpt>
      <trkpt lat="44.75925" lon="6.77978">
        <ele>1682</ele>
        <time>2019-08-19T06:00:05Z</time>
      </trkpt>
      <trkpt lat="44.75927" lon="6.77992">
        <ele>1678</ele>
        <time>2019-08-19T06:00:18Z</time>
      </trkpt>
      <trkpt lat="44.75939" lon="6.78021">
        <ele>1673</ele>
        <time>2019-08-19T06:00:50Z</time>
      </trkpt>
      <trkpt lat="44.75951" lon="6.7805">
        <ele>1666</ele>
        <time>2019-08-19T06:01:22Z</time>
      </trkpt>
      <trkpt lat="44.75948" lon="6.78075">
        <ele>1661</ele>
        <time>2019-08-19T06:01:46Z</time>
      </trkpt>
      <trkpt lat="44.75939" lon="6.78121">
        <ele>1654</ele>
        <time>2019-08-19T06:02:31Z</time>
      </trkpt>
      <trkpt lat="44.75933" lon="6.78144">
        <ele>1652</ele>
        <time>2019-08-19T06:02:55Z</time>
      </trkpt>
      <trkpt lat="44.75925" lon="6.78162">
        <ele>1652</ele>
        <time>2019-08-19T06:03:15Z</time>
      </trkpt>
      <trkpt lat="44.75905" lon="6.782">
        <ele>1643</ele>
        <time>2019-08-19T06:03:59Z</time>
      </trkpt>
      <trkpt lat="44.75903" lon="6.78219">
        <ele>1637</ele>
        <time>2019-08-19T06:04:18Z</time>
      </trkpt>
      <trkpt lat="44.75905" lon="6.78231">
        <ele>1633</ele>
        <time>2019-08-19T06:04:29Z</time>
      </trkpt>
      <trkpt lat="44.75927" lon="6.7828">
        <ele>1612</ele>
        <time>2019-08-19T06:05:24Z</time>
      </trkpt>
      <trkpt lat="44.75931" lon="6.78297">
        <ele>1603</ele>
        <time>2019-08-19T06:05:41Z</time>
      </trkpt>
      <trkpt lat="44.75933" lon="6.78316">
        <ele>1595</ele>
        <time>2019-08-19T06:05:59Z</time>
      </trkpt>
      <trkpt lat="44.75924" lon="6.78338">
        <ele>1592</ele>
        <time>2019-08-19T06:06:24Z</time>
      </trkpt>
      <trkpt lat="44.75918" lon="6.78347">
        <ele>1590</ele>
        <time>2019-08-19T06:06:35Z</time>
      </trkpt>
      <trkpt lat="44.75901" lon="6.7836">
        <ele>1581</ele>
        <time>2019-08-19T06:07:01Z</time>
      </trkpt>
      <trkpt lat="44.75888" lon="6.78365">
        <ele>1578</ele>
        <time>2019-08-19T06:07:19Z</time>
      </trkpt>
      <trkpt lat="44.75858" lon="6.78373">
        <ele>1574</ele>
        <time>2019-08-19T06:08:00Z</time>
      </trkpt>
      <trkpt lat="44.75838" lon="6.78375">
        <ele>1574</ele>
        <time>2019-08-19T06:08:27Z</time>
      </trkpt>
      <trkpt lat="44.75823" lon="6.78377">
        <ele>1571</ele>
        <time>2019-08-19T06:08:47Z</time>
      </trkpt>
      <trkpt lat="44.75808" lon="6.78401">
        <ele>1562</ele>
        <time>2019-08-19T06:09:17Z</time>
      </trkpt>
      <trkpt lat="44.75811" lon="6.78431">
        <ele>1555</ele>
        <time>2019-08-19T06:09:46Z</time>
      </trkpt>
      <trkpt lat="44.758" lon="6.78471">
        <ele>1542</ele>
        <time>2019-08-19T06:10:26Z</time>
      </trkpt>
      <trkpt lat="44.758" lon="6.78492">
        <ele>1536</ele>
        <time>2019-08-19T06:10:46Z</time>
      </trkpt>
      <trkpt lat="44.75797" lon="6.7851">
        <ele>1528</ele>
        <time>2019-08-19T06:11:04Z</time>
      </trkpt>
      <trkpt lat="44.75781" lon="6.78514">
        <ele>1527</ele>
        <time>2019-08-19T06:11:25Z</time>
      </trkpt>
      <trkpt lat="44.75781" lon="6.78526">
        <ele>1521</ele>
        <time>2019-08-19T06:11:37Z</time>
      </trkpt>
      <trkpt lat="44.75778" lon="6.78536">
        <ele>1517</ele>
        <time>2019-08-19T06:11:47Z</time>
      </trkpt>
      <trkpt lat="44.75782" lon="6.78549">
        <ele>1510</ele>
        <time>2019-08-19T06:12:00Z</time>
      </trkpt>
      <trkpt lat="44.75776" lon="6.78551">
        <ele>1510</ele>
        <time>2019-08-19T06:12:09Z</time>
      </trkpt>
      <trkpt lat="44.75769" lon="6.78566">
        <ele>1505</ele>
        <time>2019-08-19T06:12:26Z</time>
      </trkpt>
      <trkpt lat="44.75752" lon="6.78566">
        <ele>1509</ele>
        <time>2019-08-19T06:12:48Z</time>
      </trkpt>
      <trkpt lat="44.75741" lon="6.78556">
        <ele>1508</ele>
        <time>2019-08-19T06:13:06Z</time>
      </trkpt>
      <trkpt lat="44.75729" lon="6.78552">
        <ele>1502</ele>
        <time>2019-08-19T06:13:22Z</time>
      </trkpt>
      <trkpt lat="44.75723" lon="6.78542">
        <ele>1502</ele>
        <time>2019-08-19T06:13:35Z</time>
      </trkpt>
      <trkpt lat="44.75714" lon="6.78548">
        <ele>1495</ele>
        <time>2019-08-19T06:13:48Z</time>
      </trkpt>
      <trkpt lat="44.7571" lon="6.78568">
        <ele>1486</ele>
        <time>2019-08-19T06:14:08Z</time>
      </trkpt>
      <trkpt lat="44.75708" lon="6.78596">
        <ele>1477</ele>
        <time>2019-08-19T06:14:34Z</time>
      </trkpt>
      <trkpt lat="44.75721" lon="6.78637">
        <ele>1470</ele>
        <time>2019-08-19T06:15:17Z</time>
      </trkpt>
      <trkpt lat="44.75709" lon="6.78628">
        <ele>1468</ele>
        <time>2019-08-19T06:15:35Z</time>
      </trkpt>
      <trkpt lat="44.75723" lon="6.78665">
        <ele>1461</ele>
        <time>2019-08-19T06:16:15Z</time>
      </trkpt>
      <trkpt lat="44.75727" lon="6.78687">
        <ele>1452</ele>
        <time>2019-08-19T06:16:36Z</time>
      </trkpt>
      <trkpt lat="44.75713" lon="6.78707">
        <ele>1441</ele>
        <time>2019-08-19T06:17:03Z</time>
      </trkpt>
      <trkpt lat="44.75689" lon="6.78726">
        <ele>1434</ele>
        <time>2019-08-19T06:17:40Z</time>
      </trkpt>
      <trkpt lat="44.75673" lon="6.78718">
        <ele>1436</ele>
        <time>2019-08-19T06:18:02Z</time>
      </trkpt>
      <trkpt lat="44.75664" lon="6.78715">
        <ele>1435</ele>
        <time>2019-08-19T06:18:15Z</time>
      </trkpt>
      <trkpt lat="44.75639" lon="6.78684">
        <ele>1429</ele>
        <time>2019-08-19T06:18:59Z</time>
      </trkpt>
      <trkpt lat="44.75614" lon="6.78652">
        <ele>1419</ele>
        <time>2019-08-19T06:19:44Z</time>
      </trkpt>
      <trkpt lat="44.75607" lon="6.78633">
        <ele>1415</ele>
        <time>2019-08-19T06:20:04Z</time>
      </trkpt>
      <trkpt lat="44.75613" lon="6.78596">
        <ele>1420</ele>
        <time>2019-08-19T06:20:40Z</time>
      </trkpt>
      <trkpt lat="44.75612" lon="6.78587">
        <ele>1420</ele>
        <time>2019-08-19T06:20:49Z</time>
      </trkpt>
      <trkpt lat="44.75598" lon="6.78563">
        <ele>1413</ele>
        <time>2019-08-19T06:21:19Z</time>
      </trkpt>
      <trkpt lat="44.75589" lon="6.78523">
        <ele>1412</ele>
        <time>2019-08-19T06:21:58Z</time>
      </trkpt>
      <trkpt lat="44.75584" lon="6.78509">
        <ele>1409</ele>
        <time>2019-08-19T06:22:13Z</time>
      </trkpt>
      <trkpt lat="44.7558" lon="6.78513">
        <ele>1406</ele>
        <time>2019-08-19T06:22:20Z</time>
      </trkpt>
      <trkpt lat="44.75577" lon="6.78541">
        <ele>1401</ele>
        <time>2019-08-19T06:22:47Z</time>
      </trkpt>
      <trkpt lat="44.75572" lon="6.7856">
        <ele>1396</ele>
        <time>2019-08-19T06:23:06Z</time>
      </trkpt>
      <trkpt lat="44.75565" lon="6.78579">
        <ele>1390</ele>
        <time>2019-08-19T06:23:26Z</time>
      </trkpt>
      <trkpt lat="44.75556" lon="6.78597">
        <ele>1385</ele>
        <time>2019-08-19T06:23:47Z</time>
      </trkpt>
      <trkpt lat="44.75545" lon="6.78637">
        <ele>1379</ele>
        <time>2019-08-19T06:24:28Z</time>
      </trkpt>
      <trkpt lat="44.75543" lon="6.78663">
        <ele>1379</ele>
        <time>2019-08-19T06:24:52Z</time>
      </trkpt>
      <trkpt lat="44.75546" lon="6.78679">
        <ele>1379</ele>
        <time>2019-08-19T06:25:08Z</time>
      </trkpt>
      <trkpt lat="44.75554" lon="6.78717">
        <ele>1377</ele>
        <time>2019-08-19T06:25:46Z</time>
      </trkpt>
      <trkpt lat="44.75564" lon="6.78741">
        <ele>1377</ele>
        <time>2019-08-19T06:26:12Z</time>
      </trkpt>
      <trkpt lat="44.75573" lon="6.78766">
        <ele>1378</ele>
        <time>2019-08-19T06:26:38Z</time>
      </trkpt>
      <trkpt lat="44.7558" lon="6.78773">
        <ele>1380</ele>
        <time>2019-08-19T06:26:50Z</time>
      </trkpt>
      <trkpt lat="44.75593" lon="6.78773">
        <ele>1386</ele>
        <time>2019-08-19T06:27:07Z</time>
      </trkpt>
      <trkpt lat="44.75606" lon="6.78777">
        <ele>1391</ele>
        <time>2019-08-19T06:27:25Z</time>
      </trkpt>
      <trkpt lat="44.75612" lon="6.78787">
        <ele>1392</ele>
        <time>2019-08-19T06:27:37Z</time>
      </trkpt>
      <trkpt lat="44.75618" lon="6.78795">
        <ele>1393</ele>
        <time>2019-08-19T06:27:48Z</time>
      </trkpt>
      <trkpt lat="44.75634" lon="6.78812">
        <ele>1394</ele>
        <time>2019-08-19T06:28:15Z</time>
      </trkpt>
      <trkpt lat="44.75658" lon="6.78821">
        <ele>1398</ele>
        <time>2019-08-19T06:28:48Z</time>
      </trkpt>
      <trkpt lat="44.75692" lon="6.78828">
        <ele>1400</ele>
        <time>2019-08-19T06:29:34Z</time>
      </trkpt>
      <trkpt lat="44.75699" lon="6.7883">
        <ele>1400</ele>
        <time>2019-08-19T06:29:44Z</time>
      </trkpt>
      <trkpt lat="44.75705" lon="6.78835">
        <ele>1400</ele>
        <time>2019-08-19T06:29:53Z</time>
      </trkpt>
      <trkpt lat="44.75709" lon="6.78843">
        <ele>1401</ele>
        <time>2019-08-19T06:30:02Z</time>
      </trkpt>
      <trkpt lat="44.7571" lon="6.78851">
        <ele>1402</ele>
        <time>2019-08-19T06:30:10Z</time>
      </trkpt>
      <trkpt lat="44.75708" lon="6.78862">
        <ele>1404</ele>
        <time>2019-08-19T06:30:21Z</time>
      </trkpt>
      <trkpt lat="44.75697" lon="6.78872">
        <ele>1402</ele>
        <time>2019-08-19T06:30:38Z</time>
      </trkpt>
      <trkpt lat="44.75662" lon="6.78901">
        <ele>1395</ele>
        <time>2019-08-19T06:31:32Z</time>
      </trkpt>
      <trkpt lat="44.75648" lon="6.78916">
        <ele>1395</ele>
        <time>2019-08-19T06:31:56Z</time>
      </trkpt>
      <trkpt lat="44.75643" lon="6.7892">
        <ele>1395</ele>
        <time>2019-08-19T06:32:04Z</time>
      </trkpt>
      <trkpt lat="44.75643" lon="6.78983">
        <ele>1393</ele>
        <time>2019-08-19T06:33:03Z</time>
      </trkpt>
      <trkpt lat="44.75643" lon="6.78999">
        <ele>1393</ele>
        <time>2019-08-19T06:33:18Z</time>
      </trkpt>
      <trkpt lat="44.75648" lon="6.79009">
        <ele>1391</ele>
        <time>2019-08-19T06:33:30Z</time>
      </trkpt>
      <trkpt lat="44.75649" lon="6.79043">
        <ele>1386</ele>
        <time>2019-08-19T06:34:02Z</time>
      </trkpt>
      <trkpt lat="44.75649" lon="6.79077">
        <ele>1382</ele>
        <time>2019-08-19T06:34:34Z</time>
      </trkpt>
      <trkpt lat="44.75651" lon="6.79096">
        <ele>1379</ele>
        <time>2019-08-19T06:34:53Z</time>
      </trkpt>
      <trkpt lat="44.75652" lon="6.79152">
        <ele>1369</ele>
        <time>2019-08-19T06:35:46Z</time>
      </trkpt>
      <trkpt lat="44.75672" lon="6.79168">
        <ele>1369</ele>
        <time>2019-08-19T06:36:16Z</time>
      </trkpt>
      <trkpt lat="44.75649" lon="6.79192">
        <ele>1361</ele>
        <time>2019-08-19T06:36:55Z</time>
      </trkpt>
      <trkpt lat="44.75627" lon="6.7921">
        <ele>1355</ele>
        <time>2019-08-19T06:37:29Z</time>
      </trkpt>
      <trkpt lat="44.75603" lon="6.79215">
        <ele>1353</ele>
        <time>2019-08-19T06:38:01Z</time>
      </trkpt>
      <trkpt lat="44.75579" lon="6.79236">
        <ele>1350</ele>
        <time>2019-08-19T06:38:39Z</time>
      </trkpt>
      <trkpt lat="44.75572" lon="6.79239">
        <ele>1351</ele>
        <time>2019-08-19T06:38:48Z</time>
      </trkpt>
      <trkpt lat="44.7554" lon="6.79238">
        <ele>1359</ele>
        <time>2019-08-19T06:39:31Z</time>
      </trkpt>
      <trkpt lat="44.75507" lon="6.79236">
        <ele>1367</ele>
        <time>2019-08-19T06:40:15Z</time>
      </trkpt>
      <trkpt lat="44.75472" lon="6.7927">
        <ele>1379</ele>
        <time>2019-08-19T06:41:12Z</time>
      </trkpt>
      <trkpt lat="44.75436" lon="6.79303">
        <ele>1394</ele>
        <time>2019-08-19T06:42:09Z</time>
      </trkpt>
      <trkpt lat="44.75401" lon="6.79337">
        <ele>1414</ele>
        <time>2019-08-19T06:43:06Z</time>
      </trkpt>
      <trkpt lat="44.75335" lon="6.79264">
        <ele>1438</ele>
        <time>2019-08-19T06:44:58Z</time>
      </trkpt>
      <trkpt lat="44.75312" lon="6.79239">
        <ele>1444</ele>
        <time>2019-08-19T06:45:37Z</time>
      </trkpt>
      <trkpt lat="44.75297" lon="6.79213">
        <ele>1446</ele>
        <time>2019-08-19T06:46:09Z</time>
      </trkpt>
      <trkpt lat="44.75283" lon="6.79187">
        <ele>1447</ele>
        <time>2019-08-19T06:46:40Z</time>
      </trkpt>
      <trkpt lat="44.75246" lon="6.79177">
        <ele>1460</ele>
        <time>2019-08-19T06:47:30Z</time>
      </trkpt>
      <trkpt lat="44.75208" lon="6.79167">
        <ele>1467</ele>
        <time>2019-08-19T06:48:21Z</time>
      </trkpt>
      <trkpt lat="44.75184" lon="6.79182">
        <ele>1478</ele>
        <time>2019-08-19T06:48:56Z</time>
      </trkpt>
      <trkpt lat="44.75084" lon="6.79182">
        <ele>1490</ele>
        <time>2019-08-19T06:51:10Z</time>
      </trkpt>
      <trkpt lat="44.75045" lon="6.79212">
        <ele>1509</ele>
        <time>2019-08-19T06:52:09Z</time>
      </trkpt>
      <trkpt lat="44.74958" lon="6.79202">
        <ele>1516</ele>
        <time>2019-08-19T06:54:06Z</time>
      </trkpt>
      <trkpt lat="44.74914" lon="6.79197">
        <ele>1525</ele>
        <time>2019-08-19T06:55:05Z</time>
      </trkpt>
      <trkpt lat="44.74882" lon="6.79207">
        <ele>1533</ele>
        <time>2019-08-19T06:55:48Z</time>
      </trkpt>
      <trkpt lat="44.74849" lon="6.79216">
        <ele>1538</ele>
        <time>2019-08-19T06:56:33Z</time>
      </trkpt>
      <trkpt lat="44.74817" lon="6.79226">
        <ele>1545</ele>
        <time>2019-08-19T06:57:17Z</time>
      </trkpt>
      <trkpt lat="44.7474" lon="6.79335">
        <ele>1571</ele>
        <time>2019-08-19T06:59:43Z</time>
      </trkpt>
      <trkpt lat="44.74714" lon="6.79372">
        <ele>1585</ele>
        <time>2019-08-19T07:00:32Z</time>
      </trkpt>
      <trkpt lat="44.74733" lon="6.79386">
        <ele>1587</ele>
        <time>2019-08-19T07:01:01Z</time>
      </trkpt>
      <trkpt lat="44.74714" lon="6.79469">
        <ele>1608</ele>
        <time>2019-08-19T07:02:23Z</time>
      </trkpt>
      <trkpt lat="44.74707" lon="6.79501">
        <ele>1614</ele>
        <time>2019-08-19T07:02:55Z</time>
      </trkpt>
      <trkpt lat="44.74707" lon="6.79501">
        <ele>1614</ele>
        <time>2019-08-19T07:02:55Z</time>
      </trkpt>
      <trkpt lat="44.74742" lon="6.79477">
        <ele>1617</ele>
        <time>2019-08-19T07:03:47Z</time>
      </trkpt>
      <trkpt lat="44.74745" lon="6.79485">
        <ele>1621</ele>
        <time>2019-08-19T07:03:55Z</time>
      </trkpt>
      <trkpt lat="44.74745" lon="6.79493">
        <ele>1624</ele>
        <time>2019-08-19T07:04:03Z</time>
      </trkpt>
      <trkpt lat="44.74738" lon="6.79503">
        <ele>1625</ele>
        <time>2019-08-19T07:04:16Z</time>
      </trkpt>
      <trkpt lat="44.74715" lon="6.79532">
        <ele>1625</ele>
        <time>2019-08-19T07:04:58Z</time>
      </trkpt>
      <trkpt lat="44.74698" lon="6.79568">
        <ele>1627</ele>
        <time>2019-08-19T07:05:39Z</time>
      </trkpt>
      <trkpt lat="44.74698" lon="6.79603">
        <ele>1636</ele>
        <time>2019-08-19T07:06:12Z</time>
      </trkpt>
      <trkpt lat="44.74694" lon="6.79622">
        <ele>1640</ele>
        <time>2019-08-19T07:06:30Z</time>
      </trkpt>
      <trkpt lat="44.7468" lon="6.7967">
        <ele>1646</ele>
        <time>2019-08-19T07:07:20Z</time>
      </trkpt>
      <trkpt lat="44.74669" lon="6.79695">
        <ele>1648</ele>
        <time>2019-08-19T07:07:48Z</time>
      </trkpt>
      <trkpt lat="44.74657" lon="6.79716">
        <ele>1653</ele>
        <time>2019-08-19T07:08:13Z</time>
      </trkpt>
      <trkpt lat="44.74616" lon="6.79743">
        <ele>1658</ele>
        <time>2019-08-19T07:09:13Z</time>
      </trkpt>
      <trkpt lat="44.74596" lon="6.79747">
        <ele>1658</ele>
        <time>2019-08-19T07:09:40Z</time>
      </trkpt>
      <trkpt lat="44.74559" lon="6.79744">
        <ele>1660</ele>
        <time>2019-08-19T07:10:30Z</time>
      </trkpt>
      <trkpt lat="44.74527" lon="6.7974">
        <ele>1664</ele>
        <time>2019-08-19T07:11:13Z</time>
      </trkpt>
      <trkpt lat="44.74513" lon="6.79751">
        <ele>1665</ele>
        <time>2019-08-19T07:11:34Z</time>
      </trkpt>
      <trkpt lat="44.74491" lon="6.79771">
        <ele>1672</ele>
        <time>2019-08-19T07:12:09Z</time>
      </trkpt>
      <trkpt lat="44.7449" lon="6.79794">
        <ele>1677</ele>
        <time>2019-08-19T07:12:31Z</time>
      </trkpt>
      <trkpt lat="44.74446" lon="6.79806">
        <ele>1688</ele>
        <time>2019-08-19T07:13:31Z</time>
      </trkpt>
      <trkpt lat="44.74403" lon="6.79818">
        <ele>1701</ele>
        <time>2019-08-19T07:14:29Z</time>
      </trkpt>
      <trkpt lat="44.7432" lon="6.79768">
        <ele>1718</ele>
        <time>2019-08-19T07:16:30Z</time>
      </trkpt>
      <trkpt lat="44.74303" lon="6.79743">
        <ele>1720</ele>
        <time>2019-08-19T07:17:03Z</time>
      </trkpt>
      <trkpt lat="44.74267" lon="6.79746">
        <ele>1728</ele>
        <time>2019-08-19T07:17:51Z</time>
      </trkpt>
      <trkpt lat="44.74193" lon="6.79754">
        <ele>1742</ele>
        <time>2019-08-19T07:19:30Z</time>
      </trkpt>
      <trkpt lat="44.74157" lon="6.79758">
        <ele>1750</ele>
        <time>2019-08-19T07:20:18Z</time>
      </trkpt>
      <trkpt lat="44.7412" lon="6.79761">
        <ele>1758</ele>
        <time>2019-08-19T07:21:07Z</time>
      </trkpt>
      <trkpt lat="44.7411" lon="6.7976">
        <ele>1760</ele>
        <time>2019-08-19T07:21:21Z</time>
      </trkpt>
      <trkpt lat="44.74098" lon="6.79765">
        <ele>1764</ele>
        <time>2019-08-19T07:21:37Z</time>
      </trkpt>
      <trkpt lat="44.73901" lon="6.79898">
        <ele>1807</ele>
        <time>2019-08-19T07:26:29Z</time>
      </trkpt>
      <trkpt lat="44.73862" lon="6.79924">
        <ele>1815</ele>
        <time>2019-08-19T07:27:27Z</time>
      </trkpt>
      <trkpt lat="44.73823" lon="6.79951">
        <ele>1824</ele>
        <time>2019-08-19T07:28:25Z</time>
      </trkpt>
      <trkpt lat="44.73814" lon="6.7997">
        <ele>1830</ele>
        <time>2019-08-19T07:28:46Z</time>
      </trkpt>
      <trkpt lat="44.73786" lon="6.79979">
        <ele>1834</ele>
        <time>2019-08-19T07:29:25Z</time>
      </trkpt>
      <trkpt lat="44.73753" lon="6.79979">
        <ele>1836</ele>
        <time>2019-08-19T07:30:09Z</time>
      </trkpt>
      <trkpt lat="44.73725" lon="6.79957">
        <ele>1829</ele>
        <time>2019-08-19T07:30:51Z</time>
      </trkpt>
      <trkpt lat="44.73708" lon="6.7996">
        <ele>1828</ele>
        <time>2019-08-19T07:31:14Z</time>
      </trkpt>
      <trkpt lat="44.73695" lon="6.79996">
        <ele>1833</ele>
        <time>2019-08-19T07:31:53Z</time>
      </trkpt>
      <trkpt lat="44.73657" lon="6.80077">
        <ele>1853</ele>
        <time>2019-08-19T07:33:25Z</time>
      </trkpt>
      <trkpt lat="44.73645" lon="6.80101">
        <ele>1860</ele>
        <time>2019-08-19T07:33:52Z</time>
      </trkpt>
      <trkpt lat="44.73627" lon="6.8009">
        <ele>1859</ele>
        <time>2019-08-19T07:34:19Z</time>
      </trkpt>
      <trkpt lat="44.73497" lon="6.80092">
        <ele>1865</ele>
        <time>2019-08-19T07:37:12Z</time>
      </trkpt>
      <trkpt lat="44.73454" lon="6.80093">
        <ele>1868</ele>
        <time>2019-08-19T07:38:09Z</time>
      </trkpt>
      <trkpt lat="44.73424" lon="6.80112">
        <ele>1874</ele>
        <time>2019-08-19T07:38:53Z</time>
      </trkpt>
      <trkpt lat="44.73363" lon="6.8012">
        <ele>1878</ele>
        <time>2019-08-19T07:40:15Z</time>
      </trkpt>
      <trkpt lat="44.7332" lon="6.80112">
        <ele>1879</ele>
        <time>2019-08-19T07:41:13Z</time>
      </trkpt>
      <trkpt lat="44.73252" lon="6.80123">
        <ele>1890</ele>
        <time>2019-08-19T07:42:44Z</time>
      </trkpt>
      <trkpt lat="44.73218" lon="6.80129">
        <ele>1895</ele>
        <time>2019-08-19T07:43:30Z</time>
      </trkpt>
      <trkpt lat="44.73188" lon="6.80173">
        <ele>1907</ele>
        <time>2019-08-19T07:44:28Z</time>
      </trkpt>
      <trkpt lat="44.73106" lon="6.80196">
        <ele>1915</ele>
        <time>2019-08-19T07:46:19Z</time>
      </trkpt>
      <trkpt lat="44.73066" lon="6.80208">
        <ele>1919</ele>
        <time>2019-08-19T07:47:14Z</time>
      </trkpt>
      <trkpt lat="44.73031" lon="6.8022">
        <ele>1924</ele>
        <time>2019-08-19T07:48:02Z</time>
      </trkpt>
      <trkpt lat="44.72997" lon="6.80232">
        <ele>1929</ele>
        <time>2019-08-19T07:48:49Z</time>
      </trkpt>
      <trkpt lat="44.72886" lon="6.80272">
        <ele>1944</ele>
        <time>2019-08-19T07:51:22Z</time>
      </trkpt>
      <trkpt lat="44.72847" lon="6.80285">
        <ele>1945</ele>
        <time>2019-08-19T07:52:15Z</time>
      </trkpt>
      <trkpt lat="44.72821" lon="6.80324">
        <ele>1952</ele>
        <time>2019-08-19T07:53:06Z</time>
      </trkpt>
      <trkpt lat="44.7274" lon="6.80355">
        <ele>1956</ele>
        <time>2019-08-19T07:54:58Z</time>
      </trkpt>
      <trkpt lat="44.727" lon="6.80371">
        <ele>1962</ele>
        <time>2019-08-19T07:55:53Z</time>
      </trkpt>
      <trkpt lat="44.7267" lon="6.80397">
        <ele>1971</ele>
        <time>2019-08-19T07:56:40Z</time>
      </trkpt>
      <trkpt lat="44.7264" lon="6.80422">
        <ele>1979</ele>
        <time>2019-08-19T07:57:27Z</time>
      </trkpt>
      <trkpt lat="44.72632" lon="6.80458">
        <ele>1989</ele>
        <time>2019-08-19T07:58:03Z</time>
      </trkpt>
      <trkpt lat="44.72624" lon="6.80494">
        <ele>1999</ele>
        <time>2019-08-19T07:58:38Z</time>
      </trkpt>
      <trkpt lat="44.726" lon="6.80501">
        <ele>2000</ele>
        <time>2019-08-19T07:59:11Z</time>
      </trkpt>
      <trkpt lat="44.72577" lon="6.80508">
        <ele>2003</ele>
        <time>2019-08-19T07:59:43Z</time>
      </trkpt>
      <trkpt lat="44.72545" lon="6.80489">
        <ele>2004</ele>
        <time>2019-08-19T08:00:29Z</time>
      </trkpt>
      <trkpt lat="44.72504" lon="6.80504">
        <ele>2016</ele>
        <time>2019-08-19T08:01:25Z</time>
      </trkpt>
      <trkpt lat="44.72464" lon="6.80519">
        <ele>2027</ele>
        <time>2019-08-19T08:02:21Z</time>
      </trkpt>
      <trkpt lat="44.72423" lon="6.80516">
        <ele>2034</ele>
        <time>2019-08-19T08:03:16Z</time>
      </trkpt>
      <trkpt lat="44.72383" lon="6.80513">
        <ele>2042</ele>
        <time>2019-08-19T08:04:09Z</time>
      </trkpt>
      <trkpt lat="44.72345" lon="6.80513">
        <ele>2050</ele>
        <time>2019-08-19T08:05:00Z</time>
      </trkpt>
      <trkpt lat="44.72307" lon="6.80513">
        <ele>2060</ele>
        <time>2019-08-19T08:05:50Z</time>
      </trkpt>
      <trkpt lat="44.72282" lon="6.80488">
        <ele>2062</ele>
        <time>2019-08-19T08:06:31Z</time>
      </trkpt>
      <trkpt lat="44.72257" lon="6.80462">
        <ele>2065</ele>
        <time>2019-08-19T08:07:13Z</time>
      </trkpt>
      <trkpt lat="44.72148" lon="6.80376">
        <ele>2082</ele>
        <time>2019-08-19T08:10:00Z</time>
      </trkpt>
      <trkpt lat="44.72112" lon="6.80348">
        <ele>2083</ele>
        <time>2019-08-19T08:10:54Z</time>
      </trkpt>
      <trkpt lat="44.7211" lon="6.80362">
        <ele>2084</ele>
        <time>2019-08-19T08:11:08Z</time>
      </trkpt>
      <trkpt lat="44.72047" lon="6.80354">
        <ele>2087</ele>
        <time>2019-08-19T08:12:32Z</time>
      </trkpt>
      <trkpt lat="44.72016" lon="6.8035">
        <ele>2087</ele>
        <time>2019-08-19T08:13:14Z</time>
      </trkpt>
      <trkpt lat="44.71991" lon="6.80356">
        <ele>2090</ele>
        <time>2019-08-19T08:13:48Z</time>
      </trkpt>
      <trkpt lat="44.71966" lon="6.80362">
        <ele>2095</ele>
        <time>2019-08-19T08:14:22Z</time>
      </trkpt>
      <trkpt lat="44.71897" lon="6.80336">
        <ele>2102</ele>
        <time>2019-08-19T08:15:57Z</time>
      </trkpt>
      <trkpt lat="44.71863" lon="6.80324">
        <ele>2111</ele>
        <time>2019-08-19T08:16:44Z</time>
      </trkpt>
      <trkpt lat="44.71785" lon="6.80373">
        <ele>2125</ele>
        <time>2019-08-19T08:18:38Z</time>
      </trkpt>
      <trkpt lat="44.71764" lon="6.80352">
        <ele>2130</ele>
        <time>2019-08-19T08:19:12Z</time>
      </trkpt>
      <trkpt lat="44.71622" lon="6.80435">
        <ele>2140</ele>
        <time>2019-08-19T08:22:37Z</time>
      </trkpt>
      <trkpt lat="44.71611" lon="6.80443">
        <ele>2142</ele>
        <time>2019-08-19T08:22:54Z</time>
      </trkpt>
      <trkpt lat="44.7159" lon="6.80442">
        <ele>2145</ele>
        <time>2019-08-19T08:23:22Z</time>
      </trkpt>
      <trkpt lat="44.71534" lon="6.80436">
        <ele>2156</ele>
        <time>2019-08-19T08:24:37Z</time>
      </trkpt>
      <trkpt lat="44.71524" lon="6.80435">
        <ele>2158</ele>
        <time>2019-08-19T08:24:50Z</time>
      </trkpt>
      <trkpt lat="44.71501" lon="6.8044">
        <ele>2163</ele>
        <time>2019-08-19T08:25:21Z</time>
      </trkpt>
      <trkpt lat="44.71462" lon="6.80458">
        <ele>2171</ele>
        <time>2019-08-19T08:26:16Z</time>
      </trkpt>
      <trkpt lat="44.71355" lon="6.80466">
        <ele>2186</ele>
        <time>2019-08-19T08:28:39Z</time>
      </trkpt>
      <trkpt lat="44.71319" lon="6.80468">
        <ele>2192</ele>
        <time>2019-08-19T08:29:27Z</time>
      </trkpt>
      <trkpt lat="44.71294" lon="6.80473">
        <ele>2196</ele>
        <time>2019-08-19T08:30:01Z</time>
      </trkpt>
      <trkpt lat="44.71269" lon="6.80477">
        <ele>2200</ele>
        <time>2019-08-19T08:30:34Z</time>
      </trkpt>
      <trkpt lat="44.71199" lon="6.80503">
        <ele>2212</ele>
        <time>2019-08-19T08:32:11Z</time>
      </trkpt>
      <trkpt lat="44.71173" lon="6.80505">
        <ele>2220</ele>
        <time>2019-08-19T08:32:46Z</time>
      </trkpt>
      <trkpt lat="44.71137" lon="6.80499">
        <ele>2229</ele>
        <time>2019-08-19T08:33:34Z</time>
      </trkpt>
      <trkpt lat="44.71149" lon="6.80472">
        <ele>2232</ele>
        <time>2019-08-19T08:34:04Z</time>
      </trkpt>
      <trkpt lat="44.71142" lon="6.80467">
        <ele>2235</ele>
        <time>2019-08-19T08:34:15Z</time>
      </trkpt>
      <trkpt lat="44.71155" lon="6.80436">
        <ele>2238</ele>
        <time>2019-08-19T08:34:49Z</time>
      </trkpt>
      <trkpt lat="44.71167" lon="6.80405">
        <ele>2242</ele>
        <time>2019-08-19T08:35:22Z</time>
      </trkpt>
      <trkpt lat="44.71184" lon="6.80376">
        <ele>2244</ele>
        <time>2019-08-19T08:35:58Z</time>
      </trkpt>
      <trkpt lat="44.71203" lon="6.80328">
        <ele>2250</ele>
        <time>2019-08-19T08:36:50Z</time>
      </trkpt>
      <trkpt lat="44.712" lon="6.80323">
        <ele>2252</ele>
        <time>2019-08-19T08:36:56Z</time>
      </trkpt>
      <trkpt lat="44.71164" lon="6.80333">
        <ele>2258</ele>
        <time>2019-08-19T08:37:45Z</time>
      </trkpt>
      <trkpt lat="44.71162" lon="6.80323">
        <ele>2260</ele>
        <time>2019-08-19T08:37:55Z</time>
      </trkpt>
      <trkpt lat="44.71163" lon="6.80305">
        <ele>2263</ele>
        <time>2019-08-19T08:38:12Z</time>
      </trkpt>
      <trkpt lat="44.71157" lon="6.80302">
        <ele>2264</ele>
        <time>2019-08-19T08:38:21Z</time>
      </trkpt>
      <trkpt lat="44.71143" lon="6.80311">
        <ele>2265</ele>
        <time>2019-08-19T08:38:41Z</time>
      </trkpt>
      <trkpt lat="44.71136" lon="6.80308">
        <ele>2267</ele>
        <time>2019-08-19T08:38:51Z</time>
      </trkpt>
      <trkpt lat="44.71127" lon="6.80309">
        <ele>2268</ele>
        <time>2019-08-19T08:39:03Z</time>
      </trkpt>
      <trkpt lat="44.71115" lon="6.80295">
        <ele>2271</ele>
        <time>2019-08-19T08:39:24Z</time>
      </trkpt>
      <trkpt lat="44.71108" lon="6.80293">
        <ele>2272</ele>
        <time>2019-08-19T08:39:33Z</time>
      </trkpt>
      <trkpt lat="44.71079" lon="6.80304">
        <ele>2275</ele>
        <time>2019-08-19T08:40:14Z</time>
      </trkpt>
      <trkpt lat="44.71067" lon="6.80306">
        <ele>2276</ele>
        <time>2019-08-19T08:40:30Z</time>
      </trkpt>
      <trkpt lat="44.7106" lon="6.80304">
        <ele>2276</ele>
        <time>2019-08-19T08:40:39Z</time>
      </trkpt>
      <trkpt lat="44.71046" lon="6.80305">
        <ele>2276</ele>
        <time>2019-08-19T08:40:58Z</time>
      </trkpt>
      <trkpt lat="44.71038" lon="6.80297">
        <ele>2275</ele>
        <time>2019-08-19T08:41:11Z</time>
      </trkpt>
      <trkpt lat="44.71026" lon="6.80296">
        <ele>2275</ele>
        <time>2019-08-19T08:41:27Z</time>
      </trkpt>
      <trkpt lat="44.71019" lon="6.80293">
        <ele>2275</ele>
        <time>2019-08-19T08:41:37Z</time>
      </trkpt>
      <trkpt lat="44.71009" lon="6.80298">
        <ele>2276</ele>
        <time>2019-08-19T08:41:51Z</time>
      </trkpt>
      <trkpt lat="44.70989" lon="6.80302">
        <ele>2278</ele>
        <time>2019-08-19T08:42:18Z</time>
      </trkpt>
      <trkpt lat="44.70972" lon="6.80295">
        <ele>2278</ele>
        <time>2019-08-19T08:42:42Z</time>
      </trkpt>
      <trkpt lat="44.70943" lon="6.8029">
        <ele>2280</ele>
        <time>2019-08-19T08:43:21Z</time>
      </trkpt>
      <trkpt lat="44.70915" lon="6.80284">
        <ele>2281</ele>
        <time>2019-08-19T08:43:58Z</time>
      </trkpt>
      <trkpt lat="44.70905" lon="6.80287">
        <ele>2282</ele>
        <time>2019-08-19T08:44:12Z</time>
      </trkpt>
      <trkpt lat="44.70895" lon="6.80296">
        <ele>2286</ele>
        <time>2019-08-19T08:44:28Z</time>
      </trkpt>
      <trkpt lat="44.70875" lon="6.80295">
        <ele>2286</ele>
        <time>2019-08-19T08:44:55Z</time>
      </trkpt>
      <trkpt lat="44.70848" lon="6.80306">
        <ele>2291</ele>
        <time>2019-08-19T08:45:32Z</time>
      </trkpt>
      <trkpt lat="44.70836" lon="6.80296">
        <ele>2289</ele>
        <time>2019-08-19T08:45:51Z</time>
      </trkpt>
      <trkpt lat="44.70829" lon="6.80293">
        <ele>2288</ele>
        <time>2019-08-19T08:46:00Z</time>
      </trkpt>
      <trkpt lat="44.70815" lon="6.80296">
        <ele>2289</ele>
        <time>2019-08-19T08:46:19Z</time>
      </trkpt>
      <trkpt lat="44.70799" lon="6.80283">
        <ele>2284</ele>
        <time>2019-08-19T08:46:44Z</time>
      </trkpt>
      <trkpt lat="44.70785" lon="6.80278">
        <ele>2282</ele>
        <time>2019-08-19T08:47:03Z</time>
      </trkpt>
      <trkpt lat="44.70768" lon="6.80283">
        <ele>2284</ele>
        <time>2019-08-19T08:47:26Z</time>
      </trkpt>
      <trkpt lat="44.7074" lon="6.80298">
        <ele>2285</ele>
        <time>2019-08-19T08:48:06Z</time>
      </trkpt>
      <trkpt lat="44.70677" lon="6.80399">
        <ele>2300</ele>
        <time>2019-08-19T08:50:14Z</time>
      </trkpt>
      <trkpt lat="44.70655" lon="6.80433">
        <ele>2302</ele>
        <time>2019-08-19T08:50:57Z</time>
      </trkpt>
      <trkpt lat="44.70635" lon="6.80451">
        <ele>2299</ele>
        <time>2019-08-19T08:51:29Z</time>
      </trkpt>
      <trkpt lat="44.70614" lon="6.80468">
        <ele>2296</ele>
        <time>2019-08-19T08:52:01Z</time>
      </trkpt>
      <trkpt lat="44.70582" lon="6.80526">
        <ele>2303</ele>
        <time>2019-08-19T08:53:11Z</time>
      </trkpt>
      <trkpt lat="44.70555" lon="6.80554">
        <ele>2308</ele>
        <time>2019-08-19T08:53:56Z</time>
      </trkpt>
      <trkpt lat="44.70527" lon="6.80549">
        <ele>2301</ele>
        <time>2019-08-19T08:54:34Z</time>
      </trkpt>
      <trkpt lat="44.705" lon="6.80545">
        <ele>2294</ele>
        <time>2019-08-19T08:55:10Z</time>
      </trkpt>
      <trkpt lat="44.70458" lon="6.80556">
        <ele>2293</ele>
        <time>2019-08-19T08:56:07Z</time>
      </trkpt>
      <trkpt lat="44.70416" lon="6.80566">
        <ele>2292</ele>
        <time>2019-08-19T08:57:04Z</time>
      </trkpt>
      <trkpt lat="44.70376" lon="6.80563">
        <ele>2287</ele>
        <time>2019-08-19T08:57:57Z</time>
      </trkpt>
      <trkpt lat="44.70335" lon="6.8056">
        <ele>2282</ele>
        <time>2019-08-19T08:58:52Z</time>
      </trkpt>
      <trkpt lat="44.70314" lon="6.80574">
        <ele>2280</ele>
        <time>2019-08-19T08:59:23Z</time>
      </trkpt>
      <trkpt lat="44.70292" lon="6.80588">
        <ele>2278</ele>
        <time>2019-08-19T08:59:55Z</time>
      </trkpt>
      <trkpt lat="44.70263" lon="6.80616">
        <ele>2279</ele>
        <time>2019-08-19T09:00:42Z</time>
      </trkpt>
      <trkpt lat="44.70234" lon="6.80644">
        <ele>2283</ele>
        <time>2019-08-19T09:01:29Z</time>
      </trkpt>
      <trkpt lat="44.70205" lon="6.80641">
        <ele>2279</ele>
        <time>2019-08-19T09:02:08Z</time>
      </trkpt>
      <trkpt lat="44.70176" lon="6.80638">
        <ele>2275</ele>
        <time>2019-08-19T09:02:47Z</time>
      </trkpt>
      <trkpt lat="44.70144" lon="6.80656">
        <ele>2276</ele>
        <time>2019-08-19T09:03:33Z</time>
      </trkpt>
      <trkpt lat="44.7008" lon="6.80694">
        <ele>2277</ele>
        <time>2019-08-19T09:05:05Z</time>
      </trkpt>
      <trkpt lat="44.70048" lon="6.80712">
        <ele>2281</ele>
        <time>2019-08-19T09:05:51Z</time>
      </trkpt>
      <trkpt lat="44.69915" lon="6.80698">
        <ele>2292</ele>
        <time>2019-08-19T09:08:49Z</time>
      </trkpt>
      <trkpt lat="44.69871" lon="6.80693">
        <ele>2289</ele>
        <time>2019-08-19T09:09:48Z</time>
      </trkpt>
      <trkpt lat="44.69791" lon="6.80722">
        <ele>2292</ele>
        <time>2019-08-19T09:11:38Z</time>
      </trkpt>
      <trkpt lat="44.69751" lon="6.80736">
        <ele>2290</ele>
        <time>2019-08-19T09:12:33Z</time>
      </trkpt>
      <trkpt lat="44.69707" lon="6.80794">
        <ele>2298</ele>
        <time>2019-08-19T09:13:54Z</time>
      </trkpt>
      <trkpt lat="44.69684" lon="6.80822">
        <ele>2300</ele>
        <time>2019-08-19T09:14:34Z</time>
      </trkpt>
      <trkpt lat="44.69657" lon="6.80845">
        <ele>2300</ele>
        <time>2019-08-19T09:15:17Z</time>
      </trkpt>
      <trkpt lat="44.69629" lon="6.80869">
        <ele>2303</ele>
        <time>2019-08-19T09:16:00Z</time>
      </trkpt>
      <trkpt lat="44.69553" lon="6.80865">
        <ele>2297</ele>
        <time>2019-08-19T09:17:42Z</time>
      </trkpt>
      <trkpt lat="44.69515" lon="6.80863">
        <ele>2299</ele>
        <time>2019-08-19T09:18:33Z</time>
      </trkpt>
      <trkpt lat="44.69493" lon="6.80838">
        <ele>2293</ele>
        <time>2019-08-19T09:19:10Z</time>
      </trkpt>
      <trkpt lat="44.69472" lon="6.80814">
        <ele>2289</ele>
        <time>2019-08-19T09:19:46Z</time>
      </trkpt>
      <trkpt lat="44.69449" lon="6.80812">
        <ele>2291</ele>
        <time>2019-08-19T09:20:17Z</time>
      </trkpt>
      <trkpt lat="44.69426" lon="6.80811">
        <ele>2293</ele>
        <time>2019-08-19T09:20:48Z</time>
      </trkpt>
      <trkpt lat="44.69404" lon="6.808">
        <ele>2291</ele>
        <time>2019-08-19T09:21:19Z</time>
      </trkpt>
      <trkpt lat="44.69383" lon="6.8079">
        <ele>2289</ele>
        <time>2019-08-19T09:21:49Z</time>
      </trkpt>
      <trkpt lat="44.69342" lon="6.80787">
        <ele>2290</ele>
        <time>2019-08-19T09:22:43Z</time>
      </trkpt>
      <trkpt lat="44.69301" lon="6.80784">
        <ele>2289</ele>
        <time>2019-08-19T09:23:38Z</time>
      </trkpt>
      <trkpt lat="44.69217" lon="6.80782">
        <ele>2290</ele>
        <time>2019-08-19T09:25:30Z</time>
      </trkpt>
      <trkpt lat="44.69184" lon="6.80782">
        <ele>2293</ele>
        <time>2019-08-19T09:26:14Z</time>
      </trkpt>
      <trkpt lat="44.69151" lon="6.80754">
        <ele>2292</ele>
        <time>2019-08-19T09:27:06Z</time>
      </trkpt>
      <trkpt lat="44.69117" lon="6.80725">
        <ele>2297</ele>
        <time>2019-08-19T09:27:59Z</time>
      </trkpt>
      <trkpt lat="44.69049" lon="6.80669">
        <ele>2300</ele>
        <time>2019-08-19T09:29:44Z</time>
      </trkpt>
      <trkpt lat="44.69016" lon="6.80641">
        <ele>2298</ele>
        <time>2019-08-19T09:30:35Z</time>
      </trkpt>
      <trkpt lat="44.68991" lon="6.80625">
        <ele>2297</ele>
        <time>2019-08-19T09:31:12Z</time>
      </trkpt>
      <trkpt lat="44.68967" lon="6.80609">
        <ele>2294</ele>
        <time>2019-08-19T09:31:47Z</time>
      </trkpt>
      <trkpt lat="44.68944" lon="6.80607">
        <ele>2295</ele>
        <time>2019-08-19T09:32:18Z</time>
      </trkpt>
      <trkpt lat="44.68927" lon="6.80595">
        <ele>2295</ele>
        <time>2019-08-19T09:32:44Z</time>
      </trkpt>
      <trkpt lat="44.68912" lon="6.80598">
        <ele>2294</ele>
        <time>2019-08-19T09:33:04Z</time>
      </trkpt>
      <trkpt lat="44.68872" lon="6.80599">
        <ele>2283</ele>
        <time>2019-08-19T09:33:57Z</time>
      </trkpt>
      <trkpt lat="44.68855" lon="6.80588">
        <ele>2278</ele>
        <time>2019-08-19T09:34:22Z</time>
      </trkpt>
      <trkpt lat="44.68851" lon="6.80591">
        <ele>2277</ele>
        <time>2019-08-19T09:34:28Z</time>
      </trkpt>
      <trkpt lat="44.68847" lon="6.80616">
        <ele>2276</ele>
        <time>2019-08-19T09:34:53Z</time>
      </trkpt>
      <trkpt lat="44.68839" lon="6.80618">
        <ele>2274</ele>
        <time>2019-08-19T09:35:03Z</time>
      </trkpt>
      <trkpt lat="44.68818" lon="6.80604">
        <ele>2265</ele>
        <time>2019-08-19T09:35:34Z</time>
      </trkpt>
      <trkpt lat="44.68818" lon="6.80582">
        <ele>2265</ele>
        <time>2019-08-19T09:35:55Z</time>
      </trkpt>
      <trkpt lat="44.68806" lon="6.80584">
        <ele>2260</ele>
        <time>2019-08-19T09:36:11Z</time>
      </trkpt>
      <trkpt lat="44.68799" lon="6.80602">
        <ele>2256</ele>
        <time>2019-08-19T09:36:31Z</time>
      </trkpt>
      <trkpt lat="44.68793" lon="6.80598">
        <ele>2254</ele>
        <time>2019-08-19T09:36:40Z</time>
      </trkpt>
      <trkpt lat="44.68789" lon="6.80621">
        <ele>2252</ele>
        <time>2019-08-19T09:37:02Z</time>
      </trkpt>
      <trkpt lat="44.68792" lon="6.80661">
        <ele>2254</ele>
        <time>2019-08-19T09:37:40Z</time>
      </trkpt>
      <trkpt lat="44.68792" lon="6.80671">
        <ele>2254</ele>
        <time>2019-08-19T09:37:50Z</time>
      </trkpt>
      <trkpt lat="44.68785" lon="6.80664">
        <ele>2251</ele>
        <time>2019-08-19T09:38:01Z</time>
      </trkpt>
      <trkpt lat="44.68766" lon="6.80641">
        <ele>2242</ele>
        <time>2019-08-19T09:38:35Z</time>
      </trkpt>
      <trkpt lat="44.68744" lon="6.80618">
        <ele>2232</ele>
        <time>2019-08-19T09:39:11Z</time>
      </trkpt>
      <trkpt lat="44.68736" lon="6.80598">
        <ele>2228</ele>
        <time>2019-08-19T09:39:33Z</time>
      </trkpt>
      <trkpt lat="44.68731" lon="6.806">
        <ele>2226</ele>
        <time>2019-08-19T09:39:40Z</time>
      </trkpt>
      <trkpt lat="44.68727" lon="6.80635">
        <ele>2225</ele>
        <time>2019-08-19T09:40:14Z</time>
      </trkpt>
      <trkpt lat="44.68723" lon="6.80654">
        <ele>2223</ele>
        <time>2019-08-19T09:40:32Z</time>
      </trkpt>
      <trkpt lat="44.68715" lon="6.80643">
        <ele>2220</ele>
        <time>2019-08-19T09:40:47Z</time>
      </trkpt>
      <trkpt lat="44.6871" lon="6.80654">
        <ele>2218</ele>
        <time>2019-08-19T09:41:00Z</time>
      </trkpt>
      <trkpt lat="44.68702" lon="6.8064">
        <ele>2214</ele>
        <time>2019-08-19T09:41:17Z</time>
      </trkpt>
      <trkpt lat="44.68701" lon="6.80663">
        <ele>2214</ele>
        <time>2019-08-19T09:41:39Z</time>
      </trkpt>
      <trkpt lat="44.68694" lon="6.80655">
        <ele>2211</ele>
        <time>2019-08-19T09:41:51Z</time>
      </trkpt>
      <trkpt lat="44.6868" lon="6.8061">
        <ele>2203</ele>
        <time>2019-08-19T09:42:37Z</time>
      </trkpt>
      <trkpt lat="44.68665" lon="6.80572">
        <ele>2196</ele>
        <time>2019-08-19T09:43:19Z</time>
      </trkpt>
      <trkpt lat="44.68643" lon="6.80548">
        <ele>2189</ele>
        <time>2019-08-19T09:43:56Z</time>
      </trkpt>
      <trkpt lat="44.68626" lon="6.80538">
        <ele>2182</ele>
        <time>2019-08-19T09:44:20Z</time>
      </trkpt>
      <trkpt lat="44.68607" lon="6.80521">
        <ele>2175</ele>
        <time>2019-08-19T09:44:50Z</time>
      </trkpt>
      <trkpt lat="44.68581" lon="6.80487">
        <ele>2166</ele>
        <time>2019-08-19T09:45:38Z</time>
      </trkpt>
      <trkpt lat="44.6854" lon="6.80449">
        <ele>2154</ele>
        <time>2019-08-19T09:46:43Z</time>
      </trkpt>
      <trkpt lat="44.68531" lon="6.80425">
        <ele>2154</ele>
        <time>2019-08-19T09:47:09Z</time>
      </trkpt>
      <trkpt lat="44.68505" lon="6.80407">
        <ele>2147</ele>
        <time>2019-08-19T09:47:48Z</time>
      </trkpt>
      <trkpt lat="44.68475" lon="6.80396">
        <ele>2138</ele>
        <time>2019-08-19T09:48:29Z</time>
      </trkpt>
      <trkpt lat="44.68457" lon="6.80381">
        <ele>2135</ele>
        <time>2019-08-19T09:48:57Z</time>
      </trkpt>
      <trkpt lat="44.68437" lon="6.80362">
        <ele>2132</ele>
        <time>2019-08-19T09:49:29Z</time>
      </trkpt>
      <trkpt lat="44.68446" lon="6.80383">
        <ele>2130</ele>
        <time>2019-08-19T09:49:52Z</time>
      </trkpt>
      <trkpt lat="44.68452" lon="6.80404">
        <ele>2127</ele>
        <time>2019-08-19T09:50:14Z</time>
      </trkpt>
      <trkpt lat="44.6845" lon="6.8041">
        <ele>2124</ele>
        <time>2019-08-19T09:50:20Z</time>
      </trkpt>
      <trkpt lat="44.68439" lon="6.80398">
        <ele>2123</ele>
        <time>2019-08-19T09:50:39Z</time>
      </trkpt>
      <trkpt lat="44.68423" lon="6.80392">
        <ele>2118</ele>
        <time>2019-08-19T09:51:01Z</time>
      </trkpt>
      <trkpt lat="44.68405" lon="6.80372">
        <ele>2116</ele>
        <time>2019-08-19T09:51:31Z</time>
      </trkpt>
      <trkpt lat="44.68393" lon="6.80366">
        <ele>2113</ele>
        <time>2019-08-19T09:51:48Z</time>
      </trkpt>
      <trkpt lat="44.68373" lon="6.80345">
        <ele>2110</ele>
        <time>2019-08-19T09:52:22Z</time>
      </trkpt>
      <trkpt lat="44.68349" lon="6.80324">
        <ele>2107</ele>
        <time>2019-08-19T09:53:00Z</time>
      </trkpt>
      <trkpt lat="44.68324" lon="6.80304">
        <ele>2101</ele>
        <time>2019-08-19T09:53:38Z</time>
      </trkpt>
      <trkpt lat="44.68296" lon="6.80273">
        <ele>2096</ele>
        <time>2019-08-19T09:54:25Z</time>
      </trkpt>
      <trkpt lat="44.68267" lon="6.80256">
        <ele>2087</ele>
        <time>2019-08-19T09:55:07Z</time>
      </trkpt>
      <trkpt lat="44.6824" lon="6.80215">
        <ele>2082</ele>
        <time>2019-08-19T09:56:00Z</time>
      </trkpt>
      <trkpt lat="44.68216" lon="6.80191">
        <ele>2076</ele>
        <time>2019-08-19T09:56:40Z</time>
      </trkpt>
      <trkpt lat="44.68181" lon="6.80164">
        <ele>2066</ele>
        <time>2019-08-19T09:57:33Z</time>
      </trkpt>
      <trkpt lat="44.68158" lon="6.80139">
        <ele>2062</ele>
        <time>2019-08-19T09:58:12Z</time>
      </trkpt>
      <trkpt lat="44.68134" lon="6.80117">
        <ele>2054</ele>
        <time>2019-08-19T09:58:50Z</time>
      </trkpt>
      <trkpt lat="44.68127" lon="6.80115">
        <ele>2051</ele>
        <time>2019-08-19T09:59:00Z</time>
      </trkpt>
      <trkpt lat="44.68131" lon="6.80133">
        <ele>2049</ele>
        <time>2019-08-19T09:59:17Z</time>
      </trkpt>
      <trkpt lat="44.68127" lon="6.80133">
        <ele>2047</ele>
        <time>2019-08-19T09:59:23Z</time>
      </trkpt>
      <trkpt lat="44.68111" lon="6.80116">
        <ele>2042</ele>
        <time>2019-08-19T09:59:50Z</time>
      </trkpt>
      <trkpt lat="44.68109" lon="6.80123">
        <ele>2039</ele>
        <time>2019-08-19T09:59:57Z</time>
      </trkpt>
      <trkpt lat="44.68112" lon="6.80144">
        <ele>2037</ele>
        <time>2019-08-19T10:00:17Z</time>
      </trkpt>
      <trkpt lat="44.6812" lon="6.80166">
        <ele>2037</ele>
        <time>2019-08-19T10:00:40Z</time>
      </trkpt>
      <trkpt lat="44.6812" lon="6.80184">
        <ele>2031</ele>
        <time>2019-08-19T10:00:58Z</time>
      </trkpt>
      <trkpt lat="44.68118" lon="6.8019">
        <ele>2028</ele>
        <time>2019-08-19T10:01:04Z</time>
      </trkpt>
      <trkpt lat="44.68095" lon="6.80169">
        <ele>2025</ele>
        <time>2019-08-19T10:01:40Z</time>
      </trkpt>
      <trkpt lat="44.68072" lon="6.80148">
        <ele>2017</ele>
        <time>2019-08-19T10:02:17Z</time>
      </trkpt>
      <trkpt lat="44.68042" lon="6.80126">
        <ele>2007</ele>
        <time>2019-08-19T10:03:02Z</time>
      </trkpt>
      <trkpt lat="44.68" lon="6.80101">
        <ele>1990</ele>
        <time>2019-08-19T10:04:03Z</time>
      </trkpt>
      <trkpt lat="44.67972" lon="6.80075">
        <ele>1974</ele>
        <time>2019-08-19T10:04:48Z</time>
      </trkpt>
      <trkpt lat="44.67963" lon="6.80081">
        <ele>1968</ele>
        <time>2019-08-19T10:05:01Z</time>
      </trkpt>
      <trkpt lat="44.67952" lon="6.80053">
        <ele>1963</ele>
        <time>2019-08-19T10:05:31Z</time>
      </trkpt>
      <trkpt lat="44.67946" lon="6.80057">
        <ele>1958</ele>
        <time>2019-08-19T10:05:40Z</time>
      </trkpt>
      <trkpt lat="44.67939" lon="6.80091">
        <ele>1952</ele>
        <time>2019-08-19T10:06:14Z</time>
      </trkpt>
      <trkpt lat="44.67934" lon="6.80103">
        <ele>1947</ele>
        <time>2019-08-19T10:06:27Z</time>
      </trkpt>
      <trkpt lat="44.67916" lon="6.80026">
        <ele>1940</ele>
        <time>2019-08-19T10:07:44Z</time>
      </trkpt>
      <trkpt lat="44.67909" lon="6.7999">
        <ele>1937</ele>
        <time>2019-08-19T10:08:19Z</time>
      </trkpt>
      <trkpt lat="44.67908" lon="6.79965">
        <ele>1936</ele>
        <time>2019-08-19T10:08:43Z</time>
      </trkpt>
      <trkpt lat="44.67902" lon="6.79933">
        <ele>1933</ele>
        <time>2019-08-19T10:09:15Z</time>
      </trkpt>
      <trkpt lat="44.67896" lon="6.79901">
        <ele>1928</ele>
        <time>2019-08-19T10:09:46Z</time>
      </trkpt>
      <trkpt lat="44.6789" lon="6.7993">
        <ele>1924</ele>
        <time>2019-08-19T10:10:15Z</time>
      </trkpt>
      <trkpt lat="44.67882" lon="6.79912">
        <ele>1918</ele>
        <time>2019-08-19T10:10:35Z</time>
      </trkpt>
      <trkpt lat="44.67881" lon="6.79892">
        <ele>1917</ele>
        <time>2019-08-19T10:10:54Z</time>
      </trkpt>
      <trkpt lat="44.67871" lon="6.79847">
        <ele>1909</ele>
        <time>2019-08-19T10:11:39Z</time>
      </trkpt>
      <trkpt lat="44.6786" lon="6.79787">
        <ele>1902</ele>
        <time>2019-08-19T10:12:37Z</time>
      </trkpt>
      <trkpt lat="44.67855" lon="6.7977">
        <ele>1899</ele>
        <time>2019-08-19T10:12:55Z</time>
      </trkpt>
      <trkpt lat="44.67838" lon="6.79752">
        <ele>1890</ele>
        <time>2019-08-19T10:13:23Z</time>
      </trkpt>
      <trkpt lat="44.67825" lon="6.79734">
        <ele>1886</ele>
        <time>2019-08-19T10:13:48Z</time>
      </trkpt>
      <trkpt lat="44.6782" lon="6.79734">
        <ele>1884</ele>
        <time>2019-08-19T10:13:54Z</time>
      </trkpt>
      <trkpt lat="44.67807" lon="6.79763">
        <ele>1877</ele>
        <time>2019-08-19T10:14:27Z</time>
      </trkpt>
      <trkpt lat="44.67796" lon="6.79755">
        <ele>1873</ele>
        <time>2019-08-19T10:14:43Z</time>
      </trkpt>
      <trkpt lat="44.6778" lon="6.79728">
        <ele>1870</ele>
        <time>2019-08-19T10:15:17Z</time>
      </trkpt>
      <trkpt lat="44.67758" lon="6.79704">
        <ele>1864</ele>
        <time>2019-08-19T10:15:54Z</time>
      </trkpt>
      <trkpt lat="44.6774" lon="6.7968">
        <ele>1859</ele>
        <time>2019-08-19T10:16:27Z</time>
      </trkpt>
      <trkpt lat="44.67729" lon="6.79652">
        <ele>1857</ele>
        <time>2019-08-19T10:16:57Z</time>
      </trkpt>
      <trkpt lat="44.67719" lon="6.79665">
        <ele>1853</ele>
        <time>2019-08-19T10:17:15Z</time>
      </trkpt>
      <trkpt lat="44.67703" lon="6.79631">
        <ele>1848</ele>
        <time>2019-08-19T10:17:54Z</time>
      </trkpt>
      <trkpt lat="44.67692" lon="6.79617">
        <ele>1845</ele>
        <time>2019-08-19T10:18:14Z</time>
      </trkpt>
      <trkpt lat="44.67687" lon="6.79601">
        <ele>1843</ele>
        <time>2019-08-19T10:18:30Z</time>
      </trkpt>
      <trkpt lat="44.67674" lon="6.79596">
        <ele>1838</ele>
        <time>2019-08-19T10:18:48Z</time>
      </trkpt>
      <trkpt lat="44.67662" lon="6.79604">
        <ele>1834</ele>
        <time>2019-08-19T10:19:06Z</time>
      </trkpt>
      <trkpt lat="44.67658" lon="6.79542">
        <ele>1832</ele>
        <time>2019-08-19T10:20:05Z</time>
      </trkpt>
      <trkpt lat="44.67649" lon="6.79487">
        <ele>1830</ele>
        <time>2019-08-19T10:20:59Z</time>
      </trkpt>
      <trkpt lat="44.67622" lon="6.79421">
        <ele>1826</ele>
        <time>2019-08-19T10:22:11Z</time>
      </trkpt>
      <trkpt lat="44.6761" lon="6.79392">
        <ele>1824</ele>
        <time>2019-08-19T10:22:43Z</time>
      </trkpt>
      <trkpt lat="44.67588" lon="6.79352">
        <ele>1819</ele>
        <time>2019-08-19T10:23:31Z</time>
      </trkpt>
      <trkpt lat="44.67546" lon="6.79272">
        <ele>1815</ele>
        <time>2019-08-19T10:25:05Z</time>
      </trkpt>
      <trkpt lat="44.67536" lon="6.79237">
        <ele>1815</ele>
        <time>2019-08-19T10:25:41Z</time>
      </trkpt>
      <trkpt lat="44.67545" lon="6.79132">
        <ele>1822</ele>
        <time>2019-08-19T10:27:21Z</time>
      </trkpt>
      <trkpt lat="44.6755" lon="6.7908">
        <ele>1826</ele>
        <time>2019-08-19T10:28:11Z</time>
      </trkpt>
      <trkpt lat="44.67533" lon="6.79052">
        <ele>1819</ele>
        <time>2019-08-19T10:28:46Z</time>
      </trkpt>
      <trkpt lat="44.67515" lon="6.79024">
        <ele>1811</ele>
        <time>2019-08-19T10:29:22Z</time>
      </trkpt>
      <trkpt lat="44.67532" lon="6.78985">
        <ele>1818</ele>
        <time>2019-08-19T10:30:05Z</time>
      </trkpt>
      <trkpt lat="44.67526" lon="6.78948">
        <ele>1814</ele>
        <time>2019-08-19T10:30:41Z</time>
      </trkpt>
      <trkpt lat="44.6752" lon="6.78912">
        <ele>1811</ele>
        <time>2019-08-19T10:31:16Z</time>
      </trkpt>
      <trkpt lat="44.67491" lon="6.78894">
        <ele>1798</ele>
        <time>2019-08-19T10:31:59Z</time>
      </trkpt>
      <trkpt lat="44.6747" lon="6.78857">
        <ele>1789</ele>
        <time>2019-08-19T10:32:44Z</time>
      </trkpt>
      <trkpt lat="44.67461" lon="6.7878">
        <ele>1791</ele>
        <time>2019-08-19T10:33:58Z</time>
      </trkpt>
      <trkpt lat="44.67457" lon="6.78735">
        <ele>1794</ele>
        <time>2019-08-19T10:34:41Z</time>
      </trkpt>
      <trkpt lat="44.67399" lon="6.78669">
        <ele>1779</ele>
        <time>2019-08-19T10:36:20Z</time>
      </trkpt>
      <trkpt lat="44.6737" lon="6.78636">
        <ele>1768</ele>
        <time>2019-08-19T10:37:10Z</time>
      </trkpt>
      <trkpt lat="44.67369" lon="6.78621">
        <ele>1769</ele>
        <time>2019-08-19T10:37:24Z</time>
      </trkpt>
      <trkpt lat="44.67364" lon="6.78575">
        <ele>1773</ele>
        <time>2019-08-19T10:38:09Z</time>
      </trkpt>
      <trkpt lat="44.67341" lon="6.78569">
        <ele>1762</ele>
        <time>2019-08-19T10:38:40Z</time>
      </trkpt>
      <trkpt lat="44.67317" lon="6.78562">
        <ele>1751</ele>
        <time>2019-08-19T10:39:12Z</time>
      </trkpt>
      <trkpt lat="44.67273" lon="6.78473">
        <ele>1737</ele>
        <time>2019-08-19T10:40:55Z</time>
      </trkpt>
      <trkpt lat="44.67269" lon="6.78436">
        <ele>1740</ele>
        <time>2019-08-19T10:41:31Z</time>
      </trkpt>
      <trkpt lat="44.67259" lon="6.78423">
        <ele>1737</ele>
        <time>2019-08-19T10:41:49Z</time>
      </trkpt>
      <trkpt lat="44.67251" lon="6.78421">
        <ele>1734</ele>
        <time>2019-08-19T10:42:00Z</time>
      </trkpt>
      <trkpt lat="44.67243" lon="6.78398">
        <ele>1735</ele>
        <time>2019-08-19T10:42:24Z</time>
      </trkpt>
      <trkpt lat="44.67233" lon="6.78393">
        <ele>1732</ele>
        <time>2019-08-19T10:42:38Z</time>
      </trkpt>
      <trkpt lat="44.67199" lon="6.78373">
        <ele>1721</ele>
        <time>2019-08-19T10:43:28Z</time>
      </trkpt>
      <trkpt lat="44.67175" lon="6.78343">
        <ele>1715</ele>
        <time>2019-08-19T10:44:10Z</time>
      </trkpt>
      <trkpt lat="44.67134" lon="6.78295">
        <ele>1704</ele>
        <time>2019-08-19T10:45:22Z</time>
      </trkpt>
      <trkpt lat="44.67129" lon="6.78289">
        <ele>1702</ele>
        <time>2019-08-19T10:45:30Z</time>
      </trkpt>
      <trkpt lat="44.67124" lon="6.78277">
        <ele>1701</ele>
        <time>2019-08-19T10:45:44Z</time>
      </trkpt>
      <trkpt lat="44.6712" lon="6.78271">
        <ele>1699</ele>
        <time>2019-08-19T10:45:51Z</time>
      </trkpt>
      <trkpt lat="44.67116" lon="6.78265">
        <ele>1698</ele>
        <time>2019-08-19T10:45:59Z</time>
      </trkpt>
      <trkpt lat="44.67114" lon="6.7826">
        <ele>1697</ele>
        <time>2019-08-19T10:46:05Z</time>
      </trkpt>
      <trkpt lat="44.67112" lon="6.78241">
        <ele>1696</ele>
        <time>2019-08-19T10:46:23Z</time>
      </trkpt>
      <trkpt lat="44.67108" lon="6.78214">
        <ele>1694</ele>
        <time>2019-08-19T10:46:49Z</time>
      </trkpt>
      <trkpt lat="44.67101" lon="6.78178">
        <ele>1690</ele>
        <time>2019-08-19T10:47:24Z</time>
      </trkpt>
      <trkpt lat="44.67099" lon="6.7816">
        <ele>1689</ele>
        <time>2019-08-19T10:47:42Z</time>
      </trkpt>
      <trkpt lat="44.67102" lon="6.78152">
        <ele>1691</ele>
        <time>2019-08-19T10:47:50Z</time>
      </trkpt>
      <trkpt lat="44.67107" lon="6.78147">
        <ele>1693</ele>
        <time>2019-08-19T10:47:58Z</time>
      </trkpt>
      <trkpt lat="44.67134" lon="6.78127">
        <ele>1705</ele>
        <time>2019-08-19T10:48:39Z</time>
      </trkpt>
      <trkpt lat="44.67137" lon="6.78124">
        <ele>1707</ele>
        <time>2019-08-19T10:48:44Z</time>
      </trkpt>
      <trkpt lat="44.67126" lon="6.78124">
        <ele>1702</ele>
        <time>2019-08-19T10:48:59Z</time>
      </trkpt>
      <trkpt lat="44.67115" lon="6.78117">
        <ele>1699</ele>
        <time>2019-08-19T10:49:15Z</time>
      </trkpt>
      <trkpt lat="44.67105" lon="6.78103">
        <ele>1696</ele>
        <time>2019-08-19T10:49:34Z</time>
      </trkpt>
      <trkpt lat="44.67088" lon="6.78081">
        <ele>1691</ele>
        <time>2019-08-19T10:50:05Z</time>
      </trkpt>
      <trkpt lat="44.67071" lon="6.78075">
        <ele>1686</ele>
        <time>2019-08-19T10:50:28Z</time>
      </trkpt>
      <trkpt lat="44.67061" lon="6.7807">
        <ele>1683</ele>
        <time>2019-08-19T10:50:42Z</time>
      </trkpt>
      <trkpt lat="44.67057" lon="6.78064">
        <ele>1682</ele>
        <time>2019-08-19T10:50:50Z</time>
      </trkpt>
      <trkpt lat="44.67055" lon="6.78067">
        <ele>1681</ele>
        <time>2019-08-19T10:50:54Z</time>
      </trkpt>
      <trkpt lat="44.67055" lon="6.78076">
        <ele>1681</ele>
        <time>2019-08-19T10:51:02Z</time>
      </trkpt>
      <trkpt lat="44.67058" lon="6.78083">
        <ele>1682</ele>
        <time>2019-08-19T10:51:10Z</time>
      </trkpt>
      <trkpt lat="44.67062" lon="6.78092">
        <ele>1683</ele>
        <time>2019-08-19T10:51:20Z</time>
      </trkpt>
      <trkpt lat="44.67067" lon="6.78106">
        <ele>1683</ele>
        <time>2019-08-19T10:51:35Z</time>
      </trkpt>
      <trkpt lat="44.67069" lon="6.78115">
        <ele>1683</ele>
        <time>2019-08-19T10:51:44Z</time>
      </trkpt>
      <trkpt lat="44.67065" lon="6.7812">
        <ele>1682</ele>
        <time>2019-08-19T10:51:51Z</time>
      </trkpt>
      <trkpt lat="44.6706" lon="6.78133">
        <ele>1681</ele>
        <time>2019-08-19T10:52:05Z</time>
      </trkpt>
      <trkpt lat="44.67043" lon="6.78112">
        <ele>1678</ele>
        <time>2019-08-19T10:52:35Z</time>
      </trkpt>
      <trkpt lat="44.66979" lon="6.77995">
        <ele>1663</ele>
        <time>2019-08-19T10:54:55Z</time>
      </trkpt>
      <trkpt lat="44.66956" lon="6.77954">
        <ele>1659</ele>
        <time>2019-08-19T10:55:45Z</time>
      </trkpt>
      <trkpt lat="44.66934" lon="6.77922">
        <ele>1654</ele>
        <time>2019-08-19T10:56:27Z</time>
      </trkpt>
      <trkpt lat="44.66916" lon="6.77895">
        <ele>1652</ele>
        <time>2019-08-19T10:57:02Z</time>
      </trkpt>
      <trkpt lat="44.66845" lon="6.77817">
        <ele>1650</ele>
        <time>2019-08-19T10:59:03Z</time>
      </trkpt>
      <trkpt lat="44.66844" lon="6.77815">
        <ele>1650</ele>
        <time>2019-08-19T10:59:05Z</time>
      </trkpt>
      <trkpt lat="44.66844" lon="6.77816">
        <ele>1650</ele>
        <time>2019-08-19T10:59:06Z</time>
      </trkpt>
      <trkpt lat="44.6684" lon="6.77808">
        <ele>1650</ele>
        <time>2019-08-19T10:59:15Z</time>
      </trkpt>
      <trkpt lat="44.6684" lon="6.77808">
        <ele>1650</ele>
        <time>2019-08-19T10:59:15Z</time>
      </trkpt>
      <trkpt lat="44.6682" lon="6.77825">
        <ele>1650</ele>
        <time>2019-08-19T10:59:46Z</time>
      </trkpt>
      <trkpt lat="44.66816" lon="6.77832">
        <ele>1650</ele>
        <time>2019-08-19T10:59:55Z</time>
      </trkpt>
      <trkpt lat="44.66812" lon="6.77836">
        <ele>1650</ele>
        <time>2019-08-19T11:00:01Z</time>
      </trkpt>
      <trkpt lat="44.66805" lon="6.77838">
        <ele>1650</ele>
        <time>2019-08-19T11:00:11Z</time>
      </trkpt>
      <trkpt lat="44.66793" lon="6.77844">
        <ele>1650</ele>
        <time>2019-08-19T11:00:28Z</time>
      </trkpt>
      <trkpt lat="44.66789" lon="6.77839">
        <ele>1649</ele>
        <time>2019-08-19T11:00:35Z</time>
      </trkpt>
      <trkpt lat="44.66786" lon="6.77832">
        <ele>1649</ele>
        <time>2019-08-19T11:00:43Z</time>
      </trkpt>
      <trkpt lat="44.66766" lon="6.77846">
        <ele>1648</ele>
        <time>2019-08-19T11:01:13Z</time>
      </trkpt>
      <trkpt lat="44.66747" lon="6.77853">
        <ele>1647</ele>
        <time>2019-08-19T11:01:39Z</time>
      </trkpt>
      <trkpt lat="44.66724" lon="6.77856">
        <ele>1646</ele>
        <time>2019-08-19T11:02:10Z</time>
      </trkpt>
      <trkpt lat="44.66702" lon="6.77866">
        <ele>1644</ele>
        <time>2019-08-19T11:02:41Z</time>
      </trkpt>
      <trkpt lat="44.66688" lon="6.77872">
        <ele>1643</ele>
        <time>2019-08-19T11:03:00Z</time>
      </trkpt>
      <trkpt lat="44.66656" lon="6.77899">
        <ele>1641</ele>
        <time>2019-08-19T11:03:50Z</time>
      </trkpt>
      <trkpt lat="44.66628" lon="6.77926">
        <ele>1640</ele>
        <time>2019-08-19T11:04:35Z</time>
      </trkpt>
      <trkpt lat="44.66599" lon="6.77952">
        <ele>1639</ele>
        <time>2019-08-19T11:05:21Z</time>
      </trkpt>
      <trkpt lat="44.66561" lon="6.77959">
        <ele>1638</ele>
        <time>2019-08-19T11:06:12Z</time>
      </trkpt>
      <trkpt lat="44.66525" lon="6.77964">
        <ele>1638</ele>
        <time>2019-08-19T11:07:00Z</time>
      </trkpt>
      <trkpt lat="44.6649" lon="6.7797">
        <ele>1637</ele>
        <time>2019-08-19T11:07:48Z</time>
      </trkpt>
      <trkpt lat="44.66454" lon="6.77976">
        <ele>1637</ele>
        <time>2019-08-19T11:08:36Z</time>
      </trkpt>
      <trkpt lat="44.6639" lon="6.77988">
        <ele>1637</ele>
        <time>2019-08-19T11:10:02Z</time>
      </trkpt>
      <trkpt lat="44.66358" lon="6.77994">
        <ele>1637</ele>
        <time>2019-08-19T11:10:45Z</time>
      </trkpt>
      <trkpt lat="44.66328" lon="6.78012">
        <ele>1637</ele>
        <time>2019-08-19T11:11:29Z</time>
      </trkpt>
      <trkpt lat="44.66292" lon="6.78033">
        <ele>1639</ele>
        <time>2019-08-19T11:12:21Z</time>
      </trkpt>
      <trkpt lat="44.66275" lon="6.78059">
        <ele>1640</ele>
        <time>2019-08-19T11:12:54Z</time>
      </trkpt>
      <trkpt lat="44.66264" lon="6.78074">
        <ele>1640</ele>
        <time>2019-08-19T11:13:15Z</time>
      </trkpt>
      <trkpt lat="44.66251" lon="6.78085">
        <ele>1641</ele>
        <time>2019-08-19T11:13:35Z</time>
      </trkpt>
      <trkpt lat="44.66244" lon="6.78096">
        <ele>1641</ele>
        <time>2019-08-19T11:13:49Z</time>
      </trkpt>
      <trkpt lat="44.66206" lon="6.78123">
        <ele>1641</ele>
        <time>2019-08-19T11:14:46Z</time>
      </trkpt>
      <trkpt lat="44.6613" lon="6.78179">
        <ele>1642</ele>
        <time>2019-08-19T11:16:40Z</time>
      </trkpt>
      <trkpt lat="44.66092" lon="6.78207">
        <ele>1643</ele>
        <time>2019-08-19T11:17:37Z</time>
      </trkpt>
      <trkpt lat="44.66031" lon="6.78262">
        <ele>1649</ele>
        <time>2019-08-19T11:19:14Z</time>
      </trkpt>
      <trkpt lat="44.66001" lon="6.7829">
        <ele>1651</ele>
        <time>2019-08-19T11:20:02Z</time>
      </trkpt>
      <trkpt lat="44.6597" lon="6.78317">
        <ele>1652</ele>
        <time>2019-08-19T11:20:51Z</time>
      </trkpt>
      <trkpt lat="44.65939" lon="6.78345">
        <ele>1650</ele>
        <time>2019-08-19T11:21:40Z</time>
      </trkpt>
      <trkpt lat="44.65856" lon="6.78445">
        <ele>1655</ele>
        <time>2019-08-19T11:24:06Z</time>
      </trkpt>
      <trkpt lat="44.65829" lon="6.78479">
        <ele>1655</ele>
        <time>2019-08-19T11:24:54Z</time>
      </trkpt>
      <trkpt lat="44.65796" lon="6.7851">
        <ele>1657</ele>
        <time>2019-08-19T11:25:47Z</time>
      </trkpt>
      <trkpt lat="44.65764" lon="6.78541">
        <ele>1658</ele>
        <time>2019-08-19T11:26:39Z</time>
      </trkpt>
      <trkpt lat="44.6573" lon="6.78571">
        <ele>1660</ele>
        <time>2019-08-19T11:27:33Z</time>
      </trkpt>
      <trkpt lat="44.65697" lon="6.786">
        <ele>1662</ele>
        <time>2019-08-19T11:28:25Z</time>
      </trkpt>
      <trkpt lat="44.65489" lon="6.78816">
        <ele>1672</ele>
        <time>2019-08-19T11:34:10Z</time>
      </trkpt>
      <trkpt lat="44.65454" lon="6.78853">
        <ele>1673</ele>
        <time>2019-08-19T11:35:08Z</time>
      </trkpt>
      <trkpt lat="44.6538" lon="6.78925">
        <ele>1671</ele>
        <time>2019-08-19T11:37:08Z</time>
      </trkpt>
      <trkpt lat="44.65376" lon="6.78931">
        <ele>1672</ele>
        <time>2019-08-19T11:37:16Z</time>
      </trkpt>
      <trkpt lat="44.6534" lon="6.78955">
        <ele>1672</ele>
        <time>2019-08-19T11:38:09Z</time>
      </trkpt>
      <trkpt lat="44.65304" lon="6.7898">
        <ele>1675</ele>
        <time>2019-08-19T11:39:03Z</time>
      </trkpt>
      <trkpt lat="44.65144" lon="6.79058">
        <ele>1683</ele>
        <time>2019-08-19T11:42:49Z</time>
      </trkpt>
      <trkpt lat="44.65104" lon="6.79078">
        <ele>1682</ele>
        <time>2019-08-19T11:43:45Z</time>
      </trkpt>
      <trkpt lat="44.65099" lon="6.79074">
        <ele>1683</ele>
        <time>2019-08-19T11:43:53Z</time>
      </trkpt>
      <trkpt lat="44.65092" lon="6.79066">
        <ele>1684</ele>
        <time>2019-08-19T11:44:05Z</time>
      </trkpt>
      <trkpt lat="44.65084" lon="6.79055">
        <ele>1686</ele>
        <time>2019-08-19T11:44:20Z</time>
      </trkpt>
      <trkpt lat="44.65078" lon="6.7906">
        <ele>1686</ele>
        <time>2019-08-19T11:44:29Z</time>
      </trkpt>
      <trkpt lat="44.6507" lon="6.79062">
        <ele>1688</ele>
        <time>2019-08-19T11:44:40Z</time>
      </trkpt>
      <trkpt lat="44.65061" lon="6.7905">
        <ele>1692</ele>
        <time>2019-08-19T11:44:57Z</time>
      </trkpt>
      <trkpt lat="44.65066" lon="6.79029">
        <ele>1694</ele>
        <time>2019-08-19T11:45:18Z</time>
      </trkpt>
      <trkpt lat="44.65072" lon="6.79019">
        <ele>1693</ele>
        <time>2019-08-19T11:45:30Z</time>
      </trkpt>
      <trkpt lat="44.65072" lon="6.79014">
        <ele>1694</ele>
        <time>2019-08-19T11:45:35Z</time>
      </trkpt>
      <trkpt lat="44.65059" lon="6.79005">
        <ele>1699</ele>
        <time>2019-08-19T11:45:54Z</time>
      </trkpt>
      <trkpt lat="44.65044" lon="6.78992">
        <ele>1706</ele>
        <time>2019-08-19T11:46:18Z</time>
      </trkpt>
      <trkpt lat="44.65026" lon="6.78985">
        <ele>1712</ele>
        <time>2019-08-19T11:46:43Z</time>
      </trkpt>
      <trkpt lat="44.65018" lon="6.78992">
        <ele>1712</ele>
        <time>2019-08-19T11:46:55Z</time>
      </trkpt>
      <trkpt lat="44.65014" lon="6.79003">
        <ele>1711</ele>
        <time>2019-08-19T11:47:07Z</time>
      </trkpt>
      <trkpt lat="44.65015" lon="6.79032">
        <ele>1706</ele>
        <time>2019-08-19T11:47:35Z</time>
      </trkpt>
      <trkpt lat="44.65017" lon="6.79044">
        <ele>1704</ele>
        <time>2019-08-19T11:47:46Z</time>
      </trkpt>
      <trkpt lat="44.65018" lon="6.79058">
        <ele>1702</ele>
        <time>2019-08-19T11:48:00Z</time>
      </trkpt>
      <trkpt lat="44.65017" lon="6.79074">
        <ele>1699</ele>
        <time>2019-08-19T11:48:15Z</time>
      </trkpt>
      <trkpt lat="44.65013" lon="6.79092">
        <ele>1698</ele>
        <time>2019-08-19T11:48:33Z</time>
      </trkpt>
      <trkpt lat="44.65006" lon="6.79106">
        <ele>1697</ele>
        <time>2019-08-19T11:48:49Z</time>
      </trkpt>
      <trkpt lat="44.65" lon="6.79113">
        <ele>1697</ele>
        <time>2019-08-19T11:49:00Z</time>
      </trkpt>
      <trkpt lat="44.64974" lon="6.79133">
        <ele>1696</ele>
        <time>2019-08-19T11:49:39Z</time>
      </trkpt>
      <trkpt lat="44.64945" lon="6.79146">
        <ele>1696</ele>
        <time>2019-08-19T11:50:20Z</time>
      </trkpt>
      <trkpt lat="44.64944" lon="6.79146">
        <ele>1697</ele>
        <time>2019-08-19T11:50:21Z</time>
      </trkpt>
      <trkpt lat="44.64949" lon="6.79118">
        <ele>1702</ele>
        <time>2019-08-19T11:50:48Z</time>
      </trkpt>
      <trkpt lat="44.64956" lon="6.79097">
        <ele>1706</ele>
        <time>2019-08-19T11:51:10Z</time>
      </trkpt>
      <trkpt lat="44.6495" lon="6.7909">
        <ele>1708</ele>
        <time>2019-08-19T11:51:21Z</time>
      </trkpt>
      <trkpt lat="44.64935" lon="6.79092">
        <ele>1709</ele>
        <time>2019-08-19T11:51:41Z</time>
      </trkpt>
      <trkpt lat="44.64927" lon="6.79088">
        <ele>1711</ele>
        <time>2019-08-19T11:51:52Z</time>
      </trkpt>
      <trkpt lat="44.64927" lon="6.79075">
        <ele>1715</ele>
        <time>2019-08-19T11:52:05Z</time>
      </trkpt>
      <trkpt lat="44.6494" lon="6.79053">
        <ele>1720</ele>
        <time>2019-08-19T11:52:32Z</time>
      </trkpt>
      <trkpt lat="44.64946" lon="6.79032">
        <ele>1725</ele>
        <time>2019-08-19T11:52:53Z</time>
      </trkpt>
      <trkpt lat="44.64952" lon="6.78971">
        <ele>1745</ele>
        <time>2019-08-19T11:53:52Z</time>
      </trkpt>
      <trkpt lat="44.64965" lon="6.78942">
        <ele>1750</ele>
        <time>2019-08-19T11:54:24Z</time>
      </trkpt>
      <trkpt lat="44.64974" lon="6.78941">
        <ele>1746</ele>
        <time>2019-08-19T11:54:36Z</time>
      </trkpt>
      <trkpt lat="44.64998" lon="6.7891">
        <ele>1744</ele>
        <time>2019-08-19T11:55:20Z</time>
      </trkpt>
      <trkpt lat="44.65001" lon="6.78896">
        <ele>1751</ele>
        <time>2019-08-19T11:55:34Z</time>
      </trkpt>
      <trkpt lat="44.65008" lon="6.78894">
        <ele>1750</ele>
        <time>2019-08-19T11:55:43Z</time>
      </trkpt>
      <trkpt lat="44.65019" lon="6.78874">
        <ele>1759</ele>
        <time>2019-08-19T11:56:07Z</time>
      </trkpt>
      <trkpt lat="44.65049" lon="6.78852">
        <ele>1759</ele>
        <time>2019-08-19T11:56:52Z</time>
      </trkpt>
      <trkpt lat="44.65057" lon="6.78838">
        <ele>1762</ele>
        <time>2019-08-19T11:57:09Z</time>
      </trkpt>
      <trkpt lat="44.65066" lon="6.7884">
        <ele>1757</ele>
        <time>2019-08-19T11:57:22Z</time>
      </trkpt>
      <trkpt lat="44.65085" lon="6.78812">
        <ele>1759</ele>
        <time>2019-08-19T11:57:58Z</time>
      </trkpt>
      <trkpt lat="44.65092" lon="6.78788">
        <ele>1766</ele>
        <time>2019-08-19T11:58:23Z</time>
      </trkpt>
      <trkpt lat="44.65066" lon="6.788">
        <ele>1773</ele>
        <time>2019-08-19T11:58:59Z</time>
      </trkpt>
      <trkpt lat="44.65065" lon="6.78793">
        <ele>1777</ele>
        <time>2019-08-19T11:59:06Z</time>
      </trkpt>
      <trkpt lat="44.65078" lon="6.78781">
        <ele>1775</ele>
        <time>2019-08-19T11:59:27Z</time>
      </trkpt>
      <trkpt lat="44.65082" lon="6.78765">
        <ele>1779</ele>
        <time>2019-08-19T11:59:43Z</time>
      </trkpt>
      <trkpt lat="44.65083" lon="6.78751">
        <ele>1784</ele>
        <time>2019-08-19T11:59:56Z</time>
      </trkpt>
      <trkpt lat="44.65087" lon="6.78741">
        <ele>1789</ele>
        <time>2019-08-19T12:00:07Z</time>
      </trkpt>
      <trkpt lat="44.65088" lon="6.78725">
        <ele>1800</ele>
        <time>2019-08-19T12:00:23Z</time>
      </trkpt>
      <trkpt lat="44.6508" lon="6.78734">
        <ele>1798</ele>
        <time>2019-08-19T12:00:36Z</time>
      </trkpt>
      <trkpt lat="44.6506" lon="6.78737">
        <ele>1807</ele>
        <time>2019-08-19T12:01:03Z</time>
      </trkpt>
      <trkpt lat="44.65051" lon="6.78735">
        <ele>1813</ele>
        <time>2019-08-19T12:01:15Z</time>
      </trkpt>
      <trkpt lat="44.65047" lon="6.78728">
        <ele>1821</ele>
        <time>2019-08-19T12:01:24Z</time>
      </trkpt>
      <trkpt lat="44.65053" lon="6.78726">
        <ele>1819</ele>
        <time>2019-08-19T12:01:32Z</time>
      </trkpt>
      <trkpt lat="44.65058" lon="6.78714">
        <ele>1825</ele>
        <time>2019-08-19T12:01:45Z</time>
      </trkpt>
      <trkpt lat="44.6506" lon="6.78695">
        <ele>1837</ele>
        <time>2019-08-19T12:02:03Z</time>
      </trkpt>
      <trkpt lat="44.65048" lon="6.787">
        <ele>1840</ele>
        <time>2019-08-19T12:02:20Z</time>
      </trkpt>
      <trkpt lat="44.65034" lon="6.78708">
        <ele>1842</ele>
        <time>2019-08-19T12:02:40Z</time>
      </trkpt>
      <trkpt lat="44.65012" lon="6.78703">
        <ele>1858</ele>
        <time>2019-08-19T12:03:10Z</time>
      </trkpt>
      <trkpt lat="44.65009" lon="6.78721">
        <ele>1847</ele>
        <time>2019-08-19T12:03:28Z</time>
      </trkpt>
      <trkpt lat="44.65009" lon="6.78739">
        <ele>1834</ele>
        <time>2019-08-19T12:03:45Z</time>
      </trkpt>
      <trkpt lat="44.64996" lon="6.78748">
        <ele>1837</ele>
        <time>2019-08-19T12:04:04Z</time>
      </trkpt>
      <trkpt lat="44.64987" lon="6.78759">
        <ele>1839</ele>
        <time>2019-08-19T12:04:20Z</time>
      </trkpt>
      <trkpt lat="44.64971" lon="6.78775">
        <ele>1844</ele>
        <time>2019-08-19T12:04:46Z</time>
      </trkpt>
      <trkpt lat="44.64969" lon="6.78788">
        <ele>1839</ele>
        <time>2019-08-19T12:04:59Z</time>
      </trkpt>
      <trkpt lat="44.64956" lon="6.78798">
        <ele>1845</ele>
        <time>2019-08-19T12:05:19Z</time>
      </trkpt>
      <trkpt lat="44.64953" lon="6.78793">
        <ele>1850</ele>
        <time>2019-08-19T12:05:25Z</time>
      </trkpt>
      <trkpt lat="44.64938" lon="6.78812">
        <ele>1852</ele>
        <time>2019-08-19T12:05:52Z</time>
      </trkpt>
      <trkpt lat="44.6492" lon="6.78818">
        <ele>1862</ele>
        <time>2019-08-19T12:06:16Z</time>
      </trkpt>
      <trkpt lat="44.64915" lon="6.7881">
        <ele>1870</ele>
        <time>2019-08-19T12:06:27Z</time>
      </trkpt>
      <trkpt lat="44.6492" lon="6.78803">
        <ele>1871</ele>
        <time>2019-08-19T12:06:36Z</time>
      </trkpt>
      <trkpt lat="44.64919" lon="6.788">
        <ele>1874</ele>
        <time>2019-08-19T12:06:39Z</time>
      </trkpt>
      <trkpt lat="44.6491" lon="6.78807">
        <ele>1874</ele>
        <time>2019-08-19T12:06:53Z</time>
      </trkpt>
      <trkpt lat="44.64899" lon="6.788">
        <ele>1883</ele>
        <time>2019-08-19T12:07:09Z</time>
      </trkpt>
      <trkpt lat="44.649" lon="6.78794">
        <ele>1886</ele>
        <time>2019-08-19T12:07:15Z</time>
      </trkpt>
      <trkpt lat="44.64887" lon="6.7878">
        <ele>1900</ele>
        <time>2019-08-19T12:07:37Z</time>
      </trkpt>
      <trkpt lat="44.64881" lon="6.78768">
        <ele>1909</ele>
        <time>2019-08-19T12:07:51Z</time>
      </trkpt>
      <trkpt lat="44.64868" lon="6.78777">
        <ele>1910</ele>
        <time>2019-08-19T12:08:10Z</time>
      </trkpt>
      <trkpt lat="44.64865" lon="6.78764">
        <ele>1918</ele>
        <time>2019-08-19T12:08:23Z</time>
      </trkpt>
      <trkpt lat="44.64874" lon="6.78748">
        <ele>1923</ele>
        <time>2019-08-19T12:08:42Z</time>
      </trkpt>
      <trkpt lat="44.64862" lon="6.78752">
        <ele>1926</ele>
        <time>2019-08-19T12:08:59Z</time>
      </trkpt>
      <trkpt lat="44.64851" lon="6.78773">
        <ele>1919</ele>
        <time>2019-08-19T12:09:23Z</time>
      </trkpt>
      <trkpt lat="44.64845" lon="6.78779">
        <ele>1919</ele>
        <time>2019-08-19T12:09:33Z</time>
      </trkpt>
      <trkpt lat="44.64841" lon="6.78787">
        <ele>1916</ele>
        <time>2019-08-19T12:09:43Z</time>
      </trkpt>
      <trkpt lat="44.64837" lon="6.78785">
        <ele>1919</ele>
        <time>2019-08-19T12:09:48Z</time>
      </trkpt>
      <trkpt lat="44.64836" lon="6.78777">
        <ele>1924</ele>
        <time>2019-08-19T12:09:56Z</time>
      </trkpt>
      <trkpt lat="44.64829" lon="6.78778">
        <ele>1926</ele>
        <time>2019-08-19T12:10:05Z</time>
      </trkpt>
      <trkpt lat="44.6481" lon="6.78775">
        <ele>1936</ele>
        <time>2019-08-19T12:10:31Z</time>
      </trkpt>
      <trkpt lat="44.64798" lon="6.78774">
        <ele>1942</ele>
        <time>2019-08-19T12:10:47Z</time>
      </trkpt>
      <trkpt lat="44.64781" lon="6.7878">
        <ele>1947</ele>
        <time>2019-08-19T12:11:10Z</time>
      </trkpt>
      <trkpt lat="44.64766" lon="6.78783">
        <ele>1953</ele>
        <time>2019-08-19T12:11:30Z</time>
      </trkpt>
      <trkpt lat="44.6475" lon="6.78789">
        <ele>1958</ele>
        <time>2019-08-19T12:11:53Z</time>
      </trkpt>
      <trkpt lat="44.64736" lon="6.78791">
        <ele>1963</ele>
        <time>2019-08-19T12:12:11Z</time>
      </trkpt>
      <trkpt lat="44.64726" lon="6.78789">
        <ele>1967</ele>
        <time>2019-08-19T12:12:25Z</time>
      </trkpt>
      <trkpt lat="44.64716" lon="6.78796">
        <ele>1969</ele>
        <time>2019-08-19T12:12:40Z</time>
      </trkpt>
      <trkpt lat="44.64705" lon="6.7881">
        <ele>1969</ele>
        <time>2019-08-19T12:13:00Z</time>
      </trkpt>
      <trkpt lat="44.64696" lon="6.78817">
        <ele>1971</ele>
        <time>2019-08-19T12:13:13Z</time>
      </trkpt>
      <trkpt lat="44.64659" lon="6.78806">
        <ele>1988</ele>
        <time>2019-08-19T12:14:04Z</time>
      </trkpt>
      <trkpt lat="44.64634" lon="6.78798">
        <ele>1996</ele>
        <time>2019-08-19T12:14:38Z</time>
      </trkpt>
      <trkpt lat="44.64612" lon="6.788">
        <ele>2002</ele>
        <time>2019-08-19T12:15:07Z</time>
      </trkpt>
      <trkpt lat="44.6459" lon="6.78803">
        <ele>2007</ele>
        <time>2019-08-19T12:15:37Z</time>
      </trkpt>
      <trkpt lat="44.64568" lon="6.78804">
        <ele>2012</ele>
        <time>2019-08-19T12:16:06Z</time>
      </trkpt>
      <trkpt lat="44.64548" lon="6.78802">
        <ele>2016</ele>
        <time>2019-08-19T12:16:33Z</time>
      </trkpt>
      <trkpt lat="44.64526" lon="6.78804">
        <ele>2020</ele>
        <time>2019-08-19T12:17:02Z</time>
      </trkpt>
      <trkpt lat="44.64513" lon="6.78801">
        <ele>2023</ele>
        <time>2019-08-19T12:17:20Z</time>
      </trkpt>
      <trkpt lat="44.64503" lon="6.78795">
        <ele>2026</ele>
        <time>2019-08-19T12:17:35Z</time>
      </trkpt>
      <trkpt lat="44.64493" lon="6.78783">
        <ele>2030</ele>
        <time>2019-08-19T12:17:52Z</time>
      </trkpt>
      <trkpt lat="44.64487" lon="6.78776">
        <ele>2033</ele>
        <time>2019-08-19T12:18:02Z</time>
      </trkpt>
      <trkpt lat="44.64472" lon="6.78771">
        <ele>2038</ele>
        <time>2019-08-19T12:18:23Z</time>
      </trkpt>
      <trkpt lat="44.64446" lon="6.7876">
        <ele>2046</ele>
        <time>2019-08-19T12:18:59Z</time>
      </trkpt>
      <trkpt lat="44.6442" lon="6.78753">
        <ele>2053</ele>
        <time>2019-08-19T12:19:35Z</time>
      </trkpt>
      <trkpt lat="44.64404" lon="6.78753">
        <ele>2059</ele>
        <time>2019-08-19T12:19:56Z</time>
      </trkpt>
      <trkpt lat="44.64383" lon="6.78759">
        <ele>2067</ele>
        <time>2019-08-19T12:20:25Z</time>
      </trkpt>
      <trkpt lat="44.64373" lon="6.78767">
        <ele>2069</ele>
        <time>2019-08-19T12:20:40Z</time>
      </trkpt>
      <trkpt lat="44.6435" lon="6.78796">
        <ele>2071</ele>
        <time>2019-08-19T12:21:21Z</time>
      </trkpt>
      <trkpt lat="44.64327" lon="6.78817">
        <ele>2073</ele>
        <time>2019-08-19T12:21:58Z</time>
      </trkpt>
      <trkpt lat="44.64306" lon="6.78833">
        <ele>2076</ele>
        <time>2019-08-19T12:22:30Z</time>
      </trkpt>
      <trkpt lat="44.64294" lon="6.78841">
        <ele>2079</ele>
        <time>2019-08-19T12:22:47Z</time>
      </trkpt>
      <trkpt lat="44.64285" lon="6.78842">
        <ele>2082</ele>
        <time>2019-08-19T12:22:59Z</time>
      </trkpt>
      <trkpt lat="44.64272" lon="6.78838">
        <ele>2088</ele>
        <time>2019-08-19T12:23:17Z</time>
      </trkpt>
      <trkpt lat="44.64258" lon="6.78838">
        <ele>2093</ele>
        <time>2019-08-19T12:23:36Z</time>
      </trkpt>
      <trkpt lat="44.64244" lon="6.78843">
        <ele>2097</ele>
        <time>2019-08-19T12:23:55Z</time>
      </trkpt>
      <trkpt lat="44.64233" lon="6.7884">
        <ele>2102</ele>
        <time>2019-08-19T12:24:10Z</time>
      </trkpt>
      <trkpt lat="44.64222" lon="6.7884">
        <ele>2106</ele>
        <time>2019-08-19T12:24:25Z</time>
      </trkpt>
      <trkpt lat="44.64211" lon="6.78842">
        <ele>2111</ele>
        <time>2019-08-19T12:24:40Z</time>
      </trkpt>
      <trkpt lat="44.64195" lon="6.78844">
        <ele>2117</ele>
        <time>2019-08-19T12:25:01Z</time>
      </trkpt>
      <trkpt lat="44.64183" lon="6.7885">
        <ele>2121</ele>
        <time>2019-08-19T12:25:18Z</time>
      </trkpt>
      <trkpt lat="44.6418" lon="6.78857">
        <ele>2122</ele>
        <time>2019-08-19T12:25:26Z</time>
      </trkpt>
      <trkpt lat="44.64179" lon="6.78859">
        <ele>2122</ele>
        <time>2019-08-19T12:25:28Z</time>
      </trkpt>
      <trkpt lat="44.64178" lon="6.78855">
        <ele>2123</ele>
        <time>2019-08-19T12:25:32Z</time>
      </trkpt>
      <trkpt lat="44.64178" lon="6.78847">
        <ele>2123</ele>
        <time>2019-08-19T12:25:40Z</time>
      </trkpt>
      <trkpt lat="44.64183" lon="6.7883">
        <ele>2124</ele>
        <time>2019-08-19T12:25:57Z</time>
      </trkpt>
      <trkpt lat="44.64181" lon="6.78827">
        <ele>2126</ele>
        <time>2019-08-19T12:26:01Z</time>
      </trkpt>
      <trkpt lat="44.6417" lon="6.7884">
        <ele>2127</ele>
        <time>2019-08-19T12:26:20Z</time>
      </trkpt>
      <trkpt lat="44.64151" lon="6.78867">
        <ele>2133</ele>
        <time>2019-08-19T12:26:56Z</time>
      </trkpt>
      <trkpt lat="44.64138" lon="6.78882">
        <ele>2137</ele>
        <time>2019-08-19T12:27:19Z</time>
      </trkpt>
      <trkpt lat="44.64126" lon="6.78892">
        <ele>2140</ele>
        <time>2019-08-19T12:27:37Z</time>
      </trkpt>
      <trkpt lat="44.64114" lon="6.78898">
        <ele>2144</ele>
        <time>2019-08-19T12:27:54Z</time>
      </trkpt>
      <trkpt lat="44.64082" lon="6.78919">
        <ele>2154</ele>
        <time>2019-08-19T12:28:41Z</time>
      </trkpt>
      <trkpt lat="44.64058" lon="6.78937">
        <ele>2160</ele>
        <time>2019-08-19T12:29:18Z</time>
      </trkpt>
      <trkpt lat="44.64039" lon="6.78943">
        <ele>2165</ele>
        <time>2019-08-19T12:29:44Z</time>
      </trkpt>
      <trkpt lat="44.64028" lon="6.78943">
        <ele>2167</ele>
        <time>2019-08-19T12:29:58Z</time>
      </trkpt>
      <trkpt lat="44.64018" lon="6.78941">
        <ele>2170</ele>
        <time>2019-08-19T12:30:12Z</time>
      </trkpt>
      <trkpt lat="44.64007" lon="6.78937">
        <ele>2173</ele>
        <time>2019-08-19T12:30:27Z</time>
      </trkpt>
      <trkpt lat="44.63998" lon="6.78938">
        <ele>2175</ele>
        <time>2019-08-19T12:30:39Z</time>
      </trkpt>
      <trkpt lat="44.63986" lon="6.78951">
        <ele>2176</ele>
        <time>2019-08-19T12:30:59Z</time>
      </trkpt>
      <trkpt lat="44.63981" lon="6.78957">
        <ele>2177</ele>
        <time>2019-08-19T12:31:08Z</time>
      </trkpt>
      <trkpt lat="44.63974" lon="6.78968">
        <ele>2177</ele>
        <time>2019-08-19T12:31:22Z</time>
      </trkpt>
      <trkpt lat="44.63969" lon="6.78974">
        <ele>2178</ele>
        <time>2019-08-19T12:31:31Z</time>
      </trkpt>
      <trkpt lat="44.6396" lon="6.78982">
        <ele>2180</ele>
        <time>2019-08-19T12:31:45Z</time>
      </trkpt>
      <trkpt lat="44.63951" lon="6.78993">
        <ele>2182</ele>
        <time>2019-08-19T12:32:01Z</time>
      </trkpt>
      <trkpt lat="44.63938" lon="6.79008">
        <ele>2185</ele>
        <time>2019-08-19T12:32:23Z</time>
      </trkpt>
      <trkpt lat="44.63914" lon="6.79032">
        <ele>2190</ele>
        <time>2019-08-19T12:33:03Z</time>
      </trkpt>
      <trkpt lat="44.63901" lon="6.7905">
        <ele>2192</ele>
        <time>2019-08-19T12:33:27Z</time>
      </trkpt>
      <trkpt lat="44.63889" lon="6.7906">
        <ele>2194</ele>
        <time>2019-08-19T12:33:46Z</time>
      </trkpt>
      <trkpt lat="44.63869" lon="6.7907">
        <ele>2196</ele>
        <time>2019-08-19T12:34:14Z</time>
      </trkpt>
      <trkpt lat="44.63867" lon="6.79071">
        <ele>2196</ele>
        <time>2019-08-19T12:34:17Z</time>
      </trkpt>
      <trkpt lat="44.63858" lon="6.79075">
        <ele>2197</ele>
        <time>2019-08-19T12:34:30Z</time>
      </trkpt>
      <trkpt lat="44.63845" lon="6.7907">
        <ele>2199</ele>
        <time>2019-08-19T12:34:48Z</time>
      </trkpt>
      <trkpt lat="44.63834" lon="6.79071">
        <ele>2200</ele>
        <time>2019-08-19T12:35:02Z</time>
      </trkpt>
      <trkpt lat="44.63822" lon="6.79068">
        <ele>2202</ele>
        <time>2019-08-19T12:35:18Z</time>
      </trkpt>
      <trkpt lat="44.63805" lon="6.79071">
        <ele>2203</ele>
        <time>2019-08-19T12:35:41Z</time>
      </trkpt>
      <trkpt lat="44.63758" lon="6.79093">
        <ele>2206</ele>
        <time>2019-08-19T12:36:47Z</time>
      </trkpt>
      <trkpt lat="44.63742" lon="6.79096">
        <ele>2207</ele>
        <time>2019-08-19T12:37:09Z</time>
      </trkpt>
      <trkpt lat="44.63729" lon="6.79097">
        <ele>2209</ele>
        <time>2019-08-19T12:37:26Z</time>
      </trkpt>
      <trkpt lat="44.63698" lon="6.7909">
        <ele>2213</ele>
        <time>2019-08-19T12:38:08Z</time>
      </trkpt>
      <trkpt lat="44.63694" lon="6.7909">
        <ele>2214</ele>
        <time>2019-08-19T12:38:14Z</time>
      </trkpt>
      <trkpt lat="44.63661" lon="6.79108">
        <ele>2217</ele>
        <time>2019-08-19T12:39:01Z</time>
      </trkpt>
      <trkpt lat="44.63647" lon="6.79114">
        <ele>2219</ele>
        <time>2019-08-19T12:39:20Z</time>
      </trkpt>
      <trkpt lat="44.63624" lon="6.79116">
        <ele>2222</ele>
        <time>2019-08-19T12:39:51Z</time>
      </trkpt>
      <trkpt lat="44.63606" lon="6.79119">
        <ele>2225</ele>
        <time>2019-08-19T12:40:15Z</time>
      </trkpt>
      <trkpt lat="44.63589" lon="6.79127">
        <ele>2227</ele>
        <time>2019-08-19T12:40:39Z</time>
      </trkpt>
      <trkpt lat="44.63566" lon="6.79143">
        <ele>2226</ele>
        <time>2019-08-19T12:41:13Z</time>
      </trkpt>
      <trkpt lat="44.63559" lon="6.79148">
        <ele>2225</ele>
        <time>2019-08-19T12:41:24Z</time>
      </trkpt>
      <trkpt lat="44.6355" lon="6.79162">
        <ele>2224</ele>
        <time>2019-08-19T12:41:42Z</time>
      </trkpt>
      <trkpt lat="44.63541" lon="6.79171">
        <ele>2224</ele>
        <time>2019-08-19T12:41:57Z</time>
      </trkpt>
      <trkpt lat="44.63531" lon="6.79172">
        <ele>2224</ele>
        <time>2019-08-19T12:42:10Z</time>
      </trkpt>
      <trkpt lat="44.63517" lon="6.79181">
        <ele>2225</ele>
        <time>2019-08-19T12:42:31Z</time>
      </trkpt>
      <trkpt lat="44.6351" lon="6.79187">
        <ele>2225</ele>
        <time>2019-08-19T12:42:41Z</time>
      </trkpt>
      <trkpt lat="44.63488" lon="6.79197">
        <ele>2226</ele>
        <time>2019-08-19T12:43:12Z</time>
      </trkpt>
      <trkpt lat="44.63477" lon="6.79198">
        <ele>2226</ele>
        <time>2019-08-19T12:43:27Z</time>
      </trkpt>
      <trkpt lat="44.63468" lon="6.79205">
        <ele>2227</ele>
        <time>2019-08-19T12:43:41Z</time>
      </trkpt>
      <trkpt lat="44.6346" lon="6.79209">
        <ele>2227</ele>
        <time>2019-08-19T12:43:52Z</time>
      </trkpt>
      <trkpt lat="44.63455" lon="6.7921">
        <ele>2227</ele>
        <time>2019-08-19T12:43:59Z</time>
      </trkpt>
      <trkpt lat="44.63449" lon="6.79216">
        <ele>2227</ele>
        <time>2019-08-19T12:44:09Z</time>
      </trkpt>
      <trkpt lat="44.63438" lon="6.79226">
        <ele>2228</ele>
        <time>2019-08-19T12:44:26Z</time>
      </trkpt>
      <trkpt lat="44.63426" lon="6.79233">
        <ele>2229</ele>
        <time>2019-08-19T12:44:43Z</time>
      </trkpt>
      <trkpt lat="44.63421" lon="6.79235">
        <ele>2229</ele>
        <time>2019-08-19T12:44:50Z</time>
      </trkpt>
      <trkpt lat="44.63418" lon="6.79238">
        <ele>2229</ele>
        <time>2019-08-19T12:44:55Z</time>
      </trkpt>
      <trkpt lat="44.63412" lon="6.79241">
        <ele>2229</ele>
        <time>2019-08-19T12:45:04Z</time>
      </trkpt>
      <trkpt lat="44.63409" lon="6.79243">
        <ele>2228</ele>
        <time>2019-08-19T12:45:08Z</time>
      </trkpt>
      <trkpt lat="44.63405" lon="6.79247">
        <ele>2228</ele>
        <time>2019-08-19T12:45:15Z</time>
      </trkpt>
      <trkpt lat="44.63392" lon="6.79258">
        <ele>2228</ele>
        <time>2019-08-19T12:45:35Z</time>
      </trkpt>
      <trkpt lat="44.63389" lon="6.79263">
        <ele>2228</ele>
        <time>2019-08-19T12:45:41Z</time>
      </trkpt>
      <trkpt lat="44.63382" lon="6.79272">
        <ele>2228</ele>
        <time>2019-08-19T12:45:54Z</time>
      </trkpt>
      <trkpt lat="44.63367" lon="6.79284">
        <ele>2227</ele>
        <time>2019-08-19T12:46:17Z</time>
      </trkpt>
      <trkpt lat="44.63359" lon="6.79291">
        <ele>2226</ele>
        <time>2019-08-19T12:46:30Z</time>
      </trkpt>
      <trkpt lat="44.63352" lon="6.79299">
        <ele>2226</ele>
        <time>2019-08-19T12:46:42Z</time>
      </trkpt>
      <trkpt lat="44.63341" lon="6.7931">
        <ele>2225</ele>
        <time>2019-08-19T12:47:00Z</time>
      </trkpt>
      <trkpt lat="44.63332" lon="6.7933">
        <ele>2226</ele>
        <time>2019-08-19T12:47:22Z</time>
      </trkpt>
      <trkpt lat="44.63328" lon="6.79334">
        <ele>2226</ele>
        <time>2019-08-19T12:47:29Z</time>
      </trkpt>
      <trkpt lat="44.63322" lon="6.79334">
        <ele>2227</ele>
        <time>2019-08-19T12:47:37Z</time>
      </trkpt>
      <trkpt lat="44.63318" lon="6.79334">
        <ele>2227</ele>
        <time>2019-08-19T12:47:42Z</time>
      </trkpt>
      <trkpt lat="44.63313" lon="6.79338">
        <ele>2227</ele>
        <time>2019-08-19T12:47:50Z</time>
      </trkpt>
      <trkpt lat="44.63307" lon="6.7934">
        <ele>2228</ele>
        <time>2019-08-19T12:47:58Z</time>
      </trkpt>
      <trkpt lat="44.63301" lon="6.79348">
        <ele>2228</ele>
        <time>2019-08-19T12:48:09Z</time>
      </trkpt>
      <trkpt lat="44.63297" lon="6.79353">
        <ele>2228</ele>
        <time>2019-08-19T12:48:16Z</time>
      </trkpt>
      <trkpt lat="44.63295" lon="6.79354">
        <ele>2228</ele>
        <time>2019-08-19T12:48:19Z</time>
      </trkpt>
      <trkpt lat="44.63287" lon="6.79355">
        <ele>2228</ele>
        <time>2019-08-19T12:48:30Z</time>
      </trkpt>
      <trkpt lat="44.63285" lon="6.79356">
        <ele>2228</ele>
        <time>2019-08-19T12:48:32Z</time>
      </trkpt>
      <trkpt lat="44.63279" lon="6.79372">
        <ele>2227</ele>
        <time>2019-08-19T12:48:50Z</time>
      </trkpt>
      <trkpt lat="44.63275" lon="6.79382">
        <ele>2226</ele>
        <time>2019-08-19T12:49:01Z</time>
      </trkpt>
      <trkpt lat="44.63274" lon="6.79397">
        <ele>2225</ele>
        <time>2019-08-19T12:49:15Z</time>
      </trkpt>
      <trkpt lat="44.63272" lon="6.79402">
        <ele>2225</ele>
        <time>2019-08-19T12:49:20Z</time>
      </trkpt>
      <trkpt lat="44.63262" lon="6.79414">
        <ele>2223</ele>
        <time>2019-08-19T12:49:38Z</time>
      </trkpt>
      <trkpt lat="44.63252" lon="6.79424">
        <ele>2221</ele>
        <time>2019-08-19T12:49:54Z</time>
      </trkpt>
      <trkpt lat="44.63226" lon="6.79447">
        <ele>2221</ele>
        <time>2019-08-19T12:50:35Z</time>
      </trkpt>
      <trkpt lat="44.63219" lon="6.79454">
        <ele>2221</ele>
        <time>2019-08-19T12:50:47Z</time>
      </trkpt>
      <trkpt lat="44.63203" lon="6.79466">
        <ele>2222</ele>
        <time>2019-08-19T12:51:11Z</time>
      </trkpt>
      <trkpt lat="44.63195" lon="6.79469">
        <ele>2223</ele>
        <time>2019-08-19T12:51:22Z</time>
      </trkpt>
      <trkpt lat="44.63191" lon="6.79474">
        <ele>2223</ele>
        <time>2019-08-19T12:51:29Z</time>
      </trkpt>
      <trkpt lat="44.63185" lon="6.79488">
        <ele>2221</ele>
        <time>2019-08-19T12:51:45Z</time>
      </trkpt>
      <trkpt lat="44.63181" lon="6.795">
        <ele>2219</ele>
        <time>2019-08-19T12:51:57Z</time>
      </trkpt>
      <trkpt lat="44.63181" lon="6.79505">
        <ele>2218</ele>
        <time>2019-08-19T12:52:02Z</time>
      </trkpt>
      <trkpt lat="44.63179" lon="6.79519">
        <ele>2217</ele>
        <time>2019-08-19T12:52:15Z</time>
      </trkpt>
      <trkpt lat="44.63179" lon="6.79526">
        <ele>2215</ele>
        <time>2019-08-19T12:52:22Z</time>
      </trkpt>
      <trkpt lat="44.63176" lon="6.79549">
        <ele>2213</ele>
        <time>2019-08-19T12:52:44Z</time>
      </trkpt>
      <trkpt lat="44.63172" lon="6.7956">
        <ele>2212</ele>
        <time>2019-08-19T12:52:56Z</time>
      </trkpt>
      <trkpt lat="44.63166" lon="6.79573">
        <ele>2211</ele>
        <time>2019-08-19T12:53:11Z</time>
      </trkpt>
      <trkpt lat="44.63162" lon="6.79579">
        <ele>2211</ele>
        <time>2019-08-19T12:53:19Z</time>
      </trkpt>
      <trkpt lat="44.63159" lon="6.79589">
        <ele>2210</ele>
        <time>2019-08-19T12:53:29Z</time>
      </trkpt>
      <trkpt lat="44.63152" lon="6.79599">
        <ele>2211</ele>
        <time>2019-08-19T12:53:42Z</time>
      </trkpt>
      <trkpt lat="44.63148" lon="6.7961">
        <ele>2210</ele>
        <time>2019-08-19T12:53:54Z</time>
      </trkpt>
      <trkpt lat="44.63146" lon="6.79613">
        <ele>2210</ele>
        <time>2019-08-19T12:53:58Z</time>
      </trkpt>
      <trkpt lat="44.63142" lon="6.79626">
        <ele>2209</ele>
        <time>2019-08-19T12:54:11Z</time>
      </trkpt>
      <trkpt lat="44.63136" lon="6.79636">
        <ele>2208</ele>
        <time>2019-08-19T12:54:24Z</time>
      </trkpt>
      <trkpt lat="44.63131" lon="6.79641">
        <ele>2209</ele>
        <time>2019-08-19T12:54:32Z</time>
      </trkpt>
      <trkpt lat="44.6312" lon="6.79662">
        <ele>2207</ele>
        <time>2019-08-19T12:54:57Z</time>
      </trkpt>
      <trkpt lat="44.63114" lon="6.79674">
        <ele>2206</ele>
        <time>2019-08-19T12:55:11Z</time>
      </trkpt>
      <trkpt lat="44.63099" lon="6.79691">
        <ele>2207</ele>
        <time>2019-08-19T12:55:36Z</time>
      </trkpt>
      <trkpt lat="44.63089" lon="6.79699">
        <ele>2208</ele>
        <time>2019-08-19T12:55:52Z</time>
      </trkpt>
      <trkpt lat="44.63086" lon="6.79706">
        <ele>2208</ele>
        <time>2019-08-19T12:55:59Z</time>
      </trkpt>
      <trkpt lat="44.63082" lon="6.79711">
        <ele>2208</ele>
        <time>2019-08-19T12:56:07Z</time>
      </trkpt>
      <trkpt lat="44.63078" lon="6.79719">
        <ele>2208</ele>
        <time>2019-08-19T12:56:16Z</time>
      </trkpt>
      <trkpt lat="44.63076" lon="6.79728">
        <ele>2207</ele>
        <time>2019-08-19T12:56:25Z</time>
      </trkpt>
      <trkpt lat="44.63075" lon="6.79731">
        <ele>2207</ele>
        <time>2019-08-19T12:56:28Z</time>
      </trkpt>
      <trkpt lat="44.63066" lon="6.79742">
        <ele>2208</ele>
        <time>2019-08-19T12:56:44Z</time>
      </trkpt>
      <trkpt lat="44.63056" lon="6.79752">
        <ele>2210</ele>
        <time>2019-08-19T12:57:00Z</time>
      </trkpt>
      <trkpt lat="44.6305" lon="6.79761">
        <ele>2211</ele>
        <time>2019-08-19T12:57:12Z</time>
      </trkpt>
      <trkpt lat="44.63043" lon="6.79762">
        <ele>2213</ele>
        <time>2019-08-19T12:57:21Z</time>
      </trkpt>
      <trkpt lat="44.63027" lon="6.79773">
        <ele>2216</ele>
        <time>2019-08-19T12:57:45Z</time>
      </trkpt>
      <trkpt lat="44.63023" lon="6.7978">
        <ele>2217</ele>
        <time>2019-08-19T12:57:54Z</time>
      </trkpt>
      <trkpt lat="44.63021" lon="6.79803">
        <ele>2216</ele>
        <time>2019-08-19T12:58:16Z</time>
      </trkpt>
      <trkpt lat="44.6302" lon="6.79811">
        <ele>2215</ele>
        <time>2019-08-19T12:58:23Z</time>
      </trkpt>
      <trkpt lat="44.63017" lon="6.79814">
        <ele>2215</ele>
        <time>2019-08-19T12:58:28Z</time>
      </trkpt>
      <trkpt lat="44.63008" lon="6.79815">
        <ele>2217</ele>
        <time>2019-08-19T12:58:40Z</time>
      </trkpt>
      <trkpt lat="44.62998" lon="6.7982">
        <ele>2219</ele>
        <time>2019-08-19T12:58:54Z</time>
      </trkpt>
      <trkpt lat="44.62985" lon="6.79835">
        <ele>2220</ele>
        <time>2019-08-19T12:59:17Z</time>
      </trkpt>
      <trkpt lat="44.62977" lon="6.79843">
        <ele>2221</ele>
        <time>2019-08-19T12:59:30Z</time>
      </trkpt>
      <trkpt lat="44.62968" lon="6.79854">
        <ele>2221</ele>
        <time>2019-08-19T12:59:46Z</time>
      </trkpt>
      <trkpt lat="44.62959" lon="6.79876">
        <ele>2220</ele>
        <time>2019-08-19T13:00:10Z</time>
      </trkpt>
      <trkpt lat="44.62953" lon="6.79887">
        <ele>2220</ele>
        <time>2019-08-19T13:00:23Z</time>
      </trkpt>
      <trkpt lat="44.62947" lon="6.79891">
        <ele>2220</ele>
        <time>2019-08-19T13:00:32Z</time>
      </trkpt>
      <trkpt lat="44.62942" lon="6.79893">
        <ele>2221</ele>
        <time>2019-08-19T13:00:39Z</time>
      </trkpt>
      <trkpt lat="44.62938" lon="6.79898">
        <ele>2221</ele>
        <time>2019-08-19T13:00:46Z</time>
      </trkpt>
      <trkpt lat="44.62936" lon="6.79902">
        <ele>2221</ele>
        <time>2019-08-19T13:00:51Z</time>
      </trkpt>
      <trkpt lat="44.62931" lon="6.79916">
        <ele>2220</ele>
        <time>2019-08-19T13:01:06Z</time>
      </trkpt>
      <trkpt lat="44.62932" lon="6.7994">
        <ele>2220</ele>
        <time>2019-08-19T13:01:29Z</time>
      </trkpt>
      <trkpt lat="44.62937" lon="6.79959">
        <ele>2220</ele>
        <time>2019-08-19T13:01:48Z</time>
      </trkpt>
      <trkpt lat="44.62935" lon="6.79982">
        <ele>2221</ele>
        <time>2019-08-19T13:02:10Z</time>
      </trkpt>
      <trkpt lat="44.62931" lon="6.79999">
        <ele>2222</ele>
        <time>2019-08-19T13:02:27Z</time>
      </trkpt>
      <trkpt lat="44.62922" lon="6.80016">
        <ele>2226</ele>
        <time>2019-08-19T13:02:47Z</time>
      </trkpt>
      <trkpt lat="44.62913" lon="6.80037">
        <ele>2231</ele>
        <time>2019-08-19T13:03:10Z</time>
      </trkpt>
      <trkpt lat="44.62912" lon="6.80045">
        <ele>2233</ele>
        <time>2019-08-19T13:03:18Z</time>
      </trkpt>
      <trkpt lat="44.62913" lon="6.80052">
        <ele>2233</ele>
        <time>2019-08-19T13:03:25Z</time>
      </trkpt>
      <trkpt lat="44.62916" lon="6.80059">
        <ele>2233</ele>
        <time>2019-08-19T13:03:32Z</time>
      </trkpt>
      <trkpt lat="44.62917" lon="6.80099">
        <ele>2240</ele>
        <time>2019-08-19T13:04:10Z</time>
      </trkpt>
      <trkpt lat="44.62919" lon="6.80136">
        <ele>2248</ele>
        <time>2019-08-19T13:04:46Z</time>
      </trkpt>
      <trkpt lat="44.62918" lon="6.80176">
        <ele>2257</ele>
        <time>2019-08-19T13:05:24Z</time>
      </trkpt>
      <trkpt lat="44.62917" lon="6.80192">
        <ele>2261</ele>
        <time>2019-08-19T13:05:39Z</time>
      </trkpt>
      <trkpt lat="44.6291" lon="6.80203">
        <ele>2266</ele>
        <time>2019-08-19T13:05:53Z</time>
      </trkpt>
      <trkpt lat="44.62887" lon="6.80229">
        <ele>2278</ele>
        <time>2019-08-19T13:06:32Z</time>
      </trkpt>
      <trkpt lat="44.62873" lon="6.8025">
        <ele>2285</ele>
        <time>2019-08-19T13:07:00Z</time>
      </trkpt>
      <trkpt lat="44.6286" lon="6.80276">
        <ele>2292</ele>
        <time>2019-08-19T13:07:30Z</time>
      </trkpt>
      <trkpt lat="44.62858" lon="6.80282">
        <ele>2293</ele>
        <time>2019-08-19T13:07:36Z</time>
      </trkpt>
      <trkpt lat="44.6285" lon="6.80292">
        <ele>2296</ele>
        <time>2019-08-19T13:07:50Z</time>
      </trkpt>
      <trkpt lat="44.62847" lon="6.803">
        <ele>2298</ele>
        <time>2019-08-19T13:07:59Z</time>
      </trkpt>
      <trkpt lat="44.62842" lon="6.80304">
        <ele>2299</ele>
        <time>2019-08-19T13:08:07Z</time>
      </trkpt>
      <trkpt lat="44.62839" lon="6.80315">
        <ele>2300</ele>
        <time>2019-08-19T13:08:18Z</time>
      </trkpt>
      <trkpt lat="44.62833" lon="6.80322">
        <ele>2302</ele>
        <time>2019-08-19T13:08:28Z</time>
      </trkpt>
      <trkpt lat="44.62828" lon="6.80331">
        <ele>2303</ele>
        <time>2019-08-19T13:08:39Z</time>
      </trkpt>
      <trkpt lat="44.62827" lon="6.80338">
        <ele>2304</ele>
        <time>2019-08-19T13:08:46Z</time>
      </trkpt>
      <trkpt lat="44.62826" lon="6.80344">
        <ele>2305</ele>
        <time>2019-08-19T13:08:52Z</time>
      </trkpt>
      <trkpt lat="44.62822" lon="6.80347">
        <ele>2306</ele>
        <time>2019-08-19T13:08:58Z</time>
      </trkpt>
      <trkpt lat="44.62791" lon="6.8037">
        <ele>2310</ele>
        <time>2019-08-19T13:09:45Z</time>
      </trkpt>
      <trkpt lat="44.62777" lon="6.80387">
        <ele>2313</ele>
        <time>2019-08-19T13:10:09Z</time>
      </trkpt>
      <trkpt lat="44.62741" lon="6.80436">
        <ele>2319</ele>
        <time>2019-08-19T13:11:16Z</time>
      </trkpt>
      <trkpt lat="44.62726" lon="6.80462">
        <ele>2322</ele>
        <time>2019-08-19T13:11:48Z</time>
      </trkpt>
      <trkpt lat="44.62719" lon="6.80468">
        <ele>2323</ele>
        <time>2019-08-19T13:11:59Z</time>
      </trkpt>
      <trkpt lat="44.62712" lon="6.80472">
        <ele>2324</ele>
        <time>2019-08-19T13:12:09Z</time>
      </trkpt>
      <trkpt lat="44.62707" lon="6.80477">
        <ele>2325</ele>
        <time>2019-08-19T13:12:17Z</time>
      </trkpt>
      <trkpt lat="44.62692" lon="6.80501">
        <ele>2329</ele>
        <time>2019-08-19T13:12:48Z</time>
      </trkpt>
      <trkpt lat="44.62672" lon="6.8052">
        <ele>2335</ele>
        <time>2019-08-19T13:13:20Z</time>
      </trkpt>
      <trkpt lat="44.62657" lon="6.8053">
        <ele>2339</ele>
        <time>2019-08-19T13:13:42Z</time>
      </trkpt>
      <trkpt lat="44.62652" lon="6.80532">
        <ele>2340</ele>
        <time>2019-08-19T13:13:49Z</time>
      </trkpt>
      <trkpt lat="44.62641" lon="6.80533">
        <ele>2342</ele>
        <time>2019-08-19T13:14:04Z</time>
      </trkpt>
      <trkpt lat="44.62629" lon="6.80532">
        <ele>2343</ele>
        <time>2019-08-19T13:14:20Z</time>
      </trkpt>
      <trkpt lat="44.62625" lon="6.80533">
        <ele>2344</ele>
        <time>2019-08-19T13:14:25Z</time>
      </trkpt>
      <trkpt lat="44.62617" lon="6.80543">
        <ele>2347</ele>
        <time>2019-08-19T13:14:39Z</time>
      </trkpt>
      <trkpt lat="44.62603" lon="6.80566">
        <ele>2353</ele>
        <time>2019-08-19T13:15:08Z</time>
      </trkpt>
      <trkpt lat="44.62588" lon="6.80582">
        <ele>2356</ele>
        <time>2019-08-19T13:15:33Z</time>
      </trkpt>
      <trkpt lat="44.62559" lon="6.80615">
        <ele>2366</ele>
        <time>2019-08-19T13:16:23Z</time>
      </trkpt>
      <trkpt lat="44.62538" lon="6.8064">
        <ele>2371</ele>
        <time>2019-08-19T13:17:00Z</time>
      </trkpt>
      <trkpt lat="44.62509" lon="6.80673">
        <ele>2375</ele>
        <time>2019-08-19T13:17:49Z</time>
      </trkpt>
      <trkpt lat="44.62489" lon="6.80702">
        <ele>2381</ele>
        <time>2019-08-19T13:18:28Z</time>
      </trkpt>
      <trkpt lat="44.62479" lon="6.80718">
        <ele>2386</ele>
        <time>2019-08-19T13:18:48Z</time>
      </trkpt>
      <trkpt lat="44.62474" lon="6.8073">
        <ele>2388</ele>
        <time>2019-08-19T13:19:01Z</time>
      </trkpt>
      <trkpt lat="44.62469" lon="6.80739">
        <ele>2390</ele>
        <time>2019-08-19T13:19:12Z</time>
      </trkpt>
      <trkpt lat="44.62449" lon="6.80765">
        <ele>2396</ele>
        <time>2019-08-19T13:19:48Z</time>
      </trkpt>
      <trkpt lat="44.62445" lon="6.80775">
        <ele>2399</ele>
        <time>2019-08-19T13:19:59Z</time>
      </trkpt>
      <trkpt lat="44.62447" lon="6.8081">
        <ele>2407</ele>
        <time>2019-08-19T13:20:33Z</time>
      </trkpt>
      <trkpt lat="44.62446" lon="6.80813">
        <ele>2408</ele>
        <time>2019-08-19T13:20:36Z</time>
      </trkpt>
      <trkpt lat="44.62444" lon="6.80815">
        <ele>2408</ele>
        <time>2019-08-19T13:20:39Z</time>
      </trkpt>
      <trkpt lat="44.62435" lon="6.80811">
        <ele>2406</ele>
        <time>2019-08-19T13:20:52Z</time>
      </trkpt>
      <trkpt lat="44.62429" lon="6.80809">
        <ele>2405</ele>
        <time>2019-08-19T13:21:00Z</time>
      </trkpt>
      <trkpt lat="44.62419" lon="6.80816">
        <ele>2405</ele>
        <time>2019-08-19T13:21:15Z</time>
      </trkpt>
      <trkpt lat="44.62412" lon="6.80828">
        <ele>2407</ele>
        <time>2019-08-19T13:21:30Z</time>
      </trkpt>
      <trkpt lat="44.62411" lon="6.80845">
        <ele>2408</ele>
        <time>2019-08-19T13:21:46Z</time>
      </trkpt>
      <trkpt lat="44.62407" lon="6.80871">
        <ele>2409</ele>
        <time>2019-08-19T13:22:11Z</time>
      </trkpt>
      <trkpt lat="44.62405" lon="6.8088">
        <ele>2409</ele>
        <time>2019-08-19T13:22:20Z</time>
      </trkpt>
      <trkpt lat="44.62401" lon="6.8089">
        <ele>2410</ele>
        <time>2019-08-19T13:22:31Z</time>
      </trkpt>
      <trkpt lat="44.62397" lon="6.80898">
        <ele>2410</ele>
        <time>2019-08-19T13:22:40Z</time>
      </trkpt>
      <trkpt lat="44.6239" lon="6.80906">
        <ele>2410</ele>
        <time>2019-08-19T13:22:52Z</time>
      </trkpt>
      <trkpt lat="44.62384" lon="6.80914">
        <ele>2410</ele>
        <time>2019-08-19T13:23:03Z</time>
      </trkpt>
      <trkpt lat="44.62379" lon="6.80923">
        <ele>2408</ele>
        <time>2019-08-19T13:23:14Z</time>
      </trkpt>
      <trkpt lat="44.62375" lon="6.80933">
        <ele>2407</ele>
        <time>2019-08-19T13:23:25Z</time>
      </trkpt>
      <trkpt lat="44.6237" lon="6.80943">
        <ele>2405</ele>
        <time>2019-08-19T13:23:37Z</time>
      </trkpt>
      <trkpt lat="44.62365" lon="6.80949">
        <ele>2404</ele>
        <time>2019-08-19T13:23:45Z</time>
      </trkpt>
      <trkpt lat="44.62361" lon="6.80954">
        <ele>2403</ele>
        <time>2019-08-19T13:23:53Z</time>
      </trkpt>
      <trkpt lat="44.62355" lon="6.80957">
        <ele>2402</ele>
        <time>2019-08-19T13:24:01Z</time>
      </trkpt>
      <trkpt lat="44.62346" lon="6.80959">
        <ele>2402</ele>
        <time>2019-08-19T13:24:13Z</time>
      </trkpt>
      <trkpt lat="44.62329" lon="6.80959">
        <ele>2402</ele>
        <time>2019-08-19T13:24:36Z</time>
      </trkpt>
      <trkpt lat="44.62327" lon="6.80959">
        <ele>2403</ele>
        <time>2019-08-19T13:24:39Z</time>
      </trkpt>
      <trkpt lat="44.62323" lon="6.80962">
        <ele>2403</ele>
        <time>2019-08-19T13:24:45Z</time>
      </trkpt>
      <trkpt lat="44.62318" lon="6.80964">
        <ele>2403</ele>
        <time>2019-08-19T13:24:52Z</time>
      </trkpt>
      <trkpt lat="44.6231" lon="6.80964">
        <ele>2404</ele>
        <time>2019-08-19T13:25:02Z</time>
      </trkpt>
      <trkpt lat="44.62307" lon="6.80967">
        <ele>2404</ele>
        <time>2019-08-19T13:25:07Z</time>
      </trkpt>
      <trkpt lat="44.62303" lon="6.80971">
        <ele>2404</ele>
        <time>2019-08-19T13:25:14Z</time>
      </trkpt>
      <trkpt lat="44.62294" lon="6.80975">
        <ele>2405</ele>
        <time>2019-08-19T13:25:26Z</time>
      </trkpt>
      <trkpt lat="44.62289" lon="6.80976">
        <ele>2406</ele>
        <time>2019-08-19T13:25:33Z</time>
      </trkpt>
      <trkpt lat="44.62281" lon="6.80979">
        <ele>2407</ele>
        <time>2019-08-19T13:25:44Z</time>
      </trkpt>
      <trkpt lat="44.62266" lon="6.80992">
        <ele>2407</ele>
        <time>2019-08-19T13:26:08Z</time>
      </trkpt>
      <trkpt lat="44.62259" lon="6.81">
        <ele>2408</ele>
        <time>2019-08-19T13:26:20Z</time>
      </trkpt>
      <trkpt lat="44.62249" lon="6.81006">
        <ele>2408</ele>
        <time>2019-08-19T13:26:34Z</time>
      </trkpt>
      <trkpt lat="44.62242" lon="6.81015">
        <ele>2408</ele>
        <time>2019-08-19T13:26:47Z</time>
      </trkpt>
      <trkpt lat="44.62236" lon="6.81024">
        <ele>2407</ele>
        <time>2019-08-19T13:26:59Z</time>
      </trkpt>
      <trkpt lat="44.6223" lon="6.81039">
        <ele>2405</ele>
        <time>2019-08-19T13:27:15Z</time>
      </trkpt>
      <trkpt lat="44.62223" lon="6.81055">
        <ele>2403</ele>
        <time>2019-08-19T13:27:33Z</time>
      </trkpt>
      <trkpt lat="44.62215" lon="6.81066">
        <ele>2402</ele>
        <time>2019-08-19T13:27:48Z</time>
      </trkpt>
      <trkpt lat="44.62209" lon="6.81072">
        <ele>2402</ele>
        <time>2019-08-19T13:27:57Z</time>
      </trkpt>
      <trkpt lat="44.62199" lon="6.81075">
        <ele>2402</ele>
        <time>2019-08-19T13:28:11Z</time>
      </trkpt>
      <trkpt lat="44.62189" lon="6.81076">
        <ele>2402</ele>
        <time>2019-08-19T13:28:25Z</time>
      </trkpt>
      <trkpt lat="44.62179" lon="6.81075">
        <ele>2403</ele>
        <time>2019-08-19T13:28:38Z</time>
      </trkpt>
      <trkpt lat="44.6217" lon="6.81071">
        <ele>2404</ele>
        <time>2019-08-19T13:28:50Z</time>
      </trkpt>
      <trkpt lat="44.62158" lon="6.81062">
        <ele>2405</ele>
        <time>2019-08-19T13:29:09Z</time>
      </trkpt>
      <trkpt lat="44.62153" lon="6.81057">
        <ele>2405</ele>
        <time>2019-08-19T13:29:17Z</time>
      </trkpt>
      <trkpt lat="44.62141" lon="6.8105">
        <ele>2405</ele>
        <time>2019-08-19T13:29:34Z</time>
      </trkpt>
      <trkpt lat="44.62137" lon="6.81049">
        <ele>2405</ele>
        <time>2019-08-19T13:29:40Z</time>
      </trkpt>
      <trkpt lat="44.62133" lon="6.8105">
        <ele>2405</ele>
        <time>2019-08-19T13:29:45Z</time>
      </trkpt>
      <trkpt lat="44.62127" lon="6.81057">
        <ele>2403</ele>
        <time>2019-08-19T13:29:55Z</time>
      </trkpt>
      <trkpt lat="44.6212" lon="6.81068">
        <ele>2402</ele>
        <time>2019-08-19T13:30:09Z</time>
      </trkpt>
      <trkpt lat="44.62116" lon="6.8107">
        <ele>2401</ele>
        <time>2019-08-19T13:30:15Z</time>
      </trkpt>
      <trkpt lat="44.62107" lon="6.81071">
        <ele>2400</ele>
        <time>2019-08-19T13:30:27Z</time>
      </trkpt>
      <trkpt lat="44.62104" lon="6.81073">
        <ele>2400</ele>
        <time>2019-08-19T13:30:32Z</time>
      </trkpt>
      <trkpt lat="44.62102" lon="6.81076">
        <ele>2400</ele>
        <time>2019-08-19T13:30:35Z</time>
      </trkpt>
      <trkpt lat="44.62099" lon="6.81085">
        <ele>2398</ele>
        <time>2019-08-19T13:30:45Z</time>
      </trkpt>
      <trkpt lat="44.62096" lon="6.81091">
        <ele>2397</ele>
        <time>2019-08-19T13:30:52Z</time>
      </trkpt>
      <trkpt lat="44.62091" lon="6.81098">
        <ele>2396</ele>
        <time>2019-08-19T13:31:01Z</time>
      </trkpt>
      <trkpt lat="44.62085" lon="6.81103">
        <ele>2395</ele>
        <time>2019-08-19T13:31:11Z</time>
      </trkpt>
      <trkpt lat="44.62078" lon="6.81105">
        <ele>2395</ele>
        <time>2019-08-19T13:31:20Z</time>
      </trkpt>
      <trkpt lat="44.62072" lon="6.81105">
        <ele>2396</ele>
        <time>2019-08-19T13:31:28Z</time>
      </trkpt>
      <trkpt lat="44.62058" lon="6.81112">
        <ele>2398</ele>
        <time>2019-08-19T13:31:48Z</time>
      </trkpt>
      <trkpt lat="44.62052" lon="6.81118">
        <ele>2398</ele>
        <time>2019-08-19T13:31:58Z</time>
      </trkpt>
      <trkpt lat="44.62048" lon="6.81119">
        <ele>2398</ele>
        <time>2019-08-19T13:32:03Z</time>
      </trkpt>
      <trkpt lat="44.62044" lon="6.81118">
        <ele>2399</ele>
        <time>2019-08-19T13:32:09Z</time>
      </trkpt>
      <trkpt lat="44.62038" lon="6.81118">
        <ele>2400</ele>
        <time>2019-08-19T13:32:17Z</time>
      </trkpt>
      <trkpt lat="44.62035" lon="6.81121">
        <ele>2400</ele>
        <time>2019-08-19T13:32:22Z</time>
      </trkpt>
      <trkpt lat="44.62032" lon="6.81124">
        <ele>2401</ele>
        <time>2019-08-19T13:32:26Z</time>
      </trkpt>
      <trkpt lat="44.62022" lon="6.81143">
        <ele>2400</ele>
        <time>2019-08-19T13:32:49Z</time>
      </trkpt>
      <trkpt lat="44.62018" lon="6.81149">
        <ele>2400</ele>
        <time>2019-08-19T13:32:57Z</time>
      </trkpt>
      <trkpt lat="44.62002" lon="6.81157">
        <ele>2403</ele>
        <time>2019-08-19T13:33:19Z</time>
      </trkpt>
      <trkpt lat="44.61995" lon="6.8116">
        <ele>2403</ele>
        <time>2019-08-19T13:33:29Z</time>
      </trkpt>
      <trkpt lat="44.61988" lon="6.8116">
        <ele>2404</ele>
        <time>2019-08-19T13:33:39Z</time>
      </trkpt>
      <trkpt lat="44.6198" lon="6.81163">
        <ele>2404</ele>
        <time>2019-08-19T13:33:50Z</time>
      </trkpt>
      <trkpt lat="44.61956" lon="6.81164">
        <ele>2406</ele>
        <time>2019-08-19T13:34:22Z</time>
      </trkpt>
      <trkpt lat="44.61943" lon="6.81163">
        <ele>2408</ele>
        <time>2019-08-19T13:34:39Z</time>
      </trkpt>
      <trkpt lat="44.61911" lon="6.8117">
        <ele>2409</ele>
        <time>2019-08-19T13:35:22Z</time>
      </trkpt>
      <trkpt lat="44.61904" lon="6.81176">
        <ele>2408</ele>
        <time>2019-08-19T13:35:33Z</time>
      </trkpt>
      <trkpt lat="44.619" lon="6.81182">
        <ele>2408</ele>
        <time>2019-08-19T13:35:41Z</time>
      </trkpt>
      <trkpt lat="44.61899" lon="6.81186">
        <ele>2408</ele>
        <time>2019-08-19T13:35:45Z</time>
      </trkpt>
      <trkpt lat="44.619" lon="6.81189">
        <ele>2407</ele>
        <time>2019-08-19T13:35:48Z</time>
      </trkpt>
      <trkpt lat="44.61903" lon="6.81193">
        <ele>2408</ele>
        <time>2019-08-19T13:35:54Z</time>
      </trkpt>
      <trkpt lat="44.61902" lon="6.81203">
        <ele>2407</ele>
        <time>2019-08-19T13:36:03Z</time>
      </trkpt>
      <trkpt lat="44.619" lon="6.81209">
        <ele>2407</ele>
        <time>2019-08-19T13:36:10Z</time>
      </trkpt>
      <trkpt lat="44.61901" lon="6.81219">
        <ele>2406</ele>
        <time>2019-08-19T13:36:19Z</time>
      </trkpt>
      <trkpt lat="44.619" lon="6.81233">
        <ele>2406</ele>
        <time>2019-08-19T13:36:32Z</time>
      </trkpt>
      <trkpt lat="44.61898" lon="6.81243">
        <ele>2405</ele>
        <time>2019-08-19T13:36:42Z</time>
      </trkpt>
      <trkpt lat="44.61893" lon="6.81254">
        <ele>2404</ele>
        <time>2019-08-19T13:36:55Z</time>
      </trkpt>
      <trkpt lat="44.61886" lon="6.81266">
        <ele>2404</ele>
        <time>2019-08-19T13:37:09Z</time>
      </trkpt>
      <trkpt lat="44.61878" lon="6.81275">
        <ele>2403</ele>
        <time>2019-08-19T13:37:23Z</time>
      </trkpt>
      <trkpt lat="44.61872" lon="6.81283">
        <ele>2403</ele>
        <time>2019-08-19T13:37:34Z</time>
      </trkpt>
      <trkpt lat="44.6187" lon="6.81288">
        <ele>2404</ele>
        <time>2019-08-19T13:37:40Z</time>
      </trkpt>
      <trkpt lat="44.61869" lon="6.81297">
        <ele>2404</ele>
        <time>2019-08-19T13:37:48Z</time>
      </trkpt>
      <trkpt lat="44.61867" lon="6.81308">
        <ele>2404</ele>
        <time>2019-08-19T13:37:59Z</time>
      </trkpt>
      <trkpt lat="44.61863" lon="6.81318">
        <ele>2405</ele>
        <time>2019-08-19T13:38:10Z</time>
      </trkpt>
      <trkpt lat="44.61861" lon="6.81326">
        <ele>2405</ele>
        <time>2019-08-19T13:38:18Z</time>
      </trkpt>
      <trkpt lat="44.61858" lon="6.81339">
        <ele>2407</ele>
        <time>2019-08-19T13:38:31Z</time>
      </trkpt>
      <trkpt lat="44.61854" lon="6.81348">
        <ele>2409</ele>
        <time>2019-08-19T13:38:41Z</time>
      </trkpt>
      <trkpt lat="44.61846" lon="6.81357">
        <ele>2412</ele>
        <time>2019-08-19T13:38:55Z</time>
      </trkpt>
      <trkpt lat="44.61846" lon="6.81361">
        <ele>2413</ele>
        <time>2019-08-19T13:38:59Z</time>
      </trkpt>
      <trkpt lat="44.61845" lon="6.81362">
        <ele>2414</ele>
        <time>2019-08-19T13:39:00Z</time>
      </trkpt>
      <trkpt lat="44.61842" lon="6.8136">
        <ele>2414</ele>
        <time>2019-08-19T13:39:05Z</time>
      </trkpt>
      <trkpt lat="44.61833" lon="6.81357">
        <ele>2416</ele>
        <time>2019-08-19T13:39:17Z</time>
      </trkpt>
      <trkpt lat="44.61818" lon="6.81354">
        <ele>2419</ele>
        <time>2019-08-19T13:39:37Z</time>
      </trkpt>
      <trkpt lat="44.61799" lon="6.81352">
        <ele>2422</ele>
        <time>2019-08-19T13:40:03Z</time>
      </trkpt>
      <trkpt lat="44.61794" lon="6.81351">
        <ele>2423</ele>
        <time>2019-08-19T13:40:09Z</time>
      </trkpt>
      <trkpt lat="44.61786" lon="6.81352">
        <ele>2424</ele>
        <time>2019-08-19T13:40:20Z</time>
      </trkpt>
      <trkpt lat="44.61778" lon="6.81354">
        <ele>2427</ele>
        <time>2019-08-19T13:40:31Z</time>
      </trkpt>
      <trkpt lat="44.61767" lon="6.81355">
        <ele>2429</ele>
        <time>2019-08-19T13:40:46Z</time>
      </trkpt>
      <trkpt lat="44.61757" lon="6.81357">
        <ele>2432</ele>
        <time>2019-08-19T13:40:59Z</time>
      </trkpt>
      <trkpt lat="44.61752" lon="6.81357">
        <ele>2433</ele>
        <time>2019-08-19T13:41:06Z</time>
      </trkpt>
      <trkpt lat="44.61747" lon="6.8136">
        <ele>2435</ele>
        <time>2019-08-19T13:41:13Z</time>
      </trkpt>
      <trkpt lat="44.61746" lon="6.81361">
        <ele>2435</ele>
        <time>2019-08-19T13:41:15Z</time>
      </trkpt>
      <trkpt lat="44.61747" lon="6.81365">
        <ele>2437</ele>
        <time>2019-08-19T13:41:19Z</time>
      </trkpt>
      <trkpt lat="44.61751" lon="6.81367">
        <ele>2438</ele>
        <time>2019-08-19T13:41:24Z</time>
      </trkpt>
      <trkpt lat="44.61755" lon="6.81371">
        <ele>2438</ele>
        <time>2019-08-19T13:41:31Z</time>
      </trkpt>
      <trkpt lat="44.61759" lon="6.81376">
        <ele>2439</ele>
        <time>2019-08-19T13:41:38Z</time>
      </trkpt>
      <trkpt lat="44.61765" lon="6.8139">
        <ele>2443</ele>
        <time>2019-08-19T13:41:54Z</time>
      </trkpt>
      <trkpt lat="44.61765" lon="6.81392">
        <ele>2444</ele>
        <time>2019-08-19T13:41:55Z</time>
      </trkpt>
      <trkpt lat="44.61755" lon="6.81394">
        <ele>2447</ele>
        <time>2019-08-19T13:42:09Z</time>
      </trkpt>
      <trkpt lat="44.61744" lon="6.81396">
        <ele>2450</ele>
        <time>2019-08-19T13:42:24Z</time>
      </trkpt>
      <trkpt lat="44.61738" lon="6.81398">
        <ele>2451</ele>
        <time>2019-08-19T13:42:32Z</time>
      </trkpt>
      <trkpt lat="44.61732" lon="6.81399">
        <ele>2451</ele>
        <time>2019-08-19T13:42:40Z</time>
      </trkpt>
      <trkpt lat="44.61731" lon="6.81401">
        <ele>2452</ele>
        <time>2019-08-19T13:42:42Z</time>
      </trkpt>
      <trkpt lat="44.61736" lon="6.81409">
        <ele>2455</ele>
        <time>2019-08-19T13:42:52Z</time>
      </trkpt>
      <trkpt lat="44.61736" lon="6.81413">
        <ele>2457</ele>
        <time>2019-08-19T13:42:56Z</time>
      </trkpt>
      <trkpt lat="44.61734" lon="6.81415">
        <ele>2458</ele>
        <time>2019-08-19T13:43:00Z</time>
      </trkpt>
      <trkpt lat="44.61726" lon="6.81422">
        <ele>2460</ele>
        <time>2019-08-19T13:43:12Z</time>
      </trkpt>
      <trkpt lat="44.6172" lon="6.81426">
        <ele>2461</ele>
        <time>2019-08-19T13:43:21Z</time>
      </trkpt>
      <trkpt lat="44.61711" lon="6.81432">
        <ele>2463</ele>
        <time>2019-08-19T13:43:34Z</time>
      </trkpt>
      <trkpt lat="44.61703" lon="6.8144">
        <ele>2465</ele>
        <time>2019-08-19T13:43:47Z</time>
      </trkpt>
      <trkpt lat="44.61697" lon="6.81447">
        <ele>2466</ele>
        <time>2019-08-19T13:43:58Z</time>
      </trkpt>
      <trkpt lat="44.61691" lon="6.81452">
        <ele>2467</ele>
        <time>2019-08-19T13:44:07Z</time>
      </trkpt>
      <trkpt lat="44.61689" lon="6.81455">
        <ele>2468</ele>
        <time>2019-08-19T13:44:11Z</time>
      </trkpt>
      <trkpt lat="44.61686" lon="6.81456">
        <ele>2468</ele>
        <time>2019-08-19T13:44:15Z</time>
      </trkpt>
      <trkpt lat="44.61683" lon="6.81457">
        <ele>2469</ele>
        <time>2019-08-19T13:44:19Z</time>
      </trkpt>
      <trkpt lat="44.61682" lon="6.8146">
        <ele>2469</ele>
        <time>2019-08-19T13:44:22Z</time>
      </trkpt>
      <trkpt lat="44.61682" lon="6.81465">
        <ele>2470</ele>
        <time>2019-08-19T13:44:27Z</time>
      </trkpt>
      <trkpt lat="44.61677" lon="6.81469">
        <ele>2471</ele>
        <time>2019-08-19T13:44:35Z</time>
      </trkpt>
      <trkpt lat="44.6167" lon="6.81476">
        <ele>2473</ele>
        <time>2019-08-19T13:44:46Z</time>
      </trkpt>
      <trkpt lat="44.61665" lon="6.81483">
        <ele>2474</ele>
        <time>2019-08-19T13:44:56Z</time>
      </trkpt>
      <trkpt lat="44.61661" lon="6.81492">
        <ele>2476</ele>
        <time>2019-08-19T13:45:06Z</time>
      </trkpt>
      <trkpt lat="44.61657" lon="6.81497">
        <ele>2477</ele>
        <time>2019-08-19T13:45:13Z</time>
      </trkpt>
      <trkpt lat="44.6162" lon="6.81529">
        <ele>2478</ele>
        <time>2019-08-19T13:46:11Z</time>
      </trkpt>
      <trkpt lat="44.61617" lon="6.81532">
        <ele>2478</ele>
        <time>2019-08-19T13:46:16Z</time>
      </trkpt>
      <trkpt lat="44.61609" lon="6.81536">
        <ele>2479</ele>
        <time>2019-08-19T13:46:27Z</time>
      </trkpt>
      <trkpt lat="44.61602" lon="6.81539">
        <ele>2479</ele>
        <time>2019-08-19T13:46:37Z</time>
      </trkpt>
      <trkpt lat="44.61599" lon="6.81543">
        <ele>2480</ele>
        <time>2019-08-19T13:46:42Z</time>
      </trkpt>
      <trkpt lat="44.61596" lon="6.81546">
        <ele>2480</ele>
        <time>2019-08-19T13:46:47Z</time>
      </trkpt>
      <trkpt lat="44.61582" lon="6.81557">
        <ele>2482</ele>
        <time>2019-08-19T13:47:09Z</time>
      </trkpt>
      <trkpt lat="44.61576" lon="6.81562">
        <ele>2482</ele>
        <time>2019-08-19T13:47:18Z</time>
      </trkpt>
      <trkpt lat="44.61566" lon="6.81565">
        <ele>2484</ele>
        <time>2019-08-19T13:47:32Z</time>
      </trkpt>
      <trkpt lat="44.61556" lon="6.81571">
        <ele>2485</ele>
        <time>2019-08-19T13:47:46Z</time>
      </trkpt>
      <trkpt lat="44.61542" lon="6.81578">
        <ele>2487</ele>
        <time>2019-08-19T13:48:06Z</time>
      </trkpt>
      <trkpt lat="44.61532" lon="6.81585">
        <ele>2489</ele>
        <time>2019-08-19T13:48:21Z</time>
      </trkpt>
      <trkpt lat="44.61518" lon="6.816">
        <ele>2490</ele>
        <time>2019-08-19T13:48:44Z</time>
      </trkpt>
      <trkpt lat="44.61514" lon="6.81604">
        <ele>2491</ele>
        <time>2019-08-19T13:48:51Z</time>
      </trkpt>
      <trkpt lat="44.61513" lon="6.8161">
        <ele>2491</ele>
        <time>2019-08-19T13:48:57Z</time>
      </trkpt>
      <trkpt lat="44.61512" lon="6.81612">
        <ele>2491</ele>
        <time>2019-08-19T13:48:59Z</time>
      </trkpt>
      <trkpt lat="44.61507" lon="6.81616">
        <ele>2491</ele>
        <time>2019-08-19T13:49:07Z</time>
      </trkpt>
      <trkpt lat="44.61505" lon="6.81621">
        <ele>2492</ele>
        <time>2019-08-19T13:49:12Z</time>
      </trkpt>
      <trkpt lat="44.61499" lon="6.81626">
        <ele>2492</ele>
        <time>2019-08-19T13:49:22Z</time>
      </trkpt>
      <trkpt lat="44.6149" lon="6.81639">
        <ele>2493</ele>
        <time>2019-08-19T13:49:39Z</time>
      </trkpt>
      <trkpt lat="44.61484" lon="6.81645">
        <ele>2493</ele>
        <time>2019-08-19T13:49:49Z</time>
      </trkpt>
      <trkpt lat="44.6147" lon="6.8167">
        <ele>2495</ele>
        <time>2019-08-19T13:50:19Z</time>
      </trkpt>
      <trkpt lat="44.61466" lon="6.81677">
        <ele>2496</ele>
        <time>2019-08-19T13:50:27Z</time>
      </trkpt>
      <trkpt lat="44.61461" lon="6.81679">
        <ele>2496</ele>
        <time>2019-08-19T13:50:34Z</time>
      </trkpt>
      <trkpt lat="44.61458" lon="6.8168">
        <ele>2497</ele>
        <time>2019-08-19T13:50:38Z</time>
      </trkpt>
      <trkpt lat="44.61455" lon="6.81685">
        <ele>2497</ele>
        <time>2019-08-19T13:50:45Z</time>
      </trkpt>
      <trkpt lat="44.61454" lon="6.81688">
        <ele>2497</ele>
        <time>2019-08-19T13:50:48Z</time>
      </trkpt>
      <trkpt lat="44.61449" lon="6.81694">
        <ele>2498</ele>
        <time>2019-08-19T13:50:57Z</time>
      </trkpt>
      <trkpt lat="44.61443" lon="6.81701">
        <ele>2498</ele>
        <time>2019-08-19T13:51:07Z</time>
      </trkpt>
      <trkpt lat="44.61434" lon="6.81709">
        <ele>2499</ele>
        <time>2019-08-19T13:51:21Z</time>
      </trkpt>
      <trkpt lat="44.61427" lon="6.81717">
        <ele>2500</ele>
        <time>2019-08-19T13:51:33Z</time>
      </trkpt>
      <trkpt lat="44.61423" lon="6.81721">
        <ele>2500</ele>
        <time>2019-08-19T13:51:40Z</time>
      </trkpt>
      <trkpt lat="44.6142" lon="6.81727">
        <ele>2501</ele>
        <time>2019-08-19T13:51:47Z</time>
      </trkpt>
      <trkpt lat="44.61416" lon="6.81733">
        <ele>2501</ele>
        <time>2019-08-19T13:51:55Z</time>
      </trkpt>
      <trkpt lat="44.61411" lon="6.81738">
        <ele>2501</ele>
        <time>2019-08-19T13:52:03Z</time>
      </trkpt>
      <trkpt lat="44.61405" lon="6.8174">
        <ele>2502</ele>
        <time>2019-08-19T13:52:11Z</time>
      </trkpt>
      <trkpt lat="44.61399" lon="6.81744">
        <ele>2502</ele>
        <time>2019-08-19T13:52:20Z</time>
      </trkpt>
      <trkpt lat="44.61393" lon="6.81752">
        <ele>2503</ele>
        <time>2019-08-19T13:52:31Z</time>
      </trkpt>
      <trkpt lat="44.61386" lon="6.81762">
        <ele>2505</ele>
        <time>2019-08-19T13:52:44Z</time>
      </trkpt>
      <trkpt lat="44.61383" lon="6.8177">
        <ele>2506</ele>
        <time>2019-08-19T13:52:53Z</time>
      </trkpt>
      <trkpt lat="44.61381" lon="6.81783">
        <ele>2507</ele>
        <time>2019-08-19T13:53:05Z</time>
      </trkpt>
      <trkpt lat="44.6138" lon="6.81799">
        <ele>2509</ele>
        <time>2019-08-19T13:53:21Z</time>
      </trkpt>
      <trkpt lat="44.61379" lon="6.81808">
        <ele>2510</ele>
        <time>2019-08-19T13:53:29Z</time>
      </trkpt>
      <trkpt lat="44.61376" lon="6.81814">
        <ele>2511</ele>
        <time>2019-08-19T13:53:36Z</time>
      </trkpt>
      <trkpt lat="44.61371" lon="6.81828">
        <ele>2513</ele>
        <time>2019-08-19T13:53:51Z</time>
      </trkpt>
      <trkpt lat="44.61368" lon="6.81831">
        <ele>2513</ele>
        <time>2019-08-19T13:53:56Z</time>
      </trkpt>
      <trkpt lat="44.61365" lon="6.81835">
        <ele>2514</ele>
        <time>2019-08-19T13:54:02Z</time>
      </trkpt>
      <trkpt lat="44.61366" lon="6.81841">
        <ele>2514</ele>
        <time>2019-08-19T13:54:08Z</time>
      </trkpt>
      <trkpt lat="44.61364" lon="6.81845">
        <ele>2515</ele>
        <time>2019-08-19T13:54:12Z</time>
      </trkpt>
      <trkpt lat="44.61363" lon="6.81847">
        <ele>2515</ele>
        <time>2019-08-19T13:54:14Z</time>
      </trkpt>
      <trkpt lat="44.61361" lon="6.81848">
        <ele>2516</ele>
        <time>2019-08-19T13:54:17Z</time>
      </trkpt>
      <trkpt lat="44.6136" lon="6.81846">
        <ele>2515</ele>
        <time>2019-08-19T13:54:20Z</time>
      </trkpt>
      <trkpt lat="44.61357" lon="6.81845">
        <ele>2515</ele>
        <time>2019-08-19T13:54:24Z</time>
      </trkpt>
      <trkpt lat="44.61355" lon="6.81847">
        <ele>2516</ele>
        <time>2019-08-19T13:54:27Z</time>
      </trkpt>
      <trkpt lat="44.61355" lon="6.81851">
        <ele>2516</ele>
        <time>2019-08-19T13:54:31Z</time>
      </trkpt>
      <trkpt lat="44.61354" lon="6.81858">
        <ele>2517</ele>
        <time>2019-08-19T13:54:38Z</time>
      </trkpt>
      <trkpt lat="44.61352" lon="6.81864">
        <ele>2518</ele>
        <time>2019-08-19T13:54:44Z</time>
      </trkpt>
      <trkpt lat="44.61349" lon="6.81865">
        <ele>2519</ele>
        <time>2019-08-19T13:54:48Z</time>
      </trkpt>
      <trkpt lat="44.61348" lon="6.81868">
        <ele>2519</ele>
        <time>2019-08-19T13:54:51Z</time>
      </trkpt>
      <trkpt lat="44.61348" lon="6.81871">
        <ele>2520</ele>
        <time>2019-08-19T13:54:54Z</time>
      </trkpt>
      <trkpt lat="44.6135" lon="6.81874">
        <ele>2520</ele>
        <time>2019-08-19T13:54:58Z</time>
      </trkpt>
      <trkpt lat="44.6135" lon="6.81876">
        <ele>2520</ele>
        <time>2019-08-19T13:55:00Z</time>
      </trkpt>
      <trkpt lat="44.61348" lon="6.81878">
        <ele>2521</ele>
        <time>2019-08-19T13:55:03Z</time>
      </trkpt>
      <trkpt lat="44.61345" lon="6.81884">
        <ele>2522</ele>
        <time>2019-08-19T13:55:10Z</time>
      </trkpt>
      <trkpt lat="44.61342" lon="6.81888">
        <ele>2522</ele>
        <time>2019-08-19T13:55:16Z</time>
      </trkpt>
      <trkpt lat="44.61337" lon="6.81897">
        <ele>2524</ele>
        <time>2019-08-19T13:55:26Z</time>
      </trkpt>
      <trkpt lat="44.61336" lon="6.81903">
        <ele>2525</ele>
        <time>2019-08-19T13:55:32Z</time>
      </trkpt>
      <trkpt lat="44.61334" lon="6.81908">
        <ele>2526</ele>
        <time>2019-08-19T13:55:38Z</time>
      </trkpt>
      <trkpt lat="44.61331" lon="6.81915">
        <ele>2527</ele>
        <time>2019-08-19T13:55:45Z</time>
      </trkpt>
      <trkpt lat="44.61328" lon="6.81919">
        <ele>2527</ele>
        <time>2019-08-19T13:55:51Z</time>
      </trkpt>
      <trkpt lat="44.61326" lon="6.81923">
        <ele>2527</ele>
        <time>2019-08-19T13:55:56Z</time>
      </trkpt>
      <trkpt lat="44.61327" lon="6.81929">
        <ele>2527</ele>
        <time>2019-08-19T13:56:01Z</time>
      </trkpt>
      <trkpt lat="44.61328" lon="6.81933">
        <ele>2528</ele>
        <time>2019-08-19T13:56:06Z</time>
      </trkpt>
      <trkpt lat="44.61328" lon="6.81939">
        <ele>2528</ele>
        <time>2019-08-19T13:56:11Z</time>
      </trkpt>
      <trkpt lat="44.61329" lon="6.81944">
        <ele>2528</ele>
        <time>2019-08-19T13:56:16Z</time>
      </trkpt>
      <trkpt lat="44.6133" lon="6.81947">
        <ele>2529</ele>
        <time>2019-08-19T13:56:19Z</time>
      </trkpt>
      <trkpt lat="44.61329" lon="6.81961">
        <ele>2529</ele>
        <time>2019-08-19T13:56:33Z</time>
      </trkpt>
      <trkpt lat="44.61327" lon="6.81965">
        <ele>2530</ele>
        <time>2019-08-19T13:56:37Z</time>
      </trkpt>
      <trkpt lat="44.61322" lon="6.81971">
        <ele>2530</ele>
        <time>2019-08-19T13:56:46Z</time>
      </trkpt>
      <trkpt lat="44.61315" lon="6.8198">
        <ele>2530</ele>
        <time>2019-08-19T13:56:59Z</time>
      </trkpt>
      <trkpt lat="44.61293" lon="6.82004">
        <ele>2532</ele>
        <time>2019-08-19T13:57:36Z</time>
      </trkpt>
      <trkpt lat="44.61283" lon="6.82016">
        <ele>2533</ele>
        <time>2019-08-19T13:57:53Z</time>
      </trkpt>
      <trkpt lat="44.61276" lon="6.82022">
        <ele>2534</ele>
        <time>2019-08-19T13:58:04Z</time>
      </trkpt>
      <trkpt lat="44.61258" lon="6.82034">
        <ele>2535</ele>
        <time>2019-08-19T13:58:31Z</time>
      </trkpt>
      <trkpt lat="44.61249" lon="6.82042">
        <ele>2536</ele>
        <time>2019-08-19T13:58:45Z</time>
      </trkpt>
      <trkpt lat="44.61243" lon="6.8205">
        <ele>2537</ele>
        <time>2019-08-19T13:58:56Z</time>
      </trkpt>
      <trkpt lat="44.6124" lon="6.82055">
        <ele>2538</ele>
        <time>2019-08-19T13:59:02Z</time>
      </trkpt>
      <trkpt lat="44.6123" lon="6.82064">
        <ele>2539</ele>
        <time>2019-08-19T13:59:18Z</time>
      </trkpt>
      <trkpt lat="44.61216" lon="6.82078">
        <ele>2541</ele>
        <time>2019-08-19T13:59:41Z</time>
      </trkpt>
      <trkpt lat="44.61204" lon="6.82086">
        <ele>2542</ele>
        <time>2019-08-19T13:59:59Z</time>
      </trkpt>
      <trkpt lat="44.61198" lon="6.82089">
        <ele>2542</ele>
        <time>2019-08-19T14:00:07Z</time>
      </trkpt>
      <trkpt lat="44.61191" lon="6.82096">
        <ele>2543</ele>
        <time>2019-08-19T14:00:19Z</time>
      </trkpt>
      <trkpt lat="44.61184" lon="6.82105">
        <ele>2544</ele>
        <time>2019-08-19T14:00:32Z</time>
      </trkpt>
      <trkpt lat="44.61179" lon="6.82116">
        <ele>2545</ele>
        <time>2019-08-19T14:00:44Z</time>
      </trkpt>
      <trkpt lat="44.61175" lon="6.82122">
        <ele>2545</ele>
        <time>2019-08-19T14:00:52Z</time>
      </trkpt>
      <trkpt lat="44.61167" lon="6.82132">
        <ele>2547</ele>
        <time>2019-08-19T14:01:06Z</time>
      </trkpt>
      <trkpt lat="44.61163" lon="6.82136">
        <ele>2547</ele>
        <time>2019-08-19T14:01:13Z</time>
      </trkpt>
      <trkpt lat="44.61156" lon="6.82147">
        <ele>2549</ele>
        <time>2019-08-19T14:01:27Z</time>
      </trkpt>
      <trkpt lat="44.61151" lon="6.82151">
        <ele>2550</ele>
        <time>2019-08-19T14:01:34Z</time>
      </trkpt>
      <trkpt lat="44.61149" lon="6.82158">
        <ele>2551</ele>
        <time>2019-08-19T14:01:42Z</time>
      </trkpt>
      <trkpt lat="44.6114" lon="6.82177">
        <ele>2554</ele>
        <time>2019-08-19T14:02:03Z</time>
      </trkpt>
      <trkpt lat="44.61132" lon="6.8219">
        <ele>2557</ele>
        <time>2019-08-19T14:02:20Z</time>
      </trkpt>
      <trkpt lat="44.61124" lon="6.82201">
        <ele>2560</ele>
        <time>2019-08-19T14:02:34Z</time>
      </trkpt>
      <trkpt lat="44.61116" lon="6.8221">
        <ele>2562</ele>
        <time>2019-08-19T14:02:48Z</time>
      </trkpt>
      <trkpt lat="44.6111" lon="6.82216">
        <ele>2564</ele>
        <time>2019-08-19T14:02:58Z</time>
      </trkpt>
      <trkpt lat="44.61106" lon="6.82223">
        <ele>2566</ele>
        <time>2019-08-19T14:03:06Z</time>
      </trkpt>
      <trkpt lat="44.61104" lon="6.82229">
        <ele>2568</ele>
        <time>2019-08-19T14:03:13Z</time>
      </trkpt>
      <trkpt lat="44.61099" lon="6.82231">
        <ele>2569</ele>
        <time>2019-08-19T14:03:20Z</time>
      </trkpt>
      <trkpt lat="44.61094" lon="6.82232">
        <ele>2570</ele>
        <time>2019-08-19T14:03:26Z</time>
      </trkpt>
      <trkpt lat="44.61084" lon="6.82232">
        <ele>2572</ele>
        <time>2019-08-19T14:03:40Z</time>
      </trkpt>
      <trkpt lat="44.61082" lon="6.82232">
        <ele>2573</ele>
        <time>2019-08-19T14:03:42Z</time>
      </trkpt>
      <trkpt lat="44.61083" lon="6.82243">
        <ele>2575</ele>
        <time>2019-08-19T14:03:53Z</time>
      </trkpt>
      <trkpt lat="44.61083" lon="6.82246">
        <ele>2575</ele>
        <time>2019-08-19T14:03:56Z</time>
      </trkpt>
      <trkpt lat="44.61077" lon="6.82245">
        <ele>2577</ele>
        <time>2019-08-19T14:04:04Z</time>
      </trkpt>
      <trkpt lat="44.61074" lon="6.82244">
        <ele>2578</ele>
        <time>2019-08-19T14:04:08Z</time>
      </trkpt>
      <trkpt lat="44.61072" lon="6.82242">
        <ele>2579</ele>
        <time>2019-08-19T14:04:11Z</time>
      </trkpt>
      <trkpt lat="44.61071" lon="6.82241">
        <ele>2579</ele>
        <time>2019-08-19T14:04:13Z</time>
      </trkpt>
      <trkpt lat="44.61071" lon="6.82244">
        <ele>2580</ele>
        <time>2019-08-19T14:04:16Z</time>
      </trkpt>
      <trkpt lat="44.61072" lon="6.82251">
        <ele>2581</ele>
        <time>2019-08-19T14:04:23Z</time>
      </trkpt>
      <trkpt lat="44.61069" lon="6.82251">
        <ele>2582</ele>
        <time>2019-08-19T14:04:27Z</time>
      </trkpt>
      <trkpt lat="44.61062" lon="6.82247">
        <ele>2584</ele>
        <time>2019-08-19T14:04:37Z</time>
      </trkpt>
      <trkpt lat="44.61059" lon="6.82247">
        <ele>2585</ele>
        <time>2019-08-19T14:04:41Z</time>
      </trkpt>
      <trkpt lat="44.61054" lon="6.82249">
        <ele>2587</ele>
        <time>2019-08-19T14:04:48Z</time>
      </trkpt>
      <trkpt lat="44.61052" lon="6.82253">
        <ele>2589</ele>
        <time>2019-08-19T14:04:52Z</time>
      </trkpt>
      <trkpt lat="44.6105" lon="6.82255">
        <ele>2590</ele>
        <time>2019-08-19T14:04:56Z</time>
      </trkpt>
      <trkpt lat="44.61045" lon="6.82256">
        <ele>2592</ele>
        <time>2019-08-19T14:05:02Z</time>
      </trkpt>
      <trkpt lat="44.61043" lon="6.82253">
        <ele>2592</ele>
        <time>2019-08-19T14:05:06Z</time>
      </trkpt>
      <trkpt lat="44.61038" lon="6.82246">
        <ele>2593</ele>
        <time>2019-08-19T14:05:16Z</time>
      </trkpt>
      <trkpt lat="44.61024" lon="6.82229">
        <ele>2594</ele>
        <time>2019-08-19T14:05:40Z</time>
      </trkpt>
      <trkpt lat="44.61022" lon="6.82226">
        <ele>2594</ele>
        <time>2019-08-19T14:05:44Z</time>
      </trkpt>
      <trkpt lat="44.61021" lon="6.82227">
        <ele>2595</ele>
        <time>2019-08-19T14:05:46Z</time>
      </trkpt>
      <trkpt lat="44.61022" lon="6.82232">
        <ele>2596</ele>
        <time>2019-08-19T14:05:51Z</time>
      </trkpt>
      <trkpt lat="44.61024" lon="6.82239">
        <ele>2597</ele>
        <time>2019-08-19T14:05:58Z</time>
      </trkpt>
      <trkpt lat="44.61024" lon="6.82242">
        <ele>2597</ele>
        <time>2019-08-19T14:06:01Z</time>
      </trkpt>
      <trkpt lat="44.61023" lon="6.82243">
        <ele>2598</ele>
        <time>2019-08-19T14:06:02Z</time>
      </trkpt>
      <trkpt lat="44.61008" lon="6.82233">
        <ele>2601</ele>
        <time>2019-08-19T14:06:25Z</time>
      </trkpt>
      <trkpt lat="44.61005" lon="6.82232">
        <ele>2602</ele>
        <time>2019-08-19T14:06:29Z</time>
      </trkpt>
      <trkpt lat="44.60999" lon="6.82234">
        <ele>2605</ele>
        <time>2019-08-19T14:06:37Z</time>
      </trkpt>
      <trkpt lat="44.60991" lon="6.82233">
        <ele>2609</ele>
        <time>2019-08-19T14:06:48Z</time>
      </trkpt>
      <trkpt lat="44.60983" lon="6.82229">
        <ele>2612</ele>
        <time>2019-08-19T14:06:59Z</time>
      </trkpt>
      <trkpt lat="44.6098" lon="6.82227">
        <ele>2613</ele>
        <time>2019-08-19T14:07:03Z</time>
      </trkpt>
      <trkpt lat="44.60977" lon="6.82224">
        <ele>2614</ele>
        <time>2019-08-19T14:07:08Z</time>
      </trkpt>
      <trkpt lat="44.60971" lon="6.82211">
        <ele>2614</ele>
        <time>2019-08-19T14:07:23Z</time>
      </trkpt>
      <trkpt lat="44.60968" lon="6.82207">
        <ele>2614</ele>
        <time>2019-08-19T14:07:29Z</time>
      </trkpt>
      <trkpt lat="44.60955" lon="6.82194">
        <ele>2618</ele>
        <time>2019-08-19T14:07:50Z</time>
      </trkpt>
      <trkpt lat="44.60951" lon="6.82191">
        <ele>2620</ele>
        <time>2019-08-19T14:07:56Z</time>
      </trkpt>
      <trkpt lat="44.60949" lon="6.82188">
        <ele>2620</ele>
        <time>2019-08-19T14:08:00Z</time>
      </trkpt>
      <trkpt lat="44.60946" lon="6.82184">
        <ele>2621</ele>
        <time>2019-08-19T14:08:05Z</time>
      </trkpt>
      <trkpt lat="44.60931" lon="6.82168">
        <ele>2626</ele>
        <time>2019-08-19T14:08:30Z</time>
      </trkpt>
      <trkpt lat="44.60928" lon="6.82164">
        <ele>2627</ele>
        <time>2019-08-19T14:08:36Z</time>
      </trkpt>
      <trkpt lat="44.60916" lon="6.82153">
        <ele>2633</ele>
        <time>2019-08-19T14:08:55Z</time>
      </trkpt>
      <trkpt lat="44.6091" lon="6.82147">
        <ele>2636</ele>
        <time>2019-08-19T14:09:05Z</time>
      </trkpt>
      <trkpt lat="44.60906" lon="6.82146">
        <ele>2638</ele>
        <time>2019-08-19T14:09:10Z</time>
      </trkpt>
      <trkpt lat="44.60896" lon="6.82139">
        <ele>2643</ele>
        <time>2019-08-19T14:09:25Z</time>
      </trkpt>
      <trkpt lat="44.60889" lon="6.82133">
        <ele>2647</ele>
        <time>2019-08-19T14:09:36Z</time>
      </trkpt>
      <trkpt lat="44.60872" lon="6.82111">
        <ele>2654</ele>
        <time>2019-08-19T14:10:07Z</time>
      </trkpt>
      <trkpt lat="44.60869" lon="6.82108">
        <ele>2656</ele>
        <time>2019-08-19T14:10:12Z</time>
      </trkpt>
      <trkpt lat="44.6086" lon="6.82104">
        <ele>2661</ele>
        <time>2019-08-19T14:10:25Z</time>
      </trkpt>
      <trkpt lat="44.60852" lon="6.82101">
        <ele>2665</ele>
        <time>2019-08-19T14:10:36Z</time>
      </trkpt>
      <trkpt lat="44.60843" lon="6.821">
        <ele>2670</ele>
        <time>2019-08-19T14:10:48Z</time>
      </trkpt>
      <trkpt lat="44.60836" lon="6.82101">
        <ele>2674</ele>
        <time>2019-08-19T14:10:57Z</time>
      </trkpt>
      <trkpt lat="44.60832" lon="6.82099">
        <ele>2676</ele>
        <time>2019-08-19T14:11:03Z</time>
      </trkpt>
      <trkpt lat="44.60822" lon="6.82097">
        <ele>2678</ele>
        <time>2019-08-19T14:11:16Z</time>
      </trkpt>
      <trkpt lat="44.60815" lon="6.82099">
        <ele>2679</ele>
        <time>2019-08-19T14:11:26Z</time>
      </trkpt>
      <trkpt lat="44.60804" lon="6.82104">
        <ele>2682</ele>
        <time>2019-08-19T14:11:41Z</time>
      </trkpt>
      <trkpt lat="44.60802" lon="6.82105">
        <ele>2682</ele>
        <time>2019-08-19T14:11:44Z</time>
      </trkpt>
      <trkpt lat="44.60795" lon="6.821">
        <ele>2683</ele>
        <time>2019-08-19T14:11:54Z</time>
      </trkpt>
      <trkpt lat="44.60785" lon="6.82097">
        <ele>2686</ele>
        <time>2019-08-19T14:12:08Z</time>
      </trkpt>
      <trkpt lat="44.60778" lon="6.82092">
        <ele>2688</ele>
        <time>2019-08-19T14:12:19Z</time>
      </trkpt>
      <trkpt lat="44.60771" lon="6.82084">
        <ele>2690</ele>
        <time>2019-08-19T14:12:31Z</time>
      </trkpt>
      <trkpt lat="44.60762" lon="6.8208">
        <ele>2694</ele>
        <time>2019-08-19T14:12:43Z</time>
      </trkpt>
      <trkpt lat="44.60753" lon="6.82077">
        <ele>2697</ele>
        <time>2019-08-19T14:12:56Z</time>
      </trkpt>
      <trkpt lat="44.60755" lon="6.82089">
        <ele>2694</ele>
        <time>2019-08-19T14:13:07Z</time>
      </trkpt>
      <trkpt lat="44.60758" lon="6.82099">
        <ele>2691</ele>
        <time>2019-08-19T14:13:18Z</time>
      </trkpt>
      <trkpt lat="44.60766" lon="6.82111">
        <ele>2688</ele>
        <time>2019-08-19T14:13:33Z</time>
      </trkpt>
      <trkpt lat="44.60756" lon="6.82115">
        <ele>2688</ele>
        <time>2019-08-19T14:13:47Z</time>
      </trkpt>
      <trkpt lat="44.60731" lon="6.82118">
        <ele>2683</ele>
        <time>2019-08-19T14:14:21Z</time>
      </trkpt>
      <trkpt lat="44.60711" lon="6.82116">
        <ele>2677</ele>
        <time>2019-08-19T14:14:47Z</time>
      </trkpt>
      <trkpt lat="44.60709" lon="6.82117">
        <ele>2676</ele>
        <time>2019-08-19T14:14:50Z</time>
      </trkpt>
      <trkpt lat="44.60707" lon="6.82119">
        <ele>2675</ele>
        <time>2019-08-19T14:14:53Z</time>
      </trkpt>
      <trkpt lat="44.60706" lon="6.82122">
        <ele>2674</ele>
        <time>2019-08-19T14:14:57Z</time>
      </trkpt>
      <trkpt lat="44.60709" lon="6.82138">
        <ele>2670</ele>
        <time>2019-08-19T14:15:12Z</time>
      </trkpt>
      <trkpt lat="44.60709" lon="6.8214">
        <ele>2669</ele>
        <time>2019-08-19T14:15:14Z</time>
      </trkpt>
      <trkpt lat="44.60708" lon="6.82141">
        <ele>2669</ele>
        <time>2019-08-19T14:15:16Z</time>
      </trkpt>
      <trkpt lat="44.60706" lon="6.82141">
        <ele>2668</ele>
        <time>2019-08-19T14:15:19Z</time>
      </trkpt>
      <trkpt lat="44.60705" lon="6.82139">
        <ele>2668</ele>
        <time>2019-08-19T14:15:21Z</time>
      </trkpt>
      <trkpt lat="44.607" lon="6.82134">
        <ele>2668</ele>
        <time>2019-08-19T14:15:29Z</time>
      </trkpt>
      <trkpt lat="44.60698" lon="6.82135">
        <ele>2667</ele>
        <time>2019-08-19T14:15:32Z</time>
      </trkpt>
      <trkpt lat="44.60698" lon="6.82136">
        <ele>2667</ele>
        <time>2019-08-19T14:15:33Z</time>
      </trkpt>
      <trkpt lat="44.60698" lon="6.82138">
        <ele>2666</ele>
        <time>2019-08-19T14:15:35Z</time>
      </trkpt>
      <trkpt lat="44.60703" lon="6.82147">
        <ele>2665</ele>
        <time>2019-08-19T14:15:46Z</time>
      </trkpt>
      <trkpt lat="44.60703" lon="6.82149">
        <ele>2664</ele>
        <time>2019-08-19T14:15:47Z</time>
      </trkpt>
      <trkpt lat="44.60702" lon="6.8215">
        <ele>2664</ele>
        <time>2019-08-19T14:15:49Z</time>
      </trkpt>
      <trkpt lat="44.60701" lon="6.82151">
        <ele>2663</ele>
        <time>2019-08-19T14:15:51Z</time>
      </trkpt>
      <trkpt lat="44.60699" lon="6.82148">
        <ele>2663</ele>
        <time>2019-08-19T14:15:55Z</time>
      </trkpt>
      <trkpt lat="44.60699" lon="6.82147">
        <ele>2664</ele>
        <time>2019-08-19T14:15:56Z</time>
      </trkpt>
      <trkpt lat="44.60693" lon="6.82142">
        <ele>2663</ele>
        <time>2019-08-19T14:16:05Z</time>
      </trkpt>
      <trkpt lat="44.60692" lon="6.8214">
        <ele>2663</ele>
        <time>2019-08-19T14:16:07Z</time>
      </trkpt>
      <trkpt lat="44.6069" lon="6.8214">
        <ele>2663</ele>
        <time>2019-08-19T14:16:10Z</time>
      </trkpt>
      <trkpt lat="44.60689" lon="6.82142">
        <ele>2662</ele>
        <time>2019-08-19T14:16:12Z</time>
      </trkpt>
      <trkpt lat="44.60689" lon="6.82143">
        <ele>2661</ele>
        <time>2019-08-19T14:16:13Z</time>
      </trkpt>
      <trkpt lat="44.6069" lon="6.82145">
        <ele>2661</ele>
        <time>2019-08-19T14:16:15Z</time>
      </trkpt>
      <trkpt lat="44.60692" lon="6.82146">
        <ele>2661</ele>
        <time>2019-08-19T14:16:18Z</time>
      </trkpt>
      <trkpt lat="44.60698" lon="6.82155">
        <ele>2661</ele>
        <time>2019-08-19T14:16:30Z</time>
      </trkpt>
      <trkpt lat="44.60699" lon="6.82159">
        <ele>2660</ele>
        <time>2019-08-19T14:16:34Z</time>
      </trkpt>
      <trkpt lat="44.60697" lon="6.82159">
        <ele>2659</ele>
        <time>2019-08-19T14:16:37Z</time>
      </trkpt>
      <trkpt lat="44.60691" lon="6.82156">
        <ele>2658</ele>
        <time>2019-08-19T14:16:45Z</time>
      </trkpt>
      <trkpt lat="44.60686" lon="6.82151">
        <ele>2657</ele>
        <time>2019-08-19T14:16:53Z</time>
      </trkpt>
      <trkpt lat="44.60685" lon="6.82152">
        <ele>2657</ele>
        <time>2019-08-19T14:16:55Z</time>
      </trkpt>
      <trkpt lat="44.60685" lon="6.82155">
        <ele>2656</ele>
        <time>2019-08-19T14:16:58Z</time>
      </trkpt>
      <trkpt lat="44.60693" lon="6.82171">
        <ele>2654</ele>
        <time>2019-08-19T14:17:16Z</time>
      </trkpt>
      <trkpt lat="44.60692" lon="6.82173">
        <ele>2653</ele>
        <time>2019-08-19T14:17:19Z</time>
      </trkpt>
      <trkpt lat="44.60691" lon="6.82173">
        <ele>2652</ele>
        <time>2019-08-19T14:17:20Z</time>
      </trkpt>
      <trkpt lat="44.6069" lon="6.82173">
        <ele>2652</ele>
        <time>2019-08-19T14:17:21Z</time>
      </trkpt>
      <trkpt lat="44.60689" lon="6.82171">
        <ele>2652</ele>
        <time>2019-08-19T14:17:24Z</time>
      </trkpt>
      <trkpt lat="44.60675" lon="6.82163">
        <ele>2649</ele>
        <time>2019-08-19T14:17:44Z</time>
      </trkpt>
      <trkpt lat="44.60675" lon="6.82162">
        <ele>2649</ele>
        <time>2019-08-19T14:17:45Z</time>
      </trkpt>
      <trkpt lat="44.60674" lon="6.82162">
        <ele>2649</ele>
        <time>2019-08-19T14:17:46Z</time>
      </trkpt>
      <trkpt lat="44.60673" lon="6.82163">
        <ele>2648</ele>
        <time>2019-08-19T14:17:48Z</time>
      </trkpt>
      <trkpt lat="44.60673" lon="6.82164">
        <ele>2648</ele>
        <time>2019-08-19T14:17:49Z</time>
      </trkpt>
      <trkpt lat="44.60673" lon="6.82165">
        <ele>2647</ele>
        <time>2019-08-19T14:17:50Z</time>
      </trkpt>
      <trkpt lat="44.60684" lon="6.82183">
        <ele>2647</ele>
        <time>2019-08-19T14:18:12Z</time>
      </trkpt>
      <trkpt lat="44.60685" lon="6.82184">
        <ele>2647</ele>
        <time>2019-08-19T14:18:14Z</time>
      </trkpt>
      <trkpt lat="44.60685" lon="6.82186">
        <ele>2647</ele>
        <time>2019-08-19T14:18:16Z</time>
      </trkpt>
      <trkpt lat="44.60685" lon="6.82188">
        <ele>2646</ele>
        <time>2019-08-19T14:18:18Z</time>
      </trkpt>
      <trkpt lat="44.60683" lon="6.82189">
        <ele>2645</ele>
        <time>2019-08-19T14:18:21Z</time>
      </trkpt>
      <trkpt lat="44.60681" lon="6.82187">
        <ele>2645</ele>
        <time>2019-08-19T14:18:24Z</time>
      </trkpt>
      <trkpt lat="44.60666" lon="6.82181">
        <ele>2640</ele>
        <time>2019-08-19T14:18:45Z</time>
      </trkpt>
      <trkpt lat="44.60664" lon="6.8218">
        <ele>2639</ele>
        <time>2019-08-19T14:18:47Z</time>
      </trkpt>
      <trkpt lat="44.60663" lon="6.82181">
        <ele>2639</ele>
        <time>2019-08-19T14:18:49Z</time>
      </trkpt>
      <trkpt lat="44.60662" lon="6.82183">
        <ele>2638</ele>
        <time>2019-08-19T14:18:51Z</time>
      </trkpt>
      <trkpt lat="44.60663" lon="6.82185">
        <ele>2638</ele>
        <time>2019-08-19T14:18:54Z</time>
      </trkpt>
      <trkpt lat="44.60668" lon="6.82192">
        <ele>2638</ele>
        <time>2019-08-19T14:19:03Z</time>
      </trkpt>
      <trkpt lat="44.60672" lon="6.822">
        <ele>2637</ele>
        <time>2019-08-19T14:19:12Z</time>
      </trkpt>
      <trkpt lat="44.60675" lon="6.82207">
        <ele>2637</ele>
        <time>2019-08-19T14:19:20Z</time>
      </trkpt>
      <trkpt lat="44.60681" lon="6.82225">
        <ele>2635</ele>
        <time>2019-08-19T14:19:39Z</time>
      </trkpt>
      <trkpt lat="44.60686" lon="6.82246">
        <ele>2632</ele>
        <time>2019-08-19T14:20:00Z</time>
      </trkpt>
      <trkpt lat="44.60685" lon="6.82251">
        <ele>2630</ele>
        <time>2019-08-19T14:20:05Z</time>
      </trkpt>
      <trkpt lat="44.60683" lon="6.82254">
        <ele>2629</ele>
        <time>2019-08-19T14:20:09Z</time>
      </trkpt>
      <trkpt lat="44.6068" lon="6.82255">
        <ele>2627</ele>
        <time>2019-08-19T14:20:13Z</time>
      </trkpt>
      <trkpt lat="44.60672" lon="6.82255">
        <ele>2623</ele>
        <time>2019-08-19T14:20:24Z</time>
      </trkpt>
      <trkpt lat="44.60658" lon="6.8225">
        <ele>2618</ele>
        <time>2019-08-19T14:20:43Z</time>
      </trkpt>
      <trkpt lat="44.60653" lon="6.8225">
        <ele>2617</ele>
        <time>2019-08-19T14:20:50Z</time>
      </trkpt>
      <trkpt lat="44.60619" lon="6.82269">
        <ele>2601</ele>
        <time>2019-08-19T14:21:39Z</time>
      </trkpt>
      <trkpt lat="44.60612" lon="6.8227">
        <ele>2599</ele>
        <time>2019-08-19T14:21:48Z</time>
      </trkpt>
      <trkpt lat="44.60609" lon="6.82268">
        <ele>2598</ele>
        <time>2019-08-19T14:21:52Z</time>
      </trkpt>
      <trkpt lat="44.60607" lon="6.82248">
        <ele>2602</ele>
        <time>2019-08-19T14:22:12Z</time>
      </trkpt>
      <trkpt lat="44.60607" lon="6.82245">
        <ele>2603</ele>
        <time>2019-08-19T14:22:14Z</time>
      </trkpt>
      <trkpt lat="44.60605" lon="6.82244">
        <ele>2602</ele>
        <time>2019-08-19T14:22:17Z</time>
      </trkpt>
      <trkpt lat="44.60603" lon="6.82243">
        <ele>2602</ele>
        <time>2019-08-19T14:22:20Z</time>
      </trkpt>
      <trkpt lat="44.60601" lon="6.82244">
        <ele>2601</ele>
        <time>2019-08-19T14:22:23Z</time>
      </trkpt>
      <trkpt lat="44.60581" lon="6.82244">
        <ele>2595</ele>
        <time>2019-08-19T14:22:50Z</time>
      </trkpt>
      <trkpt lat="44.60568" lon="6.82248">
        <ele>2591</ele>
        <time>2019-08-19T14:23:07Z</time>
      </trkpt>
      <trkpt lat="44.60548" lon="6.82275">
        <ele>2582</ele>
        <time>2019-08-19T14:23:44Z</time>
      </trkpt>
      <trkpt lat="44.60534" lon="6.82312">
        <ele>2574</ele>
        <time>2019-08-19T14:24:24Z</time>
      </trkpt>
      <trkpt lat="44.60529" lon="6.82329">
        <ele>2571</ele>
        <time>2019-08-19T14:24:42Z</time>
      </trkpt>
      <trkpt lat="44.60526" lon="6.82346">
        <ele>2569</ele>
        <time>2019-08-19T14:24:58Z</time>
      </trkpt>
      <trkpt lat="44.60525" lon="6.82364">
        <ele>2568</ele>
        <time>2019-08-19T14:25:15Z</time>
      </trkpt>
      <trkpt lat="44.60525" lon="6.82432">
        <ele>2563</ele>
        <time>2019-08-19T14:26:20Z</time>
      </trkpt>
      <trkpt lat="44.60518" lon="6.82484">
        <ele>2562</ele>
        <time>2019-08-19T14:27:10Z</time>
      </trkpt>
      <trkpt lat="44.60504" lon="6.82516">
        <ele>2556</ele>
        <time>2019-08-19T14:27:46Z</time>
      </trkpt>
      <trkpt lat="44.605" lon="6.82521">
        <ele>2554</ele>
        <time>2019-08-19T14:27:53Z</time>
      </trkpt>
      <trkpt lat="44.60492" lon="6.82538">
        <ele>2551</ele>
        <time>2019-08-19T14:28:13Z</time>
      </trkpt>
      <trkpt lat="44.6049" lon="6.82545">
        <ele>2549</ele>
        <time>2019-08-19T14:28:20Z</time>
      </trkpt>
      <trkpt lat="44.6049" lon="6.82555">
        <ele>2547</ele>
        <time>2019-08-19T14:28:29Z</time>
      </trkpt>
      <trkpt lat="44.60497" lon="6.8256">
        <ele>2546</ele>
        <time>2019-08-19T14:28:40Z</time>
      </trkpt>
      <trkpt lat="44.60502" lon="6.82564">
        <ele>2546</ele>
        <time>2019-08-19T14:28:47Z</time>
      </trkpt>
      <trkpt lat="44.60508" lon="6.82574">
        <ele>2546</ele>
        <time>2019-08-19T14:29:00Z</time>
      </trkpt>
      <trkpt lat="44.60509" lon="6.82585">
        <ele>2544</ele>
        <time>2019-08-19T14:29:10Z</time>
      </trkpt>
      <trkpt lat="44.60504" lon="6.82586">
        <ele>2542</ele>
        <time>2019-08-19T14:29:17Z</time>
      </trkpt>
      <trkpt lat="44.60501" lon="6.82592">
        <ele>2540</ele>
        <time>2019-08-19T14:29:24Z</time>
      </trkpt>
      <trkpt lat="44.60496" lon="6.82598">
        <ele>2539</ele>
        <time>2019-08-19T14:29:33Z</time>
      </trkpt>
      <trkpt lat="44.60492" lon="6.82599">
        <ele>2538</ele>
        <time>2019-08-19T14:29:38Z</time>
      </trkpt>
      <trkpt lat="44.60488" lon="6.82602">
        <ele>2537</ele>
        <time>2019-08-19T14:29:44Z</time>
      </trkpt>
      <trkpt lat="44.60485" lon="6.82614">
        <ele>2535</ele>
        <time>2019-08-19T14:29:56Z</time>
      </trkpt>
      <trkpt lat="44.60486" lon="6.82619">
        <ele>2534</ele>
        <time>2019-08-19T14:30:01Z</time>
      </trkpt>
      <trkpt lat="44.60482" lon="6.82631">
        <ele>2532</ele>
        <time>2019-08-19T14:30:14Z</time>
      </trkpt>
      <trkpt lat="44.6048" lon="6.82636">
        <ele>2530</ele>
        <time>2019-08-19T14:30:19Z</time>
      </trkpt>
      <trkpt lat="44.60444" lon="6.82663">
        <ele>2519</ele>
        <time>2019-08-19T14:31:14Z</time>
      </trkpt>
      <trkpt lat="44.60433" lon="6.82672">
        <ele>2516</ele>
        <time>2019-08-19T14:31:31Z</time>
      </trkpt>
      <trkpt lat="44.60426" lon="6.82682">
        <ele>2514</ele>
        <time>2019-08-19T14:31:44Z</time>
      </trkpt>
      <trkpt lat="44.60408" lon="6.82708">
        <ele>2510</ele>
        <time>2019-08-19T14:32:19Z</time>
      </trkpt>
      <trkpt lat="44.60393" lon="6.82736">
        <ele>2505</ele>
        <time>2019-08-19T14:32:52Z</time>
      </trkpt>
      <trkpt lat="44.6039" lon="6.82743">
        <ele>2504</ele>
        <time>2019-08-19T14:33:00Z</time>
      </trkpt>
      <trkpt lat="44.60384" lon="6.82753">
        <ele>2502</ele>
        <time>2019-08-19T14:33:12Z</time>
      </trkpt>
      <trkpt lat="44.60382" lon="6.82758">
        <ele>2502</ele>
        <time>2019-08-19T14:33:17Z</time>
      </trkpt>
      <trkpt lat="44.60366" lon="6.82776">
        <ele>2499</ele>
        <time>2019-08-19T14:33:45Z</time>
      </trkpt>
      <trkpt lat="44.60354" lon="6.82786">
        <ele>2497</ele>
        <time>2019-08-19T14:34:03Z</time>
      </trkpt>
      <trkpt lat="44.60347" lon="6.82797">
        <ele>2495</ele>
        <time>2019-08-19T14:34:17Z</time>
      </trkpt>
      <trkpt lat="44.6029" lon="6.82822">
        <ele>2485</ele>
        <time>2019-08-19T14:35:37Z</time>
      </trkpt>
      <trkpt lat="44.60272" lon="6.8283">
        <ele>2482</ele>
        <time>2019-08-19T14:36:02Z</time>
      </trkpt>
      <trkpt lat="44.60263" lon="6.82833">
        <ele>2480</ele>
        <time>2019-08-19T14:36:15Z</time>
      </trkpt>
      <trkpt lat="44.60258" lon="6.82834">
        <ele>2479</ele>
        <time>2019-08-19T14:36:21Z</time>
      </trkpt>
      <trkpt lat="44.60253" lon="6.82833">
        <ele>2478</ele>
        <time>2019-08-19T14:36:28Z</time>
      </trkpt>
      <trkpt lat="44.60243" lon="6.82831">
        <ele>2477</ele>
        <time>2019-08-19T14:36:42Z</time>
      </trkpt>
      <trkpt lat="44.60218" lon="6.82818">
        <ele>2472</ele>
        <time>2019-08-19T14:37:17Z</time>
      </trkpt>
      <trkpt lat="44.60199" lon="6.82805">
        <ele>2469</ele>
        <time>2019-08-19T14:37:45Z</time>
      </trkpt>
      <trkpt lat="44.60194" lon="6.82804">
        <ele>2468</ele>
        <time>2019-08-19T14:37:52Z</time>
      </trkpt>
      <trkpt lat="44.60186" lon="6.82805">
        <ele>2467</ele>
        <time>2019-08-19T14:38:03Z</time>
      </trkpt>
      <trkpt lat="44.60182" lon="6.82806">
        <ele>2466</ele>
        <time>2019-08-19T14:38:08Z</time>
      </trkpt>
      <trkpt lat="44.60174" lon="6.8281">
        <ele>2465</ele>
        <time>2019-08-19T14:38:20Z</time>
      </trkpt>
      <trkpt lat="44.60151" lon="6.82833">
        <ele>2463</ele>
        <time>2019-08-19T14:38:57Z</time>
      </trkpt>
      <trkpt lat="44.60127" lon="6.82859">
        <ele>2463</ele>
        <time>2019-08-19T14:39:38Z</time>
      </trkpt>
      <trkpt lat="44.60098" lon="6.82881">
        <ele>2461</ele>
        <time>2019-08-19T14:40:22Z</time>
      </trkpt>
      <trkpt lat="44.60074" lon="6.82894">
        <ele>2459</ele>
        <time>2019-08-19T14:40:56Z</time>
      </trkpt>
      <trkpt lat="44.60068" lon="6.82898">
        <ele>2459</ele>
        <time>2019-08-19T14:41:05Z</time>
      </trkpt>
      <trkpt lat="44.60064" lon="6.82901">
        <ele>2459</ele>
        <time>2019-08-19T14:41:11Z</time>
      </trkpt>
      <trkpt lat="44.6006" lon="6.82906">
        <ele>2459</ele>
        <time>2019-08-19T14:41:18Z</time>
      </trkpt>
      <trkpt lat="44.60056" lon="6.82915">
        <ele>2458</ele>
        <time>2019-08-19T14:41:28Z</time>
      </trkpt>
      <trkpt lat="44.6003" lon="6.82954">
        <ele>2453</ele>
        <time>2019-08-19T14:42:19Z</time>
      </trkpt>
      <trkpt lat="44.60009" lon="6.82991">
        <ele>2444</ele>
        <time>2019-08-19T14:43:04Z</time>
      </trkpt>
      <trkpt lat="44.59998" lon="6.83015">
        <ele>2439</ele>
        <time>2019-08-19T14:43:31Z</time>
      </trkpt>
      <trkpt lat="44.59987" lon="6.83039">
        <ele>2435</ele>
        <time>2019-08-19T14:43:58Z</time>
      </trkpt>
      <trkpt lat="44.59981" lon="6.83058">
        <ele>2432</ele>
        <time>2019-08-19T14:44:18Z</time>
      </trkpt>
      <trkpt lat="44.59977" lon="6.83082">
        <ele>2427</ele>
        <time>2019-08-19T14:44:41Z</time>
      </trkpt>
      <trkpt lat="44.59977" lon="6.83085">
        <ele>2426</ele>
        <time>2019-08-19T14:44:44Z</time>
      </trkpt>
      <trkpt lat="44.59975" lon="6.83092">
        <ele>2425</ele>
        <time>2019-08-19T14:44:51Z</time>
      </trkpt>
      <trkpt lat="44.59972" lon="6.83097">
        <ele>2424</ele>
        <time>2019-08-19T14:44:58Z</time>
      </trkpt>
      <trkpt lat="44.59968" lon="6.83102">
        <ele>2423</ele>
        <time>2019-08-19T14:45:05Z</time>
      </trkpt>
      <trkpt lat="44.59963" lon="6.83106">
        <ele>2421</ele>
        <time>2019-08-19T14:45:12Z</time>
      </trkpt>
      <trkpt lat="44.59958" lon="6.83108">
        <ele>2420</ele>
        <time>2019-08-19T14:45:19Z</time>
      </trkpt>
      <trkpt lat="44.59949" lon="6.83109">
        <ele>2417</ele>
        <time>2019-08-19T14:45:31Z</time>
      </trkpt>
      <trkpt lat="44.59945" lon="6.8311">
        <ele>2416</ele>
        <time>2019-08-19T14:45:37Z</time>
      </trkpt>
      <trkpt lat="44.59942" lon="6.83113">
        <ele>2415</ele>
        <time>2019-08-19T14:45:42Z</time>
      </trkpt>
      <trkpt lat="44.59938" lon="6.83116">
        <ele>2414</ele>
        <time>2019-08-19T14:45:48Z</time>
      </trkpt>
      <trkpt lat="44.59936" lon="6.8312">
        <ele>2413</ele>
        <time>2019-08-19T14:45:52Z</time>
      </trkpt>
      <trkpt lat="44.59932" lon="6.83134">
        <ele>2410</ele>
        <time>2019-08-19T14:46:07Z</time>
      </trkpt>
      <trkpt lat="44.59931" lon="6.83137">
        <ele>2410</ele>
        <time>2019-08-19T14:46:10Z</time>
      </trkpt>
      <trkpt lat="44.59929" lon="6.83141">
        <ele>2409</ele>
        <time>2019-08-19T14:46:15Z</time>
      </trkpt>
      <trkpt lat="44.59927" lon="6.83145">
        <ele>2408</ele>
        <time>2019-08-19T14:46:19Z</time>
      </trkpt>
      <trkpt lat="44.59922" lon="6.83148">
        <ele>2406</ele>
        <time>2019-08-19T14:46:26Z</time>
      </trkpt>
      <trkpt lat="44.59908" lon="6.8316">
        <ele>2401</ele>
        <time>2019-08-19T14:46:48Z</time>
      </trkpt>
      <trkpt lat="44.59889" lon="6.83173">
        <ele>2394</ele>
        <time>2019-08-19T14:47:17Z</time>
      </trkpt>
      <trkpt lat="44.59879" lon="6.83176">
        <ele>2391</ele>
        <time>2019-08-19T14:47:30Z</time>
      </trkpt>
      <trkpt lat="44.59872" lon="6.83182">
        <ele>2389</ele>
        <time>2019-08-19T14:47:41Z</time>
      </trkpt>
      <trkpt lat="44.59869" lon="6.83174">
        <ele>2388</ele>
        <time>2019-08-19T14:47:50Z</time>
      </trkpt>
      <trkpt lat="44.59866" lon="6.8317">
        <ele>2388</ele>
        <time>2019-08-19T14:47:55Z</time>
      </trkpt>
      <trkpt lat="44.59863" lon="6.8317">
        <ele>2387</ele>
        <time>2019-08-19T14:47:59Z</time>
      </trkpt>
      <trkpt lat="44.5986" lon="6.83145">
        <ele>2389</ele>
        <time>2019-08-19T14:48:23Z</time>
      </trkpt>
      <trkpt lat="44.59858" lon="6.83123">
        <ele>2392</ele>
        <time>2019-08-19T14:48:44Z</time>
      </trkpt>
      <trkpt lat="44.59855" lon="6.83118">
        <ele>2391</ele>
        <time>2019-08-19T14:48:51Z</time>
      </trkpt>
      <trkpt lat="44.59824" lon="6.83102">
        <ele>2388</ele>
        <time>2019-08-19T14:49:35Z</time>
      </trkpt>
      <trkpt lat="44.59795" lon="6.83099">
        <ele>2388</ele>
        <time>2019-08-19T14:50:13Z</time>
      </trkpt>
      <trkpt lat="44.5978" lon="6.83103">
        <ele>2386</ele>
        <time>2019-08-19T14:50:34Z</time>
      </trkpt>
      <trkpt lat="44.59745" lon="6.83086">
        <ele>2390</ele>
        <time>2019-08-19T14:51:23Z</time>
      </trkpt>
      <trkpt lat="44.59715" lon="6.83088">
        <ele>2378</ele>
        <time>2019-08-19T14:52:03Z</time>
      </trkpt>
      <trkpt lat="44.59685" lon="6.8309">
        <ele>2366</ele>
        <time>2019-08-19T14:52:43Z</time>
      </trkpt>
      <trkpt lat="44.59654" lon="6.83077">
        <ele>2362</ele>
        <time>2019-08-19T14:53:27Z</time>
      </trkpt>
      <trkpt lat="44.59623" lon="6.83063">
        <ele>2356</ele>
        <time>2019-08-19T14:54:10Z</time>
      </trkpt>
      <trkpt lat="44.59594" lon="6.83024">
        <ele>2363</ele>
        <time>2019-08-19T14:55:04Z</time>
      </trkpt>
      <trkpt lat="44.59564" lon="6.82986">
        <ele>2359</ele>
        <time>2019-08-19T14:55:58Z</time>
      </trkpt>
      <trkpt lat="44.59535" lon="6.82947">
        <ele>2351</ele>
        <time>2019-08-19T14:56:51Z</time>
      </trkpt>
      <trkpt lat="44.59511" lon="6.82927">
        <ele>2343</ele>
        <time>2019-08-19T14:57:28Z</time>
      </trkpt>
      <trkpt lat="44.59488" lon="6.82908">
        <ele>2335</ele>
        <time>2019-08-19T14:58:04Z</time>
      </trkpt>
      <trkpt lat="44.59456" lon="6.82887">
        <ele>2320</ele>
        <time>2019-08-19T14:58:51Z</time>
      </trkpt>
      <trkpt lat="44.59423" lon="6.82866">
        <ele>2305</ele>
        <time>2019-08-19T14:59:39Z</time>
      </trkpt>
      <trkpt lat="44.59304" lon="6.82704">
        <ele>2262</ele>
        <time>2019-08-19T15:03:21Z</time>
      </trkpt>
      <trkpt lat="44.59274" lon="6.82663">
        <ele>2247</ele>
        <time>2019-08-19T15:04:17Z</time>
      </trkpt>
      <trkpt lat="44.59258" lon="6.82715">
        <ele>2233</ele>
        <time>2019-08-19T15:05:10Z</time>
      </trkpt>
      <trkpt lat="44.59242" lon="6.82766">
        <ele>2219</ele>
        <time>2019-08-19T15:06:03Z</time>
      </trkpt>
      <trkpt lat="44.59211" lon="6.82723">
        <ele>2203</ele>
        <time>2019-08-19T15:07:01Z</time>
      </trkpt>
      <trkpt lat="44.59201" lon="6.82751">
        <ele>2194</ele>
        <time>2019-08-19T15:07:31Z</time>
      </trkpt>
      <trkpt lat="44.5918" lon="6.8271">
        <ele>2183</ele>
        <time>2019-08-19T15:08:19Z</time>
      </trkpt>
      <trkpt lat="44.59167" lon="6.82759">
        <ele>2170</ele>
        <time>2019-08-19T15:09:09Z</time>
      </trkpt>
      <trkpt lat="44.59146" lon="6.82725">
        <ele>2159</ele>
        <time>2019-08-19T15:09:52Z</time>
      </trkpt>
      <trkpt lat="44.59132" lon="6.82778">
        <ele>2143</ele>
        <time>2019-08-19T15:10:45Z</time>
      </trkpt>
      <trkpt lat="44.59106" lon="6.82761">
        <ele>2128</ele>
        <time>2019-08-19T15:11:24Z</time>
      </trkpt>
      <trkpt lat="44.59098" lon="6.82801">
        <ele>2117</ele>
        <time>2019-08-19T15:12:03Z</time>
      </trkpt>
      <trkpt lat="44.5908" lon="6.82796">
        <ele>2106</ele>
        <time>2019-08-19T15:12:28Z</time>
      </trkpt>
      <trkpt lat="44.59069" lon="6.82824">
        <ele>2096</ele>
        <time>2019-08-19T15:12:58Z</time>
      </trkpt>
      <trkpt lat="44.59043" lon="6.82801">
        <ele>2081</ele>
        <time>2019-08-19T15:13:39Z</time>
      </trkpt>
      <trkpt lat="44.59014" lon="6.82722">
        <ele>2069</ele>
        <time>2019-08-19T15:15:04Z</time>
      </trkpt>
      <trkpt lat="44.59" lon="6.82682">
        <ele>2063</ele>
        <time>2019-08-19T15:15:46Z</time>
      </trkpt>
      <trkpt lat="44.58977" lon="6.82646">
        <ele>2052</ele>
        <time>2019-08-19T15:16:32Z</time>
      </trkpt>
      <trkpt lat="44.58955" lon="6.82609">
        <ele>2044</ele>
        <time>2019-08-19T15:17:18Z</time>
      </trkpt>
      <trkpt lat="44.58934" lon="6.82601">
        <ele>2033</ele>
        <time>2019-08-19T15:17:47Z</time>
      </trkpt>
      <trkpt lat="44.58915" lon="6.82682">
        <ele>2008</ele>
        <time>2019-08-19T15:19:08Z</time>
      </trkpt>
      <trkpt lat="44.58912" lon="6.82706">
        <ele>2005</ele>
        <time>2019-08-19T15:19:31Z</time>
      </trkpt>
      <trkpt lat="44.58882" lon="6.82695">
        <ele>1989</ele>
        <time>2019-08-19T15:20:12Z</time>
      </trkpt>
      <trkpt lat="44.58877" lon="6.82734">
        <ele>1984</ele>
        <time>2019-08-19T15:20:50Z</time>
      </trkpt>
      <trkpt lat="44.58873" lon="6.82772">
        <ele>1975</ele>
        <time>2019-08-19T15:21:26Z</time>
      </trkpt>
      <trkpt lat="44.58845" lon="6.82824">
        <ele>1945</ele>
        <time>2019-08-19T15:22:28Z</time>
      </trkpt>
      <trkpt lat="44.5885" lon="6.82868">
        <ele>1933</ele>
        <time>2019-08-19T15:23:11Z</time>
      </trkpt>
      <trkpt lat="44.5884" lon="6.82871">
        <ele>1927</ele>
        <time>2019-08-19T15:23:24Z</time>
      </trkpt>
      <trkpt lat="44.5883" lon="6.82877">
        <ele>1919</ele>
        <time>2019-08-19T15:23:39Z</time>
      </trkpt>
      <trkpt lat="44.58821" lon="6.82879">
        <ele>1914</ele>
        <time>2019-08-19T15:23:51Z</time>
      </trkpt>
      <trkpt lat="44.58805" lon="6.82873">
        <ele>1908</ele>
        <time>2019-08-19T15:24:13Z</time>
      </trkpt>
      <trkpt lat="44.58802" lon="6.82876">
        <ele>1906</ele>
        <time>2019-08-19T15:24:18Z</time>
      </trkpt>
      <trkpt lat="44.58792" lon="6.82868">
        <ele>1903</ele>
        <time>2019-08-19T15:24:33Z</time>
      </trkpt>
      <trkpt lat="44.58785" lon="6.82869">
        <ele>1900</ele>
        <time>2019-08-19T15:24:43Z</time>
      </trkpt>
      <trkpt lat="44.58727" lon="6.8279">
        <ele>1890</ele>
        <time>2019-08-19T15:26:31Z</time>
      </trkpt>
      <trkpt lat="44.58695" lon="6.82748">
        <ele>1885</ele>
        <time>2019-08-19T15:27:29Z</time>
      </trkpt>
      <trkpt lat="44.58677" lon="6.82699">
        <ele>1884</ele>
        <time>2019-08-19T15:28:21Z</time>
      </trkpt>
      <trkpt lat="44.58658" lon="6.82666">
        <ele>1882</ele>
        <time>2019-08-19T15:29:02Z</time>
      </trkpt>
      <trkpt lat="44.58639" lon="6.82633">
        <ele>1881</ele>
        <time>2019-08-19T15:29:42Z</time>
      </trkpt>
      <trkpt lat="44.58617" lon="6.82601">
        <ele>1879</ele>
        <time>2019-08-19T15:30:24Z</time>
      </trkpt>
      <trkpt lat="44.58595" lon="6.82568">
        <ele>1878</ele>
        <time>2019-08-19T15:31:07Z</time>
      </trkpt>
      <trkpt lat="44.58546" lon="6.82506">
        <ele>1875</ele>
        <time>2019-08-19T15:32:35Z</time>
      </trkpt>
      <trkpt lat="44.58525" lon="6.82462">
        <ele>1875</ele>
        <time>2019-08-19T15:33:26Z</time>
      </trkpt>
      <trkpt lat="44.58508" lon="6.8244">
        <ele>1875</ele>
        <time>2019-08-19T15:33:57Z</time>
      </trkpt>
      <trkpt lat="44.58491" lon="6.82417">
        <ele>1874</ele>
        <time>2019-08-19T15:34:28Z</time>
      </trkpt>
      <trkpt lat="44.58439" lon="6.8236">
        <ele>1869</ele>
        <time>2019-08-19T15:35:56Z</time>
      </trkpt>
      <trkpt lat="44.58414" lon="6.82332">
        <ele>1868</ele>
        <time>2019-08-19T15:36:39Z</time>
      </trkpt>
      <trkpt lat="44.5839" lon="6.82295">
        <ele>1867</ele>
        <time>2019-08-19T15:37:26Z</time>
      </trkpt>
      <trkpt lat="44.58366" lon="6.82258">
        <ele>1865</ele>
        <time>2019-08-19T15:38:14Z</time>
      </trkpt>
      <trkpt lat="44.58343" lon="6.82221">
        <ele>1865</ele>
        <time>2019-08-19T15:39:01Z</time>
      </trkpt>
      <trkpt lat="44.58319" lon="6.82184">
        <ele>1865</ele>
        <time>2019-08-19T15:39:48Z</time>
      </trkpt>
      <trkpt lat="44.58289" lon="6.82154">
        <ele>1865</ele>
        <time>2019-08-19T15:40:37Z</time>
      </trkpt>
      <trkpt lat="44.58259" lon="6.82123">
        <ele>1867</ele>
        <time>2019-08-19T15:41:27Z</time>
      </trkpt>
      <trkpt lat="44.58232" lon="6.82105">
        <ele>1868</ele>
        <time>2019-08-19T15:42:07Z</time>
      </trkpt>
      <trkpt lat="44.58201" lon="6.82109">
        <ele>1864</ele>
        <time>2019-08-19T15:42:48Z</time>
      </trkpt>
      <trkpt lat="44.58165" lon="6.8211">
        <ele>1860</ele>
        <time>2019-08-19T15:43:37Z</time>
      </trkpt>
      <trkpt lat="44.58128" lon="6.82112">
        <ele>1859</ele>
        <time>2019-08-19T15:44:26Z</time>
      </trkpt>
      <trkpt lat="44.58103" lon="6.82105">
        <ele>1861</ele>
        <time>2019-08-19T15:45:00Z</time>
      </trkpt>
      <trkpt lat="44.58068" lon="6.82078">
        <ele>1866</ele>
        <time>2019-08-19T15:45:53Z</time>
      </trkpt>
      <trkpt lat="44.58034" lon="6.82092">
        <ele>1859</ele>
        <time>2019-08-19T15:46:41Z</time>
      </trkpt>
      <trkpt lat="44.58003" lon="6.82107">
        <ele>1853</ele>
        <time>2019-08-19T15:47:24Z</time>
      </trkpt>
      <trkpt lat="44.5798" lon="6.82111">
        <ele>1846</ele>
        <time>2019-08-19T15:47:55Z</time>
      </trkpt>
      <trkpt lat="44.5796" lon="6.82086">
        <ele>1845</ele>
        <time>2019-08-19T15:48:31Z</time>
      </trkpt>
      <trkpt lat="44.57942" lon="6.82042">
        <ele>1849</ele>
        <time>2019-08-19T15:49:19Z</time>
      </trkpt>
      <trkpt lat="44.57924" lon="6.81998">
        <ele>1852</ele>
        <time>2019-08-19T15:50:07Z</time>
      </trkpt>
      <trkpt lat="44.57885" lon="6.81984">
        <ele>1845</ele>
        <time>2019-08-19T15:51:01Z</time>
      </trkpt>
      <trkpt lat="44.57875" lon="6.81974">
        <ele>1845</ele>
        <time>2019-08-19T15:51:17Z</time>
      </trkpt>
      <trkpt lat="44.57853" lon="6.81949">
        <ele>1844</ele>
        <time>2019-08-19T15:51:55Z</time>
      </trkpt>
      <trkpt lat="44.57831" lon="6.81924">
        <ele>1842</ele>
        <time>2019-08-19T15:52:33Z</time>
      </trkpt>
      <trkpt lat="44.57797" lon="6.8194">
        <ele>1829</ele>
        <time>2019-08-19T15:53:21Z</time>
      </trkpt>
      <trkpt lat="44.57783" lon="6.81935">
        <ele>1827</ele>
        <time>2019-08-19T15:53:40Z</time>
      </trkpt>
      <trkpt lat="44.57757" lon="6.81911">
        <ele>1826</ele>
        <time>2019-08-19T15:54:22Z</time>
      </trkpt>
      <trkpt lat="44.57733" lon="6.81882">
        <ele>1824</ele>
        <time>2019-08-19T15:55:04Z</time>
      </trkpt>
      <trkpt lat="44.57708" lon="6.81853">
        <ele>1820</ele>
        <time>2019-08-19T15:55:47Z</time>
      </trkpt>
      <trkpt lat="44.57685" lon="6.81816">
        <ele>1822</ele>
        <time>2019-08-19T15:56:34Z</time>
      </trkpt>
      <trkpt lat="44.57674" lon="6.81801">
        <ele>1823</ele>
        <time>2019-08-19T15:56:54Z</time>
      </trkpt>
      <trkpt lat="44.57658" lon="6.81791">
        <ele>1823</ele>
        <time>2019-08-19T15:57:18Z</time>
      </trkpt>
      <trkpt lat="44.57639" lon="6.81794">
        <ele>1822</ele>
        <time>2019-08-19T15:57:43Z</time>
      </trkpt>
      <trkpt lat="44.5763" lon="6.818">
        <ele>1820</ele>
        <time>2019-08-19T15:57:57Z</time>
      </trkpt>
      <trkpt lat="44.57599" lon="6.81823">
        <ele>1811</ele>
        <time>2019-08-19T15:58:43Z</time>
      </trkpt>
      <trkpt lat="44.57574" lon="6.81838">
        <ele>1806</ele>
        <time>2019-08-19T15:59:20Z</time>
      </trkpt>
      <trkpt lat="44.5756" lon="6.81846">
        <ele>1803</ele>
        <time>2019-08-19T15:59:40Z</time>
      </trkpt>
      <trkpt lat="44.57546" lon="6.81846">
        <ele>1803</ele>
        <time>2019-08-19T15:59:58Z</time>
      </trkpt>
      <trkpt lat="44.57523" lon="6.81843">
        <ele>1802</ele>
        <time>2019-08-19T16:00:29Z</time>
      </trkpt>
      <trkpt lat="44.57483" lon="6.81828">
        <ele>1801</ele>
        <time>2019-08-19T16:01:25Z</time>
      </trkpt>
      <trkpt lat="44.57443" lon="6.81825">
        <ele>1790</ele>
        <time>2019-08-19T16:02:18Z</time>
      </trkpt>
      <trkpt lat="44.57408" lon="6.81788">
        <ele>1791</ele>
        <time>2019-08-19T16:03:16Z</time>
      </trkpt>
      <trkpt lat="44.57386" lon="6.81778">
        <ele>1787</ele>
        <time>2019-08-19T16:03:47Z</time>
      </trkpt>
      <trkpt lat="44.57371" lon="6.81755">
        <ele>1787</ele>
        <time>2019-08-19T16:04:17Z</time>
      </trkpt>
      <trkpt lat="44.57358" lon="6.81729">
        <ele>1790</ele>
        <time>2019-08-19T16:04:47Z</time>
      </trkpt>
      <trkpt lat="44.57348" lon="6.81713">
        <ele>1790</ele>
        <time>2019-08-19T16:05:07Z</time>
      </trkpt>
      <trkpt lat="44.57337" lon="6.81697">
        <ele>1791</ele>
        <time>2019-08-19T16:05:29Z</time>
      </trkpt>
      <trkpt lat="44.57313" lon="6.8168">
        <ele>1790</ele>
        <time>2019-08-19T16:06:04Z</time>
      </trkpt>
      <trkpt lat="44.57302" lon="6.81671">
        <ele>1789</ele>
        <time>2019-08-19T16:06:21Z</time>
      </trkpt>
      <trkpt lat="44.57285" lon="6.81662">
        <ele>1788</ele>
        <time>2019-08-19T16:06:46Z</time>
      </trkpt>
      <trkpt lat="44.57251" lon="6.81654">
        <ele>1783</ele>
        <time>2019-08-19T16:07:32Z</time>
      </trkpt>
      <trkpt lat="44.57219" lon="6.81645">
        <ele>1779</ele>
        <time>2019-08-19T16:08:15Z</time>
      </trkpt>
      <trkpt lat="44.5719" lon="6.81637">
        <ele>1775</ele>
        <time>2019-08-19T16:08:55Z</time>
      </trkpt>
      <trkpt lat="44.5716" lon="6.81626">
        <ele>1771</ele>
        <time>2019-08-19T16:09:36Z</time>
      </trkpt>
      <trkpt lat="44.57133" lon="6.81612">
        <ele>1767</ele>
        <time>2019-08-19T16:10:14Z</time>
      </trkpt>
      <trkpt lat="44.5711" lon="6.8159">
        <ele>1764</ele>
        <time>2019-08-19T16:10:52Z</time>
      </trkpt>
      <trkpt lat="44.57094" lon="6.81552">
        <ele>1763</ele>
        <time>2019-08-19T16:11:34Z</time>
      </trkpt>
      <trkpt lat="44.57078" lon="6.81515">
        <ele>1762</ele>
        <time>2019-08-19T16:12:15Z</time>
      </trkpt>
      <trkpt lat="44.5707" lon="6.81501">
        <ele>1762</ele>
        <time>2019-08-19T16:12:32Z</time>
      </trkpt>
      <trkpt lat="44.57061" lon="6.81488">
        <ele>1762</ele>
        <time>2019-08-19T16:12:49Z</time>
      </trkpt>
      <trkpt lat="44.57041" lon="6.81468">
        <ele>1761</ele>
        <time>2019-08-19T16:13:22Z</time>
      </trkpt>
      <trkpt lat="44.5702" lon="6.81426">
        <ele>1762</ele>
        <time>2019-08-19T16:14:11Z</time>
      </trkpt>
      <trkpt lat="44.57009" lon="6.81414">
        <ele>1761</ele>
        <time>2019-08-19T16:14:29Z</time>
      </trkpt>
      <trkpt lat="44.56995" lon="6.81408">
        <ele>1758</ele>
        <time>2019-08-19T16:14:49Z</time>
      </trkpt>
      <trkpt lat="44.56968" lon="6.81397">
        <ele>1754</ele>
        <time>2019-08-19T16:15:26Z</time>
      </trkpt>
      <trkpt lat="44.56954" lon="6.81383">
        <ele>1754</ele>
        <time>2019-08-19T16:15:49Z</time>
      </trkpt>
      <trkpt lat="44.56943" lon="6.81368">
        <ele>1755</ele>
        <time>2019-08-19T16:16:10Z</time>
      </trkpt>
      <trkpt lat="44.56928" lon="6.81358">
        <ele>1752</ele>
        <time>2019-08-19T16:16:32Z</time>
      </trkpt>
      <trkpt lat="44.56879" lon="6.8133">
        <ele>1747</ele>
        <time>2019-08-19T16:17:42Z</time>
      </trkpt>
      <trkpt lat="44.56865" lon="6.81318">
        <ele>1747</ele>
        <time>2019-08-19T16:18:04Z</time>
      </trkpt>
      <trkpt lat="44.56836" lon="6.81305">
        <ele>1743</ele>
        <time>2019-08-19T16:18:45Z</time>
      </trkpt>
      <trkpt lat="44.56805" lon="6.81289">
        <ele>1743</ele>
        <time>2019-08-19T16:19:29Z</time>
      </trkpt>
      <trkpt lat="44.56782" lon="6.81278">
        <ele>1742</ele>
        <time>2019-08-19T16:20:01Z</time>
      </trkpt>
      <trkpt lat="44.56752" lon="6.81282">
        <ele>1736</ele>
        <time>2019-08-19T16:20:42Z</time>
      </trkpt>
      <trkpt lat="44.56733" lon="6.81276">
        <ele>1735</ele>
        <time>2019-08-19T16:21:08Z</time>
      </trkpt>
      <trkpt lat="44.56713" lon="6.81273">
        <ele>1733</ele>
        <time>2019-08-19T16:21:34Z</time>
      </trkpt>
      <trkpt lat="44.56686" lon="6.81262">
        <ele>1731</ele>
        <time>2019-08-19T16:22:12Z</time>
      </trkpt>
      <trkpt lat="44.56662" lon="6.81244">
        <ele>1731</ele>
        <time>2019-08-19T16:22:48Z</time>
      </trkpt>
      <trkpt lat="44.56633" lon="6.81214">
        <ele>1734</ele>
        <time>2019-08-19T16:23:36Z</time>
      </trkpt>
      <trkpt lat="44.56602" lon="6.81194">
        <ele>1734</ele>
        <time>2019-08-19T16:24:22Z</time>
      </trkpt>
      <trkpt lat="44.56572" lon="6.81184">
        <ele>1731</ele>
        <time>2019-08-19T16:25:03Z</time>
      </trkpt>
      <trkpt lat="44.56541" lon="6.81175">
        <ele>1728</ele>
        <time>2019-08-19T16:25:45Z</time>
      </trkpt>
      <trkpt lat="44.56511" lon="6.81168">
        <ele>1724</ele>
        <time>2019-08-19T16:26:26Z</time>
      </trkpt>
      <trkpt lat="44.56481" lon="6.81161">
        <ele>1721</ele>
        <time>2019-08-19T16:27:06Z</time>
      </trkpt>
      <trkpt lat="44.56445" lon="6.81163">
        <ele>1717</ele>
        <time>2019-08-19T16:27:54Z</time>
      </trkpt>
      <trkpt lat="44.56433" lon="6.81163">
        <ele>1716</ele>
        <time>2019-08-19T16:28:10Z</time>
      </trkpt>
      <trkpt lat="44.56424" lon="6.81156">
        <ele>1716</ele>
        <time>2019-08-19T16:28:24Z</time>
      </trkpt>
      <trkpt lat="44.56412" lon="6.81141">
        <ele>1716</ele>
        <time>2019-08-19T16:28:46Z</time>
      </trkpt>
      <trkpt lat="44.56393" lon="6.81106">
        <ele>1716</ele>
        <time>2019-08-19T16:29:27Z</time>
      </trkpt>
      <trkpt lat="44.56388" lon="6.81094">
        <ele>1716</ele>
        <time>2019-08-19T16:29:41Z</time>
      </trkpt>
      <trkpt lat="44.56381" lon="6.81085">
        <ele>1715</ele>
        <time>2019-08-19T16:29:53Z</time>
      </trkpt>
      <trkpt lat="44.56362" lon="6.81073">
        <ele>1713</ele>
        <time>2019-08-19T16:30:21Z</time>
      </trkpt>
      <trkpt lat="44.56337" lon="6.81069">
        <ele>1709</ele>
        <time>2019-08-19T16:30:55Z</time>
      </trkpt>
      <trkpt lat="44.56316" lon="6.81059">
        <ele>1709</ele>
        <time>2019-08-19T16:31:24Z</time>
      </trkpt>
      <trkpt lat="44.56303" lon="6.81048">
        <ele>1710</ele>
        <time>2019-08-19T16:31:45Z</time>
      </trkpt>
      <trkpt lat="44.5629" lon="6.81037">
        <ele>1711</ele>
        <time>2019-08-19T16:32:05Z</time>
      </trkpt>
      <trkpt lat="44.56278" lon="6.81021">
        <ele>1712</ele>
        <time>2019-08-19T16:32:27Z</time>
      </trkpt>
      <trkpt lat="44.56262" lon="6.81011">
        <ele>1712</ele>
        <time>2019-08-19T16:32:50Z</time>
      </trkpt>
      <trkpt lat="44.56232" lon="6.81001">
        <ele>1712</ele>
        <time>2019-08-19T16:33:31Z</time>
      </trkpt>
      <trkpt lat="44.56216" lon="6.81001">
        <ele>1710</ele>
        <time>2019-08-19T16:33:53Z</time>
      </trkpt>
      <trkpt lat="44.56201" lon="6.8101">
        <ele>1708</ele>
        <time>2019-08-19T16:34:15Z</time>
      </trkpt>
      <trkpt lat="44.56182" lon="6.8102">
        <ele>1706</ele>
        <time>2019-08-19T16:34:42Z</time>
      </trkpt>
      <trkpt lat="44.56145" lon="6.81034">
        <ele>1704</ele>
        <time>2019-08-19T16:35:33Z</time>
      </trkpt>
      <trkpt lat="44.56124" lon="6.81037">
        <ele>1704</ele>
        <time>2019-08-19T16:36:01Z</time>
      </trkpt>
      <trkpt lat="44.56115" lon="6.81033">
        <ele>1705</ele>
        <time>2019-08-19T16:36:14Z</time>
      </trkpt>
      <trkpt lat="44.56041" lon="6.8097">
        <ele>1706</ele>
        <time>2019-08-19T16:38:09Z</time>
      </trkpt>
      <trkpt lat="44.56019" lon="6.80952">
        <ele>1706</ele>
        <time>2019-08-19T16:38:43Z</time>
      </trkpt>
      <trkpt lat="44.55991" lon="6.80916">
        <ele>1707</ele>
        <time>2019-08-19T16:39:34Z</time>
      </trkpt>
      <trkpt lat="44.55977" lon="6.80889">
        <ele>1706</ele>
        <time>2019-08-19T16:40:05Z</time>
      </trkpt>
      <trkpt lat="44.55964" lon="6.80862">
        <ele>1705</ele>
        <time>2019-08-19T16:40:36Z</time>
      </trkpt>
      <trkpt lat="44.55945" lon="6.80836">
        <ele>1703</ele>
        <time>2019-08-19T16:41:12Z</time>
      </trkpt>
      <trkpt lat="44.55926" lon="6.80811">
        <ele>1701</ele>
        <time>2019-08-19T16:41:47Z</time>
      </trkpt>
      <trkpt lat="44.55824" lon="6.80684">
        <ele>1692</ele>
        <time>2019-08-19T16:44:49Z</time>
      </trkpt>
      <trkpt lat="44.55814" lon="6.8067">
        <ele>1693</ele>
        <time>2019-08-19T16:45:07Z</time>
      </trkpt>
      <trkpt lat="44.55801" lon="6.8066">
        <ele>1694</ele>
        <time>2019-08-19T16:45:27Z</time>
      </trkpt>
      <trkpt lat="44.55776" lon="6.80653">
        <ele>1691</ele>
        <time>2019-08-19T16:46:01Z</time>
      </trkpt>
      <trkpt lat="44.55755" lon="6.80648">
        <ele>1687</ele>
        <time>2019-08-19T16:46:30Z</time>
      </trkpt>
      <trkpt lat="44.55725" lon="6.80642">
        <ele>1687</ele>
        <time>2019-08-19T16:47:10Z</time>
      </trkpt>
      <trkpt lat="44.55695" lon="6.80633">
        <ele>1689</ele>
        <time>2019-08-19T16:47:51Z</time>
      </trkpt>
      <trkpt lat="44.55623" lon="6.80601">
        <ele>1689</ele>
        <time>2019-08-19T16:49:32Z</time>
      </trkpt>
      <trkpt lat="44.55599" lon="6.8059">
        <ele>1687</ele>
        <time>2019-08-19T16:50:06Z</time>
      </trkpt>
      <trkpt lat="44.55516" lon="6.80535">
        <ele>1687</ele>
        <time>2019-08-19T16:52:08Z</time>
      </trkpt>
      <trkpt lat="44.55485" lon="6.80517">
        <ele>1683</ele>
        <time>2019-08-19T16:52:53Z</time>
      </trkpt>
      <trkpt lat="44.55456" lon="6.80495">
        <ele>1682</ele>
        <time>2019-08-19T16:53:37Z</time>
      </trkpt>
      <trkpt lat="44.55423" lon="6.80465">
        <ele>1684</ele>
        <time>2019-08-19T16:54:29Z</time>
      </trkpt>
      <trkpt lat="44.55389" lon="6.80436">
        <ele>1680</ele>
        <time>2019-08-19T16:55:22Z</time>
      </trkpt>
      <trkpt lat="44.55387" lon="6.80422">
        <ele>1678</ele>
        <time>2019-08-19T16:55:36Z</time>
      </trkpt>
      <trkpt lat="44.55384" lon="6.80389">
        <ele>1681</ele>
        <time>2019-08-19T16:56:08Z</time>
      </trkpt>
      <trkpt lat="44.55381" lon="6.80337">
        <ele>1686</ele>
        <time>2019-08-19T16:56:57Z</time>
      </trkpt>
      <trkpt lat="44.5538" lon="6.80323">
        <ele>1687</ele>
        <time>2019-08-19T16:57:11Z</time>
      </trkpt>
      <trkpt lat="44.55375" lon="6.80307">
        <ele>1687</ele>
        <time>2019-08-19T16:57:27Z</time>
      </trkpt>
      <trkpt lat="44.55366" lon="6.80292">
        <ele>1684</ele>
        <time>2019-08-19T16:57:46Z</time>
      </trkpt>
      <trkpt lat="44.55352" lon="6.80278">
        <ele>1679</ele>
        <time>2019-08-19T16:58:09Z</time>
      </trkpt>
      <trkpt lat="44.55324" lon="6.80256">
        <ele>1670</ele>
        <time>2019-08-19T16:58:52Z</time>
      </trkpt>
      <trkpt lat="44.55295" lon="6.80233">
        <ele>1667</ele>
        <time>2019-08-19T16:59:36Z</time>
      </trkpt>
      <trkpt lat="44.55267" lon="6.80205">
        <ele>1665</ele>
        <time>2019-08-19T17:00:22Z</time>
      </trkpt>
      <trkpt lat="44.55236" lon="6.80169">
        <ele>1665</ele>
        <time>2019-08-19T17:01:16Z</time>
      </trkpt>
      <trkpt lat="44.55218" lon="6.80151">
        <ele>1665</ele>
        <time>2019-08-19T17:01:45Z</time>
      </trkpt>
      <trkpt lat="44.55192" lon="6.80127">
        <ele>1664</ele>
        <time>2019-08-19T17:02:27Z</time>
      </trkpt>
      <trkpt lat="44.55165" lon="6.8011">
        <ele>1661</ele>
        <time>2019-08-19T17:03:06Z</time>
      </trkpt>
      <trkpt lat="44.55143" lon="6.80088">
        <ele>1659</ele>
        <time>2019-08-19T17:03:42Z</time>
      </trkpt>
      <trkpt lat="44.55131" lon="6.80067">
        <ele>1659</ele>
        <time>2019-08-19T17:04:08Z</time>
      </trkpt>
      <trkpt lat="44.55066" lon="6.79996">
        <ele>1657</ele>
        <time>2019-08-19T17:05:58Z</time>
      </trkpt>
      <trkpt lat="44.55053" lon="6.79984">
        <ele>1659</ele>
        <time>2019-08-19T17:06:18Z</time>
      </trkpt>
      <trkpt lat="44.55038" lon="6.79976">
        <ele>1659</ele>
        <time>2019-08-19T17:06:40Z</time>
      </trkpt>
      <trkpt lat="44.55009" lon="6.79967">
        <ele>1656</ele>
        <time>2019-08-19T17:07:19Z</time>
      </trkpt>
      <trkpt lat="44.54969" lon="6.79958">
        <ele>1652</ele>
        <time>2019-08-19T17:08:14Z</time>
      </trkpt>
      <trkpt lat="44.54933" lon="6.79943">
        <ele>1650</ele>
        <time>2019-08-19T17:09:04Z</time>
      </trkpt>
      <trkpt lat="44.549" lon="6.79922">
        <ele>1649</ele>
        <time>2019-08-19T17:09:52Z</time>
      </trkpt>
      <trkpt lat="44.54837" lon="6.79861">
        <ele>1648</ele>
        <time>2019-08-19T17:11:34Z</time>
      </trkpt>
      <trkpt lat="44.54818" lon="6.7984">
        <ele>1647</ele>
        <time>2019-08-19T17:12:06Z</time>
      </trkpt>
      <trkpt lat="44.54802" lon="6.79813">
        <ele>1646</ele>
        <time>2019-08-19T17:12:40Z</time>
      </trkpt>
      <trkpt lat="44.54793" lon="6.79784">
        <ele>1646</ele>
        <time>2019-08-19T17:13:10Z</time>
      </trkpt>
      <trkpt lat="44.54791" lon="6.79753">
        <ele>1649</ele>
        <time>2019-08-19T17:13:40Z</time>
      </trkpt>
      <trkpt lat="44.54788" lon="6.79724">
        <ele>1654</ele>
        <time>2019-08-19T17:14:07Z</time>
      </trkpt>
      <trkpt lat="44.54785" lon="6.79714">
        <ele>1656</ele>
        <time>2019-08-19T17:14:18Z</time>
      </trkpt>
      <trkpt lat="44.54774" lon="6.79707">
        <ele>1654</ele>
        <time>2019-08-19T17:14:34Z</time>
      </trkpt>
      <trkpt lat="44.54766" lon="6.79701">
        <ele>1653</ele>
        <time>2019-08-19T17:14:46Z</time>
      </trkpt>
      <trkpt lat="44.5476" lon="6.79692">
        <ele>1653</ele>
        <time>2019-08-19T17:14:58Z</time>
      </trkpt>
      <trkpt lat="44.54752" lon="6.79678">
        <ele>1653</ele>
        <time>2019-08-19T17:15:15Z</time>
      </trkpt>
      <trkpt lat="44.54745" lon="6.79657">
        <ele>1656</ele>
        <time>2019-08-19T17:15:37Z</time>
      </trkpt>
      <trkpt lat="44.54736" lon="6.79619">
        <ele>1665</ele>
        <time>2019-08-19T17:16:15Z</time>
      </trkpt>
      <trkpt lat="44.54727" lon="6.79596">
        <ele>1669</ele>
        <time>2019-08-19T17:16:40Z</time>
      </trkpt>
      <trkpt lat="44.54718" lon="6.79579">
        <ele>1671</ele>
        <time>2019-08-19T17:17:00Z</time>
      </trkpt>
      <trkpt lat="44.54703" lon="6.79561">
        <ele>1669</ele>
        <time>2019-08-19T17:17:26Z</time>
      </trkpt>
      <trkpt lat="44.54653" lon="6.79527">
        <ele>1658</ele>
        <time>2019-08-19T17:18:40Z</time>
      </trkpt>
      <trkpt lat="44.54641" lon="6.79522">
        <ele>1658</ele>
        <time>2019-08-19T17:18:57Z</time>
      </trkpt>
      <trkpt lat="44.54626" lon="6.79526">
        <ele>1655</ele>
        <time>2019-08-19T17:19:17Z</time>
      </trkpt>
      <trkpt lat="44.546" lon="6.7954">
        <ele>1648</ele>
        <time>2019-08-19T17:19:55Z</time>
      </trkpt>
      <trkpt lat="44.54575" lon="6.79539">
        <ele>1646</ele>
        <time>2019-08-19T17:20:28Z</time>
      </trkpt>
      <trkpt lat="44.54537" lon="6.7953">
        <ele>1644</ele>
        <time>2019-08-19T17:21:19Z</time>
      </trkpt>
      <trkpt lat="44.54524" lon="6.79517">
        <ele>1646</ele>
        <time>2019-08-19T17:21:41Z</time>
      </trkpt>
      <trkpt lat="44.54507" lon="6.79486">
        <ele>1650</ele>
        <time>2019-08-19T17:22:18Z</time>
      </trkpt>
      <trkpt lat="44.54494" lon="6.79441">
        <ele>1651</ele>
        <time>2019-08-19T17:23:04Z</time>
      </trkpt>
      <trkpt lat="44.54481" lon="6.79397">
        <ele>1651</ele>
        <time>2019-08-19T17:23:49Z</time>
      </trkpt>
      <trkpt lat="44.54472" lon="6.79381">
        <ele>1650</ele>
        <time>2019-08-19T17:24:09Z</time>
      </trkpt>
      <trkpt lat="44.54459" lon="6.79369">
        <ele>1647</ele>
        <time>2019-08-19T17:24:30Z</time>
      </trkpt>
      <trkpt lat="44.54436" lon="6.79352">
        <ele>1641</ele>
        <time>2019-08-19T17:25:04Z</time>
      </trkpt>
      <trkpt lat="44.54432" lon="6.79343">
        <ele>1641</ele>
        <time>2019-08-19T17:25:14Z</time>
      </trkpt>
      <trkpt lat="44.54432" lon="6.79332">
        <ele>1643</ele>
        <time>2019-08-19T17:25:25Z</time>
      </trkpt>
      <trkpt lat="44.5443" lon="6.79314">
        <ele>1645</ele>
        <time>2019-08-19T17:25:42Z</time>
      </trkpt>
      <trkpt lat="44.54417" lon="6.79292">
        <ele>1644</ele>
        <time>2019-08-19T17:26:09Z</time>
      </trkpt>
      <trkpt lat="44.5439" lon="6.79256">
        <ele>1641</ele>
        <time>2019-08-19T17:26:59Z</time>
      </trkpt>
      <trkpt lat="44.54366" lon="6.79227">
        <ele>1638</ele>
        <time>2019-08-19T17:27:41Z</time>
      </trkpt>
      <trkpt lat="44.54359" lon="6.79225">
        <ele>1636</ele>
        <time>2019-08-19T17:27:51Z</time>
      </trkpt>
      <trkpt lat="44.54342" lon="6.79218">
        <ele>1632</ele>
        <time>2019-08-19T17:28:14Z</time>
      </trkpt>
      <trkpt lat="44.54331" lon="6.79212">
        <ele>1629</ele>
        <time>2019-08-19T17:28:30Z</time>
      </trkpt>
      <trkpt lat="44.54324" lon="6.79199">
        <ele>1629</ele>
        <time>2019-08-19T17:28:46Z</time>
      </trkpt>
      <trkpt lat="44.54323" lon="6.79178">
        <ele>1632</ele>
        <time>2019-08-19T17:29:06Z</time>
      </trkpt>
      <trkpt lat="44.54324" lon="6.79161">
        <ele>1636</ele>
        <time>2019-08-19T17:29:22Z</time>
      </trkpt>
      <trkpt lat="44.54324" lon="6.79147">
        <ele>1638</ele>
        <time>2019-08-19T17:29:35Z</time>
      </trkpt>
      <trkpt lat="44.54318" lon="6.79129">
        <ele>1638</ele>
        <time>2019-08-19T17:29:54Z</time>
      </trkpt>
      <trkpt lat="44.54299" lon="6.79091">
        <ele>1637</ele>
        <time>2019-08-19T17:30:38Z</time>
      </trkpt>
      <trkpt lat="44.5428" lon="6.79052">
        <ele>1635</ele>
        <time>2019-08-19T17:31:23Z</time>
      </trkpt>
      <trkpt lat="44.54266" lon="6.79005">
        <ele>1633</ele>
        <time>2019-08-19T17:32:12Z</time>
      </trkpt>
      <trkpt lat="44.54259" lon="6.78983">
        <ele>1632</ele>
        <time>2019-08-19T17:32:35Z</time>
      </trkpt>
      <trkpt lat="44.54257" lon="6.7896">
        <ele>1632</ele>
        <time>2019-08-19T17:32:57Z</time>
      </trkpt>
      <trkpt lat="44.54255" lon="6.78915">
        <ele>1634</ele>
        <time>2019-08-19T17:33:40Z</time>
      </trkpt>
      <trkpt lat="44.54245" lon="6.78856">
        <ele>1635</ele>
        <time>2019-08-19T17:34:37Z</time>
      </trkpt>
      <trkpt lat="44.54234" lon="6.78796">
        <ele>1635</ele>
        <time>2019-08-19T17:35:36Z</time>
      </trkpt>
      <trkpt lat="44.5423" lon="6.78752">
        <ele>1636</ele>
        <time>2019-08-19T17:36:18Z</time>
      </trkpt>
      <trkpt lat="44.5423" lon="6.78731">
        <ele>1637</ele>
        <time>2019-08-19T17:36:38Z</time>
      </trkpt>
      <trkpt lat="44.54232" lon="6.78711">
        <ele>1640</ele>
        <time>2019-08-19T17:36:58Z</time>
      </trkpt>
      <trkpt lat="44.54227" lon="6.78672">
        <ele>1641</ele>
        <time>2019-08-19T17:37:35Z</time>
      </trkpt>
      <trkpt lat="44.54218" lon="6.78635">
        <ele>1645</ele>
        <time>2019-08-19T17:38:12Z</time>
      </trkpt>
      <trkpt lat="44.5417" lon="6.78576">
        <ele>1633</ele>
        <time>2019-08-19T17:39:38Z</time>
      </trkpt>
      <trkpt lat="44.54145" lon="6.78528">
        <ele>1634</ele>
        <time>2019-08-19T17:40:34Z</time>
      </trkpt>
      <trkpt lat="44.54123" lon="6.78513">
        <ele>1629</ele>
        <time>2019-08-19T17:41:07Z</time>
      </trkpt>
      <trkpt lat="44.54101" lon="6.78488">
        <ele>1625</ele>
        <time>2019-08-19T17:41:45Z</time>
      </trkpt>
      <trkpt lat="44.54082" lon="6.78461">
        <ele>1625</ele>
        <time>2019-08-19T17:42:21Z</time>
      </trkpt>
      <trkpt lat="44.54071" lon="6.78434">
        <ele>1629</ele>
        <time>2019-08-19T17:42:50Z</time>
      </trkpt>
      <trkpt lat="44.54049" lon="6.78399">
        <ele>1630</ele>
        <time>2019-08-19T17:43:35Z</time>
      </trkpt>
      <trkpt lat="44.54031" lon="6.78383">
        <ele>1628</ele>
        <time>2019-08-19T17:44:03Z</time>
      </trkpt>
      <trkpt lat="44.54014" lon="6.78374">
        <ele>1625</ele>
        <time>2019-08-19T17:44:27Z</time>
      </trkpt>
      <trkpt lat="44.53988" lon="6.78364">
        <ele>1621</ele>
        <time>2019-08-19T17:45:03Z</time>
      </trkpt>
      <trkpt lat="44.53959" lon="6.78368">
        <ele>1620</ele>
        <time>2019-08-19T17:45:42Z</time>
      </trkpt>
      <trkpt lat="44.5391" lon="6.7836">
        <ele>1619</ele>
        <time>2019-08-19T17:46:48Z</time>
      </trkpt>
      <trkpt lat="44.53894" lon="6.78353">
        <ele>1622</ele>
        <time>2019-08-19T17:47:10Z</time>
      </trkpt>
      <trkpt lat="44.53882" lon="6.7834">
        <ele>1624</ele>
        <time>2019-08-19T17:47:31Z</time>
      </trkpt>
      <trkpt lat="44.53864" lon="6.78297">
        <ele>1621</ele>
        <time>2019-08-19T17:48:18Z</time>
      </trkpt>
      <trkpt lat="44.53831" lon="6.7826">
        <ele>1610</ele>
        <time>2019-08-19T17:49:14Z</time>
      </trkpt>
      <trkpt lat="44.53821" lon="6.78255">
        <ele>1607</ele>
        <time>2019-08-19T17:49:29Z</time>
      </trkpt>
      <trkpt lat="44.53805" lon="6.7826">
        <ele>1605</ele>
        <time>2019-08-19T17:49:50Z</time>
      </trkpt>
      <trkpt lat="44.53787" lon="6.78274">
        <ele>1605</ele>
        <time>2019-08-19T17:50:18Z</time>
      </trkpt>
      <trkpt lat="44.5377" lon="6.78292">
        <ele>1607</ele>
        <time>2019-08-19T17:50:46Z</time>
      </trkpt>
      <trkpt lat="44.53761" lon="6.78305">
        <ele>1608</ele>
        <time>2019-08-19T17:51:04Z</time>
      </trkpt>
      <trkpt lat="44.5375" lon="6.78318">
        <ele>1609</ele>
        <time>2019-08-19T17:51:23Z</time>
      </trkpt>
      <trkpt lat="44.53728" lon="6.78339">
        <ele>1608</ele>
        <time>2019-08-19T17:51:58Z</time>
      </trkpt>
      <trkpt lat="44.53705" lon="6.78361">
        <ele>1608</ele>
        <time>2019-08-19T17:52:35Z</time>
      </trkpt>
      <trkpt lat="44.53685" lon="6.78375">
        <ele>1604</ele>
        <time>2019-08-19T17:53:05Z</time>
      </trkpt>
      <trkpt lat="44.53657" lon="6.78389">
        <ele>1597</ele>
        <time>2019-08-19T17:53:45Z</time>
      </trkpt>
      <trkpt lat="44.53646" lon="6.78405">
        <ele>1596</ele>
        <time>2019-08-19T17:54:06Z</time>
      </trkpt>
      <trkpt lat="44.53638" lon="6.78418">
        <ele>1595</ele>
        <time>2019-08-19T17:54:22Z</time>
      </trkpt>
      <trkpt lat="44.53635" lon="6.78425">
        <ele>1596</ele>
        <time>2019-08-19T17:54:30Z</time>
      </trkpt>
      <trkpt lat="44.53634" lon="6.7844">
        <ele>1599</ele>
        <time>2019-08-19T17:54:44Z</time>
      </trkpt>
      <trkpt lat="44.53638" lon="6.7845">
        <ele>1603</ele>
        <time>2019-08-19T17:54:55Z</time>
      </trkpt>
      <trkpt lat="44.53642" lon="6.78456">
        <ele>1606</ele>
        <time>2019-08-19T17:55:03Z</time>
      </trkpt>
      <trkpt lat="44.53648" lon="6.7846">
        <ele>1609</ele>
        <time>2019-08-19T17:55:12Z</time>
      </trkpt>
      <trkpt lat="44.53654" lon="6.78465">
        <ele>1613</ele>
        <time>2019-08-19T17:55:21Z</time>
      </trkpt>
      <trkpt lat="44.53656" lon="6.78472">
        <ele>1615</ele>
        <time>2019-08-19T17:55:29Z</time>
      </trkpt>
      <trkpt lat="44.53657" lon="6.7848">
        <ele>1617</ele>
        <time>2019-08-19T17:55:36Z</time>
      </trkpt>
      <trkpt lat="44.53653" lon="6.78497">
        <ele>1620</ele>
        <time>2019-08-19T17:55:53Z</time>
      </trkpt>
      <trkpt lat="44.53646" lon="6.78511">
        <ele>1619</ele>
        <time>2019-08-19T17:56:10Z</time>
      </trkpt>
      <trkpt lat="44.53639" lon="6.78519">
        <ele>1618</ele>
        <time>2019-08-19T17:56:22Z</time>
      </trkpt>
      <trkpt lat="44.53635" lon="6.78529">
        <ele>1618</ele>
        <time>2019-08-19T17:56:33Z</time>
      </trkpt>
      <trkpt lat="44.53635" lon="6.78543">
        <ele>1619</ele>
        <time>2019-08-19T17:56:46Z</time>
      </trkpt>
      <trkpt lat="44.53635" lon="6.78547">
        <ele>1620</ele>
        <time>2019-08-19T17:56:50Z</time>
      </trkpt>
      <trkpt lat="44.53633" lon="6.78548">
        <ele>1620</ele>
        <time>2019-08-19T17:56:52Z</time>
      </trkpt>
      <trkpt lat="44.53618" lon="6.78567">
        <ele>1623</ele>
        <time>2019-08-19T17:57:19Z</time>
      </trkpt>
      <trkpt lat="44.53608" lon="6.78568">
        <ele>1624</ele>
        <time>2019-08-19T17:57:33Z</time>
      </trkpt>
      <trkpt lat="44.53584" lon="6.78587">
        <ele>1632</ele>
        <time>2019-08-19T17:58:10Z</time>
      </trkpt>
      <trkpt lat="44.53578" lon="6.78588">
        <ele>1633</ele>
        <time>2019-08-19T17:58:18Z</time>
      </trkpt>
      <trkpt lat="44.53559" lon="6.78559">
        <ele>1623</ele>
        <time>2019-08-19T17:58:55Z</time>
      </trkpt>
      <trkpt lat="44.53553" lon="6.78559">
        <ele>1623</ele>
        <time>2019-08-19T17:59:03Z</time>
      </trkpt>
      <trkpt lat="44.53532" lon="6.7856">
        <ele>1625</ele>
        <time>2019-08-19T17:59:31Z</time>
      </trkpt>
      <trkpt lat="44.53495" lon="6.78571">
        <ele>1630</ele>
        <time>2019-08-19T18:00:22Z</time>
      </trkpt>
      <trkpt lat="44.53471" lon="6.7858">
        <ele>1632</ele>
        <time>2019-08-19T18:00:55Z</time>
      </trkpt>
      <trkpt lat="44.53461" lon="6.78589">
        <ele>1635</ele>
        <time>2019-08-19T18:01:11Z</time>
      </trkpt>
      <trkpt lat="44.53453" lon="6.78599">
        <ele>1638</ele>
        <time>2019-08-19T18:01:25Z</time>
      </trkpt>
      <trkpt lat="44.53425" lon="6.78638">
        <ele>1649</ele>
        <time>2019-08-19T18:02:18Z</time>
      </trkpt>
      <trkpt lat="44.53409" lon="6.78661">
        <ele>1654</ele>
        <time>2019-08-19T18:02:48Z</time>
      </trkpt>
      <trkpt lat="44.53392" lon="6.7869">
        <ele>1661</ele>
        <time>2019-08-19T18:03:24Z</time>
      </trkpt>
      <trkpt lat="44.53373" lon="6.78717">
        <ele>1666</ele>
        <time>2019-08-19T18:04:00Z</time>
      </trkpt>
      <trkpt lat="44.53346" lon="6.78747">
        <ele>1668</ele>
        <time>2019-08-19T18:04:46Z</time>
      </trkpt>
      <trkpt lat="44.53322" lon="6.78794">
        <ele>1677</ele>
        <time>2019-08-19T18:05:41Z</time>
      </trkpt>
      <trkpt lat="44.53313" lon="6.78819">
        <ele>1685</ele>
        <time>2019-08-19T18:06:08Z</time>
      </trkpt>
      <trkpt lat="44.53301" lon="6.78834">
        <ele>1690</ele>
        <time>2019-08-19T18:06:29Z</time>
      </trkpt>
      <trkpt lat="44.53292" lon="6.78837">
        <ele>1691</ele>
        <time>2019-08-19T18:06:41Z</time>
      </trkpt>
      <trkpt lat="44.53284" lon="6.78831">
        <ele>1689</ele>
        <time>2019-08-19T18:06:53Z</time>
      </trkpt>
      <trkpt lat="44.533" lon="6.78868">
        <ele>1701</ele>
        <time>2019-08-19T18:07:35Z</time>
      </trkpt>
      <trkpt lat="44.53317" lon="6.78906">
        <ele>1710</ele>
        <time>2019-08-19T18:08:17Z</time>
      </trkpt>
      <trkpt lat="44.53343" lon="6.78916">
        <ele>1712</ele>
        <time>2019-08-19T18:08:53Z</time>
      </trkpt>
      <trkpt lat="44.53369" lon="6.78925">
        <ele>1721</ele>
        <time>2019-08-19T18:09:29Z</time>
      </trkpt>
      <trkpt lat="44.53374" lon="6.78966">
        <ele>1732</ele>
        <time>2019-08-19T18:10:09Z</time>
      </trkpt>
      <trkpt lat="44.53399" lon="6.78985">
        <ele>1738</ele>
        <time>2019-08-19T18:10:47Z</time>
      </trkpt>
      <trkpt lat="44.53424" lon="6.79004">
        <ele>1742</ele>
        <time>2019-08-19T18:11:24Z</time>
      </trkpt>
      <trkpt lat="44.53418" lon="6.79046">
        <ele>1752</ele>
        <time>2019-08-19T18:12:05Z</time>
      </trkpt>
      <trkpt lat="44.53396" lon="6.79064">
        <ele>1759</ele>
        <time>2019-08-19T18:12:39Z</time>
      </trkpt>
      <trkpt lat="44.53374" lon="6.79082">
        <ele>1767</ele>
        <time>2019-08-19T18:13:13Z</time>
      </trkpt>
      <trkpt lat="44.53364" lon="6.79124">
        <ele>1781</ele>
        <time>2019-08-19T18:13:55Z</time>
      </trkpt>
      <trkpt lat="44.53355" lon="6.79166">
        <ele>1795</ele>
        <time>2019-08-19T18:14:37Z</time>
      </trkpt>
      <trkpt lat="44.53368" lon="6.79202">
        <ele>1803</ele>
        <time>2019-08-19T18:15:15Z</time>
      </trkpt>
      <trkpt lat="44.5338" lon="6.79238">
        <ele>1810</ele>
        <time>2019-08-19T18:15:53Z</time>
      </trkpt>
      <trkpt lat="44.53357" lon="6.79243">
        <ele>1819</ele>
        <time>2019-08-19T18:16:24Z</time>
      </trkpt>
      <trkpt lat="44.53327" lon="6.79262">
        <ele>1834</ele>
        <time>2019-08-19T18:17:08Z</time>
      </trkpt>
      <trkpt lat="44.53342" lon="6.79306">
        <ele>1840</ele>
        <time>2019-08-19T18:17:55Z</time>
      </trkpt>
      <trkpt lat="44.53357" lon="6.79349">
        <ele>1845</ele>
        <time>2019-08-19T18:18:40Z</time>
      </trkpt>
      <trkpt lat="44.53336" lon="6.79377">
        <ele>1858</ele>
        <time>2019-08-19T18:19:19Z</time>
      </trkpt>
      <trkpt lat="44.53314" lon="6.79405">
        <ele>1871</ele>
        <time>2019-08-19T18:19:58Z</time>
      </trkpt>
      <trkpt lat="44.53253" lon="6.79425">
        <ele>1894</ele>
        <time>2019-08-19T18:21:22Z</time>
      </trkpt>
      <trkpt lat="44.53223" lon="6.79446">
        <ele>1906</ele>
        <time>2019-08-19T18:22:07Z</time>
      </trkpt>
      <trkpt lat="44.53192" lon="6.79422">
        <ele>1908</ele>
        <time>2019-08-19T18:22:54Z</time>
      </trkpt>
      <trkpt lat="44.53159" lon="6.79414">
        <ele>1915</ele>
        <time>2019-08-19T18:23:39Z</time>
      </trkpt>
      <trkpt lat="44.53126" lon="6.79405">
        <ele>1922</ele>
        <time>2019-08-19T18:24:24Z</time>
      </trkpt>
      <trkpt lat="44.5309" lon="6.79405">
        <ele>1931</ele>
        <time>2019-08-19T18:25:12Z</time>
      </trkpt>
      <trkpt lat="44.53051" lon="6.79414">
        <ele>1928</ele>
        <time>2019-08-19T18:26:04Z</time>
      </trkpt>
      <trkpt lat="44.53025" lon="6.79459">
        <ele>1939</ele>
        <time>2019-08-19T18:26:59Z</time>
      </trkpt>
      <trkpt lat="44.52999" lon="6.7947">
        <ele>1940</ele>
        <time>2019-08-19T18:27:36Z</time>
      </trkpt>
      <trkpt lat="44.52974" lon="6.79481">
        <ele>1941</ele>
        <time>2019-08-19T18:28:11Z</time>
      </trkpt>
      <trkpt lat="44.52944" lon="6.79496">
        <ele>1944</ele>
        <time>2019-08-19T18:28:53Z</time>
      </trkpt>
      <trkpt lat="44.52915" lon="6.79511">
        <ele>1947</ele>
        <time>2019-08-19T18:29:34Z</time>
      </trkpt>
      <trkpt lat="44.52885" lon="6.79494">
        <ele>1946</ele>
        <time>2019-08-19T18:30:18Z</time>
      </trkpt>
      <trkpt lat="44.52855" lon="6.79476">
        <ele>1945</ele>
        <time>2019-08-19T18:31:01Z</time>
      </trkpt>
      <trkpt lat="44.52831" lon="6.79442">
        <ele>1937</ele>
        <time>2019-08-19T18:31:47Z</time>
      </trkpt>
      <trkpt lat="44.52807" lon="6.79408">
        <ele>1919</ele>
        <time>2019-08-19T18:32:32Z</time>
      </trkpt>
      <trkpt lat="44.52772" lon="6.79425">
        <ele>1918</ele>
        <time>2019-08-19T18:33:22Z</time>
      </trkpt>
      <trkpt lat="44.52762" lon="6.79418">
        <ele>1914</ele>
        <time>2019-08-19T18:33:37Z</time>
      </trkpt>
      <trkpt lat="44.5274" lon="6.79432">
        <ele>1912</ele>
        <time>2019-08-19T18:34:09Z</time>
      </trkpt>
      <trkpt lat="44.52719" lon="6.79446">
        <ele>1908</ele>
        <time>2019-08-19T18:34:40Z</time>
      </trkpt>
      <trkpt lat="44.52717" lon="6.79435">
        <ele>1905</ele>
        <time>2019-08-19T18:34:51Z</time>
      </trkpt>
      <trkpt lat="44.52734" lon="6.79408">
        <ele>1903</ele>
        <time>2019-08-19T18:35:25Z</time>
      </trkpt>
      <trkpt lat="44.52707" lon="6.79429">
        <ele>1900</ele>
        <time>2019-08-19T18:36:06Z</time>
      </trkpt>
      <trkpt lat="44.5268" lon="6.79451">
        <ele>1895</ele>
        <time>2019-08-19T18:36:48Z</time>
      </trkpt>
      <trkpt lat="44.52664" lon="6.79495">
        <ele>1896</ele>
        <time>2019-08-19T18:37:35Z</time>
      </trkpt>
      <trkpt lat="44.52634" lon="6.7953">
        <ele>1893</ele>
        <time>2019-08-19T18:38:27Z</time>
      </trkpt>
      <trkpt lat="44.52604" lon="6.79565">
        <ele>1891</ele>
        <time>2019-08-19T18:39:19Z</time>
      </trkpt>
      <trkpt lat="44.52573" lon="6.796">
        <ele>1890</ele>
        <time>2019-08-19T18:40:12Z</time>
      </trkpt>
      <trkpt lat="44.52543" lon="6.79635">
        <ele>1888</ele>
        <time>2019-08-19T18:41:04Z</time>
      </trkpt>
      <trkpt lat="44.52516" lon="6.79678">
        <ele>1885</ele>
        <time>2019-08-19T18:41:59Z</time>
      </trkpt>
      <trkpt lat="44.52514" lon="6.79719">
        <ele>1884</ele>
        <time>2019-08-19T18:42:38Z</time>
      </trkpt>
      <trkpt lat="44.52508" lon="6.79773">
        <ele>1881</ele>
        <time>2019-08-19T18:43:30Z</time>
      </trkpt>
      <trkpt lat="44.52499" lon="6.79757">
        <ele>1876</ele>
        <time>2019-08-19T18:43:49Z</time>
      </trkpt>
      <trkpt lat="44.52496" lon="6.79771">
        <ele>1875</ele>
        <time>2019-08-19T18:44:03Z</time>
      </trkpt>
      <trkpt lat="44.52477" lon="6.7972">
        <ele>1868</ele>
        <time>2019-08-19T18:44:58Z</time>
      </trkpt>
      <trkpt lat="44.52463" lon="6.79683">
        <ele>1863</ele>
        <time>2019-08-19T18:45:38Z</time>
      </trkpt>
      <trkpt lat="44.52467" lon="6.79683">
        <ele>1865</ele>
        <time>2019-08-19T18:45:43Z</time>
      </trkpt>
      <trkpt lat="44.5247" lon="6.79679">
        <ele>1866</ele>
        <time>2019-08-19T18:45:48Z</time>
      </trkpt>
      <trkpt lat="44.5247" lon="6.79669">
        <ele>1866</ele>
        <time>2019-08-19T18:45:58Z</time>
      </trkpt>
      <trkpt lat="44.52472" lon="6.79652">
        <ele>1865</ele>
        <time>2019-08-19T18:46:14Z</time>
      </trkpt>
      <trkpt lat="44.52472" lon="6.79648">
        <ele>1864</ele>
        <time>2019-08-19T18:46:18Z</time>
      </trkpt>
      <trkpt lat="44.52483" lon="6.79651">
        <ele>1869</ele>
        <time>2019-08-19T18:46:33Z</time>
      </trkpt>
      <trkpt lat="44.52487" lon="6.79657">
        <ele>1872</ele>
        <time>2019-08-19T18:46:41Z</time>
      </trkpt>
      <trkpt lat="44.52487" lon="6.79685">
        <ele>1873</ele>
        <time>2019-08-19T18:47:08Z</time>
      </trkpt>
      <trkpt lat="44.52487" lon="6.79707">
        <ele>1872</ele>
        <time>2019-08-19T18:47:28Z</time>
      </trkpt>
      <trkpt lat="44.52487" lon="6.79657">
        <ele>1872</ele>
        <time>2019-08-19T18:48:16Z</time>
      </trkpt>
      <trkpt lat="44.52483" lon="6.79651">
        <ele>1869</ele>
        <time>2019-08-19T18:48:24Z</time>
      </trkpt>
      <trkpt lat="44.52479" lon="6.7965">
        <ele>1867</ele>
        <time>2019-08-19T18:48:29Z</time>
      </trkpt>
      <trkpt lat="44.52472" lon="6.79648">
        <ele>1864</ele>
        <time>2019-08-19T18:48:39Z</time>
      </trkpt>
      <trkpt lat="44.5247" lon="6.79669">
        <ele>1866</ele>
        <time>2019-08-19T18:48:59Z</time>
      </trkpt>
      <trkpt lat="44.5247" lon="6.79679">
        <ele>1866</ele>
        <time>2019-08-19T18:49:08Z</time>
      </trkpt>
      <trkpt lat="44.52467" lon="6.79683">
        <ele>1865</ele>
        <time>2019-08-19T18:49:14Z</time>
      </trkpt>
      <trkpt lat="44.52463" lon="6.79683">
        <ele>1863</ele>
        <time>2019-08-19T18:49:19Z</time>
      </trkpt>
      <trkpt lat="44.52477" lon="6.7972">
        <ele>1868</ele>
        <time>2019-08-19T18:49:59Z</time>
      </trkpt>
      <trkpt lat="44.52496" lon="6.79771">
        <ele>1875</ele>
        <time>2019-08-19T18:50:54Z</time>
      </trkpt>
      <trkpt lat="44.52504" lon="6.79802">
        <ele>1880</ele>
        <time>2019-08-19T18:51:25Z</time>
      </trkpt>
      <trkpt lat="44.52512" lon="6.79857">
        <ele>1885</ele>
        <time>2019-08-19T18:52:19Z</time>
      </trkpt>
      <trkpt lat="44.52517" lon="6.79876">
        <ele>1888</ele>
        <time>2019-08-19T18:52:38Z</time>
      </trkpt>
      <trkpt lat="44.52528" lon="6.79922">
        <ele>1893</ele>
        <time>2019-08-19T18:53:24Z</time>
      </trkpt>
      <trkpt lat="44.52538" lon="6.79967">
        <ele>1892</ele>
        <time>2019-08-19T18:54:09Z</time>
      </trkpt>
      <trkpt lat="44.52549" lon="6.80013">
        <ele>1893</ele>
        <time>2019-08-19T18:54:55Z</time>
      </trkpt>
      <trkpt lat="44.52551" lon="6.80027">
        <ele>1894</ele>
        <time>2019-08-19T18:55:09Z</time>
      </trkpt>
      <trkpt lat="44.52548" lon="6.80065">
        <ele>1893</ele>
        <time>2019-08-19T18:55:45Z</time>
      </trkpt>
      <trkpt lat="44.52546" lon="6.80107">
        <ele>1894</ele>
        <time>2019-08-19T18:56:25Z</time>
      </trkpt>
      <trkpt lat="44.52546" lon="6.80128">
        <ele>1894</ele>
        <time>2019-08-19T18:56:45Z</time>
      </trkpt>
      <trkpt lat="44.52551" lon="6.80147">
        <ele>1896</ele>
        <time>2019-08-19T18:57:04Z</time>
      </trkpt>
      <trkpt lat="44.52555" lon="6.80167">
        <ele>1898</ele>
        <time>2019-08-19T18:57:24Z</time>
      </trkpt>
      <trkpt lat="44.5256" lon="6.80175">
        <ele>1899</ele>
        <time>2019-08-19T18:57:34Z</time>
      </trkpt>
      <trkpt lat="44.52564" lon="6.80182">
        <ele>1900</ele>
        <time>2019-08-19T18:57:43Z</time>
      </trkpt>
      <trkpt lat="44.52568" lon="6.802">
        <ele>1900</ele>
        <time>2019-08-19T18:58:01Z</time>
      </trkpt>
      <trkpt lat="44.52579" lon="6.80234">
        <ele>1900</ele>
        <time>2019-08-19T18:58:36Z</time>
      </trkpt>
      <trkpt lat="44.52583" lon="6.80242">
        <ele>1901</ele>
        <time>2019-08-19T18:58:46Z</time>
      </trkpt>
      <trkpt lat="44.52591" lon="6.80272">
        <ele>1903</ele>
        <time>2019-08-19T18:59:16Z</time>
      </trkpt>
      <trkpt lat="44.52595" lon="6.80291">
        <ele>1904</ele>
        <time>2019-08-19T18:59:35Z</time>
      </trkpt>
      <trkpt lat="44.52597" lon="6.80304">
        <ele>1904</ele>
        <time>2019-08-19T18:59:48Z</time>
      </trkpt>
      <trkpt lat="44.52598" lon="6.80318">
        <ele>1904</ele>
        <time>2019-08-19T19:00:01Z</time>
      </trkpt>
      <trkpt lat="44.52599" lon="6.80372">
        <ele>1906</ele>
        <time>2019-08-19T19:00:52Z</time>
      </trkpt>
      <trkpt lat="44.52598" lon="6.80401">
        <ele>1908</ele>
        <time>2019-08-19T19:01:20Z</time>
      </trkpt>
      <trkpt lat="44.526" lon="6.80422">
        <ele>1909</ele>
        <time>2019-08-19T19:01:40Z</time>
      </trkpt>
      <trkpt lat="44.52601" lon="6.80435">
        <ele>1910</ele>
        <time>2019-08-19T19:01:53Z</time>
      </trkpt>
      <trkpt lat="44.52599" lon="6.80447">
        <ele>1910</ele>
        <time>2019-08-19T19:02:04Z</time>
      </trkpt>
      <trkpt lat="44.52588" lon="6.80481">
        <ele>1907</ele>
        <time>2019-08-19T19:02:40Z</time>
      </trkpt>
      <trkpt lat="44.52583" lon="6.80505">
        <ele>1906</ele>
        <time>2019-08-19T19:03:04Z</time>
      </trkpt>
      <trkpt lat="44.5257" lon="6.80537">
        <ele>1908</ele>
        <time>2019-08-19T19:03:39Z</time>
      </trkpt>
      <trkpt lat="44.52563" lon="6.80574">
        <ele>1910</ele>
        <time>2019-08-19T19:04:15Z</time>
      </trkpt>
      <trkpt lat="44.52562" lon="6.80612">
        <ele>1912</ele>
        <time>2019-08-19T19:04:51Z</time>
      </trkpt>
      <trkpt lat="44.52548" lon="6.80684">
        <ele>1916</ele>
        <time>2019-08-19T19:06:02Z</time>
      </trkpt>
      <trkpt lat="44.52529" lon="6.8074">
        <ele>1912</ele>
        <time>2019-08-19T19:07:01Z</time>
      </trkpt>
      <trkpt lat="44.52521" lon="6.8075">
        <ele>1911</ele>
        <time>2019-08-19T19:07:16Z</time>
      </trkpt>
      <trkpt lat="44.52509" lon="6.80763">
        <ele>1912</ele>
        <time>2019-08-19T19:07:36Z</time>
      </trkpt>
      <trkpt lat="44.52501" lon="6.80772">
        <ele>1912</ele>
        <time>2019-08-19T19:07:49Z</time>
      </trkpt>
      <trkpt lat="44.52478" lon="6.80792">
        <ele>1916</ele>
        <time>2019-08-19T19:08:26Z</time>
      </trkpt>
      <trkpt lat="44.52459" lon="6.80827">
        <ele>1921</ele>
        <time>2019-08-19T19:09:07Z</time>
      </trkpt>
      <trkpt lat="44.52423" lon="6.80841">
        <ele>1923</ele>
        <time>2019-08-19T19:09:57Z</time>
      </trkpt>
      <trkpt lat="44.52409" lon="6.80848">
        <ele>1926</ele>
        <time>2019-08-19T19:10:17Z</time>
      </trkpt>
      <trkpt lat="44.52395" lon="6.80866">
        <ele>1930</ele>
        <time>2019-08-19T19:10:42Z</time>
      </trkpt>
      <trkpt lat="44.52384" lon="6.80887">
        <ele>1933</ele>
        <time>2019-08-19T19:11:07Z</time>
      </trkpt>
      <trkpt lat="44.52379" lon="6.80909">
        <ele>1935</ele>
        <time>2019-08-19T19:11:29Z</time>
      </trkpt>
      <trkpt lat="44.52377" lon="6.80942">
        <ele>1938</ele>
        <time>2019-08-19T19:12:01Z</time>
      </trkpt>
      <trkpt lat="44.52361" lon="6.80985">
        <ele>1943</ele>
        <time>2019-08-19T19:12:47Z</time>
      </trkpt>
      <trkpt lat="44.52345" lon="6.81005">
        <ele>1946</ele>
        <time>2019-08-19T19:13:15Z</time>
      </trkpt>
      <trkpt lat="44.52328" lon="6.81061">
        <ele>1956</ele>
        <time>2019-08-19T19:14:13Z</time>
      </trkpt>
      <trkpt lat="44.52315" lon="6.81094">
        <ele>1960</ele>
        <time>2019-08-19T19:14:49Z</time>
      </trkpt>
      <trkpt lat="44.52302" lon="6.81126">
        <ele>1963</ele>
        <time>2019-08-19T19:15:24Z</time>
      </trkpt>
      <trkpt lat="44.52272" lon="6.81168">
        <ele>1971</ele>
        <time>2019-08-19T19:16:21Z</time>
      </trkpt>
      <trkpt lat="44.52243" lon="6.81211">
        <ele>1980</ele>
        <time>2019-08-19T19:17:17Z</time>
      </trkpt>
      <trkpt lat="44.52183" lon="6.81295">
        <ele>1994</ele>
        <time>2019-08-19T19:19:10Z</time>
      </trkpt>
      <trkpt lat="44.52153" lon="6.81338">
        <ele>2000</ele>
        <time>2019-08-19T19:20:08Z</time>
      </trkpt>
      <trkpt lat="44.52124" lon="6.81356">
        <ele>2002</ele>
        <time>2019-08-19T19:20:50Z</time>
      </trkpt>
      <trkpt lat="44.52094" lon="6.81374">
        <ele>2007</ele>
        <time>2019-08-19T19:21:33Z</time>
      </trkpt>
      <trkpt lat="44.52067" lon="6.81401">
        <ele>2012</ele>
        <time>2019-08-19T19:22:18Z</time>
      </trkpt>
      <trkpt lat="44.5204" lon="6.81427">
        <ele>2015</ele>
        <time>2019-08-19T19:23:01Z</time>
      </trkpt>
      <trkpt lat="44.52031" lon="6.81473">
        <ele>2017</ele>
        <time>2019-08-19T19:23:47Z</time>
      </trkpt>
      <trkpt lat="44.52028" lon="6.81505">
        <ele>2019</ele>
        <time>2019-08-19T19:24:17Z</time>
      </trkpt>
      <trkpt lat="44.52018" lon="6.81542">
        <ele>2024</ele>
        <time>2019-08-19T19:24:55Z</time>
      </trkpt>
      <trkpt lat="44.52009" lon="6.81579">
        <ele>2030</ele>
        <time>2019-08-19T19:25:32Z</time>
      </trkpt>
      <trkpt lat="44.51985" lon="6.81572">
        <ele>2033</ele>
        <time>2019-08-19T19:26:05Z</time>
      </trkpt>
      <trkpt lat="44.51975" lon="6.81582">
        <ele>2036</ele>
        <time>2019-08-19T19:26:21Z</time>
      </trkpt>
      <trkpt lat="44.51978" lon="6.81605">
        <ele>2038</ele>
        <time>2019-08-19T19:26:44Z</time>
      </trkpt>
      <trkpt lat="44.51963" lon="6.81605">
        <ele>2041</ele>
        <time>2019-08-19T19:27:04Z</time>
      </trkpt>
      <trkpt lat="44.5195" lon="6.81595">
        <ele>2041</ele>
        <time>2019-08-19T19:27:23Z</time>
      </trkpt>
      <trkpt lat="44.51914" lon="6.81638">
        <ele>2054</ele>
        <time>2019-08-19T19:28:27Z</time>
      </trkpt>
      <trkpt lat="44.51888" lon="6.81657">
        <ele>2056</ele>
        <time>2019-08-19T19:29:06Z</time>
      </trkpt>
      <trkpt lat="44.51885" lon="6.81682">
        <ele>2060</ele>
        <time>2019-08-19T19:29:30Z</time>
      </trkpt>
      <trkpt lat="44.51904" lon="6.81705">
        <ele>2065</ele>
        <time>2019-08-19T19:30:03Z</time>
      </trkpt>
      <trkpt lat="44.51901" lon="6.81712">
        <ele>2066</ele>
        <time>2019-08-19T19:30:11Z</time>
      </trkpt>
      <trkpt lat="44.51878" lon="6.81714">
        <ele>2067</ele>
        <time>2019-08-19T19:30:42Z</time>
      </trkpt>
      <trkpt lat="44.51871" lon="6.81755">
        <ele>2075</ele>
        <time>2019-08-19T19:31:22Z</time>
      </trkpt>
      <trkpt lat="44.51842" lon="6.81758">
        <ele>2076</ele>
        <time>2019-08-19T19:32:01Z</time>
      </trkpt>
      <trkpt lat="44.51825" lon="6.81788">
        <ele>2082</ele>
        <time>2019-08-19T19:32:37Z</time>
      </trkpt>
      <trkpt lat="44.51827" lon="6.81801">
        <ele>2085</ele>
        <time>2019-08-19T19:32:50Z</time>
      </trkpt>
      <trkpt lat="44.5179" lon="6.81873">
        <ele>2097</ele>
        <time>2019-08-19T19:34:14Z</time>
      </trkpt>
      <trkpt lat="44.51772" lon="6.81908">
        <ele>2105</ele>
        <time>2019-08-19T19:34:55Z</time>
      </trkpt>
      <trkpt lat="44.51755" lon="6.81944">
        <ele>2113</ele>
        <time>2019-08-19T19:35:36Z</time>
      </trkpt>
      <trkpt lat="44.51737" lon="6.81979">
        <ele>2119</ele>
        <time>2019-08-19T19:36:17Z</time>
      </trkpt>
      <trkpt lat="44.5172" lon="6.82017">
        <ele>2124</ele>
        <time>2019-08-19T19:37:00Z</time>
      </trkpt>
      <trkpt lat="44.51703" lon="6.82055">
        <ele>2131</ele>
        <time>2019-08-19T19:37:43Z</time>
      </trkpt>
      <trkpt lat="44.51687" lon="6.82093">
        <ele>2139</ele>
        <time>2019-08-19T19:38:25Z</time>
      </trkpt>
      <trkpt lat="44.51676" lon="6.82131">
        <ele>2147</ele>
        <time>2019-08-19T19:39:04Z</time>
      </trkpt>
      <trkpt lat="44.51657" lon="6.82163">
        <ele>2152</ele>
        <time>2019-08-19T19:39:44Z</time>
      </trkpt>
      <trkpt lat="44.51629" lon="6.82193">
        <ele>2154</ele>
        <time>2019-08-19T19:40:31Z</time>
      </trkpt>
      <trkpt lat="44.51632" lon="6.822">
        <ele>2156</ele>
        <time>2019-08-19T19:40:38Z</time>
      </trkpt>
      <trkpt lat="44.51652" lon="6.82207">
        <ele>2160</ele>
        <time>2019-08-19T19:41:06Z</time>
      </trkpt>
      <trkpt lat="44.51656" lon="6.8222">
        <ele>2164</ele>
        <time>2019-08-19T19:41:19Z</time>
      </trkpt>
      <trkpt lat="44.5165" lon="6.82233">
        <ele>2166</ele>
        <time>2019-08-19T19:41:34Z</time>
      </trkpt>
      <trkpt lat="44.51632" lon="6.8225">
        <ele>2169</ele>
        <time>2019-08-19T19:42:03Z</time>
      </trkpt>
      <trkpt lat="44.51612" lon="6.82272">
        <ele>2171</ele>
        <time>2019-08-19T19:42:37Z</time>
      </trkpt>
      <trkpt lat="44.51589" lon="6.82284">
        <ele>2172</ele>
        <time>2019-08-19T19:43:10Z</time>
      </trkpt>
      <trkpt lat="44.51568" lon="6.82316">
        <ele>2175</ele>
        <time>2019-08-19T19:43:51Z</time>
      </trkpt>
      <trkpt lat="44.51564" lon="6.82359">
        <ele>2183</ele>
        <time>2019-08-19T19:44:32Z</time>
      </trkpt>
      <trkpt lat="44.51544" lon="6.824">
        <ele>2189</ele>
        <time>2019-08-19T19:45:20Z</time>
      </trkpt>
      <trkpt lat="44.5147" lon="6.82499">
        <ele>2198</ele>
        <time>2019-08-19T19:47:36Z</time>
      </trkpt>
      <trkpt lat="44.51439" lon="6.82541">
        <ele>2197</ele>
        <time>2019-08-19T19:48:34Z</time>
      </trkpt>
      <trkpt lat="44.51436" lon="6.82576">
        <ele>2200</ele>
        <time>2019-08-19T19:49:07Z</time>
      </trkpt>
      <trkpt lat="44.51434" lon="6.82611">
        <ele>2205</ele>
        <time>2019-08-19T19:49:41Z</time>
      </trkpt>
      <trkpt lat="44.51204" lon="6.82947">
        <ele>2216</ele>
        <time>2019-08-19T19:57:04Z</time>
      </trkpt>
      <trkpt lat="44.51176" lon="6.82989">
        <ele>2218</ele>
        <time>2019-08-19T19:57:58Z</time>
      </trkpt>
      <trkpt lat="44.51174" lon="6.83014">
        <ele>2222</ele>
        <time>2019-08-19T19:58:22Z</time>
      </trkpt>
      <trkpt lat="44.51137" lon="6.83085">
        <ele>2226</ele>
        <time>2019-08-19T19:59:46Z</time>
      </trkpt>
      <trkpt lat="44.51119" lon="6.8312">
        <ele>2230</ele>
        <time>2019-08-19T20:00:27Z</time>
      </trkpt>
      <trkpt lat="44.51072" lon="6.83186">
        <ele>2236</ele>
        <time>2019-08-19T20:01:56Z</time>
      </trkpt>
      <trkpt lat="44.51049" lon="6.83219">
        <ele>2242</ele>
        <time>2019-08-19T20:02:40Z</time>
      </trkpt>
      <trkpt lat="44.51005" lon="6.8324">
        <ele>2240</ele>
        <time>2019-08-19T20:03:42Z</time>
      </trkpt>
      <trkpt lat="44.50977" lon="6.83262">
        <ele>2244</ele>
        <time>2019-08-19T20:04:25Z</time>
      </trkpt>
      <trkpt lat="44.50875" lon="6.83464">
        <ele>2265</ele>
        <time>2019-08-19T20:08:20Z</time>
      </trkpt>
      <trkpt lat="44.5085" lon="6.83515">
        <ele>2269</ele>
        <time>2019-08-19T20:09:19Z</time>
      </trkpt>
      <trkpt lat="44.50824" lon="6.83565">
        <ele>2272</ele>
        <time>2019-08-19T20:10:18Z</time>
      </trkpt>
      <trkpt lat="44.50798" lon="6.83616">
        <ele>2278</ele>
        <time>2019-08-19T20:11:18Z</time>
      </trkpt>
      <trkpt lat="44.50643" lon="6.8372">
        <ele>2317</ele>
        <time>2019-08-19T20:15:07Z</time>
      </trkpt>
      <trkpt lat="44.50604" lon="6.83747">
        <ele>2329</ele>
        <time>2019-08-19T20:16:05Z</time>
      </trkpt>
      <trkpt lat="44.50574" lon="6.83761">
        <ele>2335</ele>
        <time>2019-08-19T20:16:47Z</time>
      </trkpt>
      <trkpt lat="44.50544" lon="6.83775">
        <ele>2337</ele>
        <time>2019-08-19T20:17:29Z</time>
      </trkpt>
      <trkpt lat="44.50521" lon="6.83813">
        <ele>2341</ele>
        <time>2019-08-19T20:18:17Z</time>
      </trkpt>
      <trkpt lat="44.50473" lon="6.83888">
        <ele>2345</ele>
        <time>2019-08-19T20:19:53Z</time>
      </trkpt>
      <trkpt lat="44.50453" lon="6.83895">
        <ele>2345</ele>
        <time>2019-08-19T20:20:20Z</time>
      </trkpt>
      <trkpt lat="44.50421" lon="6.83957">
        <ele>2351</ele>
        <time>2019-08-19T20:21:33Z</time>
      </trkpt>
      <trkpt lat="44.50421" lon="6.8397">
        <ele>2352</ele>
        <time>2019-08-19T20:21:45Z</time>
      </trkpt>
      <trkpt lat="44.50331" lon="6.84109">
        <ele>2374</ele>
        <time>2019-08-19T20:24:44Z</time>
      </trkpt>
      <trkpt lat="44.50301" lon="6.84156">
        <ele>2384</ele>
        <time>2019-08-19T20:25:44Z</time>
      </trkpt>
      <trkpt lat="44.50273" lon="6.84184">
        <ele>2396</ele>
        <time>2019-08-19T20:26:30Z</time>
      </trkpt>
      <trkpt lat="44.50244" lon="6.84213">
        <ele>2416</ele>
        <time>2019-08-19T20:27:18Z</time>
      </trkpt>
      <trkpt lat="44.50211" lon="6.84196">
        <ele>2428</ele>
        <time>2019-08-19T20:28:04Z</time>
      </trkpt>
      <trkpt lat="44.50179" lon="6.8418">
        <ele>2442</ele>
        <time>2019-08-19T20:28:50Z</time>
      </trkpt>
      <trkpt lat="44.50178" lon="6.84231">
        <ele>2455</ele>
        <time>2019-08-19T20:29:38Z</time>
      </trkpt>
      <trkpt lat="44.50178" lon="6.84281">
        <ele>2466</ele>
        <time>2019-08-19T20:30:26Z</time>
      </trkpt>
      <trkpt lat="44.5018" lon="6.84287">
        <ele>2466</ele>
        <time>2019-08-19T20:30:32Z</time>
      </trkpt>
      <trkpt lat="44.5019" lon="6.8431">
        <ele>2468</ele>
        <time>2019-08-19T20:30:58Z</time>
      </trkpt>
      <trkpt lat="44.50176" lon="6.84366">
        <ele>2486</ele>
        <time>2019-08-19T20:31:54Z</time>
      </trkpt>
      <trkpt lat="44.50162" lon="6.84422">
        <ele>2503</ele>
        <time>2019-08-19T20:32:51Z</time>
      </trkpt>
      <trkpt lat="44.50101" lon="6.8448">
        <ele>2508</ele>
        <time>2019-08-19T20:34:29Z</time>
      </trkpt>
      <trkpt lat="44.50071" lon="6.84509">
        <ele>2514</ele>
        <time>2019-08-19T20:35:18Z</time>
      </trkpt>
      <trkpt lat="44.5002" lon="6.84613">
        <ele>2518</ele>
        <time>2019-08-19T20:37:18Z</time>
      </trkpt>
      <trkpt lat="44.49995" lon="6.84665">
        <ele>2515</ele>
        <time>2019-08-19T20:38:18Z</time>
      </trkpt>
      <trkpt lat="44.4988" lon="6.84664">
        <ele>2507</ele>
        <time>2019-08-19T20:40:51Z</time>
      </trkpt>
      <trkpt lat="44.49841" lon="6.84664">
        <ele>2502</ele>
        <time>2019-08-19T20:41:43Z</time>
      </trkpt>
      <trkpt lat="44.49803" lon="6.84663">
        <ele>2497</ele>
        <time>2019-08-19T20:42:34Z</time>
      </trkpt>
      <trkpt lat="44.49765" lon="6.84663">
        <ele>2492</ele>
        <time>2019-08-19T20:43:25Z</time>
      </trkpt>
      <trkpt lat="44.49746" lon="6.84689">
        <ele>2490</ele>
        <time>2019-08-19T20:44:00Z</time>
      </trkpt>
      <trkpt lat="44.49754" lon="6.84746">
        <ele>2490</ele>
        <time>2019-08-19T20:44:55Z</time>
      </trkpt>
      <trkpt lat="44.49761" lon="6.84804">
        <ele>2489</ele>
        <time>2019-08-19T20:45:51Z</time>
      </trkpt>
      <trkpt lat="44.49775" lon="6.84815">
        <ele>2492</ele>
        <time>2019-08-19T20:46:13Z</time>
      </trkpt>
      <trkpt lat="44.49767" lon="6.84875">
        <ele>2492</ele>
        <time>2019-08-19T20:47:11Z</time>
      </trkpt>
      <trkpt lat="44.49746" lon="6.8489">
        <ele>2486</ele>
        <time>2019-08-19T20:47:42Z</time>
      </trkpt>
      <trkpt lat="44.4973" lon="6.8491">
        <ele>2485</ele>
        <time>2019-08-19T20:48:11Z</time>
      </trkpt>
      <trkpt lat="44.49705" lon="6.84914">
        <ele>2481</ele>
        <time>2019-08-19T20:48:44Z</time>
      </trkpt>
      <trkpt lat="44.49699" lon="6.84936">
        <ele>2479</ele>
        <time>2019-08-19T20:49:07Z</time>
      </trkpt>
      <trkpt lat="44.4969" lon="6.84952">
        <ele>2476</ele>
        <time>2019-08-19T20:49:26Z</time>
      </trkpt>
      <trkpt lat="44.49654" lon="6.84969">
        <ele>2467</ele>
        <time>2019-08-19T20:50:17Z</time>
      </trkpt>
      <trkpt lat="44.49646" lon="6.84982">
        <ele>2465</ele>
        <time>2019-08-19T20:50:33Z</time>
      </trkpt>
      <trkpt lat="44.49582" lon="6.84988">
        <ele>2461</ele>
        <time>2019-08-19T20:51:59Z</time>
      </trkpt>
      <trkpt lat="44.49563" lon="6.84994">
        <ele>2459</ele>
        <time>2019-08-19T20:52:25Z</time>
      </trkpt>
      <trkpt lat="44.49532" lon="6.85009">
        <ele>2456</ele>
        <time>2019-08-19T20:53:09Z</time>
      </trkpt>
      <trkpt lat="44.49503" lon="6.85025">
        <ele>2454</ele>
        <time>2019-08-19T20:53:50Z</time>
      </trkpt>
      <trkpt lat="44.49479" lon="6.85048">
        <ele>2453</ele>
        <time>2019-08-19T20:54:29Z</time>
      </trkpt>
      <trkpt lat="44.49458" lon="6.85058">
        <ele>2451</ele>
        <time>2019-08-19T20:54:59Z</time>
      </trkpt>
      <trkpt lat="44.49374" lon="6.85058">
        <ele>2440</ele>
        <time>2019-08-19T20:56:51Z</time>
      </trkpt>
      <trkpt lat="44.49338" lon="6.85064">
        <ele>2436</ele>
        <time>2019-08-19T20:57:39Z</time>
      </trkpt>
      <trkpt lat="44.49324" lon="6.8506">
        <ele>2435</ele>
        <time>2019-08-19T20:57:58Z</time>
      </trkpt>
      <trkpt lat="44.49286" lon="6.85051">
        <ele>2436</ele>
        <time>2019-08-19T20:58:50Z</time>
      </trkpt>
      <trkpt lat="44.49254" lon="6.85063">
        <ele>2436</ele>
        <time>2019-08-19T20:59:34Z</time>
      </trkpt>
      <trkpt lat="44.49223" lon="6.85074">
        <ele>2433</ele>
        <time>2019-08-19T21:00:17Z</time>
      </trkpt>
      <trkpt lat="44.49215" lon="6.85072">
        <ele>2432</ele>
        <time>2019-08-19T21:00:27Z</time>
      </trkpt>
      <trkpt lat="44.49186" lon="6.85053">
        <ele>2431</ele>
        <time>2019-08-19T21:01:10Z</time>
      </trkpt>
      <trkpt lat="44.49186" lon="6.85036">
        <ele>2433</ele>
        <time>2019-08-19T21:01:26Z</time>
      </trkpt>
      <trkpt lat="44.49155" lon="6.85022">
        <ele>2430</ele>
        <time>2019-08-19T21:02:10Z</time>
      </trkpt>
      <trkpt lat="44.4911" lon="6.84993">
        <ele>2423</ele>
        <time>2019-08-19T21:03:16Z</time>
      </trkpt>
      <trkpt lat="44.49102" lon="6.84979">
        <ele>2422</ele>
        <time>2019-08-19T21:03:33Z</time>
      </trkpt>
      <trkpt lat="44.4909" lon="6.84972">
        <ele>2419</ele>
        <time>2019-08-19T21:03:50Z</time>
      </trkpt>
      <trkpt lat="44.49079" lon="6.84973">
        <ele>2417</ele>
        <time>2019-08-19T21:04:05Z</time>
      </trkpt>
      <trkpt lat="44.4905" lon="6.84952">
        <ele>2412</ele>
        <time>2019-08-19T21:04:48Z</time>
      </trkpt>
      <trkpt lat="44.4902" lon="6.84932">
        <ele>2405</ele>
        <time>2019-08-19T21:05:33Z</time>
      </trkpt>
      <trkpt lat="44.49004" lon="6.84932">
        <ele>2402</ele>
        <time>2019-08-19T21:05:54Z</time>
      </trkpt>
      <trkpt lat="44.48986" lon="6.84909">
        <ele>2395</ele>
        <time>2019-08-19T21:06:27Z</time>
      </trkpt>
      <trkpt lat="44.48961" lon="6.84896">
        <ele>2388</ele>
        <time>2019-08-19T21:07:02Z</time>
      </trkpt>
      <trkpt lat="44.4895" lon="6.84896">
        <ele>2386</ele>
        <time>2019-08-19T21:07:17Z</time>
      </trkpt>
      <trkpt lat="44.48931" lon="6.84903">
        <ele>2384</ele>
        <time>2019-08-19T21:07:43Z</time>
      </trkpt>
      <trkpt lat="44.48895" lon="6.84923">
        <ele>2379</ele>
        <time>2019-08-19T21:08:35Z</time>
      </trkpt>
      <trkpt lat="44.4886" lon="6.84944">
        <ele>2373</ele>
        <time>2019-08-19T21:09:26Z</time>
      </trkpt>
      <trkpt lat="44.48825" lon="6.84964">
        <ele>2368</ele>
        <time>2019-08-19T21:10:16Z</time>
      </trkpt>
      <trkpt lat="44.48784" lon="6.8504">
        <ele>2375</ele>
        <time>2019-08-19T21:11:47Z</time>
      </trkpt>
      <trkpt lat="44.48776" lon="6.85043">
        <ele>2375</ele>
        <time>2019-08-19T21:11:58Z</time>
      </trkpt>
      <trkpt lat="44.4877" lon="6.85038">
        <ele>2375</ele>
        <time>2019-08-19T21:12:07Z</time>
      </trkpt>
      <trkpt lat="44.48756" lon="6.84987">
        <ele>2365</ele>
        <time>2019-08-19T21:12:59Z</time>
      </trkpt>
      <trkpt lat="44.4872" lon="6.84963">
        <ele>2359</ele>
        <time>2019-08-19T21:13:52Z</time>
      </trkpt>
      <trkpt lat="44.48691" lon="6.8496">
        <ele>2360</ele>
        <time>2019-08-19T21:14:31Z</time>
      </trkpt>
      <trkpt lat="44.48657" lon="6.84953">
        <ele>2359</ele>
        <time>2019-08-19T21:15:17Z</time>
      </trkpt>
      <trkpt lat="44.48649" lon="6.84955">
        <ele>2360</ele>
        <time>2019-08-19T21:15:28Z</time>
      </trkpt>
      <trkpt lat="44.48633" lon="6.84954">
        <ele>2360</ele>
        <time>2019-08-19T21:15:49Z</time>
      </trkpt>
      <trkpt lat="44.48613" lon="6.84943">
        <ele>2359</ele>
        <time>2019-08-19T21:16:18Z</time>
      </trkpt>
      <trkpt lat="44.48587" lon="6.84956">
        <ele>2362</ele>
        <time>2019-08-19T21:16:55Z</time>
      </trkpt>
      <trkpt lat="44.4858" lon="6.84954">
        <ele>2362</ele>
        <time>2019-08-19T21:17:04Z</time>
      </trkpt>
      <trkpt lat="44.48566" lon="6.84941">
        <ele>2361</ele>
        <time>2019-08-19T21:17:27Z</time>
      </trkpt>
      <trkpt lat="44.48548" lon="6.84914">
        <ele>2358</ele>
        <time>2019-08-19T21:18:02Z</time>
      </trkpt>
      <trkpt lat="44.48532" lon="6.84899">
        <ele>2356</ele>
        <time>2019-08-19T21:18:28Z</time>
      </trkpt>
      <trkpt lat="44.48516" lon="6.84894">
        <ele>2356</ele>
        <time>2019-08-19T21:18:49Z</time>
      </trkpt>
      <trkpt lat="44.48497" lon="6.84881">
        <ele>2355</ele>
        <time>2019-08-19T21:19:18Z</time>
      </trkpt>
      <trkpt lat="44.48475" lon="6.84878">
        <ele>2361</ele>
        <time>2019-08-19T21:19:47Z</time>
      </trkpt>
      <trkpt lat="44.48459" lon="6.84866">
        <ele>2363</ele>
        <time>2019-08-19T21:20:11Z</time>
      </trkpt>
      <trkpt lat="44.48439" lon="6.84837">
        <ele>2363</ele>
        <time>2019-08-19T21:20:50Z</time>
      </trkpt>
      <trkpt lat="44.48432" lon="6.84814">
        <ele>2362</ele>
        <time>2019-08-19T21:21:14Z</time>
      </trkpt>
      <trkpt lat="44.48417" lon="6.84791">
        <ele>2364</ele>
        <time>2019-08-19T21:21:43Z</time>
      </trkpt>
      <trkpt lat="44.48411" lon="6.84775">
        <ele>2363</ele>
        <time>2019-08-19T21:22:00Z</time>
      </trkpt>
      <trkpt lat="44.48403" lon="6.84766">
        <ele>2363</ele>
        <time>2019-08-19T21:22:14Z</time>
      </trkpt>
      <trkpt lat="44.48401" lon="6.84758">
        <ele>2362</ele>
        <time>2019-08-19T21:22:22Z</time>
      </trkpt>
      <trkpt lat="44.48394" lon="6.84752">
        <ele>2362</ele>
        <time>2019-08-19T21:22:33Z</time>
      </trkpt>
      <trkpt lat="44.4839" lon="6.84738">
        <ele>2362</ele>
        <time>2019-08-19T21:22:48Z</time>
      </trkpt>
      <trkpt lat="44.48384" lon="6.84735">
        <ele>2362</ele>
        <time>2019-08-19T21:22:56Z</time>
      </trkpt>
      <trkpt lat="44.4838" lon="6.84727">
        <ele>2362</ele>
        <time>2019-08-19T21:23:05Z</time>
      </trkpt>
      <trkpt lat="44.48366" lon="6.84723">
        <ele>2364</ele>
        <time>2019-08-19T21:23:24Z</time>
      </trkpt>
      <trkpt lat="44.48358" lon="6.84726">
        <ele>2365</ele>
        <time>2019-08-19T21:23:35Z</time>
      </trkpt>
      <trkpt lat="44.48358" lon="6.84726">
        <ele>2365</ele>
        <time>2019-08-19T21:23:36Z</time>
      </trkpt>
      <trkpt lat="44.48353" lon="6.84731">
        <ele>2366</ele>
        <time>2019-08-19T21:23:44Z</time>
      </trkpt>
      <trkpt lat="44.4833" lon="6.84745">
        <ele>2368</ele>
        <time>2019-08-19T21:24:17Z</time>
      </trkpt>
      <trkpt lat="44.48307" lon="6.8476">
        <ele>2374</ele>
        <time>2019-08-19T21:24:51Z</time>
      </trkpt>
      <trkpt lat="44.4827" lon="6.84789">
        <ele>2383</ele>
        <time>2019-08-19T21:25:48Z</time>
      </trkpt>
      <trkpt lat="44.48233" lon="6.84818">
        <ele>2388</ele>
        <time>2019-08-19T21:26:44Z</time>
      </trkpt>
      <trkpt lat="44.48209" lon="6.8482">
        <ele>2391</ele>
        <time>2019-08-19T21:27:16Z</time>
      </trkpt>
      <trkpt lat="44.48179" lon="6.84831">
        <ele>2392</ele>
        <time>2019-08-19T21:27:58Z</time>
      </trkpt>
      <trkpt lat="44.4815" lon="6.84841">
        <ele>2396</ele>
        <time>2019-08-19T21:28:38Z</time>
      </trkpt>
      <trkpt lat="44.48135" lon="6.84854">
        <ele>2399</ele>
        <time>2019-08-19T21:29:01Z</time>
      </trkpt>
      <trkpt lat="44.48117" lon="6.84856">
        <ele>2402</ele>
        <time>2019-08-19T21:29:25Z</time>
      </trkpt>
      <trkpt lat="44.48093" lon="6.84868">
        <ele>2406</ele>
        <time>2019-08-19T21:29:59Z</time>
      </trkpt>
      <trkpt lat="44.48071" lon="6.84885">
        <ele>2408</ele>
        <time>2019-08-19T21:30:33Z</time>
      </trkpt>
      <trkpt lat="44.48048" lon="6.84902">
        <ele>2410</ele>
        <time>2019-08-19T21:31:07Z</time>
      </trkpt>
      <trkpt lat="44.48037" lon="6.84914">
        <ele>2411</ele>
        <time>2019-08-19T21:31:26Z</time>
      </trkpt>
      <trkpt lat="44.48025" lon="6.84942">
        <ele>2415</ele>
        <time>2019-08-19T21:31:57Z</time>
      </trkpt>
      <trkpt lat="44.48012" lon="6.8497">
        <ele>2418</ele>
        <time>2019-08-19T21:32:29Z</time>
      </trkpt>
      <trkpt lat="44.47978" lon="6.84998">
        <ele>2423</ele>
        <time>2019-08-19T21:33:22Z</time>
      </trkpt>
      <trkpt lat="44.47961" lon="6.85008">
        <ele>2425</ele>
        <time>2019-08-19T21:33:46Z</time>
      </trkpt>
      <trkpt lat="44.47952" lon="6.85013">
        <ele>2427</ele>
        <time>2019-08-19T21:33:59Z</time>
      </trkpt>
      <trkpt lat="44.47945" lon="6.85012">
        <ele>2427</ele>
        <time>2019-08-19T21:34:08Z</time>
      </trkpt>
      <trkpt lat="44.47933" lon="6.84998">
        <ele>2427</ele>
        <time>2019-08-19T21:34:29Z</time>
      </trkpt>
      <trkpt lat="44.4792" lon="6.85005">
        <ele>2428</ele>
        <time>2019-08-19T21:34:48Z</time>
      </trkpt>
      <trkpt lat="44.47908" lon="6.85017">
        <ele>2432</ele>
        <time>2019-08-19T21:35:08Z</time>
      </trkpt>
      <trkpt lat="44.4789" lon="6.85038">
        <ele>2440</ele>
        <time>2019-08-19T21:35:39Z</time>
      </trkpt>
      <trkpt lat="44.4788" lon="6.85055">
        <ele>2444</ele>
        <time>2019-08-19T21:36:00Z</time>
      </trkpt>
      <trkpt lat="44.47869" lon="6.8508">
        <ele>2448</ele>
        <time>2019-08-19T21:36:28Z</time>
      </trkpt>
      <trkpt lat="44.47858" lon="6.85096">
        <ele>2454</ele>
        <time>2019-08-19T21:36:49Z</time>
      </trkpt>
      <trkpt lat="44.47837" lon="6.8511">
        <ele>2460</ele>
        <time>2019-08-19T21:37:20Z</time>
      </trkpt>
      <trkpt lat="44.47815" lon="6.85124">
        <ele>2468</ele>
        <time>2019-08-19T21:37:52Z</time>
      </trkpt>
      <trkpt lat="44.47799" lon="6.85132">
        <ele>2473</ele>
        <time>2019-08-19T21:38:15Z</time>
      </trkpt>
      <trkpt lat="44.47787" lon="6.85139">
        <ele>2476</ele>
        <time>2019-08-19T21:38:32Z</time>
      </trkpt>
      <trkpt lat="44.47769" lon="6.85164">
        <ele>2480</ele>
        <time>2019-08-19T21:39:06Z</time>
      </trkpt>
      <trkpt lat="44.47749" lon="6.85197">
        <ele>2484</ele>
        <time>2019-08-19T21:39:47Z</time>
      </trkpt>
      <trkpt lat="44.47739" lon="6.85223">
        <ele>2485</ele>
        <time>2019-08-19T21:40:15Z</time>
      </trkpt>
      <trkpt lat="44.47736" lon="6.85222">
        <ele>2485</ele>
        <time>2019-08-19T21:40:19Z</time>
      </trkpt>
      <trkpt lat="44.47736" lon="6.85217">
        <ele>2486</ele>
        <time>2019-08-19T21:40:24Z</time>
      </trkpt>
      <trkpt lat="44.47738" lon="6.85183">
        <ele>2486</ele>
        <time>2019-08-19T21:40:57Z</time>
      </trkpt>
      <trkpt lat="44.47734" lon="6.85164">
        <ele>2488</ele>
        <time>2019-08-19T21:41:16Z</time>
      </trkpt>
      <trkpt lat="44.47731" lon="6.85161">
        <ele>2489</ele>
        <time>2019-08-19T21:41:20Z</time>
      </trkpt>
      <trkpt lat="44.47728" lon="6.85161">
        <ele>2489</ele>
        <time>2019-08-19T21:41:24Z</time>
      </trkpt>
      <trkpt lat="44.47724" lon="6.85189">
        <ele>2489</ele>
        <time>2019-08-19T21:41:52Z</time>
      </trkpt>
      <trkpt lat="44.47702" lon="6.85238">
        <ele>2492</ele>
        <time>2019-08-19T21:42:47Z</time>
      </trkpt>
      <trkpt lat="44.47682" lon="6.85282">
        <ele>2498</ele>
        <time>2019-08-19T21:43:36Z</time>
      </trkpt>
      <trkpt lat="44.47664" lon="6.85306">
        <ele>2501</ele>
        <time>2019-08-19T21:44:10Z</time>
      </trkpt>
      <trkpt lat="44.47637" lon="6.85338">
        <ele>2505</ele>
        <time>2019-08-19T21:44:57Z</time>
      </trkpt>
      <trkpt lat="44.47615" lon="6.85322">
        <ele>2508</ele>
        <time>2019-08-19T21:45:30Z</time>
      </trkpt>
      <trkpt lat="44.47598" lon="6.85302">
        <ele>2512</ele>
        <time>2019-08-19T21:46:00Z</time>
      </trkpt>
      <trkpt lat="44.47594" lon="6.85292">
        <ele>2514</ele>
        <time>2019-08-19T21:46:10Z</time>
      </trkpt>
      <trkpt lat="44.47593" lon="6.85275">
        <ele>2516</ele>
        <time>2019-08-19T21:46:27Z</time>
      </trkpt>
      <trkpt lat="44.47599" lon="6.85246">
        <ele>2518</ele>
        <time>2019-08-19T21:46:55Z</time>
      </trkpt>
      <trkpt lat="44.47622" lon="6.85193">
        <ele>2520</ele>
        <time>2019-08-19T21:47:54Z</time>
      </trkpt>
      <trkpt lat="44.47619" lon="6.85145">
        <ele>2531</ele>
        <time>2019-08-19T21:48:40Z</time>
      </trkpt>
      <trkpt lat="44.4762" lon="6.85136">
        <ele>2532</ele>
        <time>2019-08-19T21:48:49Z</time>
      </trkpt>
      <trkpt lat="44.47619" lon="6.85134">
        <ele>2533</ele>
        <time>2019-08-19T21:48:51Z</time>
      </trkpt>
      <trkpt lat="44.47617" lon="6.85134">
        <ele>2534</ele>
        <time>2019-08-19T21:48:54Z</time>
      </trkpt>
      <trkpt lat="44.47605" lon="6.85186">
        <ele>2530</ele>
        <time>2019-08-19T21:49:46Z</time>
      </trkpt>
      <trkpt lat="44.47577" lon="6.85212">
        <ele>2534</ele>
        <time>2019-08-19T21:50:31Z</time>
      </trkpt>
      <trkpt lat="44.47548" lon="6.85237">
        <ele>2534</ele>
        <time>2019-08-19T21:51:16Z</time>
      </trkpt>
      <trkpt lat="44.47535" lon="6.8526">
        <ele>2534</ele>
        <time>2019-08-19T21:51:44Z</time>
      </trkpt>
      <trkpt lat="44.47545" lon="6.85224">
        <ele>2537</ele>
        <time>2019-08-19T21:52:21Z</time>
      </trkpt>
      <trkpt lat="44.47532" lon="6.8525">
        <ele>2536</ele>
        <time>2019-08-19T21:52:51Z</time>
      </trkpt>
      <trkpt lat="44.47507" lon="6.85281">
        <ele>2543</ele>
        <time>2019-08-19T21:53:36Z</time>
      </trkpt>
      <trkpt lat="44.47505" lon="6.85254">
        <ele>2544</ele>
        <time>2019-08-19T21:54:02Z</time>
      </trkpt>
      <trkpt lat="44.47509" lon="6.85242">
        <ele>2543</ele>
        <time>2019-08-19T21:54:14Z</time>
      </trkpt>
      <trkpt lat="44.47509" lon="6.85224">
        <ele>2545</ele>
        <time>2019-08-19T21:54:31Z</time>
      </trkpt>
      <trkpt lat="44.47515" lon="6.85196">
        <ele>2546</ele>
        <time>2019-08-19T21:54:59Z</time>
      </trkpt>
      <trkpt lat="44.47512" lon="6.85182">
        <ele>2548</ele>
        <time>2019-08-19T21:55:13Z</time>
      </trkpt>
      <trkpt lat="44.47497" lon="6.85153">
        <ele>2550</ele>
        <time>2019-08-19T21:55:47Z</time>
      </trkpt>
      <trkpt lat="44.47481" lon="6.85125">
        <ele>2543</ele>
        <time>2019-08-19T21:56:21Z</time>
      </trkpt>
      <trkpt lat="44.4747" lon="6.85096">
        <ele>2537</ele>
        <time>2019-08-19T21:56:53Z</time>
      </trkpt>
      <trkpt lat="44.47474" lon="6.85129">
        <ele>2537</ele>
        <time>2019-08-19T21:57:25Z</time>
      </trkpt>
      <trkpt lat="44.47478" lon="6.85162">
        <ele>2537</ele>
        <time>2019-08-19T21:57:56Z</time>
      </trkpt>
      <trkpt lat="44.47462" lon="6.85128">
        <ele>2529</ele>
        <time>2019-08-19T21:58:35Z</time>
      </trkpt>
      <trkpt lat="44.47446" lon="6.85093">
        <ele>2518</ele>
        <time>2019-08-19T21:59:15Z</time>
      </trkpt>
      <trkpt lat="44.47443" lon="6.85127">
        <ele>2516</ele>
        <time>2019-08-19T21:59:47Z</time>
      </trkpt>
      <trkpt lat="44.47441" lon="6.8516">
        <ele>2515</ele>
        <time>2019-08-19T22:00:19Z</time>
      </trkpt>
      <trkpt lat="44.47433" lon="6.8515">
        <ele>2509</ele>
        <time>2019-08-19T22:00:33Z</time>
      </trkpt>
      <trkpt lat="44.47422" lon="6.85125">
        <ele>2501</ele>
        <time>2019-08-19T22:01:01Z</time>
      </trkpt>
      <trkpt lat="44.47417" lon="6.85103">
        <ele>2496</ele>
        <time>2019-08-19T22:01:23Z</time>
      </trkpt>
      <trkpt lat="44.47407" lon="6.85077">
        <ele>2491</ele>
        <time>2019-08-19T22:01:51Z</time>
      </trkpt>
      <trkpt lat="44.47407" lon="6.85063">
        <ele>2492</ele>
        <time>2019-08-19T22:02:05Z</time>
      </trkpt>
      <trkpt lat="44.47405" lon="6.85045">
        <ele>2492</ele>
        <time>2019-08-19T22:02:22Z</time>
      </trkpt>
      <trkpt lat="44.47404" lon="6.85035">
        <ele>2492</ele>
        <time>2019-08-19T22:02:32Z</time>
      </trkpt>
      <trkpt lat="44.47398" lon="6.85018">
        <ele>2490</ele>
        <time>2019-08-19T22:02:50Z</time>
      </trkpt>
      <trkpt lat="44.4738" lon="6.84996">
        <ele>2482</ele>
        <time>2019-08-19T22:03:22Z</time>
      </trkpt>
      <trkpt lat="44.47362" lon="6.84975">
        <ele>2475</ele>
        <time>2019-08-19T22:03:53Z</time>
      </trkpt>
      <trkpt lat="44.47358" lon="6.84974">
        <ele>2472</ele>
        <time>2019-08-19T22:03:58Z</time>
      </trkpt>
      <trkpt lat="44.47343" lon="6.84956">
        <ele>2466</ele>
        <time>2019-08-19T22:04:25Z</time>
      </trkpt>
      <trkpt lat="44.47317" lon="6.84959">
        <ele>2453</ele>
        <time>2019-08-19T22:04:59Z</time>
      </trkpt>
      <trkpt lat="44.47292" lon="6.84961">
        <ele>2441</ele>
        <time>2019-08-19T22:05:33Z</time>
      </trkpt>
      <trkpt lat="44.47282" lon="6.84927">
        <ele>2436</ele>
        <time>2019-08-19T22:06:08Z</time>
      </trkpt>
      <trkpt lat="44.4726" lon="6.84953">
        <ele>2426</ele>
        <time>2019-08-19T22:06:46Z</time>
      </trkpt>
      <trkpt lat="44.47257" lon="6.84939">
        <ele>2424</ele>
        <time>2019-08-19T22:07:00Z</time>
      </trkpt>
      <trkpt lat="44.47247" lon="6.8494">
        <ele>2419</ele>
        <time>2019-08-19T22:07:14Z</time>
      </trkpt>
      <trkpt lat="44.47243" lon="6.84932">
        <ele>2416</ele>
        <time>2019-08-19T22:07:23Z</time>
      </trkpt>
      <trkpt lat="44.47234" lon="6.84931">
        <ele>2411</ele>
        <time>2019-08-19T22:07:35Z</time>
      </trkpt>
      <trkpt lat="44.47232" lon="6.84915">
        <ele>2409</ele>
        <time>2019-08-19T22:07:50Z</time>
      </trkpt>
      <trkpt lat="44.47212" lon="6.84883">
        <ele>2398</ele>
        <time>2019-08-19T22:08:31Z</time>
      </trkpt>
      <trkpt lat="44.47201" lon="6.84875">
        <ele>2391</ele>
        <time>2019-08-19T22:08:47Z</time>
      </trkpt>
      <trkpt lat="44.47197" lon="6.84869">
        <ele>2389</ele>
        <time>2019-08-19T22:08:55Z</time>
      </trkpt>
      <trkpt lat="44.4719" lon="6.84868">
        <ele>2385</ele>
        <time>2019-08-19T22:09:05Z</time>
      </trkpt>
      <trkpt lat="44.4718" lon="6.84896">
        <ele>2380</ele>
        <time>2019-08-19T22:09:34Z</time>
      </trkpt>
      <trkpt lat="44.47162" lon="6.8491">
        <ele>2371</ele>
        <time>2019-08-19T22:10:02Z</time>
      </trkpt>
      <trkpt lat="44.47145" lon="6.84943">
        <ele>2364</ele>
        <time>2019-08-19T22:10:41Z</time>
      </trkpt>
      <trkpt lat="44.47131" lon="6.84959">
        <ele>2358</ele>
        <time>2019-08-19T22:11:05Z</time>
      </trkpt>
      <trkpt lat="44.47126" lon="6.84982">
        <ele>2357</ele>
        <time>2019-08-19T22:11:28Z</time>
      </trkpt>
      <trkpt lat="44.47102" lon="6.85011">
        <ele>2349</ele>
        <time>2019-08-19T22:12:10Z</time>
      </trkpt>
      <trkpt lat="44.4708" lon="6.8502">
        <ele>2341</ele>
        <time>2019-08-19T22:12:41Z</time>
      </trkpt>
      <trkpt lat="44.47065" lon="6.8502">
        <ele>2336</ele>
        <time>2019-08-19T22:13:01Z</time>
      </trkpt>
      <trkpt lat="44.47055" lon="6.85031">
        <ele>2335</ele>
        <time>2019-08-19T22:13:18Z</time>
      </trkpt>
      <trkpt lat="44.4703" lon="6.85039">
        <ele>2330</ele>
        <time>2019-08-19T22:13:52Z</time>
      </trkpt>
      <trkpt lat="44.47004" lon="6.85046">
        <ele>2324</ele>
        <time>2019-08-19T22:14:27Z</time>
      </trkpt>
      <trkpt lat="44.46994" lon="6.85044">
        <ele>2321</ele>
        <time>2019-08-19T22:14:41Z</time>
      </trkpt>
      <trkpt lat="44.46976" lon="6.85053">
        <ele>2319</ele>
        <time>2019-08-19T22:15:06Z</time>
      </trkpt>
      <trkpt lat="44.46937" lon="6.85054">
        <ele>2311</ele>
        <time>2019-08-19T22:15:58Z</time>
      </trkpt>
      <trkpt lat="44.46925" lon="6.85055">
        <ele>2309</ele>
        <time>2019-08-19T22:16:14Z</time>
      </trkpt>
      <trkpt lat="44.46913" lon="6.85054">
        <ele>2306</ele>
        <time>2019-08-19T22:16:30Z</time>
      </trkpt>
      <trkpt lat="44.46887" lon="6.85047">
        <ele>2298</ele>
        <time>2019-08-19T22:17:06Z</time>
      </trkpt>
      <trkpt lat="44.46853" lon="6.8504">
        <ele>2288</ele>
        <time>2019-08-19T22:17:51Z</time>
      </trkpt>
      <trkpt lat="44.4684" lon="6.85036">
        <ele>2284</ele>
        <time>2019-08-19T22:18:09Z</time>
      </trkpt>
      <trkpt lat="44.46836" lon="6.85032">
        <ele>2282</ele>
        <time>2019-08-19T22:18:16Z</time>
      </trkpt>
      <trkpt lat="44.46821" lon="6.85031">
        <ele>2278</ele>
        <time>2019-08-19T22:18:36Z</time>
      </trkpt>
      <trkpt lat="44.46795" lon="6.85015">
        <ele>2268</ele>
        <time>2019-08-19T22:19:14Z</time>
      </trkpt>
      <trkpt lat="44.46777" lon="6.85004">
        <ele>2262</ele>
        <time>2019-08-19T22:19:40Z</time>
      </trkpt>
      <trkpt lat="44.46756" lon="6.84982">
        <ele>2255</ele>
        <time>2019-08-19T22:20:15Z</time>
      </trkpt>
      <trkpt lat="44.4675" lon="6.84967">
        <ele>2252</ele>
        <time>2019-08-19T22:20:31Z</time>
      </trkpt>
      <trkpt lat="44.4674" lon="6.84966">
        <ele>2249</ele>
        <time>2019-08-19T22:20:45Z</time>
      </trkpt>
      <trkpt lat="44.46719" lon="6.84977">
        <ele>2242</ele>
        <time>2019-08-19T22:21:15Z</time>
      </trkpt>
      <trkpt lat="44.46708" lon="6.84972">
        <ele>2238</ele>
        <time>2019-08-19T22:21:30Z</time>
      </trkpt>
      <trkpt lat="44.46683" lon="6.84982">
        <ele>2230</ele>
        <time>2019-08-19T22:22:05Z</time>
      </trkpt>
      <trkpt lat="44.46675" lon="6.84981">
        <ele>2227</ele>
        <time>2019-08-19T22:22:15Z</time>
      </trkpt>
      <trkpt lat="44.4667" lon="6.84982">
        <ele>2226</ele>
        <time>2019-08-19T22:22:22Z</time>
      </trkpt>
      <trkpt lat="44.46662" lon="6.84976">
        <ele>2222</ele>
        <time>2019-08-19T22:22:34Z</time>
      </trkpt>
      <trkpt lat="44.46653" lon="6.84974">
        <ele>2217</ele>
        <time>2019-08-19T22:22:46Z</time>
      </trkpt>
      <trkpt lat="44.46647" lon="6.84979">
        <ele>2215</ele>
        <time>2019-08-19T22:22:56Z</time>
      </trkpt>
      <trkpt lat="44.46642" lon="6.84977">
        <ele>2212</ele>
        <time>2019-08-19T22:23:03Z</time>
      </trkpt>
      <trkpt lat="44.46642" lon="6.84951">
        <ele>2211</ele>
        <time>2019-08-19T22:23:27Z</time>
      </trkpt>
      <trkpt lat="44.46629" lon="6.84972">
        <ele>2205</ele>
        <time>2019-08-19T22:23:54Z</time>
      </trkpt>
      <trkpt lat="44.46626" lon="6.84968">
        <ele>2203</ele>
        <time>2019-08-19T22:23:59Z</time>
      </trkpt>
      <trkpt lat="44.46625" lon="6.84951">
        <ele>2202</ele>
        <time>2019-08-19T22:24:16Z</time>
      </trkpt>
      <trkpt lat="44.46613" lon="6.8497">
        <ele>2197</ele>
        <time>2019-08-19T22:24:40Z</time>
      </trkpt>
      <trkpt lat="44.46607" lon="6.8495">
        <ele>2192</ele>
        <time>2019-08-19T22:25:00Z</time>
      </trkpt>
      <trkpt lat="44.46603" lon="6.8497">
        <ele>2192</ele>
        <time>2019-08-19T22:25:20Z</time>
      </trkpt>
      <trkpt lat="44.46604" lon="6.84979">
        <ele>2193</ele>
        <time>2019-08-19T22:25:29Z</time>
      </trkpt>
      <trkpt lat="44.46594" lon="6.85003">
        <ele>2190</ele>
        <time>2019-08-19T22:25:55Z</time>
      </trkpt>
      <trkpt lat="44.46594" lon="6.84983">
        <ele>2189</ele>
        <time>2019-08-19T22:26:14Z</time>
      </trkpt>
      <trkpt lat="44.46593" lon="6.84987">
        <ele>2188</ele>
        <time>2019-08-19T22:26:18Z</time>
      </trkpt>
      <trkpt lat="44.46582" lon="6.84997">
        <ele>2184</ele>
        <time>2019-08-19T22:26:36Z</time>
      </trkpt>
      <trkpt lat="44.4658" lon="6.84979">
        <ele>2181</ele>
        <time>2019-08-19T22:26:53Z</time>
      </trkpt>
      <trkpt lat="44.46569" lon="6.84997">
        <ele>2177</ele>
        <time>2019-08-19T22:27:16Z</time>
      </trkpt>
      <trkpt lat="44.46561" lon="6.8502">
        <ele>2172</ele>
        <time>2019-08-19T22:27:40Z</time>
      </trkpt>
      <trkpt lat="44.46553" lon="6.8505">
        <ele>2166</ele>
        <time>2019-08-19T22:28:11Z</time>
      </trkpt>
      <trkpt lat="44.46551" lon="6.85076">
        <ele>2164</ele>
        <time>2019-08-19T22:28:36Z</time>
      </trkpt>
      <trkpt lat="44.46535" lon="6.8505">
        <ele>2156</ele>
        <time>2019-08-19T22:29:08Z</time>
      </trkpt>
      <trkpt lat="44.46518" lon="6.85024">
        <ele>2148</ele>
        <time>2019-08-19T22:29:42Z</time>
      </trkpt>
      <trkpt lat="44.46516" lon="6.85025">
        <ele>2147</ele>
        <time>2019-08-19T22:29:45Z</time>
      </trkpt>
      <trkpt lat="44.46504" lon="6.84984">
        <ele>2140</ele>
        <time>2019-08-19T22:30:27Z</time>
      </trkpt>
      <trkpt lat="44.46495" lon="6.85004">
        <ele>2137</ele>
        <time>2019-08-19T22:30:50Z</time>
      </trkpt>
      <trkpt lat="44.46493" lon="6.85042">
        <ele>2135</ele>
        <time>2019-08-19T22:31:26Z</time>
      </trkpt>
      <trkpt lat="44.46466" lon="6.84993">
        <ele>2126</ele>
        <time>2019-08-19T22:32:25Z</time>
      </trkpt>
      <trkpt lat="44.46463" lon="6.84978">
        <ele>2124</ele>
        <time>2019-08-19T22:32:40Z</time>
      </trkpt>
      <trkpt lat="44.4646" lon="6.84946">
        <ele>2121</ele>
        <time>2019-08-19T22:33:10Z</time>
      </trkpt>
      <trkpt lat="44.46449" lon="6.84921">
        <ele>2116</ele>
        <time>2019-08-19T22:33:38Z</time>
      </trkpt>
      <trkpt lat="44.46441" lon="6.84875">
        <ele>2110</ele>
        <time>2019-08-19T22:34:23Z</time>
      </trkpt>
      <trkpt lat="44.46423" lon="6.84857">
        <ele>2103</ele>
        <time>2019-08-19T22:34:53Z</time>
      </trkpt>
      <trkpt lat="44.46404" lon="6.84832">
        <ele>2097</ele>
        <time>2019-08-19T22:35:28Z</time>
      </trkpt>
      <trkpt lat="44.46364" lon="6.8479">
        <ele>2085</ele>
        <time>2019-08-19T22:36:34Z</time>
      </trkpt>
      <trkpt lat="44.46331" lon="6.84764">
        <ele>2078</ele>
        <time>2019-08-19T22:37:25Z</time>
      </trkpt>
      <trkpt lat="44.46307" lon="6.84758">
        <ele>2072</ele>
        <time>2019-08-19T22:37:57Z</time>
      </trkpt>
      <trkpt lat="44.46293" lon="6.84762">
        <ele>2069</ele>
        <time>2019-08-19T22:38:17Z</time>
      </trkpt>
      <trkpt lat="44.46284" lon="6.84758">
        <ele>2067</ele>
        <time>2019-08-19T22:38:29Z</time>
      </trkpt>
      <trkpt lat="44.46271" lon="6.8477">
        <ele>2064</ele>
        <time>2019-08-19T22:38:50Z</time>
      </trkpt>
      <trkpt lat="44.46252" lon="6.8481">
        <ele>2061</ele>
        <time>2019-08-19T22:39:36Z</time>
      </trkpt>
      <trkpt lat="44.46232" lon="6.84813">
        <ele>2055</ele>
        <time>2019-08-19T22:40:02Z</time>
      </trkpt>
      <trkpt lat="44.46224" lon="6.84823">
        <ele>2053</ele>
        <time>2019-08-19T22:40:17Z</time>
      </trkpt>
      <trkpt lat="44.46192" lon="6.84836">
        <ele>2043</ele>
        <time>2019-08-19T22:41:01Z</time>
      </trkpt>
      <trkpt lat="44.46188" lon="6.84844">
        <ele>2042</ele>
        <time>2019-08-19T22:41:11Z</time>
      </trkpt>
      <trkpt lat="44.46181" lon="6.84842">
        <ele>2040</ele>
        <time>2019-08-19T22:41:20Z</time>
      </trkpt>
      <trkpt lat="44.46176" lon="6.84845">
        <ele>2038</ele>
        <time>2019-08-19T22:41:27Z</time>
      </trkpt>
      <trkpt lat="44.46164" lon="6.84861">
        <ele>2035</ele>
        <time>2019-08-19T22:41:49Z</time>
      </trkpt>
      <trkpt lat="44.46159" lon="6.84882">
        <ele>2033</ele>
        <time>2019-08-19T22:42:11Z</time>
      </trkpt>
      <trkpt lat="44.46133" lon="6.84932">
        <ele>2022</ele>
        <time>2019-08-19T22:43:09Z</time>
      </trkpt>
      <trkpt lat="44.46134" lon="6.84935">
        <ele>2023</ele>
        <time>2019-08-19T22:43:13Z</time>
      </trkpt>
      <trkpt lat="44.46129" lon="6.84942">
        <ele>2020</ele>
        <time>2019-08-19T22:43:22Z</time>
      </trkpt>
      <trkpt lat="44.46127" lon="6.84948">
        <ele>2019</ele>
        <time>2019-08-19T22:43:28Z</time>
      </trkpt>
      <trkpt lat="44.46114" lon="6.84954">
        <ele>2014</ele>
        <time>2019-08-19T22:43:47Z</time>
      </trkpt>
      <trkpt lat="44.46107" lon="6.84944">
        <ele>2011</ele>
        <time>2019-08-19T22:44:00Z</time>
      </trkpt>
      <trkpt lat="44.4609" lon="6.84974">
        <ele>2003</ele>
        <time>2019-08-19T22:44:36Z</time>
      </trkpt>
      <trkpt lat="44.46078" lon="6.84979">
        <ele>1998</ele>
        <time>2019-08-19T22:44:53Z</time>
      </trkpt>
      <trkpt lat="44.46078" lon="6.84987">
        <ele>1998</ele>
        <time>2019-08-19T22:45:01Z</time>
      </trkpt>
      <trkpt lat="44.4607" lon="6.84986">
        <ele>1995</ele>
        <time>2019-08-19T22:45:11Z</time>
      </trkpt>
      <trkpt lat="44.46063" lon="6.84993">
        <ele>1993</ele>
        <time>2019-08-19T22:45:23Z</time>
      </trkpt>
      <trkpt lat="44.46062" lon="6.85002">
        <ele>1992</ele>
        <time>2019-08-19T22:45:32Z</time>
      </trkpt>
      <trkpt lat="44.46053" lon="6.84999">
        <ele>1989</ele>
        <time>2019-08-19T22:45:44Z</time>
      </trkpt>
      <trkpt lat="44.4605" lon="6.85009">
        <ele>1987</ele>
        <time>2019-08-19T22:45:54Z</time>
      </trkpt>
      <trkpt lat="44.46036" lon="6.85001">
        <ele>1983</ele>
        <time>2019-08-19T22:46:15Z</time>
      </trkpt>
      <trkpt lat="44.46032" lon="6.85005">
        <ele>1981</ele>
        <time>2019-08-19T22:46:21Z</time>
      </trkpt>
      <trkpt lat="44.46029" lon="6.85021">
        <ele>1978</ele>
        <time>2019-08-19T22:46:37Z</time>
      </trkpt>
      <trkpt lat="44.46028" lon="6.85041">
        <ele>1976</ele>
        <time>2019-08-19T22:46:56Z</time>
      </trkpt>
      <trkpt lat="44.46023" lon="6.8507">
        <ele>1971</ele>
        <time>2019-08-19T22:47:24Z</time>
      </trkpt>
      <trkpt lat="44.46013" lon="6.85094">
        <ele>1964</ele>
        <time>2019-08-19T22:47:51Z</time>
      </trkpt>
      <trkpt lat="44.46002" lon="6.85093">
        <ele>1960</ele>
        <time>2019-08-19T22:48:06Z</time>
      </trkpt>
      <trkpt lat="44.45977" lon="6.85108">
        <ele>1949</ele>
        <time>2019-08-19T22:48:42Z</time>
      </trkpt>
      <trkpt lat="44.45951" lon="6.85123">
        <ele>1938</ele>
        <time>2019-08-19T22:49:19Z</time>
      </trkpt>
      <trkpt lat="44.45928" lon="6.85115">
        <ele>1931</ele>
        <time>2019-08-19T22:49:51Z</time>
      </trkpt>
      <trkpt lat="44.45907" lon="6.85103">
        <ele>1927</ele>
        <time>2019-08-19T22:50:21Z</time>
      </trkpt>
      <trkpt lat="44.45895" lon="6.85103">
        <ele>1924</ele>
        <time>2019-08-19T22:50:37Z</time>
      </trkpt>
      <trkpt lat="44.45878" lon="6.85103">
        <ele>1919</ele>
        <time>2019-08-19T22:51:00Z</time>
      </trkpt>
      <trkpt lat="44.45839" lon="6.85116">
        <ele>1906</ele>
        <time>2019-08-19T22:51:53Z</time>
      </trkpt>
      <trkpt lat="44.458" lon="6.85128">
        <ele>1891</ele>
        <time>2019-08-19T22:52:47Z</time>
      </trkpt>
      <trkpt lat="44.4578" lon="6.85141">
        <ele>1882</ele>
        <time>2019-08-19T22:53:16Z</time>
      </trkpt>
      <trkpt lat="44.4576" lon="6.85128">
        <ele>1878</ele>
        <time>2019-08-19T22:53:46Z</time>
      </trkpt>
      <trkpt lat="44.45767" lon="6.85171">
        <ele>1870</ele>
        <time>2019-08-19T22:54:28Z</time>
      </trkpt>
      <trkpt lat="44.45776" lon="6.85186">
        <ele>1869</ele>
        <time>2019-08-19T22:54:46Z</time>
      </trkpt>
      <trkpt lat="44.45774" lon="6.85191">
        <ele>1868</ele>
        <time>2019-08-19T22:54:52Z</time>
      </trkpt>
      <trkpt lat="44.45765" lon="6.85192">
        <ele>1864</ele>
        <time>2019-08-19T22:55:04Z</time>
      </trkpt>
      <trkpt lat="44.45764" lon="6.85202">
        <ele>1862</ele>
        <time>2019-08-19T22:55:13Z</time>
      </trkpt>
      <trkpt lat="44.45755" lon="6.85195">
        <ele>1860</ele>
        <time>2019-08-19T22:55:27Z</time>
      </trkpt>
      <trkpt lat="44.45754" lon="6.85209">
        <ele>1857</ele>
        <time>2019-08-19T22:55:40Z</time>
      </trkpt>
      <trkpt lat="44.45767" lon="6.85227">
        <ele>1856</ele>
        <time>2019-08-19T22:56:05Z</time>
      </trkpt>
      <trkpt lat="44.45769" lon="6.85237">
        <ele>1854</ele>
        <time>2019-08-19T22:56:15Z</time>
      </trkpt>
      <trkpt lat="44.45762" lon="6.85243">
        <ele>1851</ele>
        <time>2019-08-19T22:56:26Z</time>
      </trkpt>
      <trkpt lat="44.45768" lon="6.85249">
        <ele>1851</ele>
        <time>2019-08-19T22:56:36Z</time>
      </trkpt>
      <trkpt lat="44.45765" lon="6.85259">
        <ele>1847</ele>
        <time>2019-08-19T22:56:46Z</time>
      </trkpt>
      <trkpt lat="44.45769" lon="6.85261">
        <ele>1848</ele>
        <time>2019-08-19T22:56:52Z</time>
      </trkpt>
      <trkpt lat="44.45761" lon="6.8527">
        <ele>1843</ele>
        <time>2019-08-19T22:57:05Z</time>
      </trkpt>
      <trkpt lat="44.45759" lon="6.85284">
        <ele>1839</ele>
        <time>2019-08-19T22:57:19Z</time>
      </trkpt>
      <trkpt lat="44.45752" lon="6.85286">
        <ele>1836</ele>
        <time>2019-08-19T22:57:28Z</time>
      </trkpt>
      <trkpt lat="44.45755" lon="6.85294">
        <ele>1835</ele>
        <time>2019-08-19T22:57:37Z</time>
      </trkpt>
      <trkpt lat="44.45764" lon="6.85295">
        <ele>1837</ele>
        <time>2019-08-19T22:57:49Z</time>
      </trkpt>
      <trkpt lat="44.45767" lon="6.85304">
        <ele>1836</ele>
        <time>2019-08-19T22:57:58Z</time>
      </trkpt>
      <trkpt lat="44.45758" lon="6.85307">
        <ele>1832</ele>
        <time>2019-08-19T22:58:11Z</time>
      </trkpt>
      <trkpt lat="44.45746" lon="6.85318">
        <ele>1825</ele>
        <time>2019-08-19T22:58:30Z</time>
      </trkpt>
      <trkpt lat="44.45748" lon="6.85324">
        <ele>1824</ele>
        <time>2019-08-19T22:58:36Z</time>
      </trkpt>
      <trkpt lat="44.45743" lon="6.85326">
        <ele>1821</ele>
        <time>2019-08-19T22:58:43Z</time>
      </trkpt>
      <trkpt lat="44.45738" lon="6.85326">
        <ele>1819</ele>
        <time>2019-08-19T22:58:50Z</time>
      </trkpt>
      <trkpt lat="44.45739" lon="6.85333">
        <ele>1818</ele>
        <time>2019-08-19T22:58:57Z</time>
      </trkpt>
      <trkpt lat="44.45738" lon="6.85335">
        <ele>1817</ele>
        <time>2019-08-19T22:58:59Z</time>
      </trkpt>
      <trkpt lat="44.4573" lon="6.85332">
        <ele>1815</ele>
        <time>2019-08-19T22:59:10Z</time>
      </trkpt>
      <trkpt lat="44.45726" lon="6.8533">
        <ele>1814</ele>
        <time>2019-08-19T22:59:16Z</time>
      </trkpt>
      <trkpt lat="44.45724" lon="6.85339">
        <ele>1811</ele>
        <time>2019-08-19T22:59:25Z</time>
      </trkpt>
      <trkpt lat="44.45717" lon="6.8534">
        <ele>1808</ele>
        <time>2019-08-19T22:59:34Z</time>
      </trkpt>
      <trkpt lat="44.45725" lon="6.85349">
        <ele>1810</ele>
        <time>2019-08-19T22:59:48Z</time>
      </trkpt>
      <trkpt lat="44.45722" lon="6.85352">
        <ele>1808</ele>
        <time>2019-08-19T22:59:53Z</time>
      </trkpt>
      <trkpt lat="44.45721" lon="6.85361">
        <ele>1806</ele>
        <time>2019-08-19T23:00:01Z</time>
      </trkpt>
      <trkpt lat="44.45704" lon="6.85365">
        <ele>1800</ele>
        <time>2019-08-19T23:00:24Z</time>
      </trkpt>
      <trkpt lat="44.45698" lon="6.85361">
        <ele>1798</ele>
        <time>2019-08-19T23:00:33Z</time>
      </trkpt>
      <trkpt lat="44.45699" lon="6.85373">
        <ele>1797</ele>
        <time>2019-08-19T23:00:45Z</time>
      </trkpt>
      <trkpt lat="44.45684" lon="6.85352">
        <ele>1794</ele>
        <time>2019-08-19T23:01:13Z</time>
      </trkpt>
      <trkpt lat="44.45667" lon="6.85343">
        <ele>1789</ele>
        <time>2019-08-19T23:01:37Z</time>
      </trkpt>
      <trkpt lat="44.45665" lon="6.85335">
        <ele>1789</ele>
        <time>2019-08-19T23:01:45Z</time>
      </trkpt>
      <trkpt lat="44.45655" lon="6.85322">
        <ele>1789</ele>
        <time>2019-08-19T23:02:04Z</time>
      </trkpt>
      <trkpt lat="44.45626" lon="6.85307">
        <ele>1784</ele>
        <time>2019-08-19T23:02:45Z</time>
      </trkpt>
      <trkpt lat="44.45621" lon="6.85308">
        <ele>1782</ele>
        <time>2019-08-19T23:02:52Z</time>
      </trkpt>
      <trkpt lat="44.45618" lon="6.85304">
        <ele>1782</ele>
        <time>2019-08-19T23:02:57Z</time>
      </trkpt>
      <trkpt lat="44.456" lon="6.85298">
        <ele>1777</ele>
        <time>2019-08-19T23:03:22Z</time>
      </trkpt>
      <trkpt lat="44.45596" lon="6.85291">
        <ele>1777</ele>
        <time>2019-08-19T23:03:30Z</time>
      </trkpt>
      <trkpt lat="44.45591" lon="6.85286">
        <ele>1777</ele>
        <time>2019-08-19T23:03:39Z</time>
      </trkpt>
      <trkpt lat="44.4558" lon="6.85284">
        <ele>1774</ele>
        <time>2019-08-19T23:03:53Z</time>
      </trkpt>
      <trkpt lat="44.45576" lon="6.85291">
        <ele>1772</ele>
        <time>2019-08-19T23:04:02Z</time>
      </trkpt>
      <trkpt lat="44.45572" lon="6.85288">
        <ele>1772</ele>
        <time>2019-08-19T23:04:08Z</time>
      </trkpt>
      <trkpt lat="44.45568" lon="6.85298">
        <ele>1769</ele>
        <time>2019-08-19T23:04:19Z</time>
      </trkpt>
      <trkpt lat="44.45555" lon="6.85297">
        <ele>1767</ele>
        <time>2019-08-19T23:04:36Z</time>
      </trkpt>
      <trkpt lat="44.45534" lon="6.85276">
        <ele>1764</ele>
        <time>2019-08-19T23:05:11Z</time>
      </trkpt>
      <trkpt lat="44.45512" lon="6.85255">
        <ele>1756</ele>
        <time>2019-08-19T23:05:46Z</time>
      </trkpt>
      <trkpt lat="44.45504" lon="6.85232">
        <ele>1753</ele>
        <time>2019-08-19T23:06:11Z</time>
      </trkpt>
      <trkpt lat="44.45485" lon="6.85194">
        <ele>1750</ele>
        <time>2019-08-19T23:06:55Z</time>
      </trkpt>
      <trkpt lat="44.45459" lon="6.85156">
        <ele>1744</ele>
        <time>2019-08-19T23:07:45Z</time>
      </trkpt>
      <trkpt lat="44.4544" lon="6.85137">
        <ele>1742</ele>
        <time>2019-08-19T23:08:16Z</time>
      </trkpt>
      <trkpt lat="44.4542" lon="6.85128">
        <ele>1737</ele>
        <time>2019-08-19T23:08:44Z</time>
      </trkpt>
      <trkpt lat="44.45408" lon="6.85121">
        <ele>1735</ele>
        <time>2019-08-19T23:09:01Z</time>
      </trkpt>
      <trkpt lat="44.45382" lon="6.85114">
        <ele>1732</ele>
        <time>2019-08-19T23:09:37Z</time>
      </trkpt>
      <trkpt lat="44.45352" lon="6.85105">
        <ele>1727</ele>
        <time>2019-08-19T23:10:18Z</time>
      </trkpt>
      <trkpt lat="44.4534" lon="6.85099">
        <ele>1724</ele>
        <time>2019-08-19T23:10:35Z</time>
      </trkpt>
      <trkpt lat="44.45336" lon="6.85095">
        <ele>1722</ele>
        <time>2019-08-19T23:10:41Z</time>
      </trkpt>
      <trkpt lat="44.45318" lon="6.85071">
        <ele>1718</ele>
        <time>2019-08-19T23:11:14Z</time>
      </trkpt>
      <trkpt lat="44.4531" lon="6.85059">
        <ele>1718</ele>
        <time>2019-08-19T23:11:30Z</time>
      </trkpt>
      <trkpt lat="44.45299" lon="6.85039">
        <ele>1716</ele>
        <time>2019-08-19T23:11:54Z</time>
      </trkpt>
      <trkpt lat="44.45289" lon="6.85012">
        <ele>1712</ele>
        <time>2019-08-19T23:12:23Z</time>
      </trkpt>
      <trkpt lat="44.45287" lon="6.85007">
        <ele>1711</ele>
        <time>2019-08-19T23:12:29Z</time>
      </trkpt>
      <trkpt lat="44.45289" lon="6.84966">
        <ele>1709</ele>
        <time>2019-08-19T23:13:08Z</time>
      </trkpt>
      <trkpt lat="44.45288" lon="6.8496">
        <ele>1709</ele>
        <time>2019-08-19T23:13:14Z</time>
      </trkpt>
      <trkpt lat="44.45286" lon="6.84952">
        <ele>1708</ele>
        <time>2019-08-19T23:13:22Z</time>
      </trkpt>
      <trkpt lat="44.45284" lon="6.84946">
        <ele>1707</ele>
        <time>2019-08-19T23:13:28Z</time>
      </trkpt>
      <trkpt lat="44.45272" lon="6.84922">
        <ele>1704</ele>
        <time>2019-08-19T23:13:56Z</time>
      </trkpt>
      <trkpt lat="44.45269" lon="6.84914">
        <ele>1703</ele>
        <time>2019-08-19T23:14:04Z</time>
      </trkpt>
      <trkpt lat="44.45266" lon="6.84902">
        <ele>1702</ele>
        <time>2019-08-19T23:14:17Z</time>
      </trkpt>
      <trkpt lat="44.45262" lon="6.84879">
        <ele>1700</ele>
        <time>2019-08-19T23:14:39Z</time>
      </trkpt>
      <trkpt lat="44.45259" lon="6.84872">
        <ele>1700</ele>
        <time>2019-08-19T23:14:47Z</time>
      </trkpt>
      <trkpt lat="44.45233" lon="6.84825">
        <ele>1694</ele>
        <time>2019-08-19T23:15:44Z</time>
      </trkpt>
      <trkpt lat="44.45226" lon="6.84815">
        <ele>1693</ele>
        <time>2019-08-19T23:15:57Z</time>
      </trkpt>
      <trkpt lat="44.45216" lon="6.84805">
        <ele>1691</ele>
        <time>2019-08-19T23:16:13Z</time>
      </trkpt>
      <trkpt lat="44.45203" lon="6.84788">
        <ele>1689</ele>
        <time>2019-08-19T23:16:37Z</time>
      </trkpt>
      <trkpt lat="44.45198" lon="6.84783">
        <ele>1689</ele>
        <time>2019-08-19T23:16:45Z</time>
      </trkpt>
      <trkpt lat="44.45194" lon="6.84777">
        <ele>1688</ele>
        <time>2019-08-19T23:16:53Z</time>
      </trkpt>
      <trkpt lat="44.4519" lon="6.8477">
        <ele>1687</ele>
        <time>2019-08-19T23:17:02Z</time>
      </trkpt>
      <trkpt lat="44.45188" lon="6.8477">
        <ele>1687</ele>
        <time>2019-08-19T23:17:04Z</time>
      </trkpt>
      <trkpt lat="44.45184" lon="6.84769">
        <ele>1687</ele>
        <time>2019-08-19T23:17:10Z</time>
      </trkpt>
      <trkpt lat="44.45178" lon="6.84766">
        <ele>1686</ele>
        <time>2019-08-19T23:17:18Z</time>
      </trkpt>
      <trkpt lat="44.45158" lon="6.84743">
        <ele>1685</ele>
        <time>2019-08-19T23:17:53Z</time>
      </trkpt>
      <trkpt lat="44.45155" lon="6.84737">
        <ele>1684</ele>
        <time>2019-08-19T23:18:00Z</time>
      </trkpt>
      <trkpt lat="44.45092" lon="6.84653">
        <ele>1679</ele>
        <time>2019-08-19T23:19:56Z</time>
      </trkpt>
      <trkpt lat="44.45089" lon="6.84647">
        <ele>1679</ele>
        <time>2019-08-19T23:20:03Z</time>
      </trkpt>
      <trkpt lat="44.4507" lon="6.84682">
        <ele>1680</ele>
        <time>2019-08-19T23:20:45Z</time>
      </trkpt>
      <trkpt lat="44.45059" lon="6.84711">
        <ele>1680</ele>
        <time>2019-08-19T23:21:16Z</time>
      </trkpt>
      <trkpt lat="44.45053" lon="6.84707">
        <ele>1679</ele>
        <time>2019-08-19T23:21:25Z</time>
      </trkpt>
      <trkpt lat="44.45039" lon="6.84695">
        <ele>1678</ele>
        <time>2019-08-19T23:21:47Z</time>
      </trkpt>
      <trkpt lat="44.45021" lon="6.84684">
        <ele>1676</ele>
        <time>2019-08-19T23:22:13Z</time>
      </trkpt>
      <trkpt lat="44.45" lon="6.84672">
        <ele>1674</ele>
        <time>2019-08-19T23:22:43Z</time>
      </trkpt>
      <trkpt lat="44.44974" lon="6.84653">
        <ele>1673</ele>
        <time>2019-08-19T23:23:22Z</time>
      </trkpt>
      <trkpt lat="44.44953" lon="6.84635">
        <ele>1673</ele>
        <time>2019-08-19T23:23:55Z</time>
      </trkpt>
      <trkpt lat="44.44949" lon="6.84634">
        <ele>1673</ele>
        <time>2019-08-19T23:24:01Z</time>
      </trkpt>
      <trkpt lat="44.44946" lon="6.84633">
        <ele>1673</ele>
        <time>2019-08-19T23:24:05Z</time>
      </trkpt>
      <trkpt lat="44.4494" lon="6.84633">
        <ele>1673</ele>
        <time>2019-08-19T23:24:13Z</time>
      </trkpt>
      <trkpt lat="44.44933" lon="6.84636">
        <ele>1673</ele>
        <time>2019-08-19T23:24:22Z</time>
      </trkpt>
      <trkpt lat="44.44928" lon="6.8464">
        <ele>1673</ele>
        <time>2019-08-19T23:24:30Z</time>
      </trkpt>
      <trkpt lat="44.44924" lon="6.84645">
        <ele>1673</ele>
        <time>2019-08-19T23:24:37Z</time>
      </trkpt>
      <trkpt lat="44.44922" lon="6.8465">
        <ele>1672</ele>
        <time>2019-08-19T23:24:43Z</time>
      </trkpt>
      <trkpt lat="44.44918" lon="6.84682">
        <ele>1672</ele>
        <time>2019-08-19T23:25:14Z</time>
      </trkpt>
      <trkpt lat="44.44917" lon="6.84689">
        <ele>1673</ele>
        <time>2019-08-19T23:25:20Z</time>
      </trkpt>
      <trkpt lat="44.44917" lon="6.84699">
        <ele>1673</ele>
        <time>2019-08-19T23:25:30Z</time>
      </trkpt>
      <trkpt lat="44.44917" lon="6.84704">
        <ele>1673</ele>
        <time>2019-08-19T23:25:35Z</time>
      </trkpt>
      <trkpt lat="44.44931" lon="6.84738">
        <ele>1674</ele>
        <time>2019-08-19T23:26:12Z</time>
      </trkpt>
      <trkpt lat="44.44934" lon="6.84744">
        <ele>1675</ele>
        <time>2019-08-19T23:26:19Z</time>
      </trkpt>
      <trkpt lat="44.44936" lon="6.84751">
        <ele>1675</ele>
        <time>2019-08-19T23:26:26Z</time>
      </trkpt>
      <trkpt lat="44.44937" lon="6.84759">
        <ele>1675</ele>
        <time>2019-08-19T23:26:34Z</time>
      </trkpt>
      <trkpt lat="44.44936" lon="6.84768">
        <ele>1675</ele>
        <time>2019-08-19T23:26:43Z</time>
      </trkpt>
      <trkpt lat="44.44935" lon="6.84776">
        <ele>1675</ele>
        <time>2019-08-19T23:26:50Z</time>
      </trkpt>
      <trkpt lat="44.44933" lon="6.84783">
        <ele>1675</ele>
        <time>2019-08-19T23:26:58Z</time>
      </trkpt>
      <trkpt lat="44.44888" lon="6.84871">
        <ele>1675</ele>
        <time>2019-08-19T23:28:41Z</time>
      </trkpt>
      <trkpt lat="44.44877" lon="6.84887">
        <ele>1675</ele>
        <time>2019-08-19T23:29:02Z</time>
      </trkpt>
      <trkpt lat="44.44872" lon="6.84899">
        <ele>1675</ele>
        <time>2019-08-19T23:29:15Z</time>
      </trkpt>
      <trkpt lat="44.44867" lon="6.8491">
        <ele>1675</ele>
        <time>2019-08-19T23:29:28Z</time>
      </trkpt>
      <trkpt lat="44.44864" lon="6.84923">
        <ele>1675</ele>
        <time>2019-08-19T23:29:41Z</time>
      </trkpt>
      <trkpt lat="44.44859" lon="6.84934">
        <ele>1675</ele>
        <time>2019-08-19T23:29:53Z</time>
      </trkpt>
      <trkpt lat="44.44854" lon="6.84945">
        <ele>1675</ele>
        <time>2019-08-19T23:30:05Z</time>
      </trkpt>
      <trkpt lat="44.4485" lon="6.84959">
        <ele>1675</ele>
        <time>2019-08-19T23:30:20Z</time>
      </trkpt>
      <trkpt lat="44.44847" lon="6.8497">
        <ele>1674</ele>
        <time>2019-08-19T23:30:31Z</time>
      </trkpt>
      <trkpt lat="44.44838" lon="6.84993">
        <ele>1674</ele>
        <time>2019-08-19T23:30:56Z</time>
      </trkpt>
      <trkpt lat="44.44836" lon="6.85001">
        <ele>1673</ele>
        <time>2019-08-19T23:31:04Z</time>
      </trkpt>
      <trkpt lat="44.44834" lon="6.85004">
        <ele>1673</ele>
        <time>2019-08-19T23:31:08Z</time>
      </trkpt>
      <trkpt lat="44.44825" lon="6.85026">
        <ele>1674</ele>
        <time>2019-08-19T23:31:32Z</time>
      </trkpt>
      <trkpt lat="44.44819" lon="6.85036">
        <ele>1674</ele>
        <time>2019-08-19T23:31:45Z</time>
      </trkpt>
      <trkpt lat="44.44805" lon="6.85059">
        <ele>1675</ele>
        <time>2019-08-19T23:32:13Z</time>
      </trkpt>
      <trkpt lat="44.44792" lon="6.85077">
        <ele>1675</ele>
        <time>2019-08-19T23:32:38Z</time>
      </trkpt>
      <trkpt lat="44.44787" lon="6.85084">
        <ele>1675</ele>
        <time>2019-08-19T23:32:47Z</time>
      </trkpt>
      <trkpt lat="44.44737" lon="6.85143">
        <ele>1677</ele>
        <time>2019-08-19T23:34:14Z</time>
      </trkpt>
      <trkpt lat="44.44706" lon="6.85179">
        <ele>1679</ele>
        <time>2019-08-19T23:35:08Z</time>
      </trkpt>
      <trkpt lat="44.44675" lon="6.8522">
        <ele>1677</ele>
        <time>2019-08-19T23:36:05Z</time>
      </trkpt>
      <trkpt lat="44.44651" lon="6.85254">
        <ele>1677</ele>
        <time>2019-08-19T23:36:51Z</time>
      </trkpt>
      <trkpt lat="44.44645" lon="6.85265">
        <ele>1678</ele>
        <time>2019-08-19T23:37:04Z</time>
      </trkpt>
      <trkpt lat="44.44629" lon="6.85276">
        <ele>1679</ele>
        <time>2019-08-19T23:37:28Z</time>
      </trkpt>
      <trkpt lat="44.44622" lon="6.85284">
        <ele>1679</ele>
        <time>2019-08-19T23:37:40Z</time>
      </trkpt>
      <trkpt lat="44.44624" lon="6.85307">
        <ele>1679</ele>
        <time>2019-08-19T23:38:02Z</time>
      </trkpt>
      <trkpt lat="44.4458" lon="6.85331">
        <ele>1679</ele>
        <time>2019-08-19T23:39:05Z</time>
      </trkpt>
      <trkpt lat="44.44569" lon="6.85337">
        <ele>1679</ele>
        <time>2019-08-19T23:39:21Z</time>
      </trkpt>
      <trkpt lat="44.44535" lon="6.85364">
        <ele>1679</ele>
        <time>2019-08-19T23:40:13Z</time>
      </trkpt>
      <trkpt lat="44.44513" lon="6.85381">
        <ele>1679</ele>
        <time>2019-08-19T23:40:46Z</time>
      </trkpt>
      <trkpt lat="44.44466" lon="6.85415">
        <ele>1680</ele>
        <time>2019-08-19T23:41:57Z</time>
      </trkpt>
      <trkpt lat="44.44451" lon="6.85427">
        <ele>1681</ele>
        <time>2019-08-19T23:42:20Z</time>
      </trkpt>
      <trkpt lat="44.44437" lon="6.8544">
        <ele>1682</ele>
        <time>2019-08-19T23:42:42Z</time>
      </trkpt>
      <trkpt lat="44.44382" lon="6.85496">
        <ele>1685</ele>
        <time>2019-08-19T23:44:13Z</time>
      </trkpt>
      <trkpt lat="44.44368" lon="6.8551">
        <ele>1685</ele>
        <time>2019-08-19T23:44:36Z</time>
      </trkpt>
      <trkpt lat="44.44353" lon="6.85528">
        <ele>1686</ele>
        <time>2019-08-19T23:45:02Z</time>
      </trkpt>
      <trkpt lat="44.44321" lon="6.85569">
        <ele>1688</ele>
        <time>2019-08-19T23:46:00Z</time>
      </trkpt>
      <trkpt lat="44.44313" lon="6.85582">
        <ele>1689</ele>
        <time>2019-08-19T23:46:17Z</time>
      </trkpt>
      <trkpt lat="44.44304" lon="6.85596">
        <ele>1689</ele>
        <time>2019-08-19T23:46:35Z</time>
      </trkpt>
      <trkpt lat="44.44304" lon="6.85601">
        <ele>1689</ele>
        <time>2019-08-19T23:46:39Z</time>
      </trkpt>
      <trkpt lat="44.44303" lon="6.85605">
        <ele>1689</ele>
        <time>2019-08-19T23:46:43Z</time>
      </trkpt>
      <trkpt lat="44.44291" lon="6.85637">
        <ele>1690</ele>
        <time>2019-08-19T23:47:18Z</time>
      </trkpt>
      <trkpt lat="44.44288" lon="6.85647">
        <ele>1690</ele>
        <time>2019-08-19T23:47:28Z</time>
      </trkpt>
      <trkpt lat="44.44288" lon="6.85653">
        <ele>1690</ele>
        <time>2019-08-19T23:47:34Z</time>
      </trkpt>
      <trkpt lat="44.44287" lon="6.8566">
        <ele>1690</ele>
        <time>2019-08-19T23:47:41Z</time>
      </trkpt>
      <trkpt lat="44.44289" lon="6.85675">
        <ele>1691</ele>
        <time>2019-08-19T23:47:55Z</time>
      </trkpt>
      <trkpt lat="44.44289" lon="6.85685">
        <ele>1692</ele>
        <time>2019-08-19T23:48:05Z</time>
      </trkpt>
      <trkpt lat="44.44287" lon="6.85695">
        <ele>1693</ele>
        <time>2019-08-19T23:48:15Z</time>
      </trkpt>
      <trkpt lat="44.4428" lon="6.8573">
        <ele>1696</ele>
        <time>2019-08-19T23:48:49Z</time>
      </trkpt>
      <trkpt lat="44.44277" lon="6.85739">
        <ele>1696</ele>
        <time>2019-08-19T23:48:59Z</time>
      </trkpt>
      <trkpt lat="44.44273" lon="6.85746">
        <ele>1697</ele>
        <time>2019-08-19T23:49:07Z</time>
      </trkpt>
      <trkpt lat="44.44269" lon="6.8575">
        <ele>1697</ele>
        <time>2019-08-19T23:49:14Z</time>
      </trkpt>
      <trkpt lat="44.44266" lon="6.85755">
        <ele>1697</ele>
        <time>2019-08-19T23:49:20Z</time>
      </trkpt>
      <trkpt lat="44.44255" lon="6.85776">
        <ele>1698</ele>
        <time>2019-08-19T23:49:45Z</time>
      </trkpt>
      <trkpt lat="44.44252" lon="6.85784">
        <ele>1698</ele>
        <time>2019-08-19T23:49:53Z</time>
      </trkpt>
      <trkpt lat="44.44248" lon="6.85794">
        <ele>1699</ele>
        <time>2019-08-19T23:50:04Z</time>
      </trkpt>
      <trkpt lat="44.44244" lon="6.85813">
        <ele>1700</ele>
        <time>2019-08-19T23:50:23Z</time>
      </trkpt>
      <trkpt lat="44.44241" lon="6.85823">
        <ele>1700</ele>
        <time>2019-08-19T23:50:34Z</time>
      </trkpt>
      <trkpt lat="44.44236" lon="6.85834">
        <ele>1701</ele>
        <time>2019-08-19T23:50:46Z</time>
      </trkpt>
      <trkpt lat="44.44229" lon="6.85845">
        <ele>1701</ele>
        <time>2019-08-19T23:51:00Z</time>
      </trkpt>
      <trkpt lat="44.44224" lon="6.8585">
        <ele>1702</ele>
        <time>2019-08-19T23:51:08Z</time>
      </trkpt>
      <trkpt lat="44.44219" lon="6.85855">
        <ele>1702</ele>
        <time>2019-08-19T23:51:16Z</time>
      </trkpt>
      <trkpt lat="44.44212" lon="6.85858">
        <ele>1701</ele>
        <time>2019-08-19T23:51:26Z</time>
      </trkpt>
      <trkpt lat="44.44191" lon="6.85871">
        <ele>1701</ele>
        <time>2019-08-19T23:51:57Z</time>
      </trkpt>
      <trkpt lat="44.44174" lon="6.85885">
        <ele>1701</ele>
        <time>2019-08-19T23:52:23Z</time>
      </trkpt>
      <trkpt lat="44.44166" lon="6.85895">
        <ele>1702</ele>
        <time>2019-08-19T23:52:37Z</time>
      </trkpt>
      <trkpt lat="44.44146" lon="6.85936">
        <ele>1705</ele>
        <time>2019-08-19T23:53:25Z</time>
      </trkpt>
      <trkpt lat="44.44137" lon="6.85957">
        <ele>1706</ele>
        <time>2019-08-19T23:53:48Z</time>
      </trkpt>
      <trkpt lat="44.44134" lon="6.85966">
        <ele>1707</ele>
        <time>2019-08-19T23:53:58Z</time>
      </trkpt>
      <trkpt lat="44.44129" lon="6.86007">
        <ele>1709</ele>
        <time>2019-08-19T23:54:37Z</time>
      </trkpt>
      <trkpt lat="44.44127" lon="6.86018">
        <ele>1711</ele>
        <time>2019-08-19T23:54:48Z</time>
      </trkpt>
      <trkpt lat="44.44122" lon="6.86027">
        <ele>1711</ele>
        <time>2019-08-19T23:54:59Z</time>
      </trkpt>
      <trkpt lat="44.44118" lon="6.86033">
        <ele>1711</ele>
        <time>2019-08-19T23:55:07Z</time>
      </trkpt>
      <trkpt lat="44.44107" lon="6.86045">
        <ele>1711</ele>
        <time>2019-08-19T23:55:25Z</time>
      </trkpt>
      <trkpt lat="44.44103" lon="6.86051">
        <ele>1710</ele>
        <time>2019-08-19T23:55:33Z</time>
      </trkpt>
      <trkpt lat="44.4409" lon="6.8608">
        <ele>1711</ele>
        <time>2019-08-19T23:56:06Z</time>
      </trkpt>
      <trkpt lat="44.44086" lon="6.86088">
        <ele>1712</ele>
        <time>2019-08-19T23:56:15Z</time>
      </trkpt>
      <trkpt lat="44.44074" lon="6.86107">
        <ele>1714</ele>
        <time>2019-08-19T23:56:39Z</time>
      </trkpt>
      <trkpt lat="44.44064" lon="6.86125">
        <ele>1717</ele>
        <time>2019-08-19T23:57:01Z</time>
      </trkpt>
      <trkpt lat="44.4405" lon="6.86159">
        <ele>1722</ele>
        <time>2019-08-19T23:57:38Z</time>
      </trkpt>
      <trkpt lat="44.44047" lon="6.86165">
        <ele>1722</ele>
        <time>2019-08-19T23:57:45Z</time>
      </trkpt>
      <trkpt lat="44.44043" lon="6.8617">
        <ele>1723</ele>
        <time>2019-08-19T23:57:52Z</time>
      </trkpt>
      <trkpt lat="44.44037" lon="6.86175">
        <ele>1723</ele>
        <time>2019-08-19T23:58:02Z</time>
      </trkpt>
      <trkpt lat="44.44005" lon="6.86194">
        <ele>1724</ele>
        <time>2019-08-19T23:58:48Z</time>
      </trkpt>
      <trkpt lat="44.43994" lon="6.86201">
        <ele>1725</ele>
        <time>2019-08-19T23:59:04Z</time>
      </trkpt>
      <trkpt lat="44.43984" lon="6.8621">
        <ele>1726</ele>
        <time>2019-08-19T23:59:20Z</time>
      </trkpt>
      <trkpt lat="44.43972" lon="6.86222">
        <ele>1728</ele>
        <time>2019-08-19T23:59:40Z</time>
      </trkpt>
      <trkpt lat="44.43942" lon="6.86259">
        <ele>1732</ele>
        <time>2019-08-20T00:00:33Z</time>
      </trkpt>
      <trkpt lat="44.4393" lon="6.86275">
        <ele>1734</ele>
        <time>2019-08-20T00:00:55Z</time>
      </trkpt>
      <trkpt lat="44.43916" lon="6.86292">
        <ele>1736</ele>
        <time>2019-08-20T00:01:20Z</time>
      </trkpt>
      <trkpt lat="44.4391" lon="6.86298">
        <ele>1736</ele>
        <time>2019-08-20T00:01:30Z</time>
      </trkpt>
      <trkpt lat="44.43901" lon="6.86308">
        <ele>1736</ele>
        <time>2019-08-20T00:01:45Z</time>
      </trkpt>
      <trkpt lat="44.43888" lon="6.86325">
        <ele>1737</ele>
        <time>2019-08-20T00:02:09Z</time>
      </trkpt>
      <trkpt lat="44.4388" lon="6.86337">
        <ele>1738</ele>
        <time>2019-08-20T00:02:25Z</time>
      </trkpt>
      <trkpt lat="44.43874" lon="6.86348">
        <ele>1738</ele>
        <time>2019-08-20T00:02:38Z</time>
      </trkpt>
      <trkpt lat="44.43851" lon="6.8641">
        <ele>1746</ele>
        <time>2019-08-20T00:03:44Z</time>
      </trkpt>
      <trkpt lat="44.43846" lon="6.86424">
        <ele>1747</ele>
        <time>2019-08-20T00:03:59Z</time>
      </trkpt>
      <trkpt lat="44.43835" lon="6.86447">
        <ele>1748</ele>
        <time>2019-08-20T00:04:26Z</time>
      </trkpt>
      <trkpt lat="44.43823" lon="6.86471">
        <ele>1749</ele>
        <time>2019-08-20T00:04:54Z</time>
      </trkpt>
      <trkpt lat="44.43811" lon="6.865">
        <ele>1752</ele>
        <time>2019-08-20T00:05:25Z</time>
      </trkpt>
      <trkpt lat="44.4381" lon="6.86506">
        <ele>1752</ele>
        <time>2019-08-20T00:05:31Z</time>
      </trkpt>
      <trkpt lat="44.43808" lon="6.86512">
        <ele>1752</ele>
        <time>2019-08-20T00:05:38Z</time>
      </trkpt>
      <trkpt lat="44.43808" lon="6.86525">
        <ele>1754</ele>
        <time>2019-08-20T00:05:50Z</time>
      </trkpt>
      <trkpt lat="44.43808" lon="6.86531">
        <ele>1754</ele>
        <time>2019-08-20T00:05:56Z</time>
      </trkpt>
      <trkpt lat="44.43812" lon="6.86563">
        <ele>1758</ele>
        <time>2019-08-20T00:06:27Z</time>
      </trkpt>
      <trkpt lat="44.43812" lon="6.86566">
        <ele>1759</ele>
        <time>2019-08-20T00:06:30Z</time>
      </trkpt>
      <trkpt lat="44.43808" lon="6.86573">
        <ele>1759</ele>
        <time>2019-08-20T00:06:38Z</time>
      </trkpt>
      <trkpt lat="44.43805" lon="6.86578">
        <ele>1759</ele>
        <time>2019-08-20T00:06:44Z</time>
      </trkpt>
      <trkpt lat="44.43803" lon="6.86585">
        <ele>1759</ele>
        <time>2019-08-20T00:06:51Z</time>
      </trkpt>
      <trkpt lat="44.43802" lon="6.86593">
        <ele>1760</ele>
        <time>2019-08-20T00:06:59Z</time>
      </trkpt>
      <trkpt lat="44.43802" lon="6.86597">
        <ele>1760</ele>
        <time>2019-08-20T00:07:03Z</time>
      </trkpt>
      <trkpt lat="44.43806" lon="6.86607">
        <ele>1762</ele>
        <time>2019-08-20T00:07:14Z</time>
      </trkpt>
      <trkpt lat="44.43807" lon="6.86612">
        <ele>1763</ele>
        <time>2019-08-20T00:07:19Z</time>
      </trkpt>
      <trkpt lat="44.43806" lon="6.86623">
        <ele>1764</ele>
        <time>2019-08-20T00:07:29Z</time>
      </trkpt>
      <trkpt lat="44.43806" lon="6.86629">
        <ele>1765</ele>
        <time>2019-08-20T00:07:35Z</time>
      </trkpt>
      <trkpt lat="44.43807" lon="6.86634">
        <ele>1765</ele>
        <time>2019-08-20T00:07:40Z</time>
      </trkpt>
      <trkpt lat="44.43808" lon="6.86637">
        <ele>1766</ele>
        <time>2019-08-20T00:07:43Z</time>
      </trkpt>
      <trkpt lat="44.43811" lon="6.86638">
        <ele>1767</ele>
        <time>2019-08-20T00:07:47Z</time>
      </trkpt>
      <trkpt lat="44.43814" lon="6.86638">
        <ele>1767</ele>
        <time>2019-08-20T00:07:51Z</time>
      </trkpt>
      <trkpt lat="44.43816" lon="6.86637">
        <ele>1768</ele>
        <time>2019-08-20T00:07:54Z</time>
      </trkpt>
      <trkpt lat="44.4382" lon="6.86632">
        <ele>1768</ele>
        <time>2019-08-20T00:08:01Z</time>
      </trkpt>
      <trkpt lat="44.43824" lon="6.8663">
        <ele>1768</ele>
        <time>2019-08-20T00:08:07Z</time>
      </trkpt>
      <trkpt lat="44.43827" lon="6.86631">
        <ele>1769</ele>
        <time>2019-08-20T00:08:11Z</time>
      </trkpt>
      <trkpt lat="44.43829" lon="6.86632">
        <ele>1770</ele>
        <time>2019-08-20T00:08:14Z</time>
      </trkpt>
      <trkpt lat="44.43831" lon="6.86638">
        <ele>1771</ele>
        <time>2019-08-20T00:08:20Z</time>
      </trkpt>
      <trkpt lat="44.43833" lon="6.86644">
        <ele>1772</ele>
        <time>2019-08-20T00:08:27Z</time>
      </trkpt>
      <trkpt lat="44.43832" lon="6.86649">
        <ele>1772</ele>
        <time>2019-08-20T00:08:32Z</time>
      </trkpt>
      <trkpt lat="44.43823" lon="6.86675">
        <ele>1774</ele>
        <time>2019-08-20T00:08:59Z</time>
      </trkpt>
      <trkpt lat="44.43816" lon="6.86694">
        <ele>1775</ele>
        <time>2019-08-20T00:09:19Z</time>
      </trkpt>
      <trkpt lat="44.43803" lon="6.86724">
        <ele>1777</ele>
        <time>2019-08-20T00:09:53Z</time>
      </trkpt>
      <trkpt lat="44.43801" lon="6.86727">
        <ele>1777</ele>
        <time>2019-08-20T00:09:57Z</time>
      </trkpt>
      <trkpt lat="44.43795" lon="6.8675">
        <ele>1779</ele>
        <time>2019-08-20T00:10:20Z</time>
      </trkpt>
      <trkpt lat="44.43785" lon="6.86782">
        <ele>1783</ele>
        <time>2019-08-20T00:10:53Z</time>
      </trkpt>
      <trkpt lat="44.43778" lon="6.86798">
        <ele>1785</ele>
        <time>2019-08-20T00:11:11Z</time>
      </trkpt>
      <trkpt lat="44.43775" lon="6.86807">
        <ele>1786</ele>
        <time>2019-08-20T00:11:21Z</time>
      </trkpt>
      <trkpt lat="44.43771" lon="6.86814">
        <ele>1787</ele>
        <time>2019-08-20T00:11:29Z</time>
      </trkpt>
      <trkpt lat="44.43761" lon="6.86823">
        <ele>1786</ele>
        <time>2019-08-20T00:11:45Z</time>
      </trkpt>
      <trkpt lat="44.43753" lon="6.86834">
        <ele>1787</ele>
        <time>2019-08-20T00:12:00Z</time>
      </trkpt>
      <trkpt lat="44.43736" lon="6.86861">
        <ele>1789</ele>
        <time>2019-08-20T00:12:34Z</time>
      </trkpt>
      <trkpt lat="44.43731" lon="6.8687">
        <ele>1789</ele>
        <time>2019-08-20T00:12:45Z</time>
      </trkpt>
      <trkpt lat="44.43726" lon="6.86877">
        <ele>1790</ele>
        <time>2019-08-20T00:12:55Z</time>
      </trkpt>
      <trkpt lat="44.4372" lon="6.86885">
        <ele>1790</ele>
        <time>2019-08-20T00:13:06Z</time>
      </trkpt>
      <trkpt lat="44.43709" lon="6.86904">
        <ele>1791</ele>
        <time>2019-08-20T00:13:29Z</time>
      </trkpt>
      <trkpt lat="44.43703" lon="6.86912">
        <ele>1791</ele>
        <time>2019-08-20T00:13:40Z</time>
      </trkpt>
      <trkpt lat="44.43689" lon="6.86946">
        <ele>1795</ele>
        <time>2019-08-20T00:14:18Z</time>
      </trkpt>
      <trkpt lat="44.43682" lon="6.8696">
        <ele>1796</ele>
        <time>2019-08-20T00:14:34Z</time>
      </trkpt>
      <trkpt lat="44.43676" lon="6.86969">
        <ele>1797</ele>
        <time>2019-08-20T00:14:46Z</time>
      </trkpt>
      <trkpt lat="44.43673" lon="6.86976">
        <ele>1797</ele>
        <time>2019-08-20T00:14:53Z</time>
      </trkpt>
      <trkpt lat="44.43671" lon="6.8698">
        <ele>1798</ele>
        <time>2019-08-20T00:14:58Z</time>
      </trkpt>
      <trkpt lat="44.43667" lon="6.86983">
        <ele>1797</ele>
        <time>2019-08-20T00:15:04Z</time>
      </trkpt>
      <trkpt lat="44.43662" lon="6.86986">
        <ele>1797</ele>
        <time>2019-08-20T00:15:11Z</time>
      </trkpt>
      <trkpt lat="44.43652" lon="6.86995">
        <ele>1797</ele>
        <time>2019-08-20T00:15:27Z</time>
      </trkpt>
      <trkpt lat="44.43641" lon="6.87003">
        <ele>1797</ele>
        <time>2019-08-20T00:15:44Z</time>
      </trkpt>
      <trkpt lat="44.43607" lon="6.87017">
        <ele>1795</ele>
        <time>2019-08-20T00:16:31Z</time>
      </trkpt>
      <trkpt lat="44.43593" lon="6.87026">
        <ele>1795</ele>
        <time>2019-08-20T00:16:52Z</time>
      </trkpt>
      <trkpt lat="44.43591" lon="6.87028">
        <ele>1795</ele>
        <time>2019-08-20T00:16:55Z</time>
      </trkpt>
      <trkpt lat="44.43586" lon="6.87032">
        <ele>1795</ele>
        <time>2019-08-20T00:17:03Z</time>
      </trkpt>
      <trkpt lat="44.43581" lon="6.87039">
        <ele>1796</ele>
        <time>2019-08-20T00:17:12Z</time>
      </trkpt>
      <trkpt lat="44.43575" lon="6.87049">
        <ele>1797</ele>
        <time>2019-08-20T00:17:24Z</time>
      </trkpt>
      <trkpt lat="44.4357" lon="6.87058">
        <ele>1798</ele>
        <time>2019-08-20T00:17:35Z</time>
      </trkpt>
      <trkpt lat="44.43562" lon="6.8708">
        <ele>1802</ele>
        <time>2019-08-20T00:17:59Z</time>
      </trkpt>
      <trkpt lat="44.43548" lon="6.87115">
        <ele>1805</ele>
        <time>2019-08-20T00:18:37Z</time>
      </trkpt>
      <trkpt lat="44.43537" lon="6.87138">
        <ele>1807</ele>
        <time>2019-08-20T00:19:03Z</time>
      </trkpt>
      <trkpt lat="44.43532" lon="6.87149">
        <ele>1807</ele>
        <time>2019-08-20T00:19:16Z</time>
      </trkpt>
      <trkpt lat="44.43526" lon="6.87171">
        <ele>1809</ele>
        <time>2019-08-20T00:19:38Z</time>
      </trkpt>
      <trkpt lat="44.43518" lon="6.87205">
        <ele>1812</ele>
        <time>2019-08-20T00:20:12Z</time>
      </trkpt>
      <trkpt lat="44.43512" lon="6.87224">
        <ele>1814</ele>
        <time>2019-08-20T00:20:32Z</time>
      </trkpt>
      <trkpt lat="44.43504" lon="6.87251">
        <ele>1815</ele>
        <time>2019-08-20T00:21:00Z</time>
      </trkpt>
      <trkpt lat="44.43496" lon="6.87273">
        <ele>1817</ele>
        <time>2019-08-20T00:21:24Z</time>
      </trkpt>
      <trkpt lat="44.43482" lon="6.87302">
        <ele>1820</ele>
        <time>2019-08-20T00:21:57Z</time>
      </trkpt>
      <trkpt lat="44.43475" lon="6.87322">
        <ele>1823</ele>
        <time>2019-08-20T00:22:18Z</time>
      </trkpt>
      <trkpt lat="44.4347" lon="6.87342">
        <ele>1825</ele>
        <time>2019-08-20T00:22:38Z</time>
      </trkpt>
      <trkpt lat="44.43467" lon="6.87366">
        <ele>1829</ele>
        <time>2019-08-20T00:23:02Z</time>
      </trkpt>
      <trkpt lat="44.43467" lon="6.87368">
        <ele>1829</ele>
        <time>2019-08-20T00:23:03Z</time>
      </trkpt>
      <trkpt lat="44.43466" lon="6.8737">
        <ele>1829</ele>
        <time>2019-08-20T00:23:06Z</time>
      </trkpt>
      <trkpt lat="44.43464" lon="6.87372">
        <ele>1830</ele>
        <time>2019-08-20T00:23:09Z</time>
      </trkpt>
      <trkpt lat="44.43458" lon="6.87368">
        <ele>1828</ele>
        <time>2019-08-20T00:23:18Z</time>
      </trkpt>
      <trkpt lat="44.43453" lon="6.87364">
        <ele>1827</ele>
        <time>2019-08-20T00:23:26Z</time>
      </trkpt>
      <trkpt lat="44.43441" lon="6.87359">
        <ele>1824</ele>
        <time>2019-08-20T00:23:42Z</time>
      </trkpt>
      <trkpt lat="44.43438" lon="6.87358">
        <ele>1824</ele>
        <time>2019-08-20T00:23:46Z</time>
      </trkpt>
      <trkpt lat="44.43428" lon="6.87361">
        <ele>1823</ele>
        <time>2019-08-20T00:24:00Z</time>
      </trkpt>
      <trkpt lat="44.43416" lon="6.87366">
        <ele>1822</ele>
        <time>2019-08-20T00:24:17Z</time>
      </trkpt>
      <trkpt lat="44.43409" lon="6.8737">
        <ele>1821</ele>
        <time>2019-08-20T00:24:27Z</time>
      </trkpt>
      <trkpt lat="44.43392" lon="6.87389">
        <ele>1822</ele>
        <time>2019-08-20T00:24:56Z</time>
      </trkpt>
      <trkpt lat="44.43386" lon="6.87398">
        <ele>1822</ele>
        <time>2019-08-20T00:25:08Z</time>
      </trkpt>
      <trkpt lat="44.4338" lon="6.87409">
        <ele>1823</ele>
        <time>2019-08-20T00:25:21Z</time>
      </trkpt>
      <trkpt lat="44.43373" lon="6.87428">
        <ele>1825</ele>
        <time>2019-08-20T00:25:41Z</time>
      </trkpt>
      <trkpt lat="44.43368" lon="6.87441">
        <ele>1826</ele>
        <time>2019-08-20T00:25:55Z</time>
      </trkpt>
      <trkpt lat="44.43362" lon="6.8746">
        <ele>1827</ele>
        <time>2019-08-20T00:26:15Z</time>
      </trkpt>
      <trkpt lat="44.43357" lon="6.87479">
        <ele>1829</ele>
        <time>2019-08-20T00:26:34Z</time>
      </trkpt>
      <trkpt lat="44.43356" lon="6.87488">
        <ele>1830</ele>
        <time>2019-08-20T00:26:43Z</time>
      </trkpt>
      <trkpt lat="44.43354" lon="6.87504">
        <ele>1831</ele>
        <time>2019-08-20T00:26:59Z</time>
      </trkpt>
      <trkpt lat="44.43354" lon="6.87519">
        <ele>1834</ele>
        <time>2019-08-20T00:27:13Z</time>
      </trkpt>
      <trkpt lat="44.43354" lon="6.87536">
        <ele>1836</ele>
        <time>2019-08-20T00:27:29Z</time>
      </trkpt>
      <trkpt lat="44.43352" lon="6.87552">
        <ele>1838</ele>
        <time>2019-08-20T00:27:45Z</time>
      </trkpt>
      <trkpt lat="44.43349" lon="6.87572">
        <ele>1841</ele>
        <time>2019-08-20T00:28:04Z</time>
      </trkpt>
      <trkpt lat="44.43346" lon="6.87581">
        <ele>1842</ele>
        <time>2019-08-20T00:28:13Z</time>
      </trkpt>
      <trkpt lat="44.43343" lon="6.87592">
        <ele>1844</ele>
        <time>2019-08-20T00:28:25Z</time>
      </trkpt>
      <trkpt lat="44.43338" lon="6.87602">
        <ele>1845</ele>
        <time>2019-08-20T00:28:36Z</time>
      </trkpt>
      <trkpt lat="44.43333" lon="6.87613">
        <ele>1846</ele>
        <time>2019-08-20T00:28:49Z</time>
      </trkpt>
      <trkpt lat="44.43328" lon="6.8762">
        <ele>1847</ele>
        <time>2019-08-20T00:28:58Z</time>
      </trkpt>
      <trkpt lat="44.43322" lon="6.87628">
        <ele>1847</ele>
        <time>2019-08-20T00:29:09Z</time>
      </trkpt>
      <trkpt lat="44.43315" lon="6.87633">
        <ele>1846</ele>
        <time>2019-08-20T00:29:20Z</time>
      </trkpt>
      <trkpt lat="44.43309" lon="6.8764">
        <ele>1846</ele>
        <time>2019-08-20T00:29:30Z</time>
      </trkpt>
      <trkpt lat="44.43303" lon="6.87648">
        <ele>1847</ele>
        <time>2019-08-20T00:29:41Z</time>
      </trkpt>
      <trkpt lat="44.43295" lon="6.87661">
        <ele>1848</ele>
        <time>2019-08-20T00:29:58Z</time>
      </trkpt>
      <trkpt lat="44.43286" lon="6.87673">
        <ele>1848</ele>
        <time>2019-08-20T00:30:14Z</time>
      </trkpt>
      <trkpt lat="44.43282" lon="6.87686">
        <ele>1850</ele>
        <time>2019-08-20T00:30:28Z</time>
      </trkpt>
      <trkpt lat="44.43278" lon="6.877">
        <ele>1852</ele>
        <time>2019-08-20T00:30:42Z</time>
      </trkpt>
      <trkpt lat="44.43275" lon="6.87707">
        <ele>1853</ele>
        <time>2019-08-20T00:30:50Z</time>
      </trkpt>
      <trkpt lat="44.4327" lon="6.87714">
        <ele>1853</ele>
        <time>2019-08-20T00:30:59Z</time>
      </trkpt>
      <trkpt lat="44.43266" lon="6.87719">
        <ele>1854</ele>
        <time>2019-08-20T00:31:06Z</time>
      </trkpt>
      <trkpt lat="44.4326" lon="6.87724">
        <ele>1854</ele>
        <time>2019-08-20T00:31:16Z</time>
      </trkpt>
      <trkpt lat="44.43253" lon="6.87728">
        <ele>1853</ele>
        <time>2019-08-20T00:31:26Z</time>
      </trkpt>
      <trkpt lat="44.43246" lon="6.87731">
        <ele>1853</ele>
        <time>2019-08-20T00:31:36Z</time>
      </trkpt>
      <trkpt lat="44.4324" lon="6.87735">
        <ele>1853</ele>
        <time>2019-08-20T00:31:44Z</time>
      </trkpt>
      <trkpt lat="44.43235" lon="6.8774">
        <ele>1854</ele>
        <time>2019-08-20T00:31:53Z</time>
      </trkpt>
      <trkpt lat="44.43228" lon="6.87748">
        <ele>1855</ele>
        <time>2019-08-20T00:32:05Z</time>
      </trkpt>
      <trkpt lat="44.43215" lon="6.8777">
        <ele>1856</ele>
        <time>2019-08-20T00:32:32Z</time>
      </trkpt>
      <trkpt lat="44.43208" lon="6.87783">
        <ele>1857</ele>
        <time>2019-08-20T00:32:47Z</time>
      </trkpt>
      <trkpt lat="44.43203" lon="6.87798">
        <ele>1859</ele>
        <time>2019-08-20T00:33:03Z</time>
      </trkpt>
      <trkpt lat="44.43201" lon="6.87808">
        <ele>1860</ele>
        <time>2019-08-20T00:33:13Z</time>
      </trkpt>
      <trkpt lat="44.43201" lon="6.8782">
        <ele>1862</ele>
        <time>2019-08-20T00:33:24Z</time>
      </trkpt>
      <trkpt lat="44.43193" lon="6.87834">
        <ele>1863</ele>
        <time>2019-08-20T00:33:42Z</time>
      </trkpt>
      <trkpt lat="44.43189" lon="6.87843">
        <ele>1864</ele>
        <time>2019-08-20T00:33:52Z</time>
      </trkpt>
      <trkpt lat="44.43186" lon="6.87852">
        <ele>1865</ele>
        <time>2019-08-20T00:34:01Z</time>
      </trkpt>
      <trkpt lat="44.43184" lon="6.87862">
        <ele>1866</ele>
        <time>2019-08-20T00:34:11Z</time>
      </trkpt>
      <trkpt lat="44.4318" lon="6.87871">
        <ele>1867</ele>
        <time>2019-08-20T00:34:21Z</time>
      </trkpt>
      <trkpt lat="44.43176" lon="6.87878">
        <ele>1868</ele>
        <time>2019-08-20T00:34:30Z</time>
      </trkpt>
      <trkpt lat="44.43171" lon="6.87884">
        <ele>1868</ele>
        <time>2019-08-20T00:34:38Z</time>
      </trkpt>
      <trkpt lat="44.43156" lon="6.87907">
        <ele>1869</ele>
        <time>2019-08-20T00:35:08Z</time>
      </trkpt>
      <trkpt lat="44.43131" lon="6.87947">
        <ele>1871</ele>
        <time>2019-08-20T00:35:59Z</time>
      </trkpt>
      <trkpt lat="44.4312" lon="6.87968">
        <ele>1871</ele>
        <time>2019-08-20T00:36:24Z</time>
      </trkpt>
      <trkpt lat="44.43112" lon="6.87989">
        <ele>1873</ele>
        <time>2019-08-20T00:36:46Z</time>
      </trkpt>
      <trkpt lat="44.4311" lon="6.87994">
        <ele>1873</ele>
        <time>2019-08-20T00:36:52Z</time>
      </trkpt>
      <trkpt lat="44.43107" lon="6.88004">
        <ele>1873</ele>
        <time>2019-08-20T00:37:02Z</time>
      </trkpt>
      <trkpt lat="44.43105" lon="6.88019">
        <ele>1874</ele>
        <time>2019-08-20T00:37:17Z</time>
      </trkpt>
      <trkpt lat="44.43105" lon="6.8803">
        <ele>1875</ele>
        <time>2019-08-20T00:37:27Z</time>
      </trkpt>
      <trkpt lat="44.43107" lon="6.88041">
        <ele>1876</ele>
        <time>2019-08-20T00:37:38Z</time>
      </trkpt>
      <trkpt lat="44.43117" lon="6.8808">
        <ele>1883</ele>
        <time>2019-08-20T00:38:17Z</time>
      </trkpt>
      <trkpt lat="44.4312" lon="6.8811">
        <ele>1889</ele>
        <time>2019-08-20T00:38:46Z</time>
      </trkpt>
      <trkpt lat="44.43119" lon="6.88124">
        <ele>1891</ele>
        <time>2019-08-20T00:39:00Z</time>
      </trkpt>
      <trkpt lat="44.43118" lon="6.88134">
        <ele>1893</ele>
        <time>2019-08-20T00:39:09Z</time>
      </trkpt>
      <trkpt lat="44.43114" lon="6.88152">
        <ele>1895</ele>
        <time>2019-08-20T00:39:27Z</time>
      </trkpt>
      <trkpt lat="44.43111" lon="6.88162">
        <ele>1896</ele>
        <time>2019-08-20T00:39:38Z</time>
      </trkpt>
      <trkpt lat="44.43106" lon="6.88175">
        <ele>1897</ele>
        <time>2019-08-20T00:39:52Z</time>
      </trkpt>
      <trkpt lat="44.43094" lon="6.88195">
        <ele>1897</ele>
        <time>2019-08-20T00:40:17Z</time>
      </trkpt>
      <trkpt lat="44.43088" lon="6.88208">
        <ele>1898</ele>
        <time>2019-08-20T00:40:31Z</time>
      </trkpt>
      <trkpt lat="44.43071" lon="6.88243">
        <ele>1900</ele>
        <time>2019-08-20T00:41:12Z</time>
      </trkpt>
      <trkpt lat="44.43059" lon="6.88262">
        <ele>1899</ele>
        <time>2019-08-20T00:41:36Z</time>
      </trkpt>
      <trkpt lat="44.43048" lon="6.88283">
        <ele>1899</ele>
        <time>2019-08-20T00:42:01Z</time>
      </trkpt>
      <trkpt lat="44.43033" lon="6.88316">
        <ele>1901</ele>
        <time>2019-08-20T00:42:38Z</time>
      </trkpt>
      <trkpt lat="44.4303" lon="6.88321">
        <ele>1901</ele>
        <time>2019-08-20T00:42:44Z</time>
      </trkpt>
      <trkpt lat="44.43029" lon="6.88326">
        <ele>1902</ele>
        <time>2019-08-20T00:42:49Z</time>
      </trkpt>
      <trkpt lat="44.4303" lon="6.88328">
        <ele>1903</ele>
        <time>2019-08-20T00:42:51Z</time>
      </trkpt>
      <trkpt lat="44.43031" lon="6.88328">
        <ele>1903</ele>
        <time>2019-08-20T00:42:53Z</time>
      </trkpt>
      <trkpt lat="44.43033" lon="6.88327">
        <ele>1904</ele>
        <time>2019-08-20T00:42:56Z</time>
      </trkpt>
      <trkpt lat="44.43041" lon="6.88315">
        <ele>1904</ele>
        <time>2019-08-20T00:43:11Z</time>
      </trkpt>
      <trkpt lat="44.43049" lon="6.88312">
        <ele>1906</ele>
        <time>2019-08-20T00:43:22Z</time>
      </trkpt>
      <trkpt lat="44.43001" lon="6.88405">
        <ele>1911</ele>
        <time>2019-08-20T00:45:12Z</time>
      </trkpt>
      <trkpt lat="44.42994" lon="6.88419">
        <ele>1911</ele>
        <time>2019-08-20T00:45:28Z</time>
      </trkpt>
      <trkpt lat="44.42985" lon="6.88441">
        <ele>1912</ele>
        <time>2019-08-20T00:45:52Z</time>
      </trkpt>
      <trkpt lat="44.42979" lon="6.88458">
        <ele>1913</ele>
        <time>2019-08-20T00:46:10Z</time>
      </trkpt>
      <trkpt lat="44.4297" lon="6.88491">
        <ele>1916</ele>
        <time>2019-08-20T00:46:44Z</time>
      </trkpt>
      <trkpt lat="44.42964" lon="6.88506">
        <ele>1917</ele>
        <time>2019-08-20T00:47:00Z</time>
      </trkpt>
      <trkpt lat="44.42958" lon="6.88519">
        <ele>1918</ele>
        <time>2019-08-20T00:47:15Z</time>
      </trkpt>
      <trkpt lat="44.4295" lon="6.88532">
        <ele>1918</ele>
        <time>2019-08-20T00:47:31Z</time>
      </trkpt>
      <trkpt lat="44.42922" lon="6.88568">
        <ele>1916</ele>
        <time>2019-08-20T00:48:22Z</time>
      </trkpt>
      <trkpt lat="44.42904" lon="6.88595">
        <ele>1918</ele>
        <time>2019-08-20T00:48:57Z</time>
      </trkpt>
      <trkpt lat="44.42893" lon="6.88615">
        <ele>1919</ele>
        <time>2019-08-20T00:49:21Z</time>
      </trkpt>
      <trkpt lat="44.42883" lon="6.88635">
        <ele>1920</ele>
        <time>2019-08-20T00:49:45Z</time>
      </trkpt>
      <trkpt lat="44.42861" lon="6.88674">
        <ele>1920</ele>
        <time>2019-08-20T00:50:32Z</time>
      </trkpt>
      <trkpt lat="44.42839" lon="6.88713">
        <ele>1920</ele>
        <time>2019-08-20T00:51:19Z</time>
      </trkpt>
      <trkpt lat="44.42843" lon="6.88722">
        <ele>1924</ele>
        <time>2019-08-20T00:51:29Z</time>
      </trkpt>
      <trkpt lat="44.42844" lon="6.88726">
        <ele>1925</ele>
        <time>2019-08-20T00:51:33Z</time>
      </trkpt>
      <trkpt lat="44.42842" lon="6.88736">
        <ele>1927</ele>
        <time>2019-08-20T00:51:43Z</time>
      </trkpt>
      <trkpt lat="44.42839" lon="6.88747">
        <ele>1928</ele>
        <time>2019-08-20T00:51:55Z</time>
      </trkpt>
      <trkpt lat="44.42825" lon="6.88781">
        <ele>1933</ele>
        <time>2019-08-20T00:52:32Z</time>
      </trkpt>
      <trkpt lat="44.42822" lon="6.88793">
        <ele>1934</ele>
        <time>2019-08-20T00:52:44Z</time>
      </trkpt>
      <trkpt lat="44.42799" lon="6.88841">
        <ele>1938</ele>
        <time>2019-08-20T00:53:39Z</time>
      </trkpt>
      <trkpt lat="44.42776" lon="6.88894">
        <ele>1937</ele>
        <time>2019-08-20T00:54:38Z</time>
      </trkpt>
      <trkpt lat="44.42765" lon="6.88917">
        <ele>1936</ele>
        <time>2019-08-20T00:55:05Z</time>
      </trkpt>
      <trkpt lat="44.4276" lon="6.88932">
        <ele>1935</ele>
        <time>2019-08-20T00:55:20Z</time>
      </trkpt>
      <trkpt lat="44.42759" lon="6.88938">
        <ele>1936</ele>
        <time>2019-08-20T00:55:26Z</time>
      </trkpt>
      <trkpt lat="44.42756" lon="6.88956">
        <ele>1936</ele>
        <time>2019-08-20T00:55:44Z</time>
      </trkpt>
      <trkpt lat="44.42756" lon="6.88991">
        <ele>1938</ele>
        <time>2019-08-20T00:56:17Z</time>
      </trkpt>
      <trkpt lat="44.42756" lon="6.88996">
        <ele>1938</ele>
        <time>2019-08-20T00:56:22Z</time>
      </trkpt>
      <trkpt lat="44.42754" lon="6.89001">
        <ele>1938</ele>
        <time>2019-08-20T00:56:27Z</time>
      </trkpt>
      <trkpt lat="44.42751" lon="6.89005">
        <ele>1938</ele>
        <time>2019-08-20T00:56:33Z</time>
      </trkpt>
      <trkpt lat="44.42756" lon="6.89036">
        <ele>1941</ele>
        <time>2019-08-20T00:57:03Z</time>
      </trkpt>
      <trkpt lat="44.42752" lon="6.89043">
        <ele>1941</ele>
        <time>2019-08-20T00:57:12Z</time>
      </trkpt>
      <trkpt lat="44.42751" lon="6.89053">
        <ele>1941</ele>
        <time>2019-08-20T00:57:21Z</time>
      </trkpt>
      <trkpt lat="44.4275" lon="6.89073">
        <ele>1942</ele>
        <time>2019-08-20T00:57:41Z</time>
      </trkpt>
      <trkpt lat="44.4275" lon="6.89102">
        <ele>1944</ele>
        <time>2019-08-20T00:58:08Z</time>
      </trkpt>
      <trkpt lat="44.4275" lon="6.8911">
        <ele>1945</ele>
        <time>2019-08-20T00:58:16Z</time>
      </trkpt>
      <trkpt lat="44.42742" lon="6.89133">
        <ele>1947</ele>
        <time>2019-08-20T00:58:40Z</time>
      </trkpt>
      <trkpt lat="44.42735" lon="6.89151">
        <ele>1949</ele>
        <time>2019-08-20T00:59:00Z</time>
      </trkpt>
      <trkpt lat="44.42733" lon="6.89155">
        <ele>1949</ele>
        <time>2019-08-20T00:59:04Z</time>
      </trkpt>
      <trkpt lat="44.42731" lon="6.89156">
        <ele>1949</ele>
        <time>2019-08-20T00:59:07Z</time>
      </trkpt>
      <trkpt lat="44.4273" lon="6.89157">
        <ele>1950</ele>
        <time>2019-08-20T00:59:09Z</time>
      </trkpt>
      <trkpt lat="44.42728" lon="6.89157">
        <ele>1950</ele>
        <time>2019-08-20T00:59:12Z</time>
      </trkpt>
      <trkpt lat="44.42727" lon="6.89155">
        <ele>1950</ele>
        <time>2019-08-20T00:59:14Z</time>
      </trkpt>
      <trkpt lat="44.42727" lon="6.89153">
        <ele>1949</ele>
        <time>2019-08-20T00:59:16Z</time>
      </trkpt>
      <trkpt lat="44.42732" lon="6.89135">
        <ele>1948</ele>
        <time>2019-08-20T00:59:34Z</time>
      </trkpt>
      <trkpt lat="44.42734" lon="6.89128">
        <ele>1947</ele>
        <time>2019-08-20T00:59:41Z</time>
      </trkpt>
      <trkpt lat="44.42735" lon="6.89116">
        <ele>1946</ele>
        <time>2019-08-20T00:59:53Z</time>
      </trkpt>
      <trkpt lat="44.42735" lon="6.8911">
        <ele>1946</ele>
        <time>2019-08-20T00:59:59Z</time>
      </trkpt>
      <trkpt lat="44.42733" lon="6.89108">
        <ele>1946</ele>
        <time>2019-08-20T01:00:02Z</time>
      </trkpt>
      <trkpt lat="44.42723" lon="6.89103">
        <ele>1946</ele>
        <time>2019-08-20T01:00:16Z</time>
      </trkpt>
      <trkpt lat="44.42719" lon="6.89102">
        <ele>1946</ele>
        <time>2019-08-20T01:00:21Z</time>
      </trkpt>
      <trkpt lat="44.42704" lon="6.89067">
        <ele>1944</ele>
        <time>2019-08-20T01:01:00Z</time>
      </trkpt>
      <trkpt lat="44.42694" lon="6.89045">
        <ele>1943</ele>
        <time>2019-08-20T01:01:25Z</time>
      </trkpt>
      <trkpt lat="44.42663" lon="6.89012">
        <ele>1942</ele>
        <time>2019-08-20T01:02:17Z</time>
      </trkpt>
      <trkpt lat="44.42656" lon="6.88997">
        <ele>1942</ele>
        <time>2019-08-20T01:02:34Z</time>
      </trkpt>
      <trkpt lat="44.42646" lon="6.88968">
        <ele>1940</ele>
        <time>2019-08-20T01:03:05Z</time>
      </trkpt>
      <trkpt lat="44.42624" lon="6.88935">
        <ele>1938</ele>
        <time>2019-08-20T01:03:48Z</time>
      </trkpt>
      <trkpt lat="44.42609" lon="6.88915">
        <ele>1937</ele>
        <time>2019-08-20T01:04:16Z</time>
      </trkpt>
      <trkpt lat="44.42576" lon="6.88915">
        <ele>1937</ele>
        <time>2019-08-20T01:05:00Z</time>
      </trkpt>
      <trkpt lat="44.42492" lon="6.88928">
        <ele>1929</ele>
        <time>2019-08-20T01:06:52Z</time>
      </trkpt>
      <trkpt lat="44.4245" lon="6.88935">
        <ele>1930</ele>
        <time>2019-08-20T01:07:49Z</time>
      </trkpt>
      <trkpt lat="44.42358" lon="6.88911">
        <ele>1923</ele>
        <time>2019-08-20T01:09:54Z</time>
      </trkpt>
      <trkpt lat="44.42335" lon="6.88906">
        <ele>1923</ele>
        <time>2019-08-20T01:10:25Z</time>
      </trkpt>
      <trkpt lat="44.42312" lon="6.88879">
        <ele>1917</ele>
        <time>2019-08-20T01:11:05Z</time>
      </trkpt>
      <trkpt lat="44.42288" lon="6.88864">
        <ele>1915</ele>
        <time>2019-08-20T01:11:40Z</time>
      </trkpt>
      <trkpt lat="44.42264" lon="6.8885">
        <ele>1914</ele>
        <time>2019-08-20T01:12:15Z</time>
      </trkpt>
      <trkpt lat="44.42235" lon="6.88838">
        <ele>1912</ele>
        <time>2019-08-20T01:12:55Z</time>
      </trkpt>
      <trkpt lat="44.42207" lon="6.88826">
        <ele>1911</ele>
        <time>2019-08-20T01:13:34Z</time>
      </trkpt>
      <trkpt lat="44.42168" lon="6.88822">
        <ele>1912</ele>
        <time>2019-08-20T01:14:26Z</time>
      </trkpt>
      <trkpt lat="44.42128" lon="6.88818">
        <ele>1916</ele>
        <time>2019-08-20T01:15:20Z</time>
      </trkpt>
      <trkpt lat="44.42107" lon="6.88806">
        <ele>1917</ele>
        <time>2019-08-20T01:15:50Z</time>
      </trkpt>
      <trkpt lat="44.42086" lon="6.88795">
        <ele>1918</ele>
        <time>2019-08-20T01:16:20Z</time>
      </trkpt>
      <trkpt lat="44.4206" lon="6.88777">
        <ele>1919</ele>
        <time>2019-08-20T01:16:59Z</time>
      </trkpt>
      <trkpt lat="44.42067" lon="6.88725">
        <ele>1914</ele>
        <time>2019-08-20T01:17:49Z</time>
      </trkpt>
      <trkpt lat="44.42057" lon="6.88695">
        <ele>1915</ele>
        <time>2019-08-20T01:18:21Z</time>
      </trkpt>
      <trkpt lat="44.42023" lon="6.88691">
        <ele>1917</ele>
        <time>2019-08-20T01:19:06Z</time>
      </trkpt>
      <trkpt lat="44.41991" lon="6.88683">
        <ele>1918</ele>
        <time>2019-08-20T01:19:50Z</time>
      </trkpt>
      <trkpt lat="44.41959" lon="6.88675">
        <ele>1917</ele>
        <time>2019-08-20T01:20:33Z</time>
      </trkpt>
      <trkpt lat="44.41929" lon="6.88665">
        <ele>1915</ele>
        <time>2019-08-20T01:21:14Z</time>
      </trkpt>
      <trkpt lat="44.41899" lon="6.88654">
        <ele>1912</ele>
        <time>2019-08-20T01:21:55Z</time>
      </trkpt>
      <trkpt lat="44.41867" lon="6.8867">
        <ele>1911</ele>
        <time>2019-08-20T01:22:41Z</time>
      </trkpt>
      <trkpt lat="44.41836" lon="6.88687">
        <ele>1913</ele>
        <time>2019-08-20T01:23:25Z</time>
      </trkpt>
      <trkpt lat="44.41805" lon="6.88682">
        <ele>1910</ele>
        <time>2019-08-20T01:24:07Z</time>
      </trkpt>
      <trkpt lat="44.41774" lon="6.88677">
        <ele>1908</ele>
        <time>2019-08-20T01:24:49Z</time>
      </trkpt>
      <trkpt lat="44.41762" lon="6.88654">
        <ele>1905</ele>
        <time>2019-08-20T01:25:16Z</time>
      </trkpt>
      <trkpt lat="44.41758" lon="6.88602">
        <ele>1905</ele>
        <time>2019-08-20T01:26:06Z</time>
      </trkpt>
      <trkpt lat="44.41753" lon="6.88563">
        <ele>1907</ele>
        <time>2019-08-20T01:26:43Z</time>
      </trkpt>
      <trkpt lat="44.41729" lon="6.88559">
        <ele>1908</ele>
        <time>2019-08-20T01:27:16Z</time>
      </trkpt>
      <trkpt lat="44.41712" lon="6.88552">
        <ele>1909</ele>
        <time>2019-08-20T01:27:39Z</time>
      </trkpt>
      <trkpt lat="44.41686" lon="6.88534">
        <ele>1911</ele>
        <time>2019-08-20T01:28:18Z</time>
      </trkpt>
      <trkpt lat="44.41659" lon="6.88516">
        <ele>1913</ele>
        <time>2019-08-20T01:28:58Z</time>
      </trkpt>
      <trkpt lat="44.41548" lon="6.88491">
        <ele>1917</ele>
        <time>2019-08-20T01:31:28Z</time>
      </trkpt>
      <trkpt lat="44.41511" lon="6.88482">
        <ele>1918</ele>
        <time>2019-08-20T01:32:18Z</time>
      </trkpt>
      <trkpt lat="44.41443" lon="6.88482">
        <ele>1921</ele>
        <time>2019-08-20T01:33:49Z</time>
      </trkpt>
      <trkpt lat="44.41409" lon="6.88482">
        <ele>1923</ele>
        <time>2019-08-20T01:34:34Z</time>
      </trkpt>
      <trkpt lat="44.41386" lon="6.8847">
        <ele>1925</ele>
        <time>2019-08-20T01:35:07Z</time>
      </trkpt>
      <trkpt lat="44.41363" lon="6.88458">
        <ele>1927</ele>
        <time>2019-08-20T01:35:40Z</time>
      </trkpt>
      <trkpt lat="44.41319" lon="6.88427">
        <ele>1929</ele>
        <time>2019-08-20T01:36:45Z</time>
      </trkpt>
      <trkpt lat="44.41291" lon="6.88419">
        <ele>1926</ele>
        <time>2019-08-20T01:37:23Z</time>
      </trkpt>
      <trkpt lat="44.41265" lon="6.88391">
        <ele>1928</ele>
        <time>2019-08-20T01:38:07Z</time>
      </trkpt>
      <trkpt lat="44.41227" lon="6.88355">
        <ele>1929</ele>
        <time>2019-08-20T01:39:08Z</time>
      </trkpt>
      <trkpt lat="44.41195" lon="6.88335">
        <ele>1927</ele>
        <time>2019-08-20T01:39:55Z</time>
      </trkpt>
      <trkpt lat="44.41128" lon="6.88325">
        <ele>1925</ele>
        <time>2019-08-20T01:41:25Z</time>
      </trkpt>
      <trkpt lat="44.41085" lon="6.88311">
        <ele>1927</ele>
        <time>2019-08-20T01:42:24Z</time>
      </trkpt>
      <trkpt lat="44.41053" lon="6.88275">
        <ele>1929</ele>
        <time>2019-08-20T01:43:19Z</time>
      </trkpt>
      <trkpt lat="44.41025" lon="6.88236">
        <ele>1933</ele>
        <time>2019-08-20T01:44:12Z</time>
      </trkpt>
      <trkpt lat="44.40998" lon="6.88198">
        <ele>1938</ele>
        <time>2019-08-20T01:45:03Z</time>
      </trkpt>
      <trkpt lat="44.4097" lon="6.88185">
        <ele>1936</ele>
        <time>2019-08-20T01:45:42Z</time>
      </trkpt>
      <trkpt lat="44.40942" lon="6.88171">
        <ele>1934</ele>
        <time>2019-08-20T01:46:22Z</time>
      </trkpt>
      <trkpt lat="44.40914" lon="6.88167">
        <ele>1930</ele>
        <time>2019-08-20T01:46:59Z</time>
      </trkpt>
      <trkpt lat="44.40886" lon="6.88163">
        <ele>1931</ele>
        <time>2019-08-20T01:47:37Z</time>
      </trkpt>
      <trkpt lat="44.40862" lon="6.88166">
        <ele>1930</ele>
        <time>2019-08-20T01:48:09Z</time>
      </trkpt>
      <trkpt lat="44.40839" lon="6.8817">
        <ele>1930</ele>
        <time>2019-08-20T01:48:40Z</time>
      </trkpt>
      <trkpt lat="44.40747" lon="6.88123">
        <ele>1933</ele>
        <time>2019-08-20T01:50:51Z</time>
      </trkpt>
      <trkpt lat="44.40716" lon="6.88108">
        <ele>1932</ele>
        <time>2019-08-20T01:51:34Z</time>
      </trkpt>
      <trkpt lat="44.4069" lon="6.88069">
        <ele>1933</ele>
        <time>2019-08-20T01:52:25Z</time>
      </trkpt>
      <trkpt lat="44.40672" lon="6.88053">
        <ele>1934</ele>
        <time>2019-08-20T01:52:54Z</time>
      </trkpt>
      <trkpt lat="44.40657" lon="6.88049">
        <ele>1934</ele>
        <time>2019-08-20T01:53:14Z</time>
      </trkpt>
      <trkpt lat="44.40634" lon="6.88037">
        <ele>1936</ele>
        <time>2019-08-20T01:53:47Z</time>
      </trkpt>
      <trkpt lat="44.40616" lon="6.88013">
        <ele>1938</ele>
        <time>2019-08-20T01:54:20Z</time>
      </trkpt>
      <trkpt lat="44.40595" lon="6.87997">
        <ele>1938</ele>
        <time>2019-08-20T01:54:52Z</time>
      </trkpt>
      <trkpt lat="44.40574" lon="6.87981">
        <ele>1941</ele>
        <time>2019-08-20T01:55:24Z</time>
      </trkpt>
      <trkpt lat="44.40561" lon="6.87973">
        <ele>1942</ele>
        <time>2019-08-20T01:55:43Z</time>
      </trkpt>
      <trkpt lat="44.4054" lon="6.87972">
        <ele>1942</ele>
        <time>2019-08-20T01:56:11Z</time>
      </trkpt>
      <trkpt lat="44.40513" lon="6.87958">
        <ele>1944</ele>
        <time>2019-08-20T01:56:49Z</time>
      </trkpt>
      <trkpt lat="44.40485" lon="6.87943">
        <ele>1945</ele>
        <time>2019-08-20T01:57:29Z</time>
      </trkpt>
      <trkpt lat="44.4046" lon="6.87932">
        <ele>1946</ele>
        <time>2019-08-20T01:58:04Z</time>
      </trkpt>
      <trkpt lat="44.40434" lon="6.87921">
        <ele>1947</ele>
        <time>2019-08-20T01:58:40Z</time>
      </trkpt>
      <trkpt lat="44.40412" lon="6.87902">
        <ele>1952</ele>
        <time>2019-08-20T01:59:15Z</time>
      </trkpt>
      <trkpt lat="44.40392" lon="6.87901">
        <ele>1953</ele>
        <time>2019-08-20T01:59:42Z</time>
      </trkpt>
      <trkpt lat="44.40368" lon="6.87864">
        <ele>1963</ele>
        <time>2019-08-20T02:00:29Z</time>
      </trkpt>
      <trkpt lat="44.40333" lon="6.87839">
        <ele>1970</ele>
        <time>2019-08-20T02:01:22Z</time>
      </trkpt>
      <trkpt lat="44.40319" lon="6.87831">
        <ele>1970</ele>
        <time>2019-08-20T02:01:42Z</time>
      </trkpt>
      <trkpt lat="44.40309" lon="6.87834">
        <ele>1969</ele>
        <time>2019-08-20T02:01:56Z</time>
      </trkpt>
      <trkpt lat="44.40284" lon="6.87823">
        <ele>1970</ele>
        <time>2019-08-20T02:02:30Z</time>
      </trkpt>
      <trkpt lat="44.4026" lon="6.87811">
        <ele>1971</ele>
        <time>2019-08-20T02:03:04Z</time>
      </trkpt>
      <trkpt lat="44.40229" lon="6.87806">
        <ele>1971</ele>
        <time>2019-08-20T02:03:46Z</time>
      </trkpt>
      <trkpt lat="44.4019" lon="6.87786">
        <ele>1973</ele>
        <time>2019-08-20T02:04:42Z</time>
      </trkpt>
      <trkpt lat="44.40148" lon="6.8778">
        <ele>1971</ele>
        <time>2019-08-20T02:05:38Z</time>
      </trkpt>
      <trkpt lat="44.40113" lon="6.8776">
        <ele>1974</ele>
        <time>2019-08-20T02:06:28Z</time>
      </trkpt>
      <trkpt lat="44.40078" lon="6.87739">
        <ele>1979</ele>
        <time>2019-08-20T02:07:19Z</time>
      </trkpt>
      <trkpt lat="44.40055" lon="6.87744">
        <ele>1976</ele>
        <time>2019-08-20T02:07:50Z</time>
      </trkpt>
      <trkpt lat="44.40015" lon="6.87723">
        <ele>1982</ele>
        <time>2019-08-20T02:08:47Z</time>
      </trkpt>
      <trkpt lat="44.39977" lon="6.87726">
        <ele>1980</ele>
        <time>2019-08-20T02:09:38Z</time>
      </trkpt>
      <trkpt lat="44.39936" lon="6.87713">
        <ele>1982</ele>
        <time>2019-08-20T02:10:34Z</time>
      </trkpt>
      <trkpt lat="44.39896" lon="6.877">
        <ele>1983</ele>
        <time>2019-08-20T02:11:29Z</time>
      </trkpt>
      <trkpt lat="44.39857" lon="6.87699">
        <ele>1980</ele>
        <time>2019-08-20T02:12:21Z</time>
      </trkpt>
      <trkpt lat="44.39818" lon="6.87697">
        <ele>1978</ele>
        <time>2019-08-20T02:13:13Z</time>
      </trkpt>
      <trkpt lat="44.39788" lon="6.87697">
        <ele>1979</ele>
        <time>2019-08-20T02:13:53Z</time>
      </trkpt>
      <trkpt lat="44.39758" lon="6.87696">
        <ele>1979</ele>
        <time>2019-08-20T02:14:33Z</time>
      </trkpt>
      <trkpt lat="44.39715" lon="6.87712">
        <ele>1979</ele>
        <time>2019-08-20T02:15:33Z</time>
      </trkpt>
      <trkpt lat="44.39694" lon="6.87724">
        <ele>1978</ele>
        <time>2019-08-20T02:16:03Z</time>
      </trkpt>
      <trkpt lat="44.39673" lon="6.87736">
        <ele>1977</ele>
        <time>2019-08-20T02:16:33Z</time>
      </trkpt>
      <trkpt lat="44.39637" lon="6.87726">
        <ele>1981</ele>
        <time>2019-08-20T02:17:22Z</time>
      </trkpt>
      <trkpt lat="44.39607" lon="6.87732">
        <ele>1982</ele>
        <time>2019-08-20T02:18:02Z</time>
      </trkpt>
      <trkpt lat="44.39577" lon="6.87738">
        <ele>1982</ele>
        <time>2019-08-20T02:18:43Z</time>
      </trkpt>
      <trkpt lat="44.3954" lon="6.87757">
        <ele>1984</ele>
        <time>2019-08-20T02:19:36Z</time>
      </trkpt>
      <trkpt lat="44.39504" lon="6.87776">
        <ele>1986</ele>
        <time>2019-08-20T02:20:27Z</time>
      </trkpt>
      <trkpt lat="44.39481" lon="6.87779">
        <ele>1987</ele>
        <time>2019-08-20T02:20:58Z</time>
      </trkpt>
      <trkpt lat="44.39439" lon="6.87782">
        <ele>1989</ele>
        <time>2019-08-20T02:21:54Z</time>
      </trkpt>
      <trkpt lat="44.39414" lon="6.87784">
        <ele>1990</ele>
        <time>2019-08-20T02:22:27Z</time>
      </trkpt>
      <trkpt lat="44.39395" lon="6.87767">
        <ele>1995</ele>
        <time>2019-08-20T02:22:57Z</time>
      </trkpt>
      <trkpt lat="44.39376" lon="6.87766">
        <ele>1996</ele>
        <time>2019-08-20T02:23:23Z</time>
      </trkpt>
      <trkpt lat="44.39342" lon="6.87763">
        <ele>1999</ele>
        <time>2019-08-20T02:24:08Z</time>
      </trkpt>
      <trkpt lat="44.39314" lon="6.8775">
        <ele>2003</ele>
        <time>2019-08-20T02:24:48Z</time>
      </trkpt>
      <trkpt lat="44.39286" lon="6.87731">
        <ele>2010</ele>
        <time>2019-08-20T02:25:29Z</time>
      </trkpt>
      <trkpt lat="44.39261" lon="6.87724">
        <ele>2012</ele>
        <time>2019-08-20T02:26:03Z</time>
      </trkpt>
      <trkpt lat="44.39237" lon="6.87716">
        <ele>2013</ele>
        <time>2019-08-20T02:26:36Z</time>
      </trkpt>
      <trkpt lat="44.39225" lon="6.87708">
        <ele>2014</ele>
        <time>2019-08-20T02:26:54Z</time>
      </trkpt>
      <trkpt lat="44.39184" lon="6.87637">
        <ele>2034</ele>
        <time>2019-08-20T02:28:21Z</time>
      </trkpt>
      <trkpt lat="44.39159" lon="6.87598">
        <ele>2044</ele>
        <time>2019-08-20T02:29:11Z</time>
      </trkpt>
      <trkpt lat="44.3914" lon="6.876">
        <ele>2044</ele>
        <time>2019-08-20T02:29:36Z</time>
      </trkpt>
      <trkpt lat="44.3913" lon="6.87606">
        <ele>2043</ele>
        <time>2019-08-20T02:29:51Z</time>
      </trkpt>
      <trkpt lat="44.39123" lon="6.87606">
        <ele>2043</ele>
        <time>2019-08-20T02:30:00Z</time>
      </trkpt>
      <trkpt lat="44.39114" lon="6.8759">
        <ele>2048</ele>
        <time>2019-08-20T02:30:19Z</time>
      </trkpt>
      <trkpt lat="44.39097" lon="6.87594">
        <ele>2047</ele>
        <time>2019-08-20T02:30:42Z</time>
      </trkpt>
      <trkpt lat="44.39085" lon="6.87588">
        <ele>2049</ele>
        <time>2019-08-20T02:30:59Z</time>
      </trkpt>
      <trkpt lat="44.39075" lon="6.87582">
        <ele>2052</ele>
        <time>2019-08-20T02:31:14Z</time>
      </trkpt>
      <trkpt lat="44.39075" lon="6.87575">
        <ele>2054</ele>
        <time>2019-08-20T02:31:21Z</time>
      </trkpt>
      <trkpt lat="44.39081" lon="6.87566">
        <ele>2056</ele>
        <time>2019-08-20T02:31:32Z</time>
      </trkpt>
      <trkpt lat="44.39085" lon="6.8756">
        <ele>2057</ele>
        <time>2019-08-20T02:31:40Z</time>
      </trkpt>
      <trkpt lat="44.39074" lon="6.87536">
        <ele>2066</ele>
        <time>2019-08-20T02:32:07Z</time>
      </trkpt>
      <trkpt lat="44.39046" lon="6.87481">
        <ele>2082</ele>
        <time>2019-08-20T02:33:12Z</time>
      </trkpt>
      <trkpt lat="44.39042" lon="6.87478">
        <ele>2083</ele>
        <time>2019-08-20T02:33:18Z</time>
      </trkpt>
      <trkpt lat="44.39012" lon="6.87486">
        <ele>2081</ele>
        <time>2019-08-20T02:33:59Z</time>
      </trkpt>
      <trkpt lat="44.38994" lon="6.875">
        <ele>2080</ele>
        <time>2019-08-20T02:34:26Z</time>
      </trkpt>
      <trkpt lat="44.38984" lon="6.8752">
        <ele>2079</ele>
        <time>2019-08-20T02:34:49Z</time>
      </trkpt>
      <trkpt lat="44.38953" lon="6.87533">
        <ele>2085</ele>
        <time>2019-08-20T02:35:33Z</time>
      </trkpt>
      <trkpt lat="44.38922" lon="6.87539">
        <ele>2093</ele>
        <time>2019-08-20T02:36:14Z</time>
      </trkpt>
      <trkpt lat="44.38896" lon="6.87565">
        <ele>2098</ele>
        <time>2019-08-20T02:36:57Z</time>
      </trkpt>
      <trkpt lat="44.38887" lon="6.87553">
        <ele>2103</ele>
        <time>2019-08-20T02:37:14Z</time>
      </trkpt>
      <trkpt lat="44.38888" lon="6.87528">
        <ele>2106</ele>
        <time>2019-08-20T02:37:37Z</time>
      </trkpt>
      <trkpt lat="44.38884" lon="6.87513">
        <ele>2109</ele>
        <time>2019-08-20T02:37:53Z</time>
      </trkpt>
      <trkpt lat="44.38873" lon="6.8749">
        <ele>2118</ele>
        <time>2019-08-20T02:38:19Z</time>
      </trkpt>
      <trkpt lat="44.38854" lon="6.87517">
        <ele>2120</ele>
        <time>2019-08-20T02:38:55Z</time>
      </trkpt>
      <trkpt lat="44.38835" lon="6.87552">
        <ele>2121</ele>
        <time>2019-08-20T02:39:37Z</time>
      </trkpt>
      <trkpt lat="44.38815" lon="6.87587">
        <ele>2122</ele>
        <time>2019-08-20T02:40:20Z</time>
      </trkpt>
      <trkpt lat="44.38803" lon="6.87555">
        <ele>2130</ele>
        <time>2019-08-20T02:40:54Z</time>
      </trkpt>
      <trkpt lat="44.38798" lon="6.87556">
        <ele>2131</ele>
        <time>2019-08-20T02:41:01Z</time>
      </trkpt>
      <trkpt lat="44.38776" lon="6.87561">
        <ele>2137</ele>
        <time>2019-08-20T02:41:31Z</time>
      </trkpt>
      <trkpt lat="44.38752" lon="6.87548">
        <ele>2145</ele>
        <time>2019-08-20T02:42:05Z</time>
      </trkpt>
      <trkpt lat="44.38707" lon="6.87515">
        <ele>2154</ele>
        <time>2019-08-20T02:43:13Z</time>
      </trkpt>
      <trkpt lat="44.38677" lon="6.87505">
        <ele>2159</ele>
        <time>2019-08-20T02:43:54Z</time>
      </trkpt>
      <trkpt lat="44.3866" lon="6.87494">
        <ele>2162</ele>
        <time>2019-08-20T02:44:19Z</time>
      </trkpt>
      <trkpt lat="44.38645" lon="6.87478">
        <ele>2165</ele>
        <time>2019-08-20T02:44:44Z</time>
      </trkpt>
      <trkpt lat="44.38636" lon="6.87473">
        <ele>2166</ele>
        <time>2019-08-20T02:44:57Z</time>
      </trkpt>
      <trkpt lat="44.38632" lon="6.87466">
        <ele>2167</ele>
        <time>2019-08-20T02:45:06Z</time>
      </trkpt>
      <trkpt lat="44.38637" lon="6.87434">
        <ele>2174</ele>
        <time>2019-08-20T02:45:37Z</time>
      </trkpt>
      <trkpt lat="44.38635" lon="6.8741">
        <ele>2180</ele>
        <time>2019-08-20T02:46:00Z</time>
      </trkpt>
      <trkpt lat="44.38625" lon="6.87398">
        <ele>2183</ele>
        <time>2019-08-20T02:46:18Z</time>
      </trkpt>
      <trkpt lat="44.38605" lon="6.87379">
        <ele>2188</ele>
        <time>2019-08-20T02:46:50Z</time>
      </trkpt>
      <trkpt lat="44.38576" lon="6.87354">
        <ele>2195</ele>
        <time>2019-08-20T02:47:35Z</time>
      </trkpt>
      <trkpt lat="44.38542" lon="6.87328">
        <ele>2201</ele>
        <time>2019-08-20T02:48:27Z</time>
      </trkpt>
      <trkpt lat="44.38515" lon="6.873">
        <ele>2206</ele>
        <time>2019-08-20T02:49:12Z</time>
      </trkpt>
      <trkpt lat="44.38488" lon="6.87272">
        <ele>2211</ele>
        <time>2019-08-20T02:49:57Z</time>
      </trkpt>
      <trkpt lat="44.38468" lon="6.87257">
        <ele>2215</ele>
        <time>2019-08-20T02:50:27Z</time>
      </trkpt>
      <trkpt lat="44.38444" lon="6.87241">
        <ele>2219</ele>
        <time>2019-08-20T02:51:02Z</time>
      </trkpt>
      <trkpt lat="44.3842" lon="6.87238">
        <ele>2221</ele>
        <time>2019-08-20T02:51:35Z</time>
      </trkpt>
      <trkpt lat="44.38396" lon="6.87235">
        <ele>2225</ele>
        <time>2019-08-20T02:52:07Z</time>
      </trkpt>
      <trkpt lat="44.38373" lon="6.87225">
        <ele>2230</ele>
        <time>2019-08-20T02:52:39Z</time>
      </trkpt>
      <trkpt lat="44.38353" lon="6.87215">
        <ele>2234</ele>
        <time>2019-08-20T02:53:07Z</time>
      </trkpt>
      <trkpt lat="44.38327" lon="6.87216">
        <ele>2239</ele>
        <time>2019-08-20T02:53:42Z</time>
      </trkpt>
      <trkpt lat="44.38301" lon="6.87217">
        <ele>2244</ele>
        <time>2019-08-20T02:54:17Z</time>
      </trkpt>
      <trkpt lat="44.38273" lon="6.87228">
        <ele>2247</ele>
        <time>2019-08-20T02:54:55Z</time>
      </trkpt>
      <trkpt lat="44.38245" lon="6.87239">
        <ele>2250</ele>
        <time>2019-08-20T02:55:34Z</time>
      </trkpt>
      <trkpt lat="44.38212" lon="6.8725">
        <ele>2256</ele>
        <time>2019-08-20T02:56:20Z</time>
      </trkpt>
      <trkpt lat="44.38177" lon="6.8726">
        <ele>2265</ele>
        <time>2019-08-20T02:57:07Z</time>
      </trkpt>
      <trkpt lat="44.38142" lon="6.87271">
        <ele>2275</ele>
        <time>2019-08-20T02:57:55Z</time>
      </trkpt>
      <trkpt lat="44.38117" lon="6.8728">
        <ele>2281</ele>
        <time>2019-08-20T02:58:30Z</time>
      </trkpt>
      <trkpt lat="44.38092" lon="6.87289">
        <ele>2286</ele>
        <time>2019-08-20T02:59:04Z</time>
      </trkpt>
      <trkpt lat="44.38059" lon="6.87287">
        <ele>2288</ele>
        <time>2019-08-20T02:59:48Z</time>
      </trkpt>
      <trkpt lat="44.38046" lon="6.87287">
        <ele>2288</ele>
        <time>2019-08-20T03:00:05Z</time>
      </trkpt>
      <trkpt lat="44.38034" lon="6.87262">
        <ele>2287</ele>
        <time>2019-08-20T03:00:34Z</time>
      </trkpt>
      <trkpt lat="44.38018" lon="6.87208">
        <ele>2287</ele>
        <time>2019-08-20T03:01:30Z</time>
      </trkpt>
      <trkpt lat="44.38" lon="6.87182">
        <ele>2287</ele>
        <time>2019-08-20T03:02:04Z</time>
      </trkpt>
      <trkpt lat="44.37972" lon="6.87145">
        <ele>2288</ele>
        <time>2019-08-20T03:02:56Z</time>
      </trkpt>
      <trkpt lat="44.37944" lon="6.87108">
        <ele>2293</ele>
        <time>2019-08-20T03:03:47Z</time>
      </trkpt>
      <trkpt lat="44.37905" lon="6.87085">
        <ele>2297</ele>
        <time>2019-08-20T03:04:44Z</time>
      </trkpt>
      <trkpt lat="44.37866" lon="6.87061">
        <ele>2300</ele>
        <time>2019-08-20T03:05:41Z</time>
      </trkpt>
      <trkpt lat="44.37829" lon="6.87042">
        <ele>2302</ele>
        <time>2019-08-20T03:06:33Z</time>
      </trkpt>
      <trkpt lat="44.37792" lon="6.87023">
        <ele>2308</ele>
        <time>2019-08-20T03:07:26Z</time>
      </trkpt>
      <trkpt lat="44.37754" lon="6.87026">
        <ele>2310</ele>
        <time>2019-08-20T03:08:17Z</time>
      </trkpt>
      <trkpt lat="44.37715" lon="6.8703">
        <ele>2317</ele>
        <time>2019-08-20T03:09:09Z</time>
      </trkpt>
      <trkpt lat="44.37685" lon="6.87039">
        <ele>2320</ele>
        <time>2019-08-20T03:09:50Z</time>
      </trkpt>
      <trkpt lat="44.37654" lon="6.87049">
        <ele>2323</ele>
        <time>2019-08-20T03:10:32Z</time>
      </trkpt>
      <trkpt lat="44.37544" lon="6.87041">
        <ele>2336</ele>
        <time>2019-08-20T03:12:59Z</time>
      </trkpt>
      <trkpt lat="44.37507" lon="6.87038">
        <ele>2339</ele>
        <time>2019-08-20T03:13:49Z</time>
      </trkpt>
      <trkpt lat="44.37337" lon="6.86963">
        <ele>2352</ele>
        <time>2019-08-20T03:17:46Z</time>
      </trkpt>
      <trkpt lat="44.37321" lon="6.8696">
        <ele>2354</ele>
        <time>2019-08-20T03:18:08Z</time>
      </trkpt>
      <trkpt lat="44.37305" lon="6.86971">
        <ele>2354</ele>
        <time>2019-08-20T03:18:32Z</time>
      </trkpt>
      <trkpt lat="44.37242" lon="6.86977">
        <ele>2362</ele>
        <time>2019-08-20T03:19:56Z</time>
      </trkpt>
      <trkpt lat="44.37211" lon="6.86981">
        <ele>2370</ele>
        <time>2019-08-20T03:20:38Z</time>
      </trkpt>
      <trkpt lat="44.37188" lon="6.87006">
        <ele>2376</ele>
        <time>2019-08-20T03:21:16Z</time>
      </trkpt>
      <trkpt lat="44.37156" lon="6.87009">
        <ele>2386</ele>
        <time>2019-08-20T03:21:59Z</time>
      </trkpt>
      <trkpt lat="44.37124" lon="6.87012">
        <ele>2395</ele>
        <time>2019-08-20T03:22:42Z</time>
      </trkpt>
      <trkpt lat="44.37115" lon="6.87019">
        <ele>2399</ele>
        <time>2019-08-20T03:22:56Z</time>
      </trkpt>
      <trkpt lat="44.37112" lon="6.87037">
        <ele>2402</ele>
        <time>2019-08-20T03:23:13Z</time>
      </trkpt>
      <trkpt lat="44.37112" lon="6.87037">
        <ele>2402</ele>
        <time>2019-08-20T03:23:13Z</time>
      </trkpt>
      <trkpt lat="44.37089" lon="6.87045">
        <ele>2408</ele>
        <time>2019-08-20T03:23:45Z</time>
      </trkpt>
      <trkpt lat="44.37078" lon="6.87048">
        <ele>2411</ele>
        <time>2019-08-20T03:24:00Z</time>
      </trkpt>
      <trkpt lat="44.37072" lon="6.87052">
        <ele>2413</ele>
        <time>2019-08-20T03:24:09Z</time>
      </trkpt>
      <trkpt lat="44.37046" lon="6.87056">
        <ele>2421</ele>
        <time>2019-08-20T03:24:44Z</time>
      </trkpt>
      <trkpt lat="44.37027" lon="6.87064">
        <ele>2426</ele>
        <time>2019-08-20T03:25:10Z</time>
      </trkpt>
      <trkpt lat="44.37006" lon="6.87079">
        <ele>2429</ele>
        <time>2019-08-20T03:25:42Z</time>
      </trkpt>
      <trkpt lat="44.36996" lon="6.87089">
        <ele>2430</ele>
        <time>2019-08-20T03:25:58Z</time>
      </trkpt>
      <trkpt lat="44.36991" lon="6.87092">
        <ele>2431</ele>
        <time>2019-08-20T03:26:05Z</time>
      </trkpt>
      <trkpt lat="44.36987" lon="6.87097">
        <ele>2432</ele>
        <time>2019-08-20T03:26:13Z</time>
      </trkpt>
      <trkpt lat="44.36981" lon="6.87106">
        <ele>2432</ele>
        <time>2019-08-20T03:26:24Z</time>
      </trkpt>
      <trkpt lat="44.36982" lon="6.87115">
        <ele>2430</ele>
        <time>2019-08-20T03:26:33Z</time>
      </trkpt>
      <trkpt lat="44.36981" lon="6.87125">
        <ele>2429</ele>
        <time>2019-08-20T03:26:43Z</time>
      </trkpt>
      <trkpt lat="44.36975" lon="6.87135">
        <ele>2428</ele>
        <time>2019-08-20T03:26:55Z</time>
      </trkpt>
      <trkpt lat="44.36973" lon="6.87144">
        <ele>2427</ele>
        <time>2019-08-20T03:27:04Z</time>
      </trkpt>
      <trkpt lat="44.36955" lon="6.87166">
        <ele>2425</ele>
        <time>2019-08-20T03:27:36Z</time>
      </trkpt>
      <trkpt lat="44.36951" lon="6.87169">
        <ele>2425</ele>
        <time>2019-08-20T03:27:42Z</time>
      </trkpt>
      <trkpt lat="44.36947" lon="6.87195">
        <ele>2427</ele>
        <time>2019-08-20T03:28:07Z</time>
      </trkpt>
      <trkpt lat="44.36925" lon="6.87216">
        <ele>2430</ele>
        <time>2019-08-20T03:28:43Z</time>
      </trkpt>
      <trkpt lat="44.36863" lon="6.87256">
        <ele>2434</ele>
        <time>2019-08-20T03:30:14Z</time>
      </trkpt>
      <trkpt lat="44.36833" lon="6.87277">
        <ele>2440</ele>
        <time>2019-08-20T03:30:59Z</time>
      </trkpt>
      <trkpt lat="44.36796" lon="6.87277">
        <ele>2441</ele>
        <time>2019-08-20T03:31:48Z</time>
      </trkpt>
      <trkpt lat="44.36757" lon="6.87289">
        <ele>2443</ele>
        <time>2019-08-20T03:32:41Z</time>
      </trkpt>
      <trkpt lat="44.36722" lon="6.87334">
        <ele>2440</ele>
        <time>2019-08-20T03:33:45Z</time>
      </trkpt>
      <trkpt lat="44.36683" lon="6.87356">
        <ele>2438</ele>
        <time>2019-08-20T03:34:41Z</time>
      </trkpt>
      <trkpt lat="44.36596" lon="6.87488">
        <ele>2438</ele>
        <time>2019-08-20T03:37:32Z</time>
      </trkpt>
      <trkpt lat="44.36567" lon="6.87532">
        <ele>2435</ele>
        <time>2019-08-20T03:38:29Z</time>
      </trkpt>
      <trkpt lat="44.36577" lon="6.87562">
        <ele>2438</ele>
        <time>2019-08-20T03:39:01Z</time>
      </trkpt>
      <trkpt lat="44.36604" lon="6.87609">
        <ele>2444</ele>
        <time>2019-08-20T03:39:58Z</time>
      </trkpt>
      <trkpt lat="44.36596" lon="6.87637">
        <ele>2442</ele>
        <time>2019-08-20T03:40:27Z</time>
      </trkpt>
      <trkpt lat="44.36582" lon="6.87664">
        <ele>2440</ele>
        <time>2019-08-20T03:40:59Z</time>
      </trkpt>
      <trkpt lat="44.36567" lon="6.8769">
        <ele>2439</ele>
        <time>2019-08-20T03:41:31Z</time>
      </trkpt>
      <trkpt lat="44.36573" lon="6.87726">
        <ele>2439</ele>
        <time>2019-08-20T03:42:06Z</time>
      </trkpt>
      <trkpt lat="44.36601" lon="6.87845">
        <ele>2455</ele>
        <time>2019-08-20T03:44:06Z</time>
      </trkpt>
      <trkpt lat="44.36602" lon="6.87878">
        <ele>2466</ele>
        <time>2019-08-20T03:44:37Z</time>
      </trkpt>
      <trkpt lat="44.36561" lon="6.87931">
        <ele>2482</ele>
        <time>2019-08-20T03:45:52Z</time>
      </trkpt>
      <trkpt lat="44.36583" lon="6.87944">
        <ele>2490</ele>
        <time>2019-08-20T03:46:24Z</time>
      </trkpt>
      <trkpt lat="44.36552" lon="6.87974">
        <ele>2500</ele>
        <time>2019-08-20T03:47:14Z</time>
      </trkpt>
      <trkpt lat="44.36521" lon="6.88004">
        <ele>2508</ele>
        <time>2019-08-20T03:48:04Z</time>
      </trkpt>
      <trkpt lat="44.36503" lon="6.88011">
        <ele>2509</ele>
        <time>2019-08-20T03:48:29Z</time>
      </trkpt>
      <trkpt lat="44.36521" lon="6.8802">
        <ele>2515</ele>
        <time>2019-08-20T03:48:55Z</time>
      </trkpt>
      <trkpt lat="44.36482" lon="6.88045">
        <ele>2526</ele>
        <time>2019-08-20T03:49:52Z</time>
      </trkpt>
      <trkpt lat="44.36448" lon="6.88085">
        <ele>2545</ele>
        <time>2019-08-20T03:50:51Z</time>
      </trkpt>
      <trkpt lat="44.36407" lon="6.88096">
        <ele>2551</ele>
        <time>2019-08-20T03:51:47Z</time>
      </trkpt>
      <trkpt lat="44.36382" lon="6.88088">
        <ele>2554</ele>
        <time>2019-08-20T03:52:21Z</time>
      </trkpt>
      <trkpt lat="44.36356" lon="6.88079">
        <ele>2557</ele>
        <time>2019-08-20T03:52:57Z</time>
      </trkpt>
      <trkpt lat="44.36333" lon="6.88084">
        <ele>2564</ele>
        <time>2019-08-20T03:53:28Z</time>
      </trkpt>
      <trkpt lat="44.36309" lon="6.8809">
        <ele>2568</ele>
        <time>2019-08-20T03:54:00Z</time>
      </trkpt>
      <trkpt lat="44.36286" lon="6.88093">
        <ele>2570</ele>
        <time>2019-08-20T03:54:31Z</time>
      </trkpt>
      <trkpt lat="44.36263" lon="6.88096">
        <ele>2573</ele>
        <time>2019-08-20T03:55:02Z</time>
      </trkpt>
      <trkpt lat="44.36238" lon="6.88118">
        <ele>2577</ele>
        <time>2019-08-20T03:55:42Z</time>
      </trkpt>
      <trkpt lat="44.36213" lon="6.88139">
        <ele>2581</ele>
        <time>2019-08-20T03:56:20Z</time>
      </trkpt>
      <trkpt lat="44.36174" lon="6.88161">
        <ele>2586</ele>
        <time>2019-08-20T03:57:17Z</time>
      </trkpt>
      <trkpt lat="44.36135" lon="6.88182">
        <ele>2620</ele>
        <time>2019-08-20T03:58:12Z</time>
      </trkpt>
      <trkpt lat="44.36062" lon="6.88188">
        <ele>2641</ele>
        <time>2019-08-20T03:59:50Z</time>
      </trkpt>
      <trkpt lat="44.36025" lon="6.88191">
        <ele>2649</ele>
        <time>2019-08-20T04:00:39Z</time>
      </trkpt>
      <trkpt lat="44.35954" lon="6.88145">
        <ele>2652</ele>
        <time>2019-08-20T04:02:24Z</time>
      </trkpt>
      <trkpt lat="44.35919" lon="6.88122">
        <ele>2657</ele>
        <time>2019-08-20T04:03:15Z</time>
      </trkpt>
      <trkpt lat="44.35897" lon="6.88112">
        <ele>2659</ele>
        <time>2019-08-20T04:03:46Z</time>
      </trkpt>
      <trkpt lat="44.35875" lon="6.88102">
        <ele>2660</ele>
        <time>2019-08-20T04:04:17Z</time>
      </trkpt>
      <trkpt lat="44.35848" lon="6.88093">
        <ele>2663</ele>
        <time>2019-08-20T04:04:54Z</time>
      </trkpt>
      <trkpt lat="44.35821" lon="6.88083">
        <ele>2663</ele>
        <time>2019-08-20T04:05:31Z</time>
      </trkpt>
      <trkpt lat="44.35776" lon="6.88081">
        <ele>2665</ele>
        <time>2019-08-20T04:06:32Z</time>
      </trkpt>
      <trkpt lat="44.35732" lon="6.88088">
        <ele>2665</ele>
        <time>2019-08-20T04:07:31Z</time>
      </trkpt>
      <trkpt lat="44.35694" lon="6.88073">
        <ele>2659</ele>
        <time>2019-08-20T04:08:23Z</time>
      </trkpt>
      <trkpt lat="44.35661" lon="6.88039">
        <ele>2656</ele>
        <time>2019-08-20T04:09:18Z</time>
      </trkpt>
      <trkpt lat="44.35657" lon="6.88036">
        <ele>2654</ele>
        <time>2019-08-20T04:09:24Z</time>
      </trkpt>
      <trkpt lat="44.35672" lon="6.88126">
        <ele>2647</ele>
        <time>2019-08-20T04:10:52Z</time>
      </trkpt>
      <trkpt lat="44.3568" lon="6.8817">
        <ele>2642</ele>
        <time>2019-08-20T04:11:36Z</time>
      </trkpt>
      <trkpt lat="44.35662" lon="6.88146">
        <ele>2637</ele>
        <time>2019-08-20T04:12:09Z</time>
      </trkpt>
      <trkpt lat="44.35645" lon="6.88122">
        <ele>2632</ele>
        <time>2019-08-20T04:12:41Z</time>
      </trkpt>
      <trkpt lat="44.35614" lon="6.88093">
        <ele>2619</ele>
        <time>2019-08-20T04:13:31Z</time>
      </trkpt>
      <trkpt lat="44.35578" lon="6.88096">
        <ele>2595</ele>
        <time>2019-08-20T04:14:19Z</time>
      </trkpt>
      <trkpt lat="44.35571" lon="6.88111">
        <ele>2587</ele>
        <time>2019-08-20T04:14:36Z</time>
      </trkpt>
      <trkpt lat="44.3555" lon="6.88128">
        <ele>2572</ele>
        <time>2019-08-20T04:15:08Z</time>
      </trkpt>
      <trkpt lat="44.35529" lon="6.88146">
        <ele>2556</ele>
        <time>2019-08-20T04:15:41Z</time>
      </trkpt>
      <trkpt lat="44.35539" lon="6.88166">
        <ele>2556</ele>
        <time>2019-08-20T04:16:04Z</time>
      </trkpt>
      <trkpt lat="44.35528" lon="6.88186">
        <ele>2544</ele>
        <time>2019-08-20T04:16:29Z</time>
      </trkpt>
      <trkpt lat="44.35495" lon="6.88191">
        <ele>2526</ele>
        <time>2019-08-20T04:17:13Z</time>
      </trkpt>
      <trkpt lat="44.35494" lon="6.88201">
        <ele>2522</ele>
        <time>2019-08-20T04:17:22Z</time>
      </trkpt>
      <trkpt lat="44.3544" lon="6.88234">
        <ele>2488</ele>
        <time>2019-08-20T04:18:41Z</time>
      </trkpt>
      <trkpt lat="44.35438" lon="6.88238">
        <ele>2486</ele>
        <time>2019-08-20T04:18:46Z</time>
      </trkpt>
      <trkpt lat="44.35456" lon="6.88257">
        <ele>2490</ele>
        <time>2019-08-20T04:19:16Z</time>
      </trkpt>
      <trkpt lat="44.35448" lon="6.88264">
        <ele>2486</ele>
        <time>2019-08-20T04:19:28Z</time>
      </trkpt>
      <trkpt lat="44.35432" lon="6.88275">
        <ele>2478</ele>
        <time>2019-08-20T04:19:52Z</time>
      </trkpt>
      <trkpt lat="44.35439" lon="6.88288">
        <ele>2478</ele>
        <time>2019-08-20T04:20:08Z</time>
      </trkpt>
      <trkpt lat="44.35433" lon="6.88295">
        <ele>2475</ele>
        <time>2019-08-20T04:20:18Z</time>
      </trkpt>
      <trkpt lat="44.35434" lon="6.88305">
        <ele>2474</ele>
        <time>2019-08-20T04:20:28Z</time>
      </trkpt>
      <trkpt lat="44.35415" lon="6.88317">
        <ele>2466</ele>
        <time>2019-08-20T04:20:56Z</time>
      </trkpt>
      <trkpt lat="44.35406" lon="6.88329">
        <ele>2461</ele>
        <time>2019-08-20T04:21:12Z</time>
      </trkpt>
      <trkpt lat="44.3541" lon="6.88347">
        <ele>2460</ele>
        <time>2019-08-20T04:21:30Z</time>
      </trkpt>
      <trkpt lat="44.35414" lon="6.88365">
        <ele>2459</ele>
        <time>2019-08-20T04:21:48Z</time>
      </trkpt>
      <trkpt lat="44.35395" lon="6.88379">
        <ele>2450</ele>
        <time>2019-08-20T04:22:17Z</time>
      </trkpt>
      <trkpt lat="44.35382" lon="6.88385">
        <ele>2445</ele>
        <time>2019-08-20T04:22:35Z</time>
      </trkpt>
      <trkpt lat="44.35382" lon="6.88394">
        <ele>2444</ele>
        <time>2019-08-20T04:22:44Z</time>
      </trkpt>
      <trkpt lat="44.35382" lon="6.88405">
        <ele>2443</ele>
        <time>2019-08-20T04:22:54Z</time>
      </trkpt>
      <trkpt lat="44.35397" lon="6.8844">
        <ele>2441</ele>
        <time>2019-08-20T04:23:33Z</time>
      </trkpt>
      <trkpt lat="44.35397" lon="6.88454">
        <ele>2438</ele>
        <time>2019-08-20T04:23:47Z</time>
      </trkpt>
      <trkpt lat="44.35451" lon="6.88481">
        <ele>2440</ele>
        <time>2019-08-20T04:25:03Z</time>
      </trkpt>
      <trkpt lat="44.35425" lon="6.8851">
        <ele>2431</ele>
        <time>2019-08-20T04:25:47Z</time>
      </trkpt>
      <trkpt lat="44.35398" lon="6.88524">
        <ele>2424</ele>
        <time>2019-08-20T04:26:26Z</time>
      </trkpt>
      <trkpt lat="44.35375" lon="6.88519">
        <ele>2421</ele>
        <time>2019-08-20T04:26:57Z</time>
      </trkpt>
      <trkpt lat="44.35351" lon="6.88514">
        <ele>2418</ele>
        <time>2019-08-20T04:27:29Z</time>
      </trkpt>
      <trkpt lat="44.35327" lon="6.885">
        <ele>2415</ele>
        <time>2019-08-20T04:28:04Z</time>
      </trkpt>
      <trkpt lat="44.35308" lon="6.88477">
        <ele>2410</ele>
        <time>2019-08-20T04:28:38Z</time>
      </trkpt>
      <trkpt lat="44.35266" lon="6.88467">
        <ele>2394</ele>
        <time>2019-08-20T04:29:34Z</time>
      </trkpt>
      <trkpt lat="44.3525" lon="6.88452">
        <ele>2388</ele>
        <time>2019-08-20T04:30:00Z</time>
      </trkpt>
      <trkpt lat="44.35242" lon="6.8846">
        <ele>2385</ele>
        <time>2019-08-20T04:30:13Z</time>
      </trkpt>
      <trkpt lat="44.35239" lon="6.88473">
        <ele>2384</ele>
        <time>2019-08-20T04:30:26Z</time>
      </trkpt>
      <trkpt lat="44.35233" lon="6.8848">
        <ele>2382</ele>
        <time>2019-08-20T04:30:37Z</time>
      </trkpt>
      <trkpt lat="44.3523" lon="6.88489">
        <ele>2381</ele>
        <time>2019-08-20T04:30:46Z</time>
      </trkpt>
      <trkpt lat="44.35221" lon="6.88495">
        <ele>2378</ele>
        <time>2019-08-20T04:30:59Z</time>
      </trkpt>
      <trkpt lat="44.35213" lon="6.88492">
        <ele>2376</ele>
        <time>2019-08-20T04:31:11Z</time>
      </trkpt>
      <trkpt lat="44.35206" lon="6.88495">
        <ele>2374</ele>
        <time>2019-08-20T04:31:20Z</time>
      </trkpt>
      <trkpt lat="44.35202" lon="6.88512">
        <ele>2373</ele>
        <time>2019-08-20T04:31:37Z</time>
      </trkpt>
      <trkpt lat="44.35198" lon="6.8851">
        <ele>2371</ele>
        <time>2019-08-20T04:31:43Z</time>
      </trkpt>
      <trkpt lat="44.35191" lon="6.88493">
        <ele>2369</ele>
        <time>2019-08-20T04:32:02Z</time>
      </trkpt>
      <trkpt lat="44.35181" lon="6.88501">
        <ele>2366</ele>
        <time>2019-08-20T04:32:17Z</time>
      </trkpt>
      <trkpt lat="44.35179" lon="6.88485">
        <ele>2364</ele>
        <time>2019-08-20T04:32:33Z</time>
      </trkpt>
      <trkpt lat="44.35183" lon="6.88445">
        <ele>2362</ele>
        <time>2019-08-20T04:33:11Z</time>
      </trkpt>
      <trkpt lat="44.35187" lon="6.88405">
        <ele>2363</ele>
        <time>2019-08-20T04:33:50Z</time>
      </trkpt>
      <trkpt lat="44.35181" lon="6.8839">
        <ele>2361</ele>
        <time>2019-08-20T04:34:06Z</time>
      </trkpt>
      <trkpt lat="44.35168" lon="6.88373">
        <ele>2357</ele>
        <time>2019-08-20T04:34:30Z</time>
      </trkpt>
      <trkpt lat="44.35146" lon="6.88372">
        <ele>2350</ele>
        <time>2019-08-20T04:34:59Z</time>
      </trkpt>
      <trkpt lat="44.35129" lon="6.88376">
        <ele>2344</ele>
        <time>2019-08-20T04:35:22Z</time>
      </trkpt>
      <trkpt lat="44.35111" lon="6.88371">
        <ele>2339</ele>
        <time>2019-08-20T04:35:47Z</time>
      </trkpt>
      <trkpt lat="44.35075" lon="6.88375">
        <ele>2327</ele>
        <time>2019-08-20T04:36:35Z</time>
      </trkpt>
      <trkpt lat="44.3504" lon="6.88379">
        <ele>2317</ele>
        <time>2019-08-20T04:37:22Z</time>
      </trkpt>
      <trkpt lat="44.35002" lon="6.88374">
        <ele>2306</ele>
        <time>2019-08-20T04:38:13Z</time>
      </trkpt>
      <trkpt lat="44.34965" lon="6.88368">
        <ele>2299</ele>
        <time>2019-08-20T04:39:02Z</time>
      </trkpt>
      <trkpt lat="44.34926" lon="6.88343">
        <ele>2291</ele>
        <time>2019-08-20T04:40:00Z</time>
      </trkpt>
      <trkpt lat="44.3491" lon="6.88321">
        <ele>2284</ele>
        <time>2019-08-20T04:40:30Z</time>
      </trkpt>
      <trkpt lat="44.34884" lon="6.88336">
        <ele>2281</ele>
        <time>2019-08-20T04:41:07Z</time>
      </trkpt>
      <trkpt lat="44.34873" lon="6.88276">
        <ele>2266</ele>
        <time>2019-08-20T04:42:06Z</time>
      </trkpt>
      <trkpt lat="44.34847" lon="6.88251">
        <ele>2258</ele>
        <time>2019-08-20T04:42:48Z</time>
      </trkpt>
      <trkpt lat="44.34821" lon="6.88227">
        <ele>2248</ele>
        <time>2019-08-20T04:43:30Z</time>
      </trkpt>
      <trkpt lat="44.34782" lon="6.88233">
        <ele>2243</ele>
        <time>2019-08-20T04:44:22Z</time>
      </trkpt>
      <trkpt lat="44.34743" lon="6.88239">
        <ele>2237</ele>
        <time>2019-08-20T04:45:15Z</time>
      </trkpt>
      <trkpt lat="44.34704" lon="6.88246">
        <ele>2227</ele>
        <time>2019-08-20T04:46:07Z</time>
      </trkpt>
      <trkpt lat="44.34659" lon="6.88254">
        <ele>2215</ele>
        <time>2019-08-20T04:47:08Z</time>
      </trkpt>
      <trkpt lat="44.34626" lon="6.88237">
        <ele>2204</ele>
        <time>2019-08-20T04:47:55Z</time>
      </trkpt>
      <trkpt lat="44.34593" lon="6.8822">
        <ele>2193</ele>
        <time>2019-08-20T04:48:42Z</time>
      </trkpt>
      <trkpt lat="44.34557" lon="6.88241">
        <ele>2190</ele>
        <time>2019-08-20T04:49:34Z</time>
      </trkpt>
      <trkpt lat="44.34521" lon="6.88261">
        <ele>2183</ele>
        <time>2019-08-20T04:50:25Z</time>
      </trkpt>
      <trkpt lat="44.34495" lon="6.88258">
        <ele>2177</ele>
        <time>2019-08-20T04:51:00Z</time>
      </trkpt>
      <trkpt lat="44.34468" lon="6.88254">
        <ele>2173</ele>
        <time>2019-08-20T04:51:36Z</time>
      </trkpt>
      <trkpt lat="44.3444" lon="6.88233">
        <ele>2166</ele>
        <time>2019-08-20T04:52:19Z</time>
      </trkpt>
      <trkpt lat="44.34413" lon="6.88211">
        <ele>2158</ele>
        <time>2019-08-20T04:53:00Z</time>
      </trkpt>
      <trkpt lat="44.34332" lon="6.8812">
        <ele>2131</ele>
        <time>2019-08-20T04:55:19Z</time>
      </trkpt>
      <trkpt lat="44.34305" lon="6.8809">
        <ele>2122</ele>
        <time>2019-08-20T04:56:05Z</time>
      </trkpt>
      <trkpt lat="44.34201" lon="6.88111">
        <ele>2106</ele>
        <time>2019-08-20T04:58:25Z</time>
      </trkpt>
      <trkpt lat="44.34163" lon="6.88115">
        <ele>2101</ele>
        <time>2019-08-20T04:59:16Z</time>
      </trkpt>
      <trkpt lat="44.34152" lon="6.88104">
        <ele>2100</ele>
        <time>2019-08-20T04:59:34Z</time>
      </trkpt>
      <trkpt lat="44.3414" lon="6.88102">
        <ele>2099</ele>
        <time>2019-08-20T04:59:50Z</time>
      </trkpt>
      <trkpt lat="44.3413" lon="6.88073">
        <ele>2097</ele>
        <time>2019-08-20T05:00:21Z</time>
      </trkpt>
      <trkpt lat="44.34107" lon="6.88045">
        <ele>2094</ele>
        <time>2019-08-20T05:01:02Z</time>
      </trkpt>
      <trkpt lat="44.34099" lon="6.88018">
        <ele>2092</ele>
        <time>2019-08-20T05:01:30Z</time>
      </trkpt>
      <trkpt lat="44.34088" lon="6.87987">
        <ele>2089</ele>
        <time>2019-08-20T05:02:03Z</time>
      </trkpt>
      <trkpt lat="44.34078" lon="6.87957">
        <ele>2088</ele>
        <time>2019-08-20T05:02:34Z</time>
      </trkpt>
      <trkpt lat="44.34086" lon="6.87931">
        <ele>2088</ele>
        <time>2019-08-20T05:03:01Z</time>
      </trkpt>
      <trkpt lat="44.34084" lon="6.87902">
        <ele>2089</ele>
        <time>2019-08-20T05:03:29Z</time>
      </trkpt>
      <trkpt lat="44.34062" lon="6.8788">
        <ele>2089</ele>
        <time>2019-08-20T05:04:05Z</time>
      </trkpt>
      <trkpt lat="44.3404" lon="6.87858">
        <ele>2089</ele>
        <time>2019-08-20T05:04:41Z</time>
      </trkpt>
      <trkpt lat="44.34026" lon="6.87831">
        <ele>2089</ele>
        <time>2019-08-20T05:05:13Z</time>
      </trkpt>
      <trkpt lat="44.34007" lon="6.87815">
        <ele>2089</ele>
        <time>2019-08-20T05:05:43Z</time>
      </trkpt>
      <trkpt lat="44.33972" lon="6.87802">
        <ele>2084</ele>
        <time>2019-08-20T05:06:31Z</time>
      </trkpt>
      <trkpt lat="44.33962" lon="6.87795">
        <ele>2083</ele>
        <time>2019-08-20T05:06:46Z</time>
      </trkpt>
      <trkpt lat="44.33953" lon="6.87786">
        <ele>2083</ele>
        <time>2019-08-20T05:07:01Z</time>
      </trkpt>
      <trkpt lat="44.3392" lon="6.87771">
        <ele>2078</ele>
        <time>2019-08-20T05:07:47Z</time>
      </trkpt>
      <trkpt lat="44.33917" lon="6.87765">
        <ele>2078</ele>
        <time>2019-08-20T05:07:54Z</time>
      </trkpt>
      <trkpt lat="44.33924" lon="6.87716">
        <ele>2079</ele>
        <time>2019-08-20T05:08:42Z</time>
      </trkpt>
      <trkpt lat="44.33923" lon="6.87706">
        <ele>2079</ele>
        <time>2019-08-20T05:08:51Z</time>
      </trkpt>
      <trkpt lat="44.33963" lon="6.87644">
        <ele>2091</ele>
        <time>2019-08-20T05:10:11Z</time>
      </trkpt>
      <trkpt lat="44.3397" lon="6.87607">
        <ele>2095</ele>
        <time>2019-08-20T05:10:48Z</time>
      </trkpt>
      <trkpt lat="44.33943" lon="6.87646">
        <ele>2087</ele>
        <time>2019-08-20T05:11:39Z</time>
      </trkpt>
      <trkpt lat="44.33928" lon="6.87639">
        <ele>2085</ele>
        <time>2019-08-20T05:12:00Z</time>
      </trkpt>
      <trkpt lat="44.33901" lon="6.87611">
        <ele>2087</ele>
        <time>2019-08-20T05:12:45Z</time>
      </trkpt>
      <trkpt lat="44.33892" lon="6.87593">
        <ele>2090</ele>
        <time>2019-08-20T05:13:06Z</time>
      </trkpt>
      <trkpt lat="44.33873" lon="6.87576">
        <ele>2093</ele>
        <time>2019-08-20T05:13:36Z</time>
      </trkpt>
      <trkpt lat="44.33848" lon="6.87542">
        <ele>2102</ele>
        <time>2019-08-20T05:14:23Z</time>
      </trkpt>
      <trkpt lat="44.33824" lon="6.8753">
        <ele>2102</ele>
        <time>2019-08-20T05:14:57Z</time>
      </trkpt>
      <trkpt lat="44.33799" lon="6.87511">
        <ele>2104</ele>
        <time>2019-08-20T05:15:35Z</time>
      </trkpt>
      <trkpt lat="44.33777" lon="6.87482">
        <ele>2112</ele>
        <time>2019-08-20T05:16:15Z</time>
      </trkpt>
      <trkpt lat="44.33755" lon="6.87454">
        <ele>2119</ele>
        <time>2019-08-20T05:16:55Z</time>
      </trkpt>
      <trkpt lat="44.33695" lon="6.87407">
        <ele>2143</ele>
        <time>2019-08-20T05:18:27Z</time>
      </trkpt>
      <trkpt lat="44.33677" lon="6.87388">
        <ele>2154</ele>
        <time>2019-08-20T05:18:57Z</time>
      </trkpt>
      <trkpt lat="44.33648" lon="6.87379">
        <ele>2156</ele>
        <time>2019-08-20T05:19:37Z</time>
      </trkpt>
      <trkpt lat="44.33618" lon="6.87365">
        <ele>2159</ele>
        <time>2019-08-20T05:20:19Z</time>
      </trkpt>
      <trkpt lat="44.33588" lon="6.87351">
        <ele>2162</ele>
        <time>2019-08-20T05:21:01Z</time>
      </trkpt>
      <trkpt lat="44.33567" lon="6.87327">
        <ele>2173</ele>
        <time>2019-08-20T05:21:37Z</time>
      </trkpt>
      <trkpt lat="44.33543" lon="6.87304">
        <ele>2179</ele>
        <time>2019-08-20T05:22:16Z</time>
      </trkpt>
      <trkpt lat="44.33531" lon="6.87277">
        <ele>2188</ele>
        <time>2019-08-20T05:22:46Z</time>
      </trkpt>
      <trkpt lat="44.3352" lon="6.8725">
        <ele>2197</ele>
        <time>2019-08-20T05:23:16Z</time>
      </trkpt>
      <trkpt lat="44.33518" lon="6.87215">
        <ele>2206</ele>
        <time>2019-08-20T05:23:49Z</time>
      </trkpt>
      <trkpt lat="44.3352" lon="6.87199">
        <ele>2211</ele>
        <time>2019-08-20T05:24:05Z</time>
      </trkpt>
      <trkpt lat="44.33515" lon="6.87183">
        <ele>2215</ele>
        <time>2019-08-20T05:24:22Z</time>
      </trkpt>
      <trkpt lat="44.33528" lon="6.8718">
        <ele>2218</ele>
        <time>2019-08-20T05:24:39Z</time>
      </trkpt>
      <trkpt lat="44.33519" lon="6.87159">
        <ele>2223</ele>
        <time>2019-08-20T05:25:03Z</time>
      </trkpt>
      <trkpt lat="44.33504" lon="6.87155">
        <ele>2222</ele>
        <time>2019-08-20T05:25:23Z</time>
      </trkpt>
      <trkpt lat="44.33483" lon="6.87157">
        <ele>2226</ele>
        <time>2019-08-20T05:25:51Z</time>
      </trkpt>
      <trkpt lat="44.33484" lon="6.87146">
        <ele>2230</ele>
        <time>2019-08-20T05:26:02Z</time>
      </trkpt>
      <trkpt lat="44.33479" lon="6.8715">
        <ele>2230</ele>
        <time>2019-08-20T05:26:09Z</time>
      </trkpt>
      <trkpt lat="44.33471" lon="6.87148">
        <ele>2233</ele>
        <time>2019-08-20T05:26:20Z</time>
      </trkpt>
      <trkpt lat="44.33466" lon="6.87162">
        <ele>2230</ele>
        <time>2019-08-20T05:26:35Z</time>
      </trkpt>
      <trkpt lat="44.33464" lon="6.87151">
        <ele>2234</ele>
        <time>2019-08-20T05:26:46Z</time>
      </trkpt>
      <trkpt lat="44.33455" lon="6.8716">
        <ele>2234</ele>
        <time>2019-08-20T05:27:01Z</time>
      </trkpt>
      <trkpt lat="44.33452" lon="6.8717">
        <ele>2232</ele>
        <time>2019-08-20T05:27:11Z</time>
      </trkpt>
      <trkpt lat="44.33445" lon="6.87172">
        <ele>2234</ele>
        <time>2019-08-20T05:27:21Z</time>
      </trkpt>
      <trkpt lat="44.33434" lon="6.87185">
        <ele>2235</ele>
        <time>2019-08-20T05:27:40Z</time>
      </trkpt>
      <trkpt lat="44.33411" lon="6.87193">
        <ele>2241</ele>
        <time>2019-08-20T05:28:11Z</time>
      </trkpt>
      <trkpt lat="44.33411" lon="6.87188">
        <ele>2242</ele>
        <time>2019-08-20T05:28:16Z</time>
      </trkpt>
      <trkpt lat="44.33402" lon="6.87188">
        <ele>2245</ele>
        <time>2019-08-20T05:28:28Z</time>
      </trkpt>
      <trkpt lat="44.33394" lon="6.87192">
        <ele>2247</ele>
        <time>2019-08-20T05:28:40Z</time>
      </trkpt>
      <trkpt lat="44.33397" lon="6.87168">
        <ele>2250</ele>
        <time>2019-08-20T05:29:03Z</time>
      </trkpt>
      <trkpt lat="44.33399" lon="6.87145">
        <ele>2253</ele>
        <time>2019-08-20T05:29:25Z</time>
      </trkpt>
      <trkpt lat="44.33395" lon="6.87144">
        <ele>2254</ele>
        <time>2019-08-20T05:29:30Z</time>
      </trkpt>
      <trkpt lat="44.33395" lon="6.87136">
        <ele>2255</ele>
        <time>2019-08-20T05:29:38Z</time>
      </trkpt>
      <trkpt lat="44.33403" lon="6.87123">
        <ele>2255</ele>
        <time>2019-08-20T05:29:54Z</time>
      </trkpt>
      <trkpt lat="44.33404" lon="6.87118">
        <ele>2256</ele>
        <time>2019-08-20T05:29:59Z</time>
      </trkpt>
      <trkpt lat="44.33393" lon="6.87116">
        <ele>2257</ele>
        <time>2019-08-20T05:30:14Z</time>
      </trkpt>
      <trkpt lat="44.33384" lon="6.87113">
        <ele>2258</ele>
        <time>2019-08-20T05:30:26Z</time>
      </trkpt>
      <trkpt lat="44.33371" lon="6.8701">
        <ele>2261</ele>
        <time>2019-08-20T05:32:06Z</time>
      </trkpt>
      <trkpt lat="44.33366" lon="6.86978">
        <ele>2261</ele>
        <time>2019-08-20T05:32:38Z</time>
      </trkpt>
      <trkpt lat="44.33362" lon="6.86968">
        <ele>2260</ele>
        <time>2019-08-20T05:32:48Z</time>
      </trkpt>
      <trkpt lat="44.33352" lon="6.86955">
        <ele>2258</ele>
        <time>2019-08-20T05:33:07Z</time>
      </trkpt>
      <trkpt lat="44.33347" lon="6.86941">
        <ele>2258</ele>
        <time>2019-08-20T05:33:22Z</time>
      </trkpt>
      <trkpt lat="44.33346" lon="6.86912">
        <ele>2258</ele>
        <time>2019-08-20T05:33:49Z</time>
      </trkpt>
      <trkpt lat="44.33349" lon="6.86886">
        <ele>2257</ele>
        <time>2019-08-20T05:34:15Z</time>
      </trkpt>
      <trkpt lat="44.33359" lon="6.86829">
        <ele>2257</ele>
        <time>2019-08-20T05:35:11Z</time>
      </trkpt>
      <trkpt lat="44.33357" lon="6.868">
        <ele>2258</ele>
        <time>2019-08-20T05:35:38Z</time>
      </trkpt>
      <trkpt lat="44.33349" lon="6.86768">
        <ele>2258</ele>
        <time>2019-08-20T05:36:11Z</time>
      </trkpt>
      <trkpt lat="44.33347" lon="6.86736">
        <ele>2259</ele>
        <time>2019-08-20T05:36:41Z</time>
      </trkpt>
      <trkpt lat="44.33342" lon="6.86718">
        <ele>2259</ele>
        <time>2019-08-20T05:37:00Z</time>
      </trkpt>
      <trkpt lat="44.33341" lon="6.86708">
        <ele>2259</ele>
        <time>2019-08-20T05:37:09Z</time>
      </trkpt>
      <trkpt lat="44.3334" lon="6.8669">
        <ele>2259</ele>
        <time>2019-08-20T05:37:27Z</time>
      </trkpt>
      <trkpt lat="44.33368" lon="6.86642">
        <ele>2266</ele>
        <time>2019-08-20T05:38:26Z</time>
      </trkpt>
      <trkpt lat="44.33386" lon="6.86591">
        <ele>2269</ele>
        <time>2019-08-20T05:39:20Z</time>
      </trkpt>
      <trkpt lat="44.3339" lon="6.86578">
        <ele>2270</ele>
        <time>2019-08-20T05:39:34Z</time>
      </trkpt>
      <trkpt lat="44.33391" lon="6.8657">
        <ele>2270</ele>
        <time>2019-08-20T05:39:41Z</time>
      </trkpt>
      <trkpt lat="44.33391" lon="6.86539">
        <ele>2270</ele>
        <time>2019-08-20T05:40:11Z</time>
      </trkpt>
      <trkpt lat="44.3339" lon="6.86522">
        <ele>2269</ele>
        <time>2019-08-20T05:40:27Z</time>
      </trkpt>
      <trkpt lat="44.33375" lon="6.86524">
        <ele>2266</ele>
        <time>2019-08-20T05:40:47Z</time>
      </trkpt>
      <trkpt lat="44.33346" lon="6.86526">
        <ele>2261</ele>
        <time>2019-08-20T05:41:26Z</time>
      </trkpt>
      <trkpt lat="44.33327" lon="6.86512">
        <ele>2257</ele>
        <time>2019-08-20T05:41:55Z</time>
      </trkpt>
      <trkpt lat="44.33292" lon="6.86504">
        <ele>2251</ele>
        <time>2019-08-20T05:42:42Z</time>
      </trkpt>
      <trkpt lat="44.33257" lon="6.86495">
        <ele>2244</ele>
        <time>2019-08-20T05:43:30Z</time>
      </trkpt>
      <trkpt lat="44.33249" lon="6.86509">
        <ele>2243</ele>
        <time>2019-08-20T05:43:47Z</time>
      </trkpt>
      <trkpt lat="44.33211" lon="6.86503">
        <ele>2235</ele>
        <time>2019-08-20T05:44:38Z</time>
      </trkpt>
      <trkpt lat="44.33178" lon="6.86503">
        <ele>2228</ele>
        <time>2019-08-20T05:45:22Z</time>
      </trkpt>
      <trkpt lat="44.3314" lon="6.86473">
        <ele>2219</ele>
        <time>2019-08-20T05:46:20Z</time>
      </trkpt>
      <trkpt lat="44.33111" lon="6.86458">
        <ele>2212</ele>
        <time>2019-08-20T05:47:01Z</time>
      </trkpt>
      <trkpt lat="44.33088" lon="6.86459">
        <ele>2207</ele>
        <time>2019-08-20T05:47:32Z</time>
      </trkpt>
      <trkpt lat="44.33059" lon="6.86479">
        <ele>2199</ele>
        <time>2019-08-20T05:48:15Z</time>
      </trkpt>
      <trkpt lat="44.33046" lon="6.86491">
        <ele>2195</ele>
        <time>2019-08-20T05:48:36Z</time>
      </trkpt>
      <trkpt lat="44.33034" lon="6.8649">
        <ele>2191</ele>
        <time>2019-08-20T05:48:52Z</time>
      </trkpt>
      <trkpt lat="44.33028" lon="6.86496">
        <ele>2190</ele>
        <time>2019-08-20T05:49:02Z</time>
      </trkpt>
      <trkpt lat="44.33012" lon="6.8648">
        <ele>2184</ele>
        <time>2019-08-20T05:49:28Z</time>
      </trkpt>
      <trkpt lat="44.33009" lon="6.8648">
        <ele>2184</ele>
        <time>2019-08-20T05:49:32Z</time>
      </trkpt>
      <trkpt lat="44.33006" lon="6.86482">
        <ele>2183</ele>
        <time>2019-08-20T05:49:36Z</time>
      </trkpt>
      <trkpt lat="44.32995" lon="6.86503">
        <ele>2180</ele>
        <time>2019-08-20T05:50:01Z</time>
      </trkpt>
      <trkpt lat="44.32981" lon="6.86488">
        <ele>2177</ele>
        <time>2019-08-20T05:50:25Z</time>
      </trkpt>
      <trkpt lat="44.32978" lon="6.86484">
        <ele>2176</ele>
        <time>2019-08-20T05:50:30Z</time>
      </trkpt>
      <trkpt lat="44.32951" lon="6.8648">
        <ele>2170</ele>
        <time>2019-08-20T05:51:07Z</time>
      </trkpt>
      <trkpt lat="44.32923" lon="6.86477">
        <ele>2164</ele>
        <time>2019-08-20T05:51:44Z</time>
      </trkpt>
      <trkpt lat="44.32904" lon="6.86459">
        <ele>2159</ele>
        <time>2019-08-20T05:52:15Z</time>
      </trkpt>
      <trkpt lat="44.32885" lon="6.86459">
        <ele>2155</ele>
        <time>2019-08-20T05:52:40Z</time>
      </trkpt>
      <trkpt lat="44.32876" lon="6.86455">
        <ele>2153</ele>
        <time>2019-08-20T05:52:53Z</time>
      </trkpt>
      <trkpt lat="44.32876" lon="6.86446">
        <ele>2153</ele>
        <time>2019-08-20T05:53:01Z</time>
      </trkpt>
      <trkpt lat="44.32872" lon="6.86445">
        <ele>2152</ele>
        <time>2019-08-20T05:53:07Z</time>
      </trkpt>
      <trkpt lat="44.32868" lon="6.86442">
        <ele>2151</ele>
        <time>2019-08-20T05:53:13Z</time>
      </trkpt>
      <trkpt lat="44.32858" lon="6.86449">
        <ele>2149</ele>
        <time>2019-08-20T05:53:28Z</time>
      </trkpt>
      <trkpt lat="44.32853" lon="6.86441">
        <ele>2148</ele>
        <time>2019-08-20T05:53:38Z</time>
      </trkpt>
      <trkpt lat="44.3285" lon="6.8644">
        <ele>2147</ele>
        <time>2019-08-20T05:53:42Z</time>
      </trkpt>
      <trkpt lat="44.32826" lon="6.86452">
        <ele>2143</ele>
        <time>2019-08-20T05:54:16Z</time>
      </trkpt>
      <trkpt lat="44.3281" lon="6.8645">
        <ele>2139</ele>
        <time>2019-08-20T05:54:37Z</time>
      </trkpt>
      <trkpt lat="44.32804" lon="6.86463">
        <ele>2138</ele>
        <time>2019-08-20T05:54:52Z</time>
      </trkpt>
      <trkpt lat="44.32789" lon="6.86449">
        <ele>2134</ele>
        <time>2019-08-20T05:55:16Z</time>
      </trkpt>
      <trkpt lat="44.32779" lon="6.86458">
        <ele>2132</ele>
        <time>2019-08-20T05:55:32Z</time>
      </trkpt>
      <trkpt lat="44.32762" lon="6.86436">
        <ele>2127</ele>
        <time>2019-08-20T05:56:03Z</time>
      </trkpt>
      <trkpt lat="44.32761" lon="6.86435">
        <ele>2127</ele>
        <time>2019-08-20T05:56:05Z</time>
      </trkpt>
      <trkpt lat="44.32759" lon="6.86436">
        <ele>2126</ele>
        <time>2019-08-20T05:56:07Z</time>
      </trkpt>
      <trkpt lat="44.32752" lon="6.86448">
        <ele>2126</ele>
        <time>2019-08-20T05:56:22Z</time>
      </trkpt>
      <trkpt lat="44.32749" lon="6.86448">
        <ele>2125</ele>
        <time>2019-08-20T05:56:26Z</time>
      </trkpt>
      <trkpt lat="44.3274" lon="6.86445">
        <ele>2122</ele>
        <time>2019-08-20T05:56:39Z</time>
      </trkpt>
      <trkpt lat="44.32693" lon="6.86479">
        <ele>2114</ele>
        <time>2019-08-20T05:57:49Z</time>
      </trkpt>
      <trkpt lat="44.32678" lon="6.8649">
        <ele>2111</ele>
        <time>2019-08-20T05:58:12Z</time>
      </trkpt>
      <trkpt lat="44.32675" lon="6.8649">
        <ele>2111</ele>
        <time>2019-08-20T05:58:16Z</time>
      </trkpt>
      <trkpt lat="44.32671" lon="6.86489">
        <ele>2110</ele>
        <time>2019-08-20T05:58:21Z</time>
      </trkpt>
      <trkpt lat="44.32669" lon="6.86487">
        <ele>2109</ele>
        <time>2019-08-20T05:58:24Z</time>
      </trkpt>
      <trkpt lat="44.32667" lon="6.8648">
        <ele>2107</ele>
        <time>2019-08-20T05:58:32Z</time>
      </trkpt>
      <trkpt lat="44.32665" lon="6.86478">
        <ele>2107</ele>
        <time>2019-08-20T05:58:35Z</time>
      </trkpt>
      <trkpt lat="44.32663" lon="6.86478">
        <ele>2106</ele>
        <time>2019-08-20T05:58:38Z</time>
      </trkpt>
      <trkpt lat="44.32661" lon="6.8648">
        <ele>2106</ele>
        <time>2019-08-20T05:58:41Z</time>
      </trkpt>
      <trkpt lat="44.32661" lon="6.86484">
        <ele>2106</ele>
        <time>2019-08-20T05:58:45Z</time>
      </trkpt>
      <trkpt lat="44.32656" lon="6.86503">
        <ele>2107</ele>
        <time>2019-08-20T05:59:04Z</time>
      </trkpt>
      <trkpt lat="44.32653" lon="6.86515">
        <ele>2109</ele>
        <time>2019-08-20T05:59:16Z</time>
      </trkpt>
      <trkpt lat="44.3265" lon="6.86508">
        <ele>2107</ele>
        <time>2019-08-20T05:59:24Z</time>
      </trkpt>
      <trkpt lat="44.32638" lon="6.86489">
        <ele>2100</ele>
        <time>2019-08-20T05:59:48Z</time>
      </trkpt>
      <trkpt lat="44.32633" lon="6.86477">
        <ele>2096</ele>
        <time>2019-08-20T06:00:01Z</time>
      </trkpt>
      <trkpt lat="44.32627" lon="6.86469">
        <ele>2092</ele>
        <time>2019-08-20T06:00:13Z</time>
      </trkpt>
      <trkpt lat="44.32621" lon="6.86456">
        <ele>2087</ele>
        <time>2019-08-20T06:00:27Z</time>
      </trkpt>
      <trkpt lat="44.32609" lon="6.86445">
        <ele>2080</ele>
        <time>2019-08-20T06:00:46Z</time>
      </trkpt>
      <trkpt lat="44.32606" lon="6.8644">
        <ele>2078</ele>
        <time>2019-08-20T06:00:53Z</time>
      </trkpt>
      <trkpt lat="44.32604" lon="6.86425">
        <ele>2073</ele>
        <time>2019-08-20T06:01:07Z</time>
      </trkpt>
      <trkpt lat="44.32605" lon="6.86411">
        <ele>2071</ele>
        <time>2019-08-20T06:01:21Z</time>
      </trkpt>
      <trkpt lat="44.32609" lon="6.86394">
        <ele>2070</ele>
        <time>2019-08-20T06:01:38Z</time>
      </trkpt>
      <trkpt lat="44.32614" lon="6.86355">
        <ele>2066</ele>
        <time>2019-08-20T06:02:16Z</time>
      </trkpt>
      <trkpt lat="44.32613" lon="6.86334">
        <ele>2062</ele>
        <time>2019-08-20T06:02:36Z</time>
      </trkpt>
      <trkpt lat="44.3261" lon="6.86318">
        <ele>2058</ele>
        <time>2019-08-20T06:02:51Z</time>
      </trkpt>
      <trkpt lat="44.32603" lon="6.86299">
        <ele>2052</ele>
        <time>2019-08-20T06:03:12Z</time>
      </trkpt>
      <trkpt lat="44.32597" lon="6.86278">
        <ele>2047</ele>
        <time>2019-08-20T06:03:33Z</time>
      </trkpt>
      <trkpt lat="44.32591" lon="6.86254">
        <ele>2041</ele>
        <time>2019-08-20T06:03:58Z</time>
      </trkpt>
      <trkpt lat="44.32589" lon="6.86237">
        <ele>2037</ele>
        <time>2019-08-20T06:04:14Z</time>
      </trkpt>
      <trkpt lat="44.32591" lon="6.86224">
        <ele>2036</ele>
        <time>2019-08-20T06:04:27Z</time>
      </trkpt>
      <trkpt lat="44.3259" lon="6.8622">
        <ele>2035</ele>
        <time>2019-08-20T06:04:31Z</time>
      </trkpt>
      <trkpt lat="44.32583" lon="6.86218">
        <ele>2032</ele>
        <time>2019-08-20T06:04:40Z</time>
      </trkpt>
      <trkpt lat="44.32581" lon="6.86216">
        <ele>2031</ele>
        <time>2019-08-20T06:04:44Z</time>
      </trkpt>
      <trkpt lat="44.32581" lon="6.86207">
        <ele>2030</ele>
        <time>2019-08-20T06:04:52Z</time>
      </trkpt>
      <trkpt lat="44.32581" lon="6.86203">
        <ele>2029</ele>
        <time>2019-08-20T06:04:56Z</time>
      </trkpt>
      <trkpt lat="44.3258" lon="6.862">
        <ele>2029</ele>
        <time>2019-08-20T06:04:59Z</time>
      </trkpt>
      <trkpt lat="44.32579" lon="6.86196">
        <ele>2028</ele>
        <time>2019-08-20T06:05:03Z</time>
      </trkpt>
      <trkpt lat="44.32585" lon="6.86191">
        <ele>2029</ele>
        <time>2019-08-20T06:05:13Z</time>
      </trkpt>
      <trkpt lat="44.32587" lon="6.86188">
        <ele>2029</ele>
        <time>2019-08-20T06:05:17Z</time>
      </trkpt>
      <trkpt lat="44.32587" lon="6.86182">
        <ele>2028</ele>
        <time>2019-08-20T06:05:22Z</time>
      </trkpt>
      <trkpt lat="44.32588" lon="6.86179">
        <ele>2028</ele>
        <time>2019-08-20T06:05:25Z</time>
      </trkpt>
      <trkpt lat="44.3259" lon="6.86165">
        <ele>2027</ele>
        <time>2019-08-20T06:05:39Z</time>
      </trkpt>
      <trkpt lat="44.32597" lon="6.86153">
        <ele>2027</ele>
        <time>2019-08-20T06:05:54Z</time>
      </trkpt>
      <trkpt lat="44.326" lon="6.86145">
        <ele>2026</ele>
        <time>2019-08-20T06:06:02Z</time>
      </trkpt>
      <trkpt lat="44.326" lon="6.86125">
        <ele>2023</ele>
        <time>2019-08-20T06:06:22Z</time>
      </trkpt>
      <trkpt lat="44.32603" lon="6.86112">
        <ele>2022</ele>
        <time>2019-08-20T06:06:35Z</time>
      </trkpt>
      <trkpt lat="44.32606" lon="6.86099">
        <ele>2021</ele>
        <time>2019-08-20T06:06:48Z</time>
      </trkpt>
      <trkpt lat="44.3261" lon="6.86091">
        <ele>2021</ele>
        <time>2019-08-20T06:06:57Z</time>
      </trkpt>
      <trkpt lat="44.32607" lon="6.86077">
        <ele>2018</ele>
        <time>2019-08-20T06:07:11Z</time>
      </trkpt>
      <trkpt lat="44.32604" lon="6.86069">
        <ele>2016</ele>
        <time>2019-08-20T06:07:20Z</time>
      </trkpt>
      <trkpt lat="44.32603" lon="6.86068">
        <ele>2016</ele>
        <time>2019-08-20T06:07:21Z</time>
      </trkpt>
      <trkpt lat="44.32598" lon="6.86059">
        <ele>2013</ele>
        <time>2019-08-20T06:07:32Z</time>
      </trkpt>
      <trkpt lat="44.3259" lon="6.86074">
        <ele>2013</ele>
        <time>2019-08-20T06:07:50Z</time>
      </trkpt>
      <trkpt lat="44.32588" lon="6.86078">
        <ele>2013</ele>
        <time>2019-08-20T06:07:55Z</time>
      </trkpt>
      <trkpt lat="44.32586" lon="6.8608">
        <ele>2012</ele>
        <time>2019-08-20T06:07:58Z</time>
      </trkpt>
      <trkpt lat="44.32583" lon="6.86079">
        <ele>2011</ele>
        <time>2019-08-20T06:08:02Z</time>
      </trkpt>
      <trkpt lat="44.32581" lon="6.86071">
        <ele>2010</ele>
        <time>2019-08-20T06:08:10Z</time>
      </trkpt>
      <trkpt lat="44.32582" lon="6.86062">
        <ele>2009</ele>
        <time>2019-08-20T06:08:19Z</time>
      </trkpt>
      <trkpt lat="44.3258" lon="6.8606">
        <ele>2008</ele>
        <time>2019-08-20T06:08:22Z</time>
      </trkpt>
      <trkpt lat="44.32578" lon="6.86051">
        <ele>2006</ele>
        <time>2019-08-20T06:08:31Z</time>
      </trkpt>
      <trkpt lat="44.32568" lon="6.86047">
        <ele>2002</ele>
        <time>2019-08-20T06:08:45Z</time>
      </trkpt>
      <trkpt lat="44.32562" lon="6.86044">
        <ele>2000</ele>
        <time>2019-08-20T06:08:53Z</time>
      </trkpt>
      <trkpt lat="44.32559" lon="6.86047">
        <ele>1999</ele>
        <time>2019-08-20T06:08:58Z</time>
      </trkpt>
      <trkpt lat="44.32556" lon="6.86055">
        <ele>1999</ele>
        <time>2019-08-20T06:09:07Z</time>
      </trkpt>
      <trkpt lat="44.32554" lon="6.86056">
        <ele>1999</ele>
        <time>2019-08-20T06:09:10Z</time>
      </trkpt>
      <trkpt lat="44.32551" lon="6.86049">
        <ele>1997</ele>
        <time>2019-08-20T06:09:18Z</time>
      </trkpt>
      <trkpt lat="44.32539" lon="6.86028">
        <ele>1991</ele>
        <time>2019-08-20T06:09:43Z</time>
      </trkpt>
      <trkpt lat="44.32529" lon="6.86017">
        <ele>1986</ele>
        <time>2019-08-20T06:10:00Z</time>
      </trkpt>
      <trkpt lat="44.32521" lon="6.86011">
        <ele>1983</ele>
        <time>2019-08-20T06:10:12Z</time>
      </trkpt>
      <trkpt lat="44.32516" lon="6.86007">
        <ele>1981</ele>
        <time>2019-08-20T06:10:20Z</time>
      </trkpt>
      <trkpt lat="44.32512" lon="6.86003">
        <ele>1979</ele>
        <time>2019-08-20T06:10:27Z</time>
      </trkpt>
      <trkpt lat="44.32509" lon="6.86001">
        <ele>1978</ele>
        <time>2019-08-20T06:10:31Z</time>
      </trkpt>
      <trkpt lat="44.32507" lon="6.86003">
        <ele>1978</ele>
        <time>2019-08-20T06:10:34Z</time>
      </trkpt>
      <trkpt lat="44.32504" lon="6.86015">
        <ele>1978</ele>
        <time>2019-08-20T06:10:46Z</time>
      </trkpt>
      <trkpt lat="44.32499" lon="6.86018">
        <ele>1976</ele>
        <time>2019-08-20T06:10:54Z</time>
      </trkpt>
      <trkpt lat="44.32497" lon="6.86018">
        <ele>1976</ele>
        <time>2019-08-20T06:10:56Z</time>
      </trkpt>
      <trkpt lat="44.32494" lon="6.86016">
        <ele>1975</ele>
        <time>2019-08-20T06:11:01Z</time>
      </trkpt>
      <trkpt lat="44.3249" lon="6.86016">
        <ele>1973</ele>
        <time>2019-08-20T06:11:06Z</time>
      </trkpt>
      <trkpt lat="44.32487" lon="6.86018">
        <ele>1973</ele>
        <time>2019-08-20T06:11:11Z</time>
      </trkpt>
      <trkpt lat="44.32486" lon="6.86022">
        <ele>1973</ele>
        <time>2019-08-20T06:11:15Z</time>
      </trkpt>
      <trkpt lat="44.32485" lon="6.86026">
        <ele>1973</ele>
        <time>2019-08-20T06:11:19Z</time>
      </trkpt>
      <trkpt lat="44.3248" lon="6.8603">
        <ele>1972</ele>
        <time>2019-08-20T06:11:26Z</time>
      </trkpt>
      <trkpt lat="44.32469" lon="6.8604">
        <ele>1969</ele>
        <time>2019-08-20T06:11:44Z</time>
      </trkpt>
      <trkpt lat="44.32465" lon="6.8604">
        <ele>1967</ele>
        <time>2019-08-20T06:11:49Z</time>
      </trkpt>
      <trkpt lat="44.32461" lon="6.86038">
        <ele>1966</ele>
        <time>2019-08-20T06:11:55Z</time>
      </trkpt>
      <trkpt lat="44.32457" lon="6.86033">
        <ele>1964</ele>
        <time>2019-08-20T06:12:02Z</time>
      </trkpt>
      <trkpt lat="44.32453" lon="6.86029">
        <ele>1963</ele>
        <time>2019-08-20T06:12:09Z</time>
      </trkpt>
      <trkpt lat="44.32423" lon="6.86029">
        <ele>1953</ele>
        <time>2019-08-20T06:12:49Z</time>
      </trkpt>
      <trkpt lat="44.32422" lon="6.86029">
        <ele>1953</ele>
        <time>2019-08-20T06:12:50Z</time>
      </trkpt>
      <trkpt lat="44.32415" lon="6.86021">
        <ele>1951</ele>
        <time>2019-08-20T06:13:02Z</time>
      </trkpt>
      <trkpt lat="44.32413" lon="6.86022">
        <ele>1950</ele>
        <time>2019-08-20T06:13:05Z</time>
      </trkpt>
      <trkpt lat="44.32413" lon="6.86028">
        <ele>1950</ele>
        <time>2019-08-20T06:13:11Z</time>
      </trkpt>
      <trkpt lat="44.32413" lon="6.86031">
        <ele>1950</ele>
        <time>2019-08-20T06:13:13Z</time>
      </trkpt>
      <trkpt lat="44.32412" lon="6.86033">
        <ele>1949</ele>
        <time>2019-08-20T06:13:16Z</time>
      </trkpt>
      <trkpt lat="44.3241" lon="6.86036">
        <ele>1949</ele>
        <time>2019-08-20T06:13:20Z</time>
      </trkpt>
      <trkpt lat="44.32411" lon="6.86043">
        <ele>1949</ele>
        <time>2019-08-20T06:13:27Z</time>
      </trkpt>
      <trkpt lat="44.32416" lon="6.86059">
        <ele>1951</ele>
        <time>2019-08-20T06:13:43Z</time>
      </trkpt>
      <trkpt lat="44.32417" lon="6.86065">
        <ele>1952</ele>
        <time>2019-08-20T06:13:49Z</time>
      </trkpt>
      <trkpt lat="44.32415" lon="6.86073">
        <ele>1951</ele>
        <time>2019-08-20T06:13:57Z</time>
      </trkpt>
      <trkpt lat="44.32413" lon="6.86075">
        <ele>1950</ele>
        <time>2019-08-20T06:14:00Z</time>
      </trkpt>
      <trkpt lat="44.32404" lon="6.86076">
        <ele>1947</ele>
        <time>2019-08-20T06:14:13Z</time>
      </trkpt>
      <trkpt lat="44.32401" lon="6.86076">
        <ele>1945</ele>
        <time>2019-08-20T06:14:17Z</time>
      </trkpt>
      <trkpt lat="44.32399" lon="6.86073">
        <ele>1945</ele>
        <time>2019-08-20T06:14:20Z</time>
      </trkpt>
      <trkpt lat="44.32398" lon="6.86071">
        <ele>1944</ele>
        <time>2019-08-20T06:14:23Z</time>
      </trkpt>
      <trkpt lat="44.32398" lon="6.8607">
        <ele>1944</ele>
        <time>2019-08-20T06:14:24Z</time>
      </trkpt>
      <trkpt lat="44.32398" lon="6.86068">
        <ele>1944</ele>
        <time>2019-08-20T06:14:26Z</time>
      </trkpt>
      <trkpt lat="44.32396" lon="6.86062">
        <ele>1943</ele>
        <time>2019-08-20T06:14:32Z</time>
      </trkpt>
      <trkpt lat="44.32391" lon="6.8606">
        <ele>1941</ele>
        <time>2019-08-20T06:14:39Z</time>
      </trkpt>
      <trkpt lat="44.32381" lon="6.86058">
        <ele>1937</ele>
        <time>2019-08-20T06:14:52Z</time>
      </trkpt>
      <trkpt lat="44.32376" lon="6.86062">
        <ele>1935</ele>
        <time>2019-08-20T06:15:00Z</time>
      </trkpt>
      <trkpt lat="44.32374" lon="6.86063">
        <ele>1934</ele>
        <time>2019-08-20T06:15:03Z</time>
      </trkpt>
      <trkpt lat="44.32373" lon="6.86062">
        <ele>1933</ele>
        <time>2019-08-20T06:15:05Z</time>
      </trkpt>
      <trkpt lat="44.32371" lon="6.86058">
        <ele>1932</ele>
        <time>2019-08-20T06:15:09Z</time>
      </trkpt>
      <trkpt lat="44.32372" lon="6.8605">
        <ele>1933</ele>
        <time>2019-08-20T06:15:17Z</time>
      </trkpt>
      <trkpt lat="44.32371" lon="6.86039">
        <ele>1932</ele>
        <time>2019-08-20T06:15:28Z</time>
      </trkpt>
      <trkpt lat="44.32369" lon="6.86034">
        <ele>1931</ele>
        <time>2019-08-20T06:15:33Z</time>
      </trkpt>
      <trkpt lat="44.32364" lon="6.86031">
        <ele>1928</ele>
        <time>2019-08-20T06:15:40Z</time>
      </trkpt>
      <trkpt lat="44.32363" lon="6.8604">
        <ele>1928</ele>
        <time>2019-08-20T06:15:49Z</time>
      </trkpt>
      <trkpt lat="44.32362" lon="6.86062">
        <ele>1929</ele>
        <time>2019-08-20T06:16:10Z</time>
      </trkpt>
      <trkpt lat="44.3236" lon="6.86072">
        <ele>1928</ele>
        <time>2019-08-20T06:16:20Z</time>
      </trkpt>
      <trkpt lat="44.32359" lon="6.86077">
        <ele>1928</ele>
        <time>2019-08-20T06:16:25Z</time>
      </trkpt>
      <trkpt lat="44.32346" lon="6.86115">
        <ele>1927</ele>
        <time>2019-08-20T06:17:05Z</time>
      </trkpt>
      <trkpt lat="44.32338" lon="6.8613">
        <ele>1926</ele>
        <time>2019-08-20T06:17:23Z</time>
      </trkpt>
      <trkpt lat="44.32326" lon="6.86147">
        <ele>1924</ele>
        <time>2019-08-20T06:17:46Z</time>
      </trkpt>
      <trkpt lat="44.32315" lon="6.8616">
        <ele>1922</ele>
        <time>2019-08-20T06:18:05Z</time>
      </trkpt>
      <trkpt lat="44.32307" lon="6.86165">
        <ele>1921</ele>
        <time>2019-08-20T06:18:17Z</time>
      </trkpt>
      <trkpt lat="44.32295" lon="6.8617">
        <ele>1918</ele>
        <time>2019-08-20T06:18:33Z</time>
      </trkpt>
      <trkpt lat="44.3228" lon="6.86176">
        <ele>1914</ele>
        <time>2019-08-20T06:18:54Z</time>
      </trkpt>
      <trkpt lat="44.32273" lon="6.8618">
        <ele>1913</ele>
        <time>2019-08-20T06:19:04Z</time>
      </trkpt>
      <trkpt lat="44.3227" lon="6.86184">
        <ele>1912</ele>
        <time>2019-08-20T06:19:10Z</time>
      </trkpt>
      <trkpt lat="44.32256" lon="6.86183">
        <ele>1908</ele>
        <time>2019-08-20T06:19:29Z</time>
      </trkpt>
      <trkpt lat="44.32238" lon="6.8618">
        <ele>1904</ele>
        <time>2019-08-20T06:19:53Z</time>
      </trkpt>
      <trkpt lat="44.32216" lon="6.86172">
        <ele>1899</ele>
        <time>2019-08-20T06:20:23Z</time>
      </trkpt>
      <trkpt lat="44.32211" lon="6.86169">
        <ele>1898</ele>
        <time>2019-08-20T06:20:30Z</time>
      </trkpt>
      <trkpt lat="44.32208" lon="6.86169">
        <ele>1897</ele>
        <time>2019-08-20T06:20:34Z</time>
      </trkpt>
      <trkpt lat="44.32206" lon="6.86171">
        <ele>1897</ele>
        <time>2019-08-20T06:20:38Z</time>
      </trkpt>
      <trkpt lat="44.32206" lon="6.86173">
        <ele>1897</ele>
        <time>2019-08-20T06:20:40Z</time>
      </trkpt>
      <trkpt lat="44.32204" lon="6.86174">
        <ele>1896</ele>
        <time>2019-08-20T06:20:42Z</time>
      </trkpt>
      <trkpt lat="44.32203" lon="6.86173">
        <ele>1896</ele>
        <time>2019-08-20T06:20:44Z</time>
      </trkpt>
      <trkpt lat="44.32202" lon="6.8617">
        <ele>1896</ele>
        <time>2019-08-20T06:20:47Z</time>
      </trkpt>
      <trkpt lat="44.32202" lon="6.86167">
        <ele>1896</ele>
        <time>2019-08-20T06:20:50Z</time>
      </trkpt>
      <trkpt lat="44.32204" lon="6.86159">
        <ele>1895</ele>
        <time>2019-08-20T06:20:58Z</time>
      </trkpt>
      <trkpt lat="44.32204" lon="6.86157">
        <ele>1895</ele>
        <time>2019-08-20T06:21:00Z</time>
      </trkpt>
      <trkpt lat="44.32202" lon="6.86155">
        <ele>1894</ele>
        <time>2019-08-20T06:21:03Z</time>
      </trkpt>
      <trkpt lat="44.322" lon="6.86154">
        <ele>1893</ele>
        <time>2019-08-20T06:21:06Z</time>
      </trkpt>
      <trkpt lat="44.32192" lon="6.86153">
        <ele>1891</ele>
        <time>2019-08-20T06:21:17Z</time>
      </trkpt>
      <trkpt lat="44.32184" lon="6.86151">
        <ele>1889</ele>
        <time>2019-08-20T06:21:28Z</time>
      </trkpt>
      <trkpt lat="44.32185" lon="6.86148">
        <ele>1888</ele>
        <time>2019-08-20T06:21:31Z</time>
      </trkpt>
      <trkpt lat="44.32186" lon="6.86146">
        <ele>1888</ele>
        <time>2019-08-20T06:21:33Z</time>
      </trkpt>
      <trkpt lat="44.32189" lon="6.86143">
        <ele>1888</ele>
        <time>2019-08-20T06:21:38Z</time>
      </trkpt>
      <trkpt lat="44.32192" lon="6.86142">
        <ele>1889</ele>
        <time>2019-08-20T06:21:42Z</time>
      </trkpt>
      <trkpt lat="44.32194" lon="6.86139">
        <ele>1888</ele>
        <time>2019-08-20T06:21:46Z</time>
      </trkpt>
      <trkpt lat="44.32195" lon="6.86132">
        <ele>1887</ele>
        <time>2019-08-20T06:21:53Z</time>
      </trkpt>
      <trkpt lat="44.32202" lon="6.86121">
        <ele>1887</ele>
        <time>2019-08-20T06:22:07Z</time>
      </trkpt>
      <trkpt lat="44.32208" lon="6.86109">
        <ele>1886</ele>
        <time>2019-08-20T06:22:21Z</time>
      </trkpt>
      <trkpt lat="44.3221" lon="6.86101">
        <ele>1885</ele>
        <time>2019-08-20T06:22:29Z</time>
      </trkpt>
      <trkpt lat="44.3221" lon="6.86092">
        <ele>1883</ele>
        <time>2019-08-20T06:22:38Z</time>
      </trkpt>
      <trkpt lat="44.32217" lon="6.8607">
        <ele>1881</ele>
        <time>2019-08-20T06:23:01Z</time>
      </trkpt>
      <trkpt lat="44.32222" lon="6.86047">
        <ele>1878</ele>
        <time>2019-08-20T06:23:24Z</time>
      </trkpt>
      <trkpt lat="44.32226" lon="6.86014">
        <ele>1874</ele>
        <time>2019-08-20T06:23:56Z</time>
      </trkpt>
      <trkpt lat="44.3223" lon="6.86001">
        <ele>1873</ele>
        <time>2019-08-20T06:24:09Z</time>
      </trkpt>
      <trkpt lat="44.32234" lon="6.85992">
        <ele>1873</ele>
        <time>2019-08-20T06:24:19Z</time>
      </trkpt>
      <trkpt lat="44.32243" lon="6.85984">
        <ele>1874</ele>
        <time>2019-08-20T06:24:33Z</time>
      </trkpt>
      <trkpt lat="44.32247" lon="6.85979">
        <ele>1875</ele>
        <time>2019-08-20T06:24:41Z</time>
      </trkpt>
      <trkpt lat="44.32261" lon="6.85949">
        <ele>1876</ele>
        <time>2019-08-20T06:25:15Z</time>
      </trkpt>
      <trkpt lat="44.32265" lon="6.85936">
        <ele>1876</ele>
        <time>2019-08-20T06:25:28Z</time>
      </trkpt>
      <trkpt lat="44.32265" lon="6.8593">
        <ele>1876</ele>
        <time>2019-08-20T06:25:34Z</time>
      </trkpt>
      <trkpt lat="44.32264" lon="6.85926">
        <ele>1875</ele>
        <time>2019-08-20T06:25:38Z</time>
      </trkpt>
      <trkpt lat="44.32261" lon="6.85923">
        <ele>1873</ele>
        <time>2019-08-20T06:25:43Z</time>
      </trkpt>
      <trkpt lat="44.32257" lon="6.85923">
        <ele>1872</ele>
        <time>2019-08-20T06:25:48Z</time>
      </trkpt>
      <trkpt lat="44.32252" lon="6.85924">
        <ele>1870</ele>
        <time>2019-08-20T06:25:55Z</time>
      </trkpt>
      <trkpt lat="44.32248" lon="6.85928">
        <ele>1869</ele>
        <time>2019-08-20T06:26:02Z</time>
      </trkpt>
      <trkpt lat="44.32241" lon="6.8594">
        <ele>1869</ele>
        <time>2019-08-20T06:26:16Z</time>
      </trkpt>
      <trkpt lat="44.3223" lon="6.85957">
        <ele>1868</ele>
        <time>2019-08-20T06:26:38Z</time>
      </trkpt>
      <trkpt lat="44.3223" lon="6.85949">
        <ele>1867</ele>
        <time>2019-08-20T06:26:46Z</time>
      </trkpt>
      <trkpt lat="44.3223" lon="6.85944">
        <ele>1867</ele>
        <time>2019-08-20T06:26:51Z</time>
      </trkpt>
      <trkpt lat="44.3224" lon="6.85922">
        <ele>1867</ele>
        <time>2019-08-20T06:27:16Z</time>
      </trkpt>
      <trkpt lat="44.32244" lon="6.85911">
        <ele>1866</ele>
        <time>2019-08-20T06:27:27Z</time>
      </trkpt>
      <trkpt lat="44.32248" lon="6.85884">
        <ele>1865</ele>
        <time>2019-08-20T06:27:54Z</time>
      </trkpt>
      <trkpt lat="44.3225" lon="6.85877">
        <ele>1865</ele>
        <time>2019-08-20T06:28:01Z</time>
      </trkpt>
      <trkpt lat="44.32262" lon="6.85852">
        <ele>1868</ele>
        <time>2019-08-20T06:28:30Z</time>
      </trkpt>
      <trkpt lat="44.32274" lon="6.85819">
        <ele>1872</ele>
        <time>2019-08-20T06:29:05Z</time>
      </trkpt>
      <trkpt lat="44.32276" lon="6.85808">
        <ele>1874</ele>
        <time>2019-08-20T06:29:16Z</time>
      </trkpt>
      <trkpt lat="44.32278" lon="6.85788">
        <ele>1876</ele>
        <time>2019-08-20T06:29:35Z</time>
      </trkpt>
      <trkpt lat="44.32278" lon="6.85779">
        <ele>1877</ele>
        <time>2019-08-20T06:29:44Z</time>
      </trkpt>
      <trkpt lat="44.32276" lon="6.85773">
        <ele>1877</ele>
        <time>2019-08-20T06:29:50Z</time>
      </trkpt>
      <trkpt lat="44.32273" lon="6.85769">
        <ele>1877</ele>
        <time>2019-08-20T06:29:56Z</time>
      </trkpt>
      <trkpt lat="44.3227" lon="6.85767">
        <ele>1876</ele>
        <time>2019-08-20T06:30:00Z</time>
      </trkpt>
      <trkpt lat="44.32267" lon="6.85765">
        <ele>1876</ele>
        <time>2019-08-20T06:30:04Z</time>
      </trkpt>
      <trkpt lat="44.32263" lon="6.8576">
        <ele>1875</ele>
        <time>2019-08-20T06:30:12Z</time>
      </trkpt>
      <trkpt lat="44.32261" lon="6.85755">
        <ele>1876</ele>
        <time>2019-08-20T06:30:17Z</time>
      </trkpt>
      <trkpt lat="44.32259" lon="6.85748">
        <ele>1876</ele>
        <time>2019-08-20T06:30:24Z</time>
      </trkpt>
      <trkpt lat="44.32259" lon="6.85721">
        <ele>1878</ele>
        <time>2019-08-20T06:30:50Z</time>
      </trkpt>
      <trkpt lat="44.3226" lon="6.85693">
        <ele>1879</ele>
        <time>2019-08-20T06:31:17Z</time>
      </trkpt>
      <trkpt lat="44.32263" lon="6.85665">
        <ele>1882</ele>
        <time>2019-08-20T06:31:44Z</time>
      </trkpt>
      <trkpt lat="44.32263" lon="6.85657">
        <ele>1882</ele>
        <time>2019-08-20T06:31:51Z</time>
      </trkpt>
      <trkpt lat="44.32262" lon="6.85652">
        <ele>1883</ele>
        <time>2019-08-20T06:31:56Z</time>
      </trkpt>
      <trkpt lat="44.32261" lon="6.85649">
        <ele>1883</ele>
        <time>2019-08-20T06:32:00Z</time>
      </trkpt>
      <trkpt lat="44.32258" lon="6.85646">
        <ele>1883</ele>
        <time>2019-08-20T06:32:04Z</time>
      </trkpt>
      <trkpt lat="44.32255" lon="6.85645">
        <ele>1883</ele>
        <time>2019-08-20T06:32:09Z</time>
      </trkpt>
      <trkpt lat="44.32252" lon="6.85646">
        <ele>1883</ele>
        <time>2019-08-20T06:32:13Z</time>
      </trkpt>
      <trkpt lat="44.32241" lon="6.85654">
        <ele>1884</ele>
        <time>2019-08-20T06:32:29Z</time>
      </trkpt>
      <trkpt lat="44.32221" lon="6.85673">
        <ele>1886</ele>
        <time>2019-08-20T06:33:02Z</time>
      </trkpt>
      <trkpt lat="44.32211" lon="6.85681">
        <ele>1887</ele>
        <time>2019-08-20T06:33:17Z</time>
      </trkpt>
      <trkpt lat="44.32186" lon="6.85693">
        <ele>1891</ele>
        <time>2019-08-20T06:33:52Z</time>
      </trkpt>
      <trkpt lat="44.32174" lon="6.85701">
        <ele>1892</ele>
        <time>2019-08-20T06:34:10Z</time>
      </trkpt>
      <trkpt lat="44.32162" lon="6.85704">
        <ele>1894</ele>
        <time>2019-08-20T06:34:26Z</time>
      </trkpt>
      <trkpt lat="44.32155" lon="6.85707">
        <ele>1895</ele>
        <time>2019-08-20T06:34:36Z</time>
      </trkpt>
      <trkpt lat="44.3213" lon="6.85723">
        <ele>1898</ele>
        <time>2019-08-20T06:35:13Z</time>
      </trkpt>
      <trkpt lat="44.32116" lon="6.85735">
        <ele>1898</ele>
        <time>2019-08-20T06:35:35Z</time>
      </trkpt>
      <trkpt lat="44.32099" lon="6.85748">
        <ele>1899</ele>
        <time>2019-08-20T06:36:00Z</time>
      </trkpt>
      <trkpt lat="44.32068" lon="6.85763">
        <ele>1904</ele>
        <time>2019-08-20T06:36:44Z</time>
      </trkpt>
      <trkpt lat="44.32055" lon="6.85768">
        <ele>1906</ele>
        <time>2019-08-20T06:37:02Z</time>
      </trkpt>
      <trkpt lat="44.32044" lon="6.85769">
        <ele>1910</ele>
        <time>2019-08-20T06:37:17Z</time>
      </trkpt>
      <trkpt lat="44.32038" lon="6.85772">
        <ele>1911</ele>
        <time>2019-08-20T06:37:25Z</time>
      </trkpt>
      <trkpt lat="44.32027" lon="6.85784">
        <ele>1911</ele>
        <time>2019-08-20T06:37:44Z</time>
      </trkpt>
      <trkpt lat="44.32016" lon="6.85799">
        <ele>1910</ele>
        <time>2019-08-20T06:38:05Z</time>
      </trkpt>
      <trkpt lat="44.32004" lon="6.85813">
        <ele>1909</ele>
        <time>2019-08-20T06:38:25Z</time>
      </trkpt>
      <trkpt lat="44.3199" lon="6.85825">
        <ele>1909</ele>
        <time>2019-08-20T06:38:47Z</time>
      </trkpt>
      <trkpt lat="44.3198" lon="6.85831">
        <ele>1908</ele>
        <time>2019-08-20T06:39:02Z</time>
      </trkpt>
      <trkpt lat="44.31966" lon="6.85834">
        <ele>1910</ele>
        <time>2019-08-20T06:39:21Z</time>
      </trkpt>
      <trkpt lat="44.31949" lon="6.85834">
        <ele>1913</ele>
        <time>2019-08-20T06:39:43Z</time>
      </trkpt>
      <trkpt lat="44.31934" lon="6.85833">
        <ele>1916</ele>
        <time>2019-08-20T06:40:03Z</time>
      </trkpt>
      <trkpt lat="44.31916" lon="6.85829">
        <ele>1921</ele>
        <time>2019-08-20T06:40:28Z</time>
      </trkpt>
      <trkpt lat="44.31912" lon="6.8583">
        <ele>1921</ele>
        <time>2019-08-20T06:40:33Z</time>
      </trkpt>
      <trkpt lat="44.31904" lon="6.85843">
        <ele>1919</ele>
        <time>2019-08-20T06:40:50Z</time>
      </trkpt>
      <trkpt lat="44.31901" lon="6.85855">
        <ele>1916</ele>
        <time>2019-08-20T06:41:02Z</time>
      </trkpt>
      <trkpt lat="44.31902" lon="6.85875">
        <ele>1910</ele>
        <time>2019-08-20T06:41:21Z</time>
      </trkpt>
      <trkpt lat="44.31905" lon="6.85895">
        <ele>1903</ele>
        <time>2019-08-20T06:41:40Z</time>
      </trkpt>
      <trkpt lat="44.31905" lon="6.85902">
        <ele>1901</ele>
        <time>2019-08-20T06:41:47Z</time>
      </trkpt>
      <trkpt lat="44.31902" lon="6.85907">
        <ele>1900</ele>
        <time>2019-08-20T06:41:53Z</time>
      </trkpt>
      <trkpt lat="44.31893" lon="6.85912">
        <ele>1902</ele>
        <time>2019-08-20T06:42:06Z</time>
      </trkpt>
      <trkpt lat="44.31887" lon="6.85913">
        <ele>1903</ele>
        <time>2019-08-20T06:42:14Z</time>
      </trkpt>
      <trkpt lat="44.31881" lon="6.85913">
        <ele>1905</ele>
        <time>2019-08-20T06:42:22Z</time>
      </trkpt>
      <trkpt lat="44.31872" lon="6.85909">
        <ele>1909</ele>
        <time>2019-08-20T06:42:35Z</time>
      </trkpt>
      <trkpt lat="44.31858" lon="6.85901">
        <ele>1915</ele>
        <time>2019-08-20T06:42:55Z</time>
      </trkpt>
      <trkpt lat="44.31851" lon="6.85896">
        <ele>1918</ele>
        <time>2019-08-20T06:43:06Z</time>
      </trkpt>
      <trkpt lat="44.31846" lon="6.85895">
        <ele>1920</ele>
        <time>2019-08-20T06:43:12Z</time>
      </trkpt>
      <trkpt lat="44.31842" lon="6.85896">
        <ele>1921</ele>
        <time>2019-08-20T06:43:18Z</time>
      </trkpt>
      <trkpt lat="44.31841" lon="6.85896">
        <ele>1921</ele>
        <time>2019-08-20T06:43:19Z</time>
      </trkpt>
      <trkpt lat="44.31837" lon="6.85899">
        <ele>1922</ele>
        <time>2019-08-20T06:43:25Z</time>
      </trkpt>
      <trkpt lat="44.31831" lon="6.85908">
        <ele>1921</ele>
        <time>2019-08-20T06:43:37Z</time>
      </trkpt>
      <trkpt lat="44.31823" lon="6.85924">
        <ele>1919</ele>
        <time>2019-08-20T06:43:55Z</time>
      </trkpt>
      <trkpt lat="44.31812" lon="6.85939">
        <ele>1918</ele>
        <time>2019-08-20T06:44:16Z</time>
      </trkpt>
      <trkpt lat="44.31798" lon="6.85955">
        <ele>1917</ele>
        <time>2019-08-20T06:44:40Z</time>
      </trkpt>
      <trkpt lat="44.31792" lon="6.85958">
        <ele>1918</ele>
        <time>2019-08-20T06:44:49Z</time>
      </trkpt>
      <trkpt lat="44.31781" lon="6.85962">
        <ele>1919</ele>
        <time>2019-08-20T06:45:04Z</time>
      </trkpt>
      <trkpt lat="44.31776" lon="6.85966">
        <ele>1919</ele>
        <time>2019-08-20T06:45:11Z</time>
      </trkpt>
      <trkpt lat="44.31771" lon="6.85971">
        <ele>1919</ele>
        <time>2019-08-20T06:45:20Z</time>
      </trkpt>
      <trkpt lat="44.31756" lon="6.85988">
        <ele>1918</ele>
        <time>2019-08-20T06:45:45Z</time>
      </trkpt>
      <trkpt lat="44.31752" lon="6.85989">
        <ele>1919</ele>
        <time>2019-08-20T06:45:51Z</time>
      </trkpt>
      <trkpt lat="44.31747" lon="6.85989">
        <ele>1919</ele>
        <time>2019-08-20T06:45:58Z</time>
      </trkpt>
      <trkpt lat="44.3174" lon="6.85985">
        <ele>1921</ele>
        <time>2019-08-20T06:46:08Z</time>
      </trkpt>
      <trkpt lat="44.31729" lon="6.85976">
        <ele>1924</ele>
        <time>2019-08-20T06:46:25Z</time>
      </trkpt>
      <trkpt lat="44.31718" lon="6.85966">
        <ele>1928</ele>
        <time>2019-08-20T06:46:42Z</time>
      </trkpt>
      <trkpt lat="44.31704" lon="6.85961">
        <ele>1932</ele>
        <time>2019-08-20T06:47:01Z</time>
      </trkpt>
      <trkpt lat="44.31694" lon="6.85957">
        <ele>1935</ele>
        <time>2019-08-20T06:47:15Z</time>
      </trkpt>
      <trkpt lat="44.31682" lon="6.85956">
        <ele>1937</ele>
        <time>2019-08-20T06:47:31Z</time>
      </trkpt>
      <trkpt lat="44.3167" lon="6.85958">
        <ele>1938</ele>
        <time>2019-08-20T06:47:48Z</time>
      </trkpt>
      <trkpt lat="44.31661" lon="6.85959">
        <ele>1939</ele>
        <time>2019-08-20T06:48:00Z</time>
      </trkpt>
      <trkpt lat="44.31652" lon="6.85958">
        <ele>1940</ele>
        <time>2019-08-20T06:48:12Z</time>
      </trkpt>
      <trkpt lat="44.31645" lon="6.85958">
        <ele>1940</ele>
        <time>2019-08-20T06:48:21Z</time>
      </trkpt>
      <trkpt lat="44.31632" lon="6.85962">
        <ele>1940</ele>
        <time>2019-08-20T06:48:39Z</time>
      </trkpt>
      <trkpt lat="44.31625" lon="6.85961">
        <ele>1941</ele>
        <time>2019-08-20T06:48:48Z</time>
      </trkpt>
      <trkpt lat="44.31615" lon="6.8596">
        <ele>1942</ele>
        <time>2019-08-20T06:49:01Z</time>
      </trkpt>
      <trkpt lat="44.31601" lon="6.85955">
        <ele>1944</ele>
        <time>2019-08-20T06:49:21Z</time>
      </trkpt>
      <trkpt lat="44.3159" lon="6.8595">
        <ele>1946</ele>
        <time>2019-08-20T06:49:36Z</time>
      </trkpt>
      <trkpt lat="44.3158" lon="6.85942">
        <ele>1949</ele>
        <time>2019-08-20T06:49:52Z</time>
      </trkpt>
      <trkpt lat="44.31574" lon="6.85939">
        <ele>1950</ele>
        <time>2019-08-20T06:50:00Z</time>
      </trkpt>
      <trkpt lat="44.31568" lon="6.85935">
        <ele>1951</ele>
        <time>2019-08-20T06:50:09Z</time>
      </trkpt>
      <trkpt lat="44.3156" lon="6.85935">
        <ele>1952</ele>
        <time>2019-08-20T06:50:20Z</time>
      </trkpt>
      <trkpt lat="44.31553" lon="6.85932">
        <ele>1953</ele>
        <time>2019-08-20T06:50:29Z</time>
      </trkpt>
      <trkpt lat="44.31538" lon="6.85929">
        <ele>1954</ele>
        <time>2019-08-20T06:50:50Z</time>
      </trkpt>
      <trkpt lat="44.31531" lon="6.85926">
        <ele>1955</ele>
        <time>2019-08-20T06:50:59Z</time>
      </trkpt>
      <trkpt lat="44.31523" lon="6.85917">
        <ele>1955</ele>
        <time>2019-08-20T06:51:13Z</time>
      </trkpt>
      <trkpt lat="44.31515" lon="6.85909">
        <ele>1958</ele>
        <time>2019-08-20T06:51:26Z</time>
      </trkpt>
      <trkpt lat="44.315" lon="6.85897">
        <ele>1961</ele>
        <time>2019-08-20T06:51:49Z</time>
      </trkpt>
      <trkpt lat="44.31487" lon="6.85884">
        <ele>1968</ele>
        <time>2019-08-20T06:52:11Z</time>
      </trkpt>
      <trkpt lat="44.31479" lon="6.85871">
        <ele>1973</ele>
        <time>2019-08-20T06:52:27Z</time>
      </trkpt>
      <trkpt lat="44.31468" lon="6.85847">
        <ele>1978</ele>
        <time>2019-08-20T06:52:54Z</time>
      </trkpt>
      <trkpt lat="44.31456" lon="6.85831">
        <ele>1981</ele>
        <time>2019-08-20T06:53:16Z</time>
      </trkpt>
      <trkpt lat="44.31442" lon="6.85817">
        <ele>1984</ele>
        <time>2019-08-20T06:53:39Z</time>
      </trkpt>
      <trkpt lat="44.31439" lon="6.85816">
        <ele>1984</ele>
        <time>2019-08-20T06:53:43Z</time>
      </trkpt>
      <trkpt lat="44.31437" lon="6.85816">
        <ele>1984</ele>
        <time>2019-08-20T06:53:46Z</time>
      </trkpt>
      <trkpt lat="44.31436" lon="6.8582">
        <ele>1983</ele>
        <time>2019-08-20T06:53:50Z</time>
      </trkpt>
      <trkpt lat="44.31435" lon="6.85825">
        <ele>1983</ele>
        <time>2019-08-20T06:53:55Z</time>
      </trkpt>
      <trkpt lat="44.31436" lon="6.85832">
        <ele>1981</ele>
        <time>2019-08-20T06:54:02Z</time>
      </trkpt>
      <trkpt lat="44.31434" lon="6.85844">
        <ele>1981</ele>
        <time>2019-08-20T06:54:14Z</time>
      </trkpt>
      <trkpt lat="44.31434" lon="6.85864">
        <ele>1982</ele>
        <time>2019-08-20T06:54:33Z</time>
      </trkpt>
      <trkpt lat="44.31436" lon="6.85889">
        <ele>1982</ele>
        <time>2019-08-20T06:54:57Z</time>
      </trkpt>
      <trkpt lat="44.31439" lon="6.85914">
        <ele>1982</ele>
        <time>2019-08-20T06:55:21Z</time>
      </trkpt>
      <trkpt lat="44.31443" lon="6.85939">
        <ele>1983</ele>
        <time>2019-08-20T06:55:45Z</time>
      </trkpt>
      <trkpt lat="44.31445" lon="6.85958">
        <ele>1985</ele>
        <time>2019-08-20T06:56:04Z</time>
      </trkpt>
      <trkpt lat="44.31448" lon="6.85972">
        <ele>1986</ele>
        <time>2019-08-20T06:56:18Z</time>
      </trkpt>
      <trkpt lat="44.31451" lon="6.85995">
        <ele>1987</ele>
        <time>2019-08-20T06:56:40Z</time>
      </trkpt>
      <trkpt lat="44.31453" lon="6.86048">
        <ele>1991</ele>
        <time>2019-08-20T06:57:31Z</time>
      </trkpt>
      <trkpt lat="44.31451" lon="6.86062">
        <ele>1994</ele>
        <time>2019-08-20T06:57:44Z</time>
      </trkpt>
      <trkpt lat="44.31454" lon="6.86085">
        <ele>1994</ele>
        <time>2019-08-20T06:58:07Z</time>
      </trkpt>
      <trkpt lat="44.31455" lon="6.86111">
        <ele>1998</ele>
        <time>2019-08-20T06:58:32Z</time>
      </trkpt>
      <trkpt lat="44.31458" lon="6.8613">
        <ele>1999</ele>
        <time>2019-08-20T06:58:50Z</time>
      </trkpt>
      <trkpt lat="44.3146" lon="6.8614">
        <ele>1999</ele>
        <time>2019-08-20T06:59:00Z</time>
      </trkpt>
      <trkpt lat="44.31466" lon="6.86151">
        <ele>1998</ele>
        <time>2019-08-20T06:59:13Z</time>
      </trkpt>
      <trkpt lat="44.31474" lon="6.86162">
        <ele>1997</ele>
        <time>2019-08-20T06:59:28Z</time>
      </trkpt>
      <trkpt lat="44.31482" lon="6.86174">
        <ele>1995</ele>
        <time>2019-08-20T06:59:44Z</time>
      </trkpt>
      <trkpt lat="44.31485" lon="6.86184">
        <ele>1995</ele>
        <time>2019-08-20T06:59:54Z</time>
      </trkpt>
      <trkpt lat="44.31486" lon="6.86193">
        <ele>1995</ele>
        <time>2019-08-20T07:00:03Z</time>
      </trkpt>
      <trkpt lat="44.31485" lon="6.86203">
        <ele>1997</ele>
        <time>2019-08-20T07:00:13Z</time>
      </trkpt>
      <trkpt lat="44.31481" lon="6.86224">
        <ele>2001</ele>
        <time>2019-08-20T07:00:33Z</time>
      </trkpt>
      <trkpt lat="44.31478" lon="6.86236">
        <ele>2003</ele>
        <time>2019-08-20T07:00:45Z</time>
      </trkpt>
      <trkpt lat="44.31478" lon="6.86256">
        <ele>2006</ele>
        <time>2019-08-20T07:01:05Z</time>
      </trkpt>
      <trkpt lat="44.31479" lon="6.86265">
        <ele>2006</ele>
        <time>2019-08-20T07:01:13Z</time>
      </trkpt>
      <trkpt lat="44.31477" lon="6.86292">
        <ele>2011</ele>
        <time>2019-08-20T07:01:39Z</time>
      </trkpt>
      <trkpt lat="44.31477" lon="6.86321">
        <ele>2015</ele>
        <time>2019-08-20T07:02:07Z</time>
      </trkpt>
      <trkpt lat="44.31479" lon="6.86325">
        <ele>2014</ele>
        <time>2019-08-20T07:02:12Z</time>
      </trkpt>
      <trkpt lat="44.31482" lon="6.86328">
        <ele>2013</ele>
        <time>2019-08-20T07:02:16Z</time>
      </trkpt>
      <trkpt lat="44.31491" lon="6.86337">
        <ele>2010</ele>
        <time>2019-08-20T07:02:31Z</time>
      </trkpt>
      <trkpt lat="44.31497" lon="6.86349">
        <ele>2010</ele>
        <time>2019-08-20T07:02:45Z</time>
      </trkpt>
      <trkpt lat="44.31508" lon="6.86382">
        <ele>2016</ele>
        <time>2019-08-20T07:03:20Z</time>
      </trkpt>
      <trkpt lat="44.3151" lon="6.86385">
        <ele>2016</ele>
        <time>2019-08-20T07:03:24Z</time>
      </trkpt>
      <trkpt lat="44.31513" lon="6.86387">
        <ele>2016</ele>
        <time>2019-08-20T07:03:28Z</time>
      </trkpt>
      <trkpt lat="44.31528" lon="6.86389">
        <ele>2013</ele>
        <time>2019-08-20T07:03:48Z</time>
      </trkpt>
      <trkpt lat="44.31534" lon="6.86391">
        <ele>2012</ele>
        <time>2019-08-20T07:03:57Z</time>
      </trkpt>
      <trkpt lat="44.31538" lon="6.86394">
        <ele>2012</ele>
        <time>2019-08-20T07:04:03Z</time>
      </trkpt>
      <trkpt lat="44.31541" lon="6.86398">
        <ele>2012</ele>
        <time>2019-08-20T07:04:08Z</time>
      </trkpt>
      <trkpt lat="44.31544" lon="6.86407">
        <ele>2013</ele>
        <time>2019-08-20T07:04:18Z</time>
      </trkpt>
      <trkpt lat="44.31545" lon="6.86421">
        <ele>2016</ele>
        <time>2019-08-20T07:04:31Z</time>
      </trkpt>
      <trkpt lat="44.31545" lon="6.86434">
        <ele>2019</ele>
        <time>2019-08-20T07:04:44Z</time>
      </trkpt>
      <trkpt lat="44.31548" lon="6.86453">
        <ele>2021</ele>
        <time>2019-08-20T07:05:02Z</time>
      </trkpt>
      <trkpt lat="44.31549" lon="6.86465">
        <ele>2023</ele>
        <time>2019-08-20T07:05:14Z</time>
      </trkpt>
      <trkpt lat="44.31548" lon="6.86485">
        <ele>2026</ele>
        <time>2019-08-20T07:05:33Z</time>
      </trkpt>
      <trkpt lat="44.31549" lon="6.86519">
        <ele>2030</ele>
        <time>2019-08-20T07:06:05Z</time>
      </trkpt>
      <trkpt lat="44.3155" lon="6.86526">
        <ele>2030</ele>
        <time>2019-08-20T07:06:12Z</time>
      </trkpt>
      <trkpt lat="44.31549" lon="6.86532">
        <ele>2030</ele>
        <time>2019-08-20T07:06:18Z</time>
      </trkpt>
      <trkpt lat="44.3155" lon="6.86547">
        <ele>2031</ele>
        <time>2019-08-20T07:06:32Z</time>
      </trkpt>
      <trkpt lat="44.31539" lon="6.86592">
        <ele>2036</ele>
        <time>2019-08-20T07:07:18Z</time>
      </trkpt>
      <trkpt lat="44.31538" lon="6.86595">
        <ele>2037</ele>
        <time>2019-08-20T07:07:21Z</time>
      </trkpt>
      <trkpt lat="44.31536" lon="6.86593">
        <ele>2037</ele>
        <time>2019-08-20T07:07:24Z</time>
      </trkpt>
      <trkpt lat="44.31527" lon="6.86565">
        <ele>2039</ele>
        <time>2019-08-20T07:07:54Z</time>
      </trkpt>
      <trkpt lat="44.31526" lon="6.8656">
        <ele>2040</ele>
        <time>2019-08-20T07:07:59Z</time>
      </trkpt>
      <trkpt lat="44.31524" lon="6.86566">
        <ele>2041</ele>
        <time>2019-08-20T07:08:05Z</time>
      </trkpt>
      <trkpt lat="44.31518" lon="6.8659">
        <ele>2044</ele>
        <time>2019-08-20T07:08:29Z</time>
      </trkpt>
      <trkpt lat="44.31516" lon="6.86591">
        <ele>2044</ele>
        <time>2019-08-20T07:08:32Z</time>
      </trkpt>
      <trkpt lat="44.31514" lon="6.8659">
        <ele>2045</ele>
        <time>2019-08-20T07:08:35Z</time>
      </trkpt>
      <trkpt lat="44.31513" lon="6.86585">
        <ele>2045</ele>
        <time>2019-08-20T07:08:40Z</time>
      </trkpt>
      <trkpt lat="44.31513" lon="6.86576">
        <ele>2045</ele>
        <time>2019-08-20T07:08:48Z</time>
      </trkpt>
      <trkpt lat="44.31514" lon="6.86568">
        <ele>2044</ele>
        <time>2019-08-20T07:08:56Z</time>
      </trkpt>
      <trkpt lat="44.31513" lon="6.86553">
        <ele>2043</ele>
        <time>2019-08-20T07:09:10Z</time>
      </trkpt>
      <trkpt lat="44.31512" lon="6.86545">
        <ele>2043</ele>
        <time>2019-08-20T07:09:18Z</time>
      </trkpt>
      <trkpt lat="44.31506" lon="6.86531">
        <ele>2044</ele>
        <time>2019-08-20T07:09:34Z</time>
      </trkpt>
      <trkpt lat="44.31502" lon="6.86521">
        <ele>2045</ele>
        <time>2019-08-20T07:09:45Z</time>
      </trkpt>
      <trkpt lat="44.31497" lon="6.86502">
        <ele>2045</ele>
        <time>2019-08-20T07:10:04Z</time>
      </trkpt>
      <trkpt lat="44.31495" lon="6.86494">
        <ele>2044</ele>
        <time>2019-08-20T07:10:12Z</time>
      </trkpt>
      <trkpt lat="44.31491" lon="6.86491">
        <ele>2044</ele>
        <time>2019-08-20T07:10:18Z</time>
      </trkpt>
      <trkpt lat="44.31485" lon="6.86494">
        <ele>2047</ele>
        <time>2019-08-20T07:10:27Z</time>
      </trkpt>
      <trkpt lat="44.31482" lon="6.86497">
        <ele>2048</ele>
        <time>2019-08-20T07:10:32Z</time>
      </trkpt>
      <trkpt lat="44.31478" lon="6.86505">
        <ele>2050</ele>
        <time>2019-08-20T07:10:41Z</time>
      </trkpt>
      <trkpt lat="44.31471" lon="6.86515">
        <ele>2053</ele>
        <time>2019-08-20T07:10:54Z</time>
      </trkpt>
      <trkpt lat="44.31469" lon="6.86526">
        <ele>2055</ele>
        <time>2019-08-20T07:11:05Z</time>
      </trkpt>
      <trkpt lat="44.31467" lon="6.86536">
        <ele>2057</ele>
        <time>2019-08-20T07:11:15Z</time>
      </trkpt>
      <trkpt lat="44.3146" lon="6.86558">
        <ele>2062</ele>
        <time>2019-08-20T07:11:38Z</time>
      </trkpt>
      <trkpt lat="44.31457" lon="6.86565">
        <ele>2064</ele>
        <time>2019-08-20T07:11:46Z</time>
      </trkpt>
      <trkpt lat="44.31457" lon="6.86593">
        <ele>2066</ele>
        <time>2019-08-20T07:12:13Z</time>
      </trkpt>
      <trkpt lat="44.31457" lon="6.86602">
        <ele>2067</ele>
        <time>2019-08-20T07:12:21Z</time>
      </trkpt>
      <trkpt lat="44.31456" lon="6.86615">
        <ele>2067</ele>
        <time>2019-08-20T07:12:34Z</time>
      </trkpt>
      <trkpt lat="44.31453" lon="6.86628">
        <ele>2069</ele>
        <time>2019-08-20T07:12:47Z</time>
      </trkpt>
      <trkpt lat="44.31448" lon="6.86639">
        <ele>2071</ele>
        <time>2019-08-20T07:12:59Z</time>
      </trkpt>
      <trkpt lat="44.31435" lon="6.86656">
        <ele>2077</ele>
        <time>2019-08-20T07:13:23Z</time>
      </trkpt>
      <trkpt lat="44.31422" lon="6.86669">
        <ele>2083</ele>
        <time>2019-08-20T07:13:44Z</time>
      </trkpt>
      <trkpt lat="44.31416" lon="6.86679">
        <ele>2085</ele>
        <time>2019-08-20T07:13:57Z</time>
      </trkpt>
      <trkpt lat="44.31411" lon="6.86683">
        <ele>2087</ele>
        <time>2019-08-20T07:14:04Z</time>
      </trkpt>
      <trkpt lat="44.31411" lon="6.86686">
        <ele>2087</ele>
        <time>2019-08-20T07:14:07Z</time>
      </trkpt>
      <trkpt lat="44.31409" lon="6.8669">
        <ele>2088</ele>
        <time>2019-08-20T07:14:12Z</time>
      </trkpt>
      <trkpt lat="44.31407" lon="6.86691">
        <ele>2088</ele>
        <time>2019-08-20T07:14:15Z</time>
      </trkpt>
      <trkpt lat="44.31406" lon="6.86691">
        <ele>2089</ele>
        <time>2019-08-20T07:14:16Z</time>
      </trkpt>
      <trkpt lat="44.31406" lon="6.867">
        <ele>2089</ele>
        <time>2019-08-20T07:14:25Z</time>
      </trkpt>
      <trkpt lat="44.31404" lon="6.86704">
        <ele>2089</ele>
        <time>2019-08-20T07:14:29Z</time>
      </trkpt>
      <trkpt lat="44.31403" lon="6.86705">
        <ele>2090</ele>
        <time>2019-08-20T07:14:31Z</time>
      </trkpt>
      <trkpt lat="44.31401" lon="6.86704">
        <ele>2091</ele>
        <time>2019-08-20T07:14:34Z</time>
      </trkpt>
      <trkpt lat="44.31395" lon="6.86694">
        <ele>2093</ele>
        <time>2019-08-20T07:14:46Z</time>
      </trkpt>
      <trkpt lat="44.31392" lon="6.86694">
        <ele>2094</ele>
        <time>2019-08-20T07:14:50Z</time>
      </trkpt>
      <trkpt lat="44.31392" lon="6.86698">
        <ele>2094</ele>
        <time>2019-08-20T07:14:54Z</time>
      </trkpt>
      <trkpt lat="44.3139" lon="6.86704">
        <ele>2095</ele>
        <time>2019-08-20T07:15:00Z</time>
      </trkpt>
      <trkpt lat="44.31391" lon="6.86714">
        <ele>2095</ele>
        <time>2019-08-20T07:15:10Z</time>
      </trkpt>
      <trkpt lat="44.31391" lon="6.86718">
        <ele>2095</ele>
        <time>2019-08-20T07:15:14Z</time>
      </trkpt>
      <trkpt lat="44.31389" lon="6.86721">
        <ele>2095</ele>
        <time>2019-08-20T07:15:18Z</time>
      </trkpt>
      <trkpt lat="44.31387" lon="6.86722">
        <ele>2096</ele>
        <time>2019-08-20T07:15:21Z</time>
      </trkpt>
      <trkpt lat="44.31378" lon="6.86709">
        <ele>2100</ele>
        <time>2019-08-20T07:15:38Z</time>
      </trkpt>
      <trkpt lat="44.31376" lon="6.86709">
        <ele>2101</ele>
        <time>2019-08-20T07:15:41Z</time>
      </trkpt>
      <trkpt lat="44.31375" lon="6.86711">
        <ele>2101</ele>
        <time>2019-08-20T07:15:43Z</time>
      </trkpt>
      <trkpt lat="44.31373" lon="6.86723">
        <ele>2102</ele>
        <time>2019-08-20T07:15:55Z</time>
      </trkpt>
      <trkpt lat="44.31373" lon="6.86734">
        <ele>2102</ele>
        <time>2019-08-20T07:16:05Z</time>
      </trkpt>
      <trkpt lat="44.31372" lon="6.86737">
        <ele>2103</ele>
        <time>2019-08-20T07:16:08Z</time>
      </trkpt>
      <trkpt lat="44.3137" lon="6.86738">
        <ele>2104</ele>
        <time>2019-08-20T07:16:11Z</time>
      </trkpt>
      <trkpt lat="44.31368" lon="6.86738">
        <ele>2104</ele>
        <time>2019-08-20T07:16:14Z</time>
      </trkpt>
      <trkpt lat="44.31364" lon="6.86736">
        <ele>2106</ele>
        <time>2019-08-20T07:16:19Z</time>
      </trkpt>
      <trkpt lat="44.3136" lon="6.86734">
        <ele>2108</ele>
        <time>2019-08-20T07:16:25Z</time>
      </trkpt>
      <trkpt lat="44.31355" lon="6.86736">
        <ele>2110</ele>
        <time>2019-08-20T07:16:32Z</time>
      </trkpt>
      <trkpt lat="44.31351" lon="6.8674">
        <ele>2112</ele>
        <time>2019-08-20T07:16:39Z</time>
      </trkpt>
      <trkpt lat="44.31348" lon="6.86746">
        <ele>2113</ele>
        <time>2019-08-20T07:16:46Z</time>
      </trkpt>
      <trkpt lat="44.31346" lon="6.86756">
        <ele>2113</ele>
        <time>2019-08-20T07:16:56Z</time>
      </trkpt>
      <trkpt lat="44.3134" lon="6.86771">
        <ele>2114</ele>
        <time>2019-08-20T07:17:12Z</time>
      </trkpt>
      <trkpt lat="44.31333" lon="6.86782">
        <ele>2115</ele>
        <time>2019-08-20T07:17:26Z</time>
      </trkpt>
      <trkpt lat="44.31322" lon="6.86795">
        <ele>2114</ele>
        <time>2019-08-20T07:17:45Z</time>
      </trkpt>
      <trkpt lat="44.31318" lon="6.86797">
        <ele>2114</ele>
        <time>2019-08-20T07:17:51Z</time>
      </trkpt>
      <trkpt lat="44.31316" lon="6.86797">
        <ele>2114</ele>
        <time>2019-08-20T07:17:54Z</time>
      </trkpt>
      <trkpt lat="44.31313" lon="6.86795">
        <ele>2115</ele>
        <time>2019-08-20T07:17:58Z</time>
      </trkpt>
      <trkpt lat="44.31312" lon="6.86791">
        <ele>2116</ele>
        <time>2019-08-20T07:18:02Z</time>
      </trkpt>
      <trkpt lat="44.31303" lon="6.86795">
        <ele>2116</ele>
        <time>2019-08-20T07:18:15Z</time>
      </trkpt>
      <trkpt lat="44.31291" lon="6.86801">
        <ele>2116</ele>
        <time>2019-08-20T07:18:32Z</time>
      </trkpt>
      <trkpt lat="44.31279" lon="6.86805">
        <ele>2116</ele>
        <time>2019-08-20T07:18:48Z</time>
      </trkpt>
      <trkpt lat="44.31264" lon="6.86808">
        <ele>2117</ele>
        <time>2019-08-20T07:19:08Z</time>
      </trkpt>
      <trkpt lat="44.31252" lon="6.86811">
        <ele>2117</ele>
        <time>2019-08-20T07:19:25Z</time>
      </trkpt>
      <trkpt lat="44.31224" lon="6.86821">
        <ele>2113</ele>
        <time>2019-08-20T07:20:03Z</time>
      </trkpt>
      <trkpt lat="44.31219" lon="6.86822">
        <ele>2112</ele>
        <time>2019-08-20T07:20:10Z</time>
      </trkpt>
      <trkpt lat="44.31208" lon="6.86818">
        <ele>2112</ele>
        <time>2019-08-20T07:20:25Z</time>
      </trkpt>
      <trkpt lat="44.312" lon="6.8681">
        <ele>2113</ele>
        <time>2019-08-20T07:20:38Z</time>
      </trkpt>
      <trkpt lat="44.31187" lon="6.86795">
        <ele>2116</ele>
        <time>2019-08-20T07:21:01Z</time>
      </trkpt>
      <trkpt lat="44.31185" lon="6.86793">
        <ele>2116</ele>
        <time>2019-08-20T07:21:04Z</time>
      </trkpt>
      <trkpt lat="44.31163" lon="6.86766">
        <ele>2123</ele>
        <time>2019-08-20T07:21:43Z</time>
      </trkpt>
      <trkpt lat="44.31151" lon="6.86751">
        <ele>2126</ele>
        <time>2019-08-20T07:22:05Z</time>
      </trkpt>
      <trkpt lat="44.31142" lon="6.86741">
        <ele>2127</ele>
        <time>2019-08-20T07:22:20Z</time>
      </trkpt>
      <trkpt lat="44.3113" lon="6.86732">
        <ele>2127</ele>
        <time>2019-08-20T07:22:38Z</time>
      </trkpt>
      <trkpt lat="44.31113" lon="6.86724">
        <ele>2127</ele>
        <time>2019-08-20T07:23:02Z</time>
      </trkpt>
      <trkpt lat="44.31103" lon="6.86722">
        <ele>2126</ele>
        <time>2019-08-20T07:23:16Z</time>
      </trkpt>
      <trkpt lat="44.31092" lon="6.86723">
        <ele>2125</ele>
        <time>2019-08-20T07:23:30Z</time>
      </trkpt>
      <trkpt lat="44.31086" lon="6.86724">
        <ele>2124</ele>
        <time>2019-08-20T07:23:38Z</time>
      </trkpt>
      <trkpt lat="44.31079" lon="6.86721">
        <ele>2124</ele>
        <time>2019-08-20T07:23:48Z</time>
      </trkpt>
      <trkpt lat="44.31073" lon="6.86717">
        <ele>2125</ele>
        <time>2019-08-20T07:23:57Z</time>
      </trkpt>
      <trkpt lat="44.31067" lon="6.86711">
        <ele>2126</ele>
        <time>2019-08-20T07:24:07Z</time>
      </trkpt>
      <trkpt lat="44.31059" lon="6.86693">
        <ele>2129</ele>
        <time>2019-08-20T07:24:27Z</time>
      </trkpt>
      <trkpt lat="44.31055" lon="6.86688">
        <ele>2130</ele>
        <time>2019-08-20T07:24:34Z</time>
      </trkpt>
      <trkpt lat="44.3105" lon="6.86684">
        <ele>2130</ele>
        <time>2019-08-20T07:24:42Z</time>
      </trkpt>
      <trkpt lat="44.31043" lon="6.86679">
        <ele>2131</ele>
        <time>2019-08-20T07:24:52Z</time>
      </trkpt>
      <trkpt lat="44.31039" lon="6.86672">
        <ele>2132</ele>
        <time>2019-08-20T07:25:01Z</time>
      </trkpt>
      <trkpt lat="44.31034" lon="6.86664">
        <ele>2134</ele>
        <time>2019-08-20T07:25:11Z</time>
      </trkpt>
      <trkpt lat="44.31026" lon="6.86657">
        <ele>2138</ele>
        <time>2019-08-20T07:25:24Z</time>
      </trkpt>
      <trkpt lat="44.31018" lon="6.86653">
        <ele>2140</ele>
        <time>2019-08-20T07:25:35Z</time>
      </trkpt>
      <trkpt lat="44.31007" lon="6.86652">
        <ele>2141</ele>
        <time>2019-08-20T07:25:50Z</time>
      </trkpt>
      <trkpt lat="44.30993" lon="6.86654">
        <ele>2141</ele>
        <time>2019-08-20T07:26:08Z</time>
      </trkpt>
      <trkpt lat="44.30982" lon="6.86657">
        <ele>2140</ele>
        <time>2019-08-20T07:26:23Z</time>
      </trkpt>
      <trkpt lat="44.30975" lon="6.86662">
        <ele>2139</ele>
        <time>2019-08-20T07:26:34Z</time>
      </trkpt>
      <trkpt lat="44.30963" lon="6.86668">
        <ele>2139</ele>
        <time>2019-08-20T07:26:51Z</time>
      </trkpt>
      <trkpt lat="44.30958" lon="6.8667">
        <ele>2139</ele>
        <time>2019-08-20T07:26:58Z</time>
      </trkpt>
      <trkpt lat="44.30953" lon="6.86674">
        <ele>2139</ele>
        <time>2019-08-20T07:27:06Z</time>
      </trkpt>
      <trkpt lat="44.30933" lon="6.86701">
        <ele>2139</ele>
        <time>2019-08-20T07:27:43Z</time>
      </trkpt>
      <trkpt lat="44.30927" lon="6.86711">
        <ele>2139</ele>
        <time>2019-08-20T07:27:55Z</time>
      </trkpt>
      <trkpt lat="44.30923" lon="6.86713">
        <ele>2139</ele>
        <time>2019-08-20T07:28:01Z</time>
      </trkpt>
      <trkpt lat="44.30915" lon="6.86717">
        <ele>2140</ele>
        <time>2019-08-20T07:28:12Z</time>
      </trkpt>
      <trkpt lat="44.30898" lon="6.8672">
        <ele>2143</ele>
        <time>2019-08-20T07:28:35Z</time>
      </trkpt>
      <trkpt lat="44.30894" lon="6.8672">
        <ele>2144</ele>
        <time>2019-08-20T07:28:40Z</time>
      </trkpt>
      <trkpt lat="44.30886" lon="6.86727">
        <ele>2144</ele>
        <time>2019-08-20T07:28:53Z</time>
      </trkpt>
      <trkpt lat="44.30875" lon="6.86732">
        <ele>2145</ele>
        <time>2019-08-20T07:29:08Z</time>
      </trkpt>
      <trkpt lat="44.30871" lon="6.86735">
        <ele>2145</ele>
        <time>2019-08-20T07:29:14Z</time>
      </trkpt>
      <trkpt lat="44.30869" lon="6.86738">
        <ele>2145</ele>
        <time>2019-08-20T07:29:18Z</time>
      </trkpt>
      <trkpt lat="44.30867" lon="6.86748">
        <ele>2144</ele>
        <time>2019-08-20T07:29:28Z</time>
      </trkpt>
      <trkpt lat="44.30867" lon="6.86757">
        <ele>2142</ele>
        <time>2019-08-20T07:29:37Z</time>
      </trkpt>
      <trkpt lat="44.30865" lon="6.8676">
        <ele>2142</ele>
        <time>2019-08-20T07:29:41Z</time>
      </trkpt>
      <trkpt lat="44.30863" lon="6.86762">
        <ele>2142</ele>
        <time>2019-08-20T07:29:44Z</time>
      </trkpt>
      <trkpt lat="44.3086" lon="6.86762">
        <ele>2143</ele>
        <time>2019-08-20T07:29:48Z</time>
      </trkpt>
      <trkpt lat="44.3085" lon="6.86756">
        <ele>2145</ele>
        <time>2019-08-20T07:30:03Z</time>
      </trkpt>
      <trkpt lat="44.30832" lon="6.86746">
        <ele>2150</ele>
        <time>2019-08-20T07:30:28Z</time>
      </trkpt>
      <trkpt lat="44.30818" lon="6.86741">
        <ele>2154</ele>
        <time>2019-08-20T07:30:48Z</time>
      </trkpt>
      <trkpt lat="44.30795" lon="6.86737">
        <ele>2158</ele>
        <time>2019-08-20T07:31:19Z</time>
      </trkpt>
      <trkpt lat="44.30776" lon="6.86739">
        <ele>2161</ele>
        <time>2019-08-20T07:31:44Z</time>
      </trkpt>
      <trkpt lat="44.30749" lon="6.86746">
        <ele>2164</ele>
        <time>2019-08-20T07:32:21Z</time>
      </trkpt>
      <trkpt lat="44.30733" lon="6.86755">
        <ele>2167</ele>
        <time>2019-08-20T07:32:44Z</time>
      </trkpt>
      <trkpt lat="44.30726" lon="6.86764">
        <ele>2168</ele>
        <time>2019-08-20T07:32:56Z</time>
      </trkpt>
      <trkpt lat="44.30718" lon="6.86784">
        <ele>2168</ele>
        <time>2019-08-20T07:33:18Z</time>
      </trkpt>
      <trkpt lat="44.30707" lon="6.86808">
        <ele>2169</ele>
        <time>2019-08-20T07:33:46Z</time>
      </trkpt>
      <trkpt lat="44.30698" lon="6.86825">
        <ele>2170</ele>
        <time>2019-08-20T07:34:06Z</time>
      </trkpt>
      <trkpt lat="44.30691" lon="6.86837">
        <ele>2172</ele>
        <time>2019-08-20T07:34:20Z</time>
      </trkpt>
      <trkpt lat="44.30682" lon="6.86879">
        <ele>2174</ele>
        <time>2019-08-20T07:35:02Z</time>
      </trkpt>
      <trkpt lat="44.30672" lon="6.86914">
        <ele>2178</ele>
        <time>2019-08-20T07:35:38Z</time>
      </trkpt>
      <trkpt lat="44.3066" lon="6.86948">
        <ele>2182</ele>
        <time>2019-08-20T07:36:15Z</time>
      </trkpt>
      <trkpt lat="44.30649" lon="6.86986">
        <ele>2187</ele>
        <time>2019-08-20T07:36:54Z</time>
      </trkpt>
      <trkpt lat="44.30647" lon="6.86999">
        <ele>2188</ele>
        <time>2019-08-20T07:37:06Z</time>
      </trkpt>
      <trkpt lat="44.30651" lon="6.87029">
        <ele>2184</ele>
        <time>2019-08-20T07:37:36Z</time>
      </trkpt>
      <trkpt lat="44.30647" lon="6.87045">
        <ele>2186</ele>
        <time>2019-08-20T07:37:52Z</time>
      </trkpt>
      <trkpt lat="44.3064" lon="6.87067">
        <ele>2189</ele>
        <time>2019-08-20T07:38:15Z</time>
      </trkpt>
      <trkpt lat="44.30622" lon="6.87139">
        <ele>2196</ele>
        <time>2019-08-20T07:39:28Z</time>
      </trkpt>
      <trkpt lat="44.30616" lon="6.87158">
        <ele>2197</ele>
        <time>2019-08-20T07:39:47Z</time>
      </trkpt>
      <trkpt lat="44.30587" lon="6.87213">
        <ele>2206</ele>
        <time>2019-08-20T07:40:53Z</time>
      </trkpt>
      <trkpt lat="44.30579" lon="6.87233">
        <ele>2207</ele>
        <time>2019-08-20T07:41:14Z</time>
      </trkpt>
      <trkpt lat="44.30577" lon="6.87249">
        <ele>2207</ele>
        <time>2019-08-20T07:41:30Z</time>
      </trkpt>
      <trkpt lat="44.30574" lon="6.87273">
        <ele>2209</ele>
        <time>2019-08-20T07:41:53Z</time>
      </trkpt>
      <trkpt lat="44.30571" lon="6.87284">
        <ele>2210</ele>
        <time>2019-08-20T07:42:05Z</time>
      </trkpt>
      <trkpt lat="44.30568" lon="6.87285">
        <ele>2212</ele>
        <time>2019-08-20T07:42:09Z</time>
      </trkpt>
      <trkpt lat="44.30568" lon="6.87307">
        <ele>2212</ele>
        <time>2019-08-20T07:42:30Z</time>
      </trkpt>
      <trkpt lat="44.30565" lon="6.87314">
        <ele>2213</ele>
        <time>2019-08-20T07:42:37Z</time>
      </trkpt>
      <trkpt lat="44.30558" lon="6.87341">
        <ele>2218</ele>
        <time>2019-08-20T07:43:05Z</time>
      </trkpt>
      <trkpt lat="44.30557" lon="6.87346">
        <ele>2220</ele>
        <time>2019-08-20T07:43:10Z</time>
      </trkpt>
      <trkpt lat="44.30554" lon="6.87346">
        <ele>2221</ele>
        <time>2019-08-20T07:43:14Z</time>
      </trkpt>
      <trkpt lat="44.30552" lon="6.8734">
        <ele>2220</ele>
        <time>2019-08-20T07:43:20Z</time>
      </trkpt>
      <trkpt lat="44.30551" lon="6.87333">
        <ele>2218</ele>
        <time>2019-08-20T07:43:27Z</time>
      </trkpt>
      <trkpt lat="44.3055" lon="6.87328">
        <ele>2219</ele>
        <time>2019-08-20T07:43:32Z</time>
      </trkpt>
      <trkpt lat="44.30548" lon="6.87325">
        <ele>2220</ele>
        <time>2019-08-20T07:43:36Z</time>
      </trkpt>
      <trkpt lat="44.30547" lon="6.87324">
        <ele>2220</ele>
        <time>2019-08-20T07:43:37Z</time>
      </trkpt>
      <trkpt lat="44.30545" lon="6.87326">
        <ele>2221</ele>
        <time>2019-08-20T07:43:41Z</time>
      </trkpt>
      <trkpt lat="44.30544" lon="6.87332">
        <ele>2221</ele>
        <time>2019-08-20T07:43:47Z</time>
      </trkpt>
      <trkpt lat="44.30542" lon="6.87345">
        <ele>2224</ele>
        <time>2019-08-20T07:43:59Z</time>
      </trkpt>
      <trkpt lat="44.30541" lon="6.87357">
        <ele>2228</ele>
        <time>2019-08-20T07:44:11Z</time>
      </trkpt>
      <trkpt lat="44.30539" lon="6.87364">
        <ele>2230</ele>
        <time>2019-08-20T07:44:18Z</time>
      </trkpt>
      <trkpt lat="44.30534" lon="6.87365">
        <ele>2232</ele>
        <time>2019-08-20T07:44:25Z</time>
      </trkpt>
      <trkpt lat="44.30529" lon="6.87355">
        <ele>2231</ele>
        <time>2019-08-20T07:44:36Z</time>
      </trkpt>
      <trkpt lat="44.30527" lon="6.87354">
        <ele>2232</ele>
        <time>2019-08-20T07:44:39Z</time>
      </trkpt>
      <trkpt lat="44.30524" lon="6.87355">
        <ele>2233</ele>
        <time>2019-08-20T07:44:43Z</time>
      </trkpt>
      <trkpt lat="44.30522" lon="6.87358">
        <ele>2234</ele>
        <time>2019-08-20T07:44:47Z</time>
      </trkpt>
      <trkpt lat="44.30518" lon="6.87359">
        <ele>2236</ele>
        <time>2019-08-20T07:44:53Z</time>
      </trkpt>
      <trkpt lat="44.30487" lon="6.87358">
        <ele>2240</ele>
        <time>2019-08-20T07:45:34Z</time>
      </trkpt>
      <trkpt lat="44.30474" lon="6.87357">
        <ele>2238</ele>
        <time>2019-08-20T07:45:51Z</time>
      </trkpt>
      <trkpt lat="44.30465" lon="6.87363">
        <ele>2238</ele>
        <time>2019-08-20T07:46:05Z</time>
      </trkpt>
      <trkpt lat="44.3046" lon="6.87369">
        <ele>2238</ele>
        <time>2019-08-20T07:46:14Z</time>
      </trkpt>
      <trkpt lat="44.30457" lon="6.87371">
        <ele>2238</ele>
        <time>2019-08-20T07:46:18Z</time>
      </trkpt>
      <trkpt lat="44.30453" lon="6.87367">
        <ele>2237</ele>
        <time>2019-08-20T07:46:25Z</time>
      </trkpt>
      <trkpt lat="44.3045" lon="6.87362">
        <ele>2236</ele>
        <time>2019-08-20T07:46:31Z</time>
      </trkpt>
      <trkpt lat="44.30447" lon="6.87354">
        <ele>2235</ele>
        <time>2019-08-20T07:46:39Z</time>
      </trkpt>
      <trkpt lat="44.30442" lon="6.8735">
        <ele>2235</ele>
        <time>2019-08-20T07:46:47Z</time>
      </trkpt>
      <trkpt lat="44.30436" lon="6.87351">
        <ele>2234</ele>
        <time>2019-08-20T07:46:55Z</time>
      </trkpt>
      <trkpt lat="44.3043" lon="6.87354">
        <ele>2234</ele>
        <time>2019-08-20T07:47:04Z</time>
      </trkpt>
      <trkpt lat="44.30424" lon="6.87355">
        <ele>2233</ele>
        <time>2019-08-20T07:47:12Z</time>
      </trkpt>
      <trkpt lat="44.30414" lon="6.87354">
        <ele>2231</ele>
        <time>2019-08-20T07:47:25Z</time>
      </trkpt>
      <trkpt lat="44.30405" lon="6.87356">
        <ele>2228</ele>
        <time>2019-08-20T07:47:37Z</time>
      </trkpt>
      <trkpt lat="44.30402" lon="6.87353">
        <ele>2227</ele>
        <time>2019-08-20T07:47:42Z</time>
      </trkpt>
      <trkpt lat="44.30399" lon="6.87346">
        <ele>2226</ele>
        <time>2019-08-20T07:47:50Z</time>
      </trkpt>
      <trkpt lat="44.30396" lon="6.87343">
        <ele>2225</ele>
        <time>2019-08-20T07:47:55Z</time>
      </trkpt>
      <trkpt lat="44.30392" lon="6.87343">
        <ele>2224</ele>
        <time>2019-08-20T07:48:00Z</time>
      </trkpt>
      <trkpt lat="44.30391" lon="6.87346">
        <ele>2223</ele>
        <time>2019-08-20T07:48:03Z</time>
      </trkpt>
      <trkpt lat="44.3039" lon="6.87353">
        <ele>2222</ele>
        <time>2019-08-20T07:48:10Z</time>
      </trkpt>
      <trkpt lat="44.3038" lon="6.87384">
        <ele>2216</ele>
        <time>2019-08-20T07:48:43Z</time>
      </trkpt>
      <trkpt lat="44.30378" lon="6.87387">
        <ele>2215</ele>
        <time>2019-08-20T07:48:47Z</time>
      </trkpt>
      <trkpt lat="44.30375" lon="6.87384">
        <ele>2213</ele>
        <time>2019-08-20T07:48:52Z</time>
      </trkpt>
      <trkpt lat="44.30373" lon="6.87378">
        <ele>2213</ele>
        <time>2019-08-20T07:48:58Z</time>
      </trkpt>
      <trkpt lat="44.30369" lon="6.87377">
        <ele>2211</ele>
        <time>2019-08-20T07:49:03Z</time>
      </trkpt>
      <trkpt lat="44.30361" lon="6.87386">
        <ele>2207</ele>
        <time>2019-08-20T07:49:17Z</time>
      </trkpt>
      <trkpt lat="44.30358" lon="6.87387">
        <ele>2206</ele>
        <time>2019-08-20T07:49:21Z</time>
      </trkpt>
      <trkpt lat="44.30356" lon="6.87385">
        <ele>2205</ele>
        <time>2019-08-20T07:49:24Z</time>
      </trkpt>
      <trkpt lat="44.30352" lon="6.87376">
        <ele>2204</ele>
        <time>2019-08-20T07:49:35Z</time>
      </trkpt>
      <trkpt lat="44.3035" lon="6.87376">
        <ele>2203</ele>
        <time>2019-08-20T07:49:37Z</time>
      </trkpt>
      <trkpt lat="44.30349" lon="6.87379">
        <ele>2203</ele>
        <time>2019-08-20T07:49:40Z</time>
      </trkpt>
      <trkpt lat="44.30344" lon="6.87396">
        <ele>2198</ele>
        <time>2019-08-20T07:49:58Z</time>
      </trkpt>
      <trkpt lat="44.30341" lon="6.87396">
        <ele>2197</ele>
        <time>2019-08-20T07:50:02Z</time>
      </trkpt>
      <trkpt lat="44.30339" lon="6.87395">
        <ele>2196</ele>
        <time>2019-08-20T07:50:05Z</time>
      </trkpt>
      <trkpt lat="44.30335" lon="6.87392">
        <ele>2195</ele>
        <time>2019-08-20T07:50:11Z</time>
      </trkpt>
      <trkpt lat="44.30331" lon="6.87387">
        <ele>2194</ele>
        <time>2019-08-20T07:50:18Z</time>
      </trkpt>
      <trkpt lat="44.30329" lon="6.87387">
        <ele>2193</ele>
        <time>2019-08-20T07:50:21Z</time>
      </trkpt>
      <trkpt lat="44.30328" lon="6.87391">
        <ele>2192</ele>
        <time>2019-08-20T07:50:25Z</time>
      </trkpt>
      <trkpt lat="44.30322" lon="6.87408">
        <ele>2187</ele>
        <time>2019-08-20T07:50:43Z</time>
      </trkpt>
      <trkpt lat="44.3032" lon="6.87409">
        <ele>2186</ele>
        <time>2019-08-20T07:50:46Z</time>
      </trkpt>
      <trkpt lat="44.30317" lon="6.87406">
        <ele>2185</ele>
        <time>2019-08-20T07:50:51Z</time>
      </trkpt>
      <trkpt lat="44.30313" lon="6.87405">
        <ele>2184</ele>
        <time>2019-08-20T07:50:56Z</time>
      </trkpt>
      <trkpt lat="44.30299" lon="6.87409">
        <ele>2177</ele>
        <time>2019-08-20T07:51:15Z</time>
      </trkpt>
      <trkpt lat="44.30296" lon="6.87412">
        <ele>2175</ele>
        <time>2019-08-20T07:51:20Z</time>
      </trkpt>
      <trkpt lat="44.30296" lon="6.87416">
        <ele>2174</ele>
        <time>2019-08-20T07:51:24Z</time>
      </trkpt>
      <trkpt lat="44.30307" lon="6.87427">
        <ele>2178</ele>
        <time>2019-08-20T07:51:42Z</time>
      </trkpt>
      <trkpt lat="44.30307" lon="6.87433">
        <ele>2178</ele>
        <time>2019-08-20T07:51:48Z</time>
      </trkpt>
      <trkpt lat="44.30306" lon="6.87435">
        <ele>2177</ele>
        <time>2019-08-20T07:51:50Z</time>
      </trkpt>
      <trkpt lat="44.30304" lon="6.87434">
        <ele>2176</ele>
        <time>2019-08-20T07:51:53Z</time>
      </trkpt>
      <trkpt lat="44.30303" lon="6.87433">
        <ele>2176</ele>
        <time>2019-08-20T07:51:54Z</time>
      </trkpt>
      <trkpt lat="44.30286" lon="6.87428">
        <ele>2169</ele>
        <time>2019-08-20T07:52:18Z</time>
      </trkpt>
      <trkpt lat="44.30279" lon="6.87426">
        <ele>2166</ele>
        <time>2019-08-20T07:52:27Z</time>
      </trkpt>
      <trkpt lat="44.30272" lon="6.8742">
        <ele>2164</ele>
        <time>2019-08-20T07:52:38Z</time>
      </trkpt>
      <trkpt lat="44.30269" lon="6.8742">
        <ele>2163</ele>
        <time>2019-08-20T07:52:42Z</time>
      </trkpt>
      <trkpt lat="44.30268" lon="6.87426">
        <ele>2161</ele>
        <time>2019-08-20T07:52:48Z</time>
      </trkpt>
      <trkpt lat="44.30275" lon="6.87442">
        <ele>2162</ele>
        <time>2019-08-20T07:53:06Z</time>
      </trkpt>
      <trkpt lat="44.30255" lon="6.87443">
        <ele>2153</ele>
        <time>2019-08-20T07:53:33Z</time>
      </trkpt>
      <trkpt lat="44.30246" lon="6.87445">
        <ele>2149</ele>
        <time>2019-08-20T07:53:45Z</time>
      </trkpt>
      <trkpt lat="44.30243" lon="6.87447">
        <ele>2147</ele>
        <time>2019-08-20T07:53:49Z</time>
      </trkpt>
      <trkpt lat="44.3024" lon="6.87455">
        <ele>2144</ele>
        <time>2019-08-20T07:53:58Z</time>
      </trkpt>
      <trkpt lat="44.30232" lon="6.87455">
        <ele>2141</ele>
        <time>2019-08-20T07:54:08Z</time>
      </trkpt>
      <trkpt lat="44.30226" lon="6.87504">
        <ele>2129</ele>
        <time>2019-08-20T07:54:56Z</time>
      </trkpt>
      <trkpt lat="44.30221" lon="6.87516">
        <ele>2127</ele>
        <time>2019-08-20T07:55:09Z</time>
      </trkpt>
      <trkpt lat="44.30211" lon="6.87534">
        <ele>2121</ele>
        <time>2019-08-20T07:55:31Z</time>
      </trkpt>
      <trkpt lat="44.30207" lon="6.87538">
        <ele>2119</ele>
        <time>2019-08-20T07:55:38Z</time>
      </trkpt>
      <trkpt lat="44.302" lon="6.87541">
        <ele>2115</ele>
        <time>2019-08-20T07:55:47Z</time>
      </trkpt>
      <trkpt lat="44.30193" lon="6.8754">
        <ele>2111</ele>
        <time>2019-08-20T07:55:57Z</time>
      </trkpt>
      <trkpt lat="44.30184" lon="6.87543">
        <ele>2106</ele>
        <time>2019-08-20T07:56:09Z</time>
      </trkpt>
      <trkpt lat="44.30175" lon="6.87554">
        <ele>2101</ele>
        <time>2019-08-20T07:56:25Z</time>
      </trkpt>
      <trkpt lat="44.30162" lon="6.87574">
        <ele>2093</ele>
        <time>2019-08-20T07:56:51Z</time>
      </trkpt>
      <trkpt lat="44.30146" lon="6.87602">
        <ele>2088</ele>
        <time>2019-08-20T07:57:25Z</time>
      </trkpt>
      <trkpt lat="44.30133" lon="6.8763">
        <ele>2086</ele>
        <time>2019-08-20T07:57:57Z</time>
      </trkpt>
      <trkpt lat="44.30129" lon="6.87652">
        <ele>2089</ele>
        <time>2019-08-20T07:58:19Z</time>
      </trkpt>
      <trkpt lat="44.30125" lon="6.87669">
        <ele>2090</ele>
        <time>2019-08-20T07:58:36Z</time>
      </trkpt>
      <trkpt lat="44.30121" lon="6.87669">
        <ele>2088</ele>
        <time>2019-08-20T07:58:41Z</time>
      </trkpt>
      <trkpt lat="44.30115" lon="6.87676">
        <ele>2085</ele>
        <time>2019-08-20T07:58:51Z</time>
      </trkpt>
      <trkpt lat="44.30108" lon="6.87692">
        <ele>2085</ele>
        <time>2019-08-20T07:59:09Z</time>
      </trkpt>
      <trkpt lat="44.30104" lon="6.87695">
        <ele>2083</ele>
        <time>2019-08-20T07:59:15Z</time>
      </trkpt>
      <trkpt lat="44.30096" lon="6.87709">
        <ele>2081</ele>
        <time>2019-08-20T07:59:33Z</time>
      </trkpt>
      <trkpt lat="44.30086" lon="6.87722">
        <ele>2078</ele>
        <time>2019-08-20T07:59:51Z</time>
      </trkpt>
      <trkpt lat="44.30079" lon="6.87733">
        <ele>2077</ele>
        <time>2019-08-20T08:00:05Z</time>
      </trkpt>
      <trkpt lat="44.30072" lon="6.87758">
        <ele>2076</ele>
        <time>2019-08-20T08:00:30Z</time>
      </trkpt>
      <trkpt lat="44.30067" lon="6.87788">
        <ele>2073</ele>
        <time>2019-08-20T08:01:00Z</time>
      </trkpt>
      <trkpt lat="44.30064" lon="6.87798">
        <ele>2072</ele>
        <time>2019-08-20T08:01:10Z</time>
      </trkpt>
      <trkpt lat="44.30063" lon="6.87825">
        <ele>2071</ele>
        <time>2019-08-20T08:01:36Z</time>
      </trkpt>
      <trkpt lat="44.30059" lon="6.87845">
        <ele>2069</ele>
        <time>2019-08-20T08:01:56Z</time>
      </trkpt>
      <trkpt lat="44.30058" lon="6.8786">
        <ele>2070</ele>
        <time>2019-08-20T08:02:10Z</time>
      </trkpt>
      <trkpt lat="44.30059" lon="6.87872">
        <ele>2071</ele>
        <time>2019-08-20T08:02:22Z</time>
      </trkpt>
      <trkpt lat="44.30056" lon="6.87881">
        <ele>2069</ele>
        <time>2019-08-20T08:02:31Z</time>
      </trkpt>
      <trkpt lat="44.30052" lon="6.87889">
        <ele>2068</ele>
        <time>2019-08-20T08:02:41Z</time>
      </trkpt>
      <trkpt lat="44.30053" lon="6.87917">
        <ele>2070</ele>
        <time>2019-08-20T08:03:07Z</time>
      </trkpt>
      <trkpt lat="44.30057" lon="6.8793">
        <ele>2074</ele>
        <time>2019-08-20T08:03:21Z</time>
      </trkpt>
      <trkpt lat="44.30056" lon="6.87932">
        <ele>2074</ele>
        <time>2019-08-20T08:03:23Z</time>
      </trkpt>
      <trkpt lat="44.30055" lon="6.87933">
        <ele>2074</ele>
        <time>2019-08-20T08:03:25Z</time>
      </trkpt>
      <trkpt lat="44.30026" lon="6.87942">
        <ele>2062</ele>
        <time>2019-08-20T08:04:04Z</time>
      </trkpt>
      <trkpt lat="44.30014" lon="6.8794">
        <ele>2056</ele>
        <time>2019-08-20T08:04:21Z</time>
      </trkpt>
      <trkpt lat="44.29998" lon="6.87938">
        <ele>2048</ele>
        <time>2019-08-20T08:04:42Z</time>
      </trkpt>
      <trkpt lat="44.29966" lon="6.87942">
        <ele>2040</ele>
        <time>2019-08-20T08:05:25Z</time>
      </trkpt>
      <trkpt lat="44.29952" lon="6.87943">
        <ele>2036</ele>
        <time>2019-08-20T08:05:44Z</time>
      </trkpt>
      <trkpt lat="44.2993" lon="6.87935">
        <ele>2027</ele>
        <time>2019-08-20T08:06:14Z</time>
      </trkpt>
      <trkpt lat="44.29916" lon="6.87929">
        <ele>2021</ele>
        <time>2019-08-20T08:06:34Z</time>
      </trkpt>
      <trkpt lat="44.29899" lon="6.87929">
        <ele>2016</ele>
        <time>2019-08-20T08:06:56Z</time>
      </trkpt>
      <trkpt lat="44.29896" lon="6.87925">
        <ele>2014</ele>
        <time>2019-08-20T08:07:02Z</time>
      </trkpt>
      <trkpt lat="44.29898" lon="6.87924">
        <ele>2014</ele>
        <time>2019-08-20T08:07:05Z</time>
      </trkpt>
      <trkpt lat="44.29894" lon="6.87923">
        <ele>2013</ele>
        <time>2019-08-20T08:07:10Z</time>
      </trkpt>
      <trkpt lat="44.29885" lon="6.87923">
        <ele>2010</ele>
        <time>2019-08-20T08:07:22Z</time>
      </trkpt>
      <trkpt lat="44.29871" lon="6.87929">
        <ele>2008</ele>
        <time>2019-08-20T08:07:42Z</time>
      </trkpt>
      <trkpt lat="44.29854" lon="6.87945">
        <ele>2007</ele>
        <time>2019-08-20T08:08:09Z</time>
      </trkpt>
      <trkpt lat="44.29841" lon="6.87962">
        <ele>2006</ele>
        <time>2019-08-20T08:08:33Z</time>
      </trkpt>
      <trkpt lat="44.29826" lon="6.87976">
        <ele>2003</ele>
        <time>2019-08-20T08:08:57Z</time>
      </trkpt>
      <trkpt lat="44.29806" lon="6.87994">
        <ele>1996</ele>
        <time>2019-08-20T08:09:28Z</time>
      </trkpt>
      <trkpt lat="44.2979" lon="6.88003">
        <ele>1989</ele>
        <time>2019-08-20T08:09:51Z</time>
      </trkpt>
      <trkpt lat="44.29784" lon="6.88005">
        <ele>1987</ele>
        <time>2019-08-20T08:10:00Z</time>
      </trkpt>
      <trkpt lat="44.29777" lon="6.88007">
        <ele>1983</ele>
        <time>2019-08-20T08:10:09Z</time>
      </trkpt>
      <trkpt lat="44.29773" lon="6.88021">
        <ele>1984</ele>
        <time>2019-08-20T08:10:24Z</time>
      </trkpt>
      <trkpt lat="44.29759" lon="6.88046">
        <ele>1979</ele>
        <time>2019-08-20T08:10:54Z</time>
      </trkpt>
      <trkpt lat="44.29756" lon="6.88063">
        <ele>1980</ele>
        <time>2019-08-20T08:11:11Z</time>
      </trkpt>
      <trkpt lat="44.29747" lon="6.88085">
        <ele>1977</ele>
        <time>2019-08-20T08:11:35Z</time>
      </trkpt>
      <trkpt lat="44.29744" lon="6.88102">
        <ele>1979</ele>
        <time>2019-08-20T08:11:52Z</time>
      </trkpt>
      <trkpt lat="44.29746" lon="6.88139">
        <ele>1987</ele>
        <time>2019-08-20T08:12:27Z</time>
      </trkpt>
      <trkpt lat="44.29746" lon="6.88158">
        <ele>1990</ele>
        <time>2019-08-20T08:12:45Z</time>
      </trkpt>
      <trkpt lat="44.29742" lon="6.88185">
        <ele>1993</ele>
        <time>2019-08-20T08:13:12Z</time>
      </trkpt>
      <trkpt lat="44.2974" lon="6.88203">
        <ele>1995</ele>
        <time>2019-08-20T08:13:29Z</time>
      </trkpt>
      <trkpt lat="44.2974" lon="6.8823">
        <ele>1999</ele>
        <time>2019-08-20T08:13:55Z</time>
      </trkpt>
      <trkpt lat="44.29742" lon="6.88238">
        <ele>2000</ele>
        <time>2019-08-20T08:14:03Z</time>
      </trkpt>
      <trkpt lat="44.29741" lon="6.88243">
        <ele>2001</ele>
        <time>2019-08-20T08:14:08Z</time>
      </trkpt>
      <trkpt lat="44.29737" lon="6.88245">
        <ele>2000</ele>
        <time>2019-08-20T08:14:13Z</time>
      </trkpt>
      <trkpt lat="44.29727" lon="6.88243">
        <ele>1997</ele>
        <time>2019-08-20T08:14:27Z</time>
      </trkpt>
      <trkpt lat="44.29708" lon="6.88235">
        <ele>1990</ele>
        <time>2019-08-20T08:14:53Z</time>
      </trkpt>
      <trkpt lat="44.2969" lon="6.88229">
        <ele>1983</ele>
        <time>2019-08-20T08:15:18Z</time>
      </trkpt>
      <trkpt lat="44.29688" lon="6.88229">
        <ele>1983</ele>
        <time>2019-08-20T08:15:21Z</time>
      </trkpt>
      <trkpt lat="44.29675" lon="6.8823">
        <ele>1979</ele>
        <time>2019-08-20T08:15:38Z</time>
      </trkpt>
      <trkpt lat="44.29665" lon="6.88237">
        <ele>1978</ele>
        <time>2019-08-20T08:15:53Z</time>
      </trkpt>
      <trkpt lat="44.29649" lon="6.88245">
        <ele>1973</ele>
        <time>2019-08-20T08:16:16Z</time>
      </trkpt>
      <trkpt lat="44.29636" lon="6.88256">
        <ele>1971</ele>
        <time>2019-08-20T08:16:36Z</time>
      </trkpt>
      <trkpt lat="44.2962" lon="6.88281">
        <ele>1973</ele>
        <time>2019-08-20T08:17:08Z</time>
      </trkpt>
      <trkpt lat="44.29608" lon="6.88308">
        <ele>1979</ele>
        <time>2019-08-20T08:17:38Z</time>
      </trkpt>
      <trkpt lat="44.29608" lon="6.88317">
        <ele>1983</ele>
        <time>2019-08-20T08:17:47Z</time>
      </trkpt>
      <trkpt lat="44.29606" lon="6.88321">
        <ele>1983</ele>
        <time>2019-08-20T08:17:52Z</time>
      </trkpt>
      <trkpt lat="44.29604" lon="6.88331">
        <ele>1987</ele>
        <time>2019-08-20T08:18:02Z</time>
      </trkpt>
      <trkpt lat="44.296" lon="6.88338">
        <ele>1987</ele>
        <time>2019-08-20T08:18:10Z</time>
      </trkpt>
      <trkpt lat="44.29593" lon="6.88343">
        <ele>1986</ele>
        <time>2019-08-20T08:18:21Z</time>
      </trkpt>
      <trkpt lat="44.29582" lon="6.88342">
        <ele>1981</ele>
        <time>2019-08-20T08:18:35Z</time>
      </trkpt>
      <trkpt lat="44.29575" lon="6.88335">
        <ele>1975</ele>
        <time>2019-08-20T08:18:47Z</time>
      </trkpt>
      <trkpt lat="44.29564" lon="6.88336">
        <ele>1969</ele>
        <time>2019-08-20T08:19:02Z</time>
      </trkpt>
      <trkpt lat="44.29551" lon="6.88342">
        <ele>1963</ele>
        <time>2019-08-20T08:19:20Z</time>
      </trkpt>
      <trkpt lat="44.29517" lon="6.88375">
        <ele>1954</ele>
        <time>2019-08-20T08:20:15Z</time>
      </trkpt>
      <trkpt lat="44.295" lon="6.8839">
        <ele>1950</ele>
        <time>2019-08-20T08:20:42Z</time>
      </trkpt>
      <trkpt lat="44.29488" lon="6.88406">
        <ele>1948</ele>
        <time>2019-08-20T08:21:04Z</time>
      </trkpt>
      <trkpt lat="44.29486" lon="6.88413">
        <ele>1949</ele>
        <time>2019-08-20T08:21:11Z</time>
      </trkpt>
      <trkpt lat="44.29484" lon="6.88421">
        <ele>1950</ele>
        <time>2019-08-20T08:21:19Z</time>
      </trkpt>
      <trkpt lat="44.29473" lon="6.8844">
        <ele>1950</ele>
        <time>2019-08-20T08:21:43Z</time>
      </trkpt>
      <trkpt lat="44.2947" lon="6.88449">
        <ele>1951</ele>
        <time>2019-08-20T08:21:52Z</time>
      </trkpt>
      <trkpt lat="44.2946" lon="6.88462">
        <ele>1949</ele>
        <time>2019-08-20T08:22:10Z</time>
      </trkpt>
      <trkpt lat="44.29458" lon="6.88469">
        <ele>1951</ele>
        <time>2019-08-20T08:22:18Z</time>
      </trkpt>
      <trkpt lat="44.2945" lon="6.88476">
        <ele>1949</ele>
        <time>2019-08-20T08:22:30Z</time>
      </trkpt>
      <trkpt lat="44.29437" lon="6.88484">
        <ele>1944</ele>
        <time>2019-08-20T08:22:49Z</time>
      </trkpt>
      <trkpt lat="44.29424" lon="6.88493">
        <ele>1940</ele>
        <time>2019-08-20T08:23:08Z</time>
      </trkpt>
      <trkpt lat="44.29412" lon="6.88505">
        <ele>1938</ele>
        <time>2019-08-20T08:23:28Z</time>
      </trkpt>
      <trkpt lat="44.29402" lon="6.88514">
        <ele>1934</ele>
        <time>2019-08-20T08:23:44Z</time>
      </trkpt>
      <trkpt lat="44.29396" lon="6.88514">
        <ele>1931</ele>
        <time>2019-08-20T08:23:52Z</time>
      </trkpt>
      <trkpt lat="44.29395" lon="6.88511">
        <ele>1930</ele>
        <time>2019-08-20T08:23:55Z</time>
      </trkpt>
      <trkpt lat="44.29389" lon="6.88513">
        <ele>1927</ele>
        <time>2019-08-20T08:24:03Z</time>
      </trkpt>
      <trkpt lat="44.2938" lon="6.88519">
        <ele>1924</ele>
        <time>2019-08-20T08:24:17Z</time>
      </trkpt>
      <trkpt lat="44.29369" lon="6.88522">
        <ele>1919</ele>
        <time>2019-08-20T08:24:32Z</time>
      </trkpt>
      <trkpt lat="44.2936" lon="6.88522">
        <ele>1914</ele>
        <time>2019-08-20T08:24:44Z</time>
      </trkpt>
      <trkpt lat="44.29351" lon="6.88525">
        <ele>1911</ele>
        <time>2019-08-20T08:24:56Z</time>
      </trkpt>
      <trkpt lat="44.29337" lon="6.88533">
        <ele>1905</ele>
        <time>2019-08-20T08:25:16Z</time>
      </trkpt>
      <trkpt lat="44.29325" lon="6.88537">
        <ele>1901</ele>
        <time>2019-08-20T08:25:33Z</time>
      </trkpt>
      <trkpt lat="44.29324" lon="6.88535">
        <ele>1900</ele>
        <time>2019-08-20T08:25:35Z</time>
      </trkpt>
      <trkpt lat="44.29329" lon="6.8853">
        <ele>1901</ele>
        <time>2019-08-20T08:25:43Z</time>
      </trkpt>
      <trkpt lat="44.29329" lon="6.88528">
        <ele>1901</ele>
        <time>2019-08-20T08:25:45Z</time>
      </trkpt>
      <trkpt lat="44.29317" lon="6.8853">
        <ele>1897</ele>
        <time>2019-08-20T08:26:01Z</time>
      </trkpt>
      <trkpt lat="44.29319" lon="6.88522">
        <ele>1896</ele>
        <time>2019-08-20T08:26:09Z</time>
      </trkpt>
      <trkpt lat="44.29327" lon="6.88516">
        <ele>1897</ele>
        <time>2019-08-20T08:26:21Z</time>
      </trkpt>
      <trkpt lat="44.29314" lon="6.88511">
        <ele>1891</ele>
        <time>2019-08-20T08:26:39Z</time>
      </trkpt>
      <trkpt lat="44.29303" lon="6.88517">
        <ele>1889</ele>
        <time>2019-08-20T08:26:55Z</time>
      </trkpt>
      <trkpt lat="44.29282" lon="6.88518">
        <ele>1881</ele>
        <time>2019-08-20T08:27:23Z</time>
      </trkpt>
      <trkpt lat="44.29265" lon="6.88512">
        <ele>1874</ele>
        <time>2019-08-20T08:27:47Z</time>
      </trkpt>
      <trkpt lat="44.29259" lon="6.88512">
        <ele>1872</ele>
        <time>2019-08-20T08:27:55Z</time>
      </trkpt>
      <trkpt lat="44.29249" lon="6.88509">
        <ele>1867</ele>
        <time>2019-08-20T08:28:08Z</time>
      </trkpt>
      <trkpt lat="44.2924" lon="6.88512">
        <ele>1864</ele>
        <time>2019-08-20T08:28:21Z</time>
      </trkpt>
      <trkpt lat="44.29238" lon="6.88511">
        <ele>1864</ele>
        <time>2019-08-20T08:28:24Z</time>
      </trkpt>
      <trkpt lat="44.29228" lon="6.8851">
        <ele>1860</ele>
        <time>2019-08-20T08:28:37Z</time>
      </trkpt>
      <trkpt lat="44.29229" lon="6.88508">
        <ele>1860</ele>
        <time>2019-08-20T08:28:39Z</time>
      </trkpt>
      <trkpt lat="44.2924" lon="6.88501">
        <ele>1863</ele>
        <time>2019-08-20T08:28:55Z</time>
      </trkpt>
      <trkpt lat="44.29268" lon="6.88484">
        <ele>1865</ele>
        <time>2019-08-20T08:29:36Z</time>
      </trkpt>
      <trkpt lat="44.2928" lon="6.88473">
        <ele>1864</ele>
        <time>2019-08-20T08:29:55Z</time>
      </trkpt>
      <trkpt lat="44.29296" lon="6.88453">
        <ele>1861</ele>
        <time>2019-08-20T08:30:24Z</time>
      </trkpt>
      <trkpt lat="44.29311" lon="6.88441">
        <ele>1862</ele>
        <time>2019-08-20T08:30:47Z</time>
      </trkpt>
      <trkpt lat="44.2932" lon="6.88428">
        <ele>1860</ele>
        <time>2019-08-20T08:31:04Z</time>
      </trkpt>
      <trkpt lat="44.29334" lon="6.88403">
        <ele>1855</ele>
        <time>2019-08-20T08:31:35Z</time>
      </trkpt>
      <trkpt lat="44.29346" lon="6.88391">
        <ele>1857</ele>
        <time>2019-08-20T08:31:54Z</time>
      </trkpt>
      <trkpt lat="44.29362" lon="6.88365">
        <ele>1855</ele>
        <time>2019-08-20T08:32:27Z</time>
      </trkpt>
      <trkpt lat="44.29366" lon="6.88359">
        <ele>1855</ele>
        <time>2019-08-20T08:32:35Z</time>
      </trkpt>
      <trkpt lat="44.29371" lon="6.88357">
        <ele>1857</ele>
        <time>2019-08-20T08:32:42Z</time>
      </trkpt>
      <trkpt lat="44.29376" lon="6.88353">
        <ele>1858</ele>
        <time>2019-08-20T08:32:49Z</time>
      </trkpt>
      <trkpt lat="44.29376" lon="6.88351">
        <ele>1857</ele>
        <time>2019-08-20T08:32:51Z</time>
      </trkpt>
      <trkpt lat="44.29383" lon="6.88328">
        <ele>1853</ele>
        <time>2019-08-20T08:33:15Z</time>
      </trkpt>
      <trkpt lat="44.29382" lon="6.88313">
        <ele>1847</ele>
        <time>2019-08-20T08:33:30Z</time>
      </trkpt>
      <trkpt lat="44.29382" lon="6.88291">
        <ele>1840</ele>
        <time>2019-08-20T08:33:51Z</time>
      </trkpt>
      <trkpt lat="44.29381" lon="6.88272">
        <ele>1834</ele>
        <time>2019-08-20T08:34:09Z</time>
      </trkpt>
      <trkpt lat="44.29383" lon="6.88252">
        <ele>1829</ele>
        <time>2019-08-20T08:34:28Z</time>
      </trkpt>
      <trkpt lat="44.29388" lon="6.8823">
        <ele>1824</ele>
        <time>2019-08-20T08:34:50Z</time>
      </trkpt>
      <trkpt lat="44.29395" lon="6.88212">
        <ele>1821</ele>
        <time>2019-08-20T08:35:10Z</time>
      </trkpt>
      <trkpt lat="44.29399" lon="6.88195">
        <ele>1817</ele>
        <time>2019-08-20T08:35:27Z</time>
      </trkpt>
      <trkpt lat="44.29405" lon="6.88187">
        <ele>1818</ele>
        <time>2019-08-20T08:35:38Z</time>
      </trkpt>
      <trkpt lat="44.29408" lon="6.88171">
        <ele>1814</ele>
        <time>2019-08-20T08:35:54Z</time>
      </trkpt>
      <trkpt lat="44.29411" lon="6.88165">
        <ele>1813</ele>
        <time>2019-08-20T08:36:01Z</time>
      </trkpt>
      <trkpt lat="44.2942" lon="6.88162">
        <ele>1817</ele>
        <time>2019-08-20T08:36:13Z</time>
      </trkpt>
      <trkpt lat="44.29424" lon="6.8816">
        <ele>1819</ele>
        <time>2019-08-20T08:36:19Z</time>
      </trkpt>
      <trkpt lat="44.29424" lon="6.88159">
        <ele>1818</ele>
        <time>2019-08-20T08:36:20Z</time>
      </trkpt>
      <trkpt lat="44.29425" lon="6.88155">
        <ele>1817</ele>
        <time>2019-08-20T08:36:24Z</time>
      </trkpt>
      <trkpt lat="44.29419" lon="6.88142">
        <ele>1809</ele>
        <time>2019-08-20T08:36:38Z</time>
      </trkpt>
      <trkpt lat="44.29412" lon="6.88125">
        <ele>1799</ele>
        <time>2019-08-20T08:36:57Z</time>
      </trkpt>
      <trkpt lat="44.29409" lon="6.88115">
        <ele>1794</ele>
        <time>2019-08-20T08:37:08Z</time>
      </trkpt>
      <trkpt lat="44.29408" lon="6.88084">
        <ele>1783</ele>
        <time>2019-08-20T08:37:37Z</time>
      </trkpt>
      <trkpt lat="44.29418" lon="6.8806">
        <ele>1780</ele>
        <time>2019-08-20T08:38:04Z</time>
      </trkpt>
      <trkpt lat="44.29418" lon="6.88045">
        <ele>1776</ele>
        <time>2019-08-20T08:38:18Z</time>
      </trkpt>
      <trkpt lat="44.29421" lon="6.88039">
        <ele>1776</ele>
        <time>2019-08-20T08:38:25Z</time>
      </trkpt>
      <trkpt lat="44.2943" lon="6.88035">
        <ele>1781</ele>
        <time>2019-08-20T08:38:38Z</time>
      </trkpt>
      <trkpt lat="44.29443" lon="6.88032">
        <ele>1790</ele>
        <time>2019-08-20T08:38:55Z</time>
      </trkpt>
      <trkpt lat="44.29451" lon="6.88025">
        <ele>1794</ele>
        <time>2019-08-20T08:39:08Z</time>
      </trkpt>
      <trkpt lat="44.29459" lon="6.88011">
        <ele>1797</ele>
        <time>2019-08-20T08:39:25Z</time>
      </trkpt>
      <trkpt lat="44.29459" lon="6.88008">
        <ele>1796</ele>
        <time>2019-08-20T08:39:28Z</time>
      </trkpt>
      <trkpt lat="44.2946" lon="6.88004">
        <ele>1797</ele>
        <time>2019-08-20T08:39:32Z</time>
      </trkpt>
      <trkpt lat="44.29453" lon="6.8799">
        <ele>1789</ele>
        <time>2019-08-20T08:39:48Z</time>
      </trkpt>
      <trkpt lat="44.29447" lon="6.87977">
        <ele>1783</ele>
        <time>2019-08-20T08:40:03Z</time>
      </trkpt>
      <trkpt lat="44.29444" lon="6.87945">
        <ele>1777</ele>
        <time>2019-08-20T08:40:34Z</time>
      </trkpt>
      <trkpt lat="44.29442" lon="6.87935">
        <ele>1774</ele>
        <time>2019-08-20T08:40:44Z</time>
      </trkpt>
      <trkpt lat="44.29434" lon="6.87931">
        <ele>1767</ele>
        <time>2019-08-20T08:40:55Z</time>
      </trkpt>
      <trkpt lat="44.29428" lon="6.87915">
        <ele>1761</ele>
        <time>2019-08-20T08:41:12Z</time>
      </trkpt>
      <trkpt lat="44.29422" lon="6.87906">
        <ele>1755</ele>
        <time>2019-08-20T08:41:24Z</time>
      </trkpt>
      <trkpt lat="44.29414" lon="6.87898">
        <ele>1748</ele>
        <time>2019-08-20T08:41:37Z</time>
      </trkpt>
      <trkpt lat="44.29411" lon="6.8789">
        <ele>1745</ele>
        <time>2019-08-20T08:41:46Z</time>
      </trkpt>
      <trkpt lat="44.2941" lon="6.87879">
        <ele>1743</ele>
        <time>2019-08-20T08:41:56Z</time>
      </trkpt>
      <trkpt lat="44.29426" lon="6.87856">
        <ele>1748</ele>
        <time>2019-08-20T08:42:27Z</time>
      </trkpt>
      <trkpt lat="44.29448" lon="6.87828">
        <ele>1757</ele>
        <time>2019-08-20T08:43:07Z</time>
      </trkpt>
      <trkpt lat="44.29457" lon="6.87821">
        <ele>1762</ele>
        <time>2019-08-20T08:43:20Z</time>
      </trkpt>
      <trkpt lat="44.29463" lon="6.87818">
        <ele>1765</ele>
        <time>2019-08-20T08:43:29Z</time>
      </trkpt>
      <trkpt lat="44.29465" lon="6.87813">
        <ele>1765</ele>
        <time>2019-08-20T08:43:34Z</time>
      </trkpt>
      <trkpt lat="44.29466" lon="6.8781">
        <ele>1765</ele>
        <time>2019-08-20T08:43:38Z</time>
      </trkpt>
      <trkpt lat="44.29465" lon="6.87799">
        <ele>1762</ele>
        <time>2019-08-20T08:43:48Z</time>
      </trkpt>
      <trkpt lat="44.29468" lon="6.87784">
        <ele>1760</ele>
        <time>2019-08-20T08:44:03Z</time>
      </trkpt>
      <trkpt lat="44.29475" lon="6.87775">
        <ele>1761</ele>
        <time>2019-08-20T08:44:16Z</time>
      </trkpt>
      <trkpt lat="44.29477" lon="6.87767">
        <ele>1760</ele>
        <time>2019-08-20T08:44:24Z</time>
      </trkpt>
      <trkpt lat="44.29474" lon="6.87757">
        <ele>1757</ele>
        <time>2019-08-20T08:44:34Z</time>
      </trkpt>
      <trkpt lat="44.29481" lon="6.87742">
        <ele>1758</ele>
        <time>2019-08-20T08:44:51Z</time>
      </trkpt>
      <trkpt lat="44.29482" lon="6.8774">
        <ele>1758</ele>
        <time>2019-08-20T08:44:54Z</time>
      </trkpt>
      <trkpt lat="44.2948" lon="6.87733">
        <ele>1759</ele>
        <time>2019-08-20T08:45:01Z</time>
      </trkpt>
      <trkpt lat="44.2948" lon="6.87714">
        <ele>1761</ele>
        <time>2019-08-20T08:45:19Z</time>
      </trkpt>
      <trkpt lat="44.29477" lon="6.877">
        <ele>1762</ele>
        <time>2019-08-20T08:45:33Z</time>
      </trkpt>
      <trkpt lat="44.29473" lon="6.87694">
        <ele>1762</ele>
        <time>2019-08-20T08:45:41Z</time>
      </trkpt>
      <trkpt lat="44.29469" lon="6.87694">
        <ele>1762</ele>
        <time>2019-08-20T08:45:46Z</time>
      </trkpt>
      <trkpt lat="44.29466" lon="6.87699">
        <ele>1761</ele>
        <time>2019-08-20T08:45:52Z</time>
      </trkpt>
      <trkpt lat="44.29464" lon="6.87704">
        <ele>1760</ele>
        <time>2019-08-20T08:45:58Z</time>
      </trkpt>
      <trkpt lat="44.2946" lon="6.8771">
        <ele>1758</ele>
        <time>2019-08-20T08:46:06Z</time>
      </trkpt>
      <trkpt lat="44.29447" lon="6.87721">
        <ele>1753</ele>
        <time>2019-08-20T08:46:26Z</time>
      </trkpt>
      <trkpt lat="44.2943" lon="6.87731">
        <ele>1747</ele>
        <time>2019-08-20T08:46:51Z</time>
      </trkpt>
      <trkpt lat="44.29413" lon="6.87745">
        <ele>1739</ele>
        <time>2019-08-20T08:47:17Z</time>
      </trkpt>
      <trkpt lat="44.29408" lon="6.87749">
        <ele>1738</ele>
        <time>2019-08-20T08:47:25Z</time>
      </trkpt>
      <trkpt lat="44.29403" lon="6.87752">
        <ele>1737</ele>
        <time>2019-08-20T08:47:32Z</time>
      </trkpt>
      <trkpt lat="44.29397" lon="6.87757">
        <ele>1737</ele>
        <time>2019-08-20T08:47:41Z</time>
      </trkpt>
      <trkpt lat="44.29388" lon="6.8776">
        <ele>1737</ele>
        <time>2019-08-20T08:47:54Z</time>
      </trkpt>
      <trkpt lat="44.29383" lon="6.87761">
        <ele>1737</ele>
        <time>2019-08-20T08:48:00Z</time>
      </trkpt>
      <trkpt lat="44.29369" lon="6.87768">
        <ele>1735</ele>
        <time>2019-08-20T08:48:20Z</time>
      </trkpt>
      <trkpt lat="44.29365" lon="6.8777">
        <ele>1735</ele>
        <time>2019-08-20T08:48:26Z</time>
      </trkpt>
      <trkpt lat="44.29358" lon="6.87771">
        <ele>1734</ele>
        <time>2019-08-20T08:48:35Z</time>
      </trkpt>
      <trkpt lat="44.29356" lon="6.87771">
        <ele>1734</ele>
        <time>2019-08-20T08:48:38Z</time>
      </trkpt>
      <trkpt lat="44.29349" lon="6.87767">
        <ele>1735</ele>
        <time>2019-08-20T08:48:48Z</time>
      </trkpt>
      <trkpt lat="44.29346" lon="6.87766">
        <ele>1735</ele>
        <time>2019-08-20T08:48:52Z</time>
      </trkpt>
      <trkpt lat="44.29343" lon="6.87766">
        <ele>1735</ele>
        <time>2019-08-20T08:48:56Z</time>
      </trkpt>
      <trkpt lat="44.29341" lon="6.87767">
        <ele>1735</ele>
        <time>2019-08-20T08:48:59Z</time>
      </trkpt>
      <trkpt lat="44.29338" lon="6.87768">
        <ele>1734</ele>
        <time>2019-08-20T08:49:03Z</time>
      </trkpt>
      <trkpt lat="44.29334" lon="6.87767">
        <ele>1734</ele>
        <time>2019-08-20T08:49:08Z</time>
      </trkpt>
      <trkpt lat="44.29331" lon="6.87765">
        <ele>1735</ele>
        <time>2019-08-20T08:49:13Z</time>
      </trkpt>
      <trkpt lat="44.2933" lon="6.87764">
        <ele>1735</ele>
        <time>2019-08-20T08:49:15Z</time>
      </trkpt>
      <trkpt lat="44.29322" lon="6.87765">
        <ele>1733</ele>
        <time>2019-08-20T08:49:25Z</time>
      </trkpt>
      <trkpt lat="44.29319" lon="6.87765">
        <ele>1733</ele>
        <time>2019-08-20T08:49:29Z</time>
      </trkpt>
      <trkpt lat="44.29316" lon="6.87766">
        <ele>1732</ele>
        <time>2019-08-20T08:49:33Z</time>
      </trkpt>
      <trkpt lat="44.29313" lon="6.87768">
        <ele>1731</ele>
        <time>2019-08-20T08:49:38Z</time>
      </trkpt>
      <trkpt lat="44.29293" lon="6.8779">
        <ele>1720</ele>
        <time>2019-08-20T08:50:12Z</time>
      </trkpt>
      <trkpt lat="44.29291" lon="6.87792">
        <ele>1719</ele>
        <time>2019-08-20T08:50:15Z</time>
      </trkpt>
      <trkpt lat="44.29289" lon="6.87792">
        <ele>1719</ele>
        <time>2019-08-20T08:50:18Z</time>
      </trkpt>
      <trkpt lat="44.29283" lon="6.87792">
        <ele>1718</ele>
        <time>2019-08-20T08:50:26Z</time>
      </trkpt>
      <trkpt lat="44.29268" lon="6.8779">
        <ele>1716</ele>
        <time>2019-08-20T08:50:46Z</time>
      </trkpt>
      <trkpt lat="44.29263" lon="6.8779">
        <ele>1715</ele>
        <time>2019-08-20T08:50:52Z</time>
      </trkpt>
      <trkpt lat="44.2926" lon="6.87788">
        <ele>1716</ele>
        <time>2019-08-20T08:50:57Z</time>
      </trkpt>
      <trkpt lat="44.29258" lon="6.87786">
        <ele>1716</ele>
        <time>2019-08-20T08:51:00Z</time>
      </trkpt>
      <trkpt lat="44.2925" lon="6.87785">
        <ele>1715</ele>
        <time>2019-08-20T08:51:11Z</time>
      </trkpt>
      <trkpt lat="44.29246" lon="6.87785">
        <ele>1715</ele>
        <time>2019-08-20T08:51:16Z</time>
      </trkpt>
      <trkpt lat="44.29243" lon="6.87783">
        <ele>1715</ele>
        <time>2019-08-20T08:51:21Z</time>
      </trkpt>
      <trkpt lat="44.2924" lon="6.87781">
        <ele>1716</ele>
        <time>2019-08-20T08:51:25Z</time>
      </trkpt>
      <trkpt lat="44.29231" lon="6.87778">
        <ele>1715</ele>
        <time>2019-08-20T08:51:37Z</time>
      </trkpt>
      <trkpt lat="44.29227" lon="6.87777">
        <ele>1715</ele>
        <time>2019-08-20T08:51:43Z</time>
      </trkpt>
      <trkpt lat="44.29221" lon="6.87778">
        <ele>1714</ele>
        <time>2019-08-20T08:51:51Z</time>
      </trkpt>
      <trkpt lat="44.29208" lon="6.87782">
        <ele>1711</ele>
        <time>2019-08-20T08:52:09Z</time>
      </trkpt>
      <trkpt lat="44.292" lon="6.87785">
        <ele>1708</ele>
        <time>2019-08-20T08:52:20Z</time>
      </trkpt>
      <trkpt lat="44.29191" lon="6.87791">
        <ele>1705</ele>
        <time>2019-08-20T08:52:33Z</time>
      </trkpt>
      <trkpt lat="44.29186" lon="6.87793">
        <ele>1704</ele>
        <time>2019-08-20T08:52:40Z</time>
      </trkpt>
      <trkpt lat="44.29179" lon="6.87794">
        <ele>1703</ele>
        <time>2019-08-20T08:52:49Z</time>
      </trkpt>
      <trkpt lat="44.29172" lon="6.87795">
        <ele>1702</ele>
        <time>2019-08-20T08:52:59Z</time>
      </trkpt>
      <trkpt lat="44.29161" lon="6.87795">
        <ele>1699</ele>
        <time>2019-08-20T08:53:13Z</time>
      </trkpt>
      <trkpt lat="44.29159" lon="6.87795">
        <ele>1699</ele>
        <time>2019-08-20T08:53:16Z</time>
      </trkpt>
      <trkpt lat="44.29157" lon="6.87793">
        <ele>1699</ele>
        <time>2019-08-20T08:53:19Z</time>
      </trkpt>
      <trkpt lat="44.29154" lon="6.87782">
        <ele>1701</ele>
        <time>2019-08-20T08:53:31Z</time>
      </trkpt>
      <trkpt lat="44.29152" lon="6.87779">
        <ele>1701</ele>
        <time>2019-08-20T08:53:35Z</time>
      </trkpt>
      <trkpt lat="44.29149" lon="6.87778">
        <ele>1700</ele>
        <time>2019-08-20T08:53:39Z</time>
      </trkpt>
      <trkpt lat="44.29141" lon="6.8777">
        <ele>1700</ele>
        <time>2019-08-20T08:53:52Z</time>
      </trkpt>
      <trkpt lat="44.29139" lon="6.87767">
        <ele>1700</ele>
        <time>2019-08-20T08:53:56Z</time>
      </trkpt>
      <trkpt lat="44.29124" lon="6.87757">
        <ele>1698</ele>
        <time>2019-08-20T08:54:18Z</time>
      </trkpt>
      <trkpt lat="44.2912" lon="6.87753">
        <ele>1698</ele>
        <time>2019-08-20T08:54:25Z</time>
      </trkpt>
      <trkpt lat="44.29117" lon="6.87748">
        <ele>1698</ele>
        <time>2019-08-20T08:54:31Z</time>
      </trkpt>
      <trkpt lat="44.29112" lon="6.87742">
        <ele>1699</ele>
        <time>2019-08-20T08:54:40Z</time>
      </trkpt>
      <trkpt lat="44.29108" lon="6.87736">
        <ele>1700</ele>
        <time>2019-08-20T08:54:47Z</time>
      </trkpt>
      <trkpt lat="44.29105" lon="6.87731">
        <ele>1700</ele>
        <time>2019-08-20T08:54:54Z</time>
      </trkpt>
      <trkpt lat="44.29103" lon="6.87726">
        <ele>1702</ele>
        <time>2019-08-20T08:54:59Z</time>
      </trkpt>
      <trkpt lat="44.291" lon="6.87722">
        <ele>1702</ele>
        <time>2019-08-20T08:55:05Z</time>
      </trkpt>
      <trkpt lat="44.29098" lon="6.87719">
        <ele>1702</ele>
        <time>2019-08-20T08:55:09Z</time>
      </trkpt>
      <trkpt lat="44.29094" lon="6.87717">
        <ele>1702</ele>
        <time>2019-08-20T08:55:14Z</time>
      </trkpt>
      <trkpt lat="44.29091" lon="6.87717">
        <ele>1701</ele>
        <time>2019-08-20T08:55:18Z</time>
      </trkpt>
      <trkpt lat="44.29086" lon="6.87717">
        <ele>1699</ele>
        <time>2019-08-20T08:55:25Z</time>
      </trkpt>
      <trkpt lat="44.29083" lon="6.87715">
        <ele>1699</ele>
        <time>2019-08-20T08:55:29Z</time>
      </trkpt>
      <trkpt lat="44.29078" lon="6.87713">
        <ele>1698</ele>
        <time>2019-08-20T08:55:36Z</time>
      </trkpt>
      <trkpt lat="44.29067" lon="6.87712">
        <ele>1695</ele>
        <time>2019-08-20T08:55:51Z</time>
      </trkpt>
      <trkpt lat="44.29061" lon="6.8771">
        <ele>1694</ele>
        <time>2019-08-20T08:55:59Z</time>
      </trkpt>
      <trkpt lat="44.29048" lon="6.87699">
        <ele>1694</ele>
        <time>2019-08-20T08:56:19Z</time>
      </trkpt>
      <trkpt lat="44.29039" lon="6.87693">
        <ele>1693</ele>
        <time>2019-08-20T08:56:33Z</time>
      </trkpt>
      <trkpt lat="44.29014" lon="6.8768">
        <ele>1689</ele>
        <time>2019-08-20T08:57:08Z</time>
      </trkpt>
      <trkpt lat="44.29011" lon="6.87678">
        <ele>1688</ele>
        <time>2019-08-20T08:57:13Z</time>
      </trkpt>
      <trkpt lat="44.29009" lon="6.87676">
        <ele>1688</ele>
        <time>2019-08-20T08:57:16Z</time>
      </trkpt>
      <trkpt lat="44.29008" lon="6.87673">
        <ele>1688</ele>
        <time>2019-08-20T08:57:19Z</time>
      </trkpt>
      <trkpt lat="44.29008" lon="6.87668">
        <ele>1689</ele>
        <time>2019-08-20T08:57:24Z</time>
      </trkpt>
      <trkpt lat="44.29007" lon="6.87665">
        <ele>1690</ele>
        <time>2019-08-20T08:57:27Z</time>
      </trkpt>
      <trkpt lat="44.29002" lon="6.87658">
        <ele>1689</ele>
        <time>2019-08-20T08:57:37Z</time>
      </trkpt>
      <trkpt lat="44.29001" lon="6.87656">
        <ele>1690</ele>
        <time>2019-08-20T08:57:39Z</time>
      </trkpt>
      <trkpt lat="44.29" lon="6.87651">
        <ele>1690</ele>
        <time>2019-08-20T08:57:44Z</time>
      </trkpt>
      <trkpt lat="44.28999" lon="6.87647">
        <ele>1690</ele>
        <time>2019-08-20T08:57:48Z</time>
      </trkpt>
      <trkpt lat="44.28992" lon="6.87631">
        <ele>1690</ele>
        <time>2019-08-20T08:58:06Z</time>
      </trkpt>
      <trkpt lat="44.28991" lon="6.87629">
        <ele>1690</ele>
        <time>2019-08-20T08:58:08Z</time>
      </trkpt>
      <trkpt lat="44.28987" lon="6.87626">
        <ele>1689</ele>
        <time>2019-08-20T08:58:14Z</time>
      </trkpt>
      <trkpt lat="44.28985" lon="6.87624">
        <ele>1688</ele>
        <time>2019-08-20T08:58:18Z</time>
      </trkpt>
      <trkpt lat="44.28982" lon="6.87624">
        <ele>1686</ele>
        <time>2019-08-20T08:58:22Z</time>
      </trkpt>
      <trkpt lat="44.2898" lon="6.87624">
        <ele>1685</ele>
        <time>2019-08-20T08:58:24Z</time>
      </trkpt>
      <trkpt lat="44.28977" lon="6.8762">
        <ele>1685</ele>
        <time>2019-08-20T08:58:30Z</time>
      </trkpt>
      <trkpt lat="44.28976" lon="6.87618">
        <ele>1684</ele>
        <time>2019-08-20T08:58:32Z</time>
      </trkpt>
      <trkpt lat="44.2897" lon="6.87614">
        <ele>1682</ele>
        <time>2019-08-20T08:58:41Z</time>
      </trkpt>
      <trkpt lat="44.28968" lon="6.87612">
        <ele>1682</ele>
        <time>2019-08-20T08:58:44Z</time>
      </trkpt>
      <trkpt lat="44.28967" lon="6.8761">
        <ele>1682</ele>
        <time>2019-08-20T08:58:47Z</time>
      </trkpt>
      <trkpt lat="44.28966" lon="6.87607">
        <ele>1682</ele>
        <time>2019-08-20T08:58:50Z</time>
      </trkpt>
      <trkpt lat="44.28957" lon="6.87598">
        <ele>1679</ele>
        <time>2019-08-20T08:59:04Z</time>
      </trkpt>
      <trkpt lat="44.28956" lon="6.87596">
        <ele>1679</ele>
        <time>2019-08-20T08:59:07Z</time>
      </trkpt>
      <trkpt lat="44.28948" lon="6.8759">
        <ele>1676</ele>
        <time>2019-08-20T08:59:19Z</time>
      </trkpt>
      <trkpt lat="44.28945" lon="6.87587">
        <ele>1675</ele>
        <time>2019-08-20T08:59:24Z</time>
      </trkpt>
      <trkpt lat="44.28943" lon="6.87584">
        <ele>1675</ele>
        <time>2019-08-20T08:59:28Z</time>
      </trkpt>
      <trkpt lat="44.28943" lon="6.87582">
        <ele>1676</ele>
        <time>2019-08-20T08:59:30Z</time>
      </trkpt>
      <trkpt lat="44.28941" lon="6.87577">
        <ele>1676</ele>
        <time>2019-08-20T08:59:35Z</time>
      </trkpt>
      <trkpt lat="44.28941" lon="6.87575">
        <ele>1677</ele>
        <time>2019-08-20T08:59:37Z</time>
      </trkpt>
      <trkpt lat="44.28937" lon="6.87572">
        <ele>1676</ele>
        <time>2019-08-20T08:59:43Z</time>
      </trkpt>
      <trkpt lat="44.28934" lon="6.87571">
        <ele>1675</ele>
        <time>2019-08-20T08:59:47Z</time>
      </trkpt>
      <trkpt lat="44.28932" lon="6.87567">
        <ele>1675</ele>
        <time>2019-08-20T08:59:52Z</time>
      </trkpt>
      <trkpt lat="44.28929" lon="6.87564">
        <ele>1675</ele>
        <time>2019-08-20T08:59:57Z</time>
      </trkpt>
      <trkpt lat="44.28927" lon="6.87559">
        <ele>1675</ele>
        <time>2019-08-20T09:00:02Z</time>
      </trkpt>
      <trkpt lat="44.28924" lon="6.87555">
        <ele>1675</ele>
        <time>2019-08-20T09:00:08Z</time>
      </trkpt>
      <trkpt lat="44.28921" lon="6.87551">
        <ele>1675</ele>
        <time>2019-08-20T09:00:13Z</time>
      </trkpt>
      <trkpt lat="44.28907" lon="6.87537">
        <ele>1672</ele>
        <time>2019-08-20T09:00:36Z</time>
      </trkpt>
      <trkpt lat="44.28901" lon="6.87531">
        <ele>1671</ele>
        <time>2019-08-20T09:00:46Z</time>
      </trkpt>
      <trkpt lat="44.28895" lon="6.87524">
        <ele>1670</ele>
        <time>2019-08-20T09:00:57Z</time>
      </trkpt>
      <trkpt lat="44.28889" lon="6.87519">
        <ele>1669</ele>
        <time>2019-08-20T09:01:06Z</time>
      </trkpt>
      <trkpt lat="44.28883" lon="6.87515">
        <ele>1667</ele>
        <time>2019-08-20T09:01:15Z</time>
      </trkpt>
      <trkpt lat="44.28878" lon="6.8751">
        <ele>1666</ele>
        <time>2019-08-20T09:01:23Z</time>
      </trkpt>
      <trkpt lat="44.2887" lon="6.87505">
        <ele>1664</ele>
        <time>2019-08-20T09:01:35Z</time>
      </trkpt>
      <trkpt lat="44.28855" lon="6.87491">
        <ele>1663</ele>
        <time>2019-08-20T09:01:59Z</time>
      </trkpt>
      <trkpt lat="44.28849" lon="6.87486">
        <ele>1663</ele>
        <time>2019-08-20T09:02:08Z</time>
      </trkpt>
      <trkpt lat="44.28842" lon="6.87482">
        <ele>1661</ele>
        <time>2019-08-20T09:02:18Z</time>
      </trkpt>
      <trkpt lat="44.28839" lon="6.8748">
        <ele>1661</ele>
        <time>2019-08-20T09:02:23Z</time>
      </trkpt>
      <trkpt lat="44.28832" lon="6.87477">
        <ele>1659</ele>
        <time>2019-08-20T09:02:32Z</time>
      </trkpt>
      <trkpt lat="44.28829" lon="6.87475">
        <ele>1659</ele>
        <time>2019-08-20T09:02:37Z</time>
      </trkpt>
      <trkpt lat="44.28826" lon="6.87472">
        <ele>1659</ele>
        <time>2019-08-20T09:02:42Z</time>
      </trkpt>
      <trkpt lat="44.28825" lon="6.87469">
        <ele>1660</ele>
        <time>2019-08-20T09:02:45Z</time>
      </trkpt>
      <trkpt lat="44.28823" lon="6.87464">
        <ele>1662</ele>
        <time>2019-08-20T09:02:50Z</time>
      </trkpt>
      <trkpt lat="44.28816" lon="6.87457">
        <ele>1662</ele>
        <time>2019-08-20T09:03:02Z</time>
      </trkpt>
      <trkpt lat="44.28813" lon="6.87454">
        <ele>1662</ele>
        <time>2019-08-20T09:03:07Z</time>
      </trkpt>
      <trkpt lat="44.28804" lon="6.87449">
        <ele>1659</ele>
        <time>2019-08-20T09:03:20Z</time>
      </trkpt>
      <trkpt lat="44.28798" lon="6.87446">
        <ele>1657</ele>
        <time>2019-08-20T09:03:28Z</time>
      </trkpt>
      <trkpt lat="44.28792" lon="6.87444">
        <ele>1655</ele>
        <time>2019-08-20T09:03:36Z</time>
      </trkpt>
      <trkpt lat="44.28789" lon="6.87442">
        <ele>1654</ele>
        <time>2019-08-20T09:03:41Z</time>
      </trkpt>
      <trkpt lat="44.28775" lon="6.87436">
        <ele>1649</ele>
        <time>2019-08-20T09:04:00Z</time>
      </trkpt>
      <trkpt lat="44.2877" lon="6.87434">
        <ele>1647</ele>
        <time>2019-08-20T09:04:07Z</time>
      </trkpt>
      <trkpt lat="44.28766" lon="6.87432">
        <ele>1646</ele>
        <time>2019-08-20T09:04:13Z</time>
      </trkpt>
      <trkpt lat="44.28761" lon="6.87429">
        <ele>1645</ele>
        <time>2019-08-20T09:04:20Z</time>
      </trkpt>
      <trkpt lat="44.28759" lon="6.87427">
        <ele>1644</ele>
        <time>2019-08-20T09:04:24Z</time>
      </trkpt>
      <trkpt lat="44.28757" lon="6.87426">
        <ele>1644</ele>
        <time>2019-08-20T09:04:26Z</time>
      </trkpt>
      <trkpt lat="44.28755" lon="6.87419">
        <ele>1646</ele>
        <time>2019-08-20T09:04:34Z</time>
      </trkpt>
      <trkpt lat="44.28753" lon="6.87413">
        <ele>1647</ele>
        <time>2019-08-20T09:04:40Z</time>
      </trkpt>
      <trkpt lat="44.2875" lon="6.87409">
        <ele>1646</ele>
        <time>2019-08-20T09:04:46Z</time>
      </trkpt>
      <trkpt lat="44.28747" lon="6.87405">
        <ele>1645</ele>
        <time>2019-08-20T09:04:51Z</time>
      </trkpt>
      <trkpt lat="44.28744" lon="6.87403">
        <ele>1644</ele>
        <time>2019-08-20T09:04:55Z</time>
      </trkpt>
      <trkpt lat="44.28742" lon="6.87401">
        <ele>1643</ele>
        <time>2019-08-20T09:04:59Z</time>
      </trkpt>
      <trkpt lat="44.2874" lon="6.87397">
        <ele>1643</ele>
        <time>2019-08-20T09:05:03Z</time>
      </trkpt>
      <trkpt lat="44.28738" lon="6.87393">
        <ele>1642</ele>
        <time>2019-08-20T09:05:08Z</time>
      </trkpt>
      <trkpt lat="44.28733" lon="6.87376">
        <ele>1644</ele>
        <time>2019-08-20T09:05:26Z</time>
      </trkpt>
      <trkpt lat="44.28732" lon="6.87373">
        <ele>1644</ele>
        <time>2019-08-20T09:05:29Z</time>
      </trkpt>
      <trkpt lat="44.28729" lon="6.8737">
        <ele>1643</ele>
        <time>2019-08-20T09:05:34Z</time>
      </trkpt>
      <trkpt lat="44.28727" lon="6.87367">
        <ele>1642</ele>
        <time>2019-08-20T09:05:38Z</time>
      </trkpt>
      <trkpt lat="44.28726" lon="6.87361">
        <ele>1643</ele>
        <time>2019-08-20T09:05:44Z</time>
      </trkpt>
      <trkpt lat="44.28724" lon="6.87357">
        <ele>1643</ele>
        <time>2019-08-20T09:05:48Z</time>
      </trkpt>
      <trkpt lat="44.28721" lon="6.87354">
        <ele>1642</ele>
        <time>2019-08-20T09:05:53Z</time>
      </trkpt>
      <trkpt lat="44.28712" lon="6.87341">
        <ele>1639</ele>
        <time>2019-08-20T09:06:10Z</time>
      </trkpt>
      <trkpt lat="44.2871" lon="6.87338">
        <ele>1638</ele>
        <time>2019-08-20T09:06:14Z</time>
      </trkpt>
      <trkpt lat="44.28706" lon="6.87336">
        <ele>1636</ele>
        <time>2019-08-20T09:06:20Z</time>
      </trkpt>
      <trkpt lat="44.28704" lon="6.87334">
        <ele>1635</ele>
        <time>2019-08-20T09:06:23Z</time>
      </trkpt>
      <trkpt lat="44.28701" lon="6.87324">
        <ele>1633</ele>
        <time>2019-08-20T09:06:34Z</time>
      </trkpt>
      <trkpt lat="44.287" lon="6.87322">
        <ele>1632</ele>
        <time>2019-08-20T09:06:36Z</time>
      </trkpt>
      <trkpt lat="44.28698" lon="6.87322">
        <ele>1630</ele>
        <time>2019-08-20T09:06:39Z</time>
      </trkpt>
      <trkpt lat="44.28696" lon="6.87322">
        <ele>1629</ele>
        <time>2019-08-20T09:06:41Z</time>
      </trkpt>
      <trkpt lat="44.28696" lon="6.87324">
        <ele>1629</ele>
        <time>2019-08-20T09:06:43Z</time>
      </trkpt>
      <trkpt lat="44.28697" lon="6.87328">
        <ele>1630</ele>
        <time>2019-08-20T09:06:47Z</time>
      </trkpt>
      <trkpt lat="44.28697" lon="6.87338">
        <ele>1629</ele>
        <time>2019-08-20T09:06:57Z</time>
      </trkpt>
      <trkpt lat="44.28697" lon="6.87339">
        <ele>1629</ele>
        <time>2019-08-20T09:06:58Z</time>
      </trkpt>
      <trkpt lat="44.28695" lon="6.87339">
        <ele>1627</ele>
        <time>2019-08-20T09:07:00Z</time>
      </trkpt>
      <trkpt lat="44.28693" lon="6.87336">
        <ele>1626</ele>
        <time>2019-08-20T09:07:04Z</time>
      </trkpt>
      <trkpt lat="44.28692" lon="6.87332">
        <ele>1626</ele>
        <time>2019-08-20T09:07:08Z</time>
      </trkpt>
      <trkpt lat="44.28689" lon="6.87327">
        <ele>1624</ele>
        <time>2019-08-20T09:07:15Z</time>
      </trkpt>
      <trkpt lat="44.28688" lon="6.87325">
        <ele>1623</ele>
        <time>2019-08-20T09:07:17Z</time>
      </trkpt>
      <trkpt lat="44.28688" lon="6.87322">
        <ele>1623</ele>
        <time>2019-08-20T09:07:20Z</time>
      </trkpt>
      <trkpt lat="44.28687" lon="6.87317">
        <ele>1622</ele>
        <time>2019-08-20T09:07:25Z</time>
      </trkpt>
      <trkpt lat="44.28684" lon="6.87309">
        <ele>1620</ele>
        <time>2019-08-20T09:07:33Z</time>
      </trkpt>
      <trkpt lat="44.28683" lon="6.87305">
        <ele>1619</ele>
        <time>2019-08-20T09:07:37Z</time>
      </trkpt>
      <trkpt lat="44.28682" lon="6.873">
        <ele>1618</ele>
        <time>2019-08-20T09:07:42Z</time>
      </trkpt>
      <trkpt lat="44.28683" lon="6.87293">
        <ele>1619</ele>
        <time>2019-08-20T09:07:49Z</time>
      </trkpt>
      <trkpt lat="44.28683" lon="6.8729">
        <ele>1619</ele>
        <time>2019-08-20T09:07:52Z</time>
      </trkpt>
      <trkpt lat="44.28682" lon="6.87288">
        <ele>1618</ele>
        <time>2019-08-20T09:07:54Z</time>
      </trkpt>
      <trkpt lat="44.28681" lon="6.87285">
        <ele>1617</ele>
        <time>2019-08-20T09:07:58Z</time>
      </trkpt>
      <trkpt lat="44.28679" lon="6.87276">
        <ele>1616</ele>
        <time>2019-08-20T09:08:07Z</time>
      </trkpt>
      <trkpt lat="44.28678" lon="6.87273">
        <ele>1615</ele>
        <time>2019-08-20T09:08:10Z</time>
      </trkpt>
      <trkpt lat="44.28678" lon="6.8727">
        <ele>1615</ele>
        <time>2019-08-20T09:08:13Z</time>
      </trkpt>
      <trkpt lat="44.28677" lon="6.87265">
        <ele>1614</ele>
        <time>2019-08-20T09:08:18Z</time>
      </trkpt>
      <trkpt lat="44.28675" lon="6.8726">
        <ele>1613</ele>
        <time>2019-08-20T09:08:23Z</time>
      </trkpt>
      <trkpt lat="44.28673" lon="6.87257">
        <ele>1612</ele>
        <time>2019-08-20T09:08:27Z</time>
      </trkpt>
      <trkpt lat="44.28668" lon="6.8724">
        <ele>1608</ele>
        <time>2019-08-20T09:08:45Z</time>
      </trkpt>
      <trkpt lat="44.28667" lon="6.87235">
        <ele>1607</ele>
        <time>2019-08-20T09:08:49Z</time>
      </trkpt>
      <trkpt lat="44.28667" lon="6.87224">
        <ele>1606</ele>
        <time>2019-08-20T09:09:00Z</time>
      </trkpt>
      <trkpt lat="44.28667" lon="6.8722">
        <ele>1606</ele>
        <time>2019-08-20T09:09:04Z</time>
      </trkpt>
      <trkpt lat="44.28668" lon="6.87217">
        <ele>1606</ele>
        <time>2019-08-20T09:09:07Z</time>
      </trkpt>
      <trkpt lat="44.28668" lon="6.87212">
        <ele>1606</ele>
        <time>2019-08-20T09:09:12Z</time>
      </trkpt>
      <trkpt lat="44.28671" lon="6.87204">
        <ele>1607</ele>
        <time>2019-08-20T09:09:20Z</time>
      </trkpt>
      <trkpt lat="44.28672" lon="6.872">
        <ele>1607</ele>
        <time>2019-08-20T09:09:24Z</time>
      </trkpt>
      <trkpt lat="44.28672" lon="6.87195">
        <ele>1607</ele>
        <time>2019-08-20T09:09:29Z</time>
      </trkpt>
      <trkpt lat="44.28674" lon="6.87191">
        <ele>1608</ele>
        <time>2019-08-20T09:09:34Z</time>
      </trkpt>
      <trkpt lat="44.28674" lon="6.87187">
        <ele>1607</ele>
        <time>2019-08-20T09:09:38Z</time>
      </trkpt>
      <trkpt lat="44.28675" lon="6.87183">
        <ele>1608</ele>
        <time>2019-08-20T09:09:42Z</time>
      </trkpt>
      <trkpt lat="44.28675" lon="6.87175">
        <ele>1607</ele>
        <time>2019-08-20T09:09:49Z</time>
      </trkpt>
      <trkpt lat="44.28675" lon="6.8717">
        <ele>1607</ele>
        <time>2019-08-20T09:09:54Z</time>
      </trkpt>
      <trkpt lat="44.28674" lon="6.87159">
        <ele>1606</ele>
        <time>2019-08-20T09:10:05Z</time>
      </trkpt>
      <trkpt lat="44.28675" lon="6.87153">
        <ele>1606</ele>
        <time>2019-08-20T09:10:11Z</time>
      </trkpt>
      <trkpt lat="44.28674" lon="6.87146">
        <ele>1605</ele>
        <time>2019-08-20T09:10:17Z</time>
      </trkpt>
      <trkpt lat="44.28674" lon="6.87132">
        <ele>1605</ele>
        <time>2019-08-20T09:10:31Z</time>
      </trkpt>
      <trkpt lat="44.28674" lon="6.87129">
        <ele>1605</ele>
        <time>2019-08-20T09:10:34Z</time>
      </trkpt>
      <trkpt lat="44.28672" lon="6.87123">
        <ele>1604</ele>
        <time>2019-08-20T09:10:40Z</time>
      </trkpt>
      <trkpt lat="44.28671" lon="6.87116">
        <ele>1603</ele>
        <time>2019-08-20T09:10:47Z</time>
      </trkpt>
      <trkpt lat="44.28668" lon="6.8711">
        <ele>1601</ele>
        <time>2019-08-20T09:10:54Z</time>
      </trkpt>
      <trkpt lat="44.28661" lon="6.87104">
        <ele>1598</ele>
        <time>2019-08-20T09:11:05Z</time>
      </trkpt>
      <trkpt lat="44.28659" lon="6.87103">
        <ele>1598</ele>
        <time>2019-08-20T09:11:08Z</time>
      </trkpt>
      <trkpt lat="44.28653" lon="6.87097">
        <ele>1596</ele>
        <time>2019-08-20T09:11:17Z</time>
      </trkpt>
      <trkpt lat="44.28651" lon="6.87093">
        <ele>1595</ele>
        <time>2019-08-20T09:11:22Z</time>
      </trkpt>
      <trkpt lat="44.28638" lon="6.87082">
        <ele>1591</ele>
        <time>2019-08-20T09:11:42Z</time>
      </trkpt>
      <trkpt lat="44.28635" lon="6.8708">
        <ele>1590</ele>
        <time>2019-08-20T09:11:47Z</time>
      </trkpt>
      <trkpt lat="44.2863" lon="6.87079">
        <ele>1589</ele>
        <time>2019-08-20T09:11:54Z</time>
      </trkpt>
      <trkpt lat="44.28624" lon="6.87077">
        <ele>1587</ele>
        <time>2019-08-20T09:12:02Z</time>
      </trkpt>
      <trkpt lat="44.28618" lon="6.87074">
        <ele>1585</ele>
        <time>2019-08-20T09:12:10Z</time>
      </trkpt>
      <trkpt lat="44.28601" lon="6.87069">
        <ele>1580</ele>
        <time>2019-08-20T09:12:34Z</time>
      </trkpt>
      <trkpt lat="44.28597" lon="6.87067">
        <ele>1579</ele>
        <time>2019-08-20T09:12:39Z</time>
      </trkpt>
      <trkpt lat="44.28592" lon="6.87066">
        <ele>1577</ele>
        <time>2019-08-20T09:12:46Z</time>
      </trkpt>
      <trkpt lat="44.28589" lon="6.87065">
        <ele>1576</ele>
        <time>2019-08-20T09:12:50Z</time>
      </trkpt>
      <trkpt lat="44.28584" lon="6.87066">
        <ele>1575</ele>
        <time>2019-08-20T09:12:57Z</time>
      </trkpt>
      <trkpt lat="44.28578" lon="6.87068">
        <ele>1572</ele>
        <time>2019-08-20T09:13:05Z</time>
      </trkpt>
      <trkpt lat="44.28574" lon="6.8707">
        <ele>1570</ele>
        <time>2019-08-20T09:13:11Z</time>
      </trkpt>
      <trkpt lat="44.28569" lon="6.87073">
        <ele>1568</ele>
        <time>2019-08-20T09:13:18Z</time>
      </trkpt>
      <trkpt lat="44.28567" lon="6.87075">
        <ele>1567</ele>
        <time>2019-08-20T09:13:21Z</time>
      </trkpt>
      <trkpt lat="44.28563" lon="6.87078">
        <ele>1565</ele>
        <time>2019-08-20T09:13:27Z</time>
      </trkpt>
      <trkpt lat="44.2856" lon="6.87079">
        <ele>1564</ele>
        <time>2019-08-20T09:13:31Z</time>
      </trkpt>
      <trkpt lat="44.28558" lon="6.8708">
        <ele>1563</ele>
        <time>2019-08-20T09:13:34Z</time>
      </trkpt>
      <trkpt lat="44.28557" lon="6.87076">
        <ele>1562</ele>
        <time>2019-08-20T09:13:38Z</time>
      </trkpt>
      <trkpt lat="44.28556" lon="6.87073">
        <ele>1562</ele>
        <time>2019-08-20T09:13:41Z</time>
      </trkpt>
      <trkpt lat="44.28553" lon="6.87069">
        <ele>1561</ele>
        <time>2019-08-20T09:13:47Z</time>
      </trkpt>
      <trkpt lat="44.28551" lon="6.87066">
        <ele>1560</ele>
        <time>2019-08-20T09:13:51Z</time>
      </trkpt>
      <trkpt lat="44.28547" lon="6.87064">
        <ele>1558</ele>
        <time>2019-08-20T09:13:57Z</time>
      </trkpt>
      <trkpt lat="44.28544" lon="6.87064">
        <ele>1557</ele>
        <time>2019-08-20T09:14:01Z</time>
      </trkpt>
      <trkpt lat="44.28536" lon="6.87059">
        <ele>1553</ele>
        <time>2019-08-20T09:14:12Z</time>
      </trkpt>
      <trkpt lat="44.28531" lon="6.87056">
        <ele>1551</ele>
        <time>2019-08-20T09:14:20Z</time>
      </trkpt>
      <trkpt lat="44.28526" lon="6.8705">
        <ele>1549</ele>
        <time>2019-08-20T09:14:28Z</time>
      </trkpt>
      <trkpt lat="44.28525" lon="6.87049">
        <ele>1549</ele>
        <time>2019-08-20T09:14:30Z</time>
      </trkpt>
      <trkpt lat="44.28524" lon="6.87045">
        <ele>1548</ele>
        <time>2019-08-20T09:14:34Z</time>
      </trkpt>
      <trkpt lat="44.28523" lon="6.87043">
        <ele>1548</ele>
        <time>2019-08-20T09:14:36Z</time>
      </trkpt>
      <trkpt lat="44.28521" lon="6.87043">
        <ele>1547</ele>
        <time>2019-08-20T09:14:39Z</time>
      </trkpt>
      <trkpt lat="44.28521" lon="6.87049">
        <ele>1547</ele>
        <time>2019-08-20T09:14:45Z</time>
      </trkpt>
      <trkpt lat="44.28521" lon="6.87051">
        <ele>1547</ele>
        <time>2019-08-20T09:14:47Z</time>
      </trkpt>
      <trkpt lat="44.2852" lon="6.87055">
        <ele>1546</ele>
        <time>2019-08-20T09:14:51Z</time>
      </trkpt>
      <trkpt lat="44.28519" lon="6.87056">
        <ele>1546</ele>
        <time>2019-08-20T09:14:52Z</time>
      </trkpt>
      <trkpt lat="44.28515" lon="6.87055">
        <ele>1544</ele>
        <time>2019-08-20T09:14:58Z</time>
      </trkpt>
      <trkpt lat="44.28514" lon="6.87055">
        <ele>1543</ele>
        <time>2019-08-20T09:14:59Z</time>
      </trkpt>
      <trkpt lat="44.28509" lon="6.87049">
        <ele>1541</ele>
        <time>2019-08-20T09:15:08Z</time>
      </trkpt>
      <trkpt lat="44.28508" lon="6.87048">
        <ele>1541</ele>
        <time>2019-08-20T09:15:10Z</time>
      </trkpt>
      <trkpt lat="44.28507" lon="6.87045">
        <ele>1541</ele>
        <time>2019-08-20T09:15:13Z</time>
      </trkpt>
      <trkpt lat="44.28506" lon="6.87042">
        <ele>1540</ele>
        <time>2019-08-20T09:15:16Z</time>
      </trkpt>
      <trkpt lat="44.28501" lon="6.87033">
        <ele>1538</ele>
        <time>2019-08-20T09:15:27Z</time>
      </trkpt>
      <trkpt lat="44.28499" lon="6.87028">
        <ele>1537</ele>
        <time>2019-08-20T09:15:32Z</time>
      </trkpt>
      <trkpt lat="44.28498" lon="6.87023">
        <ele>1537</ele>
        <time>2019-08-20T09:15:37Z</time>
      </trkpt>
      <trkpt lat="44.28498" lon="6.87012">
        <ele>1537</ele>
        <time>2019-08-20T09:15:48Z</time>
      </trkpt>
      <trkpt lat="44.28498" lon="6.87003">
        <ele>1538</ele>
        <time>2019-08-20T09:15:56Z</time>
      </trkpt>
      <trkpt lat="44.28499" lon="6.86993">
        <ele>1538</ele>
        <time>2019-08-20T09:16:06Z</time>
      </trkpt>
      <trkpt lat="44.285" lon="6.86985">
        <ele>1537</ele>
        <time>2019-08-20T09:16:14Z</time>
      </trkpt>
      <trkpt lat="44.28503" lon="6.86976">
        <ele>1537</ele>
        <time>2019-08-20T09:16:23Z</time>
      </trkpt>
      <trkpt lat="44.28505" lon="6.8697">
        <ele>1538</ele>
        <time>2019-08-20T09:16:29Z</time>
      </trkpt>
      <trkpt lat="44.28509" lon="6.86963">
        <ele>1538</ele>
        <time>2019-08-20T09:16:38Z</time>
      </trkpt>
      <trkpt lat="44.28515" lon="6.86948">
        <ele>1539</ele>
        <time>2019-08-20T09:16:54Z</time>
      </trkpt>
      <trkpt lat="44.28518" lon="6.86938">
        <ele>1539</ele>
        <time>2019-08-20T09:17:05Z</time>
      </trkpt>
      <trkpt lat="44.28522" lon="6.86929">
        <ele>1539</ele>
        <time>2019-08-20T09:17:15Z</time>
      </trkpt>
      <trkpt lat="44.28523" lon="6.86924">
        <ele>1539</ele>
        <time>2019-08-20T09:17:20Z</time>
      </trkpt>
      <trkpt lat="44.28523" lon="6.86908">
        <ele>1537</ele>
        <time>2019-08-20T09:17:35Z</time>
      </trkpt>
      <trkpt lat="44.28523" lon="6.86902">
        <ele>1536</ele>
        <time>2019-08-20T09:17:41Z</time>
      </trkpt>
      <trkpt lat="44.28521" lon="6.86887">
        <ele>1534</ele>
        <time>2019-08-20T09:17:55Z</time>
      </trkpt>
      <trkpt lat="44.2852" lon="6.8688">
        <ele>1532</ele>
        <time>2019-08-20T09:18:02Z</time>
      </trkpt>
      <trkpt lat="44.28519" lon="6.86869">
        <ele>1531</ele>
        <time>2019-08-20T09:18:13Z</time>
      </trkpt>
      <trkpt lat="44.28519" lon="6.86859">
        <ele>1530</ele>
        <time>2019-08-20T09:18:22Z</time>
      </trkpt>
      <trkpt lat="44.28517" lon="6.86839">
        <ele>1527</ele>
        <time>2019-08-20T09:18:42Z</time>
      </trkpt>
      <trkpt lat="44.28517" lon="6.86832">
        <ele>1526</ele>
        <time>2019-08-20T09:18:48Z</time>
      </trkpt>
      <trkpt lat="44.28518" lon="6.86822">
        <ele>1526</ele>
        <time>2019-08-20T09:18:58Z</time>
      </trkpt>
      <trkpt lat="44.28519" lon="6.86813">
        <ele>1526</ele>
        <time>2019-08-20T09:19:07Z</time>
      </trkpt>
      <trkpt lat="44.28523" lon="6.86804">
        <ele>1527</ele>
        <time>2019-08-20T09:19:17Z</time>
      </trkpt>
      <trkpt lat="44.28525" lon="6.86792">
        <ele>1527</ele>
        <time>2019-08-20T09:19:29Z</time>
      </trkpt>
      <trkpt lat="44.28526" lon="6.86783">
        <ele>1527</ele>
        <time>2019-08-20T09:19:37Z</time>
      </trkpt>
      <trkpt lat="44.28529" lon="6.8677">
        <ele>1527</ele>
        <time>2019-08-20T09:19:50Z</time>
      </trkpt>
      <trkpt lat="44.28531" lon="6.86766">
        <ele>1527</ele>
        <time>2019-08-20T09:19:55Z</time>
      </trkpt>
      <trkpt lat="44.28533" lon="6.86755">
        <ele>1527</ele>
        <time>2019-08-20T09:20:06Z</time>
      </trkpt>
      <trkpt lat="44.28534" lon="6.86748">
        <ele>1528</ele>
        <time>2019-08-20T09:20:13Z</time>
      </trkpt>
      <trkpt lat="44.28534" lon="6.8674">
        <ele>1528</ele>
        <time>2019-08-20T09:20:20Z</time>
      </trkpt>
      <trkpt lat="44.28534" lon="6.86733">
        <ele>1528</ele>
        <time>2019-08-20T09:20:27Z</time>
      </trkpt>
      <trkpt lat="44.28532" lon="6.86725">
        <ele>1528</ele>
        <time>2019-08-20T09:20:35Z</time>
      </trkpt>
      <trkpt lat="44.28531" lon="6.8672">
        <ele>1528</ele>
        <time>2019-08-20T09:20:40Z</time>
      </trkpt>
      <trkpt lat="44.28529" lon="6.86717">
        <ele>1527</ele>
        <time>2019-08-20T09:20:44Z</time>
      </trkpt>
      <trkpt lat="44.28528" lon="6.86715">
        <ele>1527</ele>
        <time>2019-08-20T09:20:46Z</time>
      </trkpt>
      <trkpt lat="44.28524" lon="6.86712">
        <ele>1525</ele>
        <time>2019-08-20T09:20:52Z</time>
      </trkpt>
      <trkpt lat="44.28521" lon="6.86709">
        <ele>1524</ele>
        <time>2019-08-20T09:20:57Z</time>
      </trkpt>
      <trkpt lat="44.2852" lon="6.86707">
        <ele>1524</ele>
        <time>2019-08-20T09:21:00Z</time>
      </trkpt>
      <trkpt lat="44.28518" lon="6.867">
        <ele>1523</ele>
        <time>2019-08-20T09:21:07Z</time>
      </trkpt>
      <trkpt lat="44.28516" lon="6.867">
        <ele>1523</ele>
        <time>2019-08-20T09:21:10Z</time>
      </trkpt>
      <trkpt lat="44.28511" lon="6.86698">
        <ele>1521</ele>
        <time>2019-08-20T09:21:16Z</time>
      </trkpt>
      <trkpt lat="44.28507" lon="6.86694">
        <ele>1519</ele>
        <time>2019-08-20T09:21:23Z</time>
      </trkpt>
      <trkpt lat="44.28502" lon="6.86692">
        <ele>1517</ele>
        <time>2019-08-20T09:21:30Z</time>
      </trkpt>
      <trkpt lat="44.28497" lon="6.86688">
        <ele>1516</ele>
        <time>2019-08-20T09:21:38Z</time>
      </trkpt>
      <trkpt lat="44.28493" lon="6.86685">
        <ele>1516</ele>
        <time>2019-08-20T09:21:44Z</time>
      </trkpt>
      <trkpt lat="44.28474" lon="6.86667">
        <ele>1515</ele>
        <time>2019-08-20T09:22:14Z</time>
      </trkpt>
      <trkpt lat="44.28468" lon="6.86662">
        <ele>1515</ele>
        <time>2019-08-20T09:22:24Z</time>
      </trkpt>
      <trkpt lat="44.28464" lon="6.86661">
        <ele>1515</ele>
        <time>2019-08-20T09:22:29Z</time>
      </trkpt>
      <trkpt lat="44.28461" lon="6.8666">
        <ele>1515</ele>
        <time>2019-08-20T09:22:33Z</time>
      </trkpt>
      <trkpt lat="44.28455" lon="6.8666">
        <ele>1514</ele>
        <time>2019-08-20T09:22:41Z</time>
      </trkpt>
      <trkpt lat="44.28452" lon="6.8666">
        <ele>1514</ele>
        <time>2019-08-20T09:22:45Z</time>
      </trkpt>
      <trkpt lat="44.2845" lon="6.86661">
        <ele>1514</ele>
        <time>2019-08-20T09:22:48Z</time>
      </trkpt>
      <trkpt lat="44.28446" lon="6.86661">
        <ele>1514</ele>
        <time>2019-08-20T09:22:53Z</time>
      </trkpt>
      <trkpt lat="44.28438" lon="6.86665">
        <ele>1513</ele>
        <time>2019-08-20T09:23:05Z</time>
      </trkpt>
      <trkpt lat="44.28433" lon="6.86668">
        <ele>1513</ele>
        <time>2019-08-20T09:23:12Z</time>
      </trkpt>
      <trkpt lat="44.2843" lon="6.86668">
        <ele>1513</ele>
        <time>2019-08-20T09:23:16Z</time>
      </trkpt>
      <trkpt lat="44.28427" lon="6.8667">
        <ele>1512</ele>
        <time>2019-08-20T09:23:20Z</time>
      </trkpt>
      <trkpt lat="44.28424" lon="6.86669">
        <ele>1512</ele>
        <time>2019-08-20T09:23:25Z</time>
      </trkpt>
      <trkpt lat="44.2842" lon="6.86667">
        <ele>1512</ele>
        <time>2019-08-20T09:23:30Z</time>
      </trkpt>
      <trkpt lat="44.28417" lon="6.86679">
        <ele>1510</ele>
        <time>2019-08-20T09:23:42Z</time>
      </trkpt>
      <trkpt lat="44.28415" lon="6.86681">
        <ele>1509</ele>
        <time>2019-08-20T09:23:46Z</time>
      </trkpt>
      <trkpt lat="44.28413" lon="6.86682">
        <ele>1508</ele>
        <time>2019-08-20T09:23:48Z</time>
      </trkpt>
      <trkpt lat="44.2841" lon="6.86683">
        <ele>1507</ele>
        <time>2019-08-20T09:23:53Z</time>
      </trkpt>
      <trkpt lat="44.28408" lon="6.86685">
        <ele>1506</ele>
        <time>2019-08-20T09:23:56Z</time>
      </trkpt>
      <trkpt lat="44.28402" lon="6.86691">
        <ele>1503</ele>
        <time>2019-08-20T09:24:06Z</time>
      </trkpt>
      <trkpt lat="44.28397" lon="6.86694">
        <ele>1501</ele>
        <time>2019-08-20T09:24:13Z</time>
      </trkpt>
      <trkpt lat="44.28391" lon="6.86698">
        <ele>1499</ele>
        <time>2019-08-20T09:24:22Z</time>
      </trkpt>
      <trkpt lat="44.28373" lon="6.86707">
        <ele>1492</ele>
        <time>2019-08-20T09:24:47Z</time>
      </trkpt>
      <trkpt lat="44.28372" lon="6.86707">
        <ele>1492</ele>
        <time>2019-08-20T09:24:49Z</time>
      </trkpt>
      <trkpt lat="44.2837" lon="6.86704">
        <ele>1492</ele>
        <time>2019-08-20T09:24:53Z</time>
      </trkpt>
      <trkpt lat="44.28369" lon="6.86703">
        <ele>1492</ele>
        <time>2019-08-20T09:24:54Z</time>
      </trkpt>
      <trkpt lat="44.28366" lon="6.86704">
        <ele>1491</ele>
        <time>2019-08-20T09:24:58Z</time>
      </trkpt>
      <trkpt lat="44.28364" lon="6.86695">
        <ele>1492</ele>
        <time>2019-08-20T09:25:07Z</time>
      </trkpt>
      <trkpt lat="44.28363" lon="6.86666">
        <ele>1497</ele>
        <time>2019-08-20T09:25:35Z</time>
      </trkpt>
      <trkpt lat="44.28363" lon="6.86649">
        <ele>1498</ele>
        <time>2019-08-20T09:25:51Z</time>
      </trkpt>
      <trkpt lat="44.28352" lon="6.86653">
        <ele>1495</ele>
        <time>2019-08-20T09:26:07Z</time>
      </trkpt>
      <trkpt lat="44.28343" lon="6.86656">
        <ele>1492</ele>
        <time>2019-08-20T09:26:19Z</time>
      </trkpt>
      <trkpt lat="44.28337" lon="6.86659">
        <ele>1490</ele>
        <time>2019-08-20T09:26:27Z</time>
      </trkpt>
      <trkpt lat="44.28333" lon="6.86661">
        <ele>1489</ele>
        <time>2019-08-20T09:26:33Z</time>
      </trkpt>
      <trkpt lat="44.28331" lon="6.86663">
        <ele>1489</ele>
        <time>2019-08-20T09:26:36Z</time>
      </trkpt>
      <trkpt lat="44.28329" lon="6.86666">
        <ele>1489</ele>
        <time>2019-08-20T09:26:40Z</time>
      </trkpt>
      <trkpt lat="44.28325" lon="6.86676">
        <ele>1487</ele>
        <time>2019-08-20T09:26:51Z</time>
      </trkpt>
      <trkpt lat="44.28322" lon="6.86682">
        <ele>1485</ele>
        <time>2019-08-20T09:26:58Z</time>
      </trkpt>
      <trkpt lat="44.2832" lon="6.86695">
        <ele>1483</ele>
        <time>2019-08-20T09:27:11Z</time>
      </trkpt>
      <trkpt lat="44.2832" lon="6.86698">
        <ele>1483</ele>
        <time>2019-08-20T09:27:14Z</time>
      </trkpt>
      <trkpt lat="44.28321" lon="6.86704">
        <ele>1482</ele>
        <time>2019-08-20T09:27:20Z</time>
      </trkpt>
      <trkpt lat="44.28323" lon="6.86708">
        <ele>1482</ele>
        <time>2019-08-20T09:27:24Z</time>
      </trkpt>
      <trkpt lat="44.28325" lon="6.86713">
        <ele>1481</ele>
        <time>2019-08-20T09:27:30Z</time>
      </trkpt>
      <trkpt lat="44.28328" lon="6.86717">
        <ele>1480</ele>
        <time>2019-08-20T09:27:35Z</time>
      </trkpt>
      <trkpt lat="44.28336" lon="6.86722">
        <ele>1480</ele>
        <time>2019-08-20T09:27:47Z</time>
      </trkpt>
      <trkpt lat="44.28339" lon="6.86724">
        <ele>1480</ele>
        <time>2019-08-20T09:27:51Z</time>
      </trkpt>
      <trkpt lat="44.28341" lon="6.86729">
        <ele>1480</ele>
        <time>2019-08-20T09:27:57Z</time>
      </trkpt>
      <trkpt lat="44.2834" lon="6.86731">
        <ele>1479</ele>
        <time>2019-08-20T09:27:59Z</time>
      </trkpt>
      <trkpt lat="44.28339" lon="6.86732">
        <ele>1479</ele>
        <time>2019-08-20T09:28:01Z</time>
      </trkpt>
      <trkpt lat="44.28338" lon="6.86733">
        <ele>1478</ele>
        <time>2019-08-20T09:28:03Z</time>
      </trkpt>
      <trkpt lat="44.28334" lon="6.86731">
        <ele>1478</ele>
        <time>2019-08-20T09:28:08Z</time>
      </trkpt>
      <trkpt lat="44.28328" lon="6.86726">
        <ele>1479</ele>
        <time>2019-08-20T09:28:18Z</time>
      </trkpt>
      <trkpt lat="44.28322" lon="6.86722">
        <ele>1479</ele>
        <time>2019-08-20T09:28:26Z</time>
      </trkpt>
      <trkpt lat="44.28314" lon="6.86719">
        <ele>1480</ele>
        <time>2019-08-20T09:28:37Z</time>
      </trkpt>
      <trkpt lat="44.28306" lon="6.86716">
        <ele>1481</ele>
        <time>2019-08-20T09:28:48Z</time>
      </trkpt>
      <trkpt lat="44.28293" lon="6.86715">
        <ele>1481</ele>
        <time>2019-08-20T09:29:06Z</time>
      </trkpt>
      <trkpt lat="44.28287" lon="6.86715">
        <ele>1481</ele>
        <time>2019-08-20T09:29:14Z</time>
      </trkpt>
      <trkpt lat="44.28273" lon="6.86756">
        <ele>1482</ele>
        <time>2019-08-20T09:29:57Z</time>
      </trkpt>
      <trkpt lat="44.28273" lon="6.8676">
        <ele>1483</ele>
        <time>2019-08-20T09:30:01Z</time>
      </trkpt>
      <trkpt lat="44.28274" lon="6.86767">
        <ele>1484</ele>
        <time>2019-08-20T09:30:08Z</time>
      </trkpt>
      <trkpt lat="44.28276" lon="6.86771">
        <ele>1484</ele>
        <time>2019-08-20T09:30:13Z</time>
      </trkpt>
      <trkpt lat="44.2828" lon="6.86776">
        <ele>1484</ele>
        <time>2019-08-20T09:30:20Z</time>
      </trkpt>
      <trkpt lat="44.28283" lon="6.86784">
        <ele>1484</ele>
        <time>2019-08-20T09:30:28Z</time>
      </trkpt>
      <trkpt lat="44.28285" lon="6.8679">
        <ele>1485</ele>
        <time>2019-08-20T09:30:35Z</time>
      </trkpt>
      <trkpt lat="44.28286" lon="6.86802">
        <ele>1486</ele>
        <time>2019-08-20T09:30:46Z</time>
      </trkpt>
      <trkpt lat="44.28289" lon="6.86817">
        <ele>1486</ele>
        <time>2019-08-20T09:31:01Z</time>
      </trkpt>
      <trkpt lat="44.28289" lon="6.8683">
        <ele>1487</ele>
        <time>2019-08-20T09:31:14Z</time>
      </trkpt>
      <trkpt lat="44.28291" lon="6.86846">
        <ele>1488</ele>
        <time>2019-08-20T09:31:29Z</time>
      </trkpt>
      <trkpt lat="44.28291" lon="6.8687">
        <ele>1490</ele>
        <time>2019-08-20T09:31:52Z</time>
      </trkpt>
      <trkpt lat="44.28291" lon="6.86884">
        <ele>1491</ele>
        <time>2019-08-20T09:32:05Z</time>
      </trkpt>
      <trkpt lat="44.28292" lon="6.86886">
        <ele>1490</ele>
        <time>2019-08-20T09:32:08Z</time>
      </trkpt>
      <trkpt lat="44.28293" lon="6.8689">
        <ele>1490</ele>
        <time>2019-08-20T09:32:12Z</time>
      </trkpt>
      <trkpt lat="44.28293" lon="6.86895">
        <ele>1490</ele>
        <time>2019-08-20T09:32:17Z</time>
      </trkpt>
      <trkpt lat="44.28293" lon="6.86899">
        <ele>1490</ele>
        <time>2019-08-20T09:32:20Z</time>
      </trkpt>
      <trkpt lat="44.28291" lon="6.86917">
        <ele>1493</ele>
        <time>2019-08-20T09:32:38Z</time>
      </trkpt>
      <trkpt lat="44.2829" lon="6.86925">
        <ele>1493</ele>
        <time>2019-08-20T09:32:45Z</time>
      </trkpt>
      <trkpt lat="44.28289" lon="6.86945">
        <ele>1492</ele>
        <time>2019-08-20T09:33:05Z</time>
      </trkpt>
      <trkpt lat="44.28288" lon="6.86951">
        <ele>1492</ele>
        <time>2019-08-20T09:33:11Z</time>
      </trkpt>
      <trkpt lat="44.28287" lon="6.86989">
        <ele>1490</ele>
        <time>2019-08-20T09:33:47Z</time>
      </trkpt>
      <trkpt lat="44.28287" lon="6.86995">
        <ele>1490</ele>
        <time>2019-08-20T09:33:53Z</time>
      </trkpt>
      <trkpt lat="44.28288" lon="6.87002">
        <ele>1489</ele>
        <time>2019-08-20T09:33:59Z</time>
      </trkpt>
      <trkpt lat="44.2829" lon="6.87009">
        <ele>1487</ele>
        <time>2019-08-20T09:34:07Z</time>
      </trkpt>
      <trkpt lat="44.2829" lon="6.87016">
        <ele>1486</ele>
        <time>2019-08-20T09:34:13Z</time>
      </trkpt>
      <trkpt lat="44.28291" lon="6.87021">
        <ele>1485</ele>
        <time>2019-08-20T09:34:18Z</time>
      </trkpt>
      <trkpt lat="44.28292" lon="6.87028">
        <ele>1484</ele>
        <time>2019-08-20T09:34:25Z</time>
      </trkpt>
      <trkpt lat="44.28292" lon="6.87047">
        <ele>1483</ele>
        <time>2019-08-20T09:34:43Z</time>
      </trkpt>
      <trkpt lat="44.28292" lon="6.87054">
        <ele>1482</ele>
        <time>2019-08-20T09:34:50Z</time>
      </trkpt>
      <trkpt lat="44.28298" lon="6.87087">
        <ele>1477</ele>
        <time>2019-08-20T09:35:22Z</time>
      </trkpt>
      <trkpt lat="44.28299" lon="6.87094">
        <ele>1477</ele>
        <time>2019-08-20T09:35:29Z</time>
      </trkpt>
      <trkpt lat="44.28299" lon="6.87106">
        <ele>1476</ele>
        <time>2019-08-20T09:35:41Z</time>
      </trkpt>
      <trkpt lat="44.28299" lon="6.87114">
        <ele>1476</ele>
        <time>2019-08-20T09:35:48Z</time>
      </trkpt>
      <trkpt lat="44.28302" lon="6.87142">
        <ele>1474</ele>
        <time>2019-08-20T09:36:15Z</time>
      </trkpt>
      <trkpt lat="44.28303" lon="6.87154">
        <ele>1473</ele>
        <time>2019-08-20T09:36:27Z</time>
      </trkpt>
      <trkpt lat="44.28308" lon="6.87182">
        <ele>1471</ele>
        <time>2019-08-20T09:36:55Z</time>
      </trkpt>
      <trkpt lat="44.28311" lon="6.87196">
        <ele>1471</ele>
        <time>2019-08-20T09:37:08Z</time>
      </trkpt>
      <trkpt lat="44.28314" lon="6.87216">
        <ele>1470</ele>
        <time>2019-08-20T09:37:28Z</time>
      </trkpt>
      <trkpt lat="44.28315" lon="6.87223">
        <ele>1470</ele>
        <time>2019-08-20T09:37:35Z</time>
      </trkpt>
      <trkpt lat="44.28318" lon="6.87236">
        <ele>1469</ele>
        <time>2019-08-20T09:37:48Z</time>
      </trkpt>
      <trkpt lat="44.28321" lon="6.87245">
        <ele>1468</ele>
        <time>2019-08-20T09:37:57Z</time>
      </trkpt>
      <trkpt lat="44.28324" lon="6.87254">
        <ele>1468</ele>
        <time>2019-08-20T09:38:07Z</time>
      </trkpt>
      <trkpt lat="44.28326" lon="6.87264">
        <ele>1468</ele>
        <time>2019-08-20T09:38:17Z</time>
      </trkpt>
      <trkpt lat="44.28329" lon="6.87277">
        <ele>1467</ele>
        <time>2019-08-20T09:38:30Z</time>
      </trkpt>
      <trkpt lat="44.28333" lon="6.87302">
        <ele>1468</ele>
        <time>2019-08-20T09:38:54Z</time>
      </trkpt>
      <trkpt lat="44.28335" lon="6.87314">
        <ele>1468</ele>
        <time>2019-08-20T09:39:06Z</time>
      </trkpt>
      <trkpt lat="44.28336" lon="6.87326">
        <ele>1468</ele>
        <time>2019-08-20T09:39:18Z</time>
      </trkpt>
      <trkpt lat="44.28336" lon="6.87336">
        <ele>1469</ele>
        <time>2019-08-20T09:39:27Z</time>
      </trkpt>
      <trkpt lat="44.28338" lon="6.8735">
        <ele>1469</ele>
        <time>2019-08-20T09:39:41Z</time>
      </trkpt>
      <trkpt lat="44.28339" lon="6.8736">
        <ele>1468</ele>
        <time>2019-08-20T09:39:50Z</time>
      </trkpt>
      <trkpt lat="44.28339" lon="6.87367">
        <ele>1468</ele>
        <time>2019-08-20T09:39:57Z</time>
      </trkpt>
      <trkpt lat="44.2834" lon="6.87373">
        <ele>1468</ele>
        <time>2019-08-20T09:40:03Z</time>
      </trkpt>
      <trkpt lat="44.2834" lon="6.87392">
        <ele>1468</ele>
        <time>2019-08-20T09:40:21Z</time>
      </trkpt>
      <trkpt lat="44.2834" lon="6.87394">
        <ele>1468</ele>
        <time>2019-08-20T09:40:23Z</time>
      </trkpt>
      <trkpt lat="44.28342" lon="6.87408">
        <ele>1468</ele>
        <time>2019-08-20T09:40:37Z</time>
      </trkpt>
      <trkpt lat="44.28343" lon="6.87417">
        <ele>1468</ele>
        <time>2019-08-20T09:40:45Z</time>
      </trkpt>
      <trkpt lat="44.28346" lon="6.87425">
        <ele>1467</ele>
        <time>2019-08-20T09:40:54Z</time>
      </trkpt>
      <trkpt lat="44.2835" lon="6.87441">
        <ele>1465</ele>
        <time>2019-08-20T09:41:10Z</time>
      </trkpt>
      <trkpt lat="44.28353" lon="6.87449">
        <ele>1464</ele>
        <time>2019-08-20T09:41:19Z</time>
      </trkpt>
      <trkpt lat="44.28355" lon="6.87458">
        <ele>1463</ele>
        <time>2019-08-20T09:41:28Z</time>
      </trkpt>
      <trkpt lat="44.28356" lon="6.87462">
        <ele>1463</ele>
        <time>2019-08-20T09:41:32Z</time>
      </trkpt>
      <trkpt lat="44.28357" lon="6.87473">
        <ele>1462</ele>
        <time>2019-08-20T09:41:42Z</time>
      </trkpt>
      <trkpt lat="44.28358" lon="6.87479">
        <ele>1461</ele>
        <time>2019-08-20T09:41:48Z</time>
      </trkpt>
      <trkpt lat="44.28358" lon="6.87484">
        <ele>1461</ele>
        <time>2019-08-20T09:41:53Z</time>
      </trkpt>
      <trkpt lat="44.28358" lon="6.87488">
        <ele>1461</ele>
        <time>2019-08-20T09:41:57Z</time>
      </trkpt>
      <trkpt lat="44.28356" lon="6.87494">
        <ele>1461</ele>
        <time>2019-08-20T09:42:03Z</time>
      </trkpt>
      <trkpt lat="44.28354" lon="6.87499">
        <ele>1461</ele>
        <time>2019-08-20T09:42:09Z</time>
      </trkpt>
      <trkpt lat="44.28351" lon="6.87504">
        <ele>1462</ele>
        <time>2019-08-20T09:42:15Z</time>
      </trkpt>
      <trkpt lat="44.28347" lon="6.87509">
        <ele>1463</ele>
        <time>2019-08-20T09:42:22Z</time>
      </trkpt>
      <trkpt lat="44.28343" lon="6.87511">
        <ele>1464</ele>
        <time>2019-08-20T09:42:28Z</time>
      </trkpt>
      <trkpt lat="44.28338" lon="6.8751">
        <ele>1465</ele>
        <time>2019-08-20T09:42:35Z</time>
      </trkpt>
      <trkpt lat="44.28334" lon="6.87509">
        <ele>1466</ele>
        <time>2019-08-20T09:42:40Z</time>
      </trkpt>
      <trkpt lat="44.28332" lon="6.87508">
        <ele>1467</ele>
        <time>2019-08-20T09:42:43Z</time>
      </trkpt>
      <trkpt lat="44.28328" lon="6.87505">
        <ele>1468</ele>
        <time>2019-08-20T09:42:49Z</time>
      </trkpt>
      <trkpt lat="44.28325" lon="6.87505">
        <ele>1468</ele>
        <time>2019-08-20T09:42:53Z</time>
      </trkpt>
      <trkpt lat="44.28322" lon="6.87505">
        <ele>1469</ele>
        <time>2019-08-20T09:42:57Z</time>
      </trkpt>
      <trkpt lat="44.2832" lon="6.87506">
        <ele>1469</ele>
        <time>2019-08-20T09:43:00Z</time>
      </trkpt>
      <trkpt lat="44.28318" lon="6.87508">
        <ele>1470</ele>
        <time>2019-08-20T09:43:03Z</time>
      </trkpt>
      <trkpt lat="44.28315" lon="6.87516">
        <ele>1470</ele>
        <time>2019-08-20T09:43:12Z</time>
      </trkpt>
      <trkpt lat="44.28314" lon="6.87519">
        <ele>1470</ele>
        <time>2019-08-20T09:43:15Z</time>
      </trkpt>
      <trkpt lat="44.28314" lon="6.87522">
        <ele>1470</ele>
        <time>2019-08-20T09:43:18Z</time>
      </trkpt>
      <trkpt lat="44.28313" lon="6.87526">
        <ele>1470</ele>
        <time>2019-08-20T09:43:22Z</time>
      </trkpt>
      <trkpt lat="44.28314" lon="6.8753">
        <ele>1470</ele>
        <time>2019-08-20T09:43:26Z</time>
      </trkpt>
      <trkpt lat="44.28314" lon="6.87536">
        <ele>1470</ele>
        <time>2019-08-20T09:43:32Z</time>
      </trkpt>
      <trkpt lat="44.28326" lon="6.87562">
        <ele>1466</ele>
        <time>2019-08-20T09:44:01Z</time>
      </trkpt>
      <trkpt lat="44.28329" lon="6.87567">
        <ele>1465</ele>
        <time>2019-08-20T09:44:07Z</time>
      </trkpt>
      <trkpt lat="44.28331" lon="6.87573">
        <ele>1464</ele>
        <time>2019-08-20T09:44:14Z</time>
      </trkpt>
      <trkpt lat="44.28333" lon="6.87578">
        <ele>1463</ele>
        <time>2019-08-20T09:44:19Z</time>
      </trkpt>
      <trkpt lat="44.28334" lon="6.87584">
        <ele>1463</ele>
        <time>2019-08-20T09:44:25Z</time>
      </trkpt>
      <trkpt lat="44.28336" lon="6.87592">
        <ele>1463</ele>
        <time>2019-08-20T09:44:33Z</time>
      </trkpt>
      <trkpt lat="44.28336" lon="6.87601">
        <ele>1463</ele>
        <time>2019-08-20T09:44:42Z</time>
      </trkpt>
      <trkpt lat="44.28337" lon="6.87607">
        <ele>1463</ele>
        <time>2019-08-20T09:44:48Z</time>
      </trkpt>
      <trkpt lat="44.28338" lon="6.87615">
        <ele>1463</ele>
        <time>2019-08-20T09:44:55Z</time>
      </trkpt>
      <trkpt lat="44.28338" lon="6.87621">
        <ele>1463</ele>
        <time>2019-08-20T09:45:01Z</time>
      </trkpt>
      <trkpt lat="44.28339" lon="6.87628">
        <ele>1463</ele>
        <time>2019-08-20T09:45:08Z</time>
      </trkpt>
      <trkpt lat="44.28342" lon="6.87637">
        <ele>1463</ele>
        <time>2019-08-20T09:45:17Z</time>
      </trkpt>
      <trkpt lat="44.28343" lon="6.87644">
        <ele>1463</ele>
        <time>2019-08-20T09:45:24Z</time>
      </trkpt>
      <trkpt lat="44.28347" lon="6.87659">
        <ele>1462</ele>
        <time>2019-08-20T09:45:39Z</time>
      </trkpt>
      <trkpt lat="44.28349" lon="6.87664">
        <ele>1461</ele>
        <time>2019-08-20T09:45:45Z</time>
      </trkpt>
      <trkpt lat="44.28349" lon="6.87669">
        <ele>1462</ele>
        <time>2019-08-20T09:45:50Z</time>
      </trkpt>
      <trkpt lat="44.2835" lon="6.87676">
        <ele>1461</ele>
        <time>2019-08-20T09:45:57Z</time>
      </trkpt>
      <trkpt lat="44.28349" lon="6.87686">
        <ele>1462</ele>
        <time>2019-08-20T09:46:06Z</time>
      </trkpt>
      <trkpt lat="44.28347" lon="6.87697">
        <ele>1462</ele>
        <time>2019-08-20T09:46:17Z</time>
      </trkpt>
      <trkpt lat="44.28345" lon="6.87708">
        <ele>1463</ele>
        <time>2019-08-20T09:46:28Z</time>
      </trkpt>
      <trkpt lat="44.28342" lon="6.8772">
        <ele>1464</ele>
        <time>2019-08-20T09:46:40Z</time>
      </trkpt>
      <trkpt lat="44.28339" lon="6.8773">
        <ele>1465</ele>
        <time>2019-08-20T09:46:50Z</time>
      </trkpt>
      <trkpt lat="44.28331" lon="6.87749">
        <ele>1468</ele>
        <time>2019-08-20T09:47:11Z</time>
      </trkpt>
      <trkpt lat="44.28324" lon="6.8776">
        <ele>1468</ele>
        <time>2019-08-20T09:47:25Z</time>
      </trkpt>
      <trkpt lat="44.28321" lon="6.87768">
        <ele>1469</ele>
        <time>2019-08-20T09:47:34Z</time>
      </trkpt>
      <trkpt lat="44.28316" lon="6.87779">
        <ele>1469</ele>
        <time>2019-08-20T09:47:47Z</time>
      </trkpt>
      <trkpt lat="44.28314" lon="6.87787">
        <ele>1469</ele>
        <time>2019-08-20T09:47:55Z</time>
      </trkpt>
      <trkpt lat="44.28309" lon="6.87801">
        <ele>1469</ele>
        <time>2019-08-20T09:48:10Z</time>
      </trkpt>
      <trkpt lat="44.28307" lon="6.87807">
        <ele>1469</ele>
        <time>2019-08-20T09:48:16Z</time>
      </trkpt>
      <trkpt lat="44.28304" lon="6.87813">
        <ele>1469</ele>
        <time>2019-08-20T09:48:23Z</time>
      </trkpt>
      <trkpt lat="44.283" lon="6.87818">
        <ele>1469</ele>
        <time>2019-08-20T09:48:30Z</time>
      </trkpt>
      <trkpt lat="44.28297" lon="6.87827">
        <ele>1469</ele>
        <time>2019-08-20T09:48:40Z</time>
      </trkpt>
      <trkpt lat="44.28294" lon="6.87837">
        <ele>1469</ele>
        <time>2019-08-20T09:48:50Z</time>
      </trkpt>
      <trkpt lat="44.28291" lon="6.87844">
        <ele>1470</ele>
        <time>2019-08-20T09:48:58Z</time>
      </trkpt>
      <trkpt lat="44.28289" lon="6.87852">
        <ele>1470</ele>
        <time>2019-08-20T09:49:06Z</time>
      </trkpt>
      <trkpt lat="44.28277" lon="6.87874">
        <ele>1472</ele>
        <time>2019-08-20T09:49:32Z</time>
      </trkpt>
      <trkpt lat="44.28273" lon="6.87881">
        <ele>1472</ele>
        <time>2019-08-20T09:49:41Z</time>
      </trkpt>
      <trkpt lat="44.28271" lon="6.87888">
        <ele>1473</ele>
        <time>2019-08-20T09:49:48Z</time>
      </trkpt>
      <trkpt lat="44.28269" lon="6.87894">
        <ele>1473</ele>
        <time>2019-08-20T09:49:54Z</time>
      </trkpt>
      <trkpt lat="44.28268" lon="6.87916">
        <ele>1473</ele>
        <time>2019-08-20T09:50:15Z</time>
      </trkpt>
      <trkpt lat="44.28268" lon="6.87921">
        <ele>1473</ele>
        <time>2019-08-20T09:50:20Z</time>
      </trkpt>
      <trkpt lat="44.28277" lon="6.88002">
        <ele>1471</ele>
        <time>2019-08-20T09:51:38Z</time>
      </trkpt>
      <trkpt lat="44.28278" lon="6.8801">
        <ele>1470</ele>
        <time>2019-08-20T09:51:46Z</time>
      </trkpt>
      <trkpt lat="44.28278" lon="6.88017">
        <ele>1470</ele>
        <time>2019-08-20T09:51:53Z</time>
      </trkpt>
      <trkpt lat="44.28276" lon="6.88032">
        <ele>1471</ele>
        <time>2019-08-20T09:52:07Z</time>
      </trkpt>
      <trkpt lat="44.28274" lon="6.8804">
        <ele>1472</ele>
        <time>2019-08-20T09:52:16Z</time>
      </trkpt>
      <trkpt lat="44.28256" lon="6.88073">
        <ele>1479</ele>
        <time>2019-08-20T09:52:55Z</time>
      </trkpt>
      <trkpt lat="44.28251" lon="6.88082">
        <ele>1481</ele>
        <time>2019-08-20T09:53:06Z</time>
      </trkpt>
      <trkpt lat="44.28241" lon="6.88104">
        <ele>1483</ele>
        <time>2019-08-20T09:53:31Z</time>
      </trkpt>
      <trkpt lat="44.2824" lon="6.88107">
        <ele>1483</ele>
        <time>2019-08-20T09:53:34Z</time>
      </trkpt>
      <trkpt lat="44.2822" lon="6.88125">
        <ele>1486</ele>
        <time>2019-08-20T09:54:06Z</time>
      </trkpt>
      <trkpt lat="44.28217" lon="6.88127">
        <ele>1487</ele>
        <time>2019-08-20T09:54:10Z</time>
      </trkpt>
      <trkpt lat="44.28216" lon="6.88139">
        <ele>1486</ele>
        <time>2019-08-20T09:54:22Z</time>
      </trkpt>
      <trkpt lat="44.28215" lon="6.88144">
        <ele>1486</ele>
        <time>2019-08-20T09:54:27Z</time>
      </trkpt>
      <trkpt lat="44.28213" lon="6.88146">
        <ele>1487</ele>
        <time>2019-08-20T09:54:30Z</time>
      </trkpt>
      <trkpt lat="44.28211" lon="6.88155">
        <ele>1487</ele>
        <time>2019-08-20T09:54:39Z</time>
      </trkpt>
      <trkpt lat="44.28211" lon="6.88161">
        <ele>1486</ele>
        <time>2019-08-20T09:54:45Z</time>
      </trkpt>
      <trkpt lat="44.28212" lon="6.88165">
        <ele>1486</ele>
        <time>2019-08-20T09:54:49Z</time>
      </trkpt>
      <trkpt lat="44.28219" lon="6.88179">
        <ele>1485</ele>
        <time>2019-08-20T09:55:05Z</time>
      </trkpt>
      <trkpt lat="44.28222" lon="6.88183">
        <ele>1484</ele>
        <time>2019-08-20T09:55:11Z</time>
      </trkpt>
      <trkpt lat="44.28223" lon="6.88195">
        <ele>1484</ele>
        <time>2019-08-20T09:55:22Z</time>
      </trkpt>
      <trkpt lat="44.28223" lon="6.88199">
        <ele>1484</ele>
        <time>2019-08-20T09:55:26Z</time>
      </trkpt>
      <trkpt lat="44.2822" lon="6.88216">
        <ele>1484</ele>
        <time>2019-08-20T09:55:43Z</time>
      </trkpt>
      <trkpt lat="44.2822" lon="6.88221">
        <ele>1484</ele>
        <time>2019-08-20T09:55:48Z</time>
      </trkpt>
      <trkpt lat="44.28221" lon="6.88228">
        <ele>1484</ele>
        <time>2019-08-20T09:55:54Z</time>
      </trkpt>
      <trkpt lat="44.28221" lon="6.88229">
        <ele>1484</ele>
        <time>2019-08-20T09:55:55Z</time>
      </trkpt>
      <trkpt lat="44.28225" lon="6.8824">
        <ele>1484</ele>
        <time>2019-08-20T09:56:07Z</time>
      </trkpt>
      <trkpt lat="44.28227" lon="6.88244">
        <ele>1483</ele>
        <time>2019-08-20T09:56:12Z</time>
      </trkpt>
      <trkpt lat="44.28231" lon="6.88249">
        <ele>1483</ele>
        <time>2019-08-20T09:56:19Z</time>
      </trkpt>
      <trkpt lat="44.28235" lon="6.88251">
        <ele>1482</ele>
        <time>2019-08-20T09:56:25Z</time>
      </trkpt>
      <trkpt lat="44.28237" lon="6.88254">
        <ele>1483</ele>
        <time>2019-08-20T09:56:29Z</time>
      </trkpt>
      <trkpt lat="44.28243" lon="6.88256">
        <ele>1482</ele>
        <time>2019-08-20T09:56:37Z</time>
      </trkpt>
      <trkpt lat="44.28244" lon="6.88256">
        <ele>1482</ele>
        <time>2019-08-20T09:56:38Z</time>
      </trkpt>
      <trkpt lat="44.28249" lon="6.88258">
        <ele>1481</ele>
        <time>2019-08-20T09:56:45Z</time>
      </trkpt>
      <trkpt lat="44.28254" lon="6.8826">
        <ele>1481</ele>
        <time>2019-08-20T09:56:52Z</time>
      </trkpt>
      <trkpt lat="44.28257" lon="6.88262">
        <ele>1480</ele>
        <time>2019-08-20T09:56:56Z</time>
      </trkpt>
      <trkpt lat="44.28261" lon="6.88265">
        <ele>1479</ele>
        <time>2019-08-20T09:57:03Z</time>
      </trkpt>
      <trkpt lat="44.28265" lon="6.88269">
        <ele>1479</ele>
        <time>2019-08-20T09:57:09Z</time>
      </trkpt>
      <trkpt lat="44.28276" lon="6.88288">
        <ele>1478</ele>
        <time>2019-08-20T09:57:32Z</time>
      </trkpt>
      <trkpt lat="44.28279" lon="6.8829">
        <ele>1478</ele>
        <time>2019-08-20T09:57:37Z</time>
      </trkpt>
      <trkpt lat="44.28281" lon="6.8829">
        <ele>1477</ele>
        <time>2019-08-20T09:57:40Z</time>
      </trkpt>
      <trkpt lat="44.28285" lon="6.8829">
        <ele>1476</ele>
        <time>2019-08-20T09:57:45Z</time>
      </trkpt>
      <trkpt lat="44.28289" lon="6.88288">
        <ele>1474</ele>
        <time>2019-08-20T09:57:51Z</time>
      </trkpt>
      <trkpt lat="44.28295" lon="6.88287">
        <ele>1472</ele>
        <time>2019-08-20T09:57:59Z</time>
      </trkpt>
      <trkpt lat="44.283" lon="6.88287">
        <ele>1471</ele>
        <time>2019-08-20T09:58:05Z</time>
      </trkpt>
      <trkpt lat="44.28304" lon="6.88287">
        <ele>1470</ele>
        <time>2019-08-20T09:58:11Z</time>
      </trkpt>
      <trkpt lat="44.28306" lon="6.88289">
        <ele>1469</ele>
        <time>2019-08-20T09:58:14Z</time>
      </trkpt>
      <trkpt lat="44.28308" lon="6.88291">
        <ele>1469</ele>
        <time>2019-08-20T09:58:17Z</time>
      </trkpt>
      <trkpt lat="44.28311" lon="6.88311">
        <ele>1470</ele>
        <time>2019-08-20T09:58:37Z</time>
      </trkpt>
      <trkpt lat="44.28311" lon="6.88318">
        <ele>1471</ele>
        <time>2019-08-20T09:58:43Z</time>
      </trkpt>
      <trkpt lat="44.28318" lon="6.88351">
        <ele>1473</ele>
        <time>2019-08-20T09:59:16Z</time>
      </trkpt>
      <trkpt lat="44.28319" lon="6.88356">
        <ele>1474</ele>
        <time>2019-08-20T09:59:21Z</time>
      </trkpt>
      <trkpt lat="44.28315" lon="6.88354">
        <ele>1475</ele>
        <time>2019-08-20T09:59:27Z</time>
      </trkpt>
      <trkpt lat="44.28313" lon="6.88356">
        <ele>1476</ele>
        <time>2019-08-20T09:59:30Z</time>
      </trkpt>
      <trkpt lat="44.28313" lon="6.88359">
        <ele>1477</ele>
        <time>2019-08-20T09:59:33Z</time>
      </trkpt>
      <trkpt lat="44.28312" lon="6.88365">
        <ele>1478</ele>
        <time>2019-08-20T09:59:39Z</time>
      </trkpt>
      <trkpt lat="44.28312" lon="6.88383">
        <ele>1481</ele>
        <time>2019-08-20T09:59:56Z</time>
      </trkpt>
      <trkpt lat="44.28312" lon="6.88387">
        <ele>1482</ele>
        <time>2019-08-20T10:00:00Z</time>
      </trkpt>
      <trkpt lat="44.28311" lon="6.88396">
        <ele>1484</ele>
        <time>2019-08-20T10:00:09Z</time>
      </trkpt>
      <trkpt lat="44.28311" lon="6.88399">
        <ele>1484</ele>
        <time>2019-08-20T10:00:12Z</time>
      </trkpt>
      <trkpt lat="44.28309" lon="6.88401">
        <ele>1486</ele>
        <time>2019-08-20T10:00:15Z</time>
      </trkpt>
      <trkpt lat="44.28307" lon="6.88401">
        <ele>1487</ele>
        <time>2019-08-20T10:00:17Z</time>
      </trkpt>
      <trkpt lat="44.28305" lon="6.88399">
        <ele>1487</ele>
        <time>2019-08-20T10:00:21Z</time>
      </trkpt>
      <trkpt lat="44.28307" lon="6.88415">
        <ele>1489</ele>
        <time>2019-08-20T10:00:36Z</time>
      </trkpt>
      <trkpt lat="44.28307" lon="6.88425">
        <ele>1491</ele>
        <time>2019-08-20T10:00:46Z</time>
      </trkpt>
      <trkpt lat="44.28313" lon="6.88453">
        <ele>1495</ele>
        <time>2019-08-20T10:01:14Z</time>
      </trkpt>
      <trkpt lat="44.28314" lon="6.88457">
        <ele>1495</ele>
        <time>2019-08-20T10:01:18Z</time>
      </trkpt>
      <trkpt lat="44.28325" lon="6.88487">
        <ele>1496</ele>
        <time>2019-08-20T10:01:50Z</time>
      </trkpt>
      <trkpt lat="44.28326" lon="6.88499">
        <ele>1498</ele>
        <time>2019-08-20T10:02:02Z</time>
      </trkpt>
      <trkpt lat="44.28342" lon="6.88544">
        <ele>1495</ele>
        <time>2019-08-20T10:02:50Z</time>
      </trkpt>
      <trkpt lat="44.28346" lon="6.88556">
        <ele>1493</ele>
        <time>2019-08-20T10:03:02Z</time>
      </trkpt>
      <trkpt lat="44.28348" lon="6.88565">
        <ele>1493</ele>
        <time>2019-08-20T10:03:11Z</time>
      </trkpt>
      <trkpt lat="44.28355" lon="6.88587">
        <ele>1491</ele>
        <time>2019-08-20T10:03:34Z</time>
      </trkpt>
      <trkpt lat="44.28358" lon="6.88598">
        <ele>1491</ele>
        <time>2019-08-20T10:03:45Z</time>
      </trkpt>
      <trkpt lat="44.28372" lon="6.88638">
        <ele>1488</ele>
        <time>2019-08-20T10:04:28Z</time>
      </trkpt>
      <trkpt lat="44.28377" lon="6.88656">
        <ele>1487</ele>
        <time>2019-08-20T10:04:46Z</time>
      </trkpt>
      <trkpt lat="44.2838" lon="6.88683">
        <ele>1489</ele>
        <time>2019-08-20T10:05:13Z</time>
      </trkpt>
      <trkpt lat="44.28383" lon="6.88696">
        <ele>1488</ele>
        <time>2019-08-20T10:05:26Z</time>
      </trkpt>
      <trkpt lat="44.28384" lon="6.88763">
        <ele>1497</ele>
        <time>2019-08-20T10:06:30Z</time>
      </trkpt>
      <trkpt lat="44.28386" lon="6.88784">
        <ele>1498</ele>
        <time>2019-08-20T10:06:50Z</time>
      </trkpt>
      <trkpt lat="44.28386" lon="6.88822">
        <ele>1502</ele>
        <time>2019-08-20T10:07:26Z</time>
      </trkpt>
      <trkpt lat="44.28387" lon="6.88845">
        <ele>1504</ele>
        <time>2019-08-20T10:07:48Z</time>
      </trkpt>
      <trkpt lat="44.2839" lon="6.88867">
        <ele>1503</ele>
        <time>2019-08-20T10:08:10Z</time>
      </trkpt>
      <trkpt lat="44.28395" lon="6.88892">
        <ele>1502</ele>
        <time>2019-08-20T10:08:34Z</time>
      </trkpt>
      <trkpt lat="44.28397" lon="6.88908">
        <ele>1502</ele>
        <time>2019-08-20T10:08:50Z</time>
      </trkpt>
      <trkpt lat="44.28401" lon="6.88929">
        <ele>1500</ele>
        <time>2019-08-20T10:09:11Z</time>
      </trkpt>
      <trkpt lat="44.28405" lon="6.88949">
        <ele>1499</ele>
        <time>2019-08-20T10:09:30Z</time>
      </trkpt>
      <trkpt lat="44.28406" lon="6.88972">
        <ele>1500</ele>
        <time>2019-08-20T10:09:52Z</time>
      </trkpt>
      <trkpt lat="44.28405" lon="6.8902">
        <ele>1503</ele>
        <time>2019-08-20T10:10:38Z</time>
      </trkpt>
      <trkpt lat="44.28404" lon="6.89042">
        <ele>1505</ele>
        <time>2019-08-20T10:10:59Z</time>
      </trkpt>
      <trkpt lat="44.28404" lon="6.89066">
        <ele>1505</ele>
        <time>2019-08-20T10:11:22Z</time>
      </trkpt>
      <trkpt lat="44.28405" lon="6.89085">
        <ele>1505</ele>
        <time>2019-08-20T10:11:41Z</time>
      </trkpt>
      <trkpt lat="44.28403" lon="6.89109">
        <ele>1508</ele>
        <time>2019-08-20T10:12:04Z</time>
      </trkpt>
      <trkpt lat="44.28403" lon="6.89127">
        <ele>1509</ele>
        <time>2019-08-20T10:12:21Z</time>
      </trkpt>
      <trkpt lat="44.28406" lon="6.89161">
        <ele>1508</ele>
        <time>2019-08-20T10:12:54Z</time>
      </trkpt>
      <trkpt lat="44.28406" lon="6.89178">
        <ele>1508</ele>
        <time>2019-08-20T10:13:10Z</time>
      </trkpt>
      <trkpt lat="44.28402" lon="6.8919">
        <ele>1511</ele>
        <time>2019-08-20T10:13:22Z</time>
      </trkpt>
      <trkpt lat="44.28402" lon="6.89199">
        <ele>1511</ele>
        <time>2019-08-20T10:13:31Z</time>
      </trkpt>
      <trkpt lat="44.28401" lon="6.892">
        <ele>1512</ele>
        <time>2019-08-20T10:13:33Z</time>
      </trkpt>
      <trkpt lat="44.28402" lon="6.89267">
        <ele>1509</ele>
        <time>2019-08-20T10:14:37Z</time>
      </trkpt>
      <trkpt lat="44.28403" lon="6.89282">
        <ele>1508</ele>
        <time>2019-08-20T10:14:51Z</time>
      </trkpt>
      <trkpt lat="44.28402" lon="6.89294">
        <ele>1508</ele>
        <time>2019-08-20T10:15:03Z</time>
      </trkpt>
      <trkpt lat="44.284" lon="6.89306">
        <ele>1510</ele>
        <time>2019-08-20T10:15:14Z</time>
      </trkpt>
      <trkpt lat="44.284" lon="6.89321">
        <ele>1509</ele>
        <time>2019-08-20T10:15:29Z</time>
      </trkpt>
      <trkpt lat="44.284" lon="6.89326">
        <ele>1509</ele>
        <time>2019-08-20T10:15:33Z</time>
      </trkpt>
      <trkpt lat="44.28401" lon="6.8933">
        <ele>1508</ele>
        <time>2019-08-20T10:15:38Z</time>
      </trkpt>
      <trkpt lat="44.28402" lon="6.89343">
        <ele>1507</ele>
        <time>2019-08-20T10:15:50Z</time>
      </trkpt>
      <trkpt lat="44.28415" lon="6.89407">
        <ele>1494</ele>
        <time>2019-08-20T10:16:54Z</time>
      </trkpt>
      <trkpt lat="44.28416" lon="6.89424">
        <ele>1492</ele>
        <time>2019-08-20T10:17:10Z</time>
      </trkpt>
      <trkpt lat="44.28415" lon="6.89444">
        <ele>1489</ele>
        <time>2019-08-20T10:17:29Z</time>
      </trkpt>
      <trkpt lat="44.28411" lon="6.89463">
        <ele>1490</ele>
        <time>2019-08-20T10:17:48Z</time>
      </trkpt>
      <trkpt lat="44.28403" lon="6.89482">
        <ele>1494</ele>
        <time>2019-08-20T10:18:09Z</time>
      </trkpt>
      <trkpt lat="44.28394" lon="6.89507">
        <ele>1497</ele>
        <time>2019-08-20T10:18:36Z</time>
      </trkpt>
      <trkpt lat="44.28363" lon="6.8958">
        <ele>1499</ele>
        <time>2019-08-20T10:19:57Z</time>
      </trkpt>
      <trkpt lat="44.2835" lon="6.8961">
        <ele>1501</ele>
        <time>2019-08-20T10:20:30Z</time>
      </trkpt>
      <trkpt lat="44.28338" lon="6.89645">
        <ele>1503</ele>
        <time>2019-08-20T10:21:07Z</time>
      </trkpt>
      <trkpt lat="44.28332" lon="6.89663">
        <ele>1503</ele>
        <time>2019-08-20T10:21:26Z</time>
      </trkpt>
      <trkpt lat="44.28327" lon="6.89682">
        <ele>1500</ele>
        <time>2019-08-20T10:21:46Z</time>
      </trkpt>
      <trkpt lat="44.2832" lon="6.897">
        <ele>1498</ele>
        <time>2019-08-20T10:22:05Z</time>
      </trkpt>
      <trkpt lat="44.28303" lon="6.89788">
        <ele>1479</ele>
        <time>2019-08-20T10:23:32Z</time>
      </trkpt>
      <trkpt lat="44.28302" lon="6.89793">
        <ele>1477</ele>
        <time>2019-08-20T10:23:37Z</time>
      </trkpt>
      <trkpt lat="44.28296" lon="6.89799">
        <ele>1478</ele>
        <time>2019-08-20T10:23:47Z</time>
      </trkpt>
      <trkpt lat="44.28265" lon="6.89838">
        <ele>1481</ele>
        <time>2019-08-20T10:24:43Z</time>
      </trkpt>
      <trkpt lat="44.28242" lon="6.89859">
        <ele>1480</ele>
        <time>2019-08-20T10:25:19Z</time>
      </trkpt>
      <trkpt lat="44.2822" lon="6.89864">
        <ele>1482</ele>
        <time>2019-08-20T10:25:49Z</time>
      </trkpt>
      <trkpt lat="44.28206" lon="6.8987">
        <ele>1481</ele>
        <time>2019-08-20T10:26:09Z</time>
      </trkpt>
      <trkpt lat="44.28191" lon="6.89871">
        <ele>1483</ele>
        <time>2019-08-20T10:26:29Z</time>
      </trkpt>
      <trkpt lat="44.28188" lon="6.89871">
        <ele>1484</ele>
        <time>2019-08-20T10:26:33Z</time>
      </trkpt>
      <trkpt lat="44.28164" lon="6.89868">
        <ele>1490</ele>
        <time>2019-08-20T10:27:05Z</time>
      </trkpt>
      <trkpt lat="44.2815" lon="6.89871">
        <ele>1494</ele>
        <time>2019-08-20T10:27:24Z</time>
      </trkpt>
      <trkpt lat="44.28133" lon="6.89884">
        <ele>1494</ele>
        <time>2019-08-20T10:27:50Z</time>
      </trkpt>
      <trkpt lat="44.28126" lon="6.89893">
        <ele>1493</ele>
        <time>2019-08-20T10:28:02Z</time>
      </trkpt>
      <trkpt lat="44.28106" lon="6.89906">
        <ele>1496</ele>
        <time>2019-08-20T10:28:32Z</time>
      </trkpt>
      <trkpt lat="44.28095" lon="6.89914">
        <ele>1498</ele>
        <time>2019-08-20T10:28:48Z</time>
      </trkpt>
      <trkpt lat="44.28081" lon="6.89922">
        <ele>1500</ele>
        <time>2019-08-20T10:29:09Z</time>
      </trkpt>
      <trkpt lat="44.2807" lon="6.89929">
        <ele>1500</ele>
        <time>2019-08-20T10:29:25Z</time>
      </trkpt>
      <trkpt lat="44.28047" lon="6.89947">
        <ele>1499</ele>
        <time>2019-08-20T10:30:00Z</time>
      </trkpt>
      <trkpt lat="44.28036" lon="6.8996">
        <ele>1496</ele>
        <time>2019-08-20T10:30:19Z</time>
      </trkpt>
      <trkpt lat="44.28031" lon="6.89968">
        <ele>1494</ele>
        <time>2019-08-20T10:30:29Z</time>
      </trkpt>
      <trkpt lat="44.28019" lon="6.89992">
        <ele>1488</ele>
        <time>2019-08-20T10:30:57Z</time>
      </trkpt>
      <trkpt lat="44.28013" lon="6.9">
        <ele>1487</ele>
        <time>2019-08-20T10:31:08Z</time>
      </trkpt>
      <trkpt lat="44.28007" lon="6.90005">
        <ele>1487</ele>
        <time>2019-08-20T10:31:18Z</time>
      </trkpt>
      <trkpt lat="44.27999" lon="6.90009">
        <ele>1489</ele>
        <time>2019-08-20T10:31:29Z</time>
      </trkpt>
      <trkpt lat="44.27992" lon="6.9001">
        <ele>1490</ele>
        <time>2019-08-20T10:31:38Z</time>
      </trkpt>
      <trkpt lat="44.27979" lon="6.90011">
        <ele>1494</ele>
        <time>2019-08-20T10:31:56Z</time>
      </trkpt>
      <trkpt lat="44.27974" lon="6.9001">
        <ele>1496</ele>
        <time>2019-08-20T10:32:02Z</time>
      </trkpt>
      <trkpt lat="44.2797" lon="6.90011">
        <ele>1497</ele>
        <time>2019-08-20T10:32:08Z</time>
      </trkpt>
      <trkpt lat="44.27967" lon="6.90014">
        <ele>1497</ele>
        <time>2019-08-20T10:32:13Z</time>
      </trkpt>
      <trkpt lat="44.27964" lon="6.90018">
        <ele>1496</ele>
        <time>2019-08-20T10:32:18Z</time>
      </trkpt>
      <trkpt lat="44.2796" lon="6.90026">
        <ele>1493</ele>
        <time>2019-08-20T10:32:28Z</time>
      </trkpt>
      <trkpt lat="44.27953" lon="6.90042">
        <ele>1487</ele>
        <time>2019-08-20T10:32:46Z</time>
      </trkpt>
      <trkpt lat="44.27945" lon="6.90052">
        <ele>1484</ele>
        <time>2019-08-20T10:33:00Z</time>
      </trkpt>
      <trkpt lat="44.27938" lon="6.90062">
        <ele>1482</ele>
        <time>2019-08-20T10:33:13Z</time>
      </trkpt>
      <trkpt lat="44.27928" lon="6.90068">
        <ele>1482</ele>
        <time>2019-08-20T10:33:28Z</time>
      </trkpt>
      <trkpt lat="44.27916" lon="6.90075">
        <ele>1483</ele>
        <time>2019-08-20T10:33:45Z</time>
      </trkpt>
      <trkpt lat="44.27905" lon="6.90076">
        <ele>1488</ele>
        <time>2019-08-20T10:34:00Z</time>
      </trkpt>
      <trkpt lat="44.2788" lon="6.90075">
        <ele>1502</ele>
        <time>2019-08-20T10:34:33Z</time>
      </trkpt>
      <trkpt lat="44.27871" lon="6.90076">
        <ele>1506</ele>
        <time>2019-08-20T10:34:45Z</time>
      </trkpt>
      <trkpt lat="44.27865" lon="6.90081">
        <ele>1507</ele>
        <time>2019-08-20T10:34:55Z</time>
      </trkpt>
      <trkpt lat="44.27853" lon="6.90089">
        <ele>1510</ele>
        <time>2019-08-20T10:35:12Z</time>
      </trkpt>
      <trkpt lat="44.27848" lon="6.90094">
        <ele>1510</ele>
        <time>2019-08-20T10:35:21Z</time>
      </trkpt>
      <trkpt lat="44.27847" lon="6.90096">
        <ele>1509</ele>
        <time>2019-08-20T10:35:23Z</time>
      </trkpt>
      <trkpt lat="44.27837" lon="6.9011">
        <ele>1507</ele>
        <time>2019-08-20T10:35:42Z</time>
      </trkpt>
      <trkpt lat="44.27823" lon="6.90141">
        <ele>1502</ele>
        <time>2019-08-20T10:36:17Z</time>
      </trkpt>
      <trkpt lat="44.27815" lon="6.90159">
        <ele>1499</ele>
        <time>2019-08-20T10:36:37Z</time>
      </trkpt>
      <trkpt lat="44.27795" lon="6.90208">
        <ele>1491</ele>
        <time>2019-08-20T10:37:31Z</time>
      </trkpt>
      <trkpt lat="44.27785" lon="6.90225">
        <ele>1489</ele>
        <time>2019-08-20T10:37:52Z</time>
      </trkpt>
      <trkpt lat="44.27776" lon="6.90238">
        <ele>1488</ele>
        <time>2019-08-20T10:38:09Z</time>
      </trkpt>
      <trkpt lat="44.27769" lon="6.90245">
        <ele>1489</ele>
        <time>2019-08-20T10:38:21Z</time>
      </trkpt>
      <trkpt lat="44.27761" lon="6.90249">
        <ele>1492</ele>
        <time>2019-08-20T10:38:32Z</time>
      </trkpt>
      <trkpt lat="44.2775" lon="6.9025">
        <ele>1499</ele>
        <time>2019-08-20T10:38:47Z</time>
      </trkpt>
      <trkpt lat="44.27742" lon="6.90256">
        <ele>1502</ele>
        <time>2019-08-20T10:38:59Z</time>
      </trkpt>
      <trkpt lat="44.27736" lon="6.90267">
        <ele>1501</ele>
        <time>2019-08-20T10:39:12Z</time>
      </trkpt>
      <trkpt lat="44.27729" lon="6.90283">
        <ele>1497</ele>
        <time>2019-08-20T10:39:30Z</time>
      </trkpt>
      <trkpt lat="44.27726" lon="6.90295">
        <ele>1493</ele>
        <time>2019-08-20T10:39:42Z</time>
      </trkpt>
      <trkpt lat="44.27721" lon="6.90306">
        <ele>1491</ele>
        <time>2019-08-20T10:39:55Z</time>
      </trkpt>
      <trkpt lat="44.27716" lon="6.90313">
        <ele>1490</ele>
        <time>2019-08-20T10:40:04Z</time>
      </trkpt>
      <trkpt lat="44.27707" lon="6.90322">
        <ele>1492</ele>
        <time>2019-08-20T10:40:19Z</time>
      </trkpt>
      <trkpt lat="44.277" lon="6.90333">
        <ele>1491</ele>
        <time>2019-08-20T10:40:33Z</time>
      </trkpt>
      <trkpt lat="44.27691" lon="6.90348">
        <ele>1488</ele>
        <time>2019-08-20T10:40:52Z</time>
      </trkpt>
      <trkpt lat="44.27681" lon="6.90379">
        <ele>1476</ele>
        <time>2019-08-20T10:41:24Z</time>
      </trkpt>
      <trkpt lat="44.27676" lon="6.90388">
        <ele>1473</ele>
        <time>2019-08-20T10:41:35Z</time>
      </trkpt>
      <trkpt lat="44.27668" lon="6.90395">
        <ele>1474</ele>
        <time>2019-08-20T10:41:48Z</time>
      </trkpt>
      <trkpt lat="44.2766" lon="6.90399">
        <ele>1477</ele>
        <time>2019-08-20T10:41:59Z</time>
      </trkpt>
      <trkpt lat="44.27652" lon="6.904">
        <ele>1481</ele>
        <time>2019-08-20T10:42:10Z</time>
      </trkpt>
      <trkpt lat="44.27643" lon="6.90406">
        <ele>1483</ele>
        <time>2019-08-20T10:42:23Z</time>
      </trkpt>
      <trkpt lat="44.27625" lon="6.90429">
        <ele>1480</ele>
        <time>2019-08-20T10:42:55Z</time>
      </trkpt>
      <trkpt lat="44.27619" lon="6.90437">
        <ele>1478</ele>
        <time>2019-08-20T10:43:07Z</time>
      </trkpt>
      <trkpt lat="44.27611" lon="6.90444">
        <ele>1478</ele>
        <time>2019-08-20T10:43:19Z</time>
      </trkpt>
      <trkpt lat="44.27602" lon="6.90452">
        <ele>1479</ele>
        <time>2019-08-20T10:43:33Z</time>
      </trkpt>
      <trkpt lat="44.27587" lon="6.90461">
        <ele>1482</ele>
        <time>2019-08-20T10:43:55Z</time>
      </trkpt>
      <trkpt lat="44.27584" lon="6.90465">
        <ele>1481</ele>
        <time>2019-08-20T10:44:01Z</time>
      </trkpt>
      <trkpt lat="44.27574" lon="6.90469">
        <ele>1485</ele>
        <time>2019-08-20T10:44:15Z</time>
      </trkpt>
      <trkpt lat="44.27567" lon="6.90472">
        <ele>1488</ele>
        <time>2019-08-20T10:44:24Z</time>
      </trkpt>
      <trkpt lat="44.2756" lon="6.90476">
        <ele>1490</ele>
        <time>2019-08-20T10:44:34Z</time>
      </trkpt>
      <trkpt lat="44.27548" lon="6.90484">
        <ele>1493</ele>
        <time>2019-08-20T10:44:52Z</time>
      </trkpt>
      <trkpt lat="44.27541" lon="6.90492">
        <ele>1493</ele>
        <time>2019-08-20T10:45:04Z</time>
      </trkpt>
      <trkpt lat="44.27537" lon="6.90495">
        <ele>1493</ele>
        <time>2019-08-20T10:45:10Z</time>
      </trkpt>
      <trkpt lat="44.27532" lon="6.90499">
        <ele>1494</ele>
        <time>2019-08-20T10:45:18Z</time>
      </trkpt>
      <trkpt lat="44.27528" lon="6.90504">
        <ele>1494</ele>
        <time>2019-08-20T10:45:25Z</time>
      </trkpt>
      <trkpt lat="44.27525" lon="6.90509">
        <ele>1494</ele>
        <time>2019-08-20T10:45:31Z</time>
      </trkpt>
      <trkpt lat="44.2752" lon="6.90512">
        <ele>1496</ele>
        <time>2019-08-20T10:45:39Z</time>
      </trkpt>
      <trkpt lat="44.27516" lon="6.90514">
        <ele>1498</ele>
        <time>2019-08-20T10:45:44Z</time>
      </trkpt>
      <trkpt lat="44.27512" lon="6.90514">
        <ele>1501</ele>
        <time>2019-08-20T10:45:50Z</time>
      </trkpt>
      <trkpt lat="44.27509" lon="6.90517">
        <ele>1501</ele>
        <time>2019-08-20T10:45:55Z</time>
      </trkpt>
      <trkpt lat="44.27502" lon="6.9053">
        <ele>1500</ele>
        <time>2019-08-20T10:46:10Z</time>
      </trkpt>
      <trkpt lat="44.27497" lon="6.90544">
        <ele>1497</ele>
        <time>2019-08-20T10:46:25Z</time>
      </trkpt>
      <trkpt lat="44.27497" lon="6.90545">
        <ele>1496</ele>
        <time>2019-08-20T10:46:26Z</time>
      </trkpt>
      <trkpt lat="44.27492" lon="6.9056">
        <ele>1493</ele>
        <time>2019-08-20T10:46:42Z</time>
      </trkpt>
      <trkpt lat="44.2749" lon="6.90572">
        <ele>1488</ele>
        <time>2019-08-20T10:46:54Z</time>
      </trkpt>
      <trkpt lat="44.27486" lon="6.90581">
        <ele>1487</ele>
        <time>2019-08-20T10:47:04Z</time>
      </trkpt>
      <trkpt lat="44.27479" lon="6.90585">
        <ele>1491</ele>
        <time>2019-08-20T10:47:14Z</time>
      </trkpt>
      <trkpt lat="44.27475" lon="6.90586">
        <ele>1493</ele>
        <time>2019-08-20T10:47:19Z</time>
      </trkpt>
      <trkpt lat="44.27472" lon="6.90592">
        <ele>1493</ele>
        <time>2019-08-20T10:47:26Z</time>
      </trkpt>
      <trkpt lat="44.2747" lon="6.90599">
        <ele>1492</ele>
        <time>2019-08-20T10:47:33Z</time>
      </trkpt>
      <trkpt lat="44.27468" lon="6.90612">
        <ele>1489</ele>
        <time>2019-08-20T10:47:46Z</time>
      </trkpt>
      <trkpt lat="44.27468" lon="6.9062">
        <ele>1486</ele>
        <time>2019-08-20T10:47:54Z</time>
      </trkpt>
      <trkpt lat="44.27468" lon="6.90629">
        <ele>1483</ele>
        <time>2019-08-20T10:48:02Z</time>
      </trkpt>
      <trkpt lat="44.27465" lon="6.90633">
        <ele>1484</ele>
        <time>2019-08-20T10:48:08Z</time>
      </trkpt>
      <trkpt lat="44.27461" lon="6.90639">
        <ele>1485</ele>
        <time>2019-08-20T10:48:16Z</time>
      </trkpt>
      <trkpt lat="44.27453" lon="6.90645">
        <ele>1489</ele>
        <time>2019-08-20T10:48:28Z</time>
      </trkpt>
      <trkpt lat="44.27446" lon="6.90647">
        <ele>1494</ele>
        <time>2019-08-20T10:48:37Z</time>
      </trkpt>
      <trkpt lat="44.2744" lon="6.90653">
        <ele>1496</ele>
        <time>2019-08-20T10:48:47Z</time>
      </trkpt>
      <trkpt lat="44.27438" lon="6.90657">
        <ele>1496</ele>
        <time>2019-08-20T10:48:52Z</time>
      </trkpt>
      <trkpt lat="44.27435" lon="6.90661">
        <ele>1497</ele>
        <time>2019-08-20T10:48:57Z</time>
      </trkpt>
      <trkpt lat="44.27432" lon="6.90668">
        <ele>1497</ele>
        <time>2019-08-20T10:49:05Z</time>
      </trkpt>
      <trkpt lat="44.27431" lon="6.90682">
        <ele>1493</ele>
        <time>2019-08-20T10:49:19Z</time>
      </trkpt>
      <trkpt lat="44.27429" lon="6.9069">
        <ele>1492</ele>
        <time>2019-08-20T10:49:27Z</time>
      </trkpt>
      <trkpt lat="44.27417" lon="6.90712">
        <ele>1495</ele>
        <time>2019-08-20T10:49:53Z</time>
      </trkpt>
      <trkpt lat="44.27415" lon="6.90719">
        <ele>1495</ele>
        <time>2019-08-20T10:50:00Z</time>
      </trkpt>
      <trkpt lat="44.2741" lon="6.90727">
        <ele>1497</ele>
        <time>2019-08-20T10:50:11Z</time>
      </trkpt>
      <trkpt lat="44.27408" lon="6.90732">
        <ele>1498</ele>
        <time>2019-08-20T10:50:16Z</time>
      </trkpt>
      <trkpt lat="44.27404" lon="6.90744">
        <ele>1498</ele>
        <time>2019-08-20T10:50:29Z</time>
      </trkpt>
      <trkpt lat="44.27402" lon="6.90768">
        <ele>1494</ele>
        <time>2019-08-20T10:50:52Z</time>
      </trkpt>
      <trkpt lat="44.27402" lon="6.90779">
        <ele>1491</ele>
        <time>2019-08-20T10:51:02Z</time>
      </trkpt>
      <trkpt lat="44.27398" lon="6.90792">
        <ele>1492</ele>
        <time>2019-08-20T10:51:16Z</time>
      </trkpt>
      <trkpt lat="44.27394" lon="6.90798">
        <ele>1495</ele>
        <time>2019-08-20T10:51:24Z</time>
      </trkpt>
      <trkpt lat="44.2739" lon="6.90804">
        <ele>1498</ele>
        <time>2019-08-20T10:51:32Z</time>
      </trkpt>
      <trkpt lat="44.27384" lon="6.90815">
        <ele>1502</ele>
        <time>2019-08-20T10:51:45Z</time>
      </trkpt>
      <trkpt lat="44.2738" lon="6.90824">
        <ele>1505</ele>
        <time>2019-08-20T10:51:55Z</time>
      </trkpt>
      <trkpt lat="44.27379" lon="6.90836">
        <ele>1503</ele>
        <time>2019-08-20T10:52:06Z</time>
      </trkpt>
      <trkpt lat="44.27379" lon="6.90844">
        <ele>1499</ele>
        <time>2019-08-20T10:52:14Z</time>
      </trkpt>
      <trkpt lat="44.2737" lon="6.90894">
        <ele>1490</ele>
        <time>2019-08-20T10:53:03Z</time>
      </trkpt>
      <trkpt lat="44.2737" lon="6.90899">
        <ele>1488</ele>
        <time>2019-08-20T10:53:08Z</time>
      </trkpt>
      <trkpt lat="44.27368" lon="6.90908">
        <ele>1486</ele>
        <time>2019-08-20T10:53:17Z</time>
      </trkpt>
      <trkpt lat="44.27366" lon="6.90911">
        <ele>1487</ele>
        <time>2019-08-20T10:53:21Z</time>
      </trkpt>
      <trkpt lat="44.27364" lon="6.90913">
        <ele>1489</ele>
        <time>2019-08-20T10:53:24Z</time>
      </trkpt>
      <trkpt lat="44.27359" lon="6.90922">
        <ele>1491</ele>
        <time>2019-08-20T10:53:35Z</time>
      </trkpt>
      <trkpt lat="44.27357" lon="6.90929">
        <ele>1491</ele>
        <time>2019-08-20T10:53:42Z</time>
      </trkpt>
      <trkpt lat="44.27357" lon="6.90934">
        <ele>1489</ele>
        <time>2019-08-20T10:53:47Z</time>
      </trkpt>
      <trkpt lat="44.27358" lon="6.90944">
        <ele>1485</ele>
        <time>2019-08-20T10:53:57Z</time>
      </trkpt>
      <trkpt lat="44.27358" lon="6.90954">
        <ele>1481</ele>
        <time>2019-08-20T10:54:06Z</time>
      </trkpt>
      <trkpt lat="44.27358" lon="6.90964">
        <ele>1478</ele>
        <time>2019-08-20T10:54:16Z</time>
      </trkpt>
      <trkpt lat="44.27357" lon="6.90969">
        <ele>1477</ele>
        <time>2019-08-20T10:54:21Z</time>
      </trkpt>
      <trkpt lat="44.27356" lon="6.90977">
        <ele>1476</ele>
        <time>2019-08-20T10:54:29Z</time>
      </trkpt>
      <trkpt lat="44.27354" lon="6.90982">
        <ele>1476</ele>
        <time>2019-08-20T10:54:34Z</time>
      </trkpt>
      <trkpt lat="44.27352" lon="6.90987">
        <ele>1476</ele>
        <time>2019-08-20T10:54:40Z</time>
      </trkpt>
      <trkpt lat="44.2735" lon="6.9099">
        <ele>1477</ele>
        <time>2019-08-20T10:54:43Z</time>
      </trkpt>
      <trkpt lat="44.27346" lon="6.90995">
        <ele>1479</ele>
        <time>2019-08-20T10:54:51Z</time>
      </trkpt>
      <trkpt lat="44.27342" lon="6.90999">
        <ele>1482</ele>
        <time>2019-08-20T10:54:57Z</time>
      </trkpt>
      <trkpt lat="44.27341" lon="6.91002">
        <ele>1482</ele>
        <time>2019-08-20T10:55:00Z</time>
      </trkpt>
      <trkpt lat="44.27336" lon="6.91007">
        <ele>1485</ele>
        <time>2019-08-20T10:55:09Z</time>
      </trkpt>
      <trkpt lat="44.27332" lon="6.91011">
        <ele>1488</ele>
        <time>2019-08-20T10:55:15Z</time>
      </trkpt>
      <trkpt lat="44.27328" lon="6.91012">
        <ele>1493</ele>
        <time>2019-08-20T10:55:21Z</time>
      </trkpt>
      <trkpt lat="44.27325" lon="6.91013">
        <ele>1496</ele>
        <time>2019-08-20T10:55:25Z</time>
      </trkpt>
      <trkpt lat="44.27321" lon="6.91017">
        <ele>1499</ele>
        <time>2019-08-20T10:55:31Z</time>
      </trkpt>
      <trkpt lat="44.27318" lon="6.91023">
        <ele>1500</ele>
        <time>2019-08-20T10:55:38Z</time>
      </trkpt>
      <trkpt lat="44.27316" lon="6.9103">
        <ele>1500</ele>
        <time>2019-08-20T10:55:45Z</time>
      </trkpt>
      <trkpt lat="44.27316" lon="6.91038">
        <ele>1498</ele>
        <time>2019-08-20T10:55:53Z</time>
      </trkpt>
      <trkpt lat="44.27316" lon="6.91042">
        <ele>1496</ele>
        <time>2019-08-20T10:55:57Z</time>
      </trkpt>
      <trkpt lat="44.27317" lon="6.91051">
        <ele>1492</ele>
        <time>2019-08-20T10:56:06Z</time>
      </trkpt>
      <trkpt lat="44.27317" lon="6.91058">
        <ele>1490</ele>
        <time>2019-08-20T10:56:12Z</time>
      </trkpt>
      <trkpt lat="44.27314" lon="6.91066">
        <ele>1491</ele>
        <time>2019-08-20T10:56:21Z</time>
      </trkpt>
      <trkpt lat="44.27308" lon="6.91073">
        <ele>1495</ele>
        <time>2019-08-20T10:56:31Z</time>
      </trkpt>
      <trkpt lat="44.27304" lon="6.9108">
        <ele>1496</ele>
        <time>2019-08-20T10:56:40Z</time>
      </trkpt>
      <trkpt lat="44.273" lon="6.91092">
        <ele>1496</ele>
        <time>2019-08-20T10:56:53Z</time>
      </trkpt>
      <trkpt lat="44.27299" lon="6.91102">
        <ele>1493</ele>
        <time>2019-08-20T10:57:02Z</time>
      </trkpt>
      <trkpt lat="44.27295" lon="6.91121">
        <ele>1490</ele>
        <time>2019-08-20T10:57:21Z</time>
      </trkpt>
      <trkpt lat="44.27288" lon="6.91132">
        <ele>1493</ele>
        <time>2019-08-20T10:57:35Z</time>
      </trkpt>
      <trkpt lat="44.27276" lon="6.91156">
        <ele>1494</ele>
        <time>2019-08-20T10:58:03Z</time>
      </trkpt>
      <trkpt lat="44.2727" lon="6.91169">
        <ele>1494</ele>
        <time>2019-08-20T10:58:18Z</time>
      </trkpt>
      <trkpt lat="44.27268" lon="6.91176">
        <ele>1493</ele>
        <time>2019-08-20T10:58:25Z</time>
      </trkpt>
      <trkpt lat="44.27267" lon="6.91182">
        <ele>1491</ele>
        <time>2019-08-20T10:58:31Z</time>
      </trkpt>
      <trkpt lat="44.27265" lon="6.9121">
        <ele>1479</ele>
        <time>2019-08-20T10:58:58Z</time>
      </trkpt>
      <trkpt lat="44.27263" lon="6.91225">
        <ele>1473</ele>
        <time>2019-08-20T10:59:12Z</time>
      </trkpt>
      <trkpt lat="44.27257" lon="6.91237">
        <ele>1472</ele>
        <time>2019-08-20T10:59:26Z</time>
      </trkpt>
      <trkpt lat="44.27248" lon="6.9125">
        <ele>1472</ele>
        <time>2019-08-20T10:59:44Z</time>
      </trkpt>
      <trkpt lat="44.27241" lon="6.91256">
        <ele>1475</ele>
        <time>2019-08-20T10:59:55Z</time>
      </trkpt>
      <trkpt lat="44.27232" lon="6.9126">
        <ele>1481</ele>
        <time>2019-08-20T11:00:07Z</time>
      </trkpt>
      <trkpt lat="44.27226" lon="6.9126">
        <ele>1486</ele>
        <time>2019-08-20T11:00:15Z</time>
      </trkpt>
      <trkpt lat="44.27218" lon="6.91262">
        <ele>1491</ele>
        <time>2019-08-20T11:00:26Z</time>
      </trkpt>
      <trkpt lat="44.27213" lon="6.91263">
        <ele>1495</ele>
        <time>2019-08-20T11:00:33Z</time>
      </trkpt>
      <trkpt lat="44.27209" lon="6.91265">
        <ele>1498</ele>
        <time>2019-08-20T11:00:39Z</time>
      </trkpt>
      <trkpt lat="44.27204" lon="6.91269">
        <ele>1500</ele>
        <time>2019-08-20T11:00:46Z</time>
      </trkpt>
      <trkpt lat="44.272" lon="6.91272">
        <ele>1502</ele>
        <time>2019-08-20T11:00:52Z</time>
      </trkpt>
      <trkpt lat="44.27197" lon="6.91278">
        <ele>1501</ele>
        <time>2019-08-20T11:00:59Z</time>
      </trkpt>
      <trkpt lat="44.27193" lon="6.91285">
        <ele>1501</ele>
        <time>2019-08-20T11:01:08Z</time>
      </trkpt>
      <trkpt lat="44.27192" lon="6.91291">
        <ele>1499</ele>
        <time>2019-08-20T11:01:14Z</time>
      </trkpt>
      <trkpt lat="44.27189" lon="6.91296">
        <ele>1499</ele>
        <time>2019-08-20T11:01:20Z</time>
      </trkpt>
      <trkpt lat="44.27187" lon="6.91307">
        <ele>1495</ele>
        <time>2019-08-20T11:01:31Z</time>
      </trkpt>
      <trkpt lat="44.27186" lon="6.9131">
        <ele>1494</ele>
        <time>2019-08-20T11:01:34Z</time>
      </trkpt>
      <trkpt lat="44.27184" lon="6.91312">
        <ele>1494</ele>
        <time>2019-08-20T11:01:37Z</time>
      </trkpt>
      <trkpt lat="44.27182" lon="6.91313">
        <ele>1496</ele>
        <time>2019-08-20T11:01:40Z</time>
      </trkpt>
      <trkpt lat="44.2718" lon="6.91319">
        <ele>1494</ele>
        <time>2019-08-20T11:01:46Z</time>
      </trkpt>
      <trkpt lat="44.27177" lon="6.91324">
        <ele>1494</ele>
        <time>2019-08-20T11:01:53Z</time>
      </trkpt>
      <trkpt lat="44.27175" lon="6.91328">
        <ele>1493</ele>
        <time>2019-08-20T11:01:57Z</time>
      </trkpt>
      <trkpt lat="44.26933" lon="6.91512">
        <ele>1616</ele>
        <time>2019-08-20T11:08:05Z</time>
      </trkpt>
      <trkpt lat="44.26773" lon="6.91635">
        <ele>1465</ele>
        <time>2019-08-20T11:12:09Z</time>
      </trkpt>
      <trkpt lat="44.26767" lon="6.91609">
        <ele>1465</ele>
        <time>2019-08-20T11:12:35Z</time>
      </trkpt>
      <trkpt lat="44.26766" lon="6.91603">
        <ele>1465</ele>
        <time>2019-08-20T11:12:41Z</time>
      </trkpt>
      <trkpt lat="44.26767" lon="6.91599">
        <ele>1466</ele>
        <time>2019-08-20T11:12:45Z</time>
      </trkpt>
      <trkpt lat="44.26767" lon="6.91593">
        <ele>1467</ele>
        <time>2019-08-20T11:12:51Z</time>
      </trkpt>
      <trkpt lat="44.26767" lon="6.91586">
        <ele>1468</ele>
        <time>2019-08-20T11:12:57Z</time>
      </trkpt>
      <trkpt lat="44.26765" lon="6.91578">
        <ele>1468</ele>
        <time>2019-08-20T11:13:05Z</time>
      </trkpt>
      <trkpt lat="44.26763" lon="6.9157">
        <ele>1469</ele>
        <time>2019-08-20T11:13:13Z</time>
      </trkpt>
      <trkpt lat="44.26756" lon="6.91556">
        <ele>1466</ele>
        <time>2019-08-20T11:13:30Z</time>
      </trkpt>
      <trkpt lat="44.26754" lon="6.91552">
        <ele>1466</ele>
        <time>2019-08-20T11:13:34Z</time>
      </trkpt>
      <trkpt lat="44.2675" lon="6.91546">
        <ele>1464</ele>
        <time>2019-08-20T11:13:42Z</time>
      </trkpt>
      <trkpt lat="44.26748" lon="6.91541">
        <ele>1464</ele>
        <time>2019-08-20T11:13:48Z</time>
      </trkpt>
      <trkpt lat="44.26745" lon="6.91536">
        <ele>1463</ele>
        <time>2019-08-20T11:13:54Z</time>
      </trkpt>
      <trkpt lat="44.2674" lon="6.91529">
        <ele>1462</ele>
        <time>2019-08-20T11:14:03Z</time>
      </trkpt>
      <trkpt lat="44.26738" lon="6.91526">
        <ele>1462</ele>
        <time>2019-08-20T11:14:07Z</time>
      </trkpt>
      <trkpt lat="44.26721" lon="6.91511">
        <ele>1457</ele>
        <time>2019-08-20T11:14:34Z</time>
      </trkpt>
      <trkpt lat="44.26715" lon="6.91506">
        <ele>1455</ele>
        <time>2019-08-20T11:14:43Z</time>
      </trkpt>
      <trkpt lat="44.26705" lon="6.91496">
        <ele>1453</ele>
        <time>2019-08-20T11:15:00Z</time>
      </trkpt>
      <trkpt lat="44.26701" lon="6.91493">
        <ele>1452</ele>
        <time>2019-08-20T11:15:06Z</time>
      </trkpt>
      <trkpt lat="44.26692" lon="6.91478">
        <ele>1453</ele>
        <time>2019-08-20T11:15:25Z</time>
      </trkpt>
      <trkpt lat="44.2669" lon="6.91477">
        <ele>1452</ele>
        <time>2019-08-20T11:15:27Z</time>
      </trkpt>
      <trkpt lat="44.26689" lon="6.91478">
        <ele>1451</ele>
        <time>2019-08-20T11:15:29Z</time>
      </trkpt>
      <trkpt lat="44.26688" lon="6.91481">
        <ele>1450</ele>
        <time>2019-08-20T11:15:32Z</time>
      </trkpt>
      <trkpt lat="44.26688" lon="6.91487">
        <ele>1448</ele>
        <time>2019-08-20T11:15:38Z</time>
      </trkpt>
      <trkpt lat="44.26687" lon="6.91493">
        <ele>1446</ele>
        <time>2019-08-20T11:15:44Z</time>
      </trkpt>
      <trkpt lat="44.26686" lon="6.91495">
        <ele>1445</ele>
        <time>2019-08-20T11:15:46Z</time>
      </trkpt>
      <trkpt lat="44.26685" lon="6.91497">
        <ele>1444</ele>
        <time>2019-08-20T11:15:49Z</time>
      </trkpt>
      <trkpt lat="44.26681" lon="6.91502">
        <ele>1440</ele>
        <time>2019-08-20T11:15:56Z</time>
      </trkpt>
      <trkpt lat="44.26679" lon="6.91503">
        <ele>1439</ele>
        <time>2019-08-20T11:15:59Z</time>
      </trkpt>
      <trkpt lat="44.26676" lon="6.91501">
        <ele>1438</ele>
        <time>2019-08-20T11:16:03Z</time>
      </trkpt>
      <trkpt lat="44.26675" lon="6.915">
        <ele>1438</ele>
        <time>2019-08-20T11:16:05Z</time>
      </trkpt>
      <trkpt lat="44.26673" lon="6.91495">
        <ele>1439</ele>
        <time>2019-08-20T11:16:10Z</time>
      </trkpt>
      <trkpt lat="44.26672" lon="6.91491">
        <ele>1439</ele>
        <time>2019-08-20T11:16:14Z</time>
      </trkpt>
      <trkpt lat="44.26671" lon="6.91483">
        <ele>1441</ele>
        <time>2019-08-20T11:16:22Z</time>
      </trkpt>
      <trkpt lat="44.26667" lon="6.91481">
        <ele>1440</ele>
        <time>2019-08-20T11:16:28Z</time>
      </trkpt>
      <trkpt lat="44.26662" lon="6.91481">
        <ele>1439</ele>
        <time>2019-08-20T11:16:34Z</time>
      </trkpt>
      <trkpt lat="44.26659" lon="6.91483">
        <ele>1438</ele>
        <time>2019-08-20T11:16:39Z</time>
      </trkpt>
      <trkpt lat="44.26657" lon="6.91485">
        <ele>1437</ele>
        <time>2019-08-20T11:16:42Z</time>
      </trkpt>
      <trkpt lat="44.26655" lon="6.91487">
        <ele>1436</ele>
        <time>2019-08-20T11:16:45Z</time>
      </trkpt>
      <trkpt lat="44.26652" lon="6.91494">
        <ele>1433</ele>
        <time>2019-08-20T11:16:53Z</time>
      </trkpt>
      <trkpt lat="44.2665" lon="6.91495">
        <ele>1432</ele>
        <time>2019-08-20T11:16:56Z</time>
      </trkpt>
      <trkpt lat="44.26647" lon="6.91494">
        <ele>1432</ele>
        <time>2019-08-20T11:17:00Z</time>
      </trkpt>
      <trkpt lat="44.26643" lon="6.91491">
        <ele>1432</ele>
        <time>2019-08-20T11:17:06Z</time>
      </trkpt>
      <trkpt lat="44.26639" lon="6.91487">
        <ele>1432</ele>
        <time>2019-08-20T11:17:13Z</time>
      </trkpt>
      <trkpt lat="44.26638" lon="6.91487">
        <ele>1432</ele>
        <time>2019-08-20T11:17:14Z</time>
      </trkpt>
      <trkpt lat="44.26636" lon="6.91488">
        <ele>1431</ele>
        <time>2019-08-20T11:17:17Z</time>
      </trkpt>
      <trkpt lat="44.26633" lon="6.91496">
        <ele>1428</ele>
        <time>2019-08-20T11:17:25Z</time>
      </trkpt>
      <trkpt lat="44.26632" lon="6.91499">
        <ele>1427</ele>
        <time>2019-08-20T11:17:29Z</time>
      </trkpt>
      <trkpt lat="44.2663" lon="6.91515">
        <ele>1422</ele>
        <time>2019-08-20T11:17:44Z</time>
      </trkpt>
      <trkpt lat="44.26629" lon="6.91518">
        <ele>1421</ele>
        <time>2019-08-20T11:17:47Z</time>
      </trkpt>
      <trkpt lat="44.26626" lon="6.91522">
        <ele>1419</ele>
        <time>2019-08-20T11:17:53Z</time>
      </trkpt>
      <trkpt lat="44.26622" lon="6.91526">
        <ele>1416</ele>
        <time>2019-08-20T11:17:59Z</time>
      </trkpt>
      <trkpt lat="44.26617" lon="6.91534">
        <ele>1412</ele>
        <time>2019-08-20T11:18:10Z</time>
      </trkpt>
      <trkpt lat="44.26614" lon="6.91538">
        <ele>1410</ele>
        <time>2019-08-20T11:18:15Z</time>
      </trkpt>
      <trkpt lat="44.26612" lon="6.91539">
        <ele>1409</ele>
        <time>2019-08-20T11:18:18Z</time>
      </trkpt>
      <trkpt lat="44.26609" lon="6.91538">
        <ele>1408</ele>
        <time>2019-08-20T11:18:22Z</time>
      </trkpt>
      <trkpt lat="44.26607" lon="6.91538">
        <ele>1408</ele>
        <time>2019-08-20T11:18:25Z</time>
      </trkpt>
      <trkpt lat="44.26605" lon="6.9154">
        <ele>1406</ele>
        <time>2019-08-20T11:18:28Z</time>
      </trkpt>
      <trkpt lat="44.26603" lon="6.91542">
        <ele>1405</ele>
        <time>2019-08-20T11:18:31Z</time>
      </trkpt>
      <trkpt lat="44.26595" lon="6.91554">
        <ele>1398</ele>
        <time>2019-08-20T11:18:47Z</time>
      </trkpt>
      <trkpt lat="44.26594" lon="6.91555">
        <ele>1397</ele>
        <time>2019-08-20T11:18:49Z</time>
      </trkpt>
      <trkpt lat="44.26591" lon="6.91556">
        <ele>1395</ele>
        <time>2019-08-20T11:18:53Z</time>
      </trkpt>
      <trkpt lat="44.26585" lon="6.91553">
        <ele>1394</ele>
        <time>2019-08-20T11:19:01Z</time>
      </trkpt>
      <trkpt lat="44.26583" lon="6.91554">
        <ele>1393</ele>
        <time>2019-08-20T11:19:04Z</time>
      </trkpt>
      <trkpt lat="44.26578" lon="6.9156">
        <ele>1389</ele>
        <time>2019-08-20T11:19:13Z</time>
      </trkpt>
      <trkpt lat="44.26576" lon="6.91565">
        <ele>1387</ele>
        <time>2019-08-20T11:19:18Z</time>
      </trkpt>
      <trkpt lat="44.26574" lon="6.91567">
        <ele>1385</ele>
        <time>2019-08-20T11:19:22Z</time>
      </trkpt>
      <trkpt lat="44.26568" lon="6.91569">
        <ele>1383</ele>
        <time>2019-08-20T11:19:30Z</time>
      </trkpt>
      <trkpt lat="44.26566" lon="6.91572">
        <ele>1381</ele>
        <time>2019-08-20T11:19:34Z</time>
      </trkpt>
      <trkpt lat="44.26565" lon="6.9157">
        <ele>1381</ele>
        <time>2019-08-20T11:19:36Z</time>
      </trkpt>
      <trkpt lat="44.26562" lon="6.9157">
        <ele>1380</ele>
        <time>2019-08-20T11:19:40Z</time>
      </trkpt>
      <trkpt lat="44.26558" lon="6.91569">
        <ele>1380</ele>
        <time>2019-08-20T11:19:45Z</time>
      </trkpt>
      <trkpt lat="44.26551" lon="6.91569">
        <ele>1378</ele>
        <time>2019-08-20T11:19:55Z</time>
      </trkpt>
      <trkpt lat="44.26545" lon="6.91569">
        <ele>1376</ele>
        <time>2019-08-20T11:20:03Z</time>
      </trkpt>
      <trkpt lat="44.26535" lon="6.9157">
        <ele>1373</ele>
        <time>2019-08-20T11:20:16Z</time>
      </trkpt>
      <trkpt lat="44.26527" lon="6.91571">
        <ele>1370</ele>
        <time>2019-08-20T11:20:27Z</time>
      </trkpt>
      <trkpt lat="44.2652" lon="6.91571">
        <ele>1368</ele>
        <time>2019-08-20T11:20:36Z</time>
      </trkpt>
      <trkpt lat="44.26515" lon="6.9157">
        <ele>1367</ele>
        <time>2019-08-20T11:20:43Z</time>
      </trkpt>
      <trkpt lat="44.2651" lon="6.91568">
        <ele>1366</ele>
        <time>2019-08-20T11:20:50Z</time>
      </trkpt>
      <trkpt lat="44.26507" lon="6.91566">
        <ele>1366</ele>
        <time>2019-08-20T11:20:54Z</time>
      </trkpt>
      <trkpt lat="44.26501" lon="6.91559">
        <ele>1367</ele>
        <time>2019-08-20T11:21:05Z</time>
      </trkpt>
      <trkpt lat="44.26496" lon="6.91553">
        <ele>1368</ele>
        <time>2019-08-20T11:21:14Z</time>
      </trkpt>
      <trkpt lat="44.2649" lon="6.91547">
        <ele>1369</ele>
        <time>2019-08-20T11:21:23Z</time>
      </trkpt>
      <trkpt lat="44.26486" lon="6.91543">
        <ele>1370</ele>
        <time>2019-08-20T11:21:30Z</time>
      </trkpt>
      <trkpt lat="44.26485" lon="6.91543">
        <ele>1370</ele>
        <time>2019-08-20T11:21:31Z</time>
      </trkpt>
      <trkpt lat="44.26482" lon="6.91541">
        <ele>1370</ele>
        <time>2019-08-20T11:21:36Z</time>
      </trkpt>
      <trkpt lat="44.26468" lon="6.91557">
        <ele>1360</ele>
        <time>2019-08-20T11:22:00Z</time>
      </trkpt>
      <trkpt lat="44.26462" lon="6.91567">
        <ele>1355</ele>
        <time>2019-08-20T11:22:12Z</time>
      </trkpt>
      <trkpt lat="44.26458" lon="6.91579">
        <ele>1350</ele>
        <time>2019-08-20T11:22:25Z</time>
      </trkpt>
      <trkpt lat="44.26457" lon="6.9159">
        <ele>1346</ele>
        <time>2019-08-20T11:22:36Z</time>
      </trkpt>
      <trkpt lat="44.26453" lon="6.91604">
        <ele>1343</ele>
        <time>2019-08-20T11:22:50Z</time>
      </trkpt>
      <trkpt lat="44.26447" lon="6.91618">
        <ele>1338</ele>
        <time>2019-08-20T11:23:06Z</time>
      </trkpt>
      <trkpt lat="44.26431" lon="6.91648">
        <ele>1327</ele>
        <time>2019-08-20T11:23:41Z</time>
      </trkpt>
      <trkpt lat="44.26425" lon="6.91657">
        <ele>1323</ele>
        <time>2019-08-20T11:23:53Z</time>
      </trkpt>
      <trkpt lat="44.26419" lon="6.91661">
        <ele>1320</ele>
        <time>2019-08-20T11:24:02Z</time>
      </trkpt>
      <trkpt lat="44.26418" lon="6.91661">
        <ele>1320</ele>
        <time>2019-08-20T11:24:03Z</time>
      </trkpt>
      <trkpt lat="44.26407" lon="6.91664">
        <ele>1316</ele>
        <time>2019-08-20T11:24:18Z</time>
      </trkpt>
      <trkpt lat="44.26393" lon="6.91669">
        <ele>1310</ele>
        <time>2019-08-20T11:24:38Z</time>
      </trkpt>
      <trkpt lat="44.26377" lon="6.91676">
        <ele>1305</ele>
        <time>2019-08-20T11:25:00Z</time>
      </trkpt>
      <trkpt lat="44.26369" lon="6.91683">
        <ele>1302</ele>
        <time>2019-08-20T11:25:13Z</time>
      </trkpt>
      <trkpt lat="44.26355" lon="6.91688">
        <ele>1297</ele>
        <time>2019-08-20T11:25:32Z</time>
      </trkpt>
      <trkpt lat="44.26351" lon="6.91688">
        <ele>1295</ele>
        <time>2019-08-20T11:25:37Z</time>
      </trkpt>
      <trkpt lat="44.26346" lon="6.91687">
        <ele>1294</ele>
        <time>2019-08-20T11:25:44Z</time>
      </trkpt>
      <trkpt lat="44.26335" lon="6.91682">
        <ele>1291</ele>
        <time>2019-08-20T11:25:59Z</time>
      </trkpt>
      <trkpt lat="44.26324" lon="6.91678">
        <ele>1289</ele>
        <time>2019-08-20T11:26:15Z</time>
      </trkpt>
      <trkpt lat="44.26305" lon="6.91678">
        <ele>1286</ele>
        <time>2019-08-20T11:26:40Z</time>
      </trkpt>
      <trkpt lat="44.26296" lon="6.91679">
        <ele>1284</ele>
        <time>2019-08-20T11:26:52Z</time>
      </trkpt>
      <trkpt lat="44.26286" lon="6.91682">
        <ele>1281</ele>
        <time>2019-08-20T11:27:06Z</time>
      </trkpt>
      <trkpt lat="44.26278" lon="6.91685">
        <ele>1279</ele>
        <time>2019-08-20T11:27:17Z</time>
      </trkpt>
      <trkpt lat="44.26269" lon="6.9169">
        <ele>1277</ele>
        <time>2019-08-20T11:27:30Z</time>
      </trkpt>
      <trkpt lat="44.26259" lon="6.91697">
        <ele>1273</ele>
        <time>2019-08-20T11:27:44Z</time>
      </trkpt>
      <trkpt lat="44.26249" lon="6.91705">
        <ele>1269</ele>
        <time>2019-08-20T11:28:00Z</time>
      </trkpt>
      <trkpt lat="44.26239" lon="6.9171">
        <ele>1267</ele>
        <time>2019-08-20T11:28:14Z</time>
      </trkpt>
      <trkpt lat="44.26233" lon="6.91714">
        <ele>1265</ele>
        <time>2019-08-20T11:28:23Z</time>
      </trkpt>
      <trkpt lat="44.26225" lon="6.91717">
        <ele>1263</ele>
        <time>2019-08-20T11:28:34Z</time>
      </trkpt>
      <trkpt lat="44.26216" lon="6.91718">
        <ele>1262</ele>
        <time>2019-08-20T11:28:46Z</time>
      </trkpt>
      <trkpt lat="44.26202" lon="6.91715">
        <ele>1261</ele>
        <time>2019-08-20T11:29:05Z</time>
      </trkpt>
      <trkpt lat="44.26196" lon="6.91714">
        <ele>1260</ele>
        <time>2019-08-20T11:29:13Z</time>
      </trkpt>
      <trkpt lat="44.26189" lon="6.9171">
        <ele>1260</ele>
        <time>2019-08-20T11:29:23Z</time>
      </trkpt>
      <trkpt lat="44.26185" lon="6.91708">
        <ele>1260</ele>
        <time>2019-08-20T11:29:29Z</time>
      </trkpt>
      <trkpt lat="44.26178" lon="6.91706">
        <ele>1260</ele>
        <time>2019-08-20T11:29:38Z</time>
      </trkpt>
      <trkpt lat="44.26166" lon="6.91701">
        <ele>1260</ele>
        <time>2019-08-20T11:29:55Z</time>
      </trkpt>
      <trkpt lat="44.2616" lon="6.91699">
        <ele>1260</ele>
        <time>2019-08-20T11:30:03Z</time>
      </trkpt>
      <trkpt lat="44.26153" lon="6.91698">
        <ele>1259</ele>
        <time>2019-08-20T11:30:13Z</time>
      </trkpt>
      <trkpt lat="44.26149" lon="6.91697">
        <ele>1259</ele>
        <time>2019-08-20T11:30:18Z</time>
      </trkpt>
      <trkpt lat="44.26141" lon="6.917">
        <ele>1257</ele>
        <time>2019-08-20T11:30:29Z</time>
      </trkpt>
      <trkpt lat="44.26137" lon="6.91703">
        <ele>1256</ele>
        <time>2019-08-20T11:30:35Z</time>
      </trkpt>
      <trkpt lat="44.26133" lon="6.91708">
        <ele>1254</ele>
        <time>2019-08-20T11:30:42Z</time>
      </trkpt>
      <trkpt lat="44.2613" lon="6.91715">
        <ele>1251</ele>
        <time>2019-08-20T11:30:50Z</time>
      </trkpt>
      <trkpt lat="44.26127" lon="6.91721">
        <ele>1249</ele>
        <time>2019-08-20T11:30:57Z</time>
      </trkpt>
      <trkpt lat="44.26123" lon="6.91732">
        <ele>1246</ele>
        <time>2019-08-20T11:31:09Z</time>
      </trkpt>
      <trkpt lat="44.26119" lon="6.9174">
        <ele>1243</ele>
        <time>2019-08-20T11:31:18Z</time>
      </trkpt>
      <trkpt lat="44.26116" lon="6.91751">
        <ele>1239</ele>
        <time>2019-08-20T11:31:29Z</time>
      </trkpt>
      <trkpt lat="44.26115" lon="6.91756">
        <ele>1238</ele>
        <time>2019-08-20T11:31:34Z</time>
      </trkpt>
      <trkpt lat="44.26104" lon="6.91761">
        <ele>1236</ele>
        <time>2019-08-20T11:31:50Z</time>
      </trkpt>
      <trkpt lat="44.261" lon="6.91763">
        <ele>1235</ele>
        <time>2019-08-20T11:31:56Z</time>
      </trkpt>
      <trkpt lat="44.26083" lon="6.91774">
        <ele>1230</ele>
        <time>2019-08-20T11:32:21Z</time>
      </trkpt>
      <trkpt lat="44.26076" lon="6.91779">
        <ele>1229</ele>
        <time>2019-08-20T11:32:31Z</time>
      </trkpt>
      <trkpt lat="44.26071" lon="6.91784">
        <ele>1228</ele>
        <time>2019-08-20T11:32:39Z</time>
      </trkpt>
      <trkpt lat="44.26059" lon="6.91799">
        <ele>1224</ele>
        <time>2019-08-20T11:33:01Z</time>
      </trkpt>
      <trkpt lat="44.26053" lon="6.91806">
        <ele>1223</ele>
        <time>2019-08-20T11:33:11Z</time>
      </trkpt>
      <trkpt lat="44.26039" lon="6.91821">
        <ele>1219</ele>
        <time>2019-08-20T11:33:35Z</time>
      </trkpt>
      <trkpt lat="44.26032" lon="6.91829">
        <ele>1217</ele>
        <time>2019-08-20T11:33:47Z</time>
      </trkpt>
      <trkpt lat="44.26026" lon="6.91833">
        <ele>1216</ele>
        <time>2019-08-20T11:33:56Z</time>
      </trkpt>
      <trkpt lat="44.26008" lon="6.91839">
        <ele>1214</ele>
        <time>2019-08-20T11:34:20Z</time>
      </trkpt>
      <trkpt lat="44.26007" lon="6.91839">
        <ele>1214</ele>
        <time>2019-08-20T11:34:22Z</time>
      </trkpt>
      <trkpt lat="44.25997" lon="6.91857">
        <ele>1210</ele>
        <time>2019-08-20T11:34:43Z</time>
      </trkpt>
      <trkpt lat="44.25992" lon="6.91869">
        <ele>1208</ele>
        <time>2019-08-20T11:34:57Z</time>
      </trkpt>
      <trkpt lat="44.25989" lon="6.91872">
        <ele>1208</ele>
        <time>2019-08-20T11:35:02Z</time>
      </trkpt>
      <trkpt lat="44.25978" lon="6.91894">
        <ele>1204</ele>
        <time>2019-08-20T11:35:27Z</time>
      </trkpt>
      <trkpt lat="44.25958" lon="6.91928">
        <ele>1198</ele>
        <time>2019-08-20T11:36:09Z</time>
      </trkpt>
      <trkpt lat="44.25941" lon="6.91962">
        <ele>1191</ele>
        <time>2019-08-20T11:36:49Z</time>
      </trkpt>
      <trkpt lat="44.25912" lon="6.92001">
        <ele>1183</ele>
        <time>2019-08-20T11:37:43Z</time>
      </trkpt>
      <trkpt lat="44.25904" lon="6.92012">
        <ele>1182</ele>
        <time>2019-08-20T11:37:58Z</time>
      </trkpt>
      <trkpt lat="44.25897" lon="6.92025">
        <ele>1180</ele>
        <time>2019-08-20T11:38:13Z</time>
      </trkpt>
      <trkpt lat="44.25892" lon="6.92031">
        <ele>1179</ele>
        <time>2019-08-20T11:38:22Z</time>
      </trkpt>
      <trkpt lat="44.25886" lon="6.92035">
        <ele>1178</ele>
        <time>2019-08-20T11:38:31Z</time>
      </trkpt>
      <trkpt lat="44.25874" lon="6.92041">
        <ele>1178</ele>
        <time>2019-08-20T11:38:48Z</time>
      </trkpt>
      <trkpt lat="44.25861" lon="6.92048">
        <ele>1177</ele>
        <time>2019-08-20T11:39:06Z</time>
      </trkpt>
      <trkpt lat="44.25846" lon="6.9206">
        <ele>1175</ele>
        <time>2019-08-20T11:39:30Z</time>
      </trkpt>
      <trkpt lat="44.25839" lon="6.92066">
        <ele>1174</ele>
        <time>2019-08-20T11:39:41Z</time>
      </trkpt>
      <trkpt lat="44.2583" lon="6.92069">
        <ele>1173</ele>
        <time>2019-08-20T11:39:53Z</time>
      </trkpt>
      <trkpt lat="44.25822" lon="6.9207">
        <ele>1173</ele>
        <time>2019-08-20T11:40:04Z</time>
      </trkpt>
      <trkpt lat="44.25816" lon="6.92072">
        <ele>1173</ele>
        <time>2019-08-20T11:40:12Z</time>
      </trkpt>
      <trkpt lat="44.25805" lon="6.92077">
        <ele>1173</ele>
        <time>2019-08-20T11:40:27Z</time>
      </trkpt>
      <trkpt lat="44.25787" lon="6.92092">
        <ele>1171</ele>
        <time>2019-08-20T11:40:55Z</time>
      </trkpt>
      <trkpt lat="44.2578" lon="6.92099">
        <ele>1171</ele>
        <time>2019-08-20T11:41:07Z</time>
      </trkpt>
      <trkpt lat="44.25774" lon="6.92103">
        <ele>1170</ele>
        <time>2019-08-20T11:41:16Z</time>
      </trkpt>
      <trkpt lat="44.25769" lon="6.92105">
        <ele>1170</ele>
        <time>2019-08-20T11:41:23Z</time>
      </trkpt>
      <trkpt lat="44.25763" lon="6.92106">
        <ele>1171</ele>
        <time>2019-08-20T11:41:31Z</time>
      </trkpt>
      <trkpt lat="44.2576" lon="6.92109">
        <ele>1170</ele>
        <time>2019-08-20T11:41:36Z</time>
      </trkpt>
      <trkpt lat="44.25751" lon="6.92125">
        <ele>1168</ele>
        <time>2019-08-20T11:41:55Z</time>
      </trkpt>
      <trkpt lat="44.25746" lon="6.92136">
        <ele>1166</ele>
        <time>2019-08-20T11:42:07Z</time>
      </trkpt>
      <trkpt lat="44.25743" lon="6.92143">
        <ele>1165</ele>
        <time>2019-08-20T11:42:15Z</time>
      </trkpt>
      <trkpt lat="44.25744" lon="6.92146">
        <ele>1165</ele>
        <time>2019-08-20T11:42:18Z</time>
      </trkpt>
      <trkpt lat="44.25742" lon="6.9215">
        <ele>1164</ele>
        <time>2019-08-20T11:42:23Z</time>
      </trkpt>
      <trkpt lat="44.2573" lon="6.92166">
        <ele>1161</ele>
        <time>2019-08-20T11:42:45Z</time>
      </trkpt>
      <trkpt lat="44.25746" lon="6.92186">
        <ele>1161</ele>
        <time>2019-08-20T11:43:14Z</time>
      </trkpt>
      <trkpt lat="44.25749" lon="6.92192">
        <ele>1161</ele>
        <time>2019-08-20T11:43:21Z</time>
      </trkpt>
      <trkpt lat="44.25752" lon="6.9219">
        <ele>1161</ele>
        <time>2019-08-20T11:43:25Z</time>
      </trkpt>
      <trkpt lat="44.2575" lon="6.9219">
        <ele>1161</ele>
        <time>2019-08-20T11:43:28Z</time>
      </trkpt>
      <trkpt lat="44.25683" lon="6.92238">
        <ele>1161</ele>
        <time>2019-08-20T11:45:08Z</time>
      </trkpt>
      <trkpt lat="44.25682" lon="6.92245">
        <ele>1160</ele>
        <time>2019-08-20T11:45:15Z</time>
      </trkpt>
      <trkpt lat="44.25686" lon="6.92252">
        <ele>1160</ele>
        <time>2019-08-20T11:45:24Z</time>
      </trkpt>
      <trkpt lat="44.25712" lon="6.92324">
        <ele>1157</ele>
        <time>2019-08-20T11:46:41Z</time>
      </trkpt>
      <trkpt lat="44.25719" lon="6.92331">
        <ele>1156</ele>
        <time>2019-08-20T11:46:52Z</time>
      </trkpt>
      <trkpt lat="44.25737" lon="6.92373">
        <ele>1152</ele>
        <time>2019-08-20T11:47:39Z</time>
      </trkpt>
      <trkpt lat="44.2575" lon="6.92396">
        <ele>1149</ele>
        <time>2019-08-20T11:48:07Z</time>
      </trkpt>
      <trkpt lat="44.25759" lon="6.92404">
        <ele>1149</ele>
        <time>2019-08-20T11:48:21Z</time>
      </trkpt>
      <trkpt lat="44.25786" lon="6.92472">
        <ele>1146</ele>
        <time>2019-08-20T11:49:36Z</time>
      </trkpt>
      <trkpt lat="44.25801" lon="6.92495">
        <ele>1146</ele>
        <time>2019-08-20T11:50:05Z</time>
      </trkpt>
      <trkpt lat="44.25856" lon="6.92598">
        <ele>1150</ele>
        <time>2019-08-20T11:52:08Z</time>
      </trkpt>
      <trkpt lat="44.25862" lon="6.92606">
        <ele>1153</ele>
        <time>2019-08-20T11:52:19Z</time>
      </trkpt>
      <trkpt lat="44.25858" lon="6.92613">
        <ele>1153</ele>
        <time>2019-08-20T11:52:28Z</time>
      </trkpt>
      <trkpt lat="44.25861" lon="6.92619">
        <ele>1155</ele>
        <time>2019-08-20T11:52:35Z</time>
      </trkpt>
      <trkpt lat="44.25826" lon="6.92663">
        <ele>1150</ele>
        <time>2019-08-20T11:53:38Z</time>
      </trkpt>
      <trkpt lat="44.25813" lon="6.92692">
        <ele>1154</ele>
        <time>2019-08-20T11:54:10Z</time>
      </trkpt>
      <trkpt lat="44.2581" lon="6.92713">
        <ele>1159</ele>
        <time>2019-08-20T11:54:31Z</time>
      </trkpt>
      <trkpt lat="44.25792" lon="6.92756">
        <ele>1163</ele>
        <time>2019-08-20T11:55:18Z</time>
      </trkpt>
      <trkpt lat="44.25777" lon="6.92805">
        <ele>1169</ele>
        <time>2019-08-20T11:56:09Z</time>
      </trkpt>
      <trkpt lat="44.25769" lon="6.92809">
        <ele>1166</ele>
        <time>2019-08-20T11:56:21Z</time>
      </trkpt>
      <trkpt lat="44.25772" lon="6.92832">
        <ele>1173</ele>
        <time>2019-08-20T11:56:43Z</time>
      </trkpt>
      <trkpt lat="44.25771" lon="6.92839">
        <ele>1175</ele>
        <time>2019-08-20T11:56:50Z</time>
      </trkpt>
      <trkpt lat="44.25746" lon="6.92888">
        <ele>1177</ele>
        <time>2019-08-20T11:57:47Z</time>
      </trkpt>
      <trkpt lat="44.25743" lon="6.92914">
        <ele>1184</ele>
        <time>2019-08-20T11:58:13Z</time>
      </trkpt>
      <trkpt lat="44.25741" lon="6.92954">
        <ele>1196</ele>
        <time>2019-08-20T11:58:51Z</time>
      </trkpt>
      <trkpt lat="44.25737" lon="6.92968">
        <ele>1199</ele>
        <time>2019-08-20T11:59:05Z</time>
      </trkpt>
      <trkpt lat="44.25738" lon="6.92977">
        <ele>1203</ele>
        <time>2019-08-20T11:59:14Z</time>
      </trkpt>
      <trkpt lat="44.25737" lon="6.92986">
        <ele>1205</ele>
        <time>2019-08-20T11:59:23Z</time>
      </trkpt>
      <trkpt lat="44.2573" lon="6.9299">
        <ele>1204</ele>
        <time>2019-08-20T11:59:33Z</time>
      </trkpt>
      <trkpt lat="44.2572" lon="6.93013">
        <ele>1207</ele>
        <time>2019-08-20T11:59:59Z</time>
      </trkpt>
      <trkpt lat="44.257" lon="6.93028">
        <ele>1205</ele>
        <time>2019-08-20T12:00:29Z</time>
      </trkpt>
      <trkpt lat="44.25694" lon="6.93046">
        <ele>1209</ele>
        <time>2019-08-20T12:00:48Z</time>
      </trkpt>
      <trkpt lat="44.25672" lon="6.93059">
        <ele>1206</ele>
        <time>2019-08-20T12:01:20Z</time>
      </trkpt>
      <trkpt lat="44.25672" lon="6.93087">
        <ele>1217</ele>
        <time>2019-08-20T12:01:46Z</time>
      </trkpt>
      <trkpt lat="44.25677" lon="6.93096">
        <ele>1222</ele>
        <time>2019-08-20T12:01:57Z</time>
      </trkpt>
      <trkpt lat="44.25671" lon="6.93098">
        <ele>1221</ele>
        <time>2019-08-20T12:02:06Z</time>
      </trkpt>
      <trkpt lat="44.25657" lon="6.93109">
        <ele>1222</ele>
        <time>2019-08-20T12:02:27Z</time>
      </trkpt>
      <trkpt lat="44.2564" lon="6.93153">
        <ele>1236</ele>
        <time>2019-08-20T12:03:15Z</time>
      </trkpt>
      <trkpt lat="44.25623" lon="6.93163">
        <ele>1236</ele>
        <time>2019-08-20T12:03:39Z</time>
      </trkpt>
      <trkpt lat="44.25567" lon="6.93243">
        <ele>1255</ele>
        <time>2019-08-20T12:05:26Z</time>
      </trkpt>
      <trkpt lat="44.25544" lon="6.93285">
        <ele>1265</ele>
        <time>2019-08-20T12:06:17Z</time>
      </trkpt>
      <trkpt lat="44.25537" lon="6.93288">
        <ele>1263</ele>
        <time>2019-08-20T12:06:27Z</time>
      </trkpt>
      <trkpt lat="44.25533" lon="6.93312">
        <ele>1275</ele>
        <time>2019-08-20T12:06:50Z</time>
      </trkpt>
      <trkpt lat="44.25527" lon="6.93325">
        <ele>1280</ele>
        <time>2019-08-20T12:07:05Z</time>
      </trkpt>
      <trkpt lat="44.2552" lon="6.93325">
        <ele>1277</ele>
        <time>2019-08-20T12:07:14Z</time>
      </trkpt>
      <trkpt lat="44.25521" lon="6.9334">
        <ele>1285</ele>
        <time>2019-08-20T12:07:29Z</time>
      </trkpt>
      <trkpt lat="44.25514" lon="6.93355">
        <ele>1289</ele>
        <time>2019-08-20T12:07:46Z</time>
      </trkpt>
      <trkpt lat="44.25506" lon="6.93359">
        <ele>1288</ele>
        <time>2019-08-20T12:07:57Z</time>
      </trkpt>
      <trkpt lat="44.25491" lon="6.93385">
        <ele>1292</ele>
        <time>2019-08-20T12:08:29Z</time>
      </trkpt>
      <trkpt lat="44.25493" lon="6.9339">
        <ele>1296</ele>
        <time>2019-08-20T12:08:35Z</time>
      </trkpt>
      <trkpt lat="44.255" lon="6.93394">
        <ele>1301</ele>
        <time>2019-08-20T12:08:45Z</time>
      </trkpt>
      <trkpt lat="44.25499" lon="6.93405">
        <ele>1305</ele>
        <time>2019-08-20T12:08:55Z</time>
      </trkpt>
      <trkpt lat="44.25473" lon="6.9345">
        <ele>1312</ele>
        <time>2019-08-20T12:09:50Z</time>
      </trkpt>
      <trkpt lat="44.2546" lon="6.93461">
        <ele>1311</ele>
        <time>2019-08-20T12:10:11Z</time>
      </trkpt>
      <trkpt lat="44.25453" lon="6.93474">
        <ele>1315</ele>
        <time>2019-08-20T12:10:26Z</time>
      </trkpt>
      <trkpt lat="44.25443" lon="6.93481">
        <ele>1314</ele>
        <time>2019-08-20T12:10:41Z</time>
      </trkpt>
      <trkpt lat="44.25443" lon="6.93485">
        <ele>1316</ele>
        <time>2019-08-20T12:10:45Z</time>
      </trkpt>
      <trkpt lat="44.25454" lon="6.93481">
        <ele>1318</ele>
        <time>2019-08-20T12:11:00Z</time>
      </trkpt>
      <trkpt lat="44.25454" lon="6.93487">
        <ele>1321</ele>
        <time>2019-08-20T12:11:06Z</time>
      </trkpt>
      <trkpt lat="44.25447" lon="6.93495">
        <ele>1322</ele>
        <time>2019-08-20T12:11:18Z</time>
      </trkpt>
      <trkpt lat="44.25459" lon="6.93495">
        <ele>1326</ele>
        <time>2019-08-20T12:11:34Z</time>
      </trkpt>
      <trkpt lat="44.25459" lon="6.93499">
        <ele>1328</ele>
        <time>2019-08-20T12:11:38Z</time>
      </trkpt>
      <trkpt lat="44.25454" lon="6.93501">
        <ele>1327</ele>
        <time>2019-08-20T12:11:45Z</time>
      </trkpt>
      <trkpt lat="44.25453" lon="6.93505">
        <ele>1329</ele>
        <time>2019-08-20T12:11:49Z</time>
      </trkpt>
      <trkpt lat="44.25461" lon="6.93503">
        <ele>1330</ele>
        <time>2019-08-20T12:12:00Z</time>
      </trkpt>
      <trkpt lat="44.25455" lon="6.93524">
        <ele>1340</ele>
        <time>2019-08-20T12:12:21Z</time>
      </trkpt>
      <trkpt lat="44.25446" lon="6.9353">
        <ele>1340</ele>
        <time>2019-08-20T12:12:35Z</time>
      </trkpt>
      <trkpt lat="44.25446" lon="6.93534">
        <ele>1343</ele>
        <time>2019-08-20T12:12:38Z</time>
      </trkpt>
      <trkpt lat="44.25454" lon="6.93532">
        <ele>1344</ele>
        <time>2019-08-20T12:12:49Z</time>
      </trkpt>
      <trkpt lat="44.2546" lon="6.93527">
        <ele>1343</ele>
        <time>2019-08-20T12:12:59Z</time>
      </trkpt>
      <trkpt lat="44.25468" lon="6.93527">
        <ele>1346</ele>
        <time>2019-08-20T12:13:09Z</time>
      </trkpt>
      <trkpt lat="44.25472" lon="6.93524">
        <ele>1346</ele>
        <time>2019-08-20T12:13:15Z</time>
      </trkpt>
      <trkpt lat="44.25483" lon="6.93524">
        <ele>1349</ele>
        <time>2019-08-20T12:13:30Z</time>
      </trkpt>
      <trkpt lat="44.25485" lon="6.93521">
        <ele>1348</ele>
        <time>2019-08-20T12:13:34Z</time>
      </trkpt>
      <trkpt lat="44.2549" lon="6.93523">
        <ele>1351</ele>
        <time>2019-08-20T12:13:41Z</time>
      </trkpt>
      <trkpt lat="44.25501" lon="6.93519">
        <ele>1352</ele>
        <time>2019-08-20T12:13:56Z</time>
      </trkpt>
      <trkpt lat="44.25508" lon="6.9352">
        <ele>1356</ele>
        <time>2019-08-20T12:14:05Z</time>
      </trkpt>
      <trkpt lat="44.25515" lon="6.93517">
        <ele>1356</ele>
        <time>2019-08-20T12:14:15Z</time>
      </trkpt>
      <trkpt lat="44.25519" lon="6.93518">
        <ele>1359</ele>
        <time>2019-08-20T12:14:21Z</time>
      </trkpt>
      <trkpt lat="44.25527" lon="6.9353">
        <ele>1368</ele>
        <time>2019-08-20T12:14:36Z</time>
      </trkpt>
      <trkpt lat="44.25536" lon="6.93536">
        <ele>1375</ele>
        <time>2019-08-20T12:14:50Z</time>
      </trkpt>
      <trkpt lat="44.25524" lon="6.93536">
        <ele>1370</ele>
        <time>2019-08-20T12:15:06Z</time>
      </trkpt>
      <trkpt lat="44.25533" lon="6.93539">
        <ele>1375</ele>
        <time>2019-08-20T12:15:18Z</time>
      </trkpt>
      <trkpt lat="44.25537" lon="6.93542">
        <ele>1378</ele>
        <time>2019-08-20T12:15:24Z</time>
      </trkpt>
      <trkpt lat="44.25539" lon="6.93542">
        <ele>1379</ele>
        <time>2019-08-20T12:15:27Z</time>
      </trkpt>
      <trkpt lat="44.25543" lon="6.93546">
        <ele>1383</ele>
        <time>2019-08-20T12:15:33Z</time>
      </trkpt>
      <trkpt lat="44.25547" lon="6.93546">
        <ele>1384</ele>
        <time>2019-08-20T12:15:39Z</time>
      </trkpt>
      <trkpt lat="44.25558" lon="6.9356">
        <ele>1395</ele>
        <time>2019-08-20T12:15:58Z</time>
      </trkpt>
      <trkpt lat="44.2557" lon="6.93566">
        <ele>1402</ele>
        <time>2019-08-20T12:16:15Z</time>
      </trkpt>
      <trkpt lat="44.25579" lon="6.93547">
        <ele>1396</ele>
        <time>2019-08-20T12:16:37Z</time>
      </trkpt>
      <trkpt lat="44.25582" lon="6.93566">
        <ele>1406</ele>
        <time>2019-08-20T12:16:56Z</time>
      </trkpt>
      <trkpt lat="44.25588" lon="6.93548">
        <ele>1400</ele>
        <time>2019-08-20T12:17:15Z</time>
      </trkpt>
      <trkpt lat="44.25595" lon="6.93542">
        <ele>1401</ele>
        <time>2019-08-20T12:17:26Z</time>
      </trkpt>
      <trkpt lat="44.25612" lon="6.93537">
        <ele>1409</ele>
        <time>2019-08-20T12:17:49Z</time>
      </trkpt>
      <trkpt lat="44.25616" lon="6.93531">
        <ele>1408</ele>
        <time>2019-08-20T12:17:57Z</time>
      </trkpt>
      <trkpt lat="44.2562" lon="6.93531">
        <ele>1410</ele>
        <time>2019-08-20T12:18:02Z</time>
      </trkpt>
      <trkpt lat="44.25637" lon="6.93519">
        <ele>1415</ele>
        <time>2019-08-20T12:18:28Z</time>
      </trkpt>
      <trkpt lat="44.25647" lon="6.93508">
        <ele>1416</ele>
        <time>2019-08-20T12:18:45Z</time>
      </trkpt>
      <trkpt lat="44.25663" lon="6.93496">
        <ele>1421</ele>
        <time>2019-08-20T12:19:09Z</time>
      </trkpt>
      <trkpt lat="44.25678" lon="6.93491">
        <ele>1426</ele>
        <time>2019-08-20T12:19:29Z</time>
      </trkpt>
      <trkpt lat="44.25689" lon="6.93483">
        <ele>1427</ele>
        <time>2019-08-20T12:19:46Z</time>
      </trkpt>
      <trkpt lat="44.25693" lon="6.93485">
        <ele>1430</ele>
        <time>2019-08-20T12:19:52Z</time>
      </trkpt>
      <trkpt lat="44.25704" lon="6.93479">
        <ele>1432</ele>
        <time>2019-08-20T12:20:07Z</time>
      </trkpt>
      <trkpt lat="44.25713" lon="6.93466">
        <ele>1429</ele>
        <time>2019-08-20T12:20:25Z</time>
      </trkpt>
      <trkpt lat="44.25727" lon="6.93456">
        <ele>1430</ele>
        <time>2019-08-20T12:20:46Z</time>
      </trkpt>
      <trkpt lat="44.25735" lon="6.93458">
        <ele>1435</ele>
        <time>2019-08-20T12:20:56Z</time>
      </trkpt>
      <trkpt lat="44.25745" lon="6.93453">
        <ele>1437</ele>
        <time>2019-08-20T12:21:11Z</time>
      </trkpt>
      <trkpt lat="44.25758" lon="6.93454">
        <ele>1445</ele>
        <time>2019-08-20T12:21:28Z</time>
      </trkpt>
      <trkpt lat="44.25761" lon="6.93451">
        <ele>1445</ele>
        <time>2019-08-20T12:21:33Z</time>
      </trkpt>
      <trkpt lat="44.25768" lon="6.9345">
        <ele>1449</ele>
        <time>2019-08-20T12:21:42Z</time>
      </trkpt>
      <trkpt lat="44.25771" lon="6.93452">
        <ele>1452</ele>
        <time>2019-08-20T12:21:47Z</time>
      </trkpt>
      <trkpt lat="44.2578" lon="6.9345">
        <ele>1456</ele>
        <time>2019-08-20T12:21:59Z</time>
      </trkpt>
      <trkpt lat="44.25785" lon="6.93444">
        <ele>1455</ele>
        <time>2019-08-20T12:22:08Z</time>
      </trkpt>
      <trkpt lat="44.25787" lon="6.93447">
        <ele>1458</ele>
        <time>2019-08-20T12:22:12Z</time>
      </trkpt>
      <trkpt lat="44.25792" lon="6.93445">
        <ele>1460</ele>
        <time>2019-08-20T12:22:19Z</time>
      </trkpt>
      <trkpt lat="44.25791" lon="6.9345">
        <ele>1462</ele>
        <time>2019-08-20T12:22:24Z</time>
      </trkpt>
      <trkpt lat="44.25791" lon="6.93454">
        <ele>1464</ele>
        <time>2019-08-20T12:22:27Z</time>
      </trkpt>
      <trkpt lat="44.25804" lon="6.93447">
        <ele>1468</ele>
        <time>2019-08-20T12:22:46Z</time>
      </trkpt>
      <trkpt lat="44.25823" lon="6.93432">
        <ele>1471</ele>
        <time>2019-08-20T12:23:15Z</time>
      </trkpt>
      <trkpt lat="44.25827" lon="6.93431">
        <ele>1473</ele>
        <time>2019-08-20T12:23:20Z</time>
      </trkpt>
      <trkpt lat="44.25829" lon="6.93427">
        <ele>1472</ele>
        <time>2019-08-20T12:23:25Z</time>
      </trkpt>
      <trkpt lat="44.25841" lon="6.93421">
        <ele>1477</ele>
        <time>2019-08-20T12:23:42Z</time>
      </trkpt>
      <trkpt lat="44.25845" lon="6.93413">
        <ele>1475</ele>
        <time>2019-08-20T12:23:51Z</time>
      </trkpt>
      <trkpt lat="44.2586" lon="6.93403">
        <ele>1480</ele>
        <time>2019-08-20T12:24:14Z</time>
      </trkpt>
      <trkpt lat="44.25861" lon="6.93404">
        <ele>1481</ele>
        <time>2019-08-20T12:24:15Z</time>
      </trkpt>
      <trkpt lat="44.25852" lon="6.93427">
        <ele>1487</ele>
        <time>2019-08-20T12:24:40Z</time>
      </trkpt>
      <trkpt lat="44.25854" lon="6.93427">
        <ele>1488</ele>
        <time>2019-08-20T12:24:43Z</time>
      </trkpt>
      <trkpt lat="44.25863" lon="6.93413">
        <ele>1487</ele>
        <time>2019-08-20T12:25:01Z</time>
      </trkpt>
      <trkpt lat="44.25872" lon="6.93405">
        <ele>1489</ele>
        <time>2019-08-20T12:25:15Z</time>
      </trkpt>
      <trkpt lat="44.25882" lon="6.934">
        <ele>1493</ele>
        <time>2019-08-20T12:25:29Z</time>
      </trkpt>
      <trkpt lat="44.25883" lon="6.93401">
        <ele>1494</ele>
        <time>2019-08-20T12:25:31Z</time>
      </trkpt>
      <trkpt lat="44.25879" lon="6.93414">
        <ele>1499</ele>
        <time>2019-08-20T12:25:45Z</time>
      </trkpt>
      <trkpt lat="44.2588" lon="6.93415">
        <ele>1500</ele>
        <time>2019-08-20T12:25:46Z</time>
      </trkpt>
      <trkpt lat="44.25889" lon="6.93406">
        <ele>1501</ele>
        <time>2019-08-20T12:26:01Z</time>
      </trkpt>
      <trkpt lat="44.25893" lon="6.93408">
        <ele>1505</ele>
        <time>2019-08-20T12:26:07Z</time>
      </trkpt>
      <trkpt lat="44.25899" lon="6.93405">
        <ele>1507</ele>
        <time>2019-08-20T12:26:15Z</time>
      </trkpt>
      <trkpt lat="44.25905" lon="6.93398">
        <ele>1507</ele>
        <time>2019-08-20T12:26:26Z</time>
      </trkpt>
      <trkpt lat="44.25908" lon="6.93385">
        <ele>1502</ele>
        <time>2019-08-20T12:26:39Z</time>
      </trkpt>
      <trkpt lat="44.25914" lon="6.93386">
        <ele>1507</ele>
        <time>2019-08-20T12:26:47Z</time>
      </trkpt>
      <trkpt lat="44.25937" lon="6.93367">
        <ele>1507</ele>
        <time>2019-08-20T12:27:22Z</time>
      </trkpt>
      <trkpt lat="44.25955" lon="6.93369">
        <ele>1517</ele>
        <time>2019-08-20T12:27:46Z</time>
      </trkpt>
      <trkpt lat="44.25982" lon="6.93364">
        <ele>1528</ele>
        <time>2019-08-20T12:28:23Z</time>
      </trkpt>
      <trkpt lat="44.2599" lon="6.93368">
        <ele>1533</ele>
        <time>2019-08-20T12:28:34Z</time>
      </trkpt>
      <trkpt lat="44.25997" lon="6.93364">
        <ele>1535</ele>
        <time>2019-08-20T12:28:44Z</time>
      </trkpt>
      <trkpt lat="44.26001" lon="6.93351">
        <ele>1532</ele>
        <time>2019-08-20T12:28:58Z</time>
      </trkpt>
      <trkpt lat="44.26002" lon="6.93352">
        <ele>1533</ele>
        <time>2019-08-20T12:28:59Z</time>
      </trkpt>
      <trkpt lat="44.25999" lon="6.93372">
        <ele>1539</ele>
        <time>2019-08-20T12:29:19Z</time>
      </trkpt>
      <trkpt lat="44.25997" lon="6.93377">
        <ele>1539</ele>
        <time>2019-08-20T12:29:24Z</time>
      </trkpt>
      <trkpt lat="44.25998" lon="6.93379">
        <ele>1540</ele>
        <time>2019-08-20T12:29:27Z</time>
      </trkpt>
      <trkpt lat="44.26004" lon="6.93374">
        <ele>1541</ele>
        <time>2019-08-20T12:29:36Z</time>
      </trkpt>
      <trkpt lat="44.26009" lon="6.93365">
        <ele>1541</ele>
        <time>2019-08-20T12:29:47Z</time>
      </trkpt>
      <trkpt lat="44.26021" lon="6.93356">
        <ele>1543</ele>
        <time>2019-08-20T12:30:05Z</time>
      </trkpt>
      <trkpt lat="44.26022" lon="6.93351">
        <ele>1542</ele>
        <time>2019-08-20T12:30:10Z</time>
      </trkpt>
      <trkpt lat="44.26037" lon="6.9334">
        <ele>1545</ele>
        <time>2019-08-20T12:30:33Z</time>
      </trkpt>
      <trkpt lat="44.26044" lon="6.9333">
        <ele>1545</ele>
        <time>2019-08-20T12:30:46Z</time>
      </trkpt>
      <trkpt lat="44.26059" lon="6.93324">
        <ele>1549</ele>
        <time>2019-08-20T12:31:07Z</time>
      </trkpt>
      <trkpt lat="44.2606" lon="6.93332">
        <ele>1553</ele>
        <time>2019-08-20T12:31:15Z</time>
      </trkpt>
      <trkpt lat="44.26067" lon="6.93345">
        <ele>1560</ele>
        <time>2019-08-20T12:31:30Z</time>
      </trkpt>
      <trkpt lat="44.26071" lon="6.93345">
        <ele>1562</ele>
        <time>2019-08-20T12:31:36Z</time>
      </trkpt>
      <trkpt lat="44.26079" lon="6.93356">
        <ele>1569</ele>
        <time>2019-08-20T12:31:51Z</time>
      </trkpt>
      <trkpt lat="44.26082" lon="6.93355">
        <ele>1570</ele>
        <time>2019-08-20T12:31:55Z</time>
      </trkpt>
      <trkpt lat="44.26081" lon="6.93362">
        <ele>1571</ele>
        <time>2019-08-20T12:32:01Z</time>
      </trkpt>
      <trkpt lat="44.26087" lon="6.93361">
        <ele>1573</ele>
        <time>2019-08-20T12:32:10Z</time>
      </trkpt>
      <trkpt lat="44.26086" lon="6.93373">
        <ele>1576</ele>
        <time>2019-08-20T12:32:21Z</time>
      </trkpt>
      <trkpt lat="44.26088" lon="6.93373">
        <ele>1577</ele>
        <time>2019-08-20T12:32:24Z</time>
      </trkpt>
      <trkpt lat="44.26093" lon="6.93365">
        <ele>1577</ele>
        <time>2019-08-20T12:32:34Z</time>
      </trkpt>
      <trkpt lat="44.26103" lon="6.9337">
        <ele>1582</ele>
        <time>2019-08-20T12:32:48Z</time>
      </trkpt>
      <trkpt lat="44.26125" lon="6.9336">
        <ele>1587</ele>
        <time>2019-08-20T12:33:19Z</time>
      </trkpt>
      <trkpt lat="44.26147" lon="6.93333">
        <ele>1587</ele>
        <time>2019-08-20T12:33:58Z</time>
      </trkpt>
      <trkpt lat="44.26154" lon="6.93328">
        <ele>1588</ele>
        <time>2019-08-20T12:34:09Z</time>
      </trkpt>
      <trkpt lat="44.26166" lon="6.93327">
        <ele>1592</ele>
        <time>2019-08-20T12:34:25Z</time>
      </trkpt>
      <trkpt lat="44.26173" lon="6.93328">
        <ele>1595</ele>
        <time>2019-08-20T12:34:34Z</time>
      </trkpt>
      <trkpt lat="44.26181" lon="6.93327">
        <ele>1597</ele>
        <time>2019-08-20T12:34:45Z</time>
      </trkpt>
      <trkpt lat="44.26186" lon="6.93324">
        <ele>1598</ele>
        <time>2019-08-20T12:34:52Z</time>
      </trkpt>
      <trkpt lat="44.26201" lon="6.93311">
        <ele>1599</ele>
        <time>2019-08-20T12:35:16Z</time>
      </trkpt>
      <trkpt lat="44.26221" lon="6.93302">
        <ele>1603</ele>
        <time>2019-08-20T12:35:44Z</time>
      </trkpt>
      <trkpt lat="44.26223" lon="6.93305">
        <ele>1605</ele>
        <time>2019-08-20T12:35:47Z</time>
      </trkpt>
      <trkpt lat="44.26239" lon="6.93305">
        <ele>1610</ele>
        <time>2019-08-20T12:36:09Z</time>
      </trkpt>
      <trkpt lat="44.26242" lon="6.93302">
        <ele>1610</ele>
        <time>2019-08-20T12:36:14Z</time>
      </trkpt>
      <trkpt lat="44.26256" lon="6.93309">
        <ele>1614</ele>
        <time>2019-08-20T12:36:34Z</time>
      </trkpt>
      <trkpt lat="44.2626" lon="6.93308">
        <ele>1612</ele>
        <time>2019-08-20T12:36:39Z</time>
      </trkpt>
      <trkpt lat="44.26266" lon="6.93315">
        <ele>1613</ele>
        <time>2019-08-20T12:36:49Z</time>
      </trkpt>
      <trkpt lat="44.26277" lon="6.9332">
        <ele>1612</ele>
        <time>2019-08-20T12:37:05Z</time>
      </trkpt>
      <trkpt lat="44.26282" lon="6.9333">
        <ele>1614</ele>
        <time>2019-08-20T12:37:17Z</time>
      </trkpt>
      <trkpt lat="44.26287" lon="6.93335">
        <ele>1615</ele>
        <time>2019-08-20T12:37:25Z</time>
      </trkpt>
      <trkpt lat="44.26288" lon="6.93339">
        <ele>1616</ele>
        <time>2019-08-20T12:37:29Z</time>
      </trkpt>
      <trkpt lat="44.26292" lon="6.93344">
        <ele>1617</ele>
        <time>2019-08-20T12:37:36Z</time>
      </trkpt>
      <trkpt lat="44.26294" lon="6.93356">
        <ele>1620</ele>
        <time>2019-08-20T12:37:48Z</time>
      </trkpt>
      <trkpt lat="44.26294" lon="6.93361">
        <ele>1622</ele>
        <time>2019-08-20T12:37:53Z</time>
      </trkpt>
      <trkpt lat="44.26296" lon="6.9338">
        <ele>1628</ele>
        <time>2019-08-20T12:38:11Z</time>
      </trkpt>
      <trkpt lat="44.26292" lon="6.9338">
        <ele>1629</ele>
        <time>2019-08-20T12:38:16Z</time>
      </trkpt>
      <trkpt lat="44.26297" lon="6.93388">
        <ele>1630</ele>
        <time>2019-08-20T12:38:26Z</time>
      </trkpt>
      <trkpt lat="44.26294" lon="6.93419">
        <ele>1641</ele>
        <time>2019-08-20T12:38:56Z</time>
      </trkpt>
      <trkpt lat="44.26292" lon="6.93424">
        <ele>1643</ele>
        <time>2019-08-20T12:39:02Z</time>
      </trkpt>
      <trkpt lat="44.26297" lon="6.93432">
        <ele>1645</ele>
        <time>2019-08-20T12:39:12Z</time>
      </trkpt>
      <trkpt lat="44.26297" lon="6.93435">
        <ele>1646</ele>
        <time>2019-08-20T12:39:15Z</time>
      </trkpt>
      <trkpt lat="44.26294" lon="6.93432">
        <ele>1645</ele>
        <time>2019-08-20T12:39:20Z</time>
      </trkpt>
      <trkpt lat="44.26294" lon="6.93435">
        <ele>1646</ele>
        <time>2019-08-20T12:39:23Z</time>
      </trkpt>
      <trkpt lat="44.263" lon="6.93444">
        <ele>1649</ele>
        <time>2019-08-20T12:39:34Z</time>
      </trkpt>
      <trkpt lat="44.26295" lon="6.93452">
        <ele>1652</ele>
        <time>2019-08-20T12:39:44Z</time>
      </trkpt>
      <trkpt lat="44.26297" lon="6.93457">
        <ele>1654</ele>
        <time>2019-08-20T12:39:50Z</time>
      </trkpt>
      <trkpt lat="44.26301" lon="6.93455">
        <ele>1653</ele>
        <time>2019-08-20T12:39:56Z</time>
      </trkpt>
      <trkpt lat="44.26313" lon="6.93453">
        <ele>1652</ele>
        <time>2019-08-20T12:40:12Z</time>
      </trkpt>
      <trkpt lat="44.26308" lon="6.93455">
        <ele>1653</ele>
        <time>2019-08-20T12:40:19Z</time>
      </trkpt>
      <trkpt lat="44.26306" lon="6.9346">
        <ele>1655</ele>
        <time>2019-08-20T12:40:24Z</time>
      </trkpt>
      <trkpt lat="44.26297" lon="6.9347">
        <ele>1658</ele>
        <time>2019-08-20T12:40:39Z</time>
      </trkpt>
      <trkpt lat="44.26295" lon="6.93475">
        <ele>1660</ele>
        <time>2019-08-20T12:40:45Z</time>
      </trkpt>
      <trkpt lat="44.26292" lon="6.93477">
        <ele>1660</ele>
        <time>2019-08-20T12:40:49Z</time>
      </trkpt>
      <trkpt lat="44.2629" lon="6.93486">
        <ele>1663</ele>
        <time>2019-08-20T12:40:58Z</time>
      </trkpt>
      <trkpt lat="44.26296" lon="6.93484">
        <ele>1663</ele>
        <time>2019-08-20T12:41:07Z</time>
      </trkpt>
      <trkpt lat="44.26294" lon="6.93491">
        <ele>1665</ele>
        <time>2019-08-20T12:41:14Z</time>
      </trkpt>
      <trkpt lat="44.26299" lon="6.93488">
        <ele>1665</ele>
        <time>2019-08-20T12:41:21Z</time>
      </trkpt>
      <trkpt lat="44.26305" lon="6.93487">
        <ele>1665</ele>
        <time>2019-08-20T12:41:29Z</time>
      </trkpt>
      <trkpt lat="44.2631" lon="6.93482">
        <ele>1663</ele>
        <time>2019-08-20T12:41:37Z</time>
      </trkpt>
      <trkpt lat="44.26315" lon="6.93483">
        <ele>1664</ele>
        <time>2019-08-20T12:41:44Z</time>
      </trkpt>
      <trkpt lat="44.26322" lon="6.93481">
        <ele>1664</ele>
        <time>2019-08-20T12:41:54Z</time>
      </trkpt>
      <trkpt lat="44.26324" lon="6.93483">
        <ele>1665</ele>
        <time>2019-08-20T12:41:57Z</time>
      </trkpt>
      <trkpt lat="44.26325" lon="6.93488">
        <ele>1667</ele>
        <time>2019-08-20T12:42:02Z</time>
      </trkpt>
      <trkpt lat="44.26324" lon="6.93492">
        <ele>1669</ele>
        <time>2019-08-20T12:42:06Z</time>
      </trkpt>
      <trkpt lat="44.26321" lon="6.93493">
        <ele>1669</ele>
        <time>2019-08-20T12:42:10Z</time>
      </trkpt>
      <trkpt lat="44.26302" lon="6.93524">
        <ele>1680</ele>
        <time>2019-08-20T12:42:49Z</time>
      </trkpt>
      <trkpt lat="44.26302" lon="6.93527">
        <ele>1682</ele>
        <time>2019-08-20T12:42:52Z</time>
      </trkpt>
      <trkpt lat="44.26299" lon="6.93528">
        <ele>1682</ele>
        <time>2019-08-20T12:42:56Z</time>
      </trkpt>
      <trkpt lat="44.26292" lon="6.93538">
        <ele>1685</ele>
        <time>2019-08-20T12:43:09Z</time>
      </trkpt>
      <trkpt lat="44.26286" lon="6.93542">
        <ele>1686</ele>
        <time>2019-08-20T12:43:18Z</time>
      </trkpt>
      <trkpt lat="44.26278" lon="6.93556">
        <ele>1690</ele>
        <time>2019-08-20T12:43:35Z</time>
      </trkpt>
      <trkpt lat="44.26261" lon="6.93576">
        <ele>1695</ele>
        <time>2019-08-20T12:44:05Z</time>
      </trkpt>
      <trkpt lat="44.26259" lon="6.93585">
        <ele>1698</ele>
        <time>2019-08-20T12:44:14Z</time>
      </trkpt>
      <trkpt lat="44.26261" lon="6.9359">
        <ele>1701</ele>
        <time>2019-08-20T12:44:19Z</time>
      </trkpt>
      <trkpt lat="44.2626" lon="6.93594">
        <ele>1702</ele>
        <time>2019-08-20T12:44:24Z</time>
      </trkpt>
      <trkpt lat="44.2625" lon="6.93602">
        <ele>1704</ele>
        <time>2019-08-20T12:44:39Z</time>
      </trkpt>
      <trkpt lat="44.26245" lon="6.9361">
        <ele>1706</ele>
        <time>2019-08-20T12:44:49Z</time>
      </trkpt>
      <trkpt lat="44.26247" lon="6.93612">
        <ele>1708</ele>
        <time>2019-08-20T12:44:52Z</time>
      </trkpt>
      <trkpt lat="44.26259" lon="6.93605">
        <ele>1707</ele>
        <time>2019-08-20T12:45:10Z</time>
      </trkpt>
      <trkpt lat="44.26265" lon="6.93603">
        <ele>1708</ele>
        <time>2019-08-20T12:45:18Z</time>
      </trkpt>
      <trkpt lat="44.26268" lon="6.93596">
        <ele>1705</ele>
        <time>2019-08-20T12:45:26Z</time>
      </trkpt>
      <trkpt lat="44.26277" lon="6.93592">
        <ele>1706</ele>
        <time>2019-08-20T12:45:38Z</time>
      </trkpt>
      <trkpt lat="44.26288" lon="6.93583">
        <ele>1704</ele>
        <time>2019-08-20T12:45:55Z</time>
      </trkpt>
      <trkpt lat="44.26306" lon="6.93578">
        <ele>1706</ele>
        <time>2019-08-20T12:46:20Z</time>
      </trkpt>
      <trkpt lat="44.26311" lon="6.93582">
        <ele>1709</ele>
        <time>2019-08-20T12:46:28Z</time>
      </trkpt>
      <trkpt lat="44.26317" lon="6.93591">
        <ele>1714</ele>
        <time>2019-08-20T12:46:39Z</time>
      </trkpt>
      <trkpt lat="44.26312" lon="6.93593">
        <ele>1714</ele>
        <time>2019-08-20T12:46:46Z</time>
      </trkpt>
      <trkpt lat="44.26307" lon="6.93599">
        <ele>1716</ele>
        <time>2019-08-20T12:46:55Z</time>
      </trkpt>
      <trkpt lat="44.26304" lon="6.93599">
        <ele>1715</ele>
        <time>2019-08-20T12:46:59Z</time>
      </trkpt>
      <trkpt lat="44.26302" lon="6.93602">
        <ele>1716</ele>
        <time>2019-08-20T12:47:03Z</time>
      </trkpt>
      <trkpt lat="44.26303" lon="6.93603">
        <ele>1717</ele>
        <time>2019-08-20T12:47:05Z</time>
      </trkpt>
      <trkpt lat="44.26313" lon="6.93613">
        <ele>1723</ele>
        <time>2019-08-20T12:47:21Z</time>
      </trkpt>
      <trkpt lat="44.26323" lon="6.93613">
        <ele>1726</ele>
        <time>2019-08-20T12:47:34Z</time>
      </trkpt>
      <trkpt lat="44.26329" lon="6.93611">
        <ele>1726</ele>
        <time>2019-08-20T12:47:43Z</time>
      </trkpt>
      <trkpt lat="44.2634" lon="6.93613">
        <ele>1726</ele>
        <time>2019-08-20T12:47:57Z</time>
      </trkpt>
      <trkpt lat="44.26352" lon="6.93622">
        <ele>1726</ele>
        <time>2019-08-20T12:48:16Z</time>
      </trkpt>
      <trkpt lat="44.26353" lon="6.93625">
        <ele>1727</ele>
        <time>2019-08-20T12:48:19Z</time>
      </trkpt>
      <trkpt lat="44.26348" lon="6.93633">
        <ele>1732</ele>
        <time>2019-08-20T12:48:29Z</time>
      </trkpt>
      <trkpt lat="44.26348" lon="6.93639">
        <ele>1735</ele>
        <time>2019-08-20T12:48:35Z</time>
      </trkpt>
      <trkpt lat="44.26354" lon="6.93643">
        <ele>1735</ele>
        <time>2019-08-20T12:48:43Z</time>
      </trkpt>
      <trkpt lat="44.26356" lon="6.93648">
        <ele>1736</ele>
        <time>2019-08-20T12:48:49Z</time>
      </trkpt>
      <trkpt lat="44.26354" lon="6.93653">
        <ele>1739</ele>
        <time>2019-08-20T12:48:54Z</time>
      </trkpt>
      <trkpt lat="44.26345" lon="6.93646">
        <ele>1739</ele>
        <time>2019-08-20T12:49:08Z</time>
      </trkpt>
      <trkpt lat="44.26332" lon="6.93648">
        <ele>1743</ele>
        <time>2019-08-20T12:49:26Z</time>
      </trkpt>
      <trkpt lat="44.26329" lon="6.93645">
        <ele>1741</ele>
        <time>2019-08-20T12:49:31Z</time>
      </trkpt>
      <trkpt lat="44.26325" lon="6.93645">
        <ele>1740</ele>
        <time>2019-08-20T12:49:36Z</time>
      </trkpt>
      <trkpt lat="44.2631" lon="6.93651">
        <ele>1740</ele>
        <time>2019-08-20T12:49:57Z</time>
      </trkpt>
      <trkpt lat="44.26294" lon="6.93662">
        <ele>1741</ele>
        <time>2019-08-20T12:50:20Z</time>
      </trkpt>
      <trkpt lat="44.26274" lon="6.93682">
        <ele>1745</ele>
        <time>2019-08-20T12:50:53Z</time>
      </trkpt>
      <trkpt lat="44.26274" lon="6.93688">
        <ele>1747</ele>
        <time>2019-08-20T12:50:59Z</time>
      </trkpt>
      <trkpt lat="44.26272" lon="6.93695">
        <ele>1749</ele>
        <time>2019-08-20T12:51:06Z</time>
      </trkpt>
      <trkpt lat="44.26262" lon="6.93707">
        <ele>1752</ele>
        <time>2019-08-20T12:51:24Z</time>
      </trkpt>
      <trkpt lat="44.26263" lon="6.93711">
        <ele>1753</ele>
        <time>2019-08-20T12:51:28Z</time>
      </trkpt>
      <trkpt lat="44.2626" lon="6.93721">
        <ele>1756</ele>
        <time>2019-08-20T12:51:38Z</time>
      </trkpt>
      <trkpt lat="44.26262" lon="6.93722">
        <ele>1757</ele>
        <time>2019-08-20T12:51:41Z</time>
      </trkpt>
      <trkpt lat="44.2628" lon="6.93713">
        <ele>1756</ele>
        <time>2019-08-20T12:52:07Z</time>
      </trkpt>
      <trkpt lat="44.26302" lon="6.93719">
        <ele>1761</ele>
        <time>2019-08-20T12:52:37Z</time>
      </trkpt>
      <trkpt lat="44.26302" lon="6.93721">
        <ele>1761</ele>
        <time>2019-08-20T12:52:38Z</time>
      </trkpt>
      <trkpt lat="44.26291" lon="6.93731">
        <ele>1763</ele>
        <time>2019-08-20T12:52:56Z</time>
      </trkpt>
      <trkpt lat="44.26279" lon="6.93744">
        <ele>1766</ele>
        <time>2019-08-20T12:53:16Z</time>
      </trkpt>
      <trkpt lat="44.26277" lon="6.93748">
        <ele>1767</ele>
        <time>2019-08-20T12:53:21Z</time>
      </trkpt>
      <trkpt lat="44.26275" lon="6.93757">
        <ele>1770</ele>
        <time>2019-08-20T12:53:30Z</time>
      </trkpt>
      <trkpt lat="44.26252" lon="6.93792">
        <ele>1779</ele>
        <time>2019-08-20T12:54:15Z</time>
      </trkpt>
      <trkpt lat="44.26249" lon="6.93799">
        <ele>1781</ele>
        <time>2019-08-20T12:54:23Z</time>
      </trkpt>
      <trkpt lat="44.26257" lon="6.938">
        <ele>1782</ele>
        <time>2019-08-20T12:54:34Z</time>
      </trkpt>
      <trkpt lat="44.26263" lon="6.93798">
        <ele>1782</ele>
        <time>2019-08-20T12:54:42Z</time>
      </trkpt>
      <trkpt lat="44.2627" lon="6.93786">
        <ele>1779</ele>
        <time>2019-08-20T12:54:57Z</time>
      </trkpt>
      <trkpt lat="44.26281" lon="6.93785">
        <ele>1779</ele>
        <time>2019-08-20T12:55:12Z</time>
      </trkpt>
      <trkpt lat="44.26284" lon="6.93783">
        <ele>1779</ele>
        <time>2019-08-20T12:55:16Z</time>
      </trkpt>
      <trkpt lat="44.26285" lon="6.93785">
        <ele>1779</ele>
        <time>2019-08-20T12:55:18Z</time>
      </trkpt>
      <trkpt lat="44.2627" lon="6.93814">
        <ele>1787</ele>
        <time>2019-08-20T12:55:52Z</time>
      </trkpt>
      <trkpt lat="44.26271" lon="6.9382">
        <ele>1789</ele>
        <time>2019-08-20T12:55:58Z</time>
      </trkpt>
      <trkpt lat="44.26279" lon="6.93822">
        <ele>1790</ele>
        <time>2019-08-20T12:56:09Z</time>
      </trkpt>
      <trkpt lat="44.26285" lon="6.93816">
        <ele>1789</ele>
        <time>2019-08-20T12:56:19Z</time>
      </trkpt>
      <trkpt lat="44.26292" lon="6.93819">
        <ele>1790</ele>
        <time>2019-08-20T12:56:29Z</time>
      </trkpt>
      <trkpt lat="44.26294" lon="6.93823">
        <ele>1791</ele>
        <time>2019-08-20T12:56:34Z</time>
      </trkpt>
      <trkpt lat="44.26294" lon="6.9383">
        <ele>1794</ele>
        <time>2019-08-20T12:56:40Z</time>
      </trkpt>
      <trkpt lat="44.26298" lon="6.93832">
        <ele>1794</ele>
        <time>2019-08-20T12:56:46Z</time>
      </trkpt>
      <trkpt lat="44.26298" lon="6.93838">
        <ele>1796</ele>
        <time>2019-08-20T12:56:52Z</time>
      </trkpt>
      <trkpt lat="44.26294" lon="6.93838">
        <ele>1796</ele>
        <time>2019-08-20T12:56:57Z</time>
      </trkpt>
      <trkpt lat="44.26291" lon="6.93842">
        <ele>1797</ele>
        <time>2019-08-20T12:57:02Z</time>
      </trkpt>
      <trkpt lat="44.26291" lon="6.93846">
        <ele>1798</ele>
        <time>2019-08-20T12:57:06Z</time>
      </trkpt>
      <trkpt lat="44.26287" lon="6.9385">
        <ele>1799</ele>
        <time>2019-08-20T12:57:13Z</time>
      </trkpt>
      <trkpt lat="44.26286" lon="6.93854">
        <ele>1800</ele>
        <time>2019-08-20T12:57:17Z</time>
      </trkpt>
      <trkpt lat="44.26281" lon="6.93857">
        <ele>1801</ele>
        <time>2019-08-20T12:57:24Z</time>
      </trkpt>
      <trkpt lat="44.26289" lon="6.93863">
        <ele>1803</ele>
        <time>2019-08-20T12:57:36Z</time>
      </trkpt>
      <trkpt lat="44.26288" lon="6.93865">
        <ele>1804</ele>
        <time>2019-08-20T12:57:39Z</time>
      </trkpt>
      <trkpt lat="44.26276" lon="6.93874">
        <ele>1806</ele>
        <time>2019-08-20T12:57:57Z</time>
      </trkpt>
      <trkpt lat="44.26269" lon="6.93874">
        <ele>1806</ele>
        <time>2019-08-20T12:58:06Z</time>
      </trkpt>
      <trkpt lat="44.26265" lon="6.93881">
        <ele>1808</ele>
        <time>2019-08-20T12:58:15Z</time>
      </trkpt>
      <trkpt lat="44.26265" lon="6.93888">
        <ele>1810</ele>
        <time>2019-08-20T12:58:21Z</time>
      </trkpt>
      <trkpt lat="44.26248" lon="6.93919">
        <ele>1820</ele>
        <time>2019-08-20T12:58:59Z</time>
      </trkpt>
      <trkpt lat="44.26253" lon="6.93925">
        <ele>1823</ele>
        <time>2019-08-20T12:59:07Z</time>
      </trkpt>
      <trkpt lat="44.26262" lon="6.93928">
        <ele>1824</ele>
        <time>2019-08-20T12:59:20Z</time>
      </trkpt>
      <trkpt lat="44.26263" lon="6.93939">
        <ele>1827</ele>
        <time>2019-08-20T12:59:30Z</time>
      </trkpt>
      <trkpt lat="44.26272" lon="6.93951">
        <ele>1831</ele>
        <time>2019-08-20T12:59:47Z</time>
      </trkpt>
      <trkpt lat="44.26262" lon="6.93961">
        <ele>1835</ele>
        <time>2019-08-20T13:00:03Z</time>
      </trkpt>
      <trkpt lat="44.26272" lon="6.9397">
        <ele>1838</ele>
        <time>2019-08-20T13:00:19Z</time>
      </trkpt>
      <trkpt lat="44.26246" lon="6.93988">
        <ele>1844</ele>
        <time>2019-08-20T13:00:58Z</time>
      </trkpt>
      <trkpt lat="44.26269" lon="6.94007">
        <ele>1851</ele>
        <time>2019-08-20T13:01:34Z</time>
      </trkpt>
      <trkpt lat="44.26262" lon="6.94026">
        <ele>1859</ele>
        <time>2019-08-20T13:01:54Z</time>
      </trkpt>
      <trkpt lat="44.26285" lon="6.9404">
        <ele>1862</ele>
        <time>2019-08-20T13:02:28Z</time>
      </trkpt>
      <trkpt lat="44.26296" lon="6.94072">
        <ele>1873</ele>
        <time>2019-08-20T13:03:02Z</time>
      </trkpt>
      <trkpt lat="44.26303" lon="6.94111">
        <ele>1883</ele>
        <time>2019-08-20T13:03:40Z</time>
      </trkpt>
      <trkpt lat="44.26268" lon="6.94105">
        <ele>1887</ele>
        <time>2019-08-20T13:04:27Z</time>
      </trkpt>
      <trkpt lat="44.26256" lon="6.94113">
        <ele>1891</ele>
        <time>2019-08-20T13:04:45Z</time>
      </trkpt>
      <trkpt lat="44.26246" lon="6.94123">
        <ele>1894</ele>
        <time>2019-08-20T13:05:01Z</time>
      </trkpt>
      <trkpt lat="44.26234" lon="6.94153">
        <ele>1902</ele>
        <time>2019-08-20T13:05:34Z</time>
      </trkpt>
      <trkpt lat="44.26199" lon="6.94165">
        <ele>1904</ele>
        <time>2019-08-20T13:06:22Z</time>
      </trkpt>
      <trkpt lat="44.26215" lon="6.94177">
        <ele>1909</ele>
        <time>2019-08-20T13:06:46Z</time>
      </trkpt>
      <trkpt lat="44.2616" lon="6.94254">
        <ele>1929</ele>
        <time>2019-08-20T13:08:30Z</time>
      </trkpt>
      <trkpt lat="44.26137" lon="6.94297">
        <ele>1934</ele>
        <time>2019-08-20T13:09:22Z</time>
      </trkpt>
      <trkpt lat="44.26235" lon="6.94331">
        <ele>1967</ele>
        <time>2019-08-20T13:11:36Z</time>
      </trkpt>
      <trkpt lat="44.26257" lon="6.94367">
        <ele>1982</ele>
        <time>2019-08-20T13:12:22Z</time>
      </trkpt>
      <trkpt lat="44.26289" lon="6.94385">
        <ele>1990</ele>
        <time>2019-08-20T13:13:08Z</time>
      </trkpt>
      <trkpt lat="44.26298" lon="6.94401">
        <ele>1997</ele>
        <time>2019-08-20T13:13:27Z</time>
      </trkpt>
      <trkpt lat="44.26284" lon="6.94405">
        <ele>1998</ele>
        <time>2019-08-20T13:13:46Z</time>
      </trkpt>
      <trkpt lat="44.26287" lon="6.9442">
        <ele>2005</ele>
        <time>2019-08-20T13:14:01Z</time>
      </trkpt>
      <trkpt lat="44.26283" lon="6.94424">
        <ele>2006</ele>
        <time>2019-08-20T13:14:08Z</time>
      </trkpt>
      <trkpt lat="44.26323" lon="6.94451">
        <ele>2019</ele>
        <time>2019-08-20T13:15:07Z</time>
      </trkpt>
      <trkpt lat="44.26272" lon="6.94502">
        <ele>2032</ele>
        <time>2019-08-20T13:16:31Z</time>
      </trkpt>
      <trkpt lat="44.26273" lon="6.94524">
        <ele>2038</ele>
        <time>2019-08-20T13:16:52Z</time>
      </trkpt>
      <trkpt lat="44.26257" lon="6.94544">
        <ele>2042</ele>
        <time>2019-08-20T13:17:20Z</time>
      </trkpt>
      <trkpt lat="44.26243" lon="6.94583">
        <ele>2049</ele>
        <time>2019-08-20T13:18:02Z</time>
      </trkpt>
      <trkpt lat="44.2629" lon="6.94579">
        <ele>2056</ele>
        <time>2019-08-20T13:19:05Z</time>
      </trkpt>
      <trkpt lat="44.26293" lon="6.94586">
        <ele>2059</ele>
        <time>2019-08-20T13:19:13Z</time>
      </trkpt>
      <trkpt lat="44.26286" lon="6.94588">
        <ele>2058</ele>
        <time>2019-08-20T13:19:22Z</time>
      </trkpt>
      <trkpt lat="44.26281" lon="6.946">
        <ele>2061</ele>
        <time>2019-08-20T13:19:35Z</time>
      </trkpt>
      <trkpt lat="44.26286" lon="6.94612">
        <ele>2066</ele>
        <time>2019-08-20T13:19:49Z</time>
      </trkpt>
      <trkpt lat="44.26295" lon="6.94619">
        <ele>2070</ele>
        <time>2019-08-20T13:20:02Z</time>
      </trkpt>
      <trkpt lat="44.26284" lon="6.94649">
        <ele>2078</ele>
        <time>2019-08-20T13:20:35Z</time>
      </trkpt>
      <trkpt lat="44.26298" lon="6.94648">
        <ele>2079</ele>
        <time>2019-08-20T13:20:53Z</time>
      </trkpt>
      <trkpt lat="44.26291" lon="6.94664">
        <ele>2084</ele>
        <time>2019-08-20T13:21:11Z</time>
      </trkpt>
      <trkpt lat="44.26289" lon="6.9469">
        <ele>2090</ele>
        <time>2019-08-20T13:21:36Z</time>
      </trkpt>
      <trkpt lat="44.26295" lon="6.94709">
        <ele>2097</ele>
        <time>2019-08-20T13:21:56Z</time>
      </trkpt>
      <trkpt lat="44.26294" lon="6.94731">
        <ele>2103</ele>
        <time>2019-08-20T13:22:17Z</time>
      </trkpt>
      <trkpt lat="44.26295" lon="6.9475">
        <ele>2108</ele>
        <time>2019-08-20T13:22:35Z</time>
      </trkpt>
      <trkpt lat="44.26306" lon="6.94761">
        <ele>2114</ele>
        <time>2019-08-20T13:22:53Z</time>
      </trkpt>
      <trkpt lat="44.26296" lon="6.94789">
        <ele>2118</ele>
        <time>2019-08-20T13:23:23Z</time>
      </trkpt>
      <trkpt lat="44.26294" lon="6.94801">
        <ele>2120</ele>
        <time>2019-08-20T13:23:35Z</time>
      </trkpt>
      <trkpt lat="44.26302" lon="6.9482">
        <ele>2127</ele>
        <time>2019-08-20T13:23:56Z</time>
      </trkpt>
      <trkpt lat="44.26338" lon="6.94809">
        <ele>2135</ele>
        <time>2019-08-20T13:24:45Z</time>
      </trkpt>
      <trkpt lat="44.26339" lon="6.94816">
        <ele>2137</ele>
        <time>2019-08-20T13:24:52Z</time>
      </trkpt>
      <trkpt lat="44.26352" lon="6.94819">
        <ele>2141</ele>
        <time>2019-08-20T13:25:10Z</time>
      </trkpt>
      <trkpt lat="44.26351" lon="6.94831">
        <ele>2144</ele>
        <time>2019-08-20T13:25:21Z</time>
      </trkpt>
      <trkpt lat="44.26378" lon="6.94832">
        <ele>2152</ele>
        <time>2019-08-20T13:25:57Z</time>
      </trkpt>
      <trkpt lat="44.26381" lon="6.94848">
        <ele>2157</ele>
        <time>2019-08-20T13:26:13Z</time>
      </trkpt>
      <trkpt lat="44.26378" lon="6.9489">
        <ele>2166</ele>
        <time>2019-08-20T13:26:53Z</time>
      </trkpt>
      <trkpt lat="44.26381" lon="6.94933">
        <ele>2174</ele>
        <time>2019-08-20T13:27:35Z</time>
      </trkpt>
      <trkpt lat="44.26389" lon="6.94948">
        <ele>2178</ele>
        <time>2019-08-20T13:27:53Z</time>
      </trkpt>
      <trkpt lat="44.26397" lon="6.94995">
        <ele>2186</ele>
        <time>2019-08-20T13:28:39Z</time>
      </trkpt>
      <trkpt lat="44.26401" lon="6.9504">
        <ele>2186</ele>
        <time>2019-08-20T13:29:22Z</time>
      </trkpt>
      <trkpt lat="44.2641" lon="6.95065">
        <ele>2190</ele>
        <time>2019-08-20T13:29:49Z</time>
      </trkpt>
      <trkpt lat="44.26422" lon="6.95072">
        <ele>2196</ele>
        <time>2019-08-20T13:30:06Z</time>
      </trkpt>
      <trkpt lat="44.26415" lon="6.95052">
        <ele>2193</ele>
        <time>2019-08-20T13:30:28Z</time>
      </trkpt>
      <trkpt lat="44.26431" lon="6.95058">
        <ele>2201</ele>
        <time>2019-08-20T13:30:50Z</time>
      </trkpt>
      <trkpt lat="44.26453" lon="6.95052">
        <ele>2212</ele>
        <time>2019-08-20T13:31:20Z</time>
      </trkpt>
      <trkpt lat="44.26483" lon="6.95087">
        <ele>2228</ele>
        <time>2019-08-20T13:32:12Z</time>
      </trkpt>
      <trkpt lat="44.265" lon="6.95101">
        <ele>2236</ele>
        <time>2019-08-20T13:32:38Z</time>
      </trkpt>
      <trkpt lat="44.26501" lon="6.95046">
        <ele>2236</ele>
        <time>2019-08-20T13:33:31Z</time>
      </trkpt>
      <trkpt lat="44.26531" lon="6.95101">
        <ele>2250</ele>
        <time>2019-08-20T13:34:37Z</time>
      </trkpt>
      <trkpt lat="44.26536" lon="6.9507">
        <ele>2252</ele>
        <time>2019-08-20T13:35:07Z</time>
      </trkpt>
      <trkpt lat="44.26583" lon="6.95129">
        <ele>2276</ele>
        <time>2019-08-20T13:36:31Z</time>
      </trkpt>
      <trkpt lat="44.2659" lon="6.95085">
        <ele>2277</ele>
        <time>2019-08-20T13:37:14Z</time>
      </trkpt>
      <trkpt lat="44.26608" lon="6.95103">
        <ele>2283</ele>
        <time>2019-08-20T13:37:44Z</time>
      </trkpt>
      <trkpt lat="44.26634" lon="6.95144">
        <ele>2297</ele>
        <time>2019-08-20T13:38:36Z</time>
      </trkpt>
      <trkpt lat="44.26644" lon="6.95163">
        <ele>2304</ele>
        <time>2019-08-20T13:38:59Z</time>
      </trkpt>
      <trkpt lat="44.26645" lon="6.95178">
        <ele>2306</ele>
        <time>2019-08-20T13:39:13Z</time>
      </trkpt>
      <trkpt lat="44.26653" lon="6.95207">
        <ele>2313</ele>
        <time>2019-08-20T13:39:43Z</time>
      </trkpt>
      <trkpt lat="44.26659" lon="6.95236">
        <ele>2320</ele>
        <time>2019-08-20T13:40:12Z</time>
      </trkpt>
      <trkpt lat="44.26661" lon="6.95289">
        <ele>2324</ele>
        <time>2019-08-20T13:41:03Z</time>
      </trkpt>
      <trkpt lat="44.2667" lon="6.95305">
        <ele>2329</ele>
        <time>2019-08-20T13:41:22Z</time>
      </trkpt>
      <trkpt lat="44.26677" lon="6.9533">
        <ele>2333</ele>
        <time>2019-08-20T13:41:48Z</time>
      </trkpt>
      <trkpt lat="44.26674" lon="6.95356">
        <ele>2331</ele>
        <time>2019-08-20T13:42:13Z</time>
      </trkpt>
      <trkpt lat="44.26676" lon="6.9536">
        <ele>2332</ele>
        <time>2019-08-20T13:42:17Z</time>
      </trkpt>
      <trkpt lat="44.26679" lon="6.95361">
        <ele>2333</ele>
        <time>2019-08-20T13:42:22Z</time>
      </trkpt>
      <trkpt lat="44.26686" lon="6.95394">
        <ele>2336</ele>
        <time>2019-08-20T13:42:54Z</time>
      </trkpt>
      <trkpt lat="44.26691" lon="6.95388">
        <ele>2339</ele>
        <time>2019-08-20T13:43:03Z</time>
      </trkpt>
      <trkpt lat="44.26717" lon="6.95322">
        <ele>2345</ele>
        <time>2019-08-20T13:44:15Z</time>
      </trkpt>
      <trkpt lat="44.26724" lon="6.9531">
        <ele>2345</ele>
        <time>2019-08-20T13:44:30Z</time>
      </trkpt>
      <trkpt lat="44.26726" lon="6.95326">
        <ele>2349</ele>
        <time>2019-08-20T13:44:46Z</time>
      </trkpt>
      <trkpt lat="44.26734" lon="6.95354">
        <ele>2356</ele>
        <time>2019-08-20T13:45:14Z</time>
      </trkpt>
      <trkpt lat="44.26743" lon="6.95369">
        <ele>2363</ele>
        <time>2019-08-20T13:45:33Z</time>
      </trkpt>
      <trkpt lat="44.26772" lon="6.95434">
        <ele>2373</ele>
        <time>2019-08-20T13:46:46Z</time>
      </trkpt>
      <trkpt lat="44.26802" lon="6.95512">
        <ele>2383</ele>
        <time>2019-08-20T13:48:11Z</time>
      </trkpt>
      <trkpt lat="44.26804" lon="6.95535">
        <ele>2380</ele>
        <time>2019-08-20T13:48:33Z</time>
      </trkpt>
      <trkpt lat="44.26809" lon="6.95547">
        <ele>2381</ele>
        <time>2019-08-20T13:48:46Z</time>
      </trkpt>
      <trkpt lat="44.26811" lon="6.95564">
        <ele>2380</ele>
        <time>2019-08-20T13:49:03Z</time>
      </trkpt>
      <trkpt lat="44.26821" lon="6.95573">
        <ele>2386</ele>
        <time>2019-08-20T13:49:19Z</time>
      </trkpt>
      <trkpt lat="44.26844" lon="6.95604">
        <ele>2392</ele>
        <time>2019-08-20T13:50:01Z</time>
      </trkpt>
      <trkpt lat="44.26877" lon="6.95675">
        <ele>2390</ele>
        <time>2019-08-20T13:51:22Z</time>
      </trkpt>
      <trkpt lat="44.26883" lon="6.95695">
        <ele>2387</ele>
        <time>2019-08-20T13:51:43Z</time>
      </trkpt>
      <trkpt lat="44.26903" lon="6.95721">
        <ele>2393</ele>
        <time>2019-08-20T13:52:19Z</time>
      </trkpt>
      <trkpt lat="44.26908" lon="6.95723">
        <ele>2396</ele>
        <time>2019-08-20T13:52:26Z</time>
      </trkpt>
      <trkpt lat="44.26936" lon="6.95759">
        <ele>2408</ele>
        <time>2019-08-20T13:53:17Z</time>
      </trkpt>
      <trkpt lat="44.26946" lon="6.95811">
        <ele>2404</ele>
        <time>2019-08-20T13:54:08Z</time>
      </trkpt>
      <trkpt lat="44.2694" lon="6.95861">
        <ele>2391</ele>
        <time>2019-08-20T13:54:57Z</time>
      </trkpt>
      <trkpt lat="44.26965" lon="6.95896">
        <ele>2404</ele>
        <time>2019-08-20T13:55:44Z</time>
      </trkpt>
      <trkpt lat="44.2699" lon="6.95945">
        <ele>2415</ele>
        <time>2019-08-20T13:56:42Z</time>
      </trkpt>
      <trkpt lat="44.26997" lon="6.95977">
        <ele>2417</ele>
        <time>2019-08-20T13:57:14Z</time>
      </trkpt>
      <trkpt lat="44.26994" lon="6.96045">
        <ele>2409</ele>
        <time>2019-08-20T13:58:19Z</time>
      </trkpt>
      <trkpt lat="44.26995" lon="6.9606">
        <ele>2409</ele>
        <time>2019-08-20T13:58:33Z</time>
      </trkpt>
      <trkpt lat="44.27008" lon="6.96125">
        <ele>2415</ele>
        <time>2019-08-20T13:59:38Z</time>
      </trkpt>
      <trkpt lat="44.27017" lon="6.96132">
        <ele>2423</ele>
        <time>2019-08-20T13:59:51Z</time>
      </trkpt>
      <trkpt lat="44.27025" lon="6.96142">
        <ele>2429</ele>
        <time>2019-08-20T14:00:06Z</time>
      </trkpt>
      <trkpt lat="44.27027" lon="6.96158">
        <ele>2430</ele>
        <time>2019-08-20T14:00:21Z</time>
      </trkpt>
      <trkpt lat="44.27025" lon="6.96178">
        <ele>2424</ele>
        <time>2019-08-20T14:00:41Z</time>
      </trkpt>
      <trkpt lat="44.27019" lon="6.96191">
        <ele>2415</ele>
        <time>2019-08-20T14:00:55Z</time>
      </trkpt>
      <trkpt lat="44.27023" lon="6.96201">
        <ele>2415</ele>
        <time>2019-08-20T14:01:06Z</time>
      </trkpt>
      <trkpt lat="44.2703" lon="6.96208">
        <ele>2419</ele>
        <time>2019-08-20T14:01:18Z</time>
      </trkpt>
      <trkpt lat="44.27033" lon="6.9622">
        <ele>2418</ele>
        <time>2019-08-20T14:01:30Z</time>
      </trkpt>
      <trkpt lat="44.27031" lon="6.96236">
        <ele>2412</ele>
        <time>2019-08-20T14:01:45Z</time>
      </trkpt>
      <trkpt lat="44.27037" lon="6.96254">
        <ele>2411</ele>
        <time>2019-08-20T14:02:04Z</time>
      </trkpt>
      <trkpt lat="44.27031" lon="6.96268">
        <ele>2400</ele>
        <time>2019-08-20T14:02:20Z</time>
      </trkpt>
      <trkpt lat="44.27034" lon="6.96302">
        <ele>2389</ele>
        <time>2019-08-20T14:02:53Z</time>
      </trkpt>
      <trkpt lat="44.2705" lon="6.96312">
        <ele>2399</ele>
        <time>2019-08-20T14:03:16Z</time>
      </trkpt>
      <trkpt lat="44.27069" lon="6.96317">
        <ele>2415</ele>
        <time>2019-08-20T14:03:42Z</time>
      </trkpt>
      <trkpt lat="44.27077" lon="6.96324">
        <ele>2419</ele>
        <time>2019-08-20T14:03:54Z</time>
      </trkpt>
      <trkpt lat="44.27075" lon="6.96344">
        <ele>2412</ele>
        <time>2019-08-20T14:04:14Z</time>
      </trkpt>
      <trkpt lat="44.27067" lon="6.96376">
        <ele>2396</ele>
        <time>2019-08-20T14:04:46Z</time>
      </trkpt>
      <trkpt lat="44.27065" lon="6.96422">
        <ele>2383</ele>
        <time>2019-08-20T14:05:30Z</time>
      </trkpt>
      <trkpt lat="44.27071" lon="6.96429">
        <ele>2390</ele>
        <time>2019-08-20T14:05:41Z</time>
      </trkpt>
      <trkpt lat="44.27083" lon="6.96429">
        <ele>2404</ele>
        <time>2019-08-20T14:05:57Z</time>
      </trkpt>
      <trkpt lat="44.27086" lon="6.96436">
        <ele>2406</ele>
        <time>2019-08-20T14:06:04Z</time>
      </trkpt>
      <trkpt lat="44.27102" lon="6.96461">
        <ele>2419</ele>
        <time>2019-08-20T14:06:36Z</time>
      </trkpt>
      <trkpt lat="44.27108" lon="6.96474">
        <ele>2424</ele>
        <time>2019-08-20T14:06:51Z</time>
      </trkpt>
      <trkpt lat="44.2711" lon="6.96489">
        <ele>2425</ele>
        <time>2019-08-20T14:07:06Z</time>
      </trkpt>
      <trkpt lat="44.27116" lon="6.965">
        <ele>2431</ele>
        <time>2019-08-20T14:07:19Z</time>
      </trkpt>
      <trkpt lat="44.27115" lon="6.96512">
        <ele>2431</ele>
        <time>2019-08-20T14:07:31Z</time>
      </trkpt>
      <trkpt lat="44.27106" lon="6.96519">
        <ele>2422</ele>
        <time>2019-08-20T14:07:44Z</time>
      </trkpt>
      <trkpt lat="44.27095" lon="6.9653">
        <ele>2411</ele>
        <time>2019-08-20T14:08:02Z</time>
      </trkpt>
      <trkpt lat="44.27099" lon="6.96545">
        <ele>2415</ele>
        <time>2019-08-20T14:08:18Z</time>
      </trkpt>
      <trkpt lat="44.27094" lon="6.96564">
        <ele>2410</ele>
        <time>2019-08-20T14:08:37Z</time>
      </trkpt>
      <trkpt lat="44.27083" lon="6.96579">
        <ele>2398</ele>
        <time>2019-08-20T14:08:58Z</time>
      </trkpt>
      <trkpt lat="44.27075" lon="6.96598">
        <ele>2384</ele>
        <time>2019-08-20T14:09:19Z</time>
      </trkpt>
      <trkpt lat="44.2706" lon="6.96644">
        <ele>2351</ele>
        <time>2019-08-20T14:10:07Z</time>
      </trkpt>
      <trkpt lat="44.27059" lon="6.96657">
        <ele>2345</ele>
        <time>2019-08-20T14:10:19Z</time>
      </trkpt>
      <trkpt lat="44.27061" lon="6.96677">
        <ele>2338</ele>
        <time>2019-08-20T14:10:39Z</time>
      </trkpt>
      <trkpt lat="44.27057" lon="6.96701">
        <ele>2326</ele>
        <time>2019-08-20T14:11:02Z</time>
      </trkpt>
      <trkpt lat="44.27067" lon="6.96738">
        <ele>2318</ele>
        <time>2019-08-20T14:11:40Z</time>
      </trkpt>
      <trkpt lat="44.27073" lon="6.96754">
        <ele>2317</ele>
        <time>2019-08-20T14:11:57Z</time>
      </trkpt>
      <trkpt lat="44.27074" lon="6.96764">
        <ele>2317</ele>
        <time>2019-08-20T14:12:07Z</time>
      </trkpt>
      <trkpt lat="44.27082" lon="6.96775">
        <ele>2322</ele>
        <time>2019-08-20T14:12:22Z</time>
      </trkpt>
      <trkpt lat="44.27091" lon="6.96771">
        <ele>2331</ele>
        <time>2019-08-20T14:12:35Z</time>
      </trkpt>
      <trkpt lat="44.27097" lon="6.96754">
        <ele>2338</ele>
        <time>2019-08-20T14:12:53Z</time>
      </trkpt>
      <trkpt lat="44.27108" lon="6.96751">
        <ele>2349</ele>
        <time>2019-08-20T14:13:08Z</time>
      </trkpt>
      <trkpt lat="44.27104" lon="6.96778">
        <ele>2344</ele>
        <time>2019-08-20T14:13:34Z</time>
      </trkpt>
      <trkpt lat="44.27123" lon="6.96789">
        <ele>2363</ele>
        <time>2019-08-20T14:14:01Z</time>
      </trkpt>
      <trkpt lat="44.27134" lon="6.96788">
        <ele>2374</ele>
        <time>2019-08-20T14:14:16Z</time>
      </trkpt>
      <trkpt lat="44.27147" lon="6.96795">
        <ele>2386</ele>
        <time>2019-08-20T14:14:35Z</time>
      </trkpt>
      <trkpt lat="44.2716" lon="6.96789">
        <ele>2400</ele>
        <time>2019-08-20T14:14:53Z</time>
      </trkpt>
      <trkpt lat="44.27185" lon="6.96813">
        <ele>2418</ele>
        <time>2019-08-20T14:15:33Z</time>
      </trkpt>
      <trkpt lat="44.27198" lon="6.96815">
        <ele>2428</ele>
        <time>2019-08-20T14:15:51Z</time>
      </trkpt>
      <trkpt lat="44.27206" lon="6.96823">
        <ele>2433</ele>
        <time>2019-08-20T14:16:04Z</time>
      </trkpt>
      <trkpt lat="44.27203" lon="6.96851">
        <ele>2425</ele>
        <time>2019-08-20T14:16:31Z</time>
      </trkpt>
      <trkpt lat="44.27218" lon="6.96873">
        <ele>2431</ele>
        <time>2019-08-20T14:17:00Z</time>
      </trkpt>
      <trkpt lat="44.27225" lon="6.96887">
        <ele>2434</ele>
        <time>2019-08-20T14:17:16Z</time>
      </trkpt>
      <trkpt lat="44.27233" lon="6.96889">
        <ele>2440</ele>
        <time>2019-08-20T14:17:27Z</time>
      </trkpt>
      <trkpt lat="44.27226" lon="6.9693">
        <ele>2427</ele>
        <time>2019-08-20T14:18:08Z</time>
      </trkpt>
      <trkpt lat="44.27221" lon="6.96986">
        <ele>2415</ele>
        <time>2019-08-20T14:19:01Z</time>
      </trkpt>
      <trkpt lat="44.27231" lon="6.97022">
        <ele>2423</ele>
        <time>2019-08-20T14:19:38Z</time>
      </trkpt>
      <trkpt lat="44.2724" lon="6.97045">
        <ele>2432</ele>
        <time>2019-08-20T14:20:03Z</time>
      </trkpt>
      <trkpt lat="44.27237" lon="6.97065">
        <ele>2430</ele>
        <time>2019-08-20T14:20:23Z</time>
      </trkpt>
      <trkpt lat="44.27235" lon="6.97104">
        <ele>2432</ele>
        <time>2019-08-20T14:21:00Z</time>
      </trkpt>
      <trkpt lat="44.27237" lon="6.9711">
        <ele>2435</ele>
        <time>2019-08-20T14:21:07Z</time>
      </trkpt>
      <trkpt lat="44.27238" lon="6.97127">
        <ele>2438</ele>
        <time>2019-08-20T14:21:23Z</time>
      </trkpt>
      <trkpt lat="44.27237" lon="6.97151">
        <ele>2440</ele>
        <time>2019-08-20T14:21:46Z</time>
      </trkpt>
      <trkpt lat="44.27233" lon="6.97171">
        <ele>2440</ele>
        <time>2019-08-20T14:22:06Z</time>
      </trkpt>
      <trkpt lat="44.27217" lon="6.97193">
        <ele>2433</ele>
        <time>2019-08-20T14:22:36Z</time>
      </trkpt>
      <trkpt lat="44.27209" lon="6.97226">
        <ele>2435</ele>
        <time>2019-08-20T14:23:09Z</time>
      </trkpt>
      <trkpt lat="44.27199" lon="6.97252">
        <ele>2433</ele>
        <time>2019-08-20T14:23:37Z</time>
      </trkpt>
      <trkpt lat="44.27197" lon="6.97276">
        <ele>2440</ele>
        <time>2019-08-20T14:24:00Z</time>
      </trkpt>
      <trkpt lat="44.27163" lon="6.97336">
        <ele>2435</ele>
        <time>2019-08-20T14:25:13Z</time>
      </trkpt>
      <trkpt lat="44.27155" lon="6.9736">
        <ele>2439</ele>
        <time>2019-08-20T14:25:39Z</time>
      </trkpt>
      <trkpt lat="44.27151" lon="6.9738">
        <ele>2443</ele>
        <time>2019-08-20T14:25:59Z</time>
      </trkpt>
      <trkpt lat="44.27133" lon="6.97416">
        <ele>2448</ele>
        <time>2019-08-20T14:26:40Z</time>
      </trkpt>
      <trkpt lat="44.27128" lon="6.97448">
        <ele>2459</ele>
        <time>2019-08-20T14:27:12Z</time>
      </trkpt>
      <trkpt lat="44.27123" lon="6.97461">
        <ele>2462</ele>
        <time>2019-08-20T14:27:26Z</time>
      </trkpt>
      <trkpt lat="44.27118" lon="6.97481">
        <ele>2469</ele>
        <time>2019-08-20T14:27:46Z</time>
      </trkpt>
      <trkpt lat="44.27122" lon="6.97504">
        <ele>2480</ele>
        <time>2019-08-20T14:28:09Z</time>
      </trkpt>
      <trkpt lat="44.27073" lon="6.97539">
        <ele>2481</ele>
        <time>2019-08-20T14:29:22Z</time>
      </trkpt>
      <trkpt lat="44.27026" lon="6.97557">
        <ele>2480</ele>
        <time>2019-08-20T14:30:27Z</time>
      </trkpt>
      <trkpt lat="44.2701" lon="6.97564">
        <ele>2480</ele>
        <time>2019-08-20T14:30:50Z</time>
      </trkpt>
      <trkpt lat="44.26998" lon="6.97586">
        <ele>2488</ele>
        <time>2019-08-20T14:31:16Z</time>
      </trkpt>
      <trkpt lat="44.26984" lon="6.97602">
        <ele>2488</ele>
        <time>2019-08-20T14:31:40Z</time>
      </trkpt>
      <trkpt lat="44.26977" lon="6.97641">
        <ele>2497</ele>
        <time>2019-08-20T14:32:19Z</time>
      </trkpt>
      <trkpt lat="44.26996" lon="6.97675">
        <ele>2507</ele>
        <time>2019-08-20T14:33:00Z</time>
      </trkpt>
      <trkpt lat="44.26977" lon="6.97759">
        <ele>2514</ele>
        <time>2019-08-20T14:34:24Z</time>
      </trkpt>
      <trkpt lat="44.26951" lon="6.97821">
        <ele>2509</ele>
        <time>2019-08-20T14:35:33Z</time>
      </trkpt>
      <trkpt lat="44.26942" lon="6.97823">
        <ele>2508</ele>
        <time>2019-08-20T14:35:45Z</time>
      </trkpt>
      <trkpt lat="44.26935" lon="6.97844">
        <ele>2506</ele>
        <time>2019-08-20T14:36:07Z</time>
      </trkpt>
      <trkpt lat="44.26916" lon="6.97841">
        <ele>2505</ele>
        <time>2019-08-20T14:36:32Z</time>
      </trkpt>
      <trkpt lat="44.26903" lon="6.97842">
        <ele>2506</ele>
        <time>2019-08-20T14:36:50Z</time>
      </trkpt>
      <trkpt lat="44.26898" lon="6.97832">
        <ele>2507</ele>
        <time>2019-08-20T14:37:01Z</time>
      </trkpt>
      <trkpt lat="44.26895" lon="6.97831">
        <ele>2507</ele>
        <time>2019-08-20T14:37:06Z</time>
      </trkpt>
      <trkpt lat="44.2689" lon="6.97824">
        <ele>2508</ele>
        <time>2019-08-20T14:37:15Z</time>
      </trkpt>
      <trkpt lat="44.26888" lon="6.97832">
        <ele>2508</ele>
        <time>2019-08-20T14:37:23Z</time>
      </trkpt>
      <trkpt lat="44.2686" lon="6.9786">
        <ele>2508</ele>
        <time>2019-08-20T14:38:09Z</time>
      </trkpt>
      <trkpt lat="44.26851" lon="6.9786">
        <ele>2509</ele>
        <time>2019-08-20T14:38:21Z</time>
      </trkpt>
      <trkpt lat="44.26843" lon="6.9787">
        <ele>2508</ele>
        <time>2019-08-20T14:38:35Z</time>
      </trkpt>
      <trkpt lat="44.26838" lon="6.97871">
        <ele>2509</ele>
        <time>2019-08-20T14:38:42Z</time>
      </trkpt>
      <trkpt lat="44.26838" lon="6.97859">
        <ele>2510</ele>
        <time>2019-08-20T14:38:54Z</time>
      </trkpt>
      <trkpt lat="44.2684" lon="6.97856">
        <ele>2510</ele>
        <time>2019-08-20T14:38:58Z</time>
      </trkpt>
      <trkpt lat="44.26841" lon="6.97851">
        <ele>2511</ele>
        <time>2019-08-20T14:39:03Z</time>
      </trkpt>
      <trkpt lat="44.26839" lon="6.97847">
        <ele>2512</ele>
        <time>2019-08-20T14:39:07Z</time>
      </trkpt>
      <trkpt lat="44.26844" lon="6.97838">
        <ele>2512</ele>
        <time>2019-08-20T14:39:18Z</time>
      </trkpt>
      <trkpt lat="44.26834" lon="6.97839">
        <ele>2513</ele>
        <time>2019-08-20T14:39:31Z</time>
      </trkpt>
      <trkpt lat="44.26823" lon="6.97863">
        <ele>2510</ele>
        <time>2019-08-20T14:39:59Z</time>
      </trkpt>
      <trkpt lat="44.26824" lon="6.97883">
        <ele>2508</ele>
        <time>2019-08-20T14:40:18Z</time>
      </trkpt>
      <trkpt lat="44.26817" lon="6.979">
        <ele>2506</ele>
        <time>2019-08-20T14:40:37Z</time>
      </trkpt>
      <trkpt lat="44.26815" lon="6.97912">
        <ele>2505</ele>
        <time>2019-08-20T14:40:48Z</time>
      </trkpt>
      <trkpt lat="44.2681" lon="6.9793">
        <ele>2504</ele>
        <time>2019-08-20T14:41:07Z</time>
      </trkpt>
      <trkpt lat="44.26816" lon="6.97933">
        <ele>2503</ele>
        <time>2019-08-20T14:41:15Z</time>
      </trkpt>
      <trkpt lat="44.26803" lon="6.97946">
        <ele>2503</ele>
        <time>2019-08-20T14:41:37Z</time>
      </trkpt>
      <trkpt lat="44.26792" lon="6.97977">
        <ele>2502</ele>
        <time>2019-08-20T14:42:10Z</time>
      </trkpt>
      <trkpt lat="44.26789" lon="6.98003">
        <ele>2501</ele>
        <time>2019-08-20T14:42:35Z</time>
      </trkpt>
      <trkpt lat="44.26791" lon="6.9801">
        <ele>2501</ele>
        <time>2019-08-20T14:42:42Z</time>
      </trkpt>
      <trkpt lat="44.26792" lon="6.98022">
        <ele>2500</ele>
        <time>2019-08-20T14:42:54Z</time>
      </trkpt>
      <trkpt lat="44.26788" lon="6.98031">
        <ele>2501</ele>
        <time>2019-08-20T14:43:04Z</time>
      </trkpt>
      <trkpt lat="44.26786" lon="6.98039">
        <ele>2501</ele>
        <time>2019-08-20T14:43:12Z</time>
      </trkpt>
      <trkpt lat="44.26776" lon="6.98053">
        <ele>2501</ele>
        <time>2019-08-20T14:43:31Z</time>
      </trkpt>
      <trkpt lat="44.26772" lon="6.98054">
        <ele>2502</ele>
        <time>2019-08-20T14:43:36Z</time>
      </trkpt>
      <trkpt lat="44.26761" lon="6.98071">
        <ele>2502</ele>
        <time>2019-08-20T14:43:58Z</time>
      </trkpt>
      <trkpt lat="44.26747" lon="6.98081">
        <ele>2504</ele>
        <time>2019-08-20T14:44:19Z</time>
      </trkpt>
      <trkpt lat="44.26739" lon="6.98091">
        <ele>2507</ele>
        <time>2019-08-20T14:44:33Z</time>
      </trkpt>
      <trkpt lat="44.2671" lon="6.98112">
        <ele>2516</ele>
        <time>2019-08-20T14:45:17Z</time>
      </trkpt>
      <trkpt lat="44.26705" lon="6.98125">
        <ele>2517</ele>
        <time>2019-08-20T14:45:31Z</time>
      </trkpt>
      <trkpt lat="44.26691" lon="6.98143">
        <ele>2522</ele>
        <time>2019-08-20T14:45:56Z</time>
      </trkpt>
      <trkpt lat="44.26682" lon="6.98158">
        <ele>2525</ele>
        <time>2019-08-20T14:46:15Z</time>
      </trkpt>
      <trkpt lat="44.26676" lon="6.98165">
        <ele>2527</ele>
        <time>2019-08-20T14:46:26Z</time>
      </trkpt>
      <trkpt lat="44.26671" lon="6.98121">
        <ele>2530</ele>
        <time>2019-08-20T14:47:08Z</time>
      </trkpt>
      <trkpt lat="44.26659" lon="6.98144">
        <ele>2534</ele>
        <time>2019-08-20T14:47:35Z</time>
      </trkpt>
      <trkpt lat="44.26657" lon="6.98159">
        <ele>2535</ele>
        <time>2019-08-20T14:47:50Z</time>
      </trkpt>
      <trkpt lat="44.26629" lon="6.98196">
        <ele>2548</ele>
        <time>2019-08-20T14:48:41Z</time>
      </trkpt>
      <trkpt lat="44.26629" lon="6.9821">
        <ele>2547</ele>
        <time>2019-08-20T14:48:55Z</time>
      </trkpt>
      <trkpt lat="44.26622" lon="6.98225">
        <ele>2550</ele>
        <time>2019-08-20T14:49:12Z</time>
      </trkpt>
      <trkpt lat="44.266" lon="6.98253">
        <ele>2560</ele>
        <time>2019-08-20T14:49:52Z</time>
      </trkpt>
      <trkpt lat="44.26601" lon="6.98216">
        <ele>2562</ele>
        <time>2019-08-20T14:50:27Z</time>
      </trkpt>
      <trkpt lat="44.2659" lon="6.98194">
        <ele>2570</ele>
        <time>2019-08-20T14:50:53Z</time>
      </trkpt>
      <trkpt lat="44.2659" lon="6.9817">
        <ele>2571</ele>
        <time>2019-08-20T14:51:16Z</time>
      </trkpt>
      <trkpt lat="44.26592" lon="6.98157">
        <ele>2570</ele>
        <time>2019-08-20T14:51:28Z</time>
      </trkpt>
      <trkpt lat="44.26593" lon="6.98117">
        <ele>2566</ele>
        <time>2019-08-20T14:52:06Z</time>
      </trkpt>
      <trkpt lat="44.26586" lon="6.98095">
        <ele>2567</ele>
        <time>2019-08-20T14:52:29Z</time>
      </trkpt>
      <trkpt lat="44.2658" lon="6.98092">
        <ele>2569</ele>
        <time>2019-08-20T14:52:38Z</time>
      </trkpt>
      <trkpt lat="44.26576" lon="6.98076">
        <ele>2569</ele>
        <time>2019-08-20T14:52:54Z</time>
      </trkpt>
      <trkpt lat="44.26576" lon="6.98067">
        <ele>2568</ele>
        <time>2019-08-20T14:53:03Z</time>
      </trkpt>
      <trkpt lat="44.26574" lon="6.98056">
        <ele>2568</ele>
        <time>2019-08-20T14:53:14Z</time>
      </trkpt>
      <trkpt lat="44.26565" lon="6.98043">
        <ele>2571</ele>
        <time>2019-08-20T14:53:31Z</time>
      </trkpt>
      <trkpt lat="44.26557" lon="6.9804">
        <ele>2574</ele>
        <time>2019-08-20T14:53:42Z</time>
      </trkpt>
      <trkpt lat="44.26551" lon="6.98045">
        <ele>2577</ele>
        <time>2019-08-20T14:53:51Z</time>
      </trkpt>
      <trkpt lat="44.26547" lon="6.98042">
        <ele>2578</ele>
        <time>2019-08-20T14:53:57Z</time>
      </trkpt>
      <trkpt lat="44.26533" lon="6.9804">
        <ele>2584</ele>
        <time>2019-08-20T14:54:16Z</time>
      </trkpt>
      <trkpt lat="44.26528" lon="6.98043">
        <ele>2586</ele>
        <time>2019-08-20T14:54:23Z</time>
      </trkpt>
      <trkpt lat="44.26519" lon="6.98042">
        <ele>2590</ele>
        <time>2019-08-20T14:54:35Z</time>
      </trkpt>
      <trkpt lat="44.26509" lon="6.9803">
        <ele>2594</ele>
        <time>2019-08-20T14:54:53Z</time>
      </trkpt>
      <trkpt lat="44.265" lon="6.98029">
        <ele>2597</ele>
        <time>2019-08-20T14:55:05Z</time>
      </trkpt>
      <trkpt lat="44.26488" lon="6.98035">
        <ele>2594</ele>
        <time>2019-08-20T14:55:22Z</time>
      </trkpt>
      <trkpt lat="44.26485" lon="6.98044">
        <ele>2594</ele>
        <time>2019-08-20T14:55:32Z</time>
      </trkpt>
      <trkpt lat="44.2648" lon="6.98049">
        <ele>2593</ele>
        <time>2019-08-20T14:55:40Z</time>
      </trkpt>
      <trkpt lat="44.2647" lon="6.98047">
        <ele>2590</ele>
        <time>2019-08-20T14:55:53Z</time>
      </trkpt>
      <trkpt lat="44.26465" lon="6.98043">
        <ele>2589</ele>
        <time>2019-08-20T14:56:01Z</time>
      </trkpt>
      <trkpt lat="44.26457" lon="6.9804">
        <ele>2587</ele>
        <time>2019-08-20T14:56:12Z</time>
      </trkpt>
      <trkpt lat="44.2645" lon="6.98062">
        <ele>2587</ele>
        <time>2019-08-20T14:56:35Z</time>
      </trkpt>
      <trkpt lat="44.2646" lon="6.98098">
        <ele>2594</ele>
        <time>2019-08-20T14:57:12Z</time>
      </trkpt>
      <trkpt lat="44.26456" lon="6.98124">
        <ele>2600</ele>
        <time>2019-08-20T14:57:37Z</time>
      </trkpt>
      <trkpt lat="44.26458" lon="6.98129">
        <ele>2602</ele>
        <time>2019-08-20T14:57:43Z</time>
      </trkpt>
      <trkpt lat="44.26458" lon="6.98144">
        <ele>2606</ele>
        <time>2019-08-20T14:57:57Z</time>
      </trkpt>
      <trkpt lat="44.26443" lon="6.98143">
        <ele>2604</ele>
        <time>2019-08-20T14:58:17Z</time>
      </trkpt>
      <trkpt lat="44.26451" lon="6.98159">
        <ele>2609</ele>
        <time>2019-08-20T14:58:36Z</time>
      </trkpt>
      <trkpt lat="44.26469" lon="6.98165">
        <ele>2612</ele>
        <time>2019-08-20T14:59:01Z</time>
      </trkpt>
      <trkpt lat="44.26473" lon="6.98179">
        <ele>2614</ele>
        <time>2019-08-20T14:59:15Z</time>
      </trkpt>
      <trkpt lat="44.2648" lon="6.9819">
        <ele>2616</ele>
        <time>2019-08-20T14:59:29Z</time>
      </trkpt>
      <trkpt lat="44.26484" lon="6.98201">
        <ele>2617</ele>
        <time>2019-08-20T14:59:41Z</time>
      </trkpt>
      <trkpt lat="44.26473" lon="6.98197">
        <ele>2617</ele>
        <time>2019-08-20T14:59:56Z</time>
      </trkpt>
      <trkpt lat="44.26452" lon="6.98202">
        <ele>2619</ele>
        <time>2019-08-20T15:00:24Z</time>
      </trkpt>
      <trkpt lat="44.26427" lon="6.98219">
        <ele>2626</ele>
        <time>2019-08-20T15:01:01Z</time>
      </trkpt>
      <trkpt lat="44.26404" lon="6.9825">
        <ele>2637</ele>
        <time>2019-08-20T15:01:44Z</time>
      </trkpt>
      <trkpt lat="44.26396" lon="6.98279">
        <ele>2638</ele>
        <time>2019-08-20T15:02:14Z</time>
      </trkpt>
      <trkpt lat="44.26378" lon="6.983">
        <ele>2640</ele>
        <time>2019-08-20T15:02:45Z</time>
      </trkpt>
      <trkpt lat="44.2636" lon="6.98309">
        <ele>2642</ele>
        <time>2019-08-20T15:03:11Z</time>
      </trkpt>
      <trkpt lat="44.26329" lon="6.98367">
        <ele>2651</ele>
        <time>2019-08-20T15:04:20Z</time>
      </trkpt>
      <trkpt lat="44.26307" lon="6.98384">
        <ele>2655</ele>
        <time>2019-08-20T15:04:53Z</time>
      </trkpt>
      <trkpt lat="44.2629" lon="6.98405">
        <ele>2662</ele>
        <time>2019-08-20T15:05:24Z</time>
      </trkpt>
      <trkpt lat="44.2628" lon="6.98421">
        <ele>2666</ele>
        <time>2019-08-20T15:05:44Z</time>
      </trkpt>
      <trkpt lat="44.26277" lon="6.98416">
        <ele>2667</ele>
        <time>2019-08-20T15:05:50Z</time>
      </trkpt>
      <trkpt lat="44.26266" lon="6.98411">
        <ele>2670</ele>
        <time>2019-08-20T15:06:06Z</time>
      </trkpt>
      <trkpt lat="44.26262" lon="6.98404">
        <ele>2669</ele>
        <time>2019-08-20T15:06:14Z</time>
      </trkpt>
      <trkpt lat="44.2626" lon="6.98403">
        <ele>2670</ele>
        <time>2019-08-20T15:06:17Z</time>
      </trkpt>
      <trkpt lat="44.26244" lon="6.98404">
        <ele>2672</ele>
        <time>2019-08-20T15:06:38Z</time>
      </trkpt>
      <trkpt lat="44.26232" lon="6.98399">
        <ele>2670</ele>
        <time>2019-08-20T15:06:55Z</time>
      </trkpt>
      <trkpt lat="44.26223" lon="6.98403">
        <ele>2671</ele>
        <time>2019-08-20T15:07:08Z</time>
      </trkpt>
      <trkpt lat="44.26216" lon="6.98401">
        <ele>2670</ele>
        <time>2019-08-20T15:07:17Z</time>
      </trkpt>
      <trkpt lat="44.26206" lon="6.98388">
        <ele>2666</ele>
        <time>2019-08-20T15:07:35Z</time>
      </trkpt>
      <trkpt lat="44.26197" lon="6.98395">
        <ele>2667</ele>
        <time>2019-08-20T15:07:49Z</time>
      </trkpt>
      <trkpt lat="44.26184" lon="6.98386">
        <ele>2664</ele>
        <time>2019-08-20T15:08:09Z</time>
      </trkpt>
      <trkpt lat="44.26172" lon="6.98396">
        <ele>2666</ele>
        <time>2019-08-20T15:08:27Z</time>
      </trkpt>
      <trkpt lat="44.26141" lon="6.98414">
        <ele>2664</ele>
        <time>2019-08-20T15:09:12Z</time>
      </trkpt>
      <trkpt lat="44.26129" lon="6.98405">
        <ele>2659</ele>
        <time>2019-08-20T15:09:30Z</time>
      </trkpt>
      <trkpt lat="44.26123" lon="6.98407">
        <ele>2658</ele>
        <time>2019-08-20T15:09:38Z</time>
      </trkpt>
      <trkpt lat="44.26118" lon="6.9841">
        <ele>2657</ele>
        <time>2019-08-20T15:09:46Z</time>
      </trkpt>
      <trkpt lat="44.26118" lon="6.98375">
        <ele>2649</ele>
        <time>2019-08-20T15:10:19Z</time>
      </trkpt>
      <trkpt lat="44.26121" lon="6.98358">
        <ele>2645</ele>
        <time>2019-08-20T15:10:36Z</time>
      </trkpt>
      <trkpt lat="44.26127" lon="6.98337">
        <ele>2641</ele>
        <time>2019-08-20T15:10:58Z</time>
      </trkpt>
      <trkpt lat="44.26117" lon="6.98343">
        <ele>2640</ele>
        <time>2019-08-20T15:11:12Z</time>
      </trkpt>
      <trkpt lat="44.26109" lon="6.98352">
        <ele>2640</ele>
        <time>2019-08-20T15:11:26Z</time>
      </trkpt>
      <trkpt lat="44.26104" lon="6.98362">
        <ele>2642</ele>
        <time>2019-08-20T15:11:37Z</time>
      </trkpt>
      <trkpt lat="44.2609" lon="6.98412">
        <ele>2651</ele>
        <time>2019-08-20T15:12:29Z</time>
      </trkpt>
      <trkpt lat="44.26074" lon="6.98436">
        <ele>2658</ele>
        <time>2019-08-20T15:13:00Z</time>
      </trkpt>
      <trkpt lat="44.26055" lon="6.98431">
        <ele>2655</ele>
        <time>2019-08-20T15:13:26Z</time>
      </trkpt>
      <trkpt lat="44.26033" lon="6.98432">
        <ele>2655</ele>
        <time>2019-08-20T15:13:55Z</time>
      </trkpt>
      <trkpt lat="44.25991" lon="6.98427">
        <ele>2654</ele>
        <time>2019-08-20T15:14:51Z</time>
      </trkpt>
      <trkpt lat="44.25958" lon="6.98414">
        <ele>2660</ele>
        <time>2019-08-20T15:15:37Z</time>
      </trkpt>
      <trkpt lat="44.25952" lon="6.98413">
        <ele>2662</ele>
        <time>2019-08-20T15:15:45Z</time>
      </trkpt>
      <trkpt lat="44.25932" lon="6.98397">
        <ele>2661</ele>
        <time>2019-08-20T15:16:16Z</time>
      </trkpt>
      <trkpt lat="44.25936" lon="6.9841">
        <ele>2667</ele>
        <time>2019-08-20T15:16:30Z</time>
      </trkpt>
      <trkpt lat="44.25944" lon="6.98425">
        <ele>2672</ele>
        <time>2019-08-20T15:16:47Z</time>
      </trkpt>
      <trkpt lat="44.25952" lon="6.98443">
        <ele>2680</ele>
        <time>2019-08-20T15:17:08Z</time>
      </trkpt>
      <trkpt lat="44.25928" lon="6.98433">
        <ele>2684</ele>
        <time>2019-08-20T15:17:41Z</time>
      </trkpt>
      <trkpt lat="44.25919" lon="6.98427">
        <ele>2684</ele>
        <time>2019-08-20T15:17:54Z</time>
      </trkpt>
      <trkpt lat="44.25921" lon="6.98439">
        <ele>2690</ele>
        <time>2019-08-20T15:18:06Z</time>
      </trkpt>
      <trkpt lat="44.25906" lon="6.98425">
        <ele>2685</ele>
        <time>2019-08-20T15:18:30Z</time>
      </trkpt>
      <trkpt lat="44.25903" lon="6.9843">
        <ele>2689</ele>
        <time>2019-08-20T15:18:37Z</time>
      </trkpt>
      <trkpt lat="44.25895" lon="6.98431">
        <ele>2690</ele>
        <time>2019-08-20T15:18:47Z</time>
      </trkpt>
      <trkpt lat="44.25888" lon="6.98428">
        <ele>2689</ele>
        <time>2019-08-20T15:18:57Z</time>
      </trkpt>
      <trkpt lat="44.2588" lon="6.98418">
        <ele>2686</ele>
        <time>2019-08-20T15:19:11Z</time>
      </trkpt>
      <trkpt lat="44.25876" lon="6.98415">
        <ele>2685</ele>
        <time>2019-08-20T15:19:17Z</time>
      </trkpt>
      <trkpt lat="44.25854" lon="6.98394">
        <ele>2680</ele>
        <time>2019-08-20T15:19:53Z</time>
      </trkpt>
      <trkpt lat="44.25847" lon="6.98391">
        <ele>2680</ele>
        <time>2019-08-20T15:20:03Z</time>
      </trkpt>
      <trkpt lat="44.25838" lon="6.98381">
        <ele>2678</ele>
        <time>2019-08-20T15:20:18Z</time>
      </trkpt>
      <trkpt lat="44.25831" lon="6.98383">
        <ele>2679</ele>
        <time>2019-08-20T15:20:28Z</time>
      </trkpt>
      <trkpt lat="44.25836" lon="6.98388">
        <ele>2682</ele>
        <time>2019-08-20T15:20:36Z</time>
      </trkpt>
      <trkpt lat="44.25837" lon="6.98395">
        <ele>2684</ele>
        <time>2019-08-20T15:20:43Z</time>
      </trkpt>
      <trkpt lat="44.25835" lon="6.98398">
        <ele>2686</ele>
        <time>2019-08-20T15:20:47Z</time>
      </trkpt>
      <trkpt lat="44.2583" lon="6.98396">
        <ele>2684</ele>
        <time>2019-08-20T15:20:53Z</time>
      </trkpt>
      <trkpt lat="44.25822" lon="6.9841">
        <ele>2685</ele>
        <time>2019-08-20T15:21:11Z</time>
      </trkpt>
      <trkpt lat="44.25809" lon="6.98421">
        <ele>2681</ele>
        <time>2019-08-20T15:21:31Z</time>
      </trkpt>
      <trkpt lat="44.25806" lon="6.98431">
        <ele>2682</ele>
        <time>2019-08-20T15:21:41Z</time>
      </trkpt>
      <trkpt lat="44.25801" lon="6.98437">
        <ele>2680</ele>
        <time>2019-08-20T15:21:50Z</time>
      </trkpt>
      <trkpt lat="44.25794" lon="6.9845">
        <ele>2678</ele>
        <time>2019-08-20T15:22:06Z</time>
      </trkpt>
      <trkpt lat="44.25789" lon="6.98473">
        <ele>2679</ele>
        <time>2019-08-20T15:22:29Z</time>
      </trkpt>
      <trkpt lat="44.25782" lon="6.98488">
        <ele>2677</ele>
        <time>2019-08-20T15:22:46Z</time>
      </trkpt>
      <trkpt lat="44.25795" lon="6.98509">
        <ele>2688</ele>
        <time>2019-08-20T15:23:12Z</time>
      </trkpt>
      <trkpt lat="44.25794" lon="6.98527">
        <ele>2685</ele>
        <time>2019-08-20T15:23:29Z</time>
      </trkpt>
      <trkpt lat="44.25795" lon="6.98535">
        <ele>2685</ele>
        <time>2019-08-20T15:23:37Z</time>
      </trkpt>
      <trkpt lat="44.25797" lon="6.98539">
        <ele>2686</ele>
        <time>2019-08-20T15:23:42Z</time>
      </trkpt>
      <trkpt lat="44.25794" lon="6.9855">
        <ele>2682</ele>
        <time>2019-08-20T15:23:53Z</time>
      </trkpt>
      <trkpt lat="44.25801" lon="6.98566">
        <ele>2686</ele>
        <time>2019-08-20T15:24:11Z</time>
      </trkpt>
      <trkpt lat="44.25812" lon="6.9858">
        <ele>2692</ele>
        <time>2019-08-20T15:24:31Z</time>
      </trkpt>
      <trkpt lat="44.2583" lon="6.9861">
        <ele>2699</ele>
        <time>2019-08-20T15:25:08Z</time>
      </trkpt>
      <trkpt lat="44.25856" lon="6.98655">
        <ele>2702</ele>
        <time>2019-08-20T15:26:04Z</time>
      </trkpt>
      <trkpt lat="44.25861" lon="6.9867">
        <ele>2701</ele>
        <time>2019-08-20T15:26:19Z</time>
      </trkpt>
      <trkpt lat="44.25864" lon="6.98685">
        <ele>2702</ele>
        <time>2019-08-20T15:26:34Z</time>
      </trkpt>
      <trkpt lat="44.25864" lon="6.98698">
        <ele>2702</ele>
        <time>2019-08-20T15:26:47Z</time>
      </trkpt>
      <trkpt lat="44.25861" lon="6.98724">
        <ele>2698</ele>
        <time>2019-08-20T15:27:12Z</time>
      </trkpt>
      <trkpt lat="44.25853" lon="6.98744">
        <ele>2693</ele>
        <time>2019-08-20T15:27:34Z</time>
      </trkpt>
      <trkpt lat="44.25842" lon="6.98753">
        <ele>2686</ele>
        <time>2019-08-20T15:27:51Z</time>
      </trkpt>
      <trkpt lat="44.25826" lon="6.98754">
        <ele>2678</ele>
        <time>2019-08-20T15:28:12Z</time>
      </trkpt>
      <trkpt lat="44.25821" lon="6.98752">
        <ele>2675</ele>
        <time>2019-08-20T15:28:19Z</time>
      </trkpt>
      <trkpt lat="44.25815" lon="6.98769">
        <ele>2673</ele>
        <time>2019-08-20T15:28:37Z</time>
      </trkpt>
      <trkpt lat="44.25811" lon="6.98772">
        <ele>2671</ele>
        <time>2019-08-20T15:28:43Z</time>
      </trkpt>
      <trkpt lat="44.25802" lon="6.98772">
        <ele>2666</ele>
        <time>2019-08-20T15:28:55Z</time>
      </trkpt>
      <trkpt lat="44.25792" lon="6.98775">
        <ele>2660</ele>
        <time>2019-08-20T15:29:09Z</time>
      </trkpt>
      <trkpt lat="44.25786" lon="6.98783">
        <ele>2657</ele>
        <time>2019-08-20T15:29:20Z</time>
      </trkpt>
      <trkpt lat="44.25779" lon="6.98786">
        <ele>2653</ele>
        <time>2019-08-20T15:29:30Z</time>
      </trkpt>
      <trkpt lat="44.25776" lon="6.98786">
        <ele>2651</ele>
        <time>2019-08-20T15:29:34Z</time>
      </trkpt>
      <trkpt lat="44.25772" lon="6.98781">
        <ele>2649</ele>
        <time>2019-08-20T15:29:41Z</time>
      </trkpt>
      <trkpt lat="44.25768" lon="6.9877">
        <ele>2647</ele>
        <time>2019-08-20T15:29:53Z</time>
      </trkpt>
      <trkpt lat="44.25774" lon="6.9876">
        <ele>2651</ele>
        <time>2019-08-20T15:30:05Z</time>
      </trkpt>
      <trkpt lat="44.25781" lon="6.98754">
        <ele>2655</ele>
        <time>2019-08-20T15:30:16Z</time>
      </trkpt>
      <trkpt lat="44.25787" lon="6.98744">
        <ele>2658</ele>
        <time>2019-08-20T15:30:29Z</time>
      </trkpt>
      <trkpt lat="44.2579" lon="6.9873">
        <ele>2660</ele>
        <time>2019-08-20T15:30:43Z</time>
      </trkpt>
      <trkpt lat="44.25782" lon="6.98731">
        <ele>2656</ele>
        <time>2019-08-20T15:30:53Z</time>
      </trkpt>
      <trkpt lat="44.25777" lon="6.98735">
        <ele>2654</ele>
        <time>2019-08-20T15:31:01Z</time>
      </trkpt>
      <trkpt lat="44.25776" lon="6.98726">
        <ele>2653</ele>
        <time>2019-08-20T15:31:10Z</time>
      </trkpt>
      <trkpt lat="44.25767" lon="6.98733">
        <ele>2649</ele>
        <time>2019-08-20T15:31:23Z</time>
      </trkpt>
      <trkpt lat="44.25769" lon="6.98722">
        <ele>2650</ele>
        <time>2019-08-20T15:31:34Z</time>
      </trkpt>
      <trkpt lat="44.25768" lon="6.98717">
        <ele>2650</ele>
        <time>2019-08-20T15:31:39Z</time>
      </trkpt>
      <trkpt lat="44.2576" lon="6.98729">
        <ele>2645</ele>
        <time>2019-08-20T15:31:55Z</time>
      </trkpt>
      <trkpt lat="44.2575" lon="6.98725">
        <ele>2640</ele>
        <time>2019-08-20T15:32:09Z</time>
      </trkpt>
      <trkpt lat="44.25729" lon="6.98722">
        <ele>2627</ele>
        <time>2019-08-20T15:32:37Z</time>
      </trkpt>
      <trkpt lat="44.25715" lon="6.98708">
        <ele>2619</ele>
        <time>2019-08-20T15:33:00Z</time>
      </trkpt>
      <trkpt lat="44.25713" lon="6.9871">
        <ele>2618</ele>
        <time>2019-08-20T15:33:03Z</time>
      </trkpt>
      <trkpt lat="44.25715" lon="6.98716">
        <ele>2619</ele>
        <time>2019-08-20T15:33:10Z</time>
      </trkpt>
      <trkpt lat="44.2572" lon="6.98726">
        <ele>2622</ele>
        <time>2019-08-20T15:33:21Z</time>
      </trkpt>
      <trkpt lat="44.25719" lon="6.98738">
        <ele>2621</ele>
        <time>2019-08-20T15:33:33Z</time>
      </trkpt>
      <trkpt lat="44.25717" lon="6.98739">
        <ele>2620</ele>
        <time>2019-08-20T15:33:36Z</time>
      </trkpt>
      <trkpt lat="44.25715" lon="6.98728">
        <ele>2619</ele>
        <time>2019-08-20T15:33:46Z</time>
      </trkpt>
      <trkpt lat="44.25713" lon="6.9873">
        <ele>2618</ele>
        <time>2019-08-20T15:33:50Z</time>
      </trkpt>
      <trkpt lat="44.25714" lon="6.98735">
        <ele>2618</ele>
        <time>2019-08-20T15:33:55Z</time>
      </trkpt>
      <trkpt lat="44.25712" lon="6.98739">
        <ele>2617</ele>
        <time>2019-08-20T15:33:59Z</time>
      </trkpt>
      <trkpt lat="44.2571" lon="6.98732">
        <ele>2616</ele>
        <time>2019-08-20T15:34:07Z</time>
      </trkpt>
      <trkpt lat="44.25707" lon="6.98732">
        <ele>2614</ele>
        <time>2019-08-20T15:34:11Z</time>
      </trkpt>
      <trkpt lat="44.25709" lon="6.98748">
        <ele>2615</ele>
        <time>2019-08-20T15:34:26Z</time>
      </trkpt>
      <trkpt lat="44.25708" lon="6.98756">
        <ele>2614</ele>
        <time>2019-08-20T15:34:34Z</time>
      </trkpt>
      <trkpt lat="44.25705" lon="6.98751">
        <ele>2612</ele>
        <time>2019-08-20T15:34:40Z</time>
      </trkpt>
      <trkpt lat="44.25702" lon="6.98743">
        <ele>2611</ele>
        <time>2019-08-20T15:34:49Z</time>
      </trkpt>
      <trkpt lat="44.25675" lon="6.98728">
        <ele>2594</ele>
        <time>2019-08-20T15:35:27Z</time>
      </trkpt>
      <trkpt lat="44.2568" lon="6.98745">
        <ele>2597</ele>
        <time>2019-08-20T15:35:45Z</time>
      </trkpt>
      <trkpt lat="44.25674" lon="6.98746">
        <ele>2594</ele>
        <time>2019-08-20T15:35:53Z</time>
      </trkpt>
      <trkpt lat="44.25668" lon="6.98738">
        <ele>2590</ele>
        <time>2019-08-20T15:36:04Z</time>
      </trkpt>
      <trkpt lat="44.25657" lon="6.98728">
        <ele>2584</ele>
        <time>2019-08-20T15:36:22Z</time>
      </trkpt>
      <trkpt lat="44.25649" lon="6.98713">
        <ele>2580</ele>
        <time>2019-08-20T15:36:40Z</time>
      </trkpt>
      <trkpt lat="44.25642" lon="6.98725">
        <ele>2577</ele>
        <time>2019-08-20T15:36:54Z</time>
      </trkpt>
      <trkpt lat="44.25637" lon="6.98744">
        <ele>2575</ele>
        <time>2019-08-20T15:37:14Z</time>
      </trkpt>
      <trkpt lat="44.25624" lon="6.98729">
        <ele>2568</ele>
        <time>2019-08-20T15:37:36Z</time>
      </trkpt>
      <trkpt lat="44.25625" lon="6.98718">
        <ele>2568</ele>
        <time>2019-08-20T15:37:47Z</time>
      </trkpt>
      <trkpt lat="44.2563" lon="6.98694">
        <ele>2570</ele>
        <time>2019-08-20T15:38:11Z</time>
      </trkpt>
      <trkpt lat="44.2563" lon="6.9869">
        <ele>2570</ele>
        <time>2019-08-20T15:38:15Z</time>
      </trkpt>
      <trkpt lat="44.25625" lon="6.98686">
        <ele>2567</ele>
        <time>2019-08-20T15:38:22Z</time>
      </trkpt>
      <trkpt lat="44.25617" lon="6.98689">
        <ele>2563</ele>
        <time>2019-08-20T15:38:33Z</time>
      </trkpt>
      <trkpt lat="44.25615" lon="6.98686">
        <ele>2562</ele>
        <time>2019-08-20T15:38:37Z</time>
      </trkpt>
      <trkpt lat="44.25619" lon="6.98676">
        <ele>2564</ele>
        <time>2019-08-20T15:38:48Z</time>
      </trkpt>
      <trkpt lat="44.25617" lon="6.98673">
        <ele>2563</ele>
        <time>2019-08-20T15:38:52Z</time>
      </trkpt>
      <trkpt lat="44.25614" lon="6.98672">
        <ele>2561</ele>
        <time>2019-08-20T15:38:56Z</time>
      </trkpt>
      <trkpt lat="44.25608" lon="6.98676">
        <ele>2558</ele>
        <time>2019-08-20T15:39:05Z</time>
      </trkpt>
      <trkpt lat="44.25604" lon="6.9867">
        <ele>2556</ele>
        <time>2019-08-20T15:39:13Z</time>
      </trkpt>
      <trkpt lat="44.25596" lon="6.98674">
        <ele>2551</ele>
        <time>2019-08-20T15:39:24Z</time>
      </trkpt>
      <trkpt lat="44.25594" lon="6.98679">
        <ele>2551</ele>
        <time>2019-08-20T15:39:30Z</time>
      </trkpt>
      <trkpt lat="44.25592" lon="6.98671">
        <ele>2549</ele>
        <time>2019-08-20T15:39:38Z</time>
      </trkpt>
      <trkpt lat="44.25586" lon="6.98665">
        <ele>2545</ele>
        <time>2019-08-20T15:39:48Z</time>
      </trkpt>
      <trkpt lat="44.25578" lon="6.98672">
        <ele>2542</ele>
        <time>2019-08-20T15:40:00Z</time>
      </trkpt>
      <trkpt lat="44.25576" lon="6.98676">
        <ele>2542</ele>
        <time>2019-08-20T15:40:05Z</time>
      </trkpt>
      <trkpt lat="44.25576" lon="6.98681">
        <ele>2542</ele>
        <time>2019-08-20T15:40:10Z</time>
      </trkpt>
      <trkpt lat="44.25568" lon="6.98686">
        <ele>2539</ele>
        <time>2019-08-20T15:40:21Z</time>
      </trkpt>
      <trkpt lat="44.25561" lon="6.98694">
        <ele>2537</ele>
        <time>2019-08-20T15:40:33Z</time>
      </trkpt>
      <trkpt lat="44.25557" lon="6.98705">
        <ele>2537</ele>
        <time>2019-08-20T15:40:45Z</time>
      </trkpt>
      <trkpt lat="44.25554" lon="6.98709">
        <ele>2536</ele>
        <time>2019-08-20T15:40:51Z</time>
      </trkpt>
      <trkpt lat="44.25552" lon="6.98717">
        <ele>2536</ele>
        <time>2019-08-20T15:40:59Z</time>
      </trkpt>
      <trkpt lat="44.25548" lon="6.9872">
        <ele>2535</ele>
        <time>2019-08-20T15:41:05Z</time>
      </trkpt>
      <trkpt lat="44.25533" lon="6.98723">
        <ele>2530</ele>
        <time>2019-08-20T15:41:25Z</time>
      </trkpt>
      <trkpt lat="44.25527" lon="6.9872">
        <ele>2527</ele>
        <time>2019-08-20T15:41:34Z</time>
      </trkpt>
      <trkpt lat="44.25522" lon="6.98713">
        <ele>2525</ele>
        <time>2019-08-20T15:41:43Z</time>
      </trkpt>
      <trkpt lat="44.2549" lon="6.98726">
        <ele>2517</ele>
        <time>2019-08-20T15:42:28Z</time>
      </trkpt>
      <trkpt lat="44.25451" lon="6.98724">
        <ele>2507</ele>
        <time>2019-08-20T15:43:20Z</time>
      </trkpt>
      <trkpt lat="44.25447" lon="6.98725">
        <ele>2506</ele>
        <time>2019-08-20T15:43:25Z</time>
      </trkpt>
      <trkpt lat="44.25444" lon="6.98731">
        <ele>2507</ele>
        <time>2019-08-20T15:43:32Z</time>
      </trkpt>
      <trkpt lat="44.25431" lon="6.98734">
        <ele>2505</ele>
        <time>2019-08-20T15:43:50Z</time>
      </trkpt>
      <trkpt lat="44.25423" lon="6.98731">
        <ele>2502</ele>
        <time>2019-08-20T15:44:01Z</time>
      </trkpt>
      <trkpt lat="44.25398" lon="6.98748">
        <ele>2502</ele>
        <time>2019-08-20T15:44:38Z</time>
      </trkpt>
      <trkpt lat="44.25381" lon="6.98748">
        <ele>2499</ele>
        <time>2019-08-20T15:45:01Z</time>
      </trkpt>
      <trkpt lat="44.25365" lon="6.9876">
        <ele>2497</ele>
        <time>2019-08-20T15:45:25Z</time>
      </trkpt>
      <trkpt lat="44.25362" lon="6.98765">
        <ele>2497</ele>
        <time>2019-08-20T15:45:31Z</time>
      </trkpt>
      <trkpt lat="44.25356" lon="6.98757">
        <ele>2496</ele>
        <time>2019-08-20T15:45:42Z</time>
      </trkpt>
      <trkpt lat="44.2533" lon="6.98747">
        <ele>2490</ele>
        <time>2019-08-20T15:46:18Z</time>
      </trkpt>
      <trkpt lat="44.25317" lon="6.98744">
        <ele>2486</ele>
        <time>2019-08-20T15:46:36Z</time>
      </trkpt>
      <trkpt lat="44.25312" lon="6.98739">
        <ele>2484</ele>
        <time>2019-08-20T15:46:44Z</time>
      </trkpt>
      <trkpt lat="44.2529" lon="6.98738">
        <ele>2479</ele>
        <time>2019-08-20T15:47:13Z</time>
      </trkpt>
      <trkpt lat="44.25271" lon="6.98726">
        <ele>2474</ele>
        <time>2019-08-20T15:47:41Z</time>
      </trkpt>
      <trkpt lat="44.25262" lon="6.98716">
        <ele>2471</ele>
        <time>2019-08-20T15:47:56Z</time>
      </trkpt>
      <trkpt lat="44.25249" lon="6.98713">
        <ele>2468</ele>
        <time>2019-08-20T15:48:14Z</time>
      </trkpt>
      <trkpt lat="44.25237" lon="6.98699">
        <ele>2465</ele>
        <time>2019-08-20T15:48:35Z</time>
      </trkpt>
      <trkpt lat="44.25234" lon="6.98687">
        <ele>2463</ele>
        <time>2019-08-20T15:48:47Z</time>
      </trkpt>
      <trkpt lat="44.2524" lon="6.98671">
        <ele>2462</ele>
        <time>2019-08-20T15:49:04Z</time>
      </trkpt>
      <trkpt lat="44.2525" lon="6.98649">
        <ele>2457</ele>
        <time>2019-08-20T15:49:29Z</time>
      </trkpt>
      <trkpt lat="44.25239" lon="6.98652">
        <ele>2456</ele>
        <time>2019-08-20T15:49:44Z</time>
      </trkpt>
      <trkpt lat="44.25228" lon="6.9866">
        <ele>2457</ele>
        <time>2019-08-20T15:50:01Z</time>
      </trkpt>
      <trkpt lat="44.25224" lon="6.98655">
        <ele>2455</ele>
        <time>2019-08-20T15:50:08Z</time>
      </trkpt>
      <trkpt lat="44.25214" lon="6.9865">
        <ele>2452</ele>
        <time>2019-08-20T15:50:22Z</time>
      </trkpt>
      <trkpt lat="44.25206" lon="6.98654">
        <ele>2452</ele>
        <time>2019-08-20T15:50:33Z</time>
      </trkpt>
      <trkpt lat="44.25197" lon="6.98667">
        <ele>2455</ele>
        <time>2019-08-20T15:50:51Z</time>
      </trkpt>
      <trkpt lat="44.25182" lon="6.98666">
        <ele>2452</ele>
        <time>2019-08-20T15:51:11Z</time>
      </trkpt>
      <trkpt lat="44.25176" lon="6.98664">
        <ele>2451</ele>
        <time>2019-08-20T15:51:19Z</time>
      </trkpt>
      <trkpt lat="44.25163" lon="6.98672">
        <ele>2451</ele>
        <time>2019-08-20T15:51:38Z</time>
      </trkpt>
      <trkpt lat="44.25137" lon="6.98672">
        <ele>2450</ele>
        <time>2019-08-20T15:52:13Z</time>
      </trkpt>
      <trkpt lat="44.25127" lon="6.98677">
        <ele>2451</ele>
        <time>2019-08-20T15:52:27Z</time>
      </trkpt>
      <trkpt lat="44.2512" lon="6.98676">
        <ele>2450</ele>
        <time>2019-08-20T15:52:36Z</time>
      </trkpt>
      <trkpt lat="44.25115" lon="6.98673">
        <ele>2449</ele>
        <time>2019-08-20T15:52:43Z</time>
      </trkpt>
      <trkpt lat="44.25111" lon="6.98663">
        <ele>2446</ele>
        <time>2019-08-20T15:52:54Z</time>
      </trkpt>
      <trkpt lat="44.25101" lon="6.98653">
        <ele>2443</ele>
        <time>2019-08-20T15:53:11Z</time>
      </trkpt>
      <trkpt lat="44.2509" lon="6.98651">
        <ele>2442</ele>
        <time>2019-08-20T15:53:26Z</time>
      </trkpt>
      <trkpt lat="44.25083" lon="6.98647">
        <ele>2441</ele>
        <time>2019-08-20T15:53:36Z</time>
      </trkpt>
      <trkpt lat="44.25074" lon="6.98637">
        <ele>2441</ele>
        <time>2019-08-20T15:53:51Z</time>
      </trkpt>
      <trkpt lat="44.25077" lon="6.98637">
        <ele>2440</ele>
        <time>2019-08-20T15:53:55Z</time>
      </trkpt>
      <trkpt lat="44.25071" lon="6.98634">
        <ele>2442</ele>
        <time>2019-08-20T15:54:04Z</time>
      </trkpt>
      <trkpt lat="44.25055" lon="6.98603">
        <ele>2438</ele>
        <time>2019-08-20T15:54:40Z</time>
      </trkpt>
      <trkpt lat="44.25042" lon="6.98594">
        <ele>2440</ele>
        <time>2019-08-20T15:54:59Z</time>
      </trkpt>
      <trkpt lat="44.25041" lon="6.9859">
        <ele>2439</ele>
        <time>2019-08-20T15:55:03Z</time>
      </trkpt>
      <trkpt lat="44.2503" lon="6.98574">
        <ele>2439</ele>
        <time>2019-08-20T15:55:25Z</time>
      </trkpt>
      <trkpt lat="44.25027" lon="6.98564">
        <ele>2438</ele>
        <time>2019-08-20T15:55:35Z</time>
      </trkpt>
      <trkpt lat="44.25024" lon="6.98536">
        <ele>2433</ele>
        <time>2019-08-20T15:56:02Z</time>
      </trkpt>
      <trkpt lat="44.25017" lon="6.9853">
        <ele>2434</ele>
        <time>2019-08-20T15:56:13Z</time>
      </trkpt>
      <trkpt lat="44.25007" lon="6.98495">
        <ele>2430</ele>
        <time>2019-08-20T15:56:49Z</time>
      </trkpt>
      <trkpt lat="44.25007" lon="6.98478">
        <ele>2428</ele>
        <time>2019-08-20T15:57:05Z</time>
      </trkpt>
      <trkpt lat="44.25005" lon="6.98462">
        <ele>2426</ele>
        <time>2019-08-20T15:57:21Z</time>
      </trkpt>
      <trkpt lat="44.24997" lon="6.98436">
        <ele>2426</ele>
        <time>2019-08-20T15:57:48Z</time>
      </trkpt>
      <trkpt lat="44.24997" lon="6.98396">
        <ele>2421</ele>
        <time>2019-08-20T15:58:26Z</time>
      </trkpt>
      <trkpt lat="44.25001" lon="6.98373">
        <ele>2416</ele>
        <time>2019-08-20T15:58:49Z</time>
      </trkpt>
      <trkpt lat="44.24997" lon="6.98316">
        <ele>2412</ele>
        <time>2019-08-20T15:59:43Z</time>
      </trkpt>
      <trkpt lat="44.24999" lon="6.98294">
        <ele>2409</ele>
        <time>2019-08-20T16:00:05Z</time>
      </trkpt>
      <trkpt lat="44.24997" lon="6.98283">
        <ele>2410</ele>
        <time>2019-08-20T16:00:16Z</time>
      </trkpt>
      <trkpt lat="44.24997" lon="6.98262">
        <ele>2408</ele>
        <time>2019-08-20T16:00:36Z</time>
      </trkpt>
      <trkpt lat="44.25003" lon="6.9822">
        <ele>2402</ele>
        <time>2019-08-20T16:01:17Z</time>
      </trkpt>
      <trkpt lat="44.25003" lon="6.98195">
        <ele>2401</ele>
        <time>2019-08-20T16:01:40Z</time>
      </trkpt>
      <trkpt lat="44.25008" lon="6.98148">
        <ele>2396</ele>
        <time>2019-08-20T16:02:26Z</time>
      </trkpt>
      <trkpt lat="44.25007" lon="6.98135">
        <ele>2394</ele>
        <time>2019-08-20T16:02:38Z</time>
      </trkpt>
      <trkpt lat="44.25" lon="6.98107">
        <ele>2393</ele>
        <time>2019-08-20T16:03:07Z</time>
      </trkpt>
      <trkpt lat="44.24999" lon="6.98072">
        <ele>2389</ele>
        <time>2019-08-20T16:03:40Z</time>
      </trkpt>
      <trkpt lat="44.24997" lon="6.98057">
        <ele>2387</ele>
        <time>2019-08-20T16:03:55Z</time>
      </trkpt>
      <trkpt lat="44.2499" lon="6.98022">
        <ele>2384</ele>
        <time>2019-08-20T16:04:30Z</time>
      </trkpt>
      <trkpt lat="44.24982" lon="6.98005">
        <ele>2385</ele>
        <time>2019-08-20T16:04:49Z</time>
      </trkpt>
      <trkpt lat="44.24966" lon="6.97993">
        <ele>2389</ele>
        <time>2019-08-20T16:05:13Z</time>
      </trkpt>
      <trkpt lat="44.24952" lon="6.97976">
        <ele>2389</ele>
        <time>2019-08-20T16:05:38Z</time>
      </trkpt>
      <trkpt lat="44.24942" lon="6.97969">
        <ele>2391</ele>
        <time>2019-08-20T16:05:53Z</time>
      </trkpt>
      <trkpt lat="44.24923" lon="6.97941">
        <ele>2389</ele>
        <time>2019-08-20T16:06:30Z</time>
      </trkpt>
      <trkpt lat="44.24908" lon="6.97933">
        <ele>2390</ele>
        <time>2019-08-20T16:06:51Z</time>
      </trkpt>
      <trkpt lat="44.2489" lon="6.9792">
        <ele>2390</ele>
        <time>2019-08-20T16:07:18Z</time>
      </trkpt>
      <trkpt lat="44.24861" lon="6.97908">
        <ele>2392</ele>
        <time>2019-08-20T16:07:59Z</time>
      </trkpt>
      <trkpt lat="44.24852" lon="6.97901">
        <ele>2390</ele>
        <time>2019-08-20T16:08:12Z</time>
      </trkpt>
      <trkpt lat="44.24815" lon="6.97896">
        <ele>2396</ele>
        <time>2019-08-20T16:09:02Z</time>
      </trkpt>
      <trkpt lat="44.24799" lon="6.9789">
        <ele>2396</ele>
        <time>2019-08-20T16:09:24Z</time>
      </trkpt>
      <trkpt lat="44.24794" lon="6.97885">
        <ele>2395</ele>
        <time>2019-08-20T16:09:32Z</time>
      </trkpt>
      <trkpt lat="44.24779" lon="6.97884">
        <ele>2397</ele>
        <time>2019-08-20T16:09:52Z</time>
      </trkpt>
      <trkpt lat="44.24716" lon="6.97859">
        <ele>2393</ele>
        <time>2019-08-20T16:11:20Z</time>
      </trkpt>
      <trkpt lat="44.24654" lon="6.97863">
        <ele>2388</ele>
        <time>2019-08-20T16:12:43Z</time>
      </trkpt>
      <trkpt lat="44.24635" lon="6.97892">
        <ele>2383</ele>
        <time>2019-08-20T16:13:20Z</time>
      </trkpt>
      <trkpt lat="44.2463" lon="6.97903">
        <ele>2382</ele>
        <time>2019-08-20T16:13:33Z</time>
      </trkpt>
      <trkpt lat="44.24608" lon="6.97929">
        <ele>2372</ele>
        <time>2019-08-20T16:14:11Z</time>
      </trkpt>
      <trkpt lat="44.24605" lon="6.97938">
        <ele>2371</ele>
        <time>2019-08-20T16:14:20Z</time>
      </trkpt>
      <trkpt lat="44.24602" lon="6.97961">
        <ele>2371</ele>
        <time>2019-08-20T16:14:43Z</time>
      </trkpt>
      <trkpt lat="44.24588" lon="6.97997">
        <ele>2365</ele>
        <time>2019-08-20T16:15:22Z</time>
      </trkpt>
      <trkpt lat="44.24582" lon="6.98017">
        <ele>2362</ele>
        <time>2019-08-20T16:15:43Z</time>
      </trkpt>
      <trkpt lat="44.2458" lon="6.98026">
        <ele>2361</ele>
        <time>2019-08-20T16:15:52Z</time>
      </trkpt>
      <trkpt lat="44.24578" lon="6.98026">
        <ele>2360</ele>
        <time>2019-08-20T16:15:54Z</time>
      </trkpt>
      <trkpt lat="44.24569" lon="6.98011">
        <ele>2352</ele>
        <time>2019-08-20T16:16:13Z</time>
      </trkpt>
      <trkpt lat="44.24567" lon="6.98011">
        <ele>2351</ele>
        <time>2019-08-20T16:16:16Z</time>
      </trkpt>
      <trkpt lat="44.24567" lon="6.98017">
        <ele>2351</ele>
        <time>2019-08-20T16:16:22Z</time>
      </trkpt>
      <trkpt lat="44.24566" lon="6.98025">
        <ele>2351</ele>
        <time>2019-08-20T16:16:29Z</time>
      </trkpt>
      <trkpt lat="44.24567" lon="6.98048">
        <ele>2353</ele>
        <time>2019-08-20T16:16:51Z</time>
      </trkpt>
      <trkpt lat="44.2456" lon="6.98092">
        <ele>2350</ele>
        <time>2019-08-20T16:17:34Z</time>
      </trkpt>
      <trkpt lat="44.24551" lon="6.98072">
        <ele>2341</ele>
        <time>2019-08-20T16:17:57Z</time>
      </trkpt>
      <trkpt lat="44.24547" lon="6.98069">
        <ele>2338</ele>
        <time>2019-08-20T16:18:03Z</time>
      </trkpt>
      <trkpt lat="44.2455" lon="6.98083">
        <ele>2341</ele>
        <time>2019-08-20T16:18:17Z</time>
      </trkpt>
      <trkpt lat="44.24549" lon="6.98099">
        <ele>2342</ele>
        <time>2019-08-20T16:18:32Z</time>
      </trkpt>
      <trkpt lat="44.24524" lon="6.98185">
        <ele>2334</ele>
        <time>2019-08-20T16:20:01Z</time>
      </trkpt>
      <trkpt lat="44.24519" lon="6.98193">
        <ele>2331</ele>
        <time>2019-08-20T16:20:11Z</time>
      </trkpt>
      <trkpt lat="44.24506" lon="6.98204">
        <ele>2322</ele>
        <time>2019-08-20T16:20:32Z</time>
      </trkpt>
      <trkpt lat="44.24492" lon="6.98213">
        <ele>2313</ele>
        <time>2019-08-20T16:20:52Z</time>
      </trkpt>
      <trkpt lat="44.2448" lon="6.98232">
        <ele>2307</ele>
        <time>2019-08-20T16:21:16Z</time>
      </trkpt>
      <trkpt lat="44.2447" lon="6.98254">
        <ele>2302</ele>
        <time>2019-08-20T16:21:41Z</time>
      </trkpt>
      <trkpt lat="44.24469" lon="6.98269">
        <ele>2303</ele>
        <time>2019-08-20T16:21:56Z</time>
      </trkpt>
      <trkpt lat="44.24461" lon="6.98334">
        <ele>2305</ele>
        <time>2019-08-20T16:22:59Z</time>
      </trkpt>
      <trkpt lat="44.2445" lon="6.98365">
        <ele>2301</ele>
        <time>2019-08-20T16:23:32Z</time>
      </trkpt>
      <trkpt lat="44.24421" lon="6.9839">
        <ele>2283</ele>
        <time>2019-08-20T16:24:17Z</time>
      </trkpt>
      <trkpt lat="44.24414" lon="6.98399">
        <ele>2278</ele>
        <time>2019-08-20T16:24:30Z</time>
      </trkpt>
      <trkpt lat="44.24402" lon="6.98442">
        <ele>2275</ele>
        <time>2019-08-20T16:25:14Z</time>
      </trkpt>
      <trkpt lat="44.24394" lon="6.98501">
        <ele>2278</ele>
        <time>2019-08-20T16:26:11Z</time>
      </trkpt>
      <trkpt lat="44.24392" lon="6.98502">
        <ele>2277</ele>
        <time>2019-08-20T16:26:14Z</time>
      </trkpt>
      <trkpt lat="44.24385" lon="6.98475">
        <ele>2267</ele>
        <time>2019-08-20T16:26:42Z</time>
      </trkpt>
      <trkpt lat="44.24373" lon="6.98516">
        <ele>2265</ele>
        <time>2019-08-20T16:27:24Z</time>
      </trkpt>
      <trkpt lat="44.24342" lon="6.98575">
        <ele>2255</ele>
        <time>2019-08-20T16:28:34Z</time>
      </trkpt>
      <trkpt lat="44.24332" lon="6.98586">
        <ele>2251</ele>
        <time>2019-08-20T16:28:51Z</time>
      </trkpt>
      <trkpt lat="44.24322" lon="6.98592">
        <ele>2248</ele>
        <time>2019-08-20T16:29:06Z</time>
      </trkpt>
      <trkpt lat="44.24284" lon="6.98658">
        <ele>2252</ele>
        <time>2019-08-20T16:30:26Z</time>
      </trkpt>
      <trkpt lat="44.24266" lon="6.9868">
        <ele>2253</ele>
        <time>2019-08-20T16:30:58Z</time>
      </trkpt>
      <trkpt lat="44.24237" lon="6.98708">
        <ele>2254</ele>
        <time>2019-08-20T16:31:45Z</time>
      </trkpt>
      <trkpt lat="44.24231" lon="6.98709">
        <ele>2253</ele>
        <time>2019-08-20T16:31:54Z</time>
      </trkpt>
      <trkpt lat="44.24211" lon="6.98722">
        <ele>2253</ele>
        <time>2019-08-20T16:32:23Z</time>
      </trkpt>
      <trkpt lat="44.24199" lon="6.98727">
        <ele>2253</ele>
        <time>2019-08-20T16:32:40Z</time>
      </trkpt>
      <trkpt lat="44.24182" lon="6.98728">
        <ele>2249</ele>
        <time>2019-08-20T16:33:02Z</time>
      </trkpt>
      <trkpt lat="44.24173" lon="6.98731">
        <ele>2248</ele>
        <time>2019-08-20T16:33:15Z</time>
      </trkpt>
      <trkpt lat="44.24166" lon="6.98716">
        <ele>2240</ele>
        <time>2019-08-20T16:33:32Z</time>
      </trkpt>
      <trkpt lat="44.24154" lon="6.98713">
        <ele>2238</ele>
        <time>2019-08-20T16:33:48Z</time>
      </trkpt>
      <trkpt lat="44.24145" lon="6.98704">
        <ele>2234</ele>
        <time>2019-08-20T16:34:03Z</time>
      </trkpt>
      <trkpt lat="44.24138" lon="6.98708">
        <ele>2236</ele>
        <time>2019-08-20T16:34:13Z</time>
      </trkpt>
      <trkpt lat="44.24131" lon="6.98707">
        <ele>2235</ele>
        <time>2019-08-20T16:34:22Z</time>
      </trkpt>
      <trkpt lat="44.24111" lon="6.98716">
        <ele>2241</ele>
        <time>2019-08-20T16:34:50Z</time>
      </trkpt>
      <trkpt lat="44.24104" lon="6.98716">
        <ele>2241</ele>
        <time>2019-08-20T16:35:00Z</time>
      </trkpt>
      <trkpt lat="44.24081" lon="6.98709">
        <ele>2237</ele>
        <time>2019-08-20T16:35:31Z</time>
      </trkpt>
      <trkpt lat="44.24071" lon="6.98703">
        <ele>2232</ele>
        <time>2019-08-20T16:35:46Z</time>
      </trkpt>
      <trkpt lat="44.24066" lon="6.98703">
        <ele>2232</ele>
        <time>2019-08-20T16:35:52Z</time>
      </trkpt>
      <trkpt lat="44.24029" lon="6.98694">
        <ele>2223</ele>
        <time>2019-08-20T16:36:42Z</time>
      </trkpt>
      <trkpt lat="44.24006" lon="6.98691">
        <ele>2219</ele>
        <time>2019-08-20T16:37:13Z</time>
      </trkpt>
      <trkpt lat="44.23997" lon="6.98693">
        <ele>2219</ele>
        <time>2019-08-20T16:37:25Z</time>
      </trkpt>
      <trkpt lat="44.23976" lon="6.98706">
        <ele>2217</ele>
        <time>2019-08-20T16:37:56Z</time>
      </trkpt>
      <trkpt lat="44.23967" lon="6.98718">
        <ele>2219</ele>
        <time>2019-08-20T16:38:13Z</time>
      </trkpt>
      <trkpt lat="44.23931" lon="6.98754">
        <ele>2218</ele>
        <time>2019-08-20T16:39:12Z</time>
      </trkpt>
      <trkpt lat="44.23905" lon="6.98775">
        <ele>2221</ele>
        <time>2019-08-20T16:39:52Z</time>
      </trkpt>
      <trkpt lat="44.23878" lon="6.98792">
        <ele>2225</ele>
        <time>2019-08-20T16:40:31Z</time>
      </trkpt>
      <trkpt lat="44.23879" lon="6.98802">
        <ele>2231</ele>
        <time>2019-08-20T16:40:41Z</time>
      </trkpt>
      <trkpt lat="44.23872" lon="6.98797">
        <ele>2226</ele>
        <time>2019-08-20T16:40:52Z</time>
      </trkpt>
      <trkpt lat="44.23865" lon="6.98812">
        <ele>2233</ele>
        <time>2019-08-20T16:41:09Z</time>
      </trkpt>
      <trkpt lat="44.23862" lon="6.98825">
        <ele>2240</ele>
        <time>2019-08-20T16:41:22Z</time>
      </trkpt>
      <trkpt lat="44.23852" lon="6.98825">
        <ele>2238</ele>
        <time>2019-08-20T16:41:35Z</time>
      </trkpt>
      <trkpt lat="44.23817" lon="6.98815">
        <ele>2228</ele>
        <time>2019-08-20T16:42:23Z</time>
      </trkpt>
      <trkpt lat="44.238" lon="6.98814">
        <ele>2228</ele>
        <time>2019-08-20T16:42:45Z</time>
      </trkpt>
      <trkpt lat="44.2378" lon="6.98816">
        <ele>2230</ele>
        <time>2019-08-20T16:43:12Z</time>
      </trkpt>
      <trkpt lat="44.23733" lon="6.98835">
        <ele>2240</ele>
        <time>2019-08-20T16:44:18Z</time>
      </trkpt>
      <trkpt lat="44.23726" lon="6.98833">
        <ele>2239</ele>
        <time>2019-08-20T16:44:27Z</time>
      </trkpt>
      <trkpt lat="44.2371" lon="6.98824">
        <ele>2235</ele>
        <time>2019-08-20T16:44:50Z</time>
      </trkpt>
      <trkpt lat="44.23683" lon="6.98816">
        <ele>2232</ele>
        <time>2019-08-20T16:45:27Z</time>
      </trkpt>
      <trkpt lat="44.23671" lon="6.98806">
        <ele>2228</ele>
        <time>2019-08-20T16:45:46Z</time>
      </trkpt>
      <trkpt lat="44.23652" lon="6.98796">
        <ele>2223</ele>
        <time>2019-08-20T16:46:13Z</time>
      </trkpt>
      <trkpt lat="44.23614" lon="6.9879">
        <ele>2218</ele>
        <time>2019-08-20T16:47:04Z</time>
      </trkpt>
      <trkpt lat="44.23594" lon="6.9879">
        <ele>2217</ele>
        <time>2019-08-20T16:47:30Z</time>
      </trkpt>
      <trkpt lat="44.23592" lon="6.98793">
        <ele>2218</ele>
        <time>2019-08-20T16:47:34Z</time>
      </trkpt>
      <trkpt lat="44.2359" lon="6.9882">
        <ele>2223</ele>
        <time>2019-08-20T16:48:00Z</time>
      </trkpt>
      <trkpt lat="44.23586" lon="6.98828">
        <ele>2224</ele>
        <time>2019-08-20T16:48:10Z</time>
      </trkpt>
      <trkpt lat="44.23586" lon="6.98857">
        <ele>2227</ele>
        <time>2019-08-20T16:48:37Z</time>
      </trkpt>
      <trkpt lat="44.2358" lon="6.98867">
        <ele>2225</ele>
        <time>2019-08-20T16:48:50Z</time>
      </trkpt>
      <trkpt lat="44.23569" lon="6.98872">
        <ele>2217</ele>
        <time>2019-08-20T16:49:05Z</time>
      </trkpt>
      <trkpt lat="44.23567" lon="6.98886">
        <ele>2216</ele>
        <time>2019-08-20T16:49:19Z</time>
      </trkpt>
      <trkpt lat="44.2358" lon="6.98922">
        <ele>2228</ele>
        <time>2019-08-20T16:49:57Z</time>
      </trkpt>
      <trkpt lat="44.23568" lon="6.98914">
        <ele>2219</ele>
        <time>2019-08-20T16:50:15Z</time>
      </trkpt>
      <trkpt lat="44.2358" lon="6.98958">
        <ele>2228</ele>
        <time>2019-08-20T16:51:00Z</time>
      </trkpt>
      <trkpt lat="44.23589" lon="6.99007">
        <ele>2234</ele>
        <time>2019-08-20T16:51:49Z</time>
      </trkpt>
      <trkpt lat="44.2359" lon="6.99064">
        <ele>2227</ele>
        <time>2019-08-20T16:52:43Z</time>
      </trkpt>
      <trkpt lat="44.23585" lon="6.99087">
        <ele>2219</ele>
        <time>2019-08-20T16:53:06Z</time>
      </trkpt>
      <trkpt lat="44.23589" lon="6.9909">
        <ele>2222</ele>
        <time>2019-08-20T16:53:12Z</time>
      </trkpt>
      <trkpt lat="44.23591" lon="6.99126">
        <ele>2220</ele>
        <time>2019-08-20T16:53:47Z</time>
      </trkpt>
      <trkpt lat="44.2359" lon="6.99151">
        <ele>2216</ele>
        <time>2019-08-20T16:54:11Z</time>
      </trkpt>
      <trkpt lat="44.23594" lon="6.99188">
        <ele>2218</ele>
        <time>2019-08-20T16:54:46Z</time>
      </trkpt>
      <trkpt lat="44.23588" lon="6.99193">
        <ele>2213</ele>
        <time>2019-08-20T16:54:56Z</time>
      </trkpt>
      <trkpt lat="44.23587" lon="6.99202">
        <ele>2213</ele>
        <time>2019-08-20T16:55:04Z</time>
      </trkpt>
      <trkpt lat="44.23589" lon="6.99209">
        <ele>2215</ele>
        <time>2019-08-20T16:55:12Z</time>
      </trkpt>
      <trkpt lat="44.23583" lon="6.99215">
        <ele>2211</ele>
        <time>2019-08-20T16:55:21Z</time>
      </trkpt>
      <trkpt lat="44.2358" lon="6.9924">
        <ele>2210</ele>
        <time>2019-08-20T16:55:46Z</time>
      </trkpt>
      <trkpt lat="44.23583" lon="6.99251">
        <ele>2213</ele>
        <time>2019-08-20T16:55:57Z</time>
      </trkpt>
      <trkpt lat="44.23575" lon="6.9928">
        <ele>2213</ele>
        <time>2019-08-20T16:56:27Z</time>
      </trkpt>
      <trkpt lat="44.2357" lon="6.99288">
        <ele>2212</ele>
        <time>2019-08-20T16:56:37Z</time>
      </trkpt>
      <trkpt lat="44.23551" lon="6.99296">
        <ele>2203</ele>
        <time>2019-08-20T16:57:03Z</time>
      </trkpt>
      <trkpt lat="44.2351" lon="6.99358">
        <ele>2193</ele>
        <time>2019-08-20T16:58:24Z</time>
      </trkpt>
      <trkpt lat="44.23487" lon="6.99409">
        <ele>2195</ele>
        <time>2019-08-20T16:59:22Z</time>
      </trkpt>
      <trkpt lat="44.23485" lon="6.99417">
        <ele>2196</ele>
        <time>2019-08-20T16:59:30Z</time>
      </trkpt>
      <trkpt lat="44.2349" lon="6.99424">
        <ele>2200</ele>
        <time>2019-08-20T16:59:39Z</time>
      </trkpt>
      <trkpt lat="44.23493" lon="6.99436">
        <ele>2203</ele>
        <time>2019-08-20T16:59:51Z</time>
      </trkpt>
      <trkpt lat="44.23496" lon="6.99433">
        <ele>2204</ele>
        <time>2019-08-20T16:59:56Z</time>
      </trkpt>
      <trkpt lat="44.23498" lon="6.9944">
        <ele>2206</ele>
        <time>2019-08-20T17:00:03Z</time>
      </trkpt>
      <trkpt lat="44.23501" lon="6.99439">
        <ele>2207</ele>
        <time>2019-08-20T17:00:07Z</time>
      </trkpt>
      <trkpt lat="44.23504" lon="6.99446">
        <ele>2209</ele>
        <time>2019-08-20T17:00:15Z</time>
      </trkpt>
      <trkpt lat="44.23509" lon="6.99442">
        <ele>2210</ele>
        <time>2019-08-20T17:00:23Z</time>
      </trkpt>
      <trkpt lat="44.23524" lon="6.99447">
        <ele>2216</ele>
        <time>2019-08-20T17:00:44Z</time>
      </trkpt>
      <trkpt lat="44.23534" lon="6.99453">
        <ele>2221</ele>
        <time>2019-08-20T17:00:58Z</time>
      </trkpt>
      <trkpt lat="44.2355" lon="6.99458">
        <ele>2226</ele>
        <time>2019-08-20T17:01:20Z</time>
      </trkpt>
      <trkpt lat="44.23558" lon="6.99463">
        <ele>2229</ele>
        <time>2019-08-20T17:01:32Z</time>
      </trkpt>
      <trkpt lat="44.23561" lon="6.99468">
        <ele>2231</ele>
        <time>2019-08-20T17:01:38Z</time>
      </trkpt>
      <trkpt lat="44.23567" lon="6.99471">
        <ele>2233</ele>
        <time>2019-08-20T17:01:46Z</time>
      </trkpt>
      <trkpt lat="44.23583" lon="6.9946">
        <ele>2237</ele>
        <time>2019-08-20T17:02:10Z</time>
      </trkpt>
      <trkpt lat="44.23583" lon="6.99469">
        <ele>2238</ele>
        <time>2019-08-20T17:02:19Z</time>
      </trkpt>
      <trkpt lat="44.23586" lon="6.99467">
        <ele>2239</ele>
        <time>2019-08-20T17:02:23Z</time>
      </trkpt>
      <trkpt lat="44.23587" lon="6.99469">
        <ele>2240</ele>
        <time>2019-08-20T17:02:26Z</time>
      </trkpt>
      <trkpt lat="44.23594" lon="6.99469">
        <ele>2244</ele>
        <time>2019-08-20T17:02:35Z</time>
      </trkpt>
      <trkpt lat="44.23594" lon="6.9948">
        <ele>2245</ele>
        <time>2019-08-20T17:02:45Z</time>
      </trkpt>
      <trkpt lat="44.23599" lon="6.99482">
        <ele>2247</ele>
        <time>2019-08-20T17:02:52Z</time>
      </trkpt>
      <trkpt lat="44.236" lon="6.99487">
        <ele>2248</ele>
        <time>2019-08-20T17:02:57Z</time>
      </trkpt>
      <trkpt lat="44.23605" lon="6.99487">
        <ele>2251</ele>
        <time>2019-08-20T17:03:04Z</time>
      </trkpt>
      <trkpt lat="44.23616" lon="6.99494">
        <ele>2258</ele>
        <time>2019-08-20T17:03:20Z</time>
      </trkpt>
      <trkpt lat="44.23623" lon="6.99494">
        <ele>2262</ele>
        <time>2019-08-20T17:03:29Z</time>
      </trkpt>
      <trkpt lat="44.23623" lon="6.99505">
        <ele>2263</ele>
        <time>2019-08-20T17:03:40Z</time>
      </trkpt>
      <trkpt lat="44.23626" lon="6.99505">
        <ele>2265</ele>
        <time>2019-08-20T17:03:44Z</time>
      </trkpt>
      <trkpt lat="44.2363" lon="6.99518">
        <ele>2270</ele>
        <time>2019-08-20T17:03:58Z</time>
      </trkpt>
      <trkpt lat="44.23642" lon="6.99512">
        <ele>2275</ele>
        <time>2019-08-20T17:04:15Z</time>
      </trkpt>
      <trkpt lat="44.23654" lon="6.9951">
        <ele>2282</ele>
        <time>2019-08-20T17:04:31Z</time>
      </trkpt>
      <trkpt lat="44.23652" lon="6.99523">
        <ele>2284</ele>
        <time>2019-08-20T17:04:43Z</time>
      </trkpt>
      <trkpt lat="44.23676" lon="6.99523">
        <ele>2297</ele>
        <time>2019-08-20T17:05:15Z</time>
      </trkpt>
      <trkpt lat="44.23679" lon="6.99518">
        <ele>2298</ele>
        <time>2019-08-20T17:05:22Z</time>
      </trkpt>
      <trkpt lat="44.23686" lon="6.99513">
        <ele>2301</ele>
        <time>2019-08-20T17:05:32Z</time>
      </trkpt>
      <trkpt lat="44.23688" lon="6.99523">
        <ele>2304</ele>
        <time>2019-08-20T17:05:42Z</time>
      </trkpt>
      <trkpt lat="44.23678" lon="6.99569">
        <ele>2310</ele>
        <time>2019-08-20T17:06:28Z</time>
      </trkpt>
      <trkpt lat="44.23668" lon="6.99606">
        <ele>2315</ele>
        <time>2019-08-20T17:07:06Z</time>
      </trkpt>
      <trkpt lat="44.23663" lon="6.99646">
        <ele>2325</ele>
        <time>2019-08-20T17:07:45Z</time>
      </trkpt>
      <trkpt lat="44.2367" lon="6.99672">
        <ele>2336</ele>
        <time>2019-08-20T17:08:11Z</time>
      </trkpt>
      <trkpt lat="44.23654" lon="6.99682">
        <ele>2330</ele>
        <time>2019-08-20T17:08:35Z</time>
      </trkpt>
      <trkpt lat="44.23646" lon="6.99708">
        <ele>2335</ele>
        <time>2019-08-20T17:09:02Z</time>
      </trkpt>
      <trkpt lat="44.23647" lon="6.99713">
        <ele>2337</ele>
        <time>2019-08-20T17:09:07Z</time>
      </trkpt>
      <trkpt lat="44.23642" lon="6.9973">
        <ele>2341</ele>
        <time>2019-08-20T17:09:24Z</time>
      </trkpt>
      <trkpt lat="44.23643" lon="6.99737">
        <ele>2344</ele>
        <time>2019-08-20T17:09:31Z</time>
      </trkpt>
      <trkpt lat="44.23638" lon="6.99741">
        <ele>2343</ele>
        <time>2019-08-20T17:09:39Z</time>
      </trkpt>
      <trkpt lat="44.2363" lon="6.99757">
        <ele>2347</ele>
        <time>2019-08-20T17:09:57Z</time>
      </trkpt>
      <trkpt lat="44.23618" lon="6.99769">
        <ele>2349</ele>
        <time>2019-08-20T17:10:17Z</time>
      </trkpt>
      <trkpt lat="44.23614" lon="6.99766">
        <ele>2345</ele>
        <time>2019-08-20T17:10:23Z</time>
      </trkpt>
      <trkpt lat="44.23614" lon="6.99771">
        <ele>2348</ele>
        <time>2019-08-20T17:10:28Z</time>
      </trkpt>
      <trkpt lat="44.23612" lon="6.99769">
        <ele>2346</ele>
        <time>2019-08-20T17:10:31Z</time>
      </trkpt>
      <trkpt lat="44.23611" lon="6.99774">
        <ele>2348</ele>
        <time>2019-08-20T17:10:36Z</time>
      </trkpt>
      <trkpt lat="44.23608" lon="6.99778">
        <ele>2349</ele>
        <time>2019-08-20T17:10:42Z</time>
      </trkpt>
      <trkpt lat="44.23606" lon="6.99778">
        <ele>2348</ele>
        <time>2019-08-20T17:10:44Z</time>
      </trkpt>
      <trkpt lat="44.23603" lon="6.99784">
        <ele>2350</ele>
        <time>2019-08-20T17:10:51Z</time>
      </trkpt>
      <trkpt lat="44.236" lon="6.99779">
        <ele>2347</ele>
        <time>2019-08-20T17:10:58Z</time>
      </trkpt>
      <trkpt lat="44.23597" lon="6.9978">
        <ele>2346</ele>
        <time>2019-08-20T17:11:02Z</time>
      </trkpt>
      <trkpt lat="44.23598" lon="6.99797">
        <ele>2355</ele>
        <time>2019-08-20T17:11:18Z</time>
      </trkpt>
      <trkpt lat="44.23596" lon="6.99853">
        <ele>2378</ele>
        <time>2019-08-20T17:12:12Z</time>
      </trkpt>
      <trkpt lat="44.23601" lon="6.99868">
        <ele>2385</ele>
        <time>2019-08-20T17:12:27Z</time>
      </trkpt>
      <trkpt lat="44.23599" lon="6.99881">
        <ele>2388</ele>
        <time>2019-08-20T17:12:40Z</time>
      </trkpt>
      <trkpt lat="44.23607" lon="6.99914">
        <ele>2403</ele>
        <time>2019-08-20T17:13:13Z</time>
      </trkpt>
      <trkpt lat="44.23603" lon="6.99945">
        <ele>2409</ele>
        <time>2019-08-20T17:13:44Z</time>
      </trkpt>
      <trkpt lat="44.23605" lon="6.9995">
        <ele>2411</ele>
        <time>2019-08-20T17:13:49Z</time>
      </trkpt>
      <trkpt lat="44.23602" lon="6.99969">
        <ele>2414</ele>
        <time>2019-08-20T17:14:08Z</time>
      </trkpt>
      <trkpt lat="44.23602" lon="6.99995">
        <ele>2420</ele>
        <time>2019-08-20T17:14:33Z</time>
      </trkpt>
      <trkpt lat="44.23599" lon="7.0004">
        <ele>2429</ele>
        <time>2019-08-20T17:15:16Z</time>
      </trkpt>
      <trkpt lat="44.23603" lon="7.00065">
        <ele>2439</ele>
        <time>2019-08-20T17:15:40Z</time>
      </trkpt>
      <trkpt lat="44.23586" lon="7.00111">
        <ele>2434</ele>
        <time>2019-08-20T17:16:30Z</time>
      </trkpt>
      <trkpt lat="44.23587" lon="7.00137">
        <ele>2438</ele>
        <time>2019-08-20T17:16:55Z</time>
      </trkpt>
      <trkpt lat="44.23591" lon="7.00146">
        <ele>2443</ele>
        <time>2019-08-20T17:17:05Z</time>
      </trkpt>
      <trkpt lat="44.2359" lon="7.00164">
        <ele>2444</ele>
        <time>2019-08-20T17:17:22Z</time>
      </trkpt>
      <trkpt lat="44.23593" lon="7.00185">
        <ele>2449</ele>
        <time>2019-08-20T17:17:42Z</time>
      </trkpt>
      <trkpt lat="44.23593" lon="7.00219">
        <ele>2452</ele>
        <time>2019-08-20T17:18:15Z</time>
      </trkpt>
      <trkpt lat="44.23599" lon="7.00282">
        <ele>2464</ele>
        <time>2019-08-20T17:19:16Z</time>
      </trkpt>
      <trkpt lat="44.23605" lon="7.00294">
        <ele>2471</ele>
        <time>2019-08-20T17:19:30Z</time>
      </trkpt>
      <trkpt lat="44.23604" lon="7.00326">
        <ele>2474</ele>
        <time>2019-08-20T17:20:00Z</time>
      </trkpt>
      <trkpt lat="44.23605" lon="7.00336">
        <ele>2476</ele>
        <time>2019-08-20T17:20:10Z</time>
      </trkpt>
      <trkpt lat="44.23606" lon="7.00372">
        <ele>2482</ele>
        <time>2019-08-20T17:20:44Z</time>
      </trkpt>
      <trkpt lat="44.23603" lon="7.00387">
        <ele>2482</ele>
        <time>2019-08-20T17:20:59Z</time>
      </trkpt>
      <trkpt lat="44.23611" lon="7.00417">
        <ele>2491</ele>
        <time>2019-08-20T17:21:30Z</time>
      </trkpt>
      <trkpt lat="44.23613" lon="7.00433">
        <ele>2496</ele>
        <time>2019-08-20T17:21:45Z</time>
      </trkpt>
      <trkpt lat="44.23617" lon="7.00439">
        <ele>2499</ele>
        <time>2019-08-20T17:21:53Z</time>
      </trkpt>
      <trkpt lat="44.23616" lon="7.00462">
        <ele>2503</ele>
        <time>2019-08-20T17:22:15Z</time>
      </trkpt>
      <trkpt lat="44.23612" lon="7.00489">
        <ele>2505</ele>
        <time>2019-08-20T17:22:42Z</time>
      </trkpt>
      <trkpt lat="44.23614" lon="7.00489">
        <ele>2506</ele>
        <time>2019-08-20T17:22:44Z</time>
      </trkpt>
      <trkpt lat="44.23617" lon="7.00496">
        <ele>2509</ele>
        <time>2019-08-20T17:22:52Z</time>
      </trkpt>
      <trkpt lat="44.23621" lon="7.00498">
        <ele>2512</ele>
        <time>2019-08-20T17:22:58Z</time>
      </trkpt>
      <trkpt lat="44.23621" lon="7.00517">
        <ele>2516</ele>
        <time>2019-08-20T17:23:16Z</time>
      </trkpt>
      <trkpt lat="44.23625" lon="7.00556">
        <ele>2526</ele>
        <time>2019-08-20T17:23:54Z</time>
      </trkpt>
      <trkpt lat="44.23631" lon="7.00557">
        <ele>2528</ele>
        <time>2019-08-20T17:24:02Z</time>
      </trkpt>
      <trkpt lat="44.2363" lon="7.00563">
        <ele>2529</ele>
        <time>2019-08-20T17:24:08Z</time>
      </trkpt>
      <trkpt lat="44.23625" lon="7.00568">
        <ele>2529</ele>
        <time>2019-08-20T17:24:16Z</time>
      </trkpt>
      <trkpt lat="44.23629" lon="7.00573">
        <ele>2531</ele>
        <time>2019-08-20T17:24:23Z</time>
      </trkpt>
      <trkpt lat="44.23634" lon="7.00571">
        <ele>2532</ele>
        <time>2019-08-20T17:24:30Z</time>
      </trkpt>
      <trkpt lat="44.23633" lon="7.00578">
        <ele>2533</ele>
        <time>2019-08-20T17:24:37Z</time>
      </trkpt>
      <trkpt lat="44.23627" lon="7.00585">
        <ele>2533</ele>
        <time>2019-08-20T17:24:47Z</time>
      </trkpt>
      <trkpt lat="44.23624" lon="7.00586">
        <ele>2533</ele>
        <time>2019-08-20T17:24:51Z</time>
      </trkpt>
      <trkpt lat="44.23612" lon="7.00606">
        <ele>2536</ele>
        <time>2019-08-20T17:25:16Z</time>
      </trkpt>
      <trkpt lat="44.23608" lon="7.0061">
        <ele>2537</ele>
        <time>2019-08-20T17:25:23Z</time>
      </trkpt>
      <trkpt lat="44.23605" lon="7.00668">
        <ele>2556</ele>
        <time>2019-08-20T17:26:18Z</time>
      </trkpt>
      <trkpt lat="44.23609" lon="7.00684">
        <ele>2561</ele>
        <time>2019-08-20T17:26:35Z</time>
      </trkpt>
      <trkpt lat="44.23618" lon="7.007">
        <ele>2567</ele>
        <time>2019-08-20T17:26:54Z</time>
      </trkpt>
      <trkpt lat="44.23624" lon="7.00719">
        <ele>2573</ele>
        <time>2019-08-20T17:27:14Z</time>
      </trkpt>
      <trkpt lat="44.23623" lon="7.0072">
        <ele>2573</ele>
        <time>2019-08-20T17:27:16Z</time>
      </trkpt>
      <trkpt lat="44.23631" lon="7.00735">
        <ele>2577</ele>
        <time>2019-08-20T17:27:33Z</time>
      </trkpt>
      <trkpt lat="44.23631" lon="7.0074">
        <ele>2579</ele>
        <time>2019-08-20T17:27:38Z</time>
      </trkpt>
      <trkpt lat="44.23636" lon="7.00746">
        <ele>2580</ele>
        <time>2019-08-20T17:27:47Z</time>
      </trkpt>
      <trkpt lat="44.2364" lon="7.00743">
        <ele>2579</ele>
        <time>2019-08-20T17:27:53Z</time>
      </trkpt>
      <trkpt lat="44.23656" lon="7.00748">
        <ele>2578</ele>
        <time>2019-08-20T17:28:15Z</time>
      </trkpt>
      <trkpt lat="44.23662" lon="7.00745">
        <ele>2576</ele>
        <time>2019-08-20T17:28:23Z</time>
      </trkpt>
      <trkpt lat="44.23667" lon="7.00753">
        <ele>2577</ele>
        <time>2019-08-20T17:28:34Z</time>
      </trkpt>
      <trkpt lat="44.23668" lon="7.00759">
        <ele>2576</ele>
        <time>2019-08-20T17:28:40Z</time>
      </trkpt>
      <trkpt lat="44.23666" lon="7.00762">
        <ele>2576</ele>
        <time>2019-08-20T17:28:43Z</time>
      </trkpt>
      <trkpt lat="44.23666" lon="7.0077">
        <ele>2576</ele>
        <time>2019-08-20T17:28:51Z</time>
      </trkpt>
      <trkpt lat="44.23658" lon="7.00766">
        <ele>2578</ele>
        <time>2019-08-20T17:29:02Z</time>
      </trkpt>
      <trkpt lat="44.23637" lon="7.00769">
        <ele>2583</ele>
        <time>2019-08-20T17:29:31Z</time>
      </trkpt>
      <trkpt lat="44.23629" lon="7.00773">
        <ele>2585</ele>
        <time>2019-08-20T17:29:42Z</time>
      </trkpt>
      <trkpt lat="44.23603" lon="7.00775">
        <ele>2592</ele>
        <time>2019-08-20T17:30:17Z</time>
      </trkpt>
      <trkpt lat="44.23588" lon="7.00789">
        <ele>2601</ele>
        <time>2019-08-20T17:30:41Z</time>
      </trkpt>
      <trkpt lat="44.23577" lon="7.00787">
        <ele>2605</ele>
        <time>2019-08-20T17:30:56Z</time>
      </trkpt>
      <trkpt lat="44.23574" lon="7.00796">
        <ele>2610</ele>
        <time>2019-08-20T17:31:05Z</time>
      </trkpt>
      <trkpt lat="44.23567" lon="7.00796">
        <ele>2613</ele>
        <time>2019-08-20T17:31:14Z</time>
      </trkpt>
      <trkpt lat="44.23563" lon="7.00793">
        <ele>2614</ele>
        <time>2019-08-20T17:31:20Z</time>
      </trkpt>
      <trkpt lat="44.23557" lon="7.00798">
        <ele>2619</ele>
        <time>2019-08-20T17:31:30Z</time>
      </trkpt>
      <trkpt lat="44.23548" lon="7.00797">
        <ele>2623</ele>
        <time>2019-08-20T17:31:42Z</time>
      </trkpt>
      <trkpt lat="44.23544" lon="7.00808">
        <ele>2628</ele>
        <time>2019-08-20T17:31:54Z</time>
      </trkpt>
      <trkpt lat="44.23537" lon="7.00806">
        <ele>2631</ele>
        <time>2019-08-20T17:32:03Z</time>
      </trkpt>
      <trkpt lat="44.23536" lon="7.008">
        <ele>2629</ele>
        <time>2019-08-20T17:32:09Z</time>
      </trkpt>
      <trkpt lat="44.23533" lon="7.00804">
        <ele>2632</ele>
        <time>2019-08-20T17:32:15Z</time>
      </trkpt>
      <trkpt lat="44.23531" lon="7.00797">
        <ele>2631</ele>
        <time>2019-08-20T17:32:22Z</time>
      </trkpt>
      <trkpt lat="44.23523" lon="7.00808">
        <ele>2638</ele>
        <time>2019-08-20T17:32:37Z</time>
      </trkpt>
      <trkpt lat="44.23523" lon="7.00815">
        <ele>2639</ele>
        <time>2019-08-20T17:32:43Z</time>
      </trkpt>
      <trkpt lat="44.23518" lon="7.00823">
        <ele>2644</ele>
        <time>2019-08-20T17:32:54Z</time>
      </trkpt>
      <trkpt lat="44.23515" lon="7.00826">
        <ele>2646</ele>
        <time>2019-08-20T17:32:59Z</time>
      </trkpt>
      <trkpt lat="44.23515" lon="7.00829">
        <ele>2646</ele>
        <time>2019-08-20T17:33:01Z</time>
      </trkpt>
      <trkpt lat="44.23511" lon="7.00835">
        <ele>2649</ele>
        <time>2019-08-20T17:33:09Z</time>
      </trkpt>
      <trkpt lat="44.23513" lon="7.00841">
        <ele>2648</ele>
        <time>2019-08-20T17:33:16Z</time>
      </trkpt>
      <trkpt lat="44.23518" lon="7.00844">
        <ele>2645</ele>
        <time>2019-08-20T17:33:23Z</time>
      </trkpt>
      <trkpt lat="44.23522" lon="7.00872">
        <ele>2641</ele>
        <time>2019-08-20T17:33:50Z</time>
      </trkpt>
      <trkpt lat="44.23528" lon="7.00884">
        <ele>2639</ele>
        <time>2019-08-20T17:34:04Z</time>
      </trkpt>
      <trkpt lat="44.23532" lon="7.00921">
        <ele>2636</ele>
        <time>2019-08-20T17:34:40Z</time>
      </trkpt>
      <trkpt lat="44.23536" lon="7.00925">
        <ele>2635</ele>
        <time>2019-08-20T17:34:46Z</time>
      </trkpt>
      <trkpt lat="44.23544" lon="7.00973">
        <ele>2632</ele>
        <time>2019-08-20T17:35:34Z</time>
      </trkpt>
      <trkpt lat="44.23552" lon="7.00986">
        <ele>2631</ele>
        <time>2019-08-20T17:35:50Z</time>
      </trkpt>
      <trkpt lat="44.2355" lon="7.01003">
        <ele>2631</ele>
        <time>2019-08-20T17:36:06Z</time>
      </trkpt>
      <trkpt lat="44.23552" lon="7.01026">
        <ele>2630</ele>
        <time>2019-08-20T17:36:29Z</time>
      </trkpt>
      <trkpt lat="44.23537" lon="7.01093">
        <ele>2630</ele>
        <time>2019-08-20T17:37:36Z</time>
      </trkpt>
      <trkpt lat="44.23531" lon="7.01101">
        <ele>2631</ele>
        <time>2019-08-20T17:37:47Z</time>
      </trkpt>
      <trkpt lat="44.23527" lon="7.01116">
        <ele>2634</ele>
        <time>2019-08-20T17:38:02Z</time>
      </trkpt>
      <trkpt lat="44.23522" lon="7.01124">
        <ele>2635</ele>
        <time>2019-08-20T17:38:12Z</time>
      </trkpt>
      <trkpt lat="44.23486" lon="7.01208">
        <ele>2647</ele>
        <time>2019-08-20T17:39:46Z</time>
      </trkpt>
      <trkpt lat="44.23481" lon="7.01214">
        <ele>2645</ele>
        <time>2019-08-20T17:39:55Z</time>
      </trkpt>
      <trkpt lat="44.23479" lon="7.01223">
        <ele>2646</ele>
        <time>2019-08-20T17:40:04Z</time>
      </trkpt>
      <trkpt lat="44.23471" lon="7.01227">
        <ele>2643</ele>
        <time>2019-08-20T17:40:15Z</time>
      </trkpt>
      <trkpt lat="44.23454" lon="7.01256">
        <ele>2641</ele>
        <time>2019-08-20T17:40:51Z</time>
      </trkpt>
      <trkpt lat="44.23451" lon="7.01258">
        <ele>2640</ele>
        <time>2019-08-20T17:40:55Z</time>
      </trkpt>
      <trkpt lat="44.23429" lon="7.01285">
        <ele>2640</ele>
        <time>2019-08-20T17:41:34Z</time>
      </trkpt>
      <trkpt lat="44.23413" lon="7.01309">
        <ele>2643</ele>
        <time>2019-08-20T17:42:06Z</time>
      </trkpt>
      <trkpt lat="44.23385" lon="7.01359">
        <ele>2644</ele>
        <time>2019-08-20T17:43:06Z</time>
      </trkpt>
      <trkpt lat="44.23378" lon="7.01394">
        <ele>2648</ele>
        <time>2019-08-20T17:43:41Z</time>
      </trkpt>
      <trkpt lat="44.2336" lon="7.01424">
        <ele>2649</ele>
        <time>2019-08-20T17:44:19Z</time>
      </trkpt>
      <trkpt lat="44.23356" lon="7.01427">
        <ele>2648</ele>
        <time>2019-08-20T17:44:25Z</time>
      </trkpt>
      <trkpt lat="44.23346" lon="7.01439">
        <ele>2646</ele>
        <time>2019-08-20T17:44:42Z</time>
      </trkpt>
      <trkpt lat="44.23341" lon="7.01435">
        <ele>2646</ele>
        <time>2019-08-20T17:44:50Z</time>
      </trkpt>
      <trkpt lat="44.23331" lon="7.01441">
        <ele>2646</ele>
        <time>2019-08-20T17:45:04Z</time>
      </trkpt>
      <trkpt lat="44.2333" lon="7.01444">
        <ele>2646</ele>
        <time>2019-08-20T17:45:08Z</time>
      </trkpt>
      <trkpt lat="44.23316" lon="7.01455">
        <ele>2647</ele>
        <time>2019-08-20T17:45:29Z</time>
      </trkpt>
      <trkpt lat="44.23289" lon="7.01502">
        <ele>2657</ele>
        <time>2019-08-20T17:46:27Z</time>
      </trkpt>
      <trkpt lat="44.23287" lon="7.01508">
        <ele>2657</ele>
        <time>2019-08-20T17:46:33Z</time>
      </trkpt>
      <trkpt lat="44.23284" lon="7.01507">
        <ele>2658</ele>
        <time>2019-08-20T17:46:37Z</time>
      </trkpt>
      <trkpt lat="44.23282" lon="7.0151">
        <ele>2658</ele>
        <time>2019-08-20T17:46:41Z</time>
      </trkpt>
      <trkpt lat="44.23281" lon="7.01518">
        <ele>2659</ele>
        <time>2019-08-20T17:46:49Z</time>
      </trkpt>
      <trkpt lat="44.23274" lon="7.01531">
        <ele>2662</ele>
        <time>2019-08-20T17:47:04Z</time>
      </trkpt>
      <trkpt lat="44.23268" lon="7.01536">
        <ele>2664</ele>
        <time>2019-08-20T17:47:14Z</time>
      </trkpt>
      <trkpt lat="44.23263" lon="7.01535">
        <ele>2665</ele>
        <time>2019-08-20T17:47:20Z</time>
      </trkpt>
      <trkpt lat="44.23258" lon="7.01537">
        <ele>2667</ele>
        <time>2019-08-20T17:47:27Z</time>
      </trkpt>
      <trkpt lat="44.23246" lon="7.01534">
        <ele>2667</ele>
        <time>2019-08-20T17:47:44Z</time>
      </trkpt>
      <trkpt lat="44.23233" lon="7.01541">
        <ele>2663</ele>
        <time>2019-08-20T17:48:02Z</time>
      </trkpt>
      <trkpt lat="44.23205" lon="7.01574">
        <ele>2659</ele>
        <time>2019-08-20T17:48:51Z</time>
      </trkpt>
      <trkpt lat="44.23206" lon="7.01602">
        <ele>2665</ele>
        <time>2019-08-20T17:49:18Z</time>
      </trkpt>
      <trkpt lat="44.23204" lon="7.01606">
        <ele>2665</ele>
        <time>2019-08-20T17:49:23Z</time>
      </trkpt>
      <trkpt lat="44.23203" lon="7.01626">
        <ele>2668</ele>
        <time>2019-08-20T17:49:42Z</time>
      </trkpt>
      <trkpt lat="44.23203" lon="7.01643">
        <ele>2672</ele>
        <time>2019-08-20T17:49:58Z</time>
      </trkpt>
      <trkpt lat="44.23205" lon="7.01645">
        <ele>2673</ele>
        <time>2019-08-20T17:50:01Z</time>
      </trkpt>
      <trkpt lat="44.23212" lon="7.01632">
        <ele>2673</ele>
        <time>2019-08-20T17:50:17Z</time>
      </trkpt>
      <trkpt lat="44.23215" lon="7.01634">
        <ele>2674</ele>
        <time>2019-08-20T17:50:21Z</time>
      </trkpt>
      <trkpt lat="44.23217" lon="7.01672">
        <ele>2682</ele>
        <time>2019-08-20T17:50:58Z</time>
      </trkpt>
      <trkpt lat="44.2322" lon="7.01674">
        <ele>2684</ele>
        <time>2019-08-20T17:51:02Z</time>
      </trkpt>
      <trkpt lat="44.23221" lon="7.01682">
        <ele>2685</ele>
        <time>2019-08-20T17:51:10Z</time>
      </trkpt>
      <trkpt lat="44.23218" lon="7.01701">
        <ele>2687</ele>
        <time>2019-08-20T17:51:28Z</time>
      </trkpt>
      <trkpt lat="44.23219" lon="7.01708">
        <ele>2689</ele>
        <time>2019-08-20T17:51:35Z</time>
      </trkpt>
      <trkpt lat="44.23222" lon="7.0171">
        <ele>2690</ele>
        <time>2019-08-20T17:51:40Z</time>
      </trkpt>
      <trkpt lat="44.23226" lon="7.01723">
        <ele>2693</ele>
        <time>2019-08-20T17:51:53Z</time>
      </trkpt>
      <trkpt lat="44.23221" lon="7.01759">
        <ele>2698</ele>
        <time>2019-08-20T17:52:28Z</time>
      </trkpt>
      <trkpt lat="44.23219" lon="7.01764">
        <ele>2698</ele>
        <time>2019-08-20T17:52:34Z</time>
      </trkpt>
      <trkpt lat="44.23227" lon="7.01783">
        <ele>2705</ele>
        <time>2019-08-20T17:52:55Z</time>
      </trkpt>
      <trkpt lat="44.23221" lon="7.01806">
        <ele>2708</ele>
        <time>2019-08-20T17:53:18Z</time>
      </trkpt>
      <trkpt lat="44.23221" lon="7.01817">
        <ele>2710</ele>
        <time>2019-08-20T17:53:29Z</time>
      </trkpt>
      <trkpt lat="44.23218" lon="7.0183">
        <ele>2712</ele>
        <time>2019-08-20T17:53:42Z</time>
      </trkpt>
      <trkpt lat="44.23221" lon="7.01835">
        <ele>2714</ele>
        <time>2019-08-20T17:53:48Z</time>
      </trkpt>
      <trkpt lat="44.23227" lon="7.01833">
        <ele>2716</ele>
        <time>2019-08-20T17:53:56Z</time>
      </trkpt>
      <trkpt lat="44.23231" lon="7.01835">
        <ele>2717</ele>
        <time>2019-08-20T17:54:02Z</time>
      </trkpt>
      <trkpt lat="44.23224" lon="7.01867">
        <ele>2721</ele>
        <time>2019-08-20T17:54:34Z</time>
      </trkpt>
      <trkpt lat="44.23226" lon="7.01869">
        <ele>2722</ele>
        <time>2019-08-20T17:54:37Z</time>
      </trkpt>
      <trkpt lat="44.23226" lon="7.01878">
        <ele>2724</ele>
        <time>2019-08-20T17:54:46Z</time>
      </trkpt>
      <trkpt lat="44.23222" lon="7.01893">
        <ele>2726</ele>
        <time>2019-08-20T17:55:01Z</time>
      </trkpt>
      <trkpt lat="44.23222" lon="7.01901">
        <ele>2728</ele>
        <time>2019-08-20T17:55:09Z</time>
      </trkpt>
      <trkpt lat="44.23226" lon="7.019">
        <ele>2728</ele>
        <time>2019-08-20T17:55:14Z</time>
      </trkpt>
      <trkpt lat="44.23231" lon="7.01914">
        <ele>2731</ele>
        <time>2019-08-20T17:55:29Z</time>
      </trkpt>
      <trkpt lat="44.23236" lon="7.01919">
        <ele>2732</ele>
        <time>2019-08-20T17:55:37Z</time>
      </trkpt>
      <trkpt lat="44.23235" lon="7.01931">
        <ele>2732</ele>
        <time>2019-08-20T17:55:49Z</time>
      </trkpt>
      <trkpt lat="44.23242" lon="7.01926">
        <ele>2733</ele>
        <time>2019-08-20T17:55:59Z</time>
      </trkpt>
      <trkpt lat="44.23239" lon="7.01934">
        <ele>2732</ele>
        <time>2019-08-20T17:56:08Z</time>
      </trkpt>
      <trkpt lat="44.23239" lon="7.01938">
        <ele>2731</ele>
        <time>2019-08-20T17:56:12Z</time>
      </trkpt>
      <trkpt lat="44.23249" lon="7.01944">
        <ele>2732</ele>
        <time>2019-08-20T17:56:26Z</time>
      </trkpt>
      <trkpt lat="44.2325" lon="7.01954">
        <ele>2731</ele>
        <time>2019-08-20T17:56:36Z</time>
      </trkpt>
      <trkpt lat="44.23253" lon="7.01967">
        <ele>2729</ele>
        <time>2019-08-20T17:56:49Z</time>
      </trkpt>
      <trkpt lat="44.23267" lon="7.02003">
        <ele>2719</ele>
        <time>2019-08-20T17:57:28Z</time>
      </trkpt>
      <trkpt lat="44.23274" lon="7.02013">
        <ele>2714</ele>
        <time>2019-08-20T17:57:42Z</time>
      </trkpt>
      <trkpt lat="44.23284" lon="7.02015">
        <ele>2710</ele>
        <time>2019-08-20T17:57:55Z</time>
      </trkpt>
      <trkpt lat="44.23287" lon="7.02029">
        <ele>2708</ele>
        <time>2019-08-20T17:58:09Z</time>
      </trkpt>
      <trkpt lat="44.23298" lon="7.02032">
        <ele>2704</ele>
        <time>2019-08-20T17:58:24Z</time>
      </trkpt>
      <trkpt lat="44.23311" lon="7.02051">
        <ele>2702</ele>
        <time>2019-08-20T17:58:49Z</time>
      </trkpt>
      <trkpt lat="44.2331" lon="7.02054">
        <ele>2703</ele>
        <time>2019-08-20T17:58:52Z</time>
      </trkpt>
      <trkpt lat="44.2331" lon="7.02058">
        <ele>2703</ele>
        <time>2019-08-20T17:58:56Z</time>
      </trkpt>
      <trkpt lat="44.23313" lon="7.02059">
        <ele>2703</ele>
        <time>2019-08-20T17:59:00Z</time>
      </trkpt>
      <trkpt lat="44.23321" lon="7.02057">
        <ele>2701</ele>
        <time>2019-08-20T17:59:11Z</time>
      </trkpt>
      <trkpt lat="44.23318" lon="7.02067">
        <ele>2703</ele>
        <time>2019-08-20T17:59:22Z</time>
      </trkpt>
      <trkpt lat="44.23321" lon="7.02072">
        <ele>2704</ele>
        <time>2019-08-20T17:59:28Z</time>
      </trkpt>
      <trkpt lat="44.2332" lon="7.02074">
        <ele>2704</ele>
        <time>2019-08-20T17:59:30Z</time>
      </trkpt>
      <trkpt lat="44.23326" lon="7.0208">
        <ele>2705</ele>
        <time>2019-08-20T17:59:40Z</time>
      </trkpt>
      <trkpt lat="44.2333" lon="7.02113">
        <ele>2705</ele>
        <time>2019-08-20T18:00:12Z</time>
      </trkpt>
      <trkpt lat="44.23343" lon="7.02122">
        <ele>2702</ele>
        <time>2019-08-20T18:00:31Z</time>
      </trkpt>
      <trkpt lat="44.23354" lon="7.02138">
        <ele>2701</ele>
        <time>2019-08-20T18:00:52Z</time>
      </trkpt>
      <trkpt lat="44.23397" lon="7.02192">
        <ele>2708</ele>
        <time>2019-08-20T18:02:10Z</time>
      </trkpt>
      <trkpt lat="44.23413" lon="7.02219">
        <ele>2711</ele>
        <time>2019-08-20T18:02:43Z</time>
      </trkpt>
      <trkpt lat="44.2342" lon="7.02239">
        <ele>2712</ele>
        <time>2019-08-20T18:03:04Z</time>
      </trkpt>
      <trkpt lat="44.23437" lon="7.02249">
        <ele>2708</ele>
        <time>2019-08-20T18:03:29Z</time>
      </trkpt>
      <trkpt lat="44.23443" lon="7.02261">
        <ele>2704</ele>
        <time>2019-08-20T18:03:43Z</time>
      </trkpt>
      <trkpt lat="44.23451" lon="7.02268">
        <ele>2700</ele>
        <time>2019-08-20T18:03:56Z</time>
      </trkpt>
      <trkpt lat="44.23456" lon="7.02279">
        <ele>2697</ele>
        <time>2019-08-20T18:04:08Z</time>
      </trkpt>
      <trkpt lat="44.23468" lon="7.02285">
        <ele>2692</ele>
        <time>2019-08-20T18:04:25Z</time>
      </trkpt>
      <trkpt lat="44.23471" lon="7.02291">
        <ele>2690</ele>
        <time>2019-08-20T18:04:32Z</time>
      </trkpt>
      <trkpt lat="44.23467" lon="7.023">
        <ele>2690</ele>
        <time>2019-08-20T18:04:42Z</time>
      </trkpt>
      <trkpt lat="44.23468" lon="7.0231">
        <ele>2688</ele>
        <time>2019-08-20T18:04:52Z</time>
      </trkpt>
      <trkpt lat="44.23473" lon="7.02318">
        <ele>2685</ele>
        <time>2019-08-20T18:05:02Z</time>
      </trkpt>
      <trkpt lat="44.2346" lon="7.02339">
        <ele>2683</ele>
        <time>2019-08-20T18:05:29Z</time>
      </trkpt>
      <trkpt lat="44.23451" lon="7.02347">
        <ele>2682</ele>
        <time>2019-08-20T18:05:43Z</time>
      </trkpt>
      <trkpt lat="44.23434" lon="7.02382">
        <ele>2672</ele>
        <time>2019-08-20T18:06:23Z</time>
      </trkpt>
      <trkpt lat="44.23431" lon="7.02392">
        <ele>2668</ele>
        <time>2019-08-20T18:06:34Z</time>
      </trkpt>
      <trkpt lat="44.23422" lon="7.02396">
        <ele>2670</ele>
        <time>2019-08-20T18:06:46Z</time>
      </trkpt>
      <trkpt lat="44.23427" lon="7.02405">
        <ele>2664</ele>
        <time>2019-08-20T18:06:57Z</time>
      </trkpt>
      <trkpt lat="44.23411" lon="7.02405">
        <ele>2666</ele>
        <time>2019-08-20T18:07:18Z</time>
      </trkpt>
      <trkpt lat="44.23422" lon="7.02425">
        <ele>2656</ele>
        <time>2019-08-20T18:07:43Z</time>
      </trkpt>
      <trkpt lat="44.23395" lon="7.02417">
        <ele>2659</ele>
        <time>2019-08-20T18:08:19Z</time>
      </trkpt>
      <trkpt lat="44.2338" lon="7.02414">
        <ele>2658</ele>
        <time>2019-08-20T18:08:40Z</time>
      </trkpt>
      <trkpt lat="44.23363" lon="7.02416">
        <ele>2655</ele>
        <time>2019-08-20T18:09:02Z</time>
      </trkpt>
      <trkpt lat="44.23333" lon="7.02427">
        <ele>2645</ele>
        <time>2019-08-20T18:09:44Z</time>
      </trkpt>
      <trkpt lat="44.23317" lon="7.02428">
        <ele>2643</ele>
        <time>2019-08-20T18:10:05Z</time>
      </trkpt>
      <trkpt lat="44.23311" lon="7.02434">
        <ele>2640</ele>
        <time>2019-08-20T18:10:15Z</time>
      </trkpt>
      <trkpt lat="44.23287" lon="7.02444">
        <ele>2634</ele>
        <time>2019-08-20T18:10:48Z</time>
      </trkpt>
      <trkpt lat="44.23283" lon="7.02448">
        <ele>2632</ele>
        <time>2019-08-20T18:10:55Z</time>
      </trkpt>
      <trkpt lat="44.23271" lon="7.02451">
        <ele>2631</ele>
        <time>2019-08-20T18:11:11Z</time>
      </trkpt>
      <trkpt lat="44.23263" lon="7.02457">
        <ele>2629</ele>
        <time>2019-08-20T18:11:23Z</time>
      </trkpt>
      <trkpt lat="44.23248" lon="7.02459">
        <ele>2628</ele>
        <time>2019-08-20T18:11:44Z</time>
      </trkpt>
      <trkpt lat="44.23229" lon="7.02468">
        <ele>2622</ele>
        <time>2019-08-20T18:12:10Z</time>
      </trkpt>
      <trkpt lat="44.23225" lon="7.02474">
        <ele>2620</ele>
        <time>2019-08-20T18:12:18Z</time>
      </trkpt>
      <trkpt lat="44.23215" lon="7.02479">
        <ele>2617</ele>
        <time>2019-08-20T18:12:32Z</time>
      </trkpt>
      <trkpt lat="44.23188" lon="7.02501">
        <ele>2609</ele>
        <time>2019-08-20T18:13:14Z</time>
      </trkpt>
      <trkpt lat="44.23178" lon="7.02515">
        <ele>2604</ele>
        <time>2019-08-20T18:13:33Z</time>
      </trkpt>
      <trkpt lat="44.23173" lon="7.02517">
        <ele>2603</ele>
        <time>2019-08-20T18:13:40Z</time>
      </trkpt>
      <trkpt lat="44.23153" lon="7.02577">
        <ele>2586</ele>
        <time>2019-08-20T18:14:43Z</time>
      </trkpt>
      <trkpt lat="44.23122" lon="7.02633">
        <ele>2570</ele>
        <time>2019-08-20T18:15:51Z</time>
      </trkpt>
      <trkpt lat="44.23113" lon="7.02677">
        <ele>2563</ele>
        <time>2019-08-20T18:16:35Z</time>
      </trkpt>
      <trkpt lat="44.231" lon="7.02704">
        <ele>2562</ele>
        <time>2019-08-20T18:17:06Z</time>
      </trkpt>
      <trkpt lat="44.2309" lon="7.02706">
        <ele>2564</ele>
        <time>2019-08-20T18:17:19Z</time>
      </trkpt>
      <trkpt lat="44.23089" lon="7.0275">
        <ele>2559</ele>
        <time>2019-08-20T18:18:01Z</time>
      </trkpt>
      <trkpt lat="44.23085" lon="7.02756">
        <ele>2559</ele>
        <time>2019-08-20T18:18:09Z</time>
      </trkpt>
      <trkpt lat="44.23085" lon="7.02742">
        <ele>2561</ele>
        <time>2019-08-20T18:18:22Z</time>
      </trkpt>
      <trkpt lat="44.23079" lon="7.02739">
        <ele>2560</ele>
        <time>2019-08-20T18:18:31Z</time>
      </trkpt>
      <trkpt lat="44.23074" lon="7.02744">
        <ele>2558</ele>
        <time>2019-08-20T18:18:39Z</time>
      </trkpt>
      <trkpt lat="44.23072" lon="7.02762">
        <ele>2555</ele>
        <time>2019-08-20T18:18:57Z</time>
      </trkpt>
      <trkpt lat="44.23089" lon="7.02807">
        <ele>2551</ele>
        <time>2019-08-20T18:19:45Z</time>
      </trkpt>
      <trkpt lat="44.23075" lon="7.02811">
        <ele>2548</ele>
        <time>2019-08-20T18:20:04Z</time>
      </trkpt>
      <trkpt lat="44.23099" lon="7.02835">
        <ele>2548</ele>
        <time>2019-08-20T18:20:44Z</time>
      </trkpt>
      <trkpt lat="44.23105" lon="7.02846">
        <ele>2549</ele>
        <time>2019-08-20T18:20:57Z</time>
      </trkpt>
      <trkpt lat="44.23106" lon="7.02858">
        <ele>2550</ele>
        <time>2019-08-20T18:21:08Z</time>
      </trkpt>
      <trkpt lat="44.23091" lon="7.02942">
        <ele>2553</ele>
        <time>2019-08-20T18:22:31Z</time>
      </trkpt>
      <trkpt lat="44.23046" lon="7.03014">
        <ele>2541</ele>
        <time>2019-08-20T18:24:03Z</time>
      </trkpt>
      <trkpt lat="44.23023" lon="7.03037">
        <ele>2530</ele>
        <time>2019-08-20T18:24:40Z</time>
      </trkpt>
      <trkpt lat="44.23005" lon="7.03057">
        <ele>2523</ele>
        <time>2019-08-20T18:25:11Z</time>
      </trkpt>
      <trkpt lat="44.22993" lon="7.03066">
        <ele>2518</ele>
        <time>2019-08-20T18:25:29Z</time>
      </trkpt>
      <trkpt lat="44.22987" lon="7.03075">
        <ele>2517</ele>
        <time>2019-08-20T18:25:41Z</time>
      </trkpt>
      <trkpt lat="44.22972" lon="7.03084">
        <ele>2511</ele>
        <time>2019-08-20T18:26:03Z</time>
      </trkpt>
      <trkpt lat="44.22963" lon="7.03086">
        <ele>2506</ele>
        <time>2019-08-20T18:26:15Z</time>
      </trkpt>
      <trkpt lat="44.22947" lon="7.03101">
        <ele>2494</ele>
        <time>2019-08-20T18:26:41Z</time>
      </trkpt>
      <trkpt lat="44.22944" lon="7.03096">
        <ele>2495</ele>
        <time>2019-08-20T18:26:47Z</time>
      </trkpt>
      <trkpt lat="44.22905" lon="7.03101">
        <ele>2481</ele>
        <time>2019-08-20T18:27:39Z</time>
      </trkpt>
      <trkpt lat="44.22883" lon="7.03107">
        <ele>2474</ele>
        <time>2019-08-20T18:28:09Z</time>
      </trkpt>
      <trkpt lat="44.22881" lon="7.03105">
        <ele>2474</ele>
        <time>2019-08-20T18:28:12Z</time>
      </trkpt>
      <trkpt lat="44.22869" lon="7.03107">
        <ele>2470</ele>
        <time>2019-08-20T18:28:29Z</time>
      </trkpt>
      <trkpt lat="44.22865" lon="7.03111">
        <ele>2468</ele>
        <time>2019-08-20T18:28:35Z</time>
      </trkpt>
      <trkpt lat="44.22859" lon="7.03103">
        <ele>2468</ele>
        <time>2019-08-20T18:28:46Z</time>
      </trkpt>
      <trkpt lat="44.22855" lon="7.03108">
        <ele>2466</ele>
        <time>2019-08-20T18:28:53Z</time>
      </trkpt>
      <trkpt lat="44.22851" lon="7.03103">
        <ele>2466</ele>
        <time>2019-08-20T18:29:00Z</time>
      </trkpt>
      <trkpt lat="44.22845" lon="7.03106">
        <ele>2464</ele>
        <time>2019-08-20T18:29:09Z</time>
      </trkpt>
      <trkpt lat="44.22841" lon="7.03115">
        <ele>2461</ele>
        <time>2019-08-20T18:29:19Z</time>
      </trkpt>
      <trkpt lat="44.22837" lon="7.03116">
        <ele>2460</ele>
        <time>2019-08-20T18:29:25Z</time>
      </trkpt>
      <trkpt lat="44.22831" lon="7.03099">
        <ele>2462</ele>
        <time>2019-08-20T18:29:43Z</time>
      </trkpt>
      <trkpt lat="44.22829" lon="7.03085">
        <ele>2464</ele>
        <time>2019-08-20T18:29:56Z</time>
      </trkpt>
      <trkpt lat="44.22839" lon="7.03075">
        <ele>2466</ele>
        <time>2019-08-20T18:30:13Z</time>
      </trkpt>
      <trkpt lat="44.22828" lon="7.03071">
        <ele>2464</ele>
        <time>2019-08-20T18:30:28Z</time>
      </trkpt>
      <trkpt lat="44.22797" lon="7.03064">
        <ele>2459</ele>
        <time>2019-08-20T18:31:10Z</time>
      </trkpt>
      <trkpt lat="44.22778" lon="7.03068">
        <ele>2457</ele>
        <time>2019-08-20T18:31:35Z</time>
      </trkpt>
      <trkpt lat="44.22766" lon="7.03073">
        <ele>2456</ele>
        <time>2019-08-20T18:31:52Z</time>
      </trkpt>
      <trkpt lat="44.22749" lon="7.0309">
        <ele>2454</ele>
        <time>2019-08-20T18:32:20Z</time>
      </trkpt>
      <trkpt lat="44.22734" lon="7.03101">
        <ele>2450</ele>
        <time>2019-08-20T18:32:43Z</time>
      </trkpt>
      <trkpt lat="44.22721" lon="7.03106">
        <ele>2448</ele>
        <time>2019-08-20T18:33:01Z</time>
      </trkpt>
      <trkpt lat="44.22696" lon="7.03122">
        <ele>2444</ele>
        <time>2019-08-20T18:33:37Z</time>
      </trkpt>
      <trkpt lat="44.22682" lon="7.03127">
        <ele>2442</ele>
        <time>2019-08-20T18:33:57Z</time>
      </trkpt>
      <trkpt lat="44.22658" lon="7.03162">
        <ele>2443</ele>
        <time>2019-08-20T18:34:43Z</time>
      </trkpt>
      <trkpt lat="44.22591" lon="7.03238">
        <ele>2443</ele>
        <time>2019-08-20T18:36:38Z</time>
      </trkpt>
      <trkpt lat="44.22582" lon="7.03252">
        <ele>2444</ele>
        <time>2019-08-20T18:36:56Z</time>
      </trkpt>
      <trkpt lat="44.22568" lon="7.03264">
        <ele>2442</ele>
        <time>2019-08-20T18:37:18Z</time>
      </trkpt>
      <trkpt lat="44.22562" lon="7.03262">
        <ele>2442</ele>
        <time>2019-08-20T18:37:26Z</time>
      </trkpt>
      <trkpt lat="44.22555" lon="7.0323">
        <ele>2442</ele>
        <time>2019-08-20T18:37:58Z</time>
      </trkpt>
      <trkpt lat="44.22545" lon="7.0326">
        <ele>2442</ele>
        <time>2019-08-20T18:38:30Z</time>
      </trkpt>
      <trkpt lat="44.22526" lon="7.03292">
        <ele>2442</ele>
        <time>2019-08-20T18:39:10Z</time>
      </trkpt>
      <trkpt lat="44.22528" lon="7.03308">
        <ele>2442</ele>
        <time>2019-08-20T18:39:25Z</time>
      </trkpt>
      <trkpt lat="44.22528" lon="7.03339">
        <ele>2442</ele>
        <time>2019-08-20T18:39:55Z</time>
      </trkpt>
      <trkpt lat="44.22525" lon="7.03357">
        <ele>2445</ele>
        <time>2019-08-20T18:40:13Z</time>
      </trkpt>
      <trkpt lat="44.22527" lon="7.03364">
        <ele>2445</ele>
        <time>2019-08-20T18:40:20Z</time>
      </trkpt>
      <trkpt lat="44.22531" lon="7.0336">
        <ele>2444</ele>
        <time>2019-08-20T18:40:26Z</time>
      </trkpt>
      <trkpt lat="44.22539" lon="7.03335">
        <ele>2439</ele>
        <time>2019-08-20T18:40:53Z</time>
      </trkpt>
      <trkpt lat="44.22544" lon="7.03333">
        <ele>2438</ele>
        <time>2019-08-20T18:40:59Z</time>
      </trkpt>
      <trkpt lat="44.22553" lon="7.03333">
        <ele>2436</ele>
        <time>2019-08-20T18:41:11Z</time>
      </trkpt>
      <trkpt lat="44.22565" lon="7.03323">
        <ele>2435</ele>
        <time>2019-08-20T18:41:30Z</time>
      </trkpt>
      <trkpt lat="44.22574" lon="7.03322">
        <ele>2434</ele>
        <time>2019-08-20T18:41:42Z</time>
      </trkpt>
      <trkpt lat="44.22596" lon="7.03335">
        <ele>2427</ele>
        <time>2019-08-20T18:42:14Z</time>
      </trkpt>
      <trkpt lat="44.22606" lon="7.03338">
        <ele>2425</ele>
        <time>2019-08-20T18:42:28Z</time>
      </trkpt>
      <trkpt lat="44.22616" lon="7.03336">
        <ele>2423</ele>
        <time>2019-08-20T18:42:41Z</time>
      </trkpt>
      <trkpt lat="44.2264" lon="7.03317">
        <ele>2424</ele>
        <time>2019-08-20T18:43:18Z</time>
      </trkpt>
      <trkpt lat="44.22675" lon="7.03317">
        <ele>2418</ele>
        <time>2019-08-20T18:44:05Z</time>
      </trkpt>
      <trkpt lat="44.227" lon="7.03306">
        <ele>2417</ele>
        <time>2019-08-20T18:44:40Z</time>
      </trkpt>
      <trkpt lat="44.22702" lon="7.03307">
        <ele>2417</ele>
        <time>2019-08-20T18:44:43Z</time>
      </trkpt>
      <trkpt lat="44.227" lon="7.03318">
        <ele>2414</ele>
        <time>2019-08-20T18:44:53Z</time>
      </trkpt>
      <trkpt lat="44.22702" lon="7.03321">
        <ele>2413</ele>
        <time>2019-08-20T18:44:57Z</time>
      </trkpt>
      <trkpt lat="44.22715" lon="7.03324">
        <ele>2410</ele>
        <time>2019-08-20T18:45:15Z</time>
      </trkpt>
      <trkpt lat="44.22722" lon="7.03333">
        <ele>2406</ele>
        <time>2019-08-20T18:45:28Z</time>
      </trkpt>
      <trkpt lat="44.22758" lon="7.03362">
        <ele>2395</ele>
        <time>2019-08-20T18:46:23Z</time>
      </trkpt>
      <trkpt lat="44.22786" lon="7.03372">
        <ele>2389</ele>
        <time>2019-08-20T18:47:02Z</time>
      </trkpt>
      <trkpt lat="44.22814" lon="7.03375">
        <ele>2386</ele>
        <time>2019-08-20T18:47:39Z</time>
      </trkpt>
      <trkpt lat="44.22827" lon="7.03388">
        <ele>2382</ele>
        <time>2019-08-20T18:48:00Z</time>
      </trkpt>
      <trkpt lat="44.22833" lon="7.03403">
        <ele>2379</ele>
        <time>2019-08-20T18:48:17Z</time>
      </trkpt>
      <trkpt lat="44.22844" lon="7.03414">
        <ele>2376</ele>
        <time>2019-08-20T18:48:35Z</time>
      </trkpt>
      <trkpt lat="44.22853" lon="7.03412">
        <ele>2375</ele>
        <time>2019-08-20T18:48:47Z</time>
      </trkpt>
      <trkpt lat="44.22858" lon="7.03418">
        <ele>2373</ele>
        <time>2019-08-20T18:48:56Z</time>
      </trkpt>
      <trkpt lat="44.22855" lon="7.03431">
        <ele>2371</ele>
        <time>2019-08-20T18:49:09Z</time>
      </trkpt>
      <trkpt lat="44.22865" lon="7.03433">
        <ele>2369</ele>
        <time>2019-08-20T18:49:22Z</time>
      </trkpt>
      <trkpt lat="44.22868" lon="7.03441">
        <ele>2366</ele>
        <time>2019-08-20T18:49:31Z</time>
      </trkpt>
      <trkpt lat="44.22874" lon="7.03439">
        <ele>2366</ele>
        <time>2019-08-20T18:49:39Z</time>
      </trkpt>
      <trkpt lat="44.22881" lon="7.03442">
        <ele>2364</ele>
        <time>2019-08-20T18:49:49Z</time>
      </trkpt>
      <trkpt lat="44.229" lon="7.03433">
        <ele>2364</ele>
        <time>2019-08-20T18:50:16Z</time>
      </trkpt>
      <trkpt lat="44.22934" lon="7.03447">
        <ele>2353</ele>
        <time>2019-08-20T18:51:03Z</time>
      </trkpt>
      <trkpt lat="44.22936" lon="7.0345">
        <ele>2351</ele>
        <time>2019-08-20T18:51:07Z</time>
      </trkpt>
      <trkpt lat="44.22928" lon="7.03467">
        <ele>2350</ele>
        <time>2019-08-20T18:51:27Z</time>
      </trkpt>
      <trkpt lat="44.22923" lon="7.03476">
        <ele>2349</ele>
        <time>2019-08-20T18:51:37Z</time>
      </trkpt>
      <trkpt lat="44.22937" lon="7.03482">
        <ele>2343</ele>
        <time>2019-08-20T18:51:57Z</time>
      </trkpt>
      <trkpt lat="44.22944" lon="7.03482">
        <ele>2341</ele>
        <time>2019-08-20T18:52:06Z</time>
      </trkpt>
      <trkpt lat="44.22951" lon="7.03485">
        <ele>2338</ele>
        <time>2019-08-20T18:52:16Z</time>
      </trkpt>
      <trkpt lat="44.22967" lon="7.03484">
        <ele>2333</ele>
        <time>2019-08-20T18:52:37Z</time>
      </trkpt>
      <trkpt lat="44.2299" lon="7.03488">
        <ele>2324</ele>
        <time>2019-08-20T18:53:08Z</time>
      </trkpt>
      <trkpt lat="44.23008" lon="7.0348">
        <ele>2321</ele>
        <time>2019-08-20T18:53:34Z</time>
      </trkpt>
      <trkpt lat="44.23023" lon="7.03478">
        <ele>2319</ele>
        <time>2019-08-20T18:53:54Z</time>
      </trkpt>
      <trkpt lat="44.2303" lon="7.03468">
        <ele>2320</ele>
        <time>2019-08-20T18:54:07Z</time>
      </trkpt>
      <trkpt lat="44.23037" lon="7.0348">
        <ele>2316</ele>
        <time>2019-08-20T18:54:22Z</time>
      </trkpt>
      <trkpt lat="44.23042" lon="7.03495">
        <ele>2312</ele>
        <time>2019-08-20T18:54:38Z</time>
      </trkpt>
      <trkpt lat="44.23052" lon="7.03503">
        <ele>2309</ele>
        <time>2019-08-20T18:54:53Z</time>
      </trkpt>
      <trkpt lat="44.23062" lon="7.03503">
        <ele>2308</ele>
        <time>2019-08-20T18:55:06Z</time>
      </trkpt>
      <trkpt lat="44.2307" lon="7.03507">
        <ele>2306</ele>
        <time>2019-08-20T18:55:18Z</time>
      </trkpt>
      <trkpt lat="44.2308" lon="7.03515">
        <ele>2305</ele>
        <time>2019-08-20T18:55:33Z</time>
      </trkpt>
      <trkpt lat="44.23101" lon="7.03512">
        <ele>2302</ele>
        <time>2019-08-20T18:56:01Z</time>
      </trkpt>
      <trkpt lat="44.23116" lon="7.03517">
        <ele>2300</ele>
        <time>2019-08-20T18:56:22Z</time>
      </trkpt>
      <trkpt lat="44.23129" lon="7.03509">
        <ele>2298</ele>
        <time>2019-08-20T18:56:41Z</time>
      </trkpt>
      <trkpt lat="44.23138" lon="7.03513">
        <ele>2297</ele>
        <time>2019-08-20T18:56:53Z</time>
      </trkpt>
      <trkpt lat="44.23159" lon="7.03528">
        <ele>2295</ele>
        <time>2019-08-20T18:57:25Z</time>
      </trkpt>
      <trkpt lat="44.23201" lon="7.03573">
        <ele>2286</ele>
        <time>2019-08-20T18:58:36Z</time>
      </trkpt>
      <trkpt lat="44.23207" lon="7.03586">
        <ele>2283</ele>
        <time>2019-08-20T18:58:50Z</time>
      </trkpt>
      <trkpt lat="44.23217" lon="7.03635">
        <ele>2278</ele>
        <time>2019-08-20T18:59:39Z</time>
      </trkpt>
      <trkpt lat="44.23218" lon="7.03659">
        <ele>2276</ele>
        <time>2019-08-20T19:00:02Z</time>
      </trkpt>
      <trkpt lat="44.23228" lon="7.03646">
        <ele>2273</ele>
        <time>2019-08-20T19:00:20Z</time>
      </trkpt>
      <trkpt lat="44.23232" lon="7.03666">
        <ele>2270</ele>
        <time>2019-08-20T19:00:40Z</time>
      </trkpt>
      <trkpt lat="44.23239" lon="7.03671">
        <ele>2267</ele>
        <time>2019-08-20T19:00:51Z</time>
      </trkpt>
      <trkpt lat="44.23242" lon="7.03645">
        <ele>2267</ele>
        <time>2019-08-20T19:01:16Z</time>
      </trkpt>
      <trkpt lat="44.23245" lon="7.03633">
        <ele>2267</ele>
        <time>2019-08-20T19:01:28Z</time>
      </trkpt>
      <trkpt lat="44.23264" lon="7.03618">
        <ele>2260</ele>
        <time>2019-08-20T19:01:57Z</time>
      </trkpt>
      <trkpt lat="44.23276" lon="7.03626">
        <ele>2255</ele>
        <time>2019-08-20T19:02:15Z</time>
      </trkpt>
      <trkpt lat="44.23285" lon="7.03616">
        <ele>2252</ele>
        <time>2019-08-20T19:02:30Z</time>
      </trkpt>
      <trkpt lat="44.23294" lon="7.03618">
        <ele>2248</ele>
        <time>2019-08-20T19:02:42Z</time>
      </trkpt>
      <trkpt lat="44.23305" lon="7.03629">
        <ele>2243</ele>
        <time>2019-08-20T19:03:00Z</time>
      </trkpt>
      <trkpt lat="44.23333" lon="7.0363">
        <ele>2231</ele>
        <time>2019-08-20T19:03:38Z</time>
      </trkpt>
      <trkpt lat="44.23339" lon="7.0364">
        <ele>2228</ele>
        <time>2019-08-20T19:03:50Z</time>
      </trkpt>
      <trkpt lat="44.23342" lon="7.03651">
        <ele>2225</ele>
        <time>2019-08-20T19:04:02Z</time>
      </trkpt>
      <trkpt lat="44.23346" lon="7.03647">
        <ele>2225</ele>
        <time>2019-08-20T19:04:08Z</time>
      </trkpt>
      <trkpt lat="44.23349" lon="7.03647">
        <ele>2224</ele>
        <time>2019-08-20T19:04:12Z</time>
      </trkpt>
      <trkpt lat="44.23357" lon="7.03659">
        <ele>2220</ele>
        <time>2019-08-20T19:04:28Z</time>
      </trkpt>
      <trkpt lat="44.23367" lon="7.03665">
        <ele>2216</ele>
        <time>2019-08-20T19:04:42Z</time>
      </trkpt>
      <trkpt lat="44.2337" lon="7.03662">
        <ele>2216</ele>
        <time>2019-08-20T19:04:47Z</time>
      </trkpt>
      <trkpt lat="44.23373" lon="7.03663">
        <ele>2215</ele>
        <time>2019-08-20T19:04:51Z</time>
      </trkpt>
      <trkpt lat="44.23375" lon="7.03668">
        <ele>2213</ele>
        <time>2019-08-20T19:04:57Z</time>
      </trkpt>
      <trkpt lat="44.23383" lon="7.03676">
        <ele>2210</ele>
        <time>2019-08-20T19:05:10Z</time>
      </trkpt>
      <trkpt lat="44.23402" lon="7.03688">
        <ele>2204</ele>
        <time>2019-08-20T19:05:38Z</time>
      </trkpt>
      <trkpt lat="44.23421" lon="7.0371">
        <ele>2197</ele>
        <time>2019-08-20T19:06:11Z</time>
      </trkpt>
      <trkpt lat="44.23437" lon="7.03723">
        <ele>2193</ele>
        <time>2019-08-20T19:06:35Z</time>
      </trkpt>
      <trkpt lat="44.23452" lon="7.0374">
        <ele>2187</ele>
        <time>2019-08-20T19:07:01Z</time>
      </trkpt>
      <trkpt lat="44.23463" lon="7.03765">
        <ele>2181</ele>
        <time>2019-08-20T19:07:29Z</time>
      </trkpt>
      <trkpt lat="44.23489" lon="7.0378">
        <ele>2173</ele>
        <time>2019-08-20T19:08:07Z</time>
      </trkpt>
      <trkpt lat="44.23514" lon="7.03782">
        <ele>2167</ele>
        <time>2019-08-20T19:08:40Z</time>
      </trkpt>
      <trkpt lat="44.23533" lon="7.03793">
        <ele>2162</ele>
        <time>2019-08-20T19:09:08Z</time>
      </trkpt>
      <trkpt lat="44.23539" lon="7.03791">
        <ele>2162</ele>
        <time>2019-08-20T19:09:16Z</time>
      </trkpt>
      <trkpt lat="44.23551" lon="7.03796">
        <ele>2159</ele>
        <time>2019-08-20T19:09:33Z</time>
      </trkpt>
      <trkpt lat="44.23561" lon="7.03805">
        <ele>2155</ele>
        <time>2019-08-20T19:09:48Z</time>
      </trkpt>
      <trkpt lat="44.23588" lon="7.0382">
        <ele>2146</ele>
        <time>2019-08-20T19:10:27Z</time>
      </trkpt>
      <trkpt lat="44.23601" lon="7.03834">
        <ele>2141</ele>
        <time>2019-08-20T19:10:49Z</time>
      </trkpt>
      <trkpt lat="44.23623" lon="7.03851">
        <ele>2136</ele>
        <time>2019-08-20T19:11:23Z</time>
      </trkpt>
      <trkpt lat="44.23631" lon="7.03862">
        <ele>2134</ele>
        <time>2019-08-20T19:11:38Z</time>
      </trkpt>
      <trkpt lat="44.23645" lon="7.03875">
        <ele>2130</ele>
        <time>2019-08-20T19:12:00Z</time>
      </trkpt>
      <trkpt lat="44.23657" lon="7.03881">
        <ele>2127</ele>
        <time>2019-08-20T19:12:17Z</time>
      </trkpt>
      <trkpt lat="44.23686" lon="7.03911">
        <ele>2119</ele>
        <time>2019-08-20T19:13:05Z</time>
      </trkpt>
      <trkpt lat="44.237" lon="7.03906">
        <ele>2120</ele>
        <time>2019-08-20T19:13:25Z</time>
      </trkpt>
      <trkpt lat="44.23725" lon="7.03941">
        <ele>2110</ele>
        <time>2019-08-20T19:14:12Z</time>
      </trkpt>
      <trkpt lat="44.23746" lon="7.03967">
        <ele>2102</ele>
        <time>2019-08-20T19:14:49Z</time>
      </trkpt>
      <trkpt lat="44.23763" lon="7.03976">
        <ele>2098</ele>
        <time>2019-08-20T19:15:14Z</time>
      </trkpt>
      <trkpt lat="44.23764" lon="7.03981">
        <ele>2097</ele>
        <time>2019-08-20T19:15:19Z</time>
      </trkpt>
      <trkpt lat="44.2375" lon="7.03989">
        <ele>2095</ele>
        <time>2019-08-20T19:15:39Z</time>
      </trkpt>
      <trkpt lat="44.23752" lon="7.03996">
        <ele>2093</ele>
        <time>2019-08-20T19:15:46Z</time>
      </trkpt>
      <trkpt lat="44.23763" lon="7.04006">
        <ele>2090</ele>
        <time>2019-08-20T19:16:03Z</time>
      </trkpt>
      <trkpt lat="44.23772" lon="7.04011">
        <ele>2089</ele>
        <time>2019-08-20T19:16:16Z</time>
      </trkpt>
      <trkpt lat="44.23779" lon="7.04019">
        <ele>2087</ele>
        <time>2019-08-20T19:16:28Z</time>
      </trkpt>
      <trkpt lat="44.23796" lon="7.04017">
        <ele>2086</ele>
        <time>2019-08-20T19:16:51Z</time>
      </trkpt>
      <trkpt lat="44.23801" lon="7.04019">
        <ele>2085</ele>
        <time>2019-08-20T19:16:58Z</time>
      </trkpt>
      <trkpt lat="44.23803" lon="7.04024">
        <ele>2084</ele>
        <time>2019-08-20T19:17:04Z</time>
      </trkpt>
      <trkpt lat="44.23804" lon="7.04031">
        <ele>2083</ele>
        <time>2019-08-20T19:17:10Z</time>
      </trkpt>
      <trkpt lat="44.23807" lon="7.04038">
        <ele>2081</ele>
        <time>2019-08-20T19:17:18Z</time>
      </trkpt>
      <trkpt lat="44.23821" lon="7.04033">
        <ele>2081</ele>
        <time>2019-08-20T19:17:38Z</time>
      </trkpt>
      <trkpt lat="44.23824" lon="7.04037">
        <ele>2080</ele>
        <time>2019-08-20T19:17:43Z</time>
      </trkpt>
      <trkpt lat="44.23865" lon="7.04048">
        <ele>2076</ele>
        <time>2019-08-20T19:18:39Z</time>
      </trkpt>
      <trkpt lat="44.23892" lon="7.04059">
        <ele>2071</ele>
        <time>2019-08-20T19:19:16Z</time>
      </trkpt>
      <trkpt lat="44.2391" lon="7.04059">
        <ele>2070</ele>
        <time>2019-08-20T19:19:40Z</time>
      </trkpt>
      <trkpt lat="44.23912" lon="7.04064">
        <ele>2068</ele>
        <time>2019-08-20T19:19:46Z</time>
      </trkpt>
      <trkpt lat="44.2391" lon="7.0407">
        <ele>2066</ele>
        <time>2019-08-20T19:19:52Z</time>
      </trkpt>
      <trkpt lat="44.23905" lon="7.04072">
        <ele>2066</ele>
        <time>2019-08-20T19:19:59Z</time>
      </trkpt>
      <trkpt lat="44.23869" lon="7.04073">
        <ele>2068</ele>
        <time>2019-08-20T19:20:47Z</time>
      </trkpt>
      <trkpt lat="44.23859" lon="7.0408">
        <ele>2066</ele>
        <time>2019-08-20T19:21:02Z</time>
      </trkpt>
      <trkpt lat="44.23852" lon="7.04097">
        <ele>2064</ele>
        <time>2019-08-20T19:21:21Z</time>
      </trkpt>
      <trkpt lat="44.23853" lon="7.041">
        <ele>2063</ele>
        <time>2019-08-20T19:21:24Z</time>
      </trkpt>
      <trkpt lat="44.2386" lon="7.04101">
        <ele>2062</ele>
        <time>2019-08-20T19:21:33Z</time>
      </trkpt>
      <trkpt lat="44.23866" lon="7.04097">
        <ele>2062</ele>
        <time>2019-08-20T19:21:42Z</time>
      </trkpt>
      <trkpt lat="44.23872" lon="7.041">
        <ele>2061</ele>
        <time>2019-08-20T19:21:51Z</time>
      </trkpt>
      <trkpt lat="44.23922" lon="7.0414">
        <ele>2047</ele>
        <time>2019-08-20T19:23:08Z</time>
      </trkpt>
      <trkpt lat="44.23929" lon="7.04149">
        <ele>2045</ele>
        <time>2019-08-20T19:23:20Z</time>
      </trkpt>
      <trkpt lat="44.23946" lon="7.04179">
        <ele>2041</ele>
        <time>2019-08-20T19:23:57Z</time>
      </trkpt>
      <trkpt lat="44.2397" lon="7.04204">
        <ele>2038</ele>
        <time>2019-08-20T19:24:37Z</time>
      </trkpt>
      <trkpt lat="44.23973" lon="7.04212">
        <ele>2037</ele>
        <time>2019-08-20T19:24:46Z</time>
      </trkpt>
      <trkpt lat="44.23998" lon="7.04244">
        <ele>2030</ele>
        <time>2019-08-20T19:25:31Z</time>
      </trkpt>
      <trkpt lat="44.24003" lon="7.04253">
        <ele>2029</ele>
        <time>2019-08-20T19:25:42Z</time>
      </trkpt>
      <trkpt lat="44.24002" lon="7.04257">
        <ele>2029</ele>
        <time>2019-08-20T19:25:46Z</time>
      </trkpt>
      <trkpt lat="44.23993" lon="7.04265">
        <ele>2028</ele>
        <time>2019-08-20T19:26:00Z</time>
      </trkpt>
      <trkpt lat="44.23992" lon="7.04271">
        <ele>2028</ele>
        <time>2019-08-20T19:26:06Z</time>
      </trkpt>
      <trkpt lat="44.23995" lon="7.04278">
        <ele>2027</ele>
        <time>2019-08-20T19:26:14Z</time>
      </trkpt>
      <trkpt lat="44.24006" lon="7.04285">
        <ele>2026</ele>
        <time>2019-08-20T19:26:30Z</time>
      </trkpt>
      <trkpt lat="44.24015" lon="7.043">
        <ele>2025</ele>
        <time>2019-08-20T19:26:49Z</time>
      </trkpt>
      <trkpt lat="44.24045" lon="7.04324">
        <ele>2020</ele>
        <time>2019-08-20T19:27:35Z</time>
      </trkpt>
      <trkpt lat="44.24059" lon="7.0433">
        <ele>2018</ele>
        <time>2019-08-20T19:27:54Z</time>
      </trkpt>
      <trkpt lat="44.24076" lon="7.04334">
        <ele>2016</ele>
        <time>2019-08-20T19:28:17Z</time>
      </trkpt>
      <trkpt lat="44.24121" lon="7.04361">
        <ele>2011</ele>
        <time>2019-08-20T19:29:23Z</time>
      </trkpt>
      <trkpt lat="44.24175" lon="7.04376">
        <ele>2006</ele>
        <time>2019-08-20T19:30:36Z</time>
      </trkpt>
      <trkpt lat="44.24186" lon="7.04386">
        <ele>2003</ele>
        <time>2019-08-20T19:30:54Z</time>
      </trkpt>
      <trkpt lat="44.24204" lon="7.04396">
        <ele>1999</ele>
        <time>2019-08-20T19:31:19Z</time>
      </trkpt>
      <trkpt lat="44.24216" lon="7.044">
        <ele>1996</ele>
        <time>2019-08-20T19:31:36Z</time>
      </trkpt>
      <trkpt lat="44.24241" lon="7.04399">
        <ele>1993</ele>
        <time>2019-08-20T19:32:09Z</time>
      </trkpt>
      <trkpt lat="44.24251" lon="7.04405">
        <ele>1990</ele>
        <time>2019-08-20T19:32:24Z</time>
      </trkpt>
      <trkpt lat="44.24297" lon="7.04446">
        <ele>1984</ele>
        <time>2019-08-20T19:33:37Z</time>
      </trkpt>
      <trkpt lat="44.24308" lon="7.04452">
        <ele>1982</ele>
        <time>2019-08-20T19:33:52Z</time>
      </trkpt>
      <trkpt lat="44.24318" lon="7.04463">
        <ele>1979</ele>
        <time>2019-08-20T19:34:09Z</time>
      </trkpt>
      <trkpt lat="44.24343" lon="7.04485">
        <ele>1971</ele>
        <time>2019-08-20T19:34:49Z</time>
      </trkpt>
      <trkpt lat="44.24368" lon="7.04502">
        <ele>1966</ele>
        <time>2019-08-20T19:35:26Z</time>
      </trkpt>
      <trkpt lat="44.24395" lon="7.04509">
        <ele>1964</ele>
        <time>2019-08-20T19:36:03Z</time>
      </trkpt>
      <trkpt lat="44.24405" lon="7.04514">
        <ele>1963</ele>
        <time>2019-08-20T19:36:17Z</time>
      </trkpt>
      <trkpt lat="44.2443" lon="7.04535">
        <ele>1958</ele>
        <time>2019-08-20T19:36:56Z</time>
      </trkpt>
      <trkpt lat="44.24451" lon="7.04537">
        <ele>1957</ele>
        <time>2019-08-20T19:37:24Z</time>
      </trkpt>
      <trkpt lat="44.24462" lon="7.04547">
        <ele>1954</ele>
        <time>2019-08-20T19:37:41Z</time>
      </trkpt>
      <trkpt lat="44.24486" lon="7.04558">
        <ele>1949</ele>
        <time>2019-08-20T19:38:15Z</time>
      </trkpt>
      <trkpt lat="44.24486" lon="7.04564">
        <ele>1948</ele>
        <time>2019-08-20T19:38:21Z</time>
      </trkpt>
      <trkpt lat="44.24484" lon="7.04569">
        <ele>1947</ele>
        <time>2019-08-20T19:38:26Z</time>
      </trkpt>
      <trkpt lat="44.24477" lon="7.04571">
        <ele>1947</ele>
        <time>2019-08-20T19:38:36Z</time>
      </trkpt>
      <trkpt lat="44.24474" lon="7.04578">
        <ele>1945</ele>
        <time>2019-08-20T19:38:44Z</time>
      </trkpt>
      <trkpt lat="44.24489" lon="7.04594">
        <ele>1941</ele>
        <time>2019-08-20T19:39:09Z</time>
      </trkpt>
      <trkpt lat="44.24493" lon="7.04613">
        <ele>1939</ele>
        <time>2019-08-20T19:39:28Z</time>
      </trkpt>
      <trkpt lat="44.24514" lon="7.04631">
        <ele>1936</ele>
        <time>2019-08-20T19:40:01Z</time>
      </trkpt>
      <trkpt lat="44.24516" lon="7.0465">
        <ele>1933</ele>
        <time>2019-08-20T19:40:19Z</time>
      </trkpt>
      <trkpt lat="44.24529" lon="7.04664">
        <ele>1931</ele>
        <time>2019-08-20T19:40:41Z</time>
      </trkpt>
      <trkpt lat="44.24539" lon="7.04679">
        <ele>1930</ele>
        <time>2019-08-20T19:41:00Z</time>
      </trkpt>
      <trkpt lat="44.24556" lon="7.0469">
        <ele>1929</ele>
        <time>2019-08-20T19:41:25Z</time>
      </trkpt>
      <trkpt lat="44.24581" lon="7.047">
        <ele>1926</ele>
        <time>2019-08-20T19:42:00Z</time>
      </trkpt>
      <trkpt lat="44.24602" lon="7.04695">
        <ele>1925</ele>
        <time>2019-08-20T19:42:29Z</time>
      </trkpt>
      <trkpt lat="44.24724" lon="7.04703">
        <ele>1924</ele>
        <time>2019-08-20T19:45:12Z</time>
      </trkpt>
      <trkpt lat="44.24788" lon="7.04739">
        <ele>1924</ele>
        <time>2019-08-20T19:46:44Z</time>
      </trkpt>
      <trkpt lat="44.24835" lon="7.04757">
        <ele>1929</ele>
        <time>2019-08-20T19:47:49Z</time>
      </trkpt>
      <trkpt lat="44.24845" lon="7.04753">
        <ele>1931</ele>
        <time>2019-08-20T19:48:03Z</time>
      </trkpt>
      <trkpt lat="44.2485" lon="7.04738">
        <ele>1934</ele>
        <time>2019-08-20T19:48:18Z</time>
      </trkpt>
      <trkpt lat="44.24854" lon="7.04729">
        <ele>1937</ele>
        <time>2019-08-20T19:48:28Z</time>
      </trkpt>
      <trkpt lat="44.2486" lon="7.04724">
        <ele>1939</ele>
        <time>2019-08-20T19:48:38Z</time>
      </trkpt>
      <trkpt lat="44.24894" lon="7.04725">
        <ele>1941</ele>
        <time>2019-08-20T19:49:23Z</time>
      </trkpt>
      <trkpt lat="44.24929" lon="7.04714">
        <ele>1942</ele>
        <time>2019-08-20T19:50:11Z</time>
      </trkpt>
      <trkpt lat="44.24995" lon="7.04697">
        <ele>1931</ele>
        <time>2019-08-20T19:51:41Z</time>
      </trkpt>
      <trkpt lat="44.2503" lon="7.0467">
        <ele>1918</ele>
        <time>2019-08-20T19:52:34Z</time>
      </trkpt>
      <trkpt lat="44.25056" lon="7.04659">
        <ele>1909</ele>
        <time>2019-08-20T19:53:10Z</time>
      </trkpt>
      <trkpt lat="44.25092" lon="7.04651">
        <ele>1899</ele>
        <time>2019-08-20T19:53:59Z</time>
      </trkpt>
      <trkpt lat="44.25101" lon="7.04643">
        <ele>1897</ele>
        <time>2019-08-20T19:54:13Z</time>
      </trkpt>
      <trkpt lat="44.25109" lon="7.04609">
        <ele>1899</ele>
        <time>2019-08-20T19:54:47Z</time>
      </trkpt>
      <trkpt lat="44.25114" lon="7.04601">
        <ele>1899</ele>
        <time>2019-08-20T19:54:57Z</time>
      </trkpt>
      <trkpt lat="44.25133" lon="7.04587">
        <ele>1897</ele>
        <time>2019-08-20T19:55:26Z</time>
      </trkpt>
      <trkpt lat="44.25156" lon="7.04574">
        <ele>1897</ele>
        <time>2019-08-20T19:55:59Z</time>
      </trkpt>
      <trkpt lat="44.25171" lon="7.04586">
        <ele>1891</ele>
        <time>2019-08-20T19:56:22Z</time>
      </trkpt>
      <trkpt lat="44.2521" lon="7.04596">
        <ele>1891</ele>
        <time>2019-08-20T19:57:15Z</time>
      </trkpt>
      <trkpt lat="44.25223" lon="7.04608">
        <ele>1888</ele>
        <time>2019-08-20T19:57:36Z</time>
      </trkpt>
      <trkpt lat="44.25238" lon="7.0463">
        <ele>1881</ele>
        <time>2019-08-20T19:58:05Z</time>
      </trkpt>
      <trkpt lat="44.2527" lon="7.04659">
        <ele>1869</ele>
        <time>2019-08-20T19:58:56Z</time>
      </trkpt>
      <trkpt lat="44.25284" lon="7.04682">
        <ele>1861</ele>
        <time>2019-08-20T19:59:25Z</time>
      </trkpt>
      <trkpt lat="44.25294" lon="7.04695">
        <ele>1856</ele>
        <time>2019-08-20T19:59:43Z</time>
      </trkpt>
      <trkpt lat="44.25305" lon="7.04697">
        <ele>1854</ele>
        <time>2019-08-20T19:59:58Z</time>
      </trkpt>
      <trkpt lat="44.25325" lon="7.0469">
        <ele>1855</ele>
        <time>2019-08-20T20:00:25Z</time>
      </trkpt>
      <trkpt lat="44.25353" lon="7.04669">
        <ele>1860</ele>
        <time>2019-08-20T20:01:08Z</time>
      </trkpt>
      <trkpt lat="44.25368" lon="7.04664">
        <ele>1862</ele>
        <time>2019-08-20T20:01:28Z</time>
      </trkpt>
      <trkpt lat="44.2538" lon="7.04669">
        <ele>1858</ele>
        <time>2019-08-20T20:01:45Z</time>
      </trkpt>
      <trkpt lat="44.25389" lon="7.04675">
        <ele>1855</ele>
        <time>2019-08-20T20:01:58Z</time>
      </trkpt>
      <trkpt lat="44.25407" lon="7.04679">
        <ele>1852</ele>
        <time>2019-08-20T20:02:23Z</time>
      </trkpt>
      <trkpt lat="44.25422" lon="7.04672">
        <ele>1853</ele>
        <time>2019-08-20T20:02:44Z</time>
      </trkpt>
      <trkpt lat="44.25426" lon="7.04677">
        <ele>1851</ele>
        <time>2019-08-20T20:02:51Z</time>
      </trkpt>
      <trkpt lat="44.25428" lon="7.04682">
        <ele>1848</ele>
        <time>2019-08-20T20:02:56Z</time>
      </trkpt>
      <trkpt lat="44.25427" lon="7.04688">
        <ele>1846</ele>
        <time>2019-08-20T20:03:02Z</time>
      </trkpt>
      <trkpt lat="44.25423" lon="7.04691">
        <ele>1845</ele>
        <time>2019-08-20T20:03:08Z</time>
      </trkpt>
      <trkpt lat="44.25416" lon="7.04694">
        <ele>1845</ele>
        <time>2019-08-20T20:03:18Z</time>
      </trkpt>
      <trkpt lat="44.25401" lon="7.04696">
        <ele>1845</ele>
        <time>2019-08-20T20:03:38Z</time>
      </trkpt>
      <trkpt lat="44.25414" lon="7.04713">
        <ele>1837</ele>
        <time>2019-08-20T20:04:02Z</time>
      </trkpt>
      <trkpt lat="44.25439" lon="7.04735">
        <ele>1823</ele>
        <time>2019-08-20T20:04:41Z</time>
      </trkpt>
      <trkpt lat="44.25457" lon="7.04748">
        <ele>1814</ele>
        <time>2019-08-20T20:05:09Z</time>
      </trkpt>
      <trkpt lat="44.25482" lon="7.04755">
        <ele>1806</ele>
        <time>2019-08-20T20:05:43Z</time>
      </trkpt>
      <trkpt lat="44.25489" lon="7.04763">
        <ele>1802</ele>
        <time>2019-08-20T20:05:55Z</time>
      </trkpt>
      <trkpt lat="44.25511" lon="7.04747">
        <ele>1802</ele>
        <time>2019-08-20T20:06:28Z</time>
      </trkpt>
      <trkpt lat="44.25517" lon="7.0475">
        <ele>1798</ele>
        <time>2019-08-20T20:06:36Z</time>
      </trkpt>
      <trkpt lat="44.25518" lon="7.04757">
        <ele>1796</ele>
        <time>2019-08-20T20:06:43Z</time>
      </trkpt>
      <trkpt lat="44.255" lon="7.04772">
        <ele>1797</ele>
        <time>2019-08-20T20:07:11Z</time>
      </trkpt>
      <trkpt lat="44.25488" lon="7.04791">
        <ele>1793</ele>
        <time>2019-08-20T20:07:35Z</time>
      </trkpt>
      <trkpt lat="44.25515" lon="7.04795">
        <ele>1784</ele>
        <time>2019-08-20T20:08:11Z</time>
      </trkpt>
      <trkpt lat="44.25519" lon="7.04809">
        <ele>1777</ele>
        <time>2019-08-20T20:08:26Z</time>
      </trkpt>
      <trkpt lat="44.25531" lon="7.04815">
        <ele>1771</ele>
        <time>2019-08-20T20:08:43Z</time>
      </trkpt>
      <trkpt lat="44.25539" lon="7.04813">
        <ele>1768</ele>
        <time>2019-08-20T20:08:54Z</time>
      </trkpt>
      <trkpt lat="44.25553" lon="7.04813">
        <ele>1763</ele>
        <time>2019-08-20T20:09:12Z</time>
      </trkpt>
      <trkpt lat="44.25568" lon="7.04806">
        <ele>1760</ele>
        <time>2019-08-20T20:09:34Z</time>
      </trkpt>
      <trkpt lat="44.25577" lon="7.04809">
        <ele>1756</ele>
        <time>2019-08-20T20:09:46Z</time>
      </trkpt>
      <trkpt lat="44.25602" lon="7.0478">
        <ele>1756</ele>
        <time>2019-08-20T20:10:29Z</time>
      </trkpt>
      <trkpt lat="44.25606" lon="7.04782">
        <ele>1753</ele>
        <time>2019-08-20T20:10:35Z</time>
      </trkpt>
      <trkpt lat="44.25606" lon="7.0479">
        <ele>1750</ele>
        <time>2019-08-20T20:10:43Z</time>
      </trkpt>
      <trkpt lat="44.25587" lon="7.04819">
        <ele>1748</ele>
        <time>2019-08-20T20:11:20Z</time>
      </trkpt>
      <trkpt lat="44.25577" lon="7.0483">
        <ele>1748</ele>
        <time>2019-08-20T20:11:37Z</time>
      </trkpt>
      <trkpt lat="44.2557" lon="7.04848">
        <ele>1745</ele>
        <time>2019-08-20T20:11:57Z</time>
      </trkpt>
      <trkpt lat="44.25562" lon="7.04907">
        <ele>1733</ele>
        <time>2019-08-20T20:12:54Z</time>
      </trkpt>
      <trkpt lat="44.25553" lon="7.04957">
        <ele>1730</ele>
        <time>2019-08-20T20:13:43Z</time>
      </trkpt>
      <trkpt lat="44.2556" lon="7.04958">
        <ele>1726</ele>
        <time>2019-08-20T20:13:53Z</time>
      </trkpt>
      <trkpt lat="44.25591" lon="7.04891">
        <ele>1724</ele>
        <time>2019-08-20T20:15:09Z</time>
      </trkpt>
      <trkpt lat="44.25617" lon="7.04858">
        <ele>1721</ele>
        <time>2019-08-20T20:15:56Z</time>
      </trkpt>
      <trkpt lat="44.25651" lon="7.04842">
        <ele>1708</ele>
        <time>2019-08-20T20:16:44Z</time>
      </trkpt>
      <trkpt lat="44.25675" lon="7.04827">
        <ele>1702</ele>
        <time>2019-08-20T20:17:19Z</time>
      </trkpt>
      <trkpt lat="44.25698" lon="7.04809">
        <ele>1697</ele>
        <time>2019-08-20T20:17:54Z</time>
      </trkpt>
      <trkpt lat="44.25761" lon="7.04716">
        <ele>1687</ele>
        <time>2019-08-20T20:19:56Z</time>
      </trkpt>
      <trkpt lat="44.25791" lon="7.04638">
        <ele>1674</ele>
        <time>2019-08-20T20:21:21Z</time>
      </trkpt>
      <trkpt lat="44.25806" lon="7.04608">
        <ele>1665</ele>
        <time>2019-08-20T20:21:56Z</time>
      </trkpt>
      <trkpt lat="44.25828" lon="7.0457">
        <ele>1652</ele>
        <time>2019-08-20T20:22:43Z</time>
      </trkpt>
      <trkpt lat="44.25847" lon="7.04523">
        <ele>1648</ele>
        <time>2019-08-20T20:23:34Z</time>
      </trkpt>
      <trkpt lat="44.25866" lon="7.04499">
        <ele>1644</ele>
        <time>2019-08-20T20:24:08Z</time>
      </trkpt>
      <trkpt lat="44.25856" lon="7.04562">
        <ele>1642</ele>
        <time>2019-08-20T20:25:10Z</time>
      </trkpt>
      <trkpt lat="44.25855" lon="7.04601">
        <ele>1639</ele>
        <time>2019-08-20T20:25:47Z</time>
      </trkpt>
      <trkpt lat="44.25856" lon="7.04653">
        <ele>1636</ele>
        <time>2019-08-20T20:26:37Z</time>
      </trkpt>
      <trkpt lat="44.25859" lon="7.04726">
        <ele>1630</ele>
        <time>2019-08-20T20:27:47Z</time>
      </trkpt>
      <trkpt lat="44.25854" lon="7.04747">
        <ele>1631</ele>
        <time>2019-08-20T20:28:08Z</time>
      </trkpt>
      <trkpt lat="44.25847" lon="7.04774">
        <ele>1630</ele>
        <time>2019-08-20T20:28:36Z</time>
      </trkpt>
      <trkpt lat="44.25835" lon="7.04799">
        <ele>1630</ele>
        <time>2019-08-20T20:29:04Z</time>
      </trkpt>
      <trkpt lat="44.25823" lon="7.04837">
        <ele>1629</ele>
        <time>2019-08-20T20:29:44Z</time>
      </trkpt>
      <trkpt lat="44.25813" lon="7.04851">
        <ele>1630</ele>
        <time>2019-08-20T20:30:03Z</time>
      </trkpt>
      <trkpt lat="44.25779" lon="7.04913">
        <ele>1629</ele>
        <time>2019-08-20T20:31:18Z</time>
      </trkpt>
      <trkpt lat="44.25758" lon="7.04966">
        <ele>1629</ele>
        <time>2019-08-20T20:32:15Z</time>
      </trkpt>
      <trkpt lat="44.25758" lon="7.0499">
        <ele>1626</ele>
        <time>2019-08-20T20:32:38Z</time>
      </trkpt>
      <trkpt lat="44.2576" lon="7.05008">
        <ele>1622</ele>
        <time>2019-08-20T20:32:56Z</time>
      </trkpt>
      <trkpt lat="44.25758" lon="7.05022">
        <ele>1621</ele>
        <time>2019-08-20T20:33:09Z</time>
      </trkpt>
      <trkpt lat="44.25745" lon="7.0504">
        <ele>1625</ele>
        <time>2019-08-20T20:33:34Z</time>
      </trkpt>
      <trkpt lat="44.2574" lon="7.05063">
        <ele>1624</ele>
        <time>2019-08-20T20:33:57Z</time>
      </trkpt>
      <trkpt lat="44.25737" lon="7.05096">
        <ele>1623</ele>
        <time>2019-08-20T20:34:29Z</time>
      </trkpt>
      <trkpt lat="44.25723" lon="7.05113">
        <ele>1628</ele>
        <time>2019-08-20T20:34:53Z</time>
      </trkpt>
      <trkpt lat="44.25719" lon="7.05126">
        <ele>1629</ele>
        <time>2019-08-20T20:35:07Z</time>
      </trkpt>
      <trkpt lat="44.25723" lon="7.05135">
        <ele>1627</ele>
        <time>2019-08-20T20:35:17Z</time>
      </trkpt>
      <trkpt lat="44.25731" lon="7.05147">
        <ele>1623</ele>
        <time>2019-08-20T20:35:33Z</time>
      </trkpt>
      <trkpt lat="44.25741" lon="7.05154">
        <ele>1619</ele>
        <time>2019-08-20T20:35:48Z</time>
      </trkpt>
      <trkpt lat="44.25742" lon="7.05192">
        <ele>1622</ele>
        <time>2019-08-20T20:36:24Z</time>
      </trkpt>
      <trkpt lat="44.25775" lon="7.05229">
        <ele>1617</ele>
        <time>2019-08-20T20:37:20Z</time>
      </trkpt>
      <trkpt lat="44.25793" lon="7.05224">
        <ele>1611</ele>
        <time>2019-08-20T20:37:45Z</time>
      </trkpt>
      <trkpt lat="44.25831" lon="7.05235">
        <ele>1605</ele>
        <time>2019-08-20T20:38:37Z</time>
      </trkpt>
      <trkpt lat="44.25854" lon="7.05229">
        <ele>1597</ele>
        <time>2019-08-20T20:39:08Z</time>
      </trkpt>
      <trkpt lat="44.25886" lon="7.05232">
        <ele>1591</ele>
        <time>2019-08-20T20:39:51Z</time>
      </trkpt>
      <trkpt lat="44.25906" lon="7.05254">
        <ele>1594</ele>
        <time>2019-08-20T20:40:25Z</time>
      </trkpt>
      <trkpt lat="44.25939" lon="7.05268">
        <ele>1587</ele>
        <time>2019-08-20T20:41:11Z</time>
      </trkpt>
      <trkpt lat="44.25955" lon="7.0528">
        <ele>1585</ele>
        <time>2019-08-20T20:41:35Z</time>
      </trkpt>
      <trkpt lat="44.25974" lon="7.05303">
        <ele>1584</ele>
        <time>2019-08-20T20:42:09Z</time>
      </trkpt>
      <trkpt lat="44.25975" lon="7.05293">
        <ele>1581</ele>
        <time>2019-08-20T20:42:18Z</time>
      </trkpt>
      <trkpt lat="44.25961" lon="7.05269">
        <ele>1579</ele>
        <time>2019-08-20T20:42:48Z</time>
      </trkpt>
      <trkpt lat="44.25931" lon="7.05235">
        <ele>1580</ele>
        <time>2019-08-20T20:43:39Z</time>
      </trkpt>
      <trkpt lat="44.25905" lon="7.05177">
        <ele>1569</ele>
        <time>2019-08-20T20:44:45Z</time>
      </trkpt>
      <trkpt lat="44.25905" lon="7.05169">
        <ele>1566</ele>
        <time>2019-08-20T20:44:52Z</time>
      </trkpt>
      <trkpt lat="44.2591" lon="7.05167">
        <ele>1564</ele>
        <time>2019-08-20T20:44:59Z</time>
      </trkpt>
      <trkpt lat="44.25983" lon="7.05239">
        <ele>1563</ele>
        <time>2019-08-20T20:46:59Z</time>
      </trkpt>
      <trkpt lat="44.26003" lon="7.05245">
        <ele>1558</ele>
        <time>2019-08-20T20:47:26Z</time>
      </trkpt>
      <trkpt lat="44.26045" lon="7.05275">
        <ele>1551</ele>
        <time>2019-08-20T20:48:29Z</time>
      </trkpt>
      <trkpt lat="44.26068" lon="7.05297">
        <ele>1547</ele>
        <time>2019-08-20T20:49:06Z</time>
      </trkpt>
      <trkpt lat="44.26076" lon="7.05311">
        <ele>1547</ele>
        <time>2019-08-20T20:49:23Z</time>
      </trkpt>
      <trkpt lat="44.26077" lon="7.05325">
        <ele>1549</ele>
        <time>2019-08-20T20:49:37Z</time>
      </trkpt>
      <trkpt lat="44.26087" lon="7.05336">
        <ele>1547</ele>
        <time>2019-08-20T20:49:54Z</time>
      </trkpt>
      <trkpt lat="44.26101" lon="7.05333">
        <ele>1541</ele>
        <time>2019-08-20T20:50:13Z</time>
      </trkpt>
      <trkpt lat="44.26122" lon="7.05332">
        <ele>1533</ele>
        <time>2019-08-20T20:50:41Z</time>
      </trkpt>
      <trkpt lat="44.26128" lon="7.05335">
        <ele>1531</ele>
        <time>2019-08-20T20:50:49Z</time>
      </trkpt>
      <trkpt lat="44.26141" lon="7.05363">
        <ele>1531</ele>
        <time>2019-08-20T20:51:21Z</time>
      </trkpt>
      <trkpt lat="44.26165" lon="7.05383">
        <ele>1523</ele>
        <time>2019-08-20T20:51:58Z</time>
      </trkpt>
      <trkpt lat="44.26186" lon="7.05389">
        <ele>1517</ele>
        <time>2019-08-20T20:52:27Z</time>
      </trkpt>
      <trkpt lat="44.26228" lon="7.05404">
        <ele>1507</ele>
        <time>2019-08-20T20:53:25Z</time>
      </trkpt>
      <trkpt lat="44.26246" lon="7.05404">
        <ele>1501</ele>
        <time>2019-08-20T20:53:49Z</time>
      </trkpt>
      <trkpt lat="44.26259" lon="7.05414">
        <ele>1499</ele>
        <time>2019-08-20T20:54:09Z</time>
      </trkpt>
      <trkpt lat="44.26273" lon="7.0543">
        <ele>1495</ele>
        <time>2019-08-20T20:54:33Z</time>
      </trkpt>
      <trkpt lat="44.26276" lon="7.05449">
        <ele>1496</ele>
        <time>2019-08-20T20:54:51Z</time>
      </trkpt>
      <trkpt lat="44.26294" lon="7.0549">
        <ele>1491</ele>
        <time>2019-08-20T20:55:37Z</time>
      </trkpt>
      <trkpt lat="44.26296" lon="7.0551">
        <ele>1491</ele>
        <time>2019-08-20T20:55:57Z</time>
      </trkpt>
      <trkpt lat="44.263" lon="7.05532">
        <ele>1491</ele>
        <time>2019-08-20T20:56:18Z</time>
      </trkpt>
      <trkpt lat="44.26305" lon="7.05543">
        <ele>1490</ele>
        <time>2019-08-20T20:56:31Z</time>
      </trkpt>
      <trkpt lat="44.26309" lon="7.05556">
        <ele>1489</ele>
        <time>2019-08-20T20:56:44Z</time>
      </trkpt>
      <trkpt lat="44.26314" lon="7.05563">
        <ele>1487</ele>
        <time>2019-08-20T20:56:54Z</time>
      </trkpt>
      <trkpt lat="44.26319" lon="7.05561">
        <ele>1485</ele>
        <time>2019-08-20T20:57:01Z</time>
      </trkpt>
      <trkpt lat="44.2632" lon="7.05551">
        <ele>1484</ele>
        <time>2019-08-20T20:57:10Z</time>
      </trkpt>
      <trkpt lat="44.26311" lon="7.05516">
        <ele>1485</ele>
        <time>2019-08-20T20:57:46Z</time>
      </trkpt>
      <trkpt lat="44.26314" lon="7.05499">
        <ele>1482</ele>
        <time>2019-08-20T20:58:03Z</time>
      </trkpt>
      <trkpt lat="44.26343" lon="7.05456">
        <ele>1472</ele>
        <time>2019-08-20T20:58:59Z</time>
      </trkpt>
      <trkpt lat="44.26351" lon="7.05484">
        <ele>1469</ele>
        <time>2019-08-20T20:59:28Z</time>
      </trkpt>
      <trkpt lat="44.2638" lon="7.05549">
        <ele>1461</ele>
        <time>2019-08-20T21:00:41Z</time>
      </trkpt>
      <trkpt lat="44.26381" lon="7.05574">
        <ele>1462</ele>
        <time>2019-08-20T21:01:05Z</time>
      </trkpt>
      <trkpt lat="44.26389" lon="7.05596">
        <ele>1463</ele>
        <time>2019-08-20T21:01:28Z</time>
      </trkpt>
      <trkpt lat="44.26435" lon="7.05663">
        <ele>1469</ele>
        <time>2019-08-20T21:02:57Z</time>
      </trkpt>
      <trkpt lat="44.26442" lon="7.0568">
        <ele>1473</ele>
        <time>2019-08-20T21:03:16Z</time>
      </trkpt>
      <trkpt lat="44.26452" lon="7.05687">
        <ele>1473</ele>
        <time>2019-08-20T21:03:31Z</time>
      </trkpt>
      <trkpt lat="44.2646" lon="7.05697">
        <ele>1475</ele>
        <time>2019-08-20T21:03:45Z</time>
      </trkpt>
      <trkpt lat="44.26469" lon="7.05733">
        <ele>1487</ele>
        <time>2019-08-20T21:04:22Z</time>
      </trkpt>
      <trkpt lat="44.26485" lon="7.05736">
        <ele>1482</ele>
        <time>2019-08-20T21:04:43Z</time>
      </trkpt>
      <trkpt lat="44.26549" lon="7.0584">
        <ele>1496</ele>
        <time>2019-08-20T21:06:54Z</time>
      </trkpt>
      <trkpt lat="44.26531" lon="7.05892">
        <ele>1524</ele>
        <time>2019-08-20T21:07:49Z</time>
      </trkpt>
      <trkpt lat="44.26553" lon="7.0591">
        <ele>1517</ele>
        <time>2019-08-20T21:08:23Z</time>
      </trkpt>
      <trkpt lat="44.26603" lon="7.06149">
        <ele>1557</ele>
        <time>2019-08-20T21:12:21Z</time>
      </trkpt>
      <trkpt lat="44.26526" lon="7.06381">
        <ele>1600</ele>
        <time>2019-08-20T21:16:26Z</time>
      </trkpt>
      <trkpt lat="44.26493" lon="7.06468">
        <ele>1606</ele>
        <time>2019-08-20T21:18:00Z</time>
      </trkpt>
      <trkpt lat="44.26455" lon="7.06504">
        <ele>1623</ele>
        <time>2019-08-20T21:19:01Z</time>
      </trkpt>
      <trkpt lat="44.26445" lon="7.06542">
        <ele>1623</ele>
        <time>2019-08-20T21:19:40Z</time>
      </trkpt>
      <trkpt lat="44.26416" lon="7.06543">
        <ele>1631</ele>
        <time>2019-08-20T21:20:18Z</time>
      </trkpt>
      <trkpt lat="44.26416" lon="7.06566">
        <ele>1624</ele>
        <time>2019-08-20T21:20:40Z</time>
      </trkpt>
      <trkpt lat="44.26143" lon="7.06994">
        <ele>1675</ele>
        <time>2019-08-20T21:29:48Z</time>
      </trkpt>
      <trkpt lat="44.26101" lon="7.07077">
        <ele>1679</ele>
        <time>2019-08-20T21:31:25Z</time>
      </trkpt>
      <trkpt lat="44.26034" lon="7.0713">
        <ele>1703</ele>
        <time>2019-08-20T21:33:08Z</time>
      </trkpt>
      <trkpt lat="44.26021" lon="7.07186">
        <ele>1703</ele>
        <time>2019-08-20T21:34:04Z</time>
      </trkpt>
      <trkpt lat="44.25993" lon="7.07286">
        <ele>1717</ele>
        <time>2019-08-20T21:35:47Z</time>
      </trkpt>
      <trkpt lat="44.25971" lon="7.07281">
        <ele>1724</ele>
        <time>2019-08-20T21:36:17Z</time>
      </trkpt>
      <trkpt lat="44.25973" lon="7.07313">
        <ele>1726</ele>
        <time>2019-08-20T21:36:47Z</time>
      </trkpt>
      <trkpt lat="44.25955" lon="7.07354">
        <ele>1743</ele>
        <time>2019-08-20T21:37:33Z</time>
      </trkpt>
      <trkpt lat="44.26055" lon="7.07482">
        <ele>1756</ele>
        <time>2019-08-20T21:40:34Z</time>
      </trkpt>
      <trkpt lat="44.26001" lon="7.07534">
        <ele>1777</ele>
        <time>2019-08-20T21:42:02Z</time>
      </trkpt>
      <trkpt lat="44.25957" lon="7.07581">
        <ele>1803</ele>
        <time>2019-08-20T21:43:16Z</time>
      </trkpt>
      <trkpt lat="44.25902" lon="7.07605">
        <ele>1825</ele>
        <time>2019-08-20T21:44:33Z</time>
      </trkpt>
      <trkpt lat="44.25888" lon="7.07653">
        <ele>1818</ele>
        <time>2019-08-20T21:45:22Z</time>
      </trkpt>
      <trkpt lat="44.25773" lon="7.07664">
        <ele>1856</ele>
        <time>2019-08-20T21:47:56Z</time>
      </trkpt>
      <trkpt lat="44.25688" lon="7.07654">
        <ele>1888</ele>
        <time>2019-08-20T21:49:50Z</time>
      </trkpt>
      <trkpt lat="44.25599" lon="7.07686">
        <ele>1902</ele>
        <time>2019-08-20T21:51:53Z</time>
      </trkpt>
      <trkpt lat="44.25531" lon="7.07723">
        <ele>1899</ele>
        <time>2019-08-20T21:53:30Z</time>
      </trkpt>
      <trkpt lat="44.25473" lon="7.07748">
        <ele>1896</ele>
        <time>2019-08-20T21:54:51Z</time>
      </trkpt>
      <trkpt lat="44.25415" lon="7.07783">
        <ele>1899</ele>
        <time>2019-08-20T21:56:15Z</time>
      </trkpt>
      <trkpt lat="44.25379" lon="7.07762">
        <ele>1906</ele>
        <time>2019-08-20T21:57:07Z</time>
      </trkpt>
      <trkpt lat="44.2534" lon="7.07768">
        <ele>1910</ele>
        <time>2019-08-20T21:58:00Z</time>
      </trkpt>
      <trkpt lat="44.25317" lon="7.07764">
        <ele>1914</ele>
        <time>2019-08-20T21:58:31Z</time>
      </trkpt>
      <trkpt lat="44.25299" lon="7.0779">
        <ele>1912</ele>
        <time>2019-08-20T21:59:05Z</time>
      </trkpt>
      <trkpt lat="44.25281" lon="7.07806">
        <ele>1911</ele>
        <time>2019-08-20T21:59:34Z</time>
      </trkpt>
      <trkpt lat="44.25221" lon="7.07834">
        <ele>1911</ele>
        <time>2019-08-20T22:00:58Z</time>
      </trkpt>
      <trkpt lat="44.25197" lon="7.07839">
        <ele>1915</ele>
        <time>2019-08-20T22:01:30Z</time>
      </trkpt>
      <trkpt lat="44.25128" lon="7.07787">
        <ele>1928</ele>
        <time>2019-08-20T22:03:15Z</time>
      </trkpt>
      <trkpt lat="44.25058" lon="7.07828">
        <ele>1931</ele>
        <time>2019-08-20T22:04:56Z</time>
      </trkpt>
      <trkpt lat="44.25025" lon="7.07839">
        <ele>1933</ele>
        <time>2019-08-20T22:05:42Z</time>
      </trkpt>
      <trkpt lat="44.24974" lon="7.07829">
        <ele>1935</ele>
        <time>2019-08-20T22:06:50Z</time>
      </trkpt>
      <trkpt lat="44.24907" lon="7.07855">
        <ele>1938</ele>
        <time>2019-08-20T22:08:23Z</time>
      </trkpt>
      <trkpt lat="44.24803" lon="7.07881">
        <ele>1947</ele>
        <time>2019-08-20T22:10:44Z</time>
      </trkpt>
      <trkpt lat="44.2478" lon="7.07878">
        <ele>1950</ele>
        <time>2019-08-20T22:11:15Z</time>
      </trkpt>
      <trkpt lat="44.24774" lon="7.07867">
        <ele>1951</ele>
        <time>2019-08-20T22:11:28Z</time>
      </trkpt>
      <trkpt lat="44.24753" lon="7.07875">
        <ele>1952</ele>
        <time>2019-08-20T22:11:57Z</time>
      </trkpt>
      <trkpt lat="44.24701" lon="7.07881">
        <ele>1955</ele>
        <time>2019-08-20T22:13:07Z</time>
      </trkpt>
      <trkpt lat="44.24676" lon="7.07875">
        <ele>1958</ele>
        <time>2019-08-20T22:13:41Z</time>
      </trkpt>
      <trkpt lat="44.24651" lon="7.07879">
        <ele>1960</ele>
        <time>2019-08-20T22:14:14Z</time>
      </trkpt>
      <trkpt lat="44.24642" lon="7.07875">
        <ele>1962</ele>
        <time>2019-08-20T22:14:27Z</time>
      </trkpt>
      <trkpt lat="44.24619" lon="7.07882">
        <ele>1964</ele>
        <time>2019-08-20T22:14:58Z</time>
      </trkpt>
      <trkpt lat="44.246" lon="7.07875">
        <ele>1967</ele>
        <time>2019-08-20T22:15:25Z</time>
      </trkpt>
      <trkpt lat="44.24578" lon="7.07883">
        <ele>1968</ele>
        <time>2019-08-20T22:15:55Z</time>
      </trkpt>
      <trkpt lat="44.24554" lon="7.07878">
        <ele>1971</ele>
        <time>2019-08-20T22:16:27Z</time>
      </trkpt>
      <trkpt lat="44.24527" lon="7.07888">
        <ele>1973</ele>
        <time>2019-08-20T22:17:05Z</time>
      </trkpt>
      <trkpt lat="44.24518" lon="7.07888">
        <ele>1974</ele>
        <time>2019-08-20T22:17:17Z</time>
      </trkpt>
      <trkpt lat="44.24498" lon="7.07877">
        <ele>1977</ele>
        <time>2019-08-20T22:17:45Z</time>
      </trkpt>
      <trkpt lat="44.24493" lon="7.07877">
        <ele>1977</ele>
        <time>2019-08-20T22:17:52Z</time>
      </trkpt>
      <trkpt lat="44.24486" lon="7.07886">
        <ele>1978</ele>
        <time>2019-08-20T22:18:05Z</time>
      </trkpt>
      <trkpt lat="44.24459" lon="7.07887">
        <ele>1981</ele>
        <time>2019-08-20T22:18:41Z</time>
      </trkpt>
      <trkpt lat="44.24455" lon="7.07873">
        <ele>1983</ele>
        <time>2019-08-20T22:18:55Z</time>
      </trkpt>
      <trkpt lat="44.24452" lon="7.07869">
        <ele>1983</ele>
        <time>2019-08-20T22:19:01Z</time>
      </trkpt>
      <trkpt lat="44.24448" lon="7.07869">
        <ele>1984</ele>
        <time>2019-08-20T22:19:06Z</time>
      </trkpt>
      <trkpt lat="44.24434" lon="7.07878">
        <ele>1985</ele>
        <time>2019-08-20T22:19:27Z</time>
      </trkpt>
      <trkpt lat="44.24417" lon="7.07873">
        <ele>1988</ele>
        <time>2019-08-20T22:19:50Z</time>
      </trkpt>
      <trkpt lat="44.24406" lon="7.07885">
        <ele>1989</ele>
        <time>2019-08-20T22:20:08Z</time>
      </trkpt>
      <trkpt lat="44.24393" lon="7.07893">
        <ele>1991</ele>
        <time>2019-08-20T22:20:27Z</time>
      </trkpt>
      <trkpt lat="44.24385" lon="7.07884">
        <ele>1993</ele>
        <time>2019-08-20T22:20:41Z</time>
      </trkpt>
      <trkpt lat="44.24384" lon="7.07872">
        <ele>1993</ele>
        <time>2019-08-20T22:20:53Z</time>
      </trkpt>
      <trkpt lat="44.24372" lon="7.07858">
        <ele>1995</ele>
        <time>2019-08-20T22:21:13Z</time>
      </trkpt>
      <trkpt lat="44.24369" lon="7.07868">
        <ele>1995</ele>
        <time>2019-08-20T22:21:24Z</time>
      </trkpt>
      <trkpt lat="44.24363" lon="7.07868">
        <ele>1996</ele>
        <time>2019-08-20T22:21:32Z</time>
      </trkpt>
      <trkpt lat="44.24346" lon="7.07858">
        <ele>1998</ele>
        <time>2019-08-20T22:21:56Z</time>
      </trkpt>
      <trkpt lat="44.24322" lon="7.07853">
        <ele>2002</ele>
        <time>2019-08-20T22:22:29Z</time>
      </trkpt>
      <trkpt lat="44.24293" lon="7.07869">
        <ele>2010</ele>
        <time>2019-08-20T22:23:10Z</time>
      </trkpt>
      <trkpt lat="44.24275" lon="7.0789">
        <ele>2017</ele>
        <time>2019-08-20T22:23:42Z</time>
      </trkpt>
      <trkpt lat="44.24274" lon="7.07906">
        <ele>2019</ele>
        <time>2019-08-20T22:23:57Z</time>
      </trkpt>
      <trkpt lat="44.24275" lon="7.07913">
        <ele>2020</ele>
        <time>2019-08-20T22:24:04Z</time>
      </trkpt>
      <trkpt lat="44.24281" lon="7.07922">
        <ele>2021</ele>
        <time>2019-08-20T22:24:16Z</time>
      </trkpt>
      <trkpt lat="44.24283" lon="7.07929">
        <ele>2023</ele>
        <time>2019-08-20T22:24:23Z</time>
      </trkpt>
      <trkpt lat="44.24278" lon="7.07934">
        <ele>2026</ele>
        <time>2019-08-20T22:24:31Z</time>
      </trkpt>
      <trkpt lat="44.24253" lon="7.07944">
        <ele>2036</ele>
        <time>2019-08-20T22:25:06Z</time>
      </trkpt>
      <trkpt lat="44.24231" lon="7.07959">
        <ele>2049</ele>
        <time>2019-08-20T22:25:38Z</time>
      </trkpt>
      <trkpt lat="44.2423" lon="7.07964">
        <ele>2052</ele>
        <time>2019-08-20T22:25:43Z</time>
      </trkpt>
      <trkpt lat="44.24269" lon="7.0802">
        <ele>2059</ele>
        <time>2019-08-20T22:26:58Z</time>
      </trkpt>
      <trkpt lat="44.24268" lon="7.0803">
        <ele>2062</ele>
        <time>2019-08-20T22:27:08Z</time>
      </trkpt>
      <trkpt lat="44.24244" lon="7.08048">
        <ele>2075</ele>
        <time>2019-08-20T22:27:44Z</time>
      </trkpt>
      <trkpt lat="44.24221" lon="7.08073">
        <ele>2089</ele>
        <time>2019-08-20T22:28:23Z</time>
      </trkpt>
      <trkpt lat="44.24217" lon="7.08101">
        <ele>2098</ele>
        <time>2019-08-20T22:28:50Z</time>
      </trkpt>
      <trkpt lat="44.24231" lon="7.0812">
        <ele>2100</ele>
        <time>2019-08-20T22:29:16Z</time>
      </trkpt>
      <trkpt lat="44.24252" lon="7.08143">
        <ele>2100</ele>
        <time>2019-08-20T22:29:52Z</time>
      </trkpt>
      <trkpt lat="44.2426" lon="7.08146">
        <ele>2101</ele>
        <time>2019-08-20T22:30:03Z</time>
      </trkpt>
      <trkpt lat="44.24262" lon="7.0815">
        <ele>2102</ele>
        <time>2019-08-20T22:30:08Z</time>
      </trkpt>
      <trkpt lat="44.24259" lon="7.08155">
        <ele>2103</ele>
        <time>2019-08-20T22:30:14Z</time>
      </trkpt>
      <trkpt lat="44.24267" lon="7.08162">
        <ele>2105</ele>
        <time>2019-08-20T22:30:27Z</time>
      </trkpt>
      <trkpt lat="44.24272" lon="7.08169">
        <ele>2108</ele>
        <time>2019-08-20T22:30:36Z</time>
      </trkpt>
      <trkpt lat="44.24271" lon="7.08174">
        <ele>2110</ele>
        <time>2019-08-20T22:30:41Z</time>
      </trkpt>
      <trkpt lat="44.24268" lon="7.08174">
        <ele>2110</ele>
        <time>2019-08-20T22:30:45Z</time>
      </trkpt>
      <trkpt lat="44.2425" lon="7.08196">
        <ele>2119</ele>
        <time>2019-08-20T22:31:17Z</time>
      </trkpt>
      <trkpt lat="44.24259" lon="7.08199">
        <ele>2121</ele>
        <time>2019-08-20T22:31:29Z</time>
      </trkpt>
      <trkpt lat="44.24257" lon="7.08207">
        <ele>2124</ele>
        <time>2019-08-20T22:31:37Z</time>
      </trkpt>
      <trkpt lat="44.24267" lon="7.08208">
        <ele>2125</ele>
        <time>2019-08-20T22:31:51Z</time>
      </trkpt>
      <trkpt lat="44.24268" lon="7.08215">
        <ele>2128</ele>
        <time>2019-08-20T22:31:58Z</time>
      </trkpt>
      <trkpt lat="44.24273" lon="7.08215">
        <ele>2128</ele>
        <time>2019-08-20T22:32:04Z</time>
      </trkpt>
      <trkpt lat="44.24273" lon="7.08219">
        <ele>2130</ele>
        <time>2019-08-20T22:32:08Z</time>
      </trkpt>
      <trkpt lat="44.24277" lon="7.08221">
        <ele>2131</ele>
        <time>2019-08-20T22:32:14Z</time>
      </trkpt>
      <trkpt lat="44.24271" lon="7.0823">
        <ele>2135</ele>
        <time>2019-08-20T22:32:25Z</time>
      </trkpt>
      <trkpt lat="44.24278" lon="7.08234">
        <ele>2137</ele>
        <time>2019-08-20T22:32:36Z</time>
      </trkpt>
      <trkpt lat="44.24261" lon="7.08245">
        <ele>2140</ele>
        <time>2019-08-20T22:33:01Z</time>
      </trkpt>
      <trkpt lat="44.24256" lon="7.08255">
        <ele>2142</ele>
        <time>2019-08-20T22:33:12Z</time>
      </trkpt>
      <trkpt lat="44.24235" lon="7.0828">
        <ele>2148</ele>
        <time>2019-08-20T22:33:49Z</time>
      </trkpt>
      <trkpt lat="44.24197" lon="7.08335">
        <ele>2159</ele>
        <time>2019-08-20T22:35:02Z</time>
      </trkpt>
      <trkpt lat="44.24161" lon="7.08381">
        <ele>2160</ele>
        <time>2019-08-20T22:36:07Z</time>
      </trkpt>
      <trkpt lat="44.24148" lon="7.08421">
        <ele>2160</ele>
        <time>2019-08-20T22:36:49Z</time>
      </trkpt>
      <trkpt lat="44.24125" lon="7.08455">
        <ele>2160</ele>
        <time>2019-08-20T22:37:34Z</time>
      </trkpt>
      <trkpt lat="44.24113" lon="7.08468">
        <ele>2161</ele>
        <time>2019-08-20T22:37:54Z</time>
      </trkpt>
      <trkpt lat="44.24075" lon="7.08501">
        <ele>2164</ele>
        <time>2019-08-20T22:38:54Z</time>
      </trkpt>
      <trkpt lat="44.24052" lon="7.08509">
        <ele>2167</ele>
        <time>2019-08-20T22:39:26Z</time>
      </trkpt>
      <trkpt lat="44.24041" lon="7.08529">
        <ele>2165</ele>
        <time>2019-08-20T22:39:50Z</time>
      </trkpt>
      <trkpt lat="44.24013" lon="7.08566">
        <ele>2162</ele>
        <time>2019-08-20T22:40:41Z</time>
      </trkpt>
      <trkpt lat="44.23958" lon="7.08607">
        <ele>2165</ele>
        <time>2019-08-20T22:42:04Z</time>
      </trkpt>
      <trkpt lat="44.23952" lon="7.08616">
        <ele>2165</ele>
        <time>2019-08-20T22:42:16Z</time>
      </trkpt>
      <trkpt lat="44.23948" lon="7.08656">
        <ele>2158</ele>
        <time>2019-08-20T22:42:55Z</time>
      </trkpt>
      <trkpt lat="44.23944" lon="7.08671">
        <ele>2157</ele>
        <time>2019-08-20T22:43:10Z</time>
      </trkpt>
      <trkpt lat="44.23953" lon="7.08694">
        <ele>2157</ele>
        <time>2019-08-20T22:43:35Z</time>
      </trkpt>
      <trkpt lat="44.23987" lon="7.087">
        <ele>2154</ele>
        <time>2019-08-20T22:44:21Z</time>
      </trkpt>
      <trkpt lat="44.24016" lon="7.08708">
        <ele>2151</ele>
        <time>2019-08-20T22:45:00Z</time>
      </trkpt>
      <trkpt lat="44.24039" lon="7.08727">
        <ele>2149</ele>
        <time>2019-08-20T22:45:36Z</time>
      </trkpt>
      <trkpt lat="44.2406" lon="7.08735">
        <ele>2147</ele>
        <time>2019-08-20T22:46:05Z</time>
      </trkpt>
      <trkpt lat="44.24069" lon="7.08744">
        <ele>2147</ele>
        <time>2019-08-20T22:46:20Z</time>
      </trkpt>
      <trkpt lat="44.2407" lon="7.08752">
        <ele>2147</ele>
        <time>2019-08-20T22:46:27Z</time>
      </trkpt>
      <trkpt lat="44.2407" lon="7.08774">
        <ele>2152</ele>
        <time>2019-08-20T22:46:49Z</time>
      </trkpt>
      <trkpt lat="44.24067" lon="7.08796">
        <ele>2157</ele>
        <time>2019-08-20T22:47:10Z</time>
      </trkpt>
      <trkpt lat="44.24036" lon="7.08813">
        <ele>2162</ele>
        <time>2019-08-20T22:47:54Z</time>
      </trkpt>
      <trkpt lat="44.24014" lon="7.08834">
        <ele>2167</ele>
        <time>2019-08-20T22:48:30Z</time>
      </trkpt>
      <trkpt lat="44.23974" lon="7.08838">
        <ele>2171</ele>
        <time>2019-08-20T22:49:23Z</time>
      </trkpt>
      <trkpt lat="44.23959" lon="7.08862">
        <ele>2181</ele>
        <time>2019-08-20T22:49:54Z</time>
      </trkpt>
      <trkpt lat="44.2394" lon="7.08877">
        <ele>2188</ele>
        <time>2019-08-20T22:50:23Z</time>
      </trkpt>
      <trkpt lat="44.23891" lon="7.08906">
        <ele>2204</ele>
        <time>2019-08-20T22:51:34Z</time>
      </trkpt>
      <trkpt lat="44.23882" lon="7.08919">
        <ele>2211</ele>
        <time>2019-08-20T22:51:51Z</time>
      </trkpt>
      <trkpt lat="44.23852" lon="7.08922">
        <ele>2217</ele>
        <time>2019-08-20T22:52:31Z</time>
      </trkpt>
      <trkpt lat="44.23838" lon="7.08935">
        <ele>2227</ele>
        <time>2019-08-20T22:52:54Z</time>
      </trkpt>
      <trkpt lat="44.23811" lon="7.08952">
        <ele>2246</ele>
        <time>2019-08-20T22:53:33Z</time>
      </trkpt>
      <trkpt lat="44.23789" lon="7.08962">
        <ele>2260</ele>
        <time>2019-08-20T22:54:04Z</time>
      </trkpt>
      <trkpt lat="44.23665" lon="7.08942">
        <ele>2290</ele>
        <time>2019-08-20T22:56:51Z</time>
      </trkpt>
      <trkpt lat="44.23653" lon="7.08965">
        <ele>2306</ele>
        <time>2019-08-20T22:57:18Z</time>
      </trkpt>
      <trkpt lat="44.23587" lon="7.09008">
        <ele>2332</ele>
        <time>2019-08-20T22:58:55Z</time>
      </trkpt>
      <trkpt lat="44.23529" lon="7.09064">
        <ele>2363</ele>
        <time>2019-08-20T23:00:29Z</time>
      </trkpt>
      <trkpt lat="44.23533" lon="7.09069">
        <ele>2366</ele>
        <time>2019-08-20T23:00:37Z</time>
      </trkpt>
      <trkpt lat="44.23527" lon="7.09074">
        <ele>2368</ele>
        <time>2019-08-20T23:00:46Z</time>
      </trkpt>
      <trkpt lat="44.23502" lon="7.09092">
        <ele>2374</ele>
        <time>2019-08-20T23:01:23Z</time>
      </trkpt>
      <trkpt lat="44.23478" lon="7.09103">
        <ele>2381</ele>
        <time>2019-08-20T23:01:57Z</time>
      </trkpt>
      <trkpt lat="44.23461" lon="7.09106">
        <ele>2383</ele>
        <time>2019-08-20T23:02:20Z</time>
      </trkpt>
      <trkpt lat="44.23466" lon="7.09117">
        <ele>2385</ele>
        <time>2019-08-20T23:02:32Z</time>
      </trkpt>
      <trkpt lat="44.23456" lon="7.09115">
        <ele>2385</ele>
        <time>2019-08-20T23:02:46Z</time>
      </trkpt>
      <trkpt lat="44.23453" lon="7.09125">
        <ele>2386</ele>
        <time>2019-08-20T23:02:56Z</time>
      </trkpt>
      <trkpt lat="44.23438" lon="7.09137">
        <ele>2386</ele>
        <time>2019-08-20T23:03:19Z</time>
      </trkpt>
      <trkpt lat="44.23441" lon="7.09145">
        <ele>2387</ele>
        <time>2019-08-20T23:03:28Z</time>
      </trkpt>
      <trkpt lat="44.23438" lon="7.09151">
        <ele>2387</ele>
        <time>2019-08-20T23:03:35Z</time>
      </trkpt>
      <trkpt lat="44.23426" lon="7.09155">
        <ele>2385</ele>
        <time>2019-08-20T23:03:51Z</time>
      </trkpt>
      <trkpt lat="44.2342" lon="7.09163">
        <ele>2383</ele>
        <time>2019-08-20T23:04:03Z</time>
      </trkpt>
      <trkpt lat="44.23416" lon="7.09173">
        <ele>2380</ele>
        <time>2019-08-20T23:04:13Z</time>
      </trkpt>
      <trkpt lat="44.2341" lon="7.09177">
        <ele>2379</ele>
        <time>2019-08-20T23:04:22Z</time>
      </trkpt>
      <trkpt lat="44.23401" lon="7.09193">
        <ele>2374</ele>
        <time>2019-08-20T23:04:42Z</time>
      </trkpt>
      <trkpt lat="44.23401" lon="7.09202">
        <ele>2371</ele>
        <time>2019-08-20T23:04:50Z</time>
      </trkpt>
      <trkpt lat="44.23396" lon="7.09218">
        <ele>2367</ele>
        <time>2019-08-20T23:05:07Z</time>
      </trkpt>
      <trkpt lat="44.23393" lon="7.0924">
        <ele>2361</ele>
        <time>2019-08-20T23:05:29Z</time>
      </trkpt>
      <trkpt lat="44.23382" lon="7.09282">
        <ele>2348</ele>
        <time>2019-08-20T23:06:11Z</time>
      </trkpt>
      <trkpt lat="44.23376" lon="7.09284">
        <ele>2346</ele>
        <time>2019-08-20T23:06:20Z</time>
      </trkpt>
      <trkpt lat="44.23376" lon="7.09292">
        <ele>2344</ele>
        <time>2019-08-20T23:06:27Z</time>
      </trkpt>
      <trkpt lat="44.23364" lon="7.09317">
        <ele>2334</ele>
        <time>2019-08-20T23:06:56Z</time>
      </trkpt>
      <trkpt lat="44.23358" lon="7.09339">
        <ele>2327</ele>
        <time>2019-08-20T23:07:18Z</time>
      </trkpt>
      <trkpt lat="44.23355" lon="7.09335">
        <ele>2327</ele>
        <time>2019-08-20T23:07:24Z</time>
      </trkpt>
      <trkpt lat="44.23351" lon="7.09346">
        <ele>2324</ele>
        <time>2019-08-20T23:07:36Z</time>
      </trkpt>
      <trkpt lat="44.2335" lon="7.09355">
        <ele>2323</ele>
        <time>2019-08-20T23:07:44Z</time>
      </trkpt>
      <trkpt lat="44.2334" lon="7.09371">
        <ele>2317</ele>
        <time>2019-08-20T23:08:05Z</time>
      </trkpt>
      <trkpt lat="44.23338" lon="7.09378">
        <ele>2315</ele>
        <time>2019-08-20T23:08:12Z</time>
      </trkpt>
      <trkpt lat="44.23333" lon="7.09382">
        <ele>2313</ele>
        <time>2019-08-20T23:08:20Z</time>
      </trkpt>
      <trkpt lat="44.23329" lon="7.09399">
        <ele>2309</ele>
        <time>2019-08-20T23:08:37Z</time>
      </trkpt>
      <trkpt lat="44.23325" lon="7.0941">
        <ele>2306</ele>
        <time>2019-08-20T23:08:49Z</time>
      </trkpt>
      <trkpt lat="44.23324" lon="7.09421">
        <ele>2304</ele>
        <time>2019-08-20T23:08:59Z</time>
      </trkpt>
      <trkpt lat="44.2332" lon="7.09429">
        <ele>2303</ele>
        <time>2019-08-20T23:09:09Z</time>
      </trkpt>
      <trkpt lat="44.23303" lon="7.09447">
        <ele>2298</ele>
        <time>2019-08-20T23:09:37Z</time>
      </trkpt>
      <trkpt lat="44.23301" lon="7.09453">
        <ele>2298</ele>
        <time>2019-08-20T23:09:43Z</time>
      </trkpt>
      <trkpt lat="44.23283" lon="7.09484">
        <ele>2294</ele>
        <time>2019-08-20T23:10:21Z</time>
      </trkpt>
      <trkpt lat="44.23266" lon="7.09506">
        <ele>2292</ele>
        <time>2019-08-20T23:10:52Z</time>
      </trkpt>
      <trkpt lat="44.2326" lon="7.09519">
        <ele>2291</ele>
        <time>2019-08-20T23:11:07Z</time>
      </trkpt>
      <trkpt lat="44.23238" lon="7.0954">
        <ele>2286</ele>
        <time>2019-08-20T23:11:43Z</time>
      </trkpt>
      <trkpt lat="44.23232" lon="7.09542">
        <ele>2285</ele>
        <time>2019-08-20T23:11:51Z</time>
      </trkpt>
      <trkpt lat="44.2323" lon="7.09545">
        <ele>2284</ele>
        <time>2019-08-20T23:11:55Z</time>
      </trkpt>
      <trkpt lat="44.23233" lon="7.0955">
        <ele>2285</ele>
        <time>2019-08-20T23:12:01Z</time>
      </trkpt>
      <trkpt lat="44.23225" lon="7.09557">
        <ele>2283</ele>
        <time>2019-08-20T23:12:14Z</time>
      </trkpt>
      <trkpt lat="44.23227" lon="7.09561">
        <ele>2283</ele>
        <time>2019-08-20T23:12:18Z</time>
      </trkpt>
      <trkpt lat="44.23223" lon="7.09564">
        <ele>2282</ele>
        <time>2019-08-20T23:12:24Z</time>
      </trkpt>
      <trkpt lat="44.23224" lon="7.09572">
        <ele>2282</ele>
        <time>2019-08-20T23:12:32Z</time>
      </trkpt>
      <trkpt lat="44.23219" lon="7.09576">
        <ele>2281</ele>
        <time>2019-08-20T23:12:40Z</time>
      </trkpt>
      <trkpt lat="44.23216" lon="7.09593">
        <ele>2279</ele>
        <time>2019-08-20T23:12:57Z</time>
      </trkpt>
      <trkpt lat="44.23209" lon="7.09617">
        <ele>2275</ele>
        <time>2019-08-20T23:13:21Z</time>
      </trkpt>
      <trkpt lat="44.23204" lon="7.09618">
        <ele>2273</ele>
        <time>2019-08-20T23:13:28Z</time>
      </trkpt>
      <trkpt lat="44.23195" lon="7.09631">
        <ele>2270</ele>
        <time>2019-08-20T23:13:45Z</time>
      </trkpt>
      <trkpt lat="44.23192" lon="7.09644">
        <ele>2268</ele>
        <time>2019-08-20T23:13:59Z</time>
      </trkpt>
      <trkpt lat="44.2316" lon="7.0968">
        <ele>2255</ele>
        <time>2019-08-20T23:14:53Z</time>
      </trkpt>
      <trkpt lat="44.23153" lon="7.09691">
        <ele>2251</ele>
        <time>2019-08-20T23:15:07Z</time>
      </trkpt>
      <trkpt lat="44.23147" lon="7.09706">
        <ele>2247</ele>
        <time>2019-08-20T23:15:24Z</time>
      </trkpt>
      <trkpt lat="44.23139" lon="7.09733">
        <ele>2241</ele>
        <time>2019-08-20T23:15:52Z</time>
      </trkpt>
      <trkpt lat="44.23134" lon="7.09736">
        <ele>2240</ele>
        <time>2019-08-20T23:15:59Z</time>
      </trkpt>
      <trkpt lat="44.23123" lon="7.09738">
        <ele>2237</ele>
        <time>2019-08-20T23:16:14Z</time>
      </trkpt>
      <trkpt lat="44.23112" lon="7.09744">
        <ele>2234</ele>
        <time>2019-08-20T23:16:30Z</time>
      </trkpt>
      <trkpt lat="44.23098" lon="7.09756">
        <ele>2229</ele>
        <time>2019-08-20T23:16:52Z</time>
      </trkpt>
      <trkpt lat="44.2309" lon="7.09766">
        <ele>2225</ele>
        <time>2019-08-20T23:17:06Z</time>
      </trkpt>
      <trkpt lat="44.23087" lon="7.0978">
        <ele>2222</ele>
        <time>2019-08-20T23:17:20Z</time>
      </trkpt>
      <trkpt lat="44.23054" lon="7.09807">
        <ele>2211</ele>
        <time>2019-08-20T23:18:11Z</time>
      </trkpt>
      <trkpt lat="44.2305" lon="7.09814">
        <ele>2209</ele>
        <time>2019-08-20T23:18:19Z</time>
      </trkpt>
      <trkpt lat="44.2305" lon="7.09824">
        <ele>2208</ele>
        <time>2019-08-20T23:18:29Z</time>
      </trkpt>
      <trkpt lat="44.23049" lon="7.0983">
        <ele>2207</ele>
        <time>2019-08-20T23:18:35Z</time>
      </trkpt>
      <trkpt lat="44.23045" lon="7.09839">
        <ele>2204</ele>
        <time>2019-08-20T23:18:45Z</time>
      </trkpt>
      <trkpt lat="44.23043" lon="7.0984">
        <ele>2204</ele>
        <time>2019-08-20T23:18:48Z</time>
      </trkpt>
      <trkpt lat="44.23038" lon="7.09856">
        <ele>2200</ele>
        <time>2019-08-20T23:19:05Z</time>
      </trkpt>
      <trkpt lat="44.23031" lon="7.09859">
        <ele>2199</ele>
        <time>2019-08-20T23:19:14Z</time>
      </trkpt>
      <trkpt lat="44.23029" lon="7.09866">
        <ele>2198</ele>
        <time>2019-08-20T23:19:22Z</time>
      </trkpt>
      <trkpt lat="44.23022" lon="7.09874">
        <ele>2197</ele>
        <time>2019-08-20T23:19:34Z</time>
      </trkpt>
      <trkpt lat="44.23021" lon="7.09886">
        <ele>2195</ele>
        <time>2019-08-20T23:19:45Z</time>
      </trkpt>
      <trkpt lat="44.23016" lon="7.09895">
        <ele>2194</ele>
        <time>2019-08-20T23:19:56Z</time>
      </trkpt>
      <trkpt lat="44.23015" lon="7.09909">
        <ele>2193</ele>
        <time>2019-08-20T23:20:10Z</time>
      </trkpt>
      <trkpt lat="44.23009" lon="7.09922">
        <ele>2192</ele>
        <time>2019-08-20T23:20:24Z</time>
      </trkpt>
      <trkpt lat="44.22965" lon="7.09937">
        <ele>2189</ele>
        <time>2019-08-20T23:21:25Z</time>
      </trkpt>
      <trkpt lat="44.22944" lon="7.0995">
        <ele>2186</ele>
        <time>2019-08-20T23:21:55Z</time>
      </trkpt>
      <trkpt lat="44.22931" lon="7.09972">
        <ele>2184</ele>
        <time>2019-08-20T23:22:23Z</time>
      </trkpt>
      <trkpt lat="44.22906" lon="7.10036">
        <ele>2177</ele>
        <time>2019-08-20T23:23:32Z</time>
      </trkpt>
      <trkpt lat="44.22912" lon="7.10059">
        <ele>2175</ele>
        <time>2019-08-20T23:23:56Z</time>
      </trkpt>
      <trkpt lat="44.22919" lon="7.10075">
        <ele>2173</ele>
        <time>2019-08-20T23:24:14Z</time>
      </trkpt>
      <trkpt lat="44.22931" lon="7.10082">
        <ele>2172</ele>
        <time>2019-08-20T23:24:31Z</time>
      </trkpt>
      <trkpt lat="44.22933" lon="7.10088">
        <ele>2171</ele>
        <time>2019-08-20T23:24:37Z</time>
      </trkpt>
      <trkpt lat="44.22925" lon="7.10097">
        <ele>2171</ele>
        <time>2019-08-20T23:24:51Z</time>
      </trkpt>
      <trkpt lat="44.2291" lon="7.10131">
        <ele>2169</ele>
        <time>2019-08-20T23:25:29Z</time>
      </trkpt>
      <trkpt lat="44.22881" lon="7.1015">
        <ele>2168</ele>
        <time>2019-08-20T23:26:12Z</time>
      </trkpt>
      <trkpt lat="44.22864" lon="7.10165">
        <ele>2168</ele>
        <time>2019-08-20T23:26:39Z</time>
      </trkpt>
      <trkpt lat="44.22851" lon="7.10179">
        <ele>2169</ele>
        <time>2019-08-20T23:27:01Z</time>
      </trkpt>
      <trkpt lat="44.22839" lon="7.10201">
        <ele>2170</ele>
        <time>2019-08-20T23:27:27Z</time>
      </trkpt>
      <trkpt lat="44.22831" lon="7.10209">
        <ele>2172</ele>
        <time>2019-08-20T23:27:40Z</time>
      </trkpt>
      <trkpt lat="44.22796" lon="7.10211">
        <ele>2173</ele>
        <time>2019-08-20T23:28:27Z</time>
      </trkpt>
      <trkpt lat="44.22785" lon="7.10216">
        <ele>2174</ele>
        <time>2019-08-20T23:28:43Z</time>
      </trkpt>
      <trkpt lat="44.22773" lon="7.10232">
        <ele>2174</ele>
        <time>2019-08-20T23:29:05Z</time>
      </trkpt>
      <trkpt lat="44.22763" lon="7.10262">
        <ele>2171</ele>
        <time>2019-08-20T23:29:36Z</time>
      </trkpt>
      <trkpt lat="44.2274" lon="7.10296">
        <ele>2164</ele>
        <time>2019-08-20T23:30:21Z</time>
      </trkpt>
      <trkpt lat="44.22743" lon="7.10307">
        <ele>2162</ele>
        <time>2019-08-20T23:30:32Z</time>
      </trkpt>
      <trkpt lat="44.22742" lon="7.1032">
        <ele>2159</ele>
        <time>2019-08-20T23:30:45Z</time>
      </trkpt>
      <trkpt lat="44.2275" lon="7.10336">
        <ele>2156</ele>
        <time>2019-08-20T23:31:03Z</time>
      </trkpt>
      <trkpt lat="44.22754" lon="7.10352">
        <ele>2150</ele>
        <time>2019-08-20T23:31:20Z</time>
      </trkpt>
      <trkpt lat="44.2275" lon="7.10361">
        <ele>2147</ele>
        <time>2019-08-20T23:31:30Z</time>
      </trkpt>
      <trkpt lat="44.22746" lon="7.10363">
        <ele>2146</ele>
        <time>2019-08-20T23:31:35Z</time>
      </trkpt>
      <trkpt lat="44.22742" lon="7.10371">
        <ele>2142</ele>
        <time>2019-08-20T23:31:45Z</time>
      </trkpt>
      <trkpt lat="44.22737" lon="7.10374">
        <ele>2141</ele>
        <time>2019-08-20T23:31:52Z</time>
      </trkpt>
      <trkpt lat="44.22732" lon="7.10374">
        <ele>2140</ele>
        <time>2019-08-20T23:31:59Z</time>
      </trkpt>
      <trkpt lat="44.22728" lon="7.10379">
        <ele>2137</ele>
        <time>2019-08-20T23:32:06Z</time>
      </trkpt>
      <trkpt lat="44.2272" lon="7.1038">
        <ele>2136</ele>
        <time>2019-08-20T23:32:17Z</time>
      </trkpt>
      <trkpt lat="44.22699" lon="7.10379">
        <ele>2132</ele>
        <time>2019-08-20T23:32:45Z</time>
      </trkpt>
      <trkpt lat="44.22693" lon="7.10383">
        <ele>2130</ele>
        <time>2019-08-20T23:32:54Z</time>
      </trkpt>
      <trkpt lat="44.22687" lon="7.10379">
        <ele>2130</ele>
        <time>2019-08-20T23:33:02Z</time>
      </trkpt>
      <trkpt lat="44.22683" lon="7.10381">
        <ele>2129</ele>
        <time>2019-08-20T23:33:08Z</time>
      </trkpt>
      <trkpt lat="44.22681" lon="7.10384">
        <ele>2127</ele>
        <time>2019-08-20T23:33:12Z</time>
      </trkpt>
      <trkpt lat="44.2268" lon="7.10394">
        <ele>2124</ele>
        <time>2019-08-20T23:33:22Z</time>
      </trkpt>
      <trkpt lat="44.22674" lon="7.10396">
        <ele>2122</ele>
        <time>2019-08-20T23:33:30Z</time>
      </trkpt>
      <trkpt lat="44.22669" lon="7.10403">
        <ele>2119</ele>
        <time>2019-08-20T23:33:39Z</time>
      </trkpt>
      <trkpt lat="44.22677" lon="7.10421">
        <ele>2114</ele>
        <time>2019-08-20T23:34:00Z</time>
      </trkpt>
      <trkpt lat="44.2269" lon="7.10437">
        <ele>2111</ele>
        <time>2019-08-20T23:34:23Z</time>
      </trkpt>
      <trkpt lat="44.2269" lon="7.10442">
        <ele>2110</ele>
        <time>2019-08-20T23:34:27Z</time>
      </trkpt>
      <trkpt lat="44.22696" lon="7.10451">
        <ele>2107</ele>
        <time>2019-08-20T23:34:39Z</time>
      </trkpt>
      <trkpt lat="44.22696" lon="7.10456">
        <ele>2106</ele>
        <time>2019-08-20T23:34:44Z</time>
      </trkpt>
      <trkpt lat="44.22702" lon="7.10462">
        <ele>2104</ele>
        <time>2019-08-20T23:34:54Z</time>
      </trkpt>
      <trkpt lat="44.22702" lon="7.10465">
        <ele>2103</ele>
        <time>2019-08-20T23:34:57Z</time>
      </trkpt>
      <trkpt lat="44.227" lon="7.10468">
        <ele>2102</ele>
        <time>2019-08-20T23:35:01Z</time>
      </trkpt>
      <trkpt lat="44.22701" lon="7.10472">
        <ele>2101</ele>
        <time>2019-08-20T23:35:05Z</time>
      </trkpt>
      <trkpt lat="44.22699" lon="7.10478">
        <ele>2099</ele>
        <time>2019-08-20T23:35:11Z</time>
      </trkpt>
      <trkpt lat="44.22701" lon="7.10481">
        <ele>2098</ele>
        <time>2019-08-20T23:35:15Z</time>
      </trkpt>
      <trkpt lat="44.22699" lon="7.10484">
        <ele>2097</ele>
        <time>2019-08-20T23:35:19Z</time>
      </trkpt>
      <trkpt lat="44.22699" lon="7.10491">
        <ele>2094</ele>
        <time>2019-08-20T23:35:26Z</time>
      </trkpt>
      <trkpt lat="44.22697" lon="7.10494">
        <ele>2093</ele>
        <time>2019-08-20T23:35:29Z</time>
      </trkpt>
      <trkpt lat="44.22698" lon="7.10495">
        <ele>2093</ele>
        <time>2019-08-20T23:35:31Z</time>
      </trkpt>
      <trkpt lat="44.22696" lon="7.10502">
        <ele>2090</ele>
        <time>2019-08-20T23:35:38Z</time>
      </trkpt>
      <trkpt lat="44.22695" lon="7.10516">
        <ele>2087</ele>
        <time>2019-08-20T23:35:52Z</time>
      </trkpt>
      <trkpt lat="44.22691" lon="7.1052">
        <ele>2086</ele>
        <time>2019-08-20T23:35:58Z</time>
      </trkpt>
      <trkpt lat="44.22692" lon="7.10529">
        <ele>2084</ele>
        <time>2019-08-20T23:36:07Z</time>
      </trkpt>
      <trkpt lat="44.22689" lon="7.10535">
        <ele>2082</ele>
        <time>2019-08-20T23:36:14Z</time>
      </trkpt>
      <trkpt lat="44.22689" lon="7.10551">
        <ele>2078</ele>
        <time>2019-08-20T23:36:29Z</time>
      </trkpt>
      <trkpt lat="44.22689" lon="7.10551">
        <ele>2078</ele>
        <time>2019-08-20T23:36:29Z</time>
      </trkpt>
      <trkpt lat="44.22685" lon="7.10549">
        <ele>2078</ele>
        <time>2019-08-20T23:36:35Z</time>
      </trkpt>
      <trkpt lat="44.22676" lon="7.10536">
        <ele>2081</ele>
        <time>2019-08-20T23:36:52Z</time>
      </trkpt>
      <trkpt lat="44.22671" lon="7.10534">
        <ele>2081</ele>
        <time>2019-08-20T23:36:59Z</time>
      </trkpt>
      <trkpt lat="44.22665" lon="7.10537">
        <ele>2080</ele>
        <time>2019-08-20T23:37:08Z</time>
      </trkpt>
      <trkpt lat="44.22658" lon="7.10533">
        <ele>2081</ele>
        <time>2019-08-20T23:37:18Z</time>
      </trkpt>
      <trkpt lat="44.22654" lon="7.10527">
        <ele>2083</ele>
        <time>2019-08-20T23:37:26Z</time>
      </trkpt>
      <trkpt lat="44.22647" lon="7.10527">
        <ele>2083</ele>
        <time>2019-08-20T23:37:35Z</time>
      </trkpt>
      <trkpt lat="44.22641" lon="7.10517">
        <ele>2086</ele>
        <time>2019-08-20T23:37:48Z</time>
      </trkpt>
      <trkpt lat="44.22636" lon="7.10515">
        <ele>2087</ele>
        <time>2019-08-20T23:37:55Z</time>
      </trkpt>
      <trkpt lat="44.22632" lon="7.10502">
        <ele>2090</ele>
        <time>2019-08-20T23:38:08Z</time>
      </trkpt>
      <trkpt lat="44.22626" lon="7.10502">
        <ele>2091</ele>
        <time>2019-08-20T23:38:16Z</time>
      </trkpt>
      <trkpt lat="44.22617" lon="7.10495">
        <ele>2094</ele>
        <time>2019-08-20T23:38:30Z</time>
      </trkpt>
      <trkpt lat="44.22603" lon="7.10497">
        <ele>2094</ele>
        <time>2019-08-20T23:38:49Z</time>
      </trkpt>
      <trkpt lat="44.22594" lon="7.10494">
        <ele>2096</ele>
        <time>2019-08-20T23:39:01Z</time>
      </trkpt>
      <trkpt lat="44.22586" lon="7.10496">
        <ele>2096</ele>
        <time>2019-08-20T23:39:12Z</time>
      </trkpt>
      <trkpt lat="44.2257" lon="7.10495">
        <ele>2100</ele>
        <time>2019-08-20T23:39:33Z</time>
      </trkpt>
      <trkpt lat="44.22565" lon="7.10492">
        <ele>2102</ele>
        <time>2019-08-20T23:39:40Z</time>
      </trkpt>
      <trkpt lat="44.22556" lon="7.10492">
        <ele>2105</ele>
        <time>2019-08-20T23:39:52Z</time>
      </trkpt>
      <trkpt lat="44.22551" lon="7.10502">
        <ele>2104</ele>
        <time>2019-08-20T23:40:04Z</time>
      </trkpt>
      <trkpt lat="44.22536" lon="7.10513">
        <ele>2107</ele>
        <time>2019-08-20T23:40:27Z</time>
      </trkpt>
      <trkpt lat="44.22535" lon="7.10524">
        <ele>2105</ele>
        <time>2019-08-20T23:40:37Z</time>
      </trkpt>
      <trkpt lat="44.22526" lon="7.10531">
        <ele>2107</ele>
        <time>2019-08-20T23:40:51Z</time>
      </trkpt>
      <trkpt lat="44.22519" lon="7.10534">
        <ele>2110</ele>
        <time>2019-08-20T23:41:01Z</time>
      </trkpt>
      <trkpt lat="44.22511" lon="7.10544">
        <ele>2112</ele>
        <time>2019-08-20T23:41:15Z</time>
      </trkpt>
      <trkpt lat="44.22505" lon="7.10547">
        <ele>2114</ele>
        <time>2019-08-20T23:41:24Z</time>
      </trkpt>
      <trkpt lat="44.22498" lon="7.10556">
        <ele>2115</ele>
        <time>2019-08-20T23:41:36Z</time>
      </trkpt>
      <trkpt lat="44.22487" lon="7.10559">
        <ele>2118</ele>
        <time>2019-08-20T23:41:51Z</time>
      </trkpt>
      <trkpt lat="44.22479" lon="7.10565">
        <ele>2120</ele>
        <time>2019-08-20T23:42:03Z</time>
      </trkpt>
      <trkpt lat="44.22464" lon="7.10585">
        <ele>2123</ele>
        <time>2019-08-20T23:42:31Z</time>
      </trkpt>
      <trkpt lat="44.22431" lon="7.10619">
        <ele>2130</ele>
        <time>2019-08-20T23:43:26Z</time>
      </trkpt>
      <trkpt lat="44.22416" lon="7.10629">
        <ele>2135</ele>
        <time>2019-08-20T23:43:48Z</time>
      </trkpt>
      <trkpt lat="44.22412" lon="7.10646">
        <ele>2136</ele>
        <time>2019-08-20T23:44:05Z</time>
      </trkpt>
      <trkpt lat="44.22415" lon="7.1065">
        <ele>2135</ele>
        <time>2019-08-20T23:44:11Z</time>
      </trkpt>
      <trkpt lat="44.22408" lon="7.10649">
        <ele>2137</ele>
        <time>2019-08-20T23:44:20Z</time>
      </trkpt>
      <trkpt lat="44.22397" lon="7.1066">
        <ele>2139</ele>
        <time>2019-08-20T23:44:38Z</time>
      </trkpt>
      <trkpt lat="44.2239" lon="7.10661">
        <ele>2141</ele>
        <time>2019-08-20T23:44:48Z</time>
      </trkpt>
      <trkpt lat="44.22377" lon="7.10672">
        <ele>2144</ele>
        <time>2019-08-20T23:45:08Z</time>
      </trkpt>
      <trkpt lat="44.22365" lon="7.10689">
        <ele>2146</ele>
        <time>2019-08-20T23:45:31Z</time>
      </trkpt>
      <trkpt lat="44.2236" lon="7.10694">
        <ele>2147</ele>
        <time>2019-08-20T23:45:39Z</time>
      </trkpt>
      <trkpt lat="44.22355" lon="7.10696">
        <ele>2148</ele>
        <time>2019-08-20T23:45:46Z</time>
      </trkpt>
      <trkpt lat="44.22349" lon="7.10711">
        <ele>2149</ele>
        <time>2019-08-20T23:46:02Z</time>
      </trkpt>
      <trkpt lat="44.22347" lon="7.10715">
        <ele>2149</ele>
        <time>2019-08-20T23:46:07Z</time>
      </trkpt>
      <trkpt lat="44.22337" lon="7.10721">
        <ele>2152</ele>
        <time>2019-08-20T23:46:21Z</time>
      </trkpt>
      <trkpt lat="44.22319" lon="7.10752">
        <ele>2153</ele>
        <time>2019-08-20T23:47:00Z</time>
      </trkpt>
      <trkpt lat="44.22307" lon="7.1076">
        <ele>2154</ele>
        <time>2019-08-20T23:47:17Z</time>
      </trkpt>
      <trkpt lat="44.22294" lon="7.10771">
        <ele>2154</ele>
        <time>2019-08-20T23:47:38Z</time>
      </trkpt>
      <trkpt lat="44.22262" lon="7.10771">
        <ele>2159</ele>
        <time>2019-08-20T23:48:20Z</time>
      </trkpt>
      <trkpt lat="44.22238" lon="7.10783">
        <ele>2165</ele>
        <time>2019-08-20T23:48:54Z</time>
      </trkpt>
      <trkpt lat="44.2222" lon="7.10803">
        <ele>2172</ele>
        <time>2019-08-20T23:49:25Z</time>
      </trkpt>
      <trkpt lat="44.22204" lon="7.10847">
        <ele>2179</ele>
        <time>2019-08-20T23:50:12Z</time>
      </trkpt>
      <trkpt lat="44.22203" lon="7.10863">
        <ele>2182</ele>
        <time>2019-08-20T23:50:28Z</time>
      </trkpt>
      <trkpt lat="44.22198" lon="7.10877">
        <ele>2186</ele>
        <time>2019-08-20T23:50:43Z</time>
      </trkpt>
      <trkpt lat="44.22201" lon="7.10889">
        <ele>2185</ele>
        <time>2019-08-20T23:50:55Z</time>
      </trkpt>
      <trkpt lat="44.22207" lon="7.10901">
        <ele>2184</ele>
        <time>2019-08-20T23:51:09Z</time>
      </trkpt>
      <trkpt lat="44.2222" lon="7.1091">
        <ele>2179</ele>
        <time>2019-08-20T23:51:28Z</time>
      </trkpt>
      <trkpt lat="44.2223" lon="7.10921">
        <ele>2177</ele>
        <time>2019-08-20T23:51:45Z</time>
      </trkpt>
      <trkpt lat="44.22232" lon="7.1093">
        <ele>2180</ele>
        <time>2019-08-20T23:51:54Z</time>
      </trkpt>
      <trkpt lat="44.22227" lon="7.10934">
        <ele>2184</ele>
        <time>2019-08-20T23:52:02Z</time>
      </trkpt>
      <trkpt lat="44.22219" lon="7.10927">
        <ele>2184</ele>
        <time>2019-08-20T23:52:14Z</time>
      </trkpt>
      <trkpt lat="44.22222" lon="7.10937">
        <ele>2187</ele>
        <time>2019-08-20T23:52:25Z</time>
      </trkpt>
      <trkpt lat="44.22232" lon="7.10951">
        <ele>2188</ele>
        <time>2019-08-20T23:52:44Z</time>
      </trkpt>
      <trkpt lat="44.2221" lon="7.10936">
        <ele>2192</ele>
        <time>2019-08-20T23:53:16Z</time>
      </trkpt>
      <trkpt lat="44.22208" lon="7.10958">
        <ele>2201</ele>
        <time>2019-08-20T23:53:38Z</time>
      </trkpt>
      <trkpt lat="44.22205" lon="7.10957">
        <ele>2202</ele>
        <time>2019-08-20T23:53:42Z</time>
      </trkpt>
      <trkpt lat="44.22193" lon="7.10946">
        <ele>2202</ele>
        <time>2019-08-20T23:54:01Z</time>
      </trkpt>
      <trkpt lat="44.22189" lon="7.10958">
        <ele>2208</ele>
        <time>2019-08-20T23:54:13Z</time>
      </trkpt>
      <trkpt lat="44.22188" lon="7.10971">
        <ele>2213</ele>
        <time>2019-08-20T23:54:26Z</time>
      </trkpt>
      <trkpt lat="44.22191" lon="7.10974">
        <ele>2213</ele>
        <time>2019-08-20T23:54:31Z</time>
      </trkpt>
      <trkpt lat="44.22185" lon="7.10971">
        <ele>2214</ele>
        <time>2019-08-20T23:54:39Z</time>
      </trkpt>
      <trkpt lat="44.22182" lon="7.10967">
        <ele>2214</ele>
        <time>2019-08-20T23:54:45Z</time>
      </trkpt>
      <trkpt lat="44.22183" lon="7.10975">
        <ele>2216</ele>
        <time>2019-08-20T23:54:53Z</time>
      </trkpt>
      <trkpt lat="44.2218" lon="7.10978">
        <ele>2218</ele>
        <time>2019-08-20T23:54:58Z</time>
      </trkpt>
      <trkpt lat="44.22169" lon="7.10986">
        <ele>2225</ele>
        <time>2019-08-20T23:55:14Z</time>
      </trkpt>
      <trkpt lat="44.22163" lon="7.10983">
        <ele>2226</ele>
        <time>2019-08-20T23:55:23Z</time>
      </trkpt>
      <trkpt lat="44.22154" lon="7.10989">
        <ele>2231</ele>
        <time>2019-08-20T23:55:36Z</time>
      </trkpt>
      <trkpt lat="44.22153" lon="7.10986">
        <ele>2231</ele>
        <time>2019-08-20T23:55:39Z</time>
      </trkpt>
      <trkpt lat="44.22145" lon="7.1099">
        <ele>2235</ele>
        <time>2019-08-20T23:55:51Z</time>
      </trkpt>
      <trkpt lat="44.2214" lon="7.10982">
        <ele>2235</ele>
        <time>2019-08-20T23:56:01Z</time>
      </trkpt>
      <trkpt lat="44.22137" lon="7.10981">
        <ele>2236</ele>
        <time>2019-08-20T23:56:05Z</time>
      </trkpt>
      <trkpt lat="44.22128" lon="7.10992">
        <ele>2242</ele>
        <time>2019-08-20T23:56:21Z</time>
      </trkpt>
      <trkpt lat="44.22125" lon="7.11">
        <ele>2245</ele>
        <time>2019-08-20T23:56:29Z</time>
      </trkpt>
      <trkpt lat="44.22122" lon="7.10995">
        <ele>2245</ele>
        <time>2019-08-20T23:56:36Z</time>
      </trkpt>
      <trkpt lat="44.22117" lon="7.10993">
        <ele>2246</ele>
        <time>2019-08-20T23:56:43Z</time>
      </trkpt>
      <trkpt lat="44.22112" lon="7.10994">
        <ele>2248</ele>
        <time>2019-08-20T23:56:49Z</time>
      </trkpt>
      <trkpt lat="44.22105" lon="7.11005">
        <ele>2253</ele>
        <time>2019-08-20T23:57:03Z</time>
      </trkpt>
      <trkpt lat="44.22107" lon="7.11005">
        <ele>2253</ele>
        <time>2019-08-20T23:57:06Z</time>
      </trkpt>
      <trkpt lat="44.22097" lon="7.1101">
        <ele>2258</ele>
        <time>2019-08-20T23:57:20Z</time>
      </trkpt>
      <trkpt lat="44.2207" lon="7.11017">
        <ele>2270</ele>
        <time>2019-08-20T23:57:57Z</time>
      </trkpt>
      <trkpt lat="44.22057" lon="7.11017">
        <ele>2275</ele>
        <time>2019-08-20T23:58:14Z</time>
      </trkpt>
      <trkpt lat="44.22044" lon="7.11011">
        <ele>2280</ele>
        <time>2019-08-20T23:58:32Z</time>
      </trkpt>
      <trkpt lat="44.22031" lon="7.11023">
        <ele>2287</ele>
        <time>2019-08-20T23:58:53Z</time>
      </trkpt>
      <trkpt lat="44.22012" lon="7.11022">
        <ele>2294</ele>
        <time>2019-08-20T23:59:19Z</time>
      </trkpt>
      <trkpt lat="44.22005" lon="7.11034">
        <ele>2297</ele>
        <time>2019-08-20T23:59:33Z</time>
      </trkpt>
      <trkpt lat="44.21974" lon="7.11044">
        <ele>2307</ele>
        <time>2019-08-21T00:00:16Z</time>
      </trkpt>
      <trkpt lat="44.21961" lon="7.11068">
        <ele>2308</ele>
        <time>2019-08-21T00:00:45Z</time>
      </trkpt>
      <trkpt lat="44.21953" lon="7.11071">
        <ele>2309</ele>
        <time>2019-08-21T00:00:56Z</time>
      </trkpt>
      <trkpt lat="44.21953" lon="7.11079">
        <ele>2308</ele>
        <time>2019-08-21T00:01:03Z</time>
      </trkpt>
      <trkpt lat="44.21948" lon="7.11092">
        <ele>2311</ele>
        <time>2019-08-21T00:01:17Z</time>
      </trkpt>
      <trkpt lat="44.21938" lon="7.11096">
        <ele>2315</ele>
        <time>2019-08-21T00:01:31Z</time>
      </trkpt>
      <trkpt lat="44.21934" lon="7.11105">
        <ele>2318</ele>
        <time>2019-08-21T00:01:42Z</time>
      </trkpt>
      <trkpt lat="44.21921" lon="7.11105">
        <ele>2320</ele>
        <time>2019-08-21T00:01:59Z</time>
      </trkpt>
      <trkpt lat="44.21911" lon="7.11124">
        <ele>2328</ele>
        <time>2019-08-21T00:02:21Z</time>
      </trkpt>
      <trkpt lat="44.21902" lon="7.11135">
        <ele>2334</ele>
        <time>2019-08-21T00:02:37Z</time>
      </trkpt>
      <trkpt lat="44.2191" lon="7.11141">
        <ele>2333</ele>
        <time>2019-08-21T00:02:49Z</time>
      </trkpt>
      <trkpt lat="44.21939" lon="7.11145">
        <ele>2330</ele>
        <time>2019-08-21T00:03:28Z</time>
      </trkpt>
      <trkpt lat="44.21929" lon="7.11149">
        <ele>2332</ele>
        <time>2019-08-21T00:03:42Z</time>
      </trkpt>
      <trkpt lat="44.21916" lon="7.11159">
        <ele>2336</ele>
        <time>2019-08-21T00:04:02Z</time>
      </trkpt>
      <trkpt lat="44.2191" lon="7.11162">
        <ele>2338</ele>
        <time>2019-08-21T00:04:11Z</time>
      </trkpt>
      <trkpt lat="44.21904" lon="7.1117">
        <ele>2342</ele>
        <time>2019-08-21T00:04:22Z</time>
      </trkpt>
      <trkpt lat="44.21898" lon="7.11173">
        <ele>2344</ele>
        <time>2019-08-21T00:04:30Z</time>
      </trkpt>
      <trkpt lat="44.21891" lon="7.11174">
        <ele>2345</ele>
        <time>2019-08-21T00:04:40Z</time>
      </trkpt>
      <trkpt lat="44.21886" lon="7.11179">
        <ele>2348</ele>
        <time>2019-08-21T00:04:48Z</time>
      </trkpt>
      <trkpt lat="44.2189" lon="7.11189">
        <ele>2349</ele>
        <time>2019-08-21T00:04:59Z</time>
      </trkpt>
      <trkpt lat="44.21874" lon="7.1118">
        <ele>2350</ele>
        <time>2019-08-21T00:05:22Z</time>
      </trkpt>
      <trkpt lat="44.21869" lon="7.11185">
        <ele>2352</ele>
        <time>2019-08-21T00:05:30Z</time>
      </trkpt>
      <trkpt lat="44.21873" lon="7.1119">
        <ele>2352</ele>
        <time>2019-08-21T00:05:37Z</time>
      </trkpt>
      <trkpt lat="44.2187" lon="7.11199">
        <ele>2354</ele>
        <time>2019-08-21T00:05:47Z</time>
      </trkpt>
      <trkpt lat="44.21856" lon="7.11218">
        <ele>2358</ele>
        <time>2019-08-21T00:06:13Z</time>
      </trkpt>
      <trkpt lat="44.21844" lon="7.11229">
        <ele>2360</ele>
        <time>2019-08-21T00:06:32Z</time>
      </trkpt>
      <trkpt lat="44.21829" lon="7.11258">
        <ele>2360</ele>
        <time>2019-08-21T00:07:06Z</time>
      </trkpt>
      <trkpt lat="44.21814" lon="7.113">
        <ele>2356</ele>
        <time>2019-08-21T00:07:51Z</time>
      </trkpt>
      <trkpt lat="44.21817" lon="7.11309">
        <ele>2354</ele>
        <time>2019-08-21T00:08:00Z</time>
      </trkpt>
      <trkpt lat="44.21764" lon="7.11404">
        <ele>2337</ele>
        <time>2019-08-21T00:09:56Z</time>
      </trkpt>
      <trkpt lat="44.21702" lon="7.11464">
        <ele>2332</ele>
        <time>2019-08-21T00:11:36Z</time>
      </trkpt>
      <trkpt lat="44.21672" lon="7.11519">
        <ele>2332</ele>
        <time>2019-08-21T00:12:42Z</time>
      </trkpt>
      <trkpt lat="44.21667" lon="7.11551">
        <ele>2334</ele>
        <time>2019-08-21T00:13:14Z</time>
      </trkpt>
      <trkpt lat="44.21633" lon="7.11612">
        <ele>2335</ele>
        <time>2019-08-21T00:14:28Z</time>
      </trkpt>
      <trkpt lat="44.21601" lon="7.11656">
        <ele>2341</ele>
        <time>2019-08-21T00:15:28Z</time>
      </trkpt>
      <trkpt lat="44.21554" lon="7.11695">
        <ele>2336</ele>
        <time>2019-08-21T00:16:40Z</time>
      </trkpt>
      <trkpt lat="44.2151" lon="7.11798">
        <ele>2324</ele>
        <time>2019-08-21T00:18:35Z</time>
      </trkpt>
      <trkpt lat="44.21497" lon="7.11796">
        <ele>2322</ele>
        <time>2019-08-21T00:18:53Z</time>
      </trkpt>
      <trkpt lat="44.21484" lon="7.11813">
        <ele>2317</ele>
        <time>2019-08-21T00:19:16Z</time>
      </trkpt>
      <trkpt lat="44.21458" lon="7.11838">
        <ele>2308</ele>
        <time>2019-08-21T00:19:59Z</time>
      </trkpt>
      <trkpt lat="44.21437" lon="7.11853">
        <ele>2302</ele>
        <time>2019-08-21T00:20:30Z</time>
      </trkpt>
      <trkpt lat="44.2143" lon="7.11864">
        <ele>2299</ele>
        <time>2019-08-21T00:20:44Z</time>
      </trkpt>
      <trkpt lat="44.21417" lon="7.11875">
        <ele>2296</ele>
        <time>2019-08-21T00:21:04Z</time>
      </trkpt>
      <trkpt lat="44.21403" lon="7.11877">
        <ele>2293</ele>
        <time>2019-08-21T00:21:23Z</time>
      </trkpt>
      <trkpt lat="44.21355" lon="7.1191">
        <ele>2286</ele>
        <time>2019-08-21T00:22:35Z</time>
      </trkpt>
      <trkpt lat="44.21329" lon="7.11945">
        <ele>2282</ele>
        <time>2019-08-21T00:23:23Z</time>
      </trkpt>
      <trkpt lat="44.21289" lon="7.12022">
        <ele>2275</ele>
        <time>2019-08-21T00:24:54Z</time>
      </trkpt>
      <trkpt lat="44.21258" lon="7.12061">
        <ele>2275</ele>
        <time>2019-08-21T00:25:49Z</time>
      </trkpt>
      <trkpt lat="44.21244" lon="7.12087">
        <ele>2274</ele>
        <time>2019-08-21T00:26:21Z</time>
      </trkpt>
      <trkpt lat="44.21224" lon="7.12154">
        <ele>2273</ele>
        <time>2019-08-21T00:27:30Z</time>
      </trkpt>
      <trkpt lat="44.21223" lon="7.12195">
        <ele>2275</ele>
        <time>2019-08-21T00:28:09Z</time>
      </trkpt>
      <trkpt lat="44.21217" lon="7.12224">
        <ele>2276</ele>
        <time>2019-08-21T00:28:38Z</time>
      </trkpt>
      <trkpt lat="44.21213" lon="7.12284">
        <ele>2279</ele>
        <time>2019-08-21T00:29:36Z</time>
      </trkpt>
      <trkpt lat="44.2118" lon="7.12371">
        <ele>2284</ele>
        <time>2019-08-21T00:31:10Z</time>
      </trkpt>
      <trkpt lat="44.21138" lon="7.12403">
        <ele>2284</ele>
        <time>2019-08-21T00:32:14Z</time>
      </trkpt>
      <trkpt lat="44.21128" lon="7.12457">
        <ele>2289</ele>
        <time>2019-08-21T00:33:07Z</time>
      </trkpt>
      <trkpt lat="44.2113" lon="7.12489">
        <ele>2293</ele>
        <time>2019-08-21T00:33:38Z</time>
      </trkpt>
      <trkpt lat="44.21128" lon="7.12505">
        <ele>2295</ele>
        <time>2019-08-21T00:33:53Z</time>
      </trkpt>
      <trkpt lat="44.21132" lon="7.12537">
        <ele>2298</ele>
        <time>2019-08-21T00:34:24Z</time>
      </trkpt>
      <trkpt lat="44.21126" lon="7.12549">
        <ele>2300</ele>
        <time>2019-08-21T00:34:38Z</time>
      </trkpt>
      <trkpt lat="44.21124" lon="7.12565">
        <ele>2302</ele>
        <time>2019-08-21T00:34:54Z</time>
      </trkpt>
      <trkpt lat="44.21095" lon="7.12615">
        <ele>2305</ele>
        <time>2019-08-21T00:35:55Z</time>
      </trkpt>
      <trkpt lat="44.21092" lon="7.12631">
        <ele>2304</ele>
        <time>2019-08-21T00:36:11Z</time>
      </trkpt>
      <trkpt lat="44.2106" lon="7.12688">
        <ele>2298</ele>
        <time>2019-08-21T00:37:21Z</time>
      </trkpt>
      <trkpt lat="44.21" lon="7.1274">
        <ele>2305</ele>
        <time>2019-08-21T00:38:55Z</time>
      </trkpt>
      <trkpt lat="44.20941" lon="7.12818">
        <ele>2305</ele>
        <time>2019-08-21T00:40:43Z</time>
      </trkpt>
      <trkpt lat="44.20884" lon="7.12874">
        <ele>2304</ele>
        <time>2019-08-21T00:42:16Z</time>
      </trkpt>
      <trkpt lat="44.2079" lon="7.12949">
        <ele>2301</ele>
        <time>2019-08-21T00:44:41Z</time>
      </trkpt>
      <trkpt lat="44.2076" lon="7.13">
        <ele>2301</ele>
        <time>2019-08-21T00:45:44Z</time>
      </trkpt>
      <trkpt lat="44.20724" lon="7.13033">
        <ele>2293</ele>
        <time>2019-08-21T00:46:41Z</time>
      </trkpt>
      <trkpt lat="44.20692" lon="7.13082">
        <ele>2295</ele>
        <time>2019-08-21T00:47:45Z</time>
      </trkpt>
      <trkpt lat="44.20639" lon="7.13196">
        <ele>2298</ele>
        <time>2019-08-21T00:49:55Z</time>
      </trkpt>
      <trkpt lat="44.20625" lon="7.13212">
        <ele>2300</ele>
        <time>2019-08-21T00:50:19Z</time>
      </trkpt>
      <trkpt lat="44.20583" lon="7.13292">
        <ele>2316</ele>
        <time>2019-08-21T00:51:54Z</time>
      </trkpt>
      <trkpt lat="44.20562" lon="7.13353">
        <ele>2315</ele>
        <time>2019-08-21T00:52:59Z</time>
      </trkpt>
      <trkpt lat="44.20544" lon="7.1341">
        <ele>2322</ele>
        <time>2019-08-21T00:53:58Z</time>
      </trkpt>
      <trkpt lat="44.20544" lon="7.13454">
        <ele>2330</ele>
        <time>2019-08-21T00:54:40Z</time>
      </trkpt>
      <trkpt lat="44.20541" lon="7.13503">
        <ele>2339</ele>
        <time>2019-08-21T00:55:27Z</time>
      </trkpt>
      <trkpt lat="44.20535" lon="7.13549">
        <ele>2340</ele>
        <time>2019-08-21T00:56:12Z</time>
      </trkpt>
      <trkpt lat="44.20492" lon="7.13624">
        <ele>2345</ele>
        <time>2019-08-21T00:57:44Z</time>
      </trkpt>
      <trkpt lat="44.20467" lon="7.13651">
        <ele>2344</ele>
        <time>2019-08-21T00:58:26Z</time>
      </trkpt>
      <trkpt lat="44.20356" lon="7.13812">
        <ele>2361</ele>
        <time>2019-08-21T01:02:00Z</time>
      </trkpt>
      <trkpt lat="44.20317" lon="7.13931">
        <ele>2369</ele>
        <time>2019-08-21T01:04:05Z</time>
      </trkpt>
      <trkpt lat="44.20274" lon="7.14001">
        <ele>2371</ele>
        <time>2019-08-21T01:05:33Z</time>
      </trkpt>
      <trkpt lat="44.20249" lon="7.14114">
        <ele>2370</ele>
        <time>2019-08-21T01:07:26Z</time>
      </trkpt>
      <trkpt lat="44.20229" lon="7.14232">
        <ele>2363</ele>
        <time>2019-08-21T01:09:22Z</time>
      </trkpt>
      <trkpt lat="44.20208" lon="7.14281">
        <ele>2362</ele>
        <time>2019-08-21T01:10:17Z</time>
      </trkpt>
      <trkpt lat="44.20188" lon="7.14309">
        <ele>2365</ele>
        <time>2019-08-21T01:10:55Z</time>
      </trkpt>
      <trkpt lat="44.20179" lon="7.14338">
        <ele>2364</ele>
        <time>2019-08-21T01:11:25Z</time>
      </trkpt>
      <trkpt lat="44.20174" lon="7.14368">
        <ele>2363</ele>
        <time>2019-08-21T01:11:54Z</time>
      </trkpt>
      <trkpt lat="44.20177" lon="7.14402">
        <ele>2357</ele>
        <time>2019-08-21T01:12:27Z</time>
      </trkpt>
      <trkpt lat="44.20166" lon="7.14475">
        <ele>2359</ele>
        <time>2019-08-21T01:13:38Z</time>
      </trkpt>
      <trkpt lat="44.20159" lon="7.14507">
        <ele>2364</ele>
        <time>2019-08-21T01:14:10Z</time>
      </trkpt>
      <trkpt lat="44.20205" lon="7.14622">
        <ele>2351</ele>
        <time>2019-08-21T01:16:16Z</time>
      </trkpt>
      <trkpt lat="44.20209" lon="7.14666">
        <ele>2353</ele>
        <time>2019-08-21T01:16:59Z</time>
      </trkpt>
      <trkpt lat="44.2022" lon="7.14716">
        <ele>2349</ele>
        <time>2019-08-21T01:17:49Z</time>
      </trkpt>
      <trkpt lat="44.20226" lon="7.14824">
        <ele>2349</ele>
        <time>2019-08-21T01:19:33Z</time>
      </trkpt>
      <trkpt lat="44.20231" lon="7.14859">
        <ele>2347</ele>
        <time>2019-08-21T01:20:07Z</time>
      </trkpt>
      <trkpt lat="44.20252" lon="7.14934">
        <ele>2342</ele>
        <time>2019-08-21T01:21:24Z</time>
      </trkpt>
      <trkpt lat="44.20255" lon="7.14974">
        <ele>2344</ele>
        <time>2019-08-21T01:22:02Z</time>
      </trkpt>
      <trkpt lat="44.2026" lon="7.15009">
        <ele>2345</ele>
        <time>2019-08-21T01:22:36Z</time>
      </trkpt>
      <trkpt lat="44.20266" lon="7.15009">
        <ele>2345</ele>
        <time>2019-08-21T01:22:44Z</time>
      </trkpt>
      <trkpt lat="44.20265" lon="7.15019">
        <ele>2345</ele>
        <time>2019-08-21T01:22:54Z</time>
      </trkpt>
      <trkpt lat="44.20266" lon="7.15009">
        <ele>2345</ele>
        <time>2019-08-21T01:23:04Z</time>
      </trkpt>
      <trkpt lat="44.2024" lon="7.1501">
        <ele>2345</ele>
        <time>2019-08-21T01:23:38Z</time>
      </trkpt>
      <trkpt lat="44.20214" lon="7.15005">
        <ele>2344</ele>
        <time>2019-08-21T01:24:13Z</time>
      </trkpt>
      <trkpt lat="44.20208" lon="7.15002">
        <ele>2343</ele>
        <time>2019-08-21T01:24:22Z</time>
      </trkpt>
      <trkpt lat="44.20191" lon="7.14988">
        <ele>2345</ele>
        <time>2019-08-21T01:24:48Z</time>
      </trkpt>
      <trkpt lat="44.20186" lon="7.14988">
        <ele>2345</ele>
        <time>2019-08-21T01:24:55Z</time>
      </trkpt>
      <trkpt lat="44.20182" lon="7.14991">
        <ele>2344</ele>
        <time>2019-08-21T01:25:01Z</time>
      </trkpt>
      <trkpt lat="44.20178" lon="7.14995">
        <ele>2343</ele>
        <time>2019-08-21T01:25:08Z</time>
      </trkpt>
      <trkpt lat="44.20176" lon="7.15001">
        <ele>2341</ele>
        <time>2019-08-21T01:25:14Z</time>
      </trkpt>
      <trkpt lat="44.20173" lon="7.15023">
        <ele>2338</ele>
        <time>2019-08-21T01:25:35Z</time>
      </trkpt>
      <trkpt lat="44.20178" lon="7.15042">
        <ele>2336</ele>
        <time>2019-08-21T01:25:55Z</time>
      </trkpt>
      <trkpt lat="44.20181" lon="7.15048">
        <ele>2336</ele>
        <time>2019-08-21T01:26:02Z</time>
      </trkpt>
      <trkpt lat="44.20185" lon="7.15052">
        <ele>2336</ele>
        <time>2019-08-21T01:26:08Z</time>
      </trkpt>
      <trkpt lat="44.20205" lon="7.15057">
        <ele>2339</ele>
        <time>2019-08-21T01:26:35Z</time>
      </trkpt>
      <trkpt lat="44.20211" lon="7.15065">
        <ele>2339</ele>
        <time>2019-08-21T01:26:46Z</time>
      </trkpt>
      <trkpt lat="44.20211" lon="7.1507">
        <ele>2339</ele>
        <time>2019-08-21T01:26:51Z</time>
      </trkpt>
      <trkpt lat="44.20192" lon="7.15101">
        <ele>2332</ele>
        <time>2019-08-21T01:27:30Z</time>
      </trkpt>
      <trkpt lat="44.20187" lon="7.15119">
        <ele>2329</ele>
        <time>2019-08-21T01:27:49Z</time>
      </trkpt>
      <trkpt lat="44.20188" lon="7.15137">
        <ele>2328</ele>
        <time>2019-08-21T01:28:06Z</time>
      </trkpt>
      <trkpt lat="44.20197" lon="7.15158">
        <ele>2329</ele>
        <time>2019-08-21T01:28:29Z</time>
      </trkpt>
      <trkpt lat="44.20198" lon="7.15167">
        <ele>2329</ele>
        <time>2019-08-21T01:28:38Z</time>
      </trkpt>
      <trkpt lat="44.20198" lon="7.15173">
        <ele>2328</ele>
        <time>2019-08-21T01:28:44Z</time>
      </trkpt>
      <trkpt lat="44.20192" lon="7.15208">
        <ele>2324</ele>
        <time>2019-08-21T01:29:18Z</time>
      </trkpt>
      <trkpt lat="44.2019" lon="7.15251">
        <ele>2321</ele>
        <time>2019-08-21T01:29:59Z</time>
      </trkpt>
      <trkpt lat="44.20184" lon="7.1527">
        <ele>2320</ele>
        <time>2019-08-21T01:30:19Z</time>
      </trkpt>
      <trkpt lat="44.2016" lon="7.15314">
        <ele>2313</ele>
        <time>2019-08-21T01:31:12Z</time>
      </trkpt>
      <trkpt lat="44.20156" lon="7.15325">
        <ele>2312</ele>
        <time>2019-08-21T01:31:24Z</time>
      </trkpt>
      <trkpt lat="44.20155" lon="7.15338">
        <ele>2312</ele>
        <time>2019-08-21T01:31:37Z</time>
      </trkpt>
      <trkpt lat="44.20161" lon="7.15377">
        <ele>2313</ele>
        <time>2019-08-21T01:32:15Z</time>
      </trkpt>
      <trkpt lat="44.20162" lon="7.15408">
        <ele>2314</ele>
        <time>2019-08-21T01:32:44Z</time>
      </trkpt>
      <trkpt lat="44.20147" lon="7.15465">
        <ele>2312</ele>
        <time>2019-08-21T01:33:42Z</time>
      </trkpt>
      <trkpt lat="44.20142" lon="7.15478">
        <ele>2311</ele>
        <time>2019-08-21T01:33:57Z</time>
      </trkpt>
      <trkpt lat="44.20135" lon="7.1549">
        <ele>2309</ele>
        <time>2019-08-21T01:34:11Z</time>
      </trkpt>
      <trkpt lat="44.20115" lon="7.15513">
        <ele>2304</ele>
        <time>2019-08-21T01:34:46Z</time>
      </trkpt>
      <trkpt lat="44.20062" lon="7.15546">
        <ele>2289</ele>
        <time>2019-08-21T01:36:03Z</time>
      </trkpt>
      <trkpt lat="44.20042" lon="7.15586">
        <ele>2283</ele>
        <time>2019-08-21T01:36:50Z</time>
      </trkpt>
      <trkpt lat="44.20049" lon="7.15637">
        <ele>2292</ele>
        <time>2019-08-21T01:37:40Z</time>
      </trkpt>
      <trkpt lat="44.20042" lon="7.15685">
        <ele>2296</ele>
        <time>2019-08-21T01:38:27Z</time>
      </trkpt>
      <trkpt lat="44.2004" lon="7.15705">
        <ele>2299</ele>
        <time>2019-08-21T01:38:46Z</time>
      </trkpt>
      <trkpt lat="44.20028" lon="7.15723">
        <ele>2296</ele>
        <time>2019-08-21T01:39:09Z</time>
      </trkpt>
      <trkpt lat="44.2001" lon="7.15737">
        <ele>2288</ele>
        <time>2019-08-21T01:39:37Z</time>
      </trkpt>
      <trkpt lat="44.20011" lon="7.15748">
        <ele>2291</ele>
        <time>2019-08-21T01:39:48Z</time>
      </trkpt>
      <trkpt lat="44.19994" lon="7.15789">
        <ele>2297</ele>
        <time>2019-08-21T01:40:33Z</time>
      </trkpt>
      <trkpt lat="44.19949" lon="7.15819">
        <ele>2289</ele>
        <time>2019-08-21T01:41:39Z</time>
      </trkpt>
      <trkpt lat="44.199" lon="7.15872">
        <ele>2289</ele>
        <time>2019-08-21T01:43:02Z</time>
      </trkpt>
      <trkpt lat="44.19876" lon="7.15891">
        <ele>2287</ele>
        <time>2019-08-21T01:43:39Z</time>
      </trkpt>
      <trkpt lat="44.19837" lon="7.15958">
        <ele>2300</ele>
        <time>2019-08-21T01:45:02Z</time>
      </trkpt>
      <trkpt lat="44.19789" lon="7.15992">
        <ele>2304</ele>
        <time>2019-08-21T01:46:13Z</time>
      </trkpt>
      <trkpt lat="44.19762" lon="7.16027">
        <ele>2325</ele>
        <time>2019-08-21T01:47:03Z</time>
      </trkpt>
      <trkpt lat="44.19747" lon="7.16035">
        <ele>2331</ele>
        <time>2019-08-21T01:47:24Z</time>
      </trkpt>
      <trkpt lat="44.19731" lon="7.16032">
        <ele>2327</ele>
        <time>2019-08-21T01:47:46Z</time>
      </trkpt>
      <trkpt lat="44.1972" lon="7.16018">
        <ele>2315</ele>
        <time>2019-08-21T01:48:05Z</time>
      </trkpt>
      <trkpt lat="44.19707" lon="7.1598">
        <ele>2294</ele>
        <time>2019-08-21T01:48:46Z</time>
      </trkpt>
      <trkpt lat="44.19693" lon="7.15963">
        <ele>2289</ele>
        <time>2019-08-21T01:49:10Z</time>
      </trkpt>
      <trkpt lat="44.1966" lon="7.15949">
        <ele>2286</ele>
        <time>2019-08-21T01:49:57Z</time>
      </trkpt>
      <trkpt lat="44.19597" lon="7.15941">
        <ele>2282</ele>
        <time>2019-08-21T01:51:21Z</time>
      </trkpt>
      <trkpt lat="44.19513" lon="7.15904">
        <ele>2262</ele>
        <time>2019-08-21T01:53:18Z</time>
      </trkpt>
      <trkpt lat="44.19482" lon="7.15902">
        <ele>2261</ele>
        <time>2019-08-21T01:54:00Z</time>
      </trkpt>
      <trkpt lat="44.19409" lon="7.15868">
        <ele>2245</ele>
        <time>2019-08-21T01:55:43Z</time>
      </trkpt>
      <trkpt lat="44.19376" lon="7.1587">
        <ele>2244</ele>
        <time>2019-08-21T01:56:27Z</time>
      </trkpt>
      <trkpt lat="44.19361" lon="7.15883">
        <ele>2248</ele>
        <time>2019-08-21T01:56:50Z</time>
      </trkpt>
      <trkpt lat="44.19346" lon="7.15885">
        <ele>2247</ele>
        <time>2019-08-21T01:57:10Z</time>
      </trkpt>
      <trkpt lat="44.1928" lon="7.15885">
        <ele>2224</ele>
        <time>2019-08-21T01:58:38Z</time>
      </trkpt>
      <trkpt lat="44.19275" lon="7.15893">
        <ele>2224</ele>
        <time>2019-08-21T01:58:49Z</time>
      </trkpt>
      <trkpt lat="44.19271" lon="7.15936">
        <ele>2233</ele>
        <time>2019-08-21T01:59:30Z</time>
      </trkpt>
      <trkpt lat="44.19258" lon="7.15996">
        <ele>2239</ele>
        <time>2019-08-21T02:00:30Z</time>
      </trkpt>
      <trkpt lat="44.19252" lon="7.16048">
        <ele>2244</ele>
        <time>2019-08-21T02:01:20Z</time>
      </trkpt>
      <trkpt lat="44.19241" lon="7.16087">
        <ele>2245</ele>
        <time>2019-08-21T02:02:01Z</time>
      </trkpt>
      <trkpt lat="44.19215" lon="7.16101">
        <ele>2237</ele>
        <time>2019-08-21T02:02:38Z</time>
      </trkpt>
      <trkpt lat="44.19209" lon="7.16113">
        <ele>2237</ele>
        <time>2019-08-21T02:02:52Z</time>
      </trkpt>
      <trkpt lat="44.192" lon="7.16119">
        <ele>2235</ele>
        <time>2019-08-21T02:03:05Z</time>
      </trkpt>
      <trkpt lat="44.19177" lon="7.16108">
        <ele>2225</ele>
        <time>2019-08-21T02:03:37Z</time>
      </trkpt>
      <trkpt lat="44.19144" lon="7.16123">
        <ele>2220</ele>
        <time>2019-08-21T02:04:24Z</time>
      </trkpt>
      <trkpt lat="44.19075" lon="7.16174">
        <ele>2216</ele>
        <time>2019-08-21T02:06:08Z</time>
      </trkpt>
      <trkpt lat="44.1905" lon="7.16221">
        <ele>2214</ele>
        <time>2019-08-21T02:07:04Z</time>
      </trkpt>
      <trkpt lat="44.19037" lon="7.16284">
        <ele>2216</ele>
        <time>2019-08-21T02:08:07Z</time>
      </trkpt>
      <trkpt lat="44.19013" lon="7.16346">
        <ele>2215</ele>
        <time>2019-08-21T02:09:14Z</time>
      </trkpt>
      <trkpt lat="44.19004" lon="7.16345">
        <ele>2212</ele>
        <time>2019-08-21T02:09:26Z</time>
      </trkpt>
      <trkpt lat="44.18997" lon="7.16334">
        <ele>2209</ele>
        <time>2019-08-21T02:09:40Z</time>
      </trkpt>
      <trkpt lat="44.1899" lon="7.16244">
        <ele>2197</ele>
        <time>2019-08-21T02:11:07Z</time>
      </trkpt>
      <trkpt lat="44.18991" lon="7.162">
        <ele>2188</ele>
        <time>2019-08-21T02:11:49Z</time>
      </trkpt>
      <trkpt lat="44.1899" lon="7.16183">
        <ele>2184</ele>
        <time>2019-08-21T02:12:05Z</time>
      </trkpt>
      <trkpt lat="44.18984" lon="7.1614">
        <ele>2171</ele>
        <time>2019-08-21T02:12:47Z</time>
      </trkpt>
      <trkpt lat="44.18994" lon="7.16109">
        <ele>2165</ele>
        <time>2019-08-21T02:13:20Z</time>
      </trkpt>
      <trkpt lat="44.19013" lon="7.16077">
        <ele>2162</ele>
        <time>2019-08-21T02:14:00Z</time>
      </trkpt>
      <trkpt lat="44.19039" lon="7.16049">
        <ele>2161</ele>
        <time>2019-08-21T02:14:43Z</time>
      </trkpt>
      <trkpt lat="44.19044" lon="7.16017">
        <ele>2150</ele>
        <time>2019-08-21T02:15:15Z</time>
      </trkpt>
      <trkpt lat="44.19054" lon="7.1598">
        <ele>2141</ele>
        <time>2019-08-21T02:15:53Z</time>
      </trkpt>
      <trkpt lat="44.1907" lon="7.15888">
        <ele>2121</ele>
        <time>2019-08-21T02:17:23Z</time>
      </trkpt>
      <trkpt lat="44.19087" lon="7.15833">
        <ele>2114</ele>
        <time>2019-08-21T02:18:20Z</time>
      </trkpt>
      <trkpt lat="44.19091" lon="7.15795">
        <ele>2107</ele>
        <time>2019-08-21T02:18:57Z</time>
      </trkpt>
      <trkpt lat="44.19038" lon="7.15828">
        <ele>2096</ele>
        <time>2019-08-21T02:20:15Z</time>
      </trkpt>
      <trkpt lat="44.19026" lon="7.15839">
        <ele>2095</ele>
        <time>2019-08-21T02:20:34Z</time>
      </trkpt>
      <trkpt lat="44.19015" lon="7.15853">
        <ele>2094</ele>
        <time>2019-08-21T02:20:54Z</time>
      </trkpt>
      <trkpt lat="44.19011" lon="7.15861">
        <ele>2094</ele>
        <time>2019-08-21T02:21:03Z</time>
      </trkpt>
      <trkpt lat="44.1899" lon="7.15923">
        <ele>2101</ele>
        <time>2019-08-21T02:22:09Z</time>
      </trkpt>
      <trkpt lat="44.18984" lon="7.15931">
        <ele>2102</ele>
        <time>2019-08-21T02:22:20Z</time>
      </trkpt>
      <trkpt lat="44.18897" lon="7.15989">
        <ele>2095</ele>
        <time>2019-08-21T02:24:28Z</time>
      </trkpt>
      <trkpt lat="44.18872" lon="7.16011">
        <ele>2094</ele>
        <time>2019-08-21T02:25:08Z</time>
      </trkpt>
      <trkpt lat="44.18858" lon="7.16018">
        <ele>2092</ele>
        <time>2019-08-21T02:25:28Z</time>
      </trkpt>
      <trkpt lat="44.18831" lon="7.16028">
        <ele>2087</ele>
        <time>2019-08-21T02:26:05Z</time>
      </trkpt>
      <trkpt lat="44.18786" lon="7.16038">
        <ele>2084</ele>
        <time>2019-08-21T02:27:06Z</time>
      </trkpt>
      <trkpt lat="44.18741" lon="7.16054">
        <ele>2081</ele>
        <time>2019-08-21T02:28:08Z</time>
      </trkpt>
      <trkpt lat="44.18724" lon="7.16061">
        <ele>2079</ele>
        <time>2019-08-21T02:28:31Z</time>
      </trkpt>
      <trkpt lat="44.18675" lon="7.16095">
        <ele>2077</ele>
        <time>2019-08-21T02:29:44Z</time>
      </trkpt>
      <trkpt lat="44.18647" lon="7.16124">
        <ele>2078</ele>
        <time>2019-08-21T02:30:31Z</time>
      </trkpt>
      <trkpt lat="44.18639" lon="7.16128">
        <ele>2077</ele>
        <time>2019-08-21T02:30:42Z</time>
      </trkpt>
      <trkpt lat="44.18634" lon="7.16127">
        <ele>2076</ele>
        <time>2019-08-21T02:30:49Z</time>
      </trkpt>
      <trkpt lat="44.18631" lon="7.16123">
        <ele>2073</ele>
        <time>2019-08-21T02:30:55Z</time>
      </trkpt>
      <trkpt lat="44.18627" lon="7.16129">
        <ele>2074</ele>
        <time>2019-08-21T02:31:02Z</time>
      </trkpt>
      <trkpt lat="44.18474" lon="7.16391">
        <ele>2099</ele>
        <time>2019-08-21T02:36:26Z</time>
      </trkpt>
      <trkpt lat="44.1842" lon="7.16629">
        <ele>2130</ele>
        <time>2019-08-21T02:40:25Z</time>
      </trkpt>
      <trkpt lat="44.18461" lon="7.16712">
        <ele>2154</ele>
        <time>2019-08-21T02:42:01Z</time>
      </trkpt>
      <trkpt lat="44.18457" lon="7.16813">
        <ele>2165</ele>
        <time>2019-08-21T02:43:38Z</time>
      </trkpt>
      <trkpt lat="44.18479" lon="7.16893">
        <ele>2183</ele>
        <time>2019-08-21T02:45:00Z</time>
      </trkpt>
      <trkpt lat="44.18497" lon="7.16972">
        <ele>2195</ele>
        <time>2019-08-21T02:46:19Z</time>
      </trkpt>
      <trkpt lat="44.18451" lon="7.17142">
        <ele>2195</ele>
        <time>2019-08-21T02:49:13Z</time>
      </trkpt>
      <trkpt lat="44.1842" lon="7.17394">
        <ele>2197</ele>
        <time>2019-08-21T02:53:18Z</time>
      </trkpt>
      <trkpt lat="44.18423" lon="7.17453">
        <ele>2204</ele>
        <time>2019-08-21T02:54:14Z</time>
      </trkpt>
      <trkpt lat="44.18459" lon="7.17467">
        <ele>2220</ele>
        <time>2019-08-21T02:55:04Z</time>
      </trkpt>
      <trkpt lat="44.18487" lon="7.17564">
        <ele>2236</ele>
        <time>2019-08-21T02:56:44Z</time>
      </trkpt>
      <trkpt lat="44.18505" lon="7.17683">
        <ele>2251</ele>
        <time>2019-08-21T02:58:41Z</time>
      </trkpt>
      <trkpt lat="44.18482" lon="7.17802">
        <ele>2269</ele>
        <time>2019-08-21T03:00:39Z</time>
      </trkpt>
      <trkpt lat="44.1843" lon="7.17831">
        <ele>2271</ele>
        <time>2019-08-21T03:01:53Z</time>
      </trkpt>
      <trkpt lat="44.18435" lon="7.17907">
        <ele>2283</ele>
        <time>2019-08-21T03:03:06Z</time>
      </trkpt>
      <trkpt lat="44.18396" lon="7.17983">
        <ele>2292</ele>
        <time>2019-08-21T03:04:36Z</time>
      </trkpt>
      <trkpt lat="44.18397" lon="7.18066">
        <ele>2309</ele>
        <time>2019-08-21T03:05:55Z</time>
      </trkpt>
      <trkpt lat="44.1836" lon="7.18123">
        <ele>2317</ele>
        <time>2019-08-21T03:07:09Z</time>
      </trkpt>
      <trkpt lat="44.18357" lon="7.18174">
        <ele>2331</ele>
        <time>2019-08-21T03:07:58Z</time>
      </trkpt>
      <trkpt lat="44.18402" lon="7.18287">
        <ele>2360</ele>
        <time>2019-08-21T03:10:01Z</time>
      </trkpt>
      <trkpt lat="44.1841" lon="7.18206">
        <ele>2346</ele>
        <time>2019-08-21T03:11:20Z</time>
      </trkpt>
      <trkpt lat="44.18405" lon="7.18203">
        <ele>2345</ele>
        <time>2019-08-21T03:11:27Z</time>
      </trkpt>
      <trkpt lat="44.18435" lon="7.18237">
        <ele>2362</ele>
        <time>2019-08-21T03:12:19Z</time>
      </trkpt>
      <trkpt lat="44.18485" lon="7.18185">
        <ele>2373</ele>
        <time>2019-08-21T03:13:42Z</time>
      </trkpt>
      <trkpt lat="44.18478" lon="7.18297">
        <ele>2387</ele>
        <time>2019-08-21T03:15:29Z</time>
      </trkpt>
      <trkpt lat="44.18509" lon="7.18315">
        <ele>2400</ele>
        <time>2019-08-21T03:16:14Z</time>
      </trkpt>
      <trkpt lat="44.18542" lon="7.18211">
        <ele>2400</ele>
        <time>2019-08-21T03:18:03Z</time>
      </trkpt>
      <trkpt lat="44.18577" lon="7.18149">
        <ele>2397</ele>
        <time>2019-08-21T03:19:19Z</time>
      </trkpt>
      <trkpt lat="44.18688" lon="7.18186">
        <ele>2420</ele>
        <time>2019-08-21T03:21:51Z</time>
      </trkpt>
      <trkpt lat="44.1876" lon="7.18233">
        <ele>2430</ele>
        <time>2019-08-21T03:23:37Z</time>
      </trkpt>
      <trkpt lat="44.18757" lon="7.18242">
        <ele>2429</ele>
        <time>2019-08-21T03:23:46Z</time>
      </trkpt>
      <trkpt lat="44.18787" lon="7.18273">
        <ele>2432</ele>
        <time>2019-08-21T03:24:36Z</time>
      </trkpt>
      <trkpt lat="44.18794" lon="7.18271">
        <ele>2433</ele>
        <time>2019-08-21T03:24:46Z</time>
      </trkpt>
      <trkpt lat="44.19005" lon="7.18232">
        <ele>2452</ele>
        <time>2019-08-21T03:29:30Z</time>
      </trkpt>
      <trkpt lat="44.19093" lon="7.18227">
        <ele>2469</ele>
        <time>2019-08-21T03:31:27Z</time>
      </trkpt>
      <trkpt lat="44.19134" lon="7.18269">
        <ele>2477</ele>
        <time>2019-08-21T03:32:35Z</time>
      </trkpt>
      <trkpt lat="44.19168" lon="7.18372">
        <ele>2477</ele>
        <time>2019-08-21T03:34:24Z</time>
      </trkpt>
      <trkpt lat="44.19209" lon="7.18413">
        <ele>2486</ele>
        <time>2019-08-21T03:35:31Z</time>
      </trkpt>
      <trkpt lat="44.19214" lon="7.18448">
        <ele>2485</ele>
        <time>2019-08-21T03:36:05Z</time>
      </trkpt>
      <trkpt lat="44.19277" lon="7.18553">
        <ele>2500</ele>
        <time>2019-08-21T03:38:16Z</time>
      </trkpt>
      <trkpt lat="44.19278" lon="7.18747">
        <ele>2511</ele>
        <time>2019-08-21T03:41:22Z</time>
      </trkpt>
      <trkpt lat="44.19282" lon="7.18748">
        <ele>2514</ele>
        <time>2019-08-21T03:41:27Z</time>
      </trkpt>
      <trkpt lat="44.19222" lon="7.1888">
        <ele>2522</ele>
        <time>2019-08-21T03:43:57Z</time>
      </trkpt>
      <trkpt lat="44.19192" lon="7.1904">
        <ele>2551</ele>
        <time>2019-08-21T03:46:35Z</time>
      </trkpt>
      <trkpt lat="44.1906" lon="7.19176">
        <ele>2568</ele>
        <time>2019-08-21T03:50:14Z</time>
      </trkpt>
      <trkpt lat="44.19" lon="7.19259">
        <ele>2590</ele>
        <time>2019-08-21T03:52:07Z</time>
      </trkpt>
      <trkpt lat="44.19227" lon="7.19181">
        <ele>2605</ele>
        <time>2019-08-21T03:57:19Z</time>
      </trkpt>
      <trkpt lat="44.19269" lon="7.19188">
        <ele>2616</ele>
        <time>2019-08-21T03:58:15Z</time>
      </trkpt>
      <trkpt lat="44.19162" lon="7.19313">
        <ele>2588</ele>
        <time>2019-08-21T04:01:21Z</time>
      </trkpt>
      <trkpt lat="44.1911" lon="7.19428">
        <ele>2554</ele>
        <time>2019-08-21T04:03:32Z</time>
      </trkpt>
      <trkpt lat="44.1917" lon="7.19402">
        <ele>2549</ele>
        <time>2019-08-21T04:04:55Z</time>
      </trkpt>
      <trkpt lat="44.19177" lon="7.19393">
        <ele>2551</ele>
        <time>2019-08-21T04:05:08Z</time>
      </trkpt>
      <trkpt lat="44.19179" lon="7.19384">
        <ele>2555</ele>
        <time>2019-08-21T04:05:17Z</time>
      </trkpt>
      <trkpt lat="44.1917" lon="7.19445">
        <ele>2533</ele>
        <time>2019-08-21T04:06:17Z</time>
      </trkpt>
      <trkpt lat="44.19231" lon="7.19438">
        <ele>2525</ele>
        <time>2019-08-21T04:07:38Z</time>
      </trkpt>
      <trkpt lat="44.19308" lon="7.19473">
        <ele>2507</ele>
        <time>2019-08-21T04:09:26Z</time>
      </trkpt>
      <trkpt lat="44.19356" lon="7.19465">
        <ele>2513</ele>
        <time>2019-08-21T04:10:31Z</time>
      </trkpt>
      <trkpt lat="44.19437" lon="7.19515">
        <ele>2495</ele>
        <time>2019-08-21T04:12:29Z</time>
      </trkpt>
      <trkpt lat="44.19441" lon="7.19584">
        <ele>2480</ele>
        <time>2019-08-21T04:13:35Z</time>
      </trkpt>
      <trkpt lat="44.1946" lon="7.19661">
        <ele>2466</ele>
        <time>2019-08-21T04:14:53Z</time>
      </trkpt>
      <trkpt lat="44.19415" lon="7.19714">
        <ele>2466</ele>
        <time>2019-08-21T04:16:12Z</time>
      </trkpt>
      <trkpt lat="44.19393" lon="7.19737">
        <ele>2463</ele>
        <time>2019-08-21T04:16:49Z</time>
      </trkpt>
      <trkpt lat="44.19387" lon="7.1983">
        <ele>2457</ele>
        <time>2019-08-21T04:18:18Z</time>
      </trkpt>
      <trkpt lat="44.19364" lon="7.19885">
        <ele>2452</ele>
        <time>2019-08-21T04:19:19Z</time>
      </trkpt>
      <trkpt lat="44.19364" lon="7.19988">
        <ele>2435</ele>
        <time>2019-08-21T04:20:57Z</time>
      </trkpt>
      <trkpt lat="44.19316" lon="7.20068">
        <ele>2432</ele>
        <time>2019-08-21T04:22:37Z</time>
      </trkpt>
      <trkpt lat="44.19324" lon="7.20141">
        <ele>2430</ele>
        <time>2019-08-21T04:23:48Z</time>
      </trkpt>
      <trkpt lat="44.19406" lon="7.20054">
        <ele>2407</ele>
        <time>2019-08-21T04:26:05Z</time>
      </trkpt>
      <trkpt lat="44.19436" lon="7.2005">
        <ele>2396</ele>
        <time>2019-08-21T04:26:46Z</time>
      </trkpt>
      <trkpt lat="44.1948" lon="7.2007">
        <ele>2375</ele>
        <time>2019-08-21T04:27:47Z</time>
      </trkpt>
      <trkpt lat="44.19486" lon="7.20139">
        <ele>2359</ele>
        <time>2019-08-21T04:28:54Z</time>
      </trkpt>
      <trkpt lat="44.19517" lon="7.20095">
        <ele>2359</ele>
        <time>2019-08-21T04:29:53Z</time>
      </trkpt>
      <trkpt lat="44.19558" lon="7.20133">
        <ele>2344</ele>
        <time>2019-08-21T04:30:59Z</time>
      </trkpt>
      <trkpt lat="44.19542" lon="7.20194">
        <ele>2336</ele>
        <time>2019-08-21T04:32:01Z</time>
      </trkpt>
      <trkpt lat="44.19558" lon="7.20183">
        <ele>2335</ele>
        <time>2019-08-21T04:32:25Z</time>
      </trkpt>
      <trkpt lat="44.19672" lon="7.20218">
        <ele>2302</ele>
        <time>2019-08-21T04:35:00Z</time>
      </trkpt>
      <trkpt lat="44.19732" lon="7.20186">
        <ele>2300</ele>
        <time>2019-08-21T04:36:26Z</time>
      </trkpt>
      <trkpt lat="44.19791" lon="7.20209">
        <ele>2289</ele>
        <time>2019-08-21T04:37:48Z</time>
      </trkpt>
      <trkpt lat="44.19807" lon="7.20305">
        <ele>2276</ele>
        <time>2019-08-21T04:39:22Z</time>
      </trkpt>
      <trkpt lat="44.1982" lon="7.20378">
        <ele>2273</ele>
        <time>2019-08-21T04:40:34Z</time>
      </trkpt>
      <trkpt lat="44.19851" lon="7.20437">
        <ele>2275</ele>
        <time>2019-08-21T04:41:44Z</time>
      </trkpt>
      <trkpt lat="44.19867" lon="7.20588">
        <ele>2277</ele>
        <time>2019-08-21T04:44:10Z</time>
      </trkpt>
      <trkpt lat="44.1986" lon="7.20594">
        <ele>2276</ele>
        <time>2019-08-21T04:44:21Z</time>
      </trkpt>
      <trkpt lat="44.19861" lon="7.20663">
        <ele>2274</ele>
        <time>2019-08-21T04:45:27Z</time>
      </trkpt>
      <trkpt lat="44.19858" lon="7.20744">
        <ele>2267</ele>
        <time>2019-08-21T04:46:45Z</time>
      </trkpt>
      <trkpt lat="44.19846" lon="7.20753">
        <ele>2266</ele>
        <time>2019-08-21T04:47:03Z</time>
      </trkpt>
      <trkpt lat="44.19778" lon="7.2085">
        <ele>2282</ele>
        <time>2019-08-21T04:49:13Z</time>
      </trkpt>
      <trkpt lat="44.19741" lon="7.20828">
        <ele>2295</ele>
        <time>2019-08-21T04:50:06Z</time>
      </trkpt>
      <trkpt lat="44.19739" lon="7.20825">
        <ele>2296</ele>
        <time>2019-08-21T04:50:10Z</time>
      </trkpt>
      <trkpt lat="44.19743" lon="7.20835">
        <ele>2295</ele>
        <time>2019-08-21T04:50:21Z</time>
      </trkpt>
      <trkpt lat="44.19703" lon="7.20784">
        <ele>2316</ele>
        <time>2019-08-21T04:51:33Z</time>
      </trkpt>
      <trkpt lat="44.19722" lon="7.20858">
        <ele>2308</ele>
        <time>2019-08-21T04:52:49Z</time>
      </trkpt>
      <trkpt lat="44.19699" lon="7.20875">
        <ele>2321</ele>
        <time>2019-08-21T04:53:23Z</time>
      </trkpt>
      <trkpt lat="44.19706" lon="7.20919">
        <ele>2316</ele>
        <time>2019-08-21T04:54:07Z</time>
      </trkpt>
      <trkpt lat="44.19681" lon="7.20923">
        <ele>2329</ele>
        <time>2019-08-21T04:54:40Z</time>
      </trkpt>
      <trkpt lat="44.19686" lon="7.20945">
        <ele>2324</ele>
        <time>2019-08-21T04:55:02Z</time>
      </trkpt>
      <trkpt lat="44.19559" lon="7.20972">
        <ele>2314</ele>
        <time>2019-08-21T04:57:54Z</time>
      </trkpt>
      <trkpt lat="44.19463" lon="7.21045">
        <ele>2305</ele>
        <time>2019-08-21T05:00:20Z</time>
      </trkpt>
      <trkpt lat="44.19427" lon="7.21098">
        <ele>2299</ele>
        <time>2019-08-21T05:01:29Z</time>
      </trkpt>
      <trkpt lat="44.19442" lon="7.21128">
        <ele>2297</ele>
        <time>2019-08-21T05:02:04Z</time>
      </trkpt>
      <trkpt lat="44.19334" lon="7.21266">
        <ele>2293</ele>
        <time>2019-08-21T05:05:20Z</time>
      </trkpt>
      <trkpt lat="44.19227" lon="7.21241">
        <ele>2308</ele>
        <time>2019-08-21T05:07:45Z</time>
      </trkpt>
      <trkpt lat="44.1915" lon="7.21253">
        <ele>2311</ele>
        <time>2019-08-21T05:09:28Z</time>
      </trkpt>
      <trkpt lat="44.19121" lon="7.21194">
        <ele>2327</ele>
        <time>2019-08-21T05:10:36Z</time>
      </trkpt>
      <trkpt lat="44.19087" lon="7.21194">
        <ele>2331</ele>
        <time>2019-08-21T05:11:22Z</time>
      </trkpt>
      <trkpt lat="44.19038" lon="7.21137">
        <ele>2341</ele>
        <time>2019-08-21T05:12:47Z</time>
      </trkpt>
      <trkpt lat="44.1885" lon="7.21265">
        <ele>2343</ele>
        <time>2019-08-21T05:17:26Z</time>
      </trkpt>
      <trkpt lat="44.18805" lon="7.21254">
        <ele>2346</ele>
        <time>2019-08-21T05:18:27Z</time>
      </trkpt>
      <trkpt lat="44.18754" lon="7.21247">
        <ele>2345</ele>
        <time>2019-08-21T05:19:36Z</time>
      </trkpt>
      <trkpt lat="44.18633" lon="7.21293">
        <ele>2354</ele>
        <time>2019-08-21T05:22:23Z</time>
      </trkpt>
      <trkpt lat="44.18561" lon="7.21337">
        <ele>2373</ele>
        <time>2019-08-21T05:24:08Z</time>
      </trkpt>
      <trkpt lat="44.18548" lon="7.21367">
        <ele>2373</ele>
        <time>2019-08-21T05:24:41Z</time>
      </trkpt>
      <trkpt lat="44.18541" lon="7.21369">
        <ele>2376</ele>
        <time>2019-08-21T05:24:51Z</time>
      </trkpt>
      <trkpt lat="44.18532" lon="7.21419">
        <ele>2369</ele>
        <time>2019-08-21T05:25:40Z</time>
      </trkpt>
      <trkpt lat="44.18507" lon="7.21529">
        <ele>2339</ele>
        <time>2019-08-21T05:27:31Z</time>
      </trkpt>
      <trkpt lat="44.18436" lon="7.21554">
        <ele>2348</ele>
        <time>2019-08-21T05:29:08Z</time>
      </trkpt>
      <trkpt lat="44.18452" lon="7.21612">
        <ele>2324</ele>
        <time>2019-08-21T05:30:08Z</time>
      </trkpt>
      <trkpt lat="44.18435" lon="7.21742">
        <ele>2295</ele>
        <time>2019-08-21T05:32:14Z</time>
      </trkpt>
      <trkpt lat="44.18379" lon="7.21822">
        <ele>2303</ele>
        <time>2019-08-21T05:34:01Z</time>
      </trkpt>
      <trkpt lat="44.1833" lon="7.21961">
        <ele>2298</ele>
        <time>2019-08-21T05:36:29Z</time>
      </trkpt>
      <trkpt lat="44.18286" lon="7.22142">
        <ele>2288</ele>
        <time>2019-08-21T05:39:32Z</time>
      </trkpt>
      <trkpt lat="44.18305" lon="7.22172">
        <ele>2271</ele>
        <time>2019-08-21T05:40:11Z</time>
      </trkpt>
      <trkpt lat="44.18345" lon="7.22135">
        <ele>2250</ele>
        <time>2019-08-21T05:41:15Z</time>
      </trkpt>
      <trkpt lat="44.18332" lon="7.22416">
        <ele>2211</ele>
        <time>2019-08-21T05:45:44Z</time>
      </trkpt>
      <trkpt lat="44.18294" lon="7.22515">
        <ele>2211</ele>
        <time>2019-08-21T05:47:32Z</time>
      </trkpt>
      <trkpt lat="44.18227" lon="7.2256">
        <ele>2211</ele>
        <time>2019-08-21T05:49:11Z</time>
      </trkpt>
      <trkpt lat="44.18274" lon="7.22617">
        <ele>2234</ele>
        <time>2019-08-21T05:50:34Z</time>
      </trkpt>
      <trkpt lat="44.18401" lon="7.22553">
        <ele>2197</ele>
        <time>2019-08-21T05:53:34Z</time>
      </trkpt>
      <trkpt lat="44.18496" lon="7.22627">
        <ele>2165</ele>
        <time>2019-08-21T05:55:59Z</time>
      </trkpt>
      <trkpt lat="44.18548" lon="7.22819">
        <ele>2159</ele>
        <time>2019-08-21T05:59:16Z</time>
      </trkpt>
      <trkpt lat="44.18624" lon="7.23254">
        <ele>2130</ele>
        <time>2019-08-21T06:06:24Z</time>
      </trkpt>
      <trkpt lat="44.18604" lon="7.23497">
        <ele>2139</ele>
        <time>2019-08-21T06:10:18Z</time>
      </trkpt>
      <trkpt lat="44.18582" lon="7.23526">
        <ele>2150</ele>
        <time>2019-08-21T06:10:59Z</time>
      </trkpt>
      <trkpt lat="44.18579" lon="7.23535">
        <ele>2151</ele>
        <time>2019-08-21T06:11:08Z</time>
      </trkpt>
      <trkpt lat="44.18608" lon="7.23591">
        <ele>2137</ele>
        <time>2019-08-21T06:12:14Z</time>
      </trkpt>
      <trkpt lat="44.18582" lon="7.23633">
        <ele>2147</ele>
        <time>2019-08-21T06:13:07Z</time>
      </trkpt>
      <trkpt lat="44.18579" lon="7.23642">
        <ele>2149</ele>
        <time>2019-08-21T06:13:17Z</time>
      </trkpt>
      <trkpt lat="44.18602" lon="7.23678">
        <ele>2148</ele>
        <time>2019-08-21T06:14:03Z</time>
      </trkpt>
      <trkpt lat="44.18553" lon="7.23733">
        <ele>2175</ele>
        <time>2019-08-21T06:15:27Z</time>
      </trkpt>
      <trkpt lat="44.18518" lon="7.23809">
        <ele>2190</ele>
        <time>2019-08-21T06:16:53Z</time>
      </trkpt>
      <trkpt lat="44.18513" lon="7.23811">
        <ele>2190</ele>
        <time>2019-08-21T06:17:00Z</time>
      </trkpt>
      <trkpt lat="44.18477" lon="7.23871">
        <ele>2203</ele>
        <time>2019-08-21T06:18:15Z</time>
      </trkpt>
      <trkpt lat="44.18394" lon="7.24042">
        <ele>2232</ele>
        <time>2019-08-21T06:21:33Z</time>
      </trkpt>
      <trkpt lat="44.18303" lon="7.24181">
        <ele>2247</ele>
        <time>2019-08-21T06:24:33Z</time>
      </trkpt>
      <trkpt lat="44.18308" lon="7.24266">
        <ele>2268</ele>
        <time>2019-08-21T06:25:55Z</time>
      </trkpt>
      <trkpt lat="44.18301" lon="7.24309">
        <ele>2273</ele>
        <time>2019-08-21T06:26:37Z</time>
      </trkpt>
      <trkpt lat="44.18293" lon="7.24393">
        <ele>2293</ele>
        <time>2019-08-21T06:27:58Z</time>
      </trkpt>
      <trkpt lat="44.18245" lon="7.24455">
        <ele>2296</ele>
        <time>2019-08-21T06:29:25Z</time>
      </trkpt>
      <trkpt lat="44.18236" lon="7.24617">
        <ele>2325</ele>
        <time>2019-08-21T06:32:01Z</time>
      </trkpt>
      <trkpt lat="44.18142" lon="7.24793">
        <ele>2377</ele>
        <time>2019-08-21T06:35:31Z</time>
      </trkpt>
      <trkpt lat="44.18119" lon="7.2471">
        <ele>2356</ele>
        <time>2019-08-21T06:36:56Z</time>
      </trkpt>
      <trkpt lat="44.17969" lon="7.24738">
        <ele>2413</ele>
        <time>2019-08-21T06:40:18Z</time>
      </trkpt>
      <trkpt lat="44.17964" lon="7.2475">
        <ele>2418</ele>
        <time>2019-08-21T06:40:31Z</time>
      </trkpt>
      <trkpt lat="44.17965" lon="7.24828">
        <ele>2424</ele>
        <time>2019-08-21T06:41:46Z</time>
      </trkpt>
      <trkpt lat="44.17963" lon="7.24925">
        <ele>2446</ele>
        <time>2019-08-21T06:43:19Z</time>
      </trkpt>
      <trkpt lat="44.17805" lon="7.25089">
        <ele>2437</ele>
        <time>2019-08-21T06:47:41Z</time>
      </trkpt>
      <trkpt lat="44.17563" lon="7.25147">
        <ele>2369</ele>
        <time>2019-08-21T06:53:09Z</time>
      </trkpt>
      <trkpt lat="44.17491" lon="7.25209">
        <ele>2352</ele>
        <time>2019-08-21T06:55:02Z</time>
      </trkpt>
      <trkpt lat="44.17439" lon="7.25245">
        <ele>2354</ele>
        <time>2019-08-21T06:56:19Z</time>
      </trkpt>
      <trkpt lat="44.17424" lon="7.25235">
        <ele>2357</ele>
        <time>2019-08-21T06:56:42Z</time>
      </trkpt>
      <trkpt lat="44.17404" lon="7.25224">
        <ele>2363</ele>
        <time>2019-08-21T06:57:10Z</time>
      </trkpt>
      <trkpt lat="44.17396" lon="7.25213">
        <ele>2365</ele>
        <time>2019-08-21T06:57:25Z</time>
      </trkpt>
      <trkpt lat="44.17389" lon="7.25213">
        <ele>2367</ele>
        <time>2019-08-21T06:57:35Z</time>
      </trkpt>
      <trkpt lat="44.17274" lon="7.25219">
        <ele>2391</ele>
        <time>2019-08-21T07:00:08Z</time>
      </trkpt>
      <trkpt lat="44.17225" lon="7.25214">
        <ele>2395</ele>
        <time>2019-08-21T07:01:14Z</time>
      </trkpt>
      <trkpt lat="44.17134" lon="7.25181">
        <ele>2394</ele>
        <time>2019-08-21T07:03:19Z</time>
      </trkpt>
      <trkpt lat="44.1712" lon="7.25146">
        <ele>2396</ele>
        <time>2019-08-21T07:03:58Z</time>
      </trkpt>
      <trkpt lat="44.17094" lon="7.25212">
        <ele>2389</ele>
        <time>2019-08-21T07:05:10Z</time>
      </trkpt>
      <trkpt lat="44.17033" lon="7.25273">
        <ele>2388</ele>
        <time>2019-08-21T07:06:50Z</time>
      </trkpt>
      <trkpt lat="44.1694" lon="7.25293">
        <ele>2396</ele>
        <time>2019-08-21T07:08:56Z</time>
      </trkpt>
      <trkpt lat="44.1689" lon="7.25282">
        <ele>2406</ele>
        <time>2019-08-21T07:10:03Z</time>
      </trkpt>
      <trkpt lat="44.1678" lon="7.25276">
        <ele>2406</ele>
        <time>2019-08-21T07:12:30Z</time>
      </trkpt>
      <trkpt lat="44.16562" lon="7.25322">
        <ele>2393</ele>
        <time>2019-08-21T07:17:24Z</time>
      </trkpt>
      <trkpt lat="44.16538" lon="7.25361">
        <ele>2393</ele>
        <time>2019-08-21T07:18:13Z</time>
      </trkpt>
      <trkpt lat="44.16502" lon="7.25367">
        <ele>2388</ele>
        <time>2019-08-21T07:19:02Z</time>
      </trkpt>
      <trkpt lat="44.16488" lon="7.25325">
        <ele>2383</ele>
        <time>2019-08-21T07:19:46Z</time>
      </trkpt>
      <trkpt lat="44.16455" lon="7.25341">
        <ele>2381</ele>
        <time>2019-08-21T07:20:33Z</time>
      </trkpt>
      <trkpt lat="44.1646" lon="7.25292">
        <ele>2381</ele>
        <time>2019-08-21T07:21:20Z</time>
      </trkpt>
      <trkpt lat="44.16362" lon="7.25208">
        <ele>2400</ele>
        <time>2019-08-21T07:23:54Z</time>
      </trkpt>
      <trkpt lat="44.16342" lon="7.25209">
        <ele>2403</ele>
        <time>2019-08-21T07:24:20Z</time>
      </trkpt>
      <trkpt lat="44.16335" lon="7.25159">
        <ele>2409</ele>
        <time>2019-08-21T07:25:09Z</time>
      </trkpt>
      <trkpt lat="44.16312" lon="7.25216">
        <ele>2409</ele>
        <time>2019-08-21T07:26:12Z</time>
      </trkpt>
      <trkpt lat="44.16282" lon="7.25192">
        <ele>2416</ele>
        <time>2019-08-21T07:26:58Z</time>
      </trkpt>
      <trkpt lat="44.16285" lon="7.25217">
        <ele>2416</ele>
        <time>2019-08-21T07:27:22Z</time>
      </trkpt>
      <trkpt lat="44.16263" lon="7.25212">
        <ele>2421</ele>
        <time>2019-08-21T07:27:52Z</time>
      </trkpt>
      <trkpt lat="44.16265" lon="7.25259">
        <ele>2423</ele>
        <time>2019-08-21T07:28:37Z</time>
      </trkpt>
      <trkpt lat="44.1623" lon="7.2524">
        <ele>2431</ele>
        <time>2019-08-21T07:29:27Z</time>
      </trkpt>
      <trkpt lat="44.16235" lon="7.25291">
        <ele>2434</ele>
        <time>2019-08-21T07:30:16Z</time>
      </trkpt>
      <trkpt lat="44.16158" lon="7.2525">
        <ele>2451</ele>
        <time>2019-08-21T07:32:06Z</time>
      </trkpt>
      <trkpt lat="44.16199" lon="7.25285">
        <ele>2446</ele>
        <time>2019-08-21T07:33:10Z</time>
      </trkpt>
      <trkpt lat="44.1614" lon="7.25292">
        <ele>2466</ele>
        <time>2019-08-21T07:34:29Z</time>
      </trkpt>
      <trkpt lat="44.16181" lon="7.25324">
        <ele>2460</ele>
        <time>2019-08-21T07:35:32Z</time>
      </trkpt>
      <trkpt lat="44.16106" lon="7.25305">
        <ele>2479</ele>
        <time>2019-08-21T07:37:14Z</time>
      </trkpt>
      <trkpt lat="44.16136" lon="7.25342">
        <ele>2477</ele>
        <time>2019-08-21T07:38:07Z</time>
      </trkpt>
      <trkpt lat="44.16095" lon="7.25338">
        <ele>2487</ele>
        <time>2019-08-21T07:39:02Z</time>
      </trkpt>
      <trkpt lat="44.16067" lon="7.25354">
        <ele>2493</ele>
        <time>2019-08-21T07:39:43Z</time>
      </trkpt>
      <trkpt lat="44.16099" lon="7.25354">
        <ele>2487</ele>
        <time>2019-08-21T07:40:25Z</time>
      </trkpt>
      <trkpt lat="44.16073" lon="7.25374">
        <ele>2495</ele>
        <time>2019-08-21T07:41:05Z</time>
      </trkpt>
      <trkpt lat="44.16003" lon="7.2539">
        <ele>2505</ele>
        <time>2019-08-21T07:42:40Z</time>
      </trkpt>
      <trkpt lat="44.16002" lon="7.25418">
        <ele>2509</ele>
        <time>2019-08-21T07:43:06Z</time>
      </trkpt>
      <trkpt lat="44.15975" lon="7.25397">
        <ele>2509</ele>
        <time>2019-08-21T07:43:48Z</time>
      </trkpt>
      <trkpt lat="44.15881" lon="7.25395">
        <ele>2518</ele>
        <time>2019-08-21T07:45:53Z</time>
      </trkpt>
      <trkpt lat="44.15831" lon="7.25459">
        <ele>2518</ele>
        <time>2019-08-21T07:47:24Z</time>
      </trkpt>
      <trkpt lat="44.15751" lon="7.2548">
        <ele>2517</ele>
        <time>2019-08-21T07:49:12Z</time>
      </trkpt>
      <trkpt lat="44.15716" lon="7.25512">
        <ele>2530</ele>
        <time>2019-08-21T07:50:08Z</time>
      </trkpt>
      <trkpt lat="44.15665" lon="7.25595">
        <ele>2553</ele>
        <time>2019-08-21T07:51:53Z</time>
      </trkpt>
      <trkpt lat="44.1563" lon="7.25526">
        <ele>2571</ele>
        <time>2019-08-21T07:53:14Z</time>
      </trkpt>
      <trkpt lat="44.15603" lon="7.25574">
        <ele>2588</ele>
        <time>2019-08-21T07:54:12Z</time>
      </trkpt>
      <trkpt lat="44.15603" lon="7.25521">
        <ele>2584</ele>
        <time>2019-08-21T07:55:03Z</time>
      </trkpt>
      <trkpt lat="44.15583" lon="7.2555">
        <ele>2596</ele>
        <time>2019-08-21T07:55:41Z</time>
      </trkpt>
      <trkpt lat="44.15569" lon="7.25524">
        <ele>2591</ele>
        <time>2019-08-21T07:56:13Z</time>
      </trkpt>
      <trkpt lat="44.1554" lon="7.25565">
        <ele>2589</ele>
        <time>2019-08-21T07:57:08Z</time>
      </trkpt>
      <trkpt lat="44.15527" lon="7.25555">
        <ele>2585</ele>
        <time>2019-08-21T07:57:27Z</time>
      </trkpt>
      <trkpt lat="44.15497" lon="7.25577">
        <ele>2580</ele>
        <time>2019-08-21T07:58:13Z</time>
      </trkpt>
      <trkpt lat="44.15502" lon="7.25368">
        <ele>2564</ele>
        <time>2019-08-21T08:01:33Z</time>
      </trkpt>
      <trkpt lat="44.15454" lon="7.25573">
        <ele>2555</ele>
        <time>2019-08-21T08:04:59Z</time>
      </trkpt>
      <trkpt lat="44.15434" lon="7.25521">
        <ele>2538</ele>
        <time>2019-08-21T08:05:56Z</time>
      </trkpt>
      <trkpt lat="44.15419" lon="7.25548">
        <ele>2533</ele>
        <time>2019-08-21T08:06:29Z</time>
      </trkpt>
      <trkpt lat="44.15414" lon="7.2551">
        <ele>2525</ele>
        <time>2019-08-21T08:07:06Z</time>
      </trkpt>
      <trkpt lat="44.15371" lon="7.25572">
        <ele>2512</ele>
        <time>2019-08-21T08:08:28Z</time>
      </trkpt>
      <trkpt lat="44.15379" lon="7.25498">
        <ele>2508</ele>
        <time>2019-08-21T08:09:40Z</time>
      </trkpt>
      <trkpt lat="44.15339" lon="7.25573">
        <ele>2497</ele>
        <time>2019-08-21T08:11:09Z</time>
      </trkpt>
      <trkpt lat="44.15348" lon="7.25517">
        <ele>2495</ele>
        <time>2019-08-21T08:12:04Z</time>
      </trkpt>
      <trkpt lat="44.15309" lon="7.25536">
        <ele>2484</ele>
        <time>2019-08-21T08:12:59Z</time>
      </trkpt>
      <trkpt lat="44.15311" lon="7.25486">
        <ele>2480</ele>
        <time>2019-08-21T08:13:47Z</time>
      </trkpt>
      <trkpt lat="44.15287" lon="7.25537">
        <ele>2478</ele>
        <time>2019-08-21T08:14:46Z</time>
      </trkpt>
      <trkpt lat="44.15267" lon="7.25513">
        <ele>2472</ele>
        <time>2019-08-21T08:15:21Z</time>
      </trkpt>
      <trkpt lat="44.15276" lon="7.25473">
        <ele>2470</ele>
        <time>2019-08-21T08:16:01Z</time>
      </trkpt>
      <trkpt lat="44.15245" lon="7.25471">
        <ele>2463</ele>
        <time>2019-08-21T08:16:42Z</time>
      </trkpt>
      <trkpt lat="44.15262" lon="7.25435">
        <ele>2463</ele>
        <time>2019-08-21T08:17:24Z</time>
      </trkpt>
      <trkpt lat="44.15243" lon="7.25449">
        <ele>2461</ele>
        <time>2019-08-21T08:17:52Z</time>
      </trkpt>
      <trkpt lat="44.15223" lon="7.254">
        <ele>2454</ele>
        <time>2019-08-21T08:18:46Z</time>
      </trkpt>
      <trkpt lat="44.15233" lon="7.25323">
        <ele>2452</ele>
        <time>2019-08-21T08:20:01Z</time>
      </trkpt>
      <trkpt lat="44.15232" lon="7.2526">
        <ele>2440</ele>
        <time>2019-08-21T08:21:02Z</time>
      </trkpt>
      <trkpt lat="44.15234" lon="7.25257">
        <ele>2440</ele>
        <time>2019-08-21T08:21:06Z</time>
      </trkpt>
      <trkpt lat="44.15244" lon="7.2523">
        <ele>2436</ele>
        <time>2019-08-21T08:21:35Z</time>
      </trkpt>
      <trkpt lat="44.15253" lon="7.2513">
        <ele>2414</ele>
        <time>2019-08-21T08:23:11Z</time>
      </trkpt>
      <trkpt lat="44.15218" lon="7.25159">
        <ele>2413</ele>
        <time>2019-08-21T08:24:05Z</time>
      </trkpt>
      <trkpt lat="44.1524" lon="7.25126">
        <ele>2410</ele>
        <time>2019-08-21T08:24:49Z</time>
      </trkpt>
      <trkpt lat="44.15142" lon="7.25196">
        <ele>2406</ele>
        <time>2019-08-21T08:27:16Z</time>
      </trkpt>
      <trkpt lat="44.15131" lon="7.25201">
        <ele>2405</ele>
        <time>2019-08-21T08:27:31Z</time>
      </trkpt>
      <trkpt lat="44.1518" lon="7.25158">
        <ele>2404</ele>
        <time>2019-08-21T08:28:48Z</time>
      </trkpt>
      <trkpt lat="44.15175" lon="7.25061">
        <ele>2383</ele>
        <time>2019-08-21T08:30:21Z</time>
      </trkpt>
      <trkpt lat="44.15161" lon="7.25122">
        <ele>2394</ele>
        <time>2019-08-21T08:31:23Z</time>
      </trkpt>
      <trkpt lat="44.15151" lon="7.25059">
        <ele>2381</ele>
        <time>2019-08-21T08:32:24Z</time>
      </trkpt>
      <trkpt lat="44.15108" lon="7.25008">
        <ele>2370</ele>
        <time>2019-08-21T08:33:40Z</time>
      </trkpt>
      <trkpt lat="44.15192" lon="7.24978">
        <ele>2366</ele>
        <time>2019-08-21T08:35:36Z</time>
      </trkpt>
      <trkpt lat="44.1517" lon="7.24967">
        <ele>2359</ele>
        <time>2019-08-21T08:36:07Z</time>
      </trkpt>
      <trkpt lat="44.15208" lon="7.24929">
        <ele>2356</ele>
        <time>2019-08-21T08:37:09Z</time>
      </trkpt>
      <trkpt lat="44.15168" lon="7.24923">
        <ele>2345</ele>
        <time>2019-08-21T08:38:03Z</time>
      </trkpt>
      <trkpt lat="44.15163" lon="7.24932">
        <ele>2347</ele>
        <time>2019-08-21T08:38:14Z</time>
      </trkpt>
      <trkpt lat="44.15171" lon="7.24901">
        <ele>2341</ele>
        <time>2019-08-21T08:38:45Z</time>
      </trkpt>
      <trkpt lat="44.15123" lon="7.24872">
        <ele>2333</ele>
        <time>2019-08-21T08:39:55Z</time>
      </trkpt>
      <trkpt lat="44.15158" lon="7.24834">
        <ele>2328</ele>
        <time>2019-08-21T08:40:54Z</time>
      </trkpt>
      <trkpt lat="44.15167" lon="7.24794">
        <ele>2322</ele>
        <time>2019-08-21T08:41:34Z</time>
      </trkpt>
      <trkpt lat="44.15151" lon="7.24755">
        <ele>2315</ele>
        <time>2019-08-21T08:42:17Z</time>
      </trkpt>
      <trkpt lat="44.152" lon="7.2466">
        <ele>2313</ele>
        <time>2019-08-21T08:44:09Z</time>
      </trkpt>
      <trkpt lat="44.15234" lon="7.246">
        <ele>2314</ele>
        <time>2019-08-21T08:45:23Z</time>
      </trkpt>
      <trkpt lat="44.15238" lon="7.24522">
        <ele>2308</ele>
        <time>2019-08-21T08:46:38Z</time>
      </trkpt>
      <trkpt lat="44.15224" lon="7.24436">
        <ele>2299</ele>
        <time>2019-08-21T08:48:02Z</time>
      </trkpt>
      <trkpt lat="44.15217" lon="7.24323">
        <ele>2293</ele>
        <time>2019-08-21T08:49:51Z</time>
      </trkpt>
      <trkpt lat="44.15193" lon="7.24306">
        <ele>2288</ele>
        <time>2019-08-21T08:50:26Z</time>
      </trkpt>
      <trkpt lat="44.15171" lon="7.2425">
        <ele>2284</ele>
        <time>2019-08-21T08:51:28Z</time>
      </trkpt>
      <trkpt lat="44.15146" lon="7.24214">
        <ele>2278</ele>
        <time>2019-08-21T08:52:16Z</time>
      </trkpt>
      <trkpt lat="44.15161" lon="7.24175">
        <ele>2278</ele>
        <time>2019-08-21T08:52:58Z</time>
      </trkpt>
      <trkpt lat="44.15182" lon="7.24014">
        <ele>2270</ele>
        <time>2019-08-21T08:55:35Z</time>
      </trkpt>
      <trkpt lat="44.15167" lon="7.23997">
        <ele>2263</ele>
        <time>2019-08-21T08:56:00Z</time>
      </trkpt>
      <trkpt lat="44.15175" lon="7.23913">
        <ele>2250</ele>
        <time>2019-08-21T08:57:22Z</time>
      </trkpt>
      <trkpt lat="44.15162" lon="7.23912">
        <ele>2244</ele>
        <time>2019-08-21T08:57:39Z</time>
      </trkpt>
      <trkpt lat="44.15183" lon="7.23839">
        <ele>2247</ele>
        <time>2019-08-21T08:58:54Z</time>
      </trkpt>
      <trkpt lat="44.15162" lon="7.23752">
        <ele>2228</ele>
        <time>2019-08-21T09:00:22Z</time>
      </trkpt>
      <trkpt lat="44.15147" lon="7.23779">
        <ele>2226</ele>
        <time>2019-08-21T09:00:55Z</time>
      </trkpt>
      <trkpt lat="44.1514" lon="7.23744">
        <ele>2221</ele>
        <time>2019-08-21T09:01:30Z</time>
      </trkpt>
      <trkpt lat="44.15112" lon="7.23764">
        <ele>2214</ele>
        <time>2019-08-21T09:02:12Z</time>
      </trkpt>
      <trkpt lat="44.15115" lon="7.23704">
        <ele>2214</ele>
        <time>2019-08-21T09:03:09Z</time>
      </trkpt>
      <trkpt lat="44.15095" lon="7.2375">
        <ele>2209</ele>
        <time>2019-08-21T09:04:01Z</time>
      </trkpt>
      <trkpt lat="44.15077" lon="7.23745">
        <ele>2205</ele>
        <time>2019-08-21T09:04:25Z</time>
      </trkpt>
      <trkpt lat="44.1506" lon="7.23625">
        <ele>2205</ele>
        <time>2019-08-21T09:06:22Z</time>
      </trkpt>
      <trkpt lat="44.14939" lon="7.23548">
        <ele>2183</ele>
        <time>2019-08-21T09:09:20Z</time>
      </trkpt>
      <trkpt lat="44.14838" lon="7.23649">
        <ele>2158</ele>
        <time>2019-08-21T09:12:06Z</time>
      </trkpt>
      <trkpt lat="44.14759" lon="7.23599">
        <ele>2145</ele>
        <time>2019-08-21T09:14:01Z</time>
      </trkpt>
      <trkpt lat="44.14698" lon="7.23609">
        <ele>2137</ele>
        <time>2019-08-21T09:15:23Z</time>
      </trkpt>
      <trkpt lat="44.14639" lon="7.23607">
        <ele>2129</ele>
        <time>2019-08-21T09:16:42Z</time>
      </trkpt>
      <trkpt lat="44.14625" lon="7.23568">
        <ele>2120</ele>
        <time>2019-08-21T09:17:24Z</time>
      </trkpt>
      <trkpt lat="44.14706" lon="7.23531">
        <ele>2130</ele>
        <time>2019-08-21T09:19:18Z</time>
      </trkpt>
      <trkpt lat="44.14723" lon="7.23489">
        <ele>2130</ele>
        <time>2019-08-21T09:20:04Z</time>
      </trkpt>
      <trkpt lat="44.14629" lon="7.23337">
        <ele>2084</ele>
        <time>2019-08-21T09:23:16Z</time>
      </trkpt>
      <trkpt lat="44.14518" lon="7.23346">
        <ele>2059</ele>
        <time>2019-08-21T09:25:44Z</time>
      </trkpt>
      <trkpt lat="44.14516" lon="7.23352">
        <ele>2059</ele>
        <time>2019-08-21T09:25:51Z</time>
      </trkpt>
      <trkpt lat="44.14483" lon="7.23484">
        <ele>2066</ele>
        <time>2019-08-21T09:28:05Z</time>
      </trkpt>
      <trkpt lat="44.14452" lon="7.23406">
        <ele>2048</ele>
        <time>2019-08-21T09:29:30Z</time>
      </trkpt>
      <trkpt lat="44.14266" lon="7.23499">
        <ele>2045</ele>
        <time>2019-08-21T09:33:54Z</time>
      </trkpt>
      <trkpt lat="44.14191" lon="7.23455">
        <ele>2028</ele>
        <time>2019-08-21T09:35:42Z</time>
      </trkpt>
      <trkpt lat="44.14116" lon="7.23465">
        <ele>2035</ele>
        <time>2019-08-21T09:37:23Z</time>
      </trkpt>
      <trkpt lat="44.14039" lon="7.23324">
        <ele>1999</ele>
        <time>2019-08-21T09:40:13Z</time>
      </trkpt>
      <trkpt lat="44.13977" lon="7.23418">
        <ele>2025</ele>
        <time>2019-08-21T09:42:15Z</time>
      </trkpt>
      <trkpt lat="44.1388" lon="7.2336">
        <ele>2013</ele>
        <time>2019-08-21T09:44:36Z</time>
      </trkpt>
      <trkpt lat="44.13817" lon="7.23511">
        <ele>2027</ele>
        <time>2019-08-21T09:47:23Z</time>
      </trkpt>
      <trkpt lat="44.13781" lon="7.2352">
        <ele>2026</ele>
        <time>2019-08-21T09:48:12Z</time>
      </trkpt>
      <trkpt lat="44.13762" lon="7.23378">
        <ele>2028</ele>
        <time>2019-08-21T09:50:30Z</time>
      </trkpt>
      <trkpt lat="44.13721" lon="7.23296">
        <ele>2038</ele>
        <time>2019-08-21T09:52:06Z</time>
      </trkpt>
      <trkpt lat="44.13664" lon="7.23319">
        <ele>2022</ele>
        <time>2019-08-21T09:53:25Z</time>
      </trkpt>
      <trkpt lat="44.13649" lon="7.2334">
        <ele>2018</ele>
        <time>2019-08-21T09:53:53Z</time>
      </trkpt>
      <trkpt lat="44.137" lon="7.2346">
        <ele>2009</ele>
        <time>2019-08-21T09:56:07Z</time>
      </trkpt>
      <trkpt lat="44.1359" lon="7.23644">
        <ele>1985</ele>
        <time>2019-08-21T09:59:56Z</time>
      </trkpt>
      <trkpt lat="44.13547" lon="7.23806">
        <ele>1971</ele>
        <time>2019-08-21T10:02:42Z</time>
      </trkpt>
      <trkpt lat="44.13512" lon="7.23894">
        <ele>1955</ele>
        <time>2019-08-21T10:04:18Z</time>
      </trkpt>
      <trkpt lat="44.13485" lon="7.23929">
        <ele>1950</ele>
        <time>2019-08-21T10:05:07Z</time>
      </trkpt>
      <trkpt lat="44.13488" lon="7.2402">
        <ele>1944</ele>
        <time>2019-08-21T10:06:34Z</time>
      </trkpt>
      <trkpt lat="44.1345" lon="7.24167">
        <ele>1932</ele>
        <time>2019-08-21T10:09:04Z</time>
      </trkpt>
      <trkpt lat="44.13375" lon="7.24276">
        <ele>1921</ele>
        <time>2019-08-21T10:11:29Z</time>
      </trkpt>
      <trkpt lat="44.13299" lon="7.24423">
        <ele>1910</ele>
        <time>2019-08-21T10:14:22Z</time>
      </trkpt>
      <trkpt lat="44.13285" lon="7.24525">
        <ele>1905</ele>
        <time>2019-08-21T10:16:02Z</time>
      </trkpt>
      <trkpt lat="44.13287" lon="7.24531">
        <ele>1905</ele>
        <time>2019-08-21T10:16:08Z</time>
      </trkpt>
      <trkpt lat="44.13263" lon="7.2461">
        <ele>1896</ele>
        <time>2019-08-21T10:17:30Z</time>
      </trkpt>
      <trkpt lat="44.13218" lon="7.24613">
        <ele>1891</ele>
        <time>2019-08-21T10:18:30Z</time>
      </trkpt>
      <trkpt lat="44.13091" lon="7.24733">
        <ele>1871</ele>
        <time>2019-08-21T10:21:55Z</time>
      </trkpt>
      <trkpt lat="44.13052" lon="7.24855">
        <ele>1857</ele>
        <time>2019-08-21T10:24:03Z</time>
      </trkpt>
      <trkpt lat="44.1294" lon="7.24945">
        <ele>1842</ele>
        <time>2019-08-21T10:26:56Z</time>
      </trkpt>
      <trkpt lat="44.12848" lon="7.25168">
        <ele>1806</ele>
        <time>2019-08-21T10:31:02Z</time>
      </trkpt>
      <trkpt lat="44.12751" lon="7.25338">
        <ele>1770</ele>
        <time>2019-08-21T10:34:30Z</time>
      </trkpt>
      <trkpt lat="44.12673" lon="7.25522">
        <ele>1748</ele>
        <time>2019-08-21T10:37:55Z</time>
      </trkpt>
      <trkpt lat="44.12694" lon="7.25643">
        <ele>1737</ele>
        <time>2019-08-21T10:39:54Z</time>
      </trkpt>
      <trkpt lat="44.12623" lon="7.2578">
        <ele>1725</ele>
        <time>2019-08-21T10:42:36Z</time>
      </trkpt>
      <trkpt lat="44.12622" lon="7.25846">
        <ele>1719</ele>
        <time>2019-08-21T10:43:39Z</time>
      </trkpt>
      <trkpt lat="44.12617" lon="7.26043">
        <ele>1690</ele>
        <time>2019-08-21T10:46:48Z</time>
      </trkpt>
      <trkpt lat="44.12591" lon="7.2624">
        <ele>1668</ele>
        <time>2019-08-21T10:50:00Z</time>
      </trkpt>
      <trkpt lat="44.12554" lon="7.26456">
        <ele>1653</ele>
        <time>2019-08-21T10:53:32Z</time>
      </trkpt>
      <trkpt lat="44.12476" lon="7.26687">
        <ele>1646</ele>
        <time>2019-08-21T10:57:37Z</time>
      </trkpt>
      <trkpt lat="44.12407" lon="7.26706">
        <ele>1623</ele>
        <time>2019-08-21T10:59:11Z</time>
      </trkpt>
      <trkpt lat="44.1238" lon="7.2691">
        <ele>1626</ele>
        <time>2019-08-21T11:02:30Z</time>
      </trkpt>
      <trkpt lat="44.1224" lon="7.2711">
        <ele>1601</ele>
        <time>2019-08-21T11:06:57Z</time>
      </trkpt>
      <trkpt lat="44.12167" lon="7.27248">
        <ele>1605</ele>
        <time>2019-08-21T11:09:41Z</time>
      </trkpt>
      <trkpt lat="44.1199" lon="7.27457">
        <ele>1571</ele>
        <time>2019-08-21T11:14:51Z</time>
      </trkpt>
      <trkpt lat="44.11942" lon="7.27534">
        <ele>1558</ele>
        <time>2019-08-21T11:16:29Z</time>
      </trkpt>
      <trkpt lat="44.11939" lon="7.27603">
        <ele>1571</ele>
        <time>2019-08-21T11:17:35Z</time>
      </trkpt>
      <trkpt lat="44.11901" lon="7.27631">
        <ele>1559</ele>
        <time>2019-08-21T11:18:32Z</time>
      </trkpt>
      <trkpt lat="44.11876" lon="7.27691">
        <ele>1565</ele>
        <time>2019-08-21T11:19:39Z</time>
      </trkpt>
      <trkpt lat="44.11577" lon="7.2804">
        <ele>1523</ele>
        <time>2019-08-21T11:28:19Z</time>
      </trkpt>
      <trkpt lat="44.11581" lon="7.28247">
        <ele>1532</ele>
        <time>2019-08-21T11:31:38Z</time>
      </trkpt>
      <trkpt lat="44.11531" lon="7.28361">
        <ele>1521</ele>
        <time>2019-08-21T11:33:46Z</time>
      </trkpt>
      <trkpt lat="44.11473" lon="7.28544">
        <ele>1516</ele>
        <time>2019-08-21T11:36:57Z</time>
      </trkpt>
      <trkpt lat="44.11377" lon="7.28861">
        <ele>1506</ele>
        <time>2019-08-21T11:42:27Z</time>
      </trkpt>
      <trkpt lat="44.11336" lon="7.28982">
        <ele>1516</ele>
        <time>2019-08-21T11:44:35Z</time>
      </trkpt>
      <trkpt lat="44.11295" lon="7.28785">
        <ele>1501</ele>
        <time>2019-08-21T11:47:52Z</time>
      </trkpt>
      <trkpt lat="44.11572" lon="7.28004">
        <ele>1515</ele>
        <time>2019-08-21T12:01:46Z</time>
      </trkpt>
      <trkpt lat="44.11568" lon="7.2808">
        <ele>1521</ele>
        <time>2019-08-21T12:02:59Z</time>
      </trkpt>
      <trkpt lat="44.11578" lon="7.28126">
        <ele>1528</ele>
        <time>2019-08-21T12:03:45Z</time>
      </trkpt>
      <trkpt lat="44.11582" lon="7.28195">
        <ele>1531</ele>
        <time>2019-08-21T12:04:52Z</time>
      </trkpt>
      <trkpt lat="44.11572" lon="7.28238">
        <ele>1526</ele>
        <time>2019-08-21T12:05:35Z</time>
      </trkpt>
      <trkpt lat="44.11576" lon="7.28283">
        <ele>1534</ele>
        <time>2019-08-21T12:06:18Z</time>
      </trkpt>
      <trkpt lat="44.11549" lon="7.28333">
        <ele>1527</ele>
        <time>2019-08-21T12:07:18Z</time>
      </trkpt>
      <trkpt lat="44.11519" lon="7.28452">
        <ele>1528</ele>
        <time>2019-08-21T12:09:19Z</time>
      </trkpt>
      <trkpt lat="44.11482" lon="7.28543">
        <ele>1520</ele>
        <time>2019-08-21T12:10:59Z</time>
      </trkpt>
      <trkpt lat="44.11467" lon="7.28615">
        <ele>1522</ele>
        <time>2019-08-21T12:12:11Z</time>
      </trkpt>
      <trkpt lat="44.11435" lon="7.2868">
        <ele>1513</ele>
        <time>2019-08-21T12:13:27Z</time>
      </trkpt>
      <trkpt lat="44.11444" lon="7.28659">
        <ele>1515</ele>
        <time>2019-08-21T12:13:50Z</time>
      </trkpt>
      <trkpt lat="44.11446" lon="7.28666">
        <ele>1517</ele>
        <time>2019-08-21T12:13:57Z</time>
      </trkpt>
      <trkpt lat="44.1144" lon="7.28688">
        <ele>1516</ele>
        <time>2019-08-21T12:14:20Z</time>
      </trkpt>
      <trkpt lat="44.11438" lon="7.28707">
        <ele>1516</ele>
        <time>2019-08-21T12:14:38Z</time>
      </trkpt>
      <trkpt lat="44.11443" lon="7.28775">
        <ele>1523</ele>
        <time>2019-08-21T12:15:44Z</time>
      </trkpt>
      <trkpt lat="44.11453" lon="7.2882">
        <ele>1531</ele>
        <time>2019-08-21T12:16:29Z</time>
      </trkpt>
      <trkpt lat="44.11461" lon="7.28822">
        <ele>1534</ele>
        <time>2019-08-21T12:16:40Z</time>
      </trkpt>
      <trkpt lat="44.11474" lon="7.28834">
        <ele>1540</ele>
        <time>2019-08-21T12:17:01Z</time>
      </trkpt>
      <trkpt lat="44.11474" lon="7.28841">
        <ele>1541</ele>
        <time>2019-08-21T12:17:07Z</time>
      </trkpt>
      <trkpt lat="44.11481" lon="7.28853">
        <ele>1544</ele>
        <time>2019-08-21T12:17:22Z</time>
      </trkpt>
      <trkpt lat="44.11488" lon="7.28881">
        <ele>1548</ele>
        <time>2019-08-21T12:17:50Z</time>
      </trkpt>
      <trkpt lat="44.115" lon="7.28884">
        <ele>1554</ele>
        <time>2019-08-21T12:18:07Z</time>
      </trkpt>
      <trkpt lat="44.11509" lon="7.28894">
        <ele>1558</ele>
        <time>2019-08-21T12:18:22Z</time>
      </trkpt>
      <trkpt lat="44.11527" lon="7.28956">
        <ele>1563</ele>
        <time>2019-08-21T12:19:26Z</time>
      </trkpt>
      <trkpt lat="44.11541" lon="7.2897">
        <ele>1568</ele>
        <time>2019-08-21T12:19:49Z</time>
      </trkpt>
      <trkpt lat="44.11553" lon="7.29009">
        <ele>1571</ele>
        <time>2019-08-21T12:20:30Z</time>
      </trkpt>
      <trkpt lat="44.11567" lon="7.29023">
        <ele>1576</ele>
        <time>2019-08-21T12:20:53Z</time>
      </trkpt>
      <trkpt lat="44.11576" lon="7.29016">
        <ele>1580</ele>
        <time>2019-08-21T12:21:07Z</time>
      </trkpt>
      <trkpt lat="44.11585" lon="7.29036">
        <ele>1584</ele>
        <time>2019-08-21T12:21:29Z</time>
      </trkpt>
      <trkpt lat="44.11608" lon="7.29052">
        <ele>1599</ele>
        <time>2019-08-21T12:22:03Z</time>
      </trkpt>
      <trkpt lat="44.1162" lon="7.29067">
        <ele>1606</ele>
        <time>2019-08-21T12:22:25Z</time>
      </trkpt>
      <trkpt lat="44.1164" lon="7.29108">
        <ele>1621</ele>
        <time>2019-08-21T12:23:12Z</time>
      </trkpt>
      <trkpt lat="44.11647" lon="7.29177">
        <ele>1632</ele>
        <time>2019-08-21T12:24:19Z</time>
      </trkpt>
      <trkpt lat="44.11661" lon="7.29222">
        <ele>1644</ele>
        <time>2019-08-21T12:25:06Z</time>
      </trkpt>
      <trkpt lat="44.11671" lon="7.29227">
        <ele>1650</ele>
        <time>2019-08-21T12:25:20Z</time>
      </trkpt>
      <trkpt lat="44.11672" lon="7.29267">
        <ele>1653</ele>
        <time>2019-08-21T12:25:59Z</time>
      </trkpt>
      <trkpt lat="44.11676" lon="7.29279">
        <ele>1656</ele>
        <time>2019-08-21T12:26:11Z</time>
      </trkpt>
      <trkpt lat="44.11658" lon="7.29295">
        <ele>1648</ele>
        <time>2019-08-21T12:26:40Z</time>
      </trkpt>
      <trkpt lat="44.11645" lon="7.29321">
        <ele>1643</ele>
        <time>2019-08-21T12:27:10Z</time>
      </trkpt>
      <trkpt lat="44.11648" lon="7.29334">
        <ele>1646</ele>
        <time>2019-08-21T12:27:23Z</time>
      </trkpt>
      <trkpt lat="44.11657" lon="7.29349">
        <ele>1655</ele>
        <time>2019-08-21T12:27:42Z</time>
      </trkpt>
      <trkpt lat="44.1166" lon="7.29364">
        <ele>1660</ele>
        <time>2019-08-21T12:27:57Z</time>
      </trkpt>
      <trkpt lat="44.11649" lon="7.29397">
        <ele>1665</ele>
        <time>2019-08-21T12:28:32Z</time>
      </trkpt>
      <trkpt lat="44.11617" lon="7.29423">
        <ele>1661</ele>
        <time>2019-08-21T12:29:21Z</time>
      </trkpt>
      <trkpt lat="44.11611" lon="7.29432">
        <ele>1662</ele>
        <time>2019-08-21T12:29:33Z</time>
      </trkpt>
      <trkpt lat="44.11618" lon="7.29432">
        <ele>1665</ele>
        <time>2019-08-21T12:29:42Z</time>
      </trkpt>
      <trkpt lat="44.1161" lon="7.2944">
        <ele>1665</ele>
        <time>2019-08-21T12:29:56Z</time>
      </trkpt>
      <trkpt lat="44.11655" lon="7.2943">
        <ele>1678</ele>
        <time>2019-08-21T12:30:56Z</time>
      </trkpt>
      <trkpt lat="44.11613" lon="7.29457">
        <ele>1672</ele>
        <time>2019-08-21T12:31:58Z</time>
      </trkpt>
      <trkpt lat="44.11588" lon="7.2949">
        <ele>1678</ele>
        <time>2019-08-21T12:32:44Z</time>
      </trkpt>
      <trkpt lat="44.11577" lon="7.29499">
        <ele>1677</ele>
        <time>2019-08-21T12:33:01Z</time>
      </trkpt>
      <trkpt lat="44.11548" lon="7.29555">
        <ele>1674</ele>
        <time>2019-08-21T12:34:07Z</time>
      </trkpt>
      <trkpt lat="44.11539" lon="7.29589">
        <ele>1677</ele>
        <time>2019-08-21T12:34:42Z</time>
      </trkpt>
      <trkpt lat="44.11517" lon="7.29634">
        <ele>1672</ele>
        <time>2019-08-21T12:35:34Z</time>
      </trkpt>
      <trkpt lat="44.1149" lon="7.29735">
        <ele>1675</ele>
        <time>2019-08-21T12:37:17Z</time>
      </trkpt>
      <trkpt lat="44.11488" lon="7.29766">
        <ele>1680</ele>
        <time>2019-08-21T12:37:47Z</time>
      </trkpt>
      <trkpt lat="44.11481" lon="7.29778">
        <ele>1678</ele>
        <time>2019-08-21T12:38:02Z</time>
      </trkpt>
      <trkpt lat="44.11476" lon="7.29811">
        <ele>1680</ele>
        <time>2019-08-21T12:38:34Z</time>
      </trkpt>
      <trkpt lat="44.11469" lon="7.29827">
        <ele>1678</ele>
        <time>2019-08-21T12:38:52Z</time>
      </trkpt>
      <trkpt lat="44.11463" lon="7.29869">
        <ele>1680</ele>
        <time>2019-08-21T12:39:33Z</time>
      </trkpt>
      <trkpt lat="44.11464" lon="7.29888">
        <ele>1684</ele>
        <time>2019-08-21T12:39:52Z</time>
      </trkpt>
      <trkpt lat="44.11451" lon="7.2992">
        <ele>1680</ele>
        <time>2019-08-21T12:40:27Z</time>
      </trkpt>
      <trkpt lat="44.11437" lon="7.29944">
        <ele>1676</ele>
        <time>2019-08-21T12:40:56Z</time>
      </trkpt>
      <trkpt lat="44.11432" lon="7.29963">
        <ele>1676</ele>
        <time>2019-08-21T12:41:16Z</time>
      </trkpt>
      <trkpt lat="44.11432" lon="7.29983">
        <ele>1680</ele>
        <time>2019-08-21T12:41:35Z</time>
      </trkpt>
      <trkpt lat="44.11426" lon="7.3">
        <ele>1680</ele>
        <time>2019-08-21T12:41:53Z</time>
      </trkpt>
      <trkpt lat="44.11428" lon="7.30011">
        <ele>1684</ele>
        <time>2019-08-21T12:42:04Z</time>
      </trkpt>
      <trkpt lat="44.11424" lon="7.3002">
        <ele>1683</ele>
        <time>2019-08-21T12:42:14Z</time>
      </trkpt>
      <trkpt lat="44.11424" lon="7.30029">
        <ele>1685</ele>
        <time>2019-08-21T12:42:23Z</time>
      </trkpt>
      <trkpt lat="44.11402" lon="7.30057">
        <ele>1676</ele>
        <time>2019-08-21T12:43:03Z</time>
      </trkpt>
      <trkpt lat="44.11388" lon="7.30098">
        <ele>1676</ele>
        <time>2019-08-21T12:43:46Z</time>
      </trkpt>
      <trkpt lat="44.11377" lon="7.30138">
        <ele>1677</ele>
        <time>2019-08-21T12:44:27Z</time>
      </trkpt>
      <trkpt lat="44.11369" lon="7.30192">
        <ele>1682</ele>
        <time>2019-08-21T12:45:20Z</time>
      </trkpt>
      <trkpt lat="44.11354" lon="7.30207">
        <ele>1677</ele>
        <time>2019-08-21T12:45:45Z</time>
      </trkpt>
      <trkpt lat="44.11339" lon="7.30277">
        <ele>1682</ele>
        <time>2019-08-21T12:46:54Z</time>
      </trkpt>
      <trkpt lat="44.11323" lon="7.30303">
        <ele>1678</ele>
        <time>2019-08-21T12:47:27Z</time>
      </trkpt>
      <trkpt lat="44.11316" lon="7.3033">
        <ele>1679</ele>
        <time>2019-08-21T12:47:55Z</time>
      </trkpt>
      <trkpt lat="44.11307" lon="7.30346">
        <ele>1678</ele>
        <time>2019-08-21T12:48:14Z</time>
      </trkpt>
      <trkpt lat="44.11296" lon="7.304">
        <ele>1680</ele>
        <time>2019-08-21T12:49:08Z</time>
      </trkpt>
      <trkpt lat="44.11278" lon="7.30449">
        <ele>1680</ele>
        <time>2019-08-21T12:50:01Z</time>
      </trkpt>
      <trkpt lat="44.11271" lon="7.30489">
        <ele>1684</ele>
        <time>2019-08-21T12:50:40Z</time>
      </trkpt>
      <trkpt lat="44.11243" lon="7.30524">
        <ele>1675</ele>
        <time>2019-08-21T12:51:30Z</time>
      </trkpt>
      <trkpt lat="44.11234" lon="7.30541">
        <ele>1673</ele>
        <time>2019-08-21T12:51:51Z</time>
      </trkpt>
      <trkpt lat="44.11218" lon="7.30613">
        <ele>1668</ele>
        <time>2019-08-21T12:53:03Z</time>
      </trkpt>
      <trkpt lat="44.11219" lon="7.30618">
        <ele>1668</ele>
        <time>2019-08-21T12:53:08Z</time>
      </trkpt>
      <trkpt lat="44.11229" lon="7.3063">
        <ele>1671</ele>
        <time>2019-08-21T12:53:25Z</time>
      </trkpt>
      <trkpt lat="44.11223" lon="7.30647">
        <ele>1668</ele>
        <time>2019-08-21T12:53:44Z</time>
      </trkpt>
      <trkpt lat="44.11206" lon="7.30652">
        <ele>1661</ele>
        <time>2019-08-21T12:54:07Z</time>
      </trkpt>
      <trkpt lat="44.11204" lon="7.30655">
        <ele>1660</ele>
        <time>2019-08-21T12:54:11Z</time>
      </trkpt>
      <trkpt lat="44.11204" lon="7.30679">
        <ele>1659</ele>
        <time>2019-08-21T12:54:34Z</time>
      </trkpt>
      <trkpt lat="44.11215" lon="7.30705">
        <ele>1663</ele>
        <time>2019-08-21T12:55:03Z</time>
      </trkpt>
      <trkpt lat="44.11216" lon="7.30767">
        <ele>1666</ele>
        <time>2019-08-21T12:56:02Z</time>
      </trkpt>
      <trkpt lat="44.11209" lon="7.30791">
        <ele>1666</ele>
        <time>2019-08-21T12:56:27Z</time>
      </trkpt>
      <trkpt lat="44.11192" lon="7.30817">
        <ele>1663</ele>
        <time>2019-08-21T12:57:01Z</time>
      </trkpt>
      <trkpt lat="44.11158" lon="7.30856">
        <ele>1653</ele>
        <time>2019-08-21T12:57:59Z</time>
      </trkpt>
      <trkpt lat="44.11144" lon="7.3089">
        <ele>1652</ele>
        <time>2019-08-21T12:58:37Z</time>
      </trkpt>
      <trkpt lat="44.11133" lon="7.30929">
        <ele>1652</ele>
        <time>2019-08-21T12:59:17Z</time>
      </trkpt>
      <trkpt lat="44.1112" lon="7.30951">
        <ele>1649</ele>
        <time>2019-08-21T12:59:44Z</time>
      </trkpt>
      <trkpt lat="44.11118" lon="7.30975">
        <ele>1651</ele>
        <time>2019-08-21T13:00:08Z</time>
      </trkpt>
      <trkpt lat="44.11106" lon="7.30994">
        <ele>1648</ele>
        <time>2019-08-21T13:00:32Z</time>
      </trkpt>
      <trkpt lat="44.11093" lon="7.31035">
        <ele>1645</ele>
        <time>2019-08-21T13:01:15Z</time>
      </trkpt>
      <trkpt lat="44.11089" lon="7.31059">
        <ele>1645</ele>
        <time>2019-08-21T13:01:38Z</time>
      </trkpt>
      <trkpt lat="44.11089" lon="7.3109">
        <ele>1647</ele>
        <time>2019-08-21T13:02:08Z</time>
      </trkpt>
      <trkpt lat="44.11075" lon="7.31168">
        <ele>1649</ele>
        <time>2019-08-21T13:03:25Z</time>
      </trkpt>
      <trkpt lat="44.11059" lon="7.3121">
        <ele>1652</ele>
        <time>2019-08-21T13:04:11Z</time>
      </trkpt>
      <trkpt lat="44.1104" lon="7.31229">
        <ele>1651</ele>
        <time>2019-08-21T13:04:42Z</time>
      </trkpt>
      <trkpt lat="44.11026" lon="7.31284">
        <ele>1655</ele>
        <time>2019-08-21T13:05:38Z</time>
      </trkpt>
      <trkpt lat="44.11016" lon="7.31364">
        <ele>1666</ele>
        <time>2019-08-21T13:06:56Z</time>
      </trkpt>
      <trkpt lat="44.11006" lon="7.31385">
        <ele>1668</ele>
        <time>2019-08-21T13:07:20Z</time>
      </trkpt>
      <trkpt lat="44.10989" lon="7.31439">
        <ele>1677</ele>
        <time>2019-08-21T13:08:16Z</time>
      </trkpt>
      <trkpt lat="44.10968" lon="7.31471">
        <ele>1681</ele>
        <time>2019-08-21T13:08:58Z</time>
      </trkpt>
      <trkpt lat="44.10972" lon="7.31475">
        <ele>1682</ele>
        <time>2019-08-21T13:09:04Z</time>
      </trkpt>
      <trkpt lat="44.10978" lon="7.31497">
        <ele>1687</ele>
        <time>2019-08-21T13:09:27Z</time>
      </trkpt>
      <trkpt lat="44.10977" lon="7.31516">
        <ele>1691</ele>
        <time>2019-08-21T13:09:45Z</time>
      </trkpt>
      <trkpt lat="44.10967" lon="7.31526">
        <ele>1691</ele>
        <time>2019-08-21T13:10:02Z</time>
      </trkpt>
      <trkpt lat="44.10957" lon="7.3153">
        <ele>1690</ele>
        <time>2019-08-21T13:10:15Z</time>
      </trkpt>
      <trkpt lat="44.10954" lon="7.31539">
        <ele>1691</ele>
        <time>2019-08-21T13:10:25Z</time>
      </trkpt>
      <trkpt lat="44.10963" lon="7.3157">
        <ele>1700</ele>
        <time>2019-08-21T13:10:57Z</time>
      </trkpt>
      <trkpt lat="44.10963" lon="7.31582">
        <ele>1702</ele>
        <time>2019-08-21T13:11:08Z</time>
      </trkpt>
      <trkpt lat="44.10971" lon="7.31602">
        <ele>1707</ele>
        <time>2019-08-21T13:11:30Z</time>
      </trkpt>
      <trkpt lat="44.10968" lon="7.31609">
        <ele>1707</ele>
        <time>2019-08-21T13:11:38Z</time>
      </trkpt>
      <trkpt lat="44.10968" lon="7.31625">
        <ele>1710</ele>
        <time>2019-08-21T13:11:54Z</time>
      </trkpt>
      <trkpt lat="44.10993" lon="7.31706">
        <ele>1722</ele>
        <time>2019-08-21T13:13:18Z</time>
      </trkpt>
      <trkpt lat="44.11001" lon="7.31708">
        <ele>1723</ele>
        <time>2019-08-21T13:13:29Z</time>
      </trkpt>
      <trkpt lat="44.11027" lon="7.31744">
        <ele>1737</ele>
        <time>2019-08-21T13:14:18Z</time>
      </trkpt>
      <trkpt lat="44.11037" lon="7.31745">
        <ele>1741</ele>
        <time>2019-08-21T13:14:31Z</time>
      </trkpt>
      <trkpt lat="44.11051" lon="7.31756">
        <ele>1748</ele>
        <time>2019-08-21T13:14:53Z</time>
      </trkpt>
      <trkpt lat="44.11064" lon="7.31784">
        <ele>1752</ele>
        <time>2019-08-21T13:15:25Z</time>
      </trkpt>
      <trkpt lat="44.11091" lon="7.31789">
        <ele>1763</ele>
        <time>2019-08-21T13:16:01Z</time>
      </trkpt>
      <trkpt lat="44.11112" lon="7.31808">
        <ele>1770</ele>
        <time>2019-08-21T13:16:34Z</time>
      </trkpt>
      <trkpt lat="44.11122" lon="7.31832">
        <ele>1770</ele>
        <time>2019-08-21T13:17:01Z</time>
      </trkpt>
      <trkpt lat="44.11123" lon="7.31849">
        <ele>1768</ele>
        <time>2019-08-21T13:17:17Z</time>
      </trkpt>
      <trkpt lat="44.1113" lon="7.31859">
        <ele>1769</ele>
        <time>2019-08-21T13:17:31Z</time>
      </trkpt>
      <trkpt lat="44.1114" lon="7.3186">
        <ele>1772</ele>
        <time>2019-08-21T13:17:44Z</time>
      </trkpt>
      <trkpt lat="44.11143" lon="7.31866">
        <ele>1772</ele>
        <time>2019-08-21T13:17:51Z</time>
      </trkpt>
      <trkpt lat="44.1114" lon="7.31887">
        <ele>1768</ele>
        <time>2019-08-21T13:18:12Z</time>
      </trkpt>
      <trkpt lat="44.11141" lon="7.31901">
        <ele>1766</ele>
        <time>2019-08-21T13:18:25Z</time>
      </trkpt>
      <trkpt lat="44.11145" lon="7.31908">
        <ele>1766</ele>
        <time>2019-08-21T13:18:34Z</time>
      </trkpt>
      <trkpt lat="44.11147" lon="7.31926">
        <ele>1766</ele>
        <time>2019-08-21T13:18:51Z</time>
      </trkpt>
      <trkpt lat="44.11152" lon="7.31936">
        <ele>1767</ele>
        <time>2019-08-21T13:19:03Z</time>
      </trkpt>
      <trkpt lat="44.11159" lon="7.3196">
        <ele>1768</ele>
        <time>2019-08-21T13:19:28Z</time>
      </trkpt>
      <trkpt lat="44.11171" lon="7.31965">
        <ele>1771</ele>
        <time>2019-08-21T13:19:44Z</time>
      </trkpt>
      <trkpt lat="44.11172" lon="7.31946">
        <ele>1772</ele>
        <time>2019-08-21T13:20:02Z</time>
      </trkpt>
      <trkpt lat="44.11179" lon="7.31953">
        <ele>1774</ele>
        <time>2019-08-21T13:20:14Z</time>
      </trkpt>
      <trkpt lat="44.11182" lon="7.31969">
        <ele>1773</ele>
        <time>2019-08-21T13:20:30Z</time>
      </trkpt>
      <trkpt lat="44.11193" lon="7.31969">
        <ele>1776</ele>
        <time>2019-08-21T13:20:45Z</time>
      </trkpt>
      <trkpt lat="44.11207" lon="7.31959">
        <ele>1781</ele>
        <time>2019-08-21T13:21:06Z</time>
      </trkpt>
      <trkpt lat="44.11215" lon="7.31958">
        <ele>1783</ele>
        <time>2019-08-21T13:21:16Z</time>
      </trkpt>
      <trkpt lat="44.11222" lon="7.31948">
        <ele>1786</ele>
        <time>2019-08-21T13:21:30Z</time>
      </trkpt>
      <trkpt lat="44.11221" lon="7.31944">
        <ele>1786</ele>
        <time>2019-08-21T13:21:34Z</time>
      </trkpt>
      <trkpt lat="44.11233" lon="7.31939">
        <ele>1791</ele>
        <time>2019-08-21T13:21:50Z</time>
      </trkpt>
      <trkpt lat="44.11235" lon="7.31936">
        <ele>1791</ele>
        <time>2019-08-21T13:21:54Z</time>
      </trkpt>
      <trkpt lat="44.11231" lon="7.31923">
        <ele>1792</ele>
        <time>2019-08-21T13:22:08Z</time>
      </trkpt>
      <trkpt lat="44.11239" lon="7.31921">
        <ele>1795</ele>
        <time>2019-08-21T13:22:19Z</time>
      </trkpt>
      <trkpt lat="44.1124" lon="7.31915">
        <ele>1796</ele>
        <time>2019-08-21T13:22:25Z</time>
      </trkpt>
      <trkpt lat="44.11246" lon="7.31918">
        <ele>1798</ele>
        <time>2019-08-21T13:22:33Z</time>
      </trkpt>
      <trkpt lat="44.1125" lon="7.31926">
        <ele>1798</ele>
        <time>2019-08-21T13:22:42Z</time>
      </trkpt>
      <trkpt lat="44.11262" lon="7.31929">
        <ele>1804</ele>
        <time>2019-08-21T13:22:59Z</time>
      </trkpt>
      <trkpt lat="44.11279" lon="7.31917">
        <ele>1815</ele>
        <time>2019-08-21T13:23:24Z</time>
      </trkpt>
      <trkpt lat="44.11289" lon="7.31916">
        <ele>1821</ele>
        <time>2019-08-21T13:23:38Z</time>
      </trkpt>
      <trkpt lat="44.11307" lon="7.31934">
        <ele>1827</ele>
        <time>2019-08-21T13:24:07Z</time>
      </trkpt>
      <trkpt lat="44.11333" lon="7.3197">
        <ele>1832</ele>
        <time>2019-08-21T13:24:56Z</time>
      </trkpt>
      <trkpt lat="44.11339" lon="7.32001">
        <ele>1827</ele>
        <time>2019-08-21T13:25:27Z</time>
      </trkpt>
      <trkpt lat="44.11352" lon="7.32008">
        <ele>1835</ele>
        <time>2019-08-21T13:25:45Z</time>
      </trkpt>
      <trkpt lat="44.11356" lon="7.32015">
        <ele>1838</ele>
        <time>2019-08-21T13:25:54Z</time>
      </trkpt>
      <trkpt lat="44.11352" lon="7.32037">
        <ele>1836</ele>
        <time>2019-08-21T13:26:16Z</time>
      </trkpt>
      <trkpt lat="44.11361" lon="7.32056">
        <ele>1840</ele>
        <time>2019-08-21T13:26:38Z</time>
      </trkpt>
      <trkpt lat="44.11403" lon="7.32103">
        <ele>1852</ele>
        <time>2019-08-21T13:27:49Z</time>
      </trkpt>
      <trkpt lat="44.11421" lon="7.32132">
        <ele>1854</ele>
        <time>2019-08-21T13:28:26Z</time>
      </trkpt>
      <trkpt lat="44.11432" lon="7.32158">
        <ele>1856</ele>
        <time>2019-08-21T13:28:55Z</time>
      </trkpt>
      <trkpt lat="44.11437" lon="7.32179">
        <ele>1857</ele>
        <time>2019-08-21T13:29:16Z</time>
      </trkpt>
      <trkpt lat="44.11437" lon="7.32207">
        <ele>1857</ele>
        <time>2019-08-21T13:29:43Z</time>
      </trkpt>
      <trkpt lat="44.11438" lon="7.32211">
        <ele>1858</ele>
        <time>2019-08-21T13:29:47Z</time>
      </trkpt>
      <trkpt lat="44.11442" lon="7.32212">
        <ele>1859</ele>
        <time>2019-08-21T13:29:53Z</time>
      </trkpt>
      <trkpt lat="44.11447" lon="7.32237">
        <ele>1861</ele>
        <time>2019-08-21T13:30:17Z</time>
      </trkpt>
      <trkpt lat="44.11448" lon="7.32259">
        <ele>1862</ele>
        <time>2019-08-21T13:30:39Z</time>
      </trkpt>
      <trkpt lat="44.11458" lon="7.32281">
        <ele>1865</ele>
        <time>2019-08-21T13:31:03Z</time>
      </trkpt>
      <trkpt lat="44.11459" lon="7.32305">
        <ele>1865</ele>
        <time>2019-08-21T13:31:27Z</time>
      </trkpt>
      <trkpt lat="44.11466" lon="7.32324">
        <ele>1867</ele>
        <time>2019-08-21T13:31:47Z</time>
      </trkpt>
      <trkpt lat="44.11465" lon="7.3234">
        <ele>1867</ele>
        <time>2019-08-21T13:32:02Z</time>
      </trkpt>
      <trkpt lat="44.11457" lon="7.32351">
        <ele>1865</ele>
        <time>2019-08-21T13:32:17Z</time>
      </trkpt>
      <trkpt lat="44.11462" lon="7.32366">
        <ele>1866</ele>
        <time>2019-08-21T13:32:33Z</time>
      </trkpt>
      <trkpt lat="44.11481" lon="7.32406">
        <ele>1867</ele>
        <time>2019-08-21T13:33:19Z</time>
      </trkpt>
      <trkpt lat="44.11508" lon="7.32446">
        <ele>1866</ele>
        <time>2019-08-21T13:34:12Z</time>
      </trkpt>
      <trkpt lat="44.11555" lon="7.3249">
        <ele>1873</ele>
        <time>2019-08-21T13:35:27Z</time>
      </trkpt>
      <trkpt lat="44.11576" lon="7.32527">
        <ele>1872</ele>
        <time>2019-08-21T13:36:13Z</time>
      </trkpt>
      <trkpt lat="44.11593" lon="7.32567">
        <ele>1873</ele>
        <time>2019-08-21T13:36:57Z</time>
      </trkpt>
      <trkpt lat="44.11593" lon="7.32584">
        <ele>1870</ele>
        <time>2019-08-21T13:37:13Z</time>
      </trkpt>
      <trkpt lat="44.116" lon="7.32603">
        <ele>1874</ele>
        <time>2019-08-21T13:37:34Z</time>
      </trkpt>
      <trkpt lat="44.11599" lon="7.32632">
        <ele>1874</ele>
        <time>2019-08-21T13:38:02Z</time>
      </trkpt>
      <trkpt lat="44.11604" lon="7.32641">
        <ele>1876</ele>
        <time>2019-08-21T13:38:13Z</time>
      </trkpt>
      <trkpt lat="44.11606" lon="7.32655">
        <ele>1876</ele>
        <time>2019-08-21T13:38:26Z</time>
      </trkpt>
      <trkpt lat="44.11622" lon="7.3268">
        <ele>1879</ele>
        <time>2019-08-21T13:38:58Z</time>
      </trkpt>
      <trkpt lat="44.11631" lon="7.3271">
        <ele>1879</ele>
        <time>2019-08-21T13:39:29Z</time>
      </trkpt>
      <trkpt lat="44.1164" lon="7.32727">
        <ele>1879</ele>
        <time>2019-08-21T13:39:50Z</time>
      </trkpt>
      <trkpt lat="44.11673" lon="7.32734">
        <ele>1879</ele>
        <time>2019-08-21T13:40:34Z</time>
      </trkpt>
      <trkpt lat="44.11684" lon="7.32747">
        <ele>1881</ele>
        <time>2019-08-21T13:40:53Z</time>
      </trkpt>
      <trkpt lat="44.11694" lon="7.32751">
        <ele>1884</ele>
        <time>2019-08-21T13:41:07Z</time>
      </trkpt>
      <trkpt lat="44.117" lon="7.32762">
        <ele>1886</ele>
        <time>2019-08-21T13:41:21Z</time>
      </trkpt>
      <trkpt lat="44.11715" lon="7.32775">
        <ele>1890</ele>
        <time>2019-08-21T13:41:44Z</time>
      </trkpt>
      <trkpt lat="44.11727" lon="7.32798">
        <ele>1892</ele>
        <time>2019-08-21T13:42:11Z</time>
      </trkpt>
      <trkpt lat="44.11741" lon="7.32802">
        <ele>1895</ele>
        <time>2019-08-21T13:42:30Z</time>
      </trkpt>
      <trkpt lat="44.11751" lon="7.32818">
        <ele>1894</ele>
        <time>2019-08-21T13:42:51Z</time>
      </trkpt>
      <trkpt lat="44.11767" lon="7.32828">
        <ele>1897</ele>
        <time>2019-08-21T13:43:14Z</time>
      </trkpt>
      <trkpt lat="44.11784" lon="7.32847">
        <ele>1902</ele>
        <time>2019-08-21T13:43:43Z</time>
      </trkpt>
      <trkpt lat="44.1179" lon="7.32845">
        <ele>1903</ele>
        <time>2019-08-21T13:43:52Z</time>
      </trkpt>
      <trkpt lat="44.11794" lon="7.32852">
        <ele>1904</ele>
        <time>2019-08-21T13:44:00Z</time>
      </trkpt>
      <trkpt lat="44.11815" lon="7.32859">
        <ele>1909</ele>
        <time>2019-08-21T13:44:29Z</time>
      </trkpt>
      <trkpt lat="44.11824" lon="7.32868">
        <ele>1910</ele>
        <time>2019-08-21T13:44:44Z</time>
      </trkpt>
      <trkpt lat="44.11835" lon="7.32863">
        <ele>1913</ele>
        <time>2019-08-21T13:44:59Z</time>
      </trkpt>
      <trkpt lat="44.11853" lon="7.32875">
        <ele>1916</ele>
        <time>2019-08-21T13:45:26Z</time>
      </trkpt>
      <trkpt lat="44.11874" lon="7.32879">
        <ele>1920</ele>
        <time>2019-08-21T13:45:54Z</time>
      </trkpt>
      <trkpt lat="44.11888" lon="7.32887">
        <ele>1922</ele>
        <time>2019-08-21T13:46:14Z</time>
      </trkpt>
      <trkpt lat="44.119" lon="7.32904">
        <ele>1923</ele>
        <time>2019-08-21T13:46:37Z</time>
      </trkpt>
      <trkpt lat="44.11909" lon="7.32906">
        <ele>1924</ele>
        <time>2019-08-21T13:46:49Z</time>
      </trkpt>
      <trkpt lat="44.11913" lon="7.32916">
        <ele>1923</ele>
        <time>2019-08-21T13:47:00Z</time>
      </trkpt>
      <trkpt lat="44.11925" lon="7.32922">
        <ele>1925</ele>
        <time>2019-08-21T13:47:17Z</time>
      </trkpt>
      <trkpt lat="44.11939" lon="7.32923">
        <ele>1928</ele>
        <time>2019-08-21T13:47:36Z</time>
      </trkpt>
      <trkpt lat="44.11944" lon="7.32934">
        <ele>1928</ele>
        <time>2019-08-21T13:47:48Z</time>
      </trkpt>
      <trkpt lat="44.11953" lon="7.32943">
        <ele>1929</ele>
        <time>2019-08-21T13:48:03Z</time>
      </trkpt>
      <trkpt lat="44.11954" lon="7.32953">
        <ele>1928</ele>
        <time>2019-08-21T13:48:13Z</time>
      </trkpt>
      <trkpt lat="44.11967" lon="7.32974">
        <ele>1928</ele>
        <time>2019-08-21T13:48:39Z</time>
      </trkpt>
      <trkpt lat="44.11982" lon="7.32985">
        <ele>1928</ele>
        <time>2019-08-21T13:49:02Z</time>
      </trkpt>
      <trkpt lat="44.11988" lon="7.33001">
        <ele>1927</ele>
        <time>2019-08-21T13:49:19Z</time>
      </trkpt>
      <trkpt lat="44.11997" lon="7.33008">
        <ele>1929</ele>
        <time>2019-08-21T13:49:33Z</time>
      </trkpt>
      <trkpt lat="44.12009" lon="7.33024">
        <ele>1932</ele>
        <time>2019-08-21T13:49:55Z</time>
      </trkpt>
      <trkpt lat="44.12012" lon="7.33058">
        <ele>1936</ele>
        <time>2019-08-21T13:50:28Z</time>
      </trkpt>
      <trkpt lat="44.12002" lon="7.33081">
        <ele>1937</ele>
        <time>2019-08-21T13:50:54Z</time>
      </trkpt>
      <trkpt lat="44.12003" lon="7.33096">
        <ele>1939</ele>
        <time>2019-08-21T13:51:08Z</time>
      </trkpt>
      <trkpt lat="44.11983" lon="7.33102">
        <ele>1941</ele>
        <time>2019-08-21T13:51:36Z</time>
      </trkpt>
      <trkpt lat="44.11961" lon="7.33071">
        <ele>1937</ele>
        <time>2019-08-21T13:52:17Z</time>
      </trkpt>
      <trkpt lat="44.11926" lon="7.33054">
        <ele>1935</ele>
        <time>2019-08-21T13:53:07Z</time>
      </trkpt>
      <trkpt lat="44.119" lon="7.33065">
        <ele>1938</ele>
        <time>2019-08-21T13:53:43Z</time>
      </trkpt>
      <trkpt lat="44.11883" lon="7.33085">
        <ele>1945</ele>
        <time>2019-08-21T13:54:13Z</time>
      </trkpt>
      <trkpt lat="44.11875" lon="7.33105">
        <ele>1951</ele>
        <time>2019-08-21T13:54:35Z</time>
      </trkpt>
      <trkpt lat="44.11869" lon="7.33112">
        <ele>1953</ele>
        <time>2019-08-21T13:54:45Z</time>
      </trkpt>
      <trkpt lat="44.11833" lon="7.33119">
        <ele>1957</ele>
        <time>2019-08-21T13:55:34Z</time>
      </trkpt>
      <trkpt lat="44.11806" lon="7.33119">
        <ele>1952</ele>
        <time>2019-08-21T13:56:10Z</time>
      </trkpt>
      <trkpt lat="44.11804" lon="7.33127">
        <ele>1953</ele>
        <time>2019-08-21T13:56:18Z</time>
      </trkpt>
      <trkpt lat="44.1181" lon="7.33145">
        <ele>1959</ele>
        <time>2019-08-21T13:56:37Z</time>
      </trkpt>
      <trkpt lat="44.11817" lon="7.33154">
        <ele>1963</ele>
        <time>2019-08-21T13:56:49Z</time>
      </trkpt>
      <trkpt lat="44.11819" lon="7.33174">
        <ele>1968</ele>
        <time>2019-08-21T13:57:09Z</time>
      </trkpt>
      <trkpt lat="44.11814" lon="7.33186">
        <ele>1970</ele>
        <time>2019-08-21T13:57:22Z</time>
      </trkpt>
      <trkpt lat="44.11815" lon="7.3321">
        <ele>1978</ele>
        <time>2019-08-21T13:57:45Z</time>
      </trkpt>
      <trkpt lat="44.11807" lon="7.33235">
        <ele>1983</ele>
        <time>2019-08-21T13:58:11Z</time>
      </trkpt>
      <trkpt lat="44.11796" lon="7.33246">
        <ele>1982</ele>
        <time>2019-08-21T13:58:29Z</time>
      </trkpt>
      <trkpt lat="44.11794" lon="7.33261">
        <ele>1986</ele>
        <time>2019-08-21T13:58:44Z</time>
      </trkpt>
      <trkpt lat="44.11798" lon="7.33269">
        <ele>1989</ele>
        <time>2019-08-21T13:58:53Z</time>
      </trkpt>
      <trkpt lat="44.11796" lon="7.33272">
        <ele>1989</ele>
        <time>2019-08-21T13:58:57Z</time>
      </trkpt>
      <trkpt lat="44.11806" lon="7.33286">
        <ele>1997</ele>
        <time>2019-08-21T13:59:16Z</time>
      </trkpt>
      <trkpt lat="44.11805" lon="7.33293">
        <ele>1998</ele>
        <time>2019-08-21T13:59:23Z</time>
      </trkpt>
      <trkpt lat="44.11817" lon="7.33294">
        <ele>2003</ele>
        <time>2019-08-21T13:59:39Z</time>
      </trkpt>
      <trkpt lat="44.11819" lon="7.33298">
        <ele>2005</ele>
        <time>2019-08-21T13:59:44Z</time>
      </trkpt>
      <trkpt lat="44.11804" lon="7.33325">
        <ele>2006</ele>
        <time>2019-08-21T14:00:17Z</time>
      </trkpt>
      <trkpt lat="44.11791" lon="7.33476">
        <ele>2035</ele>
        <time>2019-08-21T14:02:42Z</time>
      </trkpt>
      <trkpt lat="44.11795" lon="7.3348">
        <ele>2037</ele>
        <time>2019-08-21T14:02:49Z</time>
      </trkpt>
      <trkpt lat="44.11798" lon="7.33474">
        <ele>2037</ele>
        <time>2019-08-21T14:02:56Z</time>
      </trkpt>
      <trkpt lat="44.11801" lon="7.33475">
        <ele>2039</ele>
        <time>2019-08-21T14:03:00Z</time>
      </trkpt>
      <trkpt lat="44.11802" lon="7.33485">
        <ele>2042</ele>
        <time>2019-08-21T14:03:10Z</time>
      </trkpt>
      <trkpt lat="44.11797" lon="7.33515">
        <ele>2046</ele>
        <time>2019-08-21T14:03:39Z</time>
      </trkpt>
      <trkpt lat="44.118" lon="7.33534">
        <ele>2051</ele>
        <time>2019-08-21T14:03:58Z</time>
      </trkpt>
      <trkpt lat="44.11799" lon="7.33573">
        <ele>2059</ele>
        <time>2019-08-21T14:04:35Z</time>
      </trkpt>
      <trkpt lat="44.11793" lon="7.33636">
        <ele>2076</ele>
        <time>2019-08-21T14:05:36Z</time>
      </trkpt>
      <trkpt lat="44.11798" lon="7.33631">
        <ele>2076</ele>
        <time>2019-08-21T14:05:44Z</time>
      </trkpt>
      <trkpt lat="44.11799" lon="7.33636">
        <ele>2078</ele>
        <time>2019-08-21T14:05:49Z</time>
      </trkpt>
      <trkpt lat="44.11791" lon="7.33663">
        <ele>2084</ele>
        <time>2019-08-21T14:06:17Z</time>
      </trkpt>
      <trkpt lat="44.11804" lon="7.33661">
        <ele>2087</ele>
        <time>2019-08-21T14:06:35Z</time>
      </trkpt>
      <trkpt lat="44.11801" lon="7.33665">
        <ele>2087</ele>
        <time>2019-08-21T14:06:40Z</time>
      </trkpt>
      <trkpt lat="44.11795" lon="7.33687">
        <ele>2093</ele>
        <time>2019-08-21T14:07:03Z</time>
      </trkpt>
      <trkpt lat="44.11786" lon="7.33699">
        <ele>2094</ele>
        <time>2019-08-21T14:07:19Z</time>
      </trkpt>
      <trkpt lat="44.11784" lon="7.33715">
        <ele>2100</ele>
        <time>2019-08-21T14:07:35Z</time>
      </trkpt>
      <trkpt lat="44.11771" lon="7.33738">
        <ele>2105</ele>
        <time>2019-08-21T14:08:03Z</time>
      </trkpt>
      <trkpt lat="44.11776" lon="7.33741">
        <ele>2107</ele>
        <time>2019-08-21T14:08:10Z</time>
      </trkpt>
      <trkpt lat="44.11771" lon="7.3375">
        <ele>2110</ele>
        <time>2019-08-21T14:08:21Z</time>
      </trkpt>
      <trkpt lat="44.11789" lon="7.33768">
        <ele>2119</ele>
        <time>2019-08-21T14:08:51Z</time>
      </trkpt>
      <trkpt lat="44.11786" lon="7.33771">
        <ele>2119</ele>
        <time>2019-08-21T14:08:56Z</time>
      </trkpt>
      <trkpt lat="44.11785" lon="7.338">
        <ele>2129</ele>
        <time>2019-08-21T14:09:23Z</time>
      </trkpt>
      <trkpt lat="44.11766" lon="7.33809">
        <ele>2130</ele>
        <time>2019-08-21T14:09:50Z</time>
      </trkpt>
      <trkpt lat="44.1176" lon="7.3382">
        <ele>2133</ele>
        <time>2019-08-21T14:10:03Z</time>
      </trkpt>
      <trkpt lat="44.11765" lon="7.33826">
        <ele>2136</ele>
        <time>2019-08-21T14:10:12Z</time>
      </trkpt>
      <trkpt lat="44.1175" lon="7.33839">
        <ele>2139</ele>
        <time>2019-08-21T14:10:36Z</time>
      </trkpt>
      <trkpt lat="44.11745" lon="7.33839">
        <ele>2140</ele>
        <time>2019-08-21T14:10:42Z</time>
      </trkpt>
      <trkpt lat="44.11743" lon="7.33844">
        <ele>2141</ele>
        <time>2019-08-21T14:10:48Z</time>
      </trkpt>
      <trkpt lat="44.11745" lon="7.33847">
        <ele>2142</ele>
        <time>2019-08-21T14:10:52Z</time>
      </trkpt>
      <trkpt lat="44.11733" lon="7.33853">
        <ele>2145</ele>
        <time>2019-08-21T14:11:09Z</time>
      </trkpt>
      <trkpt lat="44.11727" lon="7.33861">
        <ele>2148</ele>
        <time>2019-08-21T14:11:20Z</time>
      </trkpt>
      <trkpt lat="44.11704" lon="7.33908">
        <ele>2159</ele>
        <time>2019-08-21T14:12:14Z</time>
      </trkpt>
      <trkpt lat="44.11691" lon="7.33924">
        <ele>2160</ele>
        <time>2019-08-21T14:12:38Z</time>
      </trkpt>
      <trkpt lat="44.1169" lon="7.33961">
        <ele>2160</ele>
        <time>2019-08-21T14:13:13Z</time>
      </trkpt>
      <trkpt lat="44.11686" lon="7.33976">
        <ele>2159</ele>
        <time>2019-08-21T14:13:28Z</time>
      </trkpt>
      <trkpt lat="44.11669" lon="7.34006">
        <ele>2155</ele>
        <time>2019-08-21T14:14:05Z</time>
      </trkpt>
      <trkpt lat="44.11661" lon="7.34038">
        <ele>2157</ele>
        <time>2019-08-21T14:14:38Z</time>
      </trkpt>
      <trkpt lat="44.11643" lon="7.34069">
        <ele>2157</ele>
        <time>2019-08-21T14:15:16Z</time>
      </trkpt>
      <trkpt lat="44.1163" lon="7.34101">
        <ele>2159</ele>
        <time>2019-08-21T14:15:51Z</time>
      </trkpt>
      <trkpt lat="44.11612" lon="7.3416">
        <ele>2164</ele>
        <time>2019-08-21T14:16:52Z</time>
      </trkpt>
      <trkpt lat="44.11587" lon="7.34206">
        <ele>2167</ele>
        <time>2019-08-21T14:17:48Z</time>
      </trkpt>
      <trkpt lat="44.11579" lon="7.34211">
        <ele>2167</ele>
        <time>2019-08-21T14:17:59Z</time>
      </trkpt>
      <trkpt lat="44.1157" lon="7.34225">
        <ele>2169</ele>
        <time>2019-08-21T14:18:17Z</time>
      </trkpt>
      <trkpt lat="44.11567" lon="7.34253">
        <ele>2174</ele>
        <time>2019-08-21T14:18:44Z</time>
      </trkpt>
      <trkpt lat="44.1156" lon="7.34272">
        <ele>2177</ele>
        <time>2019-08-21T14:19:05Z</time>
      </trkpt>
      <trkpt lat="44.11544" lon="7.343">
        <ele>2182</ele>
        <time>2019-08-21T14:19:39Z</time>
      </trkpt>
      <trkpt lat="44.1151" lon="7.34328">
        <ele>2185</ele>
        <time>2019-08-21T14:20:32Z</time>
      </trkpt>
      <trkpt lat="44.11495" lon="7.3436">
        <ele>2190</ele>
        <time>2019-08-21T14:21:09Z</time>
      </trkpt>
      <trkpt lat="44.11491" lon="7.34377">
        <ele>2192</ele>
        <time>2019-08-21T14:21:26Z</time>
      </trkpt>
      <trkpt lat="44.11485" lon="7.34391">
        <ele>2194</ele>
        <time>2019-08-21T14:21:41Z</time>
      </trkpt>
      <trkpt lat="44.11481" lon="7.34424">
        <ele>2201</ele>
        <time>2019-08-21T14:22:13Z</time>
      </trkpt>
      <trkpt lat="44.11455" lon="7.34487">
        <ele>2220</ele>
        <time>2019-08-21T14:23:23Z</time>
      </trkpt>
      <trkpt lat="44.1145" lon="7.34495">
        <ele>2222</ele>
        <time>2019-08-21T14:23:33Z</time>
      </trkpt>
      <trkpt lat="44.11439" lon="7.3449">
        <ele>2219</ele>
        <time>2019-08-21T14:23:49Z</time>
      </trkpt>
      <trkpt lat="44.11425" lon="7.34503">
        <ele>2222</ele>
        <time>2019-08-21T14:24:11Z</time>
      </trkpt>
      <trkpt lat="44.11415" lon="7.34543">
        <ele>2228</ele>
        <time>2019-08-21T14:24:52Z</time>
      </trkpt>
      <trkpt lat="44.11396" lon="7.34581">
        <ele>2233</ele>
        <time>2019-08-21T14:25:36Z</time>
      </trkpt>
      <trkpt lat="44.11394" lon="7.34593">
        <ele>2234</ele>
        <time>2019-08-21T14:25:48Z</time>
      </trkpt>
      <trkpt lat="44.11396" lon="7.34618">
        <ele>2237</ele>
        <time>2019-08-21T14:26:12Z</time>
      </trkpt>
      <trkpt lat="44.11402" lon="7.34626">
        <ele>2239</ele>
        <time>2019-08-21T14:26:23Z</time>
      </trkpt>
      <trkpt lat="44.11396" lon="7.34636">
        <ele>2239</ele>
        <time>2019-08-21T14:26:35Z</time>
      </trkpt>
      <trkpt lat="44.11403" lon="7.3465">
        <ele>2242</ele>
        <time>2019-08-21T14:26:52Z</time>
      </trkpt>
      <trkpt lat="44.11386" lon="7.34668">
        <ele>2240</ele>
        <time>2019-08-21T14:27:20Z</time>
      </trkpt>
      <trkpt lat="44.11364" lon="7.34702">
        <ele>2241</ele>
        <time>2019-08-21T14:28:04Z</time>
      </trkpt>
      <trkpt lat="44.11352" lon="7.34761">
        <ele>2250</ele>
        <time>2019-08-21T14:29:03Z</time>
      </trkpt>
      <trkpt lat="44.1135" lon="7.34794">
        <ele>2255</ele>
        <time>2019-08-21T14:29:35Z</time>
      </trkpt>
      <trkpt lat="44.11351" lon="7.3481">
        <ele>2258</ele>
        <time>2019-08-21T14:29:50Z</time>
      </trkpt>
      <trkpt lat="44.11354" lon="7.34814">
        <ele>2259</ele>
        <time>2019-08-21T14:29:56Z</time>
      </trkpt>
      <trkpt lat="44.11351" lon="7.34821">
        <ele>2260</ele>
        <time>2019-08-21T14:30:03Z</time>
      </trkpt>
      <trkpt lat="44.11351" lon="7.34847">
        <ele>2263</ele>
        <time>2019-08-21T14:30:28Z</time>
      </trkpt>
      <trkpt lat="44.11344" lon="7.34862">
        <ele>2265</ele>
        <time>2019-08-21T14:30:45Z</time>
      </trkpt>
      <trkpt lat="44.11343" lon="7.34876">
        <ele>2267</ele>
        <time>2019-08-21T14:30:59Z</time>
      </trkpt>
      <trkpt lat="44.11339" lon="7.34887">
        <ele>2268</ele>
        <time>2019-08-21T14:31:11Z</time>
      </trkpt>
      <trkpt lat="44.11332" lon="7.34929">
        <ele>2275</ele>
        <time>2019-08-21T14:31:52Z</time>
      </trkpt>
      <trkpt lat="44.11323" lon="7.34934">
        <ele>2278</ele>
        <time>2019-08-21T14:32:05Z</time>
      </trkpt>
      <trkpt lat="44.11313" lon="7.34924">
        <ele>2279</ele>
        <time>2019-08-21T14:32:21Z</time>
      </trkpt>
      <trkpt lat="44.11305" lon="7.34925">
        <ele>2281</ele>
        <time>2019-08-21T14:32:32Z</time>
      </trkpt>
      <trkpt lat="44.11306" lon="7.34933">
        <ele>2282</ele>
        <time>2019-08-21T14:32:40Z</time>
      </trkpt>
      <trkpt lat="44.113" lon="7.34936">
        <ele>2285</ele>
        <time>2019-08-21T14:32:48Z</time>
      </trkpt>
      <trkpt lat="44.11304" lon="7.34944">
        <ele>2285</ele>
        <time>2019-08-21T14:32:58Z</time>
      </trkpt>
      <trkpt lat="44.11297" lon="7.3495">
        <ele>2288</ele>
        <time>2019-08-21T14:33:09Z</time>
      </trkpt>
      <trkpt lat="44.113" lon="7.34965">
        <ele>2291</ele>
        <time>2019-08-21T14:33:24Z</time>
      </trkpt>
      <trkpt lat="44.11295" lon="7.34965">
        <ele>2292</ele>
        <time>2019-08-21T14:33:30Z</time>
      </trkpt>
      <trkpt lat="44.113" lon="7.34987">
        <ele>2295</ele>
        <time>2019-08-21T14:33:52Z</time>
      </trkpt>
      <trkpt lat="44.1129" lon="7.34983">
        <ele>2297</ele>
        <time>2019-08-21T14:34:06Z</time>
      </trkpt>
      <trkpt lat="44.11288" lon="7.34992">
        <ele>2300</ele>
        <time>2019-08-21T14:34:15Z</time>
      </trkpt>
      <trkpt lat="44.11292" lon="7.35">
        <ele>2300</ele>
        <time>2019-08-21T14:34:25Z</time>
      </trkpt>
      <trkpt lat="44.11273" lon="7.35003">
        <ele>2307</ele>
        <time>2019-08-21T14:34:50Z</time>
      </trkpt>
      <trkpt lat="44.11272" lon="7.3501">
        <ele>2309</ele>
        <time>2019-08-21T14:34:57Z</time>
      </trkpt>
      <trkpt lat="44.1126" lon="7.35013">
        <ele>2314</ele>
        <time>2019-08-21T14:35:13Z</time>
      </trkpt>
      <trkpt lat="44.11256" lon="7.35019">
        <ele>2317</ele>
        <time>2019-08-21T14:35:21Z</time>
      </trkpt>
      <trkpt lat="44.11257" lon="7.35024">
        <ele>2319</ele>
        <time>2019-08-21T14:35:26Z</time>
      </trkpt>
      <trkpt lat="44.1124" lon="7.35037">
        <ele>2327</ele>
        <time>2019-08-21T14:35:52Z</time>
      </trkpt>
      <trkpt lat="44.11241" lon="7.35045">
        <ele>2330</ele>
        <time>2019-08-21T14:36:00Z</time>
      </trkpt>
      <trkpt lat="44.11257" lon="7.35056">
        <ele>2330</ele>
        <time>2019-08-21T14:36:24Z</time>
      </trkpt>
      <trkpt lat="44.11271" lon="7.35048">
        <ele>2323</ele>
        <time>2019-08-21T14:36:44Z</time>
      </trkpt>
      <trkpt lat="44.11277" lon="7.35055">
        <ele>2324</ele>
        <time>2019-08-21T14:36:54Z</time>
      </trkpt>
      <trkpt lat="44.11288" lon="7.35081">
        <ele>2329</ele>
        <time>2019-08-21T14:37:23Z</time>
      </trkpt>
      <trkpt lat="44.11279" lon="7.35087">
        <ele>2335</ele>
        <time>2019-08-21T14:37:36Z</time>
      </trkpt>
      <trkpt lat="44.11279" lon="7.35091">
        <ele>2337</ele>
        <time>2019-08-21T14:37:40Z</time>
      </trkpt>
      <trkpt lat="44.11284" lon="7.35094">
        <ele>2337</ele>
        <time>2019-08-21T14:37:48Z</time>
      </trkpt>
      <trkpt lat="44.11277" lon="7.35101">
        <ele>2342</ele>
        <time>2019-08-21T14:37:59Z</time>
      </trkpt>
      <trkpt lat="44.11281" lon="7.3511">
        <ele>2346</ele>
        <time>2019-08-21T14:38:09Z</time>
      </trkpt>
      <trkpt lat="44.11272" lon="7.35115">
        <ele>2351</ele>
        <time>2019-08-21T14:38:22Z</time>
      </trkpt>
      <trkpt lat="44.11299" lon="7.35137">
        <ele>2355</ele>
        <time>2019-08-21T14:39:04Z</time>
      </trkpt>
      <trkpt lat="44.11297" lon="7.3514">
        <ele>2357</ele>
        <time>2019-08-21T14:39:08Z</time>
      </trkpt>
      <trkpt lat="44.11289" lon="7.3514">
        <ele>2359</ele>
        <time>2019-08-21T14:39:18Z</time>
      </trkpt>
      <trkpt lat="44.11273" lon="7.35149">
        <ele>2367</ele>
        <time>2019-08-21T14:39:41Z</time>
      </trkpt>
      <trkpt lat="44.1129" lon="7.35168">
        <ele>2373</ele>
        <time>2019-08-21T14:40:11Z</time>
      </trkpt>
      <trkpt lat="44.11287" lon="7.35181">
        <ele>2380</ele>
        <time>2019-08-21T14:40:24Z</time>
      </trkpt>
      <trkpt lat="44.11274" lon="7.35176">
        <ele>2380</ele>
        <time>2019-08-21T14:40:42Z</time>
      </trkpt>
      <trkpt lat="44.11274" lon="7.35181">
        <ele>2382</ele>
        <time>2019-08-21T14:40:46Z</time>
      </trkpt>
      <trkpt lat="44.11281" lon="7.35196">
        <ele>2388</ele>
        <time>2019-08-21T14:41:04Z</time>
      </trkpt>
      <trkpt lat="44.11271" lon="7.35191">
        <ele>2387</ele>
        <time>2019-08-21T14:41:18Z</time>
      </trkpt>
      <trkpt lat="44.1127" lon="7.35194">
        <ele>2388</ele>
        <time>2019-08-21T14:41:21Z</time>
      </trkpt>
      <trkpt lat="44.11272" lon="7.35203">
        <ele>2392</ele>
        <time>2019-08-21T14:41:30Z</time>
      </trkpt>
      <trkpt lat="44.11283" lon="7.35222">
        <ele>2400</ele>
        <time>2019-08-21T14:41:53Z</time>
      </trkpt>
      <trkpt lat="44.11276" lon="7.35226">
        <ele>2403</ele>
        <time>2019-08-21T14:42:03Z</time>
      </trkpt>
      <trkpt lat="44.11276" lon="7.35234">
        <ele>2407</ele>
        <time>2019-08-21T14:42:11Z</time>
      </trkpt>
      <trkpt lat="44.11261" lon="7.35239">
        <ele>2410</ele>
        <time>2019-08-21T14:42:32Z</time>
      </trkpt>
      <trkpt lat="44.1126" lon="7.35249">
        <ele>2414</ele>
        <time>2019-08-21T14:42:41Z</time>
      </trkpt>
      <trkpt lat="44.11254" lon="7.3525">
        <ele>2415</ele>
        <time>2019-08-21T14:42:49Z</time>
      </trkpt>
      <trkpt lat="44.11261" lon="7.35256">
        <ele>2417</ele>
        <time>2019-08-21T14:43:00Z</time>
      </trkpt>
      <trkpt lat="44.11254" lon="7.35261">
        <ele>2419</ele>
        <time>2019-08-21T14:43:11Z</time>
      </trkpt>
      <trkpt lat="44.11259" lon="7.35268">
        <ele>2421</ele>
        <time>2019-08-21T14:43:20Z</time>
      </trkpt>
      <trkpt lat="44.11254" lon="7.35271">
        <ele>2422</ele>
        <time>2019-08-21T14:43:28Z</time>
      </trkpt>
      <trkpt lat="44.11256" lon="7.35275">
        <ele>2423</ele>
        <time>2019-08-21T14:43:32Z</time>
      </trkpt>
      <trkpt lat="44.11251" lon="7.3528">
        <ele>2425</ele>
        <time>2019-08-21T14:43:40Z</time>
      </trkpt>
      <trkpt lat="44.11256" lon="7.3529">
        <ele>2429</ele>
        <time>2019-08-21T14:43:52Z</time>
      </trkpt>
      <trkpt lat="44.11253" lon="7.35294">
        <ele>2430</ele>
        <time>2019-08-21T14:43:58Z</time>
      </trkpt>
      <trkpt lat="44.11255" lon="7.35296">
        <ele>2431</ele>
        <time>2019-08-21T14:44:01Z</time>
      </trkpt>
      <trkpt lat="44.11252" lon="7.35303">
        <ele>2432</ele>
        <time>2019-08-21T14:44:09Z</time>
      </trkpt>
      <trkpt lat="44.11255" lon="7.35315">
        <ele>2437</ele>
        <time>2019-08-21T14:44:21Z</time>
      </trkpt>
      <trkpt lat="44.11253" lon="7.35319">
        <ele>2438</ele>
        <time>2019-08-21T14:44:26Z</time>
      </trkpt>
      <trkpt lat="44.11246" lon="7.35316">
        <ele>2435</ele>
        <time>2019-08-21T14:44:35Z</time>
      </trkpt>
      <trkpt lat="44.11229" lon="7.35318">
        <ele>2432</ele>
        <time>2019-08-21T14:44:58Z</time>
      </trkpt>
      <trkpt lat="44.11221" lon="7.35311">
        <ele>2429</ele>
        <time>2019-08-21T14:45:11Z</time>
      </trkpt>
      <trkpt lat="44.11233" lon="7.35342">
        <ele>2435</ele>
        <time>2019-08-21T14:45:45Z</time>
      </trkpt>
      <trkpt lat="44.11231" lon="7.35344">
        <ele>2434</ele>
        <time>2019-08-21T14:45:48Z</time>
      </trkpt>
      <trkpt lat="44.11224" lon="7.3533">
        <ele>2432</ele>
        <time>2019-08-21T14:46:04Z</time>
      </trkpt>
      <trkpt lat="44.11221" lon="7.3533">
        <ele>2431</ele>
        <time>2019-08-21T14:46:08Z</time>
      </trkpt>
      <trkpt lat="44.11223" lon="7.3535">
        <ele>2431</ele>
        <time>2019-08-21T14:46:28Z</time>
      </trkpt>
      <trkpt lat="44.11217" lon="7.35344">
        <ele>2429</ele>
        <time>2019-08-21T14:46:37Z</time>
      </trkpt>
      <trkpt lat="44.11223" lon="7.35371">
        <ele>2430</ele>
        <time>2019-08-21T14:47:04Z</time>
      </trkpt>
      <trkpt lat="44.11222" lon="7.35375">
        <ele>2429</ele>
        <time>2019-08-21T14:47:09Z</time>
      </trkpt>
      <trkpt lat="44.11205" lon="7.35343">
        <ele>2424</ele>
        <time>2019-08-21T14:47:47Z</time>
      </trkpt>
      <trkpt lat="44.11201" lon="7.35368">
        <ele>2420</ele>
        <time>2019-08-21T14:48:11Z</time>
      </trkpt>
      <trkpt lat="44.1119" lon="7.35353">
        <ele>2417</ele>
        <time>2019-08-21T14:48:32Z</time>
      </trkpt>
      <trkpt lat="44.11193" lon="7.35372">
        <ele>2416</ele>
        <time>2019-08-21T14:48:50Z</time>
      </trkpt>
      <trkpt lat="44.1119" lon="7.35374">
        <ele>2415</ele>
        <time>2019-08-21T14:48:55Z</time>
      </trkpt>
      <trkpt lat="44.1119" lon="7.35382">
        <ele>2414</ele>
        <time>2019-08-21T14:49:02Z</time>
      </trkpt>
      <trkpt lat="44.11186" lon="7.35377">
        <ele>2413</ele>
        <time>2019-08-21T14:49:10Z</time>
      </trkpt>
      <trkpt lat="44.11183" lon="7.35379">
        <ele>2411</ele>
        <time>2019-08-21T14:49:14Z</time>
      </trkpt>
      <trkpt lat="44.11182" lon="7.35394">
        <ele>2409</ele>
        <time>2019-08-21T14:49:29Z</time>
      </trkpt>
      <trkpt lat="44.11178" lon="7.35389">
        <ele>2408</ele>
        <time>2019-08-21T14:49:36Z</time>
      </trkpt>
      <trkpt lat="44.11177" lon="7.35393">
        <ele>2407</ele>
        <time>2019-08-21T14:49:40Z</time>
      </trkpt>
      <trkpt lat="44.11172" lon="7.35385">
        <ele>2406</ele>
        <time>2019-08-21T14:49:50Z</time>
      </trkpt>
      <trkpt lat="44.11165" lon="7.35397">
        <ele>2401</ele>
        <time>2019-08-21T14:50:05Z</time>
      </trkpt>
      <trkpt lat="44.11161" lon="7.35394">
        <ele>2400</ele>
        <time>2019-08-21T14:50:11Z</time>
      </trkpt>
      <trkpt lat="44.11153" lon="7.35399">
        <ele>2397</ele>
        <time>2019-08-21T14:50:22Z</time>
      </trkpt>
      <trkpt lat="44.11148" lon="7.35392">
        <ele>2397</ele>
        <time>2019-08-21T14:50:32Z</time>
      </trkpt>
      <trkpt lat="44.11142" lon="7.35395">
        <ele>2395</ele>
        <time>2019-08-21T14:50:40Z</time>
      </trkpt>
      <trkpt lat="44.11143" lon="7.35391">
        <ele>2395</ele>
        <time>2019-08-21T14:50:45Z</time>
      </trkpt>
      <trkpt lat="44.11133" lon="7.35408">
        <ele>2391</ele>
        <time>2019-08-21T14:51:06Z</time>
      </trkpt>
      <trkpt lat="44.11128" lon="7.35411">
        <ele>2390</ele>
        <time>2019-08-21T14:51:13Z</time>
      </trkpt>
      <trkpt lat="44.11119" lon="7.354">
        <ele>2388</ele>
        <time>2019-08-21T14:51:29Z</time>
      </trkpt>
      <trkpt lat="44.11102" lon="7.35408">
        <ele>2383</ele>
        <time>2019-08-21T14:51:53Z</time>
      </trkpt>
      <trkpt lat="44.11091" lon="7.35402">
        <ele>2380</ele>
        <time>2019-08-21T14:52:09Z</time>
      </trkpt>
      <trkpt lat="44.11061" lon="7.354">
        <ele>2373</ele>
        <time>2019-08-21T14:52:49Z</time>
      </trkpt>
      <trkpt lat="44.11028" lon="7.35411">
        <ele>2365</ele>
        <time>2019-08-21T14:53:34Z</time>
      </trkpt>
      <trkpt lat="44.11019" lon="7.35405">
        <ele>2363</ele>
        <time>2019-08-21T14:53:47Z</time>
      </trkpt>
      <trkpt lat="44.11009" lon="7.35416">
        <ele>2359</ele>
        <time>2019-08-21T14:54:04Z</time>
      </trkpt>
      <trkpt lat="44.11006" lon="7.3541">
        <ele>2360</ele>
        <time>2019-08-21T14:54:11Z</time>
      </trkpt>
      <trkpt lat="44.10995" lon="7.35421">
        <ele>2357</ele>
        <time>2019-08-21T14:54:29Z</time>
      </trkpt>
      <trkpt lat="44.10976" lon="7.35419">
        <ele>2352</ele>
        <time>2019-08-21T14:54:55Z</time>
      </trkpt>
      <trkpt lat="44.1097" lon="7.35428">
        <ele>2352</ele>
        <time>2019-08-21T14:55:06Z</time>
      </trkpt>
      <trkpt lat="44.10962" lon="7.35431">
        <ele>2351</ele>
        <time>2019-08-21T14:55:18Z</time>
      </trkpt>
      <trkpt lat="44.10958" lon="7.35423">
        <ele>2349</ele>
        <time>2019-08-21T14:55:27Z</time>
      </trkpt>
      <trkpt lat="44.10954" lon="7.35432">
        <ele>2349</ele>
        <time>2019-08-21T14:55:37Z</time>
      </trkpt>
      <trkpt lat="44.10949" lon="7.35426">
        <ele>2347</ele>
        <time>2019-08-21T14:55:46Z</time>
      </trkpt>
      <trkpt lat="44.10949" lon="7.35442">
        <ele>2348</ele>
        <time>2019-08-21T14:56:01Z</time>
      </trkpt>
      <trkpt lat="44.10939" lon="7.35428">
        <ele>2345</ele>
        <time>2019-08-21T14:56:20Z</time>
      </trkpt>
      <trkpt lat="44.10929" lon="7.35447">
        <ele>2343</ele>
        <time>2019-08-21T14:56:43Z</time>
      </trkpt>
      <trkpt lat="44.10921" lon="7.35447">
        <ele>2340</ele>
        <time>2019-08-21T14:56:53Z</time>
      </trkpt>
      <trkpt lat="44.10908" lon="7.35475">
        <ele>2334</ele>
        <time>2019-08-21T14:57:25Z</time>
      </trkpt>
      <trkpt lat="44.10896" lon="7.35475">
        <ele>2329</ele>
        <time>2019-08-21T14:57:41Z</time>
      </trkpt>
      <trkpt lat="44.10888" lon="7.35482">
        <ele>2324</ele>
        <time>2019-08-21T14:57:54Z</time>
      </trkpt>
      <trkpt lat="44.1089" lon="7.35488">
        <ele>2324</ele>
        <time>2019-08-21T14:58:00Z</time>
      </trkpt>
      <trkpt lat="44.10878" lon="7.35486">
        <ele>2318</ele>
        <time>2019-08-21T14:58:16Z</time>
      </trkpt>
      <trkpt lat="44.10874" lon="7.35482">
        <ele>2317</ele>
        <time>2019-08-21T14:58:23Z</time>
      </trkpt>
      <trkpt lat="44.10875" lon="7.35502">
        <ele>2313</ele>
        <time>2019-08-21T14:58:42Z</time>
      </trkpt>
      <trkpt lat="44.10866" lon="7.35503">
        <ele>2307</ele>
        <time>2019-08-21T14:58:54Z</time>
      </trkpt>
      <trkpt lat="44.10863" lon="7.35513">
        <ele>2302</ele>
        <time>2019-08-21T14:59:05Z</time>
      </trkpt>
      <trkpt lat="44.10859" lon="7.35513">
        <ele>2300</ele>
        <time>2019-08-21T14:59:10Z</time>
      </trkpt>
      <trkpt lat="44.10854" lon="7.35504">
        <ele>2300</ele>
        <time>2019-08-21T14:59:21Z</time>
      </trkpt>
      <trkpt lat="44.10849" lon="7.35484">
        <ele>2304</ele>
        <time>2019-08-21T14:59:41Z</time>
      </trkpt>
      <trkpt lat="44.10837" lon="7.355">
        <ele>2292</ele>
        <time>2019-08-21T15:00:03Z</time>
      </trkpt>
      <trkpt lat="44.10835" lon="7.35508">
        <ele>2288</ele>
        <time>2019-08-21T15:00:11Z</time>
      </trkpt>
      <trkpt lat="44.10832" lon="7.35502">
        <ele>2289</ele>
        <time>2019-08-21T15:00:18Z</time>
      </trkpt>
      <trkpt lat="44.1083" lon="7.35504">
        <ele>2287</ele>
        <time>2019-08-21T15:00:22Z</time>
      </trkpt>
      <trkpt lat="44.10828" lon="7.35521">
        <ele>2279</ele>
        <time>2019-08-21T15:00:38Z</time>
      </trkpt>
      <trkpt lat="44.10824" lon="7.35519">
        <ele>2278</ele>
        <time>2019-08-21T15:00:44Z</time>
      </trkpt>
      <trkpt lat="44.10823" lon="7.35509">
        <ele>2282</ele>
        <time>2019-08-21T15:00:54Z</time>
      </trkpt>
      <trkpt lat="44.10819" lon="7.35523">
        <ele>2274</ele>
        <time>2019-08-21T15:01:08Z</time>
      </trkpt>
      <trkpt lat="44.10811" lon="7.35513">
        <ele>2275</ele>
        <time>2019-08-21T15:01:22Z</time>
      </trkpt>
      <trkpt lat="44.10803" lon="7.35522">
        <ele>2267</ele>
        <time>2019-08-21T15:01:36Z</time>
      </trkpt>
      <trkpt lat="44.108" lon="7.35507">
        <ele>2272</ele>
        <time>2019-08-21T15:01:51Z</time>
      </trkpt>
      <trkpt lat="44.10796" lon="7.35511">
        <ele>2269</ele>
        <time>2019-08-21T15:01:58Z</time>
      </trkpt>
      <trkpt lat="44.10796" lon="7.35526">
        <ele>2263</ele>
        <time>2019-08-21T15:02:12Z</time>
      </trkpt>
      <trkpt lat="44.10788" lon="7.35518">
        <ele>2262</ele>
        <time>2019-08-21T15:02:25Z</time>
      </trkpt>
      <trkpt lat="44.10787" lon="7.35536">
        <ele>2255</ele>
        <time>2019-08-21T15:02:42Z</time>
      </trkpt>
      <trkpt lat="44.10782" lon="7.3553">
        <ele>2255</ele>
        <time>2019-08-21T15:02:51Z</time>
      </trkpt>
      <trkpt lat="44.10775" lon="7.3551">
        <ele>2260</ele>
        <time>2019-08-21T15:03:12Z</time>
      </trkpt>
      <trkpt lat="44.10753" lon="7.35508">
        <ele>2251</ele>
        <time>2019-08-21T15:03:42Z</time>
      </trkpt>
      <trkpt lat="44.10721" lon="7.35517">
        <ele>2245</ele>
        <time>2019-08-21T15:04:25Z</time>
      </trkpt>
      <trkpt lat="44.1069" lon="7.35514">
        <ele>2245</ele>
        <time>2019-08-21T15:05:07Z</time>
      </trkpt>
      <trkpt lat="44.10676" lon="7.35518">
        <ele>2243</ele>
        <time>2019-08-21T15:05:26Z</time>
      </trkpt>
      <trkpt lat="44.10661" lon="7.35516">
        <ele>2244</ele>
        <time>2019-08-21T15:05:46Z</time>
      </trkpt>
      <trkpt lat="44.10645" lon="7.35524">
        <ele>2243</ele>
        <time>2019-08-21T15:06:09Z</time>
      </trkpt>
      <trkpt lat="44.10616" lon="7.35526">
        <ele>2245</ele>
        <time>2019-08-21T15:06:48Z</time>
      </trkpt>
      <trkpt lat="44.10599" lon="7.35524">
        <ele>2247</ele>
        <time>2019-08-21T15:07:10Z</time>
      </trkpt>
      <trkpt lat="44.10576" lon="7.35527">
        <ele>2249</ele>
        <time>2019-08-21T15:07:41Z</time>
      </trkpt>
      <trkpt lat="44.10562" lon="7.35522">
        <ele>2252</ele>
        <time>2019-08-21T15:08:00Z</time>
      </trkpt>
      <trkpt lat="44.10538" lon="7.35542">
        <ele>2248</ele>
        <time>2019-08-21T15:08:38Z</time>
      </trkpt>
      <trkpt lat="44.10489" lon="7.35597">
        <ele>2232</ele>
        <time>2019-08-21T15:10:02Z</time>
      </trkpt>
      <trkpt lat="44.10457" lon="7.35614">
        <ele>2231</ele>
        <time>2019-08-21T15:10:47Z</time>
      </trkpt>
      <trkpt lat="44.10394" lon="7.35682">
        <ele>2208</ele>
        <time>2019-08-21T15:12:34Z</time>
      </trkpt>
      <trkpt lat="44.10393" lon="7.35688">
        <ele>2206</ele>
        <time>2019-08-21T15:12:40Z</time>
      </trkpt>
      <trkpt lat="44.10422" lon="7.35678">
        <ele>2200</ele>
        <time>2019-08-21T15:13:20Z</time>
      </trkpt>
      <trkpt lat="44.10424" lon="7.3568">
        <ele>2199</ele>
        <time>2019-08-21T15:13:23Z</time>
      </trkpt>
      <trkpt lat="44.10419" lon="7.35686">
        <ele>2197</ele>
        <time>2019-08-21T15:13:32Z</time>
      </trkpt>
      <trkpt lat="44.10431" lon="7.35685">
        <ele>2197</ele>
        <time>2019-08-21T15:13:48Z</time>
      </trkpt>
      <trkpt lat="44.10419" lon="7.35698">
        <ele>2193</ele>
        <time>2019-08-21T15:14:08Z</time>
      </trkpt>
      <trkpt lat="44.10405" lon="7.35725">
        <ele>2186</ele>
        <time>2019-08-21T15:14:40Z</time>
      </trkpt>
      <trkpt lat="44.10395" lon="7.35738">
        <ele>2183</ele>
        <time>2019-08-21T15:14:58Z</time>
      </trkpt>
      <trkpt lat="44.10386" lon="7.35745">
        <ele>2182</ele>
        <time>2019-08-21T15:15:12Z</time>
      </trkpt>
      <trkpt lat="44.10362" lon="7.35752">
        <ele>2184</ele>
        <time>2019-08-21T15:15:45Z</time>
      </trkpt>
      <trkpt lat="44.10355" lon="7.3576">
        <ele>2182</ele>
        <time>2019-08-21T15:15:57Z</time>
      </trkpt>
      <trkpt lat="44.10343" lon="7.3579">
        <ele>2170</ele>
        <time>2019-08-21T15:16:30Z</time>
      </trkpt>
      <trkpt lat="44.10331" lon="7.35807">
        <ele>2162</ele>
        <time>2019-08-21T15:16:52Z</time>
      </trkpt>
      <trkpt lat="44.10334" lon="7.35811">
        <ele>2160</ele>
        <time>2019-08-21T15:16:58Z</time>
      </trkpt>
      <trkpt lat="44.10343" lon="7.35814">
        <ele>2158</ele>
        <time>2019-08-21T15:17:10Z</time>
      </trkpt>
      <trkpt lat="44.10346" lon="7.35822">
        <ele>2155</ele>
        <time>2019-08-21T15:17:19Z</time>
      </trkpt>
      <trkpt lat="44.10344" lon="7.35844">
        <ele>2147</ele>
        <time>2019-08-21T15:17:40Z</time>
      </trkpt>
      <trkpt lat="44.10339" lon="7.35858">
        <ele>2144</ele>
        <time>2019-08-21T15:17:55Z</time>
      </trkpt>
      <trkpt lat="44.10353" lon="7.35859">
        <ele>2145</ele>
        <time>2019-08-21T15:18:14Z</time>
      </trkpt>
      <trkpt lat="44.10347" lon="7.35873">
        <ele>2142</ele>
        <time>2019-08-21T15:18:30Z</time>
      </trkpt>
      <trkpt lat="44.10334" lon="7.35883">
        <ele>2138</ele>
        <time>2019-08-21T15:18:49Z</time>
      </trkpt>
      <trkpt lat="44.10342" lon="7.3589">
        <ele>2138</ele>
        <time>2019-08-21T15:19:02Z</time>
      </trkpt>
      <trkpt lat="44.10338" lon="7.35895">
        <ele>2136</ele>
        <time>2019-08-21T15:19:09Z</time>
      </trkpt>
      <trkpt lat="44.10345" lon="7.35903">
        <ele>2136</ele>
        <time>2019-08-21T15:19:21Z</time>
      </trkpt>
      <trkpt lat="44.10344" lon="7.35905">
        <ele>2135</ele>
        <time>2019-08-21T15:19:24Z</time>
      </trkpt>
      <trkpt lat="44.10319" lon="7.35894">
        <ele>2133</ele>
        <time>2019-08-21T15:19:59Z</time>
      </trkpt>
      <trkpt lat="44.10317" lon="7.35895">
        <ele>2132</ele>
        <time>2019-08-21T15:20:01Z</time>
      </trkpt>
      <trkpt lat="44.10326" lon="7.35901">
        <ele>2133</ele>
        <time>2019-08-21T15:20:15Z</time>
      </trkpt>
      <trkpt lat="44.10327" lon="7.35906">
        <ele>2132</ele>
        <time>2019-08-21T15:20:20Z</time>
      </trkpt>
      <trkpt lat="44.10301" lon="7.35915">
        <ele>2122</ele>
        <time>2019-08-21T15:20:55Z</time>
      </trkpt>
      <trkpt lat="44.10299" lon="7.35919">
        <ele>2121</ele>
        <time>2019-08-21T15:21:00Z</time>
      </trkpt>
      <trkpt lat="44.10287" lon="7.35917">
        <ele>2118</ele>
        <time>2019-08-21T15:21:16Z</time>
      </trkpt>
      <trkpt lat="44.10277" lon="7.35921">
        <ele>2114</ele>
        <time>2019-08-21T15:21:30Z</time>
      </trkpt>
      <trkpt lat="44.10271" lon="7.35916">
        <ele>2113</ele>
        <time>2019-08-21T15:21:39Z</time>
      </trkpt>
      <trkpt lat="44.1026" lon="7.35914">
        <ele>2111</ele>
        <time>2019-08-21T15:21:54Z</time>
      </trkpt>
      <trkpt lat="44.10262" lon="7.3592">
        <ele>2110</ele>
        <time>2019-08-21T15:22:01Z</time>
      </trkpt>
      <trkpt lat="44.10254" lon="7.35922">
        <ele>2107</ele>
        <time>2019-08-21T15:22:11Z</time>
      </trkpt>
      <trkpt lat="44.10234" lon="7.35914">
        <ele>2105</ele>
        <time>2019-08-21T15:22:39Z</time>
      </trkpt>
      <trkpt lat="44.10202" lon="7.35924">
        <ele>2096</ele>
        <time>2019-08-21T15:23:23Z</time>
      </trkpt>
      <trkpt lat="44.10183" lon="7.35933">
        <ele>2089</ele>
        <time>2019-08-21T15:23:50Z</time>
      </trkpt>
      <trkpt lat="44.10161" lon="7.35971">
        <ele>2075</ele>
        <time>2019-08-21T15:24:37Z</time>
      </trkpt>
      <trkpt lat="44.10148" lon="7.35986">
        <ele>2069</ele>
        <time>2019-08-21T15:24:59Z</time>
      </trkpt>
      <trkpt lat="44.10133" lon="7.35987">
        <ele>2066</ele>
        <time>2019-08-21T15:25:19Z</time>
      </trkpt>
      <trkpt lat="44.10128" lon="7.35983">
        <ele>2066</ele>
        <time>2019-08-21T15:25:27Z</time>
      </trkpt>
      <trkpt lat="44.10111" lon="7.35985">
        <ele>2063</ele>
        <time>2019-08-21T15:25:50Z</time>
      </trkpt>
      <trkpt lat="44.10104" lon="7.35995">
        <ele>2059</ele>
        <time>2019-08-21T15:26:03Z</time>
      </trkpt>
      <trkpt lat="44.101" lon="7.36008">
        <ele>2055</ele>
        <time>2019-08-21T15:26:17Z</time>
      </trkpt>
      <trkpt lat="44.10094" lon="7.36011">
        <ele>2053</ele>
        <time>2019-08-21T15:26:25Z</time>
      </trkpt>
      <trkpt lat="44.10061" lon="7.36001">
        <ele>2050</ele>
        <time>2019-08-21T15:27:10Z</time>
      </trkpt>
      <trkpt lat="44.10058" lon="7.36002">
        <ele>2049</ele>
        <time>2019-08-21T15:27:14Z</time>
      </trkpt>
      <trkpt lat="44.10059" lon="7.36021">
        <ele>2043</ele>
        <time>2019-08-21T15:27:32Z</time>
      </trkpt>
      <trkpt lat="44.10057" lon="7.36024">
        <ele>2042</ele>
        <time>2019-08-21T15:27:36Z</time>
      </trkpt>
      <trkpt lat="44.1004" lon="7.36025">
        <ele>2038</ele>
        <time>2019-08-21T15:27:59Z</time>
      </trkpt>
      <trkpt lat="44.09996" lon="7.36017">
        <ele>2031</ele>
        <time>2019-08-21T15:28:58Z</time>
      </trkpt>
      <trkpt lat="44.09979" lon="7.36004">
        <ele>2031</ele>
        <time>2019-08-21T15:29:24Z</time>
      </trkpt>
      <trkpt lat="44.09945" lon="7.35994">
        <ele>2024</ele>
        <time>2019-08-21T15:30:11Z</time>
      </trkpt>
      <trkpt lat="44.09909" lon="7.35969">
        <ele>2017</ele>
        <time>2019-08-21T15:31:04Z</time>
      </trkpt>
      <trkpt lat="44.09877" lon="7.3596">
        <ele>2004</ele>
        <time>2019-08-21T15:31:48Z</time>
      </trkpt>
      <trkpt lat="44.09864" lon="7.35948">
        <ele>2001</ele>
        <time>2019-08-21T15:32:09Z</time>
      </trkpt>
      <trkpt lat="44.09858" lon="7.35933">
        <ele>2002</ele>
        <time>2019-08-21T15:32:25Z</time>
      </trkpt>
      <trkpt lat="44.09863" lon="7.35897">
        <ele>2010</ele>
        <time>2019-08-21T15:33:00Z</time>
      </trkpt>
      <trkpt lat="44.09874" lon="7.35874">
        <ele>2016</ele>
        <time>2019-08-21T15:33:27Z</time>
      </trkpt>
      <trkpt lat="44.09873" lon="7.35858">
        <ele>2016</ele>
        <time>2019-08-21T15:33:42Z</time>
      </trkpt>
      <trkpt lat="44.09837" lon="7.35819">
        <ele>2004</ele>
        <time>2019-08-21T15:34:43Z</time>
      </trkpt>
      <trkpt lat="44.09833" lon="7.35817">
        <ele>2003</ele>
        <time>2019-08-21T15:34:49Z</time>
      </trkpt>
      <trkpt lat="44.09829" lon="7.35823">
        <ele>2000</ele>
        <time>2019-08-21T15:34:56Z</time>
      </trkpt>
      <trkpt lat="44.0984" lon="7.35865">
        <ele>2002</ele>
        <time>2019-08-21T15:35:39Z</time>
      </trkpt>
      <trkpt lat="44.09817" lon="7.35854">
        <ele>1991</ele>
        <time>2019-08-21T15:36:12Z</time>
      </trkpt>
      <trkpt lat="44.09808" lon="7.35843">
        <ele>1987</ele>
        <time>2019-08-21T15:36:28Z</time>
      </trkpt>
      <trkpt lat="44.09792" lon="7.3581">
        <ele>1983</ele>
        <time>2019-08-21T15:37:06Z</time>
      </trkpt>
      <trkpt lat="44.09783" lon="7.35801">
        <ele>1979</ele>
        <time>2019-08-21T15:37:21Z</time>
      </trkpt>
      <trkpt lat="44.09777" lon="7.35803">
        <ele>1976</ele>
        <time>2019-08-21T15:37:29Z</time>
      </trkpt>
      <trkpt lat="44.09773" lon="7.35813">
        <ele>1973</ele>
        <time>2019-08-21T15:37:40Z</time>
      </trkpt>
      <trkpt lat="44.09777" lon="7.35832">
        <ele>1973</ele>
        <time>2019-08-21T15:37:59Z</time>
      </trkpt>
      <trkpt lat="44.09754" lon="7.35822">
        <ele>1962</ele>
        <time>2019-08-21T15:38:31Z</time>
      </trkpt>
      <trkpt lat="44.09745" lon="7.35815">
        <ele>1959</ele>
        <time>2019-08-21T15:38:45Z</time>
      </trkpt>
      <trkpt lat="44.09739" lon="7.35803">
        <ele>1958</ele>
        <time>2019-08-21T15:38:59Z</time>
      </trkpt>
      <trkpt lat="44.09734" lon="7.35776">
        <ele>1959</ele>
        <time>2019-08-21T15:39:26Z</time>
      </trkpt>
      <trkpt lat="44.09709" lon="7.35768">
        <ele>1951</ele>
        <time>2019-08-21T15:40:00Z</time>
      </trkpt>
      <trkpt lat="44.09701" lon="7.35753">
        <ele>1950</ele>
        <time>2019-08-21T15:40:18Z</time>
      </trkpt>
      <trkpt lat="44.09679" lon="7.35741">
        <ele>1943</ele>
        <time>2019-08-21T15:40:49Z</time>
      </trkpt>
      <trkpt lat="44.09667" lon="7.35728">
        <ele>1939</ele>
        <time>2019-08-21T15:41:09Z</time>
      </trkpt>
      <trkpt lat="44.09648" lon="7.35731">
        <ele>1931</ele>
        <time>2019-08-21T15:41:35Z</time>
      </trkpt>
      <trkpt lat="44.09649" lon="7.3575">
        <ele>1931</ele>
        <time>2019-08-21T15:41:53Z</time>
      </trkpt>
      <trkpt lat="44.09647" lon="7.35757">
        <ele>1929</ele>
        <time>2019-08-21T15:42:00Z</time>
      </trkpt>
      <trkpt lat="44.09642" lon="7.35758">
        <ele>1927</ele>
        <time>2019-08-21T15:42:07Z</time>
      </trkpt>
      <trkpt lat="44.09633" lon="7.35726">
        <ele>1925</ele>
        <time>2019-08-21T15:42:40Z</time>
      </trkpt>
      <trkpt lat="44.09599" lon="7.35634">
        <ele>1917</ele>
        <time>2019-08-21T15:44:19Z</time>
      </trkpt>
      <trkpt lat="44.09594" lon="7.35647">
        <ele>1915</ele>
        <time>2019-08-21T15:44:33Z</time>
      </trkpt>
      <trkpt lat="44.09568" lon="7.35656">
        <ele>1906</ele>
        <time>2019-08-21T15:45:09Z</time>
      </trkpt>
      <trkpt lat="44.09566" lon="7.35666">
        <ele>1904</ele>
        <time>2019-08-21T15:45:19Z</time>
      </trkpt>
      <trkpt lat="44.09569" lon="7.35656">
        <ele>1906</ele>
        <time>2019-08-21T15:45:30Z</time>
      </trkpt>
      <trkpt lat="44.09567" lon="7.35657">
        <ele>1905</ele>
        <time>2019-08-21T15:45:32Z</time>
      </trkpt>
      <trkpt lat="44.09564" lon="7.35671">
        <ele>1903</ele>
        <time>2019-08-21T15:45:46Z</time>
      </trkpt>
      <trkpt lat="44.09575" lon="7.35713">
        <ele>1903</ele>
        <time>2019-08-21T15:46:29Z</time>
      </trkpt>
      <trkpt lat="44.09582" lon="7.35761">
        <ele>1901</ele>
        <time>2019-08-21T15:47:16Z</time>
      </trkpt>
      <trkpt lat="44.0958" lon="7.35776">
        <ele>1898</ele>
        <time>2019-08-21T15:47:31Z</time>
      </trkpt>
      <trkpt lat="44.09581" lon="7.35794">
        <ele>1896</ele>
        <time>2019-08-21T15:47:48Z</time>
      </trkpt>
      <trkpt lat="44.09576" lon="7.35826">
        <ele>1889</ele>
        <time>2019-08-21T15:48:19Z</time>
      </trkpt>
      <trkpt lat="44.09575" lon="7.35845">
        <ele>1887</ele>
        <time>2019-08-21T15:48:38Z</time>
      </trkpt>
      <trkpt lat="44.0958" lon="7.35859">
        <ele>1887</ele>
        <time>2019-08-21T15:48:53Z</time>
      </trkpt>
      <trkpt lat="44.09585" lon="7.3588">
        <ele>1885</ele>
        <time>2019-08-21T15:49:14Z</time>
      </trkpt>
      <trkpt lat="44.09594" lon="7.35892">
        <ele>1887</ele>
        <time>2019-08-21T15:49:31Z</time>
      </trkpt>
      <trkpt lat="44.09598" lon="7.35906">
        <ele>1887</ele>
        <time>2019-08-21T15:49:45Z</time>
      </trkpt>
      <trkpt lat="44.09595" lon="7.35916">
        <ele>1884</ele>
        <time>2019-08-21T15:49:55Z</time>
      </trkpt>
      <trkpt lat="44.09577" lon="7.35934">
        <ele>1877</ele>
        <time>2019-08-21T15:50:25Z</time>
      </trkpt>
      <trkpt lat="44.09577" lon="7.35942">
        <ele>1876</ele>
        <time>2019-08-21T15:50:33Z</time>
      </trkpt>
      <trkpt lat="44.09569" lon="7.35956">
        <ele>1873</ele>
        <time>2019-08-21T15:50:50Z</time>
      </trkpt>
      <trkpt lat="44.09567" lon="7.35972">
        <ele>1872</ele>
        <time>2019-08-21T15:51:05Z</time>
      </trkpt>
      <trkpt lat="44.09565" lon="7.35978">
        <ele>1871</ele>
        <time>2019-08-21T15:51:12Z</time>
      </trkpt>
      <trkpt lat="44.0956" lon="7.35984">
        <ele>1870</ele>
        <time>2019-08-21T15:51:20Z</time>
      </trkpt>
      <trkpt lat="44.09551" lon="7.35985">
        <ele>1869</ele>
        <time>2019-08-21T15:51:33Z</time>
      </trkpt>
      <trkpt lat="44.09547" lon="7.35989">
        <ele>1868</ele>
        <time>2019-08-21T15:51:39Z</time>
      </trkpt>
      <trkpt lat="44.09537" lon="7.36013">
        <ele>1869</ele>
        <time>2019-08-21T15:52:06Z</time>
      </trkpt>
      <trkpt lat="44.09556" lon="7.36015">
        <ele>1871</ele>
        <time>2019-08-21T15:52:31Z</time>
      </trkpt>
      <trkpt lat="44.09558" lon="7.36018">
        <ele>1871</ele>
        <time>2019-08-21T15:52:35Z</time>
      </trkpt>
      <trkpt lat="44.09568" lon="7.36022">
        <ele>1872</ele>
        <time>2019-08-21T15:52:49Z</time>
      </trkpt>
      <trkpt lat="44.09584" lon="7.36023">
        <ele>1874</ele>
        <time>2019-08-21T15:53:10Z</time>
      </trkpt>
      <trkpt lat="44.09588" lon="7.3602">
        <ele>1874</ele>
        <time>2019-08-21T15:53:16Z</time>
      </trkpt>
      <trkpt lat="44.09592" lon="7.36021">
        <ele>1875</ele>
        <time>2019-08-21T15:53:22Z</time>
      </trkpt>
      <trkpt lat="44.09594" lon="7.36026">
        <ele>1876</ele>
        <time>2019-08-21T15:53:27Z</time>
      </trkpt>
      <trkpt lat="44.09591" lon="7.36033">
        <ele>1876</ele>
        <time>2019-08-21T15:53:35Z</time>
      </trkpt>
      <trkpt lat="44.09591" lon="7.36047">
        <ele>1877</ele>
        <time>2019-08-21T15:53:49Z</time>
      </trkpt>
      <trkpt lat="44.09603" lon="7.36065">
        <ele>1880</ele>
        <time>2019-08-21T15:54:12Z</time>
      </trkpt>
      <trkpt lat="44.09612" lon="7.36084">
        <ele>1882</ele>
        <time>2019-08-21T15:54:34Z</time>
      </trkpt>
      <trkpt lat="44.09611" lon="7.36094">
        <ele>1883</ele>
        <time>2019-08-21T15:54:44Z</time>
      </trkpt>
      <trkpt lat="44.09608" lon="7.36102">
        <ele>1883</ele>
        <time>2019-08-21T15:54:52Z</time>
      </trkpt>
      <trkpt lat="44.09606" lon="7.36104">
        <ele>1883</ele>
        <time>2019-08-21T15:54:55Z</time>
      </trkpt>
      <trkpt lat="44.09606" lon="7.36115">
        <ele>1884</ele>
        <time>2019-08-21T15:55:06Z</time>
      </trkpt>
      <trkpt lat="44.0961" lon="7.3612">
        <ele>1885</ele>
        <time>2019-08-21T15:55:13Z</time>
      </trkpt>
      <trkpt lat="44.09615" lon="7.36121">
        <ele>1885</ele>
        <time>2019-08-21T15:55:20Z</time>
      </trkpt>
      <trkpt lat="44.09622" lon="7.36129">
        <ele>1886</ele>
        <time>2019-08-21T15:55:32Z</time>
      </trkpt>
      <trkpt lat="44.09627" lon="7.36144">
        <ele>1887</ele>
        <time>2019-08-21T15:55:48Z</time>
      </trkpt>
      <trkpt lat="44.09631" lon="7.3616">
        <ele>1887</ele>
        <time>2019-08-21T15:56:04Z</time>
      </trkpt>
      <trkpt lat="44.09637" lon="7.36161">
        <ele>1887</ele>
        <time>2019-08-21T15:56:12Z</time>
      </trkpt>
      <trkpt lat="44.09643" lon="7.36169">
        <ele>1887</ele>
        <time>2019-08-21T15:56:23Z</time>
      </trkpt>
      <trkpt lat="44.09648" lon="7.3617">
        <ele>1887</ele>
        <time>2019-08-21T15:56:30Z</time>
      </trkpt>
      <trkpt lat="44.09663" lon="7.36186">
        <ele>1888</ele>
        <time>2019-08-21T15:56:55Z</time>
      </trkpt>
      <trkpt lat="44.09682" lon="7.36193">
        <ele>1892</ele>
        <time>2019-08-21T15:57:21Z</time>
      </trkpt>
      <trkpt lat="44.09686" lon="7.36199">
        <ele>1893</ele>
        <time>2019-08-21T15:57:29Z</time>
      </trkpt>
      <trkpt lat="44.09692" lon="7.36201">
        <ele>1894</ele>
        <time>2019-08-21T15:57:38Z</time>
      </trkpt>
      <trkpt lat="44.09712" lon="7.36199">
        <ele>1898</ele>
        <time>2019-08-21T15:58:04Z</time>
      </trkpt>
      <trkpt lat="44.09715" lon="7.36201">
        <ele>1899</ele>
        <time>2019-08-21T15:58:09Z</time>
      </trkpt>
      <trkpt lat="44.09725" lon="7.36201">
        <ele>1901</ele>
        <time>2019-08-21T15:58:22Z</time>
      </trkpt>
      <trkpt lat="44.09734" lon="7.36205">
        <ele>1903</ele>
        <time>2019-08-21T15:58:35Z</time>
      </trkpt>
      <trkpt lat="44.09759" lon="7.36209">
        <ele>1908</ele>
        <time>2019-08-21T15:59:08Z</time>
      </trkpt>
      <trkpt lat="44.09762" lon="7.36216">
        <ele>1910</ele>
        <time>2019-08-21T15:59:16Z</time>
      </trkpt>
      <trkpt lat="44.09768" lon="7.36219">
        <ele>1912</ele>
        <time>2019-08-21T15:59:25Z</time>
      </trkpt>
      <trkpt lat="44.09773" lon="7.36227">
        <ele>1914</ele>
        <time>2019-08-21T15:59:35Z</time>
      </trkpt>
      <trkpt lat="44.09778" lon="7.36225">
        <ele>1915</ele>
        <time>2019-08-21T15:59:42Z</time>
      </trkpt>
      <trkpt lat="44.09788" lon="7.36232">
        <ele>1918</ele>
        <time>2019-08-21T15:59:57Z</time>
      </trkpt>
      <trkpt lat="44.09801" lon="7.36232">
        <ele>1922</ele>
        <time>2019-08-21T16:00:14Z</time>
      </trkpt>
      <trkpt lat="44.09822" lon="7.36254">
        <ele>1930</ele>
        <time>2019-08-21T16:00:49Z</time>
      </trkpt>
      <trkpt lat="44.09856" lon="7.36267">
        <ele>1943</ele>
        <time>2019-08-21T16:01:36Z</time>
      </trkpt>
      <trkpt lat="44.0986" lon="7.36266">
        <ele>1944</ele>
        <time>2019-08-21T16:01:41Z</time>
      </trkpt>
      <trkpt lat="44.09867" lon="7.36268">
        <ele>1946</ele>
        <time>2019-08-21T16:01:51Z</time>
      </trkpt>
      <trkpt lat="44.09872" lon="7.36263">
        <ele>1946</ele>
        <time>2019-08-21T16:01:59Z</time>
      </trkpt>
      <trkpt lat="44.09875" lon="7.36271">
        <ele>1949</ele>
        <time>2019-08-21T16:02:08Z</time>
      </trkpt>
      <trkpt lat="44.09878" lon="7.36271">
        <ele>1950</ele>
        <time>2019-08-21T16:02:12Z</time>
      </trkpt>
      <trkpt lat="44.09881" lon="7.36277">
        <ele>1952</ele>
        <time>2019-08-21T16:02:19Z</time>
      </trkpt>
      <trkpt lat="44.0989" lon="7.36268">
        <ele>1952</ele>
        <time>2019-08-21T16:02:34Z</time>
      </trkpt>
      <trkpt lat="44.09898" lon="7.36268">
        <ele>1954</ele>
        <time>2019-08-21T16:02:44Z</time>
      </trkpt>
      <trkpt lat="44.0991" lon="7.36273">
        <ele>1958</ele>
        <time>2019-08-21T16:03:01Z</time>
      </trkpt>
      <trkpt lat="44.09924" lon="7.36273">
        <ele>1962</ele>
        <time>2019-08-21T16:03:20Z</time>
      </trkpt>
      <trkpt lat="44.0993" lon="7.36276">
        <ele>1963</ele>
        <time>2019-08-21T16:03:28Z</time>
      </trkpt>
      <trkpt lat="44.09938" lon="7.36275">
        <ele>1965</ele>
        <time>2019-08-21T16:03:39Z</time>
      </trkpt>
      <trkpt lat="44.09953" lon="7.36264">
        <ele>1965</ele>
        <time>2019-08-21T16:04:02Z</time>
      </trkpt>
      <trkpt lat="44.0996" lon="7.36265">
        <ele>1967</ele>
        <time>2019-08-21T16:04:11Z</time>
      </trkpt>
      <trkpt lat="44.09965" lon="7.36268">
        <ele>1968</ele>
        <time>2019-08-21T16:04:18Z</time>
      </trkpt>
      <trkpt lat="44.09968" lon="7.36274">
        <ele>1970</ele>
        <time>2019-08-21T16:04:25Z</time>
      </trkpt>
      <trkpt lat="44.09975" lon="7.36279">
        <ele>1973</ele>
        <time>2019-08-21T16:04:36Z</time>
      </trkpt>
      <trkpt lat="44.0998" lon="7.36286">
        <ele>1975</ele>
        <time>2019-08-21T16:04:45Z</time>
      </trkpt>
      <trkpt lat="44.09988" lon="7.36289">
        <ele>1977</ele>
        <time>2019-08-21T16:04:56Z</time>
      </trkpt>
      <trkpt lat="44.09992" lon="7.36293">
        <ele>1979</ele>
        <time>2019-08-21T16:05:03Z</time>
      </trkpt>
      <trkpt lat="44.09997" lon="7.36296">
        <ele>1981</ele>
        <time>2019-08-21T16:05:10Z</time>
      </trkpt>
      <trkpt lat="44.10003" lon="7.36321">
        <ele>1988</ele>
        <time>2019-08-21T16:05:35Z</time>
      </trkpt>
      <trkpt lat="44.10006" lon="7.36325">
        <ele>1989</ele>
        <time>2019-08-21T16:05:41Z</time>
      </trkpt>
      <trkpt lat="44.10005" lon="7.36329">
        <ele>1990</ele>
        <time>2019-08-21T16:05:45Z</time>
      </trkpt>
      <trkpt lat="44.1001" lon="7.3633">
        <ele>1991</ele>
        <time>2019-08-21T16:05:52Z</time>
      </trkpt>
      <trkpt lat="44.10011" lon="7.36338">
        <ele>1993</ele>
        <time>2019-08-21T16:06:00Z</time>
      </trkpt>
      <trkpt lat="44.10016" lon="7.36345">
        <ele>1996</ele>
        <time>2019-08-21T16:06:09Z</time>
      </trkpt>
      <trkpt lat="44.1002" lon="7.36344">
        <ele>1997</ele>
        <time>2019-08-21T16:06:14Z</time>
      </trkpt>
      <trkpt lat="44.10025" lon="7.36349">
        <ele>1999</ele>
        <time>2019-08-21T16:06:23Z</time>
      </trkpt>
      <trkpt lat="44.10032" lon="7.36346">
        <ele>2000</ele>
        <time>2019-08-21T16:06:32Z</time>
      </trkpt>
      <trkpt lat="44.10035" lon="7.36346">
        <ele>2000</ele>
        <time>2019-08-21T16:06:36Z</time>
      </trkpt>
      <trkpt lat="44.10038" lon="7.36349">
        <ele>2002</ele>
        <time>2019-08-21T16:06:41Z</time>
      </trkpt>
      <trkpt lat="44.10059" lon="7.36348">
        <ele>2006</ele>
        <time>2019-08-21T16:07:09Z</time>
      </trkpt>
      <trkpt lat="44.10064" lon="7.36351">
        <ele>2007</ele>
        <time>2019-08-21T16:07:17Z</time>
      </trkpt>
      <trkpt lat="44.10062" lon="7.36356">
        <ele>2009</ele>
        <time>2019-08-21T16:07:22Z</time>
      </trkpt>
      <trkpt lat="44.10054" lon="7.36363">
        <ele>2009</ele>
        <time>2019-08-21T16:07:35Z</time>
      </trkpt>
      <trkpt lat="44.10049" lon="7.36384">
        <ele>2014</ele>
        <time>2019-08-21T16:07:56Z</time>
      </trkpt>
      <trkpt lat="44.1005" lon="7.36387">
        <ele>2015</ele>
        <time>2019-08-21T16:07:59Z</time>
      </trkpt>
      <trkpt lat="44.10056" lon="7.36388">
        <ele>2017</ele>
        <time>2019-08-21T16:08:07Z</time>
      </trkpt>
      <trkpt lat="44.10061" lon="7.36385">
        <ele>2017</ele>
        <time>2019-08-21T16:08:14Z</time>
      </trkpt>
      <trkpt lat="44.10066" lon="7.36385">
        <ele>2018</ele>
        <time>2019-08-21T16:08:21Z</time>
      </trkpt>
      <trkpt lat="44.10073" lon="7.3639">
        <ele>2021</ele>
        <time>2019-08-21T16:08:32Z</time>
      </trkpt>
      <trkpt lat="44.10085" lon="7.36392">
        <ele>2024</ele>
        <time>2019-08-21T16:08:48Z</time>
      </trkpt>
      <trkpt lat="44.1009" lon="7.36398">
        <ele>2026</ele>
        <time>2019-08-21T16:08:57Z</time>
      </trkpt>
      <trkpt lat="44.10095" lon="7.3641">
        <ele>2030</ele>
        <time>2019-08-21T16:09:10Z</time>
      </trkpt>
      <trkpt lat="44.101" lon="7.36414">
        <ele>2031</ele>
        <time>2019-08-21T16:09:18Z</time>
      </trkpt>
      <trkpt lat="44.10109" lon="7.36417">
        <ele>2032</ele>
        <time>2019-08-21T16:09:30Z</time>
      </trkpt>
      <trkpt lat="44.1012" lon="7.3643">
        <ele>2036</ele>
        <time>2019-08-21T16:09:49Z</time>
      </trkpt>
      <trkpt lat="44.10131" lon="7.36435">
        <ele>2038</ele>
        <time>2019-08-21T16:10:05Z</time>
      </trkpt>
      <trkpt lat="44.10135" lon="7.36435">
        <ele>2038</ele>
        <time>2019-08-21T16:10:10Z</time>
      </trkpt>
      <trkpt lat="44.10144" lon="7.36444">
        <ele>2041</ele>
        <time>2019-08-21T16:10:25Z</time>
      </trkpt>
      <trkpt lat="44.10153" lon="7.36444">
        <ele>2042</ele>
        <time>2019-08-21T16:10:37Z</time>
      </trkpt>
      <trkpt lat="44.10171" lon="7.3645">
        <ele>2045</ele>
        <time>2019-08-21T16:11:01Z</time>
      </trkpt>
      <trkpt lat="44.10179" lon="7.36438">
        <ele>2043</ele>
        <time>2019-08-21T16:11:17Z</time>
      </trkpt>
      <trkpt lat="44.10183" lon="7.36437">
        <ele>2043</ele>
        <time>2019-08-21T16:11:23Z</time>
      </trkpt>
      <trkpt lat="44.10184" lon="7.3644">
        <ele>2044</ele>
        <time>2019-08-21T16:11:26Z</time>
      </trkpt>
      <trkpt lat="44.10184" lon="7.36454">
        <ele>2048</ele>
        <time>2019-08-21T16:11:39Z</time>
      </trkpt>
      <trkpt lat="44.10187" lon="7.36456">
        <ele>2049</ele>
        <time>2019-08-21T16:11:44Z</time>
      </trkpt>
      <trkpt lat="44.10185" lon="7.36461">
        <ele>2050</ele>
        <time>2019-08-21T16:11:49Z</time>
      </trkpt>
      <trkpt lat="44.1019" lon="7.36466">
        <ele>2052</ele>
        <time>2019-08-21T16:11:57Z</time>
      </trkpt>
      <trkpt lat="44.10189" lon="7.36471">
        <ele>2054</ele>
        <time>2019-08-21T16:12:02Z</time>
      </trkpt>
      <trkpt lat="44.10194" lon="7.36477">
        <ele>2056</ele>
        <time>2019-08-21T16:12:11Z</time>
      </trkpt>
      <trkpt lat="44.10193" lon="7.36482">
        <ele>2058</ele>
        <time>2019-08-21T16:12:16Z</time>
      </trkpt>
      <trkpt lat="44.10195" lon="7.36487">
        <ele>2059</ele>
        <time>2019-08-21T16:12:21Z</time>
      </trkpt>
      <trkpt lat="44.10193" lon="7.36492">
        <ele>2060</ele>
        <time>2019-08-21T16:12:27Z</time>
      </trkpt>
      <trkpt lat="44.10194" lon="7.36507">
        <ele>2064</ele>
        <time>2019-08-21T16:12:41Z</time>
      </trkpt>
      <trkpt lat="44.10193" lon="7.36517">
        <ele>2066</ele>
        <time>2019-08-21T16:12:51Z</time>
      </trkpt>
      <trkpt lat="44.10196" lon="7.36527">
        <ele>2069</ele>
        <time>2019-08-21T16:13:01Z</time>
      </trkpt>
      <trkpt lat="44.10196" lon="7.36536">
        <ele>2071</ele>
        <time>2019-08-21T16:13:10Z</time>
      </trkpt>
      <trkpt lat="44.10198" lon="7.36539">
        <ele>2071</ele>
        <time>2019-08-21T16:13:14Z</time>
      </trkpt>
      <trkpt lat="44.10198" lon="7.36549">
        <ele>2073</ele>
        <time>2019-08-21T16:13:24Z</time>
      </trkpt>
      <trkpt lat="44.10201" lon="7.36554">
        <ele>2074</ele>
        <time>2019-08-21T16:13:30Z</time>
      </trkpt>
      <trkpt lat="44.102" lon="7.36558">
        <ele>2075</ele>
        <time>2019-08-21T16:13:34Z</time>
      </trkpt>
      <trkpt lat="44.10194" lon="7.36559">
        <ele>2075</ele>
        <time>2019-08-21T16:13:42Z</time>
      </trkpt>
      <trkpt lat="44.10192" lon="7.36563">
        <ele>2076</ele>
        <time>2019-08-21T16:13:47Z</time>
      </trkpt>
      <trkpt lat="44.10194" lon="7.36566">
        <ele>2077</ele>
        <time>2019-08-21T16:13:51Z</time>
      </trkpt>
      <trkpt lat="44.10204" lon="7.36568">
        <ele>2077</ele>
        <time>2019-08-21T16:14:04Z</time>
      </trkpt>
      <trkpt lat="44.10209" lon="7.36575">
        <ele>2078</ele>
        <time>2019-08-21T16:14:13Z</time>
      </trkpt>
      <trkpt lat="44.10211" lon="7.36598">
        <ele>2082</ele>
        <time>2019-08-21T16:14:36Z</time>
      </trkpt>
      <trkpt lat="44.10201" lon="7.3662">
        <ele>2086</ele>
        <time>2019-08-21T16:15:01Z</time>
      </trkpt>
      <trkpt lat="44.102" lon="7.36659">
        <ele>2092</ele>
        <time>2019-08-21T16:15:38Z</time>
      </trkpt>
      <trkpt lat="44.10196" lon="7.36679">
        <ele>2095</ele>
        <time>2019-08-21T16:15:58Z</time>
      </trkpt>
      <trkpt lat="44.10193" lon="7.36682">
        <ele>2096</ele>
        <time>2019-08-21T16:16:03Z</time>
      </trkpt>
      <trkpt lat="44.10186" lon="7.36679">
        <ele>2097</ele>
        <time>2019-08-21T16:16:13Z</time>
      </trkpt>
      <trkpt lat="44.10186" lon="7.36683">
        <ele>2097</ele>
        <time>2019-08-21T16:16:16Z</time>
      </trkpt>
      <trkpt lat="44.10189" lon="7.36686">
        <ele>2097</ele>
        <time>2019-08-21T16:16:21Z</time>
      </trkpt>
      <trkpt lat="44.10188" lon="7.36692">
        <ele>2098</ele>
        <time>2019-08-21T16:16:27Z</time>
      </trkpt>
      <trkpt lat="44.10182" lon="7.36697">
        <ele>2099</ele>
        <time>2019-08-21T16:16:37Z</time>
      </trkpt>
      <trkpt lat="44.10176" lon="7.36697">
        <ele>2100</ele>
        <time>2019-08-21T16:16:45Z</time>
      </trkpt>
      <trkpt lat="44.10172" lon="7.36706">
        <ele>2102</ele>
        <time>2019-08-21T16:16:55Z</time>
      </trkpt>
      <trkpt lat="44.10166" lon="7.36703">
        <ele>2102</ele>
        <time>2019-08-21T16:17:03Z</time>
      </trkpt>
      <trkpt lat="44.10164" lon="7.36705">
        <ele>2103</ele>
        <time>2019-08-21T16:17:07Z</time>
      </trkpt>
      <trkpt lat="44.10163" lon="7.3671">
        <ele>2104</ele>
        <time>2019-08-21T16:17:12Z</time>
      </trkpt>
      <trkpt lat="44.10167" lon="7.36719">
        <ele>2104</ele>
        <time>2019-08-21T16:17:22Z</time>
      </trkpt>
      <trkpt lat="44.10167" lon="7.36724">
        <ele>2105</ele>
        <time>2019-08-21T16:17:26Z</time>
      </trkpt>
      <trkpt lat="44.10164" lon="7.36726">
        <ele>2106</ele>
        <time>2019-08-21T16:17:31Z</time>
      </trkpt>
      <trkpt lat="44.10162" lon="7.36723">
        <ele>2106</ele>
        <time>2019-08-21T16:17:35Z</time>
      </trkpt>
      <trkpt lat="44.1016" lon="7.36724">
        <ele>2106</ele>
        <time>2019-08-21T16:17:38Z</time>
      </trkpt>
      <trkpt lat="44.10151" lon="7.36731">
        <ele>2109</ele>
        <time>2019-08-21T16:17:51Z</time>
      </trkpt>
      <trkpt lat="44.10147" lon="7.36755">
        <ele>2113</ele>
        <time>2019-08-21T16:18:15Z</time>
      </trkpt>
      <trkpt lat="44.10144" lon="7.36758">
        <ele>2114</ele>
        <time>2019-08-21T16:18:20Z</time>
      </trkpt>
      <trkpt lat="44.10138" lon="7.36759">
        <ele>2116</ele>
        <time>2019-08-21T16:18:28Z</time>
      </trkpt>
      <trkpt lat="44.1013" lon="7.36756">
        <ele>2117</ele>
        <time>2019-08-21T16:18:39Z</time>
      </trkpt>
      <trkpt lat="44.10119" lon="7.36779">
        <ele>2124</ele>
        <time>2019-08-21T16:19:06Z</time>
      </trkpt>
      <trkpt lat="44.10113" lon="7.36786">
        <ele>2128</ele>
        <time>2019-08-21T16:19:16Z</time>
      </trkpt>
      <trkpt lat="44.10113" lon="7.36798">
        <ele>2130</ele>
        <time>2019-08-21T16:19:28Z</time>
      </trkpt>
      <trkpt lat="44.1012" lon="7.36808">
        <ele>2130</ele>
        <time>2019-08-21T16:19:41Z</time>
      </trkpt>
      <trkpt lat="44.10121" lon="7.36816">
        <ele>2131</ele>
        <time>2019-08-21T16:19:49Z</time>
      </trkpt>
      <trkpt lat="44.10115" lon="7.36833">
        <ele>2136</ele>
        <time>2019-08-21T16:20:07Z</time>
      </trkpt>
      <trkpt lat="44.1011" lon="7.36839">
        <ele>2140</ele>
        <time>2019-08-21T16:20:16Z</time>
      </trkpt>
      <trkpt lat="44.10107" lon="7.36836">
        <ele>2140</ele>
        <time>2019-08-21T16:20:21Z</time>
      </trkpt>
      <trkpt lat="44.10103" lon="7.36837">
        <ele>2142</ele>
        <time>2019-08-21T16:20:26Z</time>
      </trkpt>
      <trkpt lat="44.10098" lon="7.36836">
        <ele>2144</ele>
        <time>2019-08-21T16:20:33Z</time>
      </trkpt>
      <trkpt lat="44.10094" lon="7.36841">
        <ele>2147</ele>
        <time>2019-08-21T16:20:40Z</time>
      </trkpt>
      <trkpt lat="44.10087" lon="7.36843">
        <ele>2150</ele>
        <time>2019-08-21T16:20:49Z</time>
      </trkpt>
      <trkpt lat="44.10082" lon="7.36847">
        <ele>2153</ele>
        <time>2019-08-21T16:20:57Z</time>
      </trkpt>
      <trkpt lat="44.10076" lon="7.36846">
        <ele>2154</ele>
        <time>2019-08-21T16:21:05Z</time>
      </trkpt>
      <trkpt lat="44.10073" lon="7.36848">
        <ele>2155</ele>
        <time>2019-08-21T16:21:10Z</time>
      </trkpt>
      <trkpt lat="44.10063" lon="7.36842">
        <ele>2157</ele>
        <time>2019-08-21T16:21:24Z</time>
      </trkpt>
      <trkpt lat="44.10063" lon="7.36847">
        <ele>2158</ele>
        <time>2019-08-21T16:21:29Z</time>
      </trkpt>
      <trkpt lat="44.1007" lon="7.36866">
        <ele>2161</ele>
        <time>2019-08-21T16:21:49Z</time>
      </trkpt>
      <trkpt lat="44.10069" lon="7.369">
        <ele>2171</ele>
        <time>2019-08-21T16:22:22Z</time>
      </trkpt>
      <trkpt lat="44.10071" lon="7.36952">
        <ele>2184</ele>
        <time>2019-08-21T16:23:12Z</time>
      </trkpt>
      <trkpt lat="44.1009" lon="7.36994">
        <ele>2184</ele>
        <time>2019-08-21T16:24:00Z</time>
      </trkpt>
      <trkpt lat="44.10093" lon="7.37007">
        <ele>2187</ele>
        <time>2019-08-21T16:24:13Z</time>
      </trkpt>
      <trkpt lat="44.10093" lon="7.37025">
        <ele>2193</ele>
        <time>2019-08-21T16:24:30Z</time>
      </trkpt>
      <trkpt lat="44.10092" lon="7.37033">
        <ele>2196</ele>
        <time>2019-08-21T16:24:38Z</time>
      </trkpt>
      <trkpt lat="44.10097" lon="7.37045">
        <ele>2198</ele>
        <time>2019-08-21T16:24:51Z</time>
      </trkpt>
      <trkpt lat="44.10095" lon="7.37066">
        <ele>2207</ele>
        <time>2019-08-21T16:25:11Z</time>
      </trkpt>
      <trkpt lat="44.10101" lon="7.37089">
        <ele>2211</ele>
        <time>2019-08-21T16:25:35Z</time>
      </trkpt>
      <trkpt lat="44.10104" lon="7.37127">
        <ele>2216</ele>
        <time>2019-08-21T16:26:11Z</time>
      </trkpt>
      <trkpt lat="44.101" lon="7.37149">
        <ele>2222</ele>
        <time>2019-08-21T16:26:33Z</time>
      </trkpt>
      <trkpt lat="44.101" lon="7.3716">
        <ele>2224</ele>
        <time>2019-08-21T16:26:44Z</time>
      </trkpt>
      <trkpt lat="44.10109" lon="7.3719">
        <ele>2228</ele>
        <time>2019-08-21T16:27:15Z</time>
      </trkpt>
      <trkpt lat="44.10113" lon="7.37224">
        <ele>2236</ele>
        <time>2019-08-21T16:27:48Z</time>
      </trkpt>
      <trkpt lat="44.10118" lon="7.3724">
        <ele>2238</ele>
        <time>2019-08-21T16:28:05Z</time>
      </trkpt>
      <trkpt lat="44.10117" lon="7.37253">
        <ele>2241</ele>
        <time>2019-08-21T16:28:17Z</time>
      </trkpt>
      <trkpt lat="44.1012" lon="7.37262">
        <ele>2241</ele>
        <time>2019-08-21T16:28:27Z</time>
      </trkpt>
      <trkpt lat="44.10117" lon="7.3728">
        <ele>2246</ele>
        <time>2019-08-21T16:28:44Z</time>
      </trkpt>
      <trkpt lat="44.10119" lon="7.37293">
        <ele>2248</ele>
        <time>2019-08-21T16:28:57Z</time>
      </trkpt>
      <trkpt lat="44.10118" lon="7.37309">
        <ele>2251</ele>
        <time>2019-08-21T16:29:12Z</time>
      </trkpt>
      <trkpt lat="44.10125" lon="7.3735">
        <ele>2258</ele>
        <time>2019-08-21T16:29:53Z</time>
      </trkpt>
      <trkpt lat="44.10129" lon="7.37362">
        <ele>2261</ele>
        <time>2019-08-21T16:30:05Z</time>
      </trkpt>
      <trkpt lat="44.10136" lon="7.37377">
        <ele>2263</ele>
        <time>2019-08-21T16:30:23Z</time>
      </trkpt>
      <trkpt lat="44.10152" lon="7.37397">
        <ele>2263</ele>
        <time>2019-08-21T16:30:51Z</time>
      </trkpt>
      <trkpt lat="44.10161" lon="7.37413">
        <ele>2264</ele>
        <time>2019-08-21T16:31:11Z</time>
      </trkpt>
      <trkpt lat="44.10213" lon="7.37458">
        <ele>2271</ele>
        <time>2019-08-21T16:32:32Z</time>
      </trkpt>
      <trkpt lat="44.10222" lon="7.37491">
        <ele>2285</ele>
        <time>2019-08-21T16:33:06Z</time>
      </trkpt>
      <trkpt lat="44.10224" lon="7.37507">
        <ele>2290</ele>
        <time>2019-08-21T16:33:22Z</time>
      </trkpt>
      <trkpt lat="44.10224" lon="7.37513">
        <ele>2292</ele>
        <time>2019-08-21T16:33:28Z</time>
      </trkpt>
      <trkpt lat="44.10221" lon="7.3752">
        <ele>2295</ele>
        <time>2019-08-21T16:33:35Z</time>
      </trkpt>
      <trkpt lat="44.10223" lon="7.37545">
        <ele>2302</ele>
        <time>2019-08-21T16:34:00Z</time>
      </trkpt>
      <trkpt lat="44.10223" lon="7.37584">
        <ele>2313</ele>
        <time>2019-08-21T16:34:37Z</time>
      </trkpt>
      <trkpt lat="44.10225" lon="7.37596">
        <ele>2314</ele>
        <time>2019-08-21T16:34:49Z</time>
      </trkpt>
      <trkpt lat="44.10239" lon="7.37633">
        <ele>2316</ele>
        <time>2019-08-21T16:35:29Z</time>
      </trkpt>
      <trkpt lat="44.10246" lon="7.37669">
        <ele>2320</ele>
        <time>2019-08-21T16:36:05Z</time>
      </trkpt>
      <trkpt lat="44.10251" lon="7.37707">
        <ele>2325</ele>
        <time>2019-08-21T16:36:42Z</time>
      </trkpt>
      <trkpt lat="44.1025" lon="7.37718">
        <ele>2327</ele>
        <time>2019-08-21T16:36:52Z</time>
      </trkpt>
      <trkpt lat="44.10238" lon="7.37744">
        <ele>2335</ele>
        <time>2019-08-21T16:37:22Z</time>
      </trkpt>
      <trkpt lat="44.10231" lon="7.3777">
        <ele>2343</ele>
        <time>2019-08-21T16:37:48Z</time>
      </trkpt>
      <trkpt lat="44.10231" lon="7.37809">
        <ele>2352</ele>
        <time>2019-08-21T16:38:26Z</time>
      </trkpt>
      <trkpt lat="44.10236" lon="7.37833">
        <ele>2357</ele>
        <time>2019-08-21T16:38:50Z</time>
      </trkpt>
      <trkpt lat="44.10245" lon="7.37841">
        <ele>2357</ele>
        <time>2019-08-21T16:39:04Z</time>
      </trkpt>
      <trkpt lat="44.10251" lon="7.3786">
        <ele>2361</ele>
        <time>2019-08-21T16:39:24Z</time>
      </trkpt>
      <trkpt lat="44.10255" lon="7.37877">
        <ele>2365</ele>
        <time>2019-08-21T16:39:41Z</time>
      </trkpt>
      <trkpt lat="44.10254" lon="7.37895">
        <ele>2370</ele>
        <time>2019-08-21T16:39:58Z</time>
      </trkpt>
      <trkpt lat="44.10248" lon="7.37915">
        <ele>2374</ele>
        <time>2019-08-21T16:40:19Z</time>
      </trkpt>
      <trkpt lat="44.10249" lon="7.37918">
        <ele>2375</ele>
        <time>2019-08-21T16:40:22Z</time>
      </trkpt>
      <trkpt lat="44.10253" lon="7.37927">
        <ele>2375</ele>
        <time>2019-08-21T16:40:32Z</time>
      </trkpt>
      <trkpt lat="44.10256" lon="7.37928">
        <ele>2376</ele>
        <time>2019-08-21T16:40:36Z</time>
      </trkpt>
      <trkpt lat="44.10257" lon="7.37933">
        <ele>2377</ele>
        <time>2019-08-21T16:40:41Z</time>
      </trkpt>
      <trkpt lat="44.10259" lon="7.37934">
        <ele>2377</ele>
        <time>2019-08-21T16:40:44Z</time>
      </trkpt>
      <trkpt lat="44.1027" lon="7.37926">
        <ele>2378</ele>
        <time>2019-08-21T16:41:01Z</time>
      </trkpt>
      <trkpt lat="44.10272" lon="7.37929">
        <ele>2379</ele>
        <time>2019-08-21T16:41:05Z</time>
      </trkpt>
      <trkpt lat="44.10279" lon="7.37923">
        <ele>2379</ele>
        <time>2019-08-21T16:41:16Z</time>
      </trkpt>
      <trkpt lat="44.10286" lon="7.37953">
        <ele>2383</ele>
        <time>2019-08-21T16:41:46Z</time>
      </trkpt>
      <trkpt lat="44.10278" lon="7.38013">
        <ele>2386</ele>
        <time>2019-08-21T16:42:44Z</time>
      </trkpt>
      <trkpt lat="44.10281" lon="7.38034">
        <ele>2388</ele>
        <time>2019-08-21T16:43:05Z</time>
      </trkpt>
      <trkpt lat="44.1025" lon="7.38056">
        <ele>2386</ele>
        <time>2019-08-21T16:43:51Z</time>
      </trkpt>
      <trkpt lat="44.10258" lon="7.38064">
        <ele>2388</ele>
        <time>2019-08-21T16:44:05Z</time>
      </trkpt>
      <trkpt lat="44.10253" lon="7.38082">
        <ele>2389</ele>
        <time>2019-08-21T16:44:23Z</time>
      </trkpt>
      <trkpt lat="44.10246" lon="7.38085">
        <ele>2391</ele>
        <time>2019-08-21T16:44:33Z</time>
      </trkpt>
      <trkpt lat="44.10242" lon="7.38105">
        <ele>2395</ele>
        <time>2019-08-21T16:44:53Z</time>
      </trkpt>
      <trkpt lat="44.10209" lon="7.38126">
        <ele>2407</ele>
        <time>2019-08-21T16:45:41Z</time>
      </trkpt>
      <trkpt lat="44.10209" lon="7.38143">
        <ele>2409</ele>
        <time>2019-08-21T16:45:57Z</time>
      </trkpt>
      <trkpt lat="44.10199" lon="7.38152">
        <ele>2412</ele>
        <time>2019-08-21T16:46:13Z</time>
      </trkpt>
      <trkpt lat="44.10192" lon="7.38169">
        <ele>2414</ele>
        <time>2019-08-21T16:46:32Z</time>
      </trkpt>
      <trkpt lat="44.10204" lon="7.38185">
        <ele>2416</ele>
        <time>2019-08-21T16:46:54Z</time>
      </trkpt>
      <trkpt lat="44.10195" lon="7.38193">
        <ele>2419</ele>
        <time>2019-08-21T16:47:08Z</time>
      </trkpt>
      <trkpt lat="44.10191" lon="7.38214">
        <ele>2424</ele>
        <time>2019-08-21T16:47:29Z</time>
      </trkpt>
      <trkpt lat="44.10175" lon="7.38225">
        <ele>2427</ele>
        <time>2019-08-21T16:47:53Z</time>
      </trkpt>
      <trkpt lat="44.10177" lon="7.38253">
        <ele>2431</ele>
        <time>2019-08-21T16:48:20Z</time>
      </trkpt>
      <trkpt lat="44.10166" lon="7.38282">
        <ele>2435</ele>
        <time>2019-08-21T16:48:52Z</time>
      </trkpt>
      <trkpt lat="44.1016" lon="7.38317">
        <ele>2443</ele>
        <time>2019-08-21T16:49:26Z</time>
      </trkpt>
      <trkpt lat="44.10151" lon="7.38331">
        <ele>2450</ele>
        <time>2019-08-21T16:49:44Z</time>
      </trkpt>
      <trkpt lat="44.10159" lon="7.38414">
        <ele>2475</ele>
        <time>2019-08-21T16:51:04Z</time>
      </trkpt>
      <trkpt lat="44.10163" lon="7.38431">
        <ele>2479</ele>
        <time>2019-08-21T16:51:21Z</time>
      </trkpt>
      <trkpt lat="44.10184" lon="7.38452">
        <ele>2485</ele>
        <time>2019-08-21T16:51:56Z</time>
      </trkpt>
      <trkpt lat="44.10178" lon="7.38457">
        <ele>2486</ele>
        <time>2019-08-21T16:52:05Z</time>
      </trkpt>
      <trkpt lat="44.10188" lon="7.38471">
        <ele>2493</ele>
        <time>2019-08-21T16:52:24Z</time>
      </trkpt>
      <trkpt lat="44.1016" lon="7.385">
        <ele>2503</ele>
        <time>2019-08-21T16:53:11Z</time>
      </trkpt>
      <trkpt lat="44.10141" lon="7.38502">
        <ele>2516</ele>
        <time>2019-08-21T16:53:36Z</time>
      </trkpt>
      <trkpt lat="44.10146" lon="7.38511">
        <ele>2516</ele>
        <time>2019-08-21T16:53:47Z</time>
      </trkpt>
      <trkpt lat="44.10129" lon="7.38571">
        <ele>2543</ele>
        <time>2019-08-21T16:54:49Z</time>
      </trkpt>
      <trkpt lat="44.10118" lon="7.38574">
        <ele>2546</ele>
        <time>2019-08-21T16:55:04Z</time>
      </trkpt>
      <trkpt lat="44.10122" lon="7.38607">
        <ele>2541</ele>
        <time>2019-08-21T16:55:36Z</time>
      </trkpt>
      <trkpt lat="44.10106" lon="7.38641">
        <ele>2528</ele>
        <time>2019-08-21T16:56:15Z</time>
      </trkpt>
      <trkpt lat="44.10087" lon="7.38654">
        <ele>2516</ele>
        <time>2019-08-21T16:56:43Z</time>
      </trkpt>
      <trkpt lat="44.10075" lon="7.38682">
        <ele>2503</ele>
        <time>2019-08-21T16:57:14Z</time>
      </trkpt>
      <trkpt lat="44.10025" lon="7.38734">
        <ele>2475</ele>
        <time>2019-08-21T16:58:38Z</time>
      </trkpt>
      <trkpt lat="44.10027" lon="7.38798">
        <ele>2439</ele>
        <time>2019-08-21T16:59:39Z</time>
      </trkpt>
      <trkpt lat="44.10004" lon="7.3888">
        <ele>2397</ele>
        <time>2019-08-21T17:01:03Z</time>
      </trkpt>
      <trkpt lat="44.1003" lon="7.38989">
        <ele>2379</ele>
        <time>2019-08-21T17:02:53Z</time>
      </trkpt>
      <trkpt lat="44.10022" lon="7.39006">
        <ele>2374</ele>
        <time>2019-08-21T17:03:13Z</time>
      </trkpt>
      <trkpt lat="44.09996" lon="7.3912">
        <ele>2351</ele>
        <time>2019-08-21T17:05:08Z</time>
      </trkpt>
      <trkpt lat="44.09963" lon="7.39172">
        <ele>2337</ele>
        <time>2019-08-21T17:06:14Z</time>
      </trkpt>
      <trkpt lat="44.0994" lon="7.39237">
        <ele>2300</ele>
        <time>2019-08-21T17:07:23Z</time>
      </trkpt>
      <trkpt lat="44.09924" lon="7.39237">
        <ele>2291</ele>
        <time>2019-08-21T17:07:45Z</time>
      </trkpt>
      <trkpt lat="44.09887" lon="7.39271">
        <ele>2271</ele>
        <time>2019-08-21T17:08:44Z</time>
      </trkpt>
      <trkpt lat="44.09889" lon="7.39316">
        <ele>2248</ele>
        <time>2019-08-21T17:09:27Z</time>
      </trkpt>
      <trkpt lat="44.09852" lon="7.3932">
        <ele>2241</ele>
        <time>2019-08-21T17:10:17Z</time>
      </trkpt>
      <trkpt lat="44.09847" lon="7.3938">
        <ele>2216</ele>
        <time>2019-08-21T17:11:15Z</time>
      </trkpt>
      <trkpt lat="44.09831" lon="7.39403">
        <ele>2204</ele>
        <time>2019-08-21T17:11:45Z</time>
      </trkpt>
      <trkpt lat="44.09828" lon="7.39445">
        <ele>2189</ele>
        <time>2019-08-21T17:12:26Z</time>
      </trkpt>
      <trkpt lat="44.09813" lon="7.39475">
        <ele>2174</ele>
        <time>2019-08-21T17:13:01Z</time>
      </trkpt>
      <trkpt lat="44.09859" lon="7.39515">
        <ele>2178</ele>
        <time>2019-08-21T17:14:13Z</time>
      </trkpt>
      <trkpt lat="44.09887" lon="7.39597">
        <ele>2167</ele>
        <time>2019-08-21T17:15:40Z</time>
      </trkpt>
      <trkpt lat="44.09882" lon="7.39625">
        <ele>2162</ele>
        <time>2019-08-21T17:16:08Z</time>
      </trkpt>
      <trkpt lat="44.09885" lon="7.39652">
        <ele>2160</ele>
        <time>2019-08-21T17:16:34Z</time>
      </trkpt>
      <trkpt lat="44.09896" lon="7.39678">
        <ele>2162</ele>
        <time>2019-08-21T17:17:03Z</time>
      </trkpt>
      <trkpt lat="44.09897" lon="7.39696">
        <ele>2164</ele>
        <time>2019-08-21T17:17:20Z</time>
      </trkpt>
      <trkpt lat="44.09923" lon="7.39697">
        <ele>2170</ele>
        <time>2019-08-21T17:17:55Z</time>
      </trkpt>
      <trkpt lat="44.0993" lon="7.39684">
        <ele>2170</ele>
        <time>2019-08-21T17:18:11Z</time>
      </trkpt>
      <trkpt lat="44.09939" lon="7.3968">
        <ele>2172</ele>
        <time>2019-08-21T17:18:23Z</time>
      </trkpt>
      <trkpt lat="44.09947" lon="7.39672">
        <ele>2173</ele>
        <time>2019-08-21T17:18:36Z</time>
      </trkpt>
      <trkpt lat="44.09941" lon="7.39665">
        <ele>2171</ele>
        <time>2019-08-21T17:18:47Z</time>
      </trkpt>
      <trkpt lat="44.09946" lon="7.39657">
        <ele>2175</ele>
        <time>2019-08-21T17:18:57Z</time>
      </trkpt>
      <trkpt lat="44.0994" lon="7.39649">
        <ele>2175</ele>
        <time>2019-08-21T17:19:08Z</time>
      </trkpt>
      <trkpt lat="44.0994" lon="7.39644">
        <ele>2176</ele>
        <time>2019-08-21T17:19:13Z</time>
      </trkpt>
      <trkpt lat="44.09951" lon="7.39644">
        <ele>2179</ele>
        <time>2019-08-21T17:19:27Z</time>
      </trkpt>
      <trkpt lat="44.09955" lon="7.39638">
        <ele>2182</ele>
        <time>2019-08-21T17:19:35Z</time>
      </trkpt>
      <trkpt lat="44.09986" lon="7.39639">
        <ele>2191</ele>
        <time>2019-08-21T17:20:17Z</time>
      </trkpt>
      <trkpt lat="44.09997" lon="7.39642">
        <ele>2193</ele>
        <time>2019-08-21T17:20:32Z</time>
      </trkpt>
      <trkpt lat="44.10015" lon="7.39632">
        <ele>2198</ele>
        <time>2019-08-21T17:20:57Z</time>
      </trkpt>
      <trkpt lat="44.10022" lon="7.39632">
        <ele>2199</ele>
        <time>2019-08-21T17:21:07Z</time>
      </trkpt>
      <trkpt lat="44.10033" lon="7.39636">
        <ele>2198</ele>
        <time>2019-08-21T17:21:22Z</time>
      </trkpt>
      <trkpt lat="44.10058" lon="7.39631">
        <ele>2201</ele>
        <time>2019-08-21T17:21:56Z</time>
      </trkpt>
      <trkpt lat="44.10071" lon="7.39632">
        <ele>2201</ele>
        <time>2019-08-21T17:22:13Z</time>
      </trkpt>
      <trkpt lat="44.10085" lon="7.39635">
        <ele>2201</ele>
        <time>2019-08-21T17:22:32Z</time>
      </trkpt>
      <trkpt lat="44.10089" lon="7.39634">
        <ele>2201</ele>
        <time>2019-08-21T17:22:37Z</time>
      </trkpt>
      <trkpt lat="44.10102" lon="7.39616">
        <ele>2205</ele>
        <time>2019-08-21T17:23:02Z</time>
      </trkpt>
      <trkpt lat="44.10116" lon="7.39609">
        <ele>2205</ele>
        <time>2019-08-21T17:23:22Z</time>
      </trkpt>
      <trkpt lat="44.10177" lon="7.39607">
        <ele>2198</ele>
        <time>2019-08-21T17:24:43Z</time>
      </trkpt>
      <trkpt lat="44.10191" lon="7.396">
        <ele>2199</ele>
        <time>2019-08-21T17:25:03Z</time>
      </trkpt>
      <trkpt lat="44.10216" lon="7.39599">
        <ele>2200</ele>
        <time>2019-08-21T17:25:36Z</time>
      </trkpt>
      <trkpt lat="44.10237" lon="7.39581">
        <ele>2204</ele>
        <time>2019-08-21T17:26:09Z</time>
      </trkpt>
      <trkpt lat="44.10315" lon="7.39616">
        <ele>2200</ele>
        <time>2019-08-21T17:27:59Z</time>
      </trkpt>
      <trkpt lat="44.10349" lon="7.39624">
        <ele>2203</ele>
        <time>2019-08-21T17:28:45Z</time>
      </trkpt>
      <trkpt lat="44.10371" lon="7.39621">
        <ele>2209</ele>
        <time>2019-08-21T17:29:14Z</time>
      </trkpt>
      <trkpt lat="44.10383" lon="7.39626">
        <ele>2210</ele>
        <time>2019-08-21T17:29:31Z</time>
      </trkpt>
      <trkpt lat="44.10402" lon="7.39639">
        <ele>2209</ele>
        <time>2019-08-21T17:29:59Z</time>
      </trkpt>
      <trkpt lat="44.10426" lon="7.39647">
        <ele>2212</ele>
        <time>2019-08-21T17:30:32Z</time>
      </trkpt>
      <trkpt lat="44.10443" lon="7.39665">
        <ele>2211</ele>
        <time>2019-08-21T17:31:01Z</time>
      </trkpt>
      <trkpt lat="44.1045" lon="7.39681">
        <ele>2210</ele>
        <time>2019-08-21T17:31:18Z</time>
      </trkpt>
      <trkpt lat="44.10455" lon="7.39724">
        <ele>2202</ele>
        <time>2019-08-21T17:32:00Z</time>
      </trkpt>
      <trkpt lat="44.1046" lon="7.39731">
        <ele>2202</ele>
        <time>2019-08-21T17:32:10Z</time>
      </trkpt>
      <trkpt lat="44.10463" lon="7.39731">
        <ele>2203</ele>
        <time>2019-08-21T17:32:14Z</time>
      </trkpt>
      <trkpt lat="44.10467" lon="7.39734">
        <ele>2204</ele>
        <time>2019-08-21T17:32:20Z</time>
      </trkpt>
      <trkpt lat="44.1047" lon="7.39739">
        <ele>2204</ele>
        <time>2019-08-21T17:32:26Z</time>
      </trkpt>
      <trkpt lat="44.10474" lon="7.39756">
        <ele>2202</ele>
        <time>2019-08-21T17:32:43Z</time>
      </trkpt>
      <trkpt lat="44.10472" lon="7.39775">
        <ele>2200</ele>
        <time>2019-08-21T17:33:02Z</time>
      </trkpt>
      <trkpt lat="44.10474" lon="7.39802">
        <ele>2199</ele>
        <time>2019-08-21T17:33:28Z</time>
      </trkpt>
      <trkpt lat="44.10489" lon="7.39865">
        <ele>2198</ele>
        <time>2019-08-21T17:34:31Z</time>
      </trkpt>
      <trkpt lat="44.1049" lon="7.39874">
        <ele>2197</ele>
        <time>2019-08-21T17:34:40Z</time>
      </trkpt>
      <trkpt lat="44.10498" lon="7.39894">
        <ele>2197</ele>
        <time>2019-08-21T17:35:02Z</time>
      </trkpt>
      <trkpt lat="44.10503" lon="7.39914">
        <ele>2197</ele>
        <time>2019-08-21T17:35:22Z</time>
      </trkpt>
      <trkpt lat="44.10503" lon="7.39933">
        <ele>2198</ele>
        <time>2019-08-21T17:35:40Z</time>
      </trkpt>
      <trkpt lat="44.10506" lon="7.39945">
        <ele>2199</ele>
        <time>2019-08-21T17:35:52Z</time>
      </trkpt>
      <trkpt lat="44.10503" lon="7.39955">
        <ele>2199</ele>
        <time>2019-08-21T17:36:03Z</time>
      </trkpt>
      <trkpt lat="44.10503" lon="7.39973">
        <ele>2199</ele>
        <time>2019-08-21T17:36:20Z</time>
      </trkpt>
      <trkpt lat="44.10515" lon="7.40004">
        <ele>2204</ele>
        <time>2019-08-21T17:36:54Z</time>
      </trkpt>
      <trkpt lat="44.1052" lon="7.40027">
        <ele>2208</ele>
        <time>2019-08-21T17:37:17Z</time>
      </trkpt>
      <trkpt lat="44.10517" lon="7.40032">
        <ele>2208</ele>
        <time>2019-08-21T17:37:23Z</time>
      </trkpt>
      <trkpt lat="44.10508" lon="7.40033">
        <ele>2207</ele>
        <time>2019-08-21T17:37:35Z</time>
      </trkpt>
      <trkpt lat="44.10509" lon="7.40045">
        <ele>2209</ele>
        <time>2019-08-21T17:37:47Z</time>
      </trkpt>
      <trkpt lat="44.10515" lon="7.40055">
        <ele>2211</ele>
        <time>2019-08-21T17:37:59Z</time>
      </trkpt>
      <trkpt lat="44.10511" lon="7.40056">
        <ele>2211</ele>
        <time>2019-08-21T17:38:05Z</time>
      </trkpt>
      <trkpt lat="44.10507" lon="7.40054">
        <ele>2210</ele>
        <time>2019-08-21T17:38:10Z</time>
      </trkpt>
      <trkpt lat="44.10507" lon="7.40057">
        <ele>2211</ele>
        <time>2019-08-21T17:38:13Z</time>
      </trkpt>
      <trkpt lat="44.10491" lon="7.40056">
        <ele>2211</ele>
        <time>2019-08-21T17:38:35Z</time>
      </trkpt>
      <trkpt lat="44.10483" lon="7.40052">
        <ele>2211</ele>
        <time>2019-08-21T17:38:46Z</time>
      </trkpt>
      <trkpt lat="44.10478" lon="7.40052">
        <ele>2212</ele>
        <time>2019-08-21T17:38:53Z</time>
      </trkpt>
      <trkpt lat="44.10469" lon="7.40047">
        <ele>2212</ele>
        <time>2019-08-21T17:39:06Z</time>
      </trkpt>
      <trkpt lat="44.10474" lon="7.40066">
        <ele>2215</ele>
        <time>2019-08-21T17:39:25Z</time>
      </trkpt>
      <trkpt lat="44.10472" lon="7.40069">
        <ele>2216</ele>
        <time>2019-08-21T17:39:29Z</time>
      </trkpt>
      <trkpt lat="44.10463" lon="7.40068">
        <ele>2217</ele>
        <time>2019-08-21T17:39:41Z</time>
      </trkpt>
      <trkpt lat="44.10451" lon="7.40058">
        <ele>2216</ele>
        <time>2019-08-21T17:40:00Z</time>
      </trkpt>
      <trkpt lat="44.10451" lon="7.40058">
        <ele>2216</ele>
        <time>2019-08-21T17:40:00Z</time>
      </trkpt>
      <trkpt lat="44.10456" lon="7.4008">
        <ele>2220</ele>
        <time>2019-08-21T17:40:22Z</time>
      </trkpt>
      <trkpt lat="44.10478" lon="7.40104">
        <ele>2221</ele>
        <time>2019-08-21T17:40:59Z</time>
      </trkpt>
      <trkpt lat="44.10482" lon="7.40114">
        <ele>2222</ele>
        <time>2019-08-21T17:41:10Z</time>
      </trkpt>
      <trkpt lat="44.10478" lon="7.40125">
        <ele>2225</ele>
        <time>2019-08-21T17:41:22Z</time>
      </trkpt>
      <trkpt lat="44.10483" lon="7.40133">
        <ele>2225</ele>
        <time>2019-08-21T17:41:32Z</time>
      </trkpt>
      <trkpt lat="44.10483" lon="7.40143">
        <ele>2227</ele>
        <time>2019-08-21T17:41:41Z</time>
      </trkpt>
      <trkpt lat="44.10473" lon="7.4015">
        <ele>2230</ele>
        <time>2019-08-21T17:41:56Z</time>
      </trkpt>
      <trkpt lat="44.10477" lon="7.40217">
        <ele>2238</ele>
        <time>2019-08-21T17:43:01Z</time>
      </trkpt>
      <trkpt lat="44.10469" lon="7.40253">
        <ele>2242</ele>
        <time>2019-08-21T17:43:37Z</time>
      </trkpt>
      <trkpt lat="44.10454" lon="7.4029">
        <ele>2246</ele>
        <time>2019-08-21T17:44:18Z</time>
      </trkpt>
      <trkpt lat="44.10455" lon="7.40308">
        <ele>2247</ele>
        <time>2019-08-21T17:44:35Z</time>
      </trkpt>
      <trkpt lat="44.10439" lon="7.40339">
        <ele>2247</ele>
        <time>2019-08-21T17:45:12Z</time>
      </trkpt>
      <trkpt lat="44.10428" lon="7.40376">
        <ele>2247</ele>
        <time>2019-08-21T17:45:50Z</time>
      </trkpt>
      <trkpt lat="44.10418" lon="7.4038">
        <ele>2245</ele>
        <time>2019-08-21T17:46:04Z</time>
      </trkpt>
      <trkpt lat="44.1041" lon="7.40355">
        <ele>2246</ele>
        <time>2019-08-21T17:46:30Z</time>
      </trkpt>
      <trkpt lat="44.10396" lon="7.40367">
        <ele>2250</ele>
        <time>2019-08-21T17:46:52Z</time>
      </trkpt>
      <trkpt lat="44.10381" lon="7.40365">
        <ele>2254</ele>
        <time>2019-08-21T17:47:12Z</time>
      </trkpt>
      <trkpt lat="44.10368" lon="7.404">
        <ele>2257</ele>
        <time>2019-08-21T17:47:50Z</time>
      </trkpt>
      <trkpt lat="44.10351" lon="7.40419">
        <ele>2261</ele>
        <time>2019-08-21T17:48:19Z</time>
      </trkpt>
      <trkpt lat="44.10339" lon="7.40504">
        <ele>2259</ele>
        <time>2019-08-21T17:49:42Z</time>
      </trkpt>
      <trkpt lat="44.1033" lon="7.40532">
        <ele>2261</ele>
        <time>2019-08-21T17:50:11Z</time>
      </trkpt>
      <trkpt lat="44.10326" lon="7.40526">
        <ele>2263</ele>
        <time>2019-08-21T17:50:19Z</time>
      </trkpt>
      <trkpt lat="44.10327" lon="7.40543">
        <ele>2262</ele>
        <time>2019-08-21T17:50:36Z</time>
      </trkpt>
      <trkpt lat="44.10307" lon="7.40579">
        <ele>2270</ele>
        <time>2019-08-21T17:51:19Z</time>
      </trkpt>
      <trkpt lat="44.10308" lon="7.40597">
        <ele>2271</ele>
        <time>2019-08-21T17:51:36Z</time>
      </trkpt>
      <trkpt lat="44.10293" lon="7.40643">
        <ele>2282</ele>
        <time>2019-08-21T17:52:25Z</time>
      </trkpt>
      <trkpt lat="44.10298" lon="7.40658">
        <ele>2281</ele>
        <time>2019-08-21T17:52:41Z</time>
      </trkpt>
      <trkpt lat="44.10312" lon="7.40665">
        <ele>2275</ele>
        <time>2019-08-21T17:53:01Z</time>
      </trkpt>
      <trkpt lat="44.10323" lon="7.40683">
        <ele>2273</ele>
        <time>2019-08-21T17:53:23Z</time>
      </trkpt>
      <trkpt lat="44.10315" lon="7.40734">
        <ele>2288</ele>
        <time>2019-08-21T17:54:13Z</time>
      </trkpt>
      <trkpt lat="44.1032" lon="7.40755">
        <ele>2290</ele>
        <time>2019-08-21T17:54:34Z</time>
      </trkpt>
      <trkpt lat="44.10316" lon="7.40763">
        <ele>2294</ele>
        <time>2019-08-21T17:54:44Z</time>
      </trkpt>
      <trkpt lat="44.10323" lon="7.40803">
        <ele>2303</ele>
        <time>2019-08-21T17:55:23Z</time>
      </trkpt>
      <trkpt lat="44.10318" lon="7.40807">
        <ele>2305</ele>
        <time>2019-08-21T17:55:31Z</time>
      </trkpt>
      <trkpt lat="44.10308" lon="7.40799">
        <ele>2306</ele>
        <time>2019-08-21T17:55:46Z</time>
      </trkpt>
      <trkpt lat="44.10303" lon="7.40804">
        <ele>2309</ele>
        <time>2019-08-21T17:55:55Z</time>
      </trkpt>
      <trkpt lat="44.10297" lon="7.408">
        <ele>2310</ele>
        <time>2019-08-21T17:56:03Z</time>
      </trkpt>
      <trkpt lat="44.10293" lon="7.40785">
        <ele>2308</ele>
        <time>2019-08-21T17:56:19Z</time>
      </trkpt>
      <trkpt lat="44.10253" lon="7.40762">
        <ele>2316</ele>
        <time>2019-08-21T17:57:16Z</time>
      </trkpt>
      <trkpt lat="44.1024" lon="7.40761">
        <ele>2320</ele>
        <time>2019-08-21T17:57:34Z</time>
      </trkpt>
      <trkpt lat="44.10222" lon="7.40789">
        <ele>2330</ele>
        <time>2019-08-21T17:58:10Z</time>
      </trkpt>
      <trkpt lat="44.1021" lon="7.4079">
        <ele>2334</ele>
        <time>2019-08-21T17:58:26Z</time>
      </trkpt>
      <trkpt lat="44.1019" lon="7.40839">
        <ele>2346</ele>
        <time>2019-08-21T17:59:20Z</time>
      </trkpt>
      <trkpt lat="44.10189" lon="7.40864">
        <ele>2352</ele>
        <time>2019-08-21T17:59:44Z</time>
      </trkpt>
      <trkpt lat="44.10183" lon="7.40861">
        <ele>2352</ele>
        <time>2019-08-21T17:59:52Z</time>
      </trkpt>
      <trkpt lat="44.10177" lon="7.40902">
        <ele>2361</ele>
        <time>2019-08-21T18:00:33Z</time>
      </trkpt>
      <trkpt lat="44.10149" lon="7.40901">
        <ele>2362</ele>
        <time>2019-08-21T18:01:10Z</time>
      </trkpt>
      <trkpt lat="44.10141" lon="7.40915">
        <ele>2363</ele>
        <time>2019-08-21T18:01:27Z</time>
      </trkpt>
      <trkpt lat="44.10141" lon="7.40997">
        <ele>2368</ele>
        <time>2019-08-21T18:02:46Z</time>
      </trkpt>
      <trkpt lat="44.1012" lon="7.41021">
        <ele>2366</ele>
        <time>2019-08-21T18:03:22Z</time>
      </trkpt>
      <trkpt lat="44.10116" lon="7.41053">
        <ele>2368</ele>
        <time>2019-08-21T18:03:53Z</time>
      </trkpt>
      <trkpt lat="44.10095" lon="7.41107">
        <ele>2368</ele>
        <time>2019-08-21T18:04:52Z</time>
      </trkpt>
      <trkpt lat="44.10094" lon="7.41136">
        <ele>2371</ele>
        <time>2019-08-21T18:05:20Z</time>
      </trkpt>
      <trkpt lat="44.10101" lon="7.412">
        <ele>2380</ele>
        <time>2019-08-21T18:06:22Z</time>
      </trkpt>
      <trkpt lat="44.10112" lon="7.41242">
        <ele>2386</ele>
        <time>2019-08-21T18:07:05Z</time>
      </trkpt>
      <trkpt lat="44.10121" lon="7.41313">
        <ele>2389</ele>
        <time>2019-08-21T18:08:14Z</time>
      </trkpt>
      <trkpt lat="44.10121" lon="7.41391">
        <ele>2389</ele>
        <time>2019-08-21T18:09:28Z</time>
      </trkpt>
      <trkpt lat="44.10132" lon="7.41446">
        <ele>2392</ele>
        <time>2019-08-21T18:10:23Z</time>
      </trkpt>
      <trkpt lat="44.10124" lon="7.41516">
        <ele>2390</ele>
        <time>2019-08-21T18:11:31Z</time>
      </trkpt>
      <trkpt lat="44.10126" lon="7.41546">
        <ele>2392</ele>
        <time>2019-08-21T18:12:00Z</time>
      </trkpt>
      <trkpt lat="44.10116" lon="7.41664">
        <ele>2390</ele>
        <time>2019-08-21T18:13:54Z</time>
      </trkpt>
      <trkpt lat="44.10121" lon="7.41669">
        <ele>2392</ele>
        <time>2019-08-21T18:14:02Z</time>
      </trkpt>
      <trkpt lat="44.10099" lon="7.41727">
        <ele>2388</ele>
        <time>2019-08-21T18:15:05Z</time>
      </trkpt>
      <trkpt lat="44.10086" lon="7.41825">
        <ele>2388</ele>
        <time>2019-08-21T18:16:40Z</time>
      </trkpt>
      <trkpt lat="44.10062" lon="7.41852">
        <ele>2384</ele>
        <time>2019-08-21T18:17:22Z</time>
      </trkpt>
      <trkpt lat="44.10045" lon="7.41856">
        <ele>2382</ele>
        <time>2019-08-21T18:17:45Z</time>
      </trkpt>
      <trkpt lat="44.10037" lon="7.41864">
        <ele>2381</ele>
        <time>2019-08-21T18:17:58Z</time>
      </trkpt>
      <trkpt lat="44.10036" lon="7.41886">
        <ele>2381</ele>
        <time>2019-08-21T18:18:19Z</time>
      </trkpt>
      <trkpt lat="44.10012" lon="7.41899">
        <ele>2379</ele>
        <time>2019-08-21T18:18:53Z</time>
      </trkpt>
      <trkpt lat="44.09984" lon="7.41926">
        <ele>2383</ele>
        <time>2019-08-21T18:19:39Z</time>
      </trkpt>
      <trkpt lat="44.09984" lon="7.41954">
        <ele>2386</ele>
        <time>2019-08-21T18:20:05Z</time>
      </trkpt>
      <trkpt lat="44.09907" lon="7.42039">
        <ele>2418</ele>
        <time>2019-08-21T18:22:17Z</time>
      </trkpt>
      <trkpt lat="44.09905" lon="7.42071">
        <ele>2427</ele>
        <time>2019-08-21T18:22:47Z</time>
      </trkpt>
      <trkpt lat="44.09895" lon="7.42074">
        <ele>2430</ele>
        <time>2019-08-21T18:23:01Z</time>
      </trkpt>
      <trkpt lat="44.09891" lon="7.4209">
        <ele>2435</ele>
        <time>2019-08-21T18:23:17Z</time>
      </trkpt>
      <trkpt lat="44.09885" lon="7.42176">
        <ele>2461</ele>
        <time>2019-08-21T18:24:40Z</time>
      </trkpt>
      <trkpt lat="44.09893" lon="7.42206">
        <ele>2467</ele>
        <time>2019-08-21T18:25:11Z</time>
      </trkpt>
      <trkpt lat="44.09862" lon="7.42287">
        <ele>2485</ele>
        <time>2019-08-21T18:26:39Z</time>
      </trkpt>
      <trkpt lat="44.09836" lon="7.4231">
        <ele>2492</ele>
        <time>2019-08-21T18:27:20Z</time>
      </trkpt>
      <trkpt lat="44.09818" lon="7.42313">
        <ele>2501</ele>
        <time>2019-08-21T18:27:44Z</time>
      </trkpt>
      <trkpt lat="44.0981" lon="7.42348">
        <ele>2515</ele>
        <time>2019-08-21T18:28:19Z</time>
      </trkpt>
      <trkpt lat="44.09795" lon="7.4234">
        <ele>2520</ele>
        <time>2019-08-21T18:28:41Z</time>
      </trkpt>
      <trkpt lat="44.09787" lon="7.42362">
        <ele>2531</ele>
        <time>2019-08-21T18:29:04Z</time>
      </trkpt>
      <trkpt lat="44.09772" lon="7.42375">
        <ele>2543</ele>
        <time>2019-08-21T18:29:28Z</time>
      </trkpt>
      <trkpt lat="44.09766" lon="7.42368">
        <ele>2544</ele>
        <time>2019-08-21T18:29:38Z</time>
      </trkpt>
      <trkpt lat="44.09744" lon="7.42407">
        <ele>2566</ele>
        <time>2019-08-21T18:30:26Z</time>
      </trkpt>
      <trkpt lat="44.09748" lon="7.42421">
        <ele>2569</ele>
        <time>2019-08-21T18:30:40Z</time>
      </trkpt>
      <trkpt lat="44.09744" lon="7.42434">
        <ele>2574</ele>
        <time>2019-08-21T18:30:54Z</time>
      </trkpt>
      <trkpt lat="44.09721" lon="7.42434">
        <ele>2581</ele>
        <time>2019-08-21T18:31:24Z</time>
      </trkpt>
      <trkpt lat="44.09719" lon="7.42444">
        <ele>2585</ele>
        <time>2019-08-21T18:31:34Z</time>
      </trkpt>
      <trkpt lat="44.09711" lon="7.42448">
        <ele>2589</ele>
        <time>2019-08-21T18:31:46Z</time>
      </trkpt>
      <trkpt lat="44.09711" lon="7.42469">
        <ele>2595</ele>
        <time>2019-08-21T18:32:06Z</time>
      </trkpt>
      <trkpt lat="44.09716" lon="7.42476">
        <ele>2596</ele>
        <time>2019-08-21T18:32:15Z</time>
      </trkpt>
      <trkpt lat="44.09717" lon="7.42491">
        <ele>2600</ele>
        <time>2019-08-21T18:32:30Z</time>
      </trkpt>
      <trkpt lat="44.09733" lon="7.42539">
        <ele>2605</ele>
        <time>2019-08-21T18:33:21Z</time>
      </trkpt>
      <trkpt lat="44.09731" lon="7.42601">
        <ele>2616</ele>
        <time>2019-08-21T18:34:20Z</time>
      </trkpt>
      <trkpt lat="44.09724" lon="7.42627">
        <ele>2622</ele>
        <time>2019-08-21T18:34:47Z</time>
      </trkpt>
      <trkpt lat="44.09702" lon="7.42672">
        <ele>2638</ele>
        <time>2019-08-21T18:35:39Z</time>
      </trkpt>
      <trkpt lat="44.09691" lon="7.42688">
        <ele>2647</ele>
        <time>2019-08-21T18:36:00Z</time>
      </trkpt>
      <trkpt lat="44.09663" lon="7.42701">
        <ele>2659</ele>
        <time>2019-08-21T18:36:39Z</time>
      </trkpt>
      <trkpt lat="44.09666" lon="7.42763">
        <ele>2681</ele>
        <time>2019-08-21T18:37:39Z</time>
      </trkpt>
      <trkpt lat="44.09659" lon="7.42785">
        <ele>2685</ele>
        <time>2019-08-21T18:38:02Z</time>
      </trkpt>
      <trkpt lat="44.09639" lon="7.42785">
        <ele>2678</ele>
        <time>2019-08-21T18:38:29Z</time>
      </trkpt>
      <trkpt lat="44.09621" lon="7.42769">
        <ele>2671</ele>
        <time>2019-08-21T18:38:57Z</time>
      </trkpt>
      <trkpt lat="44.09604" lon="7.42766">
        <ele>2666</ele>
        <time>2019-08-21T18:39:20Z</time>
      </trkpt>
      <trkpt lat="44.09581" lon="7.42771">
        <ele>2660</ele>
        <time>2019-08-21T18:39:51Z</time>
      </trkpt>
      <trkpt lat="44.09567" lon="7.42786">
        <ele>2654</ele>
        <time>2019-08-21T18:40:15Z</time>
      </trkpt>
      <trkpt lat="44.09567" lon="7.42801">
        <ele>2653</ele>
        <time>2019-08-21T18:40:29Z</time>
      </trkpt>
      <trkpt lat="44.09512" lon="7.42799">
        <ele>2634</ele>
        <time>2019-08-21T18:41:42Z</time>
      </trkpt>
      <trkpt lat="44.09506" lon="7.42817">
        <ele>2628</ele>
        <time>2019-08-21T18:42:02Z</time>
      </trkpt>
      <trkpt lat="44.09486" lon="7.4284">
        <ele>2622</ele>
        <time>2019-08-21T18:42:36Z</time>
      </trkpt>
      <trkpt lat="44.09453" lon="7.42849">
        <ele>2616</ele>
        <time>2019-08-21T18:43:21Z</time>
      </trkpt>
      <trkpt lat="44.09405" lon="7.42897">
        <ele>2604</ele>
        <time>2019-08-21T18:44:40Z</time>
      </trkpt>
      <trkpt lat="44.09342" lon="7.42912">
        <ele>2580</ele>
        <time>2019-08-21T18:46:05Z</time>
      </trkpt>
      <trkpt lat="44.09274" lon="7.42961">
        <ele>2568</ele>
        <time>2019-08-21T18:47:47Z</time>
      </trkpt>
      <trkpt lat="44.09237" lon="7.42948">
        <ele>2564</ele>
        <time>2019-08-21T18:48:38Z</time>
      </trkpt>
      <trkpt lat="44.09183" lon="7.42959">
        <ele>2565</ele>
        <time>2019-08-21T18:49:51Z</time>
      </trkpt>
      <trkpt lat="44.09172" lon="7.42993">
        <ele>2555</ele>
        <time>2019-08-21T18:50:27Z</time>
      </trkpt>
      <trkpt lat="44.09133" lon="7.43032">
        <ele>2559</ele>
        <time>2019-08-21T18:51:31Z</time>
      </trkpt>
      <trkpt lat="44.08963" lon="7.43272">
        <ele>2491</ele>
        <time>2019-08-21T18:56:54Z</time>
      </trkpt>
      <trkpt lat="44.08916" lon="7.43328">
        <ele>2477</ele>
        <time>2019-08-21T18:58:17Z</time>
      </trkpt>
      <trkpt lat="44.08863" lon="7.43356">
        <ele>2471</ele>
        <time>2019-08-21T18:59:32Z</time>
      </trkpt>
      <trkpt lat="44.08832" lon="7.43365">
        <ele>2469</ele>
        <time>2019-08-21T19:00:14Z</time>
      </trkpt>
      <trkpt lat="44.08773" lon="7.43405">
        <ele>2475</ele>
        <time>2019-08-21T19:01:42Z</time>
      </trkpt>
      <trkpt lat="44.08705" lon="7.43522">
        <ele>2452</ele>
        <time>2019-08-21T19:04:06Z</time>
      </trkpt>
      <trkpt lat="44.0867" lon="7.4353">
        <ele>2463</ele>
        <time>2019-08-21T19:04:54Z</time>
      </trkpt>
      <trkpt lat="44.08596" lon="7.43575">
        <ele>2452</ele>
        <time>2019-08-21T19:06:41Z</time>
      </trkpt>
      <trkpt lat="44.08511" lon="7.43599">
        <ele>2441</ele>
        <time>2019-08-21T19:08:37Z</time>
      </trkpt>
      <trkpt lat="44.08499" lon="7.43618">
        <ele>2434</ele>
        <time>2019-08-21T19:09:01Z</time>
      </trkpt>
      <trkpt lat="44.08462" lon="7.4365">
        <ele>2431</ele>
        <time>2019-08-21T19:09:59Z</time>
      </trkpt>
      <trkpt lat="44.08458" lon="7.43699">
        <ele>2418</ele>
        <time>2019-08-21T19:10:47Z</time>
      </trkpt>
      <trkpt lat="44.08437" lon="7.43725">
        <ele>2417</ele>
        <time>2019-08-21T19:11:24Z</time>
      </trkpt>
      <trkpt lat="44.08409" lon="7.43725">
        <ele>2423</ele>
        <time>2019-08-21T19:12:02Z</time>
      </trkpt>
      <trkpt lat="44.08338" lon="7.43826">
        <ele>2430</ele>
        <time>2019-08-21T19:14:17Z</time>
      </trkpt>
      <trkpt lat="44.08255" lon="7.43826">
        <ele>2462</ele>
        <time>2019-08-21T19:16:08Z</time>
      </trkpt>
      <trkpt lat="44.08231" lon="7.43804">
        <ele>2470</ele>
        <time>2019-08-21T19:16:46Z</time>
      </trkpt>
      <trkpt lat="44.08219" lon="7.43818">
        <ele>2475</ele>
        <time>2019-08-21T19:17:07Z</time>
      </trkpt>
      <trkpt lat="44.08226" lon="7.43828">
        <ele>2473</ele>
        <time>2019-08-21T19:17:20Z</time>
      </trkpt>
      <trkpt lat="44.08217" lon="7.43861">
        <ele>2485</ele>
        <time>2019-08-21T19:17:54Z</time>
      </trkpt>
      <trkpt lat="44.08188" lon="7.43861">
        <ele>2495</ele>
        <time>2019-08-21T19:18:33Z</time>
      </trkpt>
      <trkpt lat="44.08162" lon="7.43852">
        <ele>2502</ele>
        <time>2019-08-21T19:19:09Z</time>
      </trkpt>
      <trkpt lat="44.08162" lon="7.43912">
        <ele>2518</ele>
        <time>2019-08-21T19:20:06Z</time>
      </trkpt>
      <trkpt lat="44.08065" lon="7.43887">
        <ele>2539</ele>
        <time>2019-08-21T19:22:18Z</time>
      </trkpt>
      <trkpt lat="44.08057" lon="7.43872">
        <ele>2534</ele>
        <time>2019-08-21T19:22:36Z</time>
      </trkpt>
      <trkpt lat="44.08051" lon="7.43842">
        <ele>2527</ele>
        <time>2019-08-21T19:23:06Z</time>
      </trkpt>
      <trkpt lat="44.0803" lon="7.43836">
        <ele>2521</ele>
        <time>2019-08-21T19:23:34Z</time>
      </trkpt>
      <trkpt lat="44.08017" lon="7.43817">
        <ele>2521</ele>
        <time>2019-08-21T19:23:59Z</time>
      </trkpt>
      <trkpt lat="44.08017" lon="7.43798">
        <ele>2524</ele>
        <time>2019-08-21T19:24:18Z</time>
      </trkpt>
      <trkpt lat="44.07988" lon="7.43742">
        <ele>2529</ele>
        <time>2019-08-21T19:25:24Z</time>
      </trkpt>
      <trkpt lat="44.07972" lon="7.43731">
        <ele>2524</ele>
        <time>2019-08-21T19:25:48Z</time>
      </trkpt>
      <trkpt lat="44.07976" lon="7.43747">
        <ele>2521</ele>
        <time>2019-08-21T19:26:04Z</time>
      </trkpt>
      <trkpt lat="44.0797" lon="7.43747">
        <ele>2518</ele>
        <time>2019-08-21T19:26:12Z</time>
      </trkpt>
      <trkpt lat="44.07971" lon="7.43787">
        <ele>2509</ele>
        <time>2019-08-21T19:26:50Z</time>
      </trkpt>
      <trkpt lat="44.0795" lon="7.43748">
        <ele>2507</ele>
        <time>2019-08-21T19:27:37Z</time>
      </trkpt>
      <trkpt lat="44.07948" lon="7.43763">
        <ele>2502</ele>
        <time>2019-08-21T19:27:52Z</time>
      </trkpt>
      <trkpt lat="44.0789" lon="7.4371">
        <ele>2487</ele>
        <time>2019-08-21T19:29:24Z</time>
      </trkpt>
      <trkpt lat="44.07907" lon="7.43763">
        <ele>2480</ele>
        <time>2019-08-21T19:30:20Z</time>
      </trkpt>
      <trkpt lat="44.07862" lon="7.43728">
        <ele>2464</ele>
        <time>2019-08-21T19:31:29Z</time>
      </trkpt>
      <trkpt lat="44.07873" lon="7.43773">
        <ele>2458</ele>
        <time>2019-08-21T19:32:14Z</time>
      </trkpt>
      <trkpt lat="44.07855" lon="7.43765">
        <ele>2450</ele>
        <time>2019-08-21T19:32:39Z</time>
      </trkpt>
      <trkpt lat="44.07842" lon="7.43744">
        <ele>2447</ele>
        <time>2019-08-21T19:33:06Z</time>
      </trkpt>
      <trkpt lat="44.07824" lon="7.43733">
        <ele>2440</ele>
        <time>2019-08-21T19:33:32Z</time>
      </trkpt>
      <trkpt lat="44.07839" lon="7.43807">
        <ele>2433</ele>
        <time>2019-08-21T19:34:46Z</time>
      </trkpt>
      <trkpt lat="44.07821" lon="7.43807">
        <ele>2425</ele>
        <time>2019-08-21T19:35:10Z</time>
      </trkpt>
      <trkpt lat="44.07786" lon="7.43755">
        <ele>2418</ele>
        <time>2019-08-21T19:36:18Z</time>
      </trkpt>
      <trkpt lat="44.07747" lon="7.43741">
        <ele>2403</ele>
        <time>2019-08-21T19:37:12Z</time>
      </trkpt>
      <trkpt lat="44.07728" lon="7.43784">
        <ele>2397</ele>
        <time>2019-08-21T19:38:00Z</time>
      </trkpt>
      <trkpt lat="44.07673" lon="7.438">
        <ele>2388</ele>
        <time>2019-08-21T19:39:15Z</time>
      </trkpt>
      <trkpt lat="44.0762" lon="7.43835">
        <ele>2383</ele>
        <time>2019-08-21T19:40:34Z</time>
      </trkpt>
      <trkpt lat="44.07608" lon="7.43822">
        <ele>2383</ele>
        <time>2019-08-21T19:40:54Z</time>
      </trkpt>
      <trkpt lat="44.07553" lon="7.43846">
        <ele>2380</ele>
        <time>2019-08-21T19:42:11Z</time>
      </trkpt>
      <trkpt lat="44.07539" lon="7.43863">
        <ele>2380</ele>
        <time>2019-08-21T19:42:36Z</time>
      </trkpt>
      <trkpt lat="44.07521" lon="7.43863">
        <ele>2379</ele>
        <time>2019-08-21T19:43:00Z</time>
      </trkpt>
      <trkpt lat="44.07442" lon="7.43888">
        <ele>2373</ele>
        <time>2019-08-21T19:44:48Z</time>
      </trkpt>
      <trkpt lat="44.07421" lon="7.43911">
        <ele>2368</ele>
        <time>2019-08-21T19:45:23Z</time>
      </trkpt>
      <trkpt lat="44.07381" lon="7.43931">
        <ele>2361</ele>
        <time>2019-08-21T19:46:20Z</time>
      </trkpt>
      <trkpt lat="44.07366" lon="7.43932">
        <ele>2357</ele>
        <time>2019-08-21T19:46:40Z</time>
      </trkpt>
      <trkpt lat="44.07334" lon="7.43976">
        <ele>2350</ele>
        <time>2019-08-21T19:47:40Z</time>
      </trkpt>
      <trkpt lat="44.07306" lon="7.43983">
        <ele>2343</ele>
        <time>2019-08-21T19:48:18Z</time>
      </trkpt>
      <trkpt lat="44.07294" lon="7.43964">
        <ele>2340</ele>
        <time>2019-08-21T19:48:42Z</time>
      </trkpt>
      <trkpt lat="44.07266" lon="7.43985">
        <ele>2333</ele>
        <time>2019-08-21T19:49:25Z</time>
      </trkpt>
      <trkpt lat="44.07235" lon="7.43969">
        <ele>2328</ele>
        <time>2019-08-21T19:50:09Z</time>
      </trkpt>
      <trkpt lat="44.07151" lon="7.43981">
        <ele>2319</ele>
        <time>2019-08-21T19:52:02Z</time>
      </trkpt>
      <trkpt lat="44.07118" lon="7.44008">
        <ele>2315</ele>
        <time>2019-08-21T19:52:53Z</time>
      </trkpt>
      <trkpt lat="44.0711" lon="7.4404">
        <ele>2315</ele>
        <time>2019-08-21T19:53:25Z</time>
      </trkpt>
      <trkpt lat="44.07098" lon="7.4404">
        <ele>2314</ele>
        <time>2019-08-21T19:53:41Z</time>
      </trkpt>
      <trkpt lat="44.07082" lon="7.44058">
        <ele>2313</ele>
        <time>2019-08-21T19:54:09Z</time>
      </trkpt>
      <trkpt lat="44.07056" lon="7.44067">
        <ele>2311</ele>
        <time>2019-08-21T19:54:45Z</time>
      </trkpt>
      <trkpt lat="44.07023" lon="7.4409">
        <ele>2308</ele>
        <time>2019-08-21T19:55:34Z</time>
      </trkpt>
      <trkpt lat="44.07019" lon="7.441">
        <ele>2309</ele>
        <time>2019-08-21T19:55:45Z</time>
      </trkpt>
      <trkpt lat="44.06954" lon="7.44133">
        <ele>2307</ele>
        <time>2019-08-21T19:57:17Z</time>
      </trkpt>
      <trkpt lat="44.06913" lon="7.44179">
        <ele>2305</ele>
        <time>2019-08-21T19:58:27Z</time>
      </trkpt>
      <trkpt lat="44.06901" lon="7.44184">
        <ele>2307</ele>
        <time>2019-08-21T19:58:44Z</time>
      </trkpt>
      <trkpt lat="44.068" lon="7.44182">
        <ele>2302</ele>
        <time>2019-08-21T20:00:59Z</time>
      </trkpt>
      <trkpt lat="44.06755" lon="7.44206">
        <ele>2300</ele>
        <time>2019-08-21T20:02:03Z</time>
      </trkpt>
      <trkpt lat="44.06728" lon="7.44204">
        <ele>2294</ele>
        <time>2019-08-21T20:02:39Z</time>
      </trkpt>
      <trkpt lat="44.06705" lon="7.44222">
        <ele>2288</ele>
        <time>2019-08-21T20:03:14Z</time>
      </trkpt>
      <trkpt lat="44.06675" lon="7.44224">
        <ele>2279</ele>
        <time>2019-08-21T20:03:55Z</time>
      </trkpt>
      <trkpt lat="44.06666" lon="7.44243">
        <ele>2275</ele>
        <time>2019-08-21T20:04:16Z</time>
      </trkpt>
      <trkpt lat="44.06634" lon="7.4424">
        <ele>2263</ele>
        <time>2019-08-21T20:04:59Z</time>
      </trkpt>
      <trkpt lat="44.06617" lon="7.44248">
        <ele>2256</ele>
        <time>2019-08-21T20:05:23Z</time>
      </trkpt>
      <trkpt lat="44.06594" lon="7.44271">
        <ele>2253</ele>
        <time>2019-08-21T20:06:01Z</time>
      </trkpt>
      <trkpt lat="44.06588" lon="7.44226">
        <ele>2248</ele>
        <time>2019-08-21T20:06:45Z</time>
      </trkpt>
      <trkpt lat="44.06575" lon="7.44217">
        <ele>2247</ele>
        <time>2019-08-21T20:07:04Z</time>
      </trkpt>
      <trkpt lat="44.06573" lon="7.44205">
        <ele>2248</ele>
        <time>2019-08-21T20:07:16Z</time>
      </trkpt>
      <trkpt lat="44.06558" lon="7.44193">
        <ele>2248</ele>
        <time>2019-08-21T20:07:39Z</time>
      </trkpt>
      <trkpt lat="44.06544" lon="7.44191">
        <ele>2245</ele>
        <time>2019-08-21T20:07:58Z</time>
      </trkpt>
      <trkpt lat="44.06523" lon="7.44212">
        <ele>2237</ele>
        <time>2019-08-21T20:08:32Z</time>
      </trkpt>
      <trkpt lat="44.06486" lon="7.44233">
        <ele>2229</ele>
        <time>2019-08-21T20:09:26Z</time>
      </trkpt>
      <trkpt lat="44.06483" lon="7.44258">
        <ele>2226</ele>
        <time>2019-08-21T20:09:50Z</time>
      </trkpt>
      <trkpt lat="44.06465" lon="7.44305">
        <ele>2228</ele>
        <time>2019-08-21T20:10:41Z</time>
      </trkpt>
      <trkpt lat="44.06441" lon="7.443">
        <ele>2227</ele>
        <time>2019-08-21T20:11:13Z</time>
      </trkpt>
      <trkpt lat="44.06427" lon="7.44313">
        <ele>2225</ele>
        <time>2019-08-21T20:11:36Z</time>
      </trkpt>
      <trkpt lat="44.06408" lon="7.44311">
        <ele>2224</ele>
        <time>2019-08-21T20:12:01Z</time>
      </trkpt>
      <trkpt lat="44.06329" lon="7.44333">
        <ele>2213</ele>
        <time>2019-08-21T20:13:49Z</time>
      </trkpt>
      <trkpt lat="44.06327" lon="7.44317">
        <ele>2217</ele>
        <time>2019-08-21T20:14:04Z</time>
      </trkpt>
      <trkpt lat="44.06321" lon="7.44307">
        <ele>2219</ele>
        <time>2019-08-21T20:14:17Z</time>
      </trkpt>
      <trkpt lat="44.06265" lon="7.44291">
        <ele>2219</ele>
        <time>2019-08-21T20:15:33Z</time>
      </trkpt>
      <trkpt lat="44.06241" lon="7.44259">
        <ele>2226</ele>
        <time>2019-08-21T20:16:18Z</time>
      </trkpt>
      <trkpt lat="44.06234" lon="7.44259">
        <ele>2226</ele>
        <time>2019-08-21T20:16:27Z</time>
      </trkpt>
      <trkpt lat="44.06188" lon="7.44323">
        <ele>2206</ele>
        <time>2019-08-21T20:17:54Z</time>
      </trkpt>
      <trkpt lat="44.06166" lon="7.4432">
        <ele>2206</ele>
        <time>2019-08-21T20:18:23Z</time>
      </trkpt>
      <trkpt lat="44.06157" lon="7.443">
        <ele>2210</ele>
        <time>2019-08-21T20:18:46Z</time>
      </trkpt>
      <trkpt lat="44.06152" lon="7.44329">
        <ele>2200</ele>
        <time>2019-08-21T20:19:14Z</time>
      </trkpt>
      <trkpt lat="44.06145" lon="7.4432">
        <ele>2201</ele>
        <time>2019-08-21T20:19:27Z</time>
      </trkpt>
      <trkpt lat="44.06128" lon="7.44316">
        <ele>2199</ele>
        <time>2019-08-21T20:19:50Z</time>
      </trkpt>
      <trkpt lat="44.0609" lon="7.44326">
        <ele>2187</ele>
        <time>2019-08-21T20:20:42Z</time>
      </trkpt>
      <trkpt lat="44.06029" lon="7.44329">
        <ele>2177</ele>
        <time>2019-08-21T20:22:03Z</time>
      </trkpt>
      <trkpt lat="44.06011" lon="7.4428">
        <ele>2191</ele>
        <time>2019-08-21T20:22:56Z</time>
      </trkpt>
      <trkpt lat="44.05943" lon="7.44287">
        <ele>2175</ele>
        <time>2019-08-21T20:24:27Z</time>
      </trkpt>
      <trkpt lat="44.0591" lon="7.44252">
        <ele>2179</ele>
        <time>2019-08-21T20:25:22Z</time>
      </trkpt>
      <trkpt lat="44.05877" lon="7.44248">
        <ele>2178</ele>
        <time>2019-08-21T20:26:07Z</time>
      </trkpt>
      <trkpt lat="44.05799" lon="7.44341">
        <ele>2166</ele>
        <time>2019-08-21T20:28:24Z</time>
      </trkpt>
      <trkpt lat="44.05702" lon="7.4471">
        <ele>2162</ele>
        <time>2019-08-21T20:34:40Z</time>
      </trkpt>
      <trkpt lat="44.05702" lon="7.44996">
        <ele>2129</ele>
        <time>2019-08-21T20:39:15Z</time>
      </trkpt>
      <trkpt lat="44.05687" lon="7.45114">
        <ele>2130</ele>
        <time>2019-08-21T20:41:10Z</time>
      </trkpt>
      <trkpt lat="44.05663" lon="7.45117">
        <ele>2137</ele>
        <time>2019-08-21T20:41:42Z</time>
      </trkpt>
      <trkpt lat="44.05659" lon="7.45117">
        <ele>2138</ele>
        <time>2019-08-21T20:41:47Z</time>
      </trkpt>
      <trkpt lat="44.05649" lon="7.45171">
        <ele>2137</ele>
        <time>2019-08-21T20:42:41Z</time>
      </trkpt>
      <trkpt lat="44.05624" lon="7.45213">
        <ele>2138</ele>
        <time>2019-08-21T20:43:33Z</time>
      </trkpt>
      <trkpt lat="44.05619" lon="7.45214">
        <ele>2139</ele>
        <time>2019-08-21T20:43:40Z</time>
      </trkpt>
      <trkpt lat="44.05598" lon="7.45192">
        <ele>2142</ele>
        <time>2019-08-21T20:44:15Z</time>
      </trkpt>
      <trkpt lat="44.05587" lon="7.45174">
        <ele>2145</ele>
        <time>2019-08-21T20:44:37Z</time>
      </trkpt>
      <trkpt lat="44.05581" lon="7.45152">
        <ele>2148</ele>
        <time>2019-08-21T20:45:00Z</time>
      </trkpt>
      <trkpt lat="44.05557" lon="7.45201">
        <ele>2150</ele>
        <time>2019-08-21T20:45:57Z</time>
      </trkpt>
      <trkpt lat="44.05553" lon="7.45173">
        <ele>2153</ele>
        <time>2019-08-21T20:46:24Z</time>
      </trkpt>
      <trkpt lat="44.05548" lon="7.45161">
        <ele>2155</ele>
        <time>2019-08-21T20:46:37Z</time>
      </trkpt>
      <trkpt lat="44.05547" lon="7.45137">
        <ele>2156</ele>
        <time>2019-08-21T20:47:01Z</time>
      </trkpt>
      <trkpt lat="44.05525" lon="7.45142">
        <ele>2160</ele>
        <time>2019-08-21T20:47:30Z</time>
      </trkpt>
      <trkpt lat="44.05515" lon="7.45151">
        <ele>2162</ele>
        <time>2019-08-21T20:47:46Z</time>
      </trkpt>
      <trkpt lat="44.055" lon="7.45151">
        <ele>2165</ele>
        <time>2019-08-21T20:48:06Z</time>
      </trkpt>
      <trkpt lat="44.0547" lon="7.45115">
        <ele>2165</ele>
        <time>2019-08-21T20:48:59Z</time>
      </trkpt>
      <trkpt lat="44.0546" lon="7.45111">
        <ele>2166</ele>
        <time>2019-08-21T20:49:13Z</time>
      </trkpt>
      <trkpt lat="44.0545" lon="7.45113">
        <ele>2167</ele>
        <time>2019-08-21T20:49:26Z</time>
      </trkpt>
      <trkpt lat="44.05426" lon="7.4513">
        <ele>2170</ele>
        <time>2019-08-21T20:50:02Z</time>
      </trkpt>
      <trkpt lat="44.05418" lon="7.4513">
        <ele>2171</ele>
        <time>2019-08-21T20:50:13Z</time>
      </trkpt>
      <trkpt lat="44.05412" lon="7.45123">
        <ele>2170</ele>
        <time>2019-08-21T20:50:23Z</time>
      </trkpt>
      <trkpt lat="44.05397" lon="7.4509">
        <ele>2170</ele>
        <time>2019-08-21T20:51:01Z</time>
      </trkpt>
      <trkpt lat="44.05377" lon="7.45067">
        <ele>2170</ele>
        <time>2019-08-21T20:51:36Z</time>
      </trkpt>
      <trkpt lat="44.05379" lon="7.45051">
        <ele>2170</ele>
        <time>2019-08-21T20:51:51Z</time>
      </trkpt>
      <trkpt lat="44.05376" lon="7.45042">
        <ele>2170</ele>
        <time>2019-08-21T20:52:01Z</time>
      </trkpt>
      <trkpt lat="44.05361" lon="7.45016">
        <ele>2172</ele>
        <time>2019-08-21T20:52:33Z</time>
      </trkpt>
      <trkpt lat="44.05358" lon="7.44945">
        <ele>2179</ele>
        <time>2019-08-21T20:53:41Z</time>
      </trkpt>
      <trkpt lat="44.05366" lon="7.44897">
        <ele>2183</ele>
        <time>2019-08-21T20:54:28Z</time>
      </trkpt>
      <trkpt lat="44.05389" lon="7.44822">
        <ele>2184</ele>
        <time>2019-08-21T20:55:46Z</time>
      </trkpt>
      <trkpt lat="44.05389" lon="7.4481">
        <ele>2185</ele>
        <time>2019-08-21T20:55:58Z</time>
      </trkpt>
      <trkpt lat="44.05379" lon="7.44816">
        <ele>2188</ele>
        <time>2019-08-21T20:56:12Z</time>
      </trkpt>
      <trkpt lat="44.05376" lon="7.4481">
        <ele>2190</ele>
        <time>2019-08-21T20:56:19Z</time>
      </trkpt>
      <trkpt lat="44.05374" lon="7.44817">
        <ele>2190</ele>
        <time>2019-08-21T20:56:27Z</time>
      </trkpt>
      <trkpt lat="44.05345" lon="7.448">
        <ele>2202</ele>
        <time>2019-08-21T20:57:09Z</time>
      </trkpt>
      <trkpt lat="44.05322" lon="7.44775">
        <ele>2211</ele>
        <time>2019-08-21T20:57:48Z</time>
      </trkpt>
      <trkpt lat="44.05297" lon="7.44771">
        <ele>2219</ele>
        <time>2019-08-21T20:58:21Z</time>
      </trkpt>
      <trkpt lat="44.05291" lon="7.44778">
        <ele>2220</ele>
        <time>2019-08-21T20:58:32Z</time>
      </trkpt>
      <trkpt lat="44.05285" lon="7.44777">
        <ele>2222</ele>
        <time>2019-08-21T20:58:40Z</time>
      </trkpt>
      <trkpt lat="44.05282" lon="7.44759">
        <ele>2224</ele>
        <time>2019-08-21T20:58:57Z</time>
      </trkpt>
      <trkpt lat="44.05285" lon="7.44751">
        <ele>2224</ele>
        <time>2019-08-21T20:59:06Z</time>
      </trkpt>
      <trkpt lat="44.05271" lon="7.44744">
        <ele>2229</ele>
        <time>2019-08-21T20:59:26Z</time>
      </trkpt>
      <trkpt lat="44.05275" lon="7.44733">
        <ele>2230</ele>
        <time>2019-08-21T20:59:38Z</time>
      </trkpt>
      <trkpt lat="44.05259" lon="7.44728">
        <ele>2235</ele>
        <time>2019-08-21T21:00:00Z</time>
      </trkpt>
      <trkpt lat="44.05258" lon="7.44723">
        <ele>2236</ele>
        <time>2019-08-21T21:00:05Z</time>
      </trkpt>
      <trkpt lat="44.05262" lon="7.44717">
        <ele>2236</ele>
        <time>2019-08-21T21:00:12Z</time>
      </trkpt>
      <trkpt lat="44.05279" lon="7.44714">
        <ele>2233</ele>
        <time>2019-08-21T21:00:35Z</time>
      </trkpt>
      <trkpt lat="44.05276" lon="7.44704">
        <ele>2236</ele>
        <time>2019-08-21T21:00:46Z</time>
      </trkpt>
      <trkpt lat="44.0528" lon="7.44696">
        <ele>2236</ele>
        <time>2019-08-21T21:00:55Z</time>
      </trkpt>
      <trkpt lat="44.05277" lon="7.44693">
        <ele>2237</ele>
        <time>2019-08-21T21:01:00Z</time>
      </trkpt>
      <trkpt lat="44.05276" lon="7.44666">
        <ele>2243</ele>
        <time>2019-08-21T21:01:26Z</time>
      </trkpt>
      <trkpt lat="44.05271" lon="7.44662">
        <ele>2244</ele>
        <time>2019-08-21T21:01:34Z</time>
      </trkpt>
      <trkpt lat="44.05265" lon="7.4463">
        <ele>2249</ele>
        <time>2019-08-21T21:02:05Z</time>
      </trkpt>
      <trkpt lat="44.05271" lon="7.44619">
        <ele>2249</ele>
        <time>2019-08-21T21:02:18Z</time>
      </trkpt>
      <trkpt lat="44.05261" lon="7.44589">
        <ele>2254</ele>
        <time>2019-08-21T21:02:50Z</time>
      </trkpt>
      <trkpt lat="44.05265" lon="7.44568">
        <ele>2255</ele>
        <time>2019-08-21T21:03:11Z</time>
      </trkpt>
      <trkpt lat="44.0526" lon="7.4456">
        <ele>2256</ele>
        <time>2019-08-21T21:03:21Z</time>
      </trkpt>
      <trkpt lat="44.05242" lon="7.44552">
        <ele>2258</ele>
        <time>2019-08-21T21:03:46Z</time>
      </trkpt>
      <trkpt lat="44.05224" lon="7.44535">
        <ele>2262</ele>
        <time>2019-08-21T21:04:15Z</time>
      </trkpt>
      <trkpt lat="44.05211" lon="7.44505">
        <ele>2267</ele>
        <time>2019-08-21T21:04:49Z</time>
      </trkpt>
      <trkpt lat="44.05205" lon="7.44481">
        <ele>2267</ele>
        <time>2019-08-21T21:05:13Z</time>
      </trkpt>
      <trkpt lat="44.05195" lon="7.4448">
        <ele>2268</ele>
        <time>2019-08-21T21:05:27Z</time>
      </trkpt>
      <trkpt lat="44.05173" lon="7.4446">
        <ele>2271</ele>
        <time>2019-08-21T21:06:02Z</time>
      </trkpt>
      <trkpt lat="44.05176" lon="7.44431">
        <ele>2268</ele>
        <time>2019-08-21T21:06:30Z</time>
      </trkpt>
      <trkpt lat="44.05187" lon="7.44433">
        <ele>2267</ele>
        <time>2019-08-21T21:06:45Z</time>
      </trkpt>
      <trkpt lat="44.05192" lon="7.44428">
        <ele>2266</ele>
        <time>2019-08-21T21:06:53Z</time>
      </trkpt>
      <trkpt lat="44.05188" lon="7.44406">
        <ele>2266</ele>
        <time>2019-08-21T21:07:15Z</time>
      </trkpt>
      <trkpt lat="44.0519" lon="7.44396">
        <ele>2265</ele>
        <time>2019-08-21T21:07:25Z</time>
      </trkpt>
      <trkpt lat="44.05208" lon="7.444">
        <ele>2263</ele>
        <time>2019-08-21T21:07:49Z</time>
      </trkpt>
      <trkpt lat="44.05203" lon="7.44379">
        <ele>2263</ele>
        <time>2019-08-21T21:08:10Z</time>
      </trkpt>
      <trkpt lat="44.05209" lon="7.44367">
        <ele>2262</ele>
        <time>2019-08-21T21:08:24Z</time>
      </trkpt>
      <trkpt lat="44.05209" lon="7.44342">
        <ele>2261</ele>
        <time>2019-08-21T21:08:48Z</time>
      </trkpt>
      <trkpt lat="44.05197" lon="7.44326">
        <ele>2263</ele>
        <time>2019-08-21T21:09:10Z</time>
      </trkpt>
      <trkpt lat="44.05196" lon="7.44286">
        <ele>2267</ele>
        <time>2019-08-21T21:09:49Z</time>
      </trkpt>
      <trkpt lat="44.05177" lon="7.4427">
        <ele>2269</ele>
        <time>2019-08-21T21:10:18Z</time>
      </trkpt>
      <trkpt lat="44.05169" lon="7.44253">
        <ele>2270</ele>
        <time>2019-08-21T21:10:38Z</time>
      </trkpt>
      <trkpt lat="44.05174" lon="7.44216">
        <ele>2273</ele>
        <time>2019-08-21T21:11:14Z</time>
      </trkpt>
      <trkpt lat="44.05173" lon="7.44207">
        <ele>2273</ele>
        <time>2019-08-21T21:11:23Z</time>
      </trkpt>
      <trkpt lat="44.0518" lon="7.44174">
        <ele>2276</ele>
        <time>2019-08-21T21:11:56Z</time>
      </trkpt>
      <trkpt lat="44.05175" lon="7.44159">
        <ele>2277</ele>
        <time>2019-08-21T21:12:12Z</time>
      </trkpt>
      <trkpt lat="44.05175" lon="7.44144">
        <ele>2278</ele>
        <time>2019-08-21T21:12:26Z</time>
      </trkpt>
      <trkpt lat="44.05172" lon="7.44139">
        <ele>2278</ele>
        <time>2019-08-21T21:12:32Z</time>
      </trkpt>
      <trkpt lat="44.05169" lon="7.44121">
        <ele>2279</ele>
        <time>2019-08-21T21:12:50Z</time>
      </trkpt>
      <trkpt lat="44.0517" lon="7.44088">
        <ele>2282</ele>
        <time>2019-08-21T21:13:22Z</time>
      </trkpt>
      <trkpt lat="44.05174" lon="7.44069">
        <ele>2285</ele>
        <time>2019-08-21T21:13:41Z</time>
      </trkpt>
      <trkpt lat="44.05168" lon="7.44061">
        <ele>2285</ele>
        <time>2019-08-21T21:13:52Z</time>
      </trkpt>
      <trkpt lat="44.05168" lon="7.4405">
        <ele>2286</ele>
        <time>2019-08-21T21:14:02Z</time>
      </trkpt>
      <trkpt lat="44.0515" lon="7.44039">
        <ele>2284</ele>
        <time>2019-08-21T21:14:29Z</time>
      </trkpt>
      <trkpt lat="44.05147" lon="7.44023">
        <ele>2286</ele>
        <time>2019-08-21T21:14:44Z</time>
      </trkpt>
      <trkpt lat="44.05141" lon="7.4403">
        <ele>2284</ele>
        <time>2019-08-21T21:14:55Z</time>
      </trkpt>
      <trkpt lat="44.05135" lon="7.43984">
        <ele>2286</ele>
        <time>2019-08-21T21:15:40Z</time>
      </trkpt>
      <trkpt lat="44.05123" lon="7.43978">
        <ele>2285</ele>
        <time>2019-08-21T21:15:57Z</time>
      </trkpt>
      <trkpt lat="44.05118" lon="7.43961">
        <ele>2284</ele>
        <time>2019-08-21T21:16:14Z</time>
      </trkpt>
      <trkpt lat="44.05129" lon="7.43942">
        <ele>2286</ele>
        <time>2019-08-21T21:16:38Z</time>
      </trkpt>
      <trkpt lat="44.05128" lon="7.43918">
        <ele>2287</ele>
        <time>2019-08-21T21:17:01Z</time>
      </trkpt>
      <trkpt lat="44.05136" lon="7.439">
        <ele>2289</ele>
        <time>2019-08-21T21:17:21Z</time>
      </trkpt>
      <trkpt lat="44.05135" lon="7.43888">
        <ele>2289</ele>
        <time>2019-08-21T21:17:33Z</time>
      </trkpt>
      <trkpt lat="44.05139" lon="7.43877">
        <ele>2290</ele>
        <time>2019-08-21T21:17:44Z</time>
      </trkpt>
      <trkpt lat="44.05133" lon="7.43848">
        <ele>2289</ele>
        <time>2019-08-21T21:18:13Z</time>
      </trkpt>
      <trkpt lat="44.05137" lon="7.43786">
        <ele>2295</ele>
        <time>2019-08-21T21:19:13Z</time>
      </trkpt>
      <trkpt lat="44.05135" lon="7.43774">
        <ele>2296</ele>
        <time>2019-08-21T21:19:25Z</time>
      </trkpt>
      <trkpt lat="44.05131" lon="7.43754">
        <ele>2297</ele>
        <time>2019-08-21T21:19:45Z</time>
      </trkpt>
      <trkpt lat="44.05123" lon="7.43752">
        <ele>2297</ele>
        <time>2019-08-21T21:19:56Z</time>
      </trkpt>
      <trkpt lat="44.05121" lon="7.43745">
        <ele>2298</ele>
        <time>2019-08-21T21:20:03Z</time>
      </trkpt>
      <trkpt lat="44.05125" lon="7.43734">
        <ele>2301</ele>
        <time>2019-08-21T21:20:15Z</time>
      </trkpt>
      <trkpt lat="44.05125" lon="7.43722">
        <ele>2304</ele>
        <time>2019-08-21T21:20:26Z</time>
      </trkpt>
      <trkpt lat="44.05117" lon="7.43717">
        <ele>2304</ele>
        <time>2019-08-21T21:20:38Z</time>
      </trkpt>
      <trkpt lat="44.05118" lon="7.43707">
        <ele>2306</ele>
        <time>2019-08-21T21:20:48Z</time>
      </trkpt>
      <trkpt lat="44.0511" lon="7.43698">
        <ele>2308</ele>
        <time>2019-08-21T21:21:01Z</time>
      </trkpt>
      <trkpt lat="44.05107" lon="7.43672">
        <ele>2314</ele>
        <time>2019-08-21T21:21:27Z</time>
      </trkpt>
      <trkpt lat="44.05097" lon="7.43654">
        <ele>2317</ele>
        <time>2019-08-21T21:21:48Z</time>
      </trkpt>
      <trkpt lat="44.05097" lon="7.43637">
        <ele>2321</ele>
        <time>2019-08-21T21:22:05Z</time>
      </trkpt>
      <trkpt lat="44.05093" lon="7.43627">
        <ele>2322</ele>
        <time>2019-08-21T21:22:16Z</time>
      </trkpt>
      <trkpt lat="44.05084" lon="7.43624">
        <ele>2321</ele>
        <time>2019-08-21T21:22:28Z</time>
      </trkpt>
      <trkpt lat="44.05079" lon="7.43612">
        <ele>2324</ele>
        <time>2019-08-21T21:22:41Z</time>
      </trkpt>
      <trkpt lat="44.0506" lon="7.43594">
        <ele>2329</ele>
        <time>2019-08-21T21:23:12Z</time>
      </trkpt>
      <trkpt lat="44.0505" lon="7.43578">
        <ele>2334</ele>
        <time>2019-08-21T21:23:32Z</time>
      </trkpt>
      <trkpt lat="44.05044" lon="7.43584">
        <ele>2333</ele>
        <time>2019-08-21T21:23:42Z</time>
      </trkpt>
      <trkpt lat="44.05038" lon="7.43573">
        <ele>2336</ele>
        <time>2019-08-21T21:23:56Z</time>
      </trkpt>
      <trkpt lat="44.05041" lon="7.43541">
        <ele>2342</ele>
        <time>2019-08-21T21:24:26Z</time>
      </trkpt>
      <trkpt lat="44.05037" lon="7.43538">
        <ele>2343</ele>
        <time>2019-08-21T21:24:33Z</time>
      </trkpt>
      <trkpt lat="44.05031" lon="7.43514">
        <ele>2348</ele>
        <time>2019-08-21T21:24:57Z</time>
      </trkpt>
      <trkpt lat="44.05027" lon="7.4351">
        <ele>2349</ele>
        <time>2019-08-21T21:25:03Z</time>
      </trkpt>
      <trkpt lat="44.05031" lon="7.43491">
        <ele>2352</ele>
        <time>2019-08-21T21:25:22Z</time>
      </trkpt>
      <trkpt lat="44.05021" lon="7.43408">
        <ele>2364</ele>
        <time>2019-08-21T21:26:43Z</time>
      </trkpt>
      <trkpt lat="44.05014" lon="7.43383">
        <ele>2369</ele>
        <time>2019-08-21T21:27:09Z</time>
      </trkpt>
      <trkpt lat="44.05014" lon="7.43347">
        <ele>2377</ele>
        <time>2019-08-21T21:27:43Z</time>
      </trkpt>
      <trkpt lat="44.04985" lon="7.43336">
        <ele>2375</ele>
        <time>2019-08-21T21:28:24Z</time>
      </trkpt>
      <trkpt lat="44.04975" lon="7.43345">
        <ele>2373</ele>
        <time>2019-08-21T21:28:39Z</time>
      </trkpt>
      <trkpt lat="44.04973" lon="7.43342">
        <ele>2373</ele>
        <time>2019-08-21T21:28:43Z</time>
      </trkpt>
      <trkpt lat="44.04968" lon="7.43295">
        <ele>2381</ele>
        <time>2019-08-21T21:29:29Z</time>
      </trkpt>
      <trkpt lat="44.04948" lon="7.43268">
        <ele>2383</ele>
        <time>2019-08-21T21:30:06Z</time>
      </trkpt>
      <trkpt lat="44.04941" lon="7.4324">
        <ele>2386</ele>
        <time>2019-08-21T21:30:35Z</time>
      </trkpt>
      <trkpt lat="44.04942" lon="7.43198">
        <ele>2394</ele>
        <time>2019-08-21T21:31:15Z</time>
      </trkpt>
      <trkpt lat="44.04929" lon="7.43178">
        <ele>2395</ele>
        <time>2019-08-21T21:31:41Z</time>
      </trkpt>
      <trkpt lat="44.04932" lon="7.43137">
        <ele>2402</ele>
        <time>2019-08-21T21:32:20Z</time>
      </trkpt>
      <trkpt lat="44.04929" lon="7.43126">
        <ele>2402</ele>
        <time>2019-08-21T21:32:32Z</time>
      </trkpt>
      <trkpt lat="44.0493" lon="7.4311">
        <ele>2405</ele>
        <time>2019-08-21T21:32:47Z</time>
      </trkpt>
      <trkpt lat="44.04918" lon="7.43062">
        <ele>2407</ele>
        <time>2019-08-21T21:33:36Z</time>
      </trkpt>
      <trkpt lat="44.04899" lon="7.43068">
        <ele>2408</ele>
        <time>2019-08-21T21:34:02Z</time>
      </trkpt>
      <trkpt lat="44.04847" lon="7.43069">
        <ele>2415</ele>
        <time>2019-08-21T21:35:11Z</time>
      </trkpt>
      <trkpt lat="44.04836" lon="7.43063">
        <ele>2418</ele>
        <time>2019-08-21T21:35:27Z</time>
      </trkpt>
      <trkpt lat="44.04828" lon="7.43049">
        <ele>2421</ele>
        <time>2019-08-21T21:35:44Z</time>
      </trkpt>
      <trkpt lat="44.04795" lon="7.43036">
        <ele>2422</ele>
        <time>2019-08-21T21:36:30Z</time>
      </trkpt>
      <trkpt lat="44.04776" lon="7.43043">
        <ele>2423</ele>
        <time>2019-08-21T21:36:56Z</time>
      </trkpt>
      <trkpt lat="44.04761" lon="7.43066">
        <ele>2424</ele>
        <time>2019-08-21T21:37:26Z</time>
      </trkpt>
      <trkpt lat="44.04744" lon="7.43073">
        <ele>2423</ele>
        <time>2019-08-21T21:37:49Z</time>
      </trkpt>
      <trkpt lat="44.04738" lon="7.4308">
        <ele>2421</ele>
        <time>2019-08-21T21:38:00Z</time>
      </trkpt>
      <trkpt lat="44.04719" lon="7.43077">
        <ele>2412</ele>
        <time>2019-08-21T21:38:25Z</time>
      </trkpt>
      <trkpt lat="44.04725" lon="7.43059">
        <ele>2412</ele>
        <time>2019-08-21T21:38:44Z</time>
      </trkpt>
      <trkpt lat="44.0472" lon="7.43057">
        <ele>2409</ele>
        <time>2019-08-21T21:38:51Z</time>
      </trkpt>
      <trkpt lat="44.04722" lon="7.43051">
        <ele>2409</ele>
        <time>2019-08-21T21:38:58Z</time>
      </trkpt>
      <trkpt lat="44.04719" lon="7.4305">
        <ele>2407</ele>
        <time>2019-08-21T21:39:02Z</time>
      </trkpt>
      <trkpt lat="44.04706" lon="7.43062">
        <ele>2403</ele>
        <time>2019-08-21T21:39:23Z</time>
      </trkpt>
      <trkpt lat="44.04702" lon="7.43057">
        <ele>2399</ele>
        <time>2019-08-21T21:39:30Z</time>
      </trkpt>
      <trkpt lat="44.04656" lon="7.43087">
        <ele>2389</ele>
        <time>2019-08-21T21:40:38Z</time>
      </trkpt>
      <trkpt lat="44.04617" lon="7.43072">
        <ele>2366</ele>
        <time>2019-08-21T21:41:32Z</time>
      </trkpt>
      <trkpt lat="44.04591" lon="7.43084">
        <ele>2360</ele>
        <time>2019-08-21T21:42:08Z</time>
      </trkpt>
      <trkpt lat="44.04558" lon="7.43083">
        <ele>2352</ele>
        <time>2019-08-21T21:42:52Z</time>
      </trkpt>
      <trkpt lat="44.04534" lon="7.43097">
        <ele>2357</ele>
        <time>2019-08-21T21:43:27Z</time>
      </trkpt>
      <trkpt lat="44.04475" lon="7.43086">
        <ele>2339</ele>
        <time>2019-08-21T21:44:46Z</time>
      </trkpt>
      <trkpt lat="44.04457" lon="7.43098">
        <ele>2343</ele>
        <time>2019-08-21T21:45:13Z</time>
      </trkpt>
      <trkpt lat="44.04436" lon="7.43095">
        <ele>2337</ele>
        <time>2019-08-21T21:45:41Z</time>
      </trkpt>
      <trkpt lat="44.04414" lon="7.43085">
        <ele>2328</ele>
        <time>2019-08-21T21:46:12Z</time>
      </trkpt>
      <trkpt lat="44.04398" lon="7.43072">
        <ele>2323</ele>
        <time>2019-08-21T21:46:37Z</time>
      </trkpt>
      <trkpt lat="44.04375" lon="7.43064">
        <ele>2319</ele>
        <time>2019-08-21T21:47:08Z</time>
      </trkpt>
      <trkpt lat="44.04353" lon="7.43064">
        <ele>2317</ele>
        <time>2019-08-21T21:47:38Z</time>
      </trkpt>
      <trkpt lat="44.04315" lon="7.43052">
        <ele>2310</ele>
        <time>2019-08-21T21:48:30Z</time>
      </trkpt>
      <trkpt lat="44.04254" lon="7.43043">
        <ele>2300</ele>
        <time>2019-08-21T21:49:52Z</time>
      </trkpt>
      <trkpt lat="44.04249" lon="7.43036">
        <ele>2297</ele>
        <time>2019-08-21T21:50:01Z</time>
      </trkpt>
      <trkpt lat="44.04245" lon="7.43016">
        <ele>2288</ele>
        <time>2019-08-21T21:50:21Z</time>
      </trkpt>
      <trkpt lat="44.04247" lon="7.43007">
        <ele>2285</ele>
        <time>2019-08-21T21:50:30Z</time>
      </trkpt>
      <trkpt lat="44.04241" lon="7.43">
        <ele>2281</ele>
        <time>2019-08-21T21:50:41Z</time>
      </trkpt>
      <trkpt lat="44.04241" lon="7.42989">
        <ele>2280</ele>
        <time>2019-08-21T21:50:51Z</time>
      </trkpt>
      <trkpt lat="44.04215" lon="7.42969">
        <ele>2272</ele>
        <time>2019-08-21T21:51:31Z</time>
      </trkpt>
      <trkpt lat="44.04212" lon="7.42951">
        <ele>2270</ele>
        <time>2019-08-21T21:51:48Z</time>
      </trkpt>
      <trkpt lat="44.04205" lon="7.42946">
        <ele>2268</ele>
        <time>2019-08-21T21:51:59Z</time>
      </trkpt>
      <trkpt lat="44.04191" lon="7.42947">
        <ele>2264</ele>
        <time>2019-08-21T21:52:18Z</time>
      </trkpt>
      <trkpt lat="44.04188" lon="7.42932">
        <ele>2262</ele>
        <time>2019-08-21T21:52:33Z</time>
      </trkpt>
      <trkpt lat="44.04171" lon="7.42916">
        <ele>2257</ele>
        <time>2019-08-21T21:53:00Z</time>
      </trkpt>
      <trkpt lat="44.04165" lon="7.42921">
        <ele>2256</ele>
        <time>2019-08-21T21:53:09Z</time>
      </trkpt>
      <trkpt lat="44.04137" lon="7.42901">
        <ele>2243</ele>
        <time>2019-08-21T21:53:51Z</time>
      </trkpt>
      <trkpt lat="44.04122" lon="7.42901">
        <ele>2237</ele>
        <time>2019-08-21T21:54:11Z</time>
      </trkpt>
      <trkpt lat="44.0412" lon="7.42898">
        <ele>2236</ele>
        <time>2019-08-21T21:54:15Z</time>
      </trkpt>
      <trkpt lat="44.04104" lon="7.429">
        <ele>2229</ele>
        <time>2019-08-21T21:54:37Z</time>
      </trkpt>
      <trkpt lat="44.04093" lon="7.42907">
        <ele>2225</ele>
        <time>2019-08-21T21:54:53Z</time>
      </trkpt>
      <trkpt lat="44.04105" lon="7.42879">
        <ele>2229</ele>
        <time>2019-08-21T21:55:24Z</time>
      </trkpt>
      <trkpt lat="44.04088" lon="7.4289">
        <ele>2222</ele>
        <time>2019-08-21T21:55:49Z</time>
      </trkpt>
      <trkpt lat="44.04079" lon="7.42905">
        <ele>2219</ele>
        <time>2019-08-21T21:56:08Z</time>
      </trkpt>
      <trkpt lat="44.04067" lon="7.42913">
        <ele>2215</ele>
        <time>2019-08-21T21:56:26Z</time>
      </trkpt>
      <trkpt lat="44.0405" lon="7.42914">
        <ele>2208</ele>
        <time>2019-08-21T21:56:48Z</time>
      </trkpt>
      <trkpt lat="44.04039" lon="7.42907">
        <ele>2204</ele>
        <time>2019-08-21T21:57:05Z</time>
      </trkpt>
      <trkpt lat="44.04029" lon="7.42911">
        <ele>2200</ele>
        <time>2019-08-21T21:57:18Z</time>
      </trkpt>
      <trkpt lat="44.04028" lon="7.4288">
        <ele>2199</ele>
        <time>2019-08-21T21:57:48Z</time>
      </trkpt>
      <trkpt lat="44.04018" lon="7.42865">
        <ele>2196</ele>
        <time>2019-08-21T21:58:08Z</time>
      </trkpt>
      <trkpt lat="44.04001" lon="7.4288">
        <ele>2189</ele>
        <time>2019-08-21T21:58:35Z</time>
      </trkpt>
      <trkpt lat="44.03997" lon="7.42891">
        <ele>2188</ele>
        <time>2019-08-21T21:58:46Z</time>
      </trkpt>
      <trkpt lat="44.03973" lon="7.42897">
        <ele>2179</ele>
        <time>2019-08-21T21:59:19Z</time>
      </trkpt>
      <trkpt lat="44.03966" lon="7.42908">
        <ele>2175</ele>
        <time>2019-08-21T21:59:33Z</time>
      </trkpt>
      <trkpt lat="44.03959" lon="7.42909">
        <ele>2172</ele>
        <time>2019-08-21T21:59:42Z</time>
      </trkpt>
      <trkpt lat="44.03942" lon="7.42928">
        <ele>2165</ele>
        <time>2019-08-21T22:00:12Z</time>
      </trkpt>
      <trkpt lat="44.03891" lon="7.42959">
        <ele>2147</ele>
        <time>2019-08-21T22:01:26Z</time>
      </trkpt>
      <trkpt lat="44.03905" lon="7.42921">
        <ele>2150</ele>
        <time>2019-08-21T22:02:07Z</time>
      </trkpt>
      <trkpt lat="44.039" lon="7.42898">
        <ele>2150</ele>
        <time>2019-08-21T22:02:30Z</time>
      </trkpt>
      <trkpt lat="44.03888" lon="7.42888">
        <ele>2147</ele>
        <time>2019-08-21T22:02:49Z</time>
      </trkpt>
      <trkpt lat="44.03861" lon="7.42877">
        <ele>2139</ele>
        <time>2019-08-21T22:03:26Z</time>
      </trkpt>
      <trkpt lat="44.03824" lon="7.4285">
        <ele>2126</ele>
        <time>2019-08-21T22:04:22Z</time>
      </trkpt>
      <trkpt lat="44.03746" lon="7.42766">
        <ele>2106</ele>
        <time>2019-08-21T22:06:33Z</time>
      </trkpt>
      <trkpt lat="44.03739" lon="7.42753">
        <ele>2106</ele>
        <time>2019-08-21T22:06:49Z</time>
      </trkpt>
      <trkpt lat="44.03704" lon="7.42725">
        <ele>2099</ele>
        <time>2019-08-21T22:07:43Z</time>
      </trkpt>
      <trkpt lat="44.03701" lon="7.42712">
        <ele>2103</ele>
        <time>2019-08-21T22:07:56Z</time>
      </trkpt>
      <trkpt lat="44.0369" lon="7.42696">
        <ele>2104</ele>
        <time>2019-08-21T22:08:17Z</time>
      </trkpt>
      <trkpt lat="44.0368" lon="7.42698">
        <ele>2098</ele>
        <time>2019-08-21T22:08:31Z</time>
      </trkpt>
      <trkpt lat="44.03653" lon="7.42686">
        <ele>2092</ele>
        <time>2019-08-21T22:09:09Z</time>
      </trkpt>
      <trkpt lat="44.03605" lon="7.42687">
        <ele>2074</ele>
        <time>2019-08-21T22:10:13Z</time>
      </trkpt>
      <trkpt lat="44.03558" lon="7.42667">
        <ele>2066</ele>
        <time>2019-08-21T22:11:18Z</time>
      </trkpt>
      <trkpt lat="44.03541" lon="7.42667">
        <ele>2061</ele>
        <time>2019-08-21T22:11:41Z</time>
      </trkpt>
      <trkpt lat="44.0349" lon="7.42618">
        <ele>2067</ele>
        <time>2019-08-21T22:13:04Z</time>
      </trkpt>
      <trkpt lat="44.0345" lon="7.42599">
        <ele>2069</ele>
        <time>2019-08-21T22:14:00Z</time>
      </trkpt>
      <trkpt lat="44.03438" lon="7.42589">
        <ele>2071</ele>
        <time>2019-08-21T22:14:19Z</time>
      </trkpt>
      <trkpt lat="44.03429" lon="7.42591">
        <ele>2069</ele>
        <time>2019-08-21T22:14:31Z</time>
      </trkpt>
      <trkpt lat="44.03413" lon="7.42585">
        <ele>2070</ele>
        <time>2019-08-21T22:14:53Z</time>
      </trkpt>
      <trkpt lat="44.03395" lon="7.42586">
        <ele>2072</ele>
        <time>2019-08-21T22:15:17Z</time>
      </trkpt>
      <trkpt lat="44.03377" lon="7.42582">
        <ele>2075</ele>
        <time>2019-08-21T22:15:41Z</time>
      </trkpt>
      <trkpt lat="44.03347" lon="7.4259">
        <ele>2075</ele>
        <time>2019-08-21T22:16:22Z</time>
      </trkpt>
      <trkpt lat="44.03307" lon="7.42609">
        <ele>2067</ele>
        <time>2019-08-21T22:17:19Z</time>
      </trkpt>
      <trkpt lat="44.0324" lon="7.4258">
        <ele>2073</ele>
        <time>2019-08-21T22:18:52Z</time>
      </trkpt>
      <trkpt lat="44.03224" lon="7.42563">
        <ele>2071</ele>
        <time>2019-08-21T22:19:19Z</time>
      </trkpt>
      <trkpt lat="44.03215" lon="7.4253">
        <ele>2075</ele>
        <time>2019-08-21T22:19:53Z</time>
      </trkpt>
      <trkpt lat="44.03206" lon="7.42515">
        <ele>2074</ele>
        <time>2019-08-21T22:20:12Z</time>
      </trkpt>
      <trkpt lat="44.03205" lon="7.42451">
        <ele>2087</ele>
        <time>2019-08-21T22:21:13Z</time>
      </trkpt>
      <trkpt lat="44.03186" lon="7.42362">
        <ele>2098</ele>
        <time>2019-08-21T22:22:42Z</time>
      </trkpt>
      <trkpt lat="44.03186" lon="7.42342">
        <ele>2103</ele>
        <time>2019-08-21T22:23:01Z</time>
      </trkpt>
      <trkpt lat="44.03176" lon="7.4233">
        <ele>2101</ele>
        <time>2019-08-21T22:23:19Z</time>
      </trkpt>
      <trkpt lat="44.03166" lon="7.42292">
        <ele>2097</ele>
        <time>2019-08-21T22:23:58Z</time>
      </trkpt>
      <trkpt lat="44.03139" lon="7.42228">
        <ele>2094</ele>
        <time>2019-08-21T22:25:09Z</time>
      </trkpt>
      <trkpt lat="44.03121" lon="7.42204">
        <ele>2092</ele>
        <time>2019-08-21T22:25:42Z</time>
      </trkpt>
      <trkpt lat="44.03095" lon="7.42159">
        <ele>2089</ele>
        <time>2019-08-21T22:26:38Z</time>
      </trkpt>
      <trkpt lat="44.03074" lon="7.42114">
        <ele>2087</ele>
        <time>2019-08-21T22:27:29Z</time>
      </trkpt>
      <trkpt lat="44.03048" lon="7.41997">
        <ele>2085</ele>
        <time>2019-08-21T22:29:27Z</time>
      </trkpt>
      <trkpt lat="44.03038" lon="7.41965">
        <ele>2080</ele>
        <time>2019-08-21T22:30:00Z</time>
      </trkpt>
      <trkpt lat="44.03009" lon="7.41918">
        <ele>2076</ele>
        <time>2019-08-21T22:30:59Z</time>
      </trkpt>
      <trkpt lat="44.02994" lon="7.41909">
        <ele>2077</ele>
        <time>2019-08-21T22:31:21Z</time>
      </trkpt>
      <trkpt lat="44.02989" lon="7.41893">
        <ele>2074</ele>
        <time>2019-08-21T22:31:38Z</time>
      </trkpt>
      <trkpt lat="44.02966" lon="7.41874">
        <ele>2075</ele>
        <time>2019-08-21T22:32:14Z</time>
      </trkpt>
      <trkpt lat="44.02954" lon="7.4185">
        <ele>2070</ele>
        <time>2019-08-21T22:32:42Z</time>
      </trkpt>
      <trkpt lat="44.02942" lon="7.41813">
        <ele>2059</ele>
        <time>2019-08-21T22:33:21Z</time>
      </trkpt>
      <trkpt lat="44.02922" lon="7.41784">
        <ele>2053</ele>
        <time>2019-08-21T22:33:59Z</time>
      </trkpt>
      <trkpt lat="44.02902" lon="7.41775">
        <ele>2058</ele>
        <time>2019-08-21T22:34:27Z</time>
      </trkpt>
      <trkpt lat="44.02866" lon="7.41741">
        <ele>2057</ele>
        <time>2019-08-21T22:35:25Z</time>
      </trkpt>
      <trkpt lat="44.02837" lon="7.41693">
        <ele>2044</ele>
        <time>2019-08-21T22:36:26Z</time>
      </trkpt>
      <trkpt lat="44.02808" lon="7.41658">
        <ele>2041</ele>
        <time>2019-08-21T22:37:17Z</time>
      </trkpt>
      <trkpt lat="44.02782" lon="7.41605">
        <ele>2032</ele>
        <time>2019-08-21T22:38:18Z</time>
      </trkpt>
      <trkpt lat="44.02737" lon="7.41537">
        <ele>2026</ele>
        <time>2019-08-21T22:39:47Z</time>
      </trkpt>
      <trkpt lat="44.02702" lon="7.41494">
        <ele>2017</ele>
        <time>2019-08-21T22:40:49Z</time>
      </trkpt>
      <trkpt lat="44.02675" lon="7.41475">
        <ele>2015</ele>
        <time>2019-08-21T22:41:30Z</time>
      </trkpt>
      <trkpt lat="44.0259" lon="7.41444">
        <ele>2006</ele>
        <time>2019-08-21T22:43:27Z</time>
      </trkpt>
      <trkpt lat="44.02539" lon="7.41417">
        <ele>1996</ele>
        <time>2019-08-21T22:44:40Z</time>
      </trkpt>
      <trkpt lat="44.02513" lon="7.41413">
        <ele>1995</ele>
        <time>2019-08-21T22:45:15Z</time>
      </trkpt>
      <trkpt lat="44.02505" lon="7.41429">
        <ele>1993</ele>
        <time>2019-08-21T22:45:33Z</time>
      </trkpt>
      <trkpt lat="44.02497" lon="7.41434">
        <ele>1992</ele>
        <time>2019-08-21T22:45:45Z</time>
      </trkpt>
      <trkpt lat="44.02453" lon="7.41445">
        <ele>1987</ele>
        <time>2019-08-21T22:46:45Z</time>
      </trkpt>
      <trkpt lat="44.02399" lon="7.41468">
        <ele>1977</ele>
        <time>2019-08-21T22:48:00Z</time>
      </trkpt>
      <trkpt lat="44.02167" lon="7.41601">
        <ele>1946</ele>
        <time>2019-08-21T22:53:35Z</time>
      </trkpt>
      <trkpt lat="44.02125" lon="7.41639">
        <ele>1940</ele>
        <time>2019-08-21T22:54:42Z</time>
      </trkpt>
      <trkpt lat="44.02081" lon="7.41668">
        <ele>1937</ele>
        <time>2019-08-21T22:55:47Z</time>
      </trkpt>
      <trkpt lat="44.02047" lon="7.41705">
        <ele>1926</ele>
        <time>2019-08-21T22:56:44Z</time>
      </trkpt>
      <trkpt lat="44.01968" lon="7.41773">
        <ele>1914</ele>
        <time>2019-08-21T22:58:48Z</time>
      </trkpt>
      <trkpt lat="44.01927" lon="7.41819">
        <ele>1907</ele>
        <time>2019-08-21T22:59:59Z</time>
      </trkpt>
      <trkpt lat="44.01881" lon="7.41919">
        <ele>1877</ele>
        <time>2019-08-21T23:01:53Z</time>
      </trkpt>
      <trkpt lat="44.01829" lon="7.41966">
        <ele>1868</ele>
        <time>2019-08-21T23:03:15Z</time>
      </trkpt>
      <trkpt lat="44.01817" lon="7.41982">
        <ele>1860</ele>
        <time>2019-08-21T23:03:38Z</time>
      </trkpt>
      <trkpt lat="44.01802" lon="7.42013">
        <ele>1849</ele>
        <time>2019-08-21T23:04:13Z</time>
      </trkpt>
      <trkpt lat="44.01763" lon="7.42056">
        <ele>1836</ele>
        <time>2019-08-21T23:05:20Z</time>
      </trkpt>
      <trkpt lat="44.01725" lon="7.4209">
        <ele>1825</ele>
        <time>2019-08-21T23:06:20Z</time>
      </trkpt>
      <trkpt lat="44.01712" lon="7.4211">
        <ele>1820</ele>
        <time>2019-08-21T23:06:46Z</time>
      </trkpt>
      <trkpt lat="44.0169" lon="7.42167">
        <ele>1820</ele>
        <time>2019-08-21T23:07:48Z</time>
      </trkpt>
      <trkpt lat="44.01672" lon="7.42197">
        <ele>1827</ele>
        <time>2019-08-21T23:08:26Z</time>
      </trkpt>
      <trkpt lat="44.01663" lon="7.42206">
        <ele>1830</ele>
        <time>2019-08-21T23:08:40Z</time>
      </trkpt>
      <trkpt lat="44.01632" lon="7.42221">
        <ele>1836</ele>
        <time>2019-08-21T23:09:24Z</time>
      </trkpt>
      <trkpt lat="44.01573" lon="7.42238">
        <ele>1850</ele>
        <time>2019-08-21T23:10:45Z</time>
      </trkpt>
      <trkpt lat="44.01514" lon="7.42235">
        <ele>1856</ele>
        <time>2019-08-21T23:12:03Z</time>
      </trkpt>
      <trkpt lat="44.01593" lon="7.42287">
        <ele>1858</ele>
        <time>2019-08-21T23:14:00Z</time>
      </trkpt>
      <trkpt lat="44.01605" lon="7.42304">
        <ele>1857</ele>
        <time>2019-08-21T23:14:23Z</time>
      </trkpt>
      <trkpt lat="44.01596" lon="7.42315">
        <ele>1861</ele>
        <time>2019-08-21T23:14:39Z</time>
      </trkpt>
      <trkpt lat="44.01578" lon="7.42327">
        <ele>1870</ele>
        <time>2019-08-21T23:15:06Z</time>
      </trkpt>
      <trkpt lat="44.01549" lon="7.42312">
        <ele>1876</ele>
        <time>2019-08-21T23:15:47Z</time>
      </trkpt>
      <trkpt lat="44.01529" lon="7.42313">
        <ele>1882</ele>
        <time>2019-08-21T23:16:14Z</time>
      </trkpt>
      <trkpt lat="44.01506" lon="7.42321">
        <ele>1893</ele>
        <time>2019-08-21T23:16:45Z</time>
      </trkpt>
      <trkpt lat="44.01484" lon="7.42312">
        <ele>1893</ele>
        <time>2019-08-21T23:17:16Z</time>
      </trkpt>
      <trkpt lat="44.01453" lon="7.42311">
        <ele>1898</ele>
        <time>2019-08-21T23:17:57Z</time>
      </trkpt>
      <trkpt lat="44.01408" lon="7.42323">
        <ele>1911</ele>
        <time>2019-08-21T23:18:58Z</time>
      </trkpt>
      <trkpt lat="44.01328" lon="7.42314">
        <ele>1919</ele>
        <time>2019-08-21T23:20:45Z</time>
      </trkpt>
      <trkpt lat="44.013" lon="7.42316">
        <ele>1923</ele>
        <time>2019-08-21T23:21:23Z</time>
      </trkpt>
      <trkpt lat="44.01273" lon="7.42302">
        <ele>1922</ele>
        <time>2019-08-21T23:22:01Z</time>
      </trkpt>
      <trkpt lat="44.01259" lon="7.42287">
        <ele>1920</ele>
        <time>2019-08-21T23:22:25Z</time>
      </trkpt>
      <trkpt lat="44.01254" lon="7.42288">
        <ele>1921</ele>
        <time>2019-08-21T23:22:32Z</time>
      </trkpt>
      <trkpt lat="44.0123" lon="7.42338">
        <ele>1928</ele>
        <time>2019-08-21T23:23:29Z</time>
      </trkpt>
      <trkpt lat="44.01217" lon="7.42354">
        <ele>1932</ele>
        <time>2019-08-21T23:23:52Z</time>
      </trkpt>
      <trkpt lat="44.01181" lon="7.42385">
        <ele>1937</ele>
        <time>2019-08-21T23:24:49Z</time>
      </trkpt>
      <trkpt lat="44.01157" lon="7.42399">
        <ele>1936</ele>
        <time>2019-08-21T23:25:24Z</time>
      </trkpt>
      <trkpt lat="44.01124" lon="7.42407">
        <ele>1929</ele>
        <time>2019-08-21T23:26:08Z</time>
      </trkpt>
      <trkpt lat="44.01078" lon="7.42441">
        <ele>1930</ele>
        <time>2019-08-21T23:27:18Z</time>
      </trkpt>
      <trkpt lat="44.0105" lon="7.42446">
        <ele>1921</ele>
        <time>2019-08-21T23:27:56Z</time>
      </trkpt>
      <trkpt lat="44.01033" lon="7.42494">
        <ele>1937</ele>
        <time>2019-08-21T23:28:47Z</time>
      </trkpt>
      <trkpt lat="44.01007" lon="7.42532">
        <ele>1945</ele>
        <time>2019-08-21T23:29:37Z</time>
      </trkpt>
      <trkpt lat="44.00978" lon="7.42548">
        <ele>1939</ele>
        <time>2019-08-21T23:30:19Z</time>
      </trkpt>
      <trkpt lat="44.00967" lon="7.4258">
        <ele>1949</ele>
        <time>2019-08-21T23:30:53Z</time>
      </trkpt>
      <trkpt lat="44.00944" lon="7.4261">
        <ele>1950</ele>
        <time>2019-08-21T23:31:35Z</time>
      </trkpt>
      <trkpt lat="44.00928" lon="7.42619">
        <ele>1946</ele>
        <time>2019-08-21T23:31:58Z</time>
      </trkpt>
      <trkpt lat="44.00897" lon="7.42651">
        <ele>1944</ele>
        <time>2019-08-21T23:32:50Z</time>
      </trkpt>
      <trkpt lat="44.00881" lon="7.42661">
        <ele>1939</ele>
        <time>2019-08-21T23:33:13Z</time>
      </trkpt>
      <trkpt lat="44.00853" lon="7.42735">
        <ele>1953</ele>
        <time>2019-08-21T23:34:33Z</time>
      </trkpt>
      <trkpt lat="44.00827" lon="7.42772">
        <ele>1952</ele>
        <time>2019-08-21T23:35:23Z</time>
      </trkpt>
      <trkpt lat="44.00791" lon="7.42842">
        <ele>1957</ele>
        <time>2019-08-21T23:36:46Z</time>
      </trkpt>
      <trkpt lat="44.00765" lon="7.4288">
        <ele>1960</ele>
        <time>2019-08-21T23:37:36Z</time>
      </trkpt>
      <trkpt lat="44.00732" lon="7.42908">
        <ele>1964</ele>
        <time>2019-08-21T23:38:27Z</time>
      </trkpt>
      <trkpt lat="44.00634" lon="7.42962">
        <ele>1959</ele>
        <time>2019-08-21T23:40:48Z</time>
      </trkpt>
      <trkpt lat="44.00615" lon="7.42986">
        <ele>1962</ele>
        <time>2019-08-21T23:41:22Z</time>
      </trkpt>
      <trkpt lat="44.00608" lon="7.43011">
        <ele>1968</ele>
        <time>2019-08-21T23:41:48Z</time>
      </trkpt>
      <trkpt lat="44.00592" lon="7.43026">
        <ele>1967</ele>
        <time>2019-08-21T23:42:14Z</time>
      </trkpt>
      <trkpt lat="44.00577" lon="7.43047">
        <ele>1968</ele>
        <time>2019-08-21T23:42:42Z</time>
      </trkpt>
      <trkpt lat="44.00427" lon="7.43121">
        <ele>1965</ele>
        <time>2019-08-21T23:46:15Z</time>
      </trkpt>
      <trkpt lat="44.00369" lon="7.4313">
        <ele>1975</ele>
        <time>2019-08-21T23:47:33Z</time>
      </trkpt>
      <trkpt lat="44.00319" lon="7.43149">
        <ele>1989</ele>
        <time>2019-08-21T23:48:42Z</time>
      </trkpt>
      <trkpt lat="44.00152" lon="7.43199">
        <ele>2025</ele>
        <time>2019-08-21T23:52:30Z</time>
      </trkpt>
      <trkpt lat="44.00116" lon="7.43201">
        <ele>2033</ele>
        <time>2019-08-21T23:53:18Z</time>
      </trkpt>
      <trkpt lat="44.00069" lon="7.43228">
        <ele>2044</ele>
        <time>2019-08-21T23:54:26Z</time>
      </trkpt>
      <trkpt lat="44.00055" lon="7.43228">
        <ele>2044</ele>
        <time>2019-08-21T23:54:44Z</time>
      </trkpt>
      <trkpt lat="44.00047" lon="7.43215">
        <ele>2043</ele>
        <time>2019-08-21T23:55:01Z</time>
      </trkpt>
      <trkpt lat="44.00039" lon="7.43178">
        <ele>2040</ele>
        <time>2019-08-21T23:55:38Z</time>
      </trkpt>
      <trkpt lat="43.99996" lon="7.43073">
        <ele>2049</ele>
        <time>2019-08-21T23:57:34Z</time>
      </trkpt>
      <trkpt lat="43.99974" lon="7.43033">
        <ele>2044</ele>
        <time>2019-08-21T23:58:22Z</time>
      </trkpt>
      <trkpt lat="43.99924" lon="7.42958">
        <ele>2043</ele>
        <time>2019-08-22T00:00:00Z</time>
      </trkpt>
      <trkpt lat="43.9991" lon="7.42933">
        <ele>2044</ele>
        <time>2019-08-22T00:00:31Z</time>
      </trkpt>
      <trkpt lat="43.999" lon="7.42905">
        <ele>2043</ele>
        <time>2019-08-22T00:01:01Z</time>
      </trkpt>
      <trkpt lat="43.99897" lon="7.42883">
        <ele>2042</ele>
        <time>2019-08-22T00:01:22Z</time>
      </trkpt>
      <trkpt lat="43.99901" lon="7.4284">
        <ele>2044</ele>
        <time>2019-08-22T00:02:04Z</time>
      </trkpt>
      <trkpt lat="43.99928" lon="7.42743">
        <ele>2050</ele>
        <time>2019-08-22T00:03:44Z</time>
      </trkpt>
      <trkpt lat="43.99928" lon="7.42731">
        <ele>2051</ele>
        <time>2019-08-22T00:03:55Z</time>
      </trkpt>
      <trkpt lat="43.99893" lon="7.42693">
        <ele>2052</ele>
        <time>2019-08-22T00:04:54Z</time>
      </trkpt>
      <trkpt lat="43.99855" lon="7.42662">
        <ele>2050</ele>
        <time>2019-08-22T00:05:53Z</time>
      </trkpt>
      <trkpt lat="43.99814" lon="7.42573">
        <ele>2053</ele>
        <time>2019-08-22T00:07:35Z</time>
      </trkpt>
      <trkpt lat="43.99777" lon="7.42536">
        <ele>2051</ele>
        <time>2019-08-22T00:08:36Z</time>
      </trkpt>
      <trkpt lat="43.99762" lon="7.42531">
        <ele>2053</ele>
        <time>2019-08-22T00:08:56Z</time>
      </trkpt>
      <trkpt lat="43.99732" lon="7.42492">
        <ele>2049</ele>
        <time>2019-08-22T00:09:51Z</time>
      </trkpt>
      <trkpt lat="43.99716" lon="7.42449">
        <ele>2039</ele>
        <time>2019-08-22T00:10:37Z</time>
      </trkpt>
      <trkpt lat="43.99698" lon="7.4243">
        <ele>2037</ele>
        <time>2019-08-22T00:11:08Z</time>
      </trkpt>
      <trkpt lat="43.99686" lon="7.4241">
        <ele>2035</ele>
        <time>2019-08-22T00:11:33Z</time>
      </trkpt>
      <trkpt lat="43.99617" lon="7.42262">
        <ele>2010</ele>
        <time>2019-08-22T00:14:22Z</time>
      </trkpt>
      <trkpt lat="43.99613" lon="7.42204">
        <ele>2004</ele>
        <time>2019-08-22T00:15:18Z</time>
      </trkpt>
      <trkpt lat="43.99621" lon="7.42123">
        <ele>1994</ele>
        <time>2019-08-22T00:16:36Z</time>
      </trkpt>
      <trkpt lat="43.99632" lon="7.42091">
        <ele>1991</ele>
        <time>2019-08-22T00:17:10Z</time>
      </trkpt>
      <trkpt lat="43.99635" lon="7.42051">
        <ele>1984</ele>
        <time>2019-08-22T00:17:49Z</time>
      </trkpt>
      <trkpt lat="43.99646" lon="7.42016">
        <ele>1982</ele>
        <time>2019-08-22T00:18:26Z</time>
      </trkpt>
      <trkpt lat="43.99665" lon="7.41934">
        <ele>1976</ele>
        <time>2019-08-22T00:19:48Z</time>
      </trkpt>
      <trkpt lat="43.99674" lon="7.41876">
        <ele>1965</ele>
        <time>2019-08-22T00:20:45Z</time>
      </trkpt>
      <trkpt lat="43.99677" lon="7.41703">
        <ele>1943</ele>
        <time>2019-08-22T00:23:31Z</time>
      </trkpt>
      <trkpt lat="43.99662" lon="7.41645">
        <ele>1939</ele>
        <time>2019-08-22T00:24:31Z</time>
      </trkpt>
      <trkpt lat="43.99635" lon="7.41509">
        <ele>1913</ele>
        <time>2019-08-22T00:26:46Z</time>
      </trkpt>
      <trkpt lat="43.9961" lon="7.41439">
        <ele>1896</ele>
        <time>2019-08-22T00:28:01Z</time>
      </trkpt>
      <trkpt lat="43.99582" lon="7.41384">
        <ele>1890</ele>
        <time>2019-08-22T00:29:06Z</time>
      </trkpt>
      <trkpt lat="43.99566" lon="7.41325">
        <ele>1878</ele>
        <time>2019-08-22T00:30:06Z</time>
      </trkpt>
      <trkpt lat="43.99547" lon="7.41314">
        <ele>1872</ele>
        <time>2019-08-22T00:30:34Z</time>
      </trkpt>
      <trkpt lat="43.99529" lon="7.41272">
        <ele>1868</ele>
        <time>2019-08-22T00:31:21Z</time>
      </trkpt>
      <trkpt lat="43.99512" lon="7.41212">
        <ele>1873</ele>
        <time>2019-08-22T00:32:23Z</time>
      </trkpt>
      <trkpt lat="43.99489" lon="7.41166">
        <ele>1877</ele>
        <time>2019-08-22T00:33:16Z</time>
      </trkpt>
      <trkpt lat="43.99464" lon="7.41129">
        <ele>1874</ele>
        <time>2019-08-22T00:34:05Z</time>
      </trkpt>
      <trkpt lat="43.99417" lon="7.41094">
        <ele>1872</ele>
        <time>2019-08-22T00:35:16Z</time>
      </trkpt>
      <trkpt lat="43.99388" lon="7.41081">
        <ele>1871</ele>
        <time>2019-08-22T00:35:57Z</time>
      </trkpt>
      <trkpt lat="43.99292" lon="7.41066">
        <ele>1855</ele>
        <time>2019-08-22T00:38:06Z</time>
      </trkpt>
      <trkpt lat="43.99278" lon="7.4106">
        <ele>1853</ele>
        <time>2019-08-22T00:38:25Z</time>
      </trkpt>
      <trkpt lat="43.99263" lon="7.41043">
        <ele>1853</ele>
        <time>2019-08-22T00:38:51Z</time>
      </trkpt>
      <trkpt lat="43.99198" lon="7.40942">
        <ele>1851</ele>
        <time>2019-08-22T00:41:01Z</time>
      </trkpt>
      <trkpt lat="43.99151" lon="7.40893">
        <ele>1846</ele>
        <time>2019-08-22T00:42:20Z</time>
      </trkpt>
      <trkpt lat="43.99075" lon="7.40826">
        <ele>1839</ele>
        <time>2019-08-22T00:44:20Z</time>
      </trkpt>
      <trkpt lat="43.99068" lon="7.40808">
        <ele>1838</ele>
        <time>2019-08-22T00:44:39Z</time>
      </trkpt>
      <trkpt lat="43.99049" lon="7.40785">
        <ele>1835</ele>
        <time>2019-08-22T00:45:13Z</time>
      </trkpt>
      <trkpt lat="43.99022" lon="7.40702">
        <ele>1829</ele>
        <time>2019-08-22T00:46:41Z</time>
      </trkpt>
      <trkpt lat="43.98989" lon="7.40656">
        <ele>1824</ele>
        <time>2019-08-22T00:47:43Z</time>
      </trkpt>
      <trkpt lat="43.98944" lon="7.40455">
        <ele>1793</ele>
        <time>2019-08-22T00:51:05Z</time>
      </trkpt>
      <trkpt lat="43.98923" lon="7.40346">
        <ele>1773</ele>
        <time>2019-08-22T00:52:53Z</time>
      </trkpt>
      <trkpt lat="43.98875" lon="7.40286">
        <ele>1760</ele>
        <time>2019-08-22T00:54:19Z</time>
      </trkpt>
      <trkpt lat="43.98889" lon="7.40257">
        <ele>1757</ele>
        <time>2019-08-22T00:54:53Z</time>
      </trkpt>
      <trkpt lat="43.98893" lon="7.40233">
        <ele>1755</ele>
        <time>2019-08-22T00:55:17Z</time>
      </trkpt>
      <trkpt lat="43.98886" lon="7.40167">
        <ele>1747</ele>
        <time>2019-08-22T00:56:21Z</time>
      </trkpt>
      <trkpt lat="43.98875" lon="7.40126">
        <ele>1744</ele>
        <time>2019-08-22T00:57:03Z</time>
      </trkpt>
      <trkpt lat="43.9885" lon="7.4008">
        <ele>1740</ele>
        <time>2019-08-22T00:57:58Z</time>
      </trkpt>
      <trkpt lat="43.98809" lon="7.40036">
        <ele>1735</ele>
        <time>2019-08-22T00:59:07Z</time>
      </trkpt>
      <trkpt lat="43.9879" lon="7.40003">
        <ele>1736</ele>
        <time>2019-08-22T00:59:48Z</time>
      </trkpt>
      <trkpt lat="43.98789" lon="7.4001">
        <ele>1735</ele>
        <time>2019-08-22T00:59:55Z</time>
      </trkpt>
      <trkpt lat="43.98794" lon="7.40006">
        <ele>1736</ele>
        <time>2019-08-22T01:00:02Z</time>
      </trkpt>
      <trkpt lat="43.98825" lon="7.40107">
        <ele>1736</ele>
        <time>2019-08-22T01:01:48Z</time>
      </trkpt>
      <trkpt lat="43.98826" lon="7.40202">
        <ele>1739</ele>
        <time>2019-08-22T01:03:19Z</time>
      </trkpt>
      <trkpt lat="43.98788" lon="7.40258">
        <ele>1732</ele>
        <time>2019-08-22T01:04:33Z</time>
      </trkpt>
      <trkpt lat="43.98743" lon="7.403">
        <ele>1724</ele>
        <time>2019-08-22T01:05:45Z</time>
      </trkpt>
      <trkpt lat="43.98724" lon="7.4031">
        <ele>1716</ele>
        <time>2019-08-22T01:06:12Z</time>
      </trkpt>
      <trkpt lat="43.98712" lon="7.4033">
        <ele>1713</ele>
        <time>2019-08-22T01:06:37Z</time>
      </trkpt>
      <trkpt lat="43.98705" lon="7.40414">
        <ele>1718</ele>
        <time>2019-08-22T01:07:59Z</time>
      </trkpt>
      <trkpt lat="43.98694" lon="7.40441">
        <ele>1713</ele>
        <time>2019-08-22T01:08:28Z</time>
      </trkpt>
      <trkpt lat="43.98694" lon="7.40517">
        <ele>1722</ele>
        <time>2019-08-22T01:09:41Z</time>
      </trkpt>
      <trkpt lat="43.98677" lon="7.40562">
        <ele>1722</ele>
        <time>2019-08-22T01:10:30Z</time>
      </trkpt>
      <trkpt lat="43.98643" lon="7.40624">
        <ele>1714</ele>
        <time>2019-08-22T01:11:45Z</time>
      </trkpt>
      <trkpt lat="43.98682" lon="7.4068">
        <ele>1727</ele>
        <time>2019-08-22T01:13:00Z</time>
      </trkpt>
      <trkpt lat="43.98732" lon="7.40721">
        <ele>1729</ele>
        <time>2019-08-22T01:14:17Z</time>
      </trkpt>
      <trkpt lat="43.98746" lon="7.4074">
        <ele>1726</ele>
        <time>2019-08-22T01:14:43Z</time>
      </trkpt>
      <trkpt lat="43.98764" lon="7.40745">
        <ele>1732</ele>
        <time>2019-08-22T01:15:08Z</time>
      </trkpt>
      <trkpt lat="43.98793" lon="7.40777">
        <ele>1732</ele>
        <time>2019-08-22T01:15:57Z</time>
      </trkpt>
      <trkpt lat="43.98806" lon="7.40826">
        <ele>1720</ele>
        <time>2019-08-22T01:16:47Z</time>
      </trkpt>
      <trkpt lat="43.98827" lon="7.40869">
        <ele>1712</ele>
        <time>2019-08-22T01:17:37Z</time>
      </trkpt>
      <trkpt lat="43.98859" lon="7.40897">
        <ele>1721</ele>
        <time>2019-08-22T01:18:28Z</time>
      </trkpt>
      <trkpt lat="43.98881" lon="7.41049">
        <ele>1699</ele>
        <time>2019-08-22T01:20:57Z</time>
      </trkpt>
      <trkpt lat="43.98938" lon="7.41116">
        <ele>1704</ele>
        <time>2019-08-22T01:22:36Z</time>
      </trkpt>
      <trkpt lat="43.99057" lon="7.412">
        <ele>1714</ele>
        <time>2019-08-22T01:25:34Z</time>
      </trkpt>
      <trkpt lat="43.9907" lon="7.413">
        <ele>1700</ele>
        <time>2019-08-22T01:27:12Z</time>
      </trkpt>
      <trkpt lat="43.99079" lon="7.41322">
        <ele>1701</ele>
        <time>2019-08-22T01:27:36Z</time>
      </trkpt>
      <trkpt lat="43.99122" lon="7.41378">
        <ele>1700</ele>
        <time>2019-08-22T01:28:55Z</time>
      </trkpt>
      <trkpt lat="43.99159" lon="7.41395">
        <ele>1704</ele>
        <time>2019-08-22T01:29:47Z</time>
      </trkpt>
      <trkpt lat="43.99263" lon="7.41403">
        <ele>1721</ele>
        <time>2019-08-22T01:32:06Z</time>
      </trkpt>
      <trkpt lat="43.99254" lon="7.41527">
        <ele>1705</ele>
        <time>2019-08-22T01:34:05Z</time>
      </trkpt>
      <trkpt lat="43.99269" lon="7.41578">
        <ele>1710</ele>
        <time>2019-08-22T01:34:58Z</time>
      </trkpt>
      <trkpt lat="43.99304" lon="7.41641">
        <ele>1721</ele>
        <time>2019-08-22T01:36:15Z</time>
      </trkpt>
      <trkpt lat="43.99333" lon="7.41678">
        <ele>1730</ele>
        <time>2019-08-22T01:37:07Z</time>
      </trkpt>
      <trkpt lat="43.99333" lon="7.41705">
        <ele>1733</ele>
        <time>2019-08-22T01:37:33Z</time>
      </trkpt>
      <trkpt lat="43.99323" lon="7.41725">
        <ele>1733</ele>
        <time>2019-08-22T01:37:57Z</time>
      </trkpt>
      <trkpt lat="43.99323" lon="7.41738">
        <ele>1735</ele>
        <time>2019-08-22T01:38:09Z</time>
      </trkpt>
      <trkpt lat="43.9933" lon="7.41768">
        <ele>1744</ele>
        <time>2019-08-22T01:38:39Z</time>
      </trkpt>
      <trkpt lat="43.99326" lon="7.4178">
        <ele>1747</ele>
        <time>2019-08-22T01:38:52Z</time>
      </trkpt>
      <trkpt lat="43.99245" lon="7.4184">
        <ele>1754</ele>
        <time>2019-08-22T01:40:55Z</time>
      </trkpt>
      <trkpt lat="43.99216" lon="7.41917">
        <ele>1771</ele>
        <time>2019-08-22T01:42:18Z</time>
      </trkpt>
      <trkpt lat="43.99205" lon="7.41927">
        <ele>1772</ele>
        <time>2019-08-22T01:42:36Z</time>
      </trkpt>
      <trkpt lat="43.99174" lon="7.41933">
        <ele>1765</ele>
        <time>2019-08-22T01:43:17Z</time>
      </trkpt>
      <trkpt lat="43.99162" lon="7.41944">
        <ele>1764</ele>
        <time>2019-08-22T01:43:37Z</time>
      </trkpt>
      <trkpt lat="43.9913" lon="7.41989">
        <ele>1764</ele>
        <time>2019-08-22T01:44:37Z</time>
      </trkpt>
      <trkpt lat="43.99127" lon="7.42008">
        <ele>1766</ele>
        <time>2019-08-22T01:44:56Z</time>
      </trkpt>
      <trkpt lat="43.9916" lon="7.42132">
        <ele>1771</ele>
        <time>2019-08-22T01:47:03Z</time>
      </trkpt>
      <trkpt lat="43.99168" lon="7.42196">
        <ele>1763</ele>
        <time>2019-08-22T01:48:05Z</time>
      </trkpt>
      <trkpt lat="43.99178" lon="7.42232">
        <ele>1761</ele>
        <time>2019-08-22T01:48:42Z</time>
      </trkpt>
      <trkpt lat="43.99234" lon="7.42322">
        <ele>1770</ele>
        <time>2019-08-22T01:50:37Z</time>
      </trkpt>
      <trkpt lat="43.99262" lon="7.42393">
        <ele>1773</ele>
        <time>2019-08-22T01:51:54Z</time>
      </trkpt>
      <trkpt lat="43.99285" lon="7.42432">
        <ele>1783</ele>
        <time>2019-08-22T01:52:43Z</time>
      </trkpt>
      <trkpt lat="43.99262" lon="7.42448">
        <ele>1775</ele>
        <time>2019-08-22T01:53:17Z</time>
      </trkpt>
      <trkpt lat="43.9925" lon="7.42468">
        <ele>1774</ele>
        <time>2019-08-22T01:53:42Z</time>
      </trkpt>
      <trkpt lat="43.99245" lon="7.42495">
        <ele>1779</ele>
        <time>2019-08-22T01:54:09Z</time>
      </trkpt>
      <trkpt lat="43.99229" lon="7.4249">
        <ele>1776</ele>
        <time>2019-08-22T01:54:31Z</time>
      </trkpt>
      <trkpt lat="43.99207" lon="7.42502">
        <ele>1776</ele>
        <time>2019-08-22T01:55:02Z</time>
      </trkpt>
      <trkpt lat="43.99151" lon="7.42515">
        <ele>1775</ele>
        <time>2019-08-22T01:56:18Z</time>
      </trkpt>
      <trkpt lat="43.99134" lon="7.42523">
        <ele>1777</ele>
        <time>2019-08-22T01:56:42Z</time>
      </trkpt>
      <trkpt lat="43.99108" lon="7.42562">
        <ele>1792</ele>
        <time>2019-08-22T01:57:33Z</time>
      </trkpt>
      <trkpt lat="43.99014" lon="7.42547">
        <ele>1772</ele>
        <time>2019-08-22T01:59:39Z</time>
      </trkpt>
      <trkpt lat="43.98997" lon="7.42556">
        <ele>1771</ele>
        <time>2019-08-22T02:00:03Z</time>
      </trkpt>
      <trkpt lat="43.98977" lon="7.42601">
        <ele>1772</ele>
        <time>2019-08-22T02:00:54Z</time>
      </trkpt>
      <trkpt lat="43.98968" lon="7.4265">
        <ele>1779</ele>
        <time>2019-08-22T02:01:43Z</time>
      </trkpt>
      <trkpt lat="43.98915" lon="7.42723">
        <ele>1768</ele>
        <time>2019-08-22T02:03:22Z</time>
      </trkpt>
      <trkpt lat="43.98898" lon="7.42761">
        <ele>1764</ele>
        <time>2019-08-22T02:04:05Z</time>
      </trkpt>
      <trkpt lat="43.98904" lon="7.42846">
        <ele>1768</ele>
        <time>2019-08-22T02:05:27Z</time>
      </trkpt>
      <trkpt lat="43.98927" lon="7.42863">
        <ele>1778</ele>
        <time>2019-08-22T02:06:02Z</time>
      </trkpt>
      <trkpt lat="43.98923" lon="7.42888">
        <ele>1779</ele>
        <time>2019-08-22T02:06:27Z</time>
      </trkpt>
      <trkpt lat="43.98899" lon="7.42902">
        <ele>1772</ele>
        <time>2019-08-22T02:07:01Z</time>
      </trkpt>
      <trkpt lat="43.98882" lon="7.4292">
        <ele>1771</ele>
        <time>2019-08-22T02:07:30Z</time>
      </trkpt>
      <trkpt lat="43.98877" lon="7.42935">
        <ele>1775</ele>
        <time>2019-08-22T02:07:46Z</time>
      </trkpt>
      <trkpt lat="43.9886" lon="7.42942">
        <ele>1774</ele>
        <time>2019-08-22T02:08:09Z</time>
      </trkpt>
      <trkpt lat="43.98849" lon="7.42961">
        <ele>1780</ele>
        <time>2019-08-22T02:08:33Z</time>
      </trkpt>
      <trkpt lat="43.9883" lon="7.42966">
        <ele>1779</ele>
        <time>2019-08-22T02:08:59Z</time>
      </trkpt>
      <trkpt lat="43.98795" lon="7.4295">
        <ele>1768</ele>
        <time>2019-08-22T02:09:48Z</time>
      </trkpt>
      <trkpt lat="43.98777" lon="7.4295">
        <ele>1767</ele>
        <time>2019-08-22T02:10:12Z</time>
      </trkpt>
      <trkpt lat="43.98762" lon="7.42935">
        <ele>1760</ele>
        <time>2019-08-22T02:10:37Z</time>
      </trkpt>
      <trkpt lat="43.98726" lon="7.42918">
        <ele>1750</ele>
        <time>2019-08-22T02:11:27Z</time>
      </trkpt>
      <trkpt lat="43.98682" lon="7.42906">
        <ele>1742</ele>
        <time>2019-08-22T02:12:27Z</time>
      </trkpt>
      <trkpt lat="43.98679" lon="7.42935">
        <ele>1743</ele>
        <time>2019-08-22T02:12:55Z</time>
      </trkpt>
      <trkpt lat="43.98689" lon="7.42998">
        <ele>1751</ele>
        <time>2019-08-22T02:13:57Z</time>
      </trkpt>
      <trkpt lat="43.9868" lon="7.43047">
        <ele>1753</ele>
        <time>2019-08-22T02:14:46Z</time>
      </trkpt>
      <trkpt lat="43.98662" lon="7.431">
        <ele>1747</ele>
        <time>2019-08-22T02:15:42Z</time>
      </trkpt>
      <trkpt lat="43.98662" lon="7.43125">
        <ele>1747</ele>
        <time>2019-08-22T02:16:06Z</time>
      </trkpt>
      <trkpt lat="43.98666" lon="7.43141">
        <ele>1750</ele>
        <time>2019-08-22T02:16:22Z</time>
      </trkpt>
      <trkpt lat="43.98679" lon="7.43156">
        <ele>1758</ele>
        <time>2019-08-22T02:16:45Z</time>
      </trkpt>
      <trkpt lat="43.98679" lon="7.43177">
        <ele>1757</ele>
        <time>2019-08-22T02:17:05Z</time>
      </trkpt>
      <trkpt lat="43.98714" lon="7.43267">
        <ele>1776</ele>
        <time>2019-08-22T02:18:43Z</time>
      </trkpt>
      <trkpt lat="43.98683" lon="7.43332">
        <ele>1769</ele>
        <time>2019-08-22T02:19:58Z</time>
      </trkpt>
      <trkpt lat="43.98575" lon="7.43441">
        <ele>1767</ele>
        <time>2019-08-22T02:22:56Z</time>
      </trkpt>
      <trkpt lat="43.98567" lon="7.43463">
        <ele>1773</ele>
        <time>2019-08-22T02:23:20Z</time>
      </trkpt>
      <trkpt lat="43.98547" lon="7.43478">
        <ele>1769</ele>
        <time>2019-08-22T02:23:50Z</time>
      </trkpt>
      <trkpt lat="43.98493" lon="7.43553">
        <ele>1775</ele>
        <time>2019-08-22T02:25:32Z</time>
      </trkpt>
      <trkpt lat="43.9846" lon="7.43576">
        <ele>1772</ele>
        <time>2019-08-22T02:26:21Z</time>
      </trkpt>
      <trkpt lat="43.98446" lon="7.43625">
        <ele>1780</ele>
        <time>2019-08-22T02:27:12Z</time>
      </trkpt>
      <trkpt lat="43.98407" lon="7.43661">
        <ele>1773</ele>
        <time>2019-08-22T02:28:14Z</time>
      </trkpt>
      <trkpt lat="43.98391" lon="7.43685">
        <ele>1774</ele>
        <time>2019-08-22T02:28:46Z</time>
      </trkpt>
      <trkpt lat="43.98357" lon="7.43763">
        <ele>1778</ele>
        <time>2019-08-22T02:30:13Z</time>
      </trkpt>
      <trkpt lat="43.98356" lon="7.4378">
        <ele>1776</ele>
        <time>2019-08-22T02:30:30Z</time>
      </trkpt>
      <trkpt lat="43.98315" lon="7.43787">
        <ele>1773</ele>
        <time>2019-08-22T02:31:25Z</time>
      </trkpt>
      <trkpt lat="43.98276" lon="7.43809">
        <ele>1778</ele>
        <time>2019-08-22T02:32:21Z</time>
      </trkpt>
      <trkpt lat="43.98209" lon="7.43883">
        <ele>1781</ele>
        <time>2019-08-22T02:34:15Z</time>
      </trkpt>
      <trkpt lat="43.98131" lon="7.43953">
        <ele>1774</ele>
        <time>2019-08-22T02:36:19Z</time>
      </trkpt>
      <trkpt lat="43.98091" lon="7.43974">
        <ele>1768</ele>
        <time>2019-08-22T02:37:16Z</time>
      </trkpt>
      <trkpt lat="43.9813" lon="7.44047">
        <ele>1748</ele>
        <time>2019-08-22T02:38:44Z</time>
      </trkpt>
      <trkpt lat="43.98212" lon="7.44002">
        <ele>1749</ele>
        <time>2019-08-22T02:40:41Z</time>
      </trkpt>
      <trkpt lat="43.98273" lon="7.44001">
        <ele>1738</ele>
        <time>2019-08-22T02:42:03Z</time>
      </trkpt>
      <trkpt lat="43.98211" lon="7.44114">
        <ele>1745</ele>
        <time>2019-08-22T02:44:19Z</time>
      </trkpt>
      <trkpt lat="43.98191" lon="7.442">
        <ele>1759</ele>
        <time>2019-08-22T02:45:46Z</time>
      </trkpt>
      <trkpt lat="43.9829" lon="7.44156">
        <ele>1767</ele>
        <time>2019-08-22T02:48:05Z</time>
      </trkpt>
      <trkpt lat="43.98195" lon="7.44386">
        <ele>1799</ele>
        <time>2019-08-22T02:52:19Z</time>
      </trkpt>
      <trkpt lat="43.98099" lon="7.44428">
        <ele>1811</ele>
        <time>2019-08-22T02:54:34Z</time>
      </trkpt>
      <trkpt lat="43.98069" lon="7.44479">
        <ele>1817</ele>
        <time>2019-08-22T02:55:37Z</time>
      </trkpt>
      <trkpt lat="43.97999" lon="7.44546">
        <ele>1827</ele>
        <time>2019-08-22T02:57:30Z</time>
      </trkpt>
      <trkpt lat="43.97904" lon="7.44565">
        <ele>1846</ele>
        <time>2019-08-22T02:59:38Z</time>
      </trkpt>
      <trkpt lat="43.97851" lon="7.44565">
        <ele>1855</ele>
        <time>2019-08-22T03:00:49Z</time>
      </trkpt>
      <trkpt lat="43.9778" lon="7.44582">
        <ele>1869</ele>
        <time>2019-08-22T03:02:25Z</time>
      </trkpt>
      <trkpt lat="43.97763" lon="7.44603">
        <ele>1867</ele>
        <time>2019-08-22T03:02:56Z</time>
      </trkpt>
      <trkpt lat="43.97679" lon="7.4463">
        <ele>1882</ele>
        <time>2019-08-22T03:04:51Z</time>
      </trkpt>
      <trkpt lat="43.97555" lon="7.44724">
        <ele>1875</ele>
        <time>2019-08-22T03:07:59Z</time>
      </trkpt>
      <trkpt lat="43.975" lon="7.44739">
        <ele>1879</ele>
        <time>2019-08-22T03:09:14Z</time>
      </trkpt>
      <trkpt lat="43.97441" lon="7.44765">
        <ele>1877</ele>
        <time>2019-08-22T03:10:36Z</time>
      </trkpt>
      <trkpt lat="43.97362" lon="7.44824">
        <ele>1880</ele>
        <time>2019-08-22T03:12:36Z</time>
      </trkpt>
      <trkpt lat="43.97325" lon="7.44892">
        <ele>1885</ele>
        <time>2019-08-22T03:13:58Z</time>
      </trkpt>
      <trkpt lat="43.97313" lon="7.44896">
        <ele>1888</ele>
        <time>2019-08-22T03:14:14Z</time>
      </trkpt>
      <trkpt lat="43.97246" lon="7.44861">
        <ele>1893</ele>
        <time>2019-08-22T03:15:50Z</time>
      </trkpt>
      <trkpt lat="43.97186" lon="7.44847">
        <ele>1908</ele>
        <time>2019-08-22T03:17:11Z</time>
      </trkpt>
      <trkpt lat="43.9694" lon="7.44722">
        <ele>1919</ele>
        <time>2019-08-22T03:23:01Z</time>
      </trkpt>
      <trkpt lat="43.96755" lon="7.44776">
        <ele>1912</ele>
        <time>2019-08-22T03:27:13Z</time>
      </trkpt>
      <trkpt lat="43.96691" lon="7.44772">
        <ele>1901</ele>
        <time>2019-08-22T03:28:38Z</time>
      </trkpt>
      <trkpt lat="43.96579" lon="7.44798">
        <ele>1887</ele>
        <time>2019-08-22T03:31:10Z</time>
      </trkpt>
      <trkpt lat="43.96502" lon="7.44832">
        <ele>1875</ele>
        <time>2019-08-22T03:32:58Z</time>
      </trkpt>
      <trkpt lat="43.96425" lon="7.44892">
        <ele>1869</ele>
        <time>2019-08-22T03:34:56Z</time>
      </trkpt>
      <trkpt lat="43.96367" lon="7.44916">
        <ele>1864</ele>
        <time>2019-08-22T03:36:16Z</time>
      </trkpt>
      <trkpt lat="43.96304" lon="7.44957">
        <ele>1859</ele>
        <time>2019-08-22T03:37:49Z</time>
      </trkpt>
      <trkpt lat="43.96277" lon="7.44982">
        <ele>1856</ele>
        <time>2019-08-22T03:38:33Z</time>
      </trkpt>
      <trkpt lat="43.96193" lon="7.45011">
        <ele>1837</ele>
        <time>2019-08-22T03:40:28Z</time>
      </trkpt>
      <trkpt lat="43.96106" lon="7.4498">
        <ele>1845</ele>
        <time>2019-08-22T03:42:28Z</time>
      </trkpt>
      <trkpt lat="43.96009" lon="7.44974">
        <ele>1843</ele>
        <time>2019-08-22T03:44:37Z</time>
      </trkpt>
      <trkpt lat="43.95933" lon="7.44995">
        <ele>1834</ele>
        <time>2019-08-22T03:46:21Z</time>
      </trkpt>
      <trkpt lat="43.95792" lon="7.45059">
        <ele>1822</ele>
        <time>2019-08-22T03:49:39Z</time>
      </trkpt>
      <trkpt lat="43.95546" lon="7.45321">
        <ele>1777</ele>
        <time>2019-08-22T03:56:32Z</time>
      </trkpt>
      <trkpt lat="43.9546" lon="7.4538">
        <ele>1761</ele>
        <time>2019-08-22T03:58:40Z</time>
      </trkpt>
      <trkpt lat="43.95296" lon="7.45412">
        <ele>1739</ele>
        <time>2019-08-22T04:02:21Z</time>
      </trkpt>
      <trkpt lat="43.95241" lon="7.45468">
        <ele>1730</ele>
        <time>2019-08-22T04:03:52Z</time>
      </trkpt>
      <trkpt lat="43.95222" lon="7.45468">
        <ele>1724</ele>
        <time>2019-08-22T04:04:18Z</time>
      </trkpt>
      <trkpt lat="43.9516" lon="7.45535">
        <ele>1730</ele>
        <time>2019-08-22T04:06:03Z</time>
      </trkpt>
      <trkpt lat="43.95107" lon="7.45567">
        <ele>1735</ele>
        <time>2019-08-22T04:07:20Z</time>
      </trkpt>
      <trkpt lat="43.95059" lon="7.45574">
        <ele>1732</ele>
        <time>2019-08-22T04:08:24Z</time>
      </trkpt>
      <trkpt lat="43.95028" lon="7.45564">
        <ele>1721</ele>
        <time>2019-08-22T04:09:07Z</time>
      </trkpt>
      <trkpt lat="43.95003" lon="7.45545">
        <ele>1706</ele>
        <time>2019-08-22T04:09:45Z</time>
      </trkpt>
      <trkpt lat="43.94977" lon="7.45553">
        <ele>1701</ele>
        <time>2019-08-22T04:10:20Z</time>
      </trkpt>
      <trkpt lat="43.94916" lon="7.45619">
        <ele>1723</ele>
        <time>2019-08-22T04:12:03Z</time>
      </trkpt>
      <trkpt lat="43.94849" lon="7.45626">
        <ele>1710</ele>
        <time>2019-08-22T04:13:33Z</time>
      </trkpt>
      <trkpt lat="43.94817" lon="7.45662">
        <ele>1727</ele>
        <time>2019-08-22T04:14:28Z</time>
      </trkpt>
      <trkpt lat="43.94738" lon="7.45618">
        <ele>1686</ele>
        <time>2019-08-22T04:16:22Z</time>
      </trkpt>
      <trkpt lat="43.94644" lon="7.45684">
        <ele>1698</ele>
        <time>2019-08-22T04:18:42Z</time>
      </trkpt>
      <trkpt lat="43.94615" lon="7.4568">
        <ele>1694</ele>
        <time>2019-08-22T04:19:21Z</time>
      </trkpt>
      <trkpt lat="43.94523" lon="7.45703">
        <ele>1687</ele>
        <time>2019-08-22T04:21:26Z</time>
      </trkpt>
      <trkpt lat="43.94451" lon="7.45677">
        <ele>1689</ele>
        <time>2019-08-22T04:23:05Z</time>
      </trkpt>
      <trkpt lat="43.94283" lon="7.45647">
        <ele>1706</ele>
        <time>2019-08-22T04:26:51Z</time>
      </trkpt>
      <trkpt lat="43.94224" lon="7.45623">
        <ele>1715</ele>
        <time>2019-08-22T04:28:13Z</time>
      </trkpt>
      <trkpt lat="43.94214" lon="7.45601">
        <ele>1719</ele>
        <time>2019-08-22T04:28:38Z</time>
      </trkpt>
      <trkpt lat="43.942" lon="7.45589">
        <ele>1723</ele>
        <time>2019-08-22T04:29:00Z</time>
      </trkpt>
      <trkpt lat="43.94135" lon="7.45599">
        <ele>1737</ele>
        <time>2019-08-22T04:30:27Z</time>
      </trkpt>
      <trkpt lat="43.94052" lon="7.45587">
        <ele>1755</ele>
        <time>2019-08-22T04:32:19Z</time>
      </trkpt>
      <trkpt lat="43.93993" lon="7.45537">
        <ele>1753</ele>
        <time>2019-08-22T04:33:51Z</time>
      </trkpt>
      <trkpt lat="43.93964" lon="7.45499">
        <ele>1750</ele>
        <time>2019-08-22T04:34:44Z</time>
      </trkpt>
      <trkpt lat="43.93897" lon="7.45477">
        <ele>1761</ele>
        <time>2019-08-22T04:36:16Z</time>
      </trkpt>
      <trkpt lat="43.9378" lon="7.45374">
        <ele>1775</ele>
        <time>2019-08-22T04:39:21Z</time>
      </trkpt>
      <trkpt lat="43.93692" lon="7.45258">
        <ele>1796</ele>
        <time>2019-08-22T04:42:03Z</time>
      </trkpt>
      <trkpt lat="43.9368" lon="7.45219">
        <ele>1798</ele>
        <time>2019-08-22T04:42:44Z</time>
      </trkpt>
      <trkpt lat="43.93638" lon="7.45176">
        <ele>1793</ele>
        <time>2019-08-22T04:43:53Z</time>
      </trkpt>
      <trkpt lat="43.93514" lon="7.45088">
        <ele>1765</ele>
        <time>2019-08-22T04:46:59Z</time>
      </trkpt>
      <trkpt lat="43.93587" lon="7.45087">
        <ele>1773</ele>
        <time>2019-08-22T04:48:36Z</time>
      </trkpt>
      <trkpt lat="43.9365" lon="7.45062">
        <ele>1763</ele>
        <time>2019-08-22T04:50:04Z</time>
      </trkpt>
      <trkpt lat="43.93694" lon="7.45057">
        <ele>1759</ele>
        <time>2019-08-22T04:51:03Z</time>
      </trkpt>
      <trkpt lat="43.93734" lon="7.45035">
        <ele>1750</ele>
        <time>2019-08-22T04:52:00Z</time>
      </trkpt>
      <trkpt lat="43.9376" lon="7.45005">
        <ele>1738</ele>
        <time>2019-08-22T04:52:45Z</time>
      </trkpt>
      <trkpt lat="43.93768" lon="7.4491">
        <ele>1724</ele>
        <time>2019-08-22T04:54:17Z</time>
      </trkpt>
      <trkpt lat="43.93718" lon="7.44936">
        <ele>1720</ele>
        <time>2019-08-22T04:55:28Z</time>
      </trkpt>
      <trkpt lat="43.93684" lon="7.44945">
        <ele>1714</ele>
        <time>2019-08-22T04:56:15Z</time>
      </trkpt>
      <trkpt lat="43.93611" lon="7.44883">
        <ele>1676</ele>
        <time>2019-08-22T04:58:09Z</time>
      </trkpt>
      <trkpt lat="43.93546" lon="7.44799">
        <ele>1635</ele>
        <time>2019-08-22T05:00:07Z</time>
      </trkpt>
      <trkpt lat="43.9352" lon="7.44783">
        <ele>1628</ele>
        <time>2019-08-22T05:00:45Z</time>
      </trkpt>
      <trkpt lat="43.93494" lon="7.44782">
        <ele>1629</ele>
        <time>2019-08-22T05:01:20Z</time>
      </trkpt>
      <trkpt lat="43.93467" lon="7.44756">
        <ele>1622</ele>
        <time>2019-08-22T05:02:04Z</time>
      </trkpt>
      <trkpt lat="43.93414" lon="7.44658">
        <ele>1586</ele>
        <time>2019-08-22T05:04:02Z</time>
      </trkpt>
      <trkpt lat="43.93394" lon="7.44645">
        <ele>1589</ele>
        <time>2019-08-22T05:04:31Z</time>
      </trkpt>
      <trkpt lat="43.9336" lon="7.44582">
        <ele>1571</ele>
        <time>2019-08-22T05:05:47Z</time>
      </trkpt>
      <trkpt lat="43.93232" lon="7.44491">
        <ele>1571</ele>
        <time>2019-08-22T05:08:59Z</time>
      </trkpt>
      <trkpt lat="43.93215" lon="7.44445">
        <ele>1556</ele>
        <time>2019-08-22T05:09:48Z</time>
      </trkpt>
      <trkpt lat="43.9318" lon="7.44411">
        <ele>1558</ele>
        <time>2019-08-22T05:10:45Z</time>
      </trkpt>
      <trkpt lat="43.93139" lon="7.44317">
        <ele>1541</ele>
        <time>2019-08-22T05:12:31Z</time>
      </trkpt>
      <trkpt lat="43.93109" lon="7.44294">
        <ele>1548</ele>
        <time>2019-08-22T05:13:17Z</time>
      </trkpt>
      <trkpt lat="43.93051" lon="7.44159">
        <ele>1537</ele>
        <time>2019-08-22T05:15:48Z</time>
      </trkpt>
      <trkpt lat="43.93061" lon="7.44071">
        <ele>1513</ele>
        <time>2019-08-22T05:17:13Z</time>
      </trkpt>
      <trkpt lat="43.93049" lon="7.4403">
        <ele>1511</ele>
        <time>2019-08-22T05:17:56Z</time>
      </trkpt>
      <trkpt lat="43.93027" lon="7.44005">
        <ele>1518</ele>
        <time>2019-08-22T05:18:34Z</time>
      </trkpt>
      <trkpt lat="43.93012" lon="7.43897">
        <ele>1497</ele>
        <time>2019-08-22T05:20:20Z</time>
      </trkpt>
      <trkpt lat="43.93021" lon="7.43774">
        <ele>1478</ele>
        <time>2019-08-22T05:22:18Z</time>
      </trkpt>
      <trkpt lat="43.92985" lon="7.43777">
        <ele>1476</ele>
        <time>2019-08-22T05:23:07Z</time>
      </trkpt>
      <trkpt lat="43.92978" lon="7.43744">
        <ele>1469</ele>
        <time>2019-08-22T05:23:40Z</time>
      </trkpt>
      <trkpt lat="43.92877" lon="7.43777">
        <ele>1450</ele>
        <time>2019-08-22T05:25:58Z</time>
      </trkpt>
      <trkpt lat="43.92831" lon="7.43764">
        <ele>1438</ele>
        <time>2019-08-22T05:27:01Z</time>
      </trkpt>
      <trkpt lat="43.92713" lon="7.43752">
        <ele>1412</ele>
        <time>2019-08-22T05:29:39Z</time>
      </trkpt>
      <trkpt lat="43.9256" lon="7.43772">
        <ele>1398</ele>
        <time>2019-08-22T05:33:04Z</time>
      </trkpt>
      <trkpt lat="43.92503" lon="7.43753">
        <ele>1384</ele>
        <time>2019-08-22T05:34:22Z</time>
      </trkpt>
      <trkpt lat="43.92456" lon="7.4376">
        <ele>1379</ele>
        <time>2019-08-22T05:35:25Z</time>
      </trkpt>
      <trkpt lat="43.92418" lon="7.43783">
        <ele>1375</ele>
        <time>2019-08-22T05:36:20Z</time>
      </trkpt>
      <trkpt lat="43.92299" lon="7.43745">
        <ele>1359</ele>
        <time>2019-08-22T05:39:03Z</time>
      </trkpt>
      <trkpt lat="43.9221" lon="7.43685">
        <ele>1346</ele>
        <time>2019-08-22T05:41:15Z</time>
      </trkpt>
      <trkpt lat="43.92169" lon="7.43678">
        <ele>1340</ele>
        <time>2019-08-22T05:42:10Z</time>
      </trkpt>
      <trkpt lat="43.92146" lon="7.43659">
        <ele>1340</ele>
        <time>2019-08-22T05:42:46Z</time>
      </trkpt>
      <trkpt lat="43.92076" lon="7.43649">
        <ele>1336</ele>
        <time>2019-08-22T05:44:20Z</time>
      </trkpt>
      <trkpt lat="43.91937" lon="7.43695">
        <ele>1302</ele>
        <time>2019-08-22T05:47:31Z</time>
      </trkpt>
      <trkpt lat="43.91706" lon="7.43712">
        <ele>1252</ele>
        <time>2019-08-22T05:52:39Z</time>
      </trkpt>
      <trkpt lat="43.91619" lon="7.43669">
        <ele>1239</ele>
        <time>2019-08-22T05:54:43Z</time>
      </trkpt>
      <trkpt lat="43.91525" lon="7.4365">
        <ele>1217</ele>
        <time>2019-08-22T05:56:49Z</time>
      </trkpt>
      <trkpt lat="43.91303" lon="7.43645">
        <ele>1159</ele>
        <time>2019-08-22T06:01:46Z</time>
      </trkpt>
      <trkpt lat="43.91257" lon="7.43671">
        <ele>1145</ele>
        <time>2019-08-22T06:02:52Z</time>
      </trkpt>
      <trkpt lat="43.91141" lon="7.43662">
        <ele>1106</ele>
        <time>2019-08-22T06:05:27Z</time>
      </trkpt>
      <trkpt lat="43.91135" lon="7.43675">
        <ele>1102</ele>
        <time>2019-08-22T06:05:42Z</time>
      </trkpt>
      <trkpt lat="43.91121" lon="7.43671">
        <ele>1096</ele>
        <time>2019-08-22T06:06:01Z</time>
      </trkpt>
      <trkpt lat="43.91121" lon="7.43686">
        <ele>1093</ele>
        <time>2019-08-22T06:06:15Z</time>
      </trkpt>
      <trkpt lat="43.91147" lon="7.4374">
        <ele>1090</ele>
        <time>2019-08-22T06:07:18Z</time>
      </trkpt>
      <trkpt lat="43.91074" lon="7.43748">
        <ele>1067</ele>
        <time>2019-08-22T06:08:55Z</time>
      </trkpt>
      <trkpt lat="43.9103" lon="7.4374">
        <ele>1050</ele>
        <time>2019-08-22T06:09:55Z</time>
      </trkpt>
      <trkpt lat="43.90945" lon="7.43776">
        <ele>1014</ele>
        <time>2019-08-22T06:11:53Z</time>
      </trkpt>
      <trkpt lat="43.909" lon="7.43821">
        <ele>1003</ele>
        <time>2019-08-22T06:13:07Z</time>
      </trkpt>
      <trkpt lat="43.909" lon="7.43849">
        <ele>999</ele>
        <time>2019-08-22T06:13:34Z</time>
      </trkpt>
      <trkpt lat="43.90871" lon="7.43868">
        <ele>985</ele>
        <time>2019-08-22T06:14:17Z</time>
      </trkpt>
      <trkpt lat="43.9082" lon="7.43886">
        <ele>972</ele>
        <time>2019-08-22T06:15:27Z</time>
      </trkpt>
      <trkpt lat="43.90779" lon="7.43878">
        <ele>965</ele>
        <time>2019-08-22T06:16:23Z</time>
      </trkpt>
      <trkpt lat="43.90758" lon="7.43862">
        <ele>961</ele>
        <time>2019-08-22T06:16:54Z</time>
      </trkpt>
      <trkpt lat="43.90742" lon="7.43869">
        <ele>958</ele>
        <time>2019-08-22T06:17:17Z</time>
      </trkpt>
      <trkpt lat="43.90696" lon="7.43867">
        <ele>951</ele>
        <time>2019-08-22T06:18:18Z</time>
      </trkpt>
      <trkpt lat="43.90612" lon="7.43901">
        <ele>938</ele>
        <time>2019-08-22T06:20:15Z</time>
      </trkpt>
      <trkpt lat="43.90591" lon="7.43978">
        <ele>928</ele>
        <time>2019-08-22T06:21:34Z</time>
      </trkpt>
      <trkpt lat="43.90563" lon="7.43997">
        <ele>919</ele>
        <time>2019-08-22T06:22:16Z</time>
      </trkpt>
      <trkpt lat="43.90521" lon="7.44079">
        <ele>897</ele>
        <time>2019-08-22T06:23:53Z</time>
      </trkpt>
      <trkpt lat="43.90496" lon="7.44114">
        <ele>891</ele>
        <time>2019-08-22T06:24:40Z</time>
      </trkpt>
      <trkpt lat="43.90496" lon="7.44141">
        <ele>888</ele>
        <time>2019-08-22T06:25:06Z</time>
      </trkpt>
      <trkpt lat="43.90481" lon="7.44171">
        <ele>883</ele>
        <time>2019-08-22T06:25:41Z</time>
      </trkpt>
      <trkpt lat="43.90459" lon="7.44186">
        <ele>878</ele>
        <time>2019-08-22T06:26:14Z</time>
      </trkpt>
      <trkpt lat="43.90343" lon="7.44177">
        <ele>873</ele>
        <time>2019-08-22T06:28:49Z</time>
      </trkpt>
      <trkpt lat="43.90273" lon="7.44144">
        <ele>862</ele>
        <time>2019-08-22T06:30:27Z</time>
      </trkpt>
      <trkpt lat="43.90182" lon="7.44177">
        <ele>851</ele>
        <time>2019-08-22T06:32:33Z</time>
      </trkpt>
      <trkpt lat="43.90147" lon="7.4418">
        <ele>845</ele>
        <time>2019-08-22T06:33:20Z</time>
      </trkpt>
      <trkpt lat="43.90054" lon="7.44236">
        <ele>828</ele>
        <time>2019-08-22T06:35:35Z</time>
      </trkpt>
      <trkpt lat="43.9004" lon="7.44272">
        <ele>821</ele>
        <time>2019-08-22T06:36:14Z</time>
      </trkpt>
      <trkpt lat="43.89943" lon="7.44289">
        <ele>797</ele>
        <time>2019-08-22T06:38:25Z</time>
      </trkpt>
      <trkpt lat="43.89879" lon="7.44277">
        <ele>783</ele>
        <time>2019-08-22T06:39:51Z</time>
      </trkpt>
      <trkpt lat="43.89872" lon="7.44306">
        <ele>782</ele>
        <time>2019-08-22T06:40:20Z</time>
      </trkpt>
      <trkpt lat="43.89806" lon="7.44323">
        <ele>764</ele>
        <time>2019-08-22T06:41:50Z</time>
      </trkpt>
      <trkpt lat="43.89792" lon="7.44311">
        <ele>757</ele>
        <time>2019-08-22T06:42:12Z</time>
      </trkpt>
      <trkpt lat="43.89769" lon="7.44429">
        <ele>742</ele>
        <time>2019-08-22T06:44:09Z</time>
      </trkpt>
      <trkpt lat="43.89669" lon="7.4448">
        <ele>724</ele>
        <time>2019-08-22T06:46:32Z</time>
      </trkpt>
      <trkpt lat="43.89602" lon="7.44583">
        <ele>719</ele>
        <time>2019-08-22T06:48:45Z</time>
      </trkpt>
      <trkpt lat="43.89613" lon="7.44543">
        <ele>713</ele>
        <time>2019-08-22T06:49:26Z</time>
      </trkpt>
      <trkpt lat="43.89612" lon="7.44509">
        <ele>703</ele>
        <time>2019-08-22T06:49:59Z</time>
      </trkpt>
      <trkpt lat="43.89571" lon="7.44583">
        <ele>705</ele>
        <time>2019-08-22T06:51:29Z</time>
      </trkpt>
      <trkpt lat="43.8955" lon="7.44596">
        <ele>700</ele>
        <time>2019-08-22T06:51:59Z</time>
      </trkpt>
      <trkpt lat="43.89525" lon="7.44581">
        <ele>684</ele>
        <time>2019-08-22T06:52:36Z</time>
      </trkpt>
      <trkpt lat="43.89496" lon="7.44589">
        <ele>675</ele>
        <time>2019-08-22T06:53:15Z</time>
      </trkpt>
      <trkpt lat="43.89478" lon="7.44609">
        <ele>675</ele>
        <time>2019-08-22T06:53:46Z</time>
      </trkpt>
      <trkpt lat="43.89448" lon="7.44679">
        <ele>685</ele>
        <time>2019-08-22T06:55:04Z</time>
      </trkpt>
      <trkpt lat="43.89426" lon="7.44701">
        <ele>686</ele>
        <time>2019-08-22T06:55:40Z</time>
      </trkpt>
      <trkpt lat="43.89437" lon="7.44659">
        <ele>673</ele>
        <time>2019-08-22T06:56:23Z</time>
      </trkpt>
      <trkpt lat="43.89407" lon="7.44693">
        <ele>678</ele>
        <time>2019-08-22T06:57:15Z</time>
      </trkpt>
      <trkpt lat="43.89392" lon="7.4468">
        <ele>674</ele>
        <time>2019-08-22T06:57:39Z</time>
      </trkpt>
      <trkpt lat="43.89362" lon="7.44684">
        <ele>677</ele>
        <time>2019-08-22T06:58:19Z</time>
      </trkpt>
      <trkpt lat="43.89341" lon="7.44627">
        <ele>660</ele>
        <time>2019-08-22T06:59:21Z</time>
      </trkpt>
      <trkpt lat="43.8933" lon="7.44612">
        <ele>655</ele>
        <time>2019-08-22T06:59:41Z</time>
      </trkpt>
      <trkpt lat="43.89309" lon="7.44604">
        <ele>653</ele>
        <time>2019-08-22T07:00:10Z</time>
      </trkpt>
      <trkpt lat="43.8931" lon="7.44596">
        <ele>650</ele>
        <time>2019-08-22T07:00:18Z</time>
      </trkpt>
      <trkpt lat="43.89293" lon="7.44584">
        <ele>648</ele>
        <time>2019-08-22T07:00:43Z</time>
      </trkpt>
      <trkpt lat="43.89255" lon="7.44527">
        <ele>633</ele>
        <time>2019-08-22T07:01:58Z</time>
      </trkpt>
      <trkpt lat="43.89235" lon="7.44523">
        <ele>629</ele>
        <time>2019-08-22T07:02:25Z</time>
      </trkpt>
      <trkpt lat="43.8923" lon="7.44516">
        <ele>626</ele>
        <time>2019-08-22T07:02:35Z</time>
      </trkpt>
      <trkpt lat="43.89208" lon="7.44526">
        <ele>624</ele>
        <time>2019-08-22T07:03:05Z</time>
      </trkpt>
      <trkpt lat="43.892" lon="7.44519">
        <ele>620</ele>
        <time>2019-08-22T07:03:18Z</time>
      </trkpt>
      <trkpt lat="43.89175" lon="7.44595">
        <ele>625</ele>
        <time>2019-08-22T07:04:38Z</time>
      </trkpt>
      <trkpt lat="43.89171" lon="7.4454">
        <ele>617</ele>
        <time>2019-08-22T07:05:32Z</time>
      </trkpt>
      <trkpt lat="43.89167" lon="7.44582">
        <ele>622</ele>
        <time>2019-08-22T07:06:12Z</time>
      </trkpt>
      <trkpt lat="43.89153" lon="7.44602">
        <ele>616</ele>
        <time>2019-08-22T07:06:39Z</time>
      </trkpt>
      <trkpt lat="43.89122" lon="7.44628">
        <ele>603</ele>
        <time>2019-08-22T07:07:27Z</time>
      </trkpt>
      <trkpt lat="43.89139" lon="7.44693">
        <ele>613</ele>
        <time>2019-08-22T07:08:34Z</time>
      </trkpt>
      <trkpt lat="43.89062" lon="7.44615">
        <ele>577</ele>
        <time>2019-08-22T07:10:41Z</time>
      </trkpt>
      <trkpt lat="43.89082" lon="7.44594">
        <ele>583</ele>
        <time>2019-08-22T07:11:15Z</time>
      </trkpt>
      <trkpt lat="43.89056" lon="7.44598">
        <ele>573</ele>
        <time>2019-08-22T07:11:50Z</time>
      </trkpt>
      <trkpt lat="43.89046" lon="7.4464">
        <ele>572</ele>
        <time>2019-08-22T07:12:32Z</time>
      </trkpt>
      <trkpt lat="43.89038" lon="7.44581">
        <ele>565</ele>
        <time>2019-08-22T07:13:30Z</time>
      </trkpt>
      <trkpt lat="43.89032" lon="7.44579">
        <ele>563</ele>
        <time>2019-08-22T07:13:38Z</time>
      </trkpt>
      <trkpt lat="43.89032" lon="7.44621">
        <ele>566</ele>
        <time>2019-08-22T07:14:18Z</time>
      </trkpt>
      <trkpt lat="43.89017" lon="7.44634">
        <ele>561</ele>
        <time>2019-08-22T07:14:42Z</time>
      </trkpt>
      <trkpt lat="43.89022" lon="7.44605">
        <ele>561</ele>
        <time>2019-08-22T07:15:11Z</time>
      </trkpt>
      <trkpt lat="43.89015" lon="7.44569">
        <ele>556</ele>
        <time>2019-08-22T07:15:47Z</time>
      </trkpt>
      <trkpt lat="43.89008" lon="7.44595">
        <ele>555</ele>
        <time>2019-08-22T07:16:13Z</time>
      </trkpt>
      <trkpt lat="43.88991" lon="7.44557">
        <ele>547</ele>
        <time>2019-08-22T07:16:56Z</time>
      </trkpt>
      <trkpt lat="43.88997" lon="7.44595">
        <ele>551</ele>
        <time>2019-08-22T07:17:34Z</time>
      </trkpt>
      <trkpt lat="43.88974" lon="7.44566">
        <ele>543</ele>
        <time>2019-08-22T07:18:15Z</time>
      </trkpt>
      <trkpt lat="43.88979" lon="7.44534">
        <ele>542</ele>
        <time>2019-08-22T07:18:47Z</time>
      </trkpt>
      <trkpt lat="43.88966" lon="7.44576">
        <ele>542</ele>
        <time>2019-08-22T07:19:31Z</time>
      </trkpt>
      <trkpt lat="43.88963" lon="7.44574">
        <ele>541</ele>
        <time>2019-08-22T07:19:35Z</time>
      </trkpt>
      <trkpt lat="43.8896" lon="7.44516">
        <ele>535</ele>
        <time>2019-08-22T07:20:31Z</time>
      </trkpt>
      <trkpt lat="43.8895" lon="7.44571">
        <ele>538</ele>
        <time>2019-08-22T07:21:26Z</time>
      </trkpt>
      <trkpt lat="43.88946" lon="7.44568">
        <ele>536</ele>
        <time>2019-08-22T07:21:32Z</time>
      </trkpt>
      <trkpt lat="43.88945" lon="7.44488">
        <ele>531</ele>
        <time>2019-08-22T07:22:49Z</time>
      </trkpt>
      <trkpt lat="43.88933" lon="7.44491">
        <ele>526</ele>
        <time>2019-08-22T07:23:05Z</time>
      </trkpt>
      <trkpt lat="43.88927" lon="7.44512">
        <ele>524</ele>
        <time>2019-08-22T07:23:27Z</time>
      </trkpt>
      <trkpt lat="43.88869" lon="7.44482">
        <ele>516</ele>
        <time>2019-08-22T07:24:49Z</time>
      </trkpt>
      <trkpt lat="43.88844" lon="7.44481">
        <ele>513</ele>
        <time>2019-08-22T07:25:23Z</time>
      </trkpt>
      <trkpt lat="43.88806" lon="7.44462">
        <ele>512</ele>
        <time>2019-08-22T07:26:16Z</time>
      </trkpt>
      <trkpt lat="43.88768" lon="7.44461">
        <ele>511</ele>
        <time>2019-08-22T07:27:07Z</time>
      </trkpt>
      <trkpt lat="43.88733" lon="7.4443">
        <ele>497</ele>
        <time>2019-08-22T07:28:03Z</time>
      </trkpt>
      <trkpt lat="43.88698" lon="7.44416">
        <ele>488</ele>
        <time>2019-08-22T07:28:51Z</time>
      </trkpt>
      <trkpt lat="43.88728" lon="7.44408">
        <ele>490</ele>
        <time>2019-08-22T07:29:32Z</time>
      </trkpt>
      <trkpt lat="43.8873" lon="7.444">
        <ele>490</ele>
        <time>2019-08-22T07:29:40Z</time>
      </trkpt>
      <trkpt lat="43.88689" lon="7.44395">
        <ele>482</ele>
        <time>2019-08-22T07:30:35Z</time>
      </trkpt>
      <trkpt lat="43.88662" lon="7.44417">
        <ele>485</ele>
        <time>2019-08-22T07:31:17Z</time>
      </trkpt>
      <trkpt lat="43.88619" lon="7.44412">
        <ele>479</ele>
        <time>2019-08-22T07:32:14Z</time>
      </trkpt>
      <trkpt lat="43.88599" lon="7.44397">
        <ele>471</ele>
        <time>2019-08-22T07:32:45Z</time>
      </trkpt>
      <trkpt lat="43.88561" lon="7.44391">
        <ele>465</ele>
        <time>2019-08-22T07:33:36Z</time>
      </trkpt>
      <trkpt lat="43.88547" lon="7.4438">
        <ele>459</ele>
        <time>2019-08-22T07:33:57Z</time>
      </trkpt>
      <trkpt lat="43.88505" lon="7.44379">
        <ele>455</ele>
        <time>2019-08-22T07:34:53Z</time>
      </trkpt>
      <trkpt lat="43.88402" lon="7.44396">
        <ele>437</ele>
        <time>2019-08-22T07:37:12Z</time>
      </trkpt>
      <trkpt lat="43.88391" lon="7.44416">
        <ele>438</ele>
        <time>2019-08-22T07:37:36Z</time>
      </trkpt>
      <trkpt lat="43.88406" lon="7.44461">
        <ele>445</ele>
        <time>2019-08-22T07:38:24Z</time>
      </trkpt>
      <trkpt lat="43.88404" lon="7.4452">
        <ele>450</ele>
        <time>2019-08-22T07:39:20Z</time>
      </trkpt>
      <trkpt lat="43.8839" lon="7.44558">
        <ele>453</ele>
        <time>2019-08-22T07:40:01Z</time>
      </trkpt>
      <trkpt lat="43.88235" lon="7.445">
        <ele>408</ele>
        <time>2019-08-22T07:43:36Z</time>
      </trkpt>
      <trkpt lat="43.88139" lon="7.44541">
        <ele>398</ele>
        <time>2019-08-22T07:45:50Z</time>
      </trkpt>
      <trkpt lat="43.881" lon="7.44582">
        <ele>393</ele>
        <time>2019-08-22T07:46:55Z</time>
      </trkpt>
      <trkpt lat="43.88054" lon="7.44654">
        <ele>389</ele>
        <time>2019-08-22T07:48:28Z</time>
      </trkpt>
      <trkpt lat="43.87955" lon="7.44743">
        <ele>369</ele>
        <time>2019-08-22T07:51:05Z</time>
      </trkpt>
      <trkpt lat="43.87931" lon="7.44773">
        <ele>363</ele>
        <time>2019-08-22T07:51:48Z</time>
      </trkpt>
      <trkpt lat="43.87935" lon="7.44789">
        <ele>364</ele>
        <time>2019-08-22T07:52:04Z</time>
      </trkpt>
      <trkpt lat="43.8791" lon="7.44773">
        <ele>358</ele>
        <time>2019-08-22T07:52:41Z</time>
      </trkpt>
      <trkpt lat="43.87915" lon="7.44829">
        <ele>360</ele>
        <time>2019-08-22T07:53:35Z</time>
      </trkpt>
      <trkpt lat="43.87891" lon="7.44843">
        <ele>356</ele>
        <time>2019-08-22T07:54:10Z</time>
      </trkpt>
      <trkpt lat="43.87857" lon="7.44837">
        <ele>351</ele>
        <time>2019-08-22T07:54:56Z</time>
      </trkpt>
      <trkpt lat="43.87834" lon="7.44865">
        <ele>348</ele>
        <time>2019-08-22T07:55:37Z</time>
      </trkpt>
      <trkpt lat="43.87824" lon="7.4493">
        <ele>351</ele>
        <time>2019-08-22T07:56:41Z</time>
      </trkpt>
      <trkpt lat="43.87776" lon="7.44905">
        <ele>353</ele>
        <time>2019-08-22T07:57:49Z</time>
      </trkpt>
      <trkpt lat="43.87763" lon="7.44961">
        <ele>352</ele>
        <time>2019-08-22T07:58:46Z</time>
      </trkpt>
      <trkpt lat="43.87749" lon="7.44983">
        <ele>351</ele>
        <time>2019-08-22T07:59:14Z</time>
      </trkpt>
      <trkpt lat="43.87662" lon="7.45049">
        <ele>354</ele>
        <time>2019-08-22T08:01:26Z</time>
      </trkpt>
      <trkpt lat="43.8765" lon="7.45069">
        <ele>356</ele>
        <time>2019-08-22T08:01:51Z</time>
      </trkpt>
      <trkpt lat="43.87674" lon="7.4519">
        <ele>357</ele>
        <time>2019-08-22T08:03:52Z</time>
      </trkpt>
      <trkpt lat="43.87674" lon="7.45207">
        <ele>357</ele>
        <time>2019-08-22T08:04:08Z</time>
      </trkpt>
      <trkpt lat="43.87667" lon="7.45219">
        <ele>358</ele>
        <time>2019-08-22T08:04:23Z</time>
      </trkpt>
      <trkpt lat="43.87606" lon="7.45244">
        <ele>364</ele>
        <time>2019-08-22T08:05:48Z</time>
      </trkpt>
      <trkpt lat="43.87598" lon="7.4526">
        <ele>365</ele>
        <time>2019-08-22T08:06:07Z</time>
      </trkpt>
      <trkpt lat="43.87572" lon="7.45368">
        <ele>370</ele>
        <time>2019-08-22T08:07:56Z</time>
      </trkpt>
      <trkpt lat="43.87556" lon="7.45458">
        <ele>372</ele>
        <time>2019-08-22T08:09:25Z</time>
      </trkpt>
      <trkpt lat="43.87549" lon="7.45479">
        <ele>373</ele>
        <time>2019-08-22T08:09:48Z</time>
      </trkpt>
      <trkpt lat="43.87532" lon="7.45479">
        <ele>378</ele>
        <time>2019-08-22T08:10:10Z</time>
      </trkpt>
      <trkpt lat="43.87524" lon="7.45474">
        <ele>380</ele>
        <time>2019-08-22T08:10:22Z</time>
      </trkpt>
      <trkpt lat="43.87524" lon="7.45428">
        <ele>381</ele>
        <time>2019-08-22T08:11:06Z</time>
      </trkpt>
      <trkpt lat="43.87519" lon="7.45436">
        <ele>382</ele>
        <time>2019-08-22T08:11:17Z</time>
      </trkpt>
      <trkpt lat="43.87509" lon="7.45513">
        <ele>384</ele>
        <time>2019-08-22T08:12:32Z</time>
      </trkpt>
      <trkpt lat="43.8749" lon="7.45557">
        <ele>390</ele>
        <time>2019-08-22T08:13:21Z</time>
      </trkpt>
      <trkpt lat="43.87462" lon="7.45648">
        <ele>398</ele>
        <time>2019-08-22T08:14:56Z</time>
      </trkpt>
      <trkpt lat="43.87436" lon="7.45674">
        <ele>406</ele>
        <time>2019-08-22T08:15:39Z</time>
      </trkpt>
      <trkpt lat="43.87426" lon="7.45698">
        <ele>410</ele>
        <time>2019-08-22T08:16:06Z</time>
      </trkpt>
      <trkpt lat="43.87449" lon="7.45751">
        <ele>406</ele>
        <time>2019-08-22T08:17:05Z</time>
      </trkpt>
      <trkpt lat="43.87452" lon="7.45819">
        <ele>412</ele>
        <time>2019-08-22T08:18:11Z</time>
      </trkpt>
      <trkpt lat="43.87449" lon="7.4588">
        <ele>417</ele>
        <time>2019-08-22T08:19:10Z</time>
      </trkpt>
      <trkpt lat="43.87432" lon="7.45978">
        <ele>425</ele>
        <time>2019-08-22T08:20:47Z</time>
      </trkpt>
      <trkpt lat="43.874" lon="7.46009">
        <ele>435</ele>
        <time>2019-08-22T08:21:39Z</time>
      </trkpt>
      <trkpt lat="43.87372" lon="7.46047">
        <ele>443</ele>
        <time>2019-08-22T08:22:31Z</time>
      </trkpt>
      <trkpt lat="43.87331" lon="7.46077">
        <ele>453</ele>
        <time>2019-08-22T08:23:33Z</time>
      </trkpt>
      <trkpt lat="43.87319" lon="7.46097">
        <ele>461</ele>
        <time>2019-08-22T08:23:58Z</time>
      </trkpt>
      <trkpt lat="43.87361" lon="7.46144">
        <ele>461</ele>
        <time>2019-08-22T08:25:10Z</time>
      </trkpt>
      <trkpt lat="43.87391" lon="7.46155">
        <ele>455</ele>
        <time>2019-08-22T08:25:51Z</time>
      </trkpt>
      <trkpt lat="43.87411" lon="7.46167">
        <ele>452</ele>
        <time>2019-08-22T08:26:20Z</time>
      </trkpt>
      <trkpt lat="43.87414" lon="7.46178">
        <ele>453</ele>
        <time>2019-08-22T08:26:32Z</time>
      </trkpt>
      <trkpt lat="43.87411" lon="7.46199">
        <ele>459</ele>
        <time>2019-08-22T08:26:52Z</time>
      </trkpt>
      <trkpt lat="43.87414" lon="7.46258">
        <ele>469</ele>
        <time>2019-08-22T08:27:49Z</time>
      </trkpt>
      <trkpt lat="43.87422" lon="7.46297">
        <ele>470</ele>
        <time>2019-08-22T08:28:28Z</time>
      </trkpt>
      <trkpt lat="43.87424" lon="7.46372">
        <ele>477</ele>
        <time>2019-08-22T08:29:40Z</time>
      </trkpt>
      <trkpt lat="43.8742" lon="7.4643">
        <ele>484</ele>
        <time>2019-08-22T08:30:36Z</time>
      </trkpt>
      <trkpt lat="43.87447" lon="7.46501">
        <ele>479</ele>
        <time>2019-08-22T08:31:54Z</time>
      </trkpt>
      <trkpt lat="43.87445" lon="7.46521">
        <ele>482</ele>
        <time>2019-08-22T08:32:13Z</time>
      </trkpt>
      <trkpt lat="43.87422" lon="7.46595">
        <ele>501</ele>
        <time>2019-08-22T08:33:31Z</time>
      </trkpt>
      <trkpt lat="43.87392" lon="7.46715">
        <ele>526</ele>
        <time>2019-08-22T08:35:33Z</time>
      </trkpt>
      <trkpt lat="43.87366" lon="7.46745">
        <ele>538</ele>
        <time>2019-08-22T08:36:18Z</time>
      </trkpt>
      <trkpt lat="43.87362" lon="7.46755">
        <ele>540</ele>
        <time>2019-08-22T08:36:29Z</time>
      </trkpt>
      <trkpt lat="43.87348" lon="7.4676">
        <ele>544</ele>
        <time>2019-08-22T08:36:48Z</time>
      </trkpt>
      <trkpt lat="43.87342" lon="7.46798">
        <ele>544</ele>
        <time>2019-08-22T08:37:26Z</time>
      </trkpt>
      <trkpt lat="43.87257" lon="7.46902">
        <ele>545</ele>
        <time>2019-08-22T08:39:57Z</time>
      </trkpt>
      <trkpt lat="43.87244" lon="7.4691">
        <ele>545</ele>
        <time>2019-08-22T08:40:16Z</time>
      </trkpt>
      <trkpt lat="43.87207" lon="7.46915">
        <ele>556</ele>
        <time>2019-08-22T08:41:05Z</time>
      </trkpt>
      <trkpt lat="43.87131" lon="7.4695">
        <ele>578</ele>
        <time>2019-08-22T08:42:52Z</time>
      </trkpt>
      <trkpt lat="43.87128" lon="7.4698">
        <ele>574</ele>
        <time>2019-08-22T08:43:21Z</time>
      </trkpt>
      <trkpt lat="43.87134" lon="7.47023">
        <ele>570</ele>
        <time>2019-08-22T08:44:04Z</time>
      </trkpt>
      <trkpt lat="43.87128" lon="7.47046">
        <ele>574</ele>
        <time>2019-08-22T08:44:27Z</time>
      </trkpt>
      <trkpt lat="43.8713" lon="7.47119">
        <ele>577</ele>
        <time>2019-08-22T08:45:37Z</time>
      </trkpt>
      <trkpt lat="43.87139" lon="7.47196">
        <ele>578</ele>
        <time>2019-08-22T08:46:52Z</time>
      </trkpt>
      <trkpt lat="43.87139" lon="7.47249">
        <ele>580</ele>
        <time>2019-08-22T08:47:43Z</time>
      </trkpt>
      <trkpt lat="43.87127" lon="7.47316">
        <ele>587</ele>
        <time>2019-08-22T08:48:50Z</time>
      </trkpt>
      <trkpt lat="43.87113" lon="7.47338">
        <ele>592</ele>
        <time>2019-08-22T08:49:18Z</time>
      </trkpt>
      <trkpt lat="43.8706" lon="7.47376">
        <ele>609</ele>
        <time>2019-08-22T08:50:38Z</time>
      </trkpt>
      <trkpt lat="43.87038" lon="7.47426">
        <ele>617</ele>
        <time>2019-08-22T08:51:34Z</time>
      </trkpt>
      <trkpt lat="43.87012" lon="7.47464">
        <ele>625</ele>
        <time>2019-08-22T08:52:24Z</time>
      </trkpt>
      <trkpt lat="43.86995" lon="7.47504">
        <ele>628</ele>
        <time>2019-08-22T08:53:09Z</time>
      </trkpt>
      <trkpt lat="43.8697" lon="7.47513">
        <ele>627</ele>
        <time>2019-08-22T08:53:44Z</time>
      </trkpt>
      <trkpt lat="43.86945" lon="7.47504">
        <ele>631</ele>
        <time>2019-08-22T08:54:18Z</time>
      </trkpt>
      <trkpt lat="43.86866" lon="7.47497">
        <ele>647</ele>
        <time>2019-08-22T08:56:04Z</time>
      </trkpt>
      <trkpt lat="43.86818" lon="7.47505">
        <ele>659</ele>
        <time>2019-08-22T08:57:08Z</time>
      </trkpt>
      <trkpt lat="43.86785" lon="7.47524">
        <ele>669</ele>
        <time>2019-08-22T08:57:56Z</time>
      </trkpt>
      <trkpt lat="43.86763" lon="7.4756">
        <ele>669</ele>
        <time>2019-08-22T08:58:41Z</time>
      </trkpt>
      <trkpt lat="43.86722" lon="7.47606">
        <ele>676</ele>
        <time>2019-08-22T08:59:52Z</time>
      </trkpt>
      <trkpt lat="43.86695" lon="7.47631">
        <ele>681</ele>
        <time>2019-08-22T09:00:35Z</time>
      </trkpt>
      <trkpt lat="43.86673" lon="7.47644">
        <ele>687</ele>
        <time>2019-08-22T09:01:07Z</time>
      </trkpt>
      <trkpt lat="43.86557" lon="7.47656">
        <ele>720</ele>
        <time>2019-08-22T09:03:42Z</time>
      </trkpt>
      <trkpt lat="43.86556" lon="7.47647">
        <ele>722</ele>
        <time>2019-08-22T09:03:51Z</time>
      </trkpt>
      <trkpt lat="43.86531" lon="7.47654">
        <ele>727</ele>
        <time>2019-08-22T09:04:25Z</time>
      </trkpt>
      <trkpt lat="43.86525" lon="7.47673">
        <ele>726</ele>
        <time>2019-08-22T09:04:45Z</time>
      </trkpt>
      <trkpt lat="43.86435" lon="7.47681">
        <ele>755</ele>
        <time>2019-08-22T09:06:45Z</time>
      </trkpt>
      <trkpt lat="43.86438" lon="7.47708">
        <ele>760</ele>
        <time>2019-08-22T09:07:11Z</time>
      </trkpt>
      <trkpt lat="43.86323" lon="7.47662">
        <ele>790</ele>
        <time>2019-08-22T09:09:51Z</time>
      </trkpt>
      <trkpt lat="43.8632" lon="7.4767">
        <ele>790</ele>
        <time>2019-08-22T09:10:00Z</time>
      </trkpt>
      <trkpt lat="43.86306" lon="7.47659">
        <ele>794</ele>
        <time>2019-08-22T09:10:21Z</time>
      </trkpt>
      <trkpt lat="43.86308" lon="7.4768">
        <ele>793</ele>
        <time>2019-08-22T09:10:42Z</time>
      </trkpt>
      <trkpt lat="43.86264" lon="7.47655">
        <ele>804</ele>
        <time>2019-08-22T09:11:45Z</time>
      </trkpt>
      <trkpt lat="43.86266" lon="7.47689">
        <ele>800</ele>
        <time>2019-08-22T09:12:18Z</time>
      </trkpt>
      <trkpt lat="43.86217" lon="7.47708">
        <ele>799</ele>
        <time>2019-08-22T09:13:26Z</time>
      </trkpt>
      <trkpt lat="43.86167" lon="7.47709">
        <ele>797</ele>
        <time>2019-08-22T09:14:33Z</time>
      </trkpt>
      <trkpt lat="43.86108" lon="7.47702">
        <ele>787</ele>
        <time>2019-08-22T09:15:52Z</time>
      </trkpt>
      <trkpt lat="43.86073" lon="7.47676">
        <ele>787</ele>
        <time>2019-08-22T09:16:45Z</time>
      </trkpt>
      <trkpt lat="43.86044" lon="7.47626">
        <ele>791</ele>
        <time>2019-08-22T09:17:46Z</time>
      </trkpt>
      <trkpt lat="43.86021" lon="7.47596">
        <ele>792</ele>
        <time>2019-08-22T09:18:28Z</time>
      </trkpt>
      <trkpt lat="43.85952" lon="7.47552">
        <ele>809</ele>
        <time>2019-08-22T09:20:10Z</time>
      </trkpt>
      <trkpt lat="43.85925" lon="7.47595">
        <ele>797</ele>
        <time>2019-08-22T09:21:05Z</time>
      </trkpt>
      <trkpt lat="43.85844" lon="7.47659">
        <ele>799</ele>
        <time>2019-08-22T09:23:09Z</time>
      </trkpt>
      <trkpt lat="43.85691" lon="7.4781">
        <ele>810</ele>
        <time>2019-08-22T09:27:20Z</time>
      </trkpt>
      <trkpt lat="43.85634" lon="7.47835">
        <ele>817</ele>
        <time>2019-08-22T09:28:39Z</time>
      </trkpt>
      <trkpt lat="43.85609" lon="7.47831">
        <ele>824</ele>
        <time>2019-08-22T09:29:13Z</time>
      </trkpt>
      <trkpt lat="43.85599" lon="7.47844">
        <ele>827</ele>
        <time>2019-08-22T09:29:31Z</time>
      </trkpt>
      <trkpt lat="43.85595" lon="7.47857">
        <ele>829</ele>
        <time>2019-08-22T09:29:45Z</time>
      </trkpt>
      <trkpt lat="43.85604" lon="7.47904">
        <ele>831</ele>
        <time>2019-08-22T09:30:32Z</time>
      </trkpt>
      <trkpt lat="43.85632" lon="7.47933">
        <ele>828</ele>
        <time>2019-08-22T09:31:18Z</time>
      </trkpt>
      <trkpt lat="43.85647" lon="7.47973">
        <ele>834</ele>
        <time>2019-08-22T09:32:02Z</time>
      </trkpt>
      <trkpt lat="43.85658" lon="7.47988">
        <ele>835</ele>
        <time>2019-08-22T09:32:22Z</time>
      </trkpt>
      <trkpt lat="43.85628" lon="7.48036">
        <ele>842</ele>
        <time>2019-08-22T09:33:23Z</time>
      </trkpt>
      <trkpt lat="43.85515" lon="7.48094">
        <ele>856</ele>
        <time>2019-08-22T09:36:04Z</time>
      </trkpt>
      <trkpt lat="43.85466" lon="7.48134">
        <ele>855</ele>
        <time>2019-08-22T09:37:20Z</time>
      </trkpt>
      <trkpt lat="43.85443" lon="7.48131">
        <ele>864</ele>
        <time>2019-08-22T09:37:51Z</time>
      </trkpt>
      <trkpt lat="43.85414" lon="7.48141">
        <ele>869</ele>
        <time>2019-08-22T09:38:31Z</time>
      </trkpt>
      <trkpt lat="43.85396" lon="7.48138">
        <ele>875</ele>
        <time>2019-08-22T09:38:55Z</time>
      </trkpt>
      <trkpt lat="43.85361" lon="7.48156">
        <ele>879</ele>
        <time>2019-08-22T09:39:45Z</time>
      </trkpt>
      <trkpt lat="43.85343" lon="7.48183">
        <ele>876</ele>
        <time>2019-08-22T09:40:20Z</time>
      </trkpt>
      <trkpt lat="43.85262" lon="7.48221">
        <ele>899</ele>
        <time>2019-08-22T09:42:14Z</time>
      </trkpt>
      <trkpt lat="43.85239" lon="7.48255">
        <ele>903</ele>
        <time>2019-08-22T09:42:59Z</time>
      </trkpt>
      <trkpt lat="43.85211" lon="7.4826">
        <ele>917</ele>
        <time>2019-08-22T09:43:37Z</time>
      </trkpt>
      <trkpt lat="43.85213" lon="7.48246">
        <ele>915</ele>
        <time>2019-08-22T09:43:51Z</time>
      </trkpt>
      <trkpt lat="43.852" lon="7.48243">
        <ele>921</ele>
        <time>2019-08-22T09:44:08Z</time>
      </trkpt>
      <trkpt lat="43.85203" lon="7.48231">
        <ele>923</ele>
        <time>2019-08-22T09:44:20Z</time>
      </trkpt>
      <trkpt lat="43.85197" lon="7.48221">
        <ele>928</ele>
        <time>2019-08-22T09:44:33Z</time>
      </trkpt>
      <trkpt lat="43.85155" lon="7.48248">
        <ele>941</ele>
        <time>2019-08-22T09:45:35Z</time>
      </trkpt>
      <trkpt lat="43.8515" lon="7.48263">
        <ele>947</ele>
        <time>2019-08-22T09:45:51Z</time>
      </trkpt>
      <trkpt lat="43.85191" lon="7.48348">
        <ele>948</ele>
        <time>2019-08-22T09:47:29Z</time>
      </trkpt>
      <trkpt lat="43.85192" lon="7.48373">
        <ele>955</ele>
        <time>2019-08-22T09:47:53Z</time>
      </trkpt>
      <trkpt lat="43.85221" lon="7.48436">
        <ele>954</ele>
        <time>2019-08-22T09:49:05Z</time>
      </trkpt>
      <trkpt lat="43.85206" lon="7.48465">
        <ele>963</ele>
        <time>2019-08-22T09:49:39Z</time>
      </trkpt>
      <trkpt lat="43.85178" lon="7.48484">
        <ele>979</ele>
        <time>2019-08-22T09:50:21Z</time>
      </trkpt>
      <trkpt lat="43.85163" lon="7.48527">
        <ele>982</ele>
        <time>2019-08-22T09:51:07Z</time>
      </trkpt>
      <trkpt lat="43.85133" lon="7.48555">
        <ele>993</ele>
        <time>2019-08-22T09:51:55Z</time>
      </trkpt>
      <trkpt lat="43.85069" lon="7.48599">
        <ele>1019</ele>
        <time>2019-08-22T09:53:31Z</time>
      </trkpt>
      <trkpt lat="43.85026" lon="7.48649">
        <ele>1029</ele>
        <time>2019-08-22T09:54:45Z</time>
      </trkpt>
      <trkpt lat="43.85022" lon="7.48664">
        <ele>1027</ele>
        <time>2019-08-22T09:55:01Z</time>
      </trkpt>
      <trkpt lat="43.85013" lon="7.48662">
        <ele>1030</ele>
        <time>2019-08-22T09:55:13Z</time>
      </trkpt>
      <trkpt lat="43.84987" lon="7.48682">
        <ele>1033</ele>
        <time>2019-08-22T09:55:53Z</time>
      </trkpt>
      <trkpt lat="43.84987" lon="7.48702">
        <ele>1035</ele>
        <time>2019-08-22T09:56:12Z</time>
      </trkpt>
      <trkpt lat="43.84962" lon="7.48759">
        <ele>1034</ele>
        <time>2019-08-22T09:57:16Z</time>
      </trkpt>
      <trkpt lat="43.84938" lon="7.48834">
        <ele>1048</ele>
        <time>2019-08-22T09:58:35Z</time>
      </trkpt>
      <trkpt lat="43.84897" lon="7.48867">
        <ele>1044</ele>
        <time>2019-08-22T09:59:38Z</time>
      </trkpt>
      <trkpt lat="43.8481" lon="7.4899">
        <ele>1036</ele>
        <time>2019-08-22T10:02:24Z</time>
      </trkpt>
      <trkpt lat="43.84805" lon="7.49021">
        <ele>1039</ele>
        <time>2019-08-22T10:02:55Z</time>
      </trkpt>
      <trkpt lat="43.84771" lon="7.49073">
        <ele>1034</ele>
        <time>2019-08-22T10:04:02Z</time>
      </trkpt>
      <trkpt lat="43.84769" lon="7.49094">
        <ele>1036</ele>
        <time>2019-08-22T10:04:23Z</time>
      </trkpt>
      <trkpt lat="43.84756" lon="7.49106">
        <ele>1033</ele>
        <time>2019-08-22T10:04:43Z</time>
      </trkpt>
      <trkpt lat="43.84717" lon="7.49172">
        <ele>1026</ele>
        <time>2019-08-22T10:06:06Z</time>
      </trkpt>
      <trkpt lat="43.84715" lon="7.492">
        <ele>1025</ele>
        <time>2019-08-22T10:06:33Z</time>
      </trkpt>
      <trkpt lat="43.84723" lon="7.49235">
        <ele>1028</ele>
        <time>2019-08-22T10:07:08Z</time>
      </trkpt>
      <trkpt lat="43.8469" lon="7.49307">
        <ele>1022</ele>
        <time>2019-08-22T10:08:30Z</time>
      </trkpt>
      <trkpt lat="43.84655" lon="7.49343">
        <ele>1018</ele>
        <time>2019-08-22T10:09:28Z</time>
      </trkpt>
      <trkpt lat="43.84612" lon="7.49371">
        <ele>1012</ele>
        <time>2019-08-22T10:10:32Z</time>
      </trkpt>
      <trkpt lat="43.84603" lon="7.49386">
        <ele>1013</ele>
        <time>2019-08-22T10:10:50Z</time>
      </trkpt>
      <trkpt lat="43.84593" lon="7.49441">
        <ele>1022</ele>
        <time>2019-08-22T10:11:45Z</time>
      </trkpt>
      <trkpt lat="43.84581" lon="7.49476">
        <ele>1024</ele>
        <time>2019-08-22T10:12:22Z</time>
      </trkpt>
      <trkpt lat="43.84577" lon="7.49509">
        <ele>1029</ele>
        <time>2019-08-22T10:12:55Z</time>
      </trkpt>
      <trkpt lat="43.84551" lon="7.49602">
        <ele>1036</ele>
        <time>2019-08-22T10:14:31Z</time>
      </trkpt>
      <trkpt lat="43.84498" lon="7.49683">
        <ele>1036</ele>
        <time>2019-08-22T10:16:16Z</time>
      </trkpt>
      <trkpt lat="43.84487" lon="7.49723">
        <ele>1047</ele>
        <time>2019-08-22T10:16:57Z</time>
      </trkpt>
      <trkpt lat="43.84452" lon="7.49775">
        <ele>1059</ele>
        <time>2019-08-22T10:18:05Z</time>
      </trkpt>
      <trkpt lat="43.84443" lon="7.49828">
        <ele>1071</ele>
        <time>2019-08-22T10:18:58Z</time>
      </trkpt>
      <trkpt lat="43.84446" lon="7.49836">
        <ele>1074</ele>
        <time>2019-08-22T10:19:07Z</time>
      </trkpt>
      <trkpt lat="43.84439" lon="7.49843">
        <ele>1073</ele>
        <time>2019-08-22T10:19:18Z</time>
      </trkpt>
      <trkpt lat="43.84408" lon="7.49962">
        <ele>1082</ele>
        <time>2019-08-22T10:21:20Z</time>
      </trkpt>
      <trkpt lat="43.8438" lon="7.49978">
        <ele>1091</ele>
        <time>2019-08-22T10:22:00Z</time>
      </trkpt>
      <trkpt lat="43.84374" lon="7.5">
        <ele>1092</ele>
        <time>2019-08-22T10:22:23Z</time>
      </trkpt>
      <trkpt lat="43.84363" lon="7.50017">
        <ele>1095</ele>
        <time>2019-08-22T10:22:45Z</time>
      </trkpt>
      <trkpt lat="43.84342" lon="7.50031">
        <ele>1098</ele>
        <time>2019-08-22T10:23:16Z</time>
      </trkpt>
      <trkpt lat="43.84329" lon="7.50033">
        <ele>1101</ele>
        <time>2019-08-22T10:23:33Z</time>
      </trkpt>
      <trkpt lat="43.84292" lon="7.50074">
        <ele>1106</ele>
        <time>2019-08-22T10:24:37Z</time>
      </trkpt>
      <trkpt lat="43.8429" lon="7.50082">
        <ele>1105</ele>
        <time>2019-08-22T10:24:45Z</time>
      </trkpt>
      <trkpt lat="43.84272" lon="7.5009">
        <ele>1109</ele>
        <time>2019-08-22T10:25:10Z</time>
      </trkpt>
      <trkpt lat="43.84254" lon="7.50139">
        <ele>1110</ele>
        <time>2019-08-22T10:26:03Z</time>
      </trkpt>
      <trkpt lat="43.84156" lon="7.50165">
        <ele>1101</ele>
        <time>2019-08-22T10:28:16Z</time>
      </trkpt>
      <trkpt lat="43.84069" lon="7.50161">
        <ele>1084</ele>
        <time>2019-08-22T10:30:12Z</time>
      </trkpt>
      <trkpt lat="43.84045" lon="7.5017">
        <ele>1078</ele>
        <time>2019-08-22T10:30:45Z</time>
      </trkpt>
      <trkpt lat="43.84026" lon="7.50188">
        <ele>1077</ele>
        <time>2019-08-22T10:31:16Z</time>
      </trkpt>
      <trkpt lat="43.83996" lon="7.50203">
        <ele>1072</ele>
        <time>2019-08-22T10:31:59Z</time>
      </trkpt>
      <trkpt lat="43.83918" lon="7.50269">
        <ele>1066</ele>
        <time>2019-08-22T10:34:01Z</time>
      </trkpt>
      <trkpt lat="43.83837" lon="7.50281">
        <ele>1045</ele>
        <time>2019-08-22T10:35:49Z</time>
      </trkpt>
      <trkpt lat="43.83643" lon="7.50351">
        <ele>1011</ele>
        <time>2019-08-22T10:40:17Z</time>
      </trkpt>
      <trkpt lat="43.83611" lon="7.50355">
        <ele>1005</ele>
        <time>2019-08-22T10:41:00Z</time>
      </trkpt>
      <trkpt lat="43.83589" lon="7.5035">
        <ele>997</ele>
        <time>2019-08-22T10:41:29Z</time>
      </trkpt>
      <trkpt lat="43.83495" lon="7.50366">
        <ele>992</ele>
        <time>2019-08-22T10:43:36Z</time>
      </trkpt>
      <trkpt lat="43.83315" lon="7.50328">
        <ele>976</ele>
        <time>2019-08-22T10:47:39Z</time>
      </trkpt>
      <trkpt lat="43.83295" lon="7.50329">
        <ele>976</ele>
        <time>2019-08-22T10:48:06Z</time>
      </trkpt>
      <trkpt lat="43.83282" lon="7.50316">
        <ele>978</ele>
        <time>2019-08-22T10:48:27Z</time>
      </trkpt>
      <trkpt lat="43.83244" lon="7.50316">
        <ele>979</ele>
        <time>2019-08-22T10:49:18Z</time>
      </trkpt>
      <trkpt lat="43.83172" lon="7.50342">
        <ele>967</ele>
        <time>2019-08-22T10:50:57Z</time>
      </trkpt>
      <trkpt lat="43.83037" lon="7.50354">
        <ele>932</ele>
        <time>2019-08-22T10:53:57Z</time>
      </trkpt>
      <trkpt lat="43.82944" lon="7.50385">
        <ele>905</ele>
        <time>2019-08-22T10:56:05Z</time>
      </trkpt>
      <trkpt lat="43.82908" lon="7.50407">
        <ele>892</ele>
        <time>2019-08-22T10:56:58Z</time>
      </trkpt>
      <trkpt lat="43.82831" lon="7.5042">
        <ele>871</ele>
        <time>2019-08-22T10:58:41Z</time>
      </trkpt>
      <trkpt lat="43.82829" lon="7.50433">
        <ele>868</ele>
        <time>2019-08-22T10:58:54Z</time>
      </trkpt>
      <trkpt lat="43.82778" lon="7.50431">
        <ele>852</ele>
        <time>2019-08-22T11:00:02Z</time>
      </trkpt>
      <trkpt lat="43.82777" lon="7.50444">
        <ele>851</ele>
        <time>2019-08-22T11:00:15Z</time>
      </trkpt>
      <trkpt lat="43.82804" lon="7.50486">
        <ele>855</ele>
        <time>2019-08-22T11:01:09Z</time>
      </trkpt>
      <trkpt lat="43.8275" lon="7.50465">
        <ele>842</ele>
        <time>2019-08-22T11:02:24Z</time>
      </trkpt>
      <trkpt lat="43.82699" lon="7.50424">
        <ele>826</ele>
        <time>2019-08-22T11:03:42Z</time>
      </trkpt>
      <trkpt lat="43.82687" lon="7.50404">
        <ele>820</ele>
        <time>2019-08-22T11:04:07Z</time>
      </trkpt>
      <trkpt lat="43.82684" lon="7.50422">
        <ele>821</ele>
        <time>2019-08-22T11:04:25Z</time>
      </trkpt>
      <trkpt lat="43.82672" lon="7.50419">
        <ele>817</ele>
        <time>2019-08-22T11:04:41Z</time>
      </trkpt>
      <trkpt lat="43.82672" lon="7.50461">
        <ele>818</ele>
        <time>2019-08-22T11:05:22Z</time>
      </trkpt>
      <trkpt lat="43.8266" lon="7.50489">
        <ele>816</ele>
        <time>2019-08-22T11:05:53Z</time>
      </trkpt>
      <trkpt lat="43.82639" lon="7.50522">
        <ele>818</ele>
        <time>2019-08-22T11:06:35Z</time>
      </trkpt>
      <trkpt lat="43.82627" lon="7.50532">
        <ele>819</ele>
        <time>2019-08-22T11:06:54Z</time>
      </trkpt>
      <trkpt lat="43.82505" lon="7.50589">
        <ele>818</ele>
        <time>2019-08-22T11:09:46Z</time>
      </trkpt>
      <trkpt lat="43.82463" lon="7.50596">
        <ele>817</ele>
        <time>2019-08-22T11:10:42Z</time>
      </trkpt>
      <trkpt lat="43.82391" lon="7.50635">
        <ele>826</ele>
        <time>2019-08-22T11:12:26Z</time>
      </trkpt>
      <trkpt lat="43.82368" lon="7.50633">
        <ele>827</ele>
        <time>2019-08-22T11:12:56Z</time>
      </trkpt>
      <trkpt lat="43.82336" lon="7.50615">
        <ele>823</ele>
        <time>2019-08-22T11:13:42Z</time>
      </trkpt>
      <trkpt lat="43.82286" lon="7.50571">
        <ele>819</ele>
        <time>2019-08-22T11:15:01Z</time>
      </trkpt>
      <trkpt lat="43.82261" lon="7.50544">
        <ele>817</ele>
        <time>2019-08-22T11:15:44Z</time>
      </trkpt>
      <trkpt lat="43.82187" lon="7.50432">
        <ele>796</ele>
        <time>2019-08-22T11:18:10Z</time>
      </trkpt>
      <trkpt lat="43.82174" lon="7.50473">
        <ele>803</ele>
        <time>2019-08-22T11:18:53Z</time>
      </trkpt>
      <trkpt lat="43.82174" lon="7.50487">
        <ele>806</ele>
        <time>2019-08-22T11:19:07Z</time>
      </trkpt>
      <trkpt lat="43.82165" lon="7.50529">
        <ele>814</ele>
        <time>2019-08-22T11:19:49Z</time>
      </trkpt>
      <trkpt lat="43.82174" lon="7.50545">
        <ele>817</ele>
        <time>2019-08-22T11:20:08Z</time>
      </trkpt>
      <trkpt lat="43.82173" lon="7.50572">
        <ele>822</ele>
        <time>2019-08-22T11:20:34Z</time>
      </trkpt>
      <trkpt lat="43.82135" lon="7.50606">
        <ele>833</ele>
        <time>2019-08-22T11:21:35Z</time>
      </trkpt>
      <trkpt lat="43.82131" lon="7.50607">
        <ele>833</ele>
        <time>2019-08-22T11:21:40Z</time>
      </trkpt>
      <trkpt lat="43.8212" lon="7.50588">
        <ele>830</ele>
        <time>2019-08-22T11:22:04Z</time>
      </trkpt>
      <trkpt lat="43.82104" lon="7.5059">
        <ele>832</ele>
        <time>2019-08-22T11:22:25Z</time>
      </trkpt>
      <trkpt lat="43.8208" lon="7.50612">
        <ele>840</ele>
        <time>2019-08-22T11:23:03Z</time>
      </trkpt>
      <trkpt lat="43.82038" lon="7.50622">
        <ele>848</ele>
        <time>2019-08-22T11:24:00Z</time>
      </trkpt>
      <trkpt lat="43.82012" lon="7.5064">
        <ele>855</ele>
        <time>2019-08-22T11:24:39Z</time>
      </trkpt>
      <trkpt lat="43.81979" lon="7.50644">
        <ele>857</ele>
        <time>2019-08-22T11:25:23Z</time>
      </trkpt>
      <trkpt lat="43.81985" lon="7.50676">
        <ele>863</ele>
        <time>2019-08-22T11:25:55Z</time>
      </trkpt>
      <trkpt lat="43.81981" lon="7.50743">
        <ele>877</ele>
        <time>2019-08-22T11:27:00Z</time>
      </trkpt>
      <trkpt lat="43.81973" lon="7.50739">
        <ele>877</ele>
        <time>2019-08-22T11:27:11Z</time>
      </trkpt>
      <trkpt lat="43.81955" lon="7.50744">
        <ele>878</ele>
        <time>2019-08-22T11:27:36Z</time>
      </trkpt>
      <trkpt lat="43.81949" lon="7.50782">
        <ele>886</ele>
        <time>2019-08-22T11:28:13Z</time>
      </trkpt>
      <trkpt lat="43.81916" lon="7.5082">
        <ele>895</ele>
        <time>2019-08-22T11:29:10Z</time>
      </trkpt>
      <trkpt lat="43.81919" lon="7.50842">
        <ele>900</ele>
        <time>2019-08-22T11:29:32Z</time>
      </trkpt>
      <trkpt lat="43.81916" lon="7.50848">
        <ele>901</ele>
        <time>2019-08-22T11:29:39Z</time>
      </trkpt>
      <trkpt lat="43.81909" lon="7.50844">
        <ele>901</ele>
        <time>2019-08-22T11:29:49Z</time>
      </trkpt>
      <trkpt lat="43.81901" lon="7.50874">
        <ele>908</ele>
        <time>2019-08-22T11:30:20Z</time>
      </trkpt>
      <trkpt lat="43.81885" lon="7.50888">
        <ele>911</ele>
        <time>2019-08-22T11:30:45Z</time>
      </trkpt>
      <trkpt lat="43.81875" lon="7.50917">
        <ele>918</ele>
        <time>2019-08-22T11:31:16Z</time>
      </trkpt>
      <trkpt lat="43.81854" lon="7.50939">
        <ele>924</ele>
        <time>2019-08-22T11:31:51Z</time>
      </trkpt>
      <trkpt lat="43.81847" lon="7.50975">
        <ele>935</ele>
        <time>2019-08-22T11:32:27Z</time>
      </trkpt>
      <trkpt lat="43.81786" lon="7.51009">
        <ele>950</ele>
        <time>2019-08-22T11:33:55Z</time>
      </trkpt>
      <trkpt lat="43.81785" lon="7.5103">
        <ele>957</ele>
        <time>2019-08-22T11:34:15Z</time>
      </trkpt>
      <trkpt lat="43.81851" lon="7.51139">
        <ele>989</ele>
        <time>2019-08-22T11:36:32Z</time>
      </trkpt>
      <trkpt lat="43.8187" lon="7.51144">
        <ele>990</ele>
        <time>2019-08-22T11:36:58Z</time>
      </trkpt>
      <trkpt lat="43.81856" lon="7.51181">
        <ele>1004</ele>
        <time>2019-08-22T11:37:38Z</time>
      </trkpt>
      <trkpt lat="43.81812" lon="7.51213">
        <ele>1016</ele>
        <time>2019-08-22T11:38:44Z</time>
      </trkpt>
      <trkpt lat="43.81786" lon="7.51229">
        <ele>1022</ele>
        <time>2019-08-22T11:39:22Z</time>
      </trkpt>
      <trkpt lat="43.81747" lon="7.51237">
        <ele>1026</ele>
        <time>2019-08-22T11:40:15Z</time>
      </trkpt>
      <trkpt lat="43.81717" lon="7.51262">
        <ele>1037</ele>
        <time>2019-08-22T11:41:02Z</time>
      </trkpt>
      <trkpt lat="43.8168" lon="7.51274">
        <ele>1044</ele>
        <time>2019-08-22T11:41:52Z</time>
      </trkpt>
      <trkpt lat="43.8165" lon="7.51276">
        <ele>1050</ele>
        <time>2019-08-22T11:42:33Z</time>
      </trkpt>
      <trkpt lat="43.81633" lon="7.51261">
        <ele>1048</ele>
        <time>2019-08-22T11:42:59Z</time>
      </trkpt>
      <trkpt lat="43.81612" lon="7.51262">
        <ele>1054</ele>
        <time>2019-08-22T11:43:27Z</time>
      </trkpt>
      <trkpt lat="43.81592" lon="7.51255">
        <ele>1057</ele>
        <time>2019-08-22T11:43:55Z</time>
      </trkpt>
      <trkpt lat="43.816" lon="7.51274">
        <ele>1061</ele>
        <time>2019-08-22T11:44:16Z</time>
      </trkpt>
      <trkpt lat="43.81588" lon="7.51274">
        <ele>1064</ele>
        <time>2019-08-22T11:44:32Z</time>
      </trkpt>
      <trkpt lat="43.81576" lon="7.51254">
        <ele>1062</ele>
        <time>2019-08-22T11:44:57Z</time>
      </trkpt>
      <trkpt lat="43.81561" lon="7.51293">
        <ele>1078</ele>
        <time>2019-08-22T11:45:40Z</time>
      </trkpt>
      <trkpt lat="43.81549" lon="7.51271">
        <ele>1077</ele>
        <time>2019-08-22T11:46:06Z</time>
      </trkpt>
      <trkpt lat="43.81529" lon="7.51305">
        <ele>1088</ele>
        <time>2019-08-22T11:46:49Z</time>
      </trkpt>
      <trkpt lat="43.81496" lon="7.5131">
        <ele>1094</ele>
        <time>2019-08-22T11:47:33Z</time>
      </trkpt>
      <trkpt lat="43.81481" lon="7.51305">
        <ele>1088</ele>
        <time>2019-08-22T11:47:53Z</time>
      </trkpt>
      <trkpt lat="43.81448" lon="7.51278">
        <ele>1081</ele>
        <time>2019-08-22T11:48:45Z</time>
      </trkpt>
      <trkpt lat="43.81378" lon="7.51265">
        <ele>1054</ele>
        <time>2019-08-22T11:50:19Z</time>
      </trkpt>
      <trkpt lat="43.81371" lon="7.51269">
        <ele>1049</ele>
        <time>2019-08-22T11:50:29Z</time>
      </trkpt>
      <trkpt lat="43.8137" lon="7.51283">
        <ele>1045</ele>
        <time>2019-08-22T11:50:42Z</time>
      </trkpt>
      <trkpt lat="43.81375" lon="7.5131">
        <ele>1041</ele>
        <time>2019-08-22T11:51:09Z</time>
      </trkpt>
      <trkpt lat="43.8137" lon="7.51357">
        <ele>1035</ele>
        <time>2019-08-22T11:51:55Z</time>
      </trkpt>
      <trkpt lat="43.81351" lon="7.51392">
        <ele>1026</ele>
        <time>2019-08-22T11:52:37Z</time>
      </trkpt>
      <trkpt lat="43.81316" lon="7.51417">
        <ele>1005</ele>
        <time>2019-08-22T11:53:30Z</time>
      </trkpt>
      <trkpt lat="43.8131" lon="7.51403">
        <ele>1002</ele>
        <time>2019-08-22T11:53:45Z</time>
      </trkpt>
      <trkpt lat="43.81268" lon="7.51437">
        <ele>980</ele>
        <time>2019-08-22T11:54:50Z</time>
      </trkpt>
      <trkpt lat="43.81262" lon="7.51408">
        <ele>973</ele>
        <time>2019-08-22T11:55:19Z</time>
      </trkpt>
      <trkpt lat="43.81254" lon="7.51401">
        <ele>969</ele>
        <time>2019-08-22T11:55:32Z</time>
      </trkpt>
      <trkpt lat="43.81248" lon="7.51403">
        <ele>966</ele>
        <time>2019-08-22T11:55:40Z</time>
      </trkpt>
      <trkpt lat="43.81249" lon="7.5139">
        <ele>968</ele>
        <time>2019-08-22T11:55:53Z</time>
      </trkpt>
      <trkpt lat="43.8121" lon="7.51427">
        <ele>946</ele>
        <time>2019-08-22T11:56:56Z</time>
      </trkpt>
      <trkpt lat="43.81202" lon="7.5142">
        <ele>941</ele>
        <time>2019-08-22T11:57:09Z</time>
      </trkpt>
      <trkpt lat="43.81189" lon="7.51424">
        <ele>934</ele>
        <time>2019-08-22T11:57:26Z</time>
      </trkpt>
      <trkpt lat="43.8116" lon="7.51444">
        <ele>921</ele>
        <time>2019-08-22T11:58:10Z</time>
      </trkpt>
      <trkpt lat="43.81155" lon="7.51429">
        <ele>917</ele>
        <time>2019-08-22T11:58:26Z</time>
      </trkpt>
      <trkpt lat="43.81136" lon="7.51443">
        <ele>908</ele>
        <time>2019-08-22T11:58:54Z</time>
      </trkpt>
      <trkpt lat="43.81133" lon="7.51414">
        <ele>904</ele>
        <time>2019-08-22T11:59:22Z</time>
      </trkpt>
      <trkpt lat="43.81105" lon="7.51437">
        <ele>891</ele>
        <time>2019-08-22T12:00:06Z</time>
      </trkpt>
      <trkpt lat="43.81099" lon="7.51426">
        <ele>886</ele>
        <time>2019-08-22T12:00:19Z</time>
      </trkpt>
      <trkpt lat="43.81088" lon="7.51424">
        <ele>880</ele>
        <time>2019-08-22T12:00:34Z</time>
      </trkpt>
      <trkpt lat="43.81065" lon="7.51437">
        <ele>869</ele>
        <time>2019-08-22T12:01:07Z</time>
      </trkpt>
      <trkpt lat="43.81061" lon="7.51449">
        <ele>868</ele>
        <time>2019-08-22T12:01:20Z</time>
      </trkpt>
      <trkpt lat="43.81052" lon="7.51446">
        <ele>863</ele>
        <time>2019-08-22T12:01:32Z</time>
      </trkpt>
      <trkpt lat="43.81042" lon="7.51458">
        <ele>859</ele>
        <time>2019-08-22T12:01:50Z</time>
      </trkpt>
      <trkpt lat="43.81041" lon="7.51434">
        <ele>856</ele>
        <time>2019-08-22T12:02:13Z</time>
      </trkpt>
      <trkpt lat="43.81019" lon="7.51449">
        <ele>846</ele>
        <time>2019-08-22T12:02:46Z</time>
      </trkpt>
      <trkpt lat="43.8099" lon="7.51449">
        <ele>831</ele>
        <time>2019-08-22T12:03:24Z</time>
      </trkpt>
      <trkpt lat="43.80936" lon="7.51494">
        <ele>806</ele>
        <time>2019-08-22T12:04:48Z</time>
      </trkpt>
      <trkpt lat="43.80914" lon="7.51496">
        <ele>796</ele>
        <time>2019-08-22T12:05:18Z</time>
      </trkpt>
      <trkpt lat="43.8091" lon="7.5151">
        <ele>797</ele>
        <time>2019-08-22T12:05:32Z</time>
      </trkpt>
      <trkpt lat="43.80898" lon="7.51508">
        <ele>791</ele>
        <time>2019-08-22T12:05:49Z</time>
      </trkpt>
      <trkpt lat="43.80897" lon="7.51521">
        <ele>793</ele>
        <time>2019-08-22T12:06:01Z</time>
      </trkpt>
      <trkpt lat="43.80879" lon="7.51505">
        <ele>782</ele>
        <time>2019-08-22T12:06:30Z</time>
      </trkpt>
      <trkpt lat="43.80832" lon="7.51514">
        <ele>764</ele>
        <time>2019-08-22T12:07:33Z</time>
      </trkpt>
      <trkpt lat="43.80839" lon="7.51495">
        <ele>764</ele>
        <time>2019-08-22T12:07:54Z</time>
      </trkpt>
      <trkpt lat="43.80778" lon="7.51496">
        <ele>748</ele>
        <time>2019-08-22T12:09:15Z</time>
      </trkpt>
      <trkpt lat="43.80795" lon="7.51436">
        <ele>743</ele>
        <time>2019-08-22T12:10:17Z</time>
      </trkpt>
      <trkpt lat="43.80792" lon="7.51417">
        <ele>738</ele>
        <time>2019-08-22T12:10:36Z</time>
      </trkpt>
      <trkpt lat="43.80778" lon="7.51408">
        <ele>727</ele>
        <time>2019-08-22T12:10:56Z</time>
      </trkpt>
      <trkpt lat="43.80758" lon="7.51433">
        <ele>724</ele>
        <time>2019-08-22T12:11:32Z</time>
      </trkpt>
      <trkpt lat="43.80739" lon="7.51428">
        <ele>717</ele>
        <time>2019-08-22T12:11:58Z</time>
      </trkpt>
      <trkpt lat="43.8072" lon="7.51432">
        <ele>715</ele>
        <time>2019-08-22T12:12:24Z</time>
      </trkpt>
      <trkpt lat="43.80696" lon="7.51452">
        <ele>718</ele>
        <time>2019-08-22T12:13:01Z</time>
      </trkpt>
      <trkpt lat="43.80648" lon="7.51477">
        <ele>721</ele>
        <time>2019-08-22T12:14:10Z</time>
      </trkpt>
      <trkpt lat="43.80617" lon="7.51486">
        <ele>722</ele>
        <time>2019-08-22T12:14:52Z</time>
      </trkpt>
      <trkpt lat="43.80574" lon="7.51479">
        <ele>721</ele>
        <time>2019-08-22T12:15:50Z</time>
      </trkpt>
      <trkpt lat="43.80487" lon="7.51443">
        <ele>720</ele>
        <time>2019-08-22T12:17:51Z</time>
      </trkpt>
      <trkpt lat="43.80448" lon="7.51457">
        <ele>715</ele>
        <time>2019-08-22T12:18:45Z</time>
      </trkpt>
      <trkpt lat="43.80362" lon="7.51537">
        <ele>721</ele>
        <time>2019-08-22T12:21:03Z</time>
      </trkpt>
      <trkpt lat="43.8036" lon="7.51556">
        <ele>725</ele>
        <time>2019-08-22T12:21:21Z</time>
      </trkpt>
      <trkpt lat="43.80308" lon="7.51599">
        <ele>724</ele>
        <time>2019-08-22T12:22:42Z</time>
      </trkpt>
      <trkpt lat="43.803" lon="7.5161">
        <ele>725</ele>
        <time>2019-08-22T12:22:57Z</time>
      </trkpt>
      <trkpt lat="43.803" lon="7.51626">
        <ele>728</ele>
        <time>2019-08-22T12:23:12Z</time>
      </trkpt>
      <trkpt lat="43.80288" lon="7.51649">
        <ele>731</ele>
        <time>2019-08-22T12:23:40Z</time>
      </trkpt>
      <trkpt lat="43.80241" lon="7.51705">
        <ele>734</ele>
        <time>2019-08-22T12:25:03Z</time>
      </trkpt>
      <trkpt lat="43.80215" lon="7.51753">
        <ele>739</ele>
        <time>2019-08-22T12:26:00Z</time>
      </trkpt>
      <trkpt lat="43.80193" lon="7.51769">
        <ele>737</ele>
        <time>2019-08-22T12:26:34Z</time>
      </trkpt>
      <trkpt lat="43.80177" lon="7.51801">
        <ele>739</ele>
        <time>2019-08-22T12:27:11Z</time>
      </trkpt>
      <trkpt lat="43.80155" lon="7.51831">
        <ele>734</ele>
        <time>2019-08-22T12:27:52Z</time>
      </trkpt>
      <trkpt lat="43.80094" lon="7.51895">
        <ele>714</ele>
        <time>2019-08-22T12:29:34Z</time>
      </trkpt>
      <trkpt lat="43.80091" lon="7.51894">
        <ele>713</ele>
        <time>2019-08-22T12:29:38Z</time>
      </trkpt>
      <trkpt lat="43.8009" lon="7.51882">
        <ele>710</ele>
        <time>2019-08-22T12:29:50Z</time>
      </trkpt>
      <trkpt lat="43.80082" lon="7.51889">
        <ele>707</ele>
        <time>2019-08-22T12:30:03Z</time>
      </trkpt>
      <trkpt lat="43.80065" lon="7.51881">
        <ele>696</ele>
        <time>2019-08-22T12:30:27Z</time>
      </trkpt>
      <trkpt lat="43.79957" lon="7.51962">
        <ele>656</ele>
        <time>2019-08-22T12:33:11Z</time>
      </trkpt>
      <trkpt lat="43.79943" lon="7.51958">
        <ele>648</ele>
        <time>2019-08-22T12:33:30Z</time>
      </trkpt>
      <trkpt lat="43.7994" lon="7.51951">
        <ele>645</ele>
        <time>2019-08-22T12:33:37Z</time>
      </trkpt>
      <trkpt lat="43.7993" lon="7.51952">
        <ele>640</ele>
        <time>2019-08-22T12:33:51Z</time>
      </trkpt>
      <trkpt lat="43.79931" lon="7.51931">
        <ele>636</ele>
        <time>2019-08-22T12:34:11Z</time>
      </trkpt>
      <trkpt lat="43.79927" lon="7.51931">
        <ele>634</ele>
        <time>2019-08-22T12:34:16Z</time>
      </trkpt>
      <trkpt lat="43.79896" lon="7.51977">
        <ele>626</ele>
        <time>2019-08-22T12:35:17Z</time>
      </trkpt>
      <trkpt lat="43.7984" lon="7.52033">
        <ele>610</ele>
        <time>2019-08-22T12:36:49Z</time>
      </trkpt>
      <trkpt lat="43.79813" lon="7.52069">
        <ele>604</ele>
        <time>2019-08-22T12:37:39Z</time>
      </trkpt>
      <trkpt lat="43.79797" lon="7.52101">
        <ele>602</ele>
        <time>2019-08-22T12:38:17Z</time>
      </trkpt>
      <trkpt lat="43.79774" lon="7.5212">
        <ele>594</ele>
        <time>2019-08-22T12:38:52Z</time>
      </trkpt>
      <trkpt lat="43.79692" lon="7.52221">
        <ele>566</ele>
        <time>2019-08-22T12:41:19Z</time>
      </trkpt>
      <trkpt lat="43.79688" lon="7.52222">
        <ele>564</ele>
        <time>2019-08-22T12:41:24Z</time>
      </trkpt>
      <trkpt lat="43.79679" lon="7.52211">
        <ele>556</ele>
        <time>2019-08-22T12:41:40Z</time>
      </trkpt>
      <trkpt lat="43.79659" lon="7.52221">
        <ele>547</ele>
        <time>2019-08-22T12:42:09Z</time>
      </trkpt>
      <trkpt lat="43.79644" lon="7.52221">
        <ele>538</ele>
        <time>2019-08-22T12:42:29Z</time>
      </trkpt>
      <trkpt lat="43.79638" lon="7.5223">
        <ele>537</ele>
        <time>2019-08-22T12:42:40Z</time>
      </trkpt>
      <trkpt lat="43.79633" lon="7.52226">
        <ele>533</ele>
        <time>2019-08-22T12:42:48Z</time>
      </trkpt>
      <trkpt lat="43.79625" lon="7.52237">
        <ele>531</ele>
        <time>2019-08-22T12:43:03Z</time>
      </trkpt>
      <trkpt lat="43.79585" lon="7.52255">
        <ele>514</ele>
        <time>2019-08-22T12:43:59Z</time>
      </trkpt>
      <trkpt lat="43.7958" lon="7.52252">
        <ele>511</ele>
        <time>2019-08-22T12:44:07Z</time>
      </trkpt>
      <trkpt lat="43.79576" lon="7.52202">
        <ele>497</ele>
        <time>2019-08-22T12:44:55Z</time>
      </trkpt>
      <trkpt lat="43.79571" lon="7.522">
        <ele>494</ele>
        <time>2019-08-22T12:45:02Z</time>
      </trkpt>
      <trkpt lat="43.79558" lon="7.52206">
        <ele>488</ele>
        <time>2019-08-22T12:45:20Z</time>
      </trkpt>
      <trkpt lat="43.79557" lon="7.52215">
        <ele>490</ele>
        <time>2019-08-22T12:45:29Z</time>
      </trkpt>
      <trkpt lat="43.79541" lon="7.52219">
        <ele>482</ele>
        <time>2019-08-22T12:45:51Z</time>
      </trkpt>
      <trkpt lat="43.7954" lon="7.52203">
        <ele>478</ele>
        <time>2019-08-22T12:46:06Z</time>
      </trkpt>
      <trkpt lat="43.79531" lon="7.52196">
        <ele>472</ele>
        <time>2019-08-22T12:46:20Z</time>
      </trkpt>
      <trkpt lat="43.79519" lon="7.5217">
        <ele>461</ele>
        <time>2019-08-22T12:46:50Z</time>
      </trkpt>
      <trkpt lat="43.79505" lon="7.52186">
        <ele>457</ele>
        <time>2019-08-22T12:47:14Z</time>
      </trkpt>
      <trkpt lat="43.79505" lon="7.52152">
        <ele>451</ele>
        <time>2019-08-22T12:47:47Z</time>
      </trkpt>
      <trkpt lat="43.79493" lon="7.52147">
        <ele>445</ele>
        <time>2019-08-22T12:48:03Z</time>
      </trkpt>
      <trkpt lat="43.79501" lon="7.52132">
        <ele>446</ele>
        <time>2019-08-22T12:48:21Z</time>
      </trkpt>
      <trkpt lat="43.79483" lon="7.52145">
        <ele>441</ele>
        <time>2019-08-22T12:48:48Z</time>
      </trkpt>
      <trkpt lat="43.79477" lon="7.52131">
        <ele>437</ele>
        <time>2019-08-22T12:49:04Z</time>
      </trkpt>
      <trkpt lat="43.79477" lon="7.52115">
        <ele>434</ele>
        <time>2019-08-22T12:49:20Z</time>
      </trkpt>
      <trkpt lat="43.79482" lon="7.52103">
        <ele>434</ele>
        <time>2019-08-22T12:49:33Z</time>
      </trkpt>
      <trkpt lat="43.79479" lon="7.521">
        <ele>433</ele>
        <time>2019-08-22T12:49:38Z</time>
      </trkpt>
      <trkpt lat="43.79458" lon="7.52131">
        <ele>430</ele>
        <time>2019-08-22T12:50:19Z</time>
      </trkpt>
      <trkpt lat="43.79449" lon="7.52129">
        <ele>426</ele>
        <time>2019-08-22T12:50:31Z</time>
      </trkpt>
      <trkpt lat="43.79419" lon="7.5209">
        <ele>408</ele>
        <time>2019-08-22T12:51:26Z</time>
      </trkpt>
      <trkpt lat="43.79383" lon="7.52065">
        <ele>390</ele>
        <time>2019-08-22T12:52:20Z</time>
      </trkpt>
      <trkpt lat="43.7938" lon="7.52054">
        <ele>387</ele>
        <time>2019-08-22T12:52:31Z</time>
      </trkpt>
      <trkpt lat="43.7937" lon="7.52046">
        <ele>383</ele>
        <time>2019-08-22T12:52:46Z</time>
      </trkpt>
      <trkpt lat="43.79309" lon="7.52029">
        <ele>358</ele>
        <time>2019-08-22T12:54:09Z</time>
      </trkpt>
      <trkpt lat="43.79304" lon="7.52022">
        <ele>356</ele>
        <time>2019-08-22T12:54:19Z</time>
      </trkpt>
      <trkpt lat="43.79301" lon="7.5195">
        <ele>343</ele>
        <time>2019-08-22T12:55:28Z</time>
      </trkpt>
      <trkpt lat="43.79273" lon="7.51924">
        <ele>328</ele>
        <time>2019-08-22T12:56:13Z</time>
      </trkpt>
      <trkpt lat="43.7926" lon="7.51901">
        <ele>318</ele>
        <time>2019-08-22T12:56:41Z</time>
      </trkpt>
      <trkpt lat="43.79249" lon="7.51894">
        <ele>311</ele>
        <time>2019-08-22T12:56:58Z</time>
      </trkpt>
      <trkpt lat="43.79231" lon="7.51861">
        <ele>294</ele>
        <time>2019-08-22T12:57:37Z</time>
      </trkpt>
      <trkpt lat="43.79229" lon="7.5185">
        <ele>290</ele>
        <time>2019-08-22T12:57:48Z</time>
      </trkpt>
      <trkpt lat="43.79237" lon="7.51828">
        <ele>288</ele>
        <time>2019-08-22T12:58:12Z</time>
      </trkpt>
      <trkpt lat="43.79217" lon="7.51838">
        <ele>283</ele>
        <time>2019-08-22T12:58:41Z</time>
      </trkpt>
      <trkpt lat="43.7922" lon="7.51829">
        <ele>282</ele>
        <time>2019-08-22T12:58:50Z</time>
      </trkpt>
      <trkpt lat="43.7921" lon="7.51816">
        <ele>276</ele>
        <time>2019-08-22T12:59:08Z</time>
      </trkpt>
      <trkpt lat="43.79203" lon="7.5182">
        <ele>274</ele>
        <time>2019-08-22T12:59:18Z</time>
      </trkpt>
      <trkpt lat="43.79203" lon="7.51807">
        <ele>271</ele>
        <time>2019-08-22T12:59:31Z</time>
      </trkpt>
      <trkpt lat="43.79187" lon="7.51803">
        <ele>264</ele>
        <time>2019-08-22T12:59:53Z</time>
      </trkpt>
      <trkpt lat="43.7919" lon="7.51795">
        <ele>264</ele>
        <time>2019-08-22T13:00:01Z</time>
      </trkpt>
      <trkpt lat="43.79187" lon="7.51788">
        <ele>261</ele>
        <time>2019-08-22T13:00:09Z</time>
      </trkpt>
      <trkpt lat="43.79153" lon="7.51765">
        <ele>242</ele>
        <time>2019-08-22T13:01:00Z</time>
      </trkpt>
      <trkpt lat="43.79154" lon="7.51757">
        <ele>241</ele>
        <time>2019-08-22T13:01:08Z</time>
      </trkpt>
      <trkpt lat="43.79141" lon="7.51738">
        <ele>234</ele>
        <time>2019-08-22T13:01:33Z</time>
      </trkpt>
      <trkpt lat="43.79142" lon="7.51731">
        <ele>233</ele>
        <time>2019-08-22T13:01:40Z</time>
      </trkpt>
      <trkpt lat="43.79124" lon="7.51712">
        <ele>225</ele>
        <time>2019-08-22T13:02:10Z</time>
      </trkpt>
      <trkpt lat="43.79112" lon="7.51685">
        <ele>219</ele>
        <time>2019-08-22T13:02:40Z</time>
      </trkpt>
      <trkpt lat="43.791" lon="7.5168">
        <ele>215</ele>
        <time>2019-08-22T13:02:57Z</time>
      </trkpt>
      <trkpt lat="43.79085" lon="7.51645">
        <ele>204</ele>
        <time>2019-08-22T13:03:36Z</time>
      </trkpt>
      <trkpt lat="43.79085" lon="7.5164">
        <ele>203</ele>
        <time>2019-08-22T13:03:41Z</time>
      </trkpt>
      <trkpt lat="43.79102" lon="7.51652">
        <ele>210</ele>
        <time>2019-08-22T13:04:07Z</time>
      </trkpt>
      <trkpt lat="43.79115" lon="7.51647">
        <ele>213</ele>
        <time>2019-08-22T13:04:25Z</time>
      </trkpt>
      <trkpt lat="43.79123" lon="7.51631">
        <ele>212</ele>
        <time>2019-08-22T13:04:43Z</time>
      </trkpt>
      <trkpt lat="43.79124" lon="7.51584">
        <ele>203</ele>
        <time>2019-08-22T13:05:29Z</time>
      </trkpt>
      <trkpt lat="43.79129" lon="7.51566">
        <ele>199</ele>
        <time>2019-08-22T13:05:47Z</time>
      </trkpt>
      <trkpt lat="43.79134" lon="7.51554">
        <ele>197</ele>
        <time>2019-08-22T13:06:01Z</time>
      </trkpt>
      <trkpt lat="43.79151" lon="7.51541">
        <ele>197</ele>
        <time>2019-08-22T13:06:26Z</time>
      </trkpt>
      <trkpt lat="43.7913" lon="7.51546">
        <ele>194</ele>
        <time>2019-08-22T13:06:55Z</time>
      </trkpt>
      <trkpt lat="43.7911" lon="7.51611">
        <ele>204</ele>
        <time>2019-08-22T13:08:03Z</time>
      </trkpt>
      <trkpt lat="43.79101" lon="7.51619">
        <ele>203</ele>
        <time>2019-08-22T13:08:17Z</time>
      </trkpt>
      <trkpt lat="43.79082" lon="7.51607">
        <ele>194</ele>
        <time>2019-08-22T13:08:45Z</time>
      </trkpt>
      <trkpt lat="43.7905" lon="7.51558">
        <ele>178</ele>
        <time>2019-08-22T13:09:49Z</time>
      </trkpt>
      <trkpt lat="43.79028" lon="7.51566">
        <ele>176</ele>
        <time>2019-08-22T13:10:19Z</time>
      </trkpt>
      <trkpt lat="43.79016" lon="7.51594">
        <ele>181</ele>
        <time>2019-08-22T13:10:50Z</time>
      </trkpt>
      <trkpt lat="43.78996" lon="7.51781">
        <ele>186</ele>
        <time>2019-08-22T13:13:53Z</time>
      </trkpt>
      <trkpt lat="43.7895" lon="7.51673">
        <ele>166</ele>
        <time>2019-08-22T13:15:53Z</time>
      </trkpt>
      <trkpt lat="43.78943" lon="7.51597">
        <ele>160</ele>
        <time>2019-08-22T13:17:07Z</time>
      </trkpt>
      <trkpt lat="43.78892" lon="7.51599">
        <ele>139</ele>
        <time>2019-08-22T13:18:15Z</time>
      </trkpt>
      <trkpt lat="43.78861" lon="7.51535">
        <ele>118</ele>
        <time>2019-08-22T13:19:30Z</time>
      </trkpt>
      <trkpt lat="43.78861" lon="7.5156">
        <ele>121</ele>
        <time>2019-08-22T13:19:54Z</time>
      </trkpt>
      <trkpt lat="43.78837" lon="7.51538">
        <ele>109</ele>
        <time>2019-08-22T13:20:32Z</time>
      </trkpt>
      <trkpt lat="43.78833" lon="7.51571">
        <ele>110</ele>
        <time>2019-08-22T13:21:04Z</time>
      </trkpt>
      <trkpt lat="43.78786" lon="7.51597">
        <ele>91</ele>
        <time>2019-08-22T13:22:12Z</time>
      </trkpt>
      <trkpt lat="43.78784" lon="7.5162">
        <ele>91</ele>
        <time>2019-08-22T13:22:34Z</time>
      </trkpt>
      <trkpt lat="43.78743" lon="7.51634">
        <ele>76</ele>
        <time>2019-08-22T13:23:30Z</time>
      </trkpt>
      <trkpt lat="43.78712" lon="7.51696">
        <ele>70</ele>
        <time>2019-08-22T13:24:43Z</time>
      </trkpt>
      <trkpt lat="43.78694" lon="7.517">
        <ele>66</ele>
        <time>2019-08-22T13:25:07Z</time>
      </trkpt>
      <trkpt lat="43.78682" lon="7.51715">
        <ele>63</ele>
        <time>2019-08-22T13:25:29Z</time>
      </trkpt>
      <trkpt lat="43.7866" lon="7.51713">
        <ele>57</ele>
        <time>2019-08-22T13:25:58Z</time>
      </trkpt>
      <trkpt lat="43.78631" lon="7.5175">
        <ele>48</ele>
        <time>2019-08-22T13:26:51Z</time>
      </trkpt>
      <trkpt lat="43.78624" lon="7.51778">
        <ele>42</ele>
        <time>2019-08-22T13:27:20Z</time>
      </trkpt>
      <trkpt lat="43.7861" lon="7.51769">
        <ele>39</ele>
        <time>2019-08-22T13:27:40Z</time>
      </trkpt>
      <trkpt lat="43.7861" lon="7.51802">
        <ele>35</ele>
        <time>2019-08-22T13:28:12Z</time>
      </trkpt>
      <trkpt lat="43.78574" lon="7.5184">
        <ele>24</ele>
        <time>2019-08-22T13:29:12Z</time>
      </trkpt>
      <trkpt lat="43.78546" lon="7.51854">
        <ele>19</ele>
        <time>2019-08-22T13:29:52Z</time>
      </trkpt>
      <trkpt lat="43.7846" lon="7.51896">
        <ele>6</ele>
        <time>2019-08-22T13:31:54Z</time>
      </trkpt>
      <trkpt lat="43.7841" lon="7.51916">
        <ele>3</ele>
        <time>2019-08-22T13:33:03Z</time>
      </trkpt>
    </trkseg>
  </trk>
</gpx>